<?xml version="1.0" encoding="UTF-8" standalone="no" ?>
<gpx xmlns="http://www.topografix.com/GPX/1/1" xmlns:xsi="http://www.w3.org/2001/XMLSchema-instance" xsi:schemaLocation="http://www.topografix.com/GPX/1/1 http://www.topografix.com/GPX/1/1/gpx.xsd" version="1.1" creator="VisuGPX - https://www.visugpx.com">
  <metadata>
    <name>Tour Porte du Soleil</name>
  </metadata>
  <trk>
    <name><![CDATA[Tour Porte du Soleil_1]]></name>
    <trkseg>
      <trkpt lat="46.25243" lon="6.83173">
        <ele>1299</ele>
        <time>2010-01-01T00:00:00Z</time>
      </trkpt>
      <trkpt lat="46.25247" lon="6.83157">
        <ele>1296</ele>
        <time>2010-01-01T00:00:04Z</time>
      </trkpt>
      <trkpt lat="46.25254" lon="6.83193">
        <ele>1283</ele>
        <time>2010-01-01T00:00:14Z</time>
      </trkpt>
      <trkpt lat="46.2527" lon="6.83211">
        <ele>1282</ele>
        <time>2010-01-01T00:00:22Z</time>
      </trkpt>
      <trkpt lat="46.25286" lon="6.83238">
        <ele>1281</ele>
        <time>2010-01-01T00:00:32Z</time>
      </trkpt>
      <trkpt lat="46.25305" lon="6.83242">
        <ele>1275</ele>
        <time>2010-01-01T00:00:40Z</time>
      </trkpt>
      <trkpt lat="46.25318" lon="6.83241">
        <ele>1271</ele>
        <time>2010-01-01T00:00:45Z</time>
      </trkpt>
      <trkpt lat="46.25338" lon="6.83299">
        <ele>1263</ele>
        <time>2010-01-01T00:01:03Z</time>
      </trkpt>
      <trkpt lat="46.25344" lon="6.83324">
        <ele>1269</ele>
        <time>2010-01-01T00:01:10Z</time>
      </trkpt>
      <trkpt lat="46.25369" lon="6.8337">
        <ele>1273</ele>
        <time>2010-01-01T00:01:27Z</time>
      </trkpt>
      <trkpt lat="46.25388" lon="6.83399">
        <ele>1271</ele>
        <time>2010-01-01T00:01:38Z</time>
      </trkpt>
      <trkpt lat="46.25409" lon="6.83433">
        <ele>1275</ele>
        <time>2010-01-01T00:01:50Z</time>
      </trkpt>
      <trkpt lat="46.2543" lon="6.83478">
        <ele>1261</ele>
        <time>2010-01-01T00:02:05Z</time>
      </trkpt>
      <trkpt lat="46.25432" lon="6.83483">
        <ele>1261</ele>
        <time>2010-01-01T00:02:07Z</time>
      </trkpt>
      <trkpt lat="46.25443" lon="6.83501">
        <ele>1265</ele>
        <time>2010-01-01T00:02:14Z</time>
      </trkpt>
      <trkpt lat="46.25459" lon="6.8354">
        <ele>1262</ele>
        <time>2010-01-01T00:02:26Z</time>
      </trkpt>
      <trkpt lat="46.25477" lon="6.83586">
        <ele>1265</ele>
        <time>2010-01-01T00:02:41Z</time>
      </trkpt>
      <trkpt lat="46.25509" lon="6.83655">
        <ele>1254</ele>
        <time>2010-01-01T00:03:04Z</time>
      </trkpt>
      <trkpt lat="46.25531" lon="6.837">
        <ele>1261</ele>
        <time>2010-01-01T00:03:19Z</time>
      </trkpt>
      <trkpt lat="46.25547" lon="6.83731">
        <ele>1262</ele>
        <time>2010-01-01T00:03:30Z</time>
      </trkpt>
      <trkpt lat="46.25564" lon="6.83753">
        <ele>1268</ele>
        <time>2010-01-01T00:03:39Z</time>
      </trkpt>
      <trkpt lat="46.25592" lon="6.83797">
        <ele>1253</ele>
        <time>2010-01-01T00:03:55Z</time>
      </trkpt>
      <trkpt lat="46.25592" lon="6.83789">
        <ele>1252</ele>
        <time>2010-01-01T00:03:58Z</time>
      </trkpt>
      <trkpt lat="46.25613" lon="6.83823">
        <ele>1253</ele>
        <time>2010-01-01T00:04:10Z</time>
      </trkpt>
      <trkpt lat="46.25632" lon="6.83869">
        <ele>1257</ele>
        <time>2010-01-01T00:04:25Z</time>
      </trkpt>
      <trkpt lat="46.25642" lon="6.83894">
        <ele>1256</ele>
        <time>2010-01-01T00:04:33Z</time>
      </trkpt>
      <trkpt lat="46.25656" lon="6.83926">
        <ele>1253</ele>
        <time>2010-01-01T00:04:44Z</time>
      </trkpt>
      <trkpt lat="46.25669" lon="6.8394">
        <ele>1245</ele>
        <time>2010-01-01T00:04:50Z</time>
      </trkpt>
      <trkpt lat="46.25684" lon="6.83953">
        <ele>1244</ele>
        <time>2010-01-01T00:04:57Z</time>
      </trkpt>
      <trkpt lat="46.25714" lon="6.83991">
        <ele>1244</ele>
        <time>2010-01-01T00:05:13Z</time>
      </trkpt>
      <trkpt lat="46.25732" lon="6.84017">
        <ele>1246</ele>
        <time>2010-01-01T00:05:23Z</time>
      </trkpt>
      <trkpt lat="46.25743" lon="6.8404">
        <ele>1246</ele>
        <time>2010-01-01T00:05:31Z</time>
      </trkpt>
      <trkpt lat="46.25752" lon="6.84044">
        <ele>1241</ele>
        <time>2010-01-01T00:05:35Z</time>
      </trkpt>
      <trkpt lat="46.25762" lon="6.84066">
        <ele>1242</ele>
        <time>2010-01-01T00:05:42Z</time>
      </trkpt>
      <trkpt lat="46.25771" lon="6.84043">
        <ele>1241</ele>
        <time>2010-01-01T00:05:50Z</time>
      </trkpt>
      <trkpt lat="46.25793" lon="6.84043">
        <ele>1240</ele>
        <time>2010-01-01T00:05:58Z</time>
      </trkpt>
      <trkpt lat="46.25823" lon="6.84054">
        <ele>1240</ele>
        <time>2010-01-01T00:06:11Z</time>
      </trkpt>
      <trkpt lat="46.25885" lon="6.84072">
        <ele>1237</ele>
        <time>2010-01-01T00:06:36Z</time>
      </trkpt>
      <trkpt lat="46.25932" lon="6.84082">
        <ele>1235</ele>
        <time>2010-01-01T00:06:55Z</time>
      </trkpt>
      <trkpt lat="46.25959" lon="6.84086">
        <ele>1240</ele>
        <time>2010-01-01T00:07:06Z</time>
      </trkpt>
      <trkpt lat="46.25995" lon="6.84088">
        <ele>1237</ele>
        <time>2010-01-01T00:07:20Z</time>
      </trkpt>
      <trkpt lat="46.26019" lon="6.84083">
        <ele>1230</ele>
        <time>2010-01-01T00:07:30Z</time>
      </trkpt>
      <trkpt lat="46.26055" lon="6.84077">
        <ele>1226</ele>
        <time>2010-01-01T00:07:45Z</time>
      </trkpt>
      <trkpt lat="46.26089" lon="6.84072">
        <ele>1224</ele>
        <time>2010-01-01T00:07:58Z</time>
      </trkpt>
      <trkpt lat="46.26116" lon="6.84071">
        <ele>1220</ele>
        <time>2010-01-01T00:08:09Z</time>
      </trkpt>
      <trkpt lat="46.26151" lon="6.84073">
        <ele>1219</ele>
        <time>2010-01-01T00:08:23Z</time>
      </trkpt>
      <trkpt lat="46.26181" lon="6.84081">
        <ele>1217</ele>
        <time>2010-01-01T00:08:35Z</time>
      </trkpt>
      <trkpt lat="46.26202" lon="6.84084">
        <ele>1223</ele>
        <time>2010-01-01T00:08:44Z</time>
      </trkpt>
      <trkpt lat="46.26222" lon="6.8409">
        <ele>1222</ele>
        <time>2010-01-01T00:08:52Z</time>
      </trkpt>
      <trkpt lat="46.26258" lon="6.84103">
        <ele>1215</ele>
        <time>2010-01-01T00:09:07Z</time>
      </trkpt>
      <trkpt lat="46.2629" lon="6.84115">
        <ele>1215</ele>
        <time>2010-01-01T00:09:20Z</time>
      </trkpt>
      <trkpt lat="46.26314" lon="6.84126">
        <ele>1215</ele>
        <time>2010-01-01T00:09:30Z</time>
      </trkpt>
      <trkpt lat="46.26334" lon="6.84131">
        <ele>1209</ele>
        <time>2010-01-01T00:09:38Z</time>
      </trkpt>
      <trkpt lat="46.26368" lon="6.84144">
        <ele>1208</ele>
        <time>2010-01-01T00:09:52Z</time>
      </trkpt>
      <trkpt lat="46.26404" lon="6.84152">
        <ele>1207</ele>
        <time>2010-01-01T00:10:07Z</time>
      </trkpt>
      <trkpt lat="46.26462" lon="6.84173">
        <ele>1212</ele>
        <time>2010-01-01T00:10:31Z</time>
      </trkpt>
      <trkpt lat="46.26493" lon="6.84178">
        <ele>1208</ele>
        <time>2010-01-01T00:10:43Z</time>
      </trkpt>
      <trkpt lat="46.26516" lon="6.84176">
        <ele>1207</ele>
        <time>2010-01-01T00:10:52Z</time>
      </trkpt>
      <trkpt lat="46.26552" lon="6.8417">
        <ele>1208</ele>
        <time>2010-01-01T00:11:07Z</time>
      </trkpt>
      <trkpt lat="46.26599" lon="6.84158">
        <ele>1198</ele>
        <time>2010-01-01T00:11:26Z</time>
      </trkpt>
      <trkpt lat="46.26638" lon="6.84142">
        <ele>1196</ele>
        <time>2010-01-01T00:11:42Z</time>
      </trkpt>
      <trkpt lat="46.2666" lon="6.84139">
        <ele>1196</ele>
        <time>2010-01-01T00:11:51Z</time>
      </trkpt>
      <trkpt lat="46.26678" lon="6.84143">
        <ele>1195</ele>
        <time>2010-01-01T00:11:59Z</time>
      </trkpt>
      <trkpt lat="46.26701" lon="6.84147">
        <ele>1194</ele>
        <time>2010-01-01T00:12:08Z</time>
      </trkpt>
      <trkpt lat="46.26726" lon="6.84168">
        <ele>1202</ele>
        <time>2010-01-01T00:12:19Z</time>
      </trkpt>
      <trkpt lat="46.26726" lon="6.84178">
        <ele>1203</ele>
        <time>2010-01-01T00:12:22Z</time>
      </trkpt>
      <trkpt lat="46.26712" lon="6.84187">
        <ele>1204</ele>
        <time>2010-01-01T00:12:28Z</time>
      </trkpt>
      <trkpt lat="46.26696" lon="6.84195">
        <ele>1205</ele>
        <time>2010-01-01T00:12:35Z</time>
      </trkpt>
      <trkpt lat="46.26681" lon="6.84202">
        <ele>1206</ele>
        <time>2010-01-01T00:12:42Z</time>
      </trkpt>
      <trkpt lat="46.26675" lon="6.84209">
        <ele>1207</ele>
        <time>2010-01-01T00:12:44Z</time>
      </trkpt>
      <trkpt lat="46.26661" lon="6.84216">
        <ele>1209</ele>
        <time>2010-01-01T00:12:50Z</time>
      </trkpt>
      <trkpt lat="46.26661" lon="6.84229">
        <ele>1211</ele>
        <time>2010-01-01T00:12:54Z</time>
      </trkpt>
      <trkpt lat="46.26659" lon="6.84237">
        <ele>1212</ele>
        <time>2010-01-01T00:12:56Z</time>
      </trkpt>
      <trkpt lat="46.26665" lon="6.84259">
        <ele>1220</ele>
        <time>2010-01-01T00:13:03Z</time>
      </trkpt>
      <trkpt lat="46.26669" lon="6.84265">
        <ele>1220</ele>
        <time>2010-01-01T00:13:05Z</time>
      </trkpt>
      <trkpt lat="46.26669" lon="6.84245">
        <ele>1214</ele>
        <time>2010-01-01T00:13:11Z</time>
      </trkpt>
      <trkpt lat="46.26676" lon="6.84242">
        <ele>1212</ele>
        <time>2010-01-01T00:13:14Z</time>
      </trkpt>
      <trkpt lat="46.26684" lon="6.84253">
        <ele>1219</ele>
        <time>2010-01-01T00:13:18Z</time>
      </trkpt>
      <trkpt lat="46.26683" lon="6.84269">
        <ele>1221</ele>
        <time>2010-01-01T00:13:22Z</time>
      </trkpt>
      <trkpt lat="46.2668" lon="6.84311">
        <ele>1227</ele>
        <time>2010-01-01T00:13:34Z</time>
      </trkpt>
      <trkpt lat="46.26679" lon="6.84343">
        <ele>1243</ele>
        <time>2010-01-01T00:13:43Z</time>
      </trkpt>
      <trkpt lat="46.26695" lon="6.84653">
        <ele>1395</ele>
        <time>2010-01-01T00:15:09Z</time>
      </trkpt>
      <trkpt lat="46.26702" lon="6.84793">
        <ele>1472</ele>
        <time>2010-01-01T00:15:48Z</time>
      </trkpt>
      <trkpt lat="46.26726" lon="6.84999">
        <ele>1505</ele>
        <time>2010-01-01T00:16:46Z</time>
      </trkpt>
      <trkpt lat="46.2674" lon="6.85268">
        <ele>1516</ele>
        <time>2010-01-01T00:18:00Z</time>
      </trkpt>
      <trkpt lat="46.26751" lon="6.85438">
        <ele>1556</ele>
        <time>2010-01-01T00:18:47Z</time>
      </trkpt>
      <trkpt lat="46.26753" lon="6.85531">
        <ele>1581</ele>
        <time>2010-01-01T00:19:13Z</time>
      </trkpt>
      <trkpt lat="46.26758" lon="6.8562">
        <ele>1602</ele>
        <time>2010-01-01T00:19:38Z</time>
      </trkpt>
      <trkpt lat="46.26767" lon="6.85687">
        <ele>1619</ele>
        <time>2010-01-01T00:19:57Z</time>
      </trkpt>
      <trkpt lat="46.26769" lon="6.8573">
        <ele>1625</ele>
        <time>2010-01-01T00:20:09Z</time>
      </trkpt>
      <trkpt lat="46.26769" lon="6.8574">
        <ele>1626</ele>
        <time>2010-01-01T00:20:12Z</time>
      </trkpt>
      <trkpt lat="46.26771" lon="6.85749">
        <ele>1627</ele>
        <time>2010-01-01T00:20:14Z</time>
      </trkpt>
      <trkpt lat="46.26773" lon="6.85756">
        <ele>1634</ele>
        <time>2010-01-01T00:20:16Z</time>
      </trkpt>
      <trkpt lat="46.26773" lon="6.8576">
        <ele>1635</ele>
        <time>2010-01-01T00:20:18Z</time>
      </trkpt>
      <trkpt lat="46.26772" lon="6.85764">
        <ele>1635</ele>
        <time>2010-01-01T00:20:19Z</time>
      </trkpt>
      <trkpt lat="46.26771" lon="6.8577">
        <ele>1635</ele>
        <time>2010-01-01T00:20:20Z</time>
      </trkpt>
      <trkpt lat="46.26771" lon="6.85773">
        <ele>1635</ele>
        <time>2010-01-01T00:20:21Z</time>
      </trkpt>
      <trkpt lat="46.26771" lon="6.85775">
        <ele>1636</ele>
        <time>2010-01-01T00:20:22Z</time>
      </trkpt>
      <trkpt lat="46.26772" lon="6.85782">
        <ele>1636</ele>
        <time>2010-01-01T00:20:24Z</time>
      </trkpt>
      <trkpt lat="46.26772" lon="6.85783">
        <ele>1636</ele>
        <time>2010-01-01T00:20:24Z</time>
      </trkpt>
      <trkpt lat="46.26773" lon="6.85782">
        <ele>1636</ele>
        <time>2010-01-01T00:20:24Z</time>
      </trkpt>
      <trkpt lat="46.26773" lon="6.85781">
        <ele>1636</ele>
        <time>2010-01-01T00:20:25Z</time>
      </trkpt>
      <trkpt lat="46.26775" lon="6.8578">
        <ele>1636</ele>
        <time>2010-01-01T00:20:25Z</time>
      </trkpt>
      <trkpt lat="46.26776" lon="6.85778">
        <ele>1636</ele>
        <time>2010-01-01T00:20:26Z</time>
      </trkpt>
      <trkpt lat="46.26777" lon="6.85777">
        <ele>1636</ele>
        <time>2010-01-01T00:20:27Z</time>
      </trkpt>
      <trkpt lat="46.26778" lon="6.85776">
        <ele>1636</ele>
        <time>2010-01-01T00:20:27Z</time>
      </trkpt>
      <trkpt lat="46.2678" lon="6.85776">
        <ele>1636</ele>
        <time>2010-01-01T00:20:28Z</time>
      </trkpt>
      <trkpt lat="46.2678" lon="6.85775">
        <ele>1636</ele>
        <time>2010-01-01T00:20:28Z</time>
      </trkpt>
      <trkpt lat="46.26781" lon="6.85775">
        <ele>1636</ele>
        <time>2010-01-01T00:20:28Z</time>
      </trkpt>
      <trkpt lat="46.26782" lon="6.85776">
        <ele>1636</ele>
        <time>2010-01-01T00:20:28Z</time>
      </trkpt>
      <trkpt lat="46.26782" lon="6.85776">
        <ele>1636</ele>
        <time>2010-01-01T00:20:29Z</time>
      </trkpt>
      <trkpt lat="46.26782" lon="6.85777">
        <ele>1636</ele>
        <time>2010-01-01T00:20:29Z</time>
      </trkpt>
      <trkpt lat="46.26782" lon="6.85779">
        <ele>1636</ele>
        <time>2010-01-01T00:20:30Z</time>
      </trkpt>
      <trkpt lat="46.26782" lon="6.85781">
        <ele>1636</ele>
        <time>2010-01-01T00:20:30Z</time>
      </trkpt>
      <trkpt lat="46.26782" lon="6.85782">
        <ele>1636</ele>
        <time>2010-01-01T00:20:30Z</time>
      </trkpt>
      <trkpt lat="46.26781" lon="6.85783">
        <ele>1636</ele>
        <time>2010-01-01T00:20:31Z</time>
      </trkpt>
      <trkpt lat="46.2678" lon="6.85784">
        <ele>1637</ele>
        <time>2010-01-01T00:20:31Z</time>
      </trkpt>
      <trkpt lat="46.2678" lon="6.85785">
        <ele>1637</ele>
        <time>2010-01-01T00:20:31Z</time>
      </trkpt>
      <trkpt lat="46.26779" lon="6.85786">
        <ele>1637</ele>
        <time>2010-01-01T00:20:32Z</time>
      </trkpt>
      <trkpt lat="46.26778" lon="6.85786">
        <ele>1637</ele>
        <time>2010-01-01T00:20:32Z</time>
      </trkpt>
      <trkpt lat="46.26777" lon="6.85786">
        <ele>1637</ele>
        <time>2010-01-01T00:20:33Z</time>
      </trkpt>
      <trkpt lat="46.26775" lon="6.85786">
        <ele>1637</ele>
        <time>2010-01-01T00:20:33Z</time>
      </trkpt>
      <trkpt lat="46.26774" lon="6.85787">
        <ele>1637</ele>
        <time>2010-01-01T00:20:34Z</time>
      </trkpt>
      <trkpt lat="46.26773" lon="6.85787">
        <ele>1637</ele>
        <time>2010-01-01T00:20:34Z</time>
      </trkpt>
      <trkpt lat="46.26772" lon="6.85788">
        <ele>1637</ele>
        <time>2010-01-01T00:20:35Z</time>
      </trkpt>
      <trkpt lat="46.2677" lon="6.8579">
        <ele>1637</ele>
        <time>2010-01-01T00:20:36Z</time>
      </trkpt>
      <trkpt lat="46.26769" lon="6.85791">
        <ele>1637</ele>
        <time>2010-01-01T00:20:36Z</time>
      </trkpt>
      <trkpt lat="46.26768" lon="6.85792">
        <ele>1637</ele>
        <time>2010-01-01T00:20:37Z</time>
      </trkpt>
      <trkpt lat="46.26766" lon="6.85793">
        <ele>1637</ele>
        <time>2010-01-01T00:20:38Z</time>
      </trkpt>
      <trkpt lat="46.26763" lon="6.85795">
        <ele>1637</ele>
        <time>2010-01-01T00:20:39Z</time>
      </trkpt>
      <trkpt lat="46.26761" lon="6.85797">
        <ele>1637</ele>
        <time>2010-01-01T00:20:40Z</time>
      </trkpt>
      <trkpt lat="46.2676" lon="6.85798">
        <ele>1637</ele>
        <time>2010-01-01T00:20:40Z</time>
      </trkpt>
      <trkpt lat="46.26759" lon="6.85799">
        <ele>1637</ele>
        <time>2010-01-01T00:20:41Z</time>
      </trkpt>
      <trkpt lat="46.26756" lon="6.858">
        <ele>1637</ele>
        <time>2010-01-01T00:20:42Z</time>
      </trkpt>
      <trkpt lat="46.26755" lon="6.858">
        <ele>1637</ele>
        <time>2010-01-01T00:20:42Z</time>
      </trkpt>
      <trkpt lat="46.26755" lon="6.85801">
        <ele>1637</ele>
        <time>2010-01-01T00:20:43Z</time>
      </trkpt>
      <trkpt lat="46.26754" lon="6.85801">
        <ele>1637</ele>
        <time>2010-01-01T00:20:43Z</time>
      </trkpt>
      <trkpt lat="46.26753" lon="6.85801">
        <ele>1637</ele>
        <time>2010-01-01T00:20:43Z</time>
      </trkpt>
      <trkpt lat="46.26752" lon="6.85802">
        <ele>1637</ele>
        <time>2010-01-01T00:20:44Z</time>
      </trkpt>
      <trkpt lat="46.26751" lon="6.85803">
        <ele>1637</ele>
        <time>2010-01-01T00:20:44Z</time>
      </trkpt>
      <trkpt lat="46.2675" lon="6.85804">
        <ele>1633</ele>
        <time>2010-01-01T00:20:45Z</time>
      </trkpt>
      <trkpt lat="46.26748" lon="6.85806">
        <ele>1634</ele>
        <time>2010-01-01T00:20:46Z</time>
      </trkpt>
      <trkpt lat="46.26745" lon="6.85809">
        <ele>1634</ele>
        <time>2010-01-01T00:20:47Z</time>
      </trkpt>
      <trkpt lat="46.26742" lon="6.85812">
        <ele>1634</ele>
        <time>2010-01-01T00:20:49Z</time>
      </trkpt>
      <trkpt lat="46.26739" lon="6.85815">
        <ele>1634</ele>
        <time>2010-01-01T00:20:50Z</time>
      </trkpt>
      <trkpt lat="46.26736" lon="6.85818">
        <ele>1634</ele>
        <time>2010-01-01T00:20:51Z</time>
      </trkpt>
      <trkpt lat="46.26734" lon="6.8582">
        <ele>1634</ele>
        <time>2010-01-01T00:20:53Z</time>
      </trkpt>
      <trkpt lat="46.26732" lon="6.8582">
        <ele>1634</ele>
        <time>2010-01-01T00:20:53Z</time>
      </trkpt>
      <trkpt lat="46.26732" lon="6.85821">
        <ele>1634</ele>
        <time>2010-01-01T00:20:53Z</time>
      </trkpt>
      <trkpt lat="46.2673" lon="6.85822">
        <ele>1634</ele>
        <time>2010-01-01T00:20:54Z</time>
      </trkpt>
      <trkpt lat="46.26729" lon="6.85823">
        <ele>1634</ele>
        <time>2010-01-01T00:20:55Z</time>
      </trkpt>
      <trkpt lat="46.26728" lon="6.85824">
        <ele>1634</ele>
        <time>2010-01-01T00:20:55Z</time>
      </trkpt>
      <trkpt lat="46.26727" lon="6.85825">
        <ele>1634</ele>
        <time>2010-01-01T00:20:56Z</time>
      </trkpt>
      <trkpt lat="46.26726" lon="6.85825">
        <ele>1634</ele>
        <time>2010-01-01T00:20:56Z</time>
      </trkpt>
      <trkpt lat="46.26726" lon="6.85826">
        <ele>1634</ele>
        <time>2010-01-01T00:20:56Z</time>
      </trkpt>
      <trkpt lat="46.26725" lon="6.85828">
        <ele>1634</ele>
        <time>2010-01-01T00:20:57Z</time>
      </trkpt>
      <trkpt lat="46.26724" lon="6.85829">
        <ele>1634</ele>
        <time>2010-01-01T00:20:57Z</time>
      </trkpt>
      <trkpt lat="46.26723" lon="6.85831">
        <ele>1634</ele>
        <time>2010-01-01T00:20:58Z</time>
      </trkpt>
      <trkpt lat="46.26722" lon="6.85833">
        <ele>1634</ele>
        <time>2010-01-01T00:20:59Z</time>
      </trkpt>
      <trkpt lat="46.26721" lon="6.85835">
        <ele>1640</ele>
        <time>2010-01-01T00:20:59Z</time>
      </trkpt>
      <trkpt lat="46.26718" lon="6.85838">
        <ele>1640</ele>
        <time>2010-01-01T00:21:01Z</time>
      </trkpt>
      <trkpt lat="46.26715" lon="6.85842">
        <ele>1639</ele>
        <time>2010-01-01T00:21:03Z</time>
      </trkpt>
      <trkpt lat="46.26713" lon="6.85844">
        <ele>1639</ele>
        <time>2010-01-01T00:21:03Z</time>
      </trkpt>
      <trkpt lat="46.26712" lon="6.85846">
        <ele>1639</ele>
        <time>2010-01-01T00:21:04Z</time>
      </trkpt>
      <trkpt lat="46.26711" lon="6.85847">
        <ele>1639</ele>
        <time>2010-01-01T00:21:05Z</time>
      </trkpt>
      <trkpt lat="46.2671" lon="6.85849">
        <ele>1639</ele>
        <time>2010-01-01T00:21:05Z</time>
      </trkpt>
      <trkpt lat="46.26709" lon="6.85851">
        <ele>1639</ele>
        <time>2010-01-01T00:21:06Z</time>
      </trkpt>
      <trkpt lat="46.26709" lon="6.85852">
        <ele>1639</ele>
        <time>2010-01-01T00:21:06Z</time>
      </trkpt>
      <trkpt lat="46.26707" lon="6.85854">
        <ele>1639</ele>
        <time>2010-01-01T00:21:07Z</time>
      </trkpt>
      <trkpt lat="46.26706" lon="6.85855">
        <ele>1639</ele>
        <time>2010-01-01T00:21:07Z</time>
      </trkpt>
      <trkpt lat="46.26705" lon="6.85856">
        <ele>1639</ele>
        <time>2010-01-01T00:21:08Z</time>
      </trkpt>
      <trkpt lat="46.26705" lon="6.85857">
        <ele>1639</ele>
        <time>2010-01-01T00:21:08Z</time>
      </trkpt>
      <trkpt lat="46.26702" lon="6.85863">
        <ele>1640</ele>
        <time>2010-01-01T00:21:10Z</time>
      </trkpt>
      <trkpt lat="46.26698" lon="6.85869">
        <ele>1640</ele>
        <time>2010-01-01T00:21:13Z</time>
      </trkpt>
      <trkpt lat="46.26696" lon="6.85871">
        <ele>1640</ele>
        <time>2010-01-01T00:21:14Z</time>
      </trkpt>
      <trkpt lat="46.26692" lon="6.85877">
        <ele>1640</ele>
        <time>2010-01-01T00:21:16Z</time>
      </trkpt>
      <trkpt lat="46.26689" lon="6.85882">
        <ele>1640</ele>
        <time>2010-01-01T00:21:18Z</time>
      </trkpt>
      <trkpt lat="46.26687" lon="6.85884">
        <ele>1640</ele>
        <time>2010-01-01T00:21:19Z</time>
      </trkpt>
      <trkpt lat="46.26685" lon="6.85887">
        <ele>1641</ele>
        <time>2010-01-01T00:21:20Z</time>
      </trkpt>
      <trkpt lat="46.26685" lon="6.85887">
        <ele>1641</ele>
        <time>2010-01-01T00:21:20Z</time>
      </trkpt>
      <trkpt lat="46.26684" lon="6.85889">
        <ele>1641</ele>
        <time>2010-01-01T00:21:20Z</time>
      </trkpt>
      <trkpt lat="46.26684" lon="6.85889">
        <ele>1641</ele>
        <time>2010-01-01T00:21:21Z</time>
      </trkpt>
      <trkpt lat="46.26683" lon="6.8589">
        <ele>1641</ele>
        <time>2010-01-01T00:21:21Z</time>
      </trkpt>
      <trkpt lat="46.26683" lon="6.8589">
        <ele>1641</ele>
        <time>2010-01-01T00:21:21Z</time>
      </trkpt>
      <trkpt lat="46.26679" lon="6.85895">
        <ele>1641</ele>
        <time>2010-01-01T00:21:23Z</time>
      </trkpt>
      <trkpt lat="46.26673" lon="6.85905">
        <ele>1641</ele>
        <time>2010-01-01T00:21:27Z</time>
      </trkpt>
      <trkpt lat="46.2667" lon="6.85908">
        <ele>1642</ele>
        <time>2010-01-01T00:21:28Z</time>
      </trkpt>
      <trkpt lat="46.26667" lon="6.8591">
        <ele>1642</ele>
        <time>2010-01-01T00:21:29Z</time>
      </trkpt>
      <trkpt lat="46.26661" lon="6.85919">
        <ele>1643</ele>
        <time>2010-01-01T00:21:33Z</time>
      </trkpt>
      <trkpt lat="46.26652" lon="6.85928">
        <ele>1644</ele>
        <time>2010-01-01T00:21:37Z</time>
      </trkpt>
      <trkpt lat="46.26645" lon="6.85932">
        <ele>1645</ele>
        <time>2010-01-01T00:21:40Z</time>
      </trkpt>
      <trkpt lat="46.26637" lon="6.85938">
        <ele>1646</ele>
        <time>2010-01-01T00:21:44Z</time>
      </trkpt>
      <trkpt lat="46.26632" lon="6.85941">
        <ele>1646</ele>
        <time>2010-01-01T00:21:46Z</time>
      </trkpt>
      <trkpt lat="46.26628" lon="6.85945">
        <ele>1646</ele>
        <time>2010-01-01T00:21:48Z</time>
      </trkpt>
      <trkpt lat="46.26623" lon="6.85948">
        <ele>1646</ele>
        <time>2010-01-01T00:21:50Z</time>
      </trkpt>
      <trkpt lat="46.26617" lon="6.85953">
        <ele>1646</ele>
        <time>2010-01-01T00:21:53Z</time>
      </trkpt>
      <trkpt lat="46.26595" lon="6.85974">
        <ele>1648</ele>
        <time>2010-01-01T00:22:04Z</time>
      </trkpt>
      <trkpt lat="46.26584" lon="6.85987">
        <ele>1649</ele>
        <time>2010-01-01T00:22:09Z</time>
      </trkpt>
      <trkpt lat="46.26555" lon="6.86023">
        <ele>1657</ele>
        <time>2010-01-01T00:22:25Z</time>
      </trkpt>
      <trkpt lat="46.26528" lon="6.86048">
        <ele>1659</ele>
        <time>2010-01-01T00:22:38Z</time>
      </trkpt>
      <trkpt lat="46.26496" lon="6.86072">
        <ele>1665</ele>
        <time>2010-01-01T00:22:52Z</time>
      </trkpt>
      <trkpt lat="46.26488" lon="6.86081">
        <ele>1665</ele>
        <time>2010-01-01T00:22:56Z</time>
      </trkpt>
      <trkpt lat="46.26479" lon="6.86091">
        <ele>1671</ele>
        <time>2010-01-01T00:23:00Z</time>
      </trkpt>
      <trkpt lat="46.26479" lon="6.86092">
        <ele>1671</ele>
        <time>2010-01-01T00:23:01Z</time>
      </trkpt>
      <trkpt lat="46.26473" lon="6.86111">
        <ele>1673</ele>
        <time>2010-01-01T00:23:06Z</time>
      </trkpt>
      <trkpt lat="46.26464" lon="6.86138">
        <ele>1675</ele>
        <time>2010-01-01T00:23:15Z</time>
      </trkpt>
      <trkpt lat="46.26464" lon="6.86149">
        <ele>1676</ele>
        <time>2010-01-01T00:23:18Z</time>
      </trkpt>
      <trkpt lat="46.26466" lon="6.86158">
        <ele>1676</ele>
        <time>2010-01-01T00:23:20Z</time>
      </trkpt>
      <trkpt lat="46.26472" lon="6.86171">
        <ele>1679</ele>
        <time>2010-01-01T00:23:25Z</time>
      </trkpt>
      <trkpt lat="46.26476" lon="6.86177">
        <ele>1679</ele>
        <time>2010-01-01T00:23:27Z</time>
      </trkpt>
      <trkpt lat="46.26483" lon="6.86178">
        <ele>1678</ele>
        <time>2010-01-01T00:23:30Z</time>
      </trkpt>
      <trkpt lat="46.26496" lon="6.86183">
        <ele>1678</ele>
        <time>2010-01-01T00:23:35Z</time>
      </trkpt>
      <trkpt lat="46.26504" lon="6.86182">
        <ele>1677</ele>
        <time>2010-01-01T00:23:39Z</time>
      </trkpt>
      <trkpt lat="46.26515" lon="6.86183">
        <ele>1678</ele>
        <time>2010-01-01T00:23:43Z</time>
      </trkpt>
      <trkpt lat="46.26523" lon="6.86185">
        <ele>1679</ele>
        <time>2010-01-01T00:23:46Z</time>
      </trkpt>
      <trkpt lat="46.26537" lon="6.86186">
        <ele>1680</ele>
        <time>2010-01-01T00:23:52Z</time>
      </trkpt>
      <trkpt lat="46.26545" lon="6.86186">
        <ele>1680</ele>
        <time>2010-01-01T00:23:55Z</time>
      </trkpt>
      <trkpt lat="46.26554" lon="6.86186">
        <ele>1680</ele>
        <time>2010-01-01T00:23:58Z</time>
      </trkpt>
      <trkpt lat="46.26566" lon="6.8619">
        <ele>1681</ele>
        <time>2010-01-01T00:24:04Z</time>
      </trkpt>
      <trkpt lat="46.26574" lon="6.86193">
        <ele>1681</ele>
        <time>2010-01-01T00:24:07Z</time>
      </trkpt>
      <trkpt lat="46.26595" lon="6.86217">
        <ele>1685</ele>
        <time>2010-01-01T00:24:17Z</time>
      </trkpt>
      <trkpt lat="46.26603" lon="6.8623">
        <ele>1686</ele>
        <time>2010-01-01T00:24:22Z</time>
      </trkpt>
      <trkpt lat="46.26603" lon="6.86246">
        <ele>1686</ele>
        <time>2010-01-01T00:24:27Z</time>
      </trkpt>
      <trkpt lat="46.26598" lon="6.86263">
        <ele>1690</ele>
        <time>2010-01-01T00:24:32Z</time>
      </trkpt>
      <trkpt lat="46.26588" lon="6.86288">
        <ele>1692</ele>
        <time>2010-01-01T00:24:40Z</time>
      </trkpt>
      <trkpt lat="46.26582" lon="6.86298">
        <ele>1687</ele>
        <time>2010-01-01T00:24:43Z</time>
      </trkpt>
      <trkpt lat="46.26582" lon="6.86298">
        <ele>1687</ele>
        <time>2010-01-01T00:24:43Z</time>
      </trkpt>
      <trkpt lat="46.26567" lon="6.86322">
        <ele>1688</ele>
        <time>2010-01-01T00:24:52Z</time>
      </trkpt>
      <trkpt lat="46.26562" lon="6.86331">
        <ele>1688</ele>
        <time>2010-01-01T00:24:56Z</time>
      </trkpt>
      <trkpt lat="46.26559" lon="6.86337">
        <ele>1690</ele>
        <time>2010-01-01T00:24:58Z</time>
      </trkpt>
      <trkpt lat="46.26555" lon="6.86343">
        <ele>1689</ele>
        <time>2010-01-01T00:25:00Z</time>
      </trkpt>
      <trkpt lat="46.26555" lon="6.86344">
        <ele>1689</ele>
        <time>2010-01-01T00:25:00Z</time>
      </trkpt>
      <trkpt lat="46.26555" lon="6.86346">
        <ele>1689</ele>
        <time>2010-01-01T00:25:01Z</time>
      </trkpt>
      <trkpt lat="46.26555" lon="6.86346">
        <ele>1689</ele>
        <time>2010-01-01T00:25:01Z</time>
      </trkpt>
      <trkpt lat="46.26555" lon="6.86347">
        <ele>1689</ele>
        <time>2010-01-01T00:25:01Z</time>
      </trkpt>
      <trkpt lat="46.26553" lon="6.86358">
        <ele>1689</ele>
        <time>2010-01-01T00:25:04Z</time>
      </trkpt>
      <trkpt lat="46.26553" lon="6.86358">
        <ele>1689</ele>
        <time>2010-01-01T00:25:04Z</time>
      </trkpt>
      <trkpt lat="46.2655" lon="6.86374">
        <ele>1689</ele>
        <time>2010-01-01T00:25:09Z</time>
      </trkpt>
      <trkpt lat="46.26542" lon="6.86423">
        <ele>1691</ele>
        <time>2010-01-01T00:25:23Z</time>
      </trkpt>
      <trkpt lat="46.26542" lon="6.86444">
        <ele>1691</ele>
        <time>2010-01-01T00:25:28Z</time>
      </trkpt>
      <trkpt lat="46.26544" lon="6.8646">
        <ele>1691</ele>
        <time>2010-01-01T00:25:33Z</time>
      </trkpt>
      <trkpt lat="46.26543" lon="6.86496">
        <ele>1691</ele>
        <time>2010-01-01T00:25:43Z</time>
      </trkpt>
      <trkpt lat="46.26541" lon="6.86517">
        <ele>1693</ele>
        <time>2010-01-01T00:25:49Z</time>
      </trkpt>
      <trkpt lat="46.26536" lon="6.86535">
        <ele>1693</ele>
        <time>2010-01-01T00:25:54Z</time>
      </trkpt>
      <trkpt lat="46.26539" lon="6.86548">
        <ele>1693</ele>
        <time>2010-01-01T00:25:58Z</time>
      </trkpt>
      <trkpt lat="46.26539" lon="6.86549">
        <ele>1693</ele>
        <time>2010-01-01T00:25:58Z</time>
      </trkpt>
      <trkpt lat="46.26545" lon="6.86562">
        <ele>1693</ele>
        <time>2010-01-01T00:26:02Z</time>
      </trkpt>
      <trkpt lat="46.26552" lon="6.86573">
        <ele>1692</ele>
        <time>2010-01-01T00:26:07Z</time>
      </trkpt>
      <trkpt lat="46.26553" lon="6.86576">
        <ele>1692</ele>
        <time>2010-01-01T00:26:07Z</time>
      </trkpt>
      <trkpt lat="46.26559" lon="6.86615">
        <ele>1692</ele>
        <time>2010-01-01T00:26:19Z</time>
      </trkpt>
      <trkpt lat="46.26559" lon="6.86632">
        <ele>1692</ele>
        <time>2010-01-01T00:26:23Z</time>
      </trkpt>
      <trkpt lat="46.26558" lon="6.86648">
        <ele>1691</ele>
        <time>2010-01-01T00:26:28Z</time>
      </trkpt>
      <trkpt lat="46.26553" lon="6.86663">
        <ele>1691</ele>
        <time>2010-01-01T00:26:32Z</time>
      </trkpt>
      <trkpt lat="46.26545" lon="6.86684">
        <ele>1690</ele>
        <time>2010-01-01T00:26:39Z</time>
      </trkpt>
      <trkpt lat="46.26534" lon="6.8671">
        <ele>1690</ele>
        <time>2010-01-01T00:26:47Z</time>
      </trkpt>
      <trkpt lat="46.26525" lon="6.86736">
        <ele>1690</ele>
        <time>2010-01-01T00:26:55Z</time>
      </trkpt>
      <trkpt lat="46.26522" lon="6.86751">
        <ele>1683</ele>
        <time>2010-01-01T00:27:00Z</time>
      </trkpt>
      <trkpt lat="46.26521" lon="6.86763">
        <ele>1681</ele>
        <time>2010-01-01T00:27:03Z</time>
      </trkpt>
      <trkpt lat="46.26518" lon="6.86765">
        <ele>1682</ele>
        <time>2010-01-01T00:27:04Z</time>
      </trkpt>
      <trkpt lat="46.26514" lon="6.86774">
        <ele>1681</ele>
        <time>2010-01-01T00:27:07Z</time>
      </trkpt>
      <trkpt lat="46.26514" lon="6.86775">
        <ele>1680</ele>
        <time>2010-01-01T00:27:07Z</time>
      </trkpt>
      <trkpt lat="46.26506" lon="6.8678">
        <ele>1680</ele>
        <time>2010-01-01T00:27:11Z</time>
      </trkpt>
      <trkpt lat="46.26493" lon="6.86789">
        <ele>1690</ele>
        <time>2010-01-01T00:27:17Z</time>
      </trkpt>
      <trkpt lat="46.26475" lon="6.86803">
        <ele>1689</ele>
        <time>2010-01-01T00:27:25Z</time>
      </trkpt>
      <trkpt lat="46.26471" lon="6.86805">
        <ele>1689</ele>
        <time>2010-01-01T00:27:27Z</time>
      </trkpt>
      <trkpt lat="46.26463" lon="6.8681">
        <ele>1690</ele>
        <time>2010-01-01T00:27:30Z</time>
      </trkpt>
      <trkpt lat="46.26458" lon="6.86815">
        <ele>1690</ele>
        <time>2010-01-01T00:27:32Z</time>
      </trkpt>
      <trkpt lat="46.26448" lon="6.86825">
        <ele>1690</ele>
        <time>2010-01-01T00:27:37Z</time>
      </trkpt>
      <trkpt lat="46.26444" lon="6.86827">
        <ele>1690</ele>
        <time>2010-01-01T00:27:39Z</time>
      </trkpt>
      <trkpt lat="46.26437" lon="6.86832">
        <ele>1691</ele>
        <time>2010-01-01T00:27:42Z</time>
      </trkpt>
      <trkpt lat="46.26429" lon="6.86838">
        <ele>1682</ele>
        <time>2010-01-01T00:27:46Z</time>
      </trkpt>
      <trkpt lat="46.26413" lon="6.8685">
        <ele>1687</ele>
        <time>2010-01-01T00:27:53Z</time>
      </trkpt>
      <trkpt lat="46.264" lon="6.86859">
        <ele>1686</ele>
        <time>2010-01-01T00:27:59Z</time>
      </trkpt>
      <trkpt lat="46.26386" lon="6.86866">
        <ele>1685</ele>
        <time>2010-01-01T00:28:05Z</time>
      </trkpt>
      <trkpt lat="46.26372" lon="6.86878">
        <ele>1685</ele>
        <time>2010-01-01T00:28:11Z</time>
      </trkpt>
      <trkpt lat="46.26361" lon="6.86887">
        <ele>1685</ele>
        <time>2010-01-01T00:28:16Z</time>
      </trkpt>
      <trkpt lat="46.26343" lon="6.86896">
        <ele>1684</ele>
        <time>2010-01-01T00:28:24Z</time>
      </trkpt>
      <trkpt lat="46.26324" lon="6.86903">
        <ele>1690</ele>
        <time>2010-01-01T00:28:32Z</time>
      </trkpt>
      <trkpt lat="46.26318" lon="6.86906">
        <ele>1690</ele>
        <time>2010-01-01T00:28:34Z</time>
      </trkpt>
      <trkpt lat="46.26305" lon="6.86912">
        <ele>1693</ele>
        <time>2010-01-01T00:28:40Z</time>
      </trkpt>
      <trkpt lat="46.26301" lon="6.86917">
        <ele>1693</ele>
        <time>2010-01-01T00:28:42Z</time>
      </trkpt>
      <trkpt lat="46.26291" lon="6.86928">
        <ele>1689</ele>
        <time>2010-01-01T00:28:47Z</time>
      </trkpt>
      <trkpt lat="46.26283" lon="6.86937">
        <ele>1690</ele>
        <time>2010-01-01T00:28:51Z</time>
      </trkpt>
      <trkpt lat="46.26276" lon="6.86943">
        <ele>1690</ele>
        <time>2010-01-01T00:28:54Z</time>
      </trkpt>
      <trkpt lat="46.2627" lon="6.86951">
        <ele>1690</ele>
        <time>2010-01-01T00:28:57Z</time>
      </trkpt>
      <trkpt lat="46.2626" lon="6.8698">
        <ele>1690</ele>
        <time>2010-01-01T00:29:06Z</time>
      </trkpt>
      <trkpt lat="46.26254" lon="6.87014">
        <ele>1691</ele>
        <time>2010-01-01T00:29:16Z</time>
      </trkpt>
      <trkpt lat="46.2625" lon="6.87043">
        <ele>1691</ele>
        <time>2010-01-01T00:29:24Z</time>
      </trkpt>
      <trkpt lat="46.26246" lon="6.8707">
        <ele>1701</ele>
        <time>2010-01-01T00:29:32Z</time>
      </trkpt>
      <trkpt lat="46.26245" lon="6.87084">
        <ele>1699</ele>
        <time>2010-01-01T00:29:36Z</time>
      </trkpt>
      <trkpt lat="46.26247" lon="6.871">
        <ele>1701</ele>
        <time>2010-01-01T00:29:40Z</time>
      </trkpt>
      <trkpt lat="46.26247" lon="6.8711">
        <ele>1703</ele>
        <time>2010-01-01T00:29:43Z</time>
      </trkpt>
      <trkpt lat="46.26244" lon="6.87114">
        <ele>1703</ele>
        <time>2010-01-01T00:29:44Z</time>
      </trkpt>
      <trkpt lat="46.26237" lon="6.87113">
        <ele>1704</ele>
        <time>2010-01-01T00:29:48Z</time>
      </trkpt>
      <trkpt lat="46.26221" lon="6.87098">
        <ele>1705</ele>
        <time>2010-01-01T00:29:55Z</time>
      </trkpt>
      <trkpt lat="46.26206" lon="6.87084">
        <ele>1707</ele>
        <time>2010-01-01T00:30:02Z</time>
      </trkpt>
      <trkpt lat="46.26197" lon="6.8707">
        <ele>1708</ele>
        <time>2010-01-01T00:30:08Z</time>
      </trkpt>
      <trkpt lat="46.26194" lon="6.87058">
        <ele>1708</ele>
        <time>2010-01-01T00:30:11Z</time>
      </trkpt>
      <trkpt lat="46.26193" lon="6.87041">
        <ele>1708</ele>
        <time>2010-01-01T00:30:16Z</time>
      </trkpt>
      <trkpt lat="46.26196" lon="6.87027">
        <ele>1708</ele>
        <time>2010-01-01T00:30:20Z</time>
      </trkpt>
      <trkpt lat="46.26198" lon="6.87005">
        <ele>1709</ele>
        <time>2010-01-01T00:30:26Z</time>
      </trkpt>
      <trkpt lat="46.26196" lon="6.86987">
        <ele>1711</ele>
        <time>2010-01-01T00:30:31Z</time>
      </trkpt>
      <trkpt lat="46.26196" lon="6.86979">
        <ele>1711</ele>
        <time>2010-01-01T00:30:33Z</time>
      </trkpt>
      <trkpt lat="46.26196" lon="6.86971">
        <ele>1711</ele>
        <time>2010-01-01T00:30:35Z</time>
      </trkpt>
      <trkpt lat="46.26195" lon="6.86956">
        <ele>1712</ele>
        <time>2010-01-01T00:30:40Z</time>
      </trkpt>
      <trkpt lat="46.26194" lon="6.86947">
        <ele>1712</ele>
        <time>2010-01-01T00:30:42Z</time>
      </trkpt>
      <trkpt lat="46.26191" lon="6.8693">
        <ele>1715</ele>
        <time>2010-01-01T00:30:47Z</time>
      </trkpt>
      <trkpt lat="46.26189" lon="6.86915">
        <ele>1720</ele>
        <time>2010-01-01T00:30:51Z</time>
      </trkpt>
      <trkpt lat="46.26188" lon="6.869">
        <ele>1720</ele>
        <time>2010-01-01T00:30:55Z</time>
      </trkpt>
      <trkpt lat="46.26187" lon="6.86891">
        <ele>1720</ele>
        <time>2010-01-01T00:30:58Z</time>
      </trkpt>
      <trkpt lat="46.26186" lon="6.86877">
        <ele>1720</ele>
        <time>2010-01-01T00:31:02Z</time>
      </trkpt>
      <trkpt lat="46.26185" lon="6.86871">
        <ele>1721</ele>
        <time>2010-01-01T00:31:03Z</time>
      </trkpt>
      <trkpt lat="46.26183" lon="6.86864">
        <ele>1721</ele>
        <time>2010-01-01T00:31:05Z</time>
      </trkpt>
      <trkpt lat="46.26183" lon="6.86861">
        <ele>1722</ele>
        <time>2010-01-01T00:31:06Z</time>
      </trkpt>
      <trkpt lat="46.2618" lon="6.86844">
        <ele>1725</ele>
        <time>2010-01-01T00:31:11Z</time>
      </trkpt>
      <trkpt lat="46.2618" lon="6.86832">
        <ele>1730</ele>
        <time>2010-01-01T00:31:14Z</time>
      </trkpt>
      <trkpt lat="46.26183" lon="6.86817">
        <ele>1729</ele>
        <time>2010-01-01T00:31:19Z</time>
      </trkpt>
      <trkpt lat="46.26187" lon="6.86809">
        <ele>1729</ele>
        <time>2010-01-01T00:31:22Z</time>
      </trkpt>
      <trkpt lat="46.26195" lon="6.86802">
        <ele>1729</ele>
        <time>2010-01-01T00:31:25Z</time>
      </trkpt>
      <trkpt lat="46.26196" lon="6.86799">
        <ele>1729</ele>
        <time>2010-01-01T00:31:26Z</time>
      </trkpt>
      <trkpt lat="46.26197" lon="6.86795">
        <ele>1729</ele>
        <time>2010-01-01T00:31:27Z</time>
      </trkpt>
      <trkpt lat="46.26197" lon="6.86792">
        <ele>1729</ele>
        <time>2010-01-01T00:31:28Z</time>
      </trkpt>
      <trkpt lat="46.26195" lon="6.86788">
        <ele>1730</ele>
        <time>2010-01-01T00:31:30Z</time>
      </trkpt>
      <trkpt lat="46.26192" lon="6.86787">
        <ele>1730</ele>
        <time>2010-01-01T00:31:31Z</time>
      </trkpt>
      <trkpt lat="46.26184" lon="6.86791">
        <ele>1730</ele>
        <time>2010-01-01T00:31:34Z</time>
      </trkpt>
      <trkpt lat="46.26176" lon="6.86796">
        <ele>1730</ele>
        <time>2010-01-01T00:31:38Z</time>
      </trkpt>
      <trkpt lat="46.26176" lon="6.86797">
        <ele>1730</ele>
        <time>2010-01-01T00:31:38Z</time>
      </trkpt>
      <trkpt lat="46.26167" lon="6.86813">
        <ele>1730</ele>
        <time>2010-01-01T00:31:44Z</time>
      </trkpt>
      <trkpt lat="46.26161" lon="6.86838">
        <ele>1737</ele>
        <time>2010-01-01T00:31:51Z</time>
      </trkpt>
      <trkpt lat="46.26155" lon="6.86863">
        <ele>1744</ele>
        <time>2010-01-01T00:31:58Z</time>
      </trkpt>
      <trkpt lat="46.26151" lon="6.86883">
        <ele>1744</ele>
        <time>2010-01-01T00:32:04Z</time>
      </trkpt>
      <trkpt lat="46.26146" lon="6.86914">
        <ele>1741</ele>
        <time>2010-01-01T00:32:13Z</time>
      </trkpt>
      <trkpt lat="46.26143" lon="6.86926">
        <ele>1738</ele>
        <time>2010-01-01T00:32:16Z</time>
      </trkpt>
      <trkpt lat="46.26141" lon="6.86931">
        <ele>1738</ele>
        <time>2010-01-01T00:32:18Z</time>
      </trkpt>
      <trkpt lat="46.26137" lon="6.86941">
        <ele>1740</ele>
        <time>2010-01-01T00:32:21Z</time>
      </trkpt>
      <trkpt lat="46.26132" lon="6.86948">
        <ele>1740</ele>
        <time>2010-01-01T00:32:24Z</time>
      </trkpt>
      <trkpt lat="46.26122" lon="6.86963">
        <ele>1741</ele>
        <time>2010-01-01T00:32:30Z</time>
      </trkpt>
      <trkpt lat="46.26109" lon="6.86982">
        <ele>1743</ele>
        <time>2010-01-01T00:32:37Z</time>
      </trkpt>
      <trkpt lat="46.26104" lon="6.8699">
        <ele>1744</ele>
        <time>2010-01-01T00:32:40Z</time>
      </trkpt>
      <trkpt lat="46.26096" lon="6.87001">
        <ele>1742</ele>
        <time>2010-01-01T00:32:44Z</time>
      </trkpt>
      <trkpt lat="46.26088" lon="6.87012">
        <ele>1742</ele>
        <time>2010-01-01T00:32:49Z</time>
      </trkpt>
      <trkpt lat="46.2608" lon="6.87025">
        <ele>1752</ele>
        <time>2010-01-01T00:32:54Z</time>
      </trkpt>
      <trkpt lat="46.26075" lon="6.87031">
        <ele>1752</ele>
        <time>2010-01-01T00:32:56Z</time>
      </trkpt>
      <trkpt lat="46.26072" lon="6.87036">
        <ele>1752</ele>
        <time>2010-01-01T00:32:58Z</time>
      </trkpt>
      <trkpt lat="46.26068" lon="6.87042">
        <ele>1752</ele>
        <time>2010-01-01T00:33:00Z</time>
      </trkpt>
      <trkpt lat="46.26064" lon="6.87047">
        <ele>1752</ele>
        <time>2010-01-01T00:33:03Z</time>
      </trkpt>
      <trkpt lat="46.2606" lon="6.87051">
        <ele>1752</ele>
        <time>2010-01-01T00:33:05Z</time>
      </trkpt>
      <trkpt lat="46.26052" lon="6.87059">
        <ele>1752</ele>
        <time>2010-01-01T00:33:08Z</time>
      </trkpt>
      <trkpt lat="46.26045" lon="6.87066">
        <ele>1753</ele>
        <time>2010-01-01T00:33:12Z</time>
      </trkpt>
      <trkpt lat="46.26036" lon="6.87073">
        <ele>1754</ele>
        <time>2010-01-01T00:33:16Z</time>
      </trkpt>
      <trkpt lat="46.26028" lon="6.87078">
        <ele>1756</ele>
        <time>2010-01-01T00:33:20Z</time>
      </trkpt>
      <trkpt lat="46.26019" lon="6.87081">
        <ele>1757</ele>
        <time>2010-01-01T00:33:23Z</time>
      </trkpt>
      <trkpt lat="46.26008" lon="6.87083">
        <ele>1759</ele>
        <time>2010-01-01T00:33:27Z</time>
      </trkpt>
      <trkpt lat="46.25998" lon="6.87082">
        <ele>1761</ele>
        <time>2010-01-01T00:33:31Z</time>
      </trkpt>
      <trkpt lat="46.25991" lon="6.87078">
        <ele>1765</ele>
        <time>2010-01-01T00:33:35Z</time>
      </trkpt>
      <trkpt lat="46.25982" lon="6.8707">
        <ele>1768</ele>
        <time>2010-01-01T00:33:39Z</time>
      </trkpt>
      <trkpt lat="46.25971" lon="6.87064">
        <ele>1770</ele>
        <time>2010-01-01T00:33:43Z</time>
      </trkpt>
      <trkpt lat="46.25961" lon="6.87065">
        <ele>1771</ele>
        <time>2010-01-01T00:33:48Z</time>
      </trkpt>
      <trkpt lat="46.25956" lon="6.87067">
        <ele>1771</ele>
        <time>2010-01-01T00:33:50Z</time>
      </trkpt>
      <trkpt lat="46.25949" lon="6.87072">
        <ele>1772</ele>
        <time>2010-01-01T00:33:53Z</time>
      </trkpt>
      <trkpt lat="46.25945" lon="6.87078">
        <ele>1772</ele>
        <time>2010-01-01T00:33:55Z</time>
      </trkpt>
      <trkpt lat="46.25943" lon="6.87084">
        <ele>1767</ele>
        <time>2010-01-01T00:33:57Z</time>
      </trkpt>
      <trkpt lat="46.25943" lon="6.8709">
        <ele>1767</ele>
        <time>2010-01-01T00:33:59Z</time>
      </trkpt>
      <trkpt lat="46.25943" lon="6.87095">
        <ele>1767</ele>
        <time>2010-01-01T00:34:00Z</time>
      </trkpt>
      <trkpt lat="46.25946" lon="6.87101">
        <ele>1766</ele>
        <time>2010-01-01T00:34:02Z</time>
      </trkpt>
      <trkpt lat="46.2595" lon="6.87108">
        <ele>1766</ele>
        <time>2010-01-01T00:34:04Z</time>
      </trkpt>
      <trkpt lat="46.2595" lon="6.87109">
        <ele>1766</ele>
        <time>2010-01-01T00:34:05Z</time>
      </trkpt>
      <trkpt lat="46.25957" lon="6.87123">
        <ele>1765</ele>
        <time>2010-01-01T00:34:09Z</time>
      </trkpt>
      <trkpt lat="46.25962" lon="6.87135">
        <ele>1764</ele>
        <time>2010-01-01T00:34:13Z</time>
      </trkpt>
      <trkpt lat="46.25963" lon="6.87146">
        <ele>1764</ele>
        <time>2010-01-01T00:34:16Z</time>
      </trkpt>
      <trkpt lat="46.25961" lon="6.8715">
        <ele>1764</ele>
        <time>2010-01-01T00:34:18Z</time>
      </trkpt>
      <trkpt lat="46.25958" lon="6.87154">
        <ele>1764</ele>
        <time>2010-01-01T00:34:19Z</time>
      </trkpt>
      <trkpt lat="46.25954" lon="6.87156">
        <ele>1765</ele>
        <time>2010-01-01T00:34:21Z</time>
      </trkpt>
      <trkpt lat="46.2595" lon="6.87158">
        <ele>1765</ele>
        <time>2010-01-01T00:34:23Z</time>
      </trkpt>
      <trkpt lat="46.25945" lon="6.87161">
        <ele>1766</ele>
        <time>2010-01-01T00:34:25Z</time>
      </trkpt>
      <trkpt lat="46.25942" lon="6.87162">
        <ele>1766</ele>
        <time>2010-01-01T00:34:26Z</time>
      </trkpt>
      <trkpt lat="46.25938" lon="6.87164">
        <ele>1767</ele>
        <time>2010-01-01T00:34:28Z</time>
      </trkpt>
      <trkpt lat="46.25936" lon="6.87165">
        <ele>1767</ele>
        <time>2010-01-01T00:34:29Z</time>
      </trkpt>
      <trkpt lat="46.25924" lon="6.87168">
        <ele>1769</ele>
        <time>2010-01-01T00:34:33Z</time>
      </trkpt>
      <trkpt lat="46.25915" lon="6.8717">
        <ele>1773</ele>
        <time>2010-01-01T00:34:37Z</time>
      </trkpt>
      <trkpt lat="46.25908" lon="6.87169">
        <ele>1774</ele>
        <time>2010-01-01T00:34:40Z</time>
      </trkpt>
      <trkpt lat="46.25899" lon="6.87167">
        <ele>1777</ele>
        <time>2010-01-01T00:34:43Z</time>
      </trkpt>
      <trkpt lat="46.25889" lon="6.87167">
        <ele>1780</ele>
        <time>2010-01-01T00:34:47Z</time>
      </trkpt>
      <trkpt lat="46.25879" lon="6.87169">
        <ele>1781</ele>
        <time>2010-01-01T00:34:51Z</time>
      </trkpt>
      <trkpt lat="46.25873" lon="6.87173">
        <ele>1782</ele>
        <time>2010-01-01T00:34:54Z</time>
      </trkpt>
      <trkpt lat="46.2587" lon="6.87179">
        <ele>1783</ele>
        <time>2010-01-01T00:34:56Z</time>
      </trkpt>
      <trkpt lat="46.25869" lon="6.87179">
        <ele>1783</ele>
        <time>2010-01-01T00:34:56Z</time>
      </trkpt>
      <trkpt lat="46.25867" lon="6.87193">
        <ele>1783</ele>
        <time>2010-01-01T00:35:00Z</time>
      </trkpt>
      <trkpt lat="46.25866" lon="6.8721">
        <ele>1783</ele>
        <time>2010-01-01T00:35:05Z</time>
      </trkpt>
      <trkpt lat="46.25866" lon="6.8721">
        <ele>1783</ele>
        <time>2010-01-01T00:35:05Z</time>
      </trkpt>
      <trkpt lat="46.25861" lon="6.87234">
        <ele>1784</ele>
        <time>2010-01-01T00:35:12Z</time>
      </trkpt>
      <trkpt lat="46.25851" lon="6.87258">
        <ele>1786</ele>
        <time>2010-01-01T00:35:20Z</time>
      </trkpt>
      <trkpt lat="46.25841" lon="6.87283">
        <ele>1785</ele>
        <time>2010-01-01T00:35:28Z</time>
      </trkpt>
      <trkpt lat="46.25835" lon="6.87296">
        <ele>1786</ele>
        <time>2010-01-01T00:35:32Z</time>
      </trkpt>
      <trkpt lat="46.25829" lon="6.87305">
        <ele>1787</ele>
        <time>2010-01-01T00:35:35Z</time>
      </trkpt>
      <trkpt lat="46.25823" lon="6.87315">
        <ele>1787</ele>
        <time>2010-01-01T00:35:39Z</time>
      </trkpt>
      <trkpt lat="46.25818" lon="6.87304">
        <ele>1787</ele>
        <time>2010-01-01T00:35:43Z</time>
      </trkpt>
      <trkpt lat="46.25813" lon="6.87301">
        <ele>1787</ele>
        <time>2010-01-01T00:35:45Z</time>
      </trkpt>
      <trkpt lat="46.25809" lon="6.87298">
        <ele>1787</ele>
        <time>2010-01-01T00:35:47Z</time>
      </trkpt>
      <trkpt lat="46.25804" lon="6.873">
        <ele>1787</ele>
        <time>2010-01-01T00:35:49Z</time>
      </trkpt>
      <trkpt lat="46.25796" lon="6.87305">
        <ele>1786</ele>
        <time>2010-01-01T00:35:53Z</time>
      </trkpt>
      <trkpt lat="46.25788" lon="6.87311">
        <ele>1785</ele>
        <time>2010-01-01T00:35:56Z</time>
      </trkpt>
      <trkpt lat="46.25788" lon="6.87311">
        <ele>1785</ele>
        <time>2010-01-01T00:35:56Z</time>
      </trkpt>
      <trkpt lat="46.25778" lon="6.87317">
        <ele>1784</ele>
        <time>2010-01-01T00:36:00Z</time>
      </trkpt>
      <trkpt lat="46.25766" lon="6.87322">
        <ele>1782</ele>
        <time>2010-01-01T00:36:06Z</time>
      </trkpt>
      <trkpt lat="46.25758" lon="6.87322">
        <ele>1781</ele>
        <time>2010-01-01T00:36:09Z</time>
      </trkpt>
      <trkpt lat="46.25755" lon="6.87325">
        <ele>1780</ele>
        <time>2010-01-01T00:36:10Z</time>
      </trkpt>
      <trkpt lat="46.25754" lon="6.87325">
        <ele>1780</ele>
        <time>2010-01-01T00:36:11Z</time>
      </trkpt>
      <trkpt lat="46.25749" lon="6.87328">
        <ele>1777</ele>
        <time>2010-01-01T00:36:13Z</time>
      </trkpt>
      <trkpt lat="46.25745" lon="6.87331">
        <ele>1777</ele>
        <time>2010-01-01T00:36:15Z</time>
      </trkpt>
      <trkpt lat="46.25743" lon="6.87332">
        <ele>1777</ele>
        <time>2010-01-01T00:36:15Z</time>
      </trkpt>
      <trkpt lat="46.25741" lon="6.87332">
        <ele>1777</ele>
        <time>2010-01-01T00:36:16Z</time>
      </trkpt>
      <trkpt lat="46.25738" lon="6.87335">
        <ele>1772</ele>
        <time>2010-01-01T00:36:18Z</time>
      </trkpt>
      <trkpt lat="46.25734" lon="6.87339">
        <ele>1771</ele>
        <time>2010-01-01T00:36:20Z</time>
      </trkpt>
      <trkpt lat="46.25726" lon="6.87339">
        <ele>1769</ele>
        <time>2010-01-01T00:36:23Z</time>
      </trkpt>
      <trkpt lat="46.2572" lon="6.87338">
        <ele>1768</ele>
        <time>2010-01-01T00:36:25Z</time>
      </trkpt>
      <trkpt lat="46.25715" lon="6.8733">
        <ele>1774</ele>
        <time>2010-01-01T00:36:28Z</time>
      </trkpt>
      <trkpt lat="46.25712" lon="6.87326">
        <ele>1774</ele>
        <time>2010-01-01T00:36:30Z</time>
      </trkpt>
      <trkpt lat="46.25709" lon="6.87324">
        <ele>1774</ele>
        <time>2010-01-01T00:36:31Z</time>
      </trkpt>
      <trkpt lat="46.25704" lon="6.87322">
        <ele>1773</ele>
        <time>2010-01-01T00:36:33Z</time>
      </trkpt>
      <trkpt lat="46.257" lon="6.8732">
        <ele>1773</ele>
        <time>2010-01-01T00:36:35Z</time>
      </trkpt>
      <trkpt lat="46.25694" lon="6.87317">
        <ele>1772</ele>
        <time>2010-01-01T00:36:37Z</time>
      </trkpt>
      <trkpt lat="46.25686" lon="6.87315">
        <ele>1771</ele>
        <time>2010-01-01T00:36:41Z</time>
      </trkpt>
      <trkpt lat="46.2568" lon="6.87313">
        <ele>1770</ele>
        <time>2010-01-01T00:36:43Z</time>
      </trkpt>
      <trkpt lat="46.2567" lon="6.87309">
        <ele>1770</ele>
        <time>2010-01-01T00:36:47Z</time>
      </trkpt>
      <trkpt lat="46.25664" lon="6.8731">
        <ele>1763</ele>
        <time>2010-01-01T00:36:50Z</time>
      </trkpt>
      <trkpt lat="46.25655" lon="6.8731">
        <ele>1763</ele>
        <time>2010-01-01T00:36:53Z</time>
      </trkpt>
      <trkpt lat="46.25648" lon="6.87313">
        <ele>1762</ele>
        <time>2010-01-01T00:36:56Z</time>
      </trkpt>
      <trkpt lat="46.25643" lon="6.87313">
        <ele>1762</ele>
        <time>2010-01-01T00:36:58Z</time>
      </trkpt>
      <trkpt lat="46.25637" lon="6.87313">
        <ele>1762</ele>
        <time>2010-01-01T00:37:01Z</time>
      </trkpt>
      <trkpt lat="46.2563" lon="6.87312">
        <ele>1762</ele>
        <time>2010-01-01T00:37:04Z</time>
      </trkpt>
      <trkpt lat="46.25625" lon="6.87312">
        <ele>1761</ele>
        <time>2010-01-01T00:37:05Z</time>
      </trkpt>
      <trkpt lat="46.25618" lon="6.87316">
        <ele>1760</ele>
        <time>2010-01-01T00:37:08Z</time>
      </trkpt>
      <trkpt lat="46.25612" lon="6.87317">
        <ele>1760</ele>
        <time>2010-01-01T00:37:11Z</time>
      </trkpt>
      <trkpt lat="46.25604" lon="6.87318">
        <ele>1759</ele>
        <time>2010-01-01T00:37:14Z</time>
      </trkpt>
      <trkpt lat="46.25589" lon="6.87312">
        <ele>1758</ele>
        <time>2010-01-01T00:37:20Z</time>
      </trkpt>
      <trkpt lat="46.25583" lon="6.87308">
        <ele>1754</ele>
        <time>2010-01-01T00:37:23Z</time>
      </trkpt>
      <trkpt lat="46.25579" lon="6.87307">
        <ele>1754</ele>
        <time>2010-01-01T00:37:25Z</time>
      </trkpt>
      <trkpt lat="46.25564" lon="6.87306">
        <ele>1753</ele>
        <time>2010-01-01T00:37:30Z</time>
      </trkpt>
      <trkpt lat="46.25559" lon="6.87306">
        <ele>1753</ele>
        <time>2010-01-01T00:37:33Z</time>
      </trkpt>
      <trkpt lat="46.25553" lon="6.87305">
        <ele>1753</ele>
        <time>2010-01-01T00:37:35Z</time>
      </trkpt>
      <trkpt lat="46.25544" lon="6.87303">
        <ele>1753</ele>
        <time>2010-01-01T00:37:39Z</time>
      </trkpt>
      <trkpt lat="46.25538" lon="6.873">
        <ele>1752</ele>
        <time>2010-01-01T00:37:41Z</time>
      </trkpt>
      <trkpt lat="46.25531" lon="6.873">
        <ele>1752</ele>
        <time>2010-01-01T00:37:44Z</time>
      </trkpt>
      <trkpt lat="46.25524" lon="6.873">
        <ele>1752</ele>
        <time>2010-01-01T00:37:47Z</time>
      </trkpt>
      <trkpt lat="46.25517" lon="6.87299">
        <ele>1751</ele>
        <time>2010-01-01T00:37:49Z</time>
      </trkpt>
      <trkpt lat="46.25508" lon="6.87303">
        <ele>1750</ele>
        <time>2010-01-01T00:37:53Z</time>
      </trkpt>
      <trkpt lat="46.25503" lon="6.87304">
        <ele>1750</ele>
        <time>2010-01-01T00:37:55Z</time>
      </trkpt>
      <trkpt lat="46.25498" lon="6.87306">
        <ele>1746</ele>
        <time>2010-01-01T00:37:57Z</time>
      </trkpt>
      <trkpt lat="46.25493" lon="6.87306">
        <ele>1746</ele>
        <time>2010-01-01T00:38:00Z</time>
      </trkpt>
      <trkpt lat="46.25483" lon="6.87308">
        <ele>1746</ele>
        <time>2010-01-01T00:38:04Z</time>
      </trkpt>
      <trkpt lat="46.25472" lon="6.87311">
        <ele>1746</ele>
        <time>2010-01-01T00:38:08Z</time>
      </trkpt>
      <trkpt lat="46.25466" lon="6.87312">
        <ele>1746</ele>
        <time>2010-01-01T00:38:10Z</time>
      </trkpt>
      <trkpt lat="46.25458" lon="6.87315">
        <ele>1746</ele>
        <time>2010-01-01T00:38:14Z</time>
      </trkpt>
      <trkpt lat="46.25444" lon="6.87316">
        <ele>1745</ele>
        <time>2010-01-01T00:38:19Z</time>
      </trkpt>
      <trkpt lat="46.25436" lon="6.87318">
        <ele>1744</ele>
        <time>2010-01-01T00:38:23Z</time>
      </trkpt>
      <trkpt lat="46.25415" lon="6.87327">
        <ele>1739</ele>
        <time>2010-01-01T00:38:31Z</time>
      </trkpt>
      <trkpt lat="46.25405" lon="6.87329">
        <ele>1740</ele>
        <time>2010-01-01T00:38:36Z</time>
      </trkpt>
      <trkpt lat="46.25395" lon="6.87331">
        <ele>1740</ele>
        <time>2010-01-01T00:38:39Z</time>
      </trkpt>
      <trkpt lat="46.25388" lon="6.87327">
        <ele>1740</ele>
        <time>2010-01-01T00:38:42Z</time>
      </trkpt>
      <trkpt lat="46.2538" lon="6.87329">
        <ele>1740</ele>
        <time>2010-01-01T00:38:46Z</time>
      </trkpt>
      <trkpt lat="46.25374" lon="6.87326">
        <ele>1740</ele>
        <time>2010-01-01T00:38:48Z</time>
      </trkpt>
      <trkpt lat="46.25368" lon="6.87326">
        <ele>1740</ele>
        <time>2010-01-01T00:38:51Z</time>
      </trkpt>
      <trkpt lat="46.25358" lon="6.87324">
        <ele>1739</ele>
        <time>2010-01-01T00:38:55Z</time>
      </trkpt>
      <trkpt lat="46.25351" lon="6.87324">
        <ele>1738</ele>
        <time>2010-01-01T00:38:58Z</time>
      </trkpt>
      <trkpt lat="46.25347" lon="6.87323">
        <ele>1738</ele>
        <time>2010-01-01T00:38:59Z</time>
      </trkpt>
      <trkpt lat="46.25339" lon="6.87322">
        <ele>1737</ele>
        <time>2010-01-01T00:39:02Z</time>
      </trkpt>
      <trkpt lat="46.25333" lon="6.8732">
        <ele>1737</ele>
        <time>2010-01-01T00:39:05Z</time>
      </trkpt>
      <trkpt lat="46.25323" lon="6.87311">
        <ele>1733</ele>
        <time>2010-01-01T00:39:10Z</time>
      </trkpt>
      <trkpt lat="46.25316" lon="6.87311">
        <ele>1733</ele>
        <time>2010-01-01T00:39:13Z</time>
      </trkpt>
      <trkpt lat="46.25307" lon="6.87307">
        <ele>1732</ele>
        <time>2010-01-01T00:39:16Z</time>
      </trkpt>
      <trkpt lat="46.25299" lon="6.87307">
        <ele>1732</ele>
        <time>2010-01-01T00:39:19Z</time>
      </trkpt>
      <trkpt lat="46.25294" lon="6.87306">
        <ele>1731</ele>
        <time>2010-01-01T00:39:21Z</time>
      </trkpt>
      <trkpt lat="46.2528" lon="6.873">
        <ele>1730</ele>
        <time>2010-01-01T00:39:27Z</time>
      </trkpt>
      <trkpt lat="46.2527" lon="6.87297">
        <ele>1730</ele>
        <time>2010-01-01T00:39:31Z</time>
      </trkpt>
      <trkpt lat="46.25261" lon="6.87294">
        <ele>1729</ele>
        <time>2010-01-01T00:39:35Z</time>
      </trkpt>
      <trkpt lat="46.25252" lon="6.8729">
        <ele>1729</ele>
        <time>2010-01-01T00:39:39Z</time>
      </trkpt>
      <trkpt lat="46.25244" lon="6.87289">
        <ele>1722</ele>
        <time>2010-01-01T00:39:42Z</time>
      </trkpt>
      <trkpt lat="46.25234" lon="6.87292">
        <ele>1721</ele>
        <time>2010-01-01T00:39:46Z</time>
      </trkpt>
      <trkpt lat="46.25226" lon="6.87298">
        <ele>1721</ele>
        <time>2010-01-01T00:39:50Z</time>
      </trkpt>
      <trkpt lat="46.25217" lon="6.87304">
        <ele>1721</ele>
        <time>2010-01-01T00:39:53Z</time>
      </trkpt>
      <trkpt lat="46.25208" lon="6.87313">
        <ele>1720</ele>
        <time>2010-01-01T00:39:58Z</time>
      </trkpt>
      <trkpt lat="46.25198" lon="6.87321">
        <ele>1720</ele>
        <time>2010-01-01T00:40:02Z</time>
      </trkpt>
      <trkpt lat="46.25193" lon="6.87324">
        <ele>1719</ele>
        <time>2010-01-01T00:40:05Z</time>
      </trkpt>
      <trkpt lat="46.25188" lon="6.87325">
        <ele>1719</ele>
        <time>2010-01-01T00:40:07Z</time>
      </trkpt>
      <trkpt lat="46.25179" lon="6.87328">
        <ele>1718</ele>
        <time>2010-01-01T00:40:10Z</time>
      </trkpt>
      <trkpt lat="46.25171" lon="6.87328">
        <ele>1717</ele>
        <time>2010-01-01T00:40:14Z</time>
      </trkpt>
      <trkpt lat="46.2516" lon="6.87325">
        <ele>1712</ele>
        <time>2010-01-01T00:40:18Z</time>
      </trkpt>
      <trkpt lat="46.2515" lon="6.8732">
        <ele>1710</ele>
        <time>2010-01-01T00:40:22Z</time>
      </trkpt>
      <trkpt lat="46.2514" lon="6.87318">
        <ele>1709</ele>
        <time>2010-01-01T00:40:26Z</time>
      </trkpt>
      <trkpt lat="46.25132" lon="6.87314">
        <ele>1707</ele>
        <time>2010-01-01T00:40:30Z</time>
      </trkpt>
      <trkpt lat="46.25124" lon="6.87311">
        <ele>1706</ele>
        <time>2010-01-01T00:40:33Z</time>
      </trkpt>
      <trkpt lat="46.2512" lon="6.87304">
        <ele>1706</ele>
        <time>2010-01-01T00:40:36Z</time>
      </trkpt>
      <trkpt lat="46.2511" lon="6.87281">
        <ele>1704</ele>
        <time>2010-01-01T00:40:43Z</time>
      </trkpt>
      <trkpt lat="46.25103" lon="6.87253">
        <ele>1702</ele>
        <time>2010-01-01T00:40:51Z</time>
      </trkpt>
      <trkpt lat="46.25102" lon="6.87238">
        <ele>1698</ele>
        <time>2010-01-01T00:40:55Z</time>
      </trkpt>
      <trkpt lat="46.25101" lon="6.87226">
        <ele>1697</ele>
        <time>2010-01-01T00:40:59Z</time>
      </trkpt>
      <trkpt lat="46.25098" lon="6.87221">
        <ele>1697</ele>
        <time>2010-01-01T00:41:01Z</time>
      </trkpt>
      <trkpt lat="46.25096" lon="6.87215">
        <ele>1696</ele>
        <time>2010-01-01T00:41:02Z</time>
      </trkpt>
      <trkpt lat="46.25092" lon="6.87212">
        <ele>1696</ele>
        <time>2010-01-01T00:41:04Z</time>
      </trkpt>
      <trkpt lat="46.25089" lon="6.87207">
        <ele>1695</ele>
        <time>2010-01-01T00:41:06Z</time>
      </trkpt>
      <trkpt lat="46.25087" lon="6.87201">
        <ele>1695</ele>
        <time>2010-01-01T00:41:08Z</time>
      </trkpt>
      <trkpt lat="46.25088" lon="6.87193">
        <ele>1693</ele>
        <time>2010-01-01T00:41:10Z</time>
      </trkpt>
      <trkpt lat="46.25088" lon="6.87193">
        <ele>1693</ele>
        <time>2010-01-01T00:41:10Z</time>
      </trkpt>
      <trkpt lat="46.25088" lon="6.87186">
        <ele>1692</ele>
        <time>2010-01-01T00:41:12Z</time>
      </trkpt>
      <trkpt lat="46.25087" lon="6.87185">
        <ele>1692</ele>
        <time>2010-01-01T00:41:12Z</time>
      </trkpt>
      <trkpt lat="46.25088" lon="6.87179">
        <ele>1690</ele>
        <time>2010-01-01T00:41:14Z</time>
      </trkpt>
      <trkpt lat="46.25088" lon="6.87178">
        <ele>1690</ele>
        <time>2010-01-01T00:41:14Z</time>
      </trkpt>
      <trkpt lat="46.25089" lon="6.87177">
        <ele>1690</ele>
        <time>2010-01-01T00:41:14Z</time>
      </trkpt>
      <trkpt lat="46.2509" lon="6.87176">
        <ele>1690</ele>
        <time>2010-01-01T00:41:15Z</time>
      </trkpt>
      <trkpt lat="46.25094" lon="6.87169">
        <ele>1690</ele>
        <time>2010-01-01T00:41:18Z</time>
      </trkpt>
      <trkpt lat="46.25104" lon="6.87157">
        <ele>1687</ele>
        <time>2010-01-01T00:41:23Z</time>
      </trkpt>
      <trkpt lat="46.2511" lon="6.87153">
        <ele>1688</ele>
        <time>2010-01-01T00:41:25Z</time>
      </trkpt>
      <trkpt lat="46.25115" lon="6.87148">
        <ele>1688</ele>
        <time>2010-01-01T00:41:28Z</time>
      </trkpt>
      <trkpt lat="46.2512" lon="6.87144">
        <ele>1689</ele>
        <time>2010-01-01T00:41:30Z</time>
      </trkpt>
      <trkpt lat="46.25125" lon="6.87139">
        <ele>1689</ele>
        <time>2010-01-01T00:41:32Z</time>
      </trkpt>
      <trkpt lat="46.25123" lon="6.87127">
        <ele>1688</ele>
        <time>2010-01-01T00:41:36Z</time>
      </trkpt>
      <trkpt lat="46.25117" lon="6.8712">
        <ele>1687</ele>
        <time>2010-01-01T00:41:39Z</time>
      </trkpt>
      <trkpt lat="46.25108" lon="6.87106">
        <ele>1686</ele>
        <time>2010-01-01T00:41:44Z</time>
      </trkpt>
      <trkpt lat="46.25098" lon="6.87101">
        <ele>1684</ele>
        <time>2010-01-01T00:41:48Z</time>
      </trkpt>
      <trkpt lat="46.25083" lon="6.87096">
        <ele>1681</ele>
        <time>2010-01-01T00:41:54Z</time>
      </trkpt>
      <trkpt lat="46.2508" lon="6.87089">
        <ele>1676</ele>
        <time>2010-01-01T00:41:57Z</time>
      </trkpt>
      <trkpt lat="46.25073" lon="6.87083">
        <ele>1676</ele>
        <time>2010-01-01T00:42:00Z</time>
      </trkpt>
      <trkpt lat="46.25069" lon="6.87077">
        <ele>1676</ele>
        <time>2010-01-01T00:42:02Z</time>
      </trkpt>
      <trkpt lat="46.2506" lon="6.8707">
        <ele>1675</ele>
        <time>2010-01-01T00:42:06Z</time>
      </trkpt>
      <trkpt lat="46.2505" lon="6.87065">
        <ele>1674</ele>
        <time>2010-01-01T00:42:11Z</time>
      </trkpt>
      <trkpt lat="46.25034" lon="6.87051">
        <ele>1674</ele>
        <time>2010-01-01T00:42:18Z</time>
      </trkpt>
      <trkpt lat="46.25024" lon="6.87034">
        <ele>1674</ele>
        <time>2010-01-01T00:42:24Z</time>
      </trkpt>
      <trkpt lat="46.25005" lon="6.87008">
        <ele>1674</ele>
        <time>2010-01-01T00:42:35Z</time>
      </trkpt>
      <trkpt lat="46.24977" lon="6.86963">
        <ele>1673</ele>
        <time>2010-01-01T00:42:51Z</time>
      </trkpt>
      <trkpt lat="46.24962" lon="6.86938">
        <ele>1674</ele>
        <time>2010-01-01T00:43:01Z</time>
      </trkpt>
      <trkpt lat="46.2495" lon="6.8692">
        <ele>1672</ele>
        <time>2010-01-01T00:43:08Z</time>
      </trkpt>
      <trkpt lat="46.24943" lon="6.86904">
        <ele>1680</ele>
        <time>2010-01-01T00:43:13Z</time>
      </trkpt>
      <trkpt lat="46.24923" lon="6.8689">
        <ele>1678</ele>
        <time>2010-01-01T00:43:22Z</time>
      </trkpt>
      <trkpt lat="46.24901" lon="6.86877">
        <ele>1669</ele>
        <time>2010-01-01T00:43:31Z</time>
      </trkpt>
      <trkpt lat="46.2489" lon="6.86871">
        <ele>1669</ele>
        <time>2010-01-01T00:43:36Z</time>
      </trkpt>
      <trkpt lat="46.24884" lon="6.86862">
        <ele>1670</ele>
        <time>2010-01-01T00:43:40Z</time>
      </trkpt>
      <trkpt lat="46.24876" lon="6.86852">
        <ele>1670</ele>
        <time>2010-01-01T00:43:43Z</time>
      </trkpt>
      <trkpt lat="46.2487" lon="6.86853">
        <ele>1670</ele>
        <time>2010-01-01T00:43:46Z</time>
      </trkpt>
      <trkpt lat="46.24859" lon="6.86852">
        <ele>1670</ele>
        <time>2010-01-01T00:43:50Z</time>
      </trkpt>
      <trkpt lat="46.24849" lon="6.86853">
        <ele>1670</ele>
        <time>2010-01-01T00:43:55Z</time>
      </trkpt>
      <trkpt lat="46.24836" lon="6.86851">
        <ele>1671</ele>
        <time>2010-01-01T00:44:00Z</time>
      </trkpt>
      <trkpt lat="46.24808" lon="6.86838">
        <ele>1669</ele>
        <time>2010-01-01T00:44:12Z</time>
      </trkpt>
      <trkpt lat="46.24795" lon="6.86844">
        <ele>1669</ele>
        <time>2010-01-01T00:44:17Z</time>
      </trkpt>
      <trkpt lat="46.24782" lon="6.86842">
        <ele>1669</ele>
        <time>2010-01-01T00:44:22Z</time>
      </trkpt>
      <trkpt lat="46.24767" lon="6.86857">
        <ele>1669</ele>
        <time>2010-01-01T00:44:29Z</time>
      </trkpt>
      <trkpt lat="46.24755" lon="6.86863">
        <ele>1668</ele>
        <time>2010-01-01T00:44:34Z</time>
      </trkpt>
      <trkpt lat="46.24737" lon="6.86874">
        <ele>1663</ele>
        <time>2010-01-01T00:44:42Z</time>
      </trkpt>
      <trkpt lat="46.24728" lon="6.8688">
        <ele>1661</ele>
        <time>2010-01-01T00:44:46Z</time>
      </trkpt>
      <trkpt lat="46.24722" lon="6.86883">
        <ele>1661</ele>
        <time>2010-01-01T00:44:49Z</time>
      </trkpt>
      <trkpt lat="46.24711" lon="6.86881">
        <ele>1660</ele>
        <time>2010-01-01T00:44:53Z</time>
      </trkpt>
      <trkpt lat="46.24699" lon="6.8688">
        <ele>1660</ele>
        <time>2010-01-01T00:44:58Z</time>
      </trkpt>
      <trkpt lat="46.24688" lon="6.86868">
        <ele>1661</ele>
        <time>2010-01-01T00:45:04Z</time>
      </trkpt>
      <trkpt lat="46.24681" lon="6.86852">
        <ele>1662</ele>
        <time>2010-01-01T00:45:09Z</time>
      </trkpt>
      <trkpt lat="46.2467" lon="6.8683">
        <ele>1666</ele>
        <time>2010-01-01T00:45:17Z</time>
      </trkpt>
      <trkpt lat="46.24661" lon="6.86817">
        <ele>1654</ele>
        <time>2010-01-01T00:45:21Z</time>
      </trkpt>
      <trkpt lat="46.24648" lon="6.86791">
        <ele>1650</ele>
        <time>2010-01-01T00:45:30Z</time>
      </trkpt>
      <trkpt lat="46.24639" lon="6.8674">
        <ele>1651</ele>
        <time>2010-01-01T00:45:45Z</time>
      </trkpt>
      <trkpt lat="46.24637" lon="6.8673">
        <ele>1649</ele>
        <time>2010-01-01T00:45:48Z</time>
      </trkpt>
      <trkpt lat="46.24637" lon="6.86718">
        <ele>1648</ele>
        <time>2010-01-01T00:45:51Z</time>
      </trkpt>
      <trkpt lat="46.24637" lon="6.86674">
        <ele>1649</ele>
        <time>2010-01-01T00:46:03Z</time>
      </trkpt>
      <trkpt lat="46.24639" lon="6.86659">
        <ele>1649</ele>
        <time>2010-01-01T00:46:07Z</time>
      </trkpt>
      <trkpt lat="46.2464" lon="6.86642">
        <ele>1648</ele>
        <time>2010-01-01T00:46:12Z</time>
      </trkpt>
      <trkpt lat="46.24633" lon="6.86615">
        <ele>1645</ele>
        <time>2010-01-01T00:46:20Z</time>
      </trkpt>
      <trkpt lat="46.24631" lon="6.86601">
        <ele>1645</ele>
        <time>2010-01-01T00:46:24Z</time>
      </trkpt>
      <trkpt lat="46.24613" lon="6.86567">
        <ele>1642</ele>
        <time>2010-01-01T00:46:36Z</time>
      </trkpt>
      <trkpt lat="46.24604" lon="6.86555">
        <ele>1641</ele>
        <time>2010-01-01T00:46:41Z</time>
      </trkpt>
      <trkpt lat="46.24593" lon="6.8653">
        <ele>1641</ele>
        <time>2010-01-01T00:46:49Z</time>
      </trkpt>
      <trkpt lat="46.24576" lon="6.86497">
        <ele>1627</ele>
        <time>2010-01-01T00:47:01Z</time>
      </trkpt>
      <trkpt lat="46.24574" lon="6.86477">
        <ele>1622</ele>
        <time>2010-01-01T00:47:06Z</time>
      </trkpt>
      <trkpt lat="46.24575" lon="6.86468">
        <ele>1621</ele>
        <time>2010-01-01T00:47:09Z</time>
      </trkpt>
      <trkpt lat="46.24576" lon="6.86467">
        <ele>1621</ele>
        <time>2010-01-01T00:47:09Z</time>
      </trkpt>
      <trkpt lat="46.2458" lon="6.86455">
        <ele>1621</ele>
        <time>2010-01-01T00:47:13Z</time>
      </trkpt>
      <trkpt lat="46.24583" lon="6.86436">
        <ele>1625</ele>
        <time>2010-01-01T00:47:18Z</time>
      </trkpt>
      <trkpt lat="46.24583" lon="6.86419">
        <ele>1637</ele>
        <time>2010-01-01T00:47:23Z</time>
      </trkpt>
      <trkpt lat="46.24581" lon="6.86402">
        <ele>1628</ele>
        <time>2010-01-01T00:47:28Z</time>
      </trkpt>
      <trkpt lat="46.24582" lon="6.86387">
        <ele>1626</ele>
        <time>2010-01-01T00:47:32Z</time>
      </trkpt>
      <trkpt lat="46.24582" lon="6.86386">
        <ele>1625</ele>
        <time>2010-01-01T00:47:32Z</time>
      </trkpt>
      <trkpt lat="46.24586" lon="6.86375">
        <ele>1650</ele>
        <time>2010-01-01T00:47:36Z</time>
      </trkpt>
      <trkpt lat="46.2459" lon="6.86355">
        <ele>1650</ele>
        <time>2010-01-01T00:47:41Z</time>
      </trkpt>
      <trkpt lat="46.24592" lon="6.86347">
        <ele>1648</ele>
        <time>2010-01-01T00:47:44Z</time>
      </trkpt>
      <trkpt lat="46.24591" lon="6.86324">
        <ele>1649</ele>
        <time>2010-01-01T00:47:50Z</time>
      </trkpt>
      <trkpt lat="46.2459" lon="6.8631">
        <ele>1653</ele>
        <time>2010-01-01T00:47:54Z</time>
      </trkpt>
      <trkpt lat="46.2459" lon="6.86309">
        <ele>1653</ele>
        <time>2010-01-01T00:47:54Z</time>
      </trkpt>
      <trkpt lat="46.24591" lon="6.86297">
        <ele>1655</ele>
        <time>2010-01-01T00:47:58Z</time>
      </trkpt>
      <trkpt lat="46.24591" lon="6.86286">
        <ele>1655</ele>
        <time>2010-01-01T00:48:01Z</time>
      </trkpt>
      <trkpt lat="46.24591" lon="6.86285">
        <ele>1655</ele>
        <time>2010-01-01T00:48:01Z</time>
      </trkpt>
      <trkpt lat="46.2459" lon="6.86269">
        <ele>1653</ele>
        <time>2010-01-01T00:48:05Z</time>
      </trkpt>
      <trkpt lat="46.24589" lon="6.86237">
        <ele>1652</ele>
        <time>2010-01-01T00:48:14Z</time>
      </trkpt>
      <trkpt lat="46.2459" lon="6.86223">
        <ele>1655</ele>
        <time>2010-01-01T00:48:18Z</time>
      </trkpt>
      <trkpt lat="46.24591" lon="6.86203">
        <ele>1656</ele>
        <time>2010-01-01T00:48:24Z</time>
      </trkpt>
      <trkpt lat="46.24596" lon="6.86189">
        <ele>1656</ele>
        <time>2010-01-01T00:48:28Z</time>
      </trkpt>
      <trkpt lat="46.246" lon="6.86179">
        <ele>1655</ele>
        <time>2010-01-01T00:48:31Z</time>
      </trkpt>
      <trkpt lat="46.24602" lon="6.8617">
        <ele>1654</ele>
        <time>2010-01-01T00:48:34Z</time>
      </trkpt>
      <trkpt lat="46.24605" lon="6.86162">
        <ele>1655</ele>
        <time>2010-01-01T00:48:36Z</time>
      </trkpt>
      <trkpt lat="46.24608" lon="6.86157">
        <ele>1656</ele>
        <time>2010-01-01T00:48:38Z</time>
      </trkpt>
      <trkpt lat="46.24608" lon="6.86144">
        <ele>1657</ele>
        <time>2010-01-01T00:48:42Z</time>
      </trkpt>
      <trkpt lat="46.24608" lon="6.86143">
        <ele>1657</ele>
        <time>2010-01-01T00:48:42Z</time>
      </trkpt>
      <trkpt lat="46.24611" lon="6.86127">
        <ele>1658</ele>
        <time>2010-01-01T00:48:47Z</time>
      </trkpt>
      <trkpt lat="46.24616" lon="6.86119">
        <ele>1659</ele>
        <time>2010-01-01T00:48:50Z</time>
      </trkpt>
      <trkpt lat="46.24618" lon="6.86115">
        <ele>1659</ele>
        <time>2010-01-01T00:48:51Z</time>
      </trkpt>
      <trkpt lat="46.24615" lon="6.8611">
        <ele>1658</ele>
        <time>2010-01-01T00:48:53Z</time>
      </trkpt>
      <trkpt lat="46.2461" lon="6.86104">
        <ele>1656</ele>
        <time>2010-01-01T00:48:55Z</time>
      </trkpt>
      <trkpt lat="46.2461" lon="6.86085">
        <ele>1655</ele>
        <time>2010-01-01T00:49:01Z</time>
      </trkpt>
      <trkpt lat="46.2461" lon="6.8607">
        <ele>1653</ele>
        <time>2010-01-01T00:49:04Z</time>
      </trkpt>
      <trkpt lat="46.24611" lon="6.86061">
        <ele>1654</ele>
        <time>2010-01-01T00:49:07Z</time>
      </trkpt>
      <trkpt lat="46.24605" lon="6.8603">
        <ele>1653</ele>
        <time>2010-01-01T00:49:16Z</time>
      </trkpt>
      <trkpt lat="46.24602" lon="6.86012">
        <ele>1650</ele>
        <time>2010-01-01T00:49:21Z</time>
      </trkpt>
      <trkpt lat="46.24601" lon="6.85993">
        <ele>1645</ele>
        <time>2010-01-01T00:49:26Z</time>
      </trkpt>
      <trkpt lat="46.24601" lon="6.85974">
        <ele>1646</ele>
        <time>2010-01-01T00:49:32Z</time>
      </trkpt>
      <trkpt lat="46.24605" lon="6.85958">
        <ele>1646</ele>
        <time>2010-01-01T00:49:36Z</time>
      </trkpt>
      <trkpt lat="46.24619" lon="6.85938">
        <ele>1646</ele>
        <time>2010-01-01T00:49:44Z</time>
      </trkpt>
      <trkpt lat="46.24627" lon="6.85926">
        <ele>1648</ele>
        <time>2010-01-01T00:49:49Z</time>
      </trkpt>
      <trkpt lat="46.24634" lon="6.85915">
        <ele>1642</ele>
        <time>2010-01-01T00:49:53Z</time>
      </trkpt>
      <trkpt lat="46.24646" lon="6.85896">
        <ele>1643</ele>
        <time>2010-01-01T00:50:00Z</time>
      </trkpt>
      <trkpt lat="46.24653" lon="6.85868">
        <ele>1641</ele>
        <time>2010-01-01T00:50:08Z</time>
      </trkpt>
      <trkpt lat="46.24659" lon="6.85852">
        <ele>1642</ele>
        <time>2010-01-01T00:50:13Z</time>
      </trkpt>
      <trkpt lat="46.24667" lon="6.8584">
        <ele>1650</ele>
        <time>2010-01-01T00:50:18Z</time>
      </trkpt>
      <trkpt lat="46.24674" lon="6.85834">
        <ele>1651</ele>
        <time>2010-01-01T00:50:21Z</time>
      </trkpt>
      <trkpt lat="46.2468" lon="6.85827">
        <ele>1646</ele>
        <time>2010-01-01T00:50:24Z</time>
      </trkpt>
      <trkpt lat="46.24686" lon="6.85814">
        <ele>1646</ele>
        <time>2010-01-01T00:50:29Z</time>
      </trkpt>
      <trkpt lat="46.24687" lon="6.85812">
        <ele>1645</ele>
        <time>2010-01-01T00:50:29Z</time>
      </trkpt>
      <trkpt lat="46.24691" lon="6.85795">
        <ele>1644</ele>
        <time>2010-01-01T00:50:34Z</time>
      </trkpt>
      <trkpt lat="46.24691" lon="6.85794">
        <ele>1643</ele>
        <time>2010-01-01T00:50:35Z</time>
      </trkpt>
      <trkpt lat="46.24692" lon="6.85779">
        <ele>1641</ele>
        <time>2010-01-01T00:50:39Z</time>
      </trkpt>
      <trkpt lat="46.24694" lon="6.85763">
        <ele>1639</ele>
        <time>2010-01-01T00:50:43Z</time>
      </trkpt>
      <trkpt lat="46.24694" lon="6.85762">
        <ele>1638</ele>
        <time>2010-01-01T00:50:43Z</time>
      </trkpt>
      <trkpt lat="46.24702" lon="6.8575">
        <ele>1639</ele>
        <time>2010-01-01T00:50:48Z</time>
      </trkpt>
      <trkpt lat="46.24716" lon="6.85739">
        <ele>1625</ele>
        <time>2010-01-01T00:50:54Z</time>
      </trkpt>
      <trkpt lat="46.24735" lon="6.8574">
        <ele>1631</ele>
        <time>2010-01-01T00:51:02Z</time>
      </trkpt>
      <trkpt lat="46.24756" lon="6.85745">
        <ele>1642</ele>
        <time>2010-01-01T00:51:10Z</time>
      </trkpt>
      <trkpt lat="46.24776" lon="6.85739">
        <ele>1642</ele>
        <time>2010-01-01T00:51:19Z</time>
      </trkpt>
      <trkpt lat="46.24786" lon="6.85729">
        <ele>1642</ele>
        <time>2010-01-01T00:51:24Z</time>
      </trkpt>
      <trkpt lat="46.24796" lon="6.8572">
        <ele>1642</ele>
        <time>2010-01-01T00:51:28Z</time>
      </trkpt>
      <trkpt lat="46.24796" lon="6.8572">
        <ele>1642</ele>
        <time>2010-01-01T00:51:28Z</time>
      </trkpt>
      <trkpt lat="46.24818" lon="6.85691">
        <ele>1639</ele>
        <time>2010-01-01T00:51:40Z</time>
      </trkpt>
      <trkpt lat="46.24822" lon="6.85674">
        <ele>1637</ele>
        <time>2010-01-01T00:51:45Z</time>
      </trkpt>
      <trkpt lat="46.24829" lon="6.85656">
        <ele>1628</ele>
        <time>2010-01-01T00:51:51Z</time>
      </trkpt>
      <trkpt lat="46.24836" lon="6.85637">
        <ele>1639</ele>
        <time>2010-01-01T00:51:57Z</time>
      </trkpt>
      <trkpt lat="46.24835" lon="6.85624">
        <ele>1637</ele>
        <time>2010-01-01T00:52:00Z</time>
      </trkpt>
      <trkpt lat="46.24842" lon="6.85598">
        <ele>1631</ele>
        <time>2010-01-01T00:52:08Z</time>
      </trkpt>
      <trkpt lat="46.24844" lon="6.8558">
        <ele>1620</ele>
        <time>2010-01-01T00:52:13Z</time>
      </trkpt>
      <trkpt lat="46.24847" lon="6.85561">
        <ele>1619</ele>
        <time>2010-01-01T00:52:18Z</time>
      </trkpt>
      <trkpt lat="46.24852" lon="6.85542">
        <ele>1617</ele>
        <time>2010-01-01T00:52:24Z</time>
      </trkpt>
      <trkpt lat="46.24856" lon="6.85529">
        <ele>1616</ele>
        <time>2010-01-01T00:52:28Z</time>
      </trkpt>
      <trkpt lat="46.24862" lon="6.85522">
        <ele>1615</ele>
        <time>2010-01-01T00:52:31Z</time>
      </trkpt>
      <trkpt lat="46.24873" lon="6.85515">
        <ele>1616</ele>
        <time>2010-01-01T00:52:36Z</time>
      </trkpt>
      <trkpt lat="46.24879" lon="6.85512">
        <ele>1616</ele>
        <time>2010-01-01T00:52:38Z</time>
      </trkpt>
      <trkpt lat="46.24883" lon="6.85501">
        <ele>1615</ele>
        <time>2010-01-01T00:52:42Z</time>
      </trkpt>
      <trkpt lat="46.24896" lon="6.85494">
        <ele>1602</ele>
        <time>2010-01-01T00:52:47Z</time>
      </trkpt>
      <trkpt lat="46.2491" lon="6.85486">
        <ele>1603</ele>
        <time>2010-01-01T00:52:53Z</time>
      </trkpt>
      <trkpt lat="46.24925" lon="6.85485">
        <ele>1607</ele>
        <time>2010-01-01T00:52:59Z</time>
      </trkpt>
      <trkpt lat="46.24944" lon="6.85488">
        <ele>1606</ele>
        <time>2010-01-01T00:53:07Z</time>
      </trkpt>
      <trkpt lat="46.24958" lon="6.85491">
        <ele>1607</ele>
        <time>2010-01-01T00:53:13Z</time>
      </trkpt>
      <trkpt lat="46.24975" lon="6.85493">
        <ele>1608</ele>
        <time>2010-01-01T00:53:19Z</time>
      </trkpt>
      <trkpt lat="46.24981" lon="6.85492">
        <ele>1609</ele>
        <time>2010-01-01T00:53:22Z</time>
      </trkpt>
      <trkpt lat="46.24991" lon="6.85489">
        <ele>1611</ele>
        <time>2010-01-01T00:53:26Z</time>
      </trkpt>
      <trkpt lat="46.24995" lon="6.85475">
        <ele>1607</ele>
        <time>2010-01-01T00:53:30Z</time>
      </trkpt>
      <trkpt lat="46.25" lon="6.85468">
        <ele>1610</ele>
        <time>2010-01-01T00:53:33Z</time>
      </trkpt>
      <trkpt lat="46.25002" lon="6.85453">
        <ele>1607</ele>
        <time>2010-01-01T00:53:37Z</time>
      </trkpt>
      <trkpt lat="46.2501" lon="6.85433">
        <ele>1602</ele>
        <time>2010-01-01T00:53:44Z</time>
      </trkpt>
      <trkpt lat="46.25019" lon="6.85414">
        <ele>1591</ele>
        <time>2010-01-01T00:53:50Z</time>
      </trkpt>
      <trkpt lat="46.25026" lon="6.85401">
        <ele>1590</ele>
        <time>2010-01-01T00:53:54Z</time>
      </trkpt>
      <trkpt lat="46.25046" lon="6.85385">
        <ele>1590</ele>
        <time>2010-01-01T00:54:04Z</time>
      </trkpt>
      <trkpt lat="46.25056" lon="6.85378">
        <ele>1590</ele>
        <time>2010-01-01T00:54:08Z</time>
      </trkpt>
      <trkpt lat="46.25068" lon="6.85376">
        <ele>1590</ele>
        <time>2010-01-01T00:54:13Z</time>
      </trkpt>
      <trkpt lat="46.2508" lon="6.85381">
        <ele>1591</ele>
        <time>2010-01-01T00:54:18Z</time>
      </trkpt>
      <trkpt lat="46.25081" lon="6.85381">
        <ele>1591</ele>
        <time>2010-01-01T00:54:18Z</time>
      </trkpt>
      <trkpt lat="46.25097" lon="6.85389">
        <ele>1596</ele>
        <time>2010-01-01T00:54:25Z</time>
      </trkpt>
      <trkpt lat="46.25101" lon="6.85391">
        <ele>1596</ele>
        <time>2010-01-01T00:54:27Z</time>
      </trkpt>
      <trkpt lat="46.25107" lon="6.85394">
        <ele>1596</ele>
        <time>2010-01-01T00:54:29Z</time>
      </trkpt>
      <trkpt lat="46.25112" lon="6.8539">
        <ele>1596</ele>
        <time>2010-01-01T00:54:32Z</time>
      </trkpt>
      <trkpt lat="46.25123" lon="6.85393">
        <ele>1596</ele>
        <time>2010-01-01T00:54:36Z</time>
      </trkpt>
      <trkpt lat="46.25132" lon="6.85392">
        <ele>1596</ele>
        <time>2010-01-01T00:54:40Z</time>
      </trkpt>
      <trkpt lat="46.25139" lon="6.85385">
        <ele>1596</ele>
        <time>2010-01-01T00:54:43Z</time>
      </trkpt>
      <trkpt lat="46.25141" lon="6.85374">
        <ele>1594</ele>
        <time>2010-01-01T00:54:46Z</time>
      </trkpt>
      <trkpt lat="46.25138" lon="6.85352">
        <ele>1591</ele>
        <time>2010-01-01T00:54:52Z</time>
      </trkpt>
      <trkpt lat="46.25128" lon="6.85335">
        <ele>1591</ele>
        <time>2010-01-01T00:54:59Z</time>
      </trkpt>
      <trkpt lat="46.25122" lon="6.85321">
        <ele>1580</ele>
        <time>2010-01-01T00:55:03Z</time>
      </trkpt>
      <trkpt lat="46.25111" lon="6.85305">
        <ele>1579</ele>
        <time>2010-01-01T00:55:09Z</time>
      </trkpt>
      <trkpt lat="46.25102" lon="6.85294">
        <ele>1579</ele>
        <time>2010-01-01T00:55:14Z</time>
      </trkpt>
      <trkpt lat="46.25091" lon="6.85281">
        <ele>1577</ele>
        <time>2010-01-01T00:55:20Z</time>
      </trkpt>
      <trkpt lat="46.25069" lon="6.8527">
        <ele>1573</ele>
        <time>2010-01-01T00:55:29Z</time>
      </trkpt>
      <trkpt lat="46.25052" lon="6.8527">
        <ele>1572</ele>
        <time>2010-01-01T00:55:36Z</time>
      </trkpt>
      <trkpt lat="46.2504" lon="6.85265">
        <ele>1570</ele>
        <time>2010-01-01T00:55:41Z</time>
      </trkpt>
      <trkpt lat="46.25024" lon="6.85264">
        <ele>1568</ele>
        <time>2010-01-01T00:55:47Z</time>
      </trkpt>
      <trkpt lat="46.25006" lon="6.85273">
        <ele>1567</ele>
        <time>2010-01-01T00:55:55Z</time>
      </trkpt>
      <trkpt lat="46.24977" lon="6.85303">
        <ele>1559</ele>
        <time>2010-01-01T00:56:09Z</time>
      </trkpt>
      <trkpt lat="46.24957" lon="6.85324">
        <ele>1559</ele>
        <time>2010-01-01T00:56:19Z</time>
      </trkpt>
      <trkpt lat="46.24947" lon="6.85345">
        <ele>1572</ele>
        <time>2010-01-01T00:56:26Z</time>
      </trkpt>
      <trkpt lat="46.24937" lon="6.85363">
        <ele>1574</ele>
        <time>2010-01-01T00:56:32Z</time>
      </trkpt>
      <trkpt lat="46.24922" lon="6.85371">
        <ele>1575</ele>
        <time>2010-01-01T00:56:39Z</time>
      </trkpt>
      <trkpt lat="46.24909" lon="6.8536">
        <ele>1563</ele>
        <time>2010-01-01T00:56:45Z</time>
      </trkpt>
      <trkpt lat="46.24892" lon="6.85346">
        <ele>1560</ele>
        <time>2010-01-01T00:56:53Z</time>
      </trkpt>
      <trkpt lat="46.24869" lon="6.85347">
        <ele>1558</ele>
        <time>2010-01-01T00:57:02Z</time>
      </trkpt>
      <trkpt lat="46.24839" lon="6.85359">
        <ele>1555</ele>
        <time>2010-01-01T00:57:14Z</time>
      </trkpt>
      <trkpt lat="46.24812" lon="6.85375">
        <ele>1547</ele>
        <time>2010-01-01T00:57:26Z</time>
      </trkpt>
      <trkpt lat="46.24791" lon="6.85402">
        <ele>1548</ele>
        <time>2010-01-01T00:57:37Z</time>
      </trkpt>
      <trkpt lat="46.24773" lon="6.85438">
        <ele>1564</ele>
        <time>2010-01-01T00:57:50Z</time>
      </trkpt>
      <trkpt lat="46.24769" lon="6.85464">
        <ele>1568</ele>
        <time>2010-01-01T00:57:57Z</time>
      </trkpt>
      <trkpt lat="46.24758" lon="6.85474">
        <ele>1567</ele>
        <time>2010-01-01T00:58:02Z</time>
      </trkpt>
      <trkpt lat="46.24746" lon="6.85485">
        <ele>1555</ele>
        <time>2010-01-01T00:58:08Z</time>
      </trkpt>
      <trkpt lat="46.24745" lon="6.85486">
        <ele>1555</ele>
        <time>2010-01-01T00:58:08Z</time>
      </trkpt>
      <trkpt lat="46.24727" lon="6.85498">
        <ele>1552</ele>
        <time>2010-01-01T00:58:16Z</time>
      </trkpt>
      <trkpt lat="46.24714" lon="6.85496">
        <ele>1548</ele>
        <time>2010-01-01T00:58:22Z</time>
      </trkpt>
      <trkpt lat="46.247" lon="6.85504">
        <ele>1555</ele>
        <time>2010-01-01T00:58:28Z</time>
      </trkpt>
      <trkpt lat="46.24699" lon="6.85504">
        <ele>1555</ele>
        <time>2010-01-01T00:58:28Z</time>
      </trkpt>
      <trkpt lat="46.24687" lon="6.85512">
        <ele>1552</ele>
        <time>2010-01-01T00:58:33Z</time>
      </trkpt>
      <trkpt lat="46.24677" lon="6.85525">
        <ele>1553</ele>
        <time>2010-01-01T00:58:38Z</time>
      </trkpt>
      <trkpt lat="46.24676" lon="6.85527">
        <ele>1553</ele>
        <time>2010-01-01T00:58:39Z</time>
      </trkpt>
      <trkpt lat="46.24667" lon="6.85549">
        <ele>1558</ele>
        <time>2010-01-01T00:58:46Z</time>
      </trkpt>
      <trkpt lat="46.24646" lon="6.85575">
        <ele>1545</ele>
        <time>2010-01-01T00:58:58Z</time>
      </trkpt>
      <trkpt lat="46.24631" lon="6.85584">
        <ele>1556</ele>
        <time>2010-01-01T00:59:04Z</time>
      </trkpt>
      <trkpt lat="46.2462" lon="6.85589">
        <ele>1553</ele>
        <time>2010-01-01T00:59:09Z</time>
      </trkpt>
      <trkpt lat="46.24601" lon="6.85591">
        <ele>1545</ele>
        <time>2010-01-01T00:59:16Z</time>
      </trkpt>
      <trkpt lat="46.24589" lon="6.85611">
        <ele>1550</ele>
        <time>2010-01-01T00:59:23Z</time>
      </trkpt>
      <trkpt lat="46.24584" lon="6.85624">
        <ele>1554</ele>
        <time>2010-01-01T00:59:28Z</time>
      </trkpt>
      <trkpt lat="46.2457" lon="6.85637">
        <ele>1537</ele>
        <time>2010-01-01T00:59:34Z</time>
      </trkpt>
      <trkpt lat="46.24558" lon="6.85654">
        <ele>1538</ele>
        <time>2010-01-01T00:59:41Z</time>
      </trkpt>
      <trkpt lat="46.24549" lon="6.85671">
        <ele>1556</ele>
        <time>2010-01-01T00:59:47Z</time>
      </trkpt>
      <trkpt lat="46.24535" lon="6.85683">
        <ele>1554</ele>
        <time>2010-01-01T00:59:53Z</time>
      </trkpt>
      <trkpt lat="46.24518" lon="6.85695">
        <ele>1552</ele>
        <time>2010-01-01T01:00:01Z</time>
      </trkpt>
      <trkpt lat="46.24501" lon="6.85703">
        <ele>1552</ele>
        <time>2010-01-01T01:00:08Z</time>
      </trkpt>
      <trkpt lat="46.24483" lon="6.85737">
        <ele>1537</ele>
        <time>2010-01-01T01:00:20Z</time>
      </trkpt>
      <trkpt lat="46.24482" lon="6.85741">
        <ele>1537</ele>
        <time>2010-01-01T01:00:21Z</time>
      </trkpt>
      <trkpt lat="46.24464" lon="6.85781">
        <ele>1540</ele>
        <time>2010-01-01T01:00:35Z</time>
      </trkpt>
      <trkpt lat="46.24449" lon="6.85828">
        <ele>1537</ele>
        <time>2010-01-01T01:00:49Z</time>
      </trkpt>
      <trkpt lat="46.24443" lon="6.85868">
        <ele>1546</ele>
        <time>2010-01-01T01:01:00Z</time>
      </trkpt>
      <trkpt lat="46.24435" lon="6.85888">
        <ele>1547</ele>
        <time>2010-01-01T01:01:06Z</time>
      </trkpt>
      <trkpt lat="46.24422" lon="6.85892">
        <ele>1544</ele>
        <time>2010-01-01T01:01:12Z</time>
      </trkpt>
      <trkpt lat="46.24404" lon="6.85896">
        <ele>1523</ele>
        <time>2010-01-01T01:01:19Z</time>
      </trkpt>
      <trkpt lat="46.24381" lon="6.85911">
        <ele>1518</ele>
        <time>2010-01-01T01:01:30Z</time>
      </trkpt>
      <trkpt lat="46.2437" lon="6.8593">
        <ele>1521</ele>
        <time>2010-01-01T01:01:36Z</time>
      </trkpt>
      <trkpt lat="46.24367" lon="6.85958">
        <ele>1522</ele>
        <time>2010-01-01T01:01:44Z</time>
      </trkpt>
      <trkpt lat="46.24361" lon="6.85975">
        <ele>1521</ele>
        <time>2010-01-01T01:01:49Z</time>
      </trkpt>
      <trkpt lat="46.24356" lon="6.8596">
        <ele>1520</ele>
        <time>2010-01-01T01:01:54Z</time>
      </trkpt>
      <trkpt lat="46.2435" lon="6.8593">
        <ele>1515</ele>
        <time>2010-01-01T01:02:02Z</time>
      </trkpt>
      <trkpt lat="46.2435" lon="6.85925">
        <ele>1514</ele>
        <time>2010-01-01T01:02:04Z</time>
      </trkpt>
      <trkpt lat="46.24356" lon="6.85889">
        <ele>1511</ele>
        <time>2010-01-01T01:02:14Z</time>
      </trkpt>
      <trkpt lat="46.24361" lon="6.85846">
        <ele>1508</ele>
        <time>2010-01-01T01:02:26Z</time>
      </trkpt>
      <trkpt lat="46.24362" lon="6.85845">
        <ele>1508</ele>
        <time>2010-01-01T01:02:27Z</time>
      </trkpt>
      <trkpt lat="46.24369" lon="6.85835">
        <ele>1509</ele>
        <time>2010-01-01T01:02:31Z</time>
      </trkpt>
      <trkpt lat="46.24375" lon="6.85826">
        <ele>1503</ele>
        <time>2010-01-01T01:02:34Z</time>
      </trkpt>
      <trkpt lat="46.2438" lon="6.85822">
        <ele>1503</ele>
        <time>2010-01-01T01:02:36Z</time>
      </trkpt>
      <trkpt lat="46.24381" lon="6.85811">
        <ele>1503</ele>
        <time>2010-01-01T01:02:39Z</time>
      </trkpt>
      <trkpt lat="46.24376" lon="6.85805">
        <ele>1501</ele>
        <time>2010-01-01T01:02:42Z</time>
      </trkpt>
      <trkpt lat="46.24368" lon="6.85815">
        <ele>1500</ele>
        <time>2010-01-01T01:02:46Z</time>
      </trkpt>
      <trkpt lat="46.2435" lon="6.85826">
        <ele>1497</ele>
        <time>2010-01-01T01:02:54Z</time>
      </trkpt>
      <trkpt lat="46.24334" lon="6.85826">
        <ele>1494</ele>
        <time>2010-01-01T01:03:01Z</time>
      </trkpt>
      <trkpt lat="46.24324" lon="6.85852">
        <ele>1488</ele>
        <time>2010-01-01T01:03:09Z</time>
      </trkpt>
      <trkpt lat="46.24311" lon="6.85882">
        <ele>1488</ele>
        <time>2010-01-01T01:03:19Z</time>
      </trkpt>
      <trkpt lat="46.24293" lon="6.85909">
        <ele>1486</ele>
        <time>2010-01-01T01:03:29Z</time>
      </trkpt>
      <trkpt lat="46.24285" lon="6.85903">
        <ele>1484</ele>
        <time>2010-01-01T01:03:32Z</time>
      </trkpt>
      <trkpt lat="46.24292" lon="6.8587">
        <ele>1484</ele>
        <time>2010-01-01T01:03:42Z</time>
      </trkpt>
      <trkpt lat="46.24299" lon="6.85849">
        <ele>1484</ele>
        <time>2010-01-01T01:03:48Z</time>
      </trkpt>
      <trkpt lat="46.243" lon="6.8583">
        <ele>1478</ele>
        <time>2010-01-01T01:03:54Z</time>
      </trkpt>
      <trkpt lat="46.24296" lon="6.85805">
        <ele>1476</ele>
        <time>2010-01-01T01:04:01Z</time>
      </trkpt>
      <trkpt lat="46.24294" lon="6.85795">
        <ele>1475</ele>
        <time>2010-01-01T01:04:04Z</time>
      </trkpt>
      <trkpt lat="46.24295" lon="6.85786">
        <ele>1474</ele>
        <time>2010-01-01T01:04:06Z</time>
      </trkpt>
      <trkpt lat="46.24307" lon="6.85779">
        <ele>1475</ele>
        <time>2010-01-01T01:04:11Z</time>
      </trkpt>
      <trkpt lat="46.24317" lon="6.85776">
        <ele>1476</ele>
        <time>2010-01-01T01:04:15Z</time>
      </trkpt>
      <trkpt lat="46.24328" lon="6.85772">
        <ele>1477</ele>
        <time>2010-01-01T01:04:20Z</time>
      </trkpt>
      <trkpt lat="46.24338" lon="6.85761">
        <ele>1487</ele>
        <time>2010-01-01T01:04:25Z</time>
      </trkpt>
      <trkpt lat="46.24348" lon="6.85747">
        <ele>1483</ele>
        <time>2010-01-01T01:04:30Z</time>
      </trkpt>
      <trkpt lat="46.24358" lon="6.85732">
        <ele>1485</ele>
        <time>2010-01-01T01:04:36Z</time>
      </trkpt>
      <trkpt lat="46.24364" lon="6.85722">
        <ele>1486</ele>
        <time>2010-01-01T01:04:40Z</time>
      </trkpt>
      <trkpt lat="46.24369" lon="6.85699">
        <ele>1484</ele>
        <time>2010-01-01T01:04:47Z</time>
      </trkpt>
      <trkpt lat="46.24378" lon="6.85688">
        <ele>1485</ele>
        <time>2010-01-01T01:04:51Z</time>
      </trkpt>
      <trkpt lat="46.24392" lon="6.85671">
        <ele>1488</ele>
        <time>2010-01-01T01:04:59Z</time>
      </trkpt>
      <trkpt lat="46.24403" lon="6.85643">
        <ele>1475</ele>
        <time>2010-01-01T01:05:07Z</time>
      </trkpt>
      <trkpt lat="46.2441" lon="6.85627">
        <ele>1472</ele>
        <time>2010-01-01T01:05:13Z</time>
      </trkpt>
      <trkpt lat="46.24418" lon="6.85613">
        <ele>1487</ele>
        <time>2010-01-01T01:05:18Z</time>
      </trkpt>
      <trkpt lat="46.24431" lon="6.85592">
        <ele>1482</ele>
        <time>2010-01-01T01:05:25Z</time>
      </trkpt>
      <trkpt lat="46.24431" lon="6.85592">
        <ele>1482</ele>
        <time>2010-01-01T01:05:26Z</time>
      </trkpt>
      <trkpt lat="46.24447" lon="6.85566">
        <ele>1472</ele>
        <time>2010-01-01T01:05:35Z</time>
      </trkpt>
      <trkpt lat="46.24457" lon="6.85551">
        <ele>1473</ele>
        <time>2010-01-01T01:05:41Z</time>
      </trkpt>
      <trkpt lat="46.24466" lon="6.85519">
        <ele>1471</ele>
        <time>2010-01-01T01:05:51Z</time>
      </trkpt>
      <trkpt lat="46.2447" lon="6.855">
        <ele>1461</ele>
        <time>2010-01-01T01:05:56Z</time>
      </trkpt>
      <trkpt lat="46.24474" lon="6.85486">
        <ele>1461</ele>
        <time>2010-01-01T01:06:00Z</time>
      </trkpt>
      <trkpt lat="46.24478" lon="6.85479">
        <ele>1461</ele>
        <time>2010-01-01T01:06:03Z</time>
      </trkpt>
      <trkpt lat="46.24479" lon="6.85477">
        <ele>1461</ele>
        <time>2010-01-01T01:06:03Z</time>
      </trkpt>
      <trkpt lat="46.24489" lon="6.85468">
        <ele>1461</ele>
        <time>2010-01-01T01:06:08Z</time>
      </trkpt>
      <trkpt lat="46.24498" lon="6.85446">
        <ele>1459</ele>
        <time>2010-01-01T01:06:15Z</time>
      </trkpt>
      <trkpt lat="46.245" lon="6.85428">
        <ele>1472</ele>
        <time>2010-01-01T01:06:20Z</time>
      </trkpt>
      <trkpt lat="46.24501" lon="6.85409">
        <ele>1466</ele>
        <time>2010-01-01T01:06:25Z</time>
      </trkpt>
      <trkpt lat="46.24502" lon="6.85383">
        <ele>1468</ele>
        <time>2010-01-01T01:06:33Z</time>
      </trkpt>
      <trkpt lat="46.24507" lon="6.85358">
        <ele>1463</ele>
        <time>2010-01-01T01:06:40Z</time>
      </trkpt>
      <trkpt lat="46.24509" lon="6.85339">
        <ele>1456</ele>
        <time>2010-01-01T01:06:45Z</time>
      </trkpt>
      <trkpt lat="46.24509" lon="6.85338">
        <ele>1455</ele>
        <time>2010-01-01T01:06:46Z</time>
      </trkpt>
      <trkpt lat="46.24521" lon="6.85308">
        <ele>1452</ele>
        <time>2010-01-01T01:06:55Z</time>
      </trkpt>
      <trkpt lat="46.24534" lon="6.85277">
        <ele>1450</ele>
        <time>2010-01-01T01:07:05Z</time>
      </trkpt>
      <trkpt lat="46.24551" lon="6.85262">
        <ele>1452</ele>
        <time>2010-01-01T01:07:13Z</time>
      </trkpt>
      <trkpt lat="46.24562" lon="6.85238">
        <ele>1441</ele>
        <time>2010-01-01T01:07:21Z</time>
      </trkpt>
      <trkpt lat="46.24568" lon="6.85225">
        <ele>1440</ele>
        <time>2010-01-01T01:07:25Z</time>
      </trkpt>
      <trkpt lat="46.24573" lon="6.85207">
        <ele>1436</ele>
        <time>2010-01-01T01:07:31Z</time>
      </trkpt>
      <trkpt lat="46.24575" lon="6.85205">
        <ele>1436</ele>
        <time>2010-01-01T01:07:32Z</time>
      </trkpt>
      <trkpt lat="46.24575" lon="6.85204">
        <ele>1436</ele>
        <time>2010-01-01T01:07:32Z</time>
      </trkpt>
      <trkpt lat="46.24606" lon="6.85166">
        <ele>1432</ele>
        <time>2010-01-01T01:07:48Z</time>
      </trkpt>
      <trkpt lat="46.24617" lon="6.85153">
        <ele>1431</ele>
        <time>2010-01-01T01:07:54Z</time>
      </trkpt>
      <trkpt lat="46.24618" lon="6.85151">
        <ele>1431</ele>
        <time>2010-01-01T01:07:54Z</time>
      </trkpt>
      <trkpt lat="46.24639" lon="6.85131">
        <ele>1430</ele>
        <time>2010-01-01T01:08:04Z</time>
      </trkpt>
      <trkpt lat="46.2464" lon="6.85131">
        <ele>1430</ele>
        <time>2010-01-01T01:08:05Z</time>
      </trkpt>
      <trkpt lat="46.24654" lon="6.85127">
        <ele>1431</ele>
        <time>2010-01-01T01:08:11Z</time>
      </trkpt>
      <trkpt lat="46.24656" lon="6.85126">
        <ele>1430</ele>
        <time>2010-01-01T01:08:12Z</time>
      </trkpt>
      <trkpt lat="46.24677" lon="6.85117">
        <ele>1439</ele>
        <time>2010-01-01T01:08:20Z</time>
      </trkpt>
      <trkpt lat="46.24677" lon="6.85117">
        <ele>1439</ele>
        <time>2010-01-01T01:08:20Z</time>
      </trkpt>
      <trkpt lat="46.24697" lon="6.85113">
        <ele>1440</ele>
        <time>2010-01-01T01:08:28Z</time>
      </trkpt>
      <trkpt lat="46.24701" lon="6.85111">
        <ele>1440</ele>
        <time>2010-01-01T01:08:30Z</time>
      </trkpt>
      <trkpt lat="46.24718" lon="6.85105">
        <ele>1441</ele>
        <time>2010-01-01T01:08:37Z</time>
      </trkpt>
      <trkpt lat="46.24719" lon="6.85104">
        <ele>1441</ele>
        <time>2010-01-01T01:08:38Z</time>
      </trkpt>
      <trkpt lat="46.2473" lon="6.85098">
        <ele>1441</ele>
        <time>2010-01-01T01:08:42Z</time>
      </trkpt>
      <trkpt lat="46.24742" lon="6.85085">
        <ele>1439</ele>
        <time>2010-01-01T01:08:48Z</time>
      </trkpt>
      <trkpt lat="46.24753" lon="6.85063">
        <ele>1438</ele>
        <time>2010-01-01T01:08:56Z</time>
      </trkpt>
      <trkpt lat="46.24757" lon="6.85015">
        <ele>1428</ele>
        <time>2010-01-01T01:09:09Z</time>
      </trkpt>
      <trkpt lat="46.24761" lon="6.84985">
        <ele>1417</ele>
        <time>2010-01-01T01:09:18Z</time>
      </trkpt>
      <trkpt lat="46.24761" lon="6.84983">
        <ele>1417</ele>
        <time>2010-01-01T01:09:18Z</time>
      </trkpt>
      <trkpt lat="46.24772" lon="6.84959">
        <ele>1416</ele>
        <time>2010-01-01T01:09:26Z</time>
      </trkpt>
      <trkpt lat="46.24773" lon="6.84955">
        <ele>1415</ele>
        <time>2010-01-01T01:09:27Z</time>
      </trkpt>
      <trkpt lat="46.24774" lon="6.84953">
        <ele>1415</ele>
        <time>2010-01-01T01:09:28Z</time>
      </trkpt>
      <trkpt lat="46.24786" lon="6.84934">
        <ele>1414</ele>
        <time>2010-01-01T01:09:35Z</time>
      </trkpt>
      <trkpt lat="46.24796" lon="6.84914">
        <ele>1403</ele>
        <time>2010-01-01T01:09:42Z</time>
      </trkpt>
      <trkpt lat="46.24818" lon="6.84874">
        <ele>1401</ele>
        <time>2010-01-01T01:09:56Z</time>
      </trkpt>
      <trkpt lat="46.24832" lon="6.8484">
        <ele>1398</ele>
        <time>2010-01-01T01:10:07Z</time>
      </trkpt>
      <trkpt lat="46.2485" lon="6.84825">
        <ele>1393</ele>
        <time>2010-01-01T01:10:15Z</time>
      </trkpt>
      <trkpt lat="46.2487" lon="6.84821">
        <ele>1392</ele>
        <time>2010-01-01T01:10:24Z</time>
      </trkpt>
      <trkpt lat="46.24888" lon="6.84818">
        <ele>1392</ele>
        <time>2010-01-01T01:10:31Z</time>
      </trkpt>
      <trkpt lat="46.24889" lon="6.84818">
        <ele>1392</ele>
        <time>2010-01-01T01:10:31Z</time>
      </trkpt>
      <trkpt lat="46.24908" lon="6.84811">
        <ele>1393</ele>
        <time>2010-01-01T01:10:39Z</time>
      </trkpt>
      <trkpt lat="46.24912" lon="6.84809">
        <ele>1393</ele>
        <time>2010-01-01T01:10:40Z</time>
      </trkpt>
      <trkpt lat="46.24913" lon="6.84809">
        <ele>1393</ele>
        <time>2010-01-01T01:10:41Z</time>
      </trkpt>
      <trkpt lat="46.24927" lon="6.84798">
        <ele>1396</ele>
        <time>2010-01-01T01:10:47Z</time>
      </trkpt>
      <trkpt lat="46.24946" lon="6.8478">
        <ele>1395</ele>
        <time>2010-01-01T01:10:56Z</time>
      </trkpt>
      <trkpt lat="46.24946" lon="6.84779">
        <ele>1394</ele>
        <time>2010-01-01T01:10:57Z</time>
      </trkpt>
      <trkpt lat="46.24954" lon="6.84765">
        <ele>1394</ele>
        <time>2010-01-01T01:11:02Z</time>
      </trkpt>
      <trkpt lat="46.24961" lon="6.84748">
        <ele>1385</ele>
        <time>2010-01-01T01:11:07Z</time>
      </trkpt>
      <trkpt lat="46.24974" lon="6.84735">
        <ele>1386</ele>
        <time>2010-01-01T01:11:13Z</time>
      </trkpt>
      <trkpt lat="46.24986" lon="6.84722">
        <ele>1386</ele>
        <time>2010-01-01T01:11:19Z</time>
      </trkpt>
      <trkpt lat="46.24982" lon="6.84709">
        <ele>1384</ele>
        <time>2010-01-01T01:11:23Z</time>
      </trkpt>
      <trkpt lat="46.24974" lon="6.84707">
        <ele>1384</ele>
        <time>2010-01-01T01:11:27Z</time>
      </trkpt>
      <trkpt lat="46.24969" lon="6.8471">
        <ele>1384</ele>
        <time>2010-01-01T01:11:29Z</time>
      </trkpt>
      <trkpt lat="46.24955" lon="6.84729">
        <ele>1384</ele>
        <time>2010-01-01T01:11:37Z</time>
      </trkpt>
      <trkpt lat="46.24944" lon="6.84742">
        <ele>1383</ele>
        <time>2010-01-01T01:11:42Z</time>
      </trkpt>
      <trkpt lat="46.24925" lon="6.84748">
        <ele>1382</ele>
        <time>2010-01-01T01:11:50Z</time>
      </trkpt>
      <trkpt lat="46.24918" lon="6.84752">
        <ele>1382</ele>
        <time>2010-01-01T01:11:53Z</time>
      </trkpt>
      <trkpt lat="46.24926" lon="6.84728">
        <ele>1382</ele>
        <time>2010-01-01T01:12:00Z</time>
      </trkpt>
      <trkpt lat="46.24932" lon="6.84702">
        <ele>1381</ele>
        <time>2010-01-01T01:12:08Z</time>
      </trkpt>
      <trkpt lat="46.24933" lon="6.84701">
        <ele>1381</ele>
        <time>2010-01-01T01:12:08Z</time>
      </trkpt>
      <trkpt lat="46.24945" lon="6.84679">
        <ele>1381</ele>
        <time>2010-01-01T01:12:16Z</time>
      </trkpt>
      <trkpt lat="46.2495" lon="6.8465">
        <ele>1382</ele>
        <time>2010-01-01T01:12:24Z</time>
      </trkpt>
      <trkpt lat="46.24956" lon="6.84628">
        <ele>1384</ele>
        <time>2010-01-01T01:12:31Z</time>
      </trkpt>
      <trkpt lat="46.24959" lon="6.84613">
        <ele>1385</ele>
        <time>2010-01-01T01:12:35Z</time>
      </trkpt>
      <trkpt lat="46.24951" lon="6.84597">
        <ele>1386</ele>
        <time>2010-01-01T01:12:41Z</time>
      </trkpt>
      <trkpt lat="46.24945" lon="6.8459">
        <ele>1387</ele>
        <time>2010-01-01T01:12:44Z</time>
      </trkpt>
      <trkpt lat="46.24929" lon="6.84596">
        <ele>1389</ele>
        <time>2010-01-01T01:12:50Z</time>
      </trkpt>
      <trkpt lat="46.24912" lon="6.84604">
        <ele>1391</ele>
        <time>2010-01-01T01:12:58Z</time>
      </trkpt>
      <trkpt lat="46.24822" lon="6.84633">
        <ele>1390</ele>
        <time>2010-01-01T01:13:35Z</time>
      </trkpt>
      <trkpt lat="46.24783" lon="6.84648">
        <ele>1387</ele>
        <time>2010-01-01T01:13:51Z</time>
      </trkpt>
      <trkpt lat="46.24759" lon="6.84649">
        <ele>1384</ele>
        <time>2010-01-01T01:14:00Z</time>
      </trkpt>
      <trkpt lat="46.24734" lon="6.84652">
        <ele>1388</ele>
        <time>2010-01-01T01:14:11Z</time>
      </trkpt>
      <trkpt lat="46.24706" lon="6.8466">
        <ele>1393</ele>
        <time>2010-01-01T01:14:22Z</time>
      </trkpt>
      <trkpt lat="46.24677" lon="6.84674">
        <ele>1385</ele>
        <time>2010-01-01T01:14:34Z</time>
      </trkpt>
      <trkpt lat="46.24646" lon="6.84677">
        <ele>1385</ele>
        <time>2010-01-01T01:14:47Z</time>
      </trkpt>
      <trkpt lat="46.24627" lon="6.84686">
        <ele>1384</ele>
        <time>2010-01-01T01:14:55Z</time>
      </trkpt>
      <trkpt lat="46.24607" lon="6.84701">
        <ele>1382</ele>
        <time>2010-01-01T01:15:04Z</time>
      </trkpt>
      <trkpt lat="46.2458" lon="6.84715">
        <ele>1383</ele>
        <time>2010-01-01T01:15:15Z</time>
      </trkpt>
      <trkpt lat="46.24567" lon="6.84727">
        <ele>1380</ele>
        <time>2010-01-01T01:15:21Z</time>
      </trkpt>
      <trkpt lat="46.24547" lon="6.84727">
        <ele>1383</ele>
        <time>2010-01-01T01:15:29Z</time>
      </trkpt>
      <trkpt lat="46.24515" lon="6.84734">
        <ele>1381</ele>
        <time>2010-01-01T01:15:42Z</time>
      </trkpt>
      <trkpt lat="46.24501" lon="6.8474">
        <ele>1378</ele>
        <time>2010-01-01T01:15:48Z</time>
      </trkpt>
      <trkpt lat="46.24481" lon="6.84751">
        <ele>1375</ele>
        <time>2010-01-01T01:15:57Z</time>
      </trkpt>
      <trkpt lat="46.24458" lon="6.8477">
        <ele>1377</ele>
        <time>2010-01-01T01:16:07Z</time>
      </trkpt>
      <trkpt lat="46.24443" lon="6.84788">
        <ele>1378</ele>
        <time>2010-01-01T01:16:15Z</time>
      </trkpt>
      <trkpt lat="46.24428" lon="6.8481">
        <ele>1379</ele>
        <time>2010-01-01T01:16:24Z</time>
      </trkpt>
      <trkpt lat="46.24417" lon="6.84833">
        <ele>1382</ele>
        <time>2010-01-01T01:16:31Z</time>
      </trkpt>
      <trkpt lat="46.24418" lon="6.84852">
        <ele>1378</ele>
        <time>2010-01-01T01:16:37Z</time>
      </trkpt>
      <trkpt lat="46.24419" lon="6.84874">
        <ele>1376</ele>
        <time>2010-01-01T01:16:43Z</time>
      </trkpt>
      <trkpt lat="46.24421" lon="6.84889">
        <ele>1376</ele>
        <time>2010-01-01T01:16:47Z</time>
      </trkpt>
      <trkpt lat="46.24416" lon="6.8491">
        <ele>1380</ele>
        <time>2010-01-01T01:16:53Z</time>
      </trkpt>
      <trkpt lat="46.24395" lon="6.84939">
        <ele>1384</ele>
        <time>2010-01-01T01:17:04Z</time>
      </trkpt>
      <trkpt lat="46.24371" lon="6.84968">
        <ele>1387</ele>
        <time>2010-01-01T01:17:17Z</time>
      </trkpt>
      <trkpt lat="46.24355" lon="6.84986">
        <ele>1388</ele>
        <time>2010-01-01T01:17:25Z</time>
      </trkpt>
      <trkpt lat="46.24342" lon="6.85018">
        <ele>1384</ele>
        <time>2010-01-01T01:17:36Z</time>
      </trkpt>
      <trkpt lat="46.24328" lon="6.85032">
        <ele>1389</ele>
        <time>2010-01-01T01:17:42Z</time>
      </trkpt>
      <trkpt lat="46.24309" lon="6.85047">
        <ele>1389</ele>
        <time>2010-01-01T01:17:51Z</time>
      </trkpt>
      <trkpt lat="46.24291" lon="6.85053">
        <ele>1390</ele>
        <time>2010-01-01T01:17:58Z</time>
      </trkpt>
      <trkpt lat="46.24262" lon="6.85076">
        <ele>1389</ele>
        <time>2010-01-01T01:18:12Z</time>
      </trkpt>
      <trkpt lat="46.24244" lon="6.85081">
        <ele>1389</ele>
        <time>2010-01-01T01:18:19Z</time>
      </trkpt>
      <trkpt lat="46.2423" lon="6.85086">
        <ele>1377</ele>
        <time>2010-01-01T01:18:25Z</time>
      </trkpt>
      <trkpt lat="46.24217" lon="6.85091">
        <ele>1374</ele>
        <time>2010-01-01T01:18:30Z</time>
      </trkpt>
      <trkpt lat="46.24203" lon="6.85095">
        <ele>1372</ele>
        <time>2010-01-01T01:18:36Z</time>
      </trkpt>
      <trkpt lat="46.24192" lon="6.85095">
        <ele>1371</ele>
        <time>2010-01-01T01:18:40Z</time>
      </trkpt>
      <trkpt lat="46.24175" lon="6.85088">
        <ele>1372</ele>
        <time>2010-01-01T01:18:47Z</time>
      </trkpt>
      <trkpt lat="46.24152" lon="6.85098">
        <ele>1367</ele>
        <time>2010-01-01T01:18:57Z</time>
      </trkpt>
      <trkpt lat="46.24133" lon="6.85095">
        <ele>1365</ele>
        <time>2010-01-01T01:19:05Z</time>
      </trkpt>
      <trkpt lat="46.24113" lon="6.85092">
        <ele>1364</ele>
        <time>2010-01-01T01:19:13Z</time>
      </trkpt>
      <trkpt lat="46.241" lon="6.85095">
        <ele>1365</ele>
        <time>2010-01-01T01:19:18Z</time>
      </trkpt>
      <trkpt lat="46.24085" lon="6.85103">
        <ele>1364</ele>
        <time>2010-01-01T01:19:24Z</time>
      </trkpt>
      <trkpt lat="46.24076" lon="6.85099">
        <ele>1363</ele>
        <time>2010-01-01T01:19:28Z</time>
      </trkpt>
      <trkpt lat="46.24061" lon="6.85103">
        <ele>1362</ele>
        <time>2010-01-01T01:19:34Z</time>
      </trkpt>
      <trkpt lat="46.24041" lon="6.8511">
        <ele>1361</ele>
        <time>2010-01-01T01:19:42Z</time>
      </trkpt>
      <trkpt lat="46.24031" lon="6.85112">
        <ele>1361</ele>
        <time>2010-01-01T01:19:46Z</time>
      </trkpt>
      <trkpt lat="46.24015" lon="6.85116">
        <ele>1361</ele>
        <time>2010-01-01T01:19:53Z</time>
      </trkpt>
      <trkpt lat="46.23992" lon="6.85119">
        <ele>1359</ele>
        <time>2010-01-01T01:20:02Z</time>
      </trkpt>
      <trkpt lat="46.23971" lon="6.85115">
        <ele>1358</ele>
        <time>2010-01-01T01:20:11Z</time>
      </trkpt>
      <trkpt lat="46.23957" lon="6.85107">
        <ele>1358</ele>
        <time>2010-01-01T01:20:17Z</time>
      </trkpt>
      <trkpt lat="46.23934" lon="6.85098">
        <ele>1359</ele>
        <time>2010-01-01T01:20:26Z</time>
      </trkpt>
      <trkpt lat="46.23907" lon="6.85094">
        <ele>1357</ele>
        <time>2010-01-01T01:20:37Z</time>
      </trkpt>
      <trkpt lat="46.23888" lon="6.85095">
        <ele>1356</ele>
        <time>2010-01-01T01:20:44Z</time>
      </trkpt>
      <trkpt lat="46.23873" lon="6.85106">
        <ele>1355</ele>
        <time>2010-01-01T01:20:51Z</time>
      </trkpt>
      <trkpt lat="46.23857" lon="6.8511">
        <ele>1354</ele>
        <time>2010-01-01T01:20:58Z</time>
      </trkpt>
      <trkpt lat="46.23842" lon="6.85115">
        <ele>1354</ele>
        <time>2010-01-01T01:21:04Z</time>
      </trkpt>
      <trkpt lat="46.23839" lon="6.85127">
        <ele>1353</ele>
        <time>2010-01-01T01:21:08Z</time>
      </trkpt>
      <trkpt lat="46.23827" lon="6.85137">
        <ele>1352</ele>
        <time>2010-01-01T01:21:13Z</time>
      </trkpt>
      <trkpt lat="46.23811" lon="6.85145">
        <ele>1352</ele>
        <time>2010-01-01T01:21:20Z</time>
      </trkpt>
      <trkpt lat="46.23788" lon="6.85155">
        <ele>1352</ele>
        <time>2010-01-01T01:21:29Z</time>
      </trkpt>
      <trkpt lat="46.23754" lon="6.85174">
        <ele>1349</ele>
        <time>2010-01-01T01:21:44Z</time>
      </trkpt>
      <trkpt lat="46.23742" lon="6.85188">
        <ele>1347</ele>
        <time>2010-01-01T01:21:50Z</time>
      </trkpt>
      <trkpt lat="46.23727" lon="6.852">
        <ele>1346</ele>
        <time>2010-01-01T01:21:57Z</time>
      </trkpt>
      <trkpt lat="46.23708" lon="6.85235">
        <ele>1344</ele>
        <time>2010-01-01T01:22:09Z</time>
      </trkpt>
      <trkpt lat="46.23688" lon="6.85258">
        <ele>1340</ele>
        <time>2010-01-01T01:22:19Z</time>
      </trkpt>
      <trkpt lat="46.23675" lon="6.8528">
        <ele>1339</ele>
        <time>2010-01-01T01:22:28Z</time>
      </trkpt>
      <trkpt lat="46.23656" lon="6.85297">
        <ele>1338</ele>
        <time>2010-01-01T01:22:37Z</time>
      </trkpt>
      <trkpt lat="46.23632" lon="6.85308">
        <ele>1338</ele>
        <time>2010-01-01T01:22:47Z</time>
      </trkpt>
      <trkpt lat="46.2362" lon="6.85345">
        <ele>1337</ele>
        <time>2010-01-01T01:22:58Z</time>
      </trkpt>
      <trkpt lat="46.23618" lon="6.8537">
        <ele>1337</ele>
        <time>2010-01-01T01:23:05Z</time>
      </trkpt>
      <trkpt lat="46.23627" lon="6.85385">
        <ele>1337</ele>
        <time>2010-01-01T01:23:10Z</time>
      </trkpt>
      <trkpt lat="46.2365" lon="6.85394">
        <ele>1335</ele>
        <time>2010-01-01T01:23:20Z</time>
      </trkpt>
      <trkpt lat="46.23671" lon="6.85418">
        <ele>1330</ele>
        <time>2010-01-01T01:23:31Z</time>
      </trkpt>
      <trkpt lat="46.23682" lon="6.85432">
        <ele>1328</ele>
        <time>2010-01-01T01:23:37Z</time>
      </trkpt>
      <trkpt lat="46.23692" lon="6.85457">
        <ele>1327</ele>
        <time>2010-01-01T01:23:45Z</time>
      </trkpt>
      <trkpt lat="46.23697" lon="6.85525">
        <ele>1322</ele>
        <time>2010-01-01T01:24:03Z</time>
      </trkpt>
      <trkpt lat="46.23695" lon="6.85578">
        <ele>1320</ele>
        <time>2010-01-01T01:24:18Z</time>
      </trkpt>
      <trkpt lat="46.23707" lon="6.85637">
        <ele>1317</ele>
        <time>2010-01-01T01:24:35Z</time>
      </trkpt>
      <trkpt lat="46.23707" lon="6.85707">
        <ele>1316</ele>
        <time>2010-01-01T01:24:55Z</time>
      </trkpt>
      <trkpt lat="46.23706" lon="6.85764">
        <ele>1315</ele>
        <time>2010-01-01T01:25:10Z</time>
      </trkpt>
      <trkpt lat="46.23692" lon="6.85805">
        <ele>1316</ele>
        <time>2010-01-01T01:25:23Z</time>
      </trkpt>
      <trkpt lat="46.2367" lon="6.85812">
        <ele>1316</ele>
        <time>2010-01-01T01:25:32Z</time>
      </trkpt>
      <trkpt lat="46.2365" lon="6.85822">
        <ele>1324</ele>
        <time>2010-01-01T01:25:41Z</time>
      </trkpt>
      <trkpt lat="46.2363" lon="6.85832">
        <ele>1327</ele>
        <time>2010-01-01T01:25:49Z</time>
      </trkpt>
      <trkpt lat="46.23606" lon="6.85831">
        <ele>1332</ele>
        <time>2010-01-01T01:25:59Z</time>
      </trkpt>
      <trkpt lat="46.23585" lon="6.85841">
        <ele>1336</ele>
        <time>2010-01-01T01:26:07Z</time>
      </trkpt>
      <trkpt lat="46.23562" lon="6.85853">
        <ele>1358</ele>
        <time>2010-01-01T01:26:17Z</time>
      </trkpt>
      <trkpt lat="46.23514" lon="6.85861">
        <ele>1374</ele>
        <time>2010-01-01T01:26:37Z</time>
      </trkpt>
      <trkpt lat="46.2347" lon="6.85861">
        <ele>1415</ele>
        <time>2010-01-01T01:26:54Z</time>
      </trkpt>
      <trkpt lat="46.23446" lon="6.85881">
        <ele>1424</ele>
        <time>2010-01-01T01:27:05Z</time>
      </trkpt>
      <trkpt lat="46.23404" lon="6.85885">
        <ele>1467</ele>
        <time>2010-01-01T01:27:22Z</time>
      </trkpt>
      <trkpt lat="46.23317" lon="6.85913">
        <ele>1518</ele>
        <time>2010-01-01T01:27:58Z</time>
      </trkpt>
      <trkpt lat="46.23281" lon="6.85922">
        <ele>1536</ele>
        <time>2010-01-01T01:28:13Z</time>
      </trkpt>
      <trkpt lat="46.23258" lon="6.85927">
        <ele>1544</ele>
        <time>2010-01-01T01:28:22Z</time>
      </trkpt>
      <trkpt lat="46.23244" lon="6.8593">
        <ele>1560</ele>
        <time>2010-01-01T01:28:27Z</time>
      </trkpt>
      <trkpt lat="46.2322" lon="6.85937">
        <ele>1567</ele>
        <time>2010-01-01T01:28:37Z</time>
      </trkpt>
      <trkpt lat="46.23192" lon="6.85945">
        <ele>1574</ele>
        <time>2010-01-01T01:28:49Z</time>
      </trkpt>
      <trkpt lat="46.23168" lon="6.85954">
        <ele>1577</ele>
        <time>2010-01-01T01:28:58Z</time>
      </trkpt>
      <trkpt lat="46.23108" lon="6.8597">
        <ele>1601</ele>
        <time>2010-01-01T01:29:23Z</time>
      </trkpt>
      <trkpt lat="46.2307" lon="6.85975">
        <ele>1623</ele>
        <time>2010-01-01T01:29:38Z</time>
      </trkpt>
      <trkpt lat="46.23048" lon="6.8598">
        <ele>1628</ele>
        <time>2010-01-01T01:29:47Z</time>
      </trkpt>
      <trkpt lat="46.23037" lon="6.85986">
        <ele>1631</ele>
        <time>2010-01-01T01:29:52Z</time>
      </trkpt>
      <trkpt lat="46.23021" lon="6.85991">
        <ele>1635</ele>
        <time>2010-01-01T01:29:59Z</time>
      </trkpt>
      <trkpt lat="46.22962" lon="6.86009">
        <ele>1653</ele>
        <time>2010-01-01T01:30:23Z</time>
      </trkpt>
      <trkpt lat="46.229" lon="6.86026">
        <ele>1677</ele>
        <time>2010-01-01T01:30:48Z</time>
      </trkpt>
      <trkpt lat="46.22784" lon="6.86057">
        <ele>1705</ele>
        <time>2010-01-01T01:31:35Z</time>
      </trkpt>
      <trkpt lat="46.22713" lon="6.86073">
        <ele>1734</ele>
        <time>2010-01-01T01:32:04Z</time>
      </trkpt>
      <trkpt lat="46.22655" lon="6.86089">
        <ele>1764</ele>
        <time>2010-01-01T01:32:28Z</time>
      </trkpt>
      <trkpt lat="46.22601" lon="6.86106">
        <ele>1777</ele>
        <time>2010-01-01T01:32:50Z</time>
      </trkpt>
      <trkpt lat="46.22547" lon="6.86121">
        <ele>1798</ele>
        <time>2010-01-01T01:33:11Z</time>
      </trkpt>
      <trkpt lat="46.2252" lon="6.86128">
        <ele>1802</ele>
        <time>2010-01-01T01:33:23Z</time>
      </trkpt>
      <trkpt lat="46.22509" lon="6.86133">
        <ele>1803</ele>
        <time>2010-01-01T01:33:27Z</time>
      </trkpt>
      <trkpt lat="46.22501" lon="6.86134">
        <ele>1803</ele>
        <time>2010-01-01T01:33:30Z</time>
      </trkpt>
      <trkpt lat="46.22499" lon="6.86133">
        <ele>1810</ele>
        <time>2010-01-01T01:33:31Z</time>
      </trkpt>
      <trkpt lat="46.22497" lon="6.8613">
        <ele>1810</ele>
        <time>2010-01-01T01:33:32Z</time>
      </trkpt>
      <trkpt lat="46.22494" lon="6.86131">
        <ele>1810</ele>
        <time>2010-01-01T01:33:33Z</time>
      </trkpt>
      <trkpt lat="46.22484" lon="6.86134">
        <ele>1810</ele>
        <time>2010-01-01T01:33:38Z</time>
      </trkpt>
      <trkpt lat="46.22458" lon="6.86153">
        <ele>1809</ele>
        <time>2010-01-01T01:33:49Z</time>
      </trkpt>
      <trkpt lat="46.22432" lon="6.86168">
        <ele>1803</ele>
        <time>2010-01-01T01:34:00Z</time>
      </trkpt>
      <trkpt lat="46.22413" lon="6.86179">
        <ele>1798</ele>
        <time>2010-01-01T01:34:09Z</time>
      </trkpt>
      <trkpt lat="46.22404" lon="6.86183">
        <ele>1796</ele>
        <time>2010-01-01T01:34:13Z</time>
      </trkpt>
      <trkpt lat="46.22394" lon="6.86184">
        <ele>1794</ele>
        <time>2010-01-01T01:34:17Z</time>
      </trkpt>
      <trkpt lat="46.22368" lon="6.86182">
        <ele>1790</ele>
        <time>2010-01-01T01:34:27Z</time>
      </trkpt>
      <trkpt lat="46.22354" lon="6.86179">
        <ele>1789</ele>
        <time>2010-01-01T01:34:32Z</time>
      </trkpt>
      <trkpt lat="46.22338" lon="6.86172">
        <ele>1789</ele>
        <time>2010-01-01T01:34:39Z</time>
      </trkpt>
      <trkpt lat="46.2233" lon="6.86168">
        <ele>1786</ele>
        <time>2010-01-01T01:34:43Z</time>
      </trkpt>
      <trkpt lat="46.22325" lon="6.86168">
        <ele>1784</ele>
        <time>2010-01-01T01:34:45Z</time>
      </trkpt>
      <trkpt lat="46.22322" lon="6.86168">
        <ele>1782</ele>
        <time>2010-01-01T01:34:46Z</time>
      </trkpt>
      <trkpt lat="46.22317" lon="6.86168">
        <ele>1780</ele>
        <time>2010-01-01T01:34:48Z</time>
      </trkpt>
      <trkpt lat="46.22312" lon="6.86169">
        <ele>1778</ele>
        <time>2010-01-01T01:34:50Z</time>
      </trkpt>
      <trkpt lat="46.22307" lon="6.86167">
        <ele>1777</ele>
        <time>2010-01-01T01:34:52Z</time>
      </trkpt>
      <trkpt lat="46.22302" lon="6.86168">
        <ele>1776</ele>
        <time>2010-01-01T01:34:54Z</time>
      </trkpt>
      <trkpt lat="46.22292" lon="6.86173">
        <ele>1774</ele>
        <time>2010-01-01T01:34:58Z</time>
      </trkpt>
      <trkpt lat="46.22287" lon="6.86174">
        <ele>1773</ele>
        <time>2010-01-01T01:35:00Z</time>
      </trkpt>
      <trkpt lat="46.22279" lon="6.86182">
        <ele>1772</ele>
        <time>2010-01-01T01:35:04Z</time>
      </trkpt>
      <trkpt lat="46.22274" lon="6.86184">
        <ele>1771</ele>
        <time>2010-01-01T01:35:06Z</time>
      </trkpt>
      <trkpt lat="46.22262" lon="6.86192">
        <ele>1770</ele>
        <time>2010-01-01T01:35:11Z</time>
      </trkpt>
      <trkpt lat="46.22253" lon="6.86194">
        <ele>1769</ele>
        <time>2010-01-01T01:35:15Z</time>
      </trkpt>
      <trkpt lat="46.22238" lon="6.86192">
        <ele>1758</ele>
        <time>2010-01-01T01:35:21Z</time>
      </trkpt>
      <trkpt lat="46.22232" lon="6.86189">
        <ele>1758</ele>
        <time>2010-01-01T01:35:24Z</time>
      </trkpt>
      <trkpt lat="46.22226" lon="6.86189">
        <ele>1757</ele>
        <time>2010-01-01T01:35:26Z</time>
      </trkpt>
      <trkpt lat="46.2222" lon="6.86188">
        <ele>1756</ele>
        <time>2010-01-01T01:35:29Z</time>
      </trkpt>
      <trkpt lat="46.22201" lon="6.86188">
        <ele>1753</ele>
        <time>2010-01-01T01:35:36Z</time>
      </trkpt>
      <trkpt lat="46.22195" lon="6.8619">
        <ele>1752</ele>
        <time>2010-01-01T01:35:38Z</time>
      </trkpt>
      <trkpt lat="46.22188" lon="6.86194">
        <ele>1751</ele>
        <time>2010-01-01T01:35:41Z</time>
      </trkpt>
      <trkpt lat="46.22178" lon="6.86198">
        <ele>1750</ele>
        <time>2010-01-01T01:35:46Z</time>
      </trkpt>
      <trkpt lat="46.22171" lon="6.86205">
        <ele>1749</ele>
        <time>2010-01-01T01:35:49Z</time>
      </trkpt>
      <trkpt lat="46.22164" lon="6.8621">
        <ele>1736</ele>
        <time>2010-01-01T01:35:52Z</time>
      </trkpt>
      <trkpt lat="46.22156" lon="6.86218">
        <ele>1735</ele>
        <time>2010-01-01T01:35:56Z</time>
      </trkpt>
      <trkpt lat="46.22144" lon="6.8623">
        <ele>1734</ele>
        <time>2010-01-01T01:36:02Z</time>
      </trkpt>
      <trkpt lat="46.22138" lon="6.86228">
        <ele>1733</ele>
        <time>2010-01-01T01:36:05Z</time>
      </trkpt>
      <trkpt lat="46.22134" lon="6.86224">
        <ele>1733</ele>
        <time>2010-01-01T01:36:06Z</time>
      </trkpt>
      <trkpt lat="46.22132" lon="6.86217">
        <ele>1733</ele>
        <time>2010-01-01T01:36:08Z</time>
      </trkpt>
      <trkpt lat="46.22132" lon="6.86216">
        <ele>1733</ele>
        <time>2010-01-01T01:36:09Z</time>
      </trkpt>
      <trkpt lat="46.2213" lon="6.86207">
        <ele>1734</ele>
        <time>2010-01-01T01:36:11Z</time>
      </trkpt>
      <trkpt lat="46.22119" lon="6.86188">
        <ele>1734</ele>
        <time>2010-01-01T01:36:18Z</time>
      </trkpt>
      <trkpt lat="46.22114" lon="6.86182">
        <ele>1733</ele>
        <time>2010-01-01T01:36:21Z</time>
      </trkpt>
      <trkpt lat="46.22106" lon="6.86179">
        <ele>1732</ele>
        <time>2010-01-01T01:36:24Z</time>
      </trkpt>
      <trkpt lat="46.22092" lon="6.86177">
        <ele>1730</ele>
        <time>2010-01-01T01:36:30Z</time>
      </trkpt>
      <trkpt lat="46.22083" lon="6.86172">
        <ele>1725</ele>
        <time>2010-01-01T01:36:34Z</time>
      </trkpt>
      <trkpt lat="46.22075" lon="6.86169">
        <ele>1724</ele>
        <time>2010-01-01T01:36:37Z</time>
      </trkpt>
      <trkpt lat="46.22074" lon="6.86158">
        <ele>1726</ele>
        <time>2010-01-01T01:36:40Z</time>
      </trkpt>
      <trkpt lat="46.22072" lon="6.8612">
        <ele>1727</ele>
        <time>2010-01-01T01:36:50Z</time>
      </trkpt>
      <trkpt lat="46.2207" lon="6.86089">
        <ele>1731</ele>
        <time>2010-01-01T01:36:59Z</time>
      </trkpt>
      <trkpt lat="46.22064" lon="6.86072">
        <ele>1735</ele>
        <time>2010-01-01T01:37:04Z</time>
      </trkpt>
      <trkpt lat="46.22053" lon="6.86056">
        <ele>1735</ele>
        <time>2010-01-01T01:37:11Z</time>
      </trkpt>
      <trkpt lat="46.22034" lon="6.86029">
        <ele>1736</ele>
        <time>2010-01-01T01:37:21Z</time>
      </trkpt>
      <trkpt lat="46.22024" lon="6.86015">
        <ele>1735</ele>
        <time>2010-01-01T01:37:27Z</time>
      </trkpt>
      <trkpt lat="46.22016" lon="6.85992">
        <ele>1741</ele>
        <time>2010-01-01T01:37:34Z</time>
      </trkpt>
      <trkpt lat="46.22011" lon="6.85973">
        <ele>1743</ele>
        <time>2010-01-01T01:37:39Z</time>
      </trkpt>
      <trkpt lat="46.22009" lon="6.85965">
        <ele>1744</ele>
        <time>2010-01-01T01:37:42Z</time>
      </trkpt>
      <trkpt lat="46.21984" lon="6.85949">
        <ele>1736</ele>
        <time>2010-01-01T01:37:53Z</time>
      </trkpt>
      <trkpt lat="46.21951" lon="6.8593">
        <ele>1736</ele>
        <time>2010-01-01T01:38:07Z</time>
      </trkpt>
      <trkpt lat="46.21944" lon="6.85925">
        <ele>1736</ele>
        <time>2010-01-01T01:38:10Z</time>
      </trkpt>
      <trkpt lat="46.21937" lon="6.85927">
        <ele>1736</ele>
        <time>2010-01-01T01:38:13Z</time>
      </trkpt>
      <trkpt lat="46.21927" lon="6.85933">
        <ele>1736</ele>
        <time>2010-01-01T01:38:17Z</time>
      </trkpt>
      <trkpt lat="46.2191" lon="6.8594">
        <ele>1735</ele>
        <time>2010-01-01T01:38:24Z</time>
      </trkpt>
      <trkpt lat="46.21898" lon="6.85942">
        <ele>1735</ele>
        <time>2010-01-01T01:38:29Z</time>
      </trkpt>
      <trkpt lat="46.2187" lon="6.85946">
        <ele>1735</ele>
        <time>2010-01-01T01:38:40Z</time>
      </trkpt>
      <trkpt lat="46.21841" lon="6.85949">
        <ele>1736</ele>
        <time>2010-01-01T01:38:52Z</time>
      </trkpt>
      <trkpt lat="46.2183" lon="6.85955">
        <ele>1740</ele>
        <time>2010-01-01T01:38:57Z</time>
      </trkpt>
      <trkpt lat="46.21809" lon="6.85963">
        <ele>1740</ele>
        <time>2010-01-01T01:39:05Z</time>
      </trkpt>
      <trkpt lat="46.21799" lon="6.85971">
        <ele>1741</ele>
        <time>2010-01-01T01:39:10Z</time>
      </trkpt>
      <trkpt lat="46.21782" lon="6.85992">
        <ele>1741</ele>
        <time>2010-01-01T01:39:19Z</time>
      </trkpt>
      <trkpt lat="46.21778" lon="6.86008">
        <ele>1735</ele>
        <time>2010-01-01T01:39:24Z</time>
      </trkpt>
      <trkpt lat="46.21773" lon="6.86025">
        <ele>1734</ele>
        <time>2010-01-01T01:39:29Z</time>
      </trkpt>
      <trkpt lat="46.21769" lon="6.86038">
        <ele>1733</ele>
        <time>2010-01-01T01:39:33Z</time>
      </trkpt>
      <trkpt lat="46.2176" lon="6.8605">
        <ele>1733</ele>
        <time>2010-01-01T01:39:38Z</time>
      </trkpt>
      <trkpt lat="46.21753" lon="6.86056">
        <ele>1733</ele>
        <time>2010-01-01T01:39:41Z</time>
      </trkpt>
      <trkpt lat="46.21744" lon="6.86068">
        <ele>1738</ele>
        <time>2010-01-01T01:39:46Z</time>
      </trkpt>
      <trkpt lat="46.21721" lon="6.86105">
        <ele>1731</ele>
        <time>2010-01-01T01:39:59Z</time>
      </trkpt>
      <trkpt lat="46.2171" lon="6.86119">
        <ele>1731</ele>
        <time>2010-01-01T01:40:05Z</time>
      </trkpt>
      <trkpt lat="46.21704" lon="6.86126">
        <ele>1730</ele>
        <time>2010-01-01T01:40:08Z</time>
      </trkpt>
      <trkpt lat="46.21701" lon="6.86124">
        <ele>1730</ele>
        <time>2010-01-01T01:40:10Z</time>
      </trkpt>
      <trkpt lat="46.21696" lon="6.8612">
        <ele>1731</ele>
        <time>2010-01-01T01:40:12Z</time>
      </trkpt>
      <trkpt lat="46.21672" lon="6.86093">
        <ele>1735</ele>
        <time>2010-01-01T01:40:24Z</time>
      </trkpt>
      <trkpt lat="46.2166" lon="6.86084">
        <ele>1734</ele>
        <time>2010-01-01T01:40:30Z</time>
      </trkpt>
      <trkpt lat="46.21637" lon="6.86057">
        <ele>1738</ele>
        <time>2010-01-01T01:40:41Z</time>
      </trkpt>
      <trkpt lat="46.21612" lon="6.86019">
        <ele>1739</ele>
        <time>2010-01-01T01:40:56Z</time>
      </trkpt>
      <trkpt lat="46.21601" lon="6.85999">
        <ele>1748</ele>
        <time>2010-01-01T01:41:03Z</time>
      </trkpt>
      <trkpt lat="46.21587" lon="6.85976">
        <ele>1750</ele>
        <time>2010-01-01T01:41:12Z</time>
      </trkpt>
      <trkpt lat="46.21576" lon="6.85959">
        <ele>1741</ele>
        <time>2010-01-01T01:41:18Z</time>
      </trkpt>
      <trkpt lat="46.2156" lon="6.85937">
        <ele>1743</ele>
        <time>2010-01-01T01:41:27Z</time>
      </trkpt>
      <trkpt lat="46.21553" lon="6.85927">
        <ele>1743</ele>
        <time>2010-01-01T01:41:31Z</time>
      </trkpt>
      <trkpt lat="46.21549" lon="6.85919">
        <ele>1742</ele>
        <time>2010-01-01T01:41:34Z</time>
      </trkpt>
      <trkpt lat="46.21535" lon="6.85866">
        <ele>1754</ele>
        <time>2010-01-01T01:41:50Z</time>
      </trkpt>
      <trkpt lat="46.21515" lon="6.85824">
        <ele>1759</ele>
        <time>2010-01-01T01:42:04Z</time>
      </trkpt>
      <trkpt lat="46.21483" lon="6.8578">
        <ele>1750</ele>
        <time>2010-01-01T01:42:21Z</time>
      </trkpt>
      <trkpt lat="46.21432" lon="6.85704">
        <ele>1757</ele>
        <time>2010-01-01T01:42:50Z</time>
      </trkpt>
      <trkpt lat="46.21413" lon="6.85679">
        <ele>1750</ele>
        <time>2010-01-01T01:43:01Z</time>
      </trkpt>
      <trkpt lat="46.214" lon="6.85667">
        <ele>1749</ele>
        <time>2010-01-01T01:43:07Z</time>
      </trkpt>
      <trkpt lat="46.21393" lon="6.85659">
        <ele>1756</ele>
        <time>2010-01-01T01:43:11Z</time>
      </trkpt>
      <trkpt lat="46.21387" lon="6.85656">
        <ele>1755</ele>
        <time>2010-01-01T01:43:13Z</time>
      </trkpt>
      <trkpt lat="46.21366" lon="6.85641">
        <ele>1753</ele>
        <time>2010-01-01T01:43:22Z</time>
      </trkpt>
      <trkpt lat="46.21355" lon="6.8563">
        <ele>1753</ele>
        <time>2010-01-01T01:43:28Z</time>
      </trkpt>
      <trkpt lat="46.21344" lon="6.85613">
        <ele>1754</ele>
        <time>2010-01-01T01:43:34Z</time>
      </trkpt>
      <trkpt lat="46.21336" lon="6.85598">
        <ele>1754</ele>
        <time>2010-01-01T01:43:40Z</time>
      </trkpt>
      <trkpt lat="46.2133" lon="6.85586">
        <ele>1751</ele>
        <time>2010-01-01T01:43:43Z</time>
      </trkpt>
      <trkpt lat="46.21327" lon="6.85581">
        <ele>1753</ele>
        <time>2010-01-01T01:43:46Z</time>
      </trkpt>
      <trkpt lat="46.21297" lon="6.85559">
        <ele>1750</ele>
        <time>2010-01-01T01:43:59Z</time>
      </trkpt>
      <trkpt lat="46.21276" lon="6.85537">
        <ele>1750</ele>
        <time>2010-01-01T01:44:09Z</time>
      </trkpt>
      <trkpt lat="46.21272" lon="6.8553">
        <ele>1750</ele>
        <time>2010-01-01T01:44:12Z</time>
      </trkpt>
      <trkpt lat="46.21267" lon="6.8552">
        <ele>1750</ele>
        <time>2010-01-01T01:44:15Z</time>
      </trkpt>
      <trkpt lat="46.21245" lon="6.85483">
        <ele>1749</ele>
        <time>2010-01-01T01:44:29Z</time>
      </trkpt>
      <trkpt lat="46.21235" lon="6.8547">
        <ele>1749</ele>
        <time>2010-01-01T01:44:34Z</time>
      </trkpt>
      <trkpt lat="46.2122" lon="6.85453">
        <ele>1749</ele>
        <time>2010-01-01T01:44:42Z</time>
      </trkpt>
      <trkpt lat="46.21208" lon="6.85443">
        <ele>1749</ele>
        <time>2010-01-01T01:44:47Z</time>
      </trkpt>
      <trkpt lat="46.21201" lon="6.85434">
        <ele>1748</ele>
        <time>2010-01-01T01:44:51Z</time>
      </trkpt>
      <trkpt lat="46.21196" lon="6.85428">
        <ele>1748</ele>
        <time>2010-01-01T01:44:54Z</time>
      </trkpt>
      <trkpt lat="46.21191" lon="6.85423">
        <ele>1748</ele>
        <time>2010-01-01T01:44:56Z</time>
      </trkpt>
      <trkpt lat="46.21184" lon="6.85422">
        <ele>1747</ele>
        <time>2010-01-01T01:44:59Z</time>
      </trkpt>
      <trkpt lat="46.21178" lon="6.8542">
        <ele>1746</ele>
        <time>2010-01-01T01:45:02Z</time>
      </trkpt>
      <trkpt lat="46.21168" lon="6.85414">
        <ele>1747</ele>
        <time>2010-01-01T01:45:06Z</time>
      </trkpt>
      <trkpt lat="46.21162" lon="6.85407">
        <ele>1743</ele>
        <time>2010-01-01T01:45:09Z</time>
      </trkpt>
      <trkpt lat="46.21156" lon="6.85399">
        <ele>1742</ele>
        <time>2010-01-01T01:45:12Z</time>
      </trkpt>
      <trkpt lat="46.21149" lon="6.85386">
        <ele>1742</ele>
        <time>2010-01-01T01:45:17Z</time>
      </trkpt>
      <trkpt lat="46.21143" lon="6.85379">
        <ele>1742</ele>
        <time>2010-01-01T01:45:20Z</time>
      </trkpt>
      <trkpt lat="46.21136" lon="6.85372">
        <ele>1742</ele>
        <time>2010-01-01T01:45:23Z</time>
      </trkpt>
      <trkpt lat="46.21132" lon="6.85368">
        <ele>1741</ele>
        <time>2010-01-01T01:45:25Z</time>
      </trkpt>
      <trkpt lat="46.21122" lon="6.85353">
        <ele>1741</ele>
        <time>2010-01-01T01:45:31Z</time>
      </trkpt>
      <trkpt lat="46.21119" lon="6.85342">
        <ele>1741</ele>
        <time>2010-01-01T01:45:34Z</time>
      </trkpt>
      <trkpt lat="46.21117" lon="6.85335">
        <ele>1740</ele>
        <time>2010-01-01T01:45:36Z</time>
      </trkpt>
      <trkpt lat="46.21112" lon="6.85333">
        <ele>1750</ele>
        <time>2010-01-01T01:45:38Z</time>
      </trkpt>
      <trkpt lat="46.21109" lon="6.85335">
        <ele>1739</ele>
        <time>2010-01-01T01:45:39Z</time>
      </trkpt>
      <trkpt lat="46.21109" lon="6.85336">
        <ele>1739</ele>
        <time>2010-01-01T01:45:40Z</time>
      </trkpt>
      <trkpt lat="46.2111" lon="6.85345">
        <ele>1739</ele>
        <time>2010-01-01T01:45:42Z</time>
      </trkpt>
      <trkpt lat="46.2111" lon="6.85345">
        <ele>1739</ele>
        <time>2010-01-01T01:45:42Z</time>
      </trkpt>
      <trkpt lat="46.21114" lon="6.85356">
        <ele>1739</ele>
        <time>2010-01-01T01:45:45Z</time>
      </trkpt>
      <trkpt lat="46.21114" lon="6.85357">
        <ele>1739</ele>
        <time>2010-01-01T01:45:46Z</time>
      </trkpt>
      <trkpt lat="46.21114" lon="6.85359">
        <ele>1739</ele>
        <time>2010-01-01T01:45:46Z</time>
      </trkpt>
      <trkpt lat="46.21121" lon="6.85383">
        <ele>1738</ele>
        <time>2010-01-01T01:45:54Z</time>
      </trkpt>
      <trkpt lat="46.21125" lon="6.85397">
        <ele>1738</ele>
        <time>2010-01-01T01:45:58Z</time>
      </trkpt>
      <trkpt lat="46.21126" lon="6.85398">
        <ele>1738</ele>
        <time>2010-01-01T01:45:58Z</time>
      </trkpt>
      <trkpt lat="46.21129" lon="6.85412">
        <ele>1738</ele>
        <time>2010-01-01T01:46:02Z</time>
      </trkpt>
      <trkpt lat="46.21133" lon="6.85423">
        <ele>1730</ele>
        <time>2010-01-01T01:46:05Z</time>
      </trkpt>
      <trkpt lat="46.21136" lon="6.85432">
        <ele>1730</ele>
        <time>2010-01-01T01:46:08Z</time>
      </trkpt>
      <trkpt lat="46.21137" lon="6.85433">
        <ele>1730</ele>
        <time>2010-01-01T01:46:09Z</time>
      </trkpt>
      <trkpt lat="46.21137" lon="6.85447">
        <ele>1729</ele>
        <time>2010-01-01T01:46:13Z</time>
      </trkpt>
      <trkpt lat="46.21133" lon="6.85465">
        <ele>1727</ele>
        <time>2010-01-01T01:46:18Z</time>
      </trkpt>
      <trkpt lat="46.21122" lon="6.8547">
        <ele>1725</ele>
        <time>2010-01-01T01:46:22Z</time>
      </trkpt>
      <trkpt lat="46.21109" lon="6.85482">
        <ele>1722</ele>
        <time>2010-01-01T01:46:29Z</time>
      </trkpt>
      <trkpt lat="46.21082" lon="6.85508">
        <ele>1712</ele>
        <time>2010-01-01T01:46:42Z</time>
      </trkpt>
      <trkpt lat="46.21055" lon="6.85533">
        <ele>1709</ele>
        <time>2010-01-01T01:46:54Z</time>
      </trkpt>
      <trkpt lat="46.20985" lon="6.85598">
        <ele>1703</ele>
        <time>2010-01-01T01:47:28Z</time>
      </trkpt>
      <trkpt lat="46.2097" lon="6.85621">
        <ele>1702</ele>
        <time>2010-01-01T01:47:36Z</time>
      </trkpt>
      <trkpt lat="46.20957" lon="6.85642">
        <ele>1701</ele>
        <time>2010-01-01T01:47:44Z</time>
      </trkpt>
      <trkpt lat="46.20948" lon="6.85651">
        <ele>1700</ele>
        <time>2010-01-01T01:47:49Z</time>
      </trkpt>
      <trkpt lat="46.20923" lon="6.8567">
        <ele>1697</ele>
        <time>2010-01-01T01:48:00Z</time>
      </trkpt>
      <trkpt lat="46.20906" lon="6.85675">
        <ele>1697</ele>
        <time>2010-01-01T01:48:07Z</time>
      </trkpt>
      <trkpt lat="46.20885" lon="6.85671">
        <ele>1697</ele>
        <time>2010-01-01T01:48:15Z</time>
      </trkpt>
      <trkpt lat="46.20869" lon="6.85646">
        <ele>1697</ele>
        <time>2010-01-01T01:48:25Z</time>
      </trkpt>
      <trkpt lat="46.20862" lon="6.85637">
        <ele>1697</ele>
        <time>2010-01-01T01:48:29Z</time>
      </trkpt>
      <trkpt lat="46.20849" lon="6.85632">
        <ele>1697</ele>
        <time>2010-01-01T01:48:34Z</time>
      </trkpt>
      <trkpt lat="46.20848" lon="6.85633">
        <ele>1697</ele>
        <time>2010-01-01T01:48:34Z</time>
      </trkpt>
      <trkpt lat="46.20833" lon="6.85641">
        <ele>1705</ele>
        <time>2010-01-01T01:48:41Z</time>
      </trkpt>
      <trkpt lat="46.20819" lon="6.85665">
        <ele>1703</ele>
        <time>2010-01-01T01:48:49Z</time>
      </trkpt>
      <trkpt lat="46.20769" lon="6.85737">
        <ele>1704</ele>
        <time>2010-01-01T01:49:18Z</time>
      </trkpt>
      <trkpt lat="46.20752" lon="6.85753">
        <ele>1704</ele>
        <time>2010-01-01T01:49:26Z</time>
      </trkpt>
      <trkpt lat="46.20728" lon="6.85762">
        <ele>1705</ele>
        <time>2010-01-01T01:49:36Z</time>
      </trkpt>
      <trkpt lat="46.20713" lon="6.85764">
        <ele>1705</ele>
        <time>2010-01-01T01:49:42Z</time>
      </trkpt>
      <trkpt lat="46.20685" lon="6.85783">
        <ele>1706</ele>
        <time>2010-01-01T01:49:54Z</time>
      </trkpt>
      <trkpt lat="46.20668" lon="6.85804">
        <ele>1704</ele>
        <time>2010-01-01T01:50:03Z</time>
      </trkpt>
      <trkpt lat="46.20667" lon="6.85806">
        <ele>1704</ele>
        <time>2010-01-01T01:50:04Z</time>
      </trkpt>
      <trkpt lat="46.20657" lon="6.85828">
        <ele>1705</ele>
        <time>2010-01-01T01:50:11Z</time>
      </trkpt>
      <trkpt lat="46.20645" lon="6.85844">
        <ele>1697</ele>
        <time>2010-01-01T01:50:18Z</time>
      </trkpt>
      <trkpt lat="46.20632" lon="6.85846">
        <ele>1696</ele>
        <time>2010-01-01T01:50:23Z</time>
      </trkpt>
      <trkpt lat="46.20616" lon="6.85844">
        <ele>1697</ele>
        <time>2010-01-01T01:50:29Z</time>
      </trkpt>
      <trkpt lat="46.20605" lon="6.85844">
        <ele>1698</ele>
        <time>2010-01-01T01:50:34Z</time>
      </trkpt>
      <trkpt lat="46.20581" lon="6.85833">
        <ele>1704</ele>
        <time>2010-01-01T01:50:44Z</time>
      </trkpt>
      <trkpt lat="46.2057" lon="6.85832">
        <ele>1707</ele>
        <time>2010-01-01T01:50:48Z</time>
      </trkpt>
      <trkpt lat="46.20556" lon="6.85827">
        <ele>1708</ele>
        <time>2010-01-01T01:50:54Z</time>
      </trkpt>
      <trkpt lat="46.20547" lon="6.85829">
        <ele>1708</ele>
        <time>2010-01-01T01:50:58Z</time>
      </trkpt>
      <trkpt lat="46.20534" lon="6.85832">
        <ele>1707</ele>
        <time>2010-01-01T01:51:03Z</time>
      </trkpt>
      <trkpt lat="46.20523" lon="6.85837">
        <ele>1694</ele>
        <time>2010-01-01T01:51:07Z</time>
      </trkpt>
      <trkpt lat="46.20517" lon="6.85837">
        <ele>1694</ele>
        <time>2010-01-01T01:51:10Z</time>
      </trkpt>
      <trkpt lat="46.20513" lon="6.85833">
        <ele>1703</ele>
        <time>2010-01-01T01:51:12Z</time>
      </trkpt>
      <trkpt lat="46.20509" lon="6.8583">
        <ele>1702</ele>
        <time>2010-01-01T01:51:13Z</time>
      </trkpt>
      <trkpt lat="46.20503" lon="6.85824">
        <ele>1702</ele>
        <time>2010-01-01T01:51:17Z</time>
      </trkpt>
      <trkpt lat="46.20503" lon="6.85833">
        <ele>1699</ele>
        <time>2010-01-01T01:51:19Z</time>
      </trkpt>
      <trkpt lat="46.20503" lon="6.85843">
        <ele>1695</ele>
        <time>2010-01-01T01:51:22Z</time>
      </trkpt>
      <trkpt lat="46.20506" lon="6.85852">
        <ele>1693</ele>
        <time>2010-01-01T01:51:25Z</time>
      </trkpt>
      <trkpt lat="46.20514" lon="6.85859">
        <ele>1692</ele>
        <time>2010-01-01T01:51:28Z</time>
      </trkpt>
      <trkpt lat="46.20521" lon="6.85864">
        <ele>1691</ele>
        <time>2010-01-01T01:51:32Z</time>
      </trkpt>
      <trkpt lat="46.20533" lon="6.85864">
        <ele>1691</ele>
        <time>2010-01-01T01:51:36Z</time>
      </trkpt>
      <trkpt lat="46.20543" lon="6.85863">
        <ele>1692</ele>
        <time>2010-01-01T01:51:41Z</time>
      </trkpt>
      <trkpt lat="46.20551" lon="6.85868">
        <ele>1692</ele>
        <time>2010-01-01T01:51:44Z</time>
      </trkpt>
      <trkpt lat="46.20565" lon="6.85871">
        <ele>1692</ele>
        <time>2010-01-01T01:51:50Z</time>
      </trkpt>
      <trkpt lat="46.20581" lon="6.85881">
        <ele>1691</ele>
        <time>2010-01-01T01:51:57Z</time>
      </trkpt>
      <trkpt lat="46.20592" lon="6.85899">
        <ele>1689</ele>
        <time>2010-01-01T01:52:03Z</time>
      </trkpt>
      <trkpt lat="46.20592" lon="6.85898">
        <ele>1689</ele>
        <time>2010-01-01T01:52:03Z</time>
      </trkpt>
      <trkpt lat="46.20607" lon="6.85906">
        <ele>1690</ele>
        <time>2010-01-01T01:52:10Z</time>
      </trkpt>
      <trkpt lat="46.20622" lon="6.85912">
        <ele>1690</ele>
        <time>2010-01-01T01:52:16Z</time>
      </trkpt>
      <trkpt lat="46.20624" lon="6.85914">
        <ele>1689</ele>
        <time>2010-01-01T01:52:17Z</time>
      </trkpt>
      <trkpt lat="46.20652" lon="6.85928">
        <ele>1678</ele>
        <time>2010-01-01T01:52:29Z</time>
      </trkpt>
      <trkpt lat="46.20694" lon="6.85937">
        <ele>1675</ele>
        <time>2010-01-01T01:52:46Z</time>
      </trkpt>
      <trkpt lat="46.20731" lon="6.85952">
        <ele>1673</ele>
        <time>2010-01-01T01:53:01Z</time>
      </trkpt>
      <trkpt lat="46.20745" lon="6.85965">
        <ele>1671</ele>
        <time>2010-01-01T01:53:08Z</time>
      </trkpt>
      <trkpt lat="46.20746" lon="6.85975">
        <ele>1669</ele>
        <time>2010-01-01T01:53:10Z</time>
      </trkpt>
      <trkpt lat="46.20742" lon="6.85985">
        <ele>1667</ele>
        <time>2010-01-01T01:53:13Z</time>
      </trkpt>
      <trkpt lat="46.20727" lon="6.86004">
        <ele>1659</ele>
        <time>2010-01-01T01:53:22Z</time>
      </trkpt>
      <trkpt lat="46.20705" lon="6.86021">
        <ele>1658</ele>
        <time>2010-01-01T01:53:32Z</time>
      </trkpt>
      <trkpt lat="46.2069" lon="6.86012">
        <ele>1659</ele>
        <time>2010-01-01T01:53:38Z</time>
      </trkpt>
      <trkpt lat="46.20679" lon="6.85998">
        <ele>1668</ele>
        <time>2010-01-01T01:53:44Z</time>
      </trkpt>
      <trkpt lat="46.20676" lon="6.85984">
        <ele>1669</ele>
        <time>2010-01-01T01:53:48Z</time>
      </trkpt>
      <trkpt lat="46.20676" lon="6.85999">
        <ele>1667</ele>
        <time>2010-01-01T01:53:52Z</time>
      </trkpt>
      <trkpt lat="46.20668" lon="6.86">
        <ele>1665</ele>
        <time>2010-01-01T01:53:55Z</time>
      </trkpt>
      <trkpt lat="46.20665" lon="6.85992">
        <ele>1668</ele>
        <time>2010-01-01T01:53:58Z</time>
      </trkpt>
      <trkpt lat="46.20648" lon="6.85891">
        <ele>1690</ele>
        <time>2010-01-01T01:54:27Z</time>
      </trkpt>
      <trkpt lat="46.20653" lon="6.85892">
        <ele>1690</ele>
        <time>2010-01-01T01:54:28Z</time>
      </trkpt>
      <trkpt lat="46.20642" lon="6.85852">
        <ele>1696</ele>
        <time>2010-01-01T01:54:40Z</time>
      </trkpt>
      <trkpt lat="46.20638" lon="6.85824">
        <ele>1707</ele>
        <time>2010-01-01T01:54:48Z</time>
      </trkpt>
      <trkpt lat="46.20631" lon="6.85791">
        <ele>1710</ele>
        <time>2010-01-01T01:54:58Z</time>
      </trkpt>
      <trkpt lat="46.20625" lon="6.85753">
        <ele>1712</ele>
        <time>2010-01-01T01:55:09Z</time>
      </trkpt>
      <trkpt lat="46.20616" lon="6.85704">
        <ele>1728</ele>
        <time>2010-01-01T01:55:23Z</time>
      </trkpt>
      <trkpt lat="46.20612" lon="6.85678">
        <ele>1732</ele>
        <time>2010-01-01T01:55:30Z</time>
      </trkpt>
      <trkpt lat="46.20595" lon="6.85577">
        <ele>1777</ele>
        <time>2010-01-01T01:55:59Z</time>
      </trkpt>
      <trkpt lat="46.20583" lon="6.85509">
        <ele>1802</ele>
        <time>2010-01-01T01:56:18Z</time>
      </trkpt>
      <trkpt lat="46.2058" lon="6.85491">
        <ele>1810</ele>
        <time>2010-01-01T01:56:23Z</time>
      </trkpt>
      <trkpt lat="46.20577" lon="6.85473">
        <ele>1816</ele>
        <time>2010-01-01T01:56:28Z</time>
      </trkpt>
      <trkpt lat="46.20575" lon="6.85454">
        <ele>1820</ele>
        <time>2010-01-01T01:56:34Z</time>
      </trkpt>
      <trkpt lat="46.20573" lon="6.8544">
        <ele>1822</ele>
        <time>2010-01-01T01:56:38Z</time>
      </trkpt>
      <trkpt lat="46.20569" lon="6.85423">
        <ele>1823</ele>
        <time>2010-01-01T01:56:43Z</time>
      </trkpt>
      <trkpt lat="46.20568" lon="6.85414">
        <ele>1832</ele>
        <time>2010-01-01T01:56:45Z</time>
      </trkpt>
      <trkpt lat="46.20565" lon="6.85394">
        <ele>1835</ele>
        <time>2010-01-01T01:56:51Z</time>
      </trkpt>
      <trkpt lat="46.20563" lon="6.85381">
        <ele>1838</ele>
        <time>2010-01-01T01:56:55Z</time>
      </trkpt>
      <trkpt lat="46.20563" lon="6.85381">
        <ele>1838</ele>
        <time>2010-01-01T01:56:55Z</time>
      </trkpt>
      <trkpt lat="46.20561" lon="6.85366">
        <ele>1840</ele>
        <time>2010-01-01T01:56:59Z</time>
      </trkpt>
      <trkpt lat="46.20559" lon="6.85358">
        <ele>1841</ele>
        <time>2010-01-01T01:57:01Z</time>
      </trkpt>
      <trkpt lat="46.20557" lon="6.85349">
        <ele>1842</ele>
        <time>2010-01-01T01:57:04Z</time>
      </trkpt>
      <trkpt lat="46.20554" lon="6.85334">
        <ele>1843</ele>
        <time>2010-01-01T01:57:08Z</time>
      </trkpt>
      <trkpt lat="46.2055" lon="6.85318">
        <ele>1857</ele>
        <time>2010-01-01T01:57:13Z</time>
      </trkpt>
      <trkpt lat="46.20545" lon="6.85291">
        <ele>1862</ele>
        <time>2010-01-01T01:57:21Z</time>
      </trkpt>
      <trkpt lat="46.20538" lon="6.85246">
        <ele>1886</ele>
        <time>2010-01-01T01:57:33Z</time>
      </trkpt>
      <trkpt lat="46.20524" lon="6.85163">
        <ele>1922</ele>
        <time>2010-01-01T01:57:57Z</time>
      </trkpt>
      <trkpt lat="46.20506" lon="6.85055">
        <ele>1958</ele>
        <time>2010-01-01T01:58:28Z</time>
      </trkpt>
      <trkpt lat="46.2048" lon="6.84891">
        <ele>1996</ele>
        <time>2010-01-01T01:59:14Z</time>
      </trkpt>
      <trkpt lat="46.20466" lon="6.84808">
        <ele>2004</ele>
        <time>2010-01-01T01:59:38Z</time>
      </trkpt>
      <trkpt lat="46.20433" lon="6.84707">
        <ele>2007</ele>
        <time>2010-01-01T02:00:09Z</time>
      </trkpt>
      <trkpt lat="46.20364" lon="6.84621">
        <ele>2014</ele>
        <time>2010-01-01T02:00:45Z</time>
      </trkpt>
      <trkpt lat="46.20251" lon="6.84524">
        <ele>2008</ele>
        <time>2010-01-01T02:01:38Z</time>
      </trkpt>
      <trkpt lat="46.20227" lon="6.84499">
        <ele>2011</ele>
        <time>2010-01-01T02:01:50Z</time>
      </trkpt>
      <trkpt lat="46.20207" lon="6.84481">
        <ele>2011</ele>
        <time>2010-01-01T02:01:59Z</time>
      </trkpt>
      <trkpt lat="46.20189" lon="6.84467">
        <ele>2013</ele>
        <time>2010-01-01T02:02:07Z</time>
      </trkpt>
      <trkpt lat="46.20177" lon="6.84455">
        <ele>2014</ele>
        <time>2010-01-01T02:02:13Z</time>
      </trkpt>
      <trkpt lat="46.20167" lon="6.84441">
        <ele>2018</ele>
        <time>2010-01-01T02:02:19Z</time>
      </trkpt>
      <trkpt lat="46.20167" lon="6.8444">
        <ele>2021</ele>
        <time>2010-01-01T02:02:19Z</time>
      </trkpt>
      <trkpt lat="46.20159" lon="6.84431">
        <ele>2023</ele>
        <time>2010-01-01T02:02:23Z</time>
      </trkpt>
      <trkpt lat="46.20158" lon="6.8443">
        <ele>2023</ele>
        <time>2010-01-01T02:02:24Z</time>
      </trkpt>
      <trkpt lat="46.20146" lon="6.84423">
        <ele>2022</ele>
        <time>2010-01-01T02:02:29Z</time>
      </trkpt>
      <trkpt lat="46.20125" lon="6.84419">
        <ele>2021</ele>
        <time>2010-01-01T02:02:37Z</time>
      </trkpt>
      <trkpt lat="46.20105" lon="6.84414">
        <ele>2033</ele>
        <time>2010-01-01T02:02:45Z</time>
      </trkpt>
      <trkpt lat="46.20095" lon="6.8441">
        <ele>2033</ele>
        <time>2010-01-01T02:02:49Z</time>
      </trkpt>
      <trkpt lat="46.20084" lon="6.84403">
        <ele>2034</ele>
        <time>2010-01-01T02:02:55Z</time>
      </trkpt>
      <trkpt lat="46.20075" lon="6.84396">
        <ele>2039</ele>
        <time>2010-01-01T02:02:59Z</time>
      </trkpt>
      <trkpt lat="46.20058" lon="6.84385">
        <ele>2042</ele>
        <time>2010-01-01T02:03:06Z</time>
      </trkpt>
      <trkpt lat="46.20054" lon="6.84381">
        <ele>2043</ele>
        <time>2010-01-01T02:03:08Z</time>
      </trkpt>
      <trkpt lat="46.20049" lon="6.84385">
        <ele>2043</ele>
        <time>2010-01-01T02:03:10Z</time>
      </trkpt>
      <trkpt lat="46.20047" lon="6.84391">
        <ele>2042</ele>
        <time>2010-01-01T02:03:12Z</time>
      </trkpt>
      <trkpt lat="46.20043" lon="6.84393">
        <ele>2041</ele>
        <time>2010-01-01T02:03:14Z</time>
      </trkpt>
      <trkpt lat="46.20038" lon="6.84396">
        <ele>2041</ele>
        <time>2010-01-01T02:03:16Z</time>
      </trkpt>
      <trkpt lat="46.2003" lon="6.84397">
        <ele>2040</ele>
        <time>2010-01-01T02:03:19Z</time>
      </trkpt>
      <trkpt lat="46.20025" lon="6.84397">
        <ele>2040</ele>
        <time>2010-01-01T02:03:21Z</time>
      </trkpt>
      <trkpt lat="46.20019" lon="6.84397">
        <ele>2039</ele>
        <time>2010-01-01T02:03:23Z</time>
      </trkpt>
      <trkpt lat="46.20012" lon="6.84398">
        <ele>2038</ele>
        <time>2010-01-01T02:03:26Z</time>
      </trkpt>
      <trkpt lat="46.2" lon="6.84396">
        <ele>2038</ele>
        <time>2010-01-01T02:03:31Z</time>
      </trkpt>
      <trkpt lat="46.19992" lon="6.84392">
        <ele>2034</ele>
        <time>2010-01-01T02:03:34Z</time>
      </trkpt>
      <trkpt lat="46.19991" lon="6.84392">
        <ele>2034</ele>
        <time>2010-01-01T02:03:35Z</time>
      </trkpt>
      <trkpt lat="46.19983" lon="6.8438">
        <ele>2036</ele>
        <time>2010-01-01T02:03:39Z</time>
      </trkpt>
      <trkpt lat="46.19975" lon="6.84372">
        <ele>2038</ele>
        <time>2010-01-01T02:03:43Z</time>
      </trkpt>
      <trkpt lat="46.19956" lon="6.84356">
        <ele>2038</ele>
        <time>2010-01-01T02:03:52Z</time>
      </trkpt>
      <trkpt lat="46.19927" lon="6.84339">
        <ele>2040</ele>
        <time>2010-01-01T02:04:04Z</time>
      </trkpt>
      <trkpt lat="46.19921" lon="6.84326">
        <ele>2049</ele>
        <time>2010-01-01T02:04:09Z</time>
      </trkpt>
      <trkpt lat="46.19913" lon="6.84314">
        <ele>2044</ele>
        <time>2010-01-01T02:04:13Z</time>
      </trkpt>
      <trkpt lat="46.19908" lon="6.843">
        <ele>2046</ele>
        <time>2010-01-01T02:04:18Z</time>
      </trkpt>
      <trkpt lat="46.19904" lon="6.84292">
        <ele>2047</ele>
        <time>2010-01-01T02:04:20Z</time>
      </trkpt>
      <trkpt lat="46.19901" lon="6.84284">
        <ele>2049</ele>
        <time>2010-01-01T02:04:23Z</time>
      </trkpt>
      <trkpt lat="46.19858" lon="6.84259">
        <ele>2047</ele>
        <time>2010-01-01T02:04:41Z</time>
      </trkpt>
      <trkpt lat="46.19833" lon="6.84245">
        <ele>2052</ele>
        <time>2010-01-01T02:04:52Z</time>
      </trkpt>
      <trkpt lat="46.19821" lon="6.84247">
        <ele>2053</ele>
        <time>2010-01-01T02:04:57Z</time>
      </trkpt>
      <trkpt lat="46.19793" lon="6.84231">
        <ele>2054</ele>
        <time>2010-01-01T02:05:09Z</time>
      </trkpt>
      <trkpt lat="46.19767" lon="6.84234">
        <ele>2048</ele>
        <time>2010-01-01T02:05:20Z</time>
      </trkpt>
      <trkpt lat="46.1974" lon="6.84242">
        <ele>2034</ele>
        <time>2010-01-01T02:05:31Z</time>
      </trkpt>
      <trkpt lat="46.19719" lon="6.8424">
        <ele>2032</ele>
        <time>2010-01-01T02:05:39Z</time>
      </trkpt>
      <trkpt lat="46.19711" lon="6.84234">
        <ele>2031</ele>
        <time>2010-01-01T02:05:43Z</time>
      </trkpt>
      <trkpt lat="46.19709" lon="6.84224">
        <ele>2032</ele>
        <time>2010-01-01T02:05:46Z</time>
      </trkpt>
      <trkpt lat="46.19708" lon="6.84206">
        <ele>2034</ele>
        <time>2010-01-01T02:05:50Z</time>
      </trkpt>
      <trkpt lat="46.19688" lon="6.84199">
        <ele>2031</ele>
        <time>2010-01-01T02:05:59Z</time>
      </trkpt>
      <trkpt lat="46.19675" lon="6.84194">
        <ele>2030</ele>
        <time>2010-01-01T02:06:04Z</time>
      </trkpt>
      <trkpt lat="46.19662" lon="6.84209">
        <ele>2013</ele>
        <time>2010-01-01T02:06:11Z</time>
      </trkpt>
      <trkpt lat="46.19645" lon="6.84227">
        <ele>2011</ele>
        <time>2010-01-01T02:06:19Z</time>
      </trkpt>
      <trkpt lat="46.1963" lon="6.84238">
        <ele>2008</ele>
        <time>2010-01-01T02:06:26Z</time>
      </trkpt>
      <trkpt lat="46.19619" lon="6.84246">
        <ele>2006</ele>
        <time>2010-01-01T02:06:31Z</time>
      </trkpt>
      <trkpt lat="46.19618" lon="6.84246">
        <ele>2006</ele>
        <time>2010-01-01T02:06:31Z</time>
      </trkpt>
      <trkpt lat="46.19602" lon="6.84247">
        <ele>2002</ele>
        <time>2010-01-01T02:06:38Z</time>
      </trkpt>
      <trkpt lat="46.19593" lon="6.84242">
        <ele>2000</ele>
        <time>2010-01-01T02:06:42Z</time>
      </trkpt>
      <trkpt lat="46.19585" lon="6.8422">
        <ele>2003</ele>
        <time>2010-01-01T02:06:49Z</time>
      </trkpt>
      <trkpt lat="46.19578" lon="6.84194">
        <ele>1986</ele>
        <time>2010-01-01T02:06:56Z</time>
      </trkpt>
      <trkpt lat="46.19575" lon="6.84174">
        <ele>1991</ele>
        <time>2010-01-01T02:07:02Z</time>
      </trkpt>
      <trkpt lat="46.19572" lon="6.84159">
        <ele>1992</ele>
        <time>2010-01-01T02:07:07Z</time>
      </trkpt>
      <trkpt lat="46.19562" lon="6.84117">
        <ele>1987</ele>
        <time>2010-01-01T02:07:19Z</time>
      </trkpt>
      <trkpt lat="46.19551" lon="6.84064">
        <ele>1987</ele>
        <time>2010-01-01T02:07:34Z</time>
      </trkpt>
      <trkpt lat="46.19549" lon="6.84059">
        <ele>1987</ele>
        <time>2010-01-01T02:07:36Z</time>
      </trkpt>
      <trkpt lat="46.1954" lon="6.83985">
        <ele>1985</ele>
        <time>2010-01-01T02:07:56Z</time>
      </trkpt>
      <trkpt lat="46.19528" lon="6.83928">
        <ele>1980</ele>
        <time>2010-01-01T02:08:13Z</time>
      </trkpt>
      <trkpt lat="46.1953" lon="6.83902">
        <ele>1980</ele>
        <time>2010-01-01T02:08:20Z</time>
      </trkpt>
      <trkpt lat="46.19525" lon="6.83864">
        <ele>1979</ele>
        <time>2010-01-01T02:08:31Z</time>
      </trkpt>
      <trkpt lat="46.19522" lon="6.83847">
        <ele>1977</ele>
        <time>2010-01-01T02:08:36Z</time>
      </trkpt>
      <trkpt lat="46.19518" lon="6.83845">
        <ele>1975</ele>
        <time>2010-01-01T02:08:37Z</time>
      </trkpt>
      <trkpt lat="46.19509" lon="6.83867">
        <ele>1976</ele>
        <time>2010-01-01T02:08:45Z</time>
      </trkpt>
      <trkpt lat="46.19501" lon="6.83886">
        <ele>1975</ele>
        <time>2010-01-01T02:08:51Z</time>
      </trkpt>
      <trkpt lat="46.19493" lon="6.83895">
        <ele>1955</ele>
        <time>2010-01-01T02:08:55Z</time>
      </trkpt>
      <trkpt lat="46.19479" lon="6.83903">
        <ele>1953</ele>
        <time>2010-01-01T02:09:01Z</time>
      </trkpt>
      <trkpt lat="46.19472" lon="6.83913">
        <ele>1952</ele>
        <time>2010-01-01T02:09:05Z</time>
      </trkpt>
      <trkpt lat="46.19466" lon="6.83932">
        <ele>1951</ele>
        <time>2010-01-01T02:09:11Z</time>
      </trkpt>
      <trkpt lat="46.1946" lon="6.83959">
        <ele>1950</ele>
        <time>2010-01-01T02:09:18Z</time>
      </trkpt>
      <trkpt lat="46.19449" lon="6.83977">
        <ele>1948</ele>
        <time>2010-01-01T02:09:25Z</time>
      </trkpt>
      <trkpt lat="46.19435" lon="6.83976">
        <ele>1946</ele>
        <time>2010-01-01T02:09:31Z</time>
      </trkpt>
      <trkpt lat="46.19424" lon="6.83961">
        <ele>1946</ele>
        <time>2010-01-01T02:09:37Z</time>
      </trkpt>
      <trkpt lat="46.19388" lon="6.83876">
        <ele>1925</ele>
        <time>2010-01-01T02:10:04Z</time>
      </trkpt>
      <trkpt lat="46.19372" lon="6.83847">
        <ele>1922</ele>
        <time>2010-01-01T02:10:15Z</time>
      </trkpt>
      <trkpt lat="46.19355" lon="6.83815">
        <ele>1916</ele>
        <time>2010-01-01T02:10:26Z</time>
      </trkpt>
      <trkpt lat="46.19349" lon="6.83779">
        <ele>1914</ele>
        <time>2010-01-01T02:10:36Z</time>
      </trkpt>
      <trkpt lat="46.1937" lon="6.83732">
        <ele>1911</ele>
        <time>2010-01-01T02:10:52Z</time>
      </trkpt>
      <trkpt lat="46.19384" lon="6.83705">
        <ele>1912</ele>
        <time>2010-01-01T02:11:01Z</time>
      </trkpt>
      <trkpt lat="46.19384" lon="6.83685">
        <ele>1912</ele>
        <time>2010-01-01T02:11:07Z</time>
      </trkpt>
      <trkpt lat="46.19376" lon="6.83675">
        <ele>1910</ele>
        <time>2010-01-01T02:11:11Z</time>
      </trkpt>
      <trkpt lat="46.19352" lon="6.83694">
        <ele>1907</ele>
        <time>2010-01-01T02:11:22Z</time>
      </trkpt>
      <trkpt lat="46.19326" lon="6.83716">
        <ele>1892</ele>
        <time>2010-01-01T02:11:34Z</time>
      </trkpt>
      <trkpt lat="46.19297" lon="6.83733">
        <ele>1889</ele>
        <time>2010-01-01T02:11:46Z</time>
      </trkpt>
      <trkpt lat="46.19293" lon="6.83746">
        <ele>1889</ele>
        <time>2010-01-01T02:11:50Z</time>
      </trkpt>
      <trkpt lat="46.19292" lon="6.83749">
        <ele>1889</ele>
        <time>2010-01-01T02:11:51Z</time>
      </trkpt>
      <trkpt lat="46.19285" lon="6.83779">
        <ele>1891</ele>
        <time>2010-01-01T02:12:00Z</time>
      </trkpt>
      <trkpt lat="46.19284" lon="6.83783">
        <ele>1891</ele>
        <time>2010-01-01T02:12:01Z</time>
      </trkpt>
      <trkpt lat="46.1928" lon="6.83811">
        <ele>1890</ele>
        <time>2010-01-01T02:12:09Z</time>
      </trkpt>
      <trkpt lat="46.19264" lon="6.83828">
        <ele>1885</ele>
        <time>2010-01-01T02:12:17Z</time>
      </trkpt>
      <trkpt lat="46.19246" lon="6.83825">
        <ele>1874</ele>
        <time>2010-01-01T02:12:24Z</time>
      </trkpt>
      <trkpt lat="46.19246" lon="6.83824">
        <ele>1873</ele>
        <time>2010-01-01T02:12:25Z</time>
      </trkpt>
      <trkpt lat="46.19224" lon="6.83803">
        <ele>1866</ele>
        <time>2010-01-01T02:12:35Z</time>
      </trkpt>
      <trkpt lat="46.19222" lon="6.83776">
        <ele>1865</ele>
        <time>2010-01-01T02:12:43Z</time>
      </trkpt>
      <trkpt lat="46.19223" lon="6.83706">
        <ele>1862</ele>
        <time>2010-01-01T02:13:02Z</time>
      </trkpt>
      <trkpt lat="46.19229" lon="6.836">
        <ele>1857</ele>
        <time>2010-01-01T02:13:32Z</time>
      </trkpt>
      <trkpt lat="46.19233" lon="6.83568">
        <ele>1854</ele>
        <time>2010-01-01T02:13:40Z</time>
      </trkpt>
      <trkpt lat="46.19229" lon="6.83555">
        <ele>1852</ele>
        <time>2010-01-01T02:13:44Z</time>
      </trkpt>
      <trkpt lat="46.1921" lon="6.83563">
        <ele>1850</ele>
        <time>2010-01-01T02:13:52Z</time>
      </trkpt>
      <trkpt lat="46.19193" lon="6.83564">
        <ele>1848</ele>
        <time>2010-01-01T02:13:59Z</time>
      </trkpt>
      <trkpt lat="46.19173" lon="6.83566">
        <ele>1846</ele>
        <time>2010-01-01T02:14:07Z</time>
      </trkpt>
      <trkpt lat="46.19148" lon="6.83565">
        <ele>1839</ele>
        <time>2010-01-01T02:14:17Z</time>
      </trkpt>
      <trkpt lat="46.19124" lon="6.83563">
        <ele>1837</ele>
        <time>2010-01-01T02:14:27Z</time>
      </trkpt>
      <trkpt lat="46.19108" lon="6.83573">
        <ele>1835</ele>
        <time>2010-01-01T02:14:34Z</time>
      </trkpt>
      <trkpt lat="46.19086" lon="6.8361">
        <ele>1831</ele>
        <time>2010-01-01T02:14:47Z</time>
      </trkpt>
      <trkpt lat="46.19064" lon="6.83645">
        <ele>1818</ele>
        <time>2010-01-01T02:15:01Z</time>
      </trkpt>
      <trkpt lat="46.19049" lon="6.8366">
        <ele>1816</ele>
        <time>2010-01-01T02:15:08Z</time>
      </trkpt>
      <trkpt lat="46.19033" lon="6.83643">
        <ele>1815</ele>
        <time>2010-01-01T02:15:16Z</time>
      </trkpt>
      <trkpt lat="46.19015" lon="6.83621">
        <ele>1815</ele>
        <time>2010-01-01T02:15:25Z</time>
      </trkpt>
      <trkpt lat="46.18998" lon="6.83611">
        <ele>1804</ele>
        <time>2010-01-01T02:15:33Z</time>
      </trkpt>
      <trkpt lat="46.18978" lon="6.83599">
        <ele>1803</ele>
        <time>2010-01-01T02:15:41Z</time>
      </trkpt>
      <trkpt lat="46.18976" lon="6.83596">
        <ele>1803</ele>
        <time>2010-01-01T02:15:43Z</time>
      </trkpt>
      <trkpt lat="46.18967" lon="6.83528">
        <ele>1811</ele>
        <time>2010-01-01T02:16:01Z</time>
      </trkpt>
      <trkpt lat="46.18959" lon="6.83492">
        <ele>1819</ele>
        <time>2010-01-01T02:16:12Z</time>
      </trkpt>
      <trkpt lat="46.18945" lon="6.83466">
        <ele>1818</ele>
        <time>2010-01-01T02:16:21Z</time>
      </trkpt>
      <trkpt lat="46.18924" lon="6.8345">
        <ele>1818</ele>
        <time>2010-01-01T02:16:31Z</time>
      </trkpt>
      <trkpt lat="46.18908" lon="6.83434">
        <ele>1806</ele>
        <time>2010-01-01T02:16:38Z</time>
      </trkpt>
      <trkpt lat="46.18891" lon="6.83415">
        <ele>1813</ele>
        <time>2010-01-01T02:16:47Z</time>
      </trkpt>
      <trkpt lat="46.18864" lon="6.83391">
        <ele>1808</ele>
        <time>2010-01-01T02:17:00Z</time>
      </trkpt>
      <trkpt lat="46.18855" lon="6.83375">
        <ele>1808</ele>
        <time>2010-01-01T02:17:05Z</time>
      </trkpt>
      <trkpt lat="46.18841" lon="6.83329">
        <ele>1810</ele>
        <time>2010-01-01T02:17:19Z</time>
      </trkpt>
      <trkpt lat="46.18817" lon="6.83247">
        <ele>1813</ele>
        <time>2010-01-01T02:17:44Z</time>
      </trkpt>
      <trkpt lat="46.18794" lon="6.83227">
        <ele>1809</ele>
        <time>2010-01-01T02:17:55Z</time>
      </trkpt>
      <trkpt lat="46.18774" lon="6.83216">
        <ele>1807</ele>
        <time>2010-01-01T02:18:03Z</time>
      </trkpt>
      <trkpt lat="46.1876" lon="6.83163">
        <ele>1812</ele>
        <time>2010-01-01T02:18:19Z</time>
      </trkpt>
      <trkpt lat="46.18758" lon="6.8316">
        <ele>1811</ele>
        <time>2010-01-01T02:18:20Z</time>
      </trkpt>
      <trkpt lat="46.18741" lon="6.83138">
        <ele>1800</ele>
        <time>2010-01-01T02:18:29Z</time>
      </trkpt>
      <trkpt lat="46.18733" lon="6.83092">
        <ele>1805</ele>
        <time>2010-01-01T02:18:43Z</time>
      </trkpt>
      <trkpt lat="46.18731" lon="6.8304">
        <ele>1810</ele>
        <time>2010-01-01T02:18:57Z</time>
      </trkpt>
      <trkpt lat="46.18731" lon="6.83021">
        <ele>1813</ele>
        <time>2010-01-01T02:19:02Z</time>
      </trkpt>
      <trkpt lat="46.1872" lon="6.82993">
        <ele>1817</ele>
        <time>2010-01-01T02:19:11Z</time>
      </trkpt>
      <trkpt lat="46.18712" lon="6.82927">
        <ele>1818</ele>
        <time>2010-01-01T02:19:30Z</time>
      </trkpt>
      <trkpt lat="46.18714" lon="6.82875">
        <ele>1823</ele>
        <time>2010-01-01T02:19:44Z</time>
      </trkpt>
      <trkpt lat="46.18711" lon="6.8282">
        <ele>1825</ele>
        <time>2010-01-01T02:19:59Z</time>
      </trkpt>
      <trkpt lat="46.1871" lon="6.82748">
        <ele>1830</ele>
        <time>2010-01-01T02:20:19Z</time>
      </trkpt>
      <trkpt lat="46.18708" lon="6.82685">
        <ele>1832</ele>
        <time>2010-01-01T02:20:37Z</time>
      </trkpt>
      <trkpt lat="46.18703" lon="6.82641">
        <ele>1839</ele>
        <time>2010-01-01T02:20:49Z</time>
      </trkpt>
      <trkpt lat="46.18692" lon="6.8261">
        <ele>1840</ele>
        <time>2010-01-01T02:20:59Z</time>
      </trkpt>
      <trkpt lat="46.18669" lon="6.82592">
        <ele>1835</ele>
        <time>2010-01-01T02:21:09Z</time>
      </trkpt>
      <trkpt lat="46.18638" lon="6.8256">
        <ele>1838</ele>
        <time>2010-01-01T02:21:25Z</time>
      </trkpt>
      <trkpt lat="46.18595" lon="6.82538">
        <ele>1839</ele>
        <time>2010-01-01T02:21:43Z</time>
      </trkpt>
      <trkpt lat="46.18498" lon="6.82496">
        <ele>1836</ele>
        <time>2010-01-01T02:22:23Z</time>
      </trkpt>
      <trkpt lat="46.18472" lon="6.82469">
        <ele>1843</ele>
        <time>2010-01-01T02:22:36Z</time>
      </trkpt>
      <trkpt lat="46.18458" lon="6.82446">
        <ele>1845</ele>
        <time>2010-01-01T02:22:45Z</time>
      </trkpt>
      <trkpt lat="46.18449" lon="6.82424">
        <ele>1846</ele>
        <time>2010-01-01T02:22:52Z</time>
      </trkpt>
      <trkpt lat="46.18434" lon="6.82421">
        <ele>1846</ele>
        <time>2010-01-01T02:22:58Z</time>
      </trkpt>
      <trkpt lat="46.18424" lon="6.82438">
        <ele>1844</ele>
        <time>2010-01-01T02:23:04Z</time>
      </trkpt>
      <trkpt lat="46.18415" lon="6.8247">
        <ele>1836</ele>
        <time>2010-01-01T02:23:13Z</time>
      </trkpt>
      <trkpt lat="46.18395" lon="6.82472">
        <ele>1836</ele>
        <time>2010-01-01T02:23:21Z</time>
      </trkpt>
      <trkpt lat="46.1839" lon="6.8247">
        <ele>1837</ele>
        <time>2010-01-01T02:23:24Z</time>
      </trkpt>
      <trkpt lat="46.18404" lon="6.82473">
        <ele>1836</ele>
        <time>2010-01-01T02:23:29Z</time>
      </trkpt>
      <trkpt lat="46.18376" lon="6.82468">
        <ele>1837</ele>
        <time>2010-01-01T02:23:40Z</time>
      </trkpt>
      <trkpt lat="46.18361" lon="6.82451">
        <ele>1839</ele>
        <time>2010-01-01T02:23:48Z</time>
      </trkpt>
      <trkpt lat="46.18337" lon="6.82426">
        <ele>1842</ele>
        <time>2010-01-01T02:24:00Z</time>
      </trkpt>
      <trkpt lat="46.18309" lon="6.82405">
        <ele>1846</ele>
        <time>2010-01-01T02:24:13Z</time>
      </trkpt>
      <trkpt lat="46.18268" lon="6.82379">
        <ele>1847</ele>
        <time>2010-01-01T02:24:31Z</time>
      </trkpt>
      <trkpt lat="46.18245" lon="6.82373">
        <ele>1846</ele>
        <time>2010-01-01T02:24:40Z</time>
      </trkpt>
      <trkpt lat="46.18228" lon="6.82344">
        <ele>1848</ele>
        <time>2010-01-01T02:24:50Z</time>
      </trkpt>
      <trkpt lat="46.18218" lon="6.82326">
        <ele>1857</ele>
        <time>2010-01-01T02:24:57Z</time>
      </trkpt>
      <trkpt lat="46.18204" lon="6.8232">
        <ele>1857</ele>
        <time>2010-01-01T02:25:03Z</time>
      </trkpt>
      <trkpt lat="46.18187" lon="6.8234">
        <ele>1848</ele>
        <time>2010-01-01T02:25:11Z</time>
      </trkpt>
      <trkpt lat="46.1818" lon="6.82359">
        <ele>1846</ele>
        <time>2010-01-01T02:25:17Z</time>
      </trkpt>
      <trkpt lat="46.18166" lon="6.82371">
        <ele>1845</ele>
        <time>2010-01-01T02:25:24Z</time>
      </trkpt>
      <trkpt lat="46.18153" lon="6.82395">
        <ele>1841</ele>
        <time>2010-01-01T02:25:32Z</time>
      </trkpt>
      <trkpt lat="46.18147" lon="6.82417">
        <ele>1833</ele>
        <time>2010-01-01T02:25:39Z</time>
      </trkpt>
      <trkpt lat="46.18128" lon="6.82431">
        <ele>1832</ele>
        <time>2010-01-01T02:25:47Z</time>
      </trkpt>
      <trkpt lat="46.1811" lon="6.82432">
        <ele>1832</ele>
        <time>2010-01-01T02:25:54Z</time>
      </trkpt>
      <trkpt lat="46.1809" lon="6.82437">
        <ele>1833</ele>
        <time>2010-01-01T02:26:02Z</time>
      </trkpt>
      <trkpt lat="46.18065" lon="6.8245">
        <ele>1834</ele>
        <time>2010-01-01T02:26:13Z</time>
      </trkpt>
      <trkpt lat="46.18041" lon="6.8245">
        <ele>1835</ele>
        <time>2010-01-01T02:26:23Z</time>
      </trkpt>
      <trkpt lat="46.18006" lon="6.82475">
        <ele>1833</ele>
        <time>2010-01-01T02:26:38Z</time>
      </trkpt>
      <trkpt lat="46.17979" lon="6.82492">
        <ele>1835</ele>
        <time>2010-01-01T02:26:50Z</time>
      </trkpt>
      <trkpt lat="46.17966" lon="6.82504">
        <ele>1832</ele>
        <time>2010-01-01T02:26:56Z</time>
      </trkpt>
      <trkpt lat="46.17961" lon="6.8253">
        <ele>1831</ele>
        <time>2010-01-01T02:27:04Z</time>
      </trkpt>
      <trkpt lat="46.1795" lon="6.82548">
        <ele>1831</ele>
        <time>2010-01-01T02:27:11Z</time>
      </trkpt>
      <trkpt lat="46.1793" lon="6.82563">
        <ele>1831</ele>
        <time>2010-01-01T02:27:19Z</time>
      </trkpt>
      <trkpt lat="46.17919" lon="6.82558">
        <ele>1831</ele>
        <time>2010-01-01T02:27:24Z</time>
      </trkpt>
      <trkpt lat="46.17911" lon="6.82543">
        <ele>1826</ele>
        <time>2010-01-01T02:27:29Z</time>
      </trkpt>
      <trkpt lat="46.17899" lon="6.82528">
        <ele>1826</ele>
        <time>2010-01-01T02:27:36Z</time>
      </trkpt>
      <trkpt lat="46.17893" lon="6.82507">
        <ele>1826</ele>
        <time>2010-01-01T02:27:42Z</time>
      </trkpt>
      <trkpt lat="46.17893" lon="6.8247">
        <ele>1829</ele>
        <time>2010-01-01T02:27:52Z</time>
      </trkpt>
      <trkpt lat="46.17882" lon="6.82414">
        <ele>1834</ele>
        <time>2010-01-01T02:28:08Z</time>
      </trkpt>
      <trkpt lat="46.1788" lon="6.82392">
        <ele>1834</ele>
        <time>2010-01-01T02:28:14Z</time>
      </trkpt>
      <trkpt lat="46.17877" lon="6.82373">
        <ele>1835</ele>
        <time>2010-01-01T02:28:20Z</time>
      </trkpt>
      <trkpt lat="46.1788" lon="6.82343">
        <ele>1837</ele>
        <time>2010-01-01T02:28:28Z</time>
      </trkpt>
      <trkpt lat="46.17878" lon="6.82311">
        <ele>1845</ele>
        <time>2010-01-01T02:28:37Z</time>
      </trkpt>
      <trkpt lat="46.17864" lon="6.82252">
        <ele>1845</ele>
        <time>2010-01-01T02:28:54Z</time>
      </trkpt>
      <trkpt lat="46.17851" lon="6.82188">
        <ele>1854</ele>
        <time>2010-01-01T02:29:13Z</time>
      </trkpt>
      <trkpt lat="46.17837" lon="6.82153">
        <ele>1855</ele>
        <time>2010-01-01T02:29:24Z</time>
      </trkpt>
      <trkpt lat="46.17828" lon="6.82124">
        <ele>1841</ele>
        <time>2010-01-01T02:29:33Z</time>
      </trkpt>
      <trkpt lat="46.17813" lon="6.82088">
        <ele>1844</ele>
        <time>2010-01-01T02:29:44Z</time>
      </trkpt>
      <trkpt lat="46.17799" lon="6.82067">
        <ele>1845</ele>
        <time>2010-01-01T02:29:53Z</time>
      </trkpt>
      <trkpt lat="46.17795" lon="6.82053">
        <ele>1844</ele>
        <time>2010-01-01T02:29:57Z</time>
      </trkpt>
      <trkpt lat="46.17795" lon="6.82043">
        <ele>1844</ele>
        <time>2010-01-01T02:29:59Z</time>
      </trkpt>
      <trkpt lat="46.17797" lon="6.82029">
        <ele>1845</ele>
        <time>2010-01-01T02:30:03Z</time>
      </trkpt>
      <trkpt lat="46.17796" lon="6.82006">
        <ele>1846</ele>
        <time>2010-01-01T02:30:10Z</time>
      </trkpt>
      <trkpt lat="46.17794" lon="6.81989">
        <ele>1849</ele>
        <time>2010-01-01T02:30:15Z</time>
      </trkpt>
      <trkpt lat="46.17784" lon="6.81953">
        <ele>1847</ele>
        <time>2010-01-01T02:30:25Z</time>
      </trkpt>
      <trkpt lat="46.1778" lon="6.81927">
        <ele>1846</ele>
        <time>2010-01-01T02:30:33Z</time>
      </trkpt>
      <trkpt lat="46.17785" lon="6.81892">
        <ele>1851</ele>
        <time>2010-01-01T02:30:43Z</time>
      </trkpt>
      <trkpt lat="46.17786" lon="6.81871">
        <ele>1852</ele>
        <time>2010-01-01T02:30:48Z</time>
      </trkpt>
      <trkpt lat="46.17778" lon="6.81843">
        <ele>1849</ele>
        <time>2010-01-01T02:30:57Z</time>
      </trkpt>
      <trkpt lat="46.17777" lon="6.81827">
        <ele>1853</ele>
        <time>2010-01-01T02:31:01Z</time>
      </trkpt>
      <trkpt lat="46.17785" lon="6.81799">
        <ele>1858</ele>
        <time>2010-01-01T02:31:09Z</time>
      </trkpt>
      <trkpt lat="46.17788" lon="6.81785">
        <ele>1860</ele>
        <time>2010-01-01T02:31:14Z</time>
      </trkpt>
      <trkpt lat="46.17779" lon="6.81758">
        <ele>1857</ele>
        <time>2010-01-01T02:31:22Z</time>
      </trkpt>
      <trkpt lat="46.17765" lon="6.81729">
        <ele>1859</ele>
        <time>2010-01-01T02:31:32Z</time>
      </trkpt>
      <trkpt lat="46.17746" lon="6.81699">
        <ele>1840</ele>
        <time>2010-01-01T02:31:43Z</time>
      </trkpt>
      <trkpt lat="46.17732" lon="6.81674">
        <ele>1842</ele>
        <time>2010-01-01T02:31:52Z</time>
      </trkpt>
      <trkpt lat="46.17728" lon="6.81646">
        <ele>1843</ele>
        <time>2010-01-01T02:32:00Z</time>
      </trkpt>
      <trkpt lat="46.17735" lon="6.81601">
        <ele>1844</ele>
        <time>2010-01-01T02:32:13Z</time>
      </trkpt>
      <trkpt lat="46.17741" lon="6.81569">
        <ele>1845</ele>
        <time>2010-01-01T02:32:22Z</time>
      </trkpt>
      <trkpt lat="46.17748" lon="6.81513">
        <ele>1845</ele>
        <time>2010-01-01T02:32:38Z</time>
      </trkpt>
      <trkpt lat="46.17751" lon="6.81477">
        <ele>1859</ele>
        <time>2010-01-01T02:32:48Z</time>
      </trkpt>
      <trkpt lat="46.17754" lon="6.81457">
        <ele>1862</ele>
        <time>2010-01-01T02:32:53Z</time>
      </trkpt>
      <trkpt lat="46.17744" lon="6.81434">
        <ele>1848</ele>
        <time>2010-01-01T02:33:01Z</time>
      </trkpt>
      <trkpt lat="46.17733" lon="6.81411">
        <ele>1854</ele>
        <time>2010-01-01T02:33:09Z</time>
      </trkpt>
      <trkpt lat="46.1771" lon="6.81396">
        <ele>1852</ele>
        <time>2010-01-01T02:33:19Z</time>
      </trkpt>
      <trkpt lat="46.17668" lon="6.81371">
        <ele>1850</ele>
        <time>2010-01-01T02:33:37Z</time>
      </trkpt>
      <trkpt lat="46.17635" lon="6.81347">
        <ele>1846</ele>
        <time>2010-01-01T02:33:52Z</time>
      </trkpt>
      <trkpt lat="46.17617" lon="6.81322">
        <ele>1856</ele>
        <time>2010-01-01T02:34:02Z</time>
      </trkpt>
      <trkpt lat="46.17599" lon="6.81315">
        <ele>1855</ele>
        <time>2010-01-01T02:34:09Z</time>
      </trkpt>
      <trkpt lat="46.17576" lon="6.81304">
        <ele>1853</ele>
        <time>2010-01-01T02:34:19Z</time>
      </trkpt>
      <trkpt lat="46.17553" lon="6.81294">
        <ele>1854</ele>
        <time>2010-01-01T02:34:28Z</time>
      </trkpt>
      <trkpt lat="46.17527" lon="6.81293">
        <ele>1853</ele>
        <time>2010-01-01T02:34:39Z</time>
      </trkpt>
      <trkpt lat="46.17504" lon="6.81307">
        <ele>1851</ele>
        <time>2010-01-01T02:34:49Z</time>
      </trkpt>
      <trkpt lat="46.17484" lon="6.81323">
        <ele>1848</ele>
        <time>2010-01-01T02:34:58Z</time>
      </trkpt>
      <trkpt lat="46.1747" lon="6.81348">
        <ele>1842</ele>
        <time>2010-01-01T02:35:07Z</time>
      </trkpt>
      <trkpt lat="46.1745" lon="6.81377">
        <ele>1840</ele>
        <time>2010-01-01T02:35:18Z</time>
      </trkpt>
      <trkpt lat="46.17434" lon="6.81403">
        <ele>1839</ele>
        <time>2010-01-01T02:35:28Z</time>
      </trkpt>
      <trkpt lat="46.17419" lon="6.8143">
        <ele>1834</ele>
        <time>2010-01-01T02:35:37Z</time>
      </trkpt>
      <trkpt lat="46.17402" lon="6.81467">
        <ele>1832</ele>
        <time>2010-01-01T02:35:50Z</time>
      </trkpt>
      <trkpt lat="46.17382" lon="6.81485">
        <ele>1832</ele>
        <time>2010-01-01T02:35:59Z</time>
      </trkpt>
      <trkpt lat="46.17348" lon="6.81511">
        <ele>1828</ele>
        <time>2010-01-01T02:36:15Z</time>
      </trkpt>
      <trkpt lat="46.17327" lon="6.8154">
        <ele>1828</ele>
        <time>2010-01-01T02:36:26Z</time>
      </trkpt>
      <trkpt lat="46.17319" lon="6.81566">
        <ele>1826</ele>
        <time>2010-01-01T02:36:34Z</time>
      </trkpt>
      <trkpt lat="46.17311" lon="6.81589">
        <ele>1820</ele>
        <time>2010-01-01T02:36:41Z</time>
      </trkpt>
      <trkpt lat="46.17295" lon="6.81597">
        <ele>1819</ele>
        <time>2010-01-01T02:36:48Z</time>
      </trkpt>
      <trkpt lat="46.17279" lon="6.81586">
        <ele>1820</ele>
        <time>2010-01-01T02:36:55Z</time>
      </trkpt>
      <trkpt lat="46.17256" lon="6.81585">
        <ele>1824</ele>
        <time>2010-01-01T02:37:05Z</time>
      </trkpt>
      <trkpt lat="46.1723" lon="6.81592">
        <ele>1823</ele>
        <time>2010-01-01T02:37:15Z</time>
      </trkpt>
      <trkpt lat="46.17207" lon="6.81584">
        <ele>1824</ele>
        <time>2010-01-01T02:37:25Z</time>
      </trkpt>
      <trkpt lat="46.17178" lon="6.81576">
        <ele>1830</ele>
        <time>2010-01-01T02:37:36Z</time>
      </trkpt>
      <trkpt lat="46.17162" lon="6.81584">
        <ele>1828</ele>
        <time>2010-01-01T02:37:43Z</time>
      </trkpt>
      <trkpt lat="46.1716" lon="6.81618">
        <ele>1825</ele>
        <time>2010-01-01T02:37:53Z</time>
      </trkpt>
      <trkpt lat="46.17147" lon="6.81636">
        <ele>1824</ele>
        <time>2010-01-01T02:38:00Z</time>
      </trkpt>
      <trkpt lat="46.17134" lon="6.81645">
        <ele>1824</ele>
        <time>2010-01-01T02:38:05Z</time>
      </trkpt>
      <trkpt lat="46.17094" lon="6.81661">
        <ele>1823</ele>
        <time>2010-01-01T02:38:22Z</time>
      </trkpt>
      <trkpt lat="46.17058" lon="6.81675">
        <ele>1818</ele>
        <time>2010-01-01T02:38:37Z</time>
      </trkpt>
      <trkpt lat="46.17033" lon="6.81674">
        <ele>1817</ele>
        <time>2010-01-01T02:38:47Z</time>
      </trkpt>
      <trkpt lat="46.17016" lon="6.8167">
        <ele>1818</ele>
        <time>2010-01-01T02:38:54Z</time>
      </trkpt>
      <trkpt lat="46.17004" lon="6.8165">
        <ele>1823</ele>
        <time>2010-01-01T02:39:01Z</time>
      </trkpt>
      <trkpt lat="46.16981" lon="6.81617">
        <ele>1817</ele>
        <time>2010-01-01T02:39:14Z</time>
      </trkpt>
      <trkpt lat="46.16969" lon="6.81592">
        <ele>1817</ele>
        <time>2010-01-01T02:39:23Z</time>
      </trkpt>
      <trkpt lat="46.16963" lon="6.81566">
        <ele>1821</ele>
        <time>2010-01-01T02:39:30Z</time>
      </trkpt>
      <trkpt lat="46.16968" lon="6.81538">
        <ele>1822</ele>
        <time>2010-01-01T02:39:38Z</time>
      </trkpt>
      <trkpt lat="46.16966" lon="6.81518">
        <ele>1823</ele>
        <time>2010-01-01T02:39:44Z</time>
      </trkpt>
      <trkpt lat="46.16945" lon="6.81467">
        <ele>1828</ele>
        <time>2010-01-01T02:40:01Z</time>
      </trkpt>
      <trkpt lat="46.16913" lon="6.81417">
        <ele>1817</ele>
        <time>2010-01-01T02:40:19Z</time>
      </trkpt>
      <trkpt lat="46.16899" lon="6.81396">
        <ele>1816</ele>
        <time>2010-01-01T02:40:27Z</time>
      </trkpt>
      <trkpt lat="46.16888" lon="6.81372">
        <ele>1815</ele>
        <time>2010-01-01T02:40:35Z</time>
      </trkpt>
      <trkpt lat="46.16883" lon="6.81351">
        <ele>1816</ele>
        <time>2010-01-01T02:40:41Z</time>
      </trkpt>
      <trkpt lat="46.16872" lon="6.81336">
        <ele>1814</ele>
        <time>2010-01-01T02:40:48Z</time>
      </trkpt>
      <trkpt lat="46.16842" lon="6.8129">
        <ele>1819</ele>
        <time>2010-01-01T02:41:05Z</time>
      </trkpt>
      <trkpt lat="46.16826" lon="6.81252">
        <ele>1809</ele>
        <time>2010-01-01T02:41:17Z</time>
      </trkpt>
      <trkpt lat="46.16817" lon="6.81234">
        <ele>1811</ele>
        <time>2010-01-01T02:41:23Z</time>
      </trkpt>
      <trkpt lat="46.16801" lon="6.81232">
        <ele>1809</ele>
        <time>2010-01-01T02:41:30Z</time>
      </trkpt>
      <trkpt lat="46.16786" lon="6.81222">
        <ele>1807</ele>
        <time>2010-01-01T02:41:36Z</time>
      </trkpt>
      <trkpt lat="46.16775" lon="6.81202">
        <ele>1808</ele>
        <time>2010-01-01T02:41:44Z</time>
      </trkpt>
      <trkpt lat="46.16746" lon="6.81181">
        <ele>1796</ele>
        <time>2010-01-01T02:41:56Z</time>
      </trkpt>
      <trkpt lat="46.16725" lon="6.81164">
        <ele>1800</ele>
        <time>2010-01-01T02:42:06Z</time>
      </trkpt>
      <trkpt lat="46.1671" lon="6.81142">
        <ele>1798</ele>
        <time>2010-01-01T02:42:15Z</time>
      </trkpt>
      <trkpt lat="46.16704" lon="6.81125">
        <ele>1798</ele>
        <time>2010-01-01T02:42:20Z</time>
      </trkpt>
      <trkpt lat="46.1669" lon="6.81092">
        <ele>1797</ele>
        <time>2010-01-01T02:42:31Z</time>
      </trkpt>
      <trkpt lat="46.16677" lon="6.81074">
        <ele>1798</ele>
        <time>2010-01-01T02:42:38Z</time>
      </trkpt>
      <trkpt lat="46.16664" lon="6.81061">
        <ele>1788</ele>
        <time>2010-01-01T02:42:44Z</time>
      </trkpt>
      <trkpt lat="46.16653" lon="6.81057">
        <ele>1787</ele>
        <time>2010-01-01T02:42:49Z</time>
      </trkpt>
      <trkpt lat="46.16654" lon="6.81072">
        <ele>1788</ele>
        <time>2010-01-01T02:42:53Z</time>
      </trkpt>
      <trkpt lat="46.16666" lon="6.81079">
        <ele>1790</ele>
        <time>2010-01-01T02:42:58Z</time>
      </trkpt>
      <trkpt lat="46.16678" lon="6.81101">
        <ele>1795</ele>
        <time>2010-01-01T02:43:06Z</time>
      </trkpt>
      <trkpt lat="46.16684" lon="6.81136">
        <ele>1794</ele>
        <time>2010-01-01T02:43:16Z</time>
      </trkpt>
      <trkpt lat="46.1669" lon="6.81179">
        <ele>1785</ele>
        <time>2010-01-01T02:43:28Z</time>
      </trkpt>
      <trkpt lat="46.1669" lon="6.81206">
        <ele>1783</ele>
        <time>2010-01-01T02:43:35Z</time>
      </trkpt>
      <trkpt lat="46.16696" lon="6.81234">
        <ele>1781</ele>
        <time>2010-01-01T02:43:43Z</time>
      </trkpt>
      <trkpt lat="46.16703" lon="6.81255">
        <ele>1774</ele>
        <time>2010-01-01T02:43:50Z</time>
      </trkpt>
      <trkpt lat="46.1671" lon="6.81268">
        <ele>1775</ele>
        <time>2010-01-01T02:43:55Z</time>
      </trkpt>
      <trkpt lat="46.16705" lon="6.81288">
        <ele>1773</ele>
        <time>2010-01-01T02:44:01Z</time>
      </trkpt>
      <trkpt lat="46.16706" lon="6.81309">
        <ele>1772</ele>
        <time>2010-01-01T02:44:06Z</time>
      </trkpt>
      <trkpt lat="46.1672" lon="6.81332">
        <ele>1774</ele>
        <time>2010-01-01T02:44:15Z</time>
      </trkpt>
      <trkpt lat="46.16721" lon="6.81349">
        <ele>1770</ele>
        <time>2010-01-01T02:44:20Z</time>
      </trkpt>
      <trkpt lat="46.16711" lon="6.8138">
        <ele>1768</ele>
        <time>2010-01-01T02:44:29Z</time>
      </trkpt>
      <trkpt lat="46.1671" lon="6.81417">
        <ele>1766</ele>
        <time>2010-01-01T02:44:39Z</time>
      </trkpt>
      <trkpt lat="46.16713" lon="6.81443">
        <ele>1766</ele>
        <time>2010-01-01T02:44:46Z</time>
      </trkpt>
      <trkpt lat="46.16709" lon="6.81464">
        <ele>1764</ele>
        <time>2010-01-01T02:44:53Z</time>
      </trkpt>
      <trkpt lat="46.16708" lon="6.81488">
        <ele>1764</ele>
        <time>2010-01-01T02:44:59Z</time>
      </trkpt>
      <trkpt lat="46.16705" lon="6.81504">
        <ele>1760</ele>
        <time>2010-01-01T02:45:04Z</time>
      </trkpt>
      <trkpt lat="46.16704" lon="6.81523">
        <ele>1760</ele>
        <time>2010-01-01T02:45:09Z</time>
      </trkpt>
      <trkpt lat="46.16699" lon="6.81538">
        <ele>1759</ele>
        <time>2010-01-01T02:45:14Z</time>
      </trkpt>
      <trkpt lat="46.16688" lon="6.8158">
        <ele>1755</ele>
        <time>2010-01-01T02:45:26Z</time>
      </trkpt>
      <trkpt lat="46.16672" lon="6.81587">
        <ele>1750</ele>
        <time>2010-01-01T02:45:33Z</time>
      </trkpt>
      <trkpt lat="46.16658" lon="6.81594">
        <ele>1744</ele>
        <time>2010-01-01T02:45:39Z</time>
      </trkpt>
      <trkpt lat="46.16638" lon="6.81589">
        <ele>1741</ele>
        <time>2010-01-01T02:45:47Z</time>
      </trkpt>
      <trkpt lat="46.16629" lon="6.8158">
        <ele>1743</ele>
        <time>2010-01-01T02:45:51Z</time>
      </trkpt>
      <trkpt lat="46.16621" lon="6.81567">
        <ele>1742</ele>
        <time>2010-01-01T02:45:56Z</time>
      </trkpt>
      <trkpt lat="46.16622" lon="6.81553">
        <ele>1743</ele>
        <time>2010-01-01T02:46:00Z</time>
      </trkpt>
      <trkpt lat="46.16627" lon="6.81549">
        <ele>1744</ele>
        <time>2010-01-01T02:46:02Z</time>
      </trkpt>
      <trkpt lat="46.16628" lon="6.81548">
        <ele>1744</ele>
        <time>2010-01-01T02:46:03Z</time>
      </trkpt>
      <trkpt lat="46.1663" lon="6.81546">
        <ele>1744</ele>
        <time>2010-01-01T02:46:04Z</time>
      </trkpt>
      <trkpt lat="46.16631" lon="6.81543">
        <ele>1744</ele>
        <time>2010-01-01T02:46:05Z</time>
      </trkpt>
      <trkpt lat="46.16631" lon="6.8154">
        <ele>1744</ele>
        <time>2010-01-01T02:46:06Z</time>
      </trkpt>
      <trkpt lat="46.16632" lon="6.81537">
        <ele>1744</ele>
        <time>2010-01-01T02:46:06Z</time>
      </trkpt>
      <trkpt lat="46.16631" lon="6.81534">
        <ele>1744</ele>
        <time>2010-01-01T02:46:07Z</time>
      </trkpt>
      <trkpt lat="46.16629" lon="6.81531">
        <ele>1744</ele>
        <time>2010-01-01T02:46:08Z</time>
      </trkpt>
      <trkpt lat="46.16628" lon="6.81529">
        <ele>1744</ele>
        <time>2010-01-01T02:46:09Z</time>
      </trkpt>
      <trkpt lat="46.16628" lon="6.81527">
        <ele>1744</ele>
        <time>2010-01-01T02:46:10Z</time>
      </trkpt>
      <trkpt lat="46.16617" lon="6.81518">
        <ele>1743</ele>
        <time>2010-01-01T02:46:15Z</time>
      </trkpt>
      <trkpt lat="46.16611" lon="6.81513">
        <ele>1742</ele>
        <time>2010-01-01T02:46:17Z</time>
      </trkpt>
      <trkpt lat="46.16609" lon="6.81511">
        <ele>1742</ele>
        <time>2010-01-01T02:46:18Z</time>
      </trkpt>
      <trkpt lat="46.16608" lon="6.81509">
        <ele>1742</ele>
        <time>2010-01-01T02:46:19Z</time>
      </trkpt>
      <trkpt lat="46.16607" lon="6.81506">
        <ele>1742</ele>
        <time>2010-01-01T02:46:20Z</time>
      </trkpt>
      <trkpt lat="46.16607" lon="6.81503">
        <ele>1742</ele>
        <time>2010-01-01T02:46:21Z</time>
      </trkpt>
      <trkpt lat="46.16607" lon="6.81501">
        <ele>1742</ele>
        <time>2010-01-01T02:46:21Z</time>
      </trkpt>
      <trkpt lat="46.16606" lon="6.81497">
        <ele>1743</ele>
        <time>2010-01-01T02:46:23Z</time>
      </trkpt>
      <trkpt lat="46.16605" lon="6.81494">
        <ele>1743</ele>
        <time>2010-01-01T02:46:23Z</time>
      </trkpt>
      <trkpt lat="46.16605" lon="6.81492">
        <ele>1743</ele>
        <time>2010-01-01T02:46:24Z</time>
      </trkpt>
      <trkpt lat="46.16604" lon="6.81489">
        <ele>1743</ele>
        <time>2010-01-01T02:46:25Z</time>
      </trkpt>
      <trkpt lat="46.16604" lon="6.81488">
        <ele>1743</ele>
        <time>2010-01-01T02:46:25Z</time>
      </trkpt>
      <trkpt lat="46.16604" lon="6.8148">
        <ele>1743</ele>
        <time>2010-01-01T02:46:27Z</time>
      </trkpt>
      <trkpt lat="46.16605" lon="6.81472">
        <ele>1744</ele>
        <time>2010-01-01T02:46:30Z</time>
      </trkpt>
      <trkpt lat="46.16609" lon="6.81464">
        <ele>1744</ele>
        <time>2010-01-01T02:46:32Z</time>
      </trkpt>
      <trkpt lat="46.16611" lon="6.81462">
        <ele>1744</ele>
        <time>2010-01-01T02:46:33Z</time>
      </trkpt>
      <trkpt lat="46.16613" lon="6.8146">
        <ele>1745</ele>
        <time>2010-01-01T02:46:34Z</time>
      </trkpt>
      <trkpt lat="46.16614" lon="6.81457">
        <ele>1745</ele>
        <time>2010-01-01T02:46:35Z</time>
      </trkpt>
      <trkpt lat="46.16615" lon="6.81455">
        <ele>1745</ele>
        <time>2010-01-01T02:46:36Z</time>
      </trkpt>
      <trkpt lat="46.16616" lon="6.81454">
        <ele>1745</ele>
        <time>2010-01-01T02:46:37Z</time>
      </trkpt>
      <trkpt lat="46.16616" lon="6.81451">
        <ele>1745</ele>
        <time>2010-01-01T02:46:37Z</time>
      </trkpt>
      <trkpt lat="46.16616" lon="6.8145">
        <ele>1745</ele>
        <time>2010-01-01T02:46:37Z</time>
      </trkpt>
      <trkpt lat="46.16615" lon="6.81445">
        <ele>1745</ele>
        <time>2010-01-01T02:46:39Z</time>
      </trkpt>
      <trkpt lat="46.166" lon="6.81441">
        <ele>1743</ele>
        <time>2010-01-01T02:46:45Z</time>
      </trkpt>
      <trkpt lat="46.16591" lon="6.81436">
        <ele>1742</ele>
        <time>2010-01-01T02:46:49Z</time>
      </trkpt>
      <trkpt lat="46.1659" lon="6.81417">
        <ele>1740</ele>
        <time>2010-01-01T02:46:54Z</time>
      </trkpt>
      <trkpt lat="46.16595" lon="6.81404">
        <ele>1741</ele>
        <time>2010-01-01T02:46:58Z</time>
      </trkpt>
      <trkpt lat="46.16601" lon="6.81382">
        <ele>1743</ele>
        <time>2010-01-01T02:47:05Z</time>
      </trkpt>
      <trkpt lat="46.16596" lon="6.81356">
        <ele>1741</ele>
        <time>2010-01-01T02:47:13Z</time>
      </trkpt>
      <trkpt lat="46.16596" lon="6.81336">
        <ele>1739</ele>
        <time>2010-01-01T02:47:18Z</time>
      </trkpt>
      <trkpt lat="46.166" lon="6.81324">
        <ele>1742</ele>
        <time>2010-01-01T02:47:22Z</time>
      </trkpt>
      <trkpt lat="46.16606" lon="6.81317">
        <ele>1744</ele>
        <time>2010-01-01T02:47:25Z</time>
      </trkpt>
      <trkpt lat="46.16608" lon="6.81308">
        <ele>1745</ele>
        <time>2010-01-01T02:47:27Z</time>
      </trkpt>
      <trkpt lat="46.16608" lon="6.81305">
        <ele>1746</ele>
        <time>2010-01-01T02:47:28Z</time>
      </trkpt>
      <trkpt lat="46.16607" lon="6.81302">
        <ele>1746</ele>
        <time>2010-01-01T02:47:29Z</time>
      </trkpt>
      <trkpt lat="46.16605" lon="6.81301">
        <ele>1746</ele>
        <time>2010-01-01T02:47:30Z</time>
      </trkpt>
      <trkpt lat="46.16603" lon="6.81299">
        <ele>1745</ele>
        <time>2010-01-01T02:47:31Z</time>
      </trkpt>
      <trkpt lat="46.166" lon="6.81298">
        <ele>1745</ele>
        <time>2010-01-01T02:47:32Z</time>
      </trkpt>
      <trkpt lat="46.16586" lon="6.81287">
        <ele>1745</ele>
        <time>2010-01-01T02:47:39Z</time>
      </trkpt>
      <trkpt lat="46.16571" lon="6.81268">
        <ele>1732</ele>
        <time>2010-01-01T02:47:47Z</time>
      </trkpt>
      <trkpt lat="46.16565" lon="6.81257">
        <ele>1733</ele>
        <time>2010-01-01T02:47:51Z</time>
      </trkpt>
      <trkpt lat="46.16563" lon="6.81255">
        <ele>1733</ele>
        <time>2010-01-01T02:47:52Z</time>
      </trkpt>
      <trkpt lat="46.16562" lon="6.81253">
        <ele>1732</ele>
        <time>2010-01-01T02:47:53Z</time>
      </trkpt>
      <trkpt lat="46.1656" lon="6.8125">
        <ele>1737</ele>
        <time>2010-01-01T02:47:53Z</time>
      </trkpt>
      <trkpt lat="46.16559" lon="6.81247">
        <ele>1737</ele>
        <time>2010-01-01T02:47:54Z</time>
      </trkpt>
      <trkpt lat="46.16559" lon="6.81244">
        <ele>1737</ele>
        <time>2010-01-01T02:47:55Z</time>
      </trkpt>
      <trkpt lat="46.1656" lon="6.8124">
        <ele>1737</ele>
        <time>2010-01-01T02:47:56Z</time>
      </trkpt>
      <trkpt lat="46.16559" lon="6.81237">
        <ele>1737</ele>
        <time>2010-01-01T02:47:57Z</time>
      </trkpt>
      <trkpt lat="46.16558" lon="6.81235">
        <ele>1737</ele>
        <time>2010-01-01T02:47:58Z</time>
      </trkpt>
      <trkpt lat="46.16557" lon="6.81234">
        <ele>1737</ele>
        <time>2010-01-01T02:47:58Z</time>
      </trkpt>
      <trkpt lat="46.16552" lon="6.81218">
        <ele>1737</ele>
        <time>2010-01-01T02:48:03Z</time>
      </trkpt>
      <trkpt lat="46.16532" lon="6.81206">
        <ele>1735</ele>
        <time>2010-01-01T02:48:12Z</time>
      </trkpt>
      <trkpt lat="46.16512" lon="6.81217">
        <ele>1732</ele>
        <time>2010-01-01T02:48:20Z</time>
      </trkpt>
      <trkpt lat="46.16487" lon="6.81205">
        <ele>1721</ele>
        <time>2010-01-01T02:48:31Z</time>
      </trkpt>
      <trkpt lat="46.1646" lon="6.81188">
        <ele>1719</ele>
        <time>2010-01-01T02:48:43Z</time>
      </trkpt>
      <trkpt lat="46.16435" lon="6.81164">
        <ele>1720</ele>
        <time>2010-01-01T02:48:55Z</time>
      </trkpt>
      <trkpt lat="46.16423" lon="6.81133">
        <ele>1722</ele>
        <time>2010-01-01T02:49:04Z</time>
      </trkpt>
      <trkpt lat="46.16421" lon="6.81111">
        <ele>1722</ele>
        <time>2010-01-01T02:49:11Z</time>
      </trkpt>
      <trkpt lat="46.16433" lon="6.81084">
        <ele>1721</ele>
        <time>2010-01-01T02:49:20Z</time>
      </trkpt>
      <trkpt lat="46.16433" lon="6.8107">
        <ele>1725</ele>
        <time>2010-01-01T02:49:23Z</time>
      </trkpt>
      <trkpt lat="46.16433" lon="6.8106">
        <ele>1726</ele>
        <time>2010-01-01T02:49:26Z</time>
      </trkpt>
      <trkpt lat="46.1643" lon="6.8103">
        <ele>1727</ele>
        <time>2010-01-01T02:49:34Z</time>
      </trkpt>
      <trkpt lat="46.16427" lon="6.81012">
        <ele>1723</ele>
        <time>2010-01-01T02:49:40Z</time>
      </trkpt>
      <trkpt lat="46.16422" lon="6.81002">
        <ele>1718</ele>
        <time>2010-01-01T02:49:43Z</time>
      </trkpt>
      <trkpt lat="46.1642" lon="6.81001">
        <ele>1717</ele>
        <time>2010-01-01T02:49:44Z</time>
      </trkpt>
      <trkpt lat="46.16418" lon="6.80998">
        <ele>1717</ele>
        <time>2010-01-01T02:49:45Z</time>
      </trkpt>
      <trkpt lat="46.16416" lon="6.80997">
        <ele>1713</ele>
        <time>2010-01-01T02:49:46Z</time>
      </trkpt>
      <trkpt lat="46.16415" lon="6.80995">
        <ele>1712</ele>
        <time>2010-01-01T02:49:47Z</time>
      </trkpt>
      <trkpt lat="46.16412" lon="6.8098">
        <ele>1707</ele>
        <time>2010-01-01T02:49:51Z</time>
      </trkpt>
      <trkpt lat="46.16409" lon="6.80948">
        <ele>1705</ele>
        <time>2010-01-01T02:50:00Z</time>
      </trkpt>
      <trkpt lat="46.16409" lon="6.80927">
        <ele>1709</ele>
        <time>2010-01-01T02:50:06Z</time>
      </trkpt>
      <trkpt lat="46.16395" lon="6.80892">
        <ele>1701</ele>
        <time>2010-01-01T02:50:17Z</time>
      </trkpt>
      <trkpt lat="46.16395" lon="6.80861">
        <ele>1700</ele>
        <time>2010-01-01T02:50:25Z</time>
      </trkpt>
      <trkpt lat="46.16394" lon="6.80827">
        <ele>1697</ele>
        <time>2010-01-01T02:50:35Z</time>
      </trkpt>
      <trkpt lat="46.16402" lon="6.80815">
        <ele>1697</ele>
        <time>2010-01-01T02:50:40Z</time>
      </trkpt>
      <trkpt lat="46.16417" lon="6.80801">
        <ele>1716</ele>
        <time>2010-01-01T02:50:47Z</time>
      </trkpt>
      <trkpt lat="46.16421" lon="6.80789">
        <ele>1716</ele>
        <time>2010-01-01T02:50:50Z</time>
      </trkpt>
      <trkpt lat="46.16408" lon="6.80768">
        <ele>1696</ele>
        <time>2010-01-01T02:50:58Z</time>
      </trkpt>
      <trkpt lat="46.16401" lon="6.80745">
        <ele>1694</ele>
        <time>2010-01-01T02:51:05Z</time>
      </trkpt>
      <trkpt lat="46.16401" lon="6.80721">
        <ele>1691</ele>
        <time>2010-01-01T02:51:12Z</time>
      </trkpt>
      <trkpt lat="46.16413" lon="6.807">
        <ele>1692</ele>
        <time>2010-01-01T02:51:19Z</time>
      </trkpt>
      <trkpt lat="46.16399" lon="6.80649">
        <ele>1689</ele>
        <time>2010-01-01T02:51:34Z</time>
      </trkpt>
      <trkpt lat="46.16402" lon="6.80619">
        <ele>1688</ele>
        <time>2010-01-01T02:51:43Z</time>
      </trkpt>
      <trkpt lat="46.16404" lon="6.8058">
        <ele>1692</ele>
        <time>2010-01-01T02:51:54Z</time>
      </trkpt>
      <trkpt lat="46.16391" lon="6.80553">
        <ele>1685</ele>
        <time>2010-01-01T02:52:03Z</time>
      </trkpt>
      <trkpt lat="46.16384" lon="6.80529">
        <ele>1684</ele>
        <time>2010-01-01T02:52:10Z</time>
      </trkpt>
      <trkpt lat="46.16375" lon="6.80499">
        <ele>1684</ele>
        <time>2010-01-01T02:52:19Z</time>
      </trkpt>
      <trkpt lat="46.16364" lon="6.80473">
        <ele>1682</ele>
        <time>2010-01-01T02:52:27Z</time>
      </trkpt>
      <trkpt lat="46.16356" lon="6.80423">
        <ele>1682</ele>
        <time>2010-01-01T02:52:42Z</time>
      </trkpt>
      <trkpt lat="46.16337" lon="6.80411">
        <ele>1680</ele>
        <time>2010-01-01T02:52:50Z</time>
      </trkpt>
      <trkpt lat="46.16325" lon="6.80377">
        <ele>1675</ele>
        <time>2010-01-01T02:53:00Z</time>
      </trkpt>
      <trkpt lat="46.16314" lon="6.80365">
        <ele>1676</ele>
        <time>2010-01-01T02:53:06Z</time>
      </trkpt>
      <trkpt lat="46.16296" lon="6.80351">
        <ele>1675</ele>
        <time>2010-01-01T02:53:14Z</time>
      </trkpt>
      <trkpt lat="46.16268" lon="6.80315">
        <ele>1682</ele>
        <time>2010-01-01T02:53:29Z</time>
      </trkpt>
      <trkpt lat="46.16244" lon="6.80272">
        <ele>1676</ele>
        <time>2010-01-01T02:53:45Z</time>
      </trkpt>
      <trkpt lat="46.16224" lon="6.80251">
        <ele>1675</ele>
        <time>2010-01-01T02:53:55Z</time>
      </trkpt>
      <trkpt lat="46.16202" lon="6.80239">
        <ele>1682</ele>
        <time>2010-01-01T02:54:04Z</time>
      </trkpt>
      <trkpt lat="46.16177" lon="6.80208">
        <ele>1684</ele>
        <time>2010-01-01T02:54:17Z</time>
      </trkpt>
      <trkpt lat="46.16159" lon="6.80197">
        <ele>1678</ele>
        <time>2010-01-01T02:54:25Z</time>
      </trkpt>
      <trkpt lat="46.16135" lon="6.80189">
        <ele>1679</ele>
        <time>2010-01-01T02:54:35Z</time>
      </trkpt>
      <trkpt lat="46.16099" lon="6.80189">
        <ele>1680</ele>
        <time>2010-01-01T02:54:49Z</time>
      </trkpt>
      <trkpt lat="46.16036" lon="6.80235">
        <ele>1674</ele>
        <time>2010-01-01T02:55:18Z</time>
      </trkpt>
      <trkpt lat="46.16023" lon="6.80252">
        <ele>1661</ele>
        <time>2010-01-01T02:55:25Z</time>
      </trkpt>
      <trkpt lat="46.16013" lon="6.80249">
        <ele>1673</ele>
        <time>2010-01-01T02:55:29Z</time>
      </trkpt>
      <trkpt lat="46.16001" lon="6.80245">
        <ele>1672</ele>
        <time>2010-01-01T02:55:33Z</time>
      </trkpt>
      <trkpt lat="46.15999" lon="6.80241">
        <ele>1671</ele>
        <time>2010-01-01T02:55:35Z</time>
      </trkpt>
      <trkpt lat="46.15997" lon="6.80238">
        <ele>1671</ele>
        <time>2010-01-01T02:55:36Z</time>
      </trkpt>
      <trkpt lat="46.15995" lon="6.80236">
        <ele>1671</ele>
        <time>2010-01-01T02:55:37Z</time>
      </trkpt>
      <trkpt lat="46.15994" lon="6.80235">
        <ele>1671</ele>
        <time>2010-01-01T02:55:38Z</time>
      </trkpt>
      <trkpt lat="46.15991" lon="6.80234">
        <ele>1671</ele>
        <time>2010-01-01T02:55:39Z</time>
      </trkpt>
      <trkpt lat="46.15991" lon="6.80234">
        <ele>1671</ele>
        <time>2010-01-01T02:55:39Z</time>
      </trkpt>
      <trkpt lat="46.15981" lon="6.80236">
        <ele>1670</ele>
        <time>2010-01-01T02:55:43Z</time>
      </trkpt>
      <trkpt lat="46.15955" lon="6.80227">
        <ele>1668</ele>
        <time>2010-01-01T02:55:54Z</time>
      </trkpt>
      <trkpt lat="46.15949" lon="6.80219">
        <ele>1668</ele>
        <time>2010-01-01T02:55:57Z</time>
      </trkpt>
      <trkpt lat="46.15943" lon="6.80215">
        <ele>1668</ele>
        <time>2010-01-01T02:55:59Z</time>
      </trkpt>
      <trkpt lat="46.15941" lon="6.80221">
        <ele>1667</ele>
        <time>2010-01-01T02:56:01Z</time>
      </trkpt>
      <trkpt lat="46.15939" lon="6.80219">
        <ele>1667</ele>
        <time>2010-01-01T02:56:02Z</time>
      </trkpt>
      <trkpt lat="46.15937" lon="6.80218">
        <ele>1667</ele>
        <time>2010-01-01T02:56:03Z</time>
      </trkpt>
      <trkpt lat="46.15935" lon="6.80215">
        <ele>1667</ele>
        <time>2010-01-01T02:56:04Z</time>
      </trkpt>
      <trkpt lat="46.15933" lon="6.80214">
        <ele>1667</ele>
        <time>2010-01-01T02:56:05Z</time>
      </trkpt>
      <trkpt lat="46.15919" lon="6.80218">
        <ele>1665</ele>
        <time>2010-01-01T02:56:11Z</time>
      </trkpt>
      <trkpt lat="46.159" lon="6.80218">
        <ele>1650</ele>
        <time>2010-01-01T02:56:18Z</time>
      </trkpt>
      <trkpt lat="46.15889" lon="6.802">
        <ele>1650</ele>
        <time>2010-01-01T02:56:25Z</time>
      </trkpt>
      <trkpt lat="46.15867" lon="6.80163">
        <ele>1656</ele>
        <time>2010-01-01T02:56:38Z</time>
      </trkpt>
      <trkpt lat="46.15847" lon="6.80133">
        <ele>1657</ele>
        <time>2010-01-01T02:56:50Z</time>
      </trkpt>
      <trkpt lat="46.15831" lon="6.80109">
        <ele>1649</ele>
        <time>2010-01-01T02:56:59Z</time>
      </trkpt>
      <trkpt lat="46.15816" lon="6.80097">
        <ele>1650</ele>
        <time>2010-01-01T02:57:06Z</time>
      </trkpt>
      <trkpt lat="46.1581" lon="6.80103">
        <ele>1648</ele>
        <time>2010-01-01T02:57:09Z</time>
      </trkpt>
      <trkpt lat="46.1582" lon="6.80143">
        <ele>1643</ele>
        <time>2010-01-01T02:57:21Z</time>
      </trkpt>
      <trkpt lat="46.15831" lon="6.80205">
        <ele>1631</ele>
        <time>2010-01-01T02:57:39Z</time>
      </trkpt>
      <trkpt lat="46.15835" lon="6.80275">
        <ele>1630</ele>
        <time>2010-01-01T02:57:58Z</time>
      </trkpt>
      <trkpt lat="46.1583" lon="6.80331">
        <ele>1613</ele>
        <time>2010-01-01T02:58:14Z</time>
      </trkpt>
      <trkpt lat="46.15841" lon="6.80366">
        <ele>1612</ele>
        <time>2010-01-01T02:58:25Z</time>
      </trkpt>
      <trkpt lat="46.15858" lon="6.80384">
        <ele>1611</ele>
        <time>2010-01-01T02:58:33Z</time>
      </trkpt>
      <trkpt lat="46.15893" lon="6.80437">
        <ele>1594</ele>
        <time>2010-01-01T02:58:53Z</time>
      </trkpt>
      <trkpt lat="46.15913" lon="6.80456">
        <ele>1591</ele>
        <time>2010-01-01T02:59:03Z</time>
      </trkpt>
      <trkpt lat="46.15928" lon="6.80485">
        <ele>1596</ele>
        <time>2010-01-01T02:59:13Z</time>
      </trkpt>
      <trkpt lat="46.15969" lon="6.8051">
        <ele>1584</ele>
        <time>2010-01-01T02:59:31Z</time>
      </trkpt>
      <trkpt lat="46.15973" lon="6.80518">
        <ele>1583</ele>
        <time>2010-01-01T02:59:34Z</time>
      </trkpt>
      <trkpt lat="46.15985" lon="6.80534">
        <ele>1580</ele>
        <time>2010-01-01T02:59:40Z</time>
      </trkpt>
      <trkpt lat="46.15972" lon="6.80534">
        <ele>1579</ele>
        <time>2010-01-01T02:59:45Z</time>
      </trkpt>
      <trkpt lat="46.15953" lon="6.80529">
        <ele>1578</ele>
        <time>2010-01-01T02:59:53Z</time>
      </trkpt>
      <trkpt lat="46.15943" lon="6.80539">
        <ele>1575</ele>
        <time>2010-01-01T02:59:58Z</time>
      </trkpt>
      <trkpt lat="46.15927" lon="6.80539">
        <ele>1574</ele>
        <time>2010-01-01T03:00:04Z</time>
      </trkpt>
      <trkpt lat="46.15905" lon="6.80523">
        <ele>1565</ele>
        <time>2010-01-01T03:00:14Z</time>
      </trkpt>
      <trkpt lat="46.15895" lon="6.80514">
        <ele>1564</ele>
        <time>2010-01-01T03:00:19Z</time>
      </trkpt>
      <trkpt lat="46.15893" lon="6.80513">
        <ele>1564</ele>
        <time>2010-01-01T03:00:19Z</time>
      </trkpt>
      <trkpt lat="46.15891" lon="6.80513">
        <ele>1563</ele>
        <time>2010-01-01T03:00:21Z</time>
      </trkpt>
      <trkpt lat="46.15888" lon="6.80512">
        <ele>1562</ele>
        <time>2010-01-01T03:00:21Z</time>
      </trkpt>
      <trkpt lat="46.15887" lon="6.80511">
        <ele>1562</ele>
        <time>2010-01-01T03:00:22Z</time>
      </trkpt>
      <trkpt lat="46.15886" lon="6.80509">
        <ele>1562</ele>
        <time>2010-01-01T03:00:23Z</time>
      </trkpt>
      <trkpt lat="46.15883" lon="6.80508">
        <ele>1561</ele>
        <time>2010-01-01T03:00:24Z</time>
      </trkpt>
      <trkpt lat="46.15881" lon="6.80506">
        <ele>1561</ele>
        <time>2010-01-01T03:00:25Z</time>
      </trkpt>
      <trkpt lat="46.15879" lon="6.80504">
        <ele>1560</ele>
        <time>2010-01-01T03:00:26Z</time>
      </trkpt>
      <trkpt lat="46.15877" lon="6.80502">
        <ele>1560</ele>
        <time>2010-01-01T03:00:27Z</time>
      </trkpt>
      <trkpt lat="46.15875" lon="6.80502">
        <ele>1559</ele>
        <time>2010-01-01T03:00:28Z</time>
      </trkpt>
      <trkpt lat="46.15874" lon="6.80501">
        <ele>1559</ele>
        <time>2010-01-01T03:00:28Z</time>
      </trkpt>
      <trkpt lat="46.15858" lon="6.80496">
        <ele>1573</ele>
        <time>2010-01-01T03:00:35Z</time>
      </trkpt>
      <trkpt lat="46.15848" lon="6.80494">
        <ele>1568</ele>
        <time>2010-01-01T03:00:38Z</time>
      </trkpt>
      <trkpt lat="46.15843" lon="6.8049">
        <ele>1566</ele>
        <time>2010-01-01T03:00:41Z</time>
      </trkpt>
      <trkpt lat="46.15842" lon="6.8049">
        <ele>1566</ele>
        <time>2010-01-01T03:00:42Z</time>
      </trkpt>
      <trkpt lat="46.15839" lon="6.80489">
        <ele>1565</ele>
        <time>2010-01-01T03:00:43Z</time>
      </trkpt>
      <trkpt lat="46.15837" lon="6.80488">
        <ele>1565</ele>
        <time>2010-01-01T03:00:44Z</time>
      </trkpt>
      <trkpt lat="46.15835" lon="6.80488">
        <ele>1565</ele>
        <time>2010-01-01T03:00:44Z</time>
      </trkpt>
      <trkpt lat="46.15831" lon="6.80489">
        <ele>1560</ele>
        <time>2010-01-01T03:00:46Z</time>
      </trkpt>
      <trkpt lat="46.15829" lon="6.80489">
        <ele>1561</ele>
        <time>2010-01-01T03:00:47Z</time>
      </trkpt>
      <trkpt lat="46.15828" lon="6.8049">
        <ele>1560</ele>
        <time>2010-01-01T03:00:47Z</time>
      </trkpt>
      <trkpt lat="46.15828" lon="6.80493">
        <ele>1559</ele>
        <time>2010-01-01T03:00:48Z</time>
      </trkpt>
      <trkpt lat="46.15829" lon="6.80495">
        <ele>1557</ele>
        <time>2010-01-01T03:00:49Z</time>
      </trkpt>
      <trkpt lat="46.15833" lon="6.80501">
        <ele>1552</ele>
        <time>2010-01-01T03:00:51Z</time>
      </trkpt>
      <trkpt lat="46.15841" lon="6.8051">
        <ele>1553</ele>
        <time>2010-01-01T03:00:55Z</time>
      </trkpt>
      <trkpt lat="46.15857" lon="6.80522">
        <ele>1554</ele>
        <time>2010-01-01T03:01:02Z</time>
      </trkpt>
      <trkpt lat="46.15865" lon="6.80539">
        <ele>1553</ele>
        <time>2010-01-01T03:01:08Z</time>
      </trkpt>
      <trkpt lat="46.15875" lon="6.8058">
        <ele>1549</ele>
        <time>2010-01-01T03:01:20Z</time>
      </trkpt>
      <trkpt lat="46.15893" lon="6.80629">
        <ele>1530</ele>
        <time>2010-01-01T03:01:35Z</time>
      </trkpt>
      <trkpt lat="46.159" lon="6.80648">
        <ele>1528</ele>
        <time>2010-01-01T03:01:41Z</time>
      </trkpt>
      <trkpt lat="46.15903" lon="6.80673">
        <ele>1517</ele>
        <time>2010-01-01T03:01:48Z</time>
      </trkpt>
      <trkpt lat="46.15919" lon="6.80697">
        <ele>1523</ele>
        <time>2010-01-01T03:01:58Z</time>
      </trkpt>
      <trkpt lat="46.15931" lon="6.80717">
        <ele>1521</ele>
        <time>2010-01-01T03:02:05Z</time>
      </trkpt>
      <trkpt lat="46.15948" lon="6.80727">
        <ele>1522</ele>
        <time>2010-01-01T03:02:12Z</time>
      </trkpt>
      <trkpt lat="46.15959" lon="6.8074">
        <ele>1524</ele>
        <time>2010-01-01T03:02:18Z</time>
      </trkpt>
      <trkpt lat="46.15958" lon="6.80926">
        <ele>1499</ele>
        <time>2010-01-01T03:03:10Z</time>
      </trkpt>
      <trkpt lat="46.15959" lon="6.80997">
        <ele>1497</ele>
        <time>2010-01-01T03:03:29Z</time>
      </trkpt>
      <trkpt lat="46.15967" lon="6.81052">
        <ele>1493</ele>
        <time>2010-01-01T03:03:45Z</time>
      </trkpt>
      <trkpt lat="46.1597" lon="6.81077">
        <ele>1493</ele>
        <time>2010-01-01T03:03:52Z</time>
      </trkpt>
      <trkpt lat="46.15972" lon="6.81082">
        <ele>1493</ele>
        <time>2010-01-01T03:03:53Z</time>
      </trkpt>
      <trkpt lat="46.15975" lon="6.81086">
        <ele>1488</ele>
        <time>2010-01-01T03:03:55Z</time>
      </trkpt>
      <trkpt lat="46.15976" lon="6.81089">
        <ele>1488</ele>
        <time>2010-01-01T03:03:56Z</time>
      </trkpt>
      <trkpt lat="46.15975" lon="6.81096">
        <ele>1487</ele>
        <time>2010-01-01T03:03:58Z</time>
      </trkpt>
      <trkpt lat="46.15975" lon="6.81097">
        <ele>1487</ele>
        <time>2010-01-01T03:03:58Z</time>
      </trkpt>
      <trkpt lat="46.15976" lon="6.81101">
        <ele>1487</ele>
        <time>2010-01-01T03:03:59Z</time>
      </trkpt>
      <trkpt lat="46.15976" lon="6.81107">
        <ele>1486</ele>
        <time>2010-01-01T03:04:01Z</time>
      </trkpt>
      <trkpt lat="46.15976" lon="6.81183">
        <ele>1475</ele>
        <time>2010-01-01T03:04:22Z</time>
      </trkpt>
      <trkpt lat="46.15983" lon="6.81251">
        <ele>1468</ele>
        <time>2010-01-01T03:04:41Z</time>
      </trkpt>
      <trkpt lat="46.15976" lon="6.81317">
        <ele>1461</ele>
        <time>2010-01-01T03:05:00Z</time>
      </trkpt>
      <trkpt lat="46.15969" lon="6.81391">
        <ele>1454</ele>
        <time>2010-01-01T03:05:20Z</time>
      </trkpt>
      <trkpt lat="46.15963" lon="6.81419">
        <ele>1449</ele>
        <time>2010-01-01T03:05:28Z</time>
      </trkpt>
      <trkpt lat="46.15963" lon="6.81432">
        <ele>1449</ele>
        <time>2010-01-01T03:05:32Z</time>
      </trkpt>
      <trkpt lat="46.15963" lon="6.81437">
        <ele>1449</ele>
        <time>2010-01-01T03:05:33Z</time>
      </trkpt>
      <trkpt lat="46.15963" lon="6.81444">
        <ele>1448</ele>
        <time>2010-01-01T03:05:35Z</time>
      </trkpt>
      <trkpt lat="46.15962" lon="6.81448">
        <ele>1448</ele>
        <time>2010-01-01T03:05:37Z</time>
      </trkpt>
      <trkpt lat="46.15962" lon="6.8145">
        <ele>1448</ele>
        <time>2010-01-01T03:05:37Z</time>
      </trkpt>
      <trkpt lat="46.15961" lon="6.81455">
        <ele>1448</ele>
        <time>2010-01-01T03:05:38Z</time>
      </trkpt>
      <trkpt lat="46.15958" lon="6.81459">
        <ele>1447</ele>
        <time>2010-01-01T03:05:40Z</time>
      </trkpt>
      <trkpt lat="46.15955" lon="6.81463">
        <ele>1447</ele>
        <time>2010-01-01T03:05:42Z</time>
      </trkpt>
      <trkpt lat="46.15955" lon="6.81466">
        <ele>1446</ele>
        <time>2010-01-01T03:05:43Z</time>
      </trkpt>
      <trkpt lat="46.15954" lon="6.81471">
        <ele>1446</ele>
        <time>2010-01-01T03:05:44Z</time>
      </trkpt>
      <trkpt lat="46.15953" lon="6.81474">
        <ele>1446</ele>
        <time>2010-01-01T03:05:45Z</time>
      </trkpt>
      <trkpt lat="46.15953" lon="6.81478">
        <ele>1446</ele>
        <time>2010-01-01T03:05:46Z</time>
      </trkpt>
      <trkpt lat="46.15954" lon="6.81482">
        <ele>1446</ele>
        <time>2010-01-01T03:05:47Z</time>
      </trkpt>
      <trkpt lat="46.15955" lon="6.81488">
        <ele>1446</ele>
        <time>2010-01-01T03:05:49Z</time>
      </trkpt>
      <trkpt lat="46.15956" lon="6.81494">
        <ele>1446</ele>
        <time>2010-01-01T03:05:50Z</time>
      </trkpt>
      <trkpt lat="46.15956" lon="6.81499">
        <ele>1445</ele>
        <time>2010-01-01T03:05:52Z</time>
      </trkpt>
      <trkpt lat="46.15957" lon="6.81504">
        <ele>1440</ele>
        <time>2010-01-01T03:05:53Z</time>
      </trkpt>
      <trkpt lat="46.15956" lon="6.81508">
        <ele>1439</ele>
        <time>2010-01-01T03:05:55Z</time>
      </trkpt>
      <trkpt lat="46.15956" lon="6.81512">
        <ele>1439</ele>
        <time>2010-01-01T03:05:56Z</time>
      </trkpt>
      <trkpt lat="46.15956" lon="6.81516">
        <ele>1439</ele>
        <time>2010-01-01T03:05:57Z</time>
      </trkpt>
      <trkpt lat="46.15955" lon="6.81522">
        <ele>1439</ele>
        <time>2010-01-01T03:05:58Z</time>
      </trkpt>
      <trkpt lat="46.15955" lon="6.81527">
        <ele>1438</ele>
        <time>2010-01-01T03:06:00Z</time>
      </trkpt>
      <trkpt lat="46.15954" lon="6.81532">
        <ele>1438</ele>
        <time>2010-01-01T03:06:01Z</time>
      </trkpt>
      <trkpt lat="46.15954" lon="6.81535">
        <ele>1438</ele>
        <time>2010-01-01T03:06:02Z</time>
      </trkpt>
      <trkpt lat="46.15954" lon="6.81538">
        <ele>1437</ele>
        <time>2010-01-01T03:06:03Z</time>
      </trkpt>
      <trkpt lat="46.15954" lon="6.81543">
        <ele>1437</ele>
        <time>2010-01-01T03:06:04Z</time>
      </trkpt>
      <trkpt lat="46.15954" lon="6.81547">
        <ele>1437</ele>
        <time>2010-01-01T03:06:06Z</time>
      </trkpt>
      <trkpt lat="46.15954" lon="6.81551">
        <ele>1436</ele>
        <time>2010-01-01T03:06:07Z</time>
      </trkpt>
      <trkpt lat="46.15954" lon="6.81557">
        <ele>1436</ele>
        <time>2010-01-01T03:06:08Z</time>
      </trkpt>
      <trkpt lat="46.15953" lon="6.81581">
        <ele>1434</ele>
        <time>2010-01-01T03:06:15Z</time>
      </trkpt>
      <trkpt lat="46.15959" lon="6.81658">
        <ele>1430</ele>
        <time>2010-01-01T03:06:36Z</time>
      </trkpt>
      <trkpt lat="46.15969" lon="6.81758">
        <ele>1421</ele>
        <time>2010-01-01T03:07:04Z</time>
      </trkpt>
      <trkpt lat="46.15974" lon="6.81801">
        <ele>1419</ele>
        <time>2010-01-01T03:07:16Z</time>
      </trkpt>
      <trkpt lat="46.15967" lon="6.81848">
        <ele>1414</ele>
        <time>2010-01-01T03:07:30Z</time>
      </trkpt>
      <trkpt lat="46.15965" lon="6.81867">
        <ele>1413</ele>
        <time>2010-01-01T03:07:35Z</time>
      </trkpt>
      <trkpt lat="46.15964" lon="6.81873">
        <ele>1413</ele>
        <time>2010-01-01T03:07:37Z</time>
      </trkpt>
      <trkpt lat="46.15965" lon="6.81877">
        <ele>1413</ele>
        <time>2010-01-01T03:07:38Z</time>
      </trkpt>
      <trkpt lat="46.15965" lon="6.81879">
        <ele>1413</ele>
        <time>2010-01-01T03:07:39Z</time>
      </trkpt>
      <trkpt lat="46.15964" lon="6.81886">
        <ele>1413</ele>
        <time>2010-01-01T03:07:41Z</time>
      </trkpt>
      <trkpt lat="46.15964" lon="6.81891">
        <ele>1412</ele>
        <time>2010-01-01T03:07:42Z</time>
      </trkpt>
      <trkpt lat="46.15964" lon="6.81895">
        <ele>1412</ele>
        <time>2010-01-01T03:07:43Z</time>
      </trkpt>
      <trkpt lat="46.15964" lon="6.81899">
        <ele>1412</ele>
        <time>2010-01-01T03:07:44Z</time>
      </trkpt>
      <trkpt lat="46.15966" lon="6.81904">
        <ele>1412</ele>
        <time>2010-01-01T03:07:46Z</time>
      </trkpt>
      <trkpt lat="46.15967" lon="6.8191">
        <ele>1412</ele>
        <time>2010-01-01T03:07:47Z</time>
      </trkpt>
      <trkpt lat="46.15967" lon="6.81919">
        <ele>1409</ele>
        <time>2010-01-01T03:07:50Z</time>
      </trkpt>
      <trkpt lat="46.15968" lon="6.81925">
        <ele>1409</ele>
        <time>2010-01-01T03:07:52Z</time>
      </trkpt>
      <trkpt lat="46.15969" lon="6.81928">
        <ele>1409</ele>
        <time>2010-01-01T03:07:52Z</time>
      </trkpt>
      <trkpt lat="46.1597" lon="6.81931">
        <ele>1409</ele>
        <time>2010-01-01T03:07:53Z</time>
      </trkpt>
      <trkpt lat="46.15971" lon="6.81936">
        <ele>1409</ele>
        <time>2010-01-01T03:07:55Z</time>
      </trkpt>
      <trkpt lat="46.15971" lon="6.81939">
        <ele>1409</ele>
        <time>2010-01-01T03:07:56Z</time>
      </trkpt>
      <trkpt lat="46.15973" lon="6.81946">
        <ele>1409</ele>
        <time>2010-01-01T03:07:58Z</time>
      </trkpt>
      <trkpt lat="46.15973" lon="6.81951">
        <ele>1409</ele>
        <time>2010-01-01T03:07:59Z</time>
      </trkpt>
      <trkpt lat="46.15974" lon="6.81957">
        <ele>1409</ele>
        <time>2010-01-01T03:08:01Z</time>
      </trkpt>
      <trkpt lat="46.15975" lon="6.81959">
        <ele>1408</ele>
        <time>2010-01-01T03:08:01Z</time>
      </trkpt>
      <trkpt lat="46.15975" lon="6.81966">
        <ele>1408</ele>
        <time>2010-01-01T03:08:03Z</time>
      </trkpt>
      <trkpt lat="46.15976" lon="6.81973">
        <ele>1408</ele>
        <time>2010-01-01T03:08:05Z</time>
      </trkpt>
      <trkpt lat="46.15976" lon="6.81977">
        <ele>1408</ele>
        <time>2010-01-01T03:08:06Z</time>
      </trkpt>
      <trkpt lat="46.15975" lon="6.81986">
        <ele>1407</ele>
        <time>2010-01-01T03:08:09Z</time>
      </trkpt>
      <trkpt lat="46.15975" lon="6.81989">
        <ele>1407</ele>
        <time>2010-01-01T03:08:10Z</time>
      </trkpt>
      <trkpt lat="46.15975" lon="6.81993">
        <ele>1407</ele>
        <time>2010-01-01T03:08:11Z</time>
      </trkpt>
      <trkpt lat="46.15976" lon="6.82015">
        <ele>1403</ele>
        <time>2010-01-01T03:08:17Z</time>
      </trkpt>
      <trkpt lat="46.15988" lon="6.82096">
        <ele>1394</ele>
        <time>2010-01-01T03:08:40Z</time>
      </trkpt>
      <trkpt lat="46.1599" lon="6.82119">
        <ele>1392</ele>
        <time>2010-01-01T03:08:46Z</time>
      </trkpt>
      <trkpt lat="46.15991" lon="6.82126">
        <ele>1391</ele>
        <time>2010-01-01T03:08:48Z</time>
      </trkpt>
      <trkpt lat="46.15992" lon="6.82132">
        <ele>1390</ele>
        <time>2010-01-01T03:08:50Z</time>
      </trkpt>
      <trkpt lat="46.15992" lon="6.82134">
        <ele>1390</ele>
        <time>2010-01-01T03:08:51Z</time>
      </trkpt>
      <trkpt lat="46.15993" lon="6.82142">
        <ele>1389</ele>
        <time>2010-01-01T03:08:53Z</time>
      </trkpt>
      <trkpt lat="46.15994" lon="6.82147">
        <ele>1389</ele>
        <time>2010-01-01T03:08:54Z</time>
      </trkpt>
      <trkpt lat="46.15994" lon="6.82149">
        <ele>1389</ele>
        <time>2010-01-01T03:08:55Z</time>
      </trkpt>
      <trkpt lat="46.15995" lon="6.82155">
        <ele>1388</ele>
        <time>2010-01-01T03:08:57Z</time>
      </trkpt>
      <trkpt lat="46.15996" lon="6.8216">
        <ele>1387</ele>
        <time>2010-01-01T03:08:58Z</time>
      </trkpt>
      <trkpt lat="46.15997" lon="6.82165">
        <ele>1387</ele>
        <time>2010-01-01T03:08:59Z</time>
      </trkpt>
      <trkpt lat="46.15998" lon="6.8217">
        <ele>1385</ele>
        <time>2010-01-01T03:09:01Z</time>
      </trkpt>
      <trkpt lat="46.15999" lon="6.82175">
        <ele>1385</ele>
        <time>2010-01-01T03:09:02Z</time>
      </trkpt>
      <trkpt lat="46.15999" lon="6.82179">
        <ele>1384</ele>
        <time>2010-01-01T03:09:03Z</time>
      </trkpt>
      <trkpt lat="46.16" lon="6.82185">
        <ele>1394</ele>
        <time>2010-01-01T03:09:05Z</time>
      </trkpt>
      <trkpt lat="46.16001" lon="6.82189">
        <ele>1395</ele>
        <time>2010-01-01T03:09:07Z</time>
      </trkpt>
      <trkpt lat="46.16001" lon="6.8219">
        <ele>1395</ele>
        <time>2010-01-01T03:09:07Z</time>
      </trkpt>
      <trkpt lat="46.16001" lon="6.82197">
        <ele>1396</ele>
        <time>2010-01-01T03:09:09Z</time>
      </trkpt>
      <trkpt lat="46.16001" lon="6.82204">
        <ele>1396</ele>
        <time>2010-01-01T03:09:10Z</time>
      </trkpt>
      <trkpt lat="46.16001" lon="6.8221">
        <ele>1396</ele>
        <time>2010-01-01T03:09:12Z</time>
      </trkpt>
      <trkpt lat="46.16001" lon="6.82217">
        <ele>1395</ele>
        <time>2010-01-01T03:09:14Z</time>
      </trkpt>
      <trkpt lat="46.16001" lon="6.82221">
        <ele>1394</ele>
        <time>2010-01-01T03:09:15Z</time>
      </trkpt>
      <trkpt lat="46.16" lon="6.82226">
        <ele>1393</ele>
        <time>2010-01-01T03:09:17Z</time>
      </trkpt>
      <trkpt lat="46.16001" lon="6.82236">
        <ele>1390</ele>
        <time>2010-01-01T03:09:19Z</time>
      </trkpt>
      <trkpt lat="46.15991" lon="6.82268">
        <ele>1377</ele>
        <time>2010-01-01T03:09:29Z</time>
      </trkpt>
      <trkpt lat="46.15991" lon="6.8237">
        <ele>1370</ele>
        <time>2010-01-01T03:09:57Z</time>
      </trkpt>
      <trkpt lat="46.15995" lon="6.82507">
        <ele>1361</ele>
        <time>2010-01-01T03:10:35Z</time>
      </trkpt>
      <trkpt lat="46.16031" lon="6.82575">
        <ele>1365</ele>
        <time>2010-01-01T03:10:59Z</time>
      </trkpt>
      <trkpt lat="46.16064" lon="6.8263">
        <ele>1361</ele>
        <time>2010-01-01T03:11:19Z</time>
      </trkpt>
      <trkpt lat="46.1609" lon="6.82692">
        <ele>1372</ele>
        <time>2010-01-01T03:11:39Z</time>
      </trkpt>
      <trkpt lat="46.16095" lon="6.82788">
        <ele>1363</ele>
        <time>2010-01-01T03:12:06Z</time>
      </trkpt>
      <trkpt lat="46.16092" lon="6.82897">
        <ele>1361</ele>
        <time>2010-01-01T03:12:36Z</time>
      </trkpt>
      <trkpt lat="46.16078" lon="6.82991">
        <ele>1348</ele>
        <time>2010-01-01T03:13:03Z</time>
      </trkpt>
      <trkpt lat="46.16083" lon="6.83076">
        <ele>1338</ele>
        <time>2010-01-01T03:13:27Z</time>
      </trkpt>
      <trkpt lat="46.16136" lon="6.83204">
        <ele>1339</ele>
        <time>2010-01-01T03:14:08Z</time>
      </trkpt>
      <trkpt lat="46.16171" lon="6.83297">
        <ele>1348</ele>
        <time>2010-01-01T03:14:38Z</time>
      </trkpt>
      <trkpt lat="46.16228" lon="6.83398">
        <ele>1339</ele>
        <time>2010-01-01T03:15:13Z</time>
      </trkpt>
      <trkpt lat="46.16271" lon="6.83457">
        <ele>1348</ele>
        <time>2010-01-01T03:15:37Z</time>
      </trkpt>
      <trkpt lat="46.16317" lon="6.83532">
        <ele>1336</ele>
        <time>2010-01-01T03:16:05Z</time>
      </trkpt>
      <trkpt lat="46.16362" lon="6.83564">
        <ele>1355</ele>
        <time>2010-01-01T03:16:25Z</time>
      </trkpt>
      <trkpt lat="46.16389" lon="6.83573">
        <ele>1361</ele>
        <time>2010-01-01T03:16:36Z</time>
      </trkpt>
      <trkpt lat="46.16399" lon="6.8359">
        <ele>1356</ele>
        <time>2010-01-01T03:16:42Z</time>
      </trkpt>
      <trkpt lat="46.16399" lon="6.83602">
        <ele>1355</ele>
        <time>2010-01-01T03:16:46Z</time>
      </trkpt>
      <trkpt lat="46.16398" lon="6.83606">
        <ele>1354</ele>
        <time>2010-01-01T03:16:47Z</time>
      </trkpt>
      <trkpt lat="46.16396" lon="6.83609">
        <ele>1354</ele>
        <time>2010-01-01T03:16:48Z</time>
      </trkpt>
      <trkpt lat="46.16396" lon="6.83611">
        <ele>1354</ele>
        <time>2010-01-01T03:16:49Z</time>
      </trkpt>
      <trkpt lat="46.16393" lon="6.83613">
        <ele>1353</ele>
        <time>2010-01-01T03:16:50Z</time>
      </trkpt>
      <trkpt lat="46.16389" lon="6.83616">
        <ele>1353</ele>
        <time>2010-01-01T03:16:52Z</time>
      </trkpt>
      <trkpt lat="46.16388" lon="6.83618">
        <ele>1352</ele>
        <time>2010-01-01T03:16:52Z</time>
      </trkpt>
      <trkpt lat="46.16381" lon="6.83615">
        <ele>1351</ele>
        <time>2010-01-01T03:16:55Z</time>
      </trkpt>
      <trkpt lat="46.1633" lon="6.8364">
        <ele>1329</ele>
        <time>2010-01-01T03:17:17Z</time>
      </trkpt>
      <trkpt lat="46.16316" lon="6.83762">
        <ele>1348</ele>
        <time>2010-01-01T03:17:51Z</time>
      </trkpt>
      <trkpt lat="46.16298" lon="6.83866">
        <ele>1351</ele>
        <time>2010-01-01T03:18:21Z</time>
      </trkpt>
      <trkpt lat="46.16284" lon="6.83928">
        <ele>1354</ele>
        <time>2010-01-01T03:18:39Z</time>
      </trkpt>
      <trkpt lat="46.16267" lon="6.83961">
        <ele>1352</ele>
        <time>2010-01-01T03:18:50Z</time>
      </trkpt>
      <trkpt lat="46.16243" lon="6.84077">
        <ele>1338</ele>
        <time>2010-01-01T03:19:24Z</time>
      </trkpt>
      <trkpt lat="46.16241" lon="6.84101">
        <ele>1336</ele>
        <time>2010-01-01T03:19:30Z</time>
      </trkpt>
      <trkpt lat="46.1624" lon="6.84106">
        <ele>1335</ele>
        <time>2010-01-01T03:19:32Z</time>
      </trkpt>
      <trkpt lat="46.16239" lon="6.8411">
        <ele>1334</ele>
        <time>2010-01-01T03:19:33Z</time>
      </trkpt>
      <trkpt lat="46.16236" lon="6.84116">
        <ele>1333</ele>
        <time>2010-01-01T03:19:35Z</time>
      </trkpt>
      <trkpt lat="46.16234" lon="6.84122">
        <ele>1333</ele>
        <time>2010-01-01T03:19:37Z</time>
      </trkpt>
      <trkpt lat="46.16232" lon="6.84129">
        <ele>1333</ele>
        <time>2010-01-01T03:19:39Z</time>
      </trkpt>
      <trkpt lat="46.16231" lon="6.84133">
        <ele>1333</ele>
        <time>2010-01-01T03:19:40Z</time>
      </trkpt>
      <trkpt lat="46.1623" lon="6.84139">
        <ele>1333</ele>
        <time>2010-01-01T03:19:42Z</time>
      </trkpt>
      <trkpt lat="46.1623" lon="6.84148">
        <ele>1335</ele>
        <time>2010-01-01T03:19:44Z</time>
      </trkpt>
      <trkpt lat="46.1623" lon="6.84152">
        <ele>1336</ele>
        <time>2010-01-01T03:19:46Z</time>
      </trkpt>
      <trkpt lat="46.16231" lon="6.84158">
        <ele>1337</ele>
        <time>2010-01-01T03:19:47Z</time>
      </trkpt>
      <trkpt lat="46.16231" lon="6.84163">
        <ele>1338</ele>
        <time>2010-01-01T03:19:49Z</time>
      </trkpt>
      <trkpt lat="46.16231" lon="6.84167">
        <ele>1338</ele>
        <time>2010-01-01T03:19:50Z</time>
      </trkpt>
      <trkpt lat="46.1623" lon="6.84172">
        <ele>1339</ele>
        <time>2010-01-01T03:19:51Z</time>
      </trkpt>
      <trkpt lat="46.16229" lon="6.84179">
        <ele>1338</ele>
        <time>2010-01-01T03:19:53Z</time>
      </trkpt>
      <trkpt lat="46.16228" lon="6.84187">
        <ele>1336</ele>
        <time>2010-01-01T03:19:55Z</time>
      </trkpt>
      <trkpt lat="46.16227" lon="6.8419">
        <ele>1336</ele>
        <time>2010-01-01T03:19:56Z</time>
      </trkpt>
      <trkpt lat="46.16226" lon="6.84194">
        <ele>1335</ele>
        <time>2010-01-01T03:19:58Z</time>
      </trkpt>
      <trkpt lat="46.16226" lon="6.84199">
        <ele>1335</ele>
        <time>2010-01-01T03:19:59Z</time>
      </trkpt>
      <trkpt lat="46.16226" lon="6.84206">
        <ele>1334</ele>
        <time>2010-01-01T03:20:01Z</time>
      </trkpt>
      <trkpt lat="46.16228" lon="6.8421">
        <ele>1335</ele>
        <time>2010-01-01T03:20:02Z</time>
      </trkpt>
      <trkpt lat="46.1623" lon="6.84213">
        <ele>1335</ele>
        <time>2010-01-01T03:20:03Z</time>
      </trkpt>
      <trkpt lat="46.16233" lon="6.8422">
        <ele>1336</ele>
        <time>2010-01-01T03:20:06Z</time>
      </trkpt>
      <trkpt lat="46.16234" lon="6.84222">
        <ele>1337</ele>
        <time>2010-01-01T03:20:06Z</time>
      </trkpt>
      <trkpt lat="46.16237" lon="6.84227">
        <ele>1338</ele>
        <time>2010-01-01T03:20:08Z</time>
      </trkpt>
      <trkpt lat="46.16238" lon="6.8423">
        <ele>1339</ele>
        <time>2010-01-01T03:20:09Z</time>
      </trkpt>
      <trkpt lat="46.16239" lon="6.84235">
        <ele>1341</ele>
        <time>2010-01-01T03:20:11Z</time>
      </trkpt>
      <trkpt lat="46.1624" lon="6.84236">
        <ele>1341</ele>
        <time>2010-01-01T03:20:11Z</time>
      </trkpt>
      <trkpt lat="46.16242" lon="6.84242">
        <ele>1344</ele>
        <time>2010-01-01T03:20:13Z</time>
      </trkpt>
      <trkpt lat="46.16243" lon="6.84245">
        <ele>1345</ele>
        <time>2010-01-01T03:20:14Z</time>
      </trkpt>
      <trkpt lat="46.16242" lon="6.84256">
        <ele>1344</ele>
        <time>2010-01-01T03:20:17Z</time>
      </trkpt>
      <trkpt lat="46.16236" lon="6.84264">
        <ele>1339</ele>
        <time>2010-01-01T03:20:20Z</time>
      </trkpt>
      <trkpt lat="46.16234" lon="6.84264">
        <ele>1338</ele>
        <time>2010-01-01T03:20:21Z</time>
      </trkpt>
      <trkpt lat="46.1623" lon="6.84267">
        <ele>1336</ele>
        <time>2010-01-01T03:20:23Z</time>
      </trkpt>
      <trkpt lat="46.16228" lon="6.84267">
        <ele>1336</ele>
        <time>2010-01-01T03:20:23Z</time>
      </trkpt>
      <trkpt lat="46.16225" lon="6.84268">
        <ele>1334</ele>
        <time>2010-01-01T03:20:25Z</time>
      </trkpt>
      <trkpt lat="46.16221" lon="6.8427">
        <ele>1333</ele>
        <time>2010-01-01T03:20:26Z</time>
      </trkpt>
      <trkpt lat="46.16219" lon="6.84271">
        <ele>1332</ele>
        <time>2010-01-01T03:20:27Z</time>
      </trkpt>
      <trkpt lat="46.16212" lon="6.84283">
        <ele>1330</ele>
        <time>2010-01-01T03:20:32Z</time>
      </trkpt>
      <trkpt lat="46.16211" lon="6.84347">
        <ele>1328</ele>
        <time>2010-01-01T03:20:49Z</time>
      </trkpt>
      <trkpt lat="46.16208" lon="6.84384">
        <ele>1327</ele>
        <time>2010-01-01T03:21:00Z</time>
      </trkpt>
      <trkpt lat="46.16208" lon="6.84386">
        <ele>1327</ele>
        <time>2010-01-01T03:21:00Z</time>
      </trkpt>
      <trkpt lat="46.1621" lon="6.84392">
        <ele>1327</ele>
        <time>2010-01-01T03:21:02Z</time>
      </trkpt>
      <trkpt lat="46.16211" lon="6.84403">
        <ele>1328</ele>
        <time>2010-01-01T03:21:05Z</time>
      </trkpt>
      <trkpt lat="46.16212" lon="6.84408">
        <ele>1328</ele>
        <time>2010-01-01T03:21:06Z</time>
      </trkpt>
      <trkpt lat="46.16211" lon="6.84413">
        <ele>1328</ele>
        <time>2010-01-01T03:21:08Z</time>
      </trkpt>
      <trkpt lat="46.16212" lon="6.84417">
        <ele>1328</ele>
        <time>2010-01-01T03:21:09Z</time>
      </trkpt>
      <trkpt lat="46.16212" lon="6.84426">
        <ele>1329</ele>
        <time>2010-01-01T03:21:12Z</time>
      </trkpt>
      <trkpt lat="46.16213" lon="6.84434">
        <ele>1329</ele>
        <time>2010-01-01T03:21:14Z</time>
      </trkpt>
      <trkpt lat="46.16212" lon="6.84442">
        <ele>1329</ele>
        <time>2010-01-01T03:21:16Z</time>
      </trkpt>
      <trkpt lat="46.16211" lon="6.84445">
        <ele>1329</ele>
        <time>2010-01-01T03:21:17Z</time>
      </trkpt>
      <trkpt lat="46.16211" lon="6.84455">
        <ele>1329</ele>
        <time>2010-01-01T03:21:20Z</time>
      </trkpt>
      <trkpt lat="46.1621" lon="6.84457">
        <ele>1329</ele>
        <time>2010-01-01T03:21:20Z</time>
      </trkpt>
      <trkpt lat="46.16209" lon="6.84467">
        <ele>1329</ele>
        <time>2010-01-01T03:21:23Z</time>
      </trkpt>
      <trkpt lat="46.16209" lon="6.84471">
        <ele>1328</ele>
        <time>2010-01-01T03:21:24Z</time>
      </trkpt>
      <trkpt lat="46.16208" lon="6.84478">
        <ele>1328</ele>
        <time>2010-01-01T03:21:26Z</time>
      </trkpt>
      <trkpt lat="46.16208" lon="6.84481">
        <ele>1328</ele>
        <time>2010-01-01T03:21:27Z</time>
      </trkpt>
      <trkpt lat="46.16208" lon="6.84519">
        <ele>1329</ele>
        <time>2010-01-01T03:21:38Z</time>
      </trkpt>
      <trkpt lat="46.16217" lon="6.8471">
        <ele>1321</ele>
        <time>2010-01-01T03:22:31Z</time>
      </trkpt>
      <trkpt lat="46.16245" lon="6.84891">
        <ele>1294</ele>
        <time>2010-01-01T03:23:22Z</time>
      </trkpt>
      <trkpt lat="46.16256" lon="6.8495">
        <ele>1310</ele>
        <time>2010-01-01T03:23:39Z</time>
      </trkpt>
      <trkpt lat="46.16257" lon="6.84955">
        <ele>1309</ele>
        <time>2010-01-01T03:23:41Z</time>
      </trkpt>
      <trkpt lat="46.16264" lon="6.84999">
        <ele>1294</ele>
        <time>2010-01-01T03:23:53Z</time>
      </trkpt>
      <trkpt lat="46.16298" lon="6.85071">
        <ele>1294</ele>
        <time>2010-01-01T03:24:17Z</time>
      </trkpt>
      <trkpt lat="46.16326" lon="6.85135">
        <ele>1275</ele>
        <time>2010-01-01T03:24:38Z</time>
      </trkpt>
      <trkpt lat="46.16348" lon="6.85192">
        <ele>1277</ele>
        <time>2010-01-01T03:24:56Z</time>
      </trkpt>
      <trkpt lat="46.1637" lon="6.85214">
        <ele>1278</ele>
        <time>2010-01-01T03:25:07Z</time>
      </trkpt>
      <trkpt lat="46.164" lon="6.8526">
        <ele>1266</ele>
        <time>2010-01-01T03:25:25Z</time>
      </trkpt>
      <trkpt lat="46.16426" lon="6.85303">
        <ele>1276</ele>
        <time>2010-01-01T03:25:40Z</time>
      </trkpt>
      <trkpt lat="46.16452" lon="6.85357">
        <ele>1259</ele>
        <time>2010-01-01T03:25:59Z</time>
      </trkpt>
      <trkpt lat="46.16488" lon="6.85418">
        <ele>1250</ele>
        <time>2010-01-01T03:26:21Z</time>
      </trkpt>
      <trkpt lat="46.16538" lon="6.85501">
        <ele>1234</ele>
        <time>2010-01-01T03:26:51Z</time>
      </trkpt>
      <trkpt lat="46.16585" lon="6.85546">
        <ele>1247</ele>
        <time>2010-01-01T03:27:14Z</time>
      </trkpt>
      <trkpt lat="46.16606" lon="6.85563">
        <ele>1246</ele>
        <time>2010-01-01T03:27:24Z</time>
      </trkpt>
      <trkpt lat="46.16604" lon="6.85596">
        <ele>1226</ele>
        <time>2010-01-01T03:27:33Z</time>
      </trkpt>
      <trkpt lat="46.16649" lon="6.85667">
        <ele>1225</ele>
        <time>2010-01-01T03:27:59Z</time>
      </trkpt>
      <trkpt lat="46.16664" lon="6.85714">
        <ele>1200</ele>
        <time>2010-01-01T03:28:14Z</time>
      </trkpt>
      <trkpt lat="46.16697" lon="6.8574">
        <ele>1222</ele>
        <time>2010-01-01T03:28:29Z</time>
      </trkpt>
      <trkpt lat="46.16755" lon="6.85823">
        <ele>1204</ele>
        <time>2010-01-01T03:29:02Z</time>
      </trkpt>
      <trkpt lat="46.16785" lon="6.85878">
        <ele>1187</ele>
        <time>2010-01-01T03:29:21Z</time>
      </trkpt>
      <trkpt lat="46.1683" lon="6.85914">
        <ele>1185</ele>
        <time>2010-01-01T03:29:42Z</time>
      </trkpt>
      <trkpt lat="46.16844" lon="6.85913">
        <ele>1193</ele>
        <time>2010-01-01T03:29:47Z</time>
      </trkpt>
      <trkpt lat="46.16844" lon="6.85977">
        <ele>1177</ele>
        <time>2010-01-01T03:30:05Z</time>
      </trkpt>
      <trkpt lat="46.16882" lon="6.86028">
        <ele>1163</ele>
        <time>2010-01-01T03:30:26Z</time>
      </trkpt>
      <trkpt lat="46.16946" lon="6.8607">
        <ele>1165</ele>
        <time>2010-01-01T03:30:54Z</time>
      </trkpt>
      <trkpt lat="46.16987" lon="6.86095">
        <ele>1151</ele>
        <time>2010-01-01T03:31:12Z</time>
      </trkpt>
      <trkpt lat="46.17021" lon="6.86111">
        <ele>1154</ele>
        <time>2010-01-01T03:31:26Z</time>
      </trkpt>
      <trkpt lat="46.17098" lon="6.86201">
        <ele>1137</ele>
        <time>2010-01-01T03:32:06Z</time>
      </trkpt>
      <trkpt lat="46.17149" lon="6.86283">
        <ele>1111</ele>
        <time>2010-01-01T03:32:36Z</time>
      </trkpt>
      <trkpt lat="46.1721" lon="6.86291">
        <ele>1116</ele>
        <time>2010-01-01T03:33:01Z</time>
      </trkpt>
      <trkpt lat="46.17249" lon="6.86279">
        <ele>1121</ele>
        <time>2010-01-01T03:33:17Z</time>
      </trkpt>
      <trkpt lat="46.17253" lon="6.86283">
        <ele>1126</ele>
        <time>2010-01-01T03:33:19Z</time>
      </trkpt>
      <trkpt lat="46.17298" lon="6.86338">
        <ele>1106</ele>
        <time>2010-01-01T03:33:42Z</time>
      </trkpt>
      <trkpt lat="46.17317" lon="6.86401">
        <ele>1100</ele>
        <time>2010-01-01T03:34:01Z</time>
      </trkpt>
      <trkpt lat="46.17356" lon="6.86425">
        <ele>1101</ele>
        <time>2010-01-01T03:34:18Z</time>
      </trkpt>
      <trkpt lat="46.17372" lon="6.86515">
        <ele>1086</ele>
        <time>2010-01-01T03:34:44Z</time>
      </trkpt>
      <trkpt lat="46.17396" lon="6.86584">
        <ele>1074</ele>
        <time>2010-01-01T03:35:05Z</time>
      </trkpt>
      <trkpt lat="46.17397" lon="6.866">
        <ele>1073</ele>
        <time>2010-01-01T03:35:10Z</time>
      </trkpt>
      <trkpt lat="46.17407" lon="6.86608">
        <ele>1073</ele>
        <time>2010-01-01T03:35:14Z</time>
      </trkpt>
      <trkpt lat="46.17426" lon="6.8662">
        <ele>1076</ele>
        <time>2010-01-01T03:35:23Z</time>
      </trkpt>
      <trkpt lat="46.17442" lon="6.86629">
        <ele>1076</ele>
        <time>2010-01-01T03:35:29Z</time>
      </trkpt>
      <trkpt lat="46.1746" lon="6.86636">
        <ele>1076</ele>
        <time>2010-01-01T03:35:37Z</time>
      </trkpt>
      <trkpt lat="46.17481" lon="6.86644">
        <ele>1075</ele>
        <time>2010-01-01T03:35:46Z</time>
      </trkpt>
      <trkpt lat="46.17503" lon="6.86651">
        <ele>1077</ele>
        <time>2010-01-01T03:35:55Z</time>
      </trkpt>
      <trkpt lat="46.17505" lon="6.86652">
        <ele>1077</ele>
        <time>2010-01-01T03:35:56Z</time>
      </trkpt>
      <trkpt lat="46.17519" lon="6.86659">
        <ele>1078</ele>
        <time>2010-01-01T03:36:02Z</time>
      </trkpt>
      <trkpt lat="46.17527" lon="6.86671">
        <ele>1068</ele>
        <time>2010-01-01T03:36:06Z</time>
      </trkpt>
      <trkpt lat="46.1752" lon="6.86679">
        <ele>1068</ele>
        <time>2010-01-01T03:36:10Z</time>
      </trkpt>
      <trkpt lat="46.17513" lon="6.86695">
        <ele>1067</ele>
        <time>2010-01-01T03:36:15Z</time>
      </trkpt>
      <trkpt lat="46.17483" lon="6.86726">
        <ele>1061</ele>
        <time>2010-01-01T03:36:30Z</time>
      </trkpt>
      <trkpt lat="46.17438" lon="6.86766">
        <ele>1055</ele>
        <time>2010-01-01T03:36:51Z</time>
      </trkpt>
      <trkpt lat="46.17434" lon="6.8678">
        <ele>1055</ele>
        <time>2010-01-01T03:36:55Z</time>
      </trkpt>
      <trkpt lat="46.17472" lon="6.86855">
        <ele>1047</ele>
        <time>2010-01-01T03:37:21Z</time>
      </trkpt>
      <trkpt lat="46.175" lon="6.86899">
        <ele>1045</ele>
        <time>2010-01-01T03:37:37Z</time>
      </trkpt>
      <trkpt lat="46.17523" lon="6.86932">
        <ele>1042</ele>
        <time>2010-01-01T03:37:50Z</time>
      </trkpt>
      <trkpt lat="46.17529" lon="6.8696">
        <ele>1041</ele>
        <time>2010-01-01T03:37:59Z</time>
      </trkpt>
      <trkpt lat="46.17515" lon="6.87021">
        <ele>1037</ele>
        <time>2010-01-01T03:38:17Z</time>
      </trkpt>
      <trkpt lat="46.17507" lon="6.87048">
        <ele>1036</ele>
        <time>2010-01-01T03:38:25Z</time>
      </trkpt>
      <trkpt lat="46.17507" lon="6.87105">
        <ele>1033</ele>
        <time>2010-01-01T03:38:40Z</time>
      </trkpt>
      <trkpt lat="46.17501" lon="6.87144">
        <ele>1032</ele>
        <time>2010-01-01T03:38:52Z</time>
      </trkpt>
      <trkpt lat="46.17481" lon="6.87111">
        <ele>1031</ele>
        <time>2010-01-01T03:39:04Z</time>
      </trkpt>
      <trkpt lat="46.17493" lon="6.8709">
        <ele>1033</ele>
        <time>2010-01-01T03:39:11Z</time>
      </trkpt>
      <trkpt lat="46.175" lon="6.87086">
        <ele>1034</ele>
        <time>2010-01-01T03:39:14Z</time>
      </trkpt>
      <trkpt lat="46.1749" lon="6.87065">
        <ele>1036</ele>
        <time>2010-01-01T03:39:22Z</time>
      </trkpt>
      <trkpt lat="46.17486" lon="6.8681">
        <ele>1053</ele>
        <time>2010-01-01T03:40:32Z</time>
      </trkpt>
      <trkpt lat="46.17481" lon="6.86446">
        <ele>1129</ele>
        <time>2010-01-01T03:42:13Z</time>
      </trkpt>
      <trkpt lat="46.17478" lon="6.86232">
        <ele>1202</ele>
        <time>2010-01-01T03:43:13Z</time>
      </trkpt>
      <trkpt lat="46.17478" lon="6.86123">
        <ele>1230</ele>
        <time>2010-01-01T03:43:43Z</time>
      </trkpt>
      <trkpt lat="46.17492" lon="6.86061">
        <ele>1259</ele>
        <time>2010-01-01T03:44:01Z</time>
      </trkpt>
      <trkpt lat="46.17494" lon="6.86037">
        <ele>1265</ele>
        <time>2010-01-01T03:44:08Z</time>
      </trkpt>
      <trkpt lat="46.17495" lon="6.86002">
        <ele>1283</ele>
        <time>2010-01-01T03:44:17Z</time>
      </trkpt>
      <trkpt lat="46.17496" lon="6.8598">
        <ele>1291</ele>
        <time>2010-01-01T03:44:23Z</time>
      </trkpt>
      <trkpt lat="46.17498" lon="6.85932">
        <ele>1306</ele>
        <time>2010-01-01T03:44:37Z</time>
      </trkpt>
      <trkpt lat="46.175" lon="6.85823">
        <ele>1347</ele>
        <time>2010-01-01T03:45:07Z</time>
      </trkpt>
      <trkpt lat="46.17512" lon="6.85483">
        <ele>1491</ele>
        <time>2010-01-01T03:46:41Z</time>
      </trkpt>
      <trkpt lat="46.17514" lon="6.8522">
        <ele>1559</ele>
        <time>2010-01-01T03:47:54Z</time>
      </trkpt>
      <trkpt lat="46.17509" lon="6.84825">
        <ele>1764</ele>
        <time>2010-01-01T03:49:44Z</time>
      </trkpt>
      <trkpt lat="46.17508" lon="6.84784">
        <ele>1788</ele>
        <time>2010-01-01T03:49:55Z</time>
      </trkpt>
      <trkpt lat="46.17508" lon="6.84695">
        <ele>1861</ele>
        <time>2010-01-01T03:50:20Z</time>
      </trkpt>
      <trkpt lat="46.17505" lon="6.84673">
        <ele>1884</ele>
        <time>2010-01-01T03:50:26Z</time>
      </trkpt>
      <trkpt lat="46.17506" lon="6.84658">
        <ele>1901</ele>
        <time>2010-01-01T03:50:30Z</time>
      </trkpt>
      <trkpt lat="46.17507" lon="6.84623">
        <ele>1910</ele>
        <time>2010-01-01T03:50:40Z</time>
      </trkpt>
      <trkpt lat="46.17509" lon="6.84617">
        <ele>1912</ele>
        <time>2010-01-01T03:50:42Z</time>
      </trkpt>
      <trkpt lat="46.17512" lon="6.84614">
        <ele>1913</ele>
        <time>2010-01-01T03:50:43Z</time>
      </trkpt>
      <trkpt lat="46.17514" lon="6.84612">
        <ele>1913</ele>
        <time>2010-01-01T03:50:44Z</time>
      </trkpt>
      <trkpt lat="46.17514" lon="6.84611">
        <ele>1914</ele>
        <time>2010-01-01T03:50:44Z</time>
      </trkpt>
      <trkpt lat="46.17514" lon="6.84605">
        <ele>1916</ele>
        <time>2010-01-01T03:50:46Z</time>
      </trkpt>
      <trkpt lat="46.17509" lon="6.84598">
        <ele>1919</ele>
        <time>2010-01-01T03:50:49Z</time>
      </trkpt>
      <trkpt lat="46.17502" lon="6.84581">
        <ele>1929</ele>
        <time>2010-01-01T03:50:54Z</time>
      </trkpt>
      <trkpt lat="46.17513" lon="6.84566">
        <ele>1929</ele>
        <time>2010-01-01T03:51:00Z</time>
      </trkpt>
      <trkpt lat="46.17515" lon="6.84533">
        <ele>1928</ele>
        <time>2010-01-01T03:51:09Z</time>
      </trkpt>
      <trkpt lat="46.17518" lon="6.84524">
        <ele>1928</ele>
        <time>2010-01-01T03:51:12Z</time>
      </trkpt>
      <trkpt lat="46.17518" lon="6.84524">
        <ele>1928</ele>
        <time>2010-01-01T03:51:12Z</time>
      </trkpt>
      <trkpt lat="46.17518" lon="6.84523">
        <ele>1927</ele>
        <time>2010-01-01T03:51:12Z</time>
      </trkpt>
      <trkpt lat="46.17522" lon="6.84511">
        <ele>1927</ele>
        <time>2010-01-01T03:51:16Z</time>
      </trkpt>
      <trkpt lat="46.17522" lon="6.84508">
        <ele>1927</ele>
        <time>2010-01-01T03:51:17Z</time>
      </trkpt>
      <trkpt lat="46.17523" lon="6.84507">
        <ele>1927</ele>
        <time>2010-01-01T03:51:17Z</time>
      </trkpt>
      <trkpt lat="46.17528" lon="6.84494">
        <ele>1921</ele>
        <time>2010-01-01T03:51:22Z</time>
      </trkpt>
      <trkpt lat="46.17529" lon="6.84492">
        <ele>1921</ele>
        <time>2010-01-01T03:51:22Z</time>
      </trkpt>
      <trkpt lat="46.17542" lon="6.84469">
        <ele>1919</ele>
        <time>2010-01-01T03:51:30Z</time>
      </trkpt>
      <trkpt lat="46.17542" lon="6.84469">
        <ele>1919</ele>
        <time>2010-01-01T03:51:30Z</time>
      </trkpt>
      <trkpt lat="46.17551" lon="6.84462">
        <ele>1919</ele>
        <time>2010-01-01T03:51:34Z</time>
      </trkpt>
      <trkpt lat="46.17559" lon="6.84451">
        <ele>1918</ele>
        <time>2010-01-01T03:51:39Z</time>
      </trkpt>
      <trkpt lat="46.17565" lon="6.84448">
        <ele>1918</ele>
        <time>2010-01-01T03:51:41Z</time>
      </trkpt>
      <trkpt lat="46.17568" lon="6.84448">
        <ele>1918</ele>
        <time>2010-01-01T03:51:43Z</time>
      </trkpt>
      <trkpt lat="46.17569" lon="6.84448">
        <ele>1918</ele>
        <time>2010-01-01T03:51:43Z</time>
      </trkpt>
      <trkpt lat="46.17572" lon="6.84441">
        <ele>1917</ele>
        <time>2010-01-01T03:51:45Z</time>
      </trkpt>
      <trkpt lat="46.17572" lon="6.84431">
        <ele>1916</ele>
        <time>2010-01-01T03:51:48Z</time>
      </trkpt>
      <trkpt lat="46.17573" lon="6.84428">
        <ele>1916</ele>
        <time>2010-01-01T03:51:49Z</time>
      </trkpt>
      <trkpt lat="46.17574" lon="6.84413">
        <ele>1911</ele>
        <time>2010-01-01T03:51:53Z</time>
      </trkpt>
      <trkpt lat="46.17574" lon="6.84413">
        <ele>1910</ele>
        <time>2010-01-01T03:51:53Z</time>
      </trkpt>
      <trkpt lat="46.17571" lon="6.84407">
        <ele>1909</ele>
        <time>2010-01-01T03:51:55Z</time>
      </trkpt>
      <trkpt lat="46.17571" lon="6.84404">
        <ele>1909</ele>
        <time>2010-01-01T03:51:56Z</time>
      </trkpt>
      <trkpt lat="46.17574" lon="6.8437">
        <ele>1904</ele>
        <time>2010-01-01T03:52:05Z</time>
      </trkpt>
      <trkpt lat="46.17575" lon="6.84347">
        <ele>1903</ele>
        <time>2010-01-01T03:52:12Z</time>
      </trkpt>
      <trkpt lat="46.1758" lon="6.84305">
        <ele>1899</ele>
        <time>2010-01-01T03:52:24Z</time>
      </trkpt>
      <trkpt lat="46.17572" lon="6.84284">
        <ele>1898</ele>
        <time>2010-01-01T03:52:30Z</time>
      </trkpt>
      <trkpt lat="46.1757" lon="6.84264">
        <ele>1899</ele>
        <time>2010-01-01T03:52:36Z</time>
      </trkpt>
      <trkpt lat="46.17565" lon="6.84244">
        <ele>1897</ele>
        <time>2010-01-01T03:52:42Z</time>
      </trkpt>
      <trkpt lat="46.17569" lon="6.84194">
        <ele>1895</ele>
        <time>2010-01-01T03:52:56Z</time>
      </trkpt>
      <trkpt lat="46.17577" lon="6.84162">
        <ele>1897</ele>
        <time>2010-01-01T03:53:05Z</time>
      </trkpt>
      <trkpt lat="46.17583" lon="6.84138">
        <ele>1891</ele>
        <time>2010-01-01T03:53:12Z</time>
      </trkpt>
      <trkpt lat="46.17588" lon="6.84109">
        <ele>1900</ele>
        <time>2010-01-01T03:53:20Z</time>
      </trkpt>
      <trkpt lat="46.17588" lon="6.84088">
        <ele>1897</ele>
        <time>2010-01-01T03:53:26Z</time>
      </trkpt>
      <trkpt lat="46.1761" lon="6.84003">
        <ele>1897</ele>
        <time>2010-01-01T03:53:51Z</time>
      </trkpt>
      <trkpt lat="46.17624" lon="6.83911">
        <ele>1882</ele>
        <time>2010-01-01T03:54:17Z</time>
      </trkpt>
      <trkpt lat="46.17634" lon="6.83854">
        <ele>1879</ele>
        <time>2010-01-01T03:54:34Z</time>
      </trkpt>
      <trkpt lat="46.17645" lon="6.8383">
        <ele>1872</ele>
        <time>2010-01-01T03:54:42Z</time>
      </trkpt>
      <trkpt lat="46.17671" lon="6.83777">
        <ele>1872</ele>
        <time>2010-01-01T03:55:00Z</time>
      </trkpt>
      <trkpt lat="46.17687" lon="6.83758">
        <ele>1870</ele>
        <time>2010-01-01T03:55:08Z</time>
      </trkpt>
      <trkpt lat="46.17702" lon="6.83752">
        <ele>1870</ele>
        <time>2010-01-01T03:55:14Z</time>
      </trkpt>
      <trkpt lat="46.1772" lon="6.8374">
        <ele>1858</ele>
        <time>2010-01-01T03:55:22Z</time>
      </trkpt>
      <trkpt lat="46.17739" lon="6.8374">
        <ele>1860</ele>
        <time>2010-01-01T03:55:30Z</time>
      </trkpt>
      <trkpt lat="46.17754" lon="6.83725">
        <ele>1856</ele>
        <time>2010-01-01T03:55:37Z</time>
      </trkpt>
      <trkpt lat="46.17765" lon="6.8371">
        <ele>1853</ele>
        <time>2010-01-01T03:55:43Z</time>
      </trkpt>
      <trkpt lat="46.17768" lon="6.83688">
        <ele>1851</ele>
        <time>2010-01-01T03:55:49Z</time>
      </trkpt>
      <trkpt lat="46.17768" lon="6.83686">
        <ele>1851</ele>
        <time>2010-01-01T03:55:50Z</time>
      </trkpt>
      <trkpt lat="46.17768" lon="6.83672">
        <ele>1850</ele>
        <time>2010-01-01T03:55:54Z</time>
      </trkpt>
      <trkpt lat="46.17754" lon="6.83653">
        <ele>1845</ele>
        <time>2010-01-01T03:56:02Z</time>
      </trkpt>
      <trkpt lat="46.17744" lon="6.83632">
        <ele>1842</ele>
        <time>2010-01-01T03:56:09Z</time>
      </trkpt>
      <trkpt lat="46.1774" lon="6.83609">
        <ele>1840</ele>
        <time>2010-01-01T03:56:15Z</time>
      </trkpt>
      <trkpt lat="46.1775" lon="6.83569">
        <ele>1833</ele>
        <time>2010-01-01T03:56:27Z</time>
      </trkpt>
      <trkpt lat="46.17759" lon="6.83538">
        <ele>1829</ele>
        <time>2010-01-01T03:56:36Z</time>
      </trkpt>
      <trkpt lat="46.17769" lon="6.83504">
        <ele>1828</ele>
        <time>2010-01-01T03:56:47Z</time>
      </trkpt>
      <trkpt lat="46.17772" lon="6.83484">
        <ele>1823</ele>
        <time>2010-01-01T03:56:52Z</time>
      </trkpt>
      <trkpt lat="46.17775" lon="6.83464">
        <ele>1821</ele>
        <time>2010-01-01T03:56:58Z</time>
      </trkpt>
      <trkpt lat="46.17778" lon="6.83437">
        <ele>1820</ele>
        <time>2010-01-01T03:57:05Z</time>
      </trkpt>
      <trkpt lat="46.17778" lon="6.83435">
        <ele>1820</ele>
        <time>2010-01-01T03:57:06Z</time>
      </trkpt>
      <trkpt lat="46.17772" lon="6.83412">
        <ele>1816</ele>
        <time>2010-01-01T03:57:13Z</time>
      </trkpt>
      <trkpt lat="46.17767" lon="6.83396">
        <ele>1816</ele>
        <time>2010-01-01T03:57:18Z</time>
      </trkpt>
      <trkpt lat="46.17757" lon="6.83371">
        <ele>1813</ele>
        <time>2010-01-01T03:57:26Z</time>
      </trkpt>
      <trkpt lat="46.17749" lon="6.83356">
        <ele>1809</ele>
        <time>2010-01-01T03:57:31Z</time>
      </trkpt>
      <trkpt lat="46.17755" lon="6.83347">
        <ele>1811</ele>
        <time>2010-01-01T03:57:34Z</time>
      </trkpt>
      <trkpt lat="46.17761" lon="6.83336">
        <ele>1811</ele>
        <time>2010-01-01T03:57:38Z</time>
      </trkpt>
      <trkpt lat="46.17769" lon="6.83316">
        <ele>1808</ele>
        <time>2010-01-01T03:57:44Z</time>
      </trkpt>
      <trkpt lat="46.17785" lon="6.83269">
        <ele>1807</ele>
        <time>2010-01-01T03:57:59Z</time>
      </trkpt>
      <trkpt lat="46.17805" lon="6.83222">
        <ele>1806</ele>
        <time>2010-01-01T03:58:14Z</time>
      </trkpt>
      <trkpt lat="46.17805" lon="6.83205">
        <ele>1806</ele>
        <time>2010-01-01T03:58:19Z</time>
      </trkpt>
      <trkpt lat="46.17821" lon="6.83135">
        <ele>1805</ele>
        <time>2010-01-01T03:58:39Z</time>
      </trkpt>
      <trkpt lat="46.17842" lon="6.83057">
        <ele>1805</ele>
        <time>2010-01-01T03:59:02Z</time>
      </trkpt>
      <trkpt lat="46.17846" lon="6.83046">
        <ele>1805</ele>
        <time>2010-01-01T03:59:06Z</time>
      </trkpt>
      <trkpt lat="46.17851" lon="6.83049">
        <ele>1804</ele>
        <time>2010-01-01T03:59:08Z</time>
      </trkpt>
      <trkpt lat="46.1786" lon="6.83049">
        <ele>1804</ele>
        <time>2010-01-01T03:59:12Z</time>
      </trkpt>
      <trkpt lat="46.1787" lon="6.83039">
        <ele>1803</ele>
        <time>2010-01-01T03:59:17Z</time>
      </trkpt>
      <trkpt lat="46.17883" lon="6.83015">
        <ele>1802</ele>
        <time>2010-01-01T03:59:25Z</time>
      </trkpt>
      <trkpt lat="46.17891" lon="6.82982">
        <ele>1804</ele>
        <time>2010-01-01T03:59:35Z</time>
      </trkpt>
      <trkpt lat="46.17896" lon="6.82958">
        <ele>1805</ele>
        <time>2010-01-01T03:59:42Z</time>
      </trkpt>
      <trkpt lat="46.17901" lon="6.8295">
        <ele>1805</ele>
        <time>2010-01-01T03:59:45Z</time>
      </trkpt>
      <trkpt lat="46.17907" lon="6.82949">
        <ele>1805</ele>
        <time>2010-01-01T03:59:47Z</time>
      </trkpt>
      <trkpt lat="46.17911" lon="6.82957">
        <ele>1805</ele>
        <time>2010-01-01T03:59:50Z</time>
      </trkpt>
      <trkpt lat="46.17915" lon="6.82976">
        <ele>1803</ele>
        <time>2010-01-01T03:59:55Z</time>
      </trkpt>
      <trkpt lat="46.17918" lon="6.82989">
        <ele>1793</ele>
        <time>2010-01-01T03:59:59Z</time>
      </trkpt>
      <trkpt lat="46.17925" lon="6.83">
        <ele>1794</ele>
        <time>2010-01-01T04:00:03Z</time>
      </trkpt>
      <trkpt lat="46.17928" lon="6.83025">
        <ele>1788</ele>
        <time>2010-01-01T04:00:10Z</time>
      </trkpt>
      <trkpt lat="46.17928" lon="6.83049">
        <ele>1787</ele>
        <time>2010-01-01T04:00:17Z</time>
      </trkpt>
      <trkpt lat="46.17928" lon="6.83068">
        <ele>1788</ele>
        <time>2010-01-01T04:00:22Z</time>
      </trkpt>
      <trkpt lat="46.17929" lon="6.83082">
        <ele>1790</ele>
        <time>2010-01-01T04:00:26Z</time>
      </trkpt>
      <trkpt lat="46.1793" lon="6.83094">
        <ele>1790</ele>
        <time>2010-01-01T04:00:29Z</time>
      </trkpt>
      <trkpt lat="46.17935" lon="6.83104">
        <ele>1788</ele>
        <time>2010-01-01T04:00:33Z</time>
      </trkpt>
      <trkpt lat="46.17939" lon="6.83104">
        <ele>1788</ele>
        <time>2010-01-01T04:00:34Z</time>
      </trkpt>
      <trkpt lat="46.1794" lon="6.83101">
        <ele>1788</ele>
        <time>2010-01-01T04:00:35Z</time>
      </trkpt>
      <trkpt lat="46.17942" lon="6.83086">
        <ele>1788</ele>
        <time>2010-01-01T04:00:39Z</time>
      </trkpt>
      <trkpt lat="46.17942" lon="6.83085">
        <ele>1788</ele>
        <time>2010-01-01T04:00:40Z</time>
      </trkpt>
      <trkpt lat="46.17942" lon="6.83084">
        <ele>1788</ele>
        <time>2010-01-01T04:00:40Z</time>
      </trkpt>
      <trkpt lat="46.17952" lon="6.83042">
        <ele>1784</ele>
        <time>2010-01-01T04:00:52Z</time>
      </trkpt>
      <trkpt lat="46.17952" lon="6.83041">
        <ele>1783</ele>
        <time>2010-01-01T04:00:53Z</time>
      </trkpt>
      <trkpt lat="46.17953" lon="6.83039">
        <ele>1783</ele>
        <time>2010-01-01T04:00:53Z</time>
      </trkpt>
      <trkpt lat="46.17962" lon="6.83006">
        <ele>1781</ele>
        <time>2010-01-01T04:01:03Z</time>
      </trkpt>
      <trkpt lat="46.17963" lon="6.83003">
        <ele>1781</ele>
        <time>2010-01-01T04:01:04Z</time>
      </trkpt>
      <trkpt lat="46.17967" lon="6.82971">
        <ele>1784</ele>
        <time>2010-01-01T04:01:13Z</time>
      </trkpt>
      <trkpt lat="46.17967" lon="6.8297">
        <ele>1784</ele>
        <time>2010-01-01T04:01:13Z</time>
      </trkpt>
      <trkpt lat="46.1797" lon="6.82948">
        <ele>1785</ele>
        <time>2010-01-01T04:01:19Z</time>
      </trkpt>
      <trkpt lat="46.17972" lon="6.82946">
        <ele>1785</ele>
        <time>2010-01-01T04:01:20Z</time>
      </trkpt>
      <trkpt lat="46.17988" lon="6.82931">
        <ele>1783</ele>
        <time>2010-01-01T04:01:28Z</time>
      </trkpt>
      <trkpt lat="46.17989" lon="6.8293">
        <ele>1783</ele>
        <time>2010-01-01T04:01:28Z</time>
      </trkpt>
      <trkpt lat="46.18017" lon="6.82929">
        <ele>1771</ele>
        <time>2010-01-01T04:01:40Z</time>
      </trkpt>
      <trkpt lat="46.18047" lon="6.82923">
        <ele>1767</ele>
        <time>2010-01-01T04:01:52Z</time>
      </trkpt>
      <trkpt lat="46.18065" lon="6.82906">
        <ele>1773</ele>
        <time>2010-01-01T04:02:01Z</time>
      </trkpt>
      <trkpt lat="46.18085" lon="6.82896">
        <ele>1764</ele>
        <time>2010-01-01T04:02:09Z</time>
      </trkpt>
      <trkpt lat="46.18101" lon="6.82898">
        <ele>1763</ele>
        <time>2010-01-01T04:02:16Z</time>
      </trkpt>
      <trkpt lat="46.1812" lon="6.82887">
        <ele>1763</ele>
        <time>2010-01-01T04:02:24Z</time>
      </trkpt>
      <trkpt lat="46.18133" lon="6.82881">
        <ele>1762</ele>
        <time>2010-01-01T04:02:29Z</time>
      </trkpt>
      <trkpt lat="46.18142" lon="6.82884">
        <ele>1761</ele>
        <time>2010-01-01T04:02:33Z</time>
      </trkpt>
      <trkpt lat="46.18143" lon="6.82904">
        <ele>1758</ele>
        <time>2010-01-01T04:02:38Z</time>
      </trkpt>
      <trkpt lat="46.18124" lon="6.82935">
        <ele>1750</ele>
        <time>2010-01-01T04:02:50Z</time>
      </trkpt>
      <trkpt lat="46.18115" lon="6.82951">
        <ele>1750</ele>
        <time>2010-01-01T04:02:56Z</time>
      </trkpt>
      <trkpt lat="46.18087" lon="6.82999">
        <ele>1749</ele>
        <time>2010-01-01T04:03:13Z</time>
      </trkpt>
      <trkpt lat="46.18077" lon="6.83031">
        <ele>1753</ele>
        <time>2010-01-01T04:03:23Z</time>
      </trkpt>
      <trkpt lat="46.18076" lon="6.83049">
        <ele>1752</ele>
        <time>2010-01-01T04:03:28Z</time>
      </trkpt>
      <trkpt lat="46.18085" lon="6.83064">
        <ele>1738</ele>
        <time>2010-01-01T04:03:33Z</time>
      </trkpt>
      <trkpt lat="46.18093" lon="6.83087">
        <ele>1737</ele>
        <time>2010-01-01T04:03:40Z</time>
      </trkpt>
      <trkpt lat="46.18098" lon="6.83103">
        <ele>1735</ele>
        <time>2010-01-01T04:03:46Z</time>
      </trkpt>
      <trkpt lat="46.18107" lon="6.83124">
        <ele>1733</ele>
        <time>2010-01-01T04:03:52Z</time>
      </trkpt>
      <trkpt lat="46.1812" lon="6.83139">
        <ele>1732</ele>
        <time>2010-01-01T04:03:59Z</time>
      </trkpt>
      <trkpt lat="46.18138" lon="6.83155">
        <ele>1728</ele>
        <time>2010-01-01T04:04:07Z</time>
      </trkpt>
      <trkpt lat="46.18147" lon="6.83171">
        <ele>1727</ele>
        <time>2010-01-01T04:04:13Z</time>
      </trkpt>
      <trkpt lat="46.18153" lon="6.83176">
        <ele>1726</ele>
        <time>2010-01-01T04:04:16Z</time>
      </trkpt>
      <trkpt lat="46.18161" lon="6.83188">
        <ele>1727</ele>
        <time>2010-01-01T04:04:20Z</time>
      </trkpt>
      <trkpt lat="46.18167" lon="6.83194">
        <ele>1716</ele>
        <time>2010-01-01T04:04:23Z</time>
      </trkpt>
      <trkpt lat="46.18176" lon="6.83195">
        <ele>1715</ele>
        <time>2010-01-01T04:04:27Z</time>
      </trkpt>
      <trkpt lat="46.18177" lon="6.83195">
        <ele>1715</ele>
        <time>2010-01-01T04:04:28Z</time>
      </trkpt>
      <trkpt lat="46.18186" lon="6.83196">
        <ele>1714</ele>
        <time>2010-01-01T04:04:31Z</time>
      </trkpt>
      <trkpt lat="46.18193" lon="6.83203">
        <ele>1714</ele>
        <time>2010-01-01T04:04:34Z</time>
      </trkpt>
      <trkpt lat="46.182" lon="6.83213">
        <ele>1713</ele>
        <time>2010-01-01T04:04:38Z</time>
      </trkpt>
      <trkpt lat="46.18208" lon="6.8322">
        <ele>1713</ele>
        <time>2010-01-01T04:04:42Z</time>
      </trkpt>
      <trkpt lat="46.18214" lon="6.83212">
        <ele>1712</ele>
        <time>2010-01-01T04:04:45Z</time>
      </trkpt>
      <trkpt lat="46.18214" lon="6.83202">
        <ele>1711</ele>
        <time>2010-01-01T04:04:48Z</time>
      </trkpt>
      <trkpt lat="46.18208" lon="6.83177">
        <ele>1712</ele>
        <time>2010-01-01T04:04:55Z</time>
      </trkpt>
      <trkpt lat="46.18205" lon="6.83169">
        <ele>1712</ele>
        <time>2010-01-01T04:04:58Z</time>
      </trkpt>
      <trkpt lat="46.18205" lon="6.83168">
        <ele>1712</ele>
        <time>2010-01-01T04:04:58Z</time>
      </trkpt>
      <trkpt lat="46.18206" lon="6.83157">
        <ele>1712</ele>
        <time>2010-01-01T04:05:01Z</time>
      </trkpt>
      <trkpt lat="46.18208" lon="6.83155">
        <ele>1711</ele>
        <time>2010-01-01T04:05:02Z</time>
      </trkpt>
      <trkpt lat="46.18242" lon="6.83131">
        <ele>1709</ele>
        <time>2010-01-01T04:05:18Z</time>
      </trkpt>
      <trkpt lat="46.18267" lon="6.83124">
        <ele>1705</ele>
        <time>2010-01-01T04:05:27Z</time>
      </trkpt>
      <trkpt lat="46.18261" lon="6.83161">
        <ele>1703</ele>
        <time>2010-01-01T04:05:38Z</time>
      </trkpt>
      <trkpt lat="46.18263" lon="6.83177">
        <ele>1700</ele>
        <time>2010-01-01T04:05:42Z</time>
      </trkpt>
      <trkpt lat="46.18267" lon="6.83196">
        <ele>1699</ele>
        <time>2010-01-01T04:05:48Z</time>
      </trkpt>
      <trkpt lat="46.18276" lon="6.83213">
        <ele>1699</ele>
        <time>2010-01-01T04:05:54Z</time>
      </trkpt>
      <trkpt lat="46.18283" lon="6.83225">
        <ele>1698</ele>
        <time>2010-01-01T04:05:58Z</time>
      </trkpt>
      <trkpt lat="46.18287" lon="6.8324">
        <ele>1698</ele>
        <time>2010-01-01T04:06:03Z</time>
      </trkpt>
      <trkpt lat="46.18294" lon="6.83258">
        <ele>1695</ele>
        <time>2010-01-01T04:06:09Z</time>
      </trkpt>
      <trkpt lat="46.18307" lon="6.83277">
        <ele>1693</ele>
        <time>2010-01-01T04:06:16Z</time>
      </trkpt>
      <trkpt lat="46.18312" lon="6.83292">
        <ele>1693</ele>
        <time>2010-01-01T04:06:20Z</time>
      </trkpt>
      <trkpt lat="46.18322" lon="6.83307">
        <ele>1691</ele>
        <time>2010-01-01T04:06:26Z</time>
      </trkpt>
      <trkpt lat="46.18334" lon="6.83324">
        <ele>1686</ele>
        <time>2010-01-01T04:06:33Z</time>
      </trkpt>
      <trkpt lat="46.18341" lon="6.83331">
        <ele>1686</ele>
        <time>2010-01-01T04:06:36Z</time>
      </trkpt>
      <trkpt lat="46.1834" lon="6.83348">
        <ele>1685</ele>
        <time>2010-01-01T04:06:41Z</time>
      </trkpt>
      <trkpt lat="46.18339" lon="6.83373">
        <ele>1684</ele>
        <time>2010-01-01T04:06:48Z</time>
      </trkpt>
      <trkpt lat="46.1834" lon="6.83392">
        <ele>1684</ele>
        <time>2010-01-01T04:06:53Z</time>
      </trkpt>
      <trkpt lat="46.18348" lon="6.83403">
        <ele>1684</ele>
        <time>2010-01-01T04:06:58Z</time>
      </trkpt>
      <trkpt lat="46.18357" lon="6.83417">
        <ele>1683</ele>
        <time>2010-01-01T04:07:03Z</time>
      </trkpt>
      <trkpt lat="46.18363" lon="6.83422">
        <ele>1683</ele>
        <time>2010-01-01T04:07:06Z</time>
      </trkpt>
      <trkpt lat="46.18369" lon="6.83426">
        <ele>1683</ele>
        <time>2010-01-01T04:07:08Z</time>
      </trkpt>
      <trkpt lat="46.18377" lon="6.83421">
        <ele>1683</ele>
        <time>2010-01-01T04:07:12Z</time>
      </trkpt>
      <trkpt lat="46.18383" lon="6.83418">
        <ele>1683</ele>
        <time>2010-01-01T04:07:14Z</time>
      </trkpt>
      <trkpt lat="46.18505" lon="6.83132">
        <ele>1727</ele>
        <time>2010-01-01T04:08:47Z</time>
      </trkpt>
      <trkpt lat="46.18619" lon="6.8287">
        <ele>1781</ele>
        <time>2010-01-01T04:10:13Z</time>
      </trkpt>
      <trkpt lat="46.18721" lon="6.82639">
        <ele>1844</ele>
        <time>2010-01-01T04:11:29Z</time>
      </trkpt>
      <trkpt lat="46.18819" lon="6.82427">
        <ele>1928</ele>
        <time>2010-01-01T04:12:40Z</time>
      </trkpt>
      <trkpt lat="46.19054" lon="6.81894">
        <ele>2128</ele>
        <time>2010-01-01T04:15:35Z</time>
      </trkpt>
      <trkpt lat="46.19195" lon="6.81587">
        <ele>2230</ele>
        <time>2010-01-01T04:17:17Z</time>
      </trkpt>
      <trkpt lat="46.19195" lon="6.81529">
        <ele>2237</ele>
        <time>2010-01-01T04:17:33Z</time>
      </trkpt>
      <trkpt lat="46.19157" lon="6.81476">
        <ele>2235</ele>
        <time>2010-01-01T04:17:54Z</time>
      </trkpt>
      <trkpt lat="46.19127" lon="6.81471">
        <ele>2230</ele>
        <time>2010-01-01T04:18:06Z</time>
      </trkpt>
      <trkpt lat="46.19093" lon="6.81477">
        <ele>2228</ele>
        <time>2010-01-01T04:18:20Z</time>
      </trkpt>
      <trkpt lat="46.19086" lon="6.81479">
        <ele>2229</ele>
        <time>2010-01-01T04:18:23Z</time>
      </trkpt>
      <trkpt lat="46.19067" lon="6.81498">
        <ele>2213</ele>
        <time>2010-01-01T04:18:32Z</time>
      </trkpt>
      <trkpt lat="46.19048" lon="6.81528">
        <ele>2217</ele>
        <time>2010-01-01T04:18:44Z</time>
      </trkpt>
      <trkpt lat="46.19037" lon="6.81554">
        <ele>2217</ele>
        <time>2010-01-01T04:18:52Z</time>
      </trkpt>
      <trkpt lat="46.19032" lon="6.81566">
        <ele>2216</ele>
        <time>2010-01-01T04:18:56Z</time>
      </trkpt>
      <trkpt lat="46.19029" lon="6.81572">
        <ele>2216</ele>
        <time>2010-01-01T04:18:58Z</time>
      </trkpt>
      <trkpt lat="46.18994" lon="6.8162">
        <ele>2199</ele>
        <time>2010-01-01T04:19:17Z</time>
      </trkpt>
      <trkpt lat="46.18994" lon="6.81621">
        <ele>2199</ele>
        <time>2010-01-01T04:19:17Z</time>
      </trkpt>
      <trkpt lat="46.18964" lon="6.81655">
        <ele>2196</ele>
        <time>2010-01-01T04:19:33Z</time>
      </trkpt>
      <trkpt lat="46.18932" lon="6.81678">
        <ele>2188</ele>
        <time>2010-01-01T04:19:47Z</time>
      </trkpt>
      <trkpt lat="46.18903" lon="6.81694">
        <ele>2174</ele>
        <time>2010-01-01T04:19:59Z</time>
      </trkpt>
      <trkpt lat="46.18887" lon="6.81698">
        <ele>2172</ele>
        <time>2010-01-01T04:20:06Z</time>
      </trkpt>
      <trkpt lat="46.18875" lon="6.81699">
        <ele>2171</ele>
        <time>2010-01-01T04:20:11Z</time>
      </trkpt>
      <trkpt lat="46.18875" lon="6.81699">
        <ele>2171</ele>
        <time>2010-01-01T04:20:11Z</time>
      </trkpt>
      <trkpt lat="46.18866" lon="6.81698">
        <ele>2170</ele>
        <time>2010-01-01T04:20:14Z</time>
      </trkpt>
      <trkpt lat="46.18856" lon="6.81701">
        <ele>2169</ele>
        <time>2010-01-01T04:20:18Z</time>
      </trkpt>
      <trkpt lat="46.18852" lon="6.8171">
        <ele>2169</ele>
        <time>2010-01-01T04:20:21Z</time>
      </trkpt>
      <trkpt lat="46.18853" lon="6.81715">
        <ele>2169</ele>
        <time>2010-01-01T04:20:23Z</time>
      </trkpt>
      <trkpt lat="46.18857" lon="6.81717">
        <ele>2169</ele>
        <time>2010-01-01T04:20:24Z</time>
      </trkpt>
      <trkpt lat="46.18866" lon="6.81716">
        <ele>2170</ele>
        <time>2010-01-01T04:20:28Z</time>
      </trkpt>
      <trkpt lat="46.18872" lon="6.81715">
        <ele>2170</ele>
        <time>2010-01-01T04:20:30Z</time>
      </trkpt>
      <trkpt lat="46.18882" lon="6.81712">
        <ele>2171</ele>
        <time>2010-01-01T04:20:34Z</time>
      </trkpt>
      <trkpt lat="46.18893" lon="6.81716">
        <ele>2171</ele>
        <time>2010-01-01T04:20:39Z</time>
      </trkpt>
      <trkpt lat="46.18903" lon="6.81721">
        <ele>2171</ele>
        <time>2010-01-01T04:20:43Z</time>
      </trkpt>
      <trkpt lat="46.18909" lon="6.81729">
        <ele>2170</ele>
        <time>2010-01-01T04:20:47Z</time>
      </trkpt>
      <trkpt lat="46.18914" lon="6.81735">
        <ele>2170</ele>
        <time>2010-01-01T04:20:49Z</time>
      </trkpt>
      <trkpt lat="46.18925" lon="6.81733">
        <ele>2179</ele>
        <time>2010-01-01T04:20:54Z</time>
      </trkpt>
      <trkpt lat="46.18935" lon="6.81733">
        <ele>2181</ele>
        <time>2010-01-01T04:20:58Z</time>
      </trkpt>
      <trkpt lat="46.18939" lon="6.81737">
        <ele>2181</ele>
        <time>2010-01-01T04:21:00Z</time>
      </trkpt>
      <trkpt lat="46.18945" lon="6.81746">
        <ele>2182</ele>
        <time>2010-01-01T04:21:03Z</time>
      </trkpt>
      <trkpt lat="46.18949" lon="6.81755">
        <ele>2161</ele>
        <time>2010-01-01T04:21:06Z</time>
      </trkpt>
      <trkpt lat="46.18953" lon="6.81765">
        <ele>2160</ele>
        <time>2010-01-01T04:21:09Z</time>
      </trkpt>
      <trkpt lat="46.1896" lon="6.8177">
        <ele>2160</ele>
        <time>2010-01-01T04:21:13Z</time>
      </trkpt>
      <trkpt lat="46.18968" lon="6.81767">
        <ele>2162</ele>
        <time>2010-01-01T04:21:16Z</time>
      </trkpt>
      <trkpt lat="46.18979" lon="6.81762">
        <ele>2167</ele>
        <time>2010-01-01T04:21:20Z</time>
      </trkpt>
      <trkpt lat="46.18989" lon="6.81764">
        <ele>2171</ele>
        <time>2010-01-01T04:21:24Z</time>
      </trkpt>
      <trkpt lat="46.18997" lon="6.81768">
        <ele>2170</ele>
        <time>2010-01-01T04:21:28Z</time>
      </trkpt>
      <trkpt lat="46.19002" lon="6.81775">
        <ele>2175</ele>
        <time>2010-01-01T04:21:30Z</time>
      </trkpt>
      <trkpt lat="46.19007" lon="6.8178">
        <ele>2173</ele>
        <time>2010-01-01T04:21:33Z</time>
      </trkpt>
      <trkpt lat="46.19011" lon="6.81792">
        <ele>2169</ele>
        <time>2010-01-01T04:21:37Z</time>
      </trkpt>
      <trkpt lat="46.19014" lon="6.81804">
        <ele>2165</ele>
        <time>2010-01-01T04:21:40Z</time>
      </trkpt>
      <trkpt lat="46.19018" lon="6.81813">
        <ele>2163</ele>
        <time>2010-01-01T04:21:43Z</time>
      </trkpt>
      <trkpt lat="46.19029" lon="6.81817">
        <ele>2163</ele>
        <time>2010-01-01T04:21:47Z</time>
      </trkpt>
      <trkpt lat="46.19037" lon="6.81807">
        <ele>2167</ele>
        <time>2010-01-01T04:21:52Z</time>
      </trkpt>
      <trkpt lat="46.19046" lon="6.81804">
        <ele>2168</ele>
        <time>2010-01-01T04:21:56Z</time>
      </trkpt>
      <trkpt lat="46.19056" lon="6.81812">
        <ele>2166</ele>
        <time>2010-01-01T04:22:00Z</time>
      </trkpt>
      <trkpt lat="46.19068" lon="6.81825">
        <ele>2163</ele>
        <time>2010-01-01T04:22:06Z</time>
      </trkpt>
      <trkpt lat="46.19073" lon="6.81835">
        <ele>2148</ele>
        <time>2010-01-01T04:22:09Z</time>
      </trkpt>
      <trkpt lat="46.19075" lon="6.81846">
        <ele>2145</ele>
        <time>2010-01-01T04:22:13Z</time>
      </trkpt>
      <trkpt lat="46.19079" lon="6.81857">
        <ele>2141</ele>
        <time>2010-01-01T04:22:16Z</time>
      </trkpt>
      <trkpt lat="46.19084" lon="6.81868">
        <ele>2139</ele>
        <time>2010-01-01T04:22:20Z</time>
      </trkpt>
      <trkpt lat="46.19092" lon="6.81881">
        <ele>2136</ele>
        <time>2010-01-01T04:22:25Z</time>
      </trkpt>
      <trkpt lat="46.19102" lon="6.81897">
        <ele>2132</ele>
        <time>2010-01-01T04:22:30Z</time>
      </trkpt>
      <trkpt lat="46.19113" lon="6.81909">
        <ele>2131</ele>
        <time>2010-01-01T04:22:36Z</time>
      </trkpt>
      <trkpt lat="46.19124" lon="6.8192">
        <ele>2117</ele>
        <time>2010-01-01T04:22:41Z</time>
      </trkpt>
      <trkpt lat="46.19135" lon="6.8193">
        <ele>2117</ele>
        <time>2010-01-01T04:22:47Z</time>
      </trkpt>
      <trkpt lat="46.19146" lon="6.81935">
        <ele>2117</ele>
        <time>2010-01-01T04:22:51Z</time>
      </trkpt>
      <trkpt lat="46.19151" lon="6.8194">
        <ele>2117</ele>
        <time>2010-01-01T04:22:54Z</time>
      </trkpt>
      <trkpt lat="46.19158" lon="6.81946">
        <ele>2117</ele>
        <time>2010-01-01T04:22:57Z</time>
      </trkpt>
      <trkpt lat="46.19164" lon="6.81966">
        <ele>2116</ele>
        <time>2010-01-01T04:23:03Z</time>
      </trkpt>
      <trkpt lat="46.19164" lon="6.8198">
        <ele>2115</ele>
        <time>2010-01-01T04:23:07Z</time>
      </trkpt>
      <trkpt lat="46.19163" lon="6.81988">
        <ele>2116</ele>
        <time>2010-01-01T04:23:09Z</time>
      </trkpt>
      <trkpt lat="46.19169" lon="6.81988">
        <ele>2110</ele>
        <time>2010-01-01T04:23:11Z</time>
      </trkpt>
      <trkpt lat="46.19179" lon="6.81977">
        <ele>2104</ele>
        <time>2010-01-01T04:23:16Z</time>
      </trkpt>
      <trkpt lat="46.19184" lon="6.81967">
        <ele>2102</ele>
        <time>2010-01-01T04:23:20Z</time>
      </trkpt>
      <trkpt lat="46.19192" lon="6.81955">
        <ele>2101</ele>
        <time>2010-01-01T04:23:24Z</time>
      </trkpt>
      <trkpt lat="46.19197" lon="6.81953">
        <ele>2099</ele>
        <time>2010-01-01T04:23:26Z</time>
      </trkpt>
      <trkpt lat="46.19194" lon="6.81969">
        <ele>2100</ele>
        <time>2010-01-01T04:23:31Z</time>
      </trkpt>
      <trkpt lat="46.19189" lon="6.81982">
        <ele>2102</ele>
        <time>2010-01-01T04:23:35Z</time>
      </trkpt>
      <trkpt lat="46.19181" lon="6.82009">
        <ele>2102</ele>
        <time>2010-01-01T04:23:43Z</time>
      </trkpt>
      <trkpt lat="46.19176" lon="6.82018">
        <ele>2100</ele>
        <time>2010-01-01T04:23:46Z</time>
      </trkpt>
      <trkpt lat="46.19172" lon="6.82024">
        <ele>2099</ele>
        <time>2010-01-01T04:23:48Z</time>
      </trkpt>
      <trkpt lat="46.19172" lon="6.82033">
        <ele>2096</ele>
        <time>2010-01-01T04:23:51Z</time>
      </trkpt>
      <trkpt lat="46.19178" lon="6.8207">
        <ele>2091</ele>
        <time>2010-01-01T04:24:01Z</time>
      </trkpt>
      <trkpt lat="46.1918" lon="6.82073">
        <ele>2091</ele>
        <time>2010-01-01T04:24:03Z</time>
      </trkpt>
      <trkpt lat="46.19181" lon="6.82074">
        <ele>2091</ele>
        <time>2010-01-01T04:24:03Z</time>
      </trkpt>
      <trkpt lat="46.19186" lon="6.82083">
        <ele>2090</ele>
        <time>2010-01-01T04:24:06Z</time>
      </trkpt>
      <trkpt lat="46.19187" lon="6.82092">
        <ele>2088</ele>
        <time>2010-01-01T04:24:09Z</time>
      </trkpt>
      <trkpt lat="46.19189" lon="6.82105">
        <ele>2086</ele>
        <time>2010-01-01T04:24:12Z</time>
      </trkpt>
      <trkpt lat="46.1919" lon="6.82115">
        <ele>2086</ele>
        <time>2010-01-01T04:24:15Z</time>
      </trkpt>
      <trkpt lat="46.19196" lon="6.82117">
        <ele>2085</ele>
        <time>2010-01-01T04:24:18Z</time>
      </trkpt>
      <trkpt lat="46.19201" lon="6.82118">
        <ele>2085</ele>
        <time>2010-01-01T04:24:20Z</time>
      </trkpt>
      <trkpt lat="46.19213" lon="6.82122">
        <ele>2084</ele>
        <time>2010-01-01T04:24:25Z</time>
      </trkpt>
      <trkpt lat="46.19219" lon="6.82126">
        <ele>2084</ele>
        <time>2010-01-01T04:24:27Z</time>
      </trkpt>
      <trkpt lat="46.19225" lon="6.82124">
        <ele>2084</ele>
        <time>2010-01-01T04:24:30Z</time>
      </trkpt>
      <trkpt lat="46.19228" lon="6.8212">
        <ele>2083</ele>
        <time>2010-01-01T04:24:31Z</time>
      </trkpt>
      <trkpt lat="46.19227" lon="6.8211">
        <ele>2082</ele>
        <time>2010-01-01T04:24:34Z</time>
      </trkpt>
      <trkpt lat="46.19225" lon="6.82091">
        <ele>2080</ele>
        <time>2010-01-01T04:24:39Z</time>
      </trkpt>
      <trkpt lat="46.19225" lon="6.82077">
        <ele>2080</ele>
        <time>2010-01-01T04:24:44Z</time>
      </trkpt>
      <trkpt lat="46.19225" lon="6.82076">
        <ele>2080</ele>
        <time>2010-01-01T04:24:44Z</time>
      </trkpt>
      <trkpt lat="46.19225" lon="6.82065">
        <ele>2081</ele>
        <time>2010-01-01T04:24:47Z</time>
      </trkpt>
      <trkpt lat="46.19227" lon="6.82057">
        <ele>2081</ele>
        <time>2010-01-01T04:24:49Z</time>
      </trkpt>
      <trkpt lat="46.19231" lon="6.82059">
        <ele>2080</ele>
        <time>2010-01-01T04:24:51Z</time>
      </trkpt>
      <trkpt lat="46.19236" lon="6.82068">
        <ele>2078</ele>
        <time>2010-01-01T04:24:54Z</time>
      </trkpt>
      <trkpt lat="46.19238" lon="6.82074">
        <ele>2076</ele>
        <time>2010-01-01T04:24:56Z</time>
      </trkpt>
      <trkpt lat="46.19239" lon="6.82074">
        <ele>2076</ele>
        <time>2010-01-01T04:24:56Z</time>
      </trkpt>
      <trkpt lat="46.1924" lon="6.82075">
        <ele>2075</ele>
        <time>2010-01-01T04:24:57Z</time>
      </trkpt>
      <trkpt lat="46.1924" lon="6.82076">
        <ele>2075</ele>
        <time>2010-01-01T04:24:57Z</time>
      </trkpt>
      <trkpt lat="46.19241" lon="6.82077">
        <ele>2074</ele>
        <time>2010-01-01T04:24:57Z</time>
      </trkpt>
      <trkpt lat="46.19242" lon="6.82078">
        <ele>2073</ele>
        <time>2010-01-01T04:24:58Z</time>
      </trkpt>
      <trkpt lat="46.19242" lon="6.82079">
        <ele>2073</ele>
        <time>2010-01-01T04:24:58Z</time>
      </trkpt>
      <trkpt lat="46.19243" lon="6.8208">
        <ele>2073</ele>
        <time>2010-01-01T04:24:59Z</time>
      </trkpt>
      <trkpt lat="46.19244" lon="6.82082">
        <ele>2072</ele>
        <time>2010-01-01T04:24:59Z</time>
      </trkpt>
      <trkpt lat="46.19245" lon="6.82083">
        <ele>2071</ele>
        <time>2010-01-01T04:25:00Z</time>
      </trkpt>
      <trkpt lat="46.19245" lon="6.82084">
        <ele>2071</ele>
        <time>2010-01-01T04:25:00Z</time>
      </trkpt>
      <trkpt lat="46.19246" lon="6.82085">
        <ele>2071</ele>
        <time>2010-01-01T04:25:00Z</time>
      </trkpt>
      <trkpt lat="46.19247" lon="6.82085">
        <ele>2070</ele>
        <time>2010-01-01T04:25:01Z</time>
      </trkpt>
      <trkpt lat="46.19247" lon="6.82085">
        <ele>2070</ele>
        <time>2010-01-01T04:25:01Z</time>
      </trkpt>
      <trkpt lat="46.1926" lon="6.821">
        <ele>2073</ele>
        <time>2010-01-01T04:25:07Z</time>
      </trkpt>
      <trkpt lat="46.19278" lon="6.82108">
        <ele>2075</ele>
        <time>2010-01-01T04:25:15Z</time>
      </trkpt>
      <trkpt lat="46.1929" lon="6.82106">
        <ele>2074</ele>
        <time>2010-01-01T04:25:20Z</time>
      </trkpt>
      <trkpt lat="46.19309" lon="6.82094">
        <ele>2070</ele>
        <time>2010-01-01T04:25:28Z</time>
      </trkpt>
      <trkpt lat="46.19329" lon="6.82093">
        <ele>2064</ele>
        <time>2010-01-01T04:25:36Z</time>
      </trkpt>
      <trkpt lat="46.19349" lon="6.82092">
        <ele>2063</ele>
        <time>2010-01-01T04:25:44Z</time>
      </trkpt>
      <trkpt lat="46.19373" lon="6.82079">
        <ele>2046</ele>
        <time>2010-01-01T04:25:54Z</time>
      </trkpt>
      <trkpt lat="46.19376" lon="6.82077">
        <ele>2046</ele>
        <time>2010-01-01T04:25:56Z</time>
      </trkpt>
      <trkpt lat="46.19376" lon="6.82076">
        <ele>2046</ele>
        <time>2010-01-01T04:25:56Z</time>
      </trkpt>
      <trkpt lat="46.19377" lon="6.82075">
        <ele>2046</ele>
        <time>2010-01-01T04:25:56Z</time>
      </trkpt>
      <trkpt lat="46.19378" lon="6.82075">
        <ele>2045</ele>
        <time>2010-01-01T04:25:57Z</time>
      </trkpt>
      <trkpt lat="46.19379" lon="6.82074">
        <ele>2045</ele>
        <time>2010-01-01T04:25:57Z</time>
      </trkpt>
      <trkpt lat="46.1938" lon="6.82074">
        <ele>2045</ele>
        <time>2010-01-01T04:25:57Z</time>
      </trkpt>
      <trkpt lat="46.1938" lon="6.82073">
        <ele>2045</ele>
        <time>2010-01-01T04:25:58Z</time>
      </trkpt>
      <trkpt lat="46.19381" lon="6.82073">
        <ele>2045</ele>
        <time>2010-01-01T04:25:58Z</time>
      </trkpt>
      <trkpt lat="46.19382" lon="6.82072">
        <ele>2045</ele>
        <time>2010-01-01T04:25:59Z</time>
      </trkpt>
      <trkpt lat="46.19383" lon="6.82071">
        <ele>2045</ele>
        <time>2010-01-01T04:25:59Z</time>
      </trkpt>
      <trkpt lat="46.19385" lon="6.8207">
        <ele>2045</ele>
        <time>2010-01-01T04:26:00Z</time>
      </trkpt>
      <trkpt lat="46.19387" lon="6.82069">
        <ele>2045</ele>
        <time>2010-01-01T04:26:01Z</time>
      </trkpt>
      <trkpt lat="46.19389" lon="6.82068">
        <ele>2044</ele>
        <time>2010-01-01T04:26:02Z</time>
      </trkpt>
      <trkpt lat="46.1939" lon="6.82068">
        <ele>2044</ele>
        <time>2010-01-01T04:26:02Z</time>
      </trkpt>
      <trkpt lat="46.19391" lon="6.82067">
        <ele>2044</ele>
        <time>2010-01-01T04:26:02Z</time>
      </trkpt>
      <trkpt lat="46.19393" lon="6.82067">
        <ele>2044</ele>
        <time>2010-01-01T04:26:03Z</time>
      </trkpt>
      <trkpt lat="46.19394" lon="6.82066">
        <ele>2044</ele>
        <time>2010-01-01T04:26:04Z</time>
      </trkpt>
      <trkpt lat="46.19394" lon="6.82066">
        <ele>2044</ele>
        <time>2010-01-01T04:26:04Z</time>
      </trkpt>
      <trkpt lat="46.19396" lon="6.82066">
        <ele>2044</ele>
        <time>2010-01-01T04:26:05Z</time>
      </trkpt>
      <trkpt lat="46.19398" lon="6.82065">
        <ele>2044</ele>
        <time>2010-01-01T04:26:06Z</time>
      </trkpt>
      <trkpt lat="46.19401" lon="6.82063">
        <ele>2044</ele>
        <time>2010-01-01T04:26:07Z</time>
      </trkpt>
      <trkpt lat="46.19401" lon="6.82063">
        <ele>2044</ele>
        <time>2010-01-01T04:26:07Z</time>
      </trkpt>
      <trkpt lat="46.19403" lon="6.82063">
        <ele>2044</ele>
        <time>2010-01-01T04:26:07Z</time>
      </trkpt>
      <trkpt lat="46.19404" lon="6.82062">
        <ele>2044</ele>
        <time>2010-01-01T04:26:08Z</time>
      </trkpt>
      <trkpt lat="46.19405" lon="6.82061">
        <ele>2044</ele>
        <time>2010-01-01T04:26:08Z</time>
      </trkpt>
      <trkpt lat="46.19406" lon="6.82061">
        <ele>2044</ele>
        <time>2010-01-01T04:26:09Z</time>
      </trkpt>
      <trkpt lat="46.19407" lon="6.82061">
        <ele>2044</ele>
        <time>2010-01-01T04:26:09Z</time>
      </trkpt>
      <trkpt lat="46.19409" lon="6.8206">
        <ele>2043</ele>
        <time>2010-01-01T04:26:10Z</time>
      </trkpt>
      <trkpt lat="46.19411" lon="6.82059">
        <ele>2043</ele>
        <time>2010-01-01T04:26:11Z</time>
      </trkpt>
      <trkpt lat="46.19413" lon="6.82058">
        <ele>2043</ele>
        <time>2010-01-01T04:26:12Z</time>
      </trkpt>
      <trkpt lat="46.19414" lon="6.82057">
        <ele>2043</ele>
        <time>2010-01-01T04:26:12Z</time>
      </trkpt>
      <trkpt lat="46.19415" lon="6.82057">
        <ele>2043</ele>
        <time>2010-01-01T04:26:13Z</time>
      </trkpt>
      <trkpt lat="46.19416" lon="6.82056">
        <ele>2043</ele>
        <time>2010-01-01T04:26:13Z</time>
      </trkpt>
      <trkpt lat="46.19417" lon="6.82056">
        <ele>2043</ele>
        <time>2010-01-01T04:26:13Z</time>
      </trkpt>
      <trkpt lat="46.19417" lon="6.82056">
        <ele>2037</ele>
        <time>2010-01-01T04:26:13Z</time>
      </trkpt>
      <trkpt lat="46.19419" lon="6.82055">
        <ele>2036</ele>
        <time>2010-01-01T04:26:14Z</time>
      </trkpt>
      <trkpt lat="46.1942" lon="6.82055">
        <ele>2036</ele>
        <time>2010-01-01T04:26:15Z</time>
      </trkpt>
      <trkpt lat="46.1942" lon="6.82055">
        <ele>2036</ele>
        <time>2010-01-01T04:26:15Z</time>
      </trkpt>
      <trkpt lat="46.19421" lon="6.82055">
        <ele>2036</ele>
        <time>2010-01-01T04:26:15Z</time>
      </trkpt>
      <trkpt lat="46.19423" lon="6.82055">
        <ele>2036</ele>
        <time>2010-01-01T04:26:16Z</time>
      </trkpt>
      <trkpt lat="46.19424" lon="6.82055">
        <ele>2036</ele>
        <time>2010-01-01T04:26:16Z</time>
      </trkpt>
      <trkpt lat="46.19426" lon="6.82056">
        <ele>2036</ele>
        <time>2010-01-01T04:26:17Z</time>
      </trkpt>
      <trkpt lat="46.19426" lon="6.82056">
        <ele>2036</ele>
        <time>2010-01-01T04:26:17Z</time>
      </trkpt>
      <trkpt lat="46.19428" lon="6.82056">
        <ele>2036</ele>
        <time>2010-01-01T04:26:18Z</time>
      </trkpt>
      <trkpt lat="46.1943" lon="6.82057">
        <ele>2036</ele>
        <time>2010-01-01T04:26:19Z</time>
      </trkpt>
      <trkpt lat="46.19431" lon="6.82057">
        <ele>2036</ele>
        <time>2010-01-01T04:26:19Z</time>
      </trkpt>
      <trkpt lat="46.19433" lon="6.82057">
        <ele>2036</ele>
        <time>2010-01-01T04:26:20Z</time>
      </trkpt>
      <trkpt lat="46.19434" lon="6.82057">
        <ele>2036</ele>
        <time>2010-01-01T04:26:20Z</time>
      </trkpt>
      <trkpt lat="46.19436" lon="6.82057">
        <ele>2036</ele>
        <time>2010-01-01T04:26:21Z</time>
      </trkpt>
      <trkpt lat="46.19438" lon="6.82058">
        <ele>2036</ele>
        <time>2010-01-01T04:26:22Z</time>
      </trkpt>
      <trkpt lat="46.19438" lon="6.82058">
        <ele>2036</ele>
        <time>2010-01-01T04:26:22Z</time>
      </trkpt>
      <trkpt lat="46.1944" lon="6.82058">
        <ele>2036</ele>
        <time>2010-01-01T04:26:23Z</time>
      </trkpt>
      <trkpt lat="46.19442" lon="6.82057">
        <ele>2035</ele>
        <time>2010-01-01T04:26:23Z</time>
      </trkpt>
      <trkpt lat="46.19443" lon="6.82058">
        <ele>2035</ele>
        <time>2010-01-01T04:26:24Z</time>
      </trkpt>
      <trkpt lat="46.19443" lon="6.82058">
        <ele>2035</ele>
        <time>2010-01-01T04:26:24Z</time>
      </trkpt>
      <trkpt lat="46.19451" lon="6.82055">
        <ele>2034</ele>
        <time>2010-01-01T04:26:27Z</time>
      </trkpt>
      <trkpt lat="46.19474" lon="6.82051">
        <ele>2032</ele>
        <time>2010-01-01T04:26:36Z</time>
      </trkpt>
      <trkpt lat="46.19489" lon="6.8204">
        <ele>2030</ele>
        <time>2010-01-01T04:26:43Z</time>
      </trkpt>
      <trkpt lat="46.19504" lon="6.82033">
        <ele>2027</ele>
        <time>2010-01-01T04:26:49Z</time>
      </trkpt>
      <trkpt lat="46.19544" lon="6.82008">
        <ele>2025</ele>
        <time>2010-01-01T04:27:07Z</time>
      </trkpt>
      <trkpt lat="46.19607" lon="6.81961">
        <ele>2012</ele>
        <time>2010-01-01T04:27:35Z</time>
      </trkpt>
      <trkpt lat="46.19639" lon="6.81918">
        <ele>2010</ele>
        <time>2010-01-01T04:27:53Z</time>
      </trkpt>
      <trkpt lat="46.19643" lon="6.81903">
        <ele>1998</ele>
        <time>2010-01-01T04:27:57Z</time>
      </trkpt>
      <trkpt lat="46.1965" lon="6.81883">
        <ele>1996</ele>
        <time>2010-01-01T04:28:03Z</time>
      </trkpt>
      <trkpt lat="46.19673" lon="6.81825">
        <ele>1998</ele>
        <time>2010-01-01T04:28:22Z</time>
      </trkpt>
      <trkpt lat="46.1969" lon="6.8179">
        <ele>2001</ele>
        <time>2010-01-01T04:28:34Z</time>
      </trkpt>
      <trkpt lat="46.19699" lon="6.81752">
        <ele>1998</ele>
        <time>2010-01-01T04:28:45Z</time>
      </trkpt>
      <trkpt lat="46.19699" lon="6.81748">
        <ele>1990</ele>
        <time>2010-01-01T04:28:46Z</time>
      </trkpt>
      <trkpt lat="46.19708" lon="6.81699">
        <ele>1989</ele>
        <time>2010-01-01T04:29:00Z</time>
      </trkpt>
      <trkpt lat="46.19708" lon="6.81697">
        <ele>1989</ele>
        <time>2010-01-01T04:29:01Z</time>
      </trkpt>
      <trkpt lat="46.19705" lon="6.81665">
        <ele>1982</ele>
        <time>2010-01-01T04:29:09Z</time>
      </trkpt>
      <trkpt lat="46.1971" lon="6.81606">
        <ele>1981</ele>
        <time>2010-01-01T04:29:26Z</time>
      </trkpt>
      <trkpt lat="46.19712" lon="6.81581">
        <ele>1978</ele>
        <time>2010-01-01T04:29:33Z</time>
      </trkpt>
      <trkpt lat="46.19716" lon="6.81557">
        <ele>1978</ele>
        <time>2010-01-01T04:29:40Z</time>
      </trkpt>
      <trkpt lat="46.19711" lon="6.81546">
        <ele>1978</ele>
        <time>2010-01-01T04:29:43Z</time>
      </trkpt>
      <trkpt lat="46.19702" lon="6.8154">
        <ele>1978</ele>
        <time>2010-01-01T04:29:47Z</time>
      </trkpt>
      <trkpt lat="46.19695" lon="6.81526">
        <ele>1978</ele>
        <time>2010-01-01T04:29:52Z</time>
      </trkpt>
      <trkpt lat="46.19695" lon="6.81509">
        <ele>1978</ele>
        <time>2010-01-01T04:29:57Z</time>
      </trkpt>
      <trkpt lat="46.19693" lon="6.81495">
        <ele>1979</ele>
        <time>2010-01-01T04:30:01Z</time>
      </trkpt>
      <trkpt lat="46.19691" lon="6.81486">
        <ele>1979</ele>
        <time>2010-01-01T04:30:03Z</time>
      </trkpt>
      <trkpt lat="46.19682" lon="6.81469">
        <ele>1979</ele>
        <time>2010-01-01T04:30:09Z</time>
      </trkpt>
      <trkpt lat="46.19679" lon="6.81463">
        <ele>1979</ele>
        <time>2010-01-01T04:30:11Z</time>
      </trkpt>
      <trkpt lat="46.19676" lon="6.81459">
        <ele>1979</ele>
        <time>2010-01-01T04:30:13Z</time>
      </trkpt>
      <trkpt lat="46.1968" lon="6.81442">
        <ele>1980</ele>
        <time>2010-01-01T04:30:18Z</time>
      </trkpt>
      <trkpt lat="46.19683" lon="6.8143">
        <ele>1980</ele>
        <time>2010-01-01T04:30:21Z</time>
      </trkpt>
      <trkpt lat="46.1968" lon="6.81401">
        <ele>1980</ele>
        <time>2010-01-01T04:30:30Z</time>
      </trkpt>
      <trkpt lat="46.19671" lon="6.81379">
        <ele>1980</ele>
        <time>2010-01-01T04:30:37Z</time>
      </trkpt>
      <trkpt lat="46.19662" lon="6.81351">
        <ele>1984</ele>
        <time>2010-01-01T04:30:45Z</time>
      </trkpt>
      <trkpt lat="46.19656" lon="6.81327">
        <ele>1985</ele>
        <time>2010-01-01T04:30:52Z</time>
      </trkpt>
      <trkpt lat="46.19654" lon="6.81314">
        <ele>1985</ele>
        <time>2010-01-01T04:30:56Z</time>
      </trkpt>
      <trkpt lat="46.19661" lon="6.81306">
        <ele>1985</ele>
        <time>2010-01-01T04:30:59Z</time>
      </trkpt>
      <trkpt lat="46.19668" lon="6.81301">
        <ele>1977</ele>
        <time>2010-01-01T04:31:03Z</time>
      </trkpt>
      <trkpt lat="46.19677" lon="6.8129">
        <ele>1976</ele>
        <time>2010-01-01T04:31:07Z</time>
      </trkpt>
      <trkpt lat="46.19691" lon="6.81294">
        <ele>1976</ele>
        <time>2010-01-01T04:31:13Z</time>
      </trkpt>
      <trkpt lat="46.19743" lon="6.81286">
        <ele>1974</ele>
        <time>2010-01-01T04:31:34Z</time>
      </trkpt>
      <trkpt lat="46.19753" lon="6.81283">
        <ele>1967</ele>
        <time>2010-01-01T04:31:38Z</time>
      </trkpt>
      <trkpt lat="46.19769" lon="6.81259">
        <ele>1967</ele>
        <time>2010-01-01T04:31:47Z</time>
      </trkpt>
      <trkpt lat="46.19783" lon="6.81241">
        <ele>1965</ele>
        <time>2010-01-01T04:31:55Z</time>
      </trkpt>
      <trkpt lat="46.19783" lon="6.8124">
        <ele>1965</ele>
        <time>2010-01-01T04:31:55Z</time>
      </trkpt>
      <trkpt lat="46.19784" lon="6.81237">
        <ele>1965</ele>
        <time>2010-01-01T04:31:56Z</time>
      </trkpt>
      <trkpt lat="46.19813" lon="6.81189">
        <ele>1964</ele>
        <time>2010-01-01T04:32:14Z</time>
      </trkpt>
      <trkpt lat="46.19818" lon="6.81176">
        <ele>1964</ele>
        <time>2010-01-01T04:32:18Z</time>
      </trkpt>
      <trkpt lat="46.1982" lon="6.81163">
        <ele>1965</ele>
        <time>2010-01-01T04:32:21Z</time>
      </trkpt>
      <trkpt lat="46.19808" lon="6.81147">
        <ele>1966</ele>
        <time>2010-01-01T04:32:28Z</time>
      </trkpt>
      <trkpt lat="46.19799" lon="6.81133">
        <ele>1967</ele>
        <time>2010-01-01T04:32:33Z</time>
      </trkpt>
      <trkpt lat="46.19798" lon="6.81131">
        <ele>1967</ele>
        <time>2010-01-01T04:32:34Z</time>
      </trkpt>
      <trkpt lat="46.19792" lon="6.81122">
        <ele>1967</ele>
        <time>2010-01-01T04:32:38Z</time>
      </trkpt>
      <trkpt lat="46.19789" lon="6.8111">
        <ele>1968</ele>
        <time>2010-01-01T04:32:41Z</time>
      </trkpt>
      <trkpt lat="46.19789" lon="6.81099">
        <ele>1968</ele>
        <time>2010-01-01T04:32:44Z</time>
      </trkpt>
      <trkpt lat="46.19782" lon="6.81088">
        <ele>1968</ele>
        <time>2010-01-01T04:32:48Z</time>
      </trkpt>
      <trkpt lat="46.19773" lon="6.81078">
        <ele>1969</ele>
        <time>2010-01-01T04:32:53Z</time>
      </trkpt>
      <trkpt lat="46.19774" lon="6.81059">
        <ele>1969</ele>
        <time>2010-01-01T04:32:58Z</time>
      </trkpt>
      <trkpt lat="46.19778" lon="6.81048">
        <ele>1969</ele>
        <time>2010-01-01T04:33:02Z</time>
      </trkpt>
      <trkpt lat="46.19781" lon="6.8103">
        <ele>1968</ele>
        <time>2010-01-01T04:33:07Z</time>
      </trkpt>
      <trkpt lat="46.19795" lon="6.81013">
        <ele>1968</ele>
        <time>2010-01-01T04:33:14Z</time>
      </trkpt>
      <trkpt lat="46.19803" lon="6.80997">
        <ele>1969</ele>
        <time>2010-01-01T04:33:19Z</time>
      </trkpt>
      <trkpt lat="46.19803" lon="6.80979">
        <ele>1970</ele>
        <time>2010-01-01T04:33:24Z</time>
      </trkpt>
      <trkpt lat="46.19802" lon="6.80977">
        <ele>1970</ele>
        <time>2010-01-01T04:33:25Z</time>
      </trkpt>
      <trkpt lat="46.19796" lon="6.80962">
        <ele>1971</ele>
        <time>2010-01-01T04:33:30Z</time>
      </trkpt>
      <trkpt lat="46.19792" lon="6.80944">
        <ele>1971</ele>
        <time>2010-01-01T04:33:35Z</time>
      </trkpt>
      <trkpt lat="46.19784" lon="6.8093">
        <ele>1972</ele>
        <time>2010-01-01T04:33:40Z</time>
      </trkpt>
      <trkpt lat="46.19779" lon="6.80916">
        <ele>1976</ele>
        <time>2010-01-01T04:33:45Z</time>
      </trkpt>
      <trkpt lat="46.19774" lon="6.80905">
        <ele>1976</ele>
        <time>2010-01-01T04:33:48Z</time>
      </trkpt>
      <trkpt lat="46.19778" lon="6.80898">
        <ele>1976</ele>
        <time>2010-01-01T04:33:51Z</time>
      </trkpt>
      <trkpt lat="46.19782" lon="6.80886">
        <ele>1976</ele>
        <time>2010-01-01T04:33:54Z</time>
      </trkpt>
      <trkpt lat="46.19784" lon="6.80878">
        <ele>1977</ele>
        <time>2010-01-01T04:33:57Z</time>
      </trkpt>
      <trkpt lat="46.19787" lon="6.80864">
        <ele>1977</ele>
        <time>2010-01-01T04:34:01Z</time>
      </trkpt>
      <trkpt lat="46.19784" lon="6.80857">
        <ele>1977</ele>
        <time>2010-01-01T04:34:03Z</time>
      </trkpt>
      <trkpt lat="46.19783" lon="6.80848">
        <ele>1978</ele>
        <time>2010-01-01T04:34:05Z</time>
      </trkpt>
      <trkpt lat="46.19777" lon="6.80843">
        <ele>1978</ele>
        <time>2010-01-01T04:34:08Z</time>
      </trkpt>
      <trkpt lat="46.19769" lon="6.8084">
        <ele>1978</ele>
        <time>2010-01-01T04:34:11Z</time>
      </trkpt>
      <trkpt lat="46.19762" lon="6.80835">
        <ele>1978</ele>
        <time>2010-01-01T04:34:14Z</time>
      </trkpt>
      <trkpt lat="46.19758" lon="6.80826">
        <ele>1981</ele>
        <time>2010-01-01T04:34:17Z</time>
      </trkpt>
      <trkpt lat="46.19758" lon="6.80825">
        <ele>1982</ele>
        <time>2010-01-01T04:34:18Z</time>
      </trkpt>
      <trkpt lat="46.19759" lon="6.8081">
        <ele>1984</ele>
        <time>2010-01-01T04:34:22Z</time>
      </trkpt>
      <trkpt lat="46.1976" lon="6.80798">
        <ele>1985</ele>
        <time>2010-01-01T04:34:25Z</time>
      </trkpt>
      <trkpt lat="46.19758" lon="6.80792">
        <ele>1986</ele>
        <time>2010-01-01T04:34:27Z</time>
      </trkpt>
      <trkpt lat="46.19756" lon="6.80786">
        <ele>1986</ele>
        <time>2010-01-01T04:34:29Z</time>
      </trkpt>
      <trkpt lat="46.19748" lon="6.80772">
        <ele>1988</ele>
        <time>2010-01-01T04:34:34Z</time>
      </trkpt>
      <trkpt lat="46.19745" lon="6.80765">
        <ele>1989</ele>
        <time>2010-01-01T04:34:36Z</time>
      </trkpt>
      <trkpt lat="46.19742" lon="6.80759">
        <ele>1989</ele>
        <time>2010-01-01T04:34:38Z</time>
      </trkpt>
      <trkpt lat="46.19738" lon="6.80743">
        <ele>1993</ele>
        <time>2010-01-01T04:34:43Z</time>
      </trkpt>
      <trkpt lat="46.19737" lon="6.80739">
        <ele>1993</ele>
        <time>2010-01-01T04:34:44Z</time>
      </trkpt>
      <trkpt lat="46.19735" lon="6.80735">
        <ele>1994</ele>
        <time>2010-01-01T04:34:46Z</time>
      </trkpt>
      <trkpt lat="46.19732" lon="6.80726">
        <ele>1995</ele>
        <time>2010-01-01T04:34:48Z</time>
      </trkpt>
      <trkpt lat="46.19727" lon="6.80719">
        <ele>1995</ele>
        <time>2010-01-01T04:34:51Z</time>
      </trkpt>
      <trkpt lat="46.19718" lon="6.80712">
        <ele>1996</ele>
        <time>2010-01-01T04:34:55Z</time>
      </trkpt>
      <trkpt lat="46.19712" lon="6.80706">
        <ele>1996</ele>
        <time>2010-01-01T04:34:58Z</time>
      </trkpt>
      <trkpt lat="46.19706" lon="6.80697">
        <ele>1996</ele>
        <time>2010-01-01T04:35:01Z</time>
      </trkpt>
      <trkpt lat="46.19702" lon="6.80692">
        <ele>1997</ele>
        <time>2010-01-01T04:35:04Z</time>
      </trkpt>
      <trkpt lat="46.19701" lon="6.80677">
        <ele>1997</ele>
        <time>2010-01-01T04:35:08Z</time>
      </trkpt>
      <trkpt lat="46.19702" lon="6.80662">
        <ele>2000</ele>
        <time>2010-01-01T04:35:12Z</time>
      </trkpt>
      <trkpt lat="46.19703" lon="6.8065">
        <ele>2000</ele>
        <time>2010-01-01T04:35:15Z</time>
      </trkpt>
      <trkpt lat="46.197" lon="6.80638">
        <ele>2000</ele>
        <time>2010-01-01T04:35:19Z</time>
      </trkpt>
      <trkpt lat="46.19697" lon="6.8063">
        <ele>2000</ele>
        <time>2010-01-01T04:35:21Z</time>
      </trkpt>
      <trkpt lat="46.19697" lon="6.80619">
        <ele>2000</ele>
        <time>2010-01-01T04:35:24Z</time>
      </trkpt>
      <trkpt lat="46.19696" lon="6.80616">
        <ele>2000</ele>
        <time>2010-01-01T04:35:25Z</time>
      </trkpt>
      <trkpt lat="46.19692" lon="6.80601">
        <ele>2000</ele>
        <time>2010-01-01T04:35:30Z</time>
      </trkpt>
      <trkpt lat="46.19693" lon="6.80579">
        <ele>1999</ele>
        <time>2010-01-01T04:35:36Z</time>
      </trkpt>
      <trkpt lat="46.1969" lon="6.80561">
        <ele>1999</ele>
        <time>2010-01-01T04:35:41Z</time>
      </trkpt>
      <trkpt lat="46.19692" lon="6.80541">
        <ele>1999</ele>
        <time>2010-01-01T04:35:47Z</time>
      </trkpt>
      <trkpt lat="46.19699" lon="6.8053">
        <ele>1999</ele>
        <time>2010-01-01T04:35:50Z</time>
      </trkpt>
      <trkpt lat="46.197" lon="6.80509">
        <ele>1999</ele>
        <time>2010-01-01T04:35:56Z</time>
      </trkpt>
      <trkpt lat="46.19702" lon="6.80493">
        <ele>1994</ele>
        <time>2010-01-01T04:36:01Z</time>
      </trkpt>
      <trkpt lat="46.19707" lon="6.80478">
        <ele>1994</ele>
        <time>2010-01-01T04:36:06Z</time>
      </trkpt>
      <trkpt lat="46.19718" lon="6.80464">
        <ele>1994</ele>
        <time>2010-01-01T04:36:12Z</time>
      </trkpt>
      <trkpt lat="46.19737" lon="6.80438">
        <ele>1994</ele>
        <time>2010-01-01T04:36:22Z</time>
      </trkpt>
      <trkpt lat="46.19754" lon="6.80415">
        <ele>1998</ele>
        <time>2010-01-01T04:36:31Z</time>
      </trkpt>
      <trkpt lat="46.1976" lon="6.80401">
        <ele>1998</ele>
        <time>2010-01-01T04:36:36Z</time>
      </trkpt>
      <trkpt lat="46.19771" lon="6.80374">
        <ele>1997</ele>
        <time>2010-01-01T04:36:44Z</time>
      </trkpt>
      <trkpt lat="46.19789" lon="6.80339">
        <ele>1997</ele>
        <time>2010-01-01T04:36:56Z</time>
      </trkpt>
      <trkpt lat="46.19801" lon="6.80314">
        <ele>1988</ele>
        <time>2010-01-01T04:37:05Z</time>
      </trkpt>
      <trkpt lat="46.19808" lon="6.80289">
        <ele>1986</ele>
        <time>2010-01-01T04:37:12Z</time>
      </trkpt>
      <trkpt lat="46.19809" lon="6.80273">
        <ele>1985</ele>
        <time>2010-01-01T04:37:17Z</time>
      </trkpt>
      <trkpt lat="46.19814" lon="6.8026">
        <ele>1985</ele>
        <time>2010-01-01T04:37:21Z</time>
      </trkpt>
      <trkpt lat="46.19819" lon="6.80249">
        <ele>1980</ele>
        <time>2010-01-01T04:37:25Z</time>
      </trkpt>
      <trkpt lat="46.19822" lon="6.80237">
        <ele>1979</ele>
        <time>2010-01-01T04:37:28Z</time>
      </trkpt>
      <trkpt lat="46.19824" lon="6.80218">
        <ele>1975</ele>
        <time>2010-01-01T04:37:33Z</time>
      </trkpt>
      <trkpt lat="46.19829" lon="6.80203">
        <ele>1974</ele>
        <time>2010-01-01T04:37:38Z</time>
      </trkpt>
      <trkpt lat="46.19829" lon="6.80186">
        <ele>1974</ele>
        <time>2010-01-01T04:37:43Z</time>
      </trkpt>
      <trkpt lat="46.19833" lon="6.80176">
        <ele>1975</ele>
        <time>2010-01-01T04:37:46Z</time>
      </trkpt>
      <trkpt lat="46.19834" lon="6.80162">
        <ele>1977</ele>
        <time>2010-01-01T04:37:50Z</time>
      </trkpt>
      <trkpt lat="46.19836" lon="6.80146">
        <ele>1978</ele>
        <time>2010-01-01T04:37:54Z</time>
      </trkpt>
      <trkpt lat="46.19844" lon="6.8012">
        <ele>1976</ele>
        <time>2010-01-01T04:38:02Z</time>
      </trkpt>
      <trkpt lat="46.1985" lon="6.80097">
        <ele>1974</ele>
        <time>2010-01-01T04:38:09Z</time>
      </trkpt>
      <trkpt lat="46.19857" lon="6.80081">
        <ele>1967</ele>
        <time>2010-01-01T04:38:14Z</time>
      </trkpt>
      <trkpt lat="46.19869" lon="6.80056">
        <ele>1967</ele>
        <time>2010-01-01T04:38:23Z</time>
      </trkpt>
      <trkpt lat="46.19881" lon="6.80042">
        <ele>1967</ele>
        <time>2010-01-01T04:38:29Z</time>
      </trkpt>
      <trkpt lat="46.1989" lon="6.80023">
        <ele>1966</ele>
        <time>2010-01-01T04:38:35Z</time>
      </trkpt>
      <trkpt lat="46.19901" lon="6.80005">
        <ele>1965</ele>
        <time>2010-01-01T04:38:42Z</time>
      </trkpt>
      <trkpt lat="46.1991" lon="6.79982">
        <ele>1958</ele>
        <time>2010-01-01T04:38:49Z</time>
      </trkpt>
      <trkpt lat="46.19919" lon="6.79955">
        <ele>1955</ele>
        <time>2010-01-01T04:38:58Z</time>
      </trkpt>
      <trkpt lat="46.19925" lon="6.79946">
        <ele>1954</ele>
        <time>2010-01-01T04:39:01Z</time>
      </trkpt>
      <trkpt lat="46.1993" lon="6.7994">
        <ele>1953</ele>
        <time>2010-01-01T04:39:04Z</time>
      </trkpt>
      <trkpt lat="46.1993" lon="6.79939">
        <ele>1953</ele>
        <time>2010-01-01T04:39:04Z</time>
      </trkpt>
      <trkpt lat="46.1994" lon="6.79933">
        <ele>1953</ele>
        <time>2010-01-01T04:39:08Z</time>
      </trkpt>
      <trkpt lat="46.19948" lon="6.79921">
        <ele>1952</ele>
        <time>2010-01-01T04:39:13Z</time>
      </trkpt>
      <trkpt lat="46.19958" lon="6.79915">
        <ele>1944</ele>
        <time>2010-01-01T04:39:17Z</time>
      </trkpt>
      <trkpt lat="46.19972" lon="6.79907">
        <ele>1944</ele>
        <time>2010-01-01T04:39:23Z</time>
      </trkpt>
      <trkpt lat="46.19983" lon="6.79899">
        <ele>1945</ele>
        <time>2010-01-01T04:39:28Z</time>
      </trkpt>
      <trkpt lat="46.20005" lon="6.79879">
        <ele>1947</ele>
        <time>2010-01-01T04:39:39Z</time>
      </trkpt>
      <trkpt lat="46.20017" lon="6.79863">
        <ele>1946</ele>
        <time>2010-01-01T04:39:45Z</time>
      </trkpt>
      <trkpt lat="46.20024" lon="6.79857">
        <ele>1946</ele>
        <time>2010-01-01T04:39:49Z</time>
      </trkpt>
      <trkpt lat="46.20028" lon="6.79853">
        <ele>1946</ele>
        <time>2010-01-01T04:39:51Z</time>
      </trkpt>
      <trkpt lat="46.20034" lon="6.79844">
        <ele>1946</ele>
        <time>2010-01-01T04:39:54Z</time>
      </trkpt>
      <trkpt lat="46.20034" lon="6.79841">
        <ele>1946</ele>
        <time>2010-01-01T04:39:55Z</time>
      </trkpt>
      <trkpt lat="46.20035" lon="6.79834">
        <ele>1945</ele>
        <time>2010-01-01T04:39:57Z</time>
      </trkpt>
      <trkpt lat="46.20038" lon="6.79823">
        <ele>1938</ele>
        <time>2010-01-01T04:40:00Z</time>
      </trkpt>
      <trkpt lat="46.2004" lon="6.79818">
        <ele>1938</ele>
        <time>2010-01-01T04:40:02Z</time>
      </trkpt>
      <trkpt lat="46.20044" lon="6.79809">
        <ele>1938</ele>
        <time>2010-01-01T04:40:05Z</time>
      </trkpt>
      <trkpt lat="46.20048" lon="6.798">
        <ele>1938</ele>
        <time>2010-01-01T04:40:07Z</time>
      </trkpt>
      <trkpt lat="46.2005" lon="6.79793">
        <ele>1937</ele>
        <time>2010-01-01T04:40:09Z</time>
      </trkpt>
      <trkpt lat="46.20051" lon="6.79789">
        <ele>1937</ele>
        <time>2010-01-01T04:40:11Z</time>
      </trkpt>
      <trkpt lat="46.20057" lon="6.79782">
        <ele>1937</ele>
        <time>2010-01-01T04:40:14Z</time>
      </trkpt>
      <trkpt lat="46.20059" lon="6.79777">
        <ele>1937</ele>
        <time>2010-01-01T04:40:15Z</time>
      </trkpt>
      <trkpt lat="46.2006" lon="6.79776">
        <ele>1937</ele>
        <time>2010-01-01T04:40:16Z</time>
      </trkpt>
      <trkpt lat="46.20061" lon="6.79775">
        <ele>1937</ele>
        <time>2010-01-01T04:40:16Z</time>
      </trkpt>
      <trkpt lat="46.20063" lon="6.79774">
        <ele>1937</ele>
        <time>2010-01-01T04:40:17Z</time>
      </trkpt>
      <trkpt lat="46.20063" lon="6.79773">
        <ele>1937</ele>
        <time>2010-01-01T04:40:17Z</time>
      </trkpt>
      <trkpt lat="46.20069" lon="6.79771">
        <ele>1937</ele>
        <time>2010-01-01T04:40:20Z</time>
      </trkpt>
      <trkpt lat="46.20083" lon="6.79769">
        <ele>1937</ele>
        <time>2010-01-01T04:40:25Z</time>
      </trkpt>
      <trkpt lat="46.20093" lon="6.79764">
        <ele>1945</ele>
        <time>2010-01-01T04:40:30Z</time>
      </trkpt>
      <trkpt lat="46.20101" lon="6.79755">
        <ele>1946</ele>
        <time>2010-01-01T04:40:34Z</time>
      </trkpt>
      <trkpt lat="46.20104" lon="6.7974">
        <ele>1935</ele>
        <time>2010-01-01T04:40:38Z</time>
      </trkpt>
      <trkpt lat="46.20104" lon="6.79728">
        <ele>1933</ele>
        <time>2010-01-01T04:40:41Z</time>
      </trkpt>
      <trkpt lat="46.20106" lon="6.79725">
        <ele>1933</ele>
        <time>2010-01-01T04:40:43Z</time>
      </trkpt>
      <trkpt lat="46.20108" lon="6.79723">
        <ele>1933</ele>
        <time>2010-01-01T04:40:44Z</time>
      </trkpt>
      <trkpt lat="46.20109" lon="6.79716">
        <ele>1932</ele>
        <time>2010-01-01T04:40:46Z</time>
      </trkpt>
      <trkpt lat="46.20102" lon="6.79712">
        <ele>1931</ele>
        <time>2010-01-01T04:40:49Z</time>
      </trkpt>
      <trkpt lat="46.20099" lon="6.79706">
        <ele>1930</ele>
        <time>2010-01-01T04:40:51Z</time>
      </trkpt>
      <trkpt lat="46.20091" lon="6.79699">
        <ele>1928</ele>
        <time>2010-01-01T04:40:54Z</time>
      </trkpt>
      <trkpt lat="46.20085" lon="6.79694">
        <ele>1926</ele>
        <time>2010-01-01T04:40:57Z</time>
      </trkpt>
      <trkpt lat="46.20083" lon="6.79687">
        <ele>1919</ele>
        <time>2010-01-01T04:40:59Z</time>
      </trkpt>
      <trkpt lat="46.20087" lon="6.79683">
        <ele>1922</ele>
        <time>2010-01-01T04:41:01Z</time>
      </trkpt>
      <trkpt lat="46.20091" lon="6.79684">
        <ele>1923</ele>
        <time>2010-01-01T04:41:03Z</time>
      </trkpt>
      <trkpt lat="46.20095" lon="6.79685">
        <ele>1924</ele>
        <time>2010-01-01T04:41:04Z</time>
      </trkpt>
      <trkpt lat="46.20096" lon="6.79686">
        <ele>1925</ele>
        <time>2010-01-01T04:41:05Z</time>
      </trkpt>
      <trkpt lat="46.20097" lon="6.79686">
        <ele>1925</ele>
        <time>2010-01-01T04:41:05Z</time>
      </trkpt>
      <trkpt lat="46.20098" lon="6.79686">
        <ele>1925</ele>
        <time>2010-01-01T04:41:06Z</time>
      </trkpt>
      <trkpt lat="46.20099" lon="6.79686">
        <ele>1925</ele>
        <time>2010-01-01T04:41:06Z</time>
      </trkpt>
      <trkpt lat="46.201" lon="6.79685">
        <ele>1925</ele>
        <time>2010-01-01T04:41:07Z</time>
      </trkpt>
      <trkpt lat="46.20101" lon="6.79685">
        <ele>1925</ele>
        <time>2010-01-01T04:41:07Z</time>
      </trkpt>
      <trkpt lat="46.20101" lon="6.79685">
        <ele>1925</ele>
        <time>2010-01-01T04:41:07Z</time>
      </trkpt>
      <trkpt lat="46.20103" lon="6.79683">
        <ele>1925</ele>
        <time>2010-01-01T04:41:08Z</time>
      </trkpt>
      <trkpt lat="46.20103" lon="6.79682">
        <ele>1925</ele>
        <time>2010-01-01T04:41:08Z</time>
      </trkpt>
      <trkpt lat="46.20103" lon="6.79681">
        <ele>1925</ele>
        <time>2010-01-01T04:41:09Z</time>
      </trkpt>
      <trkpt lat="46.20104" lon="6.7968">
        <ele>1925</ele>
        <time>2010-01-01T04:41:09Z</time>
      </trkpt>
      <trkpt lat="46.20105" lon="6.79679">
        <ele>1925</ele>
        <time>2010-01-01T04:41:09Z</time>
      </trkpt>
      <trkpt lat="46.20106" lon="6.79678">
        <ele>1925</ele>
        <time>2010-01-01T04:41:10Z</time>
      </trkpt>
      <trkpt lat="46.20106" lon="6.79677">
        <ele>1925</ele>
        <time>2010-01-01T04:41:10Z</time>
      </trkpt>
      <trkpt lat="46.20107" lon="6.79676">
        <ele>1925</ele>
        <time>2010-01-01T04:41:10Z</time>
      </trkpt>
      <trkpt lat="46.20107" lon="6.79676">
        <ele>1925</ele>
        <time>2010-01-01T04:41:11Z</time>
      </trkpt>
      <trkpt lat="46.20108" lon="6.79675">
        <ele>1925</ele>
        <time>2010-01-01T04:41:11Z</time>
      </trkpt>
      <trkpt lat="46.20109" lon="6.79674">
        <ele>1925</ele>
        <time>2010-01-01T04:41:12Z</time>
      </trkpt>
      <trkpt lat="46.20109" lon="6.79673">
        <ele>1925</ele>
        <time>2010-01-01T04:41:12Z</time>
      </trkpt>
      <trkpt lat="46.2011" lon="6.79671">
        <ele>1925</ele>
        <time>2010-01-01T04:41:12Z</time>
      </trkpt>
      <trkpt lat="46.2011" lon="6.7967">
        <ele>1925</ele>
        <time>2010-01-01T04:41:13Z</time>
      </trkpt>
      <trkpt lat="46.2011" lon="6.79669">
        <ele>1925</ele>
        <time>2010-01-01T04:41:13Z</time>
      </trkpt>
      <trkpt lat="46.2011" lon="6.79668">
        <ele>1925</ele>
        <time>2010-01-01T04:41:13Z</time>
      </trkpt>
      <trkpt lat="46.2011" lon="6.79667">
        <ele>1909</ele>
        <time>2010-01-01T04:41:14Z</time>
      </trkpt>
      <trkpt lat="46.20111" lon="6.79666">
        <ele>1909</ele>
        <time>2010-01-01T04:41:14Z</time>
      </trkpt>
      <trkpt lat="46.20111" lon="6.79664">
        <ele>1909</ele>
        <time>2010-01-01T04:41:14Z</time>
      </trkpt>
      <trkpt lat="46.20111" lon="6.79663">
        <ele>1909</ele>
        <time>2010-01-01T04:41:15Z</time>
      </trkpt>
      <trkpt lat="46.20111" lon="6.79662">
        <ele>1909</ele>
        <time>2010-01-01T04:41:15Z</time>
      </trkpt>
      <trkpt lat="46.20111" lon="6.79661">
        <ele>1909</ele>
        <time>2010-01-01T04:41:15Z</time>
      </trkpt>
      <trkpt lat="46.20111" lon="6.79659">
        <ele>1909</ele>
        <time>2010-01-01T04:41:16Z</time>
      </trkpt>
      <trkpt lat="46.20111" lon="6.79658">
        <ele>1909</ele>
        <time>2010-01-01T04:41:16Z</time>
      </trkpt>
      <trkpt lat="46.20111" lon="6.79657">
        <ele>1908</ele>
        <time>2010-01-01T04:41:16Z</time>
      </trkpt>
      <trkpt lat="46.20111" lon="6.79655">
        <ele>1908</ele>
        <time>2010-01-01T04:41:17Z</time>
      </trkpt>
      <trkpt lat="46.20111" lon="6.79655">
        <ele>1908</ele>
        <time>2010-01-01T04:41:17Z</time>
      </trkpt>
      <trkpt lat="46.20111" lon="6.79653">
        <ele>1908</ele>
        <time>2010-01-01T04:41:18Z</time>
      </trkpt>
      <trkpt lat="46.20111" lon="6.79651">
        <ele>1908</ele>
        <time>2010-01-01T04:41:18Z</time>
      </trkpt>
      <trkpt lat="46.20112" lon="6.7965">
        <ele>1908</ele>
        <time>2010-01-01T04:41:18Z</time>
      </trkpt>
      <trkpt lat="46.20112" lon="6.79649">
        <ele>1908</ele>
        <time>2010-01-01T04:41:19Z</time>
      </trkpt>
      <trkpt lat="46.20112" lon="6.79647">
        <ele>1907</ele>
        <time>2010-01-01T04:41:19Z</time>
      </trkpt>
      <trkpt lat="46.20112" lon="6.79646">
        <ele>1907</ele>
        <time>2010-01-01T04:41:19Z</time>
      </trkpt>
      <trkpt lat="46.20113" lon="6.79646">
        <ele>1907</ele>
        <time>2010-01-01T04:41:20Z</time>
      </trkpt>
      <trkpt lat="46.20114" lon="6.79644">
        <ele>1907</ele>
        <time>2010-01-01T04:41:20Z</time>
      </trkpt>
      <trkpt lat="46.20114" lon="6.79644">
        <ele>1907</ele>
        <time>2010-01-01T04:41:20Z</time>
      </trkpt>
      <trkpt lat="46.20115" lon="6.79642">
        <ele>1907</ele>
        <time>2010-01-01T04:41:21Z</time>
      </trkpt>
      <trkpt lat="46.20116" lon="6.79641">
        <ele>1907</ele>
        <time>2010-01-01T04:41:21Z</time>
      </trkpt>
      <trkpt lat="46.20116" lon="6.79641">
        <ele>1907</ele>
        <time>2010-01-01T04:41:22Z</time>
      </trkpt>
      <trkpt lat="46.20117" lon="6.7964">
        <ele>1907</ele>
        <time>2010-01-01T04:41:22Z</time>
      </trkpt>
      <trkpt lat="46.20118" lon="6.7964">
        <ele>1907</ele>
        <time>2010-01-01T04:41:22Z</time>
      </trkpt>
      <trkpt lat="46.20119" lon="6.79639">
        <ele>1907</ele>
        <time>2010-01-01T04:41:23Z</time>
      </trkpt>
      <trkpt lat="46.2012" lon="6.79638">
        <ele>1907</ele>
        <time>2010-01-01T04:41:23Z</time>
      </trkpt>
      <trkpt lat="46.20121" lon="6.79638">
        <ele>1907</ele>
        <time>2010-01-01T04:41:24Z</time>
      </trkpt>
      <trkpt lat="46.20122" lon="6.79637">
        <ele>1907</ele>
        <time>2010-01-01T04:41:24Z</time>
      </trkpt>
      <trkpt lat="46.20124" lon="6.79636">
        <ele>1907</ele>
        <time>2010-01-01T04:41:25Z</time>
      </trkpt>
      <trkpt lat="46.20124" lon="6.79635">
        <ele>1906</ele>
        <time>2010-01-01T04:41:25Z</time>
      </trkpt>
      <trkpt lat="46.20124" lon="6.79634">
        <ele>1906</ele>
        <time>2010-01-01T04:41:26Z</time>
      </trkpt>
      <trkpt lat="46.20124" lon="6.79633">
        <ele>1906</ele>
        <time>2010-01-01T04:41:26Z</time>
      </trkpt>
      <trkpt lat="46.20124" lon="6.79633">
        <ele>1906</ele>
        <time>2010-01-01T04:41:26Z</time>
      </trkpt>
      <trkpt lat="46.20127" lon="6.7963">
        <ele>1906</ele>
        <time>2010-01-01T04:41:27Z</time>
      </trkpt>
      <trkpt lat="46.2014" lon="6.79605">
        <ele>1904</ele>
        <time>2010-01-01T04:41:36Z</time>
      </trkpt>
      <trkpt lat="46.20142" lon="6.79585">
        <ele>1902</ele>
        <time>2010-01-01T04:41:41Z</time>
      </trkpt>
      <trkpt lat="46.20157" lon="6.79564">
        <ele>1891</ele>
        <time>2010-01-01T04:41:50Z</time>
      </trkpt>
      <trkpt lat="46.20165" lon="6.79537">
        <ele>1885</ele>
        <time>2010-01-01T04:41:58Z</time>
      </trkpt>
      <trkpt lat="46.20176" lon="6.79518">
        <ele>1897</ele>
        <time>2010-01-01T04:42:05Z</time>
      </trkpt>
      <trkpt lat="46.2019" lon="6.79501">
        <ele>1898</ele>
        <time>2010-01-01T04:42:12Z</time>
      </trkpt>
      <trkpt lat="46.20206" lon="6.79476">
        <ele>1884</ele>
        <time>2010-01-01T04:42:22Z</time>
      </trkpt>
      <trkpt lat="46.2022" lon="6.79462">
        <ele>1884</ele>
        <time>2010-01-01T04:42:28Z</time>
      </trkpt>
      <trkpt lat="46.20229" lon="6.7945">
        <ele>1883</ele>
        <time>2010-01-01T04:42:33Z</time>
      </trkpt>
      <trkpt lat="46.20242" lon="6.79437">
        <ele>1882</ele>
        <time>2010-01-01T04:42:40Z</time>
      </trkpt>
      <trkpt lat="46.2025" lon="6.79419">
        <ele>1882</ele>
        <time>2010-01-01T04:42:46Z</time>
      </trkpt>
      <trkpt lat="46.20264" lon="6.794">
        <ele>1880</ele>
        <time>2010-01-01T04:42:53Z</time>
      </trkpt>
      <trkpt lat="46.20281" lon="6.79379">
        <ele>1879</ele>
        <time>2010-01-01T04:43:02Z</time>
      </trkpt>
      <trkpt lat="46.20296" lon="6.79348">
        <ele>1876</ele>
        <time>2010-01-01T04:43:13Z</time>
      </trkpt>
      <trkpt lat="46.2031" lon="6.79325">
        <ele>1862</ele>
        <time>2010-01-01T04:43:21Z</time>
      </trkpt>
      <trkpt lat="46.20324" lon="6.79311">
        <ele>1862</ele>
        <time>2010-01-01T04:43:28Z</time>
      </trkpt>
      <trkpt lat="46.20334" lon="6.79285">
        <ele>1869</ele>
        <time>2010-01-01T04:43:36Z</time>
      </trkpt>
      <trkpt lat="46.20344" lon="6.79265">
        <ele>1864</ele>
        <time>2010-01-01T04:43:43Z</time>
      </trkpt>
      <trkpt lat="46.20353" lon="6.79261">
        <ele>1865</ele>
        <time>2010-01-01T04:43:47Z</time>
      </trkpt>
      <trkpt lat="46.2037" lon="6.79259">
        <ele>1868</ele>
        <time>2010-01-01T04:43:54Z</time>
      </trkpt>
      <trkpt lat="46.20391" lon="6.79254">
        <ele>1869</ele>
        <time>2010-01-01T04:44:02Z</time>
      </trkpt>
      <trkpt lat="46.20411" lon="6.79247">
        <ele>1861</ele>
        <time>2010-01-01T04:44:10Z</time>
      </trkpt>
      <trkpt lat="46.2043" lon="6.79231">
        <ele>1859</ele>
        <time>2010-01-01T04:44:19Z</time>
      </trkpt>
      <trkpt lat="46.20444" lon="6.79225">
        <ele>1857</ele>
        <time>2010-01-01T04:44:25Z</time>
      </trkpt>
      <trkpt lat="46.20457" lon="6.79222">
        <ele>1857</ele>
        <time>2010-01-01T04:44:30Z</time>
      </trkpt>
      <trkpt lat="46.20475" lon="6.79205">
        <ele>1855</ele>
        <time>2010-01-01T04:44:39Z</time>
      </trkpt>
      <trkpt lat="46.20496" lon="6.79196">
        <ele>1852</ele>
        <time>2010-01-01T04:44:48Z</time>
      </trkpt>
      <trkpt lat="46.2051" lon="6.79189">
        <ele>1853</ele>
        <time>2010-01-01T04:44:53Z</time>
      </trkpt>
      <trkpt lat="46.20522" lon="6.79181">
        <ele>1853</ele>
        <time>2010-01-01T04:44:59Z</time>
      </trkpt>
      <trkpt lat="46.2054" lon="6.79155">
        <ele>1841</ele>
        <time>2010-01-01T04:45:09Z</time>
      </trkpt>
      <trkpt lat="46.20556" lon="6.79139">
        <ele>1841</ele>
        <time>2010-01-01T04:45:17Z</time>
      </trkpt>
      <trkpt lat="46.20573" lon="6.7913">
        <ele>1841</ele>
        <time>2010-01-01T04:45:24Z</time>
      </trkpt>
      <trkpt lat="46.20586" lon="6.79114">
        <ele>1842</ele>
        <time>2010-01-01T04:45:31Z</time>
      </trkpt>
      <trkpt lat="46.20599" lon="6.79099">
        <ele>1841</ele>
        <time>2010-01-01T04:45:38Z</time>
      </trkpt>
      <trkpt lat="46.20608" lon="6.79081">
        <ele>1833</ele>
        <time>2010-01-01T04:45:44Z</time>
      </trkpt>
      <trkpt lat="46.20617" lon="6.79064">
        <ele>1832</ele>
        <time>2010-01-01T04:45:50Z</time>
      </trkpt>
      <trkpt lat="46.20636" lon="6.7904">
        <ele>1831</ele>
        <time>2010-01-01T04:46:00Z</time>
      </trkpt>
      <trkpt lat="46.20652" lon="6.79025">
        <ele>1830</ele>
        <time>2010-01-01T04:46:08Z</time>
      </trkpt>
      <trkpt lat="46.20662" lon="6.79019">
        <ele>1829</ele>
        <time>2010-01-01T04:46:12Z</time>
      </trkpt>
      <trkpt lat="46.20666" lon="6.79012">
        <ele>1828</ele>
        <time>2010-01-01T04:46:14Z</time>
      </trkpt>
      <trkpt lat="46.20669" lon="6.78996">
        <ele>1826</ele>
        <time>2010-01-01T04:46:19Z</time>
      </trkpt>
      <trkpt lat="46.20681" lon="6.78983">
        <ele>1825</ele>
        <time>2010-01-01T04:46:25Z</time>
      </trkpt>
      <trkpt lat="46.20688" lon="6.78977">
        <ele>1824</ele>
        <time>2010-01-01T04:46:28Z</time>
      </trkpt>
      <trkpt lat="46.20695" lon="6.78973">
        <ele>1824</ele>
        <time>2010-01-01T04:46:31Z</time>
      </trkpt>
      <trkpt lat="46.20698" lon="6.78963">
        <ele>1823</ele>
        <time>2010-01-01T04:46:34Z</time>
      </trkpt>
      <trkpt lat="46.20699" lon="6.7895">
        <ele>1822</ele>
        <time>2010-01-01T04:46:38Z</time>
      </trkpt>
      <trkpt lat="46.20703" lon="6.78928">
        <ele>1820</ele>
        <time>2010-01-01T04:46:44Z</time>
      </trkpt>
      <trkpt lat="46.20709" lon="6.78913">
        <ele>1812</ele>
        <time>2010-01-01T04:46:49Z</time>
      </trkpt>
      <trkpt lat="46.20715" lon="6.78896">
        <ele>1812</ele>
        <time>2010-01-01T04:46:55Z</time>
      </trkpt>
      <trkpt lat="46.20716" lon="6.78895">
        <ele>1812</ele>
        <time>2010-01-01T04:46:55Z</time>
      </trkpt>
      <trkpt lat="46.20724" lon="6.78874">
        <ele>1811</ele>
        <time>2010-01-01T04:47:02Z</time>
      </trkpt>
      <trkpt lat="46.20733" lon="6.78857">
        <ele>1810</ele>
        <time>2010-01-01T04:47:07Z</time>
      </trkpt>
      <trkpt lat="46.20741" lon="6.78848">
        <ele>1810</ele>
        <time>2010-01-01T04:47:12Z</time>
      </trkpt>
      <trkpt lat="46.20745" lon="6.78844">
        <ele>1809</ele>
        <time>2010-01-01T04:47:13Z</time>
      </trkpt>
      <trkpt lat="46.20743" lon="6.78837">
        <ele>1809</ele>
        <time>2010-01-01T04:47:15Z</time>
      </trkpt>
      <trkpt lat="46.20746" lon="6.78826">
        <ele>1806</ele>
        <time>2010-01-01T04:47:19Z</time>
      </trkpt>
      <trkpt lat="46.20749" lon="6.78818">
        <ele>1804</ele>
        <time>2010-01-01T04:47:21Z</time>
      </trkpt>
      <trkpt lat="46.20752" lon="6.78799">
        <ele>1805</ele>
        <time>2010-01-01T04:47:27Z</time>
      </trkpt>
      <trkpt lat="46.20752" lon="6.78791">
        <ele>1804</ele>
        <time>2010-01-01T04:47:29Z</time>
      </trkpt>
      <trkpt lat="46.20755" lon="6.7878">
        <ele>1803</ele>
        <time>2010-01-01T04:47:32Z</time>
      </trkpt>
      <trkpt lat="46.20767" lon="6.7877">
        <ele>1802</ele>
        <time>2010-01-01T04:47:38Z</time>
      </trkpt>
      <trkpt lat="46.20779" lon="6.78762">
        <ele>1802</ele>
        <time>2010-01-01T04:47:43Z</time>
      </trkpt>
      <trkpt lat="46.20787" lon="6.78756">
        <ele>1802</ele>
        <time>2010-01-01T04:47:47Z</time>
      </trkpt>
      <trkpt lat="46.20808" lon="6.78749">
        <ele>1788</ele>
        <time>2010-01-01T04:47:55Z</time>
      </trkpt>
      <trkpt lat="46.20845" lon="6.78729">
        <ele>1787</ele>
        <time>2010-01-01T04:48:11Z</time>
      </trkpt>
      <trkpt lat="46.20881" lon="6.7871">
        <ele>1783</ele>
        <time>2010-01-01T04:48:27Z</time>
      </trkpt>
      <trkpt lat="46.20896" lon="6.78697">
        <ele>1780</ele>
        <time>2010-01-01T04:48:34Z</time>
      </trkpt>
      <trkpt lat="46.20908" lon="6.78689">
        <ele>1778</ele>
        <time>2010-01-01T04:48:39Z</time>
      </trkpt>
      <trkpt lat="46.20915" lon="6.78685">
        <ele>1777</ele>
        <time>2010-01-01T04:48:42Z</time>
      </trkpt>
      <trkpt lat="46.20927" lon="6.78678">
        <ele>1780</ele>
        <time>2010-01-01T04:48:47Z</time>
      </trkpt>
      <trkpt lat="46.20937" lon="6.78683">
        <ele>1783</ele>
        <time>2010-01-01T04:48:51Z</time>
      </trkpt>
      <trkpt lat="46.2094" lon="6.78672">
        <ele>1782</ele>
        <time>2010-01-01T04:48:55Z</time>
      </trkpt>
      <trkpt lat="46.20943" lon="6.78645">
        <ele>1768</ele>
        <time>2010-01-01T04:49:02Z</time>
      </trkpt>
      <trkpt lat="46.20958" lon="6.78605">
        <ele>1764</ele>
        <time>2010-01-01T04:49:15Z</time>
      </trkpt>
      <trkpt lat="46.20976" lon="6.78587">
        <ele>1764</ele>
        <time>2010-01-01T04:49:24Z</time>
      </trkpt>
      <trkpt lat="46.21" lon="6.78577">
        <ele>1759</ele>
        <time>2010-01-01T04:49:34Z</time>
      </trkpt>
      <trkpt lat="46.2102" lon="6.7857">
        <ele>1763</ele>
        <time>2010-01-01T04:49:42Z</time>
      </trkpt>
      <trkpt lat="46.21051" lon="6.78511">
        <ele>1760</ele>
        <time>2010-01-01T04:50:03Z</time>
      </trkpt>
      <trkpt lat="46.21065" lon="6.78485">
        <ele>1747</ele>
        <time>2010-01-01T04:50:12Z</time>
      </trkpt>
      <trkpt lat="46.21074" lon="6.78453">
        <ele>1742</ele>
        <time>2010-01-01T04:50:21Z</time>
      </trkpt>
      <trkpt lat="46.21079" lon="6.78413">
        <ele>1741</ele>
        <time>2010-01-01T04:50:32Z</time>
      </trkpt>
      <trkpt lat="46.21086" lon="6.78387">
        <ele>1750</ele>
        <time>2010-01-01T04:50:40Z</time>
      </trkpt>
      <trkpt lat="46.21093" lon="6.78365">
        <ele>1747</ele>
        <time>2010-01-01T04:50:47Z</time>
      </trkpt>
      <trkpt lat="46.21096" lon="6.78346">
        <ele>1741</ele>
        <time>2010-01-01T04:50:52Z</time>
      </trkpt>
      <trkpt lat="46.21096" lon="6.78328">
        <ele>1729</ele>
        <time>2010-01-01T04:50:57Z</time>
      </trkpt>
      <trkpt lat="46.211" lon="6.78306">
        <ele>1730</ele>
        <time>2010-01-01T04:51:04Z</time>
      </trkpt>
      <trkpt lat="46.21119" lon="6.78251">
        <ele>1727</ele>
        <time>2010-01-01T04:51:20Z</time>
      </trkpt>
      <trkpt lat="46.2112" lon="6.78222">
        <ele>1714</ele>
        <time>2010-01-01T04:51:29Z</time>
      </trkpt>
      <trkpt lat="46.21121" lon="6.78216">
        <ele>1714</ele>
        <time>2010-01-01T04:51:30Z</time>
      </trkpt>
      <trkpt lat="46.21127" lon="6.78181">
        <ele>1712</ele>
        <time>2010-01-01T04:51:40Z</time>
      </trkpt>
      <trkpt lat="46.21134" lon="6.78148">
        <ele>1700</ele>
        <time>2010-01-01T04:51:50Z</time>
      </trkpt>
      <trkpt lat="46.21142" lon="6.78115">
        <ele>1697</ele>
        <time>2010-01-01T04:51:59Z</time>
      </trkpt>
      <trkpt lat="46.21145" lon="6.78085">
        <ele>1697</ele>
        <time>2010-01-01T04:52:08Z</time>
      </trkpt>
      <trkpt lat="46.21157" lon="6.7804">
        <ele>1679</ele>
        <time>2010-01-01T04:52:21Z</time>
      </trkpt>
      <trkpt lat="46.21167" lon="6.77993">
        <ele>1681</ele>
        <time>2010-01-01T04:52:35Z</time>
      </trkpt>
      <trkpt lat="46.21181" lon="6.77948">
        <ele>1676</ele>
        <time>2010-01-01T04:52:48Z</time>
      </trkpt>
      <trkpt lat="46.2119" lon="6.77907">
        <ele>1657</ele>
        <time>2010-01-01T04:53:00Z</time>
      </trkpt>
      <trkpt lat="46.21219" lon="6.77866">
        <ele>1656</ele>
        <time>2010-01-01T04:53:17Z</time>
      </trkpt>
      <trkpt lat="46.21248" lon="6.77816">
        <ele>1643</ele>
        <time>2010-01-01T04:53:35Z</time>
      </trkpt>
      <trkpt lat="46.21269" lon="6.77771">
        <ele>1649</ele>
        <time>2010-01-01T04:53:50Z</time>
      </trkpt>
      <trkpt lat="46.21273" lon="6.77754">
        <ele>1647</ele>
        <time>2010-01-01T04:53:55Z</time>
      </trkpt>
      <trkpt lat="46.21264" lon="6.77752">
        <ele>1642</ele>
        <time>2010-01-01T04:53:59Z</time>
      </trkpt>
      <trkpt lat="46.21248" lon="6.77752">
        <ele>1630</ele>
        <time>2010-01-01T04:54:05Z</time>
      </trkpt>
      <trkpt lat="46.21195" lon="6.77781">
        <ele>1627</ele>
        <time>2010-01-01T04:54:28Z</time>
      </trkpt>
      <trkpt lat="46.21121" lon="6.77828">
        <ele>1606</ele>
        <time>2010-01-01T04:55:00Z</time>
      </trkpt>
      <trkpt lat="46.21095" lon="6.77851">
        <ele>1613</ele>
        <time>2010-01-01T04:55:12Z</time>
      </trkpt>
      <trkpt lat="46.2107" lon="6.77863">
        <ele>1598</ele>
        <time>2010-01-01T04:55:23Z</time>
      </trkpt>
      <trkpt lat="46.21069" lon="6.77863">
        <ele>1598</ele>
        <time>2010-01-01T04:55:23Z</time>
      </trkpt>
      <trkpt lat="46.2105" lon="6.77872">
        <ele>1596</ele>
        <time>2010-01-01T04:55:31Z</time>
      </trkpt>
      <trkpt lat="46.21049" lon="6.77871">
        <ele>1596</ele>
        <time>2010-01-01T04:55:31Z</time>
      </trkpt>
      <trkpt lat="46.21047" lon="6.77873">
        <ele>1596</ele>
        <time>2010-01-01T04:55:32Z</time>
      </trkpt>
      <trkpt lat="46.2102" lon="6.77907">
        <ele>1592</ele>
        <time>2010-01-01T04:55:46Z</time>
      </trkpt>
      <trkpt lat="46.20941" lon="6.77998">
        <ele>1573</ele>
        <time>2010-01-01T04:56:27Z</time>
      </trkpt>
      <trkpt lat="46.20893" lon="6.78029">
        <ele>1562</ele>
        <time>2010-01-01T04:56:48Z</time>
      </trkpt>
      <trkpt lat="46.20835" lon="6.78053">
        <ele>1557</ele>
        <time>2010-01-01T04:57:12Z</time>
      </trkpt>
      <trkpt lat="46.20815" lon="6.78054">
        <ele>1544</ele>
        <time>2010-01-01T04:57:20Z</time>
      </trkpt>
      <trkpt lat="46.20785" lon="6.78052">
        <ele>1541</ele>
        <time>2010-01-01T04:57:32Z</time>
      </trkpt>
      <trkpt lat="46.20766" lon="6.78049">
        <ele>1539</ele>
        <time>2010-01-01T04:57:40Z</time>
      </trkpt>
      <trkpt lat="46.20747" lon="6.7805">
        <ele>1530</ele>
        <time>2010-01-01T04:57:48Z</time>
      </trkpt>
      <trkpt lat="46.20731" lon="6.78045">
        <ele>1529</ele>
        <time>2010-01-01T04:57:54Z</time>
      </trkpt>
      <trkpt lat="46.20728" lon="6.78011">
        <ele>1526</ele>
        <time>2010-01-01T04:58:04Z</time>
      </trkpt>
      <trkpt lat="46.20733" lon="6.77979">
        <ele>1519</ele>
        <time>2010-01-01T04:58:13Z</time>
      </trkpt>
      <trkpt lat="46.20742" lon="6.77935">
        <ele>1515</ele>
        <time>2010-01-01T04:58:26Z</time>
      </trkpt>
      <trkpt lat="46.20748" lon="6.77902">
        <ele>1511</ele>
        <time>2010-01-01T04:58:35Z</time>
      </trkpt>
      <trkpt lat="46.20746" lon="6.77887">
        <ele>1509</ele>
        <time>2010-01-01T04:58:39Z</time>
      </trkpt>
      <trkpt lat="46.20734" lon="6.77833">
        <ele>1504</ele>
        <time>2010-01-01T04:58:55Z</time>
      </trkpt>
      <trkpt lat="46.20714" lon="6.77791">
        <ele>1502</ele>
        <time>2010-01-01T04:59:09Z</time>
      </trkpt>
      <trkpt lat="46.20702" lon="6.77785">
        <ele>1502</ele>
        <time>2010-01-01T04:59:14Z</time>
      </trkpt>
      <trkpt lat="46.207" lon="6.77778">
        <ele>1502</ele>
        <time>2010-01-01T04:59:16Z</time>
      </trkpt>
      <trkpt lat="46.20698" lon="6.77764">
        <ele>1501</ele>
        <time>2010-01-01T04:59:20Z</time>
      </trkpt>
      <trkpt lat="46.207" lon="6.77745">
        <ele>1500</ele>
        <time>2010-01-01T04:59:25Z</time>
      </trkpt>
      <trkpt lat="46.20711" lon="6.7773">
        <ele>1500</ele>
        <time>2010-01-01T04:59:31Z</time>
      </trkpt>
      <trkpt lat="46.20717" lon="6.7772">
        <ele>1500</ele>
        <time>2010-01-01T04:59:35Z</time>
      </trkpt>
      <trkpt lat="46.20719" lon="6.77716">
        <ele>1500</ele>
        <time>2010-01-01T04:59:37Z</time>
      </trkpt>
      <trkpt lat="46.20722" lon="6.77713">
        <ele>1500</ele>
        <time>2010-01-01T04:59:38Z</time>
      </trkpt>
      <trkpt lat="46.20726" lon="6.7771">
        <ele>1500</ele>
        <time>2010-01-01T04:59:40Z</time>
      </trkpt>
      <trkpt lat="46.20734" lon="6.77705">
        <ele>1500</ele>
        <time>2010-01-01T04:59:43Z</time>
      </trkpt>
      <trkpt lat="46.20747" lon="6.77693">
        <ele>1500</ele>
        <time>2010-01-01T04:59:49Z</time>
      </trkpt>
      <trkpt lat="46.20761" lon="6.77679">
        <ele>1502</ele>
        <time>2010-01-01T04:59:56Z</time>
      </trkpt>
      <trkpt lat="46.20777" lon="6.77638">
        <ele>1502</ele>
        <time>2010-01-01T05:00:09Z</time>
      </trkpt>
      <trkpt lat="46.20798" lon="6.77616">
        <ele>1503</ele>
        <time>2010-01-01T05:00:19Z</time>
      </trkpt>
      <trkpt lat="46.20819" lon="6.776">
        <ele>1502</ele>
        <time>2010-01-01T05:00:29Z</time>
      </trkpt>
      <trkpt lat="46.20827" lon="6.77594">
        <ele>1501</ele>
        <time>2010-01-01T05:00:33Z</time>
      </trkpt>
      <trkpt lat="46.20843" lon="6.77591">
        <ele>1504</ele>
        <time>2010-01-01T05:00:39Z</time>
      </trkpt>
      <trkpt lat="46.20849" lon="6.77577">
        <ele>1503</ele>
        <time>2010-01-01T05:00:44Z</time>
      </trkpt>
      <trkpt lat="46.20855" lon="6.77566">
        <ele>1504</ele>
        <time>2010-01-01T05:00:47Z</time>
      </trkpt>
      <trkpt lat="46.20861" lon="6.77559">
        <ele>1505</ele>
        <time>2010-01-01T05:00:51Z</time>
      </trkpt>
      <trkpt lat="46.20868" lon="6.77553">
        <ele>1505</ele>
        <time>2010-01-01T05:00:54Z</time>
      </trkpt>
      <trkpt lat="46.20873" lon="6.77548">
        <ele>1505</ele>
        <time>2010-01-01T05:00:56Z</time>
      </trkpt>
      <trkpt lat="46.2088" lon="6.77546">
        <ele>1505</ele>
        <time>2010-01-01T05:00:59Z</time>
      </trkpt>
      <trkpt lat="46.20887" lon="6.77541">
        <ele>1505</ele>
        <time>2010-01-01T05:01:02Z</time>
      </trkpt>
      <trkpt lat="46.20894" lon="6.77534">
        <ele>1504</ele>
        <time>2010-01-01T05:01:06Z</time>
      </trkpt>
      <trkpt lat="46.20904" lon="6.77524">
        <ele>1503</ele>
        <time>2010-01-01T05:01:10Z</time>
      </trkpt>
      <trkpt lat="46.2091" lon="6.77509">
        <ele>1500</ele>
        <time>2010-01-01T05:01:15Z</time>
      </trkpt>
      <trkpt lat="46.20912" lon="6.77496">
        <ele>1498</ele>
        <time>2010-01-01T05:01:19Z</time>
      </trkpt>
      <trkpt lat="46.20913" lon="6.77485">
        <ele>1500</ele>
        <time>2010-01-01T05:01:22Z</time>
      </trkpt>
      <trkpt lat="46.20918" lon="6.77483">
        <ele>1494</ele>
        <time>2010-01-01T05:01:24Z</time>
      </trkpt>
      <trkpt lat="46.20925" lon="6.7748">
        <ele>1494</ele>
        <time>2010-01-01T05:01:27Z</time>
      </trkpt>
      <trkpt lat="46.20932" lon="6.77472">
        <ele>1493</ele>
        <time>2010-01-01T05:01:30Z</time>
      </trkpt>
      <trkpt lat="46.20938" lon="6.77463">
        <ele>1492</ele>
        <time>2010-01-01T05:01:34Z</time>
      </trkpt>
      <trkpt lat="46.20951" lon="6.77441">
        <ele>1490</ele>
        <time>2010-01-01T05:01:42Z</time>
      </trkpt>
      <trkpt lat="46.20961" lon="6.77435">
        <ele>1489</ele>
        <time>2010-01-01T05:01:46Z</time>
      </trkpt>
      <trkpt lat="46.20976" lon="6.77441">
        <ele>1488</ele>
        <time>2010-01-01T05:01:52Z</time>
      </trkpt>
      <trkpt lat="46.20989" lon="6.77442">
        <ele>1488</ele>
        <time>2010-01-01T05:01:57Z</time>
      </trkpt>
      <trkpt lat="46.20996" lon="6.77442">
        <ele>1487</ele>
        <time>2010-01-01T05:02:00Z</time>
      </trkpt>
      <trkpt lat="46.21004" lon="6.77441">
        <ele>1488</ele>
        <time>2010-01-01T05:02:03Z</time>
      </trkpt>
      <trkpt lat="46.21013" lon="6.77438">
        <ele>1488</ele>
        <time>2010-01-01T05:02:07Z</time>
      </trkpt>
      <trkpt lat="46.21023" lon="6.77437">
        <ele>1489</ele>
        <time>2010-01-01T05:02:11Z</time>
      </trkpt>
      <trkpt lat="46.21033" lon="6.77434">
        <ele>1490</ele>
        <time>2010-01-01T05:02:15Z</time>
      </trkpt>
      <trkpt lat="46.21042" lon="6.77432">
        <ele>1490</ele>
        <time>2010-01-01T05:02:19Z</time>
      </trkpt>
      <trkpt lat="46.21048" lon="6.77425">
        <ele>1489</ele>
        <time>2010-01-01T05:02:22Z</time>
      </trkpt>
      <trkpt lat="46.21059" lon="6.77419">
        <ele>1487</ele>
        <time>2010-01-01T05:02:27Z</time>
      </trkpt>
      <trkpt lat="46.2107" lon="6.77416">
        <ele>1477</ele>
        <time>2010-01-01T05:02:31Z</time>
      </trkpt>
      <trkpt lat="46.21078" lon="6.77411">
        <ele>1477</ele>
        <time>2010-01-01T05:02:35Z</time>
      </trkpt>
      <trkpt lat="46.21086" lon="6.77405">
        <ele>1480</ele>
        <time>2010-01-01T05:02:38Z</time>
      </trkpt>
      <trkpt lat="46.21092" lon="6.77396">
        <ele>1481</ele>
        <time>2010-01-01T05:02:42Z</time>
      </trkpt>
      <trkpt lat="46.21099" lon="6.77384">
        <ele>1481</ele>
        <time>2010-01-01T05:02:46Z</time>
      </trkpt>
      <trkpt lat="46.211" lon="6.77368">
        <ele>1479</ele>
        <time>2010-01-01T05:02:51Z</time>
      </trkpt>
      <trkpt lat="46.21093" lon="6.77355">
        <ele>1476</ele>
        <time>2010-01-01T05:02:55Z</time>
      </trkpt>
      <trkpt lat="46.2108" lon="6.77354">
        <ele>1471</ele>
        <time>2010-01-01T05:03:01Z</time>
      </trkpt>
      <trkpt lat="46.21062" lon="6.77355">
        <ele>1471</ele>
        <time>2010-01-01T05:03:08Z</time>
      </trkpt>
      <trkpt lat="46.21046" lon="6.77357">
        <ele>1471</ele>
        <time>2010-01-01T05:03:14Z</time>
      </trkpt>
      <trkpt lat="46.21035" lon="6.77356">
        <ele>1471</ele>
        <time>2010-01-01T05:03:19Z</time>
      </trkpt>
      <trkpt lat="46.21021" lon="6.77347">
        <ele>1470</ele>
        <time>2010-01-01T05:03:25Z</time>
      </trkpt>
      <trkpt lat="46.21007" lon="6.77332">
        <ele>1464</ele>
        <time>2010-01-01T05:03:32Z</time>
      </trkpt>
      <trkpt lat="46.21008" lon="6.77316">
        <ele>1462</ele>
        <time>2010-01-01T05:03:36Z</time>
      </trkpt>
      <trkpt lat="46.2102" lon="6.7731">
        <ele>1461</ele>
        <time>2010-01-01T05:03:41Z</time>
      </trkpt>
      <trkpt lat="46.21021" lon="6.77308">
        <ele>1461</ele>
        <time>2010-01-01T05:03:42Z</time>
      </trkpt>
      <trkpt lat="46.21033" lon="6.77302">
        <ele>1460</ele>
        <time>2010-01-01T05:03:46Z</time>
      </trkpt>
      <trkpt lat="46.21046" lon="6.77296">
        <ele>1460</ele>
        <time>2010-01-01T05:03:52Z</time>
      </trkpt>
      <trkpt lat="46.21063" lon="6.77295">
        <ele>1460</ele>
        <time>2010-01-01T05:03:59Z</time>
      </trkpt>
      <trkpt lat="46.21077" lon="6.77299">
        <ele>1461</ele>
        <time>2010-01-01T05:04:04Z</time>
      </trkpt>
      <trkpt lat="46.21089" lon="6.77301">
        <ele>1463</ele>
        <time>2010-01-01T05:04:09Z</time>
      </trkpt>
      <trkpt lat="46.21106" lon="6.7729">
        <ele>1462</ele>
        <time>2010-01-01T05:04:17Z</time>
      </trkpt>
      <trkpt lat="46.21122" lon="6.77269">
        <ele>1460</ele>
        <time>2010-01-01T05:04:25Z</time>
      </trkpt>
      <trkpt lat="46.2114" lon="6.77251">
        <ele>1458</ele>
        <time>2010-01-01T05:04:34Z</time>
      </trkpt>
      <trkpt lat="46.21157" lon="6.7723">
        <ele>1444</ele>
        <time>2010-01-01T05:04:43Z</time>
      </trkpt>
      <trkpt lat="46.2117" lon="6.77214">
        <ele>1444</ele>
        <time>2010-01-01T05:04:50Z</time>
      </trkpt>
      <trkpt lat="46.21185" lon="6.77202">
        <ele>1441</ele>
        <time>2010-01-01T05:04:57Z</time>
      </trkpt>
      <trkpt lat="46.21199" lon="6.77192">
        <ele>1441</ele>
        <time>2010-01-01T05:05:03Z</time>
      </trkpt>
      <trkpt lat="46.21215" lon="6.77182">
        <ele>1440</ele>
        <time>2010-01-01T05:05:10Z</time>
      </trkpt>
      <trkpt lat="46.21232" lon="6.77175">
        <ele>1439</ele>
        <time>2010-01-01T05:05:17Z</time>
      </trkpt>
      <trkpt lat="46.21253" lon="6.77165">
        <ele>1431</ele>
        <time>2010-01-01T05:05:26Z</time>
      </trkpt>
      <trkpt lat="46.21274" lon="6.77163">
        <ele>1424</ele>
        <time>2010-01-01T05:05:34Z</time>
      </trkpt>
      <trkpt lat="46.21291" lon="6.77161">
        <ele>1424</ele>
        <time>2010-01-01T05:05:41Z</time>
      </trkpt>
      <trkpt lat="46.21313" lon="6.77154">
        <ele>1426</ele>
        <time>2010-01-01T05:05:50Z</time>
      </trkpt>
      <trkpt lat="46.21327" lon="6.77151">
        <ele>1428</ele>
        <time>2010-01-01T05:05:56Z</time>
      </trkpt>
      <trkpt lat="46.21353" lon="6.77143">
        <ele>1430</ele>
        <time>2010-01-01T05:06:07Z</time>
      </trkpt>
      <trkpt lat="46.21372" lon="6.77125">
        <ele>1427</ele>
        <time>2010-01-01T05:06:16Z</time>
      </trkpt>
      <trkpt lat="46.21383" lon="6.77111">
        <ele>1424</ele>
        <time>2010-01-01T05:06:22Z</time>
      </trkpt>
      <trkpt lat="46.21418" lon="6.77088">
        <ele>1421</ele>
        <time>2010-01-01T05:06:37Z</time>
      </trkpt>
      <trkpt lat="46.21436" lon="6.77076">
        <ele>1418</ele>
        <time>2010-01-01T05:06:45Z</time>
      </trkpt>
      <trkpt lat="46.21448" lon="6.77066">
        <ele>1421</ele>
        <time>2010-01-01T05:06:50Z</time>
      </trkpt>
      <trkpt lat="46.21453" lon="6.77059">
        <ele>1422</ele>
        <time>2010-01-01T05:06:53Z</time>
      </trkpt>
      <trkpt lat="46.21453" lon="6.77059">
        <ele>1422</ele>
        <time>2010-01-01T05:06:54Z</time>
      </trkpt>
      <trkpt lat="46.21453" lon="6.77053">
        <ele>1421</ele>
        <time>2010-01-01T05:06:55Z</time>
      </trkpt>
      <trkpt lat="46.21454" lon="6.77044">
        <ele>1420</ele>
        <time>2010-01-01T05:06:57Z</time>
      </trkpt>
      <trkpt lat="46.21453" lon="6.77043">
        <ele>1420</ele>
        <time>2010-01-01T05:06:58Z</time>
      </trkpt>
      <trkpt lat="46.21455" lon="6.7705">
        <ele>1421</ele>
        <time>2010-01-01T05:07:00Z</time>
      </trkpt>
      <trkpt lat="46.21454" lon="6.77042">
        <ele>1420</ele>
        <time>2010-01-01T05:07:02Z</time>
      </trkpt>
      <trkpt lat="46.21442" lon="6.77042">
        <ele>1417</ele>
        <time>2010-01-01T05:07:07Z</time>
      </trkpt>
      <trkpt lat="46.21406" lon="6.77066">
        <ele>1402</ele>
        <time>2010-01-01T05:07:23Z</time>
      </trkpt>
      <trkpt lat="46.21375" lon="6.77072">
        <ele>1397</ele>
        <time>2010-01-01T05:07:35Z</time>
      </trkpt>
      <trkpt lat="46.21351" lon="6.77088">
        <ele>1412</ele>
        <time>2010-01-01T05:07:46Z</time>
      </trkpt>
      <trkpt lat="46.21337" lon="6.77102">
        <ele>1413</ele>
        <time>2010-01-01T05:07:53Z</time>
      </trkpt>
      <trkpt lat="46.2133" lon="6.77102">
        <ele>1408</ele>
        <time>2010-01-01T05:07:56Z</time>
      </trkpt>
      <trkpt lat="46.21332" lon="6.77086">
        <ele>1400</ele>
        <time>2010-01-01T05:08:00Z</time>
      </trkpt>
      <trkpt lat="46.21353" lon="6.77058">
        <ele>1394</ele>
        <time>2010-01-01T05:08:12Z</time>
      </trkpt>
      <trkpt lat="46.21377" lon="6.77042">
        <ele>1393</ele>
        <time>2010-01-01T05:08:22Z</time>
      </trkpt>
      <trkpt lat="46.21395" lon="6.77028">
        <ele>1393</ele>
        <time>2010-01-01T05:08:31Z</time>
      </trkpt>
      <trkpt lat="46.21407" lon="6.77008">
        <ele>1391</ele>
        <time>2010-01-01T05:08:38Z</time>
      </trkpt>
      <trkpt lat="46.21414" lon="6.7699">
        <ele>1384</ele>
        <time>2010-01-01T05:08:43Z</time>
      </trkpt>
      <trkpt lat="46.21418" lon="6.76969">
        <ele>1394</ele>
        <time>2010-01-01T05:08:49Z</time>
      </trkpt>
      <trkpt lat="46.21424" lon="6.76959">
        <ele>1394</ele>
        <time>2010-01-01T05:08:53Z</time>
      </trkpt>
      <trkpt lat="46.21434" lon="6.7694">
        <ele>1392</ele>
        <time>2010-01-01T05:09:00Z</time>
      </trkpt>
      <trkpt lat="46.21444" lon="6.76922">
        <ele>1393</ele>
        <time>2010-01-01T05:09:06Z</time>
      </trkpt>
      <trkpt lat="46.21451" lon="6.76908">
        <ele>1384</ele>
        <time>2010-01-01T05:09:11Z</time>
      </trkpt>
      <trkpt lat="46.2146" lon="6.76899">
        <ele>1386</ele>
        <time>2010-01-01T05:09:15Z</time>
      </trkpt>
      <trkpt lat="46.21463" lon="6.769">
        <ele>1388</ele>
        <time>2010-01-01T05:09:17Z</time>
      </trkpt>
      <trkpt lat="46.21472" lon="6.76888">
        <ele>1389</ele>
        <time>2010-01-01T05:09:21Z</time>
      </trkpt>
      <trkpt lat="46.21469" lon="6.76875">
        <ele>1385</ele>
        <time>2010-01-01T05:09:25Z</time>
      </trkpt>
      <trkpt lat="46.21457" lon="6.76877">
        <ele>1382</ele>
        <time>2010-01-01T05:09:30Z</time>
      </trkpt>
      <trkpt lat="46.21437" lon="6.76892">
        <ele>1379</ele>
        <time>2010-01-01T05:09:39Z</time>
      </trkpt>
      <trkpt lat="46.21404" lon="6.76917">
        <ele>1372</ele>
        <time>2010-01-01T05:09:54Z</time>
      </trkpt>
      <trkpt lat="46.21388" lon="6.76933">
        <ele>1372</ele>
        <time>2010-01-01T05:10:02Z</time>
      </trkpt>
      <trkpt lat="46.21387" lon="6.76933">
        <ele>1372</ele>
        <time>2010-01-01T05:10:02Z</time>
      </trkpt>
      <trkpt lat="46.2137" lon="6.76945">
        <ele>1372</ele>
        <time>2010-01-01T05:10:10Z</time>
      </trkpt>
      <trkpt lat="46.21366" lon="6.76939">
        <ele>1371</ele>
        <time>2010-01-01T05:10:12Z</time>
      </trkpt>
      <trkpt lat="46.21375" lon="6.7692">
        <ele>1370</ele>
        <time>2010-01-01T05:10:18Z</time>
      </trkpt>
      <trkpt lat="46.21389" lon="6.76899">
        <ele>1359</ele>
        <time>2010-01-01T05:10:27Z</time>
      </trkpt>
      <trkpt lat="46.214" lon="6.76876">
        <ele>1356</ele>
        <time>2010-01-01T05:10:34Z</time>
      </trkpt>
      <trkpt lat="46.21414" lon="6.76834">
        <ele>1349</ele>
        <time>2010-01-01T05:10:47Z</time>
      </trkpt>
      <trkpt lat="46.21434" lon="6.76791">
        <ele>1357</ele>
        <time>2010-01-01T05:11:01Z</time>
      </trkpt>
      <trkpt lat="46.21442" lon="6.7677">
        <ele>1356</ele>
        <time>2010-01-01T05:11:08Z</time>
      </trkpt>
      <trkpt lat="46.21462" lon="6.76752">
        <ele>1359</ele>
        <time>2010-01-01T05:11:18Z</time>
      </trkpt>
      <trkpt lat="46.21477" lon="6.76742">
        <ele>1355</ele>
        <time>2010-01-01T05:11:24Z</time>
      </trkpt>
      <trkpt lat="46.21494" lon="6.76729">
        <ele>1356</ele>
        <time>2010-01-01T05:11:32Z</time>
      </trkpt>
      <trkpt lat="46.21495" lon="6.76713">
        <ele>1353</ele>
        <time>2010-01-01T05:11:37Z</time>
      </trkpt>
      <trkpt lat="46.21495" lon="6.76712">
        <ele>1353</ele>
        <time>2010-01-01T05:11:37Z</time>
      </trkpt>
      <trkpt lat="46.21482" lon="6.76702">
        <ele>1352</ele>
        <time>2010-01-01T05:11:43Z</time>
      </trkpt>
      <trkpt lat="46.21459" lon="6.76684">
        <ele>1348</ele>
        <time>2010-01-01T05:11:53Z</time>
      </trkpt>
      <trkpt lat="46.21455" lon="6.76671">
        <ele>1347</ele>
        <time>2010-01-01T05:11:57Z</time>
      </trkpt>
      <trkpt lat="46.21458" lon="6.76654">
        <ele>1336</ele>
        <time>2010-01-01T05:12:02Z</time>
      </trkpt>
      <trkpt lat="46.21467" lon="6.76622">
        <ele>1333</ele>
        <time>2010-01-01T05:12:12Z</time>
      </trkpt>
      <trkpt lat="46.2148" lon="6.76593">
        <ele>1330</ele>
        <time>2010-01-01T05:12:21Z</time>
      </trkpt>
      <trkpt lat="46.21468" lon="6.76571">
        <ele>1312</ele>
        <time>2010-01-01T05:12:29Z</time>
      </trkpt>
      <trkpt lat="46.21466" lon="6.76557">
        <ele>1309</ele>
        <time>2010-01-01T05:12:33Z</time>
      </trkpt>
      <trkpt lat="46.21473" lon="6.76552">
        <ele>1310</ele>
        <time>2010-01-01T05:12:36Z</time>
      </trkpt>
      <trkpt lat="46.21487" lon="6.76566">
        <ele>1316</ele>
        <time>2010-01-01T05:12:43Z</time>
      </trkpt>
      <trkpt lat="46.21502" lon="6.76584">
        <ele>1333</ele>
        <time>2010-01-01T05:12:50Z</time>
      </trkpt>
      <trkpt lat="46.21512" lon="6.76589">
        <ele>1346</ele>
        <time>2010-01-01T05:12:55Z</time>
      </trkpt>
      <trkpt lat="46.21515" lon="6.76574">
        <ele>1339</ele>
        <time>2010-01-01T05:12:59Z</time>
      </trkpt>
      <trkpt lat="46.21508" lon="6.76558">
        <ele>1339</ele>
        <time>2010-01-01T05:13:04Z</time>
      </trkpt>
      <trkpt lat="46.21507" lon="6.76557">
        <ele>1339</ele>
        <time>2010-01-01T05:13:05Z</time>
      </trkpt>
      <trkpt lat="46.21499" lon="6.76544">
        <ele>1312</ele>
        <time>2010-01-01T05:13:10Z</time>
      </trkpt>
      <trkpt lat="46.2151" lon="6.76528">
        <ele>1335</ele>
        <time>2010-01-01T05:13:16Z</time>
      </trkpt>
      <trkpt lat="46.21528" lon="6.76517">
        <ele>1339</ele>
        <time>2010-01-01T05:13:24Z</time>
      </trkpt>
      <trkpt lat="46.21545" lon="6.76478">
        <ele>1326</ele>
        <time>2010-01-01T05:13:37Z</time>
      </trkpt>
      <trkpt lat="46.21565" lon="6.76429">
        <ele>1325</ele>
        <time>2010-01-01T05:13:52Z</time>
      </trkpt>
      <trkpt lat="46.21576" lon="6.76389">
        <ele>1305</ele>
        <time>2010-01-01T05:14:04Z</time>
      </trkpt>
      <trkpt lat="46.21583" lon="6.76357">
        <ele>1299</ele>
        <time>2010-01-01T05:14:14Z</time>
      </trkpt>
      <trkpt lat="46.21575" lon="6.76353">
        <ele>1298</ele>
        <time>2010-01-01T05:14:17Z</time>
      </trkpt>
      <trkpt lat="46.21564" lon="6.76373">
        <ele>1298</ele>
        <time>2010-01-01T05:14:24Z</time>
      </trkpt>
      <trkpt lat="46.21556" lon="6.76401">
        <ele>1302</ele>
        <time>2010-01-01T05:14:32Z</time>
      </trkpt>
      <trkpt lat="46.2153" lon="6.76435">
        <ele>1313</ele>
        <time>2010-01-01T05:14:46Z</time>
      </trkpt>
      <trkpt lat="46.21514" lon="6.76452">
        <ele>1312</ele>
        <time>2010-01-01T05:14:54Z</time>
      </trkpt>
      <trkpt lat="46.21482" lon="6.76466">
        <ele>1284</ele>
        <time>2010-01-01T05:15:08Z</time>
      </trkpt>
      <trkpt lat="46.2145" lon="6.76492">
        <ele>1280</ele>
        <time>2010-01-01T05:15:23Z</time>
      </trkpt>
      <trkpt lat="46.21414" lon="6.76524">
        <ele>1276</ele>
        <time>2010-01-01T05:15:39Z</time>
      </trkpt>
      <trkpt lat="46.2141" lon="6.7653">
        <ele>1277</ele>
        <time>2010-01-01T05:15:42Z</time>
      </trkpt>
      <trkpt lat="46.21387" lon="6.7656">
        <ele>1282</ele>
        <time>2010-01-01T05:15:54Z</time>
      </trkpt>
      <trkpt lat="46.21365" lon="6.76579">
        <ele>1278</ele>
        <time>2010-01-01T05:16:04Z</time>
      </trkpt>
      <trkpt lat="46.21349" lon="6.76585">
        <ele>1285</ele>
        <time>2010-01-01T05:16:11Z</time>
      </trkpt>
      <trkpt lat="46.21357" lon="6.76561">
        <ele>1275</ele>
        <time>2010-01-01T05:16:19Z</time>
      </trkpt>
      <trkpt lat="46.21405" lon="6.76505">
        <ele>1273</ele>
        <time>2010-01-01T05:16:43Z</time>
      </trkpt>
      <trkpt lat="46.21407" lon="6.76503">
        <ele>1273</ele>
        <time>2010-01-01T05:16:44Z</time>
      </trkpt>
      <trkpt lat="46.21456" lon="6.76423">
        <ele>1272</ele>
        <time>2010-01-01T05:17:14Z</time>
      </trkpt>
      <trkpt lat="46.21486" lon="6.76357">
        <ele>1257</ele>
        <time>2010-01-01T05:17:36Z</time>
      </trkpt>
      <trkpt lat="46.21511" lon="6.7632">
        <ele>1263</ele>
        <time>2010-01-01T05:17:50Z</time>
      </trkpt>
      <trkpt lat="46.21525" lon="6.76254">
        <ele>1260</ele>
        <time>2010-01-01T05:18:09Z</time>
      </trkpt>
      <trkpt lat="46.2153" lon="6.76205">
        <ele>1248</ele>
        <time>2010-01-01T05:18:23Z</time>
      </trkpt>
      <trkpt lat="46.21553" lon="6.76148">
        <ele>1241</ele>
        <time>2010-01-01T05:18:41Z</time>
      </trkpt>
      <trkpt lat="46.21562" lon="6.76106">
        <ele>1239</ele>
        <time>2010-01-01T05:18:53Z</time>
      </trkpt>
      <trkpt lat="46.21556" lon="6.7607">
        <ele>1232</ele>
        <time>2010-01-01T05:19:04Z</time>
      </trkpt>
      <trkpt lat="46.21574" lon="6.7603">
        <ele>1232</ele>
        <time>2010-01-01T05:19:17Z</time>
      </trkpt>
      <trkpt lat="46.21583" lon="6.75968">
        <ele>1226</ele>
        <time>2010-01-01T05:19:34Z</time>
      </trkpt>
      <trkpt lat="46.21573" lon="6.75907">
        <ele>1221</ele>
        <time>2010-01-01T05:19:52Z</time>
      </trkpt>
      <trkpt lat="46.21534" lon="6.75769">
        <ele>1210</ele>
        <time>2010-01-01T05:20:33Z</time>
      </trkpt>
      <trkpt lat="46.21522" lon="6.75737">
        <ele>1209</ele>
        <time>2010-01-01T05:20:43Z</time>
      </trkpt>
      <trkpt lat="46.21512" lon="6.75704">
        <ele>1210</ele>
        <time>2010-01-01T05:20:53Z</time>
      </trkpt>
      <trkpt lat="46.21512" lon="6.75703">
        <ele>1210</ele>
        <time>2010-01-01T05:20:53Z</time>
      </trkpt>
      <trkpt lat="46.21501" lon="6.75656">
        <ele>1208</ele>
        <time>2010-01-01T05:21:07Z</time>
      </trkpt>
      <trkpt lat="46.21497" lon="6.75626">
        <ele>1212</ele>
        <time>2010-01-01T05:21:16Z</time>
      </trkpt>
      <trkpt lat="46.2149" lon="6.75581">
        <ele>1208</ele>
        <time>2010-01-01T05:21:28Z</time>
      </trkpt>
      <trkpt lat="46.21493" lon="6.75532">
        <ele>1205</ele>
        <time>2010-01-01T05:21:42Z</time>
      </trkpt>
      <trkpt lat="46.21501" lon="6.75488">
        <ele>1206</ele>
        <time>2010-01-01T05:21:55Z</time>
      </trkpt>
      <trkpt lat="46.21518" lon="6.75437">
        <ele>1205</ele>
        <time>2010-01-01T05:22:10Z</time>
      </trkpt>
      <trkpt lat="46.21519" lon="6.75387">
        <ele>1202</ele>
        <time>2010-01-01T05:22:24Z</time>
      </trkpt>
      <trkpt lat="46.21526" lon="6.75331">
        <ele>1199</ele>
        <time>2010-01-01T05:22:40Z</time>
      </trkpt>
      <trkpt lat="46.21537" lon="6.75281">
        <ele>1204</ele>
        <time>2010-01-01T05:22:54Z</time>
      </trkpt>
      <trkpt lat="46.21508" lon="6.75122">
        <ele>1203</ele>
        <time>2010-01-01T05:23:40Z</time>
      </trkpt>
      <trkpt lat="46.21486" lon="6.75059">
        <ele>1184</ele>
        <time>2010-01-01T05:23:59Z</time>
      </trkpt>
      <trkpt lat="46.21463" lon="6.74996">
        <ele>1188</ele>
        <time>2010-01-01T05:24:19Z</time>
      </trkpt>
      <trkpt lat="46.21429" lon="6.7491">
        <ele>1185</ele>
        <time>2010-01-01T05:24:47Z</time>
      </trkpt>
      <trkpt lat="46.21399" lon="6.74845">
        <ele>1171</ele>
        <time>2010-01-01T05:25:08Z</time>
      </trkpt>
      <trkpt lat="46.21332" lon="6.74736">
        <ele>1151</ele>
        <time>2010-01-01T05:25:48Z</time>
      </trkpt>
      <trkpt lat="46.21279" lon="6.74618">
        <ele>1153</ele>
        <time>2010-01-01T05:26:27Z</time>
      </trkpt>
      <trkpt lat="46.21262" lon="6.74557">
        <ele>1155</ele>
        <time>2010-01-01T05:26:46Z</time>
      </trkpt>
      <trkpt lat="46.21259" lon="6.74508">
        <ele>1150</ele>
        <time>2010-01-01T05:26:59Z</time>
      </trkpt>
      <trkpt lat="46.21217" lon="6.7434">
        <ele>1129</ele>
        <time>2010-01-01T05:27:49Z</time>
      </trkpt>
      <trkpt lat="46.21193" lon="6.74243">
        <ele>1129</ele>
        <time>2010-01-01T05:28:17Z</time>
      </trkpt>
      <trkpt lat="46.21163" lon="6.74166">
        <ele>1119</ele>
        <time>2010-01-01T05:28:42Z</time>
      </trkpt>
      <trkpt lat="46.21152" lon="6.74069">
        <ele>1112</ele>
        <time>2010-01-01T05:29:09Z</time>
      </trkpt>
      <trkpt lat="46.21122" lon="6.73951">
        <ele>1106</ele>
        <time>2010-01-01T05:29:44Z</time>
      </trkpt>
      <trkpt lat="46.21111" lon="6.73814">
        <ele>1107</ele>
        <time>2010-01-01T05:30:22Z</time>
      </trkpt>
      <trkpt lat="46.21109" lon="6.73736">
        <ele>1108</ele>
        <time>2010-01-01T05:30:44Z</time>
      </trkpt>
      <trkpt lat="46.21098" lon="6.73588">
        <ele>1105</ele>
        <time>2010-01-01T05:31:25Z</time>
      </trkpt>
      <trkpt lat="46.21088" lon="6.73516">
        <ele>1107</ele>
        <time>2010-01-01T05:31:45Z</time>
      </trkpt>
      <trkpt lat="46.21081" lon="6.7348">
        <ele>1088</ele>
        <time>2010-01-01T05:31:56Z</time>
      </trkpt>
      <trkpt lat="46.21072" lon="6.7345">
        <ele>1087</ele>
        <time>2010-01-01T05:32:05Z</time>
      </trkpt>
      <trkpt lat="46.21051" lon="6.73556">
        <ele>1081</ele>
        <time>2010-01-01T05:32:35Z</time>
      </trkpt>
      <trkpt lat="46.21032" lon="6.7365">
        <ele>1079</ele>
        <time>2010-01-01T05:33:02Z</time>
      </trkpt>
      <trkpt lat="46.20991" lon="6.73691">
        <ele>1079</ele>
        <time>2010-01-01T05:33:22Z</time>
      </trkpt>
      <trkpt lat="46.20946" lon="6.73701">
        <ele>1083</ele>
        <time>2010-01-01T05:33:41Z</time>
      </trkpt>
      <trkpt lat="46.20891" lon="6.73669">
        <ele>1094</ele>
        <time>2010-01-01T05:34:04Z</time>
      </trkpt>
      <trkpt lat="46.20872" lon="6.736">
        <ele>1084</ele>
        <time>2010-01-01T05:34:25Z</time>
      </trkpt>
      <trkpt lat="46.20856" lon="6.7357">
        <ele>1080</ele>
        <time>2010-01-01T05:34:35Z</time>
      </trkpt>
      <trkpt lat="46.2082" lon="6.73543">
        <ele>1099</ele>
        <time>2010-01-01T05:34:52Z</time>
      </trkpt>
      <trkpt lat="46.20812" lon="6.73475">
        <ele>1094</ele>
        <time>2010-01-01T05:35:11Z</time>
      </trkpt>
      <trkpt lat="46.20804" lon="6.73424">
        <ele>1094</ele>
        <time>2010-01-01T05:35:25Z</time>
      </trkpt>
      <trkpt lat="46.20814" lon="6.73354">
        <ele>1084</ele>
        <time>2010-01-01T05:35:45Z</time>
      </trkpt>
      <trkpt lat="46.20789" lon="6.73229">
        <ele>1083</ele>
        <time>2010-01-01T05:36:21Z</time>
      </trkpt>
      <trkpt lat="46.20764" lon="6.73177">
        <ele>1088</ele>
        <time>2010-01-01T05:36:39Z</time>
      </trkpt>
      <trkpt lat="46.2075" lon="6.73106">
        <ele>1115</ele>
        <time>2010-01-01T05:36:59Z</time>
      </trkpt>
      <trkpt lat="46.20762" lon="6.73047">
        <ele>1089</ele>
        <time>2010-01-01T05:37:16Z</time>
      </trkpt>
      <trkpt lat="46.20759" lon="6.72957">
        <ele>1084</ele>
        <time>2010-01-01T05:37:41Z</time>
      </trkpt>
      <trkpt lat="46.2075" lon="6.72843">
        <ele>1095</ele>
        <time>2010-01-01T05:38:13Z</time>
      </trkpt>
      <trkpt lat="46.2075" lon="6.72712">
        <ele>1108</ele>
        <time>2010-01-01T05:38:49Z</time>
      </trkpt>
      <trkpt lat="46.20747" lon="6.72628">
        <ele>1105</ele>
        <time>2010-01-01T05:39:13Z</time>
      </trkpt>
      <trkpt lat="46.20745" lon="6.72563">
        <ele>1104</ele>
        <time>2010-01-01T05:39:31Z</time>
      </trkpt>
      <trkpt lat="46.20741" lon="6.72521">
        <ele>1108</ele>
        <time>2010-01-01T05:39:42Z</time>
      </trkpt>
      <trkpt lat="46.20748" lon="6.72455">
        <ele>1113</ele>
        <time>2010-01-01T05:40:01Z</time>
      </trkpt>
      <trkpt lat="46.20763" lon="6.72415">
        <ele>1092</ele>
        <time>2010-01-01T05:40:13Z</time>
      </trkpt>
      <trkpt lat="46.20763" lon="6.72356">
        <ele>1083</ele>
        <time>2010-01-01T05:40:30Z</time>
      </trkpt>
      <trkpt lat="46.20763" lon="6.72354">
        <ele>1083</ele>
        <time>2010-01-01T05:40:30Z</time>
      </trkpt>
      <trkpt lat="46.20748" lon="6.72207">
        <ele>1092</ele>
        <time>2010-01-01T05:41:11Z</time>
      </trkpt>
      <trkpt lat="46.20744" lon="6.7213">
        <ele>1093</ele>
        <time>2010-01-01T05:41:33Z</time>
      </trkpt>
      <trkpt lat="46.20745" lon="6.72083">
        <ele>1088</ele>
        <time>2010-01-01T05:41:46Z</time>
      </trkpt>
      <trkpt lat="46.20792" lon="6.72051">
        <ele>1082</ele>
        <time>2010-01-01T05:42:07Z</time>
      </trkpt>
      <trkpt lat="46.20823" lon="6.72037">
        <ele>1081</ele>
        <time>2010-01-01T05:42:20Z</time>
      </trkpt>
      <trkpt lat="46.20841" lon="6.72013">
        <ele>1081</ele>
        <time>2010-01-01T05:42:29Z</time>
      </trkpt>
      <trkpt lat="46.20869" lon="6.71968">
        <ele>1090</ele>
        <time>2010-01-01T05:42:46Z</time>
      </trkpt>
      <trkpt lat="46.20883" lon="6.71944">
        <ele>1092</ele>
        <time>2010-01-01T05:42:55Z</time>
      </trkpt>
      <trkpt lat="46.20881" lon="6.71908">
        <ele>1097</ele>
        <time>2010-01-01T05:43:05Z</time>
      </trkpt>
      <trkpt lat="46.20862" lon="6.71822">
        <ele>1094</ele>
        <time>2010-01-01T05:43:30Z</time>
      </trkpt>
      <trkpt lat="46.2085" lon="6.7177">
        <ele>1091</ele>
        <time>2010-01-01T05:43:45Z</time>
      </trkpt>
      <trkpt lat="46.20846" lon="6.71716">
        <ele>1091</ele>
        <time>2010-01-01T05:44:00Z</time>
      </trkpt>
      <trkpt lat="46.2082" lon="6.71624">
        <ele>1070</ele>
        <time>2010-01-01T05:44:28Z</time>
      </trkpt>
      <trkpt lat="46.20781" lon="6.71587">
        <ele>1065</ele>
        <time>2010-01-01T05:44:46Z</time>
      </trkpt>
      <trkpt lat="46.20742" lon="6.71583">
        <ele>1055</ele>
        <time>2010-01-01T05:45:02Z</time>
      </trkpt>
      <trkpt lat="46.20723" lon="6.71558">
        <ele>1054</ele>
        <time>2010-01-01T05:45:12Z</time>
      </trkpt>
      <trkpt lat="46.20711" lon="6.71512">
        <ele>1051</ele>
        <time>2010-01-01T05:45:26Z</time>
      </trkpt>
      <trkpt lat="46.20693" lon="6.7143">
        <ele>1035</ele>
        <time>2010-01-01T05:45:50Z</time>
      </trkpt>
      <trkpt lat="46.20684" lon="6.71355">
        <ele>1023</ele>
        <time>2010-01-01T05:46:11Z</time>
      </trkpt>
      <trkpt lat="46.20679" lon="6.71295">
        <ele>1015</ele>
        <time>2010-01-01T05:46:27Z</time>
      </trkpt>
      <trkpt lat="46.20681" lon="6.71238">
        <ele>1007</ele>
        <time>2010-01-01T05:46:43Z</time>
      </trkpt>
      <trkpt lat="46.20672" lon="6.71172">
        <ele>1000</ele>
        <time>2010-01-01T05:47:02Z</time>
      </trkpt>
      <trkpt lat="46.20659" lon="6.71101">
        <ele>996</ele>
        <time>2010-01-01T05:47:22Z</time>
      </trkpt>
      <trkpt lat="46.20639" lon="6.71097">
        <ele>996</ele>
        <time>2010-01-01T05:47:30Z</time>
      </trkpt>
      <trkpt lat="46.20609" lon="6.7109">
        <ele>996</ele>
        <time>2010-01-01T05:47:43Z</time>
      </trkpt>
      <trkpt lat="46.20583" lon="6.71059">
        <ele>997</ele>
        <time>2010-01-01T05:47:56Z</time>
      </trkpt>
      <trkpt lat="46.20551" lon="6.71005">
        <ele>997</ele>
        <time>2010-01-01T05:48:16Z</time>
      </trkpt>
      <trkpt lat="46.20527" lon="6.70942">
        <ele>994</ele>
        <time>2010-01-01T05:48:36Z</time>
      </trkpt>
      <trkpt lat="46.20498" lon="6.70871">
        <ele>996</ele>
        <time>2010-01-01T05:48:58Z</time>
      </trkpt>
      <trkpt lat="46.20476" lon="6.70835">
        <ele>995</ele>
        <time>2010-01-01T05:49:12Z</time>
      </trkpt>
      <trkpt lat="46.2045" lon="6.70787">
        <ele>990</ele>
        <time>2010-01-01T05:49:29Z</time>
      </trkpt>
      <trkpt lat="46.20433" lon="6.70733">
        <ele>984</ele>
        <time>2010-01-01T05:49:45Z</time>
      </trkpt>
      <trkpt lat="46.2042" lon="6.70691">
        <ele>980</ele>
        <time>2010-01-01T05:49:58Z</time>
      </trkpt>
      <trkpt lat="46.20402" lon="6.70611">
        <ele>985</ele>
        <time>2010-01-01T05:50:21Z</time>
      </trkpt>
      <trkpt lat="46.20395" lon="6.70561">
        <ele>976</ele>
        <time>2010-01-01T05:50:35Z</time>
      </trkpt>
      <trkpt lat="46.20389" lon="6.7052">
        <ele>974</ele>
        <time>2010-01-01T05:50:47Z</time>
      </trkpt>
      <trkpt lat="46.20367" lon="6.70459">
        <ele>969</ele>
        <time>2010-01-01T05:51:06Z</time>
      </trkpt>
      <trkpt lat="46.20349" lon="6.70417">
        <ele>967</ele>
        <time>2010-01-01T05:51:20Z</time>
      </trkpt>
      <trkpt lat="46.20338" lon="6.70364">
        <ele>961</ele>
        <time>2010-01-01T05:51:35Z</time>
      </trkpt>
      <trkpt lat="46.20319" lon="6.70291">
        <ele>957</ele>
        <time>2010-01-01T05:51:57Z</time>
      </trkpt>
      <trkpt lat="46.20317" lon="6.70245">
        <ele>949</ele>
        <time>2010-01-01T05:52:10Z</time>
      </trkpt>
      <trkpt lat="46.20327" lon="6.70208">
        <ele>950</ele>
        <time>2010-01-01T05:52:21Z</time>
      </trkpt>
      <trkpt lat="46.20322" lon="6.70169">
        <ele>947</ele>
        <time>2010-01-01T05:52:31Z</time>
      </trkpt>
      <trkpt lat="46.20307" lon="6.70137">
        <ele>950</ele>
        <time>2010-01-01T05:52:42Z</time>
      </trkpt>
      <trkpt lat="46.2028" lon="6.70096">
        <ele>951</ele>
        <time>2010-01-01T05:52:58Z</time>
      </trkpt>
      <trkpt lat="46.2027" lon="6.70052">
        <ele>952</ele>
        <time>2010-01-01T05:53:11Z</time>
      </trkpt>
      <trkpt lat="46.20264" lon="6.70017">
        <ele>950</ele>
        <time>2010-01-01T05:53:21Z</time>
      </trkpt>
      <trkpt lat="46.20254" lon="6.69973">
        <ele>951</ele>
        <time>2010-01-01T05:53:34Z</time>
      </trkpt>
      <trkpt lat="46.20234" lon="6.69906">
        <ele>945</ele>
        <time>2010-01-01T05:53:54Z</time>
      </trkpt>
      <trkpt lat="46.20221" lon="6.69845">
        <ele>944</ele>
        <time>2010-01-01T05:54:12Z</time>
      </trkpt>
      <trkpt lat="46.20217" lon="6.69814">
        <ele>940</ele>
        <time>2010-01-01T05:54:20Z</time>
      </trkpt>
      <trkpt lat="46.20229" lon="6.69777">
        <ele>939</ele>
        <time>2010-01-01T05:54:32Z</time>
      </trkpt>
      <trkpt lat="46.20229" lon="6.69774">
        <ele>939</ele>
        <time>2010-01-01T05:54:32Z</time>
      </trkpt>
      <trkpt lat="46.20213" lon="6.69731">
        <ele>937</ele>
        <time>2010-01-01T05:54:46Z</time>
      </trkpt>
      <trkpt lat="46.20195" lon="6.69671">
        <ele>936</ele>
        <time>2010-01-01T05:55:04Z</time>
      </trkpt>
      <trkpt lat="46.20181" lon="6.69607">
        <ele>936</ele>
        <time>2010-01-01T05:55:23Z</time>
      </trkpt>
      <trkpt lat="46.20165" lon="6.69543">
        <ele>931</ele>
        <time>2010-01-01T05:55:41Z</time>
      </trkpt>
      <trkpt lat="46.20161" lon="6.69472">
        <ele>925</ele>
        <time>2010-01-01T05:56:01Z</time>
      </trkpt>
      <trkpt lat="46.20153" lon="6.69432">
        <ele>926</ele>
        <time>2010-01-01T05:56:13Z</time>
      </trkpt>
      <trkpt lat="46.20129" lon="6.69397">
        <ele>925</ele>
        <time>2010-01-01T05:56:26Z</time>
      </trkpt>
      <trkpt lat="46.20098" lon="6.69369">
        <ele>923</ele>
        <time>2010-01-01T05:56:41Z</time>
      </trkpt>
      <trkpt lat="46.20077" lon="6.69328">
        <ele>920</ele>
        <time>2010-01-01T05:56:55Z</time>
      </trkpt>
      <trkpt lat="46.20063" lon="6.69284">
        <ele>921</ele>
        <time>2010-01-01T05:57:09Z</time>
      </trkpt>
      <trkpt lat="46.20039" lon="6.6919">
        <ele>917</ele>
        <time>2010-01-01T05:57:36Z</time>
      </trkpt>
      <trkpt lat="46.20034" lon="6.69104">
        <ele>911</ele>
        <time>2010-01-01T05:58:00Z</time>
      </trkpt>
      <trkpt lat="46.20025" lon="6.69054">
        <ele>908</ele>
        <time>2010-01-01T05:58:15Z</time>
      </trkpt>
      <trkpt lat="46.20011" lon="6.68979">
        <ele>904</ele>
        <time>2010-01-01T05:58:36Z</time>
      </trkpt>
      <trkpt lat="46.20002" lon="6.68939">
        <ele>902</ele>
        <time>2010-01-01T05:58:48Z</time>
      </trkpt>
      <trkpt lat="46.2002" lon="6.68898">
        <ele>900</ele>
        <time>2010-01-01T05:59:01Z</time>
      </trkpt>
      <trkpt lat="46.20016" lon="6.68875">
        <ele>900</ele>
        <time>2010-01-01T05:59:08Z</time>
      </trkpt>
      <trkpt lat="46.19995" lon="6.68872">
        <ele>896</ele>
        <time>2010-01-01T05:59:16Z</time>
      </trkpt>
      <trkpt lat="46.19968" lon="6.68897">
        <ele>896</ele>
        <time>2010-01-01T05:59:29Z</time>
      </trkpt>
      <trkpt lat="46.19935" lon="6.68913">
        <ele>897</ele>
        <time>2010-01-01T05:59:43Z</time>
      </trkpt>
      <trkpt lat="46.19912" lon="6.68902">
        <ele>897</ele>
        <time>2010-01-01T05:59:53Z</time>
      </trkpt>
      <trkpt lat="46.19903" lon="6.68858">
        <ele>897</ele>
        <time>2010-01-01T06:00:05Z</time>
      </trkpt>
      <trkpt lat="46.19887" lon="6.68833">
        <ele>896</ele>
        <time>2010-01-01T06:00:15Z</time>
      </trkpt>
      <trkpt lat="46.19856" lon="6.68822">
        <ele>897</ele>
        <time>2010-01-01T06:00:28Z</time>
      </trkpt>
      <trkpt lat="46.19832" lon="6.68817">
        <ele>898</ele>
        <time>2010-01-01T06:00:37Z</time>
      </trkpt>
      <trkpt lat="46.19822" lon="6.68795">
        <ele>899</ele>
        <time>2010-01-01T06:00:45Z</time>
      </trkpt>
      <trkpt lat="46.19807" lon="6.68802">
        <ele>900</ele>
        <time>2010-01-01T06:00:51Z</time>
      </trkpt>
      <trkpt lat="46.19782" lon="6.68829">
        <ele>900</ele>
        <time>2010-01-01T06:01:04Z</time>
      </trkpt>
      <trkpt lat="46.1969" lon="6.68913">
        <ele>903</ele>
        <time>2010-01-01T06:01:47Z</time>
      </trkpt>
      <trkpt lat="46.19658" lon="6.68945">
        <ele>905</ele>
        <time>2010-01-01T06:02:03Z</time>
      </trkpt>
      <trkpt lat="46.19623" lon="6.68973">
        <ele>906</ele>
        <time>2010-01-01T06:02:19Z</time>
      </trkpt>
      <trkpt lat="46.19597" lon="6.68999">
        <ele>905</ele>
        <time>2010-01-01T06:02:31Z</time>
      </trkpt>
      <trkpt lat="46.19552" lon="6.69032">
        <ele>914</ele>
        <time>2010-01-01T06:02:52Z</time>
      </trkpt>
      <trkpt lat="46.19532" lon="6.69045">
        <ele>915</ele>
        <time>2010-01-01T06:03:00Z</time>
      </trkpt>
      <trkpt lat="46.19507" lon="6.69049">
        <ele>916</ele>
        <time>2010-01-01T06:03:10Z</time>
      </trkpt>
      <trkpt lat="46.19489" lon="6.69058">
        <ele>925</ele>
        <time>2010-01-01T06:03:18Z</time>
      </trkpt>
      <trkpt lat="46.19478" lon="6.69069">
        <ele>925</ele>
        <time>2010-01-01T06:03:23Z</time>
      </trkpt>
      <trkpt lat="46.19481" lon="6.6911">
        <ele>917</ele>
        <time>2010-01-01T06:03:35Z</time>
      </trkpt>
      <trkpt lat="46.19482" lon="6.69159">
        <ele>915</ele>
        <time>2010-01-01T06:03:48Z</time>
      </trkpt>
      <trkpt lat="46.19452" lon="6.69194">
        <ele>914</ele>
        <time>2010-01-01T06:04:04Z</time>
      </trkpt>
      <trkpt lat="46.19418" lon="6.69226">
        <ele>914</ele>
        <time>2010-01-01T06:04:20Z</time>
      </trkpt>
      <trkpt lat="46.19397" lon="6.69236">
        <ele>921</ele>
        <time>2010-01-01T06:04:29Z</time>
      </trkpt>
      <trkpt lat="46.19374" lon="6.69253">
        <ele>920</ele>
        <time>2010-01-01T06:04:39Z</time>
      </trkpt>
      <trkpt lat="46.19373" lon="6.69254">
        <ele>920</ele>
        <time>2010-01-01T06:04:40Z</time>
      </trkpt>
      <trkpt lat="46.19357" lon="6.69297">
        <ele>920</ele>
        <time>2010-01-01T06:04:53Z</time>
      </trkpt>
      <trkpt lat="46.19351" lon="6.69327">
        <ele>920</ele>
        <time>2010-01-01T06:05:02Z</time>
      </trkpt>
      <trkpt lat="46.19353" lon="6.69352">
        <ele>917</ele>
        <time>2010-01-01T06:05:09Z</time>
      </trkpt>
      <trkpt lat="46.19346" lon="6.6939">
        <ele>916</ele>
        <time>2010-01-01T06:05:20Z</time>
      </trkpt>
      <trkpt lat="46.19337" lon="6.69418">
        <ele>915</ele>
        <time>2010-01-01T06:05:28Z</time>
      </trkpt>
      <trkpt lat="46.19314" lon="6.69452">
        <ele>917</ele>
        <time>2010-01-01T06:05:41Z</time>
      </trkpt>
      <trkpt lat="46.19287" lon="6.69482">
        <ele>917</ele>
        <time>2010-01-01T06:05:55Z</time>
      </trkpt>
      <trkpt lat="46.19255" lon="6.69505">
        <ele>918</ele>
        <time>2010-01-01T06:06:09Z</time>
      </trkpt>
      <trkpt lat="46.19218" lon="6.69526">
        <ele>921</ele>
        <time>2010-01-01T06:06:25Z</time>
      </trkpt>
      <trkpt lat="46.19202" lon="6.69529">
        <ele>921</ele>
        <time>2010-01-01T06:06:32Z</time>
      </trkpt>
      <trkpt lat="46.1919" lon="6.69534">
        <ele>922</ele>
        <time>2010-01-01T06:06:37Z</time>
      </trkpt>
      <trkpt lat="46.19175" lon="6.69539">
        <ele>922</ele>
        <time>2010-01-01T06:06:43Z</time>
      </trkpt>
      <trkpt lat="46.19159" lon="6.69543">
        <ele>927</ele>
        <time>2010-01-01T06:06:50Z</time>
      </trkpt>
      <trkpt lat="46.19143" lon="6.6955">
        <ele>927</ele>
        <time>2010-01-01T06:06:56Z</time>
      </trkpt>
      <trkpt lat="46.19133" lon="6.69562">
        <ele>927</ele>
        <time>2010-01-01T06:07:01Z</time>
      </trkpt>
      <trkpt lat="46.19118" lon="6.6959">
        <ele>925</ele>
        <time>2010-01-01T06:07:11Z</time>
      </trkpt>
      <trkpt lat="46.19102" lon="6.69613">
        <ele>926</ele>
        <time>2010-01-01T06:07:20Z</time>
      </trkpt>
      <trkpt lat="46.191" lon="6.69616">
        <ele>926</ele>
        <time>2010-01-01T06:07:21Z</time>
      </trkpt>
      <trkpt lat="46.19081" lon="6.69638">
        <ele>929</ele>
        <time>2010-01-01T06:07:31Z</time>
      </trkpt>
      <trkpt lat="46.19052" lon="6.69647">
        <ele>929</ele>
        <time>2010-01-01T06:07:43Z</time>
      </trkpt>
      <trkpt lat="46.1902" lon="6.69647">
        <ele>929</ele>
        <time>2010-01-01T06:07:56Z</time>
      </trkpt>
      <trkpt lat="46.18993" lon="6.69657">
        <ele>931</ele>
        <time>2010-01-01T06:08:07Z</time>
      </trkpt>
      <trkpt lat="46.1897" lon="6.69682">
        <ele>931</ele>
        <time>2010-01-01T06:08:18Z</time>
      </trkpt>
      <trkpt lat="46.18947" lon="6.69709">
        <ele>932</ele>
        <time>2010-01-01T06:08:30Z</time>
      </trkpt>
      <trkpt lat="46.18924" lon="6.69745">
        <ele>929</ele>
        <time>2010-01-01T06:08:44Z</time>
      </trkpt>
      <trkpt lat="46.18907" lon="6.6977">
        <ele>931</ele>
        <time>2010-01-01T06:08:54Z</time>
      </trkpt>
      <trkpt lat="46.18886" lon="6.69784">
        <ele>932</ele>
        <time>2010-01-01T06:09:03Z</time>
      </trkpt>
      <trkpt lat="46.18855" lon="6.69798">
        <ele>932</ele>
        <time>2010-01-01T06:09:16Z</time>
      </trkpt>
      <trkpt lat="46.18854" lon="6.69799">
        <ele>932</ele>
        <time>2010-01-01T06:09:16Z</time>
      </trkpt>
      <trkpt lat="46.18811" lon="6.69815">
        <ele>936</ele>
        <time>2010-01-01T06:09:34Z</time>
      </trkpt>
      <trkpt lat="46.18785" lon="6.69834">
        <ele>933</ele>
        <time>2010-01-01T06:09:46Z</time>
      </trkpt>
      <trkpt lat="46.18783" lon="6.69836">
        <ele>933</ele>
        <time>2010-01-01T06:09:47Z</time>
      </trkpt>
      <trkpt lat="46.18758" lon="6.69866">
        <ele>934</ele>
        <time>2010-01-01T06:10:00Z</time>
      </trkpt>
      <trkpt lat="46.18757" lon="6.69868">
        <ele>933</ele>
        <time>2010-01-01T06:10:00Z</time>
      </trkpt>
      <trkpt lat="46.18742" lon="6.69895">
        <ele>938</ele>
        <time>2010-01-01T06:10:10Z</time>
      </trkpt>
      <trkpt lat="46.18741" lon="6.69896">
        <ele>938</ele>
        <time>2010-01-01T06:10:10Z</time>
      </trkpt>
      <trkpt lat="46.18738" lon="6.69935">
        <ele>935</ele>
        <time>2010-01-01T06:10:21Z</time>
      </trkpt>
      <trkpt lat="46.18738" lon="6.69985">
        <ele>936</ele>
        <time>2010-01-01T06:10:35Z</time>
      </trkpt>
      <trkpt lat="46.18718" lon="6.70027">
        <ele>938</ele>
        <time>2010-01-01T06:10:49Z</time>
      </trkpt>
      <trkpt lat="46.18717" lon="6.70031">
        <ele>939</ele>
        <time>2010-01-01T06:10:51Z</time>
      </trkpt>
      <trkpt lat="46.18706" lon="6.70066">
        <ele>940</ele>
        <time>2010-01-01T06:11:01Z</time>
      </trkpt>
      <trkpt lat="46.18706" lon="6.70068">
        <ele>940</ele>
        <time>2010-01-01T06:11:02Z</time>
      </trkpt>
      <trkpt lat="46.18692" lon="6.70105">
        <ele>944</ele>
        <time>2010-01-01T06:11:13Z</time>
      </trkpt>
      <trkpt lat="46.18673" lon="6.70134">
        <ele>944</ele>
        <time>2010-01-01T06:11:25Z</time>
      </trkpt>
      <trkpt lat="46.18645" lon="6.70167">
        <ele>944</ele>
        <time>2010-01-01T06:11:39Z</time>
      </trkpt>
      <trkpt lat="46.18594" lon="6.70202">
        <ele>945</ele>
        <time>2010-01-01T06:12:01Z</time>
      </trkpt>
      <trkpt lat="46.18552" lon="6.70247">
        <ele>945</ele>
        <time>2010-01-01T06:12:22Z</time>
      </trkpt>
      <trkpt lat="46.18547" lon="6.70253">
        <ele>945</ele>
        <time>2010-01-01T06:12:25Z</time>
      </trkpt>
      <trkpt lat="46.18511" lon="6.70293">
        <ele>944</ele>
        <time>2010-01-01T06:12:43Z</time>
      </trkpt>
      <trkpt lat="46.18492" lon="6.7032">
        <ele>945</ele>
        <time>2010-01-01T06:12:54Z</time>
      </trkpt>
      <trkpt lat="46.18469" lon="6.70353">
        <ele>946</ele>
        <time>2010-01-01T06:13:07Z</time>
      </trkpt>
      <trkpt lat="46.18439" lon="6.70394">
        <ele>947</ele>
        <time>2010-01-01T06:13:24Z</time>
      </trkpt>
      <trkpt lat="46.18436" lon="6.70397">
        <ele>946</ele>
        <time>2010-01-01T06:13:25Z</time>
      </trkpt>
      <trkpt lat="46.18402" lon="6.70435">
        <ele>947</ele>
        <time>2010-01-01T06:13:42Z</time>
      </trkpt>
      <trkpt lat="46.1837" lon="6.70473">
        <ele>949</ele>
        <time>2010-01-01T06:13:59Z</time>
      </trkpt>
      <trkpt lat="46.18353" lon="6.70499">
        <ele>949</ele>
        <time>2010-01-01T06:14:09Z</time>
      </trkpt>
      <trkpt lat="46.1834" lon="6.70526">
        <ele>953</ele>
        <time>2010-01-01T06:14:18Z</time>
      </trkpt>
      <trkpt lat="46.18339" lon="6.70527">
        <ele>953</ele>
        <time>2010-01-01T06:14:18Z</time>
      </trkpt>
      <trkpt lat="46.18316" lon="6.70555">
        <ele>951</ele>
        <time>2010-01-01T06:14:30Z</time>
      </trkpt>
      <trkpt lat="46.18314" lon="6.70558">
        <ele>951</ele>
        <time>2010-01-01T06:14:31Z</time>
      </trkpt>
      <trkpt lat="46.18288" lon="6.70581">
        <ele>951</ele>
        <time>2010-01-01T06:14:44Z</time>
      </trkpt>
      <trkpt lat="46.18262" lon="6.70604">
        <ele>957</ele>
        <time>2010-01-01T06:14:56Z</time>
      </trkpt>
      <trkpt lat="46.18261" lon="6.70605">
        <ele>957</ele>
        <time>2010-01-01T06:14:56Z</time>
      </trkpt>
      <trkpt lat="46.18195" lon="6.70642">
        <ele>955</ele>
        <time>2010-01-01T06:15:25Z</time>
      </trkpt>
      <trkpt lat="46.18146" lon="6.70687">
        <ele>955</ele>
        <time>2010-01-01T06:15:48Z</time>
      </trkpt>
      <trkpt lat="46.18118" lon="6.70721">
        <ele>956</ele>
        <time>2010-01-01T06:16:03Z</time>
      </trkpt>
      <trkpt lat="46.18085" lon="6.70751">
        <ele>954</ele>
        <time>2010-01-01T06:16:18Z</time>
      </trkpt>
      <trkpt lat="46.18019" lon="6.70794">
        <ele>959</ele>
        <time>2010-01-01T06:16:47Z</time>
      </trkpt>
      <trkpt lat="46.17987" lon="6.70822">
        <ele>961</ele>
        <time>2010-01-01T06:17:02Z</time>
      </trkpt>
      <trkpt lat="46.1796" lon="6.7085">
        <ele>964</ele>
        <time>2010-01-01T06:17:16Z</time>
      </trkpt>
      <trkpt lat="46.17946" lon="6.70864">
        <ele>964</ele>
        <time>2010-01-01T06:17:22Z</time>
      </trkpt>
      <trkpt lat="46.1789" lon="6.70865">
        <ele>966</ele>
        <time>2010-01-01T06:17:45Z</time>
      </trkpt>
      <trkpt lat="46.17873" lon="6.70881">
        <ele>967</ele>
        <time>2010-01-01T06:17:53Z</time>
      </trkpt>
      <trkpt lat="46.17849" lon="6.70898">
        <ele>967</ele>
        <time>2010-01-01T06:18:04Z</time>
      </trkpt>
      <trkpt lat="46.17778" lon="6.70909">
        <ele>970</ele>
        <time>2010-01-01T06:18:32Z</time>
      </trkpt>
      <trkpt lat="46.17739" lon="6.70898">
        <ele>971</ele>
        <time>2010-01-01T06:18:48Z</time>
      </trkpt>
      <trkpt lat="46.17712" lon="6.70882">
        <ele>973</ele>
        <time>2010-01-01T06:19:00Z</time>
      </trkpt>
      <trkpt lat="46.1768" lon="6.70902">
        <ele>972</ele>
        <time>2010-01-01T06:19:14Z</time>
      </trkpt>
      <trkpt lat="46.17668" lon="6.70934">
        <ele>971</ele>
        <time>2010-01-01T06:19:24Z</time>
      </trkpt>
      <trkpt lat="46.17658" lon="6.70959">
        <ele>975</ele>
        <time>2010-01-01T06:19:32Z</time>
      </trkpt>
      <trkpt lat="46.17638" lon="6.70994">
        <ele>976</ele>
        <time>2010-01-01T06:19:44Z</time>
      </trkpt>
      <trkpt lat="46.17624" lon="6.71016">
        <ele>982</ele>
        <time>2010-01-01T06:19:53Z</time>
      </trkpt>
      <trkpt lat="46.1761" lon="6.71026">
        <ele>982</ele>
        <time>2010-01-01T06:19:59Z</time>
      </trkpt>
      <trkpt lat="46.17589" lon="6.71025">
        <ele>981</ele>
        <time>2010-01-01T06:20:08Z</time>
      </trkpt>
      <trkpt lat="46.17578" lon="6.71009">
        <ele>978</ele>
        <time>2010-01-01T06:20:14Z</time>
      </trkpt>
      <trkpt lat="46.1757" lon="6.70988">
        <ele>981</ele>
        <time>2010-01-01T06:20:20Z</time>
      </trkpt>
      <trkpt lat="46.17568" lon="6.70941">
        <ele>985</ele>
        <time>2010-01-01T06:20:33Z</time>
      </trkpt>
      <trkpt lat="46.17572" lon="6.70912">
        <ele>988</ele>
        <time>2010-01-01T06:20:41Z</time>
      </trkpt>
      <trkpt lat="46.17584" lon="6.70891">
        <ele>983</ele>
        <time>2010-01-01T06:20:49Z</time>
      </trkpt>
      <trkpt lat="46.17593" lon="6.70881">
        <ele>983</ele>
        <time>2010-01-01T06:20:54Z</time>
      </trkpt>
      <trkpt lat="46.17604" lon="6.70864">
        <ele>985</ele>
        <time>2010-01-01T06:21:00Z</time>
      </trkpt>
      <trkpt lat="46.17659" lon="6.70811">
        <ele>988</ele>
        <time>2010-01-01T06:21:27Z</time>
      </trkpt>
      <trkpt lat="46.17683" lon="6.70788">
        <ele>985</ele>
        <time>2010-01-01T06:21:38Z</time>
      </trkpt>
      <trkpt lat="46.17696" lon="6.70763">
        <ele>987</ele>
        <time>2010-01-01T06:21:47Z</time>
      </trkpt>
      <trkpt lat="46.17731" lon="6.70708">
        <ele>989</ele>
        <time>2010-01-01T06:22:07Z</time>
      </trkpt>
      <trkpt lat="46.17738" lon="6.70692">
        <ele>989</ele>
        <time>2010-01-01T06:22:13Z</time>
      </trkpt>
      <trkpt lat="46.17742" lon="6.70682">
        <ele>988</ele>
        <time>2010-01-01T06:22:16Z</time>
      </trkpt>
      <trkpt lat="46.17742" lon="6.70676">
        <ele>988</ele>
        <time>2010-01-01T06:22:18Z</time>
      </trkpt>
      <trkpt lat="46.17746" lon="6.70665">
        <ele>988</ele>
        <time>2010-01-01T06:22:21Z</time>
      </trkpt>
      <trkpt lat="46.17753" lon="6.70662">
        <ele>987</ele>
        <time>2010-01-01T06:22:24Z</time>
      </trkpt>
      <trkpt lat="46.17758" lon="6.70667">
        <ele>987</ele>
        <time>2010-01-01T06:22:27Z</time>
      </trkpt>
      <trkpt lat="46.17762" lon="6.70665">
        <ele>986</ele>
        <time>2010-01-01T06:22:28Z</time>
      </trkpt>
      <trkpt lat="46.17826" lon="6.7056">
        <ele>986</ele>
        <time>2010-01-01T06:23:07Z</time>
      </trkpt>
      <trkpt lat="46.17843" lon="6.70531">
        <ele>984</ele>
        <time>2010-01-01T06:23:17Z</time>
      </trkpt>
      <trkpt lat="46.17931" lon="6.70401">
        <ele>984</ele>
        <time>2010-01-01T06:24:08Z</time>
      </trkpt>
      <trkpt lat="46.17993" lon="6.70303">
        <ele>984</ele>
        <time>2010-01-01T06:24:45Z</time>
      </trkpt>
      <trkpt lat="46.18039" lon="6.7023">
        <ele>980</ele>
        <time>2010-01-01T06:25:12Z</time>
      </trkpt>
      <trkpt lat="46.18044" lon="6.70219">
        <ele>980</ele>
        <time>2010-01-01T06:25:15Z</time>
      </trkpt>
      <trkpt lat="46.18032" lon="6.70203">
        <ele>981</ele>
        <time>2010-01-01T06:25:22Z</time>
      </trkpt>
      <trkpt lat="46.18016" lon="6.70178">
        <ele>982</ele>
        <time>2010-01-01T06:25:31Z</time>
      </trkpt>
      <trkpt lat="46.18004" lon="6.70169">
        <ele>983</ele>
        <time>2010-01-01T06:25:37Z</time>
      </trkpt>
      <trkpt lat="46.18003" lon="6.70169">
        <ele>984</ele>
        <time>2010-01-01T06:25:37Z</time>
      </trkpt>
      <trkpt lat="46.17987" lon="6.70154">
        <ele>988</ele>
        <time>2010-01-01T06:25:45Z</time>
      </trkpt>
      <trkpt lat="46.17974" lon="6.70136">
        <ele>991</ele>
        <time>2010-01-01T06:25:52Z</time>
      </trkpt>
      <trkpt lat="46.17962" lon="6.70134">
        <ele>992</ele>
        <time>2010-01-01T06:25:57Z</time>
      </trkpt>
      <trkpt lat="46.17852" lon="6.70031">
        <ele>1033</ele>
        <time>2010-01-01T06:26:50Z</time>
      </trkpt>
      <trkpt lat="46.17805" lon="6.70021">
        <ele>1062</ele>
        <time>2010-01-01T06:27:09Z</time>
      </trkpt>
      <trkpt lat="46.17709" lon="6.69911">
        <ele>1130</ele>
        <time>2010-01-01T06:27:58Z</time>
      </trkpt>
      <trkpt lat="46.17648" lon="6.69888">
        <ele>1167</ele>
        <time>2010-01-01T06:28:23Z</time>
      </trkpt>
      <trkpt lat="46.17582" lon="6.69757">
        <ele>1220</ele>
        <time>2010-01-01T06:29:08Z</time>
      </trkpt>
      <trkpt lat="46.17539" lon="6.69753">
        <ele>1222</ele>
        <time>2010-01-01T06:29:25Z</time>
      </trkpt>
      <trkpt lat="46.17422" lon="6.69627">
        <ele>1274</ele>
        <time>2010-01-01T06:30:23Z</time>
      </trkpt>
      <trkpt lat="46.17325" lon="6.69539">
        <ele>1315</ele>
        <time>2010-01-01T06:31:09Z</time>
      </trkpt>
      <trkpt lat="46.17218" lon="6.69447">
        <ele>1358</ele>
        <time>2010-01-01T06:31:59Z</time>
      </trkpt>
      <trkpt lat="46.17088" lon="6.69343">
        <ele>1428</ele>
        <time>2010-01-01T06:32:58Z</time>
      </trkpt>
      <trkpt lat="46.16968" lon="6.69204">
        <ele>1496</ele>
        <time>2010-01-01T06:34:00Z</time>
      </trkpt>
      <trkpt lat="46.1697" lon="6.69193">
        <ele>1496</ele>
        <time>2010-01-01T06:34:03Z</time>
      </trkpt>
      <trkpt lat="46.17002" lon="6.69169">
        <ele>1493</ele>
        <time>2010-01-01T06:34:18Z</time>
      </trkpt>
      <trkpt lat="46.17048" lon="6.69125">
        <ele>1483</ele>
        <time>2010-01-01T06:34:40Z</time>
      </trkpt>
      <trkpt lat="46.17078" lon="6.69093">
        <ele>1481</ele>
        <time>2010-01-01T06:34:55Z</time>
      </trkpt>
      <trkpt lat="46.17097" lon="6.69087">
        <ele>1476</ele>
        <time>2010-01-01T06:35:03Z</time>
      </trkpt>
      <trkpt lat="46.17123" lon="6.6912">
        <ele>1472</ele>
        <time>2010-01-01T06:35:17Z</time>
      </trkpt>
      <trkpt lat="46.17133" lon="6.69136">
        <ele>1470</ele>
        <time>2010-01-01T06:35:22Z</time>
      </trkpt>
      <trkpt lat="46.17144" lon="6.69137">
        <ele>1469</ele>
        <time>2010-01-01T06:35:27Z</time>
      </trkpt>
      <trkpt lat="46.17156" lon="6.69133">
        <ele>1469</ele>
        <time>2010-01-01T06:35:32Z</time>
      </trkpt>
      <trkpt lat="46.17165" lon="6.69124">
        <ele>1470</ele>
        <time>2010-01-01T06:35:37Z</time>
      </trkpt>
      <trkpt lat="46.17211" lon="6.69091">
        <ele>1458</ele>
        <time>2010-01-01T06:35:57Z</time>
      </trkpt>
      <trkpt lat="46.17217" lon="6.6907">
        <ele>1457</ele>
        <time>2010-01-01T06:36:03Z</time>
      </trkpt>
      <trkpt lat="46.17211" lon="6.69">
        <ele>1449</ele>
        <time>2010-01-01T06:36:23Z</time>
      </trkpt>
      <trkpt lat="46.17213" lon="6.68982">
        <ele>1448</ele>
        <time>2010-01-01T06:36:28Z</time>
      </trkpt>
      <trkpt lat="46.17225" lon="6.68953">
        <ele>1446</ele>
        <time>2010-01-01T06:36:37Z</time>
      </trkpt>
      <trkpt lat="46.17226" lon="6.68932">
        <ele>1444</ele>
        <time>2010-01-01T06:36:43Z</time>
      </trkpt>
      <trkpt lat="46.17217" lon="6.68917">
        <ele>1445</ele>
        <time>2010-01-01T06:36:48Z</time>
      </trkpt>
      <trkpt lat="46.17187" lon="6.68875">
        <ele>1441</ele>
        <time>2010-01-01T06:37:05Z</time>
      </trkpt>
      <trkpt lat="46.17181" lon="6.6885">
        <ele>1441</ele>
        <time>2010-01-01T06:37:12Z</time>
      </trkpt>
      <trkpt lat="46.1718" lon="6.68824">
        <ele>1437</ele>
        <time>2010-01-01T06:37:20Z</time>
      </trkpt>
      <trkpt lat="46.17174" lon="6.68781">
        <ele>1431</ele>
        <time>2010-01-01T06:37:32Z</time>
      </trkpt>
      <trkpt lat="46.1716" lon="6.68768">
        <ele>1439</ele>
        <time>2010-01-01T06:37:39Z</time>
      </trkpt>
      <trkpt lat="46.17131" lon="6.68744">
        <ele>1433</ele>
        <time>2010-01-01T06:37:52Z</time>
      </trkpt>
      <trkpt lat="46.1709" lon="6.68726">
        <ele>1436</ele>
        <time>2010-01-01T06:38:09Z</time>
      </trkpt>
      <trkpt lat="46.17041" lon="6.68714">
        <ele>1446</ele>
        <time>2010-01-01T06:38:29Z</time>
      </trkpt>
      <trkpt lat="46.17012" lon="6.68714">
        <ele>1448</ele>
        <time>2010-01-01T06:38:41Z</time>
      </trkpt>
      <trkpt lat="46.16985" lon="6.68701">
        <ele>1453</ele>
        <time>2010-01-01T06:38:52Z</time>
      </trkpt>
      <trkpt lat="46.16976" lon="6.68679">
        <ele>1451</ele>
        <time>2010-01-01T06:38:59Z</time>
      </trkpt>
      <trkpt lat="46.16955" lon="6.68662">
        <ele>1444</ele>
        <time>2010-01-01T06:39:09Z</time>
      </trkpt>
      <trkpt lat="46.16926" lon="6.68647">
        <ele>1445</ele>
        <time>2010-01-01T06:39:21Z</time>
      </trkpt>
      <trkpt lat="46.1688" lon="6.68621">
        <ele>1444</ele>
        <time>2010-01-01T06:39:41Z</time>
      </trkpt>
      <trkpt lat="46.16846" lon="6.68582">
        <ele>1434</ele>
        <time>2010-01-01T06:39:58Z</time>
      </trkpt>
      <trkpt lat="46.16839" lon="6.68581">
        <ele>1435</ele>
        <time>2010-01-01T06:40:01Z</time>
      </trkpt>
      <trkpt lat="46.16832" lon="6.6858">
        <ele>1436</ele>
        <time>2010-01-01T06:40:04Z</time>
      </trkpt>
      <trkpt lat="46.16806" lon="6.6859">
        <ele>1444</ele>
        <time>2010-01-01T06:40:15Z</time>
      </trkpt>
      <trkpt lat="46.16787" lon="6.6859">
        <ele>1445</ele>
        <time>2010-01-01T06:40:22Z</time>
      </trkpt>
      <trkpt lat="46.1677" lon="6.68588">
        <ele>1445</ele>
        <time>2010-01-01T06:40:29Z</time>
      </trkpt>
      <trkpt lat="46.16768" lon="6.68588">
        <ele>1445</ele>
        <time>2010-01-01T06:40:30Z</time>
      </trkpt>
      <trkpt lat="46.16737" lon="6.68577">
        <ele>1438</ele>
        <time>2010-01-01T06:40:43Z</time>
      </trkpt>
      <trkpt lat="46.16737" lon="6.68576">
        <ele>1437</ele>
        <time>2010-01-01T06:40:43Z</time>
      </trkpt>
      <trkpt lat="46.16711" lon="6.68563">
        <ele>1434</ele>
        <time>2010-01-01T06:40:54Z</time>
      </trkpt>
      <trkpt lat="46.16679" lon="6.68553">
        <ele>1433</ele>
        <time>2010-01-01T06:41:07Z</time>
      </trkpt>
      <trkpt lat="46.16654" lon="6.68547">
        <ele>1428</ele>
        <time>2010-01-01T06:41:17Z</time>
      </trkpt>
      <trkpt lat="46.1662" lon="6.6855">
        <ele>1427</ele>
        <time>2010-01-01T06:41:31Z</time>
      </trkpt>
      <trkpt lat="46.16614" lon="6.6855">
        <ele>1427</ele>
        <time>2010-01-01T06:41:33Z</time>
      </trkpt>
      <trkpt lat="46.1661" lon="6.68551">
        <ele>1427</ele>
        <time>2010-01-01T06:41:35Z</time>
      </trkpt>
      <trkpt lat="46.16585" lon="6.6855">
        <ele>1426</ele>
        <time>2010-01-01T06:41:45Z</time>
      </trkpt>
      <trkpt lat="46.16581" lon="6.6855">
        <ele>1426</ele>
        <time>2010-01-01T06:41:46Z</time>
      </trkpt>
      <trkpt lat="46.16554" lon="6.68538">
        <ele>1425</ele>
        <time>2010-01-01T06:41:57Z</time>
      </trkpt>
      <trkpt lat="46.16538" lon="6.68531">
        <ele>1425</ele>
        <time>2010-01-01T06:42:04Z</time>
      </trkpt>
      <trkpt lat="46.16526" lon="6.68532">
        <ele>1425</ele>
        <time>2010-01-01T06:42:09Z</time>
      </trkpt>
      <trkpt lat="46.16515" lon="6.68531">
        <ele>1425</ele>
        <time>2010-01-01T06:42:13Z</time>
      </trkpt>
      <trkpt lat="46.16468" lon="6.68492">
        <ele>1414</ele>
        <time>2010-01-01T06:42:35Z</time>
      </trkpt>
      <trkpt lat="46.16438" lon="6.68466">
        <ele>1414</ele>
        <time>2010-01-01T06:42:49Z</time>
      </trkpt>
      <trkpt lat="46.16429" lon="6.68457">
        <ele>1413</ele>
        <time>2010-01-01T06:42:54Z</time>
      </trkpt>
      <trkpt lat="46.16423" lon="6.68448">
        <ele>1412</ele>
        <time>2010-01-01T06:42:57Z</time>
      </trkpt>
      <trkpt lat="46.16414" lon="6.6844">
        <ele>1415</ele>
        <time>2010-01-01T06:43:01Z</time>
      </trkpt>
      <trkpt lat="46.16413" lon="6.68439">
        <ele>1415</ele>
        <time>2010-01-01T06:43:02Z</time>
      </trkpt>
      <trkpt lat="46.1641" lon="6.68439">
        <ele>1415</ele>
        <time>2010-01-01T06:43:03Z</time>
      </trkpt>
      <trkpt lat="46.1635" lon="6.68407">
        <ele>1407</ele>
        <time>2010-01-01T06:43:29Z</time>
      </trkpt>
      <trkpt lat="46.16317" lon="6.68378">
        <ele>1402</ele>
        <time>2010-01-01T06:43:44Z</time>
      </trkpt>
      <trkpt lat="46.16267" lon="6.68385">
        <ele>1402</ele>
        <time>2010-01-01T06:44:04Z</time>
      </trkpt>
      <trkpt lat="46.16222" lon="6.684">
        <ele>1397</ele>
        <time>2010-01-01T06:44:23Z</time>
      </trkpt>
      <trkpt lat="46.1614" lon="6.68437">
        <ele>1400</ele>
        <time>2010-01-01T06:44:57Z</time>
      </trkpt>
      <trkpt lat="46.16094" lon="6.68467">
        <ele>1401</ele>
        <time>2010-01-01T06:45:17Z</time>
      </trkpt>
      <trkpt lat="46.16037" lon="6.68515">
        <ele>1404</ele>
        <time>2010-01-01T06:45:44Z</time>
      </trkpt>
      <trkpt lat="46.16012" lon="6.68501">
        <ele>1397</ele>
        <time>2010-01-01T06:45:54Z</time>
      </trkpt>
      <trkpt lat="46.15994" lon="6.68494">
        <ele>1386</ele>
        <time>2010-01-01T06:46:02Z</time>
      </trkpt>
      <trkpt lat="46.15961" lon="6.68497">
        <ele>1380</ele>
        <time>2010-01-01T06:46:15Z</time>
      </trkpt>
      <trkpt lat="46.15938" lon="6.68488">
        <ele>1379</ele>
        <time>2010-01-01T06:46:25Z</time>
      </trkpt>
      <trkpt lat="46.15913" lon="6.68461">
        <ele>1376</ele>
        <time>2010-01-01T06:46:37Z</time>
      </trkpt>
      <trkpt lat="46.15885" lon="6.68439">
        <ele>1374</ele>
        <time>2010-01-01T06:46:50Z</time>
      </trkpt>
      <trkpt lat="46.15842" lon="6.68427">
        <ele>1372</ele>
        <time>2010-01-01T06:47:07Z</time>
      </trkpt>
      <trkpt lat="46.1583" lon="6.68385">
        <ele>1365</ele>
        <time>2010-01-01T06:47:20Z</time>
      </trkpt>
      <trkpt lat="46.15816" lon="6.68337">
        <ele>1360</ele>
        <time>2010-01-01T06:47:34Z</time>
      </trkpt>
      <trkpt lat="46.15773" lon="6.68274">
        <ele>1345</ele>
        <time>2010-01-01T06:47:59Z</time>
      </trkpt>
      <trkpt lat="46.15616" lon="6.68099">
        <ele>1324</ele>
        <time>2010-01-01T06:49:18Z</time>
      </trkpt>
      <trkpt lat="46.15601" lon="6.6805">
        <ele>1316</ele>
        <time>2010-01-01T06:49:33Z</time>
      </trkpt>
      <trkpt lat="46.15592" lon="6.68003">
        <ele>1315</ele>
        <time>2010-01-01T06:49:47Z</time>
      </trkpt>
      <trkpt lat="46.15585" lon="6.67896">
        <ele>1298</ele>
        <time>2010-01-01T06:50:16Z</time>
      </trkpt>
      <trkpt lat="46.15562" lon="6.67827">
        <ele>1294</ele>
        <time>2010-01-01T06:50:38Z</time>
      </trkpt>
      <trkpt lat="46.15536" lon="6.6777">
        <ele>1292</ele>
        <time>2010-01-01T06:50:56Z</time>
      </trkpt>
      <trkpt lat="46.15504" lon="6.6774">
        <ele>1286</ele>
        <time>2010-01-01T06:51:12Z</time>
      </trkpt>
      <trkpt lat="46.15471" lon="6.67708">
        <ele>1285</ele>
        <time>2010-01-01T06:51:28Z</time>
      </trkpt>
      <trkpt lat="46.15454" lon="6.67686">
        <ele>1284</ele>
        <time>2010-01-01T06:51:37Z</time>
      </trkpt>
      <trkpt lat="46.15441" lon="6.67667">
        <ele>1275</ele>
        <time>2010-01-01T06:51:44Z</time>
      </trkpt>
      <trkpt lat="46.15414" lon="6.6765">
        <ele>1277</ele>
        <time>2010-01-01T06:51:56Z</time>
      </trkpt>
      <trkpt lat="46.15407" lon="6.67625">
        <ele>1275</ele>
        <time>2010-01-01T06:52:03Z</time>
      </trkpt>
      <trkpt lat="46.15416" lon="6.67603">
        <ele>1272</ele>
        <time>2010-01-01T06:52:11Z</time>
      </trkpt>
      <trkpt lat="46.15409" lon="6.67579">
        <ele>1266</ele>
        <time>2010-01-01T06:52:18Z</time>
      </trkpt>
      <trkpt lat="46.1538" lon="6.67545">
        <ele>1265</ele>
        <time>2010-01-01T06:52:33Z</time>
      </trkpt>
      <trkpt lat="46.15362" lon="6.67513">
        <ele>1265</ele>
        <time>2010-01-01T06:52:44Z</time>
      </trkpt>
      <trkpt lat="46.15361" lon="6.67483">
        <ele>1258</ele>
        <time>2010-01-01T06:52:53Z</time>
      </trkpt>
      <trkpt lat="46.15404" lon="6.67423">
        <ele>1250</ele>
        <time>2010-01-01T06:53:16Z</time>
      </trkpt>
      <trkpt lat="46.15413" lon="6.67395">
        <ele>1247</ele>
        <time>2010-01-01T06:53:25Z</time>
      </trkpt>
      <trkpt lat="46.15421" lon="6.67376">
        <ele>1243</ele>
        <time>2010-01-01T06:53:31Z</time>
      </trkpt>
      <trkpt lat="46.15446" lon="6.67358">
        <ele>1242</ele>
        <time>2010-01-01T06:53:43Z</time>
      </trkpt>
      <trkpt lat="46.15461" lon="6.67344">
        <ele>1242</ele>
        <time>2010-01-01T06:53:49Z</time>
      </trkpt>
      <trkpt lat="46.15525" lon="6.67187">
        <ele>1237</ele>
        <time>2010-01-01T06:54:40Z</time>
      </trkpt>
      <trkpt lat="46.1559" lon="6.67124">
        <ele>1223</ele>
        <time>2010-01-01T06:55:11Z</time>
      </trkpt>
      <trkpt lat="46.15616" lon="6.67099">
        <ele>1221</ele>
        <time>2010-01-01T06:55:24Z</time>
      </trkpt>
      <trkpt lat="46.15614" lon="6.6708">
        <ele>1214</ele>
        <time>2010-01-01T06:55:29Z</time>
      </trkpt>
      <trkpt lat="46.15613" lon="6.6707">
        <ele>1213</ele>
        <time>2010-01-01T06:55:32Z</time>
      </trkpt>
      <trkpt lat="46.15637" lon="6.67069">
        <ele>1211</ele>
        <time>2010-01-01T06:55:42Z</time>
      </trkpt>
      <trkpt lat="46.15631" lon="6.67058">
        <ele>1210</ele>
        <time>2010-01-01T06:55:46Z</time>
      </trkpt>
      <trkpt lat="46.15628" lon="6.67045">
        <ele>1209</ele>
        <time>2010-01-01T06:55:49Z</time>
      </trkpt>
      <trkpt lat="46.15635" lon="6.67042">
        <ele>1208</ele>
        <time>2010-01-01T06:55:52Z</time>
      </trkpt>
      <trkpt lat="46.15644" lon="6.67047">
        <ele>1208</ele>
        <time>2010-01-01T06:55:56Z</time>
      </trkpt>
      <trkpt lat="46.15649" lon="6.67037">
        <ele>1206</ele>
        <time>2010-01-01T06:55:59Z</time>
      </trkpt>
      <trkpt lat="46.15644" lon="6.67028">
        <ele>1206</ele>
        <time>2010-01-01T06:56:03Z</time>
      </trkpt>
      <trkpt lat="46.15634" lon="6.67018">
        <ele>1206</ele>
        <time>2010-01-01T06:56:08Z</time>
      </trkpt>
      <trkpt lat="46.15635" lon="6.67005">
        <ele>1204</ele>
        <time>2010-01-01T06:56:11Z</time>
      </trkpt>
      <trkpt lat="46.15636" lon="6.67002">
        <ele>1204</ele>
        <time>2010-01-01T06:56:12Z</time>
      </trkpt>
      <trkpt lat="46.15646" lon="6.67007">
        <ele>1202</ele>
        <time>2010-01-01T06:56:16Z</time>
      </trkpt>
      <trkpt lat="46.15649" lon="6.6701">
        <ele>1201</ele>
        <time>2010-01-01T06:56:18Z</time>
      </trkpt>
      <trkpt lat="46.15666" lon="6.67019">
        <ele>1201</ele>
        <time>2010-01-01T06:56:25Z</time>
      </trkpt>
      <trkpt lat="46.15673" lon="6.67019">
        <ele>1192</ele>
        <time>2010-01-01T06:56:28Z</time>
      </trkpt>
      <trkpt lat="46.15674" lon="6.67012">
        <ele>1191</ele>
        <time>2010-01-01T06:56:30Z</time>
      </trkpt>
      <trkpt lat="46.15666" lon="6.66999">
        <ele>1191</ele>
        <time>2010-01-01T06:56:35Z</time>
      </trkpt>
      <trkpt lat="46.1566" lon="6.66989">
        <ele>1191</ele>
        <time>2010-01-01T06:56:39Z</time>
      </trkpt>
      <trkpt lat="46.15661" lon="6.6698">
        <ele>1191</ele>
        <time>2010-01-01T06:56:41Z</time>
      </trkpt>
      <trkpt lat="46.1567" lon="6.6698">
        <ele>1184</ele>
        <time>2010-01-01T06:56:45Z</time>
      </trkpt>
      <trkpt lat="46.15675" lon="6.66979">
        <ele>1183</ele>
        <time>2010-01-01T06:56:47Z</time>
      </trkpt>
      <trkpt lat="46.15671" lon="6.66966">
        <ele>1181</ele>
        <time>2010-01-01T06:56:51Z</time>
      </trkpt>
      <trkpt lat="46.15669" lon="6.6695">
        <ele>1179</ele>
        <time>2010-01-01T06:56:56Z</time>
      </trkpt>
      <trkpt lat="46.15664" lon="6.66937">
        <ele>1185</ele>
        <time>2010-01-01T06:57:00Z</time>
      </trkpt>
      <trkpt lat="46.15658" lon="6.66917">
        <ele>1181</ele>
        <time>2010-01-01T06:57:06Z</time>
      </trkpt>
      <trkpt lat="46.15651" lon="6.66893">
        <ele>1178</ele>
        <time>2010-01-01T06:57:13Z</time>
      </trkpt>
      <trkpt lat="46.1565" lon="6.66873">
        <ele>1178</ele>
        <time>2010-01-01T06:57:18Z</time>
      </trkpt>
      <trkpt lat="46.15651" lon="6.66872">
        <ele>1178</ele>
        <time>2010-01-01T06:57:19Z</time>
      </trkpt>
      <trkpt lat="46.15645" lon="6.66851">
        <ele>1177</ele>
        <time>2010-01-01T06:57:25Z</time>
      </trkpt>
      <trkpt lat="46.15646" lon="6.66829">
        <ele>1174</ele>
        <time>2010-01-01T06:57:31Z</time>
      </trkpt>
      <trkpt lat="46.15646" lon="6.66825">
        <ele>1174</ele>
        <time>2010-01-01T06:57:32Z</time>
      </trkpt>
      <trkpt lat="46.15653" lon="6.66812">
        <ele>1173</ele>
        <time>2010-01-01T06:57:37Z</time>
      </trkpt>
      <trkpt lat="46.15654" lon="6.66812">
        <ele>1173</ele>
        <time>2010-01-01T06:57:37Z</time>
      </trkpt>
      <trkpt lat="46.15675" lon="6.6681">
        <ele>1169</ele>
        <time>2010-01-01T06:57:46Z</time>
      </trkpt>
      <trkpt lat="46.1569" lon="6.66816">
        <ele>1168</ele>
        <time>2010-01-01T06:57:52Z</time>
      </trkpt>
      <trkpt lat="46.15679" lon="6.66824">
        <ele>1169</ele>
        <time>2010-01-01T06:57:56Z</time>
      </trkpt>
      <trkpt lat="46.15679" lon="6.66826">
        <ele>1169</ele>
        <time>2010-01-01T06:57:57Z</time>
      </trkpt>
      <trkpt lat="46.15673" lon="6.66838">
        <ele>1171</ele>
        <time>2010-01-01T06:58:01Z</time>
      </trkpt>
      <trkpt lat="46.15668" lon="6.66851">
        <ele>1171</ele>
        <time>2010-01-01T06:58:05Z</time>
      </trkpt>
      <trkpt lat="46.15599" lon="6.66972">
        <ele>1196</ele>
        <time>2010-01-01T06:58:48Z</time>
      </trkpt>
      <trkpt lat="46.15537" lon="6.67123">
        <ele>1232</ele>
        <time>2010-01-01T06:59:37Z</time>
      </trkpt>
      <trkpt lat="46.15403" lon="6.67485">
        <ele>1255</ele>
        <time>2010-01-01T07:01:31Z</time>
      </trkpt>
      <trkpt lat="46.15184" lon="6.67911">
        <ele>1343</ele>
        <time>2010-01-01T07:03:58Z</time>
      </trkpt>
      <trkpt lat="46.15119" lon="6.68089">
        <ele>1400</ele>
        <time>2010-01-01T07:04:54Z</time>
      </trkpt>
      <trkpt lat="46.15003" lon="6.68379">
        <ele>1461</ele>
        <time>2010-01-01T07:06:27Z</time>
      </trkpt>
      <trkpt lat="46.1487" lon="6.68704">
        <ele>1509</ele>
        <time>2010-01-01T07:08:11Z</time>
      </trkpt>
      <trkpt lat="46.14627" lon="6.69145">
        <ele>1577</ele>
        <time>2010-01-01T07:10:48Z</time>
      </trkpt>
      <trkpt lat="46.14513" lon="6.69396">
        <ele>1610</ele>
        <time>2010-01-01T07:12:11Z</time>
      </trkpt>
      <trkpt lat="46.14528" lon="6.69438">
        <ele>1606</ele>
        <time>2010-01-01T07:12:24Z</time>
      </trkpt>
      <trkpt lat="46.14568" lon="6.69422">
        <ele>1605</ele>
        <time>2010-01-01T07:12:41Z</time>
      </trkpt>
      <trkpt lat="46.14593" lon="6.69389">
        <ele>1603</ele>
        <time>2010-01-01T07:12:54Z</time>
      </trkpt>
      <trkpt lat="46.14622" lon="6.69343">
        <ele>1602</ele>
        <time>2010-01-01T07:13:12Z</time>
      </trkpt>
      <trkpt lat="46.14654" lon="6.69318">
        <ele>1599</ele>
        <time>2010-01-01T07:13:26Z</time>
      </trkpt>
      <trkpt lat="46.14685" lon="6.69318">
        <ele>1596</ele>
        <time>2010-01-01T07:13:39Z</time>
      </trkpt>
      <trkpt lat="46.14721" lon="6.69315">
        <ele>1593</ele>
        <time>2010-01-01T07:13:53Z</time>
      </trkpt>
      <trkpt lat="46.14752" lon="6.69313">
        <ele>1587</ele>
        <time>2010-01-01T07:14:05Z</time>
      </trkpt>
      <trkpt lat="46.14786" lon="6.6931">
        <ele>1584</ele>
        <time>2010-01-01T07:14:19Z</time>
      </trkpt>
      <trkpt lat="46.14793" lon="6.69307">
        <ele>1583</ele>
        <time>2010-01-01T07:14:22Z</time>
      </trkpt>
      <trkpt lat="46.14828" lon="6.69296">
        <ele>1581</ele>
        <time>2010-01-01T07:14:36Z</time>
      </trkpt>
      <trkpt lat="46.14843" lon="6.69305">
        <ele>1573</ele>
        <time>2010-01-01T07:14:43Z</time>
      </trkpt>
      <trkpt lat="46.14868" lon="6.69324">
        <ele>1572</ele>
        <time>2010-01-01T07:14:54Z</time>
      </trkpt>
      <trkpt lat="46.1489" lon="6.6934">
        <ele>1567</ele>
        <time>2010-01-01T07:15:04Z</time>
      </trkpt>
      <trkpt lat="46.14922" lon="6.69376">
        <ele>1560</ele>
        <time>2010-01-01T07:15:20Z</time>
      </trkpt>
      <trkpt lat="46.14942" lon="6.69395">
        <ele>1559</ele>
        <time>2010-01-01T07:15:30Z</time>
      </trkpt>
      <trkpt lat="46.1498" lon="6.69423">
        <ele>1555</ele>
        <time>2010-01-01T07:15:47Z</time>
      </trkpt>
      <trkpt lat="46.15004" lon="6.69439">
        <ele>1553</ele>
        <time>2010-01-01T07:15:57Z</time>
      </trkpt>
      <trkpt lat="46.15026" lon="6.69452">
        <ele>1551</ele>
        <time>2010-01-01T07:16:07Z</time>
      </trkpt>
      <trkpt lat="46.15044" lon="6.69457">
        <ele>1550</ele>
        <time>2010-01-01T07:16:14Z</time>
      </trkpt>
      <trkpt lat="46.15073" lon="6.69459">
        <ele>1550</ele>
        <time>2010-01-01T07:16:26Z</time>
      </trkpt>
      <trkpt lat="46.15097" lon="6.69456">
        <ele>1546</ele>
        <time>2010-01-01T07:16:35Z</time>
      </trkpt>
      <trkpt lat="46.15113" lon="6.69444">
        <ele>1545</ele>
        <time>2010-01-01T07:16:43Z</time>
      </trkpt>
      <trkpt lat="46.15125" lon="6.69433">
        <ele>1545</ele>
        <time>2010-01-01T07:16:48Z</time>
      </trkpt>
      <trkpt lat="46.15134" lon="6.69417">
        <ele>1544</ele>
        <time>2010-01-01T07:16:54Z</time>
      </trkpt>
      <trkpt lat="46.15146" lon="6.69405">
        <ele>1540</ele>
        <time>2010-01-01T07:17:00Z</time>
      </trkpt>
      <trkpt lat="46.15162" lon="6.69395">
        <ele>1540</ele>
        <time>2010-01-01T07:17:07Z</time>
      </trkpt>
      <trkpt lat="46.15164" lon="6.69394">
        <ele>1540</ele>
        <time>2010-01-01T07:17:08Z</time>
      </trkpt>
      <trkpt lat="46.15183" lon="6.69382">
        <ele>1531</ele>
        <time>2010-01-01T07:17:16Z</time>
      </trkpt>
      <trkpt lat="46.15189" lon="6.6938">
        <ele>1530</ele>
        <time>2010-01-01T07:17:18Z</time>
      </trkpt>
      <trkpt lat="46.15205" lon="6.69377">
        <ele>1529</ele>
        <time>2010-01-01T07:17:25Z</time>
      </trkpt>
      <trkpt lat="46.15205" lon="6.69376">
        <ele>1529</ele>
        <time>2010-01-01T07:17:25Z</time>
      </trkpt>
      <trkpt lat="46.15218" lon="6.69378">
        <ele>1528</ele>
        <time>2010-01-01T07:17:30Z</time>
      </trkpt>
      <trkpt lat="46.1522" lon="6.69379">
        <ele>1528</ele>
        <time>2010-01-01T07:17:31Z</time>
      </trkpt>
      <trkpt lat="46.15233" lon="6.69388">
        <ele>1527</ele>
        <time>2010-01-01T07:17:37Z</time>
      </trkpt>
      <trkpt lat="46.15235" lon="6.69389">
        <ele>1527</ele>
        <time>2010-01-01T07:17:38Z</time>
      </trkpt>
      <trkpt lat="46.15248" lon="6.69401">
        <ele>1526</ele>
        <time>2010-01-01T07:17:44Z</time>
      </trkpt>
      <trkpt lat="46.15262" lon="6.6941">
        <ele>1523</ele>
        <time>2010-01-01T07:17:50Z</time>
      </trkpt>
      <trkpt lat="46.15281" lon="6.69415">
        <ele>1521</ele>
        <time>2010-01-01T07:17:58Z</time>
      </trkpt>
      <trkpt lat="46.15282" lon="6.69414">
        <ele>1521</ele>
        <time>2010-01-01T07:17:58Z</time>
      </trkpt>
      <trkpt lat="46.153" lon="6.69414">
        <ele>1520</ele>
        <time>2010-01-01T07:18:06Z</time>
      </trkpt>
      <trkpt lat="46.15361" lon="6.69431">
        <ele>1518</ele>
        <time>2010-01-01T07:18:31Z</time>
      </trkpt>
      <trkpt lat="46.15362" lon="6.6943">
        <ele>1518</ele>
        <time>2010-01-01T07:18:31Z</time>
      </trkpt>
      <trkpt lat="46.1541" lon="6.69434">
        <ele>1522</ele>
        <time>2010-01-01T07:18:50Z</time>
      </trkpt>
      <trkpt lat="46.15427" lon="6.69424">
        <ele>1525</ele>
        <time>2010-01-01T07:18:57Z</time>
      </trkpt>
      <trkpt lat="46.1543" lon="6.69424">
        <ele>1524</ele>
        <time>2010-01-01T07:18:59Z</time>
      </trkpt>
      <trkpt lat="46.15433" lon="6.69424">
        <ele>1524</ele>
        <time>2010-01-01T07:19:00Z</time>
      </trkpt>
      <trkpt lat="46.15459" lon="6.69417">
        <ele>1526</ele>
        <time>2010-01-01T07:19:10Z</time>
      </trkpt>
      <trkpt lat="46.15462" lon="6.69416">
        <ele>1526</ele>
        <time>2010-01-01T07:19:12Z</time>
      </trkpt>
      <trkpt lat="46.15475" lon="6.69417">
        <ele>1522</ele>
        <time>2010-01-01T07:19:17Z</time>
      </trkpt>
      <trkpt lat="46.15477" lon="6.69418">
        <ele>1522</ele>
        <time>2010-01-01T07:19:18Z</time>
      </trkpt>
      <trkpt lat="46.15525" lon="6.69414">
        <ele>1525</ele>
        <time>2010-01-01T07:19:37Z</time>
      </trkpt>
      <trkpt lat="46.15526" lon="6.6941">
        <ele>1525</ele>
        <time>2010-01-01T07:19:38Z</time>
      </trkpt>
      <trkpt lat="46.15558" lon="6.69391">
        <ele>1524</ele>
        <time>2010-01-01T07:19:52Z</time>
      </trkpt>
      <trkpt lat="46.15558" lon="6.69391">
        <ele>1524</ele>
        <time>2010-01-01T07:19:52Z</time>
      </trkpt>
      <trkpt lat="46.15562" lon="6.69389">
        <ele>1524</ele>
        <time>2010-01-01T07:19:53Z</time>
      </trkpt>
      <trkpt lat="46.15593" lon="6.6938">
        <ele>1521</ele>
        <time>2010-01-01T07:20:06Z</time>
      </trkpt>
      <trkpt lat="46.15596" lon="6.69377">
        <ele>1521</ele>
        <time>2010-01-01T07:20:08Z</time>
      </trkpt>
      <trkpt lat="46.15598" lon="6.69376">
        <ele>1521</ele>
        <time>2010-01-01T07:20:08Z</time>
      </trkpt>
      <trkpt lat="46.15598" lon="6.69375">
        <ele>1521</ele>
        <time>2010-01-01T07:20:09Z</time>
      </trkpt>
      <trkpt lat="46.156" lon="6.69371">
        <ele>1521</ele>
        <time>2010-01-01T07:20:10Z</time>
      </trkpt>
      <trkpt lat="46.1561" lon="6.69363">
        <ele>1522</ele>
        <time>2010-01-01T07:20:15Z</time>
      </trkpt>
      <trkpt lat="46.1561" lon="6.69361">
        <ele>1522</ele>
        <time>2010-01-01T07:20:15Z</time>
      </trkpt>
      <trkpt lat="46.15658" lon="6.69333">
        <ele>1526</ele>
        <time>2010-01-01T07:20:36Z</time>
      </trkpt>
      <trkpt lat="46.15694" lon="6.69326">
        <ele>1517</ele>
        <time>2010-01-01T07:20:50Z</time>
      </trkpt>
      <trkpt lat="46.15721" lon="6.69296">
        <ele>1512</ele>
        <time>2010-01-01T07:21:04Z</time>
      </trkpt>
      <trkpt lat="46.15766" lon="6.6928">
        <ele>1501</ele>
        <time>2010-01-01T07:21:23Z</time>
      </trkpt>
      <trkpt lat="46.15816" lon="6.69262">
        <ele>1499</ele>
        <time>2010-01-01T07:21:44Z</time>
      </trkpt>
      <trkpt lat="46.15892" lon="6.69273">
        <ele>1497</ele>
        <time>2010-01-01T07:22:14Z</time>
      </trkpt>
      <trkpt lat="46.15941" lon="6.69326">
        <ele>1500</ele>
        <time>2010-01-01T07:22:38Z</time>
      </trkpt>
      <trkpt lat="46.15961" lon="6.6935">
        <ele>1498</ele>
        <time>2010-01-01T07:22:49Z</time>
      </trkpt>
      <trkpt lat="46.16014" lon="6.69366">
        <ele>1511</ele>
        <time>2010-01-01T07:23:11Z</time>
      </trkpt>
      <trkpt lat="46.16063" lon="6.69408">
        <ele>1520</ele>
        <time>2010-01-01T07:23:34Z</time>
      </trkpt>
      <trkpt lat="46.16097" lon="6.69454">
        <ele>1530</ele>
        <time>2010-01-01T07:23:52Z</time>
      </trkpt>
      <trkpt lat="46.16206" lon="6.69488">
        <ele>1538</ele>
        <time>2010-01-01T07:24:37Z</time>
      </trkpt>
      <trkpt lat="46.16247" lon="6.69473">
        <ele>1538</ele>
        <time>2010-01-01T07:24:54Z</time>
      </trkpt>
      <trkpt lat="46.16305" lon="6.69362">
        <ele>1540</ele>
        <time>2010-01-01T07:25:32Z</time>
      </trkpt>
      <trkpt lat="46.1641" lon="6.69316">
        <ele>1532</ele>
        <time>2010-01-01T07:26:16Z</time>
      </trkpt>
      <trkpt lat="46.16427" lon="6.69314">
        <ele>1529</ele>
        <time>2010-01-01T07:26:23Z</time>
      </trkpt>
      <trkpt lat="46.16486" lon="6.69301">
        <ele>1527</ele>
        <time>2010-01-01T07:26:47Z</time>
      </trkpt>
      <trkpt lat="46.16556" lon="6.69284">
        <ele>1527</ele>
        <time>2010-01-01T07:27:15Z</time>
      </trkpt>
      <trkpt lat="46.16623" lon="6.69288">
        <ele>1524</ele>
        <time>2010-01-01T07:27:42Z</time>
      </trkpt>
      <trkpt lat="46.16631" lon="6.69288">
        <ele>1524</ele>
        <time>2010-01-01T07:27:45Z</time>
      </trkpt>
      <trkpt lat="46.16714" lon="6.69259">
        <ele>1521</ele>
        <time>2010-01-01T07:28:20Z</time>
      </trkpt>
      <trkpt lat="46.16769" lon="6.6924">
        <ele>1519</ele>
        <time>2010-01-01T07:28:42Z</time>
      </trkpt>
      <trkpt lat="46.16856" lon="6.69218">
        <ele>1509</ele>
        <time>2010-01-01T07:29:18Z</time>
      </trkpt>
      <trkpt lat="46.16881" lon="6.69216">
        <ele>1507</ele>
        <time>2010-01-01T07:29:27Z</time>
      </trkpt>
      <trkpt lat="46.16905" lon="6.69214">
        <ele>1506</ele>
        <time>2010-01-01T07:29:37Z</time>
      </trkpt>
      <trkpt lat="46.16975" lon="6.69214">
        <ele>1495</ele>
        <time>2010-01-01T07:30:05Z</time>
      </trkpt>
      <trkpt lat="46.16824" lon="6.69224">
        <ele>1515</ele>
        <time>2010-01-01T07:31:06Z</time>
      </trkpt>
      <trkpt lat="46.16725" lon="6.69271">
        <ele>1519</ele>
        <time>2010-01-01T07:31:48Z</time>
      </trkpt>
      <trkpt lat="46.16664" lon="6.6928">
        <ele>1525</ele>
        <time>2010-01-01T07:32:12Z</time>
      </trkpt>
      <trkpt lat="46.16617" lon="6.69301">
        <ele>1523</ele>
        <time>2010-01-01T07:32:32Z</time>
      </trkpt>
      <trkpt lat="46.16561" lon="6.69306">
        <ele>1525</ele>
        <time>2010-01-01T07:32:54Z</time>
      </trkpt>
      <trkpt lat="46.16512" lon="6.69307">
        <ele>1525</ele>
        <time>2010-01-01T07:33:14Z</time>
      </trkpt>
      <trkpt lat="46.16472" lon="6.69308">
        <ele>1527</ele>
        <time>2010-01-01T07:33:30Z</time>
      </trkpt>
      <trkpt lat="46.16418" lon="6.69324">
        <ele>1530</ele>
        <time>2010-01-01T07:33:52Z</time>
      </trkpt>
      <trkpt lat="46.16459" lon="6.69328">
        <ele>1528</ele>
        <time>2010-01-01T07:34:09Z</time>
      </trkpt>
      <trkpt lat="46.16513" lon="6.69334">
        <ele>1516</ele>
        <time>2010-01-01T07:34:31Z</time>
      </trkpt>
      <trkpt lat="46.16548" lon="6.69348">
        <ele>1510</ele>
        <time>2010-01-01T07:34:45Z</time>
      </trkpt>
      <trkpt lat="46.16614" lon="6.69354">
        <ele>1502</ele>
        <time>2010-01-01T07:35:11Z</time>
      </trkpt>
      <trkpt lat="46.16679" lon="6.69355">
        <ele>1494</ele>
        <time>2010-01-01T07:35:37Z</time>
      </trkpt>
      <trkpt lat="46.16743" lon="6.69358">
        <ele>1490</ele>
        <time>2010-01-01T07:36:03Z</time>
      </trkpt>
      <trkpt lat="46.16851" lon="6.69377">
        <ele>1474</ele>
        <time>2010-01-01T07:36:47Z</time>
      </trkpt>
      <trkpt lat="46.16911" lon="6.69391">
        <ele>1468</ele>
        <time>2010-01-01T07:37:11Z</time>
      </trkpt>
      <trkpt lat="46.16959" lon="6.69401">
        <ele>1459</ele>
        <time>2010-01-01T07:37:31Z</time>
      </trkpt>
      <trkpt lat="46.17" lon="6.69412">
        <ele>1444</ele>
        <time>2010-01-01T07:37:47Z</time>
      </trkpt>
      <trkpt lat="46.16983" lon="6.69418">
        <ele>1441</ele>
        <time>2010-01-01T07:37:55Z</time>
      </trkpt>
      <trkpt lat="46.16961" lon="6.6944">
        <ele>1439</ele>
        <time>2010-01-01T07:38:05Z</time>
      </trkpt>
      <trkpt lat="46.16938" lon="6.69449">
        <ele>1439</ele>
        <time>2010-01-01T07:38:15Z</time>
      </trkpt>
      <trkpt lat="46.16909" lon="6.6946">
        <ele>1438</ele>
        <time>2010-01-01T07:38:27Z</time>
      </trkpt>
      <trkpt lat="46.1684" lon="6.69476">
        <ele>1431</ele>
        <time>2010-01-01T07:38:54Z</time>
      </trkpt>
      <trkpt lat="46.16748" lon="6.69513">
        <ele>1418</ele>
        <time>2010-01-01T07:39:33Z</time>
      </trkpt>
      <trkpt lat="46.16666" lon="6.69555">
        <ele>1416</ele>
        <time>2010-01-01T07:40:08Z</time>
      </trkpt>
      <trkpt lat="46.16613" lon="6.69574">
        <ele>1415</ele>
        <time>2010-01-01T07:40:30Z</time>
      </trkpt>
      <trkpt lat="46.166" lon="6.69575">
        <ele>1413</ele>
        <time>2010-01-01T07:40:35Z</time>
      </trkpt>
      <trkpt lat="46.16594" lon="6.69576">
        <ele>1412</ele>
        <time>2010-01-01T07:40:37Z</time>
      </trkpt>
      <trkpt lat="46.16596" lon="6.69584">
        <ele>1399</ele>
        <time>2010-01-01T07:40:40Z</time>
      </trkpt>
      <trkpt lat="46.1661" lon="6.69596">
        <ele>1394</ele>
        <time>2010-01-01T07:40:46Z</time>
      </trkpt>
      <trkpt lat="46.16645" lon="6.69611">
        <ele>1391</ele>
        <time>2010-01-01T07:41:01Z</time>
      </trkpt>
      <trkpt lat="46.16671" lon="6.69626">
        <ele>1384</ele>
        <time>2010-01-01T07:41:12Z</time>
      </trkpt>
      <trkpt lat="46.16705" lon="6.69636">
        <ele>1381</ele>
        <time>2010-01-01T07:41:26Z</time>
      </trkpt>
      <trkpt lat="46.16721" lon="6.69636">
        <ele>1380</ele>
        <time>2010-01-01T07:41:32Z</time>
      </trkpt>
      <trkpt lat="46.16742" lon="6.69641">
        <ele>1377</ele>
        <time>2010-01-01T07:41:41Z</time>
      </trkpt>
      <trkpt lat="46.16749" lon="6.69644">
        <ele>1375</ele>
        <time>2010-01-01T07:41:44Z</time>
      </trkpt>
      <trkpt lat="46.16764" lon="6.6965">
        <ele>1369</ele>
        <time>2010-01-01T07:41:50Z</time>
      </trkpt>
      <trkpt lat="46.16782" lon="6.69648">
        <ele>1369</ele>
        <time>2010-01-01T07:41:57Z</time>
      </trkpt>
      <trkpt lat="46.16801" lon="6.69644">
        <ele>1367</ele>
        <time>2010-01-01T07:42:05Z</time>
      </trkpt>
      <trkpt lat="46.16814" lon="6.69649">
        <ele>1364</ele>
        <time>2010-01-01T07:42:10Z</time>
      </trkpt>
      <trkpt lat="46.16836" lon="6.69676">
        <ele>1346</ele>
        <time>2010-01-01T07:42:22Z</time>
      </trkpt>
      <trkpt lat="46.16841" lon="6.69679">
        <ele>1345</ele>
        <time>2010-01-01T07:42:24Z</time>
      </trkpt>
      <trkpt lat="46.16859" lon="6.69702">
        <ele>1341</ele>
        <time>2010-01-01T07:42:34Z</time>
      </trkpt>
      <trkpt lat="46.16867" lon="6.69715">
        <ele>1340</ele>
        <time>2010-01-01T07:42:38Z</time>
      </trkpt>
      <trkpt lat="46.16867" lon="6.69715">
        <ele>1340</ele>
        <time>2010-01-01T07:42:39Z</time>
      </trkpt>
      <trkpt lat="46.16895" lon="6.69728">
        <ele>1338</ele>
        <time>2010-01-01T07:42:50Z</time>
      </trkpt>
      <trkpt lat="46.16898" lon="6.69729">
        <ele>1338</ele>
        <time>2010-01-01T07:42:52Z</time>
      </trkpt>
      <trkpt lat="46.16972" lon="6.69766">
        <ele>1322</ele>
        <time>2010-01-01T07:43:23Z</time>
      </trkpt>
      <trkpt lat="46.17028" lon="6.6979">
        <ele>1314</ele>
        <time>2010-01-01T07:43:46Z</time>
      </trkpt>
      <trkpt lat="46.17059" lon="6.69798">
        <ele>1311</ele>
        <time>2010-01-01T07:43:59Z</time>
      </trkpt>
      <trkpt lat="46.1709" lon="6.69797">
        <ele>1303</ele>
        <time>2010-01-01T07:44:11Z</time>
      </trkpt>
      <trkpt lat="46.17117" lon="6.69786">
        <ele>1303</ele>
        <time>2010-01-01T07:44:22Z</time>
      </trkpt>
      <trkpt lat="46.17153" lon="6.69773">
        <ele>1301</ele>
        <time>2010-01-01T07:44:37Z</time>
      </trkpt>
      <trkpt lat="46.17184" lon="6.69745">
        <ele>1306</ele>
        <time>2010-01-01T07:44:52Z</time>
      </trkpt>
      <trkpt lat="46.17215" lon="6.69725">
        <ele>1307</ele>
        <time>2010-01-01T07:45:05Z</time>
      </trkpt>
      <trkpt lat="46.17223" lon="6.69723">
        <ele>1307</ele>
        <time>2010-01-01T07:45:09Z</time>
      </trkpt>
      <trkpt lat="46.17264" lon="6.69679">
        <ele>1305</ele>
        <time>2010-01-01T07:45:29Z</time>
      </trkpt>
      <trkpt lat="46.17289" lon="6.69644">
        <ele>1308</ele>
        <time>2010-01-01T07:45:43Z</time>
      </trkpt>
      <trkpt lat="46.17306" lon="6.69602">
        <ele>1308</ele>
        <time>2010-01-01T07:45:57Z</time>
      </trkpt>
      <trkpt lat="46.1732" lon="6.69569">
        <ele>1311</ele>
        <time>2010-01-01T07:46:08Z</time>
      </trkpt>
      <trkpt lat="46.17336" lon="6.69545">
        <ele>1302</ele>
        <time>2010-01-01T07:46:17Z</time>
      </trkpt>
      <trkpt lat="46.17356" lon="6.69521">
        <ele>1302</ele>
        <time>2010-01-01T07:46:27Z</time>
      </trkpt>
      <trkpt lat="46.17357" lon="6.6952">
        <ele>1302</ele>
        <time>2010-01-01T07:46:28Z</time>
      </trkpt>
      <trkpt lat="46.17379" lon="6.69497">
        <ele>1305</ele>
        <time>2010-01-01T07:46:38Z</time>
      </trkpt>
      <trkpt lat="46.17394" lon="6.69478">
        <ele>1304</ele>
        <time>2010-01-01T07:46:46Z</time>
      </trkpt>
      <trkpt lat="46.17408" lon="6.69459">
        <ele>1305</ele>
        <time>2010-01-01T07:46:54Z</time>
      </trkpt>
      <trkpt lat="46.17412" lon="6.69449">
        <ele>1305</ele>
        <time>2010-01-01T07:46:57Z</time>
      </trkpt>
      <trkpt lat="46.17418" lon="6.69431">
        <ele>1299</ele>
        <time>2010-01-01T07:47:03Z</time>
      </trkpt>
      <trkpt lat="46.1743" lon="6.6941">
        <ele>1305</ele>
        <time>2010-01-01T07:47:11Z</time>
      </trkpt>
      <trkpt lat="46.17443" lon="6.69385">
        <ele>1307</ele>
        <time>2010-01-01T07:47:19Z</time>
      </trkpt>
      <trkpt lat="46.17459" lon="6.69359">
        <ele>1309</ele>
        <time>2010-01-01T07:47:29Z</time>
      </trkpt>
      <trkpt lat="46.17506" lon="6.69364">
        <ele>1303</ele>
        <time>2010-01-01T07:47:48Z</time>
      </trkpt>
      <trkpt lat="46.17547" lon="6.69371">
        <ele>1298</ele>
        <time>2010-01-01T07:48:04Z</time>
      </trkpt>
      <trkpt lat="46.17576" lon="6.69366">
        <ele>1297</ele>
        <time>2010-01-01T07:48:16Z</time>
      </trkpt>
      <trkpt lat="46.17602" lon="6.69352">
        <ele>1289</ele>
        <time>2010-01-01T07:48:27Z</time>
      </trkpt>
      <trkpt lat="46.17649" lon="6.69292">
        <ele>1292</ele>
        <time>2010-01-01T07:48:52Z</time>
      </trkpt>
      <trkpt lat="46.1766" lon="6.69247">
        <ele>1292</ele>
        <time>2010-01-01T07:49:05Z</time>
      </trkpt>
      <trkpt lat="46.17682" lon="6.69223">
        <ele>1287</ele>
        <time>2010-01-01T07:49:16Z</time>
      </trkpt>
      <trkpt lat="46.17692" lon="6.69217">
        <ele>1287</ele>
        <time>2010-01-01T07:49:21Z</time>
      </trkpt>
      <trkpt lat="46.17725" lon="6.69188">
        <ele>1285</ele>
        <time>2010-01-01T07:49:36Z</time>
      </trkpt>
      <trkpt lat="46.17761" lon="6.69157">
        <ele>1279</ele>
        <time>2010-01-01T07:49:53Z</time>
      </trkpt>
      <trkpt lat="46.17768" lon="6.69128">
        <ele>1278</ele>
        <time>2010-01-01T07:50:01Z</time>
      </trkpt>
      <trkpt lat="46.17787" lon="6.69118">
        <ele>1276</ele>
        <time>2010-01-01T07:50:10Z</time>
      </trkpt>
      <trkpt lat="46.17815" lon="6.69097">
        <ele>1271</ele>
        <time>2010-01-01T07:50:22Z</time>
      </trkpt>
      <trkpt lat="46.1785" lon="6.69079">
        <ele>1259</ele>
        <time>2010-01-01T07:50:37Z</time>
      </trkpt>
      <trkpt lat="46.17893" lon="6.69067">
        <ele>1252</ele>
        <time>2010-01-01T07:50:54Z</time>
      </trkpt>
      <trkpt lat="46.17925" lon="6.69056">
        <ele>1240</ele>
        <time>2010-01-01T07:51:08Z</time>
      </trkpt>
      <trkpt lat="46.17951" lon="6.6905">
        <ele>1236</ele>
        <time>2010-01-01T07:51:18Z</time>
      </trkpt>
      <trkpt lat="46.1799" lon="6.69074">
        <ele>1230</ele>
        <time>2010-01-01T07:51:35Z</time>
      </trkpt>
      <trkpt lat="46.18018" lon="6.69075">
        <ele>1222</ele>
        <time>2010-01-01T07:51:46Z</time>
      </trkpt>
      <trkpt lat="46.18035" lon="6.69059">
        <ele>1220</ele>
        <time>2010-01-01T07:51:55Z</time>
      </trkpt>
      <trkpt lat="46.18076" lon="6.69028">
        <ele>1218</ele>
        <time>2010-01-01T07:52:13Z</time>
      </trkpt>
      <trkpt lat="46.18114" lon="6.68981">
        <ele>1210</ele>
        <time>2010-01-01T07:52:33Z</time>
      </trkpt>
      <trkpt lat="46.18117" lon="6.68969">
        <ele>1209</ele>
        <time>2010-01-01T07:52:37Z</time>
      </trkpt>
      <trkpt lat="46.18148" lon="6.6893">
        <ele>1205</ele>
        <time>2010-01-01T07:52:53Z</time>
      </trkpt>
      <trkpt lat="46.18194" lon="6.68892">
        <ele>1188</ele>
        <time>2010-01-01T07:53:14Z</time>
      </trkpt>
      <trkpt lat="46.18243" lon="6.68852">
        <ele>1180</ele>
        <time>2010-01-01T07:53:37Z</time>
      </trkpt>
      <trkpt lat="46.18328" lon="6.68857">
        <ele>1173</ele>
        <time>2010-01-01T07:54:11Z</time>
      </trkpt>
      <trkpt lat="46.18411" lon="6.68873">
        <ele>1162</ele>
        <time>2010-01-01T07:54:44Z</time>
      </trkpt>
      <trkpt lat="46.18476" lon="6.68926">
        <ele>1146</ele>
        <time>2010-01-01T07:55:14Z</time>
      </trkpt>
      <trkpt lat="46.18522" lon="6.68989">
        <ele>1131</ele>
        <time>2010-01-01T07:55:40Z</time>
      </trkpt>
      <trkpt lat="46.18547" lon="6.69062">
        <ele>1114</ele>
        <time>2010-01-01T07:56:02Z</time>
      </trkpt>
      <trkpt lat="46.18541" lon="6.69143">
        <ele>1101</ele>
        <time>2010-01-01T07:56:25Z</time>
      </trkpt>
      <trkpt lat="46.18459" lon="6.69268">
        <ele>1079</ele>
        <time>2010-01-01T07:57:12Z</time>
      </trkpt>
      <trkpt lat="46.18356" lon="6.69342">
        <ele>1075</ele>
        <time>2010-01-01T07:57:59Z</time>
      </trkpt>
      <trkpt lat="46.18297" lon="6.69436">
        <ele>1058</ele>
        <time>2010-01-01T07:58:34Z</time>
      </trkpt>
      <trkpt lat="46.18216" lon="6.69582">
        <ele>1045</ele>
        <time>2010-01-01T07:59:25Z</time>
      </trkpt>
      <trkpt lat="46.18168" lon="6.69636">
        <ele>1028</ele>
        <time>2010-01-01T07:59:50Z</time>
      </trkpt>
      <trkpt lat="46.18137" lon="6.69687">
        <ele>1034</ele>
        <time>2010-01-01T08:00:09Z</time>
      </trkpt>
      <trkpt lat="46.18125" lon="6.69753">
        <ele>1016</ele>
        <time>2010-01-01T08:00:28Z</time>
      </trkpt>
      <trkpt lat="46.18085" lon="6.69798">
        <ele>1015</ele>
        <time>2010-01-01T08:00:48Z</time>
      </trkpt>
      <trkpt lat="46.18085" lon="6.69873">
        <ele>998</ele>
        <time>2010-01-01T08:01:09Z</time>
      </trkpt>
      <trkpt lat="46.18099" lon="6.69947">
        <ele>988</ele>
        <time>2010-01-01T08:01:30Z</time>
      </trkpt>
      <trkpt lat="46.18209" lon="6.70091">
        <ele>975</ele>
        <time>2010-01-01T08:02:30Z</time>
      </trkpt>
      <trkpt lat="46.1832" lon="6.70255">
        <ele>971</ele>
        <time>2010-01-01T08:03:33Z</time>
      </trkpt>
      <trkpt lat="46.18361" lon="6.70376">
        <ele>955</ele>
        <time>2010-01-01T08:04:10Z</time>
      </trkpt>
      <trkpt lat="46.18394" lon="6.70423">
        <ele>947</ele>
        <time>2010-01-01T08:04:29Z</time>
      </trkpt>
      <trkpt lat="46.18421" lon="6.70506">
        <ele>956</ele>
        <time>2010-01-01T08:04:54Z</time>
      </trkpt>
      <trkpt lat="46.18436" lon="6.70509">
        <ele>962</ele>
        <time>2010-01-01T08:05:00Z</time>
      </trkpt>
      <trkpt lat="46.18466" lon="6.70545">
        <ele>970</ele>
        <time>2010-01-01T08:05:16Z</time>
      </trkpt>
      <trkpt lat="46.18473" lon="6.70572">
        <ele>974</ele>
        <time>2010-01-01T08:05:24Z</time>
      </trkpt>
      <trkpt lat="46.18535" lon="6.70729">
        <ele>1031</ele>
        <time>2010-01-01T08:06:14Z</time>
      </trkpt>
      <trkpt lat="46.18659" lon="6.70836">
        <ele>1122</ele>
        <time>2010-01-01T08:07:12Z</time>
      </trkpt>
      <trkpt lat="46.18706" lon="6.70973">
        <ele>1181</ele>
        <time>2010-01-01T08:07:54Z</time>
      </trkpt>
      <trkpt lat="46.18814" lon="6.71177">
        <ele>1283</ele>
        <time>2010-01-01T08:09:05Z</time>
      </trkpt>
      <trkpt lat="46.1888" lon="6.71327">
        <ele>1331</ele>
        <time>2010-01-01T08:09:55Z</time>
      </trkpt>
      <trkpt lat="46.18955" lon="6.71477">
        <ele>1378</ele>
        <time>2010-01-01T08:10:46Z</time>
      </trkpt>
      <trkpt lat="46.19057" lon="6.71655">
        <ele>1426</ele>
        <time>2010-01-01T08:11:50Z</time>
      </trkpt>
      <trkpt lat="46.1911" lon="6.71769">
        <ele>1458</ele>
        <time>2010-01-01T08:12:28Z</time>
      </trkpt>
      <trkpt lat="46.19117" lon="6.71791">
        <ele>1460</ele>
        <time>2010-01-01T08:12:35Z</time>
      </trkpt>
      <trkpt lat="46.19117" lon="6.71812">
        <ele>1461</ele>
        <time>2010-01-01T08:12:41Z</time>
      </trkpt>
      <trkpt lat="46.19113" lon="6.71821">
        <ele>1461</ele>
        <time>2010-01-01T08:12:44Z</time>
      </trkpt>
      <trkpt lat="46.19106" lon="6.71822">
        <ele>1461</ele>
        <time>2010-01-01T08:12:46Z</time>
      </trkpt>
      <trkpt lat="46.19093" lon="6.71801">
        <ele>1460</ele>
        <time>2010-01-01T08:12:54Z</time>
      </trkpt>
      <trkpt lat="46.19092" lon="6.718">
        <ele>1460</ele>
        <time>2010-01-01T08:12:55Z</time>
      </trkpt>
      <trkpt lat="46.19075" lon="6.718">
        <ele>1454</ele>
        <time>2010-01-01T08:13:01Z</time>
      </trkpt>
      <trkpt lat="46.19062" lon="6.71799">
        <ele>1454</ele>
        <time>2010-01-01T08:13:06Z</time>
      </trkpt>
      <trkpt lat="46.1906" lon="6.71798">
        <ele>1453</ele>
        <time>2010-01-01T08:13:07Z</time>
      </trkpt>
      <trkpt lat="46.19052" lon="6.71794">
        <ele>1453</ele>
        <time>2010-01-01T08:13:11Z</time>
      </trkpt>
      <trkpt lat="46.19051" lon="6.71794">
        <ele>1453</ele>
        <time>2010-01-01T08:13:11Z</time>
      </trkpt>
      <trkpt lat="46.19043" lon="6.71787">
        <ele>1452</ele>
        <time>2010-01-01T08:13:15Z</time>
      </trkpt>
      <trkpt lat="46.1904" lon="6.71785">
        <ele>1451</ele>
        <time>2010-01-01T08:13:16Z</time>
      </trkpt>
      <trkpt lat="46.19038" lon="6.71785">
        <ele>1451</ele>
        <time>2010-01-01T08:13:17Z</time>
      </trkpt>
      <trkpt lat="46.19028" lon="6.71784">
        <ele>1451</ele>
        <time>2010-01-01T08:13:21Z</time>
      </trkpt>
      <trkpt lat="46.19027" lon="6.71794">
        <ele>1451</ele>
        <time>2010-01-01T08:13:24Z</time>
      </trkpt>
      <trkpt lat="46.19074" lon="6.7191">
        <ele>1471</ele>
        <time>2010-01-01T08:14:01Z</time>
      </trkpt>
      <trkpt lat="46.19145" lon="6.72053">
        <ele>1506</ele>
        <time>2010-01-01T08:14:50Z</time>
      </trkpt>
      <trkpt lat="46.19632" lon="6.73213">
        <ele>1741</ele>
        <time>2010-01-01T08:21:06Z</time>
      </trkpt>
      <trkpt lat="46.19629" lon="6.73293">
        <ele>1742</ele>
        <time>2010-01-01T08:21:28Z</time>
      </trkpt>
      <trkpt lat="46.19621" lon="6.73314">
        <ele>1742</ele>
        <time>2010-01-01T08:21:35Z</time>
      </trkpt>
      <trkpt lat="46.19609" lon="6.7335">
        <ele>1740</ele>
        <time>2010-01-01T08:21:46Z</time>
      </trkpt>
      <trkpt lat="46.19603" lon="6.7341">
        <ele>1740</ele>
        <time>2010-01-01T08:22:02Z</time>
      </trkpt>
      <trkpt lat="46.19621" lon="6.7348">
        <ele>1738</ele>
        <time>2010-01-01T08:22:23Z</time>
      </trkpt>
      <trkpt lat="46.19627" lon="6.73532">
        <ele>1737</ele>
        <time>2010-01-01T08:22:38Z</time>
      </trkpt>
      <trkpt lat="46.19657" lon="6.73591">
        <ele>1740</ele>
        <time>2010-01-01T08:22:58Z</time>
      </trkpt>
      <trkpt lat="46.19678" lon="6.73624">
        <ele>1738</ele>
        <time>2010-01-01T08:23:10Z</time>
      </trkpt>
      <trkpt lat="46.19719" lon="6.73677">
        <ele>1740</ele>
        <time>2010-01-01T08:23:32Z</time>
      </trkpt>
      <trkpt lat="46.19801" lon="6.73799">
        <ele>1750</ele>
        <time>2010-01-01T08:24:20Z</time>
      </trkpt>
      <trkpt lat="46.19873" lon="6.73958">
        <ele>1755</ele>
        <time>2010-01-01T08:25:12Z</time>
      </trkpt>
      <trkpt lat="46.19908" lon="6.74006">
        <ele>1754</ele>
        <time>2010-01-01T08:25:31Z</time>
      </trkpt>
      <trkpt lat="46.19932" lon="6.74043">
        <ele>1752</ele>
        <time>2010-01-01T08:25:46Z</time>
      </trkpt>
      <trkpt lat="46.1999" lon="6.74108">
        <ele>1756</ele>
        <time>2010-01-01T08:26:15Z</time>
      </trkpt>
      <trkpt lat="46.20023" lon="6.74197">
        <ele>1755</ele>
        <time>2010-01-01T08:26:43Z</time>
      </trkpt>
      <trkpt lat="46.20043" lon="6.74249">
        <ele>1754</ele>
        <time>2010-01-01T08:26:59Z</time>
      </trkpt>
      <trkpt lat="46.20046" lon="6.74277">
        <ele>1755</ele>
        <time>2010-01-01T08:27:07Z</time>
      </trkpt>
      <trkpt lat="46.2004" lon="6.74307">
        <ele>1755</ele>
        <time>2010-01-01T08:27:16Z</time>
      </trkpt>
      <trkpt lat="46.20036" lon="6.74364">
        <ele>1751</ele>
        <time>2010-01-01T08:27:31Z</time>
      </trkpt>
      <trkpt lat="46.20043" lon="6.74393">
        <ele>1750</ele>
        <time>2010-01-01T08:27:40Z</time>
      </trkpt>
      <trkpt lat="46.2005" lon="6.74449">
        <ele>1745</ele>
        <time>2010-01-01T08:27:56Z</time>
      </trkpt>
      <trkpt lat="46.20055" lon="6.74492">
        <ele>1745</ele>
        <time>2010-01-01T08:28:08Z</time>
      </trkpt>
      <trkpt lat="46.20056" lon="6.74526">
        <ele>1740</ele>
        <time>2010-01-01T08:28:17Z</time>
      </trkpt>
      <trkpt lat="46.20059" lon="6.74553">
        <ele>1739</ele>
        <time>2010-01-01T08:28:25Z</time>
      </trkpt>
      <trkpt lat="46.2006" lon="6.74555">
        <ele>1739</ele>
        <time>2010-01-01T08:28:26Z</time>
      </trkpt>
      <trkpt lat="46.20071" lon="6.74578">
        <ele>1740</ele>
        <time>2010-01-01T08:28:33Z</time>
      </trkpt>
      <trkpt lat="46.20073" lon="6.74604">
        <ele>1738</ele>
        <time>2010-01-01T08:28:41Z</time>
      </trkpt>
      <trkpt lat="46.20073" lon="6.74616">
        <ele>1737</ele>
        <time>2010-01-01T08:28:44Z</time>
      </trkpt>
      <trkpt lat="46.20072" lon="6.74645">
        <ele>1738</ele>
        <time>2010-01-01T08:28:52Z</time>
      </trkpt>
      <trkpt lat="46.20072" lon="6.74646">
        <ele>1738</ele>
        <time>2010-01-01T08:28:52Z</time>
      </trkpt>
      <trkpt lat="46.20078" lon="6.74707">
        <ele>1736</ele>
        <time>2010-01-01T08:29:09Z</time>
      </trkpt>
      <trkpt lat="46.20083" lon="6.74747">
        <ele>1742</ele>
        <time>2010-01-01T08:29:21Z</time>
      </trkpt>
      <trkpt lat="46.20093" lon="6.74841">
        <ele>1740</ele>
        <time>2010-01-01T08:29:47Z</time>
      </trkpt>
      <trkpt lat="46.20093" lon="6.74885">
        <ele>1738</ele>
        <time>2010-01-01T08:29:59Z</time>
      </trkpt>
      <trkpt lat="46.20107" lon="6.74982">
        <ele>1743</ele>
        <time>2010-01-01T08:30:27Z</time>
      </trkpt>
      <trkpt lat="46.20125" lon="6.75107">
        <ele>1750</ele>
        <time>2010-01-01T08:31:02Z</time>
      </trkpt>
      <trkpt lat="46.20133" lon="6.75199">
        <ele>1752</ele>
        <time>2010-01-01T08:31:28Z</time>
      </trkpt>
      <trkpt lat="46.20131" lon="6.75297">
        <ele>1755</ele>
        <time>2010-01-01T08:31:55Z</time>
      </trkpt>
      <trkpt lat="46.20121" lon="6.75378">
        <ele>1758</ele>
        <time>2010-01-01T08:32:18Z</time>
      </trkpt>
      <trkpt lat="46.20113" lon="6.75437">
        <ele>1759</ele>
        <time>2010-01-01T08:32:34Z</time>
      </trkpt>
      <trkpt lat="46.20108" lon="6.75467">
        <ele>1760</ele>
        <time>2010-01-01T08:32:43Z</time>
      </trkpt>
      <trkpt lat="46.20105" lon="6.75577">
        <ele>1761</ele>
        <time>2010-01-01T08:33:13Z</time>
      </trkpt>
      <trkpt lat="46.201" lon="6.75671">
        <ele>1763</ele>
        <time>2010-01-01T08:33:40Z</time>
      </trkpt>
      <trkpt lat="46.20097" lon="6.75695">
        <ele>1765</ele>
        <time>2010-01-01T08:33:46Z</time>
      </trkpt>
      <trkpt lat="46.20097" lon="6.75696">
        <ele>1765</ele>
        <time>2010-01-01T08:33:46Z</time>
      </trkpt>
      <trkpt lat="46.20084" lon="6.75723">
        <ele>1765</ele>
        <time>2010-01-01T08:33:55Z</time>
      </trkpt>
      <trkpt lat="46.20072" lon="6.75754">
        <ele>1761</ele>
        <time>2010-01-01T08:34:06Z</time>
      </trkpt>
      <trkpt lat="46.20069" lon="6.75758">
        <ele>1760</ele>
        <time>2010-01-01T08:34:07Z</time>
      </trkpt>
      <trkpt lat="46.20062" lon="6.75768">
        <ele>1759</ele>
        <time>2010-01-01T08:34:11Z</time>
      </trkpt>
      <trkpt lat="46.20056" lon="6.75785">
        <ele>1758</ele>
        <time>2010-01-01T08:34:16Z</time>
      </trkpt>
      <trkpt lat="46.20054" lon="6.75792">
        <ele>1758</ele>
        <time>2010-01-01T08:34:19Z</time>
      </trkpt>
      <trkpt lat="46.20054" lon="6.75812">
        <ele>1759</ele>
        <time>2010-01-01T08:34:24Z</time>
      </trkpt>
      <trkpt lat="46.20053" lon="6.7583">
        <ele>1759</ele>
        <time>2010-01-01T08:34:29Z</time>
      </trkpt>
      <trkpt lat="46.20054" lon="6.75847">
        <ele>1758</ele>
        <time>2010-01-01T08:34:34Z</time>
      </trkpt>
      <trkpt lat="46.20051" lon="6.75865">
        <ele>1756</ele>
        <time>2010-01-01T08:34:39Z</time>
      </trkpt>
      <trkpt lat="46.20042" lon="6.75879">
        <ele>1756</ele>
        <time>2010-01-01T08:34:44Z</time>
      </trkpt>
      <trkpt lat="46.20032" lon="6.75895">
        <ele>1756</ele>
        <time>2010-01-01T08:34:50Z</time>
      </trkpt>
      <trkpt lat="46.20025" lon="6.75907">
        <ele>1756</ele>
        <time>2010-01-01T08:34:54Z</time>
      </trkpt>
      <trkpt lat="46.20016" lon="6.7592">
        <ele>1753</ele>
        <time>2010-01-01T08:35:00Z</time>
      </trkpt>
      <trkpt lat="46.2002" lon="6.75928">
        <ele>1752</ele>
        <time>2010-01-01T08:35:02Z</time>
      </trkpt>
      <trkpt lat="46.2002" lon="6.75928">
        <ele>1752</ele>
        <time>2010-01-01T08:35:03Z</time>
      </trkpt>
      <trkpt lat="46.20032" lon="6.75924">
        <ele>1750</ele>
        <time>2010-01-01T08:35:07Z</time>
      </trkpt>
      <trkpt lat="46.20038" lon="6.75921">
        <ele>1750</ele>
        <time>2010-01-01T08:35:10Z</time>
      </trkpt>
      <trkpt lat="46.20038" lon="6.75942">
        <ele>1749</ele>
        <time>2010-01-01T08:35:16Z</time>
      </trkpt>
      <trkpt lat="46.20032" lon="6.75959">
        <ele>1748</ele>
        <time>2010-01-01T08:35:21Z</time>
      </trkpt>
      <trkpt lat="46.2003" lon="6.7596">
        <ele>1748</ele>
        <time>2010-01-01T08:35:22Z</time>
      </trkpt>
      <trkpt lat="46.20023" lon="6.75968">
        <ele>1749</ele>
        <time>2010-01-01T08:35:25Z</time>
      </trkpt>
      <trkpt lat="46.20019" lon="6.75978">
        <ele>1749</ele>
        <time>2010-01-01T08:35:29Z</time>
      </trkpt>
      <trkpt lat="46.20016" lon="6.75992">
        <ele>1750</ele>
        <time>2010-01-01T08:35:32Z</time>
      </trkpt>
      <trkpt lat="46.20016" lon="6.75992">
        <ele>1750</ele>
        <time>2010-01-01T08:35:33Z</time>
      </trkpt>
      <trkpt lat="46.20018" lon="6.76002">
        <ele>1745</ele>
        <time>2010-01-01T08:35:36Z</time>
      </trkpt>
      <trkpt lat="46.20029" lon="6.76">
        <ele>1747</ele>
        <time>2010-01-01T08:35:40Z</time>
      </trkpt>
      <trkpt lat="46.20029" lon="6.76">
        <ele>1747</ele>
        <time>2010-01-01T08:35:40Z</time>
      </trkpt>
      <trkpt lat="46.20033" lon="6.75997">
        <ele>1747</ele>
        <time>2010-01-01T08:35:42Z</time>
      </trkpt>
      <trkpt lat="46.20037" lon="6.75993">
        <ele>1746</ele>
        <time>2010-01-01T08:35:44Z</time>
      </trkpt>
      <trkpt lat="46.20039" lon="6.75997">
        <ele>1745</ele>
        <time>2010-01-01T08:35:45Z</time>
      </trkpt>
      <trkpt lat="46.20039" lon="6.75997">
        <ele>1745</ele>
        <time>2010-01-01T08:35:45Z</time>
      </trkpt>
      <trkpt lat="46.2004" lon="6.76008">
        <ele>1739</ele>
        <time>2010-01-01T08:35:48Z</time>
      </trkpt>
      <trkpt lat="46.20037" lon="6.76018">
        <ele>1739</ele>
        <time>2010-01-01T08:35:51Z</time>
      </trkpt>
      <trkpt lat="46.20039" lon="6.76028">
        <ele>1738</ele>
        <time>2010-01-01T08:35:54Z</time>
      </trkpt>
      <trkpt lat="46.2004" lon="6.76028">
        <ele>1738</ele>
        <time>2010-01-01T08:35:55Z</time>
      </trkpt>
      <trkpt lat="46.2006" lon="6.76056">
        <ele>1733</ele>
        <time>2010-01-01T08:36:06Z</time>
      </trkpt>
      <trkpt lat="46.20064" lon="6.76069">
        <ele>1729</ele>
        <time>2010-01-01T08:36:10Z</time>
      </trkpt>
      <trkpt lat="46.20065" lon="6.7608">
        <ele>1727</ele>
        <time>2010-01-01T08:36:13Z</time>
      </trkpt>
      <trkpt lat="46.20061" lon="6.76091">
        <ele>1725</ele>
        <time>2010-01-01T08:36:16Z</time>
      </trkpt>
      <trkpt lat="46.20065" lon="6.76119">
        <ele>1725</ele>
        <time>2010-01-01T08:36:24Z</time>
      </trkpt>
      <trkpt lat="46.20064" lon="6.76132">
        <ele>1724</ele>
        <time>2010-01-01T08:36:28Z</time>
      </trkpt>
      <trkpt lat="46.20061" lon="6.76143">
        <ele>1723</ele>
        <time>2010-01-01T08:36:31Z</time>
      </trkpt>
      <trkpt lat="46.2006" lon="6.76146">
        <ele>1723</ele>
        <time>2010-01-01T08:36:32Z</time>
      </trkpt>
      <trkpt lat="46.2006" lon="6.76146">
        <ele>1723</ele>
        <time>2010-01-01T08:36:32Z</time>
      </trkpt>
      <trkpt lat="46.20054" lon="6.76156">
        <ele>1724</ele>
        <time>2010-01-01T08:36:36Z</time>
      </trkpt>
      <trkpt lat="46.20053" lon="6.76158">
        <ele>1724</ele>
        <time>2010-01-01T08:36:36Z</time>
      </trkpt>
      <trkpt lat="46.20048" lon="6.76168">
        <ele>1721</ele>
        <time>2010-01-01T08:36:40Z</time>
      </trkpt>
      <trkpt lat="46.20048" lon="6.7617">
        <ele>1721</ele>
        <time>2010-01-01T08:36:40Z</time>
      </trkpt>
      <trkpt lat="46.20048" lon="6.76171">
        <ele>1721</ele>
        <time>2010-01-01T08:36:41Z</time>
      </trkpt>
      <trkpt lat="46.20045" lon="6.76183">
        <ele>1722</ele>
        <time>2010-01-01T08:36:44Z</time>
      </trkpt>
      <trkpt lat="46.20044" lon="6.76185">
        <ele>1722</ele>
        <time>2010-01-01T08:36:45Z</time>
      </trkpt>
      <trkpt lat="46.2004" lon="6.762">
        <ele>1722</ele>
        <time>2010-01-01T08:36:49Z</time>
      </trkpt>
      <trkpt lat="46.2004" lon="6.76203">
        <ele>1722</ele>
        <time>2010-01-01T08:36:50Z</time>
      </trkpt>
      <trkpt lat="46.20038" lon="6.76221">
        <ele>1722</ele>
        <time>2010-01-01T08:36:55Z</time>
      </trkpt>
      <trkpt lat="46.20039" lon="6.76222">
        <ele>1721</ele>
        <time>2010-01-01T08:36:56Z</time>
      </trkpt>
      <trkpt lat="46.20043" lon="6.76235">
        <ele>1719</ele>
        <time>2010-01-01T08:36:59Z</time>
      </trkpt>
      <trkpt lat="46.20043" lon="6.76235">
        <ele>1719</ele>
        <time>2010-01-01T08:36:59Z</time>
      </trkpt>
      <trkpt lat="46.20047" lon="6.76283">
        <ele>1713</ele>
        <time>2010-01-01T08:37:13Z</time>
      </trkpt>
      <trkpt lat="46.20045" lon="6.7631">
        <ele>1712</ele>
        <time>2010-01-01T08:37:20Z</time>
      </trkpt>
      <trkpt lat="46.20048" lon="6.76337">
        <ele>1710</ele>
        <time>2010-01-01T08:37:28Z</time>
      </trkpt>
      <trkpt lat="46.20049" lon="6.76338">
        <ele>1709</ele>
        <time>2010-01-01T08:37:28Z</time>
      </trkpt>
      <trkpt lat="46.2005" lon="6.76362">
        <ele>1710</ele>
        <time>2010-01-01T08:37:35Z</time>
      </trkpt>
      <trkpt lat="46.20057" lon="6.76398">
        <ele>1707</ele>
        <time>2010-01-01T08:37:45Z</time>
      </trkpt>
      <trkpt lat="46.20065" lon="6.76419">
        <ele>1703</ele>
        <time>2010-01-01T08:37:52Z</time>
      </trkpt>
      <trkpt lat="46.20072" lon="6.76445">
        <ele>1705</ele>
        <time>2010-01-01T08:38:00Z</time>
      </trkpt>
      <trkpt lat="46.20073" lon="6.7646">
        <ele>1707</ele>
        <time>2010-01-01T08:38:04Z</time>
      </trkpt>
      <trkpt lat="46.20073" lon="6.76461">
        <ele>1707</ele>
        <time>2010-01-01T08:38:04Z</time>
      </trkpt>
      <trkpt lat="46.2007" lon="6.7648">
        <ele>1705</ele>
        <time>2010-01-01T08:38:10Z</time>
      </trkpt>
      <trkpt lat="46.20076" lon="6.76484">
        <ele>1703</ele>
        <time>2010-01-01T08:38:12Z</time>
      </trkpt>
      <trkpt lat="46.20077" lon="6.76483">
        <ele>1703</ele>
        <time>2010-01-01T08:38:13Z</time>
      </trkpt>
      <trkpt lat="46.20078" lon="6.76482">
        <ele>1703</ele>
        <time>2010-01-01T08:38:13Z</time>
      </trkpt>
      <trkpt lat="46.20085" lon="6.76483">
        <ele>1686</ele>
        <time>2010-01-01T08:38:16Z</time>
      </trkpt>
      <trkpt lat="46.20092" lon="6.76487">
        <ele>1686</ele>
        <time>2010-01-01T08:38:19Z</time>
      </trkpt>
      <trkpt lat="46.20095" lon="6.76494">
        <ele>1686</ele>
        <time>2010-01-01T08:38:22Z</time>
      </trkpt>
      <trkpt lat="46.20095" lon="6.76495">
        <ele>1687</ele>
        <time>2010-01-01T08:38:22Z</time>
      </trkpt>
      <trkpt lat="46.20086" lon="6.76508">
        <ele>1689</ele>
        <time>2010-01-01T08:38:27Z</time>
      </trkpt>
      <trkpt lat="46.20105" lon="6.76537">
        <ele>1683</ele>
        <time>2010-01-01T08:38:39Z</time>
      </trkpt>
      <trkpt lat="46.20121" lon="6.76568">
        <ele>1682</ele>
        <time>2010-01-01T08:38:49Z</time>
      </trkpt>
      <trkpt lat="46.20126" lon="6.76589">
        <ele>1678</ele>
        <time>2010-01-01T08:38:55Z</time>
      </trkpt>
      <trkpt lat="46.20118" lon="6.76636">
        <ele>1676</ele>
        <time>2010-01-01T08:39:09Z</time>
      </trkpt>
      <trkpt lat="46.20112" lon="6.7666">
        <ele>1676</ele>
        <time>2010-01-01T08:39:16Z</time>
      </trkpt>
      <trkpt lat="46.20112" lon="6.76685">
        <ele>1669</ele>
        <time>2010-01-01T08:39:23Z</time>
      </trkpt>
      <trkpt lat="46.20112" lon="6.76685">
        <ele>1669</ele>
        <time>2010-01-01T08:39:23Z</time>
      </trkpt>
      <trkpt lat="46.20108" lon="6.76699">
        <ele>1668</ele>
        <time>2010-01-01T08:39:27Z</time>
      </trkpt>
      <trkpt lat="46.20107" lon="6.767">
        <ele>1668</ele>
        <time>2010-01-01T08:39:27Z</time>
      </trkpt>
      <trkpt lat="46.20097" lon="6.76723">
        <ele>1668</ele>
        <time>2010-01-01T08:39:35Z</time>
      </trkpt>
      <trkpt lat="46.20098" lon="6.76745">
        <ele>1669</ele>
        <time>2010-01-01T08:39:41Z</time>
      </trkpt>
      <trkpt lat="46.20098" lon="6.76745">
        <ele>1669</ele>
        <time>2010-01-01T08:39:41Z</time>
      </trkpt>
      <trkpt lat="46.20097" lon="6.76764">
        <ele>1665</ele>
        <time>2010-01-01T08:39:46Z</time>
      </trkpt>
      <trkpt lat="46.20097" lon="6.76767">
        <ele>1665</ele>
        <time>2010-01-01T08:39:47Z</time>
      </trkpt>
      <trkpt lat="46.20097" lon="6.76767">
        <ele>1665</ele>
        <time>2010-01-01T08:39:47Z</time>
      </trkpt>
      <trkpt lat="46.20099" lon="6.76786">
        <ele>1663</ele>
        <time>2010-01-01T08:39:52Z</time>
      </trkpt>
      <trkpt lat="46.20099" lon="6.76787">
        <ele>1663</ele>
        <time>2010-01-01T08:39:53Z</time>
      </trkpt>
      <trkpt lat="46.20101" lon="6.76805">
        <ele>1662</ele>
        <time>2010-01-01T08:39:58Z</time>
      </trkpt>
      <trkpt lat="46.20101" lon="6.76815">
        <ele>1663</ele>
        <time>2010-01-01T08:40:00Z</time>
      </trkpt>
      <trkpt lat="46.20124" lon="6.76822">
        <ele>1660</ele>
        <time>2010-01-01T08:40:10Z</time>
      </trkpt>
      <trkpt lat="46.20134" lon="6.7683">
        <ele>1659</ele>
        <time>2010-01-01T08:40:14Z</time>
      </trkpt>
      <trkpt lat="46.20139" lon="6.76842">
        <ele>1662</ele>
        <time>2010-01-01T08:40:18Z</time>
      </trkpt>
      <trkpt lat="46.20142" lon="6.76855">
        <ele>1663</ele>
        <time>2010-01-01T08:40:22Z</time>
      </trkpt>
      <trkpt lat="46.20143" lon="6.76857">
        <ele>1663</ele>
        <time>2010-01-01T08:40:23Z</time>
      </trkpt>
      <trkpt lat="46.20149" lon="6.76865">
        <ele>1664</ele>
        <time>2010-01-01T08:40:26Z</time>
      </trkpt>
      <trkpt lat="46.20151" lon="6.76866">
        <ele>1664</ele>
        <time>2010-01-01T08:40:27Z</time>
      </trkpt>
      <trkpt lat="46.20189" lon="6.76873">
        <ele>1656</ele>
        <time>2010-01-01T08:40:42Z</time>
      </trkpt>
      <trkpt lat="46.20203" lon="6.76879">
        <ele>1656</ele>
        <time>2010-01-01T08:40:48Z</time>
      </trkpt>
      <trkpt lat="46.20203" lon="6.76879">
        <ele>1656</ele>
        <time>2010-01-01T08:40:48Z</time>
      </trkpt>
      <trkpt lat="46.20216" lon="6.76882">
        <ele>1655</ele>
        <time>2010-01-01T08:40:54Z</time>
      </trkpt>
      <trkpt lat="46.20217" lon="6.76882">
        <ele>1655</ele>
        <time>2010-01-01T08:40:54Z</time>
      </trkpt>
      <trkpt lat="46.20227" lon="6.76886">
        <ele>1656</ele>
        <time>2010-01-01T08:40:58Z</time>
      </trkpt>
      <trkpt lat="46.20232" lon="6.76887">
        <ele>1656</ele>
        <time>2010-01-01T08:41:00Z</time>
      </trkpt>
      <trkpt lat="46.20294" lon="6.76883">
        <ele>1651</ele>
        <time>2010-01-01T08:41:25Z</time>
      </trkpt>
      <trkpt lat="46.20312" lon="6.76883">
        <ele>1652</ele>
        <time>2010-01-01T08:41:32Z</time>
      </trkpt>
      <trkpt lat="46.2032" lon="6.7688">
        <ele>1651</ele>
        <time>2010-01-01T08:41:35Z</time>
      </trkpt>
      <trkpt lat="46.20321" lon="6.7688">
        <ele>1651</ele>
        <time>2010-01-01T08:41:36Z</time>
      </trkpt>
      <trkpt lat="46.20333" lon="6.76877">
        <ele>1651</ele>
        <time>2010-01-01T08:41:40Z</time>
      </trkpt>
      <trkpt lat="46.20333" lon="6.76876">
        <ele>1651</ele>
        <time>2010-01-01T08:41:41Z</time>
      </trkpt>
      <trkpt lat="46.20348" lon="6.76874">
        <ele>1650</ele>
        <time>2010-01-01T08:41:47Z</time>
      </trkpt>
      <trkpt lat="46.20349" lon="6.76873">
        <ele>1650</ele>
        <time>2010-01-01T08:41:47Z</time>
      </trkpt>
      <trkpt lat="46.2039" lon="6.76862">
        <ele>1648</ele>
        <time>2010-01-01T08:42:04Z</time>
      </trkpt>
      <trkpt lat="46.20413" lon="6.76851">
        <ele>1646</ele>
        <time>2010-01-01T08:42:14Z</time>
      </trkpt>
      <trkpt lat="46.20426" lon="6.7684">
        <ele>1643</ele>
        <time>2010-01-01T08:42:20Z</time>
      </trkpt>
      <trkpt lat="46.20439" lon="6.76834">
        <ele>1642</ele>
        <time>2010-01-01T08:42:25Z</time>
      </trkpt>
      <trkpt lat="46.20448" lon="6.76839">
        <ele>1642</ele>
        <time>2010-01-01T08:42:29Z</time>
      </trkpt>
      <trkpt lat="46.20449" lon="6.76839">
        <ele>1642</ele>
        <time>2010-01-01T08:42:30Z</time>
      </trkpt>
      <trkpt lat="46.20457" lon="6.76851">
        <ele>1642</ele>
        <time>2010-01-01T08:42:34Z</time>
      </trkpt>
      <trkpt lat="46.20477" lon="6.7686">
        <ele>1641</ele>
        <time>2010-01-01T08:42:43Z</time>
      </trkpt>
      <trkpt lat="46.20485" lon="6.76861">
        <ele>1641</ele>
        <time>2010-01-01T08:42:46Z</time>
      </trkpt>
      <trkpt lat="46.20497" lon="6.76879">
        <ele>1641</ele>
        <time>2010-01-01T08:42:53Z</time>
      </trkpt>
      <trkpt lat="46.20497" lon="6.76915">
        <ele>1638</ele>
        <time>2010-01-01T08:43:03Z</time>
      </trkpt>
      <trkpt lat="46.20499" lon="6.76934">
        <ele>1642</ele>
        <time>2010-01-01T08:43:08Z</time>
      </trkpt>
      <trkpt lat="46.20499" lon="6.76937">
        <ele>1642</ele>
        <time>2010-01-01T08:43:09Z</time>
      </trkpt>
      <trkpt lat="46.20499" lon="6.76941">
        <ele>1643</ele>
        <time>2010-01-01T08:43:10Z</time>
      </trkpt>
      <trkpt lat="46.20498" lon="6.76972">
        <ele>1643</ele>
        <time>2010-01-01T08:43:19Z</time>
      </trkpt>
      <trkpt lat="46.20496" lon="6.76987">
        <ele>1641</ele>
        <time>2010-01-01T08:43:23Z</time>
      </trkpt>
      <trkpt lat="46.20499" lon="6.77067">
        <ele>1638</ele>
        <time>2010-01-01T08:43:45Z</time>
      </trkpt>
      <trkpt lat="46.20499" lon="6.77094">
        <ele>1634</ele>
        <time>2010-01-01T08:43:53Z</time>
      </trkpt>
      <trkpt lat="46.20496" lon="6.77108">
        <ele>1637</ele>
        <time>2010-01-01T08:43:56Z</time>
      </trkpt>
      <trkpt lat="46.20494" lon="6.77132">
        <ele>1636</ele>
        <time>2010-01-01T08:44:03Z</time>
      </trkpt>
      <trkpt lat="46.20494" lon="6.77135">
        <ele>1636</ele>
        <time>2010-01-01T08:44:04Z</time>
      </trkpt>
      <trkpt lat="46.20492" lon="6.77154">
        <ele>1633</ele>
        <time>2010-01-01T08:44:09Z</time>
      </trkpt>
      <trkpt lat="46.20492" lon="6.77156">
        <ele>1632</ele>
        <time>2010-01-01T08:44:10Z</time>
      </trkpt>
      <trkpt lat="46.20491" lon="6.77172">
        <ele>1630</ele>
        <time>2010-01-01T08:44:14Z</time>
      </trkpt>
      <trkpt lat="46.20491" lon="6.77173">
        <ele>1630</ele>
        <time>2010-01-01T08:44:15Z</time>
      </trkpt>
      <trkpt lat="46.2049" lon="6.77185">
        <ele>1632</ele>
        <time>2010-01-01T08:44:18Z</time>
      </trkpt>
      <trkpt lat="46.20484" lon="6.77218">
        <ele>1633</ele>
        <time>2010-01-01T08:44:27Z</time>
      </trkpt>
      <trkpt lat="46.20487" lon="6.77235">
        <ele>1631</ele>
        <time>2010-01-01T08:44:32Z</time>
      </trkpt>
      <trkpt lat="46.20488" lon="6.77237">
        <ele>1630</ele>
        <time>2010-01-01T08:44:33Z</time>
      </trkpt>
      <trkpt lat="46.20487" lon="6.77257">
        <ele>1626</ele>
        <time>2010-01-01T08:44:39Z</time>
      </trkpt>
      <trkpt lat="46.20487" lon="6.77259">
        <ele>1626</ele>
        <time>2010-01-01T08:44:39Z</time>
      </trkpt>
      <trkpt lat="46.20465" lon="6.7732">
        <ele>1625</ele>
        <time>2010-01-01T08:44:58Z</time>
      </trkpt>
      <trkpt lat="46.20457" lon="6.77343">
        <ele>1614</ele>
        <time>2010-01-01T08:45:05Z</time>
      </trkpt>
      <trkpt lat="46.20449" lon="6.77357">
        <ele>1614</ele>
        <time>2010-01-01T08:45:10Z</time>
      </trkpt>
      <trkpt lat="46.20441" lon="6.77368">
        <ele>1614</ele>
        <time>2010-01-01T08:45:15Z</time>
      </trkpt>
      <trkpt lat="46.2044" lon="6.77371">
        <ele>1613</ele>
        <time>2010-01-01T08:45:15Z</time>
      </trkpt>
      <trkpt lat="46.20427" lon="6.77391">
        <ele>1612</ele>
        <time>2010-01-01T08:45:23Z</time>
      </trkpt>
      <trkpt lat="46.20426" lon="6.77392">
        <ele>1612</ele>
        <time>2010-01-01T08:45:24Z</time>
      </trkpt>
      <trkpt lat="46.20415" lon="6.77407">
        <ele>1619</ele>
        <time>2010-01-01T08:45:30Z</time>
      </trkpt>
      <trkpt lat="46.20414" lon="6.77409">
        <ele>1618</ele>
        <time>2010-01-01T08:45:30Z</time>
      </trkpt>
      <trkpt lat="46.204" lon="6.77427">
        <ele>1615</ele>
        <time>2010-01-01T08:45:38Z</time>
      </trkpt>
      <trkpt lat="46.20399" lon="6.77431">
        <ele>1615</ele>
        <time>2010-01-01T08:45:39Z</time>
      </trkpt>
      <trkpt lat="46.20386" lon="6.77448">
        <ele>1616</ele>
        <time>2010-01-01T08:45:46Z</time>
      </trkpt>
      <trkpt lat="46.20384" lon="6.77453">
        <ele>1616</ele>
        <time>2010-01-01T08:45:48Z</time>
      </trkpt>
      <trkpt lat="46.20371" lon="6.77472">
        <ele>1617</ele>
        <time>2010-01-01T08:45:55Z</time>
      </trkpt>
      <trkpt lat="46.20363" lon="6.77488">
        <ele>1618</ele>
        <time>2010-01-01T08:46:01Z</time>
      </trkpt>
      <trkpt lat="46.20361" lon="6.77492">
        <ele>1618</ele>
        <time>2010-01-01T08:46:02Z</time>
      </trkpt>
      <trkpt lat="46.2036" lon="6.77505">
        <ele>1612</ele>
        <time>2010-01-01T08:46:05Z</time>
      </trkpt>
      <trkpt lat="46.2036" lon="6.77505">
        <ele>1612</ele>
        <time>2010-01-01T08:46:06Z</time>
      </trkpt>
      <trkpt lat="46.2036" lon="6.77511">
        <ele>1611</ele>
        <time>2010-01-01T08:46:07Z</time>
      </trkpt>
      <trkpt lat="46.20362" lon="6.77523">
        <ele>1609</ele>
        <time>2010-01-01T08:46:11Z</time>
      </trkpt>
      <trkpt lat="46.20363" lon="6.77546">
        <ele>1607</ele>
        <time>2010-01-01T08:46:17Z</time>
      </trkpt>
      <trkpt lat="46.20357" lon="6.77573">
        <ele>1609</ele>
        <time>2010-01-01T08:46:25Z</time>
      </trkpt>
      <trkpt lat="46.20358" lon="6.77592">
        <ele>1607</ele>
        <time>2010-01-01T08:46:30Z</time>
      </trkpt>
      <trkpt lat="46.20362" lon="6.77605">
        <ele>1605</ele>
        <time>2010-01-01T08:46:34Z</time>
      </trkpt>
      <trkpt lat="46.20366" lon="6.77621">
        <ele>1603</ele>
        <time>2010-01-01T08:46:39Z</time>
      </trkpt>
      <trkpt lat="46.20367" lon="6.77622">
        <ele>1603</ele>
        <time>2010-01-01T08:46:39Z</time>
      </trkpt>
      <trkpt lat="46.20372" lon="6.77638">
        <ele>1602</ele>
        <time>2010-01-01T08:46:44Z</time>
      </trkpt>
      <trkpt lat="46.20391" lon="6.77667">
        <ele>1598</ele>
        <time>2010-01-01T08:46:55Z</time>
      </trkpt>
      <trkpt lat="46.20388" lon="6.77687">
        <ele>1597</ele>
        <time>2010-01-01T08:47:01Z</time>
      </trkpt>
      <trkpt lat="46.20379" lon="6.77698">
        <ele>1599</ele>
        <time>2010-01-01T08:47:06Z</time>
      </trkpt>
      <trkpt lat="46.20374" lon="6.77711">
        <ele>1599</ele>
        <time>2010-01-01T08:47:10Z</time>
      </trkpt>
      <trkpt lat="46.20372" lon="6.77714">
        <ele>1599</ele>
        <time>2010-01-01T08:47:11Z</time>
      </trkpt>
      <trkpt lat="46.20359" lon="6.77736">
        <ele>1601</ele>
        <time>2010-01-01T08:47:19Z</time>
      </trkpt>
      <trkpt lat="46.20351" lon="6.77748">
        <ele>1603</ele>
        <time>2010-01-01T08:47:23Z</time>
      </trkpt>
      <trkpt lat="46.20338" lon="6.77776">
        <ele>1601</ele>
        <time>2010-01-01T08:47:33Z</time>
      </trkpt>
      <trkpt lat="46.20333" lon="6.77801">
        <ele>1600</ele>
        <time>2010-01-01T08:47:40Z</time>
      </trkpt>
      <trkpt lat="46.20333" lon="6.77817">
        <ele>1602</ele>
        <time>2010-01-01T08:47:45Z</time>
      </trkpt>
      <trkpt lat="46.20333" lon="6.77818">
        <ele>1615</ele>
        <time>2010-01-01T08:47:45Z</time>
      </trkpt>
      <trkpt lat="46.20338" lon="6.77839">
        <ele>1605</ele>
        <time>2010-01-01T08:47:51Z</time>
      </trkpt>
      <trkpt lat="46.20338" lon="6.7784">
        <ele>1604</ele>
        <time>2010-01-01T08:47:51Z</time>
      </trkpt>
      <trkpt lat="46.20342" lon="6.77856">
        <ele>1601</ele>
        <time>2010-01-01T08:47:56Z</time>
      </trkpt>
      <trkpt lat="46.20342" lon="6.77857">
        <ele>1600</ele>
        <time>2010-01-01T08:47:56Z</time>
      </trkpt>
      <trkpt lat="46.20344" lon="6.77871">
        <ele>1599</ele>
        <time>2010-01-01T08:48:00Z</time>
      </trkpt>
      <trkpt lat="46.20345" lon="6.77874">
        <ele>1599</ele>
        <time>2010-01-01T08:48:01Z</time>
      </trkpt>
      <trkpt lat="46.20345" lon="6.77878">
        <ele>1599</ele>
        <time>2010-01-01T08:48:02Z</time>
      </trkpt>
      <trkpt lat="46.20346" lon="6.779">
        <ele>1601</ele>
        <time>2010-01-01T08:48:08Z</time>
      </trkpt>
      <trkpt lat="46.20346" lon="6.77904">
        <ele>1602</ele>
        <time>2010-01-01T08:48:09Z</time>
      </trkpt>
      <trkpt lat="46.20342" lon="6.77914">
        <ele>1604</ele>
        <time>2010-01-01T08:48:12Z</time>
      </trkpt>
      <trkpt lat="46.20341" lon="6.77917">
        <ele>1605</ele>
        <time>2010-01-01T08:48:13Z</time>
      </trkpt>
      <trkpt lat="46.2034" lon="6.77919">
        <ele>1605</ele>
        <time>2010-01-01T08:48:14Z</time>
      </trkpt>
      <trkpt lat="46.20333" lon="6.77928">
        <ele>1609</ele>
        <time>2010-01-01T08:48:18Z</time>
      </trkpt>
      <trkpt lat="46.20332" lon="6.77928">
        <ele>1609</ele>
        <time>2010-01-01T08:48:18Z</time>
      </trkpt>
      <trkpt lat="46.2033" lon="6.77929">
        <ele>1609</ele>
        <time>2010-01-01T08:48:19Z</time>
      </trkpt>
      <trkpt lat="46.20328" lon="6.7793">
        <ele>1609</ele>
        <time>2010-01-01T08:48:20Z</time>
      </trkpt>
      <trkpt lat="46.20324" lon="6.77932">
        <ele>1609</ele>
        <time>2010-01-01T08:48:22Z</time>
      </trkpt>
      <trkpt lat="46.20323" lon="6.77933">
        <ele>1609</ele>
        <time>2010-01-01T08:48:22Z</time>
      </trkpt>
      <trkpt lat="46.20321" lon="6.77936">
        <ele>1609</ele>
        <time>2010-01-01T08:48:23Z</time>
      </trkpt>
      <trkpt lat="46.20319" lon="6.7794">
        <ele>1609</ele>
        <time>2010-01-01T08:48:25Z</time>
      </trkpt>
      <trkpt lat="46.20318" lon="6.77941">
        <ele>1609</ele>
        <time>2010-01-01T08:48:25Z</time>
      </trkpt>
      <trkpt lat="46.20303" lon="6.77949">
        <ele>1610</ele>
        <time>2010-01-01T08:48:32Z</time>
      </trkpt>
      <trkpt lat="46.20298" lon="6.77958">
        <ele>1610</ele>
        <time>2010-01-01T08:48:35Z</time>
      </trkpt>
      <trkpt lat="46.20298" lon="6.7796">
        <ele>1610</ele>
        <time>2010-01-01T08:48:35Z</time>
      </trkpt>
      <trkpt lat="46.20294" lon="6.77974">
        <ele>1609</ele>
        <time>2010-01-01T08:48:39Z</time>
      </trkpt>
      <trkpt lat="46.20293" lon="6.77977">
        <ele>1609</ele>
        <time>2010-01-01T08:48:40Z</time>
      </trkpt>
      <trkpt lat="46.20288" lon="6.77995">
        <ele>1608</ele>
        <time>2010-01-01T08:48:46Z</time>
      </trkpt>
      <trkpt lat="46.20289" lon="6.78011">
        <ele>1601</ele>
        <time>2010-01-01T08:48:50Z</time>
      </trkpt>
      <trkpt lat="46.20285" lon="6.78036">
        <ele>1600</ele>
        <time>2010-01-01T08:48:58Z</time>
      </trkpt>
      <trkpt lat="46.20269" lon="6.78048">
        <ele>1600</ele>
        <time>2010-01-01T08:49:04Z</time>
      </trkpt>
      <trkpt lat="46.20264" lon="6.78055">
        <ele>1600</ele>
        <time>2010-01-01T08:49:07Z</time>
      </trkpt>
      <trkpt lat="46.20247" lon="6.78075">
        <ele>1604</ele>
        <time>2010-01-01T08:49:16Z</time>
      </trkpt>
      <trkpt lat="46.20236" lon="6.7809">
        <ele>1603</ele>
        <time>2010-01-01T08:49:22Z</time>
      </trkpt>
      <trkpt lat="46.20232" lon="6.781">
        <ele>1605</ele>
        <time>2010-01-01T08:49:25Z</time>
      </trkpt>
      <trkpt lat="46.20228" lon="6.78115">
        <ele>1606</ele>
        <time>2010-01-01T08:49:30Z</time>
      </trkpt>
      <trkpt lat="46.20227" lon="6.78124">
        <ele>1606</ele>
        <time>2010-01-01T08:49:32Z</time>
      </trkpt>
      <trkpt lat="46.20226" lon="6.78125">
        <ele>1606</ele>
        <time>2010-01-01T08:49:33Z</time>
      </trkpt>
      <trkpt lat="46.20219" lon="6.78148">
        <ele>1605</ele>
        <time>2010-01-01T08:49:40Z</time>
      </trkpt>
      <trkpt lat="46.20216" lon="6.78154">
        <ele>1605</ele>
        <time>2010-01-01T08:49:42Z</time>
      </trkpt>
      <trkpt lat="46.20205" lon="6.78184">
        <ele>1600</ele>
        <time>2010-01-01T08:49:51Z</time>
      </trkpt>
      <trkpt lat="46.20204" lon="6.78189">
        <ele>1600</ele>
        <time>2010-01-01T08:49:53Z</time>
      </trkpt>
      <trkpt lat="46.20203" lon="6.78191">
        <ele>1600</ele>
        <time>2010-01-01T08:49:53Z</time>
      </trkpt>
      <trkpt lat="46.20202" lon="6.78192">
        <ele>1600</ele>
        <time>2010-01-01T08:49:54Z</time>
      </trkpt>
      <trkpt lat="46.20145" lon="6.78273">
        <ele>1608</ele>
        <time>2010-01-01T08:50:26Z</time>
      </trkpt>
      <trkpt lat="46.20131" lon="6.7828">
        <ele>1610</ele>
        <time>2010-01-01T08:50:32Z</time>
      </trkpt>
      <trkpt lat="46.20121" lon="6.78291">
        <ele>1610</ele>
        <time>2010-01-01T08:50:37Z</time>
      </trkpt>
      <trkpt lat="46.20116" lon="6.78309">
        <ele>1609</ele>
        <time>2010-01-01T08:50:42Z</time>
      </trkpt>
      <trkpt lat="46.20112" lon="6.78319">
        <ele>1609</ele>
        <time>2010-01-01T08:50:45Z</time>
      </trkpt>
      <trkpt lat="46.20111" lon="6.78334">
        <ele>1598</ele>
        <time>2010-01-01T08:50:49Z</time>
      </trkpt>
      <trkpt lat="46.20108" lon="6.78341">
        <ele>1599</ele>
        <time>2010-01-01T08:50:52Z</time>
      </trkpt>
      <trkpt lat="46.20091" lon="6.78372">
        <ele>1597</ele>
        <time>2010-01-01T08:51:03Z</time>
      </trkpt>
      <trkpt lat="46.20082" lon="6.78396">
        <ele>1610</ele>
        <time>2010-01-01T08:51:10Z</time>
      </trkpt>
      <trkpt lat="46.20078" lon="6.78417">
        <ele>1601</ele>
        <time>2010-01-01T08:51:16Z</time>
      </trkpt>
      <trkpt lat="46.20068" lon="6.78441">
        <ele>1604</ele>
        <time>2010-01-01T08:51:24Z</time>
      </trkpt>
      <trkpt lat="46.20064" lon="6.78463">
        <ele>1603</ele>
        <time>2010-01-01T08:51:30Z</time>
      </trkpt>
      <trkpt lat="46.20056" lon="6.78478">
        <ele>1603</ele>
        <time>2010-01-01T08:51:35Z</time>
      </trkpt>
      <trkpt lat="46.20049" lon="6.78505">
        <ele>1595</ele>
        <time>2010-01-01T08:51:43Z</time>
      </trkpt>
      <trkpt lat="46.20044" lon="6.78513">
        <ele>1595</ele>
        <time>2010-01-01T08:51:47Z</time>
      </trkpt>
      <trkpt lat="46.2004" lon="6.78524">
        <ele>1595</ele>
        <time>2010-01-01T08:51:50Z</time>
      </trkpt>
      <trkpt lat="46.20038" lon="6.78536">
        <ele>1595</ele>
        <time>2010-01-01T08:51:53Z</time>
      </trkpt>
      <trkpt lat="46.20034" lon="6.78552">
        <ele>1594</ele>
        <time>2010-01-01T08:51:58Z</time>
      </trkpt>
      <trkpt lat="46.2003" lon="6.78561">
        <ele>1594</ele>
        <time>2010-01-01T08:52:01Z</time>
      </trkpt>
      <trkpt lat="46.20027" lon="6.7857">
        <ele>1593</ele>
        <time>2010-01-01T08:52:04Z</time>
      </trkpt>
      <trkpt lat="46.20024" lon="6.78578">
        <ele>1593</ele>
        <time>2010-01-01T08:52:06Z</time>
      </trkpt>
      <trkpt lat="46.2002" lon="6.78584">
        <ele>1590</ele>
        <time>2010-01-01T08:52:08Z</time>
      </trkpt>
      <trkpt lat="46.20017" lon="6.78588">
        <ele>1590</ele>
        <time>2010-01-01T08:52:10Z</time>
      </trkpt>
      <trkpt lat="46.20013" lon="6.78589">
        <ele>1591</ele>
        <time>2010-01-01T08:52:12Z</time>
      </trkpt>
      <trkpt lat="46.20005" lon="6.78591">
        <ele>1592</ele>
        <time>2010-01-01T08:52:15Z</time>
      </trkpt>
      <trkpt lat="46.19992" lon="6.78582">
        <ele>1598</ele>
        <time>2010-01-01T08:52:21Z</time>
      </trkpt>
      <trkpt lat="46.19984" lon="6.78579">
        <ele>1600</ele>
        <time>2010-01-01T08:52:24Z</time>
      </trkpt>
      <trkpt lat="46.19954" lon="6.78582">
        <ele>1603</ele>
        <time>2010-01-01T08:52:36Z</time>
      </trkpt>
      <trkpt lat="46.19943" lon="6.78582">
        <ele>1602</ele>
        <time>2010-01-01T08:52:41Z</time>
      </trkpt>
      <trkpt lat="46.19931" lon="6.78586">
        <ele>1596</ele>
        <time>2010-01-01T08:52:45Z</time>
      </trkpt>
      <trkpt lat="46.19921" lon="6.78586">
        <ele>1597</ele>
        <time>2010-01-01T08:52:49Z</time>
      </trkpt>
      <trkpt lat="46.19908" lon="6.78596">
        <ele>1598</ele>
        <time>2010-01-01T08:52:55Z</time>
      </trkpt>
      <trkpt lat="46.19905" lon="6.78609">
        <ele>1597</ele>
        <time>2010-01-01T08:52:59Z</time>
      </trkpt>
      <trkpt lat="46.19897" lon="6.78634">
        <ele>1595</ele>
        <time>2010-01-01T08:53:06Z</time>
      </trkpt>
      <trkpt lat="46.19894" lon="6.78651">
        <ele>1593</ele>
        <time>2010-01-01T08:53:11Z</time>
      </trkpt>
      <trkpt lat="46.19891" lon="6.78664">
        <ele>1592</ele>
        <time>2010-01-01T08:53:15Z</time>
      </trkpt>
      <trkpt lat="46.19887" lon="6.78673">
        <ele>1588</ele>
        <time>2010-01-01T08:53:18Z</time>
      </trkpt>
      <trkpt lat="46.19885" lon="6.78686">
        <ele>1588</ele>
        <time>2010-01-01T08:53:22Z</time>
      </trkpt>
      <trkpt lat="46.19876" lon="6.787">
        <ele>1589</ele>
        <time>2010-01-01T08:53:27Z</time>
      </trkpt>
      <trkpt lat="46.19876" lon="6.78702">
        <ele>1589</ele>
        <time>2010-01-01T08:53:28Z</time>
      </trkpt>
      <trkpt lat="46.19879" lon="6.78735">
        <ele>1588</ele>
        <time>2010-01-01T08:53:37Z</time>
      </trkpt>
      <trkpt lat="46.19882" lon="6.78755">
        <ele>1589</ele>
        <time>2010-01-01T08:53:43Z</time>
      </trkpt>
      <trkpt lat="46.19901" lon="6.7876">
        <ele>1588</ele>
        <time>2010-01-01T08:53:50Z</time>
      </trkpt>
      <trkpt lat="46.19919" lon="6.78761">
        <ele>1588</ele>
        <time>2010-01-01T08:53:58Z</time>
      </trkpt>
      <trkpt lat="46.1992" lon="6.78761">
        <ele>1588</ele>
        <time>2010-01-01T08:53:58Z</time>
      </trkpt>
      <trkpt lat="46.19937" lon="6.78765">
        <ele>1591</ele>
        <time>2010-01-01T08:54:05Z</time>
      </trkpt>
      <trkpt lat="46.19952" lon="6.78759">
        <ele>1592</ele>
        <time>2010-01-01T08:54:11Z</time>
      </trkpt>
      <trkpt lat="46.19963" lon="6.78756">
        <ele>1593</ele>
        <time>2010-01-01T08:54:15Z</time>
      </trkpt>
      <trkpt lat="46.19965" lon="6.78755">
        <ele>1593</ele>
        <time>2010-01-01T08:54:16Z</time>
      </trkpt>
      <trkpt lat="46.19986" lon="6.7875">
        <ele>1590</ele>
        <time>2010-01-01T08:54:25Z</time>
      </trkpt>
      <trkpt lat="46.19997" lon="6.78739">
        <ele>1591</ele>
        <time>2010-01-01T08:54:30Z</time>
      </trkpt>
      <trkpt lat="46.19999" lon="6.78736">
        <ele>1590</ele>
        <time>2010-01-01T08:54:32Z</time>
      </trkpt>
      <trkpt lat="46.20013" lon="6.78724">
        <ele>1591</ele>
        <time>2010-01-01T08:54:38Z</time>
      </trkpt>
      <trkpt lat="46.20015" lon="6.78723">
        <ele>1591</ele>
        <time>2010-01-01T08:54:39Z</time>
      </trkpt>
      <trkpt lat="46.20056" lon="6.7872">
        <ele>1591</ele>
        <time>2010-01-01T08:54:55Z</time>
      </trkpt>
      <trkpt lat="46.20076" lon="6.78723">
        <ele>1592</ele>
        <time>2010-01-01T08:55:03Z</time>
      </trkpt>
      <trkpt lat="46.20103" lon="6.78723">
        <ele>1592</ele>
        <time>2010-01-01T08:55:14Z</time>
      </trkpt>
      <trkpt lat="46.20107" lon="6.78727">
        <ele>1592</ele>
        <time>2010-01-01T08:55:16Z</time>
      </trkpt>
      <trkpt lat="46.2012" lon="6.78735">
        <ele>1591</ele>
        <time>2010-01-01T08:55:22Z</time>
      </trkpt>
      <trkpt lat="46.20134" lon="6.78739">
        <ele>1591</ele>
        <time>2010-01-01T08:55:27Z</time>
      </trkpt>
      <trkpt lat="46.20135" lon="6.78739">
        <ele>1591</ele>
        <time>2010-01-01T08:55:28Z</time>
      </trkpt>
      <trkpt lat="46.2015" lon="6.78733">
        <ele>1590</ele>
        <time>2010-01-01T08:55:34Z</time>
      </trkpt>
      <trkpt lat="46.20166" lon="6.78736">
        <ele>1591</ele>
        <time>2010-01-01T08:55:40Z</time>
      </trkpt>
      <trkpt lat="46.20177" lon="6.78735">
        <ele>1588</ele>
        <time>2010-01-01T08:55:45Z</time>
      </trkpt>
      <trkpt lat="46.20205" lon="6.78744">
        <ele>1586</ele>
        <time>2010-01-01T08:55:56Z</time>
      </trkpt>
      <trkpt lat="46.20228" lon="6.78742">
        <ele>1585</ele>
        <time>2010-01-01T08:56:05Z</time>
      </trkpt>
      <trkpt lat="46.20249" lon="6.78733">
        <ele>1585</ele>
        <time>2010-01-01T08:56:14Z</time>
      </trkpt>
      <trkpt lat="46.20265" lon="6.78715">
        <ele>1582</ele>
        <time>2010-01-01T08:56:22Z</time>
      </trkpt>
      <trkpt lat="46.20325" lon="6.78663">
        <ele>1575</ele>
        <time>2010-01-01T08:56:50Z</time>
      </trkpt>
      <trkpt lat="46.20356" lon="6.78636">
        <ele>1579</ele>
        <time>2010-01-01T08:57:05Z</time>
      </trkpt>
      <trkpt lat="46.20379" lon="6.78602">
        <ele>1579</ele>
        <time>2010-01-01T08:57:18Z</time>
      </trkpt>
      <trkpt lat="46.20396" lon="6.7857">
        <ele>1571</ele>
        <time>2010-01-01T08:57:29Z</time>
      </trkpt>
      <trkpt lat="46.2045" lon="6.7853">
        <ele>1579</ele>
        <time>2010-01-01T08:57:53Z</time>
      </trkpt>
      <trkpt lat="46.20466" lon="6.785">
        <ele>1578</ele>
        <time>2010-01-01T08:58:04Z</time>
      </trkpt>
      <trkpt lat="46.20486" lon="6.78477">
        <ele>1568</ele>
        <time>2010-01-01T08:58:14Z</time>
      </trkpt>
      <trkpt lat="46.20515" lon="6.78445">
        <ele>1575</ele>
        <time>2010-01-01T08:58:29Z</time>
      </trkpt>
      <trkpt lat="46.20535" lon="6.78407">
        <ele>1564</ele>
        <time>2010-01-01T08:58:42Z</time>
      </trkpt>
      <trkpt lat="46.20533" lon="6.78383">
        <ele>1563</ele>
        <time>2010-01-01T08:58:49Z</time>
      </trkpt>
      <trkpt lat="46.20534" lon="6.78367">
        <ele>1562</ele>
        <time>2010-01-01T08:58:53Z</time>
      </trkpt>
      <trkpt lat="46.20536" lon="6.78348">
        <ele>1561</ele>
        <time>2010-01-01T08:58:59Z</time>
      </trkpt>
      <trkpt lat="46.2054" lon="6.78329">
        <ele>1555</ele>
        <time>2010-01-01T08:59:04Z</time>
      </trkpt>
      <trkpt lat="46.20549" lon="6.78307">
        <ele>1555</ele>
        <time>2010-01-01T08:59:11Z</time>
      </trkpt>
      <trkpt lat="46.20551" lon="6.78304">
        <ele>1555</ele>
        <time>2010-01-01T08:59:12Z</time>
      </trkpt>
      <trkpt lat="46.20565" lon="6.78276">
        <ele>1553</ele>
        <time>2010-01-01T08:59:22Z</time>
      </trkpt>
      <trkpt lat="46.20568" lon="6.78271">
        <ele>1553</ele>
        <time>2010-01-01T08:59:24Z</time>
      </trkpt>
      <trkpt lat="46.206" lon="6.78219">
        <ele>1547</ele>
        <time>2010-01-01T08:59:43Z</time>
      </trkpt>
      <trkpt lat="46.20601" lon="6.78219">
        <ele>1547</ele>
        <time>2010-01-01T08:59:43Z</time>
      </trkpt>
      <trkpt lat="46.20652" lon="6.78133">
        <ele>1535</ele>
        <time>2010-01-01T09:00:15Z</time>
      </trkpt>
      <trkpt lat="46.20678" lon="6.78096">
        <ele>1533</ele>
        <time>2010-01-01T09:00:29Z</time>
      </trkpt>
      <trkpt lat="46.20703" lon="6.78049">
        <ele>1527</ele>
        <time>2010-01-01T09:00:45Z</time>
      </trkpt>
      <trkpt lat="46.2072" lon="6.78016">
        <ele>1526</ele>
        <time>2010-01-01T09:00:57Z</time>
      </trkpt>
      <trkpt lat="46.20731" lon="6.77989">
        <ele>1520</ele>
        <time>2010-01-01T09:01:06Z</time>
      </trkpt>
      <trkpt lat="46.20736" lon="6.77966">
        <ele>1518</ele>
        <time>2010-01-01T09:01:12Z</time>
      </trkpt>
      <trkpt lat="46.20746" lon="6.77937">
        <ele>1516</ele>
        <time>2010-01-01T09:01:21Z</time>
      </trkpt>
      <trkpt lat="46.20701" lon="6.77803">
        <ele>1502</ele>
        <time>2010-01-01T09:02:03Z</time>
      </trkpt>
      <trkpt lat="46.20754" lon="6.77942">
        <ele>1523</ele>
        <time>2010-01-01T09:02:47Z</time>
      </trkpt>
      <trkpt lat="46.20825" lon="6.78131">
        <ele>1558</ele>
        <time>2010-01-01T09:03:46Z</time>
      </trkpt>
      <trkpt lat="46.20891" lon="6.78305">
        <ele>1619</ele>
        <time>2010-01-01T09:04:41Z</time>
      </trkpt>
      <trkpt lat="46.20926" lon="6.78411">
        <ele>1675</ele>
        <time>2010-01-01T09:05:14Z</time>
      </trkpt>
      <trkpt lat="46.20951" lon="6.78431">
        <ele>1699</ele>
        <time>2010-01-01T09:05:25Z</time>
      </trkpt>
      <trkpt lat="46.21016" lon="6.78604">
        <ele>1778</ele>
        <time>2010-01-01T09:06:20Z</time>
      </trkpt>
      <trkpt lat="46.2104" lon="6.78683">
        <ele>1803</ele>
        <time>2010-01-01T09:06:43Z</time>
      </trkpt>
      <trkpt lat="46.21103" lon="6.78849">
        <ele>1855</ele>
        <time>2010-01-01T09:07:36Z</time>
      </trkpt>
      <trkpt lat="46.2117" lon="6.79029">
        <ele>1905</ele>
        <time>2010-01-01T09:08:32Z</time>
      </trkpt>
      <trkpt lat="46.21175" lon="6.7903">
        <ele>1905</ele>
        <time>2010-01-01T09:08:35Z</time>
      </trkpt>
      <trkpt lat="46.21181" lon="6.79038">
        <ele>1906</ele>
        <time>2010-01-01T09:08:38Z</time>
      </trkpt>
      <trkpt lat="46.21195" lon="6.79032">
        <ele>1905</ele>
        <time>2010-01-01T09:08:44Z</time>
      </trkpt>
      <trkpt lat="46.21213" lon="6.79024">
        <ele>1904</ele>
        <time>2010-01-01T09:08:51Z</time>
      </trkpt>
      <trkpt lat="46.2122" lon="6.79021">
        <ele>1904</ele>
        <time>2010-01-01T09:08:54Z</time>
      </trkpt>
      <trkpt lat="46.21255" lon="6.78992">
        <ele>1901</ele>
        <time>2010-01-01T09:09:10Z</time>
      </trkpt>
      <trkpt lat="46.21257" lon="6.7899">
        <ele>1900</ele>
        <time>2010-01-01T09:09:11Z</time>
      </trkpt>
      <trkpt lat="46.2126" lon="6.78979">
        <ele>1897</ele>
        <time>2010-01-01T09:09:15Z</time>
      </trkpt>
      <trkpt lat="46.21277" lon="6.78947">
        <ele>1894</ele>
        <time>2010-01-01T09:09:26Z</time>
      </trkpt>
      <trkpt lat="46.21293" lon="6.78917">
        <ele>1893</ele>
        <time>2010-01-01T09:09:36Z</time>
      </trkpt>
      <trkpt lat="46.21293" lon="6.78917">
        <ele>1895</ele>
        <time>2010-01-01T09:09:36Z</time>
      </trkpt>
      <trkpt lat="46.213" lon="6.78891">
        <ele>1895</ele>
        <time>2010-01-01T09:09:44Z</time>
      </trkpt>
      <trkpt lat="46.213" lon="6.78891">
        <ele>1895</ele>
        <time>2010-01-01T09:09:44Z</time>
      </trkpt>
      <trkpt lat="46.21316" lon="6.78859">
        <ele>1896</ele>
        <time>2010-01-01T09:09:55Z</time>
      </trkpt>
      <trkpt lat="46.21325" lon="6.78846">
        <ele>1898</ele>
        <time>2010-01-01T09:10:00Z</time>
      </trkpt>
      <trkpt lat="46.21326" lon="6.78845">
        <ele>1898</ele>
        <time>2010-01-01T09:10:00Z</time>
      </trkpt>
      <trkpt lat="46.21346" lon="6.78817">
        <ele>1894</ele>
        <time>2010-01-01T09:10:12Z</time>
      </trkpt>
      <trkpt lat="46.21368" lon="6.78782">
        <ele>1889</ele>
        <time>2010-01-01T09:10:25Z</time>
      </trkpt>
      <trkpt lat="46.21375" lon="6.78756">
        <ele>1889</ele>
        <time>2010-01-01T09:10:33Z</time>
      </trkpt>
      <trkpt lat="46.21386" lon="6.78735">
        <ele>1889</ele>
        <time>2010-01-01T09:10:40Z</time>
      </trkpt>
      <trkpt lat="46.21397" lon="6.78706">
        <ele>1889</ele>
        <time>2010-01-01T09:10:49Z</time>
      </trkpt>
      <trkpt lat="46.21413" lon="6.78682">
        <ele>1891</ele>
        <time>2010-01-01T09:10:58Z</time>
      </trkpt>
      <trkpt lat="46.21443" lon="6.78653">
        <ele>1884</ele>
        <time>2010-01-01T09:11:12Z</time>
      </trkpt>
      <trkpt lat="46.2146" lon="6.78629">
        <ele>1882</ele>
        <time>2010-01-01T09:11:22Z</time>
      </trkpt>
      <trkpt lat="46.21489" lon="6.78593">
        <ele>1884</ele>
        <time>2010-01-01T09:11:37Z</time>
      </trkpt>
      <trkpt lat="46.21508" lon="6.7858">
        <ele>1884</ele>
        <time>2010-01-01T09:11:46Z</time>
      </trkpt>
      <trkpt lat="46.21527" lon="6.78574">
        <ele>1880</ele>
        <time>2010-01-01T09:11:54Z</time>
      </trkpt>
      <trkpt lat="46.21549" lon="6.78553">
        <ele>1877</ele>
        <time>2010-01-01T09:12:04Z</time>
      </trkpt>
      <trkpt lat="46.21558" lon="6.78538">
        <ele>1878</ele>
        <time>2010-01-01T09:12:10Z</time>
      </trkpt>
      <trkpt lat="46.21567" lon="6.78524">
        <ele>1881</ele>
        <time>2010-01-01T09:12:15Z</time>
      </trkpt>
      <trkpt lat="46.21572" lon="6.78509">
        <ele>1883</ele>
        <time>2010-01-01T09:12:19Z</time>
      </trkpt>
      <trkpt lat="46.21577" lon="6.78494">
        <ele>1886</ele>
        <time>2010-01-01T09:12:24Z</time>
      </trkpt>
      <trkpt lat="46.21587" lon="6.7847">
        <ele>1883</ele>
        <time>2010-01-01T09:12:32Z</time>
      </trkpt>
      <trkpt lat="46.21596" lon="6.78455">
        <ele>1883</ele>
        <time>2010-01-01T09:12:38Z</time>
      </trkpt>
      <trkpt lat="46.21597" lon="6.78454">
        <ele>1883</ele>
        <time>2010-01-01T09:12:38Z</time>
      </trkpt>
      <trkpt lat="46.21604" lon="6.78444">
        <ele>1883</ele>
        <time>2010-01-01T09:12:42Z</time>
      </trkpt>
      <trkpt lat="46.21617" lon="6.78416">
        <ele>1891</ele>
        <time>2010-01-01T09:12:51Z</time>
      </trkpt>
      <trkpt lat="46.21618" lon="6.78415">
        <ele>1891</ele>
        <time>2010-01-01T09:12:52Z</time>
      </trkpt>
      <trkpt lat="46.21618" lon="6.78414">
        <ele>1891</ele>
        <time>2010-01-01T09:12:52Z</time>
      </trkpt>
      <trkpt lat="46.21621" lon="6.78401">
        <ele>1892</ele>
        <time>2010-01-01T09:12:56Z</time>
      </trkpt>
      <trkpt lat="46.21621" lon="6.78399">
        <ele>1892</ele>
        <time>2010-01-01T09:12:56Z</time>
      </trkpt>
      <trkpt lat="46.21629" lon="6.78365">
        <ele>1893</ele>
        <time>2010-01-01T09:13:06Z</time>
      </trkpt>
      <trkpt lat="46.21636" lon="6.78319">
        <ele>1896</ele>
        <time>2010-01-01T09:13:19Z</time>
      </trkpt>
      <trkpt lat="46.21637" lon="6.78254">
        <ele>1897</ele>
        <time>2010-01-01T09:13:37Z</time>
      </trkpt>
      <trkpt lat="46.21637" lon="6.78228">
        <ele>1894</ele>
        <time>2010-01-01T09:13:44Z</time>
      </trkpt>
      <trkpt lat="46.21638" lon="6.78202">
        <ele>1893</ele>
        <time>2010-01-01T09:13:52Z</time>
      </trkpt>
      <trkpt lat="46.21638" lon="6.78169">
        <ele>1894</ele>
        <time>2010-01-01T09:14:01Z</time>
      </trkpt>
      <trkpt lat="46.21638" lon="6.78147">
        <ele>1888</ele>
        <time>2010-01-01T09:14:07Z</time>
      </trkpt>
      <trkpt lat="46.21644" lon="6.78129">
        <ele>1887</ele>
        <time>2010-01-01T09:14:12Z</time>
      </trkpt>
      <trkpt lat="46.21658" lon="6.78084">
        <ele>1893</ele>
        <time>2010-01-01T09:14:26Z</time>
      </trkpt>
      <trkpt lat="46.21673" lon="6.78049">
        <ele>1896</ele>
        <time>2010-01-01T09:14:38Z</time>
      </trkpt>
      <trkpt lat="46.21695" lon="6.78013">
        <ele>1893</ele>
        <time>2010-01-01T09:14:51Z</time>
      </trkpt>
      <trkpt lat="46.21705" lon="6.78">
        <ele>1879</ele>
        <time>2010-01-01T09:14:56Z</time>
      </trkpt>
      <trkpt lat="46.21723" lon="6.77983">
        <ele>1883</ele>
        <time>2010-01-01T09:15:05Z</time>
      </trkpt>
      <trkpt lat="46.21756" lon="6.77948">
        <ele>1892</ele>
        <time>2010-01-01T09:15:21Z</time>
      </trkpt>
      <trkpt lat="46.21798" lon="6.77907">
        <ele>1875</ele>
        <time>2010-01-01T09:15:41Z</time>
      </trkpt>
      <trkpt lat="46.21829" lon="6.77878">
        <ele>1874</ele>
        <time>2010-01-01T09:15:56Z</time>
      </trkpt>
      <trkpt lat="46.21848" lon="6.77861">
        <ele>1875</ele>
        <time>2010-01-01T09:16:05Z</time>
      </trkpt>
      <trkpt lat="46.21863" lon="6.77841">
        <ele>1873</ele>
        <time>2010-01-01T09:16:13Z</time>
      </trkpt>
      <trkpt lat="46.21864" lon="6.77841">
        <ele>1873</ele>
        <time>2010-01-01T09:16:14Z</time>
      </trkpt>
      <trkpt lat="46.21879" lon="6.7783">
        <ele>1862</ele>
        <time>2010-01-01T09:16:21Z</time>
      </trkpt>
      <trkpt lat="46.21882" lon="6.77827">
        <ele>1862</ele>
        <time>2010-01-01T09:16:22Z</time>
      </trkpt>
      <trkpt lat="46.21889" lon="6.77824">
        <ele>1862</ele>
        <time>2010-01-01T09:16:25Z</time>
      </trkpt>
      <trkpt lat="46.21898" lon="6.77816">
        <ele>1862</ele>
        <time>2010-01-01T09:16:29Z</time>
      </trkpt>
      <trkpt lat="46.21912" lon="6.77799">
        <ele>1862</ele>
        <time>2010-01-01T09:16:36Z</time>
      </trkpt>
      <trkpt lat="46.21917" lon="6.77792">
        <ele>1853</ele>
        <time>2010-01-01T09:16:39Z</time>
      </trkpt>
      <trkpt lat="46.2192" lon="6.77796">
        <ele>1853</ele>
        <time>2010-01-01T09:16:41Z</time>
      </trkpt>
      <trkpt lat="46.21915" lon="6.77809">
        <ele>1862</ele>
        <time>2010-01-01T09:16:45Z</time>
      </trkpt>
      <trkpt lat="46.21915" lon="6.77819">
        <ele>1863</ele>
        <time>2010-01-01T09:16:47Z</time>
      </trkpt>
      <trkpt lat="46.21917" lon="6.77828">
        <ele>1861</ele>
        <time>2010-01-01T09:16:50Z</time>
      </trkpt>
      <trkpt lat="46.21918" lon="6.77836">
        <ele>1863</ele>
        <time>2010-01-01T09:16:52Z</time>
      </trkpt>
      <trkpt lat="46.21921" lon="6.77848">
        <ele>1859</ele>
        <time>2010-01-01T09:16:56Z</time>
      </trkpt>
      <trkpt lat="46.21923" lon="6.77857">
        <ele>1858</ele>
        <time>2010-01-01T09:16:59Z</time>
      </trkpt>
      <trkpt lat="46.21925" lon="6.77865">
        <ele>1857</ele>
        <time>2010-01-01T09:17:01Z</time>
      </trkpt>
      <trkpt lat="46.21927" lon="6.77876">
        <ele>1858</ele>
        <time>2010-01-01T09:17:04Z</time>
      </trkpt>
      <trkpt lat="46.21929" lon="6.77881">
        <ele>1858</ele>
        <time>2010-01-01T09:17:06Z</time>
      </trkpt>
      <trkpt lat="46.21932" lon="6.77887">
        <ele>1859</ele>
        <time>2010-01-01T09:17:08Z</time>
      </trkpt>
      <trkpt lat="46.21934" lon="6.77891">
        <ele>1859</ele>
        <time>2010-01-01T09:17:09Z</time>
      </trkpt>
      <trkpt lat="46.21938" lon="6.77894">
        <ele>1859</ele>
        <time>2010-01-01T09:17:11Z</time>
      </trkpt>
      <trkpt lat="46.21937" lon="6.77889">
        <ele>1858</ele>
        <time>2010-01-01T09:17:12Z</time>
      </trkpt>
      <trkpt lat="46.21937" lon="6.7788">
        <ele>1857</ele>
        <time>2010-01-01T09:17:15Z</time>
      </trkpt>
      <trkpt lat="46.21934" lon="6.7787">
        <ele>1856</ele>
        <time>2010-01-01T09:17:18Z</time>
      </trkpt>
      <trkpt lat="46.21936" lon="6.77865">
        <ele>1855</ele>
        <time>2010-01-01T09:17:19Z</time>
      </trkpt>
      <trkpt lat="46.21938" lon="6.77865">
        <ele>1855</ele>
        <time>2010-01-01T09:17:20Z</time>
      </trkpt>
      <trkpt lat="46.21946" lon="6.77881">
        <ele>1854</ele>
        <time>2010-01-01T09:17:25Z</time>
      </trkpt>
      <trkpt lat="46.21953" lon="6.7789">
        <ele>1853</ele>
        <time>2010-01-01T09:17:29Z</time>
      </trkpt>
      <trkpt lat="46.21964" lon="6.77907">
        <ele>1850</ele>
        <time>2010-01-01T09:17:36Z</time>
      </trkpt>
      <trkpt lat="46.21968" lon="6.77916">
        <ele>1849</ele>
        <time>2010-01-01T09:17:39Z</time>
      </trkpt>
      <trkpt lat="46.21972" lon="6.77926">
        <ele>1852</ele>
        <time>2010-01-01T09:17:42Z</time>
      </trkpt>
      <trkpt lat="46.21972" lon="6.77927">
        <ele>1852</ele>
        <time>2010-01-01T09:17:42Z</time>
      </trkpt>
      <trkpt lat="46.21978" lon="6.77946">
        <ele>1852</ele>
        <time>2010-01-01T09:17:48Z</time>
      </trkpt>
      <trkpt lat="46.21986" lon="6.77973">
        <ele>1851</ele>
        <time>2010-01-01T09:17:56Z</time>
      </trkpt>
      <trkpt lat="46.21988" lon="6.77979">
        <ele>1849</ele>
        <time>2010-01-01T09:17:58Z</time>
      </trkpt>
      <trkpt lat="46.21991" lon="6.77986">
        <ele>1846</ele>
        <time>2010-01-01T09:18:00Z</time>
      </trkpt>
      <trkpt lat="46.21994" lon="6.77984">
        <ele>1846</ele>
        <time>2010-01-01T09:18:02Z</time>
      </trkpt>
      <trkpt lat="46.21993" lon="6.77975">
        <ele>1849</ele>
        <time>2010-01-01T09:18:04Z</time>
      </trkpt>
      <trkpt lat="46.21992" lon="6.77962">
        <ele>1850</ele>
        <time>2010-01-01T09:18:08Z</time>
      </trkpt>
      <trkpt lat="46.21994" lon="6.77944">
        <ele>1848</ele>
        <time>2010-01-01T09:18:13Z</time>
      </trkpt>
      <trkpt lat="46.21991" lon="6.77929">
        <ele>1844</ele>
        <time>2010-01-01T09:18:17Z</time>
      </trkpt>
      <trkpt lat="46.21987" lon="6.77911">
        <ele>1841</ele>
        <time>2010-01-01T09:18:23Z</time>
      </trkpt>
      <trkpt lat="46.21981" lon="6.77892">
        <ele>1845</ele>
        <time>2010-01-01T09:18:28Z</time>
      </trkpt>
      <trkpt lat="46.2198" lon="6.7788">
        <ele>1845</ele>
        <time>2010-01-01T09:18:32Z</time>
      </trkpt>
      <trkpt lat="46.21982" lon="6.77873">
        <ele>1844</ele>
        <time>2010-01-01T09:18:34Z</time>
      </trkpt>
      <trkpt lat="46.21987" lon="6.77882">
        <ele>1844</ele>
        <time>2010-01-01T09:18:37Z</time>
      </trkpt>
      <trkpt lat="46.21993" lon="6.7789">
        <ele>1843</ele>
        <time>2010-01-01T09:18:40Z</time>
      </trkpt>
      <trkpt lat="46.21997" lon="6.77891">
        <ele>1842</ele>
        <time>2010-01-01T09:18:42Z</time>
      </trkpt>
      <trkpt lat="46.22" lon="6.77888">
        <ele>1842</ele>
        <time>2010-01-01T09:18:43Z</time>
      </trkpt>
      <trkpt lat="46.22002" lon="6.77883">
        <ele>1817</ele>
        <time>2010-01-01T09:18:45Z</time>
      </trkpt>
      <trkpt lat="46.21996" lon="6.77867">
        <ele>1841</ele>
        <time>2010-01-01T09:18:50Z</time>
      </trkpt>
      <trkpt lat="46.21995" lon="6.77865">
        <ele>1841</ele>
        <time>2010-01-01T09:18:50Z</time>
      </trkpt>
      <trkpt lat="46.21989" lon="6.77854">
        <ele>1839</ele>
        <time>2010-01-01T09:18:54Z</time>
      </trkpt>
      <trkpt lat="46.21988" lon="6.77842">
        <ele>1836</ele>
        <time>2010-01-01T09:18:57Z</time>
      </trkpt>
      <trkpt lat="46.21991" lon="6.7784">
        <ele>1833</ele>
        <time>2010-01-01T09:18:59Z</time>
      </trkpt>
      <trkpt lat="46.22" lon="6.77851">
        <ele>1836</ele>
        <time>2010-01-01T09:19:03Z</time>
      </trkpt>
      <trkpt lat="46.22006" lon="6.77856">
        <ele>1816</ele>
        <time>2010-01-01T09:19:06Z</time>
      </trkpt>
      <trkpt lat="46.22013" lon="6.77863">
        <ele>1814</ele>
        <time>2010-01-01T09:19:09Z</time>
      </trkpt>
      <trkpt lat="46.22017" lon="6.77862">
        <ele>1814</ele>
        <time>2010-01-01T09:19:11Z</time>
      </trkpt>
      <trkpt lat="46.22023" lon="6.77873">
        <ele>1813</ele>
        <time>2010-01-01T09:19:15Z</time>
      </trkpt>
      <trkpt lat="46.22029" lon="6.77895">
        <ele>1813</ele>
        <time>2010-01-01T09:19:22Z</time>
      </trkpt>
      <trkpt lat="46.22035" lon="6.7791">
        <ele>1812</ele>
        <time>2010-01-01T09:19:26Z</time>
      </trkpt>
      <trkpt lat="46.22054" lon="6.77932">
        <ele>1807</ele>
        <time>2010-01-01T09:19:36Z</time>
      </trkpt>
      <trkpt lat="46.22059" lon="6.77944">
        <ele>1806</ele>
        <time>2010-01-01T09:19:40Z</time>
      </trkpt>
      <trkpt lat="46.22061" lon="6.77954">
        <ele>1806</ele>
        <time>2010-01-01T09:19:43Z</time>
      </trkpt>
      <trkpt lat="46.22061" lon="6.77966">
        <ele>1805</ele>
        <time>2010-01-01T09:19:46Z</time>
      </trkpt>
      <trkpt lat="46.22057" lon="6.77977">
        <ele>1805</ele>
        <time>2010-01-01T09:19:49Z</time>
      </trkpt>
      <trkpt lat="46.2205" lon="6.77985">
        <ele>1807</ele>
        <time>2010-01-01T09:19:53Z</time>
      </trkpt>
      <trkpt lat="46.22042" lon="6.77994">
        <ele>1810</ele>
        <time>2010-01-01T09:19:57Z</time>
      </trkpt>
      <trkpt lat="46.22032" lon="6.77999">
        <ele>1814</ele>
        <time>2010-01-01T09:20:02Z</time>
      </trkpt>
      <trkpt lat="46.22026" lon="6.78017">
        <ele>1812</ele>
        <time>2010-01-01T09:20:07Z</time>
      </trkpt>
      <trkpt lat="46.22023" lon="6.78031">
        <ele>1811</ele>
        <time>2010-01-01T09:20:11Z</time>
      </trkpt>
      <trkpt lat="46.22019" lon="6.78044">
        <ele>1810</ele>
        <time>2010-01-01T09:20:15Z</time>
      </trkpt>
      <trkpt lat="46.22019" lon="6.7805">
        <ele>1810</ele>
        <time>2010-01-01T09:20:17Z</time>
      </trkpt>
      <trkpt lat="46.22018" lon="6.78059">
        <ele>1811</ele>
        <time>2010-01-01T09:20:19Z</time>
      </trkpt>
      <trkpt lat="46.22018" lon="6.78083">
        <ele>1813</ele>
        <time>2010-01-01T09:20:26Z</time>
      </trkpt>
      <trkpt lat="46.2202" lon="6.78096">
        <ele>1808</ele>
        <time>2010-01-01T09:20:29Z</time>
      </trkpt>
      <trkpt lat="46.22024" lon="6.78113">
        <ele>1804</ele>
        <time>2010-01-01T09:20:34Z</time>
      </trkpt>
      <trkpt lat="46.22037" lon="6.7816">
        <ele>1799</ele>
        <time>2010-01-01T09:20:48Z</time>
      </trkpt>
      <trkpt lat="46.2204" lon="6.78173">
        <ele>1796</ele>
        <time>2010-01-01T09:20:52Z</time>
      </trkpt>
      <trkpt lat="46.2204" lon="6.78182">
        <ele>1795</ele>
        <time>2010-01-01T09:20:55Z</time>
      </trkpt>
      <trkpt lat="46.2204" lon="6.78201">
        <ele>1795</ele>
        <time>2010-01-01T09:21:00Z</time>
      </trkpt>
      <trkpt lat="46.22033" lon="6.78255">
        <ele>1791</ele>
        <time>2010-01-01T09:21:15Z</time>
      </trkpt>
      <trkpt lat="46.22031" lon="6.78273">
        <ele>1790</ele>
        <time>2010-01-01T09:21:20Z</time>
      </trkpt>
      <trkpt lat="46.22027" lon="6.78292">
        <ele>1787</ele>
        <time>2010-01-01T09:21:26Z</time>
      </trkpt>
      <trkpt lat="46.22018" lon="6.78308">
        <ele>1787</ele>
        <time>2010-01-01T09:21:31Z</time>
      </trkpt>
      <trkpt lat="46.22006" lon="6.78321">
        <ele>1789</ele>
        <time>2010-01-01T09:21:37Z</time>
      </trkpt>
      <trkpt lat="46.21992" lon="6.78331">
        <ele>1800</ele>
        <time>2010-01-01T09:21:44Z</time>
      </trkpt>
      <trkpt lat="46.21982" lon="6.78333">
        <ele>1794</ele>
        <time>2010-01-01T09:21:48Z</time>
      </trkpt>
      <trkpt lat="46.2197" lon="6.78346">
        <ele>1795</ele>
        <time>2010-01-01T09:21:54Z</time>
      </trkpt>
      <trkpt lat="46.21964" lon="6.7836">
        <ele>1795</ele>
        <time>2010-01-01T09:21:58Z</time>
      </trkpt>
      <trkpt lat="46.21964" lon="6.78361">
        <ele>1795</ele>
        <time>2010-01-01T09:21:59Z</time>
      </trkpt>
      <trkpt lat="46.21958" lon="6.78374">
        <ele>1794</ele>
        <time>2010-01-01T09:22:03Z</time>
      </trkpt>
      <trkpt lat="46.2195" lon="6.78387">
        <ele>1793</ele>
        <time>2010-01-01T09:22:08Z</time>
      </trkpt>
      <trkpt lat="46.21949" lon="6.78395">
        <ele>1792</ele>
        <time>2010-01-01T09:22:10Z</time>
      </trkpt>
      <trkpt lat="46.21949" lon="6.78399">
        <ele>1792</ele>
        <time>2010-01-01T09:22:11Z</time>
      </trkpt>
      <trkpt lat="46.21951" lon="6.784">
        <ele>1791</ele>
        <time>2010-01-01T09:22:12Z</time>
      </trkpt>
      <trkpt lat="46.21956" lon="6.78397">
        <ele>1791</ele>
        <time>2010-01-01T09:22:14Z</time>
      </trkpt>
      <trkpt lat="46.21965" lon="6.78391">
        <ele>1790</ele>
        <time>2010-01-01T09:22:18Z</time>
      </trkpt>
      <trkpt lat="46.21977" lon="6.78386">
        <ele>1789</ele>
        <time>2010-01-01T09:22:23Z</time>
      </trkpt>
      <trkpt lat="46.21984" lon="6.78385">
        <ele>1787</ele>
        <time>2010-01-01T09:22:26Z</time>
      </trkpt>
      <trkpt lat="46.21989" lon="6.78379">
        <ele>1788</ele>
        <time>2010-01-01T09:22:29Z</time>
      </trkpt>
      <trkpt lat="46.21994" lon="6.78368">
        <ele>1790</ele>
        <time>2010-01-01T09:22:32Z</time>
      </trkpt>
      <trkpt lat="46.22004" lon="6.78366">
        <ele>1770</ele>
        <time>2010-01-01T09:22:36Z</time>
      </trkpt>
      <trkpt lat="46.2202" lon="6.78362">
        <ele>1769</ele>
        <time>2010-01-01T09:22:43Z</time>
      </trkpt>
      <trkpt lat="46.22028" lon="6.78362">
        <ele>1767</ele>
        <time>2010-01-01T09:22:46Z</time>
      </trkpt>
      <trkpt lat="46.22041" lon="6.78347">
        <ele>1765</ele>
        <time>2010-01-01T09:22:53Z</time>
      </trkpt>
      <trkpt lat="46.22046" lon="6.78329">
        <ele>1780</ele>
        <time>2010-01-01T09:22:58Z</time>
      </trkpt>
      <trkpt lat="46.22049" lon="6.78341">
        <ele>1764</ele>
        <time>2010-01-01T09:23:02Z</time>
      </trkpt>
      <trkpt lat="46.22051" lon="6.78353">
        <ele>1762</ele>
        <time>2010-01-01T09:23:05Z</time>
      </trkpt>
      <trkpt lat="46.22054" lon="6.78356">
        <ele>1761</ele>
        <time>2010-01-01T09:23:06Z</time>
      </trkpt>
      <trkpt lat="46.22056" lon="6.78351">
        <ele>1761</ele>
        <time>2010-01-01T09:23:08Z</time>
      </trkpt>
      <trkpt lat="46.22057" lon="6.78341">
        <ele>1762</ele>
        <time>2010-01-01T09:23:11Z</time>
      </trkpt>
      <trkpt lat="46.22062" lon="6.78326">
        <ele>1774</ele>
        <time>2010-01-01T09:23:15Z</time>
      </trkpt>
      <trkpt lat="46.22065" lon="6.78315">
        <ele>1775</ele>
        <time>2010-01-01T09:23:19Z</time>
      </trkpt>
      <trkpt lat="46.2207" lon="6.78316">
        <ele>1773</ele>
        <time>2010-01-01T09:23:20Z</time>
      </trkpt>
      <trkpt lat="46.22067" lon="6.78327">
        <ele>1771</ele>
        <time>2010-01-01T09:23:23Z</time>
      </trkpt>
      <trkpt lat="46.22067" lon="6.78351">
        <ele>1760</ele>
        <time>2010-01-01T09:23:30Z</time>
      </trkpt>
      <trkpt lat="46.22063" lon="6.78368">
        <ele>1758</ele>
        <time>2010-01-01T09:23:35Z</time>
      </trkpt>
      <trkpt lat="46.22055" lon="6.78385">
        <ele>1756</ele>
        <time>2010-01-01T09:23:41Z</time>
      </trkpt>
      <trkpt lat="46.22048" lon="6.78397">
        <ele>1756</ele>
        <time>2010-01-01T09:23:45Z</time>
      </trkpt>
      <trkpt lat="46.22039" lon="6.78413">
        <ele>1757</ele>
        <time>2010-01-01T09:23:51Z</time>
      </trkpt>
      <trkpt lat="46.2203" lon="6.78427">
        <ele>1741</ele>
        <time>2010-01-01T09:23:56Z</time>
      </trkpt>
      <trkpt lat="46.22023" lon="6.78443">
        <ele>1740</ele>
        <time>2010-01-01T09:24:02Z</time>
      </trkpt>
      <trkpt lat="46.22022" lon="6.78455">
        <ele>1737</ele>
        <time>2010-01-01T09:24:05Z</time>
      </trkpt>
      <trkpt lat="46.22016" lon="6.78481">
        <ele>1733</ele>
        <time>2010-01-01T09:24:13Z</time>
      </trkpt>
      <trkpt lat="46.22005" lon="6.78494">
        <ele>1733</ele>
        <time>2010-01-01T09:24:18Z</time>
      </trkpt>
      <trkpt lat="46.21997" lon="6.78504">
        <ele>1733</ele>
        <time>2010-01-01T09:24:22Z</time>
      </trkpt>
      <trkpt lat="46.21986" lon="6.78508">
        <ele>1733</ele>
        <time>2010-01-01T09:24:27Z</time>
      </trkpt>
      <trkpt lat="46.2198" lon="6.78508">
        <ele>1733</ele>
        <time>2010-01-01T09:24:29Z</time>
      </trkpt>
      <trkpt lat="46.21976" lon="6.78509">
        <ele>1733</ele>
        <time>2010-01-01T09:24:31Z</time>
      </trkpt>
      <trkpt lat="46.21968" lon="6.78514">
        <ele>1733</ele>
        <time>2010-01-01T09:24:34Z</time>
      </trkpt>
      <trkpt lat="46.21963" lon="6.78522">
        <ele>1733</ele>
        <time>2010-01-01T09:24:37Z</time>
      </trkpt>
      <trkpt lat="46.21959" lon="6.78526">
        <ele>1733</ele>
        <time>2010-01-01T09:24:39Z</time>
      </trkpt>
      <trkpt lat="46.21948" lon="6.78531">
        <ele>1734</ele>
        <time>2010-01-01T09:24:44Z</time>
      </trkpt>
      <trkpt lat="46.21939" lon="6.78538">
        <ele>1733</ele>
        <time>2010-01-01T09:24:48Z</time>
      </trkpt>
      <trkpt lat="46.21913" lon="6.78543">
        <ele>1751</ele>
        <time>2010-01-01T09:24:58Z</time>
      </trkpt>
      <trkpt lat="46.21898" lon="6.78548">
        <ele>1752</ele>
        <time>2010-01-01T09:25:04Z</time>
      </trkpt>
      <trkpt lat="46.21881" lon="6.78561">
        <ele>1753</ele>
        <time>2010-01-01T09:25:12Z</time>
      </trkpt>
      <trkpt lat="46.21877" lon="6.78572">
        <ele>1752</ele>
        <time>2010-01-01T09:25:16Z</time>
      </trkpt>
      <trkpt lat="46.21873" lon="6.78581">
        <ele>1752</ele>
        <time>2010-01-01T09:25:19Z</time>
      </trkpt>
      <trkpt lat="46.21868" lon="6.78595">
        <ele>1733</ele>
        <time>2010-01-01T09:25:23Z</time>
      </trkpt>
      <trkpt lat="46.21854" lon="6.78605">
        <ele>1735</ele>
        <time>2010-01-01T09:25:29Z</time>
      </trkpt>
      <trkpt lat="46.21844" lon="6.78612">
        <ele>1735</ele>
        <time>2010-01-01T09:25:34Z</time>
      </trkpt>
      <trkpt lat="46.21837" lon="6.7862">
        <ele>1733</ele>
        <time>2010-01-01T09:25:37Z</time>
      </trkpt>
      <trkpt lat="46.21834" lon="6.78628">
        <ele>1731</ele>
        <time>2010-01-01T09:25:40Z</time>
      </trkpt>
      <trkpt lat="46.21839" lon="6.78642">
        <ele>1728</ele>
        <time>2010-01-01T09:25:44Z</time>
      </trkpt>
      <trkpt lat="46.21838" lon="6.78652">
        <ele>1726</ele>
        <time>2010-01-01T09:25:47Z</time>
      </trkpt>
      <trkpt lat="46.2183" lon="6.78664">
        <ele>1731</ele>
        <time>2010-01-01T09:25:51Z</time>
      </trkpt>
      <trkpt lat="46.21824" lon="6.78676">
        <ele>1727</ele>
        <time>2010-01-01T09:25:56Z</time>
      </trkpt>
      <trkpt lat="46.21817" lon="6.78685">
        <ele>1728</ele>
        <time>2010-01-01T09:25:59Z</time>
      </trkpt>
      <trkpt lat="46.21811" lon="6.787">
        <ele>1727</ele>
        <time>2010-01-01T09:26:04Z</time>
      </trkpt>
      <trkpt lat="46.21809" lon="6.78713">
        <ele>1726</ele>
        <time>2010-01-01T09:26:08Z</time>
      </trkpt>
      <trkpt lat="46.21802" lon="6.78719">
        <ele>1726</ele>
        <time>2010-01-01T09:26:11Z</time>
      </trkpt>
      <trkpt lat="46.21792" lon="6.78726">
        <ele>1727</ele>
        <time>2010-01-01T09:26:15Z</time>
      </trkpt>
      <trkpt lat="46.21786" lon="6.78731">
        <ele>1727</ele>
        <time>2010-01-01T09:26:18Z</time>
      </trkpt>
      <trkpt lat="46.21782" lon="6.78743">
        <ele>1727</ele>
        <time>2010-01-01T09:26:22Z</time>
      </trkpt>
      <trkpt lat="46.21778" lon="6.78762">
        <ele>1715</ele>
        <time>2010-01-01T09:26:27Z</time>
      </trkpt>
      <trkpt lat="46.21773" lon="6.78777">
        <ele>1713</ele>
        <time>2010-01-01T09:26:32Z</time>
      </trkpt>
      <trkpt lat="46.21764" lon="6.78785">
        <ele>1714</ele>
        <time>2010-01-01T09:26:36Z</time>
      </trkpt>
      <trkpt lat="46.21757" lon="6.78788">
        <ele>1714</ele>
        <time>2010-01-01T09:26:39Z</time>
      </trkpt>
      <trkpt lat="46.21747" lon="6.78793">
        <ele>1732</ele>
        <time>2010-01-01T09:26:43Z</time>
      </trkpt>
      <trkpt lat="46.21743" lon="6.78804">
        <ele>1730</ele>
        <time>2010-01-01T09:26:47Z</time>
      </trkpt>
      <trkpt lat="46.21744" lon="6.7881">
        <ele>1728</ele>
        <time>2010-01-01T09:26:48Z</time>
      </trkpt>
      <trkpt lat="46.21743" lon="6.78819">
        <ele>1725</ele>
        <time>2010-01-01T09:26:51Z</time>
      </trkpt>
      <trkpt lat="46.21742" lon="6.78829">
        <ele>1720</ele>
        <time>2010-01-01T09:26:54Z</time>
      </trkpt>
      <trkpt lat="46.21742" lon="6.78841">
        <ele>1717</ele>
        <time>2010-01-01T09:26:57Z</time>
      </trkpt>
      <trkpt lat="46.21741" lon="6.78853">
        <ele>1718</ele>
        <time>2010-01-01T09:27:00Z</time>
      </trkpt>
      <trkpt lat="46.21738" lon="6.78865">
        <ele>1719</ele>
        <time>2010-01-01T09:27:04Z</time>
      </trkpt>
      <trkpt lat="46.2173" lon="6.78872">
        <ele>1720</ele>
        <time>2010-01-01T09:27:08Z</time>
      </trkpt>
      <trkpt lat="46.2173" lon="6.78873">
        <ele>1720</ele>
        <time>2010-01-01T09:27:08Z</time>
      </trkpt>
      <trkpt lat="46.21725" lon="6.78878">
        <ele>1720</ele>
        <time>2010-01-01T09:27:10Z</time>
      </trkpt>
      <trkpt lat="46.21722" lon="6.78886">
        <ele>1720</ele>
        <time>2010-01-01T09:27:13Z</time>
      </trkpt>
      <trkpt lat="46.21719" lon="6.78914">
        <ele>1718</ele>
        <time>2010-01-01T09:27:21Z</time>
      </trkpt>
      <trkpt lat="46.21729" lon="6.78928">
        <ele>1710</ele>
        <time>2010-01-01T09:27:26Z</time>
      </trkpt>
      <trkpt lat="46.21737" lon="6.78936">
        <ele>1709</ele>
        <time>2010-01-01T09:27:30Z</time>
      </trkpt>
      <trkpt lat="46.21746" lon="6.78949">
        <ele>1708</ele>
        <time>2010-01-01T09:27:35Z</time>
      </trkpt>
      <trkpt lat="46.21755" lon="6.78962">
        <ele>1692</ele>
        <time>2010-01-01T09:27:40Z</time>
      </trkpt>
      <trkpt lat="46.21762" lon="6.78964">
        <ele>1692</ele>
        <time>2010-01-01T09:27:43Z</time>
      </trkpt>
      <trkpt lat="46.21769" lon="6.78973">
        <ele>1691</ele>
        <time>2010-01-01T09:27:47Z</time>
      </trkpt>
      <trkpt lat="46.21775" lon="6.78986">
        <ele>1690</ele>
        <time>2010-01-01T09:27:51Z</time>
      </trkpt>
      <trkpt lat="46.21777" lon="6.78998">
        <ele>1690</ele>
        <time>2010-01-01T09:27:55Z</time>
      </trkpt>
      <trkpt lat="46.21772" lon="6.79007">
        <ele>1687</ele>
        <time>2010-01-01T09:27:58Z</time>
      </trkpt>
      <trkpt lat="46.21768" lon="6.79013">
        <ele>1687</ele>
        <time>2010-01-01T09:28:00Z</time>
      </trkpt>
      <trkpt lat="46.21768" lon="6.79013">
        <ele>1687</ele>
        <time>2010-01-01T09:28:00Z</time>
      </trkpt>
      <trkpt lat="46.21764" lon="6.79017">
        <ele>1687</ele>
        <time>2010-01-01T09:28:02Z</time>
      </trkpt>
      <trkpt lat="46.21764" lon="6.79018">
        <ele>1687</ele>
        <time>2010-01-01T09:28:03Z</time>
      </trkpt>
      <trkpt lat="46.21761" lon="6.79025">
        <ele>1686</ele>
        <time>2010-01-01T09:28:05Z</time>
      </trkpt>
      <trkpt lat="46.21761" lon="6.79035">
        <ele>1685</ele>
        <time>2010-01-01T09:28:07Z</time>
      </trkpt>
      <trkpt lat="46.21756" lon="6.79052">
        <ele>1684</ele>
        <time>2010-01-01T09:28:13Z</time>
      </trkpt>
      <trkpt lat="46.21747" lon="6.79075">
        <ele>1691</ele>
        <time>2010-01-01T09:28:20Z</time>
      </trkpt>
      <trkpt lat="46.21729" lon="6.79076">
        <ele>1695</ele>
        <time>2010-01-01T09:28:27Z</time>
      </trkpt>
      <trkpt lat="46.21724" lon="6.7908">
        <ele>1696</ele>
        <time>2010-01-01T09:28:29Z</time>
      </trkpt>
      <trkpt lat="46.21708" lon="6.79124">
        <ele>1685</ele>
        <time>2010-01-01T09:28:43Z</time>
      </trkpt>
      <trkpt lat="46.21705" lon="6.79145">
        <ele>1683</ele>
        <time>2010-01-01T09:28:49Z</time>
      </trkpt>
      <trkpt lat="46.21689" lon="6.79179">
        <ele>1671</ele>
        <time>2010-01-01T09:29:00Z</time>
      </trkpt>
      <trkpt lat="46.21679" lon="6.79213">
        <ele>1666</ele>
        <time>2010-01-01T09:29:11Z</time>
      </trkpt>
      <trkpt lat="46.21677" lon="6.79216">
        <ele>1666</ele>
        <time>2010-01-01T09:29:12Z</time>
      </trkpt>
      <trkpt lat="46.21662" lon="6.79247">
        <ele>1670</ele>
        <time>2010-01-01T09:29:23Z</time>
      </trkpt>
      <trkpt lat="46.21656" lon="6.79273">
        <ele>1670</ele>
        <time>2010-01-01T09:29:30Z</time>
      </trkpt>
      <trkpt lat="46.21658" lon="6.79312">
        <ele>1665</ele>
        <time>2010-01-01T09:29:41Z</time>
      </trkpt>
      <trkpt lat="46.2167" lon="6.79323">
        <ele>1652</ele>
        <time>2010-01-01T09:29:47Z</time>
      </trkpt>
      <trkpt lat="46.21683" lon="6.79331">
        <ele>1652</ele>
        <time>2010-01-01T09:29:52Z</time>
      </trkpt>
      <trkpt lat="46.21695" lon="6.79337">
        <ele>1649</ele>
        <time>2010-01-01T09:29:58Z</time>
      </trkpt>
      <trkpt lat="46.21703" lon="6.79338">
        <ele>1649</ele>
        <time>2010-01-01T09:30:01Z</time>
      </trkpt>
      <trkpt lat="46.21712" lon="6.79327">
        <ele>1650</ele>
        <time>2010-01-01T09:30:05Z</time>
      </trkpt>
      <trkpt lat="46.21727" lon="6.79309">
        <ele>1649</ele>
        <time>2010-01-01T09:30:13Z</time>
      </trkpt>
      <trkpt lat="46.21744" lon="6.79304">
        <ele>1649</ele>
        <time>2010-01-01T09:30:20Z</time>
      </trkpt>
      <trkpt lat="46.21759" lon="6.79301">
        <ele>1643</ele>
        <time>2010-01-01T09:30:26Z</time>
      </trkpt>
      <trkpt lat="46.21782" lon="6.793">
        <ele>1642</ele>
        <time>2010-01-01T09:30:35Z</time>
      </trkpt>
      <trkpt lat="46.21795" lon="6.79338">
        <ele>1639</ele>
        <time>2010-01-01T09:30:47Z</time>
      </trkpt>
      <trkpt lat="46.21818" lon="6.79389">
        <ele>1637</ele>
        <time>2010-01-01T09:31:04Z</time>
      </trkpt>
      <trkpt lat="46.21825" lon="6.79444">
        <ele>1639</ele>
        <time>2010-01-01T09:31:19Z</time>
      </trkpt>
      <trkpt lat="46.21836" lon="6.79522">
        <ele>1634</ele>
        <time>2010-01-01T09:31:41Z</time>
      </trkpt>
      <trkpt lat="46.21845" lon="6.79569">
        <ele>1641</ele>
        <time>2010-01-01T09:31:55Z</time>
      </trkpt>
      <trkpt lat="46.2188" lon="6.79604">
        <ele>1653</ele>
        <time>2010-01-01T09:32:12Z</time>
      </trkpt>
      <trkpt lat="46.21925" lon="6.79637">
        <ele>1649</ele>
        <time>2010-01-01T09:32:32Z</time>
      </trkpt>
      <trkpt lat="46.21964" lon="6.79661">
        <ele>1650</ele>
        <time>2010-01-01T09:32:49Z</time>
      </trkpt>
      <trkpt lat="46.21997" lon="6.79668">
        <ele>1661</ele>
        <time>2010-01-01T09:33:02Z</time>
      </trkpt>
      <trkpt lat="46.22047" lon="6.79668">
        <ele>1672</ele>
        <time>2010-01-01T09:33:23Z</time>
      </trkpt>
      <trkpt lat="46.22093" lon="6.79675">
        <ele>1673</ele>
        <time>2010-01-01T09:33:41Z</time>
      </trkpt>
      <trkpt lat="46.22174" lon="6.79678">
        <ele>1685</ele>
        <time>2010-01-01T09:34:13Z</time>
      </trkpt>
      <trkpt lat="46.22218" lon="6.79676">
        <ele>1688</ele>
        <time>2010-01-01T09:34:31Z</time>
      </trkpt>
      <trkpt lat="46.22256" lon="6.79695">
        <ele>1688</ele>
        <time>2010-01-01T09:34:47Z</time>
      </trkpt>
      <trkpt lat="46.22288" lon="6.79703">
        <ele>1690</ele>
        <time>2010-01-01T09:35:00Z</time>
      </trkpt>
      <trkpt lat="46.22314" lon="6.79704">
        <ele>1688</ele>
        <time>2010-01-01T09:35:10Z</time>
      </trkpt>
      <trkpt lat="46.22354" lon="6.79722">
        <ele>1687</ele>
        <time>2010-01-01T09:35:28Z</time>
      </trkpt>
      <trkpt lat="46.22406" lon="6.7973">
        <ele>1690</ele>
        <time>2010-01-01T09:35:48Z</time>
      </trkpt>
      <trkpt lat="46.22419" lon="6.79732">
        <ele>1692</ele>
        <time>2010-01-01T09:35:54Z</time>
      </trkpt>
      <trkpt lat="46.22441" lon="6.79754">
        <ele>1707</ele>
        <time>2010-01-01T09:36:04Z</time>
      </trkpt>
      <trkpt lat="46.22466" lon="6.79749">
        <ele>1693</ele>
        <time>2010-01-01T09:36:14Z</time>
      </trkpt>
      <trkpt lat="46.22487" lon="6.79737">
        <ele>1695</ele>
        <time>2010-01-01T09:36:23Z</time>
      </trkpt>
      <trkpt lat="46.2251" lon="6.79751">
        <ele>1702</ele>
        <time>2010-01-01T09:36:33Z</time>
      </trkpt>
      <trkpt lat="46.22521" lon="6.79785">
        <ele>1702</ele>
        <time>2010-01-01T09:36:44Z</time>
      </trkpt>
      <trkpt lat="46.22544" lon="6.79808">
        <ele>1700</ele>
        <time>2010-01-01T09:36:55Z</time>
      </trkpt>
      <trkpt lat="46.22585" lon="6.79844">
        <ele>1691</ele>
        <time>2010-01-01T09:37:14Z</time>
      </trkpt>
      <trkpt lat="46.2263" lon="6.79871">
        <ele>1690</ele>
        <time>2010-01-01T09:37:33Z</time>
      </trkpt>
      <trkpt lat="46.22652" lon="6.7989">
        <ele>1690</ele>
        <time>2010-01-01T09:37:44Z</time>
      </trkpt>
      <trkpt lat="46.22669" lon="6.79883">
        <ele>1678</ele>
        <time>2010-01-01T09:37:51Z</time>
      </trkpt>
      <trkpt lat="46.22671" lon="6.79866">
        <ele>1676</ele>
        <time>2010-01-01T09:37:55Z</time>
      </trkpt>
      <trkpt lat="46.22674" lon="6.79843">
        <ele>1675</ele>
        <time>2010-01-01T09:38:02Z</time>
      </trkpt>
      <trkpt lat="46.22693" lon="6.79888">
        <ele>1676</ele>
        <time>2010-01-01T09:38:16Z</time>
      </trkpt>
      <trkpt lat="46.22718" lon="6.79898">
        <ele>1673</ele>
        <time>2010-01-01T09:38:27Z</time>
      </trkpt>
      <trkpt lat="46.22748" lon="6.79892">
        <ele>1670</ele>
        <time>2010-01-01T09:38:39Z</time>
      </trkpt>
      <trkpt lat="46.22797" lon="6.79877">
        <ele>1658</ele>
        <time>2010-01-01T09:38:59Z</time>
      </trkpt>
      <trkpt lat="46.22844" lon="6.79869">
        <ele>1651</ele>
        <time>2010-01-01T09:39:18Z</time>
      </trkpt>
      <trkpt lat="46.22906" lon="6.79888">
        <ele>1651</ele>
        <time>2010-01-01T09:39:43Z</time>
      </trkpt>
      <trkpt lat="46.22925" lon="6.79878">
        <ele>1654</ele>
        <time>2010-01-01T09:39:51Z</time>
      </trkpt>
      <trkpt lat="46.22971" lon="6.7985">
        <ele>1655</ele>
        <time>2010-01-01T09:40:11Z</time>
      </trkpt>
      <trkpt lat="46.23022" lon="6.79811">
        <ele>1650</ele>
        <time>2010-01-01T09:40:34Z</time>
      </trkpt>
      <trkpt lat="46.23089" lon="6.79821">
        <ele>1651</ele>
        <time>2010-01-01T09:41:01Z</time>
      </trkpt>
      <trkpt lat="46.23151" lon="6.79864">
        <ele>1653</ele>
        <time>2010-01-01T09:41:29Z</time>
      </trkpt>
      <trkpt lat="46.23196" lon="6.79903">
        <ele>1647</ele>
        <time>2010-01-01T09:41:50Z</time>
      </trkpt>
      <trkpt lat="46.23242" lon="6.79955">
        <ele>1649</ele>
        <time>2010-01-01T09:42:13Z</time>
      </trkpt>
      <trkpt lat="46.23267" lon="6.80005">
        <ele>1647</ele>
        <time>2010-01-01T09:42:30Z</time>
      </trkpt>
      <trkpt lat="46.23267" lon="6.80022">
        <ele>1647</ele>
        <time>2010-01-01T09:42:35Z</time>
      </trkpt>
      <trkpt lat="46.23279" lon="6.80049">
        <ele>1647</ele>
        <time>2010-01-01T09:42:44Z</time>
      </trkpt>
      <trkpt lat="46.23302" lon="6.80047">
        <ele>1646</ele>
        <time>2010-01-01T09:42:53Z</time>
      </trkpt>
      <trkpt lat="46.23316" lon="6.80048">
        <ele>1645</ele>
        <time>2010-01-01T09:42:59Z</time>
      </trkpt>
      <trkpt lat="46.23341" lon="6.80049">
        <ele>1641</ele>
        <time>2010-01-01T09:43:09Z</time>
      </trkpt>
      <trkpt lat="46.23345" lon="6.80064">
        <ele>1643</ele>
        <time>2010-01-01T09:43:14Z</time>
      </trkpt>
      <trkpt lat="46.23378" lon="6.80071">
        <ele>1642</ele>
        <time>2010-01-01T09:43:27Z</time>
      </trkpt>
      <trkpt lat="46.23407" lon="6.80073">
        <ele>1644</ele>
        <time>2010-01-01T09:43:38Z</time>
      </trkpt>
      <trkpt lat="46.23445" lon="6.80079">
        <ele>1641</ele>
        <time>2010-01-01T09:43:54Z</time>
      </trkpt>
      <trkpt lat="46.23474" lon="6.80094">
        <ele>1654</ele>
        <time>2010-01-01T09:44:06Z</time>
      </trkpt>
      <trkpt lat="46.23503" lon="6.80078">
        <ele>1642</ele>
        <time>2010-01-01T09:44:19Z</time>
      </trkpt>
      <trkpt lat="46.23532" lon="6.8006">
        <ele>1629</ele>
        <time>2010-01-01T09:44:31Z</time>
      </trkpt>
      <trkpt lat="46.23569" lon="6.80059">
        <ele>1626</ele>
        <time>2010-01-01T09:44:46Z</time>
      </trkpt>
      <trkpt lat="46.23601" lon="6.8007">
        <ele>1611</ele>
        <time>2010-01-01T09:44:59Z</time>
      </trkpt>
      <trkpt lat="46.23624" lon="6.80089">
        <ele>1623</ele>
        <time>2010-01-01T09:45:10Z</time>
      </trkpt>
      <trkpt lat="46.23635" lon="6.80137">
        <ele>1627</ele>
        <time>2010-01-01T09:45:24Z</time>
      </trkpt>
      <trkpt lat="46.23655" lon="6.8021">
        <ele>1652</ele>
        <time>2010-01-01T09:45:45Z</time>
      </trkpt>
      <trkpt lat="46.23671" lon="6.80278">
        <ele>1634</ele>
        <time>2010-01-01T09:46:05Z</time>
      </trkpt>
      <trkpt lat="46.23671" lon="6.80315">
        <ele>1642</ele>
        <time>2010-01-01T09:46:16Z</time>
      </trkpt>
      <trkpt lat="46.23677" lon="6.80368">
        <ele>1634</ele>
        <time>2010-01-01T09:46:30Z</time>
      </trkpt>
      <trkpt lat="46.23689" lon="6.80437">
        <ele>1624</ele>
        <time>2010-01-01T09:46:50Z</time>
      </trkpt>
      <trkpt lat="46.23693" lon="6.80481">
        <ele>1619</ele>
        <time>2010-01-01T09:47:03Z</time>
      </trkpt>
      <trkpt lat="46.23739" lon="6.80617">
        <ele>1606</ele>
        <time>2010-01-01T09:47:44Z</time>
      </trkpt>
      <trkpt lat="46.23779" lon="6.80668">
        <ele>1587</ele>
        <time>2010-01-01T09:48:06Z</time>
      </trkpt>
      <trkpt lat="46.23823" lon="6.80707">
        <ele>1583</ele>
        <time>2010-01-01T09:48:26Z</time>
      </trkpt>
      <trkpt lat="46.23866" lon="6.80726">
        <ele>1570</ele>
        <time>2010-01-01T09:48:45Z</time>
      </trkpt>
      <trkpt lat="46.23909" lon="6.80756">
        <ele>1572</ele>
        <time>2010-01-01T09:49:04Z</time>
      </trkpt>
      <trkpt lat="46.23951" lon="6.8079">
        <ele>1565</ele>
        <time>2010-01-01T09:49:23Z</time>
      </trkpt>
      <trkpt lat="46.23993" lon="6.8085">
        <ele>1577</ele>
        <time>2010-01-01T09:49:47Z</time>
      </trkpt>
      <trkpt lat="46.24019" lon="6.80883">
        <ele>1573</ele>
        <time>2010-01-01T09:50:00Z</time>
      </trkpt>
      <trkpt lat="46.2402" lon="6.80922">
        <ele>1586</ele>
        <time>2010-01-01T09:50:11Z</time>
      </trkpt>
      <trkpt lat="46.24073" lon="6.80955">
        <ele>1584</ele>
        <time>2010-01-01T09:50:34Z</time>
      </trkpt>
      <trkpt lat="46.24173" lon="6.81034">
        <ele>1582</ele>
        <time>2010-01-01T09:51:20Z</time>
      </trkpt>
      <trkpt lat="46.24406" lon="6.81213">
        <ele>1577</ele>
        <time>2010-01-01T09:53:05Z</time>
      </trkpt>
      <trkpt lat="46.24442" lon="6.81236">
        <ele>1543</ele>
        <time>2010-01-01T09:53:21Z</time>
      </trkpt>
      <trkpt lat="46.24491" lon="6.8126">
        <ele>1532</ele>
        <time>2010-01-01T09:53:42Z</time>
      </trkpt>
      <trkpt lat="46.2452" lon="6.81298">
        <ele>1504</ele>
        <time>2010-01-01T09:53:58Z</time>
      </trkpt>
      <trkpt lat="46.24544" lon="6.81325">
        <ele>1498</ele>
        <time>2010-01-01T09:54:10Z</time>
      </trkpt>
      <trkpt lat="46.24563" lon="6.81373">
        <ele>1504</ele>
        <time>2010-01-01T09:54:25Z</time>
      </trkpt>
      <trkpt lat="46.24551" lon="6.81453">
        <ele>1505</ele>
        <time>2010-01-01T09:54:48Z</time>
      </trkpt>
      <trkpt lat="46.24496" lon="6.81527">
        <ele>1528</ele>
        <time>2010-01-01T09:55:18Z</time>
      </trkpt>
      <trkpt lat="46.24465" lon="6.81588">
        <ele>1504</ele>
        <time>2010-01-01T09:55:39Z</time>
      </trkpt>
      <trkpt lat="46.24452" lon="6.81624">
        <ele>1504</ele>
        <time>2010-01-01T09:55:50Z</time>
      </trkpt>
      <trkpt lat="46.24442" lon="6.81684">
        <ele>1494</ele>
        <time>2010-01-01T09:56:07Z</time>
      </trkpt>
      <trkpt lat="46.24536" lon="6.81761">
        <ele>1481</ele>
        <time>2010-01-01T09:56:50Z</time>
      </trkpt>
      <trkpt lat="46.24595" lon="6.81788">
        <ele>1467</ele>
        <time>2010-01-01T09:57:15Z</time>
      </trkpt>
      <trkpt lat="46.24674" lon="6.81847">
        <ele>1443</ele>
        <time>2010-01-01T09:57:51Z</time>
      </trkpt>
      <trkpt lat="46.24771" lon="6.8205">
        <ele>1400</ele>
        <time>2010-01-01T09:58:59Z</time>
      </trkpt>
      <trkpt lat="46.24769" lon="6.82228">
        <ele>1394</ele>
        <time>2010-01-01T09:59:48Z</time>
      </trkpt>
      <trkpt lat="46.24753" lon="6.8231">
        <ele>1386</ele>
        <time>2010-01-01T10:00:12Z</time>
      </trkpt>
      <trkpt lat="46.2468" lon="6.82473">
        <ele>1388</ele>
        <time>2010-01-01T10:01:05Z</time>
      </trkpt>
      <trkpt lat="46.24774" lon="6.82582">
        <ele>1383</ele>
        <time>2010-01-01T10:01:53Z</time>
      </trkpt>
      <trkpt lat="46.24894" lon="6.82598">
        <ele>1380</ele>
        <time>2010-01-01T10:02:42Z</time>
      </trkpt>
      <trkpt lat="46.24977" lon="6.82609">
        <ele>1360</ele>
        <time>2010-01-01T10:03:15Z</time>
      </trkpt>
      <trkpt lat="46.2505" lon="6.82693">
        <ele>1346</ele>
        <time>2010-01-01T10:03:52Z</time>
      </trkpt>
      <trkpt lat="46.2512" lon="6.82774">
        <ele>1326</ele>
        <time>2010-01-01T10:04:28Z</time>
      </trkpt>
      <trkpt lat="46.25153" lon="6.82858">
        <ele>1329</ele>
        <time>2010-01-01T10:04:55Z</time>
      </trkpt>
      <trkpt lat="46.25185" lon="6.82962">
        <ele>1299</ele>
        <time>2010-01-01T10:05:27Z</time>
      </trkpt>
      <trkpt lat="46.25222" lon="6.8312">
        <ele>1304</ele>
        <time>2010-01-01T10:06:13Z</time>
      </trkpt>
      <trkpt lat="46.25248" lon="6.83153">
        <ele>1297</ele>
        <time>2010-01-01T10:06:27Z</time>
      </trkpt>
      <trkpt lat="46.25243" lon="6.83173">
        <ele>1299</ele>
        <time>2010-01-01T10:06:27Z</time>
      </trkpt>
      <trkpt lat="46.25247" lon="6.83157">
        <ele>1296</ele>
        <time>2010-01-01T10:06:31Z</time>
      </trkpt>
      <trkpt lat="46.25254" lon="6.83193">
        <ele>1283</ele>
        <time>2010-01-01T10:06:41Z</time>
      </trkpt>
      <trkpt lat="46.2527" lon="6.83211">
        <ele>1282</ele>
        <time>2010-01-01T10:06:49Z</time>
      </trkpt>
      <trkpt lat="46.25286" lon="6.83238">
        <ele>1281</ele>
        <time>2010-01-01T10:06:59Z</time>
      </trkpt>
      <trkpt lat="46.25305" lon="6.83242">
        <ele>1275</ele>
        <time>2010-01-01T10:07:07Z</time>
      </trkpt>
      <trkpt lat="46.25318" lon="6.83241">
        <ele>1271</ele>
        <time>2010-01-01T10:07:12Z</time>
      </trkpt>
      <trkpt lat="46.25338" lon="6.83299">
        <ele>1263</ele>
        <time>2010-01-01T10:07:30Z</time>
      </trkpt>
      <trkpt lat="46.25344" lon="6.83324">
        <ele>1269</ele>
        <time>2010-01-01T10:07:38Z</time>
      </trkpt>
      <trkpt lat="46.25369" lon="6.8337">
        <ele>1273</ele>
        <time>2010-01-01T10:07:54Z</time>
      </trkpt>
      <trkpt lat="46.25388" lon="6.83399">
        <ele>1271</ele>
        <time>2010-01-01T10:08:05Z</time>
      </trkpt>
      <trkpt lat="46.25409" lon="6.83433">
        <ele>1275</ele>
        <time>2010-01-01T10:08:17Z</time>
      </trkpt>
      <trkpt lat="46.2543" lon="6.83478">
        <ele>1261</ele>
        <time>2010-01-01T10:08:32Z</time>
      </trkpt>
      <trkpt lat="46.25432" lon="6.83483">
        <ele>1261</ele>
        <time>2010-01-01T10:08:34Z</time>
      </trkpt>
      <trkpt lat="46.25443" lon="6.83501">
        <ele>1265</ele>
        <time>2010-01-01T10:08:41Z</time>
      </trkpt>
      <trkpt lat="46.25459" lon="6.8354">
        <ele>1262</ele>
        <time>2010-01-01T10:08:53Z</time>
      </trkpt>
      <trkpt lat="46.25477" lon="6.83586">
        <ele>1265</ele>
        <time>2010-01-01T10:09:08Z</time>
      </trkpt>
      <trkpt lat="46.25509" lon="6.83655">
        <ele>1254</ele>
        <time>2010-01-01T10:09:31Z</time>
      </trkpt>
      <trkpt lat="46.25531" lon="6.837">
        <ele>1261</ele>
        <time>2010-01-01T10:09:46Z</time>
      </trkpt>
      <trkpt lat="46.25547" lon="6.83731">
        <ele>1262</ele>
        <time>2010-01-01T10:09:57Z</time>
      </trkpt>
      <trkpt lat="46.25564" lon="6.83753">
        <ele>1268</ele>
        <time>2010-01-01T10:10:06Z</time>
      </trkpt>
      <trkpt lat="46.25592" lon="6.83797">
        <ele>1253</ele>
        <time>2010-01-01T10:10:22Z</time>
      </trkpt>
      <trkpt lat="46.25592" lon="6.83789">
        <ele>1252</ele>
        <time>2010-01-01T10:10:25Z</time>
      </trkpt>
      <trkpt lat="46.25613" lon="6.83823">
        <ele>1253</ele>
        <time>2010-01-01T10:10:37Z</time>
      </trkpt>
      <trkpt lat="46.25632" lon="6.83869">
        <ele>1257</ele>
        <time>2010-01-01T10:10:52Z</time>
      </trkpt>
      <trkpt lat="46.25642" lon="6.83894">
        <ele>1256</ele>
        <time>2010-01-01T10:11:00Z</time>
      </trkpt>
      <trkpt lat="46.25656" lon="6.83926">
        <ele>1253</ele>
        <time>2010-01-01T10:11:11Z</time>
      </trkpt>
      <trkpt lat="46.25669" lon="6.8394">
        <ele>1245</ele>
        <time>2010-01-01T10:11:17Z</time>
      </trkpt>
      <trkpt lat="46.25684" lon="6.83953">
        <ele>1244</ele>
        <time>2010-01-01T10:11:24Z</time>
      </trkpt>
      <trkpt lat="46.25714" lon="6.83991">
        <ele>1244</ele>
        <time>2010-01-01T10:11:40Z</time>
      </trkpt>
      <trkpt lat="46.25732" lon="6.84017">
        <ele>1246</ele>
        <time>2010-01-01T10:11:51Z</time>
      </trkpt>
      <trkpt lat="46.25743" lon="6.8404">
        <ele>1246</ele>
        <time>2010-01-01T10:11:58Z</time>
      </trkpt>
      <trkpt lat="46.25752" lon="6.84044">
        <ele>1241</ele>
        <time>2010-01-01T10:12:02Z</time>
      </trkpt>
      <trkpt lat="46.25762" lon="6.84066">
        <ele>1242</ele>
        <time>2010-01-01T10:12:09Z</time>
      </trkpt>
      <trkpt lat="46.25771" lon="6.84043">
        <ele>1241</ele>
        <time>2010-01-01T10:12:17Z</time>
      </trkpt>
      <trkpt lat="46.25793" lon="6.84043">
        <ele>1240</ele>
        <time>2010-01-01T10:12:25Z</time>
      </trkpt>
      <trkpt lat="46.25823" lon="6.84054">
        <ele>1240</ele>
        <time>2010-01-01T10:12:38Z</time>
      </trkpt>
      <trkpt lat="46.25885" lon="6.84072">
        <ele>1237</ele>
        <time>2010-01-01T10:13:03Z</time>
      </trkpt>
      <trkpt lat="46.25932" lon="6.84082">
        <ele>1235</ele>
        <time>2010-01-01T10:13:22Z</time>
      </trkpt>
      <trkpt lat="46.25959" lon="6.84086">
        <ele>1240</ele>
        <time>2010-01-01T10:13:33Z</time>
      </trkpt>
      <trkpt lat="46.25995" lon="6.84088">
        <ele>1237</ele>
        <time>2010-01-01T10:13:47Z</time>
      </trkpt>
      <trkpt lat="46.26019" lon="6.84083">
        <ele>1230</ele>
        <time>2010-01-01T10:13:57Z</time>
      </trkpt>
      <trkpt lat="46.26055" lon="6.84077">
        <ele>1226</ele>
        <time>2010-01-01T10:14:12Z</time>
      </trkpt>
      <trkpt lat="46.26089" lon="6.84072">
        <ele>1224</ele>
        <time>2010-01-01T10:14:25Z</time>
      </trkpt>
      <trkpt lat="46.26116" lon="6.84071">
        <ele>1220</ele>
        <time>2010-01-01T10:14:36Z</time>
      </trkpt>
      <trkpt lat="46.26151" lon="6.84073">
        <ele>1219</ele>
        <time>2010-01-01T10:14:50Z</time>
      </trkpt>
      <trkpt lat="46.26181" lon="6.84081">
        <ele>1217</ele>
        <time>2010-01-01T10:15:02Z</time>
      </trkpt>
      <trkpt lat="46.26202" lon="6.84084">
        <ele>1223</ele>
        <time>2010-01-01T10:15:11Z</time>
      </trkpt>
      <trkpt lat="46.26222" lon="6.8409">
        <ele>1222</ele>
        <time>2010-01-01T10:15:19Z</time>
      </trkpt>
      <trkpt lat="46.26258" lon="6.84103">
        <ele>1215</ele>
        <time>2010-01-01T10:15:34Z</time>
      </trkpt>
      <trkpt lat="46.2629" lon="6.84115">
        <ele>1215</ele>
        <time>2010-01-01T10:15:47Z</time>
      </trkpt>
      <trkpt lat="46.26314" lon="6.84126">
        <ele>1215</ele>
        <time>2010-01-01T10:15:57Z</time>
      </trkpt>
      <trkpt lat="46.26334" lon="6.84131">
        <ele>1209</ele>
        <time>2010-01-01T10:16:05Z</time>
      </trkpt>
      <trkpt lat="46.26368" lon="6.84144">
        <ele>1208</ele>
        <time>2010-01-01T10:16:19Z</time>
      </trkpt>
      <trkpt lat="46.26404" lon="6.84152">
        <ele>1207</ele>
        <time>2010-01-01T10:16:34Z</time>
      </trkpt>
      <trkpt lat="46.26462" lon="6.84173">
        <ele>1212</ele>
        <time>2010-01-01T10:16:58Z</time>
      </trkpt>
      <trkpt lat="46.26493" lon="6.84178">
        <ele>1208</ele>
        <time>2010-01-01T10:17:10Z</time>
      </trkpt>
      <trkpt lat="46.26516" lon="6.84176">
        <ele>1207</ele>
        <time>2010-01-01T10:17:19Z</time>
      </trkpt>
      <trkpt lat="46.26552" lon="6.8417">
        <ele>1208</ele>
        <time>2010-01-01T10:17:34Z</time>
      </trkpt>
      <trkpt lat="46.26599" lon="6.84158">
        <ele>1198</ele>
        <time>2010-01-01T10:17:53Z</time>
      </trkpt>
      <trkpt lat="46.26638" lon="6.84142">
        <ele>1196</ele>
        <time>2010-01-01T10:18:09Z</time>
      </trkpt>
      <trkpt lat="46.2666" lon="6.84139">
        <ele>1196</ele>
        <time>2010-01-01T10:18:18Z</time>
      </trkpt>
      <trkpt lat="46.26678" lon="6.84143">
        <ele>1195</ele>
        <time>2010-01-01T10:18:26Z</time>
      </trkpt>
      <trkpt lat="46.26701" lon="6.84147">
        <ele>1194</ele>
        <time>2010-01-01T10:18:35Z</time>
      </trkpt>
      <trkpt lat="46.26726" lon="6.84168">
        <ele>1202</ele>
        <time>2010-01-01T10:18:46Z</time>
      </trkpt>
      <trkpt lat="46.26726" lon="6.84178">
        <ele>1203</ele>
        <time>2010-01-01T10:18:49Z</time>
      </trkpt>
      <trkpt lat="46.26712" lon="6.84187">
        <ele>1204</ele>
        <time>2010-01-01T10:18:55Z</time>
      </trkpt>
      <trkpt lat="46.26696" lon="6.84195">
        <ele>1205</ele>
        <time>2010-01-01T10:19:02Z</time>
      </trkpt>
      <trkpt lat="46.26681" lon="6.84202">
        <ele>1206</ele>
        <time>2010-01-01T10:19:09Z</time>
      </trkpt>
      <trkpt lat="46.26675" lon="6.84209">
        <ele>1207</ele>
        <time>2010-01-01T10:19:11Z</time>
      </trkpt>
      <trkpt lat="46.26661" lon="6.84216">
        <ele>1209</ele>
        <time>2010-01-01T10:19:17Z</time>
      </trkpt>
      <trkpt lat="46.26661" lon="6.84229">
        <ele>1211</ele>
        <time>2010-01-01T10:19:21Z</time>
      </trkpt>
      <trkpt lat="46.26659" lon="6.84237">
        <ele>1212</ele>
        <time>2010-01-01T10:19:23Z</time>
      </trkpt>
      <trkpt lat="46.26665" lon="6.84259">
        <ele>1220</ele>
        <time>2010-01-01T10:19:30Z</time>
      </trkpt>
      <trkpt lat="46.26669" lon="6.84265">
        <ele>1220</ele>
        <time>2010-01-01T10:19:32Z</time>
      </trkpt>
      <trkpt lat="46.26669" lon="6.84245">
        <ele>1214</ele>
        <time>2010-01-01T10:19:38Z</time>
      </trkpt>
      <trkpt lat="46.26676" lon="6.84242">
        <ele>1212</ele>
        <time>2010-01-01T10:19:41Z</time>
      </trkpt>
      <trkpt lat="46.26684" lon="6.84253">
        <ele>1219</ele>
        <time>2010-01-01T10:19:45Z</time>
      </trkpt>
      <trkpt lat="46.26683" lon="6.84269">
        <ele>1221</ele>
        <time>2010-01-01T10:19:49Z</time>
      </trkpt>
      <trkpt lat="46.2668" lon="6.84311">
        <ele>1227</ele>
        <time>2010-01-01T10:20:01Z</time>
      </trkpt>
      <trkpt lat="46.26679" lon="6.84343">
        <ele>1243</ele>
        <time>2010-01-01T10:20:10Z</time>
      </trkpt>
      <trkpt lat="46.26695" lon="6.84653">
        <ele>1395</ele>
        <time>2010-01-01T10:21:36Z</time>
      </trkpt>
      <trkpt lat="46.26702" lon="6.84793">
        <ele>1472</ele>
        <time>2010-01-01T10:22:15Z</time>
      </trkpt>
      <trkpt lat="46.26726" lon="6.84999">
        <ele>1505</ele>
        <time>2010-01-01T10:23:13Z</time>
      </trkpt>
      <trkpt lat="46.2674" lon="6.85268">
        <ele>1516</ele>
        <time>2010-01-01T10:24:27Z</time>
      </trkpt>
      <trkpt lat="46.26751" lon="6.85438">
        <ele>1556</ele>
        <time>2010-01-01T10:25:15Z</time>
      </trkpt>
      <trkpt lat="46.26753" lon="6.85531">
        <ele>1581</ele>
        <time>2010-01-01T10:25:41Z</time>
      </trkpt>
      <trkpt lat="46.26758" lon="6.8562">
        <ele>1602</ele>
        <time>2010-01-01T10:26:05Z</time>
      </trkpt>
      <trkpt lat="46.26767" lon="6.85687">
        <ele>1619</ele>
        <time>2010-01-01T10:26:24Z</time>
      </trkpt>
      <trkpt lat="46.26769" lon="6.8573">
        <ele>1625</ele>
        <time>2010-01-01T10:26:36Z</time>
      </trkpt>
      <trkpt lat="46.26769" lon="6.8574">
        <ele>1626</ele>
        <time>2010-01-01T10:26:39Z</time>
      </trkpt>
      <trkpt lat="46.26771" lon="6.85749">
        <ele>1627</ele>
        <time>2010-01-01T10:26:41Z</time>
      </trkpt>
      <trkpt lat="46.26773" lon="6.85756">
        <ele>1634</ele>
        <time>2010-01-01T10:26:43Z</time>
      </trkpt>
      <trkpt lat="46.26773" lon="6.8576">
        <ele>1635</ele>
        <time>2010-01-01T10:26:45Z</time>
      </trkpt>
      <trkpt lat="46.26772" lon="6.85764">
        <ele>1635</ele>
        <time>2010-01-01T10:26:46Z</time>
      </trkpt>
      <trkpt lat="46.26771" lon="6.8577">
        <ele>1635</ele>
        <time>2010-01-01T10:26:47Z</time>
      </trkpt>
      <trkpt lat="46.26771" lon="6.85773">
        <ele>1635</ele>
        <time>2010-01-01T10:26:48Z</time>
      </trkpt>
      <trkpt lat="46.26771" lon="6.85775">
        <ele>1636</ele>
        <time>2010-01-01T10:26:49Z</time>
      </trkpt>
      <trkpt lat="46.26772" lon="6.85782">
        <ele>1636</ele>
        <time>2010-01-01T10:26:51Z</time>
      </trkpt>
      <trkpt lat="46.26772" lon="6.85783">
        <ele>1636</ele>
        <time>2010-01-01T10:26:51Z</time>
      </trkpt>
      <trkpt lat="46.26773" lon="6.85782">
        <ele>1636</ele>
        <time>2010-01-01T10:26:51Z</time>
      </trkpt>
      <trkpt lat="46.26773" lon="6.85781">
        <ele>1636</ele>
        <time>2010-01-01T10:26:52Z</time>
      </trkpt>
      <trkpt lat="46.26775" lon="6.8578">
        <ele>1636</ele>
        <time>2010-01-01T10:26:52Z</time>
      </trkpt>
      <trkpt lat="46.26776" lon="6.85778">
        <ele>1636</ele>
        <time>2010-01-01T10:26:53Z</time>
      </trkpt>
      <trkpt lat="46.26777" lon="6.85777">
        <ele>1636</ele>
        <time>2010-01-01T10:26:54Z</time>
      </trkpt>
      <trkpt lat="46.26778" lon="6.85776">
        <ele>1636</ele>
        <time>2010-01-01T10:26:54Z</time>
      </trkpt>
      <trkpt lat="46.2678" lon="6.85776">
        <ele>1636</ele>
        <time>2010-01-01T10:26:55Z</time>
      </trkpt>
      <trkpt lat="46.2678" lon="6.85775">
        <ele>1636</ele>
        <time>2010-01-01T10:26:55Z</time>
      </trkpt>
      <trkpt lat="46.26781" lon="6.85775">
        <ele>1636</ele>
        <time>2010-01-01T10:26:55Z</time>
      </trkpt>
      <trkpt lat="46.26782" lon="6.85776">
        <ele>1636</ele>
        <time>2010-01-01T10:26:56Z</time>
      </trkpt>
      <trkpt lat="46.26782" lon="6.85776">
        <ele>1636</ele>
        <time>2010-01-01T10:26:56Z</time>
      </trkpt>
      <trkpt lat="46.26782" lon="6.85777">
        <ele>1636</ele>
        <time>2010-01-01T10:26:56Z</time>
      </trkpt>
      <trkpt lat="46.26782" lon="6.85779">
        <ele>1636</ele>
        <time>2010-01-01T10:26:57Z</time>
      </trkpt>
      <trkpt lat="46.26782" lon="6.85781">
        <ele>1636</ele>
        <time>2010-01-01T10:26:57Z</time>
      </trkpt>
      <trkpt lat="46.26782" lon="6.85782">
        <ele>1636</ele>
        <time>2010-01-01T10:26:57Z</time>
      </trkpt>
      <trkpt lat="46.26781" lon="6.85783">
        <ele>1636</ele>
        <time>2010-01-01T10:26:58Z</time>
      </trkpt>
      <trkpt lat="46.2678" lon="6.85784">
        <ele>1637</ele>
        <time>2010-01-01T10:26:58Z</time>
      </trkpt>
      <trkpt lat="46.2678" lon="6.85785">
        <ele>1637</ele>
        <time>2010-01-01T10:26:59Z</time>
      </trkpt>
      <trkpt lat="46.26779" lon="6.85786">
        <ele>1637</ele>
        <time>2010-01-01T10:26:59Z</time>
      </trkpt>
      <trkpt lat="46.26778" lon="6.85786">
        <ele>1637</ele>
        <time>2010-01-01T10:26:59Z</time>
      </trkpt>
      <trkpt lat="46.26777" lon="6.85786">
        <ele>1637</ele>
        <time>2010-01-01T10:27:00Z</time>
      </trkpt>
      <trkpt lat="46.26775" lon="6.85786">
        <ele>1637</ele>
        <time>2010-01-01T10:27:00Z</time>
      </trkpt>
      <trkpt lat="46.26774" lon="6.85787">
        <ele>1637</ele>
        <time>2010-01-01T10:27:01Z</time>
      </trkpt>
      <trkpt lat="46.26773" lon="6.85787">
        <ele>1637</ele>
        <time>2010-01-01T10:27:01Z</time>
      </trkpt>
      <trkpt lat="46.26772" lon="6.85788">
        <ele>1637</ele>
        <time>2010-01-01T10:27:02Z</time>
      </trkpt>
      <trkpt lat="46.2677" lon="6.8579">
        <ele>1637</ele>
        <time>2010-01-01T10:27:03Z</time>
      </trkpt>
      <trkpt lat="46.26769" lon="6.85791">
        <ele>1637</ele>
        <time>2010-01-01T10:27:03Z</time>
      </trkpt>
      <trkpt lat="46.26768" lon="6.85792">
        <ele>1637</ele>
        <time>2010-01-01T10:27:04Z</time>
      </trkpt>
      <trkpt lat="46.26766" lon="6.85793">
        <ele>1637</ele>
        <time>2010-01-01T10:27:05Z</time>
      </trkpt>
      <trkpt lat="46.26763" lon="6.85795">
        <ele>1637</ele>
        <time>2010-01-01T10:27:06Z</time>
      </trkpt>
      <trkpt lat="46.26761" lon="6.85797">
        <ele>1637</ele>
        <time>2010-01-01T10:27:07Z</time>
      </trkpt>
      <trkpt lat="46.2676" lon="6.85798">
        <ele>1637</ele>
        <time>2010-01-01T10:27:07Z</time>
      </trkpt>
      <trkpt lat="46.26759" lon="6.85799">
        <ele>1637</ele>
        <time>2010-01-01T10:27:08Z</time>
      </trkpt>
      <trkpt lat="46.26756" lon="6.858">
        <ele>1637</ele>
        <time>2010-01-01T10:27:09Z</time>
      </trkpt>
      <trkpt lat="46.26755" lon="6.858">
        <ele>1637</ele>
        <time>2010-01-01T10:27:09Z</time>
      </trkpt>
      <trkpt lat="46.26755" lon="6.85801">
        <ele>1637</ele>
        <time>2010-01-01T10:27:10Z</time>
      </trkpt>
      <trkpt lat="46.26754" lon="6.85801">
        <ele>1637</ele>
        <time>2010-01-01T10:27:10Z</time>
      </trkpt>
      <trkpt lat="46.26753" lon="6.85801">
        <ele>1637</ele>
        <time>2010-01-01T10:27:10Z</time>
      </trkpt>
      <trkpt lat="46.26752" lon="6.85802">
        <ele>1637</ele>
        <time>2010-01-01T10:27:11Z</time>
      </trkpt>
      <trkpt lat="46.26751" lon="6.85803">
        <ele>1637</ele>
        <time>2010-01-01T10:27:11Z</time>
      </trkpt>
      <trkpt lat="46.2675" lon="6.85804">
        <ele>1633</ele>
        <time>2010-01-01T10:27:12Z</time>
      </trkpt>
      <trkpt lat="46.26748" lon="6.85806">
        <ele>1634</ele>
        <time>2010-01-01T10:27:13Z</time>
      </trkpt>
      <trkpt lat="46.26745" lon="6.85809">
        <ele>1634</ele>
        <time>2010-01-01T10:27:14Z</time>
      </trkpt>
      <trkpt lat="46.26742" lon="6.85812">
        <ele>1634</ele>
        <time>2010-01-01T10:27:16Z</time>
      </trkpt>
      <trkpt lat="46.26739" lon="6.85815">
        <ele>1634</ele>
        <time>2010-01-01T10:27:17Z</time>
      </trkpt>
      <trkpt lat="46.26736" lon="6.85818">
        <ele>1634</ele>
        <time>2010-01-01T10:27:19Z</time>
      </trkpt>
      <trkpt lat="46.26734" lon="6.8582">
        <ele>1634</ele>
        <time>2010-01-01T10:27:20Z</time>
      </trkpt>
      <trkpt lat="46.26732" lon="6.8582">
        <ele>1634</ele>
        <time>2010-01-01T10:27:20Z</time>
      </trkpt>
      <trkpt lat="46.26732" lon="6.85821">
        <ele>1634</ele>
        <time>2010-01-01T10:27:21Z</time>
      </trkpt>
      <trkpt lat="46.2673" lon="6.85822">
        <ele>1634</ele>
        <time>2010-01-01T10:27:21Z</time>
      </trkpt>
      <trkpt lat="46.26729" lon="6.85823">
        <ele>1634</ele>
        <time>2010-01-01T10:27:22Z</time>
      </trkpt>
      <trkpt lat="46.26728" lon="6.85824">
        <ele>1634</ele>
        <time>2010-01-01T10:27:22Z</time>
      </trkpt>
      <trkpt lat="46.26727" lon="6.85825">
        <ele>1634</ele>
        <time>2010-01-01T10:27:23Z</time>
      </trkpt>
      <trkpt lat="46.26726" lon="6.85825">
        <ele>1634</ele>
        <time>2010-01-01T10:27:23Z</time>
      </trkpt>
      <trkpt lat="46.26726" lon="6.85826">
        <ele>1634</ele>
        <time>2010-01-01T10:27:23Z</time>
      </trkpt>
      <trkpt lat="46.26725" lon="6.85828">
        <ele>1634</ele>
        <time>2010-01-01T10:27:24Z</time>
      </trkpt>
      <trkpt lat="46.26724" lon="6.85829">
        <ele>1634</ele>
        <time>2010-01-01T10:27:24Z</time>
      </trkpt>
      <trkpt lat="46.26723" lon="6.85831">
        <ele>1634</ele>
        <time>2010-01-01T10:27:25Z</time>
      </trkpt>
      <trkpt lat="46.26722" lon="6.85833">
        <ele>1634</ele>
        <time>2010-01-01T10:27:26Z</time>
      </trkpt>
      <trkpt lat="46.26721" lon="6.85835">
        <ele>1640</ele>
        <time>2010-01-01T10:27:26Z</time>
      </trkpt>
      <trkpt lat="46.26718" lon="6.85838">
        <ele>1640</ele>
        <time>2010-01-01T10:27:28Z</time>
      </trkpt>
      <trkpt lat="46.26715" lon="6.85842">
        <ele>1639</ele>
        <time>2010-01-01T10:27:30Z</time>
      </trkpt>
      <trkpt lat="46.26713" lon="6.85844">
        <ele>1639</ele>
        <time>2010-01-01T10:27:30Z</time>
      </trkpt>
      <trkpt lat="46.26712" lon="6.85846">
        <ele>1639</ele>
        <time>2010-01-01T10:27:31Z</time>
      </trkpt>
      <trkpt lat="46.26711" lon="6.85847">
        <ele>1639</ele>
        <time>2010-01-01T10:27:32Z</time>
      </trkpt>
      <trkpt lat="46.2671" lon="6.85849">
        <ele>1639</ele>
        <time>2010-01-01T10:27:32Z</time>
      </trkpt>
      <trkpt lat="46.26709" lon="6.85851">
        <ele>1639</ele>
        <time>2010-01-01T10:27:33Z</time>
      </trkpt>
      <trkpt lat="46.26709" lon="6.85852">
        <ele>1639</ele>
        <time>2010-01-01T10:27:33Z</time>
      </trkpt>
      <trkpt lat="46.26707" lon="6.85854">
        <ele>1639</ele>
        <time>2010-01-01T10:27:34Z</time>
      </trkpt>
      <trkpt lat="46.26706" lon="6.85855">
        <ele>1639</ele>
        <time>2010-01-01T10:27:35Z</time>
      </trkpt>
      <trkpt lat="46.26705" lon="6.85856">
        <ele>1639</ele>
        <time>2010-01-01T10:27:35Z</time>
      </trkpt>
      <trkpt lat="46.26705" lon="6.85857">
        <ele>1639</ele>
        <time>2010-01-01T10:27:35Z</time>
      </trkpt>
      <trkpt lat="46.26702" lon="6.85863">
        <ele>1640</ele>
        <time>2010-01-01T10:27:37Z</time>
      </trkpt>
      <trkpt lat="46.26698" lon="6.85869">
        <ele>1640</ele>
        <time>2010-01-01T10:27:40Z</time>
      </trkpt>
      <trkpt lat="46.26696" lon="6.85871">
        <ele>1640</ele>
        <time>2010-01-01T10:27:41Z</time>
      </trkpt>
      <trkpt lat="46.26692" lon="6.85877">
        <ele>1640</ele>
        <time>2010-01-01T10:27:43Z</time>
      </trkpt>
      <trkpt lat="46.26689" lon="6.85882">
        <ele>1640</ele>
        <time>2010-01-01T10:27:45Z</time>
      </trkpt>
      <trkpt lat="46.26687" lon="6.85884">
        <ele>1640</ele>
        <time>2010-01-01T10:27:46Z</time>
      </trkpt>
      <trkpt lat="46.26685" lon="6.85887">
        <ele>1641</ele>
        <time>2010-01-01T10:27:47Z</time>
      </trkpt>
      <trkpt lat="46.26685" lon="6.85887">
        <ele>1641</ele>
        <time>2010-01-01T10:27:47Z</time>
      </trkpt>
      <trkpt lat="46.26684" lon="6.85889">
        <ele>1641</ele>
        <time>2010-01-01T10:27:48Z</time>
      </trkpt>
      <trkpt lat="46.26684" lon="6.85889">
        <ele>1641</ele>
        <time>2010-01-01T10:27:48Z</time>
      </trkpt>
      <trkpt lat="46.26683" lon="6.8589">
        <ele>1641</ele>
        <time>2010-01-01T10:27:48Z</time>
      </trkpt>
      <trkpt lat="46.26683" lon="6.8589">
        <ele>1641</ele>
        <time>2010-01-01T10:27:48Z</time>
      </trkpt>
      <trkpt lat="46.26679" lon="6.85895">
        <ele>1641</ele>
        <time>2010-01-01T10:27:50Z</time>
      </trkpt>
      <trkpt lat="46.26673" lon="6.85905">
        <ele>1641</ele>
        <time>2010-01-01T10:27:54Z</time>
      </trkpt>
      <trkpt lat="46.2667" lon="6.85908">
        <ele>1642</ele>
        <time>2010-01-01T10:27:55Z</time>
      </trkpt>
      <trkpt lat="46.26667" lon="6.8591">
        <ele>1642</ele>
        <time>2010-01-01T10:27:57Z</time>
      </trkpt>
      <trkpt lat="46.26661" lon="6.85919">
        <ele>1643</ele>
        <time>2010-01-01T10:28:00Z</time>
      </trkpt>
      <trkpt lat="46.26652" lon="6.85928">
        <ele>1644</ele>
        <time>2010-01-01T10:28:04Z</time>
      </trkpt>
      <trkpt lat="46.26645" lon="6.85932">
        <ele>1645</ele>
        <time>2010-01-01T10:28:07Z</time>
      </trkpt>
      <trkpt lat="46.26637" lon="6.85938">
        <ele>1646</ele>
        <time>2010-01-01T10:28:11Z</time>
      </trkpt>
      <trkpt lat="46.26632" lon="6.85941">
        <ele>1646</ele>
        <time>2010-01-01T10:28:13Z</time>
      </trkpt>
      <trkpt lat="46.26628" lon="6.85945">
        <ele>1646</ele>
        <time>2010-01-01T10:28:15Z</time>
      </trkpt>
      <trkpt lat="46.26623" lon="6.85948">
        <ele>1646</ele>
        <time>2010-01-01T10:28:17Z</time>
      </trkpt>
      <trkpt lat="46.26617" lon="6.85953">
        <ele>1646</ele>
        <time>2010-01-01T10:28:20Z</time>
      </trkpt>
      <trkpt lat="46.26595" lon="6.85974">
        <ele>1648</ele>
        <time>2010-01-01T10:28:31Z</time>
      </trkpt>
      <trkpt lat="46.26584" lon="6.85987">
        <ele>1649</ele>
        <time>2010-01-01T10:28:36Z</time>
      </trkpt>
      <trkpt lat="46.26555" lon="6.86023">
        <ele>1657</ele>
        <time>2010-01-01T10:28:52Z</time>
      </trkpt>
      <trkpt lat="46.26528" lon="6.86048">
        <ele>1659</ele>
        <time>2010-01-01T10:29:05Z</time>
      </trkpt>
      <trkpt lat="46.26496" lon="6.86072">
        <ele>1665</ele>
        <time>2010-01-01T10:29:19Z</time>
      </trkpt>
      <trkpt lat="46.26488" lon="6.86081">
        <ele>1665</ele>
        <time>2010-01-01T10:29:23Z</time>
      </trkpt>
      <trkpt lat="46.26479" lon="6.86091">
        <ele>1671</ele>
        <time>2010-01-01T10:29:27Z</time>
      </trkpt>
      <trkpt lat="46.26479" lon="6.86092">
        <ele>1671</ele>
        <time>2010-01-01T10:29:28Z</time>
      </trkpt>
      <trkpt lat="46.26473" lon="6.86111">
        <ele>1673</ele>
        <time>2010-01-01T10:29:34Z</time>
      </trkpt>
      <trkpt lat="46.26464" lon="6.86138">
        <ele>1675</ele>
        <time>2010-01-01T10:29:42Z</time>
      </trkpt>
      <trkpt lat="46.26464" lon="6.86149">
        <ele>1676</ele>
        <time>2010-01-01T10:29:45Z</time>
      </trkpt>
      <trkpt lat="46.26466" lon="6.86158">
        <ele>1676</ele>
        <time>2010-01-01T10:29:47Z</time>
      </trkpt>
      <trkpt lat="46.26472" lon="6.86171">
        <ele>1679</ele>
        <time>2010-01-01T10:29:52Z</time>
      </trkpt>
      <trkpt lat="46.26476" lon="6.86177">
        <ele>1679</ele>
        <time>2010-01-01T10:29:54Z</time>
      </trkpt>
      <trkpt lat="46.26483" lon="6.86178">
        <ele>1678</ele>
        <time>2010-01-01T10:29:57Z</time>
      </trkpt>
      <trkpt lat="46.26496" lon="6.86183">
        <ele>1678</ele>
        <time>2010-01-01T10:30:02Z</time>
      </trkpt>
      <trkpt lat="46.26504" lon="6.86182">
        <ele>1677</ele>
        <time>2010-01-01T10:30:06Z</time>
      </trkpt>
      <trkpt lat="46.26515" lon="6.86183">
        <ele>1678</ele>
        <time>2010-01-01T10:30:10Z</time>
      </trkpt>
      <trkpt lat="46.26523" lon="6.86185">
        <ele>1679</ele>
        <time>2010-01-01T10:30:13Z</time>
      </trkpt>
      <trkpt lat="46.26537" lon="6.86186">
        <ele>1680</ele>
        <time>2010-01-01T10:30:19Z</time>
      </trkpt>
      <trkpt lat="46.26545" lon="6.86186">
        <ele>1680</ele>
        <time>2010-01-01T10:30:22Z</time>
      </trkpt>
      <trkpt lat="46.26554" lon="6.86186">
        <ele>1680</ele>
        <time>2010-01-01T10:30:25Z</time>
      </trkpt>
      <trkpt lat="46.26566" lon="6.8619">
        <ele>1681</ele>
        <time>2010-01-01T10:30:31Z</time>
      </trkpt>
      <trkpt lat="46.26574" lon="6.86193">
        <ele>1681</ele>
        <time>2010-01-01T10:30:34Z</time>
      </trkpt>
      <trkpt lat="46.26595" lon="6.86217">
        <ele>1685</ele>
        <time>2010-01-01T10:30:44Z</time>
      </trkpt>
      <trkpt lat="46.26603" lon="6.8623">
        <ele>1686</ele>
        <time>2010-01-01T10:30:49Z</time>
      </trkpt>
      <trkpt lat="46.26603" lon="6.86246">
        <ele>1686</ele>
        <time>2010-01-01T10:30:54Z</time>
      </trkpt>
      <trkpt lat="46.26598" lon="6.86263">
        <ele>1690</ele>
        <time>2010-01-01T10:30:59Z</time>
      </trkpt>
      <trkpt lat="46.26588" lon="6.86288">
        <ele>1692</ele>
        <time>2010-01-01T10:31:07Z</time>
      </trkpt>
      <trkpt lat="46.26582" lon="6.86298">
        <ele>1687</ele>
        <time>2010-01-01T10:31:10Z</time>
      </trkpt>
      <trkpt lat="46.26582" lon="6.86298">
        <ele>1687</ele>
        <time>2010-01-01T10:31:10Z</time>
      </trkpt>
      <trkpt lat="46.26567" lon="6.86322">
        <ele>1688</ele>
        <time>2010-01-01T10:31:19Z</time>
      </trkpt>
      <trkpt lat="46.26562" lon="6.86331">
        <ele>1688</ele>
        <time>2010-01-01T10:31:23Z</time>
      </trkpt>
      <trkpt lat="46.26559" lon="6.86337">
        <ele>1690</ele>
        <time>2010-01-01T10:31:25Z</time>
      </trkpt>
      <trkpt lat="46.26555" lon="6.86343">
        <ele>1689</ele>
        <time>2010-01-01T10:31:27Z</time>
      </trkpt>
      <trkpt lat="46.26555" lon="6.86344">
        <ele>1689</ele>
        <time>2010-01-01T10:31:27Z</time>
      </trkpt>
      <trkpt lat="46.26555" lon="6.86346">
        <ele>1689</ele>
        <time>2010-01-01T10:31:28Z</time>
      </trkpt>
      <trkpt lat="46.26555" lon="6.86346">
        <ele>1689</ele>
        <time>2010-01-01T10:31:28Z</time>
      </trkpt>
      <trkpt lat="46.26555" lon="6.86347">
        <ele>1689</ele>
        <time>2010-01-01T10:31:28Z</time>
      </trkpt>
      <trkpt lat="46.26553" lon="6.86358">
        <ele>1689</ele>
        <time>2010-01-01T10:31:31Z</time>
      </trkpt>
      <trkpt lat="46.26553" lon="6.86358">
        <ele>1689</ele>
        <time>2010-01-01T10:31:31Z</time>
      </trkpt>
      <trkpt lat="46.2655" lon="6.86374">
        <ele>1689</ele>
        <time>2010-01-01T10:31:36Z</time>
      </trkpt>
      <trkpt lat="46.26542" lon="6.86423">
        <ele>1691</ele>
        <time>2010-01-01T10:31:50Z</time>
      </trkpt>
      <trkpt lat="46.26542" lon="6.86444">
        <ele>1691</ele>
        <time>2010-01-01T10:31:55Z</time>
      </trkpt>
      <trkpt lat="46.26544" lon="6.8646">
        <ele>1691</ele>
        <time>2010-01-01T10:32:00Z</time>
      </trkpt>
      <trkpt lat="46.26543" lon="6.86496">
        <ele>1691</ele>
        <time>2010-01-01T10:32:10Z</time>
      </trkpt>
      <trkpt lat="46.26541" lon="6.86517">
        <ele>1693</ele>
        <time>2010-01-01T10:32:16Z</time>
      </trkpt>
      <trkpt lat="46.26536" lon="6.86535">
        <ele>1693</ele>
        <time>2010-01-01T10:32:21Z</time>
      </trkpt>
      <trkpt lat="46.26539" lon="6.86548">
        <ele>1693</ele>
        <time>2010-01-01T10:32:25Z</time>
      </trkpt>
      <trkpt lat="46.26539" lon="6.86549">
        <ele>1693</ele>
        <time>2010-01-01T10:32:25Z</time>
      </trkpt>
      <trkpt lat="46.26545" lon="6.86562">
        <ele>1693</ele>
        <time>2010-01-01T10:32:29Z</time>
      </trkpt>
      <trkpt lat="46.26552" lon="6.86573">
        <ele>1692</ele>
        <time>2010-01-01T10:32:34Z</time>
      </trkpt>
      <trkpt lat="46.26553" lon="6.86576">
        <ele>1692</ele>
        <time>2010-01-01T10:32:35Z</time>
      </trkpt>
      <trkpt lat="46.26559" lon="6.86615">
        <ele>1692</ele>
        <time>2010-01-01T10:32:46Z</time>
      </trkpt>
      <trkpt lat="46.26559" lon="6.86632">
        <ele>1692</ele>
        <time>2010-01-01T10:32:50Z</time>
      </trkpt>
      <trkpt lat="46.26558" lon="6.86648">
        <ele>1691</ele>
        <time>2010-01-01T10:32:55Z</time>
      </trkpt>
      <trkpt lat="46.26553" lon="6.86663">
        <ele>1691</ele>
        <time>2010-01-01T10:32:59Z</time>
      </trkpt>
      <trkpt lat="46.26545" lon="6.86684">
        <ele>1690</ele>
        <time>2010-01-01T10:33:06Z</time>
      </trkpt>
      <trkpt lat="46.26534" lon="6.8671">
        <ele>1690</ele>
        <time>2010-01-01T10:33:14Z</time>
      </trkpt>
      <trkpt lat="46.26525" lon="6.86736">
        <ele>1690</ele>
        <time>2010-01-01T10:33:22Z</time>
      </trkpt>
      <trkpt lat="46.26522" lon="6.86751">
        <ele>1683</ele>
        <time>2010-01-01T10:33:27Z</time>
      </trkpt>
      <trkpt lat="46.26521" lon="6.86763">
        <ele>1681</ele>
        <time>2010-01-01T10:33:30Z</time>
      </trkpt>
      <trkpt lat="46.26518" lon="6.86765">
        <ele>1682</ele>
        <time>2010-01-01T10:33:31Z</time>
      </trkpt>
      <trkpt lat="46.26514" lon="6.86774">
        <ele>1681</ele>
        <time>2010-01-01T10:33:34Z</time>
      </trkpt>
      <trkpt lat="46.26514" lon="6.86775">
        <ele>1680</ele>
        <time>2010-01-01T10:33:35Z</time>
      </trkpt>
      <trkpt lat="46.26506" lon="6.8678">
        <ele>1680</ele>
        <time>2010-01-01T10:33:38Z</time>
      </trkpt>
      <trkpt lat="46.26493" lon="6.86789">
        <ele>1690</ele>
        <time>2010-01-01T10:33:44Z</time>
      </trkpt>
      <trkpt lat="46.26475" lon="6.86803">
        <ele>1689</ele>
        <time>2010-01-01T10:33:52Z</time>
      </trkpt>
      <trkpt lat="46.26471" lon="6.86805">
        <ele>1689</ele>
        <time>2010-01-01T10:33:54Z</time>
      </trkpt>
      <trkpt lat="46.26463" lon="6.8681">
        <ele>1690</ele>
        <time>2010-01-01T10:33:57Z</time>
      </trkpt>
      <trkpt lat="46.26458" lon="6.86815">
        <ele>1690</ele>
        <time>2010-01-01T10:34:00Z</time>
      </trkpt>
      <trkpt lat="46.26448" lon="6.86825">
        <ele>1690</ele>
        <time>2010-01-01T10:34:04Z</time>
      </trkpt>
      <trkpt lat="46.26444" lon="6.86827">
        <ele>1690</ele>
        <time>2010-01-01T10:34:06Z</time>
      </trkpt>
      <trkpt lat="46.26437" lon="6.86832">
        <ele>1691</ele>
        <time>2010-01-01T10:34:09Z</time>
      </trkpt>
      <trkpt lat="46.26429" lon="6.86838">
        <ele>1682</ele>
        <time>2010-01-01T10:34:13Z</time>
      </trkpt>
      <trkpt lat="46.26413" lon="6.8685">
        <ele>1687</ele>
        <time>2010-01-01T10:34:20Z</time>
      </trkpt>
      <trkpt lat="46.264" lon="6.86859">
        <ele>1686</ele>
        <time>2010-01-01T10:34:26Z</time>
      </trkpt>
      <trkpt lat="46.26386" lon="6.86866">
        <ele>1685</ele>
        <time>2010-01-01T10:34:32Z</time>
      </trkpt>
      <trkpt lat="46.26372" lon="6.86878">
        <ele>1685</ele>
        <time>2010-01-01T10:34:38Z</time>
      </trkpt>
      <trkpt lat="46.26361" lon="6.86887">
        <ele>1685</ele>
        <time>2010-01-01T10:34:43Z</time>
      </trkpt>
      <trkpt lat="46.26343" lon="6.86896">
        <ele>1684</ele>
        <time>2010-01-01T10:34:51Z</time>
      </trkpt>
      <trkpt lat="46.26324" lon="6.86903">
        <ele>1690</ele>
        <time>2010-01-01T10:34:59Z</time>
      </trkpt>
      <trkpt lat="46.26318" lon="6.86906">
        <ele>1690</ele>
        <time>2010-01-01T10:35:01Z</time>
      </trkpt>
      <trkpt lat="46.26305" lon="6.86912">
        <ele>1693</ele>
        <time>2010-01-01T10:35:07Z</time>
      </trkpt>
      <trkpt lat="46.26301" lon="6.86917">
        <ele>1693</ele>
        <time>2010-01-01T10:35:09Z</time>
      </trkpt>
      <trkpt lat="46.26291" lon="6.86928">
        <ele>1689</ele>
        <time>2010-01-01T10:35:14Z</time>
      </trkpt>
      <trkpt lat="46.26283" lon="6.86937">
        <ele>1690</ele>
        <time>2010-01-01T10:35:18Z</time>
      </trkpt>
      <trkpt lat="46.26276" lon="6.86943">
        <ele>1690</ele>
        <time>2010-01-01T10:35:21Z</time>
      </trkpt>
      <trkpt lat="46.2627" lon="6.86951">
        <ele>1690</ele>
        <time>2010-01-01T10:35:24Z</time>
      </trkpt>
      <trkpt lat="46.2626" lon="6.8698">
        <ele>1690</ele>
        <time>2010-01-01T10:35:33Z</time>
      </trkpt>
      <trkpt lat="46.26254" lon="6.87014">
        <ele>1691</ele>
        <time>2010-01-01T10:35:43Z</time>
      </trkpt>
      <trkpt lat="46.2625" lon="6.87043">
        <ele>1691</ele>
        <time>2010-01-01T10:35:51Z</time>
      </trkpt>
      <trkpt lat="46.26246" lon="6.8707">
        <ele>1701</ele>
        <time>2010-01-01T10:35:59Z</time>
      </trkpt>
      <trkpt lat="46.26245" lon="6.87084">
        <ele>1699</ele>
        <time>2010-01-01T10:36:03Z</time>
      </trkpt>
      <trkpt lat="46.26247" lon="6.871">
        <ele>1701</ele>
        <time>2010-01-01T10:36:07Z</time>
      </trkpt>
      <trkpt lat="46.26247" lon="6.8711">
        <ele>1703</ele>
        <time>2010-01-01T10:36:10Z</time>
      </trkpt>
      <trkpt lat="46.26244" lon="6.87114">
        <ele>1703</ele>
        <time>2010-01-01T10:36:12Z</time>
      </trkpt>
      <trkpt lat="46.26237" lon="6.87113">
        <ele>1704</ele>
        <time>2010-01-01T10:36:15Z</time>
      </trkpt>
      <trkpt lat="46.26221" lon="6.87098">
        <ele>1705</ele>
        <time>2010-01-01T10:36:22Z</time>
      </trkpt>
      <trkpt lat="46.26206" lon="6.87084">
        <ele>1707</ele>
        <time>2010-01-01T10:36:29Z</time>
      </trkpt>
      <trkpt lat="46.26197" lon="6.8707">
        <ele>1708</ele>
        <time>2010-01-01T10:36:35Z</time>
      </trkpt>
      <trkpt lat="46.26194" lon="6.87058">
        <ele>1708</ele>
        <time>2010-01-01T10:36:38Z</time>
      </trkpt>
      <trkpt lat="46.26193" lon="6.87041">
        <ele>1708</ele>
        <time>2010-01-01T10:36:43Z</time>
      </trkpt>
      <trkpt lat="46.26196" lon="6.87027">
        <ele>1708</ele>
        <time>2010-01-01T10:36:47Z</time>
      </trkpt>
      <trkpt lat="46.26198" lon="6.87005">
        <ele>1709</ele>
        <time>2010-01-01T10:36:53Z</time>
      </trkpt>
      <trkpt lat="46.26196" lon="6.86987">
        <ele>1711</ele>
        <time>2010-01-01T10:36:58Z</time>
      </trkpt>
      <trkpt lat="46.26196" lon="6.86979">
        <ele>1711</ele>
        <time>2010-01-01T10:37:00Z</time>
      </trkpt>
      <trkpt lat="46.26196" lon="6.86971">
        <ele>1711</ele>
        <time>2010-01-01T10:37:02Z</time>
      </trkpt>
      <trkpt lat="46.26195" lon="6.86956">
        <ele>1712</ele>
        <time>2010-01-01T10:37:07Z</time>
      </trkpt>
      <trkpt lat="46.26194" lon="6.86947">
        <ele>1712</ele>
        <time>2010-01-01T10:37:09Z</time>
      </trkpt>
      <trkpt lat="46.26191" lon="6.8693">
        <ele>1715</ele>
        <time>2010-01-01T10:37:14Z</time>
      </trkpt>
      <trkpt lat="46.26189" lon="6.86915">
        <ele>1720</ele>
        <time>2010-01-01T10:37:18Z</time>
      </trkpt>
      <trkpt lat="46.26188" lon="6.869">
        <ele>1720</ele>
        <time>2010-01-01T10:37:22Z</time>
      </trkpt>
      <trkpt lat="46.26187" lon="6.86891">
        <ele>1720</ele>
        <time>2010-01-01T10:37:25Z</time>
      </trkpt>
      <trkpt lat="46.26186" lon="6.86877">
        <ele>1720</ele>
        <time>2010-01-01T10:37:29Z</time>
      </trkpt>
      <trkpt lat="46.26185" lon="6.86871">
        <ele>1721</ele>
        <time>2010-01-01T10:37:31Z</time>
      </trkpt>
      <trkpt lat="46.26183" lon="6.86864">
        <ele>1721</ele>
        <time>2010-01-01T10:37:33Z</time>
      </trkpt>
      <trkpt lat="46.26183" lon="6.86861">
        <ele>1722</ele>
        <time>2010-01-01T10:37:33Z</time>
      </trkpt>
      <trkpt lat="46.2618" lon="6.86844">
        <ele>1725</ele>
        <time>2010-01-01T10:37:38Z</time>
      </trkpt>
      <trkpt lat="46.2618" lon="6.86832">
        <ele>1730</ele>
        <time>2010-01-01T10:37:41Z</time>
      </trkpt>
      <trkpt lat="46.26183" lon="6.86817">
        <ele>1729</ele>
        <time>2010-01-01T10:37:46Z</time>
      </trkpt>
      <trkpt lat="46.26187" lon="6.86809">
        <ele>1729</ele>
        <time>2010-01-01T10:37:49Z</time>
      </trkpt>
      <trkpt lat="46.26195" lon="6.86802">
        <ele>1729</ele>
        <time>2010-01-01T10:37:52Z</time>
      </trkpt>
      <trkpt lat="46.26196" lon="6.86799">
        <ele>1729</ele>
        <time>2010-01-01T10:37:53Z</time>
      </trkpt>
      <trkpt lat="46.26197" lon="6.86795">
        <ele>1729</ele>
        <time>2010-01-01T10:37:54Z</time>
      </trkpt>
      <trkpt lat="46.26197" lon="6.86792">
        <ele>1729</ele>
        <time>2010-01-01T10:37:55Z</time>
      </trkpt>
      <trkpt lat="46.26195" lon="6.86788">
        <ele>1730</ele>
        <time>2010-01-01T10:37:57Z</time>
      </trkpt>
      <trkpt lat="46.26192" lon="6.86787">
        <ele>1730</ele>
        <time>2010-01-01T10:37:58Z</time>
      </trkpt>
      <trkpt lat="46.26184" lon="6.86791">
        <ele>1730</ele>
        <time>2010-01-01T10:38:01Z</time>
      </trkpt>
      <trkpt lat="46.26176" lon="6.86796">
        <ele>1730</ele>
        <time>2010-01-01T10:38:05Z</time>
      </trkpt>
      <trkpt lat="46.26176" lon="6.86797">
        <ele>1730</ele>
        <time>2010-01-01T10:38:05Z</time>
      </trkpt>
      <trkpt lat="46.26167" lon="6.86813">
        <ele>1730</ele>
        <time>2010-01-01T10:38:11Z</time>
      </trkpt>
      <trkpt lat="46.26161" lon="6.86838">
        <ele>1737</ele>
        <time>2010-01-01T10:38:18Z</time>
      </trkpt>
      <trkpt lat="46.26155" lon="6.86863">
        <ele>1744</ele>
        <time>2010-01-01T10:38:25Z</time>
      </trkpt>
      <trkpt lat="46.26151" lon="6.86883">
        <ele>1744</ele>
        <time>2010-01-01T10:38:31Z</time>
      </trkpt>
      <trkpt lat="46.26146" lon="6.86914">
        <ele>1741</ele>
        <time>2010-01-01T10:38:40Z</time>
      </trkpt>
      <trkpt lat="46.26143" lon="6.86926">
        <ele>1738</ele>
        <time>2010-01-01T10:38:43Z</time>
      </trkpt>
      <trkpt lat="46.26141" lon="6.86931">
        <ele>1738</ele>
        <time>2010-01-01T10:38:45Z</time>
      </trkpt>
      <trkpt lat="46.26137" lon="6.86941">
        <ele>1740</ele>
        <time>2010-01-01T10:38:48Z</time>
      </trkpt>
      <trkpt lat="46.26132" lon="6.86948">
        <ele>1740</ele>
        <time>2010-01-01T10:38:51Z</time>
      </trkpt>
      <trkpt lat="46.26122" lon="6.86963">
        <ele>1741</ele>
        <time>2010-01-01T10:38:57Z</time>
      </trkpt>
      <trkpt lat="46.26109" lon="6.86982">
        <ele>1743</ele>
        <time>2010-01-01T10:39:04Z</time>
      </trkpt>
      <trkpt lat="46.26104" lon="6.8699">
        <ele>1744</ele>
        <time>2010-01-01T10:39:07Z</time>
      </trkpt>
      <trkpt lat="46.26096" lon="6.87001">
        <ele>1742</ele>
        <time>2010-01-01T10:39:12Z</time>
      </trkpt>
      <trkpt lat="46.26088" lon="6.87012">
        <ele>1742</ele>
        <time>2010-01-01T10:39:16Z</time>
      </trkpt>
      <trkpt lat="46.2608" lon="6.87025">
        <ele>1752</ele>
        <time>2010-01-01T10:39:21Z</time>
      </trkpt>
      <trkpt lat="46.26075" lon="6.87031">
        <ele>1752</ele>
        <time>2010-01-01T10:39:23Z</time>
      </trkpt>
      <trkpt lat="46.26072" lon="6.87036">
        <ele>1752</ele>
        <time>2010-01-01T10:39:25Z</time>
      </trkpt>
      <trkpt lat="46.26068" lon="6.87042">
        <ele>1752</ele>
        <time>2010-01-01T10:39:28Z</time>
      </trkpt>
      <trkpt lat="46.26064" lon="6.87047">
        <ele>1752</ele>
        <time>2010-01-01T10:39:30Z</time>
      </trkpt>
      <trkpt lat="46.2606" lon="6.87051">
        <ele>1752</ele>
        <time>2010-01-01T10:39:32Z</time>
      </trkpt>
      <trkpt lat="46.26052" lon="6.87059">
        <ele>1752</ele>
        <time>2010-01-01T10:39:35Z</time>
      </trkpt>
      <trkpt lat="46.26045" lon="6.87066">
        <ele>1753</ele>
        <time>2010-01-01T10:39:39Z</time>
      </trkpt>
      <trkpt lat="46.26036" lon="6.87073">
        <ele>1754</ele>
        <time>2010-01-01T10:39:43Z</time>
      </trkpt>
      <trkpt lat="46.26028" lon="6.87078">
        <ele>1756</ele>
        <time>2010-01-01T10:39:47Z</time>
      </trkpt>
      <trkpt lat="46.26019" lon="6.87081">
        <ele>1757</ele>
        <time>2010-01-01T10:39:50Z</time>
      </trkpt>
      <trkpt lat="46.26008" lon="6.87083">
        <ele>1759</ele>
        <time>2010-01-01T10:39:55Z</time>
      </trkpt>
      <trkpt lat="46.25998" lon="6.87082">
        <ele>1761</ele>
        <time>2010-01-01T10:39:59Z</time>
      </trkpt>
      <trkpt lat="46.25991" lon="6.87078">
        <ele>1765</ele>
        <time>2010-01-01T10:40:02Z</time>
      </trkpt>
      <trkpt lat="46.25982" lon="6.8707">
        <ele>1768</ele>
        <time>2010-01-01T10:40:06Z</time>
      </trkpt>
      <trkpt lat="46.25971" lon="6.87064">
        <ele>1770</ele>
        <time>2010-01-01T10:40:10Z</time>
      </trkpt>
      <trkpt lat="46.25961" lon="6.87065">
        <ele>1771</ele>
        <time>2010-01-01T10:40:15Z</time>
      </trkpt>
      <trkpt lat="46.25956" lon="6.87067">
        <ele>1771</ele>
        <time>2010-01-01T10:40:17Z</time>
      </trkpt>
      <trkpt lat="46.25949" lon="6.87072">
        <ele>1772</ele>
        <time>2010-01-01T10:40:20Z</time>
      </trkpt>
      <trkpt lat="46.25945" lon="6.87078">
        <ele>1772</ele>
        <time>2010-01-01T10:40:22Z</time>
      </trkpt>
      <trkpt lat="46.25943" lon="6.87084">
        <ele>1767</ele>
        <time>2010-01-01T10:40:24Z</time>
      </trkpt>
      <trkpt lat="46.25943" lon="6.8709">
        <ele>1767</ele>
        <time>2010-01-01T10:40:26Z</time>
      </trkpt>
      <trkpt lat="46.25943" lon="6.87095">
        <ele>1767</ele>
        <time>2010-01-01T10:40:27Z</time>
      </trkpt>
      <trkpt lat="46.25946" lon="6.87101">
        <ele>1766</ele>
        <time>2010-01-01T10:40:29Z</time>
      </trkpt>
      <trkpt lat="46.2595" lon="6.87108">
        <ele>1766</ele>
        <time>2010-01-01T10:40:32Z</time>
      </trkpt>
      <trkpt lat="46.2595" lon="6.87109">
        <ele>1766</ele>
        <time>2010-01-01T10:40:32Z</time>
      </trkpt>
      <trkpt lat="46.25957" lon="6.87123">
        <ele>1765</ele>
        <time>2010-01-01T10:40:36Z</time>
      </trkpt>
      <trkpt lat="46.25962" lon="6.87135">
        <ele>1764</ele>
        <time>2010-01-01T10:40:40Z</time>
      </trkpt>
      <trkpt lat="46.25963" lon="6.87146">
        <ele>1764</ele>
        <time>2010-01-01T10:40:43Z</time>
      </trkpt>
      <trkpt lat="46.25961" lon="6.8715">
        <ele>1764</ele>
        <time>2010-01-01T10:40:45Z</time>
      </trkpt>
      <trkpt lat="46.25958" lon="6.87154">
        <ele>1764</ele>
        <time>2010-01-01T10:40:46Z</time>
      </trkpt>
      <trkpt lat="46.25954" lon="6.87156">
        <ele>1765</ele>
        <time>2010-01-01T10:40:48Z</time>
      </trkpt>
      <trkpt lat="46.2595" lon="6.87158">
        <ele>1765</ele>
        <time>2010-01-01T10:40:50Z</time>
      </trkpt>
      <trkpt lat="46.25945" lon="6.87161">
        <ele>1766</ele>
        <time>2010-01-01T10:40:52Z</time>
      </trkpt>
      <trkpt lat="46.25942" lon="6.87162">
        <ele>1766</ele>
        <time>2010-01-01T10:40:53Z</time>
      </trkpt>
      <trkpt lat="46.25938" lon="6.87164">
        <ele>1767</ele>
        <time>2010-01-01T10:40:55Z</time>
      </trkpt>
      <trkpt lat="46.25936" lon="6.87165">
        <ele>1767</ele>
        <time>2010-01-01T10:40:56Z</time>
      </trkpt>
      <trkpt lat="46.25924" lon="6.87168">
        <ele>1769</ele>
        <time>2010-01-01T10:41:00Z</time>
      </trkpt>
      <trkpt lat="46.25915" lon="6.8717">
        <ele>1773</ele>
        <time>2010-01-01T10:41:04Z</time>
      </trkpt>
      <trkpt lat="46.25908" lon="6.87169">
        <ele>1774</ele>
        <time>2010-01-01T10:41:07Z</time>
      </trkpt>
      <trkpt lat="46.25899" lon="6.87167">
        <ele>1777</ele>
        <time>2010-01-01T10:41:10Z</time>
      </trkpt>
      <trkpt lat="46.25889" lon="6.87167">
        <ele>1780</ele>
        <time>2010-01-01T10:41:14Z</time>
      </trkpt>
      <trkpt lat="46.25879" lon="6.87169">
        <ele>1781</ele>
        <time>2010-01-01T10:41:19Z</time>
      </trkpt>
      <trkpt lat="46.25873" lon="6.87173">
        <ele>1782</ele>
        <time>2010-01-01T10:41:21Z</time>
      </trkpt>
      <trkpt lat="46.2587" lon="6.87179">
        <ele>1783</ele>
        <time>2010-01-01T10:41:23Z</time>
      </trkpt>
      <trkpt lat="46.25869" lon="6.87179">
        <ele>1783</ele>
        <time>2010-01-01T10:41:24Z</time>
      </trkpt>
      <trkpt lat="46.25867" lon="6.87193">
        <ele>1783</ele>
        <time>2010-01-01T10:41:28Z</time>
      </trkpt>
      <trkpt lat="46.25866" lon="6.8721">
        <ele>1783</ele>
        <time>2010-01-01T10:41:32Z</time>
      </trkpt>
      <trkpt lat="46.25866" lon="6.8721">
        <ele>1783</ele>
        <time>2010-01-01T10:41:32Z</time>
      </trkpt>
      <trkpt lat="46.25861" lon="6.87234">
        <ele>1784</ele>
        <time>2010-01-01T10:41:39Z</time>
      </trkpt>
      <trkpt lat="46.25851" lon="6.87258">
        <ele>1786</ele>
        <time>2010-01-01T10:41:47Z</time>
      </trkpt>
      <trkpt lat="46.25841" lon="6.87283">
        <ele>1785</ele>
        <time>2010-01-01T10:41:55Z</time>
      </trkpt>
      <trkpt lat="46.25835" lon="6.87296">
        <ele>1786</ele>
        <time>2010-01-01T10:41:59Z</time>
      </trkpt>
      <trkpt lat="46.25829" lon="6.87305">
        <ele>1787</ele>
        <time>2010-01-01T10:42:03Z</time>
      </trkpt>
      <trkpt lat="46.25823" lon="6.87315">
        <ele>1787</ele>
        <time>2010-01-01T10:42:06Z</time>
      </trkpt>
      <trkpt lat="46.25818" lon="6.87304">
        <ele>1787</ele>
        <time>2010-01-01T10:42:10Z</time>
      </trkpt>
      <trkpt lat="46.25813" lon="6.87301">
        <ele>1787</ele>
        <time>2010-01-01T10:42:12Z</time>
      </trkpt>
      <trkpt lat="46.25809" lon="6.87298">
        <ele>1787</ele>
        <time>2010-01-01T10:42:14Z</time>
      </trkpt>
      <trkpt lat="46.25804" lon="6.873">
        <ele>1787</ele>
        <time>2010-01-01T10:42:16Z</time>
      </trkpt>
      <trkpt lat="46.25796" lon="6.87305">
        <ele>1786</ele>
        <time>2010-01-01T10:42:20Z</time>
      </trkpt>
      <trkpt lat="46.25788" lon="6.87311">
        <ele>1785</ele>
        <time>2010-01-01T10:42:23Z</time>
      </trkpt>
      <trkpt lat="46.25788" lon="6.87311">
        <ele>1785</ele>
        <time>2010-01-01T10:42:23Z</time>
      </trkpt>
      <trkpt lat="46.25778" lon="6.87317">
        <ele>1784</ele>
        <time>2010-01-01T10:42:27Z</time>
      </trkpt>
      <trkpt lat="46.25766" lon="6.87322">
        <ele>1782</ele>
        <time>2010-01-01T10:42:33Z</time>
      </trkpt>
      <trkpt lat="46.25758" lon="6.87322">
        <ele>1781</ele>
        <time>2010-01-01T10:42:36Z</time>
      </trkpt>
      <trkpt lat="46.25755" lon="6.87325">
        <ele>1780</ele>
        <time>2010-01-01T10:42:37Z</time>
      </trkpt>
      <trkpt lat="46.25754" lon="6.87325">
        <ele>1780</ele>
        <time>2010-01-01T10:42:38Z</time>
      </trkpt>
      <trkpt lat="46.25749" lon="6.87328">
        <ele>1777</ele>
        <time>2010-01-01T10:42:40Z</time>
      </trkpt>
      <trkpt lat="46.25745" lon="6.87331">
        <ele>1777</ele>
        <time>2010-01-01T10:42:42Z</time>
      </trkpt>
      <trkpt lat="46.25743" lon="6.87332">
        <ele>1777</ele>
        <time>2010-01-01T10:42:42Z</time>
      </trkpt>
      <trkpt lat="46.25741" lon="6.87332">
        <ele>1777</ele>
        <time>2010-01-01T10:42:43Z</time>
      </trkpt>
      <trkpt lat="46.25738" lon="6.87335">
        <ele>1772</ele>
        <time>2010-01-01T10:42:45Z</time>
      </trkpt>
      <trkpt lat="46.25734" lon="6.87339">
        <ele>1771</ele>
        <time>2010-01-01T10:42:47Z</time>
      </trkpt>
      <trkpt lat="46.25726" lon="6.87339">
        <ele>1769</ele>
        <time>2010-01-01T10:42:50Z</time>
      </trkpt>
      <trkpt lat="46.2572" lon="6.87338">
        <ele>1768</ele>
        <time>2010-01-01T10:42:52Z</time>
      </trkpt>
      <trkpt lat="46.25715" lon="6.8733">
        <ele>1774</ele>
        <time>2010-01-01T10:42:55Z</time>
      </trkpt>
      <trkpt lat="46.25712" lon="6.87326">
        <ele>1774</ele>
        <time>2010-01-01T10:42:57Z</time>
      </trkpt>
      <trkpt lat="46.25709" lon="6.87324">
        <ele>1774</ele>
        <time>2010-01-01T10:42:58Z</time>
      </trkpt>
      <trkpt lat="46.25704" lon="6.87322">
        <ele>1773</ele>
        <time>2010-01-01T10:43:00Z</time>
      </trkpt>
      <trkpt lat="46.257" lon="6.8732">
        <ele>1773</ele>
        <time>2010-01-01T10:43:02Z</time>
      </trkpt>
      <trkpt lat="46.25694" lon="6.87317">
        <ele>1772</ele>
        <time>2010-01-01T10:43:04Z</time>
      </trkpt>
      <trkpt lat="46.25686" lon="6.87315">
        <ele>1771</ele>
        <time>2010-01-01T10:43:08Z</time>
      </trkpt>
      <trkpt lat="46.2568" lon="6.87313">
        <ele>1770</ele>
        <time>2010-01-01T10:43:10Z</time>
      </trkpt>
      <trkpt lat="46.2567" lon="6.87309">
        <ele>1770</ele>
        <time>2010-01-01T10:43:14Z</time>
      </trkpt>
      <trkpt lat="46.25664" lon="6.8731">
        <ele>1763</ele>
        <time>2010-01-01T10:43:17Z</time>
      </trkpt>
      <trkpt lat="46.25655" lon="6.8731">
        <ele>1763</ele>
        <time>2010-01-01T10:43:20Z</time>
      </trkpt>
      <trkpt lat="46.25648" lon="6.87313">
        <ele>1762</ele>
        <time>2010-01-01T10:43:23Z</time>
      </trkpt>
      <trkpt lat="46.25643" lon="6.87313">
        <ele>1762</ele>
        <time>2010-01-01T10:43:25Z</time>
      </trkpt>
      <trkpt lat="46.25637" lon="6.87313">
        <ele>1762</ele>
        <time>2010-01-01T10:43:28Z</time>
      </trkpt>
      <trkpt lat="46.2563" lon="6.87312">
        <ele>1762</ele>
        <time>2010-01-01T10:43:31Z</time>
      </trkpt>
      <trkpt lat="46.25625" lon="6.87312">
        <ele>1761</ele>
        <time>2010-01-01T10:43:32Z</time>
      </trkpt>
      <trkpt lat="46.25618" lon="6.87316">
        <ele>1760</ele>
        <time>2010-01-01T10:43:35Z</time>
      </trkpt>
      <trkpt lat="46.25612" lon="6.87317">
        <ele>1760</ele>
        <time>2010-01-01T10:43:38Z</time>
      </trkpt>
      <trkpt lat="46.25604" lon="6.87318">
        <ele>1759</ele>
        <time>2010-01-01T10:43:41Z</time>
      </trkpt>
      <trkpt lat="46.25589" lon="6.87312">
        <ele>1758</ele>
        <time>2010-01-01T10:43:47Z</time>
      </trkpt>
      <trkpt lat="46.25583" lon="6.87308">
        <ele>1754</ele>
        <time>2010-01-01T10:43:50Z</time>
      </trkpt>
      <trkpt lat="46.25579" lon="6.87307">
        <ele>1754</ele>
        <time>2010-01-01T10:43:52Z</time>
      </trkpt>
      <trkpt lat="46.25564" lon="6.87306">
        <ele>1753</ele>
        <time>2010-01-01T10:43:57Z</time>
      </trkpt>
      <trkpt lat="46.25559" lon="6.87306">
        <ele>1753</ele>
        <time>2010-01-01T10:44:00Z</time>
      </trkpt>
      <trkpt lat="46.25553" lon="6.87305">
        <ele>1753</ele>
        <time>2010-01-01T10:44:02Z</time>
      </trkpt>
      <trkpt lat="46.25544" lon="6.87303">
        <ele>1753</ele>
        <time>2010-01-01T10:44:06Z</time>
      </trkpt>
      <trkpt lat="46.25538" lon="6.873">
        <ele>1752</ele>
        <time>2010-01-01T10:44:08Z</time>
      </trkpt>
      <trkpt lat="46.25531" lon="6.873">
        <ele>1752</ele>
        <time>2010-01-01T10:44:11Z</time>
      </trkpt>
      <trkpt lat="46.25524" lon="6.873">
        <ele>1752</ele>
        <time>2010-01-01T10:44:14Z</time>
      </trkpt>
      <trkpt lat="46.25517" lon="6.87299">
        <ele>1751</ele>
        <time>2010-01-01T10:44:17Z</time>
      </trkpt>
      <trkpt lat="46.25508" lon="6.87303">
        <ele>1750</ele>
        <time>2010-01-01T10:44:20Z</time>
      </trkpt>
      <trkpt lat="46.25503" lon="6.87304">
        <ele>1750</ele>
        <time>2010-01-01T10:44:22Z</time>
      </trkpt>
      <trkpt lat="46.25498" lon="6.87306">
        <ele>1746</ele>
        <time>2010-01-01T10:44:25Z</time>
      </trkpt>
      <trkpt lat="46.25493" lon="6.87306">
        <ele>1746</ele>
        <time>2010-01-01T10:44:27Z</time>
      </trkpt>
      <trkpt lat="46.25483" lon="6.87308">
        <ele>1746</ele>
        <time>2010-01-01T10:44:31Z</time>
      </trkpt>
      <trkpt lat="46.25472" lon="6.87311">
        <ele>1746</ele>
        <time>2010-01-01T10:44:35Z</time>
      </trkpt>
      <trkpt lat="46.25466" lon="6.87312">
        <ele>1746</ele>
        <time>2010-01-01T10:44:37Z</time>
      </trkpt>
      <trkpt lat="46.25458" lon="6.87315">
        <ele>1746</ele>
        <time>2010-01-01T10:44:41Z</time>
      </trkpt>
      <trkpt lat="46.25444" lon="6.87316">
        <ele>1745</ele>
        <time>2010-01-01T10:44:47Z</time>
      </trkpt>
      <trkpt lat="46.25436" lon="6.87318">
        <ele>1744</ele>
        <time>2010-01-01T10:44:50Z</time>
      </trkpt>
      <trkpt lat="46.25415" lon="6.87327">
        <ele>1739</ele>
        <time>2010-01-01T10:44:58Z</time>
      </trkpt>
      <trkpt lat="46.25405" lon="6.87329">
        <ele>1740</ele>
        <time>2010-01-01T10:45:03Z</time>
      </trkpt>
      <trkpt lat="46.25395" lon="6.87331">
        <ele>1740</ele>
        <time>2010-01-01T10:45:07Z</time>
      </trkpt>
      <trkpt lat="46.25388" lon="6.87327">
        <ele>1740</ele>
        <time>2010-01-01T10:45:09Z</time>
      </trkpt>
      <trkpt lat="46.2538" lon="6.87329">
        <ele>1740</ele>
        <time>2010-01-01T10:45:13Z</time>
      </trkpt>
      <trkpt lat="46.25374" lon="6.87326">
        <ele>1740</ele>
        <time>2010-01-01T10:45:15Z</time>
      </trkpt>
      <trkpt lat="46.25368" lon="6.87326">
        <ele>1740</ele>
        <time>2010-01-01T10:45:18Z</time>
      </trkpt>
      <trkpt lat="46.25358" lon="6.87324">
        <ele>1739</ele>
        <time>2010-01-01T10:45:22Z</time>
      </trkpt>
      <trkpt lat="46.25351" lon="6.87324">
        <ele>1738</ele>
        <time>2010-01-01T10:45:25Z</time>
      </trkpt>
      <trkpt lat="46.25347" lon="6.87323">
        <ele>1738</ele>
        <time>2010-01-01T10:45:26Z</time>
      </trkpt>
      <trkpt lat="46.25339" lon="6.87322">
        <ele>1737</ele>
        <time>2010-01-01T10:45:29Z</time>
      </trkpt>
      <trkpt lat="46.25333" lon="6.8732">
        <ele>1737</ele>
        <time>2010-01-01T10:45:32Z</time>
      </trkpt>
      <trkpt lat="46.25323" lon="6.87311">
        <ele>1733</ele>
        <time>2010-01-01T10:45:37Z</time>
      </trkpt>
      <trkpt lat="46.25316" lon="6.87311">
        <ele>1733</ele>
        <time>2010-01-01T10:45:40Z</time>
      </trkpt>
      <trkpt lat="46.25307" lon="6.87307">
        <ele>1732</ele>
        <time>2010-01-01T10:45:43Z</time>
      </trkpt>
      <trkpt lat="46.25299" lon="6.87307">
        <ele>1732</ele>
        <time>2010-01-01T10:45:46Z</time>
      </trkpt>
      <trkpt lat="46.25294" lon="6.87306">
        <ele>1731</ele>
        <time>2010-01-01T10:45:48Z</time>
      </trkpt>
      <trkpt lat="46.2528" lon="6.873">
        <ele>1730</ele>
        <time>2010-01-01T10:45:54Z</time>
      </trkpt>
      <trkpt lat="46.2527" lon="6.87297">
        <ele>1730</ele>
        <time>2010-01-01T10:45:58Z</time>
      </trkpt>
      <trkpt lat="46.25261" lon="6.87294">
        <ele>1729</ele>
        <time>2010-01-01T10:46:02Z</time>
      </trkpt>
      <trkpt lat="46.25252" lon="6.8729">
        <ele>1729</ele>
        <time>2010-01-01T10:46:06Z</time>
      </trkpt>
      <trkpt lat="46.25244" lon="6.87289">
        <ele>1722</ele>
        <time>2010-01-01T10:46:09Z</time>
      </trkpt>
      <trkpt lat="46.25234" lon="6.87292">
        <ele>1721</ele>
        <time>2010-01-01T10:46:13Z</time>
      </trkpt>
      <trkpt lat="46.25226" lon="6.87298">
        <ele>1721</ele>
        <time>2010-01-01T10:46:17Z</time>
      </trkpt>
      <trkpt lat="46.25217" lon="6.87304">
        <ele>1721</ele>
        <time>2010-01-01T10:46:20Z</time>
      </trkpt>
      <trkpt lat="46.25208" lon="6.87313">
        <ele>1720</ele>
        <time>2010-01-01T10:46:25Z</time>
      </trkpt>
      <trkpt lat="46.25198" lon="6.87321">
        <ele>1720</ele>
        <time>2010-01-01T10:46:29Z</time>
      </trkpt>
      <trkpt lat="46.25193" lon="6.87324">
        <ele>1719</ele>
        <time>2010-01-01T10:46:32Z</time>
      </trkpt>
      <trkpt lat="46.25188" lon="6.87325">
        <ele>1719</ele>
        <time>2010-01-01T10:46:34Z</time>
      </trkpt>
      <trkpt lat="46.25179" lon="6.87328">
        <ele>1718</ele>
        <time>2010-01-01T10:46:37Z</time>
      </trkpt>
      <trkpt lat="46.25171" lon="6.87328">
        <ele>1717</ele>
        <time>2010-01-01T10:46:41Z</time>
      </trkpt>
      <trkpt lat="46.2516" lon="6.87325">
        <ele>1712</ele>
        <time>2010-01-01T10:46:45Z</time>
      </trkpt>
      <trkpt lat="46.2515" lon="6.8732">
        <ele>1710</ele>
        <time>2010-01-01T10:46:49Z</time>
      </trkpt>
      <trkpt lat="46.2514" lon="6.87318">
        <ele>1709</ele>
        <time>2010-01-01T10:46:53Z</time>
      </trkpt>
      <trkpt lat="46.25132" lon="6.87314">
        <ele>1707</ele>
        <time>2010-01-01T10:46:57Z</time>
      </trkpt>
      <trkpt lat="46.25124" lon="6.87311">
        <ele>1706</ele>
        <time>2010-01-01T10:47:00Z</time>
      </trkpt>
      <trkpt lat="46.2512" lon="6.87304">
        <ele>1706</ele>
        <time>2010-01-01T10:47:03Z</time>
      </trkpt>
      <trkpt lat="46.2511" lon="6.87281">
        <ele>1704</ele>
        <time>2010-01-01T10:47:10Z</time>
      </trkpt>
      <trkpt lat="46.25103" lon="6.87253">
        <ele>1702</ele>
        <time>2010-01-01T10:47:18Z</time>
      </trkpt>
      <trkpt lat="46.25102" lon="6.87238">
        <ele>1698</ele>
        <time>2010-01-01T10:47:23Z</time>
      </trkpt>
      <trkpt lat="46.25101" lon="6.87226">
        <ele>1697</ele>
        <time>2010-01-01T10:47:26Z</time>
      </trkpt>
      <trkpt lat="46.25098" lon="6.87221">
        <ele>1697</ele>
        <time>2010-01-01T10:47:28Z</time>
      </trkpt>
      <trkpt lat="46.25096" lon="6.87215">
        <ele>1696</ele>
        <time>2010-01-01T10:47:29Z</time>
      </trkpt>
      <trkpt lat="46.25092" lon="6.87212">
        <ele>1696</ele>
        <time>2010-01-01T10:47:31Z</time>
      </trkpt>
      <trkpt lat="46.25089" lon="6.87207">
        <ele>1695</ele>
        <time>2010-01-01T10:47:33Z</time>
      </trkpt>
      <trkpt lat="46.25087" lon="6.87201">
        <ele>1695</ele>
        <time>2010-01-01T10:47:35Z</time>
      </trkpt>
      <trkpt lat="46.25088" lon="6.87193">
        <ele>1693</ele>
        <time>2010-01-01T10:47:37Z</time>
      </trkpt>
      <trkpt lat="46.25088" lon="6.87193">
        <ele>1693</ele>
        <time>2010-01-01T10:47:37Z</time>
      </trkpt>
      <trkpt lat="46.25088" lon="6.87186">
        <ele>1692</ele>
        <time>2010-01-01T10:47:39Z</time>
      </trkpt>
      <trkpt lat="46.25087" lon="6.87185">
        <ele>1692</ele>
        <time>2010-01-01T10:47:39Z</time>
      </trkpt>
      <trkpt lat="46.25088" lon="6.87179">
        <ele>1690</ele>
        <time>2010-01-01T10:47:41Z</time>
      </trkpt>
      <trkpt lat="46.25088" lon="6.87178">
        <ele>1690</ele>
        <time>2010-01-01T10:47:41Z</time>
      </trkpt>
      <trkpt lat="46.25089" lon="6.87177">
        <ele>1690</ele>
        <time>2010-01-01T10:47:42Z</time>
      </trkpt>
      <trkpt lat="46.2509" lon="6.87176">
        <ele>1690</ele>
        <time>2010-01-01T10:47:42Z</time>
      </trkpt>
      <trkpt lat="46.25094" lon="6.87169">
        <ele>1690</ele>
        <time>2010-01-01T10:47:45Z</time>
      </trkpt>
      <trkpt lat="46.25104" lon="6.87157">
        <ele>1687</ele>
        <time>2010-01-01T10:47:50Z</time>
      </trkpt>
      <trkpt lat="46.2511" lon="6.87153">
        <ele>1688</ele>
        <time>2010-01-01T10:47:52Z</time>
      </trkpt>
      <trkpt lat="46.25115" lon="6.87148">
        <ele>1688</ele>
        <time>2010-01-01T10:47:55Z</time>
      </trkpt>
      <trkpt lat="46.2512" lon="6.87144">
        <ele>1689</ele>
        <time>2010-01-01T10:47:57Z</time>
      </trkpt>
      <trkpt lat="46.25125" lon="6.87139">
        <ele>1689</ele>
        <time>2010-01-01T10:48:00Z</time>
      </trkpt>
      <trkpt lat="46.25123" lon="6.87127">
        <ele>1688</ele>
        <time>2010-01-01T10:48:03Z</time>
      </trkpt>
      <trkpt lat="46.25117" lon="6.8712">
        <ele>1687</ele>
        <time>2010-01-01T10:48:06Z</time>
      </trkpt>
      <trkpt lat="46.25108" lon="6.87106">
        <ele>1686</ele>
        <time>2010-01-01T10:48:11Z</time>
      </trkpt>
      <trkpt lat="46.25098" lon="6.87101">
        <ele>1684</ele>
        <time>2010-01-01T10:48:15Z</time>
      </trkpt>
      <trkpt lat="46.25083" lon="6.87096">
        <ele>1681</ele>
        <time>2010-01-01T10:48:21Z</time>
      </trkpt>
      <trkpt lat="46.2508" lon="6.87089">
        <ele>1676</ele>
        <time>2010-01-01T10:48:24Z</time>
      </trkpt>
      <trkpt lat="46.25073" lon="6.87083">
        <ele>1676</ele>
        <time>2010-01-01T10:48:27Z</time>
      </trkpt>
      <trkpt lat="46.25069" lon="6.87077">
        <ele>1676</ele>
        <time>2010-01-01T10:48:30Z</time>
      </trkpt>
      <trkpt lat="46.2506" lon="6.8707">
        <ele>1675</ele>
        <time>2010-01-01T10:48:34Z</time>
      </trkpt>
      <trkpt lat="46.2505" lon="6.87065">
        <ele>1674</ele>
        <time>2010-01-01T10:48:38Z</time>
      </trkpt>
      <trkpt lat="46.25034" lon="6.87051">
        <ele>1674</ele>
        <time>2010-01-01T10:48:45Z</time>
      </trkpt>
      <trkpt lat="46.25024" lon="6.87034">
        <ele>1674</ele>
        <time>2010-01-01T10:48:51Z</time>
      </trkpt>
      <trkpt lat="46.25005" lon="6.87008">
        <ele>1674</ele>
        <time>2010-01-01T10:49:02Z</time>
      </trkpt>
      <trkpt lat="46.24977" lon="6.86963">
        <ele>1673</ele>
        <time>2010-01-01T10:49:18Z</time>
      </trkpt>
      <trkpt lat="46.24962" lon="6.86938">
        <ele>1674</ele>
        <time>2010-01-01T10:49:28Z</time>
      </trkpt>
      <trkpt lat="46.2495" lon="6.8692">
        <ele>1672</ele>
        <time>2010-01-01T10:49:35Z</time>
      </trkpt>
      <trkpt lat="46.24943" lon="6.86904">
        <ele>1680</ele>
        <time>2010-01-01T10:49:40Z</time>
      </trkpt>
      <trkpt lat="46.24923" lon="6.8689">
        <ele>1678</ele>
        <time>2010-01-01T10:49:49Z</time>
      </trkpt>
      <trkpt lat="46.24901" lon="6.86877">
        <ele>1669</ele>
        <time>2010-01-01T10:49:58Z</time>
      </trkpt>
      <trkpt lat="46.2489" lon="6.86871">
        <ele>1669</ele>
        <time>2010-01-01T10:50:03Z</time>
      </trkpt>
      <trkpt lat="46.24884" lon="6.86862">
        <ele>1670</ele>
        <time>2010-01-01T10:50:07Z</time>
      </trkpt>
      <trkpt lat="46.24876" lon="6.86852">
        <ele>1670</ele>
        <time>2010-01-01T10:50:11Z</time>
      </trkpt>
      <trkpt lat="46.2487" lon="6.86853">
        <ele>1670</ele>
        <time>2010-01-01T10:50:13Z</time>
      </trkpt>
      <trkpt lat="46.24859" lon="6.86852">
        <ele>1670</ele>
        <time>2010-01-01T10:50:18Z</time>
      </trkpt>
      <trkpt lat="46.24849" lon="6.86853">
        <ele>1670</ele>
        <time>2010-01-01T10:50:22Z</time>
      </trkpt>
      <trkpt lat="46.24836" lon="6.86851">
        <ele>1671</ele>
        <time>2010-01-01T10:50:27Z</time>
      </trkpt>
      <trkpt lat="46.24808" lon="6.86838">
        <ele>1669</ele>
        <time>2010-01-01T10:50:39Z</time>
      </trkpt>
      <trkpt lat="46.24795" lon="6.86844">
        <ele>1669</ele>
        <time>2010-01-01T10:50:44Z</time>
      </trkpt>
      <trkpt lat="46.24782" lon="6.86842">
        <ele>1669</ele>
        <time>2010-01-01T10:50:49Z</time>
      </trkpt>
      <trkpt lat="46.24767" lon="6.86857">
        <ele>1669</ele>
        <time>2010-01-01T10:50:56Z</time>
      </trkpt>
      <trkpt lat="46.24755" lon="6.86863">
        <ele>1668</ele>
        <time>2010-01-01T10:51:02Z</time>
      </trkpt>
      <trkpt lat="46.24737" lon="6.86874">
        <ele>1663</ele>
        <time>2010-01-01T10:51:09Z</time>
      </trkpt>
      <trkpt lat="46.24728" lon="6.8688">
        <ele>1661</ele>
        <time>2010-01-01T10:51:13Z</time>
      </trkpt>
      <trkpt lat="46.24722" lon="6.86883">
        <ele>1661</ele>
        <time>2010-01-01T10:51:16Z</time>
      </trkpt>
      <trkpt lat="46.24711" lon="6.86881">
        <ele>1660</ele>
        <time>2010-01-01T10:51:20Z</time>
      </trkpt>
      <trkpt lat="46.24699" lon="6.8688">
        <ele>1660</ele>
        <time>2010-01-01T10:51:25Z</time>
      </trkpt>
      <trkpt lat="46.24688" lon="6.86868">
        <ele>1661</ele>
        <time>2010-01-01T10:51:31Z</time>
      </trkpt>
      <trkpt lat="46.24681" lon="6.86852">
        <ele>1662</ele>
        <time>2010-01-01T10:51:36Z</time>
      </trkpt>
      <trkpt lat="46.2467" lon="6.8683">
        <ele>1666</ele>
        <time>2010-01-01T10:51:44Z</time>
      </trkpt>
      <trkpt lat="46.24661" lon="6.86817">
        <ele>1654</ele>
        <time>2010-01-01T10:51:48Z</time>
      </trkpt>
      <trkpt lat="46.24648" lon="6.86791">
        <ele>1650</ele>
        <time>2010-01-01T10:51:57Z</time>
      </trkpt>
      <trkpt lat="46.24639" lon="6.8674">
        <ele>1651</ele>
        <time>2010-01-01T10:52:12Z</time>
      </trkpt>
      <trkpt lat="46.24637" lon="6.8673">
        <ele>1649</ele>
        <time>2010-01-01T10:52:15Z</time>
      </trkpt>
      <trkpt lat="46.24637" lon="6.86718">
        <ele>1648</ele>
        <time>2010-01-01T10:52:18Z</time>
      </trkpt>
      <trkpt lat="46.24637" lon="6.86674">
        <ele>1649</ele>
        <time>2010-01-01T10:52:30Z</time>
      </trkpt>
      <trkpt lat="46.24639" lon="6.86659">
        <ele>1649</ele>
        <time>2010-01-01T10:52:35Z</time>
      </trkpt>
      <trkpt lat="46.2464" lon="6.86642">
        <ele>1648</ele>
        <time>2010-01-01T10:52:39Z</time>
      </trkpt>
      <trkpt lat="46.24633" lon="6.86615">
        <ele>1645</ele>
        <time>2010-01-01T10:52:47Z</time>
      </trkpt>
      <trkpt lat="46.24631" lon="6.86601">
        <ele>1645</ele>
        <time>2010-01-01T10:52:51Z</time>
      </trkpt>
      <trkpt lat="46.24613" lon="6.86567">
        <ele>1642</ele>
        <time>2010-01-01T10:53:03Z</time>
      </trkpt>
      <trkpt lat="46.24604" lon="6.86555">
        <ele>1641</ele>
        <time>2010-01-01T10:53:08Z</time>
      </trkpt>
      <trkpt lat="46.24593" lon="6.8653">
        <ele>1641</ele>
        <time>2010-01-01T10:53:16Z</time>
      </trkpt>
      <trkpt lat="46.24576" lon="6.86497">
        <ele>1627</ele>
        <time>2010-01-01T10:53:28Z</time>
      </trkpt>
      <trkpt lat="46.24574" lon="6.86477">
        <ele>1622</ele>
        <time>2010-01-01T10:53:33Z</time>
      </trkpt>
      <trkpt lat="46.24575" lon="6.86468">
        <ele>1621</ele>
        <time>2010-01-01T10:53:36Z</time>
      </trkpt>
      <trkpt lat="46.24576" lon="6.86467">
        <ele>1621</ele>
        <time>2010-01-01T10:53:36Z</time>
      </trkpt>
      <trkpt lat="46.2458" lon="6.86455">
        <ele>1621</ele>
        <time>2010-01-01T10:53:40Z</time>
      </trkpt>
      <trkpt lat="46.24583" lon="6.86436">
        <ele>1625</ele>
        <time>2010-01-01T10:53:45Z</time>
      </trkpt>
      <trkpt lat="46.24583" lon="6.86419">
        <ele>1637</ele>
        <time>2010-01-01T10:53:50Z</time>
      </trkpt>
      <trkpt lat="46.24581" lon="6.86402">
        <ele>1628</ele>
        <time>2010-01-01T10:53:55Z</time>
      </trkpt>
      <trkpt lat="46.24582" lon="6.86387">
        <ele>1626</ele>
        <time>2010-01-01T10:53:59Z</time>
      </trkpt>
      <trkpt lat="46.24582" lon="6.86386">
        <ele>1625</ele>
        <time>2010-01-01T10:53:59Z</time>
      </trkpt>
      <trkpt lat="46.24586" lon="6.86375">
        <ele>1650</ele>
        <time>2010-01-01T10:54:03Z</time>
      </trkpt>
      <trkpt lat="46.2459" lon="6.86355">
        <ele>1650</ele>
        <time>2010-01-01T10:54:08Z</time>
      </trkpt>
      <trkpt lat="46.24592" lon="6.86347">
        <ele>1648</ele>
        <time>2010-01-01T10:54:11Z</time>
      </trkpt>
      <trkpt lat="46.24591" lon="6.86324">
        <ele>1649</ele>
        <time>2010-01-01T10:54:17Z</time>
      </trkpt>
      <trkpt lat="46.2459" lon="6.8631">
        <ele>1653</ele>
        <time>2010-01-01T10:54:21Z</time>
      </trkpt>
      <trkpt lat="46.2459" lon="6.86309">
        <ele>1653</ele>
        <time>2010-01-01T10:54:21Z</time>
      </trkpt>
      <trkpt lat="46.24591" lon="6.86297">
        <ele>1655</ele>
        <time>2010-01-01T10:54:25Z</time>
      </trkpt>
      <trkpt lat="46.24591" lon="6.86286">
        <ele>1655</ele>
        <time>2010-01-01T10:54:28Z</time>
      </trkpt>
      <trkpt lat="46.24591" lon="6.86285">
        <ele>1655</ele>
        <time>2010-01-01T10:54:28Z</time>
      </trkpt>
      <trkpt lat="46.2459" lon="6.86269">
        <ele>1653</ele>
        <time>2010-01-01T10:54:33Z</time>
      </trkpt>
      <trkpt lat="46.24589" lon="6.86237">
        <ele>1652</ele>
        <time>2010-01-01T10:54:41Z</time>
      </trkpt>
      <trkpt lat="46.2459" lon="6.86223">
        <ele>1655</ele>
        <time>2010-01-01T10:54:45Z</time>
      </trkpt>
      <trkpt lat="46.24591" lon="6.86203">
        <ele>1656</ele>
        <time>2010-01-01T10:54:51Z</time>
      </trkpt>
      <trkpt lat="46.24596" lon="6.86189">
        <ele>1656</ele>
        <time>2010-01-01T10:54:55Z</time>
      </trkpt>
      <trkpt lat="46.246" lon="6.86179">
        <ele>1655</ele>
        <time>2010-01-01T10:54:58Z</time>
      </trkpt>
      <trkpt lat="46.24602" lon="6.8617">
        <ele>1654</ele>
        <time>2010-01-01T10:55:01Z</time>
      </trkpt>
      <trkpt lat="46.24605" lon="6.86162">
        <ele>1655</ele>
        <time>2010-01-01T10:55:03Z</time>
      </trkpt>
      <trkpt lat="46.24608" lon="6.86157">
        <ele>1656</ele>
        <time>2010-01-01T10:55:05Z</time>
      </trkpt>
      <trkpt lat="46.24608" lon="6.86144">
        <ele>1657</ele>
        <time>2010-01-01T10:55:09Z</time>
      </trkpt>
      <trkpt lat="46.24608" lon="6.86143">
        <ele>1657</ele>
        <time>2010-01-01T10:55:09Z</time>
      </trkpt>
      <trkpt lat="46.24611" lon="6.86127">
        <ele>1658</ele>
        <time>2010-01-01T10:55:14Z</time>
      </trkpt>
      <trkpt lat="46.24616" lon="6.86119">
        <ele>1659</ele>
        <time>2010-01-01T10:55:17Z</time>
      </trkpt>
      <trkpt lat="46.24618" lon="6.86115">
        <ele>1659</ele>
        <time>2010-01-01T10:55:18Z</time>
      </trkpt>
      <trkpt lat="46.24615" lon="6.8611">
        <ele>1658</ele>
        <time>2010-01-01T10:55:20Z</time>
      </trkpt>
      <trkpt lat="46.2461" lon="6.86104">
        <ele>1656</ele>
        <time>2010-01-01T10:55:22Z</time>
      </trkpt>
      <trkpt lat="46.2461" lon="6.86085">
        <ele>1655</ele>
        <time>2010-01-01T10:55:28Z</time>
      </trkpt>
      <trkpt lat="46.2461" lon="6.8607">
        <ele>1653</ele>
        <time>2010-01-01T10:55:32Z</time>
      </trkpt>
      <trkpt lat="46.24611" lon="6.86061">
        <ele>1654</ele>
        <time>2010-01-01T10:55:34Z</time>
      </trkpt>
      <trkpt lat="46.24605" lon="6.8603">
        <ele>1653</ele>
        <time>2010-01-01T10:55:43Z</time>
      </trkpt>
      <trkpt lat="46.24602" lon="6.86012">
        <ele>1650</ele>
        <time>2010-01-01T10:55:48Z</time>
      </trkpt>
      <trkpt lat="46.24601" lon="6.85993">
        <ele>1645</ele>
        <time>2010-01-01T10:55:54Z</time>
      </trkpt>
      <trkpt lat="46.24601" lon="6.85974">
        <ele>1646</ele>
        <time>2010-01-01T10:55:59Z</time>
      </trkpt>
      <trkpt lat="46.24605" lon="6.85958">
        <ele>1646</ele>
        <time>2010-01-01T10:56:03Z</time>
      </trkpt>
      <trkpt lat="46.24619" lon="6.85938">
        <ele>1646</ele>
        <time>2010-01-01T10:56:11Z</time>
      </trkpt>
      <trkpt lat="46.24627" lon="6.85926">
        <ele>1648</ele>
        <time>2010-01-01T10:56:16Z</time>
      </trkpt>
      <trkpt lat="46.24634" lon="6.85915">
        <ele>1642</ele>
        <time>2010-01-01T10:56:20Z</time>
      </trkpt>
      <trkpt lat="46.24646" lon="6.85896">
        <ele>1643</ele>
        <time>2010-01-01T10:56:27Z</time>
      </trkpt>
      <trkpt lat="46.24653" lon="6.85868">
        <ele>1641</ele>
        <time>2010-01-01T10:56:35Z</time>
      </trkpt>
      <trkpt lat="46.24659" lon="6.85852">
        <ele>1642</ele>
        <time>2010-01-01T10:56:40Z</time>
      </trkpt>
      <trkpt lat="46.24667" lon="6.8584">
        <ele>1650</ele>
        <time>2010-01-01T10:56:45Z</time>
      </trkpt>
      <trkpt lat="46.24674" lon="6.85834">
        <ele>1651</ele>
        <time>2010-01-01T10:56:48Z</time>
      </trkpt>
      <trkpt lat="46.2468" lon="6.85827">
        <ele>1646</ele>
        <time>2010-01-01T10:56:51Z</time>
      </trkpt>
      <trkpt lat="46.24686" lon="6.85814">
        <ele>1646</ele>
        <time>2010-01-01T10:56:56Z</time>
      </trkpt>
      <trkpt lat="46.24687" lon="6.85812">
        <ele>1645</ele>
        <time>2010-01-01T10:56:56Z</time>
      </trkpt>
      <trkpt lat="46.24691" lon="6.85795">
        <ele>1644</ele>
        <time>2010-01-01T10:57:01Z</time>
      </trkpt>
      <trkpt lat="46.24691" lon="6.85794">
        <ele>1643</ele>
        <time>2010-01-01T10:57:02Z</time>
      </trkpt>
      <trkpt lat="46.24692" lon="6.85779">
        <ele>1641</ele>
        <time>2010-01-01T10:57:06Z</time>
      </trkpt>
      <trkpt lat="46.24694" lon="6.85763">
        <ele>1639</ele>
        <time>2010-01-01T10:57:10Z</time>
      </trkpt>
      <trkpt lat="46.24694" lon="6.85762">
        <ele>1638</ele>
        <time>2010-01-01T10:57:10Z</time>
      </trkpt>
      <trkpt lat="46.24702" lon="6.8575">
        <ele>1639</ele>
        <time>2010-01-01T10:57:15Z</time>
      </trkpt>
      <trkpt lat="46.24716" lon="6.85739">
        <ele>1625</ele>
        <time>2010-01-01T10:57:21Z</time>
      </trkpt>
      <trkpt lat="46.24735" lon="6.8574">
        <ele>1631</ele>
        <time>2010-01-01T10:57:29Z</time>
      </trkpt>
      <trkpt lat="46.24756" lon="6.85745">
        <ele>1642</ele>
        <time>2010-01-01T10:57:37Z</time>
      </trkpt>
      <trkpt lat="46.24776" lon="6.85739">
        <ele>1642</ele>
        <time>2010-01-01T10:57:46Z</time>
      </trkpt>
      <trkpt lat="46.24786" lon="6.85729">
        <ele>1642</ele>
        <time>2010-01-01T10:57:51Z</time>
      </trkpt>
      <trkpt lat="46.24796" lon="6.8572">
        <ele>1642</ele>
        <time>2010-01-01T10:57:55Z</time>
      </trkpt>
      <trkpt lat="46.24796" lon="6.8572">
        <ele>1642</ele>
        <time>2010-01-01T10:57:55Z</time>
      </trkpt>
      <trkpt lat="46.24818" lon="6.85691">
        <ele>1639</ele>
        <time>2010-01-01T10:58:07Z</time>
      </trkpt>
      <trkpt lat="46.24822" lon="6.85674">
        <ele>1637</ele>
        <time>2010-01-01T10:58:12Z</time>
      </trkpt>
      <trkpt lat="46.24829" lon="6.85656">
        <ele>1628</ele>
        <time>2010-01-01T10:58:18Z</time>
      </trkpt>
      <trkpt lat="46.24836" lon="6.85637">
        <ele>1639</ele>
        <time>2010-01-01T10:58:24Z</time>
      </trkpt>
      <trkpt lat="46.24835" lon="6.85624">
        <ele>1637</ele>
        <time>2010-01-01T10:58:27Z</time>
      </trkpt>
      <trkpt lat="46.24842" lon="6.85598">
        <ele>1631</ele>
        <time>2010-01-01T10:58:35Z</time>
      </trkpt>
      <trkpt lat="46.24844" lon="6.8558">
        <ele>1620</ele>
        <time>2010-01-01T10:58:40Z</time>
      </trkpt>
      <trkpt lat="46.24847" lon="6.85561">
        <ele>1619</ele>
        <time>2010-01-01T10:58:45Z</time>
      </trkpt>
      <trkpt lat="46.24852" lon="6.85542">
        <ele>1617</ele>
        <time>2010-01-01T10:58:51Z</time>
      </trkpt>
      <trkpt lat="46.24856" lon="6.85529">
        <ele>1616</ele>
        <time>2010-01-01T10:58:55Z</time>
      </trkpt>
      <trkpt lat="46.24862" lon="6.85522">
        <ele>1615</ele>
        <time>2010-01-01T10:58:58Z</time>
      </trkpt>
      <trkpt lat="46.24873" lon="6.85515">
        <ele>1616</ele>
        <time>2010-01-01T10:59:03Z</time>
      </trkpt>
      <trkpt lat="46.24879" lon="6.85512">
        <ele>1616</ele>
        <time>2010-01-01T10:59:05Z</time>
      </trkpt>
      <trkpt lat="46.24883" lon="6.85501">
        <ele>1615</ele>
        <time>2010-01-01T10:59:09Z</time>
      </trkpt>
      <trkpt lat="46.24896" lon="6.85494">
        <ele>1602</ele>
        <time>2010-01-01T10:59:14Z</time>
      </trkpt>
      <trkpt lat="46.2491" lon="6.85486">
        <ele>1603</ele>
        <time>2010-01-01T10:59:20Z</time>
      </trkpt>
      <trkpt lat="46.24925" lon="6.85485">
        <ele>1607</ele>
        <time>2010-01-01T10:59:26Z</time>
      </trkpt>
      <trkpt lat="46.24944" lon="6.85488">
        <ele>1606</ele>
        <time>2010-01-01T10:59:34Z</time>
      </trkpt>
      <trkpt lat="46.24958" lon="6.85491">
        <ele>1607</ele>
        <time>2010-01-01T10:59:40Z</time>
      </trkpt>
      <trkpt lat="46.24975" lon="6.85493">
        <ele>1608</ele>
        <time>2010-01-01T10:59:46Z</time>
      </trkpt>
      <trkpt lat="46.24981" lon="6.85492">
        <ele>1609</ele>
        <time>2010-01-01T10:59:49Z</time>
      </trkpt>
      <trkpt lat="46.24991" lon="6.85489">
        <ele>1611</ele>
        <time>2010-01-01T10:59:53Z</time>
      </trkpt>
      <trkpt lat="46.24995" lon="6.85475">
        <ele>1607</ele>
        <time>2010-01-01T10:59:57Z</time>
      </trkpt>
      <trkpt lat="46.25" lon="6.85468">
        <ele>1610</ele>
        <time>2010-01-01T11:00:00Z</time>
      </trkpt>
      <trkpt lat="46.25002" lon="6.85453">
        <ele>1607</ele>
        <time>2010-01-01T11:00:04Z</time>
      </trkpt>
      <trkpt lat="46.2501" lon="6.85433">
        <ele>1602</ele>
        <time>2010-01-01T11:00:11Z</time>
      </trkpt>
      <trkpt lat="46.25019" lon="6.85414">
        <ele>1591</ele>
        <time>2010-01-01T11:00:17Z</time>
      </trkpt>
      <trkpt lat="46.25026" lon="6.85401">
        <ele>1590</ele>
        <time>2010-01-01T11:00:21Z</time>
      </trkpt>
      <trkpt lat="46.25046" lon="6.85385">
        <ele>1590</ele>
        <time>2010-01-01T11:00:31Z</time>
      </trkpt>
      <trkpt lat="46.25056" lon="6.85378">
        <ele>1590</ele>
        <time>2010-01-01T11:00:35Z</time>
      </trkpt>
      <trkpt lat="46.25068" lon="6.85376">
        <ele>1590</ele>
        <time>2010-01-01T11:00:40Z</time>
      </trkpt>
      <trkpt lat="46.2508" lon="6.85381">
        <ele>1591</ele>
        <time>2010-01-01T11:00:45Z</time>
      </trkpt>
      <trkpt lat="46.25081" lon="6.85381">
        <ele>1591</ele>
        <time>2010-01-01T11:00:46Z</time>
      </trkpt>
      <trkpt lat="46.25097" lon="6.85389">
        <ele>1596</ele>
        <time>2010-01-01T11:00:52Z</time>
      </trkpt>
      <trkpt lat="46.25101" lon="6.85391">
        <ele>1596</ele>
        <time>2010-01-01T11:00:54Z</time>
      </trkpt>
      <trkpt lat="46.25107" lon="6.85394">
        <ele>1596</ele>
        <time>2010-01-01T11:00:56Z</time>
      </trkpt>
      <trkpt lat="46.25112" lon="6.8539">
        <ele>1596</ele>
        <time>2010-01-01T11:00:59Z</time>
      </trkpt>
      <trkpt lat="46.25123" lon="6.85393">
        <ele>1596</ele>
        <time>2010-01-01T11:01:03Z</time>
      </trkpt>
      <trkpt lat="46.25132" lon="6.85392">
        <ele>1596</ele>
        <time>2010-01-01T11:01:07Z</time>
      </trkpt>
      <trkpt lat="46.25139" lon="6.85385">
        <ele>1596</ele>
        <time>2010-01-01T11:01:10Z</time>
      </trkpt>
      <trkpt lat="46.25141" lon="6.85374">
        <ele>1594</ele>
        <time>2010-01-01T11:01:13Z</time>
      </trkpt>
      <trkpt lat="46.25138" lon="6.85352">
        <ele>1591</ele>
        <time>2010-01-01T11:01:20Z</time>
      </trkpt>
      <trkpt lat="46.25128" lon="6.85335">
        <ele>1591</ele>
        <time>2010-01-01T11:01:26Z</time>
      </trkpt>
      <trkpt lat="46.25122" lon="6.85321">
        <ele>1580</ele>
        <time>2010-01-01T11:01:30Z</time>
      </trkpt>
      <trkpt lat="46.25111" lon="6.85305">
        <ele>1579</ele>
        <time>2010-01-01T11:01:36Z</time>
      </trkpt>
      <trkpt lat="46.25102" lon="6.85294">
        <ele>1579</ele>
        <time>2010-01-01T11:01:41Z</time>
      </trkpt>
      <trkpt lat="46.25091" lon="6.85281">
        <ele>1577</ele>
        <time>2010-01-01T11:01:47Z</time>
      </trkpt>
      <trkpt lat="46.25069" lon="6.8527">
        <ele>1573</ele>
        <time>2010-01-01T11:01:56Z</time>
      </trkpt>
      <trkpt lat="46.25052" lon="6.8527">
        <ele>1572</ele>
        <time>2010-01-01T11:02:03Z</time>
      </trkpt>
      <trkpt lat="46.2504" lon="6.85265">
        <ele>1570</ele>
        <time>2010-01-01T11:02:08Z</time>
      </trkpt>
      <trkpt lat="46.25024" lon="6.85264">
        <ele>1568</ele>
        <time>2010-01-01T11:02:14Z</time>
      </trkpt>
      <trkpt lat="46.25006" lon="6.85273">
        <ele>1567</ele>
        <time>2010-01-01T11:02:22Z</time>
      </trkpt>
      <trkpt lat="46.24977" lon="6.85303">
        <ele>1559</ele>
        <time>2010-01-01T11:02:36Z</time>
      </trkpt>
      <trkpt lat="46.24957" lon="6.85324">
        <ele>1559</ele>
        <time>2010-01-01T11:02:46Z</time>
      </trkpt>
      <trkpt lat="46.24947" lon="6.85345">
        <ele>1572</ele>
        <time>2010-01-01T11:02:53Z</time>
      </trkpt>
      <trkpt lat="46.24937" lon="6.85363">
        <ele>1574</ele>
        <time>2010-01-01T11:03:00Z</time>
      </trkpt>
      <trkpt lat="46.24922" lon="6.85371">
        <ele>1575</ele>
        <time>2010-01-01T11:03:06Z</time>
      </trkpt>
      <trkpt lat="46.24909" lon="6.8536">
        <ele>1563</ele>
        <time>2010-01-01T11:03:12Z</time>
      </trkpt>
      <trkpt lat="46.24892" lon="6.85346">
        <ele>1560</ele>
        <time>2010-01-01T11:03:20Z</time>
      </trkpt>
      <trkpt lat="46.24869" lon="6.85347">
        <ele>1558</ele>
        <time>2010-01-01T11:03:29Z</time>
      </trkpt>
      <trkpt lat="46.24839" lon="6.85359">
        <ele>1555</ele>
        <time>2010-01-01T11:03:42Z</time>
      </trkpt>
      <trkpt lat="46.24812" lon="6.85375">
        <ele>1547</ele>
        <time>2010-01-01T11:03:53Z</time>
      </trkpt>
      <trkpt lat="46.24791" lon="6.85402">
        <ele>1548</ele>
        <time>2010-01-01T11:04:04Z</time>
      </trkpt>
      <trkpt lat="46.24773" lon="6.85438">
        <ele>1564</ele>
        <time>2010-01-01T11:04:17Z</time>
      </trkpt>
      <trkpt lat="46.24769" lon="6.85464">
        <ele>1568</ele>
        <time>2010-01-01T11:04:24Z</time>
      </trkpt>
      <trkpt lat="46.24758" lon="6.85474">
        <ele>1567</ele>
        <time>2010-01-01T11:04:29Z</time>
      </trkpt>
      <trkpt lat="46.24746" lon="6.85485">
        <ele>1555</ele>
        <time>2010-01-01T11:04:35Z</time>
      </trkpt>
      <trkpt lat="46.24745" lon="6.85486">
        <ele>1555</ele>
        <time>2010-01-01T11:04:35Z</time>
      </trkpt>
      <trkpt lat="46.24727" lon="6.85498">
        <ele>1552</ele>
        <time>2010-01-01T11:04:43Z</time>
      </trkpt>
      <trkpt lat="46.24714" lon="6.85496">
        <ele>1548</ele>
        <time>2010-01-01T11:04:49Z</time>
      </trkpt>
      <trkpt lat="46.247" lon="6.85504">
        <ele>1555</ele>
        <time>2010-01-01T11:04:55Z</time>
      </trkpt>
      <trkpt lat="46.24699" lon="6.85504">
        <ele>1555</ele>
        <time>2010-01-01T11:04:55Z</time>
      </trkpt>
      <trkpt lat="46.24687" lon="6.85512">
        <ele>1552</ele>
        <time>2010-01-01T11:05:00Z</time>
      </trkpt>
      <trkpt lat="46.24677" lon="6.85525">
        <ele>1553</ele>
        <time>2010-01-01T11:05:05Z</time>
      </trkpt>
      <trkpt lat="46.24676" lon="6.85527">
        <ele>1553</ele>
        <time>2010-01-01T11:05:06Z</time>
      </trkpt>
      <trkpt lat="46.24667" lon="6.85549">
        <ele>1558</ele>
        <time>2010-01-01T11:05:13Z</time>
      </trkpt>
      <trkpt lat="46.24646" lon="6.85575">
        <ele>1545</ele>
        <time>2010-01-01T11:05:25Z</time>
      </trkpt>
      <trkpt lat="46.24631" lon="6.85584">
        <ele>1556</ele>
        <time>2010-01-01T11:05:31Z</time>
      </trkpt>
      <trkpt lat="46.2462" lon="6.85589">
        <ele>1553</ele>
        <time>2010-01-01T11:05:36Z</time>
      </trkpt>
      <trkpt lat="46.24601" lon="6.85591">
        <ele>1545</ele>
        <time>2010-01-01T11:05:43Z</time>
      </trkpt>
      <trkpt lat="46.24589" lon="6.85611">
        <ele>1550</ele>
        <time>2010-01-01T11:05:50Z</time>
      </trkpt>
      <trkpt lat="46.24584" lon="6.85624">
        <ele>1554</ele>
        <time>2010-01-01T11:05:55Z</time>
      </trkpt>
      <trkpt lat="46.2457" lon="6.85637">
        <ele>1537</ele>
        <time>2010-01-01T11:06:01Z</time>
      </trkpt>
      <trkpt lat="46.24558" lon="6.85654">
        <ele>1538</ele>
        <time>2010-01-01T11:06:08Z</time>
      </trkpt>
      <trkpt lat="46.24549" lon="6.85671">
        <ele>1556</ele>
        <time>2010-01-01T11:06:14Z</time>
      </trkpt>
      <trkpt lat="46.24535" lon="6.85683">
        <ele>1554</ele>
        <time>2010-01-01T11:06:21Z</time>
      </trkpt>
      <trkpt lat="46.24518" lon="6.85695">
        <ele>1552</ele>
        <time>2010-01-01T11:06:28Z</time>
      </trkpt>
      <trkpt lat="46.24501" lon="6.85703">
        <ele>1552</ele>
        <time>2010-01-01T11:06:35Z</time>
      </trkpt>
      <trkpt lat="46.24483" lon="6.85737">
        <ele>1537</ele>
        <time>2010-01-01T11:06:47Z</time>
      </trkpt>
      <trkpt lat="46.24482" lon="6.85741">
        <ele>1537</ele>
        <time>2010-01-01T11:06:48Z</time>
      </trkpt>
      <trkpt lat="46.24464" lon="6.85781">
        <ele>1540</ele>
        <time>2010-01-01T11:07:02Z</time>
      </trkpt>
      <trkpt lat="46.24449" lon="6.85828">
        <ele>1537</ele>
        <time>2010-01-01T11:07:16Z</time>
      </trkpt>
      <trkpt lat="46.24443" lon="6.85868">
        <ele>1546</ele>
        <time>2010-01-01T11:07:27Z</time>
      </trkpt>
      <trkpt lat="46.24435" lon="6.85888">
        <ele>1547</ele>
        <time>2010-01-01T11:07:33Z</time>
      </trkpt>
      <trkpt lat="46.24422" lon="6.85892">
        <ele>1544</ele>
        <time>2010-01-01T11:07:39Z</time>
      </trkpt>
      <trkpt lat="46.24404" lon="6.85896">
        <ele>1523</ele>
        <time>2010-01-01T11:07:46Z</time>
      </trkpt>
      <trkpt lat="46.24381" lon="6.85911">
        <ele>1518</ele>
        <time>2010-01-01T11:07:57Z</time>
      </trkpt>
      <trkpt lat="46.2437" lon="6.8593">
        <ele>1521</ele>
        <time>2010-01-01T11:08:03Z</time>
      </trkpt>
      <trkpt lat="46.24367" lon="6.85958">
        <ele>1522</ele>
        <time>2010-01-01T11:08:11Z</time>
      </trkpt>
      <trkpt lat="46.24361" lon="6.85975">
        <ele>1521</ele>
        <time>2010-01-01T11:08:16Z</time>
      </trkpt>
      <trkpt lat="46.24356" lon="6.8596">
        <ele>1520</ele>
        <time>2010-01-01T11:08:21Z</time>
      </trkpt>
      <trkpt lat="46.2435" lon="6.8593">
        <ele>1515</ele>
        <time>2010-01-01T11:08:30Z</time>
      </trkpt>
      <trkpt lat="46.2435" lon="6.85925">
        <ele>1514</ele>
        <time>2010-01-01T11:08:31Z</time>
      </trkpt>
      <trkpt lat="46.24356" lon="6.85889">
        <ele>1511</ele>
        <time>2010-01-01T11:08:41Z</time>
      </trkpt>
      <trkpt lat="46.24361" lon="6.85846">
        <ele>1508</ele>
        <time>2010-01-01T11:08:53Z</time>
      </trkpt>
      <trkpt lat="46.24362" lon="6.85845">
        <ele>1508</ele>
        <time>2010-01-01T11:08:54Z</time>
      </trkpt>
      <trkpt lat="46.24369" lon="6.85835">
        <ele>1509</ele>
        <time>2010-01-01T11:08:58Z</time>
      </trkpt>
      <trkpt lat="46.24375" lon="6.85826">
        <ele>1503</ele>
        <time>2010-01-01T11:09:01Z</time>
      </trkpt>
      <trkpt lat="46.2438" lon="6.85822">
        <ele>1503</ele>
        <time>2010-01-01T11:09:03Z</time>
      </trkpt>
      <trkpt lat="46.24381" lon="6.85811">
        <ele>1503</ele>
        <time>2010-01-01T11:09:06Z</time>
      </trkpt>
      <trkpt lat="46.24376" lon="6.85805">
        <ele>1501</ele>
        <time>2010-01-01T11:09:09Z</time>
      </trkpt>
      <trkpt lat="46.24368" lon="6.85815">
        <ele>1500</ele>
        <time>2010-01-01T11:09:13Z</time>
      </trkpt>
      <trkpt lat="46.2435" lon="6.85826">
        <ele>1497</ele>
        <time>2010-01-01T11:09:21Z</time>
      </trkpt>
      <trkpt lat="46.24334" lon="6.85826">
        <ele>1494</ele>
        <time>2010-01-01T11:09:28Z</time>
      </trkpt>
      <trkpt lat="46.24324" lon="6.85852">
        <ele>1488</ele>
        <time>2010-01-01T11:09:36Z</time>
      </trkpt>
      <trkpt lat="46.24311" lon="6.85882">
        <ele>1488</ele>
        <time>2010-01-01T11:09:46Z</time>
      </trkpt>
      <trkpt lat="46.24293" lon="6.85909">
        <ele>1486</ele>
        <time>2010-01-01T11:09:56Z</time>
      </trkpt>
      <trkpt lat="46.24285" lon="6.85903">
        <ele>1484</ele>
        <time>2010-01-01T11:09:59Z</time>
      </trkpt>
      <trkpt lat="46.24292" lon="6.8587">
        <ele>1484</ele>
        <time>2010-01-01T11:10:09Z</time>
      </trkpt>
      <trkpt lat="46.24299" lon="6.85849">
        <ele>1484</ele>
        <time>2010-01-01T11:10:16Z</time>
      </trkpt>
      <trkpt lat="46.243" lon="6.8583">
        <ele>1478</ele>
        <time>2010-01-01T11:10:21Z</time>
      </trkpt>
      <trkpt lat="46.24296" lon="6.85805">
        <ele>1476</ele>
        <time>2010-01-01T11:10:28Z</time>
      </trkpt>
      <trkpt lat="46.24294" lon="6.85795">
        <ele>1475</ele>
        <time>2010-01-01T11:10:31Z</time>
      </trkpt>
      <trkpt lat="46.24295" lon="6.85786">
        <ele>1474</ele>
        <time>2010-01-01T11:10:33Z</time>
      </trkpt>
      <trkpt lat="46.24307" lon="6.85779">
        <ele>1475</ele>
        <time>2010-01-01T11:10:38Z</time>
      </trkpt>
      <trkpt lat="46.24317" lon="6.85776">
        <ele>1476</ele>
        <time>2010-01-01T11:10:42Z</time>
      </trkpt>
      <trkpt lat="46.24328" lon="6.85772">
        <ele>1477</ele>
        <time>2010-01-01T11:10:47Z</time>
      </trkpt>
      <trkpt lat="46.24338" lon="6.85761">
        <ele>1487</ele>
        <time>2010-01-01T11:10:52Z</time>
      </trkpt>
      <trkpt lat="46.24348" lon="6.85747">
        <ele>1483</ele>
        <time>2010-01-01T11:10:57Z</time>
      </trkpt>
      <trkpt lat="46.24358" lon="6.85732">
        <ele>1485</ele>
        <time>2010-01-01T11:11:03Z</time>
      </trkpt>
      <trkpt lat="46.24364" lon="6.85722">
        <ele>1486</ele>
        <time>2010-01-01T11:11:07Z</time>
      </trkpt>
      <trkpt lat="46.24369" lon="6.85699">
        <ele>1484</ele>
        <time>2010-01-01T11:11:14Z</time>
      </trkpt>
      <trkpt lat="46.24378" lon="6.85688">
        <ele>1485</ele>
        <time>2010-01-01T11:11:18Z</time>
      </trkpt>
      <trkpt lat="46.24392" lon="6.85671">
        <ele>1488</ele>
        <time>2010-01-01T11:11:26Z</time>
      </trkpt>
      <trkpt lat="46.24403" lon="6.85643">
        <ele>1475</ele>
        <time>2010-01-01T11:11:34Z</time>
      </trkpt>
      <trkpt lat="46.2441" lon="6.85627">
        <ele>1472</ele>
        <time>2010-01-01T11:11:40Z</time>
      </trkpt>
      <trkpt lat="46.24418" lon="6.85613">
        <ele>1487</ele>
        <time>2010-01-01T11:11:45Z</time>
      </trkpt>
      <trkpt lat="46.24431" lon="6.85592">
        <ele>1482</ele>
        <time>2010-01-01T11:11:53Z</time>
      </trkpt>
      <trkpt lat="46.24431" lon="6.85592">
        <ele>1482</ele>
        <time>2010-01-01T11:11:53Z</time>
      </trkpt>
      <trkpt lat="46.24447" lon="6.85566">
        <ele>1472</ele>
        <time>2010-01-01T11:12:03Z</time>
      </trkpt>
      <trkpt lat="46.24457" lon="6.85551">
        <ele>1473</ele>
        <time>2010-01-01T11:12:08Z</time>
      </trkpt>
      <trkpt lat="46.24466" lon="6.85519">
        <ele>1471</ele>
        <time>2010-01-01T11:12:18Z</time>
      </trkpt>
      <trkpt lat="46.2447" lon="6.855">
        <ele>1461</ele>
        <time>2010-01-01T11:12:23Z</time>
      </trkpt>
      <trkpt lat="46.24474" lon="6.85486">
        <ele>1461</ele>
        <time>2010-01-01T11:12:27Z</time>
      </trkpt>
      <trkpt lat="46.24478" lon="6.85479">
        <ele>1461</ele>
        <time>2010-01-01T11:12:30Z</time>
      </trkpt>
      <trkpt lat="46.24479" lon="6.85477">
        <ele>1461</ele>
        <time>2010-01-01T11:12:30Z</time>
      </trkpt>
      <trkpt lat="46.24489" lon="6.85468">
        <ele>1461</ele>
        <time>2010-01-01T11:12:35Z</time>
      </trkpt>
      <trkpt lat="46.24498" lon="6.85446">
        <ele>1459</ele>
        <time>2010-01-01T11:12:42Z</time>
      </trkpt>
      <trkpt lat="46.245" lon="6.85428">
        <ele>1472</ele>
        <time>2010-01-01T11:12:47Z</time>
      </trkpt>
      <trkpt lat="46.24501" lon="6.85409">
        <ele>1466</ele>
        <time>2010-01-01T11:12:52Z</time>
      </trkpt>
      <trkpt lat="46.24502" lon="6.85383">
        <ele>1468</ele>
        <time>2010-01-01T11:13:00Z</time>
      </trkpt>
      <trkpt lat="46.24507" lon="6.85358">
        <ele>1463</ele>
        <time>2010-01-01T11:13:07Z</time>
      </trkpt>
      <trkpt lat="46.24509" lon="6.85339">
        <ele>1456</ele>
        <time>2010-01-01T11:13:12Z</time>
      </trkpt>
      <trkpt lat="46.24509" lon="6.85338">
        <ele>1455</ele>
        <time>2010-01-01T11:13:13Z</time>
      </trkpt>
      <trkpt lat="46.24521" lon="6.85308">
        <ele>1452</ele>
        <time>2010-01-01T11:13:22Z</time>
      </trkpt>
      <trkpt lat="46.24534" lon="6.85277">
        <ele>1450</ele>
        <time>2010-01-01T11:13:32Z</time>
      </trkpt>
      <trkpt lat="46.24551" lon="6.85262">
        <ele>1452</ele>
        <time>2010-01-01T11:13:40Z</time>
      </trkpt>
      <trkpt lat="46.24562" lon="6.85238">
        <ele>1441</ele>
        <time>2010-01-01T11:13:48Z</time>
      </trkpt>
      <trkpt lat="46.24568" lon="6.85225">
        <ele>1440</ele>
        <time>2010-01-01T11:13:52Z</time>
      </trkpt>
      <trkpt lat="46.24573" lon="6.85207">
        <ele>1436</ele>
        <time>2010-01-01T11:13:58Z</time>
      </trkpt>
      <trkpt lat="46.24575" lon="6.85205">
        <ele>1436</ele>
        <time>2010-01-01T11:13:59Z</time>
      </trkpt>
      <trkpt lat="46.24575" lon="6.85204">
        <ele>1436</ele>
        <time>2010-01-01T11:13:59Z</time>
      </trkpt>
      <trkpt lat="46.24606" lon="6.85166">
        <ele>1432</ele>
        <time>2010-01-01T11:14:15Z</time>
      </trkpt>
      <trkpt lat="46.24617" lon="6.85153">
        <ele>1431</ele>
        <time>2010-01-01T11:14:21Z</time>
      </trkpt>
      <trkpt lat="46.24618" lon="6.85151">
        <ele>1431</ele>
        <time>2010-01-01T11:14:21Z</time>
      </trkpt>
      <trkpt lat="46.24639" lon="6.85131">
        <ele>1430</ele>
        <time>2010-01-01T11:14:32Z</time>
      </trkpt>
      <trkpt lat="46.2464" lon="6.85131">
        <ele>1430</ele>
        <time>2010-01-01T11:14:32Z</time>
      </trkpt>
      <trkpt lat="46.24654" lon="6.85127">
        <ele>1431</ele>
        <time>2010-01-01T11:14:38Z</time>
      </trkpt>
      <trkpt lat="46.24656" lon="6.85126">
        <ele>1430</ele>
        <time>2010-01-01T11:14:39Z</time>
      </trkpt>
      <trkpt lat="46.24677" lon="6.85117">
        <ele>1439</ele>
        <time>2010-01-01T11:14:47Z</time>
      </trkpt>
      <trkpt lat="46.24677" lon="6.85117">
        <ele>1439</ele>
        <time>2010-01-01T11:14:48Z</time>
      </trkpt>
      <trkpt lat="46.24697" lon="6.85113">
        <ele>1440</ele>
        <time>2010-01-01T11:14:55Z</time>
      </trkpt>
      <trkpt lat="46.24701" lon="6.85111">
        <ele>1440</ele>
        <time>2010-01-01T11:14:57Z</time>
      </trkpt>
      <trkpt lat="46.24718" lon="6.85105">
        <ele>1441</ele>
        <time>2010-01-01T11:15:04Z</time>
      </trkpt>
      <trkpt lat="46.24719" lon="6.85104">
        <ele>1441</ele>
        <time>2010-01-01T11:15:05Z</time>
      </trkpt>
      <trkpt lat="46.2473" lon="6.85098">
        <ele>1441</ele>
        <time>2010-01-01T11:15:09Z</time>
      </trkpt>
      <trkpt lat="46.24742" lon="6.85085">
        <ele>1439</ele>
        <time>2010-01-01T11:15:15Z</time>
      </trkpt>
      <trkpt lat="46.24753" lon="6.85063">
        <ele>1438</ele>
        <time>2010-01-01T11:15:23Z</time>
      </trkpt>
      <trkpt lat="46.24757" lon="6.85015">
        <ele>1428</ele>
        <time>2010-01-01T11:15:36Z</time>
      </trkpt>
      <trkpt lat="46.24761" lon="6.84985">
        <ele>1417</ele>
        <time>2010-01-01T11:15:45Z</time>
      </trkpt>
      <trkpt lat="46.24761" lon="6.84983">
        <ele>1417</ele>
        <time>2010-01-01T11:15:45Z</time>
      </trkpt>
      <trkpt lat="46.24772" lon="6.84959">
        <ele>1416</ele>
        <time>2010-01-01T11:15:53Z</time>
      </trkpt>
      <trkpt lat="46.24773" lon="6.84955">
        <ele>1415</ele>
        <time>2010-01-01T11:15:54Z</time>
      </trkpt>
      <trkpt lat="46.24774" lon="6.84953">
        <ele>1415</ele>
        <time>2010-01-01T11:15:55Z</time>
      </trkpt>
      <trkpt lat="46.24786" lon="6.84934">
        <ele>1414</ele>
        <time>2010-01-01T11:16:02Z</time>
      </trkpt>
      <trkpt lat="46.24796" lon="6.84914">
        <ele>1403</ele>
        <time>2010-01-01T11:16:09Z</time>
      </trkpt>
      <trkpt lat="46.24818" lon="6.84874">
        <ele>1401</ele>
        <time>2010-01-01T11:16:23Z</time>
      </trkpt>
      <trkpt lat="46.24832" lon="6.8484">
        <ele>1398</ele>
        <time>2010-01-01T11:16:34Z</time>
      </trkpt>
      <trkpt lat="46.2485" lon="6.84825">
        <ele>1393</ele>
        <time>2010-01-01T11:16:42Z</time>
      </trkpt>
      <trkpt lat="46.2487" lon="6.84821">
        <ele>1392</ele>
        <time>2010-01-01T11:16:51Z</time>
      </trkpt>
      <trkpt lat="46.24888" lon="6.84818">
        <ele>1392</ele>
        <time>2010-01-01T11:16:58Z</time>
      </trkpt>
      <trkpt lat="46.24889" lon="6.84818">
        <ele>1392</ele>
        <time>2010-01-01T11:16:58Z</time>
      </trkpt>
      <trkpt lat="46.24908" lon="6.84811">
        <ele>1393</ele>
        <time>2010-01-01T11:17:06Z</time>
      </trkpt>
      <trkpt lat="46.24912" lon="6.84809">
        <ele>1393</ele>
        <time>2010-01-01T11:17:07Z</time>
      </trkpt>
      <trkpt lat="46.24913" lon="6.84809">
        <ele>1393</ele>
        <time>2010-01-01T11:17:08Z</time>
      </trkpt>
      <trkpt lat="46.24927" lon="6.84798">
        <ele>1396</ele>
        <time>2010-01-01T11:17:14Z</time>
      </trkpt>
      <trkpt lat="46.24946" lon="6.8478">
        <ele>1395</ele>
        <time>2010-01-01T11:17:23Z</time>
      </trkpt>
      <trkpt lat="46.24946" lon="6.84779">
        <ele>1394</ele>
        <time>2010-01-01T11:17:24Z</time>
      </trkpt>
      <trkpt lat="46.24954" lon="6.84765">
        <ele>1394</ele>
        <time>2010-01-01T11:17:29Z</time>
      </trkpt>
      <trkpt lat="46.24961" lon="6.84748">
        <ele>1385</ele>
        <time>2010-01-01T11:17:34Z</time>
      </trkpt>
      <trkpt lat="46.24974" lon="6.84735">
        <ele>1386</ele>
        <time>2010-01-01T11:17:41Z</time>
      </trkpt>
      <trkpt lat="46.24986" lon="6.84722">
        <ele>1386</ele>
        <time>2010-01-01T11:17:46Z</time>
      </trkpt>
      <trkpt lat="46.24982" lon="6.84709">
        <ele>1384</ele>
        <time>2010-01-01T11:17:51Z</time>
      </trkpt>
      <trkpt lat="46.24974" lon="6.84707">
        <ele>1384</ele>
        <time>2010-01-01T11:17:54Z</time>
      </trkpt>
      <trkpt lat="46.24969" lon="6.8471">
        <ele>1384</ele>
        <time>2010-01-01T11:17:56Z</time>
      </trkpt>
      <trkpt lat="46.24955" lon="6.84729">
        <ele>1384</ele>
        <time>2010-01-01T11:18:04Z</time>
      </trkpt>
      <trkpt lat="46.24944" lon="6.84742">
        <ele>1383</ele>
        <time>2010-01-01T11:18:09Z</time>
      </trkpt>
      <trkpt lat="46.24925" lon="6.84748">
        <ele>1382</ele>
        <time>2010-01-01T11:18:17Z</time>
      </trkpt>
      <trkpt lat="46.24918" lon="6.84752">
        <ele>1382</ele>
        <time>2010-01-01T11:18:20Z</time>
      </trkpt>
      <trkpt lat="46.24926" lon="6.84728">
        <ele>1382</ele>
        <time>2010-01-01T11:18:27Z</time>
      </trkpt>
      <trkpt lat="46.24932" lon="6.84702">
        <ele>1381</ele>
        <time>2010-01-01T11:18:35Z</time>
      </trkpt>
      <trkpt lat="46.24933" lon="6.84701">
        <ele>1381</ele>
        <time>2010-01-01T11:18:36Z</time>
      </trkpt>
      <trkpt lat="46.24945" lon="6.84679">
        <ele>1381</ele>
        <time>2010-01-01T11:18:43Z</time>
      </trkpt>
      <trkpt lat="46.2495" lon="6.8465">
        <ele>1382</ele>
        <time>2010-01-01T11:18:51Z</time>
      </trkpt>
      <trkpt lat="46.24956" lon="6.84628">
        <ele>1384</ele>
        <time>2010-01-01T11:18:58Z</time>
      </trkpt>
      <trkpt lat="46.24959" lon="6.84613">
        <ele>1385</ele>
        <time>2010-01-01T11:19:02Z</time>
      </trkpt>
      <trkpt lat="46.24951" lon="6.84597">
        <ele>1386</ele>
        <time>2010-01-01T11:19:08Z</time>
      </trkpt>
      <trkpt lat="46.24945" lon="6.8459">
        <ele>1387</ele>
        <time>2010-01-01T11:19:11Z</time>
      </trkpt>
      <trkpt lat="46.24929" lon="6.84596">
        <ele>1389</ele>
        <time>2010-01-01T11:19:18Z</time>
      </trkpt>
      <trkpt lat="46.24912" lon="6.84604">
        <ele>1391</ele>
        <time>2010-01-01T11:19:25Z</time>
      </trkpt>
      <trkpt lat="46.24822" lon="6.84633">
        <ele>1390</ele>
        <time>2010-01-01T11:20:02Z</time>
      </trkpt>
      <trkpt lat="46.24783" lon="6.84648">
        <ele>1387</ele>
        <time>2010-01-01T11:20:18Z</time>
      </trkpt>
      <trkpt lat="46.24759" lon="6.84649">
        <ele>1384</ele>
        <time>2010-01-01T11:20:27Z</time>
      </trkpt>
      <trkpt lat="46.24734" lon="6.84652">
        <ele>1388</ele>
        <time>2010-01-01T11:20:38Z</time>
      </trkpt>
      <trkpt lat="46.24706" lon="6.8466">
        <ele>1393</ele>
        <time>2010-01-01T11:20:49Z</time>
      </trkpt>
      <trkpt lat="46.24677" lon="6.84674">
        <ele>1385</ele>
        <time>2010-01-01T11:21:01Z</time>
      </trkpt>
      <trkpt lat="46.24646" lon="6.84677">
        <ele>1385</ele>
        <time>2010-01-01T11:21:14Z</time>
      </trkpt>
      <trkpt lat="46.24627" lon="6.84686">
        <ele>1384</ele>
        <time>2010-01-01T11:21:22Z</time>
      </trkpt>
      <trkpt lat="46.24607" lon="6.84701">
        <ele>1382</ele>
        <time>2010-01-01T11:21:31Z</time>
      </trkpt>
      <trkpt lat="46.2458" lon="6.84715">
        <ele>1383</ele>
        <time>2010-01-01T11:21:42Z</time>
      </trkpt>
      <trkpt lat="46.24567" lon="6.84727">
        <ele>1380</ele>
        <time>2010-01-01T11:21:48Z</time>
      </trkpt>
      <trkpt lat="46.24547" lon="6.84727">
        <ele>1383</ele>
        <time>2010-01-01T11:21:56Z</time>
      </trkpt>
      <trkpt lat="46.24515" lon="6.84734">
        <ele>1381</ele>
        <time>2010-01-01T11:22:09Z</time>
      </trkpt>
      <trkpt lat="46.24501" lon="6.8474">
        <ele>1378</ele>
        <time>2010-01-01T11:22:15Z</time>
      </trkpt>
      <trkpt lat="46.24481" lon="6.84751">
        <ele>1375</ele>
        <time>2010-01-01T11:22:24Z</time>
      </trkpt>
      <trkpt lat="46.24458" lon="6.8477">
        <ele>1377</ele>
        <time>2010-01-01T11:22:34Z</time>
      </trkpt>
      <trkpt lat="46.24443" lon="6.84788">
        <ele>1378</ele>
        <time>2010-01-01T11:22:42Z</time>
      </trkpt>
      <trkpt lat="46.24428" lon="6.8481">
        <ele>1379</ele>
        <time>2010-01-01T11:22:51Z</time>
      </trkpt>
      <trkpt lat="46.24417" lon="6.84833">
        <ele>1382</ele>
        <time>2010-01-01T11:22:59Z</time>
      </trkpt>
      <trkpt lat="46.24418" lon="6.84852">
        <ele>1378</ele>
        <time>2010-01-01T11:23:04Z</time>
      </trkpt>
      <trkpt lat="46.24419" lon="6.84874">
        <ele>1376</ele>
        <time>2010-01-01T11:23:10Z</time>
      </trkpt>
      <trkpt lat="46.24421" lon="6.84889">
        <ele>1376</ele>
        <time>2010-01-01T11:23:14Z</time>
      </trkpt>
      <trkpt lat="46.24416" lon="6.8491">
        <ele>1380</ele>
        <time>2010-01-01T11:23:20Z</time>
      </trkpt>
      <trkpt lat="46.24395" lon="6.84939">
        <ele>1384</ele>
        <time>2010-01-01T11:23:32Z</time>
      </trkpt>
      <trkpt lat="46.24371" lon="6.84968">
        <ele>1387</ele>
        <time>2010-01-01T11:23:44Z</time>
      </trkpt>
      <trkpt lat="46.24355" lon="6.84986">
        <ele>1388</ele>
        <time>2010-01-01T11:23:52Z</time>
      </trkpt>
      <trkpt lat="46.24342" lon="6.85018">
        <ele>1384</ele>
        <time>2010-01-01T11:24:03Z</time>
      </trkpt>
      <trkpt lat="46.24328" lon="6.85032">
        <ele>1389</ele>
        <time>2010-01-01T11:24:09Z</time>
      </trkpt>
      <trkpt lat="46.24309" lon="6.85047">
        <ele>1389</ele>
        <time>2010-01-01T11:24:18Z</time>
      </trkpt>
      <trkpt lat="46.24291" lon="6.85053">
        <ele>1390</ele>
        <time>2010-01-01T11:24:26Z</time>
      </trkpt>
      <trkpt lat="46.24262" lon="6.85076">
        <ele>1389</ele>
        <time>2010-01-01T11:24:39Z</time>
      </trkpt>
      <trkpt lat="46.24244" lon="6.85081">
        <ele>1389</ele>
        <time>2010-01-01T11:24:46Z</time>
      </trkpt>
      <trkpt lat="46.2423" lon="6.85086">
        <ele>1377</ele>
        <time>2010-01-01T11:24:52Z</time>
      </trkpt>
      <trkpt lat="46.24217" lon="6.85091">
        <ele>1374</ele>
        <time>2010-01-01T11:24:57Z</time>
      </trkpt>
      <trkpt lat="46.24203" lon="6.85095">
        <ele>1372</ele>
        <time>2010-01-01T11:25:03Z</time>
      </trkpt>
      <trkpt lat="46.24192" lon="6.85095">
        <ele>1371</ele>
        <time>2010-01-01T11:25:07Z</time>
      </trkpt>
      <trkpt lat="46.24175" lon="6.85088">
        <ele>1372</ele>
        <time>2010-01-01T11:25:14Z</time>
      </trkpt>
      <trkpt lat="46.24152" lon="6.85098">
        <ele>1367</ele>
        <time>2010-01-01T11:25:24Z</time>
      </trkpt>
      <trkpt lat="46.24133" lon="6.85095">
        <ele>1365</ele>
        <time>2010-01-01T11:25:32Z</time>
      </trkpt>
      <trkpt lat="46.24113" lon="6.85092">
        <ele>1364</ele>
        <time>2010-01-01T11:25:40Z</time>
      </trkpt>
      <trkpt lat="46.241" lon="6.85095">
        <ele>1365</ele>
        <time>2010-01-01T11:25:45Z</time>
      </trkpt>
      <trkpt lat="46.24085" lon="6.85103">
        <ele>1364</ele>
        <time>2010-01-01T11:25:51Z</time>
      </trkpt>
      <trkpt lat="46.24076" lon="6.85099">
        <ele>1363</ele>
        <time>2010-01-01T11:25:55Z</time>
      </trkpt>
      <trkpt lat="46.24061" lon="6.85103">
        <ele>1362</ele>
        <time>2010-01-01T11:26:01Z</time>
      </trkpt>
      <trkpt lat="46.24041" lon="6.8511">
        <ele>1361</ele>
        <time>2010-01-01T11:26:09Z</time>
      </trkpt>
      <trkpt lat="46.24031" lon="6.85112">
        <ele>1361</ele>
        <time>2010-01-01T11:26:13Z</time>
      </trkpt>
      <trkpt lat="46.24015" lon="6.85116">
        <ele>1361</ele>
        <time>2010-01-01T11:26:20Z</time>
      </trkpt>
      <trkpt lat="46.23992" lon="6.85119">
        <ele>1359</ele>
        <time>2010-01-01T11:26:29Z</time>
      </trkpt>
      <trkpt lat="46.23971" lon="6.85115">
        <ele>1358</ele>
        <time>2010-01-01T11:26:38Z</time>
      </trkpt>
      <trkpt lat="46.23957" lon="6.85107">
        <ele>1358</ele>
        <time>2010-01-01T11:26:44Z</time>
      </trkpt>
      <trkpt lat="46.23934" lon="6.85098">
        <ele>1359</ele>
        <time>2010-01-01T11:26:53Z</time>
      </trkpt>
      <trkpt lat="46.23907" lon="6.85094">
        <ele>1357</ele>
        <time>2010-01-01T11:27:04Z</time>
      </trkpt>
      <trkpt lat="46.23888" lon="6.85095">
        <ele>1356</ele>
        <time>2010-01-01T11:27:11Z</time>
      </trkpt>
      <trkpt lat="46.23873" lon="6.85106">
        <ele>1355</ele>
        <time>2010-01-01T11:27:19Z</time>
      </trkpt>
      <trkpt lat="46.23857" lon="6.8511">
        <ele>1354</ele>
        <time>2010-01-01T11:27:25Z</time>
      </trkpt>
      <trkpt lat="46.23842" lon="6.85115">
        <ele>1354</ele>
        <time>2010-01-01T11:27:31Z</time>
      </trkpt>
      <trkpt lat="46.23839" lon="6.85127">
        <ele>1353</ele>
        <time>2010-01-01T11:27:35Z</time>
      </trkpt>
      <trkpt lat="46.23827" lon="6.85137">
        <ele>1352</ele>
        <time>2010-01-01T11:27:40Z</time>
      </trkpt>
      <trkpt lat="46.23811" lon="6.85145">
        <ele>1352</ele>
        <time>2010-01-01T11:27:47Z</time>
      </trkpt>
      <trkpt lat="46.23788" lon="6.85155">
        <ele>1352</ele>
        <time>2010-01-01T11:27:57Z</time>
      </trkpt>
      <trkpt lat="46.23754" lon="6.85174">
        <ele>1349</ele>
        <time>2010-01-01T11:28:11Z</time>
      </trkpt>
      <trkpt lat="46.23742" lon="6.85188">
        <ele>1347</ele>
        <time>2010-01-01T11:28:17Z</time>
      </trkpt>
      <trkpt lat="46.23727" lon="6.852">
        <ele>1346</ele>
        <time>2010-01-01T11:28:24Z</time>
      </trkpt>
      <trkpt lat="46.23708" lon="6.85235">
        <ele>1344</ele>
        <time>2010-01-01T11:28:36Z</time>
      </trkpt>
      <trkpt lat="46.23688" lon="6.85258">
        <ele>1340</ele>
        <time>2010-01-01T11:28:46Z</time>
      </trkpt>
      <trkpt lat="46.23675" lon="6.8528">
        <ele>1339</ele>
        <time>2010-01-01T11:28:55Z</time>
      </trkpt>
      <trkpt lat="46.23656" lon="6.85297">
        <ele>1338</ele>
        <time>2010-01-01T11:29:04Z</time>
      </trkpt>
      <trkpt lat="46.23632" lon="6.85308">
        <ele>1338</ele>
        <time>2010-01-01T11:29:14Z</time>
      </trkpt>
      <trkpt lat="46.2362" lon="6.85345">
        <ele>1337</ele>
        <time>2010-01-01T11:29:25Z</time>
      </trkpt>
      <trkpt lat="46.23618" lon="6.8537">
        <ele>1337</ele>
        <time>2010-01-01T11:29:32Z</time>
      </trkpt>
      <trkpt lat="46.23627" lon="6.85385">
        <ele>1337</ele>
        <time>2010-01-01T11:29:37Z</time>
      </trkpt>
      <trkpt lat="46.2365" lon="6.85394">
        <ele>1335</ele>
        <time>2010-01-01T11:29:47Z</time>
      </trkpt>
      <trkpt lat="46.23671" lon="6.85418">
        <ele>1330</ele>
        <time>2010-01-01T11:29:58Z</time>
      </trkpt>
      <trkpt lat="46.23682" lon="6.85432">
        <ele>1328</ele>
        <time>2010-01-01T11:30:04Z</time>
      </trkpt>
      <trkpt lat="46.23692" lon="6.85457">
        <ele>1327</ele>
        <time>2010-01-01T11:30:12Z</time>
      </trkpt>
      <trkpt lat="46.23697" lon="6.85525">
        <ele>1322</ele>
        <time>2010-01-01T11:30:31Z</time>
      </trkpt>
      <trkpt lat="46.23695" lon="6.85578">
        <ele>1320</ele>
        <time>2010-01-01T11:30:45Z</time>
      </trkpt>
      <trkpt lat="46.23707" lon="6.85637">
        <ele>1317</ele>
        <time>2010-01-01T11:31:02Z</time>
      </trkpt>
      <trkpt lat="46.23707" lon="6.85707">
        <ele>1316</ele>
        <time>2010-01-01T11:31:22Z</time>
      </trkpt>
      <trkpt lat="46.23706" lon="6.85764">
        <ele>1315</ele>
        <time>2010-01-01T11:31:37Z</time>
      </trkpt>
      <trkpt lat="46.23692" lon="6.85805">
        <ele>1316</ele>
        <time>2010-01-01T11:31:50Z</time>
      </trkpt>
      <trkpt lat="46.2367" lon="6.85812">
        <ele>1316</ele>
        <time>2010-01-01T11:31:59Z</time>
      </trkpt>
      <trkpt lat="46.2365" lon="6.85822">
        <ele>1324</ele>
        <time>2010-01-01T11:32:08Z</time>
      </trkpt>
      <trkpt lat="46.2363" lon="6.85832">
        <ele>1327</ele>
        <time>2010-01-01T11:32:16Z</time>
      </trkpt>
      <trkpt lat="46.23606" lon="6.85831">
        <ele>1332</ele>
        <time>2010-01-01T11:32:26Z</time>
      </trkpt>
      <trkpt lat="46.23585" lon="6.85841">
        <ele>1336</ele>
        <time>2010-01-01T11:32:34Z</time>
      </trkpt>
      <trkpt lat="46.23562" lon="6.85853">
        <ele>1358</ele>
        <time>2010-01-01T11:32:44Z</time>
      </trkpt>
      <trkpt lat="46.23514" lon="6.85861">
        <ele>1374</ele>
        <time>2010-01-01T11:33:04Z</time>
      </trkpt>
      <trkpt lat="46.2347" lon="6.85861">
        <ele>1415</ele>
        <time>2010-01-01T11:33:21Z</time>
      </trkpt>
      <trkpt lat="46.23446" lon="6.85881">
        <ele>1424</ele>
        <time>2010-01-01T11:33:32Z</time>
      </trkpt>
      <trkpt lat="46.23404" lon="6.85885">
        <ele>1467</ele>
        <time>2010-01-01T11:33:49Z</time>
      </trkpt>
      <trkpt lat="46.23317" lon="6.85913">
        <ele>1518</ele>
        <time>2010-01-01T11:34:25Z</time>
      </trkpt>
      <trkpt lat="46.23281" lon="6.85922">
        <ele>1536</ele>
        <time>2010-01-01T11:34:40Z</time>
      </trkpt>
      <trkpt lat="46.23258" lon="6.85927">
        <ele>1544</ele>
        <time>2010-01-01T11:34:49Z</time>
      </trkpt>
      <trkpt lat="46.23244" lon="6.8593">
        <ele>1560</ele>
        <time>2010-01-01T11:34:54Z</time>
      </trkpt>
      <trkpt lat="46.2322" lon="6.85937">
        <ele>1567</ele>
        <time>2010-01-01T11:35:04Z</time>
      </trkpt>
      <trkpt lat="46.23192" lon="6.85945">
        <ele>1574</ele>
        <time>2010-01-01T11:35:16Z</time>
      </trkpt>
      <trkpt lat="46.23168" lon="6.85954">
        <ele>1577</ele>
        <time>2010-01-01T11:35:25Z</time>
      </trkpt>
      <trkpt lat="46.23108" lon="6.8597">
        <ele>1601</ele>
        <time>2010-01-01T11:35:50Z</time>
      </trkpt>
      <trkpt lat="46.2307" lon="6.85975">
        <ele>1623</ele>
        <time>2010-01-01T11:36:05Z</time>
      </trkpt>
      <trkpt lat="46.23048" lon="6.8598">
        <ele>1628</ele>
        <time>2010-01-01T11:36:14Z</time>
      </trkpt>
      <trkpt lat="46.23037" lon="6.85986">
        <ele>1631</ele>
        <time>2010-01-01T11:36:19Z</time>
      </trkpt>
      <trkpt lat="46.23021" lon="6.85991">
        <ele>1635</ele>
        <time>2010-01-01T11:36:26Z</time>
      </trkpt>
      <trkpt lat="46.22962" lon="6.86009">
        <ele>1653</ele>
        <time>2010-01-01T11:36:50Z</time>
      </trkpt>
      <trkpt lat="46.229" lon="6.86026">
        <ele>1677</ele>
        <time>2010-01-01T11:37:15Z</time>
      </trkpt>
      <trkpt lat="46.22784" lon="6.86057">
        <ele>1705</ele>
        <time>2010-01-01T11:38:02Z</time>
      </trkpt>
      <trkpt lat="46.22713" lon="6.86073">
        <ele>1734</ele>
        <time>2010-01-01T11:38:31Z</time>
      </trkpt>
      <trkpt lat="46.22655" lon="6.86089">
        <ele>1764</ele>
        <time>2010-01-01T11:38:55Z</time>
      </trkpt>
      <trkpt lat="46.22601" lon="6.86106">
        <ele>1777</ele>
        <time>2010-01-01T11:39:17Z</time>
      </trkpt>
      <trkpt lat="46.22547" lon="6.86121">
        <ele>1798</ele>
        <time>2010-01-01T11:39:38Z</time>
      </trkpt>
      <trkpt lat="46.2252" lon="6.86128">
        <ele>1802</ele>
        <time>2010-01-01T11:39:50Z</time>
      </trkpt>
      <trkpt lat="46.22509" lon="6.86133">
        <ele>1803</ele>
        <time>2010-01-01T11:39:54Z</time>
      </trkpt>
      <trkpt lat="46.22501" lon="6.86134">
        <ele>1803</ele>
        <time>2010-01-01T11:39:57Z</time>
      </trkpt>
      <trkpt lat="46.22499" lon="6.86133">
        <ele>1810</ele>
        <time>2010-01-01T11:39:58Z</time>
      </trkpt>
      <trkpt lat="46.22497" lon="6.8613">
        <ele>1810</ele>
        <time>2010-01-01T11:39:59Z</time>
      </trkpt>
      <trkpt lat="46.22494" lon="6.86131">
        <ele>1810</ele>
        <time>2010-01-01T11:40:00Z</time>
      </trkpt>
      <trkpt lat="46.22484" lon="6.86134">
        <ele>1810</ele>
        <time>2010-01-01T11:40:05Z</time>
      </trkpt>
      <trkpt lat="46.22458" lon="6.86153">
        <ele>1809</ele>
        <time>2010-01-01T11:40:16Z</time>
      </trkpt>
      <trkpt lat="46.22432" lon="6.86168">
        <ele>1803</ele>
        <time>2010-01-01T11:40:27Z</time>
      </trkpt>
      <trkpt lat="46.22413" lon="6.86179">
        <ele>1798</ele>
        <time>2010-01-01T11:40:36Z</time>
      </trkpt>
      <trkpt lat="46.22404" lon="6.86183">
        <ele>1796</ele>
        <time>2010-01-01T11:40:40Z</time>
      </trkpt>
      <trkpt lat="46.22394" lon="6.86184">
        <ele>1794</ele>
        <time>2010-01-01T11:40:44Z</time>
      </trkpt>
      <trkpt lat="46.22368" lon="6.86182">
        <ele>1790</ele>
        <time>2010-01-01T11:40:54Z</time>
      </trkpt>
      <trkpt lat="46.22354" lon="6.86179">
        <ele>1789</ele>
        <time>2010-01-01T11:41:00Z</time>
      </trkpt>
      <trkpt lat="46.22338" lon="6.86172">
        <ele>1789</ele>
        <time>2010-01-01T11:41:06Z</time>
      </trkpt>
      <trkpt lat="46.2233" lon="6.86168">
        <ele>1786</ele>
        <time>2010-01-01T11:41:10Z</time>
      </trkpt>
      <trkpt lat="46.22325" lon="6.86168">
        <ele>1784</ele>
        <time>2010-01-01T11:41:12Z</time>
      </trkpt>
      <trkpt lat="46.22322" lon="6.86168">
        <ele>1782</ele>
        <time>2010-01-01T11:41:13Z</time>
      </trkpt>
      <trkpt lat="46.22317" lon="6.86168">
        <ele>1780</ele>
        <time>2010-01-01T11:41:15Z</time>
      </trkpt>
      <trkpt lat="46.22312" lon="6.86169">
        <ele>1778</ele>
        <time>2010-01-01T11:41:17Z</time>
      </trkpt>
      <trkpt lat="46.22307" lon="6.86167">
        <ele>1777</ele>
        <time>2010-01-01T11:41:19Z</time>
      </trkpt>
      <trkpt lat="46.22302" lon="6.86168">
        <ele>1776</ele>
        <time>2010-01-01T11:41:21Z</time>
      </trkpt>
      <trkpt lat="46.22292" lon="6.86173">
        <ele>1774</ele>
        <time>2010-01-01T11:41:25Z</time>
      </trkpt>
      <trkpt lat="46.22287" lon="6.86174">
        <ele>1773</ele>
        <time>2010-01-01T11:41:27Z</time>
      </trkpt>
      <trkpt lat="46.22279" lon="6.86182">
        <ele>1772</ele>
        <time>2010-01-01T11:41:31Z</time>
      </trkpt>
      <trkpt lat="46.22274" lon="6.86184">
        <ele>1771</ele>
        <time>2010-01-01T11:41:33Z</time>
      </trkpt>
      <trkpt lat="46.22262" lon="6.86192">
        <ele>1770</ele>
        <time>2010-01-01T11:41:38Z</time>
      </trkpt>
      <trkpt lat="46.22253" lon="6.86194">
        <ele>1769</ele>
        <time>2010-01-01T11:41:42Z</time>
      </trkpt>
      <trkpt lat="46.22238" lon="6.86192">
        <ele>1758</ele>
        <time>2010-01-01T11:41:48Z</time>
      </trkpt>
      <trkpt lat="46.22232" lon="6.86189">
        <ele>1758</ele>
        <time>2010-01-01T11:41:51Z</time>
      </trkpt>
      <trkpt lat="46.22226" lon="6.86189">
        <ele>1757</ele>
        <time>2010-01-01T11:41:53Z</time>
      </trkpt>
      <trkpt lat="46.2222" lon="6.86188">
        <ele>1756</ele>
        <time>2010-01-01T11:41:56Z</time>
      </trkpt>
      <trkpt lat="46.22201" lon="6.86188">
        <ele>1753</ele>
        <time>2010-01-01T11:42:03Z</time>
      </trkpt>
      <trkpt lat="46.22195" lon="6.8619">
        <ele>1752</ele>
        <time>2010-01-01T11:42:06Z</time>
      </trkpt>
      <trkpt lat="46.22188" lon="6.86194">
        <ele>1751</ele>
        <time>2010-01-01T11:42:08Z</time>
      </trkpt>
      <trkpt lat="46.22178" lon="6.86198">
        <ele>1750</ele>
        <time>2010-01-01T11:42:13Z</time>
      </trkpt>
      <trkpt lat="46.22171" lon="6.86205">
        <ele>1749</ele>
        <time>2010-01-01T11:42:16Z</time>
      </trkpt>
      <trkpt lat="46.22164" lon="6.8621">
        <ele>1736</ele>
        <time>2010-01-01T11:42:19Z</time>
      </trkpt>
      <trkpt lat="46.22156" lon="6.86218">
        <ele>1735</ele>
        <time>2010-01-01T11:42:23Z</time>
      </trkpt>
      <trkpt lat="46.22144" lon="6.8623">
        <ele>1734</ele>
        <time>2010-01-01T11:42:29Z</time>
      </trkpt>
      <trkpt lat="46.22138" lon="6.86228">
        <ele>1733</ele>
        <time>2010-01-01T11:42:32Z</time>
      </trkpt>
      <trkpt lat="46.22134" lon="6.86224">
        <ele>1733</ele>
        <time>2010-01-01T11:42:33Z</time>
      </trkpt>
      <trkpt lat="46.22132" lon="6.86217">
        <ele>1733</ele>
        <time>2010-01-01T11:42:36Z</time>
      </trkpt>
      <trkpt lat="46.22132" lon="6.86216">
        <ele>1733</ele>
        <time>2010-01-01T11:42:36Z</time>
      </trkpt>
      <trkpt lat="46.2213" lon="6.86207">
        <ele>1734</ele>
        <time>2010-01-01T11:42:38Z</time>
      </trkpt>
      <trkpt lat="46.22119" lon="6.86188">
        <ele>1734</ele>
        <time>2010-01-01T11:42:45Z</time>
      </trkpt>
      <trkpt lat="46.22114" lon="6.86182">
        <ele>1733</ele>
        <time>2010-01-01T11:42:48Z</time>
      </trkpt>
      <trkpt lat="46.22106" lon="6.86179">
        <ele>1732</ele>
        <time>2010-01-01T11:42:51Z</time>
      </trkpt>
      <trkpt lat="46.22092" lon="6.86177">
        <ele>1730</ele>
        <time>2010-01-01T11:42:57Z</time>
      </trkpt>
      <trkpt lat="46.22083" lon="6.86172">
        <ele>1725</ele>
        <time>2010-01-01T11:43:01Z</time>
      </trkpt>
      <trkpt lat="46.22075" lon="6.86169">
        <ele>1724</ele>
        <time>2010-01-01T11:43:04Z</time>
      </trkpt>
      <trkpt lat="46.22074" lon="6.86158">
        <ele>1726</ele>
        <time>2010-01-01T11:43:07Z</time>
      </trkpt>
      <trkpt lat="46.22072" lon="6.8612">
        <ele>1727</ele>
        <time>2010-01-01T11:43:17Z</time>
      </trkpt>
      <trkpt lat="46.2207" lon="6.86089">
        <ele>1731</ele>
        <time>2010-01-01T11:43:26Z</time>
      </trkpt>
      <trkpt lat="46.22064" lon="6.86072">
        <ele>1735</ele>
        <time>2010-01-01T11:43:31Z</time>
      </trkpt>
      <trkpt lat="46.22053" lon="6.86056">
        <ele>1735</ele>
        <time>2010-01-01T11:43:38Z</time>
      </trkpt>
      <trkpt lat="46.22034" lon="6.86029">
        <ele>1736</ele>
        <time>2010-01-01T11:43:48Z</time>
      </trkpt>
      <trkpt lat="46.22024" lon="6.86015">
        <ele>1735</ele>
        <time>2010-01-01T11:43:54Z</time>
      </trkpt>
      <trkpt lat="46.22016" lon="6.85992">
        <ele>1741</ele>
        <time>2010-01-01T11:44:01Z</time>
      </trkpt>
      <trkpt lat="46.22011" lon="6.85973">
        <ele>1743</ele>
        <time>2010-01-01T11:44:06Z</time>
      </trkpt>
      <trkpt lat="46.22009" lon="6.85965">
        <ele>1744</ele>
        <time>2010-01-01T11:44:09Z</time>
      </trkpt>
      <trkpt lat="46.21984" lon="6.85949">
        <ele>1736</ele>
        <time>2010-01-01T11:44:20Z</time>
      </trkpt>
      <trkpt lat="46.21951" lon="6.8593">
        <ele>1736</ele>
        <time>2010-01-01T11:44:34Z</time>
      </trkpt>
      <trkpt lat="46.21944" lon="6.85925">
        <ele>1736</ele>
        <time>2010-01-01T11:44:37Z</time>
      </trkpt>
      <trkpt lat="46.21937" lon="6.85927">
        <ele>1736</ele>
        <time>2010-01-01T11:44:40Z</time>
      </trkpt>
      <trkpt lat="46.21927" lon="6.85933">
        <ele>1736</ele>
        <time>2010-01-01T11:44:44Z</time>
      </trkpt>
      <trkpt lat="46.2191" lon="6.8594">
        <ele>1735</ele>
        <time>2010-01-01T11:44:51Z</time>
      </trkpt>
      <trkpt lat="46.21898" lon="6.85942">
        <ele>1735</ele>
        <time>2010-01-01T11:44:56Z</time>
      </trkpt>
      <trkpt lat="46.2187" lon="6.85946">
        <ele>1735</ele>
        <time>2010-01-01T11:45:07Z</time>
      </trkpt>
      <trkpt lat="46.21841" lon="6.85949">
        <ele>1736</ele>
        <time>2010-01-01T11:45:19Z</time>
      </trkpt>
      <trkpt lat="46.2183" lon="6.85955">
        <ele>1740</ele>
        <time>2010-01-01T11:45:24Z</time>
      </trkpt>
      <trkpt lat="46.21809" lon="6.85963">
        <ele>1740</ele>
        <time>2010-01-01T11:45:32Z</time>
      </trkpt>
      <trkpt lat="46.21799" lon="6.85971">
        <ele>1741</ele>
        <time>2010-01-01T11:45:37Z</time>
      </trkpt>
      <trkpt lat="46.21782" lon="6.85992">
        <ele>1741</ele>
        <time>2010-01-01T11:45:46Z</time>
      </trkpt>
      <trkpt lat="46.21778" lon="6.86008">
        <ele>1735</ele>
        <time>2010-01-01T11:45:51Z</time>
      </trkpt>
      <trkpt lat="46.21773" lon="6.86025">
        <ele>1734</ele>
        <time>2010-01-01T11:45:56Z</time>
      </trkpt>
      <trkpt lat="46.21769" lon="6.86038">
        <ele>1733</ele>
        <time>2010-01-01T11:46:00Z</time>
      </trkpt>
      <trkpt lat="46.2176" lon="6.8605">
        <ele>1733</ele>
        <time>2010-01-01T11:46:05Z</time>
      </trkpt>
      <trkpt lat="46.21753" lon="6.86056">
        <ele>1733</ele>
        <time>2010-01-01T11:46:08Z</time>
      </trkpt>
      <trkpt lat="46.21744" lon="6.86068">
        <ele>1738</ele>
        <time>2010-01-01T11:46:13Z</time>
      </trkpt>
      <trkpt lat="46.21721" lon="6.86105">
        <ele>1731</ele>
        <time>2010-01-01T11:46:27Z</time>
      </trkpt>
      <trkpt lat="46.2171" lon="6.86119">
        <ele>1731</ele>
        <time>2010-01-01T11:46:32Z</time>
      </trkpt>
      <trkpt lat="46.21704" lon="6.86126">
        <ele>1730</ele>
        <time>2010-01-01T11:46:36Z</time>
      </trkpt>
      <trkpt lat="46.21701" lon="6.86124">
        <ele>1730</ele>
        <time>2010-01-01T11:46:37Z</time>
      </trkpt>
      <trkpt lat="46.21696" lon="6.8612">
        <ele>1731</ele>
        <time>2010-01-01T11:46:39Z</time>
      </trkpt>
      <trkpt lat="46.21672" lon="6.86093">
        <ele>1735</ele>
        <time>2010-01-01T11:46:51Z</time>
      </trkpt>
      <trkpt lat="46.2166" lon="6.86084">
        <ele>1734</ele>
        <time>2010-01-01T11:46:57Z</time>
      </trkpt>
      <trkpt lat="46.21637" lon="6.86057">
        <ele>1738</ele>
        <time>2010-01-01T11:47:09Z</time>
      </trkpt>
      <trkpt lat="46.21612" lon="6.86019">
        <ele>1739</ele>
        <time>2010-01-01T11:47:23Z</time>
      </trkpt>
      <trkpt lat="46.21601" lon="6.85999">
        <ele>1748</ele>
        <time>2010-01-01T11:47:30Z</time>
      </trkpt>
      <trkpt lat="46.21587" lon="6.85976">
        <ele>1750</ele>
        <time>2010-01-01T11:47:39Z</time>
      </trkpt>
      <trkpt lat="46.21576" lon="6.85959">
        <ele>1741</ele>
        <time>2010-01-01T11:47:45Z</time>
      </trkpt>
      <trkpt lat="46.2156" lon="6.85937">
        <ele>1743</ele>
        <time>2010-01-01T11:47:54Z</time>
      </trkpt>
      <trkpt lat="46.21553" lon="6.85927">
        <ele>1743</ele>
        <time>2010-01-01T11:47:58Z</time>
      </trkpt>
      <trkpt lat="46.21549" lon="6.85919">
        <ele>1742</ele>
        <time>2010-01-01T11:48:01Z</time>
      </trkpt>
      <trkpt lat="46.21535" lon="6.85866">
        <ele>1754</ele>
        <time>2010-01-01T11:48:17Z</time>
      </trkpt>
      <trkpt lat="46.21515" lon="6.85824">
        <ele>1759</ele>
        <time>2010-01-01T11:48:31Z</time>
      </trkpt>
      <trkpt lat="46.21483" lon="6.8578">
        <ele>1750</ele>
        <time>2010-01-01T11:48:48Z</time>
      </trkpt>
      <trkpt lat="46.21432" lon="6.85704">
        <ele>1757</ele>
        <time>2010-01-01T11:49:17Z</time>
      </trkpt>
      <trkpt lat="46.21413" lon="6.85679">
        <ele>1750</ele>
        <time>2010-01-01T11:49:28Z</time>
      </trkpt>
      <trkpt lat="46.214" lon="6.85667">
        <ele>1749</ele>
        <time>2010-01-01T11:49:34Z</time>
      </trkpt>
      <trkpt lat="46.21393" lon="6.85659">
        <ele>1756</ele>
        <time>2010-01-01T11:49:38Z</time>
      </trkpt>
      <trkpt lat="46.21387" lon="6.85656">
        <ele>1755</ele>
        <time>2010-01-01T11:49:40Z</time>
      </trkpt>
      <trkpt lat="46.21366" lon="6.85641">
        <ele>1753</ele>
        <time>2010-01-01T11:49:49Z</time>
      </trkpt>
      <trkpt lat="46.21355" lon="6.8563">
        <ele>1753</ele>
        <time>2010-01-01T11:49:55Z</time>
      </trkpt>
      <trkpt lat="46.21344" lon="6.85613">
        <ele>1754</ele>
        <time>2010-01-01T11:50:01Z</time>
      </trkpt>
      <trkpt lat="46.21336" lon="6.85598">
        <ele>1754</ele>
        <time>2010-01-01T11:50:07Z</time>
      </trkpt>
      <trkpt lat="46.2133" lon="6.85586">
        <ele>1751</ele>
        <time>2010-01-01T11:50:11Z</time>
      </trkpt>
      <trkpt lat="46.21327" lon="6.85581">
        <ele>1753</ele>
        <time>2010-01-01T11:50:13Z</time>
      </trkpt>
      <trkpt lat="46.21297" lon="6.85559">
        <ele>1750</ele>
        <time>2010-01-01T11:50:26Z</time>
      </trkpt>
      <trkpt lat="46.21276" lon="6.85537">
        <ele>1750</ele>
        <time>2010-01-01T11:50:36Z</time>
      </trkpt>
      <trkpt lat="46.21272" lon="6.8553">
        <ele>1750</ele>
        <time>2010-01-01T11:50:39Z</time>
      </trkpt>
      <trkpt lat="46.21267" lon="6.8552">
        <ele>1750</ele>
        <time>2010-01-01T11:50:42Z</time>
      </trkpt>
      <trkpt lat="46.21245" lon="6.85483">
        <ele>1749</ele>
        <time>2010-01-01T11:50:56Z</time>
      </trkpt>
      <trkpt lat="46.21235" lon="6.8547">
        <ele>1749</ele>
        <time>2010-01-01T11:51:01Z</time>
      </trkpt>
      <trkpt lat="46.2122" lon="6.85453">
        <ele>1749</ele>
        <time>2010-01-01T11:51:09Z</time>
      </trkpt>
      <trkpt lat="46.21208" lon="6.85443">
        <ele>1749</ele>
        <time>2010-01-01T11:51:15Z</time>
      </trkpt>
      <trkpt lat="46.21201" lon="6.85434">
        <ele>1748</ele>
        <time>2010-01-01T11:51:18Z</time>
      </trkpt>
      <trkpt lat="46.21196" lon="6.85428">
        <ele>1748</ele>
        <time>2010-01-01T11:51:21Z</time>
      </trkpt>
      <trkpt lat="46.21191" lon="6.85423">
        <ele>1748</ele>
        <time>2010-01-01T11:51:23Z</time>
      </trkpt>
      <trkpt lat="46.21184" lon="6.85422">
        <ele>1747</ele>
        <time>2010-01-01T11:51:26Z</time>
      </trkpt>
      <trkpt lat="46.21178" lon="6.8542">
        <ele>1746</ele>
        <time>2010-01-01T11:51:29Z</time>
      </trkpt>
      <trkpt lat="46.21168" lon="6.85414">
        <ele>1747</ele>
        <time>2010-01-01T11:51:33Z</time>
      </trkpt>
      <trkpt lat="46.21162" lon="6.85407">
        <ele>1743</ele>
        <time>2010-01-01T11:51:36Z</time>
      </trkpt>
      <trkpt lat="46.21156" lon="6.85399">
        <ele>1742</ele>
        <time>2010-01-01T11:51:39Z</time>
      </trkpt>
      <trkpt lat="46.21149" lon="6.85386">
        <ele>1742</ele>
        <time>2010-01-01T11:51:44Z</time>
      </trkpt>
      <trkpt lat="46.21143" lon="6.85379">
        <ele>1742</ele>
        <time>2010-01-01T11:51:47Z</time>
      </trkpt>
      <trkpt lat="46.21136" lon="6.85372">
        <ele>1742</ele>
        <time>2010-01-01T11:51:50Z</time>
      </trkpt>
      <trkpt lat="46.21132" lon="6.85368">
        <ele>1741</ele>
        <time>2010-01-01T11:51:52Z</time>
      </trkpt>
      <trkpt lat="46.21122" lon="6.85353">
        <ele>1741</ele>
        <time>2010-01-01T11:51:58Z</time>
      </trkpt>
      <trkpt lat="46.21119" lon="6.85342">
        <ele>1741</ele>
        <time>2010-01-01T11:52:01Z</time>
      </trkpt>
      <trkpt lat="46.21117" lon="6.85335">
        <ele>1740</ele>
        <time>2010-01-01T11:52:03Z</time>
      </trkpt>
      <trkpt lat="46.21112" lon="6.85333">
        <ele>1750</ele>
        <time>2010-01-01T11:52:05Z</time>
      </trkpt>
      <trkpt lat="46.21109" lon="6.85335">
        <ele>1739</ele>
        <time>2010-01-01T11:52:06Z</time>
      </trkpt>
      <trkpt lat="46.21109" lon="6.85336">
        <ele>1739</ele>
        <time>2010-01-01T11:52:07Z</time>
      </trkpt>
      <trkpt lat="46.2111" lon="6.85345">
        <ele>1739</ele>
        <time>2010-01-01T11:52:09Z</time>
      </trkpt>
      <trkpt lat="46.2111" lon="6.85345">
        <ele>1739</ele>
        <time>2010-01-01T11:52:09Z</time>
      </trkpt>
      <trkpt lat="46.21114" lon="6.85356">
        <ele>1739</ele>
        <time>2010-01-01T11:52:12Z</time>
      </trkpt>
      <trkpt lat="46.21114" lon="6.85357">
        <ele>1739</ele>
        <time>2010-01-01T11:52:13Z</time>
      </trkpt>
      <trkpt lat="46.21114" lon="6.85359">
        <ele>1739</ele>
        <time>2010-01-01T11:52:13Z</time>
      </trkpt>
      <trkpt lat="46.21121" lon="6.85383">
        <ele>1738</ele>
        <time>2010-01-01T11:52:21Z</time>
      </trkpt>
      <trkpt lat="46.21125" lon="6.85397">
        <ele>1738</ele>
        <time>2010-01-01T11:52:25Z</time>
      </trkpt>
      <trkpt lat="46.21126" lon="6.85398">
        <ele>1738</ele>
        <time>2010-01-01T11:52:25Z</time>
      </trkpt>
      <trkpt lat="46.21129" lon="6.85412">
        <ele>1738</ele>
        <time>2010-01-01T11:52:29Z</time>
      </trkpt>
      <trkpt lat="46.21133" lon="6.85423">
        <ele>1730</ele>
        <time>2010-01-01T11:52:33Z</time>
      </trkpt>
      <trkpt lat="46.21136" lon="6.85432">
        <ele>1730</ele>
        <time>2010-01-01T11:52:36Z</time>
      </trkpt>
      <trkpt lat="46.21137" lon="6.85433">
        <ele>1730</ele>
        <time>2010-01-01T11:52:36Z</time>
      </trkpt>
      <trkpt lat="46.21137" lon="6.85447">
        <ele>1729</ele>
        <time>2010-01-01T11:52:40Z</time>
      </trkpt>
      <trkpt lat="46.21133" lon="6.85465">
        <ele>1727</ele>
        <time>2010-01-01T11:52:45Z</time>
      </trkpt>
      <trkpt lat="46.21122" lon="6.8547">
        <ele>1725</ele>
        <time>2010-01-01T11:52:49Z</time>
      </trkpt>
      <trkpt lat="46.21109" lon="6.85482">
        <ele>1722</ele>
        <time>2010-01-01T11:52:56Z</time>
      </trkpt>
      <trkpt lat="46.21082" lon="6.85508">
        <ele>1712</ele>
        <time>2010-01-01T11:53:09Z</time>
      </trkpt>
      <trkpt lat="46.21055" lon="6.85533">
        <ele>1709</ele>
        <time>2010-01-01T11:53:21Z</time>
      </trkpt>
      <trkpt lat="46.20985" lon="6.85598">
        <ele>1703</ele>
        <time>2010-01-01T11:53:55Z</time>
      </trkpt>
      <trkpt lat="46.2097" lon="6.85621">
        <ele>1702</ele>
        <time>2010-01-01T11:54:03Z</time>
      </trkpt>
      <trkpt lat="46.20957" lon="6.85642">
        <ele>1701</ele>
        <time>2010-01-01T11:54:11Z</time>
      </trkpt>
      <trkpt lat="46.20948" lon="6.85651">
        <ele>1700</ele>
        <time>2010-01-01T11:54:16Z</time>
      </trkpt>
      <trkpt lat="46.20923" lon="6.8567">
        <ele>1697</ele>
        <time>2010-01-01T11:54:27Z</time>
      </trkpt>
      <trkpt lat="46.20906" lon="6.85675">
        <ele>1697</ele>
        <time>2010-01-01T11:54:34Z</time>
      </trkpt>
      <trkpt lat="46.20885" lon="6.85671">
        <ele>1697</ele>
        <time>2010-01-01T11:54:42Z</time>
      </trkpt>
      <trkpt lat="46.20869" lon="6.85646">
        <ele>1697</ele>
        <time>2010-01-01T11:54:52Z</time>
      </trkpt>
      <trkpt lat="46.20862" lon="6.85637">
        <ele>1697</ele>
        <time>2010-01-01T11:54:56Z</time>
      </trkpt>
      <trkpt lat="46.20849" lon="6.85632">
        <ele>1697</ele>
        <time>2010-01-01T11:55:01Z</time>
      </trkpt>
      <trkpt lat="46.20848" lon="6.85633">
        <ele>1697</ele>
        <time>2010-01-01T11:55:02Z</time>
      </trkpt>
      <trkpt lat="46.20833" lon="6.85641">
        <ele>1705</ele>
        <time>2010-01-01T11:55:08Z</time>
      </trkpt>
      <trkpt lat="46.20819" lon="6.85665">
        <ele>1703</ele>
        <time>2010-01-01T11:55:16Z</time>
      </trkpt>
      <trkpt lat="46.20769" lon="6.85737">
        <ele>1704</ele>
        <time>2010-01-01T11:55:45Z</time>
      </trkpt>
      <trkpt lat="46.20752" lon="6.85753">
        <ele>1704</ele>
        <time>2010-01-01T11:55:53Z</time>
      </trkpt>
      <trkpt lat="46.20728" lon="6.85762">
        <ele>1705</ele>
        <time>2010-01-01T11:56:03Z</time>
      </trkpt>
      <trkpt lat="46.20713" lon="6.85764">
        <ele>1705</ele>
        <time>2010-01-01T11:56:09Z</time>
      </trkpt>
      <trkpt lat="46.20685" lon="6.85783">
        <ele>1706</ele>
        <time>2010-01-01T11:56:21Z</time>
      </trkpt>
      <trkpt lat="46.20668" lon="6.85804">
        <ele>1704</ele>
        <time>2010-01-01T11:56:30Z</time>
      </trkpt>
      <trkpt lat="46.20667" lon="6.85806">
        <ele>1704</ele>
        <time>2010-01-01T11:56:31Z</time>
      </trkpt>
      <trkpt lat="46.20657" lon="6.85828">
        <ele>1705</ele>
        <time>2010-01-01T11:56:38Z</time>
      </trkpt>
      <trkpt lat="46.20645" lon="6.85844">
        <ele>1697</ele>
        <time>2010-01-01T11:56:45Z</time>
      </trkpt>
      <trkpt lat="46.20632" lon="6.85846">
        <ele>1696</ele>
        <time>2010-01-01T11:56:50Z</time>
      </trkpt>
      <trkpt lat="46.20616" lon="6.85844">
        <ele>1697</ele>
        <time>2010-01-01T11:56:56Z</time>
      </trkpt>
      <trkpt lat="46.20605" lon="6.85844">
        <ele>1698</ele>
        <time>2010-01-01T11:57:01Z</time>
      </trkpt>
      <trkpt lat="46.20581" lon="6.85833">
        <ele>1704</ele>
        <time>2010-01-01T11:57:11Z</time>
      </trkpt>
      <trkpt lat="46.2057" lon="6.85832">
        <ele>1707</ele>
        <time>2010-01-01T11:57:15Z</time>
      </trkpt>
      <trkpt lat="46.20556" lon="6.85827">
        <ele>1708</ele>
        <time>2010-01-01T11:57:21Z</time>
      </trkpt>
      <trkpt lat="46.20547" lon="6.85829">
        <ele>1708</ele>
        <time>2010-01-01T11:57:25Z</time>
      </trkpt>
      <trkpt lat="46.20534" lon="6.85832">
        <ele>1707</ele>
        <time>2010-01-01T11:57:30Z</time>
      </trkpt>
      <trkpt lat="46.20523" lon="6.85837">
        <ele>1694</ele>
        <time>2010-01-01T11:57:35Z</time>
      </trkpt>
      <trkpt lat="46.20517" lon="6.85837">
        <ele>1694</ele>
        <time>2010-01-01T11:57:37Z</time>
      </trkpt>
      <trkpt lat="46.20513" lon="6.85833">
        <ele>1703</ele>
        <time>2010-01-01T11:57:39Z</time>
      </trkpt>
      <trkpt lat="46.20509" lon="6.8583">
        <ele>1702</ele>
        <time>2010-01-01T11:57:41Z</time>
      </trkpt>
      <trkpt lat="46.20503" lon="6.85824">
        <ele>1702</ele>
        <time>2010-01-01T11:57:44Z</time>
      </trkpt>
      <trkpt lat="46.20503" lon="6.85833">
        <ele>1699</ele>
        <time>2010-01-01T11:57:46Z</time>
      </trkpt>
      <trkpt lat="46.20503" lon="6.85843">
        <ele>1695</ele>
        <time>2010-01-01T11:57:49Z</time>
      </trkpt>
      <trkpt lat="46.20506" lon="6.85852">
        <ele>1693</ele>
        <time>2010-01-01T11:57:52Z</time>
      </trkpt>
      <trkpt lat="46.20514" lon="6.85859">
        <ele>1692</ele>
        <time>2010-01-01T11:57:56Z</time>
      </trkpt>
      <trkpt lat="46.20521" lon="6.85864">
        <ele>1691</ele>
        <time>2010-01-01T11:57:59Z</time>
      </trkpt>
      <trkpt lat="46.20533" lon="6.85864">
        <ele>1691</ele>
        <time>2010-01-01T11:58:03Z</time>
      </trkpt>
      <trkpt lat="46.20543" lon="6.85863">
        <ele>1692</ele>
        <time>2010-01-01T11:58:08Z</time>
      </trkpt>
      <trkpt lat="46.20551" lon="6.85868">
        <ele>1692</ele>
        <time>2010-01-01T11:58:11Z</time>
      </trkpt>
      <trkpt lat="46.20565" lon="6.85871">
        <ele>1692</ele>
        <time>2010-01-01T11:58:17Z</time>
      </trkpt>
      <trkpt lat="46.20581" lon="6.85881">
        <ele>1691</ele>
        <time>2010-01-01T11:58:24Z</time>
      </trkpt>
      <trkpt lat="46.20592" lon="6.85899">
        <ele>1689</ele>
        <time>2010-01-01T11:58:30Z</time>
      </trkpt>
      <trkpt lat="46.20592" lon="6.85898">
        <ele>1689</ele>
        <time>2010-01-01T11:58:30Z</time>
      </trkpt>
      <trkpt lat="46.20607" lon="6.85906">
        <ele>1690</ele>
        <time>2010-01-01T11:58:37Z</time>
      </trkpt>
      <trkpt lat="46.20622" lon="6.85912">
        <ele>1690</ele>
        <time>2010-01-01T11:58:43Z</time>
      </trkpt>
      <trkpt lat="46.20624" lon="6.85914">
        <ele>1689</ele>
        <time>2010-01-01T11:58:44Z</time>
      </trkpt>
      <trkpt lat="46.20652" lon="6.85928">
        <ele>1678</ele>
        <time>2010-01-01T11:58:56Z</time>
      </trkpt>
      <trkpt lat="46.20694" lon="6.85937">
        <ele>1675</ele>
        <time>2010-01-01T11:59:13Z</time>
      </trkpt>
      <trkpt lat="46.20731" lon="6.85952">
        <ele>1673</ele>
        <time>2010-01-01T11:59:28Z</time>
      </trkpt>
      <trkpt lat="46.20745" lon="6.85965">
        <ele>1671</ele>
        <time>2010-01-01T11:59:35Z</time>
      </trkpt>
      <trkpt lat="46.20746" lon="6.85975">
        <ele>1669</ele>
        <time>2010-01-01T11:59:37Z</time>
      </trkpt>
      <trkpt lat="46.20742" lon="6.85985">
        <ele>1667</ele>
        <time>2010-01-01T11:59:41Z</time>
      </trkpt>
      <trkpt lat="46.20727" lon="6.86004">
        <ele>1659</ele>
        <time>2010-01-01T11:59:49Z</time>
      </trkpt>
      <trkpt lat="46.20705" lon="6.86021">
        <ele>1658</ele>
        <time>2010-01-01T11:59:59Z</time>
      </trkpt>
      <trkpt lat="46.2069" lon="6.86012">
        <ele>1659</ele>
        <time>2010-01-01T12:00:05Z</time>
      </trkpt>
      <trkpt lat="46.20679" lon="6.85998">
        <ele>1668</ele>
        <time>2010-01-01T12:00:11Z</time>
      </trkpt>
      <trkpt lat="46.20676" lon="6.85984">
        <ele>1669</ele>
        <time>2010-01-01T12:00:15Z</time>
      </trkpt>
      <trkpt lat="46.20676" lon="6.85999">
        <ele>1667</ele>
        <time>2010-01-01T12:00:19Z</time>
      </trkpt>
      <trkpt lat="46.20668" lon="6.86">
        <ele>1665</ele>
        <time>2010-01-01T12:00:22Z</time>
      </trkpt>
      <trkpt lat="46.20665" lon="6.85992">
        <ele>1668</ele>
        <time>2010-01-01T12:00:25Z</time>
      </trkpt>
      <trkpt lat="46.20648" lon="6.85891">
        <ele>1690</ele>
        <time>2010-01-01T12:00:54Z</time>
      </trkpt>
      <trkpt lat="46.20653" lon="6.85892">
        <ele>1690</ele>
        <time>2010-01-01T12:00:56Z</time>
      </trkpt>
      <trkpt lat="46.20642" lon="6.85852">
        <ele>1696</ele>
        <time>2010-01-01T12:01:07Z</time>
      </trkpt>
      <trkpt lat="46.20638" lon="6.85824">
        <ele>1707</ele>
        <time>2010-01-01T12:01:15Z</time>
      </trkpt>
      <trkpt lat="46.20631" lon="6.85791">
        <ele>1710</ele>
        <time>2010-01-01T12:01:25Z</time>
      </trkpt>
      <trkpt lat="46.20625" lon="6.85753">
        <ele>1712</ele>
        <time>2010-01-01T12:01:36Z</time>
      </trkpt>
      <trkpt lat="46.20616" lon="6.85704">
        <ele>1728</ele>
        <time>2010-01-01T12:01:50Z</time>
      </trkpt>
      <trkpt lat="46.20612" lon="6.85678">
        <ele>1732</ele>
        <time>2010-01-01T12:01:57Z</time>
      </trkpt>
      <trkpt lat="46.20595" lon="6.85577">
        <ele>1777</ele>
        <time>2010-01-01T12:02:26Z</time>
      </trkpt>
      <trkpt lat="46.20583" lon="6.85509">
        <ele>1802</ele>
        <time>2010-01-01T12:02:45Z</time>
      </trkpt>
      <trkpt lat="46.2058" lon="6.85491">
        <ele>1810</ele>
        <time>2010-01-01T12:02:50Z</time>
      </trkpt>
      <trkpt lat="46.20577" lon="6.85473">
        <ele>1816</ele>
        <time>2010-01-01T12:02:55Z</time>
      </trkpt>
      <trkpt lat="46.20575" lon="6.85454">
        <ele>1820</ele>
        <time>2010-01-01T12:03:01Z</time>
      </trkpt>
      <trkpt lat="46.20573" lon="6.8544">
        <ele>1822</ele>
        <time>2010-01-01T12:03:05Z</time>
      </trkpt>
      <trkpt lat="46.20569" lon="6.85423">
        <ele>1823</ele>
        <time>2010-01-01T12:03:10Z</time>
      </trkpt>
      <trkpt lat="46.20568" lon="6.85414">
        <ele>1832</ele>
        <time>2010-01-01T12:03:12Z</time>
      </trkpt>
      <trkpt lat="46.20565" lon="6.85394">
        <ele>1835</ele>
        <time>2010-01-01T12:03:18Z</time>
      </trkpt>
      <trkpt lat="46.20563" lon="6.85381">
        <ele>1838</ele>
        <time>2010-01-01T12:03:22Z</time>
      </trkpt>
      <trkpt lat="46.20563" lon="6.85381">
        <ele>1838</ele>
        <time>2010-01-01T12:03:22Z</time>
      </trkpt>
      <trkpt lat="46.20561" lon="6.85366">
        <ele>1840</ele>
        <time>2010-01-01T12:03:26Z</time>
      </trkpt>
      <trkpt lat="46.20559" lon="6.85358">
        <ele>1841</ele>
        <time>2010-01-01T12:03:28Z</time>
      </trkpt>
      <trkpt lat="46.20557" lon="6.85349">
        <ele>1842</ele>
        <time>2010-01-01T12:03:31Z</time>
      </trkpt>
      <trkpt lat="46.20554" lon="6.85334">
        <ele>1843</ele>
        <time>2010-01-01T12:03:35Z</time>
      </trkpt>
      <trkpt lat="46.2055" lon="6.85318">
        <ele>1857</ele>
        <time>2010-01-01T12:03:40Z</time>
      </trkpt>
      <trkpt lat="46.20545" lon="6.85291">
        <ele>1862</ele>
        <time>2010-01-01T12:03:48Z</time>
      </trkpt>
      <trkpt lat="46.20538" lon="6.85246">
        <ele>1886</ele>
        <time>2010-01-01T12:04:00Z</time>
      </trkpt>
      <trkpt lat="46.20524" lon="6.85163">
        <ele>1922</ele>
        <time>2010-01-01T12:04:24Z</time>
      </trkpt>
      <trkpt lat="46.20506" lon="6.85055">
        <ele>1958</ele>
        <time>2010-01-01T12:04:55Z</time>
      </trkpt>
      <trkpt lat="46.2048" lon="6.84891">
        <ele>1996</ele>
        <time>2010-01-01T12:05:41Z</time>
      </trkpt>
      <trkpt lat="46.20466" lon="6.84808">
        <ele>2004</ele>
        <time>2010-01-01T12:06:05Z</time>
      </trkpt>
      <trkpt lat="46.20433" lon="6.84707">
        <ele>2007</ele>
        <time>2010-01-01T12:06:36Z</time>
      </trkpt>
      <trkpt lat="46.20364" lon="6.84621">
        <ele>2014</ele>
        <time>2010-01-01T12:07:13Z</time>
      </trkpt>
      <trkpt lat="46.20251" lon="6.84524">
        <ele>2008</ele>
        <time>2010-01-01T12:08:05Z</time>
      </trkpt>
      <trkpt lat="46.20227" lon="6.84499">
        <ele>2011</ele>
        <time>2010-01-01T12:08:17Z</time>
      </trkpt>
      <trkpt lat="46.20207" lon="6.84481">
        <ele>2011</ele>
        <time>2010-01-01T12:08:26Z</time>
      </trkpt>
      <trkpt lat="46.20189" lon="6.84467">
        <ele>2013</ele>
        <time>2010-01-01T12:08:35Z</time>
      </trkpt>
      <trkpt lat="46.20177" lon="6.84455">
        <ele>2014</ele>
        <time>2010-01-01T12:08:41Z</time>
      </trkpt>
      <trkpt lat="46.20167" lon="6.84441">
        <ele>2018</ele>
        <time>2010-01-01T12:08:46Z</time>
      </trkpt>
      <trkpt lat="46.20167" lon="6.8444">
        <ele>2021</ele>
        <time>2010-01-01T12:08:46Z</time>
      </trkpt>
      <trkpt lat="46.20159" lon="6.84431">
        <ele>2023</ele>
        <time>2010-01-01T12:08:50Z</time>
      </trkpt>
      <trkpt lat="46.20158" lon="6.8443">
        <ele>2023</ele>
        <time>2010-01-01T12:08:51Z</time>
      </trkpt>
      <trkpt lat="46.20146" lon="6.84423">
        <ele>2022</ele>
        <time>2010-01-01T12:08:56Z</time>
      </trkpt>
      <trkpt lat="46.20125" lon="6.84419">
        <ele>2021</ele>
        <time>2010-01-01T12:09:04Z</time>
      </trkpt>
      <trkpt lat="46.20105" lon="6.84414">
        <ele>2033</ele>
        <time>2010-01-01T12:09:12Z</time>
      </trkpt>
      <trkpt lat="46.20095" lon="6.8441">
        <ele>2033</ele>
        <time>2010-01-01T12:09:17Z</time>
      </trkpt>
      <trkpt lat="46.20084" lon="6.84403">
        <ele>2034</ele>
        <time>2010-01-01T12:09:22Z</time>
      </trkpt>
      <trkpt lat="46.20075" lon="6.84396">
        <ele>2039</ele>
        <time>2010-01-01T12:09:26Z</time>
      </trkpt>
      <trkpt lat="46.20058" lon="6.84385">
        <ele>2042</ele>
        <time>2010-01-01T12:09:33Z</time>
      </trkpt>
      <trkpt lat="46.20054" lon="6.84381">
        <ele>2043</ele>
        <time>2010-01-01T12:09:35Z</time>
      </trkpt>
      <trkpt lat="46.20049" lon="6.84385">
        <ele>2043</ele>
        <time>2010-01-01T12:09:37Z</time>
      </trkpt>
      <trkpt lat="46.20047" lon="6.84391">
        <ele>2042</ele>
        <time>2010-01-01T12:09:39Z</time>
      </trkpt>
      <trkpt lat="46.20043" lon="6.84393">
        <ele>2041</ele>
        <time>2010-01-01T12:09:41Z</time>
      </trkpt>
      <trkpt lat="46.20038" lon="6.84396">
        <ele>2041</ele>
        <time>2010-01-01T12:09:43Z</time>
      </trkpt>
      <trkpt lat="46.2003" lon="6.84397">
        <ele>2040</ele>
        <time>2010-01-01T12:09:46Z</time>
      </trkpt>
      <trkpt lat="46.20025" lon="6.84397">
        <ele>2040</ele>
        <time>2010-01-01T12:09:48Z</time>
      </trkpt>
      <trkpt lat="46.20019" lon="6.84397">
        <ele>2039</ele>
        <time>2010-01-01T12:09:50Z</time>
      </trkpt>
      <trkpt lat="46.20012" lon="6.84398">
        <ele>2038</ele>
        <time>2010-01-01T12:09:53Z</time>
      </trkpt>
      <trkpt lat="46.2" lon="6.84396">
        <ele>2038</ele>
        <time>2010-01-01T12:09:58Z</time>
      </trkpt>
      <trkpt lat="46.19992" lon="6.84392">
        <ele>2034</ele>
        <time>2010-01-01T12:10:01Z</time>
      </trkpt>
      <trkpt lat="46.19991" lon="6.84392">
        <ele>2034</ele>
        <time>2010-01-01T12:10:02Z</time>
      </trkpt>
      <trkpt lat="46.19983" lon="6.8438">
        <ele>2036</ele>
        <time>2010-01-01T12:10:06Z</time>
      </trkpt>
      <trkpt lat="46.19975" lon="6.84372">
        <ele>2038</ele>
        <time>2010-01-01T12:10:10Z</time>
      </trkpt>
      <trkpt lat="46.19956" lon="6.84356">
        <ele>2038</ele>
        <time>2010-01-01T12:10:19Z</time>
      </trkpt>
      <trkpt lat="46.19927" lon="6.84339">
        <ele>2040</ele>
        <time>2010-01-01T12:10:31Z</time>
      </trkpt>
      <trkpt lat="46.19921" lon="6.84326">
        <ele>2049</ele>
        <time>2010-01-01T12:10:36Z</time>
      </trkpt>
      <trkpt lat="46.19913" lon="6.84314">
        <ele>2044</ele>
        <time>2010-01-01T12:10:41Z</time>
      </trkpt>
      <trkpt lat="46.19908" lon="6.843">
        <ele>2046</ele>
        <time>2010-01-01T12:10:45Z</time>
      </trkpt>
      <trkpt lat="46.19904" lon="6.84292">
        <ele>2047</ele>
        <time>2010-01-01T12:10:47Z</time>
      </trkpt>
      <trkpt lat="46.19901" lon="6.84284">
        <ele>2049</ele>
        <time>2010-01-01T12:10:50Z</time>
      </trkpt>
      <trkpt lat="46.19858" lon="6.84259">
        <ele>2047</ele>
        <time>2010-01-01T12:11:09Z</time>
      </trkpt>
      <trkpt lat="46.19833" lon="6.84245">
        <ele>2052</ele>
        <time>2010-01-01T12:11:19Z</time>
      </trkpt>
      <trkpt lat="46.19821" lon="6.84247">
        <ele>2053</ele>
        <time>2010-01-01T12:11:24Z</time>
      </trkpt>
      <trkpt lat="46.19793" lon="6.84231">
        <ele>2054</ele>
        <time>2010-01-01T12:11:36Z</time>
      </trkpt>
      <trkpt lat="46.19767" lon="6.84234">
        <ele>2048</ele>
        <time>2010-01-01T12:11:47Z</time>
      </trkpt>
      <trkpt lat="46.1974" lon="6.84242">
        <ele>2034</ele>
        <time>2010-01-01T12:11:58Z</time>
      </trkpt>
      <trkpt lat="46.19719" lon="6.8424">
        <ele>2032</ele>
        <time>2010-01-01T12:12:06Z</time>
      </trkpt>
      <trkpt lat="46.19711" lon="6.84234">
        <ele>2031</ele>
        <time>2010-01-01T12:12:10Z</time>
      </trkpt>
      <trkpt lat="46.19709" lon="6.84224">
        <ele>2032</ele>
        <time>2010-01-01T12:12:13Z</time>
      </trkpt>
      <trkpt lat="46.19708" lon="6.84206">
        <ele>2034</ele>
        <time>2010-01-01T12:12:18Z</time>
      </trkpt>
      <trkpt lat="46.19688" lon="6.84199">
        <ele>2031</ele>
        <time>2010-01-01T12:12:26Z</time>
      </trkpt>
      <trkpt lat="46.19675" lon="6.84194">
        <ele>2030</ele>
        <time>2010-01-01T12:12:31Z</time>
      </trkpt>
      <trkpt lat="46.19662" lon="6.84209">
        <ele>2013</ele>
        <time>2010-01-01T12:12:38Z</time>
      </trkpt>
      <trkpt lat="46.19645" lon="6.84227">
        <ele>2011</ele>
        <time>2010-01-01T12:12:46Z</time>
      </trkpt>
      <trkpt lat="46.1963" lon="6.84238">
        <ele>2008</ele>
        <time>2010-01-01T12:12:53Z</time>
      </trkpt>
      <trkpt lat="46.19619" lon="6.84246">
        <ele>2006</ele>
        <time>2010-01-01T12:12:58Z</time>
      </trkpt>
      <trkpt lat="46.19618" lon="6.84246">
        <ele>2006</ele>
        <time>2010-01-01T12:12:58Z</time>
      </trkpt>
      <trkpt lat="46.19602" lon="6.84247">
        <ele>2002</ele>
        <time>2010-01-01T12:13:05Z</time>
      </trkpt>
      <trkpt lat="46.19593" lon="6.84242">
        <ele>2000</ele>
        <time>2010-01-01T12:13:09Z</time>
      </trkpt>
      <trkpt lat="46.19585" lon="6.8422">
        <ele>2003</ele>
        <time>2010-01-01T12:13:16Z</time>
      </trkpt>
      <trkpt lat="46.19578" lon="6.84194">
        <ele>1986</ele>
        <time>2010-01-01T12:13:23Z</time>
      </trkpt>
      <trkpt lat="46.19575" lon="6.84174">
        <ele>1991</ele>
        <time>2010-01-01T12:13:29Z</time>
      </trkpt>
      <trkpt lat="46.19572" lon="6.84159">
        <ele>1992</ele>
        <time>2010-01-01T12:13:34Z</time>
      </trkpt>
      <trkpt lat="46.19562" lon="6.84117">
        <ele>1987</ele>
        <time>2010-01-01T12:13:46Z</time>
      </trkpt>
      <trkpt lat="46.19551" lon="6.84064">
        <ele>1987</ele>
        <time>2010-01-01T12:14:01Z</time>
      </trkpt>
      <trkpt lat="46.19549" lon="6.84059">
        <ele>1987</ele>
        <time>2010-01-01T12:14:03Z</time>
      </trkpt>
      <trkpt lat="46.1954" lon="6.83985">
        <ele>1985</ele>
        <time>2010-01-01T12:14:24Z</time>
      </trkpt>
      <trkpt lat="46.19528" lon="6.83928">
        <ele>1980</ele>
        <time>2010-01-01T12:14:40Z</time>
      </trkpt>
      <trkpt lat="46.1953" lon="6.83902">
        <ele>1980</ele>
        <time>2010-01-01T12:14:47Z</time>
      </trkpt>
      <trkpt lat="46.19525" lon="6.83864">
        <ele>1979</ele>
        <time>2010-01-01T12:14:58Z</time>
      </trkpt>
      <trkpt lat="46.19522" lon="6.83847">
        <ele>1977</ele>
        <time>2010-01-01T12:15:03Z</time>
      </trkpt>
      <trkpt lat="46.19518" lon="6.83845">
        <ele>1975</ele>
        <time>2010-01-01T12:15:05Z</time>
      </trkpt>
      <trkpt lat="46.19509" lon="6.83867">
        <ele>1976</ele>
        <time>2010-01-01T12:15:12Z</time>
      </trkpt>
      <trkpt lat="46.19501" lon="6.83886">
        <ele>1975</ele>
        <time>2010-01-01T12:15:18Z</time>
      </trkpt>
      <trkpt lat="46.19493" lon="6.83895">
        <ele>1955</ele>
        <time>2010-01-01T12:15:22Z</time>
      </trkpt>
      <trkpt lat="46.19479" lon="6.83903">
        <ele>1953</ele>
        <time>2010-01-01T12:15:28Z</time>
      </trkpt>
      <trkpt lat="46.19472" lon="6.83913">
        <ele>1952</ele>
        <time>2010-01-01T12:15:32Z</time>
      </trkpt>
      <trkpt lat="46.19466" lon="6.83932">
        <ele>1951</ele>
        <time>2010-01-01T12:15:38Z</time>
      </trkpt>
      <trkpt lat="46.1946" lon="6.83959">
        <ele>1950</ele>
        <time>2010-01-01T12:15:45Z</time>
      </trkpt>
      <trkpt lat="46.19449" lon="6.83977">
        <ele>1948</ele>
        <time>2010-01-01T12:15:52Z</time>
      </trkpt>
      <trkpt lat="46.19435" lon="6.83976">
        <ele>1946</ele>
        <time>2010-01-01T12:15:58Z</time>
      </trkpt>
      <trkpt lat="46.19424" lon="6.83961">
        <ele>1946</ele>
        <time>2010-01-01T12:16:04Z</time>
      </trkpt>
      <trkpt lat="46.19388" lon="6.83876">
        <ele>1925</ele>
        <time>2010-01-01T12:16:31Z</time>
      </trkpt>
      <trkpt lat="46.19372" lon="6.83847">
        <ele>1922</ele>
        <time>2010-01-01T12:16:42Z</time>
      </trkpt>
      <trkpt lat="46.19355" lon="6.83815">
        <ele>1916</ele>
        <time>2010-01-01T12:16:53Z</time>
      </trkpt>
      <trkpt lat="46.19349" lon="6.83779">
        <ele>1914</ele>
        <time>2010-01-01T12:17:03Z</time>
      </trkpt>
      <trkpt lat="46.1937" lon="6.83732">
        <ele>1911</ele>
        <time>2010-01-01T12:17:19Z</time>
      </trkpt>
      <trkpt lat="46.19384" lon="6.83705">
        <ele>1912</ele>
        <time>2010-01-01T12:17:28Z</time>
      </trkpt>
      <trkpt lat="46.19384" lon="6.83685">
        <ele>1912</ele>
        <time>2010-01-01T12:17:34Z</time>
      </trkpt>
      <trkpt lat="46.19376" lon="6.83675">
        <ele>1910</ele>
        <time>2010-01-01T12:17:38Z</time>
      </trkpt>
      <trkpt lat="46.19352" lon="6.83694">
        <ele>1907</ele>
        <time>2010-01-01T12:17:49Z</time>
      </trkpt>
      <trkpt lat="46.19326" lon="6.83716">
        <ele>1892</ele>
        <time>2010-01-01T12:18:01Z</time>
      </trkpt>
      <trkpt lat="46.19297" lon="6.83733">
        <ele>1889</ele>
        <time>2010-01-01T12:18:13Z</time>
      </trkpt>
      <trkpt lat="46.19293" lon="6.83746">
        <ele>1889</ele>
        <time>2010-01-01T12:18:18Z</time>
      </trkpt>
      <trkpt lat="46.19292" lon="6.83749">
        <ele>1889</ele>
        <time>2010-01-01T12:18:18Z</time>
      </trkpt>
      <trkpt lat="46.19285" lon="6.83779">
        <ele>1891</ele>
        <time>2010-01-01T12:18:27Z</time>
      </trkpt>
      <trkpt lat="46.19284" lon="6.83783">
        <ele>1891</ele>
        <time>2010-01-01T12:18:28Z</time>
      </trkpt>
      <trkpt lat="46.1928" lon="6.83811">
        <ele>1890</ele>
        <time>2010-01-01T12:18:36Z</time>
      </trkpt>
      <trkpt lat="46.19264" lon="6.83828">
        <ele>1885</ele>
        <time>2010-01-01T12:18:44Z</time>
      </trkpt>
      <trkpt lat="46.19246" lon="6.83825">
        <ele>1874</ele>
        <time>2010-01-01T12:18:51Z</time>
      </trkpt>
      <trkpt lat="46.19246" lon="6.83824">
        <ele>1873</ele>
        <time>2010-01-01T12:18:52Z</time>
      </trkpt>
      <trkpt lat="46.19224" lon="6.83803">
        <ele>1866</ele>
        <time>2010-01-01T12:19:02Z</time>
      </trkpt>
      <trkpt lat="46.19222" lon="6.83776">
        <ele>1865</ele>
        <time>2010-01-01T12:19:10Z</time>
      </trkpt>
      <trkpt lat="46.19223" lon="6.83706">
        <ele>1862</ele>
        <time>2010-01-01T12:19:29Z</time>
      </trkpt>
      <trkpt lat="46.19229" lon="6.836">
        <ele>1857</ele>
        <time>2010-01-01T12:19:59Z</time>
      </trkpt>
      <trkpt lat="46.19233" lon="6.83568">
        <ele>1854</ele>
        <time>2010-01-01T12:20:08Z</time>
      </trkpt>
      <trkpt lat="46.19229" lon="6.83555">
        <ele>1852</ele>
        <time>2010-01-01T12:20:11Z</time>
      </trkpt>
      <trkpt lat="46.1921" lon="6.83563">
        <ele>1850</ele>
        <time>2010-01-01T12:20:19Z</time>
      </trkpt>
      <trkpt lat="46.19193" lon="6.83564">
        <ele>1848</ele>
        <time>2010-01-01T12:20:26Z</time>
      </trkpt>
      <trkpt lat="46.19173" lon="6.83566">
        <ele>1846</ele>
        <time>2010-01-01T12:20:34Z</time>
      </trkpt>
      <trkpt lat="46.19148" lon="6.83565">
        <ele>1839</ele>
        <time>2010-01-01T12:20:44Z</time>
      </trkpt>
      <trkpt lat="46.19124" lon="6.83563">
        <ele>1837</ele>
        <time>2010-01-01T12:20:54Z</time>
      </trkpt>
      <trkpt lat="46.19108" lon="6.83573">
        <ele>1835</ele>
        <time>2010-01-01T12:21:01Z</time>
      </trkpt>
      <trkpt lat="46.19086" lon="6.8361">
        <ele>1831</ele>
        <time>2010-01-01T12:21:14Z</time>
      </trkpt>
      <trkpt lat="46.19064" lon="6.83645">
        <ele>1818</ele>
        <time>2010-01-01T12:21:28Z</time>
      </trkpt>
      <trkpt lat="46.19049" lon="6.8366">
        <ele>1816</ele>
        <time>2010-01-01T12:21:35Z</time>
      </trkpt>
      <trkpt lat="46.19033" lon="6.83643">
        <ele>1815</ele>
        <time>2010-01-01T12:21:43Z</time>
      </trkpt>
      <trkpt lat="46.19015" lon="6.83621">
        <ele>1815</ele>
        <time>2010-01-01T12:21:52Z</time>
      </trkpt>
      <trkpt lat="46.18998" lon="6.83611">
        <ele>1804</ele>
        <time>2010-01-01T12:22:00Z</time>
      </trkpt>
      <trkpt lat="46.18978" lon="6.83599">
        <ele>1803</ele>
        <time>2010-01-01T12:22:08Z</time>
      </trkpt>
      <trkpt lat="46.18976" lon="6.83596">
        <ele>1803</ele>
        <time>2010-01-01T12:22:10Z</time>
      </trkpt>
      <trkpt lat="46.18967" lon="6.83528">
        <ele>1811</ele>
        <time>2010-01-01T12:22:29Z</time>
      </trkpt>
      <trkpt lat="46.18959" lon="6.83492">
        <ele>1819</ele>
        <time>2010-01-01T12:22:39Z</time>
      </trkpt>
      <trkpt lat="46.18945" lon="6.83466">
        <ele>1818</ele>
        <time>2010-01-01T12:22:48Z</time>
      </trkpt>
      <trkpt lat="46.18924" lon="6.8345">
        <ele>1818</ele>
        <time>2010-01-01T12:22:58Z</time>
      </trkpt>
      <trkpt lat="46.18908" lon="6.83434">
        <ele>1806</ele>
        <time>2010-01-01T12:23:05Z</time>
      </trkpt>
      <trkpt lat="46.18891" lon="6.83415">
        <ele>1813</ele>
        <time>2010-01-01T12:23:14Z</time>
      </trkpt>
      <trkpt lat="46.18864" lon="6.83391">
        <ele>1808</ele>
        <time>2010-01-01T12:23:27Z</time>
      </trkpt>
      <trkpt lat="46.18855" lon="6.83375">
        <ele>1808</ele>
        <time>2010-01-01T12:23:32Z</time>
      </trkpt>
      <trkpt lat="46.18841" lon="6.83329">
        <ele>1810</ele>
        <time>2010-01-01T12:23:46Z</time>
      </trkpt>
      <trkpt lat="46.18817" lon="6.83247">
        <ele>1813</ele>
        <time>2010-01-01T12:24:11Z</time>
      </trkpt>
      <trkpt lat="46.18794" lon="6.83227">
        <ele>1809</ele>
        <time>2010-01-01T12:24:22Z</time>
      </trkpt>
      <trkpt lat="46.18774" lon="6.83216">
        <ele>1807</ele>
        <time>2010-01-01T12:24:30Z</time>
      </trkpt>
      <trkpt lat="46.1876" lon="6.83163">
        <ele>1812</ele>
        <time>2010-01-01T12:24:46Z</time>
      </trkpt>
      <trkpt lat="46.18758" lon="6.8316">
        <ele>1811</ele>
        <time>2010-01-01T12:24:47Z</time>
      </trkpt>
      <trkpt lat="46.18741" lon="6.83138">
        <ele>1800</ele>
        <time>2010-01-01T12:24:57Z</time>
      </trkpt>
      <trkpt lat="46.18733" lon="6.83092">
        <ele>1805</ele>
        <time>2010-01-01T12:25:10Z</time>
      </trkpt>
      <trkpt lat="46.18731" lon="6.8304">
        <ele>1810</ele>
        <time>2010-01-01T12:25:24Z</time>
      </trkpt>
      <trkpt lat="46.18731" lon="6.83021">
        <ele>1813</ele>
        <time>2010-01-01T12:25:29Z</time>
      </trkpt>
      <trkpt lat="46.1872" lon="6.82993">
        <ele>1817</ele>
        <time>2010-01-01T12:25:38Z</time>
      </trkpt>
      <trkpt lat="46.18712" lon="6.82927">
        <ele>1818</ele>
        <time>2010-01-01T12:25:57Z</time>
      </trkpt>
      <trkpt lat="46.18714" lon="6.82875">
        <ele>1823</ele>
        <time>2010-01-01T12:26:11Z</time>
      </trkpt>
      <trkpt lat="46.18711" lon="6.8282">
        <ele>1825</ele>
        <time>2010-01-01T12:26:26Z</time>
      </trkpt>
      <trkpt lat="46.1871" lon="6.82748">
        <ele>1830</ele>
        <time>2010-01-01T12:26:46Z</time>
      </trkpt>
      <trkpt lat="46.18708" lon="6.82685">
        <ele>1832</ele>
        <time>2010-01-01T12:27:04Z</time>
      </trkpt>
      <trkpt lat="46.18703" lon="6.82641">
        <ele>1839</ele>
        <time>2010-01-01T12:27:16Z</time>
      </trkpt>
      <trkpt lat="46.18692" lon="6.8261">
        <ele>1840</ele>
        <time>2010-01-01T12:27:26Z</time>
      </trkpt>
      <trkpt lat="46.18669" lon="6.82592">
        <ele>1835</ele>
        <time>2010-01-01T12:27:36Z</time>
      </trkpt>
      <trkpt lat="46.18638" lon="6.8256">
        <ele>1838</ele>
        <time>2010-01-01T12:27:52Z</time>
      </trkpt>
      <trkpt lat="46.18595" lon="6.82538">
        <ele>1839</ele>
        <time>2010-01-01T12:28:10Z</time>
      </trkpt>
      <trkpt lat="46.18498" lon="6.82496">
        <ele>1836</ele>
        <time>2010-01-01T12:28:50Z</time>
      </trkpt>
      <trkpt lat="46.18472" lon="6.82469">
        <ele>1843</ele>
        <time>2010-01-01T12:29:03Z</time>
      </trkpt>
      <trkpt lat="46.18458" lon="6.82446">
        <ele>1845</ele>
        <time>2010-01-01T12:29:12Z</time>
      </trkpt>
      <trkpt lat="46.18449" lon="6.82424">
        <ele>1846</ele>
        <time>2010-01-01T12:29:19Z</time>
      </trkpt>
      <trkpt lat="46.18434" lon="6.82421">
        <ele>1846</ele>
        <time>2010-01-01T12:29:25Z</time>
      </trkpt>
      <trkpt lat="46.18424" lon="6.82438">
        <ele>1844</ele>
        <time>2010-01-01T12:29:31Z</time>
      </trkpt>
      <trkpt lat="46.18415" lon="6.8247">
        <ele>1836</ele>
        <time>2010-01-01T12:29:40Z</time>
      </trkpt>
      <trkpt lat="46.18395" lon="6.82472">
        <ele>1836</ele>
        <time>2010-01-01T12:29:48Z</time>
      </trkpt>
      <trkpt lat="46.1839" lon="6.8247">
        <ele>1837</ele>
        <time>2010-01-01T12:29:51Z</time>
      </trkpt>
      <trkpt lat="46.18404" lon="6.82473">
        <ele>1836</ele>
        <time>2010-01-01T12:29:56Z</time>
      </trkpt>
      <trkpt lat="46.18376" lon="6.82468">
        <ele>1837</ele>
        <time>2010-01-01T12:30:07Z</time>
      </trkpt>
      <trkpt lat="46.18361" lon="6.82451">
        <ele>1839</ele>
        <time>2010-01-01T12:30:15Z</time>
      </trkpt>
      <trkpt lat="46.18337" lon="6.82426">
        <ele>1842</ele>
        <time>2010-01-01T12:30:27Z</time>
      </trkpt>
      <trkpt lat="46.18309" lon="6.82405">
        <ele>1846</ele>
        <time>2010-01-01T12:30:40Z</time>
      </trkpt>
      <trkpt lat="46.18268" lon="6.82379">
        <ele>1847</ele>
        <time>2010-01-01T12:30:58Z</time>
      </trkpt>
      <trkpt lat="46.18245" lon="6.82373">
        <ele>1846</ele>
        <time>2010-01-01T12:31:07Z</time>
      </trkpt>
      <trkpt lat="46.18228" lon="6.82344">
        <ele>1848</ele>
        <time>2010-01-01T12:31:17Z</time>
      </trkpt>
      <trkpt lat="46.18218" lon="6.82326">
        <ele>1857</ele>
        <time>2010-01-01T12:31:24Z</time>
      </trkpt>
      <trkpt lat="46.18204" lon="6.8232">
        <ele>1857</ele>
        <time>2010-01-01T12:31:30Z</time>
      </trkpt>
      <trkpt lat="46.18187" lon="6.8234">
        <ele>1848</ele>
        <time>2010-01-01T12:31:38Z</time>
      </trkpt>
      <trkpt lat="46.1818" lon="6.82359">
        <ele>1846</ele>
        <time>2010-01-01T12:31:44Z</time>
      </trkpt>
      <trkpt lat="46.18166" lon="6.82371">
        <ele>1845</ele>
        <time>2010-01-01T12:31:51Z</time>
      </trkpt>
      <trkpt lat="46.18153" lon="6.82395">
        <ele>1841</ele>
        <time>2010-01-01T12:31:59Z</time>
      </trkpt>
      <trkpt lat="46.18147" lon="6.82417">
        <ele>1833</ele>
        <time>2010-01-01T12:32:06Z</time>
      </trkpt>
      <trkpt lat="46.18128" lon="6.82431">
        <ele>1832</ele>
        <time>2010-01-01T12:32:14Z</time>
      </trkpt>
      <trkpt lat="46.1811" lon="6.82432">
        <ele>1832</ele>
        <time>2010-01-01T12:32:21Z</time>
      </trkpt>
      <trkpt lat="46.1809" lon="6.82437">
        <ele>1833</ele>
        <time>2010-01-01T12:32:29Z</time>
      </trkpt>
      <trkpt lat="46.18065" lon="6.8245">
        <ele>1834</ele>
        <time>2010-01-01T12:32:40Z</time>
      </trkpt>
      <trkpt lat="46.18041" lon="6.8245">
        <ele>1835</ele>
        <time>2010-01-01T12:32:50Z</time>
      </trkpt>
      <trkpt lat="46.18006" lon="6.82475">
        <ele>1833</ele>
        <time>2010-01-01T12:33:05Z</time>
      </trkpt>
      <trkpt lat="46.17979" lon="6.82492">
        <ele>1835</ele>
        <time>2010-01-01T12:33:17Z</time>
      </trkpt>
      <trkpt lat="46.17966" lon="6.82504">
        <ele>1832</ele>
        <time>2010-01-01T12:33:23Z</time>
      </trkpt>
      <trkpt lat="46.17961" lon="6.8253">
        <ele>1831</ele>
        <time>2010-01-01T12:33:31Z</time>
      </trkpt>
      <trkpt lat="46.1795" lon="6.82548">
        <ele>1831</ele>
        <time>2010-01-01T12:33:38Z</time>
      </trkpt>
      <trkpt lat="46.1793" lon="6.82563">
        <ele>1831</ele>
        <time>2010-01-01T12:33:46Z</time>
      </trkpt>
      <trkpt lat="46.17919" lon="6.82558">
        <ele>1831</ele>
        <time>2010-01-01T12:33:51Z</time>
      </trkpt>
      <trkpt lat="46.17911" lon="6.82543">
        <ele>1826</ele>
        <time>2010-01-01T12:33:56Z</time>
      </trkpt>
      <trkpt lat="46.17899" lon="6.82528">
        <ele>1826</ele>
        <time>2010-01-01T12:34:03Z</time>
      </trkpt>
      <trkpt lat="46.17893" lon="6.82507">
        <ele>1826</ele>
        <time>2010-01-01T12:34:09Z</time>
      </trkpt>
      <trkpt lat="46.17893" lon="6.8247">
        <ele>1829</ele>
        <time>2010-01-01T12:34:19Z</time>
      </trkpt>
      <trkpt lat="46.17882" lon="6.82414">
        <ele>1834</ele>
        <time>2010-01-01T12:34:35Z</time>
      </trkpt>
      <trkpt lat="46.1788" lon="6.82392">
        <ele>1834</ele>
        <time>2010-01-01T12:34:41Z</time>
      </trkpt>
      <trkpt lat="46.17877" lon="6.82373">
        <ele>1835</ele>
        <time>2010-01-01T12:34:47Z</time>
      </trkpt>
      <trkpt lat="46.1788" lon="6.82343">
        <ele>1837</ele>
        <time>2010-01-01T12:34:55Z</time>
      </trkpt>
      <trkpt lat="46.17878" lon="6.82311">
        <ele>1845</ele>
        <time>2010-01-01T12:35:04Z</time>
      </trkpt>
      <trkpt lat="46.17864" lon="6.82252">
        <ele>1845</ele>
        <time>2010-01-01T12:35:21Z</time>
      </trkpt>
      <trkpt lat="46.17851" lon="6.82188">
        <ele>1854</ele>
        <time>2010-01-01T12:35:40Z</time>
      </trkpt>
      <trkpt lat="46.17837" lon="6.82153">
        <ele>1855</ele>
        <time>2010-01-01T12:35:51Z</time>
      </trkpt>
      <trkpt lat="46.17828" lon="6.82124">
        <ele>1841</ele>
        <time>2010-01-01T12:36:00Z</time>
      </trkpt>
      <trkpt lat="46.17813" lon="6.82088">
        <ele>1844</ele>
        <time>2010-01-01T12:36:11Z</time>
      </trkpt>
      <trkpt lat="46.17799" lon="6.82067">
        <ele>1845</ele>
        <time>2010-01-01T12:36:20Z</time>
      </trkpt>
      <trkpt lat="46.17795" lon="6.82053">
        <ele>1844</ele>
        <time>2010-01-01T12:36:24Z</time>
      </trkpt>
      <trkpt lat="46.17795" lon="6.82043">
        <ele>1844</ele>
        <time>2010-01-01T12:36:27Z</time>
      </trkpt>
      <trkpt lat="46.17797" lon="6.82029">
        <ele>1845</ele>
        <time>2010-01-01T12:36:31Z</time>
      </trkpt>
      <trkpt lat="46.17796" lon="6.82006">
        <ele>1846</ele>
        <time>2010-01-01T12:36:37Z</time>
      </trkpt>
      <trkpt lat="46.17794" lon="6.81989">
        <ele>1849</ele>
        <time>2010-01-01T12:36:42Z</time>
      </trkpt>
      <trkpt lat="46.17784" lon="6.81953">
        <ele>1847</ele>
        <time>2010-01-01T12:36:53Z</time>
      </trkpt>
      <trkpt lat="46.1778" lon="6.81927">
        <ele>1846</ele>
        <time>2010-01-01T12:37:00Z</time>
      </trkpt>
      <trkpt lat="46.17785" lon="6.81892">
        <ele>1851</ele>
        <time>2010-01-01T12:37:10Z</time>
      </trkpt>
      <trkpt lat="46.17786" lon="6.81871">
        <ele>1852</ele>
        <time>2010-01-01T12:37:15Z</time>
      </trkpt>
      <trkpt lat="46.17778" lon="6.81843">
        <ele>1849</ele>
        <time>2010-01-01T12:37:24Z</time>
      </trkpt>
      <trkpt lat="46.17777" lon="6.81827">
        <ele>1853</ele>
        <time>2010-01-01T12:37:28Z</time>
      </trkpt>
      <trkpt lat="46.17785" lon="6.81799">
        <ele>1858</ele>
        <time>2010-01-01T12:37:37Z</time>
      </trkpt>
      <trkpt lat="46.17788" lon="6.81785">
        <ele>1860</ele>
        <time>2010-01-01T12:37:41Z</time>
      </trkpt>
      <trkpt lat="46.17779" lon="6.81758">
        <ele>1857</ele>
        <time>2010-01-01T12:37:49Z</time>
      </trkpt>
      <trkpt lat="46.17765" lon="6.81729">
        <ele>1859</ele>
        <time>2010-01-01T12:37:59Z</time>
      </trkpt>
      <trkpt lat="46.17746" lon="6.81699">
        <ele>1840</ele>
        <time>2010-01-01T12:38:10Z</time>
      </trkpt>
      <trkpt lat="46.17732" lon="6.81674">
        <ele>1842</ele>
        <time>2010-01-01T12:38:19Z</time>
      </trkpt>
      <trkpt lat="46.17728" lon="6.81646">
        <ele>1843</ele>
        <time>2010-01-01T12:38:27Z</time>
      </trkpt>
      <trkpt lat="46.17735" lon="6.81601">
        <ele>1844</ele>
        <time>2010-01-01T12:38:40Z</time>
      </trkpt>
      <trkpt lat="46.17741" lon="6.81569">
        <ele>1845</ele>
        <time>2010-01-01T12:38:49Z</time>
      </trkpt>
      <trkpt lat="46.17748" lon="6.81513">
        <ele>1845</ele>
        <time>2010-01-01T12:39:05Z</time>
      </trkpt>
      <trkpt lat="46.17751" lon="6.81477">
        <ele>1859</ele>
        <time>2010-01-01T12:39:15Z</time>
      </trkpt>
      <trkpt lat="46.17754" lon="6.81457">
        <ele>1862</ele>
        <time>2010-01-01T12:39:20Z</time>
      </trkpt>
      <trkpt lat="46.17744" lon="6.81434">
        <ele>1848</ele>
        <time>2010-01-01T12:39:28Z</time>
      </trkpt>
      <trkpt lat="46.17733" lon="6.81411">
        <ele>1854</ele>
        <time>2010-01-01T12:39:36Z</time>
      </trkpt>
      <trkpt lat="46.1771" lon="6.81396">
        <ele>1852</ele>
        <time>2010-01-01T12:39:46Z</time>
      </trkpt>
      <trkpt lat="46.17668" lon="6.81371">
        <ele>1850</ele>
        <time>2010-01-01T12:40:04Z</time>
      </trkpt>
      <trkpt lat="46.17635" lon="6.81347">
        <ele>1846</ele>
        <time>2010-01-01T12:40:19Z</time>
      </trkpt>
      <trkpt lat="46.17617" lon="6.81322">
        <ele>1856</ele>
        <time>2010-01-01T12:40:29Z</time>
      </trkpt>
      <trkpt lat="46.17599" lon="6.81315">
        <ele>1855</ele>
        <time>2010-01-01T12:40:36Z</time>
      </trkpt>
      <trkpt lat="46.17576" lon="6.81304">
        <ele>1853</ele>
        <time>2010-01-01T12:40:46Z</time>
      </trkpt>
      <trkpt lat="46.17553" lon="6.81294">
        <ele>1854</ele>
        <time>2010-01-01T12:40:56Z</time>
      </trkpt>
      <trkpt lat="46.17527" lon="6.81293">
        <ele>1853</ele>
        <time>2010-01-01T12:41:06Z</time>
      </trkpt>
      <trkpt lat="46.17504" lon="6.81307">
        <ele>1851</ele>
        <time>2010-01-01T12:41:16Z</time>
      </trkpt>
      <trkpt lat="46.17484" lon="6.81323">
        <ele>1848</ele>
        <time>2010-01-01T12:41:25Z</time>
      </trkpt>
      <trkpt lat="46.1747" lon="6.81348">
        <ele>1842</ele>
        <time>2010-01-01T12:41:34Z</time>
      </trkpt>
      <trkpt lat="46.1745" lon="6.81377">
        <ele>1840</ele>
        <time>2010-01-01T12:41:45Z</time>
      </trkpt>
      <trkpt lat="46.17434" lon="6.81403">
        <ele>1839</ele>
        <time>2010-01-01T12:41:55Z</time>
      </trkpt>
      <trkpt lat="46.17419" lon="6.8143">
        <ele>1834</ele>
        <time>2010-01-01T12:42:04Z</time>
      </trkpt>
      <trkpt lat="46.17402" lon="6.81467">
        <ele>1832</ele>
        <time>2010-01-01T12:42:17Z</time>
      </trkpt>
      <trkpt lat="46.17382" lon="6.81485">
        <ele>1832</ele>
        <time>2010-01-01T12:42:26Z</time>
      </trkpt>
      <trkpt lat="46.17348" lon="6.81511">
        <ele>1828</ele>
        <time>2010-01-01T12:42:42Z</time>
      </trkpt>
      <trkpt lat="46.17327" lon="6.8154">
        <ele>1828</ele>
        <time>2010-01-01T12:42:53Z</time>
      </trkpt>
      <trkpt lat="46.17319" lon="6.81566">
        <ele>1826</ele>
        <time>2010-01-01T12:43:01Z</time>
      </trkpt>
      <trkpt lat="46.17311" lon="6.81589">
        <ele>1820</ele>
        <time>2010-01-01T12:43:08Z</time>
      </trkpt>
      <trkpt lat="46.17295" lon="6.81597">
        <ele>1819</ele>
        <time>2010-01-01T12:43:15Z</time>
      </trkpt>
      <trkpt lat="46.17279" lon="6.81586">
        <ele>1820</ele>
        <time>2010-01-01T12:43:22Z</time>
      </trkpt>
      <trkpt lat="46.17256" lon="6.81585">
        <ele>1824</ele>
        <time>2010-01-01T12:43:32Z</time>
      </trkpt>
      <trkpt lat="46.1723" lon="6.81592">
        <ele>1823</ele>
        <time>2010-01-01T12:43:42Z</time>
      </trkpt>
      <trkpt lat="46.17207" lon="6.81584">
        <ele>1824</ele>
        <time>2010-01-01T12:43:52Z</time>
      </trkpt>
      <trkpt lat="46.17178" lon="6.81576">
        <ele>1830</ele>
        <time>2010-01-01T12:44:04Z</time>
      </trkpt>
      <trkpt lat="46.17162" lon="6.81584">
        <ele>1828</ele>
        <time>2010-01-01T12:44:10Z</time>
      </trkpt>
      <trkpt lat="46.1716" lon="6.81618">
        <ele>1825</ele>
        <time>2010-01-01T12:44:20Z</time>
      </trkpt>
      <trkpt lat="46.17147" lon="6.81636">
        <ele>1824</ele>
        <time>2010-01-01T12:44:27Z</time>
      </trkpt>
      <trkpt lat="46.17134" lon="6.81645">
        <ele>1824</ele>
        <time>2010-01-01T12:44:33Z</time>
      </trkpt>
      <trkpt lat="46.17094" lon="6.81661">
        <ele>1823</ele>
        <time>2010-01-01T12:44:49Z</time>
      </trkpt>
      <trkpt lat="46.17058" lon="6.81675">
        <ele>1818</ele>
        <time>2010-01-01T12:45:04Z</time>
      </trkpt>
      <trkpt lat="46.17033" lon="6.81674">
        <ele>1817</ele>
        <time>2010-01-01T12:45:14Z</time>
      </trkpt>
      <trkpt lat="46.17016" lon="6.8167">
        <ele>1818</ele>
        <time>2010-01-01T12:45:21Z</time>
      </trkpt>
      <trkpt lat="46.17004" lon="6.8165">
        <ele>1823</ele>
        <time>2010-01-01T12:45:29Z</time>
      </trkpt>
      <trkpt lat="46.16981" lon="6.81617">
        <ele>1817</ele>
        <time>2010-01-01T12:45:41Z</time>
      </trkpt>
      <trkpt lat="46.16969" lon="6.81592">
        <ele>1817</ele>
        <time>2010-01-01T12:45:50Z</time>
      </trkpt>
      <trkpt lat="46.16963" lon="6.81566">
        <ele>1821</ele>
        <time>2010-01-01T12:45:58Z</time>
      </trkpt>
      <trkpt lat="46.16968" lon="6.81538">
        <ele>1822</ele>
        <time>2010-01-01T12:46:05Z</time>
      </trkpt>
      <trkpt lat="46.16966" lon="6.81518">
        <ele>1823</ele>
        <time>2010-01-01T12:46:11Z</time>
      </trkpt>
      <trkpt lat="46.16945" lon="6.81467">
        <ele>1828</ele>
        <time>2010-01-01T12:46:28Z</time>
      </trkpt>
      <trkpt lat="46.16913" lon="6.81417">
        <ele>1817</ele>
        <time>2010-01-01T12:46:46Z</time>
      </trkpt>
      <trkpt lat="46.16899" lon="6.81396">
        <ele>1816</ele>
        <time>2010-01-01T12:46:54Z</time>
      </trkpt>
      <trkpt lat="46.16888" lon="6.81372">
        <ele>1815</ele>
        <time>2010-01-01T12:47:02Z</time>
      </trkpt>
      <trkpt lat="46.16883" lon="6.81351">
        <ele>1816</ele>
        <time>2010-01-01T12:47:09Z</time>
      </trkpt>
      <trkpt lat="46.16872" lon="6.81336">
        <ele>1814</ele>
        <time>2010-01-01T12:47:15Z</time>
      </trkpt>
      <trkpt lat="46.16842" lon="6.8129">
        <ele>1819</ele>
        <time>2010-01-01T12:47:32Z</time>
      </trkpt>
      <trkpt lat="46.16826" lon="6.81252">
        <ele>1809</ele>
        <time>2010-01-01T12:47:44Z</time>
      </trkpt>
      <trkpt lat="46.16817" lon="6.81234">
        <ele>1811</ele>
        <time>2010-01-01T12:47:50Z</time>
      </trkpt>
      <trkpt lat="46.16801" lon="6.81232">
        <ele>1809</ele>
        <time>2010-01-01T12:47:57Z</time>
      </trkpt>
      <trkpt lat="46.16786" lon="6.81222">
        <ele>1807</ele>
        <time>2010-01-01T12:48:03Z</time>
      </trkpt>
      <trkpt lat="46.16775" lon="6.81202">
        <ele>1808</ele>
        <time>2010-01-01T12:48:11Z</time>
      </trkpt>
      <trkpt lat="46.16746" lon="6.81181">
        <ele>1796</ele>
        <time>2010-01-01T12:48:23Z</time>
      </trkpt>
      <trkpt lat="46.16725" lon="6.81164">
        <ele>1800</ele>
        <time>2010-01-01T12:48:33Z</time>
      </trkpt>
      <trkpt lat="46.1671" lon="6.81142">
        <ele>1798</ele>
        <time>2010-01-01T12:48:42Z</time>
      </trkpt>
      <trkpt lat="46.16704" lon="6.81125">
        <ele>1798</ele>
        <time>2010-01-01T12:48:47Z</time>
      </trkpt>
      <trkpt lat="46.1669" lon="6.81092">
        <ele>1797</ele>
        <time>2010-01-01T12:48:58Z</time>
      </trkpt>
      <trkpt lat="46.16677" lon="6.81074">
        <ele>1798</ele>
        <time>2010-01-01T12:49:05Z</time>
      </trkpt>
      <trkpt lat="46.16664" lon="6.81061">
        <ele>1788</ele>
        <time>2010-01-01T12:49:11Z</time>
      </trkpt>
      <trkpt lat="46.16653" lon="6.81057">
        <ele>1787</ele>
        <time>2010-01-01T12:49:16Z</time>
      </trkpt>
      <trkpt lat="46.16654" lon="6.81072">
        <ele>1788</ele>
        <time>2010-01-01T12:49:20Z</time>
      </trkpt>
      <trkpt lat="46.16666" lon="6.81079">
        <ele>1790</ele>
        <time>2010-01-01T12:49:25Z</time>
      </trkpt>
      <trkpt lat="46.16678" lon="6.81101">
        <ele>1795</ele>
        <time>2010-01-01T12:49:33Z</time>
      </trkpt>
      <trkpt lat="46.16684" lon="6.81136">
        <ele>1794</ele>
        <time>2010-01-01T12:49:43Z</time>
      </trkpt>
      <trkpt lat="46.1669" lon="6.81179">
        <ele>1785</ele>
        <time>2010-01-01T12:49:55Z</time>
      </trkpt>
      <trkpt lat="46.1669" lon="6.81206">
        <ele>1783</ele>
        <time>2010-01-01T12:50:03Z</time>
      </trkpt>
      <trkpt lat="46.16696" lon="6.81234">
        <ele>1781</ele>
        <time>2010-01-01T12:50:11Z</time>
      </trkpt>
      <trkpt lat="46.16703" lon="6.81255">
        <ele>1774</ele>
        <time>2010-01-01T12:50:17Z</time>
      </trkpt>
      <trkpt lat="46.1671" lon="6.81268">
        <ele>1775</ele>
        <time>2010-01-01T12:50:22Z</time>
      </trkpt>
      <trkpt lat="46.16705" lon="6.81288">
        <ele>1773</ele>
        <time>2010-01-01T12:50:28Z</time>
      </trkpt>
      <trkpt lat="46.16706" lon="6.81309">
        <ele>1772</ele>
        <time>2010-01-01T12:50:33Z</time>
      </trkpt>
      <trkpt lat="46.1672" lon="6.81332">
        <ele>1774</ele>
        <time>2010-01-01T12:50:42Z</time>
      </trkpt>
      <trkpt lat="46.16721" lon="6.81349">
        <ele>1770</ele>
        <time>2010-01-01T12:50:47Z</time>
      </trkpt>
      <trkpt lat="46.16711" lon="6.8138">
        <ele>1768</ele>
        <time>2010-01-01T12:50:56Z</time>
      </trkpt>
      <trkpt lat="46.1671" lon="6.81417">
        <ele>1766</ele>
        <time>2010-01-01T12:51:06Z</time>
      </trkpt>
      <trkpt lat="46.16713" lon="6.81443">
        <ele>1766</ele>
        <time>2010-01-01T12:51:14Z</time>
      </trkpt>
      <trkpt lat="46.16709" lon="6.81464">
        <ele>1764</ele>
        <time>2010-01-01T12:51:20Z</time>
      </trkpt>
      <trkpt lat="46.16708" lon="6.81488">
        <ele>1764</ele>
        <time>2010-01-01T12:51:26Z</time>
      </trkpt>
      <trkpt lat="46.16705" lon="6.81504">
        <ele>1760</ele>
        <time>2010-01-01T12:51:31Z</time>
      </trkpt>
      <trkpt lat="46.16704" lon="6.81523">
        <ele>1760</ele>
        <time>2010-01-01T12:51:36Z</time>
      </trkpt>
      <trkpt lat="46.16699" lon="6.81538">
        <ele>1759</ele>
        <time>2010-01-01T12:51:41Z</time>
      </trkpt>
      <trkpt lat="46.16688" lon="6.8158">
        <ele>1755</ele>
        <time>2010-01-01T12:51:53Z</time>
      </trkpt>
      <trkpt lat="46.16672" lon="6.81587">
        <ele>1750</ele>
        <time>2010-01-01T12:52:00Z</time>
      </trkpt>
      <trkpt lat="46.16658" lon="6.81594">
        <ele>1744</ele>
        <time>2010-01-01T12:52:06Z</time>
      </trkpt>
      <trkpt lat="46.16638" lon="6.81589">
        <ele>1741</ele>
        <time>2010-01-01T12:52:14Z</time>
      </trkpt>
      <trkpt lat="46.16629" lon="6.8158">
        <ele>1743</ele>
        <time>2010-01-01T12:52:19Z</time>
      </trkpt>
      <trkpt lat="46.16621" lon="6.81567">
        <ele>1742</ele>
        <time>2010-01-01T12:52:23Z</time>
      </trkpt>
      <trkpt lat="46.16622" lon="6.81553">
        <ele>1743</ele>
        <time>2010-01-01T12:52:27Z</time>
      </trkpt>
      <trkpt lat="46.16627" lon="6.81549">
        <ele>1744</ele>
        <time>2010-01-01T12:52:30Z</time>
      </trkpt>
      <trkpt lat="46.16628" lon="6.81548">
        <ele>1744</ele>
        <time>2010-01-01T12:52:30Z</time>
      </trkpt>
      <trkpt lat="46.1663" lon="6.81546">
        <ele>1744</ele>
        <time>2010-01-01T12:52:31Z</time>
      </trkpt>
      <trkpt lat="46.16631" lon="6.81543">
        <ele>1744</ele>
        <time>2010-01-01T12:52:32Z</time>
      </trkpt>
      <trkpt lat="46.16631" lon="6.8154">
        <ele>1744</ele>
        <time>2010-01-01T12:52:33Z</time>
      </trkpt>
      <trkpt lat="46.16632" lon="6.81537">
        <ele>1744</ele>
        <time>2010-01-01T12:52:33Z</time>
      </trkpt>
      <trkpt lat="46.16631" lon="6.81534">
        <ele>1744</ele>
        <time>2010-01-01T12:52:34Z</time>
      </trkpt>
      <trkpt lat="46.16629" lon="6.81531">
        <ele>1744</ele>
        <time>2010-01-01T12:52:35Z</time>
      </trkpt>
      <trkpt lat="46.16628" lon="6.81529">
        <ele>1744</ele>
        <time>2010-01-01T12:52:36Z</time>
      </trkpt>
      <trkpt lat="46.16628" lon="6.81527">
        <ele>1744</ele>
        <time>2010-01-01T12:52:37Z</time>
      </trkpt>
      <trkpt lat="46.16617" lon="6.81518">
        <ele>1743</ele>
        <time>2010-01-01T12:52:42Z</time>
      </trkpt>
      <trkpt lat="46.16611" lon="6.81513">
        <ele>1742</ele>
        <time>2010-01-01T12:52:45Z</time>
      </trkpt>
      <trkpt lat="46.16609" lon="6.81511">
        <ele>1742</ele>
        <time>2010-01-01T12:52:46Z</time>
      </trkpt>
      <trkpt lat="46.16608" lon="6.81509">
        <ele>1742</ele>
        <time>2010-01-01T12:52:46Z</time>
      </trkpt>
      <trkpt lat="46.16607" lon="6.81506">
        <ele>1742</ele>
        <time>2010-01-01T12:52:47Z</time>
      </trkpt>
      <trkpt lat="46.16607" lon="6.81503">
        <ele>1742</ele>
        <time>2010-01-01T12:52:48Z</time>
      </trkpt>
      <trkpt lat="46.16607" lon="6.81501">
        <ele>1742</ele>
        <time>2010-01-01T12:52:49Z</time>
      </trkpt>
      <trkpt lat="46.16606" lon="6.81497">
        <ele>1743</ele>
        <time>2010-01-01T12:52:50Z</time>
      </trkpt>
      <trkpt lat="46.16605" lon="6.81494">
        <ele>1743</ele>
        <time>2010-01-01T12:52:51Z</time>
      </trkpt>
      <trkpt lat="46.16605" lon="6.81492">
        <ele>1743</ele>
        <time>2010-01-01T12:52:51Z</time>
      </trkpt>
      <trkpt lat="46.16604" lon="6.81489">
        <ele>1743</ele>
        <time>2010-01-01T12:52:52Z</time>
      </trkpt>
      <trkpt lat="46.16604" lon="6.81488">
        <ele>1743</ele>
        <time>2010-01-01T12:52:52Z</time>
      </trkpt>
      <trkpt lat="46.16604" lon="6.8148">
        <ele>1743</ele>
        <time>2010-01-01T12:52:55Z</time>
      </trkpt>
      <trkpt lat="46.16605" lon="6.81472">
        <ele>1744</ele>
        <time>2010-01-01T12:52:57Z</time>
      </trkpt>
      <trkpt lat="46.16609" lon="6.81464">
        <ele>1744</ele>
        <time>2010-01-01T12:52:59Z</time>
      </trkpt>
      <trkpt lat="46.16611" lon="6.81462">
        <ele>1744</ele>
        <time>2010-01-01T12:53:00Z</time>
      </trkpt>
      <trkpt lat="46.16613" lon="6.8146">
        <ele>1745</ele>
        <time>2010-01-01T12:53:01Z</time>
      </trkpt>
      <trkpt lat="46.16614" lon="6.81457">
        <ele>1745</ele>
        <time>2010-01-01T12:53:02Z</time>
      </trkpt>
      <trkpt lat="46.16615" lon="6.81455">
        <ele>1745</ele>
        <time>2010-01-01T12:53:03Z</time>
      </trkpt>
      <trkpt lat="46.16616" lon="6.81454">
        <ele>1745</ele>
        <time>2010-01-01T12:53:04Z</time>
      </trkpt>
      <trkpt lat="46.16616" lon="6.81451">
        <ele>1745</ele>
        <time>2010-01-01T12:53:04Z</time>
      </trkpt>
      <trkpt lat="46.16616" lon="6.8145">
        <ele>1745</ele>
        <time>2010-01-01T12:53:04Z</time>
      </trkpt>
      <trkpt lat="46.16615" lon="6.81445">
        <ele>1745</ele>
        <time>2010-01-01T12:53:06Z</time>
      </trkpt>
      <trkpt lat="46.166" lon="6.81441">
        <ele>1743</ele>
        <time>2010-01-01T12:53:12Z</time>
      </trkpt>
      <trkpt lat="46.16591" lon="6.81436">
        <ele>1742</ele>
        <time>2010-01-01T12:53:16Z</time>
      </trkpt>
      <trkpt lat="46.1659" lon="6.81417">
        <ele>1740</ele>
        <time>2010-01-01T12:53:21Z</time>
      </trkpt>
      <trkpt lat="46.16595" lon="6.81404">
        <ele>1741</ele>
        <time>2010-01-01T12:53:25Z</time>
      </trkpt>
      <trkpt lat="46.16601" lon="6.81382">
        <ele>1743</ele>
        <time>2010-01-01T12:53:32Z</time>
      </trkpt>
      <trkpt lat="46.16596" lon="6.81356">
        <ele>1741</ele>
        <time>2010-01-01T12:53:40Z</time>
      </trkpt>
      <trkpt lat="46.16596" lon="6.81336">
        <ele>1739</ele>
        <time>2010-01-01T12:53:45Z</time>
      </trkpt>
      <trkpt lat="46.166" lon="6.81324">
        <ele>1742</ele>
        <time>2010-01-01T12:53:49Z</time>
      </trkpt>
      <trkpt lat="46.16606" lon="6.81317">
        <ele>1744</ele>
        <time>2010-01-01T12:53:52Z</time>
      </trkpt>
      <trkpt lat="46.16608" lon="6.81308">
        <ele>1745</ele>
        <time>2010-01-01T12:53:54Z</time>
      </trkpt>
      <trkpt lat="46.16608" lon="6.81305">
        <ele>1746</ele>
        <time>2010-01-01T12:53:55Z</time>
      </trkpt>
      <trkpt lat="46.16607" lon="6.81302">
        <ele>1746</ele>
        <time>2010-01-01T12:53:56Z</time>
      </trkpt>
      <trkpt lat="46.16605" lon="6.81301">
        <ele>1746</ele>
        <time>2010-01-01T12:53:57Z</time>
      </trkpt>
      <trkpt lat="46.16603" lon="6.81299">
        <ele>1745</ele>
        <time>2010-01-01T12:53:58Z</time>
      </trkpt>
      <trkpt lat="46.166" lon="6.81298">
        <ele>1745</ele>
        <time>2010-01-01T12:53:59Z</time>
      </trkpt>
      <trkpt lat="46.16586" lon="6.81287">
        <ele>1745</ele>
        <time>2010-01-01T12:54:06Z</time>
      </trkpt>
      <trkpt lat="46.16571" lon="6.81268">
        <ele>1732</ele>
        <time>2010-01-01T12:54:14Z</time>
      </trkpt>
      <trkpt lat="46.16565" lon="6.81257">
        <ele>1733</ele>
        <time>2010-01-01T12:54:18Z</time>
      </trkpt>
      <trkpt lat="46.16563" lon="6.81255">
        <ele>1733</ele>
        <time>2010-01-01T12:54:19Z</time>
      </trkpt>
      <trkpt lat="46.16562" lon="6.81253">
        <ele>1732</ele>
        <time>2010-01-01T12:54:20Z</time>
      </trkpt>
      <trkpt lat="46.1656" lon="6.8125">
        <ele>1737</ele>
        <time>2010-01-01T12:54:21Z</time>
      </trkpt>
      <trkpt lat="46.16559" lon="6.81247">
        <ele>1737</ele>
        <time>2010-01-01T12:54:21Z</time>
      </trkpt>
      <trkpt lat="46.16559" lon="6.81244">
        <ele>1737</ele>
        <time>2010-01-01T12:54:22Z</time>
      </trkpt>
      <trkpt lat="46.1656" lon="6.8124">
        <ele>1737</ele>
        <time>2010-01-01T12:54:23Z</time>
      </trkpt>
      <trkpt lat="46.16559" lon="6.81237">
        <ele>1737</ele>
        <time>2010-01-01T12:54:24Z</time>
      </trkpt>
      <trkpt lat="46.16558" lon="6.81235">
        <ele>1737</ele>
        <time>2010-01-01T12:54:25Z</time>
      </trkpt>
      <trkpt lat="46.16557" lon="6.81234">
        <ele>1737</ele>
        <time>2010-01-01T12:54:25Z</time>
      </trkpt>
      <trkpt lat="46.16552" lon="6.81218">
        <ele>1737</ele>
        <time>2010-01-01T12:54:30Z</time>
      </trkpt>
      <trkpt lat="46.16532" lon="6.81206">
        <ele>1735</ele>
        <time>2010-01-01T12:54:39Z</time>
      </trkpt>
      <trkpt lat="46.16512" lon="6.81217">
        <ele>1732</ele>
        <time>2010-01-01T12:54:47Z</time>
      </trkpt>
      <trkpt lat="46.16487" lon="6.81205">
        <ele>1721</ele>
        <time>2010-01-01T12:54:58Z</time>
      </trkpt>
      <trkpt lat="46.1646" lon="6.81188">
        <ele>1719</ele>
        <time>2010-01-01T12:55:10Z</time>
      </trkpt>
      <trkpt lat="46.16435" lon="6.81164">
        <ele>1720</ele>
        <time>2010-01-01T12:55:22Z</time>
      </trkpt>
      <trkpt lat="46.16423" lon="6.81133">
        <ele>1722</ele>
        <time>2010-01-01T12:55:31Z</time>
      </trkpt>
      <trkpt lat="46.16421" lon="6.81111">
        <ele>1722</ele>
        <time>2010-01-01T12:55:38Z</time>
      </trkpt>
      <trkpt lat="46.16433" lon="6.81084">
        <ele>1721</ele>
        <time>2010-01-01T12:55:47Z</time>
      </trkpt>
      <trkpt lat="46.16433" lon="6.8107">
        <ele>1725</ele>
        <time>2010-01-01T12:55:50Z</time>
      </trkpt>
      <trkpt lat="46.16433" lon="6.8106">
        <ele>1726</ele>
        <time>2010-01-01T12:55:53Z</time>
      </trkpt>
      <trkpt lat="46.1643" lon="6.8103">
        <ele>1727</ele>
        <time>2010-01-01T12:56:01Z</time>
      </trkpt>
      <trkpt lat="46.16427" lon="6.81012">
        <ele>1723</ele>
        <time>2010-01-01T12:56:07Z</time>
      </trkpt>
      <trkpt lat="46.16422" lon="6.81002">
        <ele>1718</ele>
        <time>2010-01-01T12:56:10Z</time>
      </trkpt>
      <trkpt lat="46.1642" lon="6.81001">
        <ele>1717</ele>
        <time>2010-01-01T12:56:11Z</time>
      </trkpt>
      <trkpt lat="46.16418" lon="6.80998">
        <ele>1717</ele>
        <time>2010-01-01T12:56:12Z</time>
      </trkpt>
      <trkpt lat="46.16416" lon="6.80997">
        <ele>1713</ele>
        <time>2010-01-01T12:56:13Z</time>
      </trkpt>
      <trkpt lat="46.16415" lon="6.80995">
        <ele>1712</ele>
        <time>2010-01-01T12:56:14Z</time>
      </trkpt>
      <trkpt lat="46.16412" lon="6.8098">
        <ele>1707</ele>
        <time>2010-01-01T12:56:18Z</time>
      </trkpt>
      <trkpt lat="46.16409" lon="6.80948">
        <ele>1705</ele>
        <time>2010-01-01T12:56:27Z</time>
      </trkpt>
      <trkpt lat="46.16409" lon="6.80927">
        <ele>1709</ele>
        <time>2010-01-01T12:56:33Z</time>
      </trkpt>
      <trkpt lat="46.16395" lon="6.80892">
        <ele>1701</ele>
        <time>2010-01-01T12:56:44Z</time>
      </trkpt>
      <trkpt lat="46.16395" lon="6.80861">
        <ele>1700</ele>
        <time>2010-01-01T12:56:52Z</time>
      </trkpt>
      <trkpt lat="46.16394" lon="6.80827">
        <ele>1697</ele>
        <time>2010-01-01T12:57:02Z</time>
      </trkpt>
      <trkpt lat="46.16402" lon="6.80815">
        <ele>1697</ele>
        <time>2010-01-01T12:57:07Z</time>
      </trkpt>
      <trkpt lat="46.16417" lon="6.80801">
        <ele>1716</ele>
        <time>2010-01-01T12:57:14Z</time>
      </trkpt>
      <trkpt lat="46.16421" lon="6.80789">
        <ele>1716</ele>
        <time>2010-01-01T12:57:17Z</time>
      </trkpt>
      <trkpt lat="46.16408" lon="6.80768">
        <ele>1696</ele>
        <time>2010-01-01T12:57:25Z</time>
      </trkpt>
      <trkpt lat="46.16401" lon="6.80745">
        <ele>1694</ele>
        <time>2010-01-01T12:57:32Z</time>
      </trkpt>
      <trkpt lat="46.16401" lon="6.80721">
        <ele>1691</ele>
        <time>2010-01-01T12:57:39Z</time>
      </trkpt>
      <trkpt lat="46.16413" lon="6.807">
        <ele>1692</ele>
        <time>2010-01-01T12:57:46Z</time>
      </trkpt>
      <trkpt lat="46.16399" lon="6.80649">
        <ele>1689</ele>
        <time>2010-01-01T12:58:01Z</time>
      </trkpt>
      <trkpt lat="46.16402" lon="6.80619">
        <ele>1688</ele>
        <time>2010-01-01T12:58:10Z</time>
      </trkpt>
      <trkpt lat="46.16404" lon="6.8058">
        <ele>1692</ele>
        <time>2010-01-01T12:58:21Z</time>
      </trkpt>
      <trkpt lat="46.16391" lon="6.80553">
        <ele>1685</ele>
        <time>2010-01-01T12:58:30Z</time>
      </trkpt>
      <trkpt lat="46.16384" lon="6.80529">
        <ele>1684</ele>
        <time>2010-01-01T12:58:37Z</time>
      </trkpt>
      <trkpt lat="46.16375" lon="6.80499">
        <ele>1684</ele>
        <time>2010-01-01T12:58:46Z</time>
      </trkpt>
      <trkpt lat="46.16364" lon="6.80473">
        <ele>1682</ele>
        <time>2010-01-01T12:58:55Z</time>
      </trkpt>
      <trkpt lat="46.16356" lon="6.80423">
        <ele>1682</ele>
        <time>2010-01-01T12:59:09Z</time>
      </trkpt>
      <trkpt lat="46.16337" lon="6.80411">
        <ele>1680</ele>
        <time>2010-01-01T12:59:17Z</time>
      </trkpt>
      <trkpt lat="46.16325" lon="6.80377">
        <ele>1675</ele>
        <time>2010-01-01T12:59:27Z</time>
      </trkpt>
      <trkpt lat="46.16314" lon="6.80365">
        <ele>1676</ele>
        <time>2010-01-01T12:59:33Z</time>
      </trkpt>
      <trkpt lat="46.16296" lon="6.80351">
        <ele>1675</ele>
        <time>2010-01-01T12:59:41Z</time>
      </trkpt>
      <trkpt lat="46.16268" lon="6.80315">
        <ele>1682</ele>
        <time>2010-01-01T12:59:56Z</time>
      </trkpt>
      <trkpt lat="46.16244" lon="6.80272">
        <ele>1676</ele>
        <time>2010-01-01T13:00:12Z</time>
      </trkpt>
      <trkpt lat="46.16224" lon="6.80251">
        <ele>1675</ele>
        <time>2010-01-01T13:00:22Z</time>
      </trkpt>
      <trkpt lat="46.16202" lon="6.80239">
        <ele>1682</ele>
        <time>2010-01-01T13:00:31Z</time>
      </trkpt>
      <trkpt lat="46.16177" lon="6.80208">
        <ele>1684</ele>
        <time>2010-01-01T13:00:44Z</time>
      </trkpt>
      <trkpt lat="46.16159" lon="6.80197">
        <ele>1678</ele>
        <time>2010-01-01T13:00:52Z</time>
      </trkpt>
      <trkpt lat="46.16135" lon="6.80189">
        <ele>1679</ele>
        <time>2010-01-01T13:01:02Z</time>
      </trkpt>
      <trkpt lat="46.16099" lon="6.80189">
        <ele>1680</ele>
        <time>2010-01-01T13:01:16Z</time>
      </trkpt>
      <trkpt lat="46.16036" lon="6.80235">
        <ele>1674</ele>
        <time>2010-01-01T13:01:45Z</time>
      </trkpt>
      <trkpt lat="46.16023" lon="6.80252">
        <ele>1661</ele>
        <time>2010-01-01T13:01:52Z</time>
      </trkpt>
      <trkpt lat="46.16013" lon="6.80249">
        <ele>1673</ele>
        <time>2010-01-01T13:01:56Z</time>
      </trkpt>
      <trkpt lat="46.16001" lon="6.80245">
        <ele>1672</ele>
        <time>2010-01-01T13:02:01Z</time>
      </trkpt>
      <trkpt lat="46.15999" lon="6.80241">
        <ele>1671</ele>
        <time>2010-01-01T13:02:02Z</time>
      </trkpt>
      <trkpt lat="46.15997" lon="6.80238">
        <ele>1671</ele>
        <time>2010-01-01T13:02:03Z</time>
      </trkpt>
      <trkpt lat="46.15995" lon="6.80236">
        <ele>1671</ele>
        <time>2010-01-01T13:02:04Z</time>
      </trkpt>
      <trkpt lat="46.15994" lon="6.80235">
        <ele>1671</ele>
        <time>2010-01-01T13:02:05Z</time>
      </trkpt>
      <trkpt lat="46.15991" lon="6.80234">
        <ele>1671</ele>
        <time>2010-01-01T13:02:06Z</time>
      </trkpt>
      <trkpt lat="46.15991" lon="6.80234">
        <ele>1671</ele>
        <time>2010-01-01T13:02:06Z</time>
      </trkpt>
      <trkpt lat="46.15981" lon="6.80236">
        <ele>1670</ele>
        <time>2010-01-01T13:02:10Z</time>
      </trkpt>
      <trkpt lat="46.15955" lon="6.80227">
        <ele>1668</ele>
        <time>2010-01-01T13:02:21Z</time>
      </trkpt>
      <trkpt lat="46.15949" lon="6.80219">
        <ele>1668</ele>
        <time>2010-01-01T13:02:24Z</time>
      </trkpt>
      <trkpt lat="46.15943" lon="6.80215">
        <ele>1668</ele>
        <time>2010-01-01T13:02:27Z</time>
      </trkpt>
      <trkpt lat="46.15941" lon="6.80221">
        <ele>1667</ele>
        <time>2010-01-01T13:02:28Z</time>
      </trkpt>
      <trkpt lat="46.15939" lon="6.80219">
        <ele>1667</ele>
        <time>2010-01-01T13:02:29Z</time>
      </trkpt>
      <trkpt lat="46.15937" lon="6.80218">
        <ele>1667</ele>
        <time>2010-01-01T13:02:30Z</time>
      </trkpt>
      <trkpt lat="46.15935" lon="6.80215">
        <ele>1667</ele>
        <time>2010-01-01T13:02:31Z</time>
      </trkpt>
      <trkpt lat="46.15933" lon="6.80214">
        <ele>1667</ele>
        <time>2010-01-01T13:02:32Z</time>
      </trkpt>
      <trkpt lat="46.15919" lon="6.80218">
        <ele>1665</ele>
        <time>2010-01-01T13:02:38Z</time>
      </trkpt>
      <trkpt lat="46.159" lon="6.80218">
        <ele>1650</ele>
        <time>2010-01-01T13:02:45Z</time>
      </trkpt>
      <trkpt lat="46.15889" lon="6.802">
        <ele>1650</ele>
        <time>2010-01-01T13:02:52Z</time>
      </trkpt>
      <trkpt lat="46.15867" lon="6.80163">
        <ele>1656</ele>
        <time>2010-01-01T13:03:05Z</time>
      </trkpt>
      <trkpt lat="46.15847" lon="6.80133">
        <ele>1657</ele>
        <time>2010-01-01T13:03:17Z</time>
      </trkpt>
      <trkpt lat="46.15831" lon="6.80109">
        <ele>1649</ele>
        <time>2010-01-01T13:03:26Z</time>
      </trkpt>
      <trkpt lat="46.15816" lon="6.80097">
        <ele>1650</ele>
        <time>2010-01-01T13:03:33Z</time>
      </trkpt>
      <trkpt lat="46.1581" lon="6.80103">
        <ele>1648</ele>
        <time>2010-01-01T13:03:36Z</time>
      </trkpt>
      <trkpt lat="46.1582" lon="6.80143">
        <ele>1643</ele>
        <time>2010-01-01T13:03:48Z</time>
      </trkpt>
      <trkpt lat="46.15831" lon="6.80205">
        <ele>1631</ele>
        <time>2010-01-01T13:04:06Z</time>
      </trkpt>
      <trkpt lat="46.15835" lon="6.80275">
        <ele>1630</ele>
        <time>2010-01-01T13:04:25Z</time>
      </trkpt>
      <trkpt lat="46.1583" lon="6.80331">
        <ele>1613</ele>
        <time>2010-01-01T13:04:41Z</time>
      </trkpt>
      <trkpt lat="46.15841" lon="6.80366">
        <ele>1612</ele>
        <time>2010-01-01T13:04:52Z</time>
      </trkpt>
      <trkpt lat="46.15858" lon="6.80384">
        <ele>1611</ele>
        <time>2010-01-01T13:05:00Z</time>
      </trkpt>
      <trkpt lat="46.15893" lon="6.80437">
        <ele>1594</ele>
        <time>2010-01-01T13:05:21Z</time>
      </trkpt>
      <trkpt lat="46.15913" lon="6.80456">
        <ele>1591</ele>
        <time>2010-01-01T13:05:30Z</time>
      </trkpt>
      <trkpt lat="46.15928" lon="6.80485">
        <ele>1596</ele>
        <time>2010-01-01T13:05:40Z</time>
      </trkpt>
      <trkpt lat="46.15969" lon="6.8051">
        <ele>1584</ele>
        <time>2010-01-01T13:05:58Z</time>
      </trkpt>
      <trkpt lat="46.15973" lon="6.80518">
        <ele>1583</ele>
        <time>2010-01-01T13:06:01Z</time>
      </trkpt>
      <trkpt lat="46.15985" lon="6.80534">
        <ele>1580</ele>
        <time>2010-01-01T13:06:07Z</time>
      </trkpt>
      <trkpt lat="46.15972" lon="6.80534">
        <ele>1579</ele>
        <time>2010-01-01T13:06:12Z</time>
      </trkpt>
      <trkpt lat="46.15953" lon="6.80529">
        <ele>1578</ele>
        <time>2010-01-01T13:06:20Z</time>
      </trkpt>
      <trkpt lat="46.15943" lon="6.80539">
        <ele>1575</ele>
        <time>2010-01-01T13:06:25Z</time>
      </trkpt>
      <trkpt lat="46.15927" lon="6.80539">
        <ele>1574</ele>
        <time>2010-01-01T13:06:31Z</time>
      </trkpt>
      <trkpt lat="46.15905" lon="6.80523">
        <ele>1565</ele>
        <time>2010-01-01T13:06:41Z</time>
      </trkpt>
      <trkpt lat="46.15895" lon="6.80514">
        <ele>1564</ele>
        <time>2010-01-01T13:06:46Z</time>
      </trkpt>
      <trkpt lat="46.15893" lon="6.80513">
        <ele>1564</ele>
        <time>2010-01-01T13:06:46Z</time>
      </trkpt>
      <trkpt lat="46.15891" lon="6.80513">
        <ele>1563</ele>
        <time>2010-01-01T13:06:48Z</time>
      </trkpt>
      <trkpt lat="46.15888" lon="6.80512">
        <ele>1562</ele>
        <time>2010-01-01T13:06:49Z</time>
      </trkpt>
      <trkpt lat="46.15887" lon="6.80511">
        <ele>1562</ele>
        <time>2010-01-01T13:06:49Z</time>
      </trkpt>
      <trkpt lat="46.15886" lon="6.80509">
        <ele>1562</ele>
        <time>2010-01-01T13:06:50Z</time>
      </trkpt>
      <trkpt lat="46.15883" lon="6.80508">
        <ele>1561</ele>
        <time>2010-01-01T13:06:51Z</time>
      </trkpt>
      <trkpt lat="46.15881" lon="6.80506">
        <ele>1561</ele>
        <time>2010-01-01T13:06:52Z</time>
      </trkpt>
      <trkpt lat="46.15879" lon="6.80504">
        <ele>1560</ele>
        <time>2010-01-01T13:06:53Z</time>
      </trkpt>
      <trkpt lat="46.15877" lon="6.80502">
        <ele>1560</ele>
        <time>2010-01-01T13:06:54Z</time>
      </trkpt>
      <trkpt lat="46.15875" lon="6.80502">
        <ele>1559</ele>
        <time>2010-01-01T13:06:55Z</time>
      </trkpt>
      <trkpt lat="46.15874" lon="6.80501">
        <ele>1559</ele>
        <time>2010-01-01T13:06:55Z</time>
      </trkpt>
      <trkpt lat="46.15858" lon="6.80496">
        <ele>1573</ele>
        <time>2010-01-01T13:07:02Z</time>
      </trkpt>
      <trkpt lat="46.15848" lon="6.80494">
        <ele>1568</ele>
        <time>2010-01-01T13:07:06Z</time>
      </trkpt>
      <trkpt lat="46.15843" lon="6.8049">
        <ele>1566</ele>
        <time>2010-01-01T13:07:08Z</time>
      </trkpt>
      <trkpt lat="46.15842" lon="6.8049">
        <ele>1566</ele>
        <time>2010-01-01T13:07:09Z</time>
      </trkpt>
      <trkpt lat="46.15839" lon="6.80489">
        <ele>1565</ele>
        <time>2010-01-01T13:07:10Z</time>
      </trkpt>
      <trkpt lat="46.15837" lon="6.80488">
        <ele>1565</ele>
        <time>2010-01-01T13:07:11Z</time>
      </trkpt>
      <trkpt lat="46.15835" lon="6.80488">
        <ele>1565</ele>
        <time>2010-01-01T13:07:11Z</time>
      </trkpt>
      <trkpt lat="46.15831" lon="6.80489">
        <ele>1560</ele>
        <time>2010-01-01T13:07:13Z</time>
      </trkpt>
      <trkpt lat="46.15829" lon="6.80489">
        <ele>1561</ele>
        <time>2010-01-01T13:07:14Z</time>
      </trkpt>
      <trkpt lat="46.15828" lon="6.8049">
        <ele>1560</ele>
        <time>2010-01-01T13:07:14Z</time>
      </trkpt>
      <trkpt lat="46.15828" lon="6.80493">
        <ele>1559</ele>
        <time>2010-01-01T13:07:15Z</time>
      </trkpt>
      <trkpt lat="46.15829" lon="6.80495">
        <ele>1557</ele>
        <time>2010-01-01T13:07:16Z</time>
      </trkpt>
      <trkpt lat="46.15833" lon="6.80501">
        <ele>1552</ele>
        <time>2010-01-01T13:07:18Z</time>
      </trkpt>
      <trkpt lat="46.15841" lon="6.8051">
        <ele>1553</ele>
        <time>2010-01-01T13:07:22Z</time>
      </trkpt>
      <trkpt lat="46.15857" lon="6.80522">
        <ele>1554</ele>
        <time>2010-01-01T13:07:29Z</time>
      </trkpt>
      <trkpt lat="46.15865" lon="6.80539">
        <ele>1553</ele>
        <time>2010-01-01T13:07:35Z</time>
      </trkpt>
      <trkpt lat="46.15875" lon="6.8058">
        <ele>1549</ele>
        <time>2010-01-01T13:07:47Z</time>
      </trkpt>
      <trkpt lat="46.15893" lon="6.80629">
        <ele>1530</ele>
        <time>2010-01-01T13:08:02Z</time>
      </trkpt>
      <trkpt lat="46.159" lon="6.80648">
        <ele>1528</ele>
        <time>2010-01-01T13:08:08Z</time>
      </trkpt>
      <trkpt lat="46.15903" lon="6.80673">
        <ele>1517</ele>
        <time>2010-01-01T13:08:16Z</time>
      </trkpt>
      <trkpt lat="46.15919" lon="6.80697">
        <ele>1523</ele>
        <time>2010-01-01T13:08:25Z</time>
      </trkpt>
      <trkpt lat="46.15931" lon="6.80717">
        <ele>1521</ele>
        <time>2010-01-01T13:08:32Z</time>
      </trkpt>
      <trkpt lat="46.15948" lon="6.80727">
        <ele>1522</ele>
        <time>2010-01-01T13:08:39Z</time>
      </trkpt>
      <trkpt lat="46.15959" lon="6.8074">
        <ele>1524</ele>
        <time>2010-01-01T13:08:45Z</time>
      </trkpt>
      <trkpt lat="46.15958" lon="6.80926">
        <ele>1499</ele>
        <time>2010-01-01T13:09:37Z</time>
      </trkpt>
      <trkpt lat="46.15959" lon="6.80997">
        <ele>1497</ele>
        <time>2010-01-01T13:09:56Z</time>
      </trkpt>
      <trkpt lat="46.15967" lon="6.81052">
        <ele>1493</ele>
        <time>2010-01-01T13:10:12Z</time>
      </trkpt>
      <trkpt lat="46.1597" lon="6.81077">
        <ele>1493</ele>
        <time>2010-01-01T13:10:19Z</time>
      </trkpt>
      <trkpt lat="46.15972" lon="6.81082">
        <ele>1493</ele>
        <time>2010-01-01T13:10:20Z</time>
      </trkpt>
      <trkpt lat="46.15975" lon="6.81086">
        <ele>1488</ele>
        <time>2010-01-01T13:10:22Z</time>
      </trkpt>
      <trkpt lat="46.15976" lon="6.81089">
        <ele>1488</ele>
        <time>2010-01-01T13:10:23Z</time>
      </trkpt>
      <trkpt lat="46.15975" lon="6.81096">
        <ele>1487</ele>
        <time>2010-01-01T13:10:25Z</time>
      </trkpt>
      <trkpt lat="46.15975" lon="6.81097">
        <ele>1487</ele>
        <time>2010-01-01T13:10:25Z</time>
      </trkpt>
      <trkpt lat="46.15976" lon="6.81101">
        <ele>1487</ele>
        <time>2010-01-01T13:10:26Z</time>
      </trkpt>
      <trkpt lat="46.15976" lon="6.81107">
        <ele>1486</ele>
        <time>2010-01-01T13:10:28Z</time>
      </trkpt>
      <trkpt lat="46.15976" lon="6.81183">
        <ele>1475</ele>
        <time>2010-01-01T13:10:49Z</time>
      </trkpt>
      <trkpt lat="46.15983" lon="6.81251">
        <ele>1468</ele>
        <time>2010-01-01T13:11:08Z</time>
      </trkpt>
      <trkpt lat="46.15976" lon="6.81317">
        <ele>1461</ele>
        <time>2010-01-01T13:11:27Z</time>
      </trkpt>
      <trkpt lat="46.15969" lon="6.81391">
        <ele>1454</ele>
        <time>2010-01-01T13:11:47Z</time>
      </trkpt>
      <trkpt lat="46.15963" lon="6.81419">
        <ele>1449</ele>
        <time>2010-01-01T13:11:55Z</time>
      </trkpt>
      <trkpt lat="46.15963" lon="6.81432">
        <ele>1449</ele>
        <time>2010-01-01T13:11:59Z</time>
      </trkpt>
      <trkpt lat="46.15963" lon="6.81437">
        <ele>1449</ele>
        <time>2010-01-01T13:12:01Z</time>
      </trkpt>
      <trkpt lat="46.15963" lon="6.81444">
        <ele>1448</ele>
        <time>2010-01-01T13:12:02Z</time>
      </trkpt>
      <trkpt lat="46.15962" lon="6.81448">
        <ele>1448</ele>
        <time>2010-01-01T13:12:04Z</time>
      </trkpt>
      <trkpt lat="46.15962" lon="6.8145">
        <ele>1448</ele>
        <time>2010-01-01T13:12:04Z</time>
      </trkpt>
      <trkpt lat="46.15961" lon="6.81455">
        <ele>1448</ele>
        <time>2010-01-01T13:12:06Z</time>
      </trkpt>
      <trkpt lat="46.15958" lon="6.81459">
        <ele>1447</ele>
        <time>2010-01-01T13:12:07Z</time>
      </trkpt>
      <trkpt lat="46.15955" lon="6.81463">
        <ele>1447</ele>
        <time>2010-01-01T13:12:09Z</time>
      </trkpt>
      <trkpt lat="46.15955" lon="6.81466">
        <ele>1446</ele>
        <time>2010-01-01T13:12:10Z</time>
      </trkpt>
      <trkpt lat="46.15954" lon="6.81471">
        <ele>1446</ele>
        <time>2010-01-01T13:12:11Z</time>
      </trkpt>
      <trkpt lat="46.15953" lon="6.81474">
        <ele>1446</ele>
        <time>2010-01-01T13:12:12Z</time>
      </trkpt>
      <trkpt lat="46.15953" lon="6.81478">
        <ele>1446</ele>
        <time>2010-01-01T13:12:13Z</time>
      </trkpt>
      <trkpt lat="46.15954" lon="6.81482">
        <ele>1446</ele>
        <time>2010-01-01T13:12:14Z</time>
      </trkpt>
      <trkpt lat="46.15955" lon="6.81488">
        <ele>1446</ele>
        <time>2010-01-01T13:12:16Z</time>
      </trkpt>
      <trkpt lat="46.15956" lon="6.81494">
        <ele>1446</ele>
        <time>2010-01-01T13:12:18Z</time>
      </trkpt>
      <trkpt lat="46.15956" lon="6.81499">
        <ele>1445</ele>
        <time>2010-01-01T13:12:19Z</time>
      </trkpt>
      <trkpt lat="46.15957" lon="6.81504">
        <ele>1440</ele>
        <time>2010-01-01T13:12:20Z</time>
      </trkpt>
      <trkpt lat="46.15956" lon="6.81508">
        <ele>1439</ele>
        <time>2010-01-01T13:12:22Z</time>
      </trkpt>
      <trkpt lat="46.15956" lon="6.81512">
        <ele>1439</ele>
        <time>2010-01-01T13:12:23Z</time>
      </trkpt>
      <trkpt lat="46.15956" lon="6.81516">
        <ele>1439</ele>
        <time>2010-01-01T13:12:24Z</time>
      </trkpt>
      <trkpt lat="46.15955" lon="6.81522">
        <ele>1439</ele>
        <time>2010-01-01T13:12:25Z</time>
      </trkpt>
      <trkpt lat="46.15955" lon="6.81527">
        <ele>1438</ele>
        <time>2010-01-01T13:12:27Z</time>
      </trkpt>
      <trkpt lat="46.15954" lon="6.81532">
        <ele>1438</ele>
        <time>2010-01-01T13:12:28Z</time>
      </trkpt>
      <trkpt lat="46.15954" lon="6.81535">
        <ele>1438</ele>
        <time>2010-01-01T13:12:29Z</time>
      </trkpt>
      <trkpt lat="46.15954" lon="6.81538">
        <ele>1437</ele>
        <time>2010-01-01T13:12:30Z</time>
      </trkpt>
      <trkpt lat="46.15954" lon="6.81543">
        <ele>1437</ele>
        <time>2010-01-01T13:12:31Z</time>
      </trkpt>
      <trkpt lat="46.15954" lon="6.81547">
        <ele>1437</ele>
        <time>2010-01-01T13:12:33Z</time>
      </trkpt>
      <trkpt lat="46.15954" lon="6.81551">
        <ele>1436</ele>
        <time>2010-01-01T13:12:34Z</time>
      </trkpt>
      <trkpt lat="46.15954" lon="6.81557">
        <ele>1436</ele>
        <time>2010-01-01T13:12:35Z</time>
      </trkpt>
      <trkpt lat="46.15953" lon="6.81581">
        <ele>1434</ele>
        <time>2010-01-01T13:12:42Z</time>
      </trkpt>
      <trkpt lat="46.15959" lon="6.81658">
        <ele>1430</ele>
        <time>2010-01-01T13:13:04Z</time>
      </trkpt>
      <trkpt lat="46.15969" lon="6.81758">
        <ele>1421</ele>
        <time>2010-01-01T13:13:31Z</time>
      </trkpt>
      <trkpt lat="46.15974" lon="6.81801">
        <ele>1419</ele>
        <time>2010-01-01T13:13:43Z</time>
      </trkpt>
      <trkpt lat="46.15967" lon="6.81848">
        <ele>1414</ele>
        <time>2010-01-01T13:13:57Z</time>
      </trkpt>
      <trkpt lat="46.15965" lon="6.81867">
        <ele>1413</ele>
        <time>2010-01-01T13:14:02Z</time>
      </trkpt>
      <trkpt lat="46.15964" lon="6.81873">
        <ele>1413</ele>
        <time>2010-01-01T13:14:04Z</time>
      </trkpt>
      <trkpt lat="46.15965" lon="6.81877">
        <ele>1413</ele>
        <time>2010-01-01T13:14:05Z</time>
      </trkpt>
      <trkpt lat="46.15965" lon="6.81879">
        <ele>1413</ele>
        <time>2010-01-01T13:14:06Z</time>
      </trkpt>
      <trkpt lat="46.15964" lon="6.81886">
        <ele>1413</ele>
        <time>2010-01-01T13:14:08Z</time>
      </trkpt>
      <trkpt lat="46.15964" lon="6.81891">
        <ele>1412</ele>
        <time>2010-01-01T13:14:09Z</time>
      </trkpt>
      <trkpt lat="46.15964" lon="6.81895">
        <ele>1412</ele>
        <time>2010-01-01T13:14:10Z</time>
      </trkpt>
      <trkpt lat="46.15964" lon="6.81899">
        <ele>1412</ele>
        <time>2010-01-01T13:14:11Z</time>
      </trkpt>
      <trkpt lat="46.15966" lon="6.81904">
        <ele>1412</ele>
        <time>2010-01-01T13:14:13Z</time>
      </trkpt>
      <trkpt lat="46.15967" lon="6.8191">
        <ele>1412</ele>
        <time>2010-01-01T13:14:14Z</time>
      </trkpt>
      <trkpt lat="46.15967" lon="6.81919">
        <ele>1409</ele>
        <time>2010-01-01T13:14:17Z</time>
      </trkpt>
      <trkpt lat="46.15968" lon="6.81925">
        <ele>1409</ele>
        <time>2010-01-01T13:14:19Z</time>
      </trkpt>
      <trkpt lat="46.15969" lon="6.81928">
        <ele>1409</ele>
        <time>2010-01-01T13:14:20Z</time>
      </trkpt>
      <trkpt lat="46.1597" lon="6.81931">
        <ele>1409</ele>
        <time>2010-01-01T13:14:20Z</time>
      </trkpt>
      <trkpt lat="46.15971" lon="6.81936">
        <ele>1409</ele>
        <time>2010-01-01T13:14:22Z</time>
      </trkpt>
      <trkpt lat="46.15971" lon="6.81939">
        <ele>1409</ele>
        <time>2010-01-01T13:14:23Z</time>
      </trkpt>
      <trkpt lat="46.15973" lon="6.81946">
        <ele>1409</ele>
        <time>2010-01-01T13:14:25Z</time>
      </trkpt>
      <trkpt lat="46.15973" lon="6.81951">
        <ele>1409</ele>
        <time>2010-01-01T13:14:26Z</time>
      </trkpt>
      <trkpt lat="46.15974" lon="6.81957">
        <ele>1409</ele>
        <time>2010-01-01T13:14:28Z</time>
      </trkpt>
      <trkpt lat="46.15975" lon="6.81959">
        <ele>1408</ele>
        <time>2010-01-01T13:14:28Z</time>
      </trkpt>
      <trkpt lat="46.15975" lon="6.81966">
        <ele>1408</ele>
        <time>2010-01-01T13:14:30Z</time>
      </trkpt>
      <trkpt lat="46.15976" lon="6.81973">
        <ele>1408</ele>
        <time>2010-01-01T13:14:32Z</time>
      </trkpt>
      <trkpt lat="46.15976" lon="6.81977">
        <ele>1408</ele>
        <time>2010-01-01T13:14:34Z</time>
      </trkpt>
      <trkpt lat="46.15975" lon="6.81986">
        <ele>1407</ele>
        <time>2010-01-01T13:14:36Z</time>
      </trkpt>
      <trkpt lat="46.15975" lon="6.81989">
        <ele>1407</ele>
        <time>2010-01-01T13:14:37Z</time>
      </trkpt>
      <trkpt lat="46.15975" lon="6.81993">
        <ele>1407</ele>
        <time>2010-01-01T13:14:38Z</time>
      </trkpt>
      <trkpt lat="46.15976" lon="6.82015">
        <ele>1403</ele>
        <time>2010-01-01T13:14:44Z</time>
      </trkpt>
      <trkpt lat="46.15988" lon="6.82096">
        <ele>1394</ele>
        <time>2010-01-01T13:15:07Z</time>
      </trkpt>
      <trkpt lat="46.1599" lon="6.82119">
        <ele>1392</ele>
        <time>2010-01-01T13:15:13Z</time>
      </trkpt>
      <trkpt lat="46.15991" lon="6.82126">
        <ele>1391</ele>
        <time>2010-01-01T13:15:15Z</time>
      </trkpt>
      <trkpt lat="46.15992" lon="6.82132">
        <ele>1390</ele>
        <time>2010-01-01T13:15:17Z</time>
      </trkpt>
      <trkpt lat="46.15992" lon="6.82134">
        <ele>1390</ele>
        <time>2010-01-01T13:15:18Z</time>
      </trkpt>
      <trkpt lat="46.15993" lon="6.82142">
        <ele>1389</ele>
        <time>2010-01-01T13:15:20Z</time>
      </trkpt>
      <trkpt lat="46.15994" lon="6.82147">
        <ele>1389</ele>
        <time>2010-01-01T13:15:21Z</time>
      </trkpt>
      <trkpt lat="46.15994" lon="6.82149">
        <ele>1389</ele>
        <time>2010-01-01T13:15:22Z</time>
      </trkpt>
      <trkpt lat="46.15995" lon="6.82155">
        <ele>1388</ele>
        <time>2010-01-01T13:15:24Z</time>
      </trkpt>
      <trkpt lat="46.15996" lon="6.8216">
        <ele>1387</ele>
        <time>2010-01-01T13:15:25Z</time>
      </trkpt>
      <trkpt lat="46.15997" lon="6.82165">
        <ele>1387</ele>
        <time>2010-01-01T13:15:27Z</time>
      </trkpt>
      <trkpt lat="46.15998" lon="6.8217">
        <ele>1385</ele>
        <time>2010-01-01T13:15:28Z</time>
      </trkpt>
      <trkpt lat="46.15999" lon="6.82175">
        <ele>1385</ele>
        <time>2010-01-01T13:15:29Z</time>
      </trkpt>
      <trkpt lat="46.15999" lon="6.82179">
        <ele>1384</ele>
        <time>2010-01-01T13:15:30Z</time>
      </trkpt>
      <trkpt lat="46.16" lon="6.82185">
        <ele>1394</ele>
        <time>2010-01-01T13:15:32Z</time>
      </trkpt>
      <trkpt lat="46.16001" lon="6.82189">
        <ele>1395</ele>
        <time>2010-01-01T13:15:34Z</time>
      </trkpt>
      <trkpt lat="46.16001" lon="6.8219">
        <ele>1395</ele>
        <time>2010-01-01T13:15:34Z</time>
      </trkpt>
      <trkpt lat="46.16001" lon="6.82197">
        <ele>1396</ele>
        <time>2010-01-01T13:15:36Z</time>
      </trkpt>
      <trkpt lat="46.16001" lon="6.82204">
        <ele>1396</ele>
        <time>2010-01-01T13:15:37Z</time>
      </trkpt>
      <trkpt lat="46.16001" lon="6.8221">
        <ele>1396</ele>
        <time>2010-01-01T13:15:39Z</time>
      </trkpt>
      <trkpt lat="46.16001" lon="6.82217">
        <ele>1395</ele>
        <time>2010-01-01T13:15:41Z</time>
      </trkpt>
      <trkpt lat="46.16001" lon="6.82221">
        <ele>1394</ele>
        <time>2010-01-01T13:15:42Z</time>
      </trkpt>
      <trkpt lat="46.16" lon="6.82226">
        <ele>1393</ele>
        <time>2010-01-01T13:15:44Z</time>
      </trkpt>
      <trkpt lat="46.16001" lon="6.82236">
        <ele>1390</ele>
        <time>2010-01-01T13:15:47Z</time>
      </trkpt>
      <trkpt lat="46.15991" lon="6.82268">
        <ele>1377</ele>
        <time>2010-01-01T13:15:56Z</time>
      </trkpt>
      <trkpt lat="46.15991" lon="6.8237">
        <ele>1370</ele>
        <time>2010-01-01T13:16:24Z</time>
      </trkpt>
      <trkpt lat="46.15995" lon="6.82507">
        <ele>1361</ele>
        <time>2010-01-01T13:17:02Z</time>
      </trkpt>
      <trkpt lat="46.16031" lon="6.82575">
        <ele>1365</ele>
        <time>2010-01-01T13:17:26Z</time>
      </trkpt>
      <trkpt lat="46.16064" lon="6.8263">
        <ele>1361</ele>
        <time>2010-01-01T13:17:46Z</time>
      </trkpt>
      <trkpt lat="46.1609" lon="6.82692">
        <ele>1372</ele>
        <time>2010-01-01T13:18:07Z</time>
      </trkpt>
      <trkpt lat="46.16095" lon="6.82788">
        <ele>1363</ele>
        <time>2010-01-01T13:18:33Z</time>
      </trkpt>
      <trkpt lat="46.16092" lon="6.82897">
        <ele>1361</ele>
        <time>2010-01-01T13:19:04Z</time>
      </trkpt>
      <trkpt lat="46.16078" lon="6.82991">
        <ele>1348</ele>
        <time>2010-01-01T13:19:30Z</time>
      </trkpt>
      <trkpt lat="46.16083" lon="6.83076">
        <ele>1338</ele>
        <time>2010-01-01T13:19:54Z</time>
      </trkpt>
      <trkpt lat="46.16136" lon="6.83204">
        <ele>1339</ele>
        <time>2010-01-01T13:20:35Z</time>
      </trkpt>
      <trkpt lat="46.16171" lon="6.83297">
        <ele>1348</ele>
        <time>2010-01-01T13:21:05Z</time>
      </trkpt>
      <trkpt lat="46.16228" lon="6.83398">
        <ele>1339</ele>
        <time>2010-01-01T13:21:40Z</time>
      </trkpt>
      <trkpt lat="46.16271" lon="6.83457">
        <ele>1348</ele>
        <time>2010-01-01T13:22:04Z</time>
      </trkpt>
      <trkpt lat="46.16317" lon="6.83532">
        <ele>1336</ele>
        <time>2010-01-01T13:22:32Z</time>
      </trkpt>
      <trkpt lat="46.16362" lon="6.83564">
        <ele>1355</ele>
        <time>2010-01-01T13:22:52Z</time>
      </trkpt>
      <trkpt lat="46.16389" lon="6.83573">
        <ele>1361</ele>
        <time>2010-01-01T13:23:03Z</time>
      </trkpt>
      <trkpt lat="46.16399" lon="6.8359">
        <ele>1356</ele>
        <time>2010-01-01T13:23:10Z</time>
      </trkpt>
      <trkpt lat="46.16399" lon="6.83602">
        <ele>1355</ele>
        <time>2010-01-01T13:23:13Z</time>
      </trkpt>
      <trkpt lat="46.16398" lon="6.83606">
        <ele>1354</ele>
        <time>2010-01-01T13:23:14Z</time>
      </trkpt>
      <trkpt lat="46.16396" lon="6.83609">
        <ele>1354</ele>
        <time>2010-01-01T13:23:15Z</time>
      </trkpt>
      <trkpt lat="46.16396" lon="6.83611">
        <ele>1354</ele>
        <time>2010-01-01T13:23:16Z</time>
      </trkpt>
      <trkpt lat="46.16393" lon="6.83613">
        <ele>1353</ele>
        <time>2010-01-01T13:23:17Z</time>
      </trkpt>
      <trkpt lat="46.16389" lon="6.83616">
        <ele>1353</ele>
        <time>2010-01-01T13:23:19Z</time>
      </trkpt>
      <trkpt lat="46.16388" lon="6.83618">
        <ele>1352</ele>
        <time>2010-01-01T13:23:19Z</time>
      </trkpt>
      <trkpt lat="46.16381" lon="6.83615">
        <ele>1351</ele>
        <time>2010-01-01T13:23:22Z</time>
      </trkpt>
      <trkpt lat="46.1633" lon="6.8364">
        <ele>1329</ele>
        <time>2010-01-01T13:23:44Z</time>
      </trkpt>
      <trkpt lat="46.16316" lon="6.83762">
        <ele>1348</ele>
        <time>2010-01-01T13:24:18Z</time>
      </trkpt>
      <trkpt lat="46.16298" lon="6.83866">
        <ele>1351</ele>
        <time>2010-01-01T13:24:48Z</time>
      </trkpt>
      <trkpt lat="46.16284" lon="6.83928">
        <ele>1354</ele>
        <time>2010-01-01T13:25:06Z</time>
      </trkpt>
      <trkpt lat="46.16267" lon="6.83961">
        <ele>1352</ele>
        <time>2010-01-01T13:25:17Z</time>
      </trkpt>
      <trkpt lat="46.16243" lon="6.84077">
        <ele>1338</ele>
        <time>2010-01-01T13:25:51Z</time>
      </trkpt>
      <trkpt lat="46.16241" lon="6.84101">
        <ele>1336</ele>
        <time>2010-01-01T13:25:57Z</time>
      </trkpt>
      <trkpt lat="46.1624" lon="6.84106">
        <ele>1335</ele>
        <time>2010-01-01T13:25:59Z</time>
      </trkpt>
      <trkpt lat="46.16239" lon="6.8411">
        <ele>1334</ele>
        <time>2010-01-01T13:26:00Z</time>
      </trkpt>
      <trkpt lat="46.16236" lon="6.84116">
        <ele>1333</ele>
        <time>2010-01-01T13:26:02Z</time>
      </trkpt>
      <trkpt lat="46.16234" lon="6.84122">
        <ele>1333</ele>
        <time>2010-01-01T13:26:04Z</time>
      </trkpt>
      <trkpt lat="46.16232" lon="6.84129">
        <ele>1333</ele>
        <time>2010-01-01T13:26:06Z</time>
      </trkpt>
      <trkpt lat="46.16231" lon="6.84133">
        <ele>1333</ele>
        <time>2010-01-01T13:26:07Z</time>
      </trkpt>
      <trkpt lat="46.1623" lon="6.84139">
        <ele>1333</ele>
        <time>2010-01-01T13:26:09Z</time>
      </trkpt>
      <trkpt lat="46.1623" lon="6.84148">
        <ele>1335</ele>
        <time>2010-01-01T13:26:12Z</time>
      </trkpt>
      <trkpt lat="46.1623" lon="6.84152">
        <ele>1336</ele>
        <time>2010-01-01T13:26:13Z</time>
      </trkpt>
      <trkpt lat="46.16231" lon="6.84158">
        <ele>1337</ele>
        <time>2010-01-01T13:26:14Z</time>
      </trkpt>
      <trkpt lat="46.16231" lon="6.84163">
        <ele>1338</ele>
        <time>2010-01-01T13:26:16Z</time>
      </trkpt>
      <trkpt lat="46.16231" lon="6.84167">
        <ele>1338</ele>
        <time>2010-01-01T13:26:17Z</time>
      </trkpt>
      <trkpt lat="46.1623" lon="6.84172">
        <ele>1339</ele>
        <time>2010-01-01T13:26:18Z</time>
      </trkpt>
      <trkpt lat="46.16229" lon="6.84179">
        <ele>1338</ele>
        <time>2010-01-01T13:26:20Z</time>
      </trkpt>
      <trkpt lat="46.16228" lon="6.84187">
        <ele>1336</ele>
        <time>2010-01-01T13:26:23Z</time>
      </trkpt>
      <trkpt lat="46.16227" lon="6.8419">
        <ele>1336</ele>
        <time>2010-01-01T13:26:23Z</time>
      </trkpt>
      <trkpt lat="46.16226" lon="6.84194">
        <ele>1335</ele>
        <time>2010-01-01T13:26:25Z</time>
      </trkpt>
      <trkpt lat="46.16226" lon="6.84199">
        <ele>1335</ele>
        <time>2010-01-01T13:26:26Z</time>
      </trkpt>
      <trkpt lat="46.16226" lon="6.84206">
        <ele>1334</ele>
        <time>2010-01-01T13:26:28Z</time>
      </trkpt>
      <trkpt lat="46.16228" lon="6.8421">
        <ele>1335</ele>
        <time>2010-01-01T13:26:29Z</time>
      </trkpt>
      <trkpt lat="46.1623" lon="6.84213">
        <ele>1335</ele>
        <time>2010-01-01T13:26:30Z</time>
      </trkpt>
      <trkpt lat="46.16233" lon="6.8422">
        <ele>1336</ele>
        <time>2010-01-01T13:26:33Z</time>
      </trkpt>
      <trkpt lat="46.16234" lon="6.84222">
        <ele>1337</ele>
        <time>2010-01-01T13:26:33Z</time>
      </trkpt>
      <trkpt lat="46.16237" lon="6.84227">
        <ele>1338</ele>
        <time>2010-01-01T13:26:35Z</time>
      </trkpt>
      <trkpt lat="46.16238" lon="6.8423">
        <ele>1339</ele>
        <time>2010-01-01T13:26:36Z</time>
      </trkpt>
      <trkpt lat="46.16239" lon="6.84235">
        <ele>1341</ele>
        <time>2010-01-01T13:26:38Z</time>
      </trkpt>
      <trkpt lat="46.1624" lon="6.84236">
        <ele>1341</ele>
        <time>2010-01-01T13:26:38Z</time>
      </trkpt>
      <trkpt lat="46.16242" lon="6.84242">
        <ele>1344</ele>
        <time>2010-01-01T13:26:40Z</time>
      </trkpt>
      <trkpt lat="46.16243" lon="6.84245">
        <ele>1345</ele>
        <time>2010-01-01T13:26:41Z</time>
      </trkpt>
      <trkpt lat="46.16242" lon="6.84256">
        <ele>1344</ele>
        <time>2010-01-01T13:26:44Z</time>
      </trkpt>
      <trkpt lat="46.16236" lon="6.84264">
        <ele>1339</ele>
        <time>2010-01-01T13:26:47Z</time>
      </trkpt>
      <trkpt lat="46.16234" lon="6.84264">
        <ele>1338</ele>
        <time>2010-01-01T13:26:48Z</time>
      </trkpt>
      <trkpt lat="46.1623" lon="6.84267">
        <ele>1336</ele>
        <time>2010-01-01T13:26:50Z</time>
      </trkpt>
      <trkpt lat="46.16228" lon="6.84267">
        <ele>1336</ele>
        <time>2010-01-01T13:26:51Z</time>
      </trkpt>
      <trkpt lat="46.16225" lon="6.84268">
        <ele>1334</ele>
        <time>2010-01-01T13:26:52Z</time>
      </trkpt>
      <trkpt lat="46.16221" lon="6.8427">
        <ele>1333</ele>
        <time>2010-01-01T13:26:53Z</time>
      </trkpt>
      <trkpt lat="46.16219" lon="6.84271">
        <ele>1332</ele>
        <time>2010-01-01T13:26:54Z</time>
      </trkpt>
      <trkpt lat="46.16212" lon="6.84283">
        <ele>1330</ele>
        <time>2010-01-01T13:26:59Z</time>
      </trkpt>
      <trkpt lat="46.16211" lon="6.84347">
        <ele>1328</ele>
        <time>2010-01-01T13:27:17Z</time>
      </trkpt>
      <trkpt lat="46.16208" lon="6.84384">
        <ele>1327</ele>
        <time>2010-01-01T13:27:27Z</time>
      </trkpt>
      <trkpt lat="46.16208" lon="6.84386">
        <ele>1327</ele>
        <time>2010-01-01T13:27:27Z</time>
      </trkpt>
      <trkpt lat="46.1621" lon="6.84392">
        <ele>1327</ele>
        <time>2010-01-01T13:27:29Z</time>
      </trkpt>
      <trkpt lat="46.16211" lon="6.84403">
        <ele>1328</ele>
        <time>2010-01-01T13:27:32Z</time>
      </trkpt>
      <trkpt lat="46.16212" lon="6.84408">
        <ele>1328</ele>
        <time>2010-01-01T13:27:34Z</time>
      </trkpt>
      <trkpt lat="46.16211" lon="6.84413">
        <ele>1328</ele>
        <time>2010-01-01T13:27:35Z</time>
      </trkpt>
      <trkpt lat="46.16212" lon="6.84417">
        <ele>1328</ele>
        <time>2010-01-01T13:27:36Z</time>
      </trkpt>
      <trkpt lat="46.16212" lon="6.84426">
        <ele>1329</ele>
        <time>2010-01-01T13:27:39Z</time>
      </trkpt>
      <trkpt lat="46.16213" lon="6.84434">
        <ele>1329</ele>
        <time>2010-01-01T13:27:41Z</time>
      </trkpt>
      <trkpt lat="46.16212" lon="6.84442">
        <ele>1329</ele>
        <time>2010-01-01T13:27:43Z</time>
      </trkpt>
      <trkpt lat="46.16211" lon="6.84445">
        <ele>1329</ele>
        <time>2010-01-01T13:27:44Z</time>
      </trkpt>
      <trkpt lat="46.16211" lon="6.84455">
        <ele>1329</ele>
        <time>2010-01-01T13:27:47Z</time>
      </trkpt>
      <trkpt lat="46.1621" lon="6.84457">
        <ele>1329</ele>
        <time>2010-01-01T13:27:47Z</time>
      </trkpt>
      <trkpt lat="46.16209" lon="6.84467">
        <ele>1329</ele>
        <time>2010-01-01T13:27:50Z</time>
      </trkpt>
      <trkpt lat="46.16209" lon="6.84471">
        <ele>1328</ele>
        <time>2010-01-01T13:27:51Z</time>
      </trkpt>
      <trkpt lat="46.16208" lon="6.84478">
        <ele>1328</ele>
        <time>2010-01-01T13:27:53Z</time>
      </trkpt>
      <trkpt lat="46.16208" lon="6.84481">
        <ele>1328</ele>
        <time>2010-01-01T13:27:54Z</time>
      </trkpt>
      <trkpt lat="46.16208" lon="6.84519">
        <ele>1329</ele>
        <time>2010-01-01T13:28:05Z</time>
      </trkpt>
      <trkpt lat="46.16217" lon="6.8471">
        <ele>1321</ele>
        <time>2010-01-01T13:28:58Z</time>
      </trkpt>
      <trkpt lat="46.16245" lon="6.84891">
        <ele>1294</ele>
        <time>2010-01-01T13:29:49Z</time>
      </trkpt>
      <trkpt lat="46.16256" lon="6.8495">
        <ele>1310</ele>
        <time>2010-01-01T13:30:06Z</time>
      </trkpt>
      <trkpt lat="46.16257" lon="6.84955">
        <ele>1309</ele>
        <time>2010-01-01T13:30:08Z</time>
      </trkpt>
      <trkpt lat="46.16264" lon="6.84999">
        <ele>1294</ele>
        <time>2010-01-01T13:30:20Z</time>
      </trkpt>
      <trkpt lat="46.16298" lon="6.85071">
        <ele>1294</ele>
        <time>2010-01-01T13:30:44Z</time>
      </trkpt>
      <trkpt lat="46.16326" lon="6.85135">
        <ele>1275</ele>
        <time>2010-01-01T13:31:05Z</time>
      </trkpt>
      <trkpt lat="46.16348" lon="6.85192">
        <ele>1277</ele>
        <time>2010-01-01T13:31:23Z</time>
      </trkpt>
      <trkpt lat="46.1637" lon="6.85214">
        <ele>1278</ele>
        <time>2010-01-01T13:31:34Z</time>
      </trkpt>
      <trkpt lat="46.164" lon="6.8526">
        <ele>1266</ele>
        <time>2010-01-01T13:31:52Z</time>
      </trkpt>
      <trkpt lat="46.16426" lon="6.85303">
        <ele>1276</ele>
        <time>2010-01-01T13:32:07Z</time>
      </trkpt>
      <trkpt lat="46.16452" lon="6.85357">
        <ele>1259</ele>
        <time>2010-01-01T13:32:26Z</time>
      </trkpt>
      <trkpt lat="46.16488" lon="6.85418">
        <ele>1250</ele>
        <time>2010-01-01T13:32:48Z</time>
      </trkpt>
      <trkpt lat="46.16538" lon="6.85501">
        <ele>1234</ele>
        <time>2010-01-01T13:33:18Z</time>
      </trkpt>
      <trkpt lat="46.16585" lon="6.85546">
        <ele>1247</ele>
        <time>2010-01-01T13:33:41Z</time>
      </trkpt>
      <trkpt lat="46.16606" lon="6.85563">
        <ele>1246</ele>
        <time>2010-01-01T13:33:51Z</time>
      </trkpt>
      <trkpt lat="46.16604" lon="6.85596">
        <ele>1226</ele>
        <time>2010-01-01T13:34:00Z</time>
      </trkpt>
      <trkpt lat="46.16649" lon="6.85667">
        <ele>1225</ele>
        <time>2010-01-01T13:34:27Z</time>
      </trkpt>
      <trkpt lat="46.16664" lon="6.85714">
        <ele>1200</ele>
        <time>2010-01-01T13:34:41Z</time>
      </trkpt>
      <trkpt lat="46.16697" lon="6.8574">
        <ele>1222</ele>
        <time>2010-01-01T13:34:56Z</time>
      </trkpt>
      <trkpt lat="46.16755" lon="6.85823">
        <ele>1204</ele>
        <time>2010-01-01T13:35:29Z</time>
      </trkpt>
      <trkpt lat="46.16785" lon="6.85878">
        <ele>1187</ele>
        <time>2010-01-01T13:35:48Z</time>
      </trkpt>
      <trkpt lat="46.1683" lon="6.85914">
        <ele>1185</ele>
        <time>2010-01-01T13:36:09Z</time>
      </trkpt>
      <trkpt lat="46.16844" lon="6.85913">
        <ele>1193</ele>
        <time>2010-01-01T13:36:14Z</time>
      </trkpt>
      <trkpt lat="46.16844" lon="6.85977">
        <ele>1177</ele>
        <time>2010-01-01T13:36:32Z</time>
      </trkpt>
      <trkpt lat="46.16882" lon="6.86028">
        <ele>1163</ele>
        <time>2010-01-01T13:36:53Z</time>
      </trkpt>
      <trkpt lat="46.16946" lon="6.8607">
        <ele>1165</ele>
        <time>2010-01-01T13:37:21Z</time>
      </trkpt>
      <trkpt lat="46.16987" lon="6.86095">
        <ele>1151</ele>
        <time>2010-01-01T13:37:39Z</time>
      </trkpt>
      <trkpt lat="46.17021" lon="6.86111">
        <ele>1154</ele>
        <time>2010-01-01T13:37:53Z</time>
      </trkpt>
      <trkpt lat="46.17098" lon="6.86201">
        <ele>1137</ele>
        <time>2010-01-01T13:38:33Z</time>
      </trkpt>
      <trkpt lat="46.17149" lon="6.86283">
        <ele>1111</ele>
        <time>2010-01-01T13:39:03Z</time>
      </trkpt>
      <trkpt lat="46.1721" lon="6.86291">
        <ele>1116</ele>
        <time>2010-01-01T13:39:28Z</time>
      </trkpt>
      <trkpt lat="46.17249" lon="6.86279">
        <ele>1121</ele>
        <time>2010-01-01T13:39:44Z</time>
      </trkpt>
      <trkpt lat="46.17253" lon="6.86283">
        <ele>1126</ele>
        <time>2010-01-01T13:39:46Z</time>
      </trkpt>
      <trkpt lat="46.17298" lon="6.86338">
        <ele>1106</ele>
        <time>2010-01-01T13:40:09Z</time>
      </trkpt>
      <trkpt lat="46.17317" lon="6.86401">
        <ele>1100</ele>
        <time>2010-01-01T13:40:28Z</time>
      </trkpt>
      <trkpt lat="46.17356" lon="6.86425">
        <ele>1101</ele>
        <time>2010-01-01T13:40:45Z</time>
      </trkpt>
      <trkpt lat="46.17372" lon="6.86515">
        <ele>1086</ele>
        <time>2010-01-01T13:41:11Z</time>
      </trkpt>
      <trkpt lat="46.17396" lon="6.86584">
        <ele>1074</ele>
        <time>2010-01-01T13:41:32Z</time>
      </trkpt>
      <trkpt lat="46.17397" lon="6.866">
        <ele>1073</ele>
        <time>2010-01-01T13:41:37Z</time>
      </trkpt>
      <trkpt lat="46.17407" lon="6.86608">
        <ele>1073</ele>
        <time>2010-01-01T13:41:41Z</time>
      </trkpt>
      <trkpt lat="46.17426" lon="6.8662">
        <ele>1076</ele>
        <time>2010-01-01T13:41:50Z</time>
      </trkpt>
      <trkpt lat="46.17442" lon="6.86629">
        <ele>1076</ele>
        <time>2010-01-01T13:41:57Z</time>
      </trkpt>
      <trkpt lat="46.1746" lon="6.86636">
        <ele>1076</ele>
        <time>2010-01-01T13:42:04Z</time>
      </trkpt>
      <trkpt lat="46.17481" lon="6.86644">
        <ele>1075</ele>
        <time>2010-01-01T13:42:13Z</time>
      </trkpt>
      <trkpt lat="46.17503" lon="6.86651">
        <ele>1077</ele>
        <time>2010-01-01T13:42:22Z</time>
      </trkpt>
      <trkpt lat="46.17505" lon="6.86652">
        <ele>1077</ele>
        <time>2010-01-01T13:42:23Z</time>
      </trkpt>
      <trkpt lat="46.17519" lon="6.86659">
        <ele>1078</ele>
        <time>2010-01-01T13:42:29Z</time>
      </trkpt>
      <trkpt lat="46.17527" lon="6.86671">
        <ele>1068</ele>
        <time>2010-01-01T13:42:33Z</time>
      </trkpt>
      <trkpt lat="46.1752" lon="6.86679">
        <ele>1068</ele>
        <time>2010-01-01T13:42:37Z</time>
      </trkpt>
      <trkpt lat="46.17513" lon="6.86695">
        <ele>1067</ele>
        <time>2010-01-01T13:42:42Z</time>
      </trkpt>
      <trkpt lat="46.17483" lon="6.86726">
        <ele>1061</ele>
        <time>2010-01-01T13:42:57Z</time>
      </trkpt>
      <trkpt lat="46.17438" lon="6.86766">
        <ele>1055</ele>
        <time>2010-01-01T13:43:18Z</time>
      </trkpt>
      <trkpt lat="46.17434" lon="6.8678">
        <ele>1055</ele>
        <time>2010-01-01T13:43:22Z</time>
      </trkpt>
      <trkpt lat="46.17472" lon="6.86855">
        <ele>1047</ele>
        <time>2010-01-01T13:43:48Z</time>
      </trkpt>
      <trkpt lat="46.175" lon="6.86899">
        <ele>1045</ele>
        <time>2010-01-01T13:44:05Z</time>
      </trkpt>
      <trkpt lat="46.17523" lon="6.86932">
        <ele>1042</ele>
        <time>2010-01-01T13:44:18Z</time>
      </trkpt>
      <trkpt lat="46.17529" lon="6.8696">
        <ele>1041</ele>
        <time>2010-01-01T13:44:26Z</time>
      </trkpt>
      <trkpt lat="46.17515" lon="6.87021">
        <ele>1037</ele>
        <time>2010-01-01T13:44:44Z</time>
      </trkpt>
      <trkpt lat="46.17507" lon="6.87048">
        <ele>1036</ele>
        <time>2010-01-01T13:44:52Z</time>
      </trkpt>
      <trkpt lat="46.17507" lon="6.87105">
        <ele>1033</ele>
        <time>2010-01-01T13:45:07Z</time>
      </trkpt>
      <trkpt lat="46.17501" lon="6.87144">
        <ele>1032</ele>
        <time>2010-01-01T13:45:19Z</time>
      </trkpt>
      <trkpt lat="46.17481" lon="6.87111">
        <ele>1031</ele>
        <time>2010-01-01T13:45:31Z</time>
      </trkpt>
      <trkpt lat="46.17493" lon="6.8709">
        <ele>1033</ele>
        <time>2010-01-01T13:45:38Z</time>
      </trkpt>
      <trkpt lat="46.175" lon="6.87086">
        <ele>1034</ele>
        <time>2010-01-01T13:45:41Z</time>
      </trkpt>
      <trkpt lat="46.1749" lon="6.87065">
        <ele>1036</ele>
        <time>2010-01-01T13:45:49Z</time>
      </trkpt>
      <trkpt lat="46.17486" lon="6.8681">
        <ele>1053</ele>
        <time>2010-01-01T13:46:59Z</time>
      </trkpt>
      <trkpt lat="46.17481" lon="6.86446">
        <ele>1129</ele>
        <time>2010-01-01T13:48:40Z</time>
      </trkpt>
      <trkpt lat="46.17478" lon="6.86232">
        <ele>1202</ele>
        <time>2010-01-01T13:49:40Z</time>
      </trkpt>
      <trkpt lat="46.17478" lon="6.86123">
        <ele>1230</ele>
        <time>2010-01-01T13:50:10Z</time>
      </trkpt>
      <trkpt lat="46.17492" lon="6.86061">
        <ele>1259</ele>
        <time>2010-01-01T13:50:28Z</time>
      </trkpt>
      <trkpt lat="46.17494" lon="6.86037">
        <ele>1265</ele>
        <time>2010-01-01T13:50:35Z</time>
      </trkpt>
      <trkpt lat="46.17495" lon="6.86002">
        <ele>1283</ele>
        <time>2010-01-01T13:50:44Z</time>
      </trkpt>
      <trkpt lat="46.17496" lon="6.8598">
        <ele>1291</ele>
        <time>2010-01-01T13:50:50Z</time>
      </trkpt>
      <trkpt lat="46.17498" lon="6.85932">
        <ele>1306</ele>
        <time>2010-01-01T13:51:04Z</time>
      </trkpt>
      <trkpt lat="46.175" lon="6.85823">
        <ele>1347</ele>
        <time>2010-01-01T13:51:34Z</time>
      </trkpt>
      <trkpt lat="46.17512" lon="6.85483">
        <ele>1491</ele>
        <time>2010-01-01T13:53:08Z</time>
      </trkpt>
      <trkpt lat="46.17514" lon="6.8522">
        <ele>1559</ele>
        <time>2010-01-01T13:54:21Z</time>
      </trkpt>
      <trkpt lat="46.17509" lon="6.84825">
        <ele>1764</ele>
        <time>2010-01-01T13:56:11Z</time>
      </trkpt>
      <trkpt lat="46.17508" lon="6.84784">
        <ele>1788</ele>
        <time>2010-01-01T13:56:22Z</time>
      </trkpt>
      <trkpt lat="46.17508" lon="6.84695">
        <ele>1861</ele>
        <time>2010-01-01T13:56:47Z</time>
      </trkpt>
      <trkpt lat="46.17505" lon="6.84673">
        <ele>1884</ele>
        <time>2010-01-01T13:56:53Z</time>
      </trkpt>
      <trkpt lat="46.17506" lon="6.84658">
        <ele>1901</ele>
        <time>2010-01-01T13:56:57Z</time>
      </trkpt>
      <trkpt lat="46.17507" lon="6.84623">
        <ele>1910</ele>
        <time>2010-01-01T13:57:07Z</time>
      </trkpt>
      <trkpt lat="46.17509" lon="6.84617">
        <ele>1912</ele>
        <time>2010-01-01T13:57:09Z</time>
      </trkpt>
      <trkpt lat="46.17512" lon="6.84614">
        <ele>1913</ele>
        <time>2010-01-01T13:57:10Z</time>
      </trkpt>
      <trkpt lat="46.17514" lon="6.84612">
        <ele>1913</ele>
        <time>2010-01-01T13:57:11Z</time>
      </trkpt>
      <trkpt lat="46.17514" lon="6.84611">
        <ele>1914</ele>
        <time>2010-01-01T13:57:11Z</time>
      </trkpt>
      <trkpt lat="46.17514" lon="6.84605">
        <ele>1916</ele>
        <time>2010-01-01T13:57:13Z</time>
      </trkpt>
      <trkpt lat="46.17509" lon="6.84598">
        <ele>1919</ele>
        <time>2010-01-01T13:57:16Z</time>
      </trkpt>
      <trkpt lat="46.17502" lon="6.84581">
        <ele>1929</ele>
        <time>2010-01-01T13:57:21Z</time>
      </trkpt>
      <trkpt lat="46.17513" lon="6.84566">
        <ele>1929</ele>
        <time>2010-01-01T13:57:27Z</time>
      </trkpt>
      <trkpt lat="46.17515" lon="6.84533">
        <ele>1928</ele>
        <time>2010-01-01T13:57:36Z</time>
      </trkpt>
      <trkpt lat="46.17518" lon="6.84524">
        <ele>1928</ele>
        <time>2010-01-01T13:57:39Z</time>
      </trkpt>
      <trkpt lat="46.17518" lon="6.84524">
        <ele>1928</ele>
        <time>2010-01-01T13:57:39Z</time>
      </trkpt>
      <trkpt lat="46.17518" lon="6.84523">
        <ele>1927</ele>
        <time>2010-01-01T13:57:39Z</time>
      </trkpt>
      <trkpt lat="46.17522" lon="6.84511">
        <ele>1927</ele>
        <time>2010-01-01T13:57:43Z</time>
      </trkpt>
      <trkpt lat="46.17522" lon="6.84508">
        <ele>1927</ele>
        <time>2010-01-01T13:57:44Z</time>
      </trkpt>
      <trkpt lat="46.17523" lon="6.84507">
        <ele>1927</ele>
        <time>2010-01-01T13:57:44Z</time>
      </trkpt>
      <trkpt lat="46.17528" lon="6.84494">
        <ele>1921</ele>
        <time>2010-01-01T13:57:49Z</time>
      </trkpt>
      <trkpt lat="46.17529" lon="6.84492">
        <ele>1921</ele>
        <time>2010-01-01T13:57:49Z</time>
      </trkpt>
      <trkpt lat="46.17542" lon="6.84469">
        <ele>1919</ele>
        <time>2010-01-01T13:57:57Z</time>
      </trkpt>
      <trkpt lat="46.17542" lon="6.84469">
        <ele>1919</ele>
        <time>2010-01-01T13:57:57Z</time>
      </trkpt>
      <trkpt lat="46.17551" lon="6.84462">
        <ele>1919</ele>
        <time>2010-01-01T13:58:01Z</time>
      </trkpt>
      <trkpt lat="46.17559" lon="6.84451">
        <ele>1918</ele>
        <time>2010-01-01T13:58:06Z</time>
      </trkpt>
      <trkpt lat="46.17565" lon="6.84448">
        <ele>1918</ele>
        <time>2010-01-01T13:58:08Z</time>
      </trkpt>
      <trkpt lat="46.17568" lon="6.84448">
        <ele>1918</ele>
        <time>2010-01-01T13:58:10Z</time>
      </trkpt>
      <trkpt lat="46.17569" lon="6.84448">
        <ele>1918</ele>
        <time>2010-01-01T13:58:10Z</time>
      </trkpt>
      <trkpt lat="46.17572" lon="6.84441">
        <ele>1917</ele>
        <time>2010-01-01T13:58:12Z</time>
      </trkpt>
      <trkpt lat="46.17572" lon="6.84431">
        <ele>1916</ele>
        <time>2010-01-01T13:58:15Z</time>
      </trkpt>
      <trkpt lat="46.17573" lon="6.84428">
        <ele>1916</ele>
        <time>2010-01-01T13:58:16Z</time>
      </trkpt>
      <trkpt lat="46.17574" lon="6.84413">
        <ele>1911</ele>
        <time>2010-01-01T13:58:20Z</time>
      </trkpt>
      <trkpt lat="46.17574" lon="6.84413">
        <ele>1910</ele>
        <time>2010-01-01T13:58:20Z</time>
      </trkpt>
      <trkpt lat="46.17571" lon="6.84407">
        <ele>1909</ele>
        <time>2010-01-01T13:58:22Z</time>
      </trkpt>
      <trkpt lat="46.17571" lon="6.84404">
        <ele>1909</ele>
        <time>2010-01-01T13:58:23Z</time>
      </trkpt>
      <trkpt lat="46.17574" lon="6.8437">
        <ele>1904</ele>
        <time>2010-01-01T13:58:33Z</time>
      </trkpt>
      <trkpt lat="46.17575" lon="6.84347">
        <ele>1903</ele>
        <time>2010-01-01T13:58:39Z</time>
      </trkpt>
      <trkpt lat="46.1758" lon="6.84305">
        <ele>1899</ele>
        <time>2010-01-01T13:58:51Z</time>
      </trkpt>
      <trkpt lat="46.17572" lon="6.84284">
        <ele>1898</ele>
        <time>2010-01-01T13:58:57Z</time>
      </trkpt>
      <trkpt lat="46.1757" lon="6.84264">
        <ele>1899</ele>
        <time>2010-01-01T13:59:03Z</time>
      </trkpt>
      <trkpt lat="46.17565" lon="6.84244">
        <ele>1897</ele>
        <time>2010-01-01T13:59:09Z</time>
      </trkpt>
      <trkpt lat="46.17569" lon="6.84194">
        <ele>1895</ele>
        <time>2010-01-01T13:59:23Z</time>
      </trkpt>
      <trkpt lat="46.17577" lon="6.84162">
        <ele>1897</ele>
        <time>2010-01-01T13:59:32Z</time>
      </trkpt>
      <trkpt lat="46.17583" lon="6.84138">
        <ele>1891</ele>
        <time>2010-01-01T13:59:39Z</time>
      </trkpt>
      <trkpt lat="46.17588" lon="6.84109">
        <ele>1900</ele>
        <time>2010-01-01T13:59:47Z</time>
      </trkpt>
      <trkpt lat="46.17588" lon="6.84088">
        <ele>1897</ele>
        <time>2010-01-01T13:59:53Z</time>
      </trkpt>
      <trkpt lat="46.1761" lon="6.84003">
        <ele>1897</ele>
        <time>2010-01-01T14:00:18Z</time>
      </trkpt>
      <trkpt lat="46.17624" lon="6.83911">
        <ele>1882</ele>
        <time>2010-01-01T14:00:44Z</time>
      </trkpt>
      <trkpt lat="46.17634" lon="6.83854">
        <ele>1879</ele>
        <time>2010-01-01T14:01:01Z</time>
      </trkpt>
      <trkpt lat="46.17645" lon="6.8383">
        <ele>1872</ele>
        <time>2010-01-01T14:01:09Z</time>
      </trkpt>
      <trkpt lat="46.17671" lon="6.83777">
        <ele>1872</ele>
        <time>2010-01-01T14:01:27Z</time>
      </trkpt>
      <trkpt lat="46.17687" lon="6.83758">
        <ele>1870</ele>
        <time>2010-01-01T14:01:35Z</time>
      </trkpt>
      <trkpt lat="46.17702" lon="6.83752">
        <ele>1870</ele>
        <time>2010-01-01T14:01:41Z</time>
      </trkpt>
      <trkpt lat="46.1772" lon="6.8374">
        <ele>1858</ele>
        <time>2010-01-01T14:01:49Z</time>
      </trkpt>
      <trkpt lat="46.17739" lon="6.8374">
        <ele>1860</ele>
        <time>2010-01-01T14:01:57Z</time>
      </trkpt>
      <trkpt lat="46.17754" lon="6.83725">
        <ele>1856</ele>
        <time>2010-01-01T14:02:04Z</time>
      </trkpt>
      <trkpt lat="46.17765" lon="6.8371">
        <ele>1853</ele>
        <time>2010-01-01T14:02:10Z</time>
      </trkpt>
      <trkpt lat="46.17768" lon="6.83688">
        <ele>1851</ele>
        <time>2010-01-01T14:02:16Z</time>
      </trkpt>
      <trkpt lat="46.17768" lon="6.83686">
        <ele>1851</ele>
        <time>2010-01-01T14:02:17Z</time>
      </trkpt>
      <trkpt lat="46.17768" lon="6.83672">
        <ele>1850</ele>
        <time>2010-01-01T14:02:21Z</time>
      </trkpt>
      <trkpt lat="46.17754" lon="6.83653">
        <ele>1845</ele>
        <time>2010-01-01T14:02:29Z</time>
      </trkpt>
      <trkpt lat="46.17744" lon="6.83632">
        <ele>1842</ele>
        <time>2010-01-01T14:02:36Z</time>
      </trkpt>
      <trkpt lat="46.1774" lon="6.83609">
        <ele>1840</ele>
        <time>2010-01-01T14:02:42Z</time>
      </trkpt>
      <trkpt lat="46.1775" lon="6.83569">
        <ele>1833</ele>
        <time>2010-01-01T14:02:54Z</time>
      </trkpt>
      <trkpt lat="46.17759" lon="6.83538">
        <ele>1829</ele>
        <time>2010-01-01T14:03:03Z</time>
      </trkpt>
      <trkpt lat="46.17769" lon="6.83504">
        <ele>1828</ele>
        <time>2010-01-01T14:03:14Z</time>
      </trkpt>
      <trkpt lat="46.17772" lon="6.83484">
        <ele>1823</ele>
        <time>2010-01-01T14:03:19Z</time>
      </trkpt>
      <trkpt lat="46.17775" lon="6.83464">
        <ele>1821</ele>
        <time>2010-01-01T14:03:25Z</time>
      </trkpt>
      <trkpt lat="46.17778" lon="6.83437">
        <ele>1820</ele>
        <time>2010-01-01T14:03:32Z</time>
      </trkpt>
      <trkpt lat="46.17778" lon="6.83435">
        <ele>1820</ele>
        <time>2010-01-01T14:03:33Z</time>
      </trkpt>
      <trkpt lat="46.17772" lon="6.83412">
        <ele>1816</ele>
        <time>2010-01-01T14:03:40Z</time>
      </trkpt>
      <trkpt lat="46.17767" lon="6.83396">
        <ele>1816</ele>
        <time>2010-01-01T14:03:45Z</time>
      </trkpt>
      <trkpt lat="46.17757" lon="6.83371">
        <ele>1813</ele>
        <time>2010-01-01T14:03:53Z</time>
      </trkpt>
      <trkpt lat="46.17749" lon="6.83356">
        <ele>1809</ele>
        <time>2010-01-01T14:03:58Z</time>
      </trkpt>
      <trkpt lat="46.17755" lon="6.83347">
        <ele>1811</ele>
        <time>2010-01-01T14:04:01Z</time>
      </trkpt>
      <trkpt lat="46.17761" lon="6.83336">
        <ele>1811</ele>
        <time>2010-01-01T14:04:05Z</time>
      </trkpt>
      <trkpt lat="46.17769" lon="6.83316">
        <ele>1808</ele>
        <time>2010-01-01T14:04:11Z</time>
      </trkpt>
      <trkpt lat="46.17785" lon="6.83269">
        <ele>1807</ele>
        <time>2010-01-01T14:04:26Z</time>
      </trkpt>
      <trkpt lat="46.17805" lon="6.83222">
        <ele>1806</ele>
        <time>2010-01-01T14:04:41Z</time>
      </trkpt>
      <trkpt lat="46.17805" lon="6.83205">
        <ele>1806</ele>
        <time>2010-01-01T14:04:46Z</time>
      </trkpt>
      <trkpt lat="46.17821" lon="6.83135">
        <ele>1805</ele>
        <time>2010-01-01T14:05:06Z</time>
      </trkpt>
      <trkpt lat="46.17842" lon="6.83057">
        <ele>1805</ele>
        <time>2010-01-01T14:05:30Z</time>
      </trkpt>
      <trkpt lat="46.17846" lon="6.83046">
        <ele>1805</ele>
        <time>2010-01-01T14:05:33Z</time>
      </trkpt>
      <trkpt lat="46.17851" lon="6.83049">
        <ele>1804</ele>
        <time>2010-01-01T14:05:35Z</time>
      </trkpt>
      <trkpt lat="46.1786" lon="6.83049">
        <ele>1804</ele>
        <time>2010-01-01T14:05:39Z</time>
      </trkpt>
      <trkpt lat="46.1787" lon="6.83039">
        <ele>1803</ele>
        <time>2010-01-01T14:05:44Z</time>
      </trkpt>
      <trkpt lat="46.17883" lon="6.83015">
        <ele>1802</ele>
        <time>2010-01-01T14:05:52Z</time>
      </trkpt>
      <trkpt lat="46.17891" lon="6.82982">
        <ele>1804</ele>
        <time>2010-01-01T14:06:02Z</time>
      </trkpt>
      <trkpt lat="46.17896" lon="6.82958">
        <ele>1805</ele>
        <time>2010-01-01T14:06:09Z</time>
      </trkpt>
      <trkpt lat="46.17901" lon="6.8295">
        <ele>1805</ele>
        <time>2010-01-01T14:06:12Z</time>
      </trkpt>
      <trkpt lat="46.17907" lon="6.82949">
        <ele>1805</ele>
        <time>2010-01-01T14:06:14Z</time>
      </trkpt>
      <trkpt lat="46.17911" lon="6.82957">
        <ele>1805</ele>
        <time>2010-01-01T14:06:17Z</time>
      </trkpt>
      <trkpt lat="46.17915" lon="6.82976">
        <ele>1803</ele>
        <time>2010-01-01T14:06:22Z</time>
      </trkpt>
      <trkpt lat="46.17918" lon="6.82989">
        <ele>1793</ele>
        <time>2010-01-01T14:06:26Z</time>
      </trkpt>
      <trkpt lat="46.17925" lon="6.83">
        <ele>1794</ele>
        <time>2010-01-01T14:06:30Z</time>
      </trkpt>
      <trkpt lat="46.17928" lon="6.83025">
        <ele>1788</ele>
        <time>2010-01-01T14:06:37Z</time>
      </trkpt>
      <trkpt lat="46.17928" lon="6.83049">
        <ele>1787</ele>
        <time>2010-01-01T14:06:44Z</time>
      </trkpt>
      <trkpt lat="46.17928" lon="6.83068">
        <ele>1788</ele>
        <time>2010-01-01T14:06:49Z</time>
      </trkpt>
      <trkpt lat="46.17929" lon="6.83082">
        <ele>1790</ele>
        <time>2010-01-01T14:06:53Z</time>
      </trkpt>
      <trkpt lat="46.1793" lon="6.83094">
        <ele>1790</ele>
        <time>2010-01-01T14:06:57Z</time>
      </trkpt>
      <trkpt lat="46.17935" lon="6.83104">
        <ele>1788</ele>
        <time>2010-01-01T14:07:00Z</time>
      </trkpt>
      <trkpt lat="46.17939" lon="6.83104">
        <ele>1788</ele>
        <time>2010-01-01T14:07:01Z</time>
      </trkpt>
      <trkpt lat="46.1794" lon="6.83101">
        <ele>1788</ele>
        <time>2010-01-01T14:07:02Z</time>
      </trkpt>
      <trkpt lat="46.17942" lon="6.83086">
        <ele>1788</ele>
        <time>2010-01-01T14:07:06Z</time>
      </trkpt>
      <trkpt lat="46.17942" lon="6.83085">
        <ele>1788</ele>
        <time>2010-01-01T14:07:07Z</time>
      </trkpt>
      <trkpt lat="46.17942" lon="6.83084">
        <ele>1788</ele>
        <time>2010-01-01T14:07:07Z</time>
      </trkpt>
      <trkpt lat="46.17952" lon="6.83042">
        <ele>1784</ele>
        <time>2010-01-01T14:07:19Z</time>
      </trkpt>
      <trkpt lat="46.17952" lon="6.83041">
        <ele>1783</ele>
        <time>2010-01-01T14:07:20Z</time>
      </trkpt>
      <trkpt lat="46.17953" lon="6.83039">
        <ele>1783</ele>
        <time>2010-01-01T14:07:20Z</time>
      </trkpt>
      <trkpt lat="46.17962" lon="6.83006">
        <ele>1781</ele>
        <time>2010-01-01T14:07:30Z</time>
      </trkpt>
      <trkpt lat="46.17963" lon="6.83003">
        <ele>1781</ele>
        <time>2010-01-01T14:07:31Z</time>
      </trkpt>
      <trkpt lat="46.17967" lon="6.82971">
        <ele>1784</ele>
        <time>2010-01-01T14:07:40Z</time>
      </trkpt>
      <trkpt lat="46.17967" lon="6.8297">
        <ele>1784</ele>
        <time>2010-01-01T14:07:40Z</time>
      </trkpt>
      <trkpt lat="46.1797" lon="6.82948">
        <ele>1785</ele>
        <time>2010-01-01T14:07:46Z</time>
      </trkpt>
      <trkpt lat="46.17972" lon="6.82946">
        <ele>1785</ele>
        <time>2010-01-01T14:07:47Z</time>
      </trkpt>
      <trkpt lat="46.17988" lon="6.82931">
        <ele>1783</ele>
        <time>2010-01-01T14:07:55Z</time>
      </trkpt>
      <trkpt lat="46.17989" lon="6.8293">
        <ele>1783</ele>
        <time>2010-01-01T14:07:56Z</time>
      </trkpt>
      <trkpt lat="46.18017" lon="6.82929">
        <ele>1771</ele>
        <time>2010-01-01T14:08:07Z</time>
      </trkpt>
      <trkpt lat="46.18047" lon="6.82923">
        <ele>1767</ele>
        <time>2010-01-01T14:08:19Z</time>
      </trkpt>
      <trkpt lat="46.18065" lon="6.82906">
        <ele>1773</ele>
        <time>2010-01-01T14:08:28Z</time>
      </trkpt>
      <trkpt lat="46.18085" lon="6.82896">
        <ele>1764</ele>
        <time>2010-01-01T14:08:36Z</time>
      </trkpt>
      <trkpt lat="46.18101" lon="6.82898">
        <ele>1763</ele>
        <time>2010-01-01T14:08:43Z</time>
      </trkpt>
      <trkpt lat="46.1812" lon="6.82887">
        <ele>1763</ele>
        <time>2010-01-01T14:08:51Z</time>
      </trkpt>
      <trkpt lat="46.18133" lon="6.82881">
        <ele>1762</ele>
        <time>2010-01-01T14:08:56Z</time>
      </trkpt>
      <trkpt lat="46.18142" lon="6.82884">
        <ele>1761</ele>
        <time>2010-01-01T14:09:00Z</time>
      </trkpt>
      <trkpt lat="46.18143" lon="6.82904">
        <ele>1758</ele>
        <time>2010-01-01T14:09:05Z</time>
      </trkpt>
      <trkpt lat="46.18124" lon="6.82935">
        <ele>1750</ele>
        <time>2010-01-01T14:09:17Z</time>
      </trkpt>
      <trkpt lat="46.18115" lon="6.82951">
        <ele>1750</ele>
        <time>2010-01-01T14:09:23Z</time>
      </trkpt>
      <trkpt lat="46.18087" lon="6.82999">
        <ele>1749</ele>
        <time>2010-01-01T14:09:40Z</time>
      </trkpt>
      <trkpt lat="46.18077" lon="6.83031">
        <ele>1753</ele>
        <time>2010-01-01T14:09:50Z</time>
      </trkpt>
      <trkpt lat="46.18076" lon="6.83049">
        <ele>1752</ele>
        <time>2010-01-01T14:09:55Z</time>
      </trkpt>
      <trkpt lat="46.18085" lon="6.83064">
        <ele>1738</ele>
        <time>2010-01-01T14:10:00Z</time>
      </trkpt>
      <trkpt lat="46.18093" lon="6.83087">
        <ele>1737</ele>
        <time>2010-01-01T14:10:07Z</time>
      </trkpt>
      <trkpt lat="46.18098" lon="6.83103">
        <ele>1735</ele>
        <time>2010-01-01T14:10:13Z</time>
      </trkpt>
      <trkpt lat="46.18107" lon="6.83124">
        <ele>1733</ele>
        <time>2010-01-01T14:10:19Z</time>
      </trkpt>
      <trkpt lat="46.1812" lon="6.83139">
        <ele>1732</ele>
        <time>2010-01-01T14:10:26Z</time>
      </trkpt>
      <trkpt lat="46.18138" lon="6.83155">
        <ele>1728</ele>
        <time>2010-01-01T14:10:34Z</time>
      </trkpt>
      <trkpt lat="46.18147" lon="6.83171">
        <ele>1727</ele>
        <time>2010-01-01T14:10:40Z</time>
      </trkpt>
      <trkpt lat="46.18153" lon="6.83176">
        <ele>1726</ele>
        <time>2010-01-01T14:10:43Z</time>
      </trkpt>
      <trkpt lat="46.18161" lon="6.83188">
        <ele>1727</ele>
        <time>2010-01-01T14:10:47Z</time>
      </trkpt>
      <trkpt lat="46.18167" lon="6.83194">
        <ele>1716</ele>
        <time>2010-01-01T14:10:50Z</time>
      </trkpt>
      <trkpt lat="46.18176" lon="6.83195">
        <ele>1715</ele>
        <time>2010-01-01T14:10:54Z</time>
      </trkpt>
      <trkpt lat="46.18177" lon="6.83195">
        <ele>1715</ele>
        <time>2010-01-01T14:10:55Z</time>
      </trkpt>
      <trkpt lat="46.18186" lon="6.83196">
        <ele>1714</ele>
        <time>2010-01-01T14:10:58Z</time>
      </trkpt>
      <trkpt lat="46.18193" lon="6.83203">
        <ele>1714</ele>
        <time>2010-01-01T14:11:01Z</time>
      </trkpt>
      <trkpt lat="46.182" lon="6.83213">
        <ele>1713</ele>
        <time>2010-01-01T14:11:05Z</time>
      </trkpt>
      <trkpt lat="46.18208" lon="6.8322">
        <ele>1713</ele>
        <time>2010-01-01T14:11:09Z</time>
      </trkpt>
      <trkpt lat="46.18214" lon="6.83212">
        <ele>1712</ele>
        <time>2010-01-01T14:11:12Z</time>
      </trkpt>
      <trkpt lat="46.18214" lon="6.83202">
        <ele>1711</ele>
        <time>2010-01-01T14:11:15Z</time>
      </trkpt>
      <trkpt lat="46.18208" lon="6.83177">
        <ele>1712</ele>
        <time>2010-01-01T14:11:22Z</time>
      </trkpt>
      <trkpt lat="46.18205" lon="6.83169">
        <ele>1712</ele>
        <time>2010-01-01T14:11:25Z</time>
      </trkpt>
      <trkpt lat="46.18205" lon="6.83168">
        <ele>1712</ele>
        <time>2010-01-01T14:11:26Z</time>
      </trkpt>
      <trkpt lat="46.18206" lon="6.83157">
        <ele>1712</ele>
        <time>2010-01-01T14:11:28Z</time>
      </trkpt>
      <trkpt lat="46.18208" lon="6.83155">
        <ele>1711</ele>
        <time>2010-01-01T14:11:29Z</time>
      </trkpt>
      <trkpt lat="46.18242" lon="6.83131">
        <ele>1709</ele>
        <time>2010-01-01T14:11:45Z</time>
      </trkpt>
      <trkpt lat="46.18267" lon="6.83124">
        <ele>1705</ele>
        <time>2010-01-01T14:11:55Z</time>
      </trkpt>
      <trkpt lat="46.18261" lon="6.83161">
        <ele>1703</ele>
        <time>2010-01-01T14:12:05Z</time>
      </trkpt>
      <trkpt lat="46.18263" lon="6.83177">
        <ele>1700</ele>
        <time>2010-01-01T14:12:09Z</time>
      </trkpt>
      <trkpt lat="46.18267" lon="6.83196">
        <ele>1699</ele>
        <time>2010-01-01T14:12:15Z</time>
      </trkpt>
      <trkpt lat="46.18276" lon="6.83213">
        <ele>1699</ele>
        <time>2010-01-01T14:12:21Z</time>
      </trkpt>
      <trkpt lat="46.18283" lon="6.83225">
        <ele>1698</ele>
        <time>2010-01-01T14:12:25Z</time>
      </trkpt>
      <trkpt lat="46.18287" lon="6.8324">
        <ele>1698</ele>
        <time>2010-01-01T14:12:30Z</time>
      </trkpt>
      <trkpt lat="46.18294" lon="6.83258">
        <ele>1695</ele>
        <time>2010-01-01T14:12:36Z</time>
      </trkpt>
      <trkpt lat="46.18307" lon="6.83277">
        <ele>1693</ele>
        <time>2010-01-01T14:12:43Z</time>
      </trkpt>
      <trkpt lat="46.18312" lon="6.83292">
        <ele>1693</ele>
        <time>2010-01-01T14:12:47Z</time>
      </trkpt>
      <trkpt lat="46.18322" lon="6.83307">
        <ele>1691</ele>
        <time>2010-01-01T14:12:53Z</time>
      </trkpt>
      <trkpt lat="46.18334" lon="6.83324">
        <ele>1686</ele>
        <time>2010-01-01T14:13:00Z</time>
      </trkpt>
      <trkpt lat="46.18341" lon="6.83331">
        <ele>1686</ele>
        <time>2010-01-01T14:13:03Z</time>
      </trkpt>
      <trkpt lat="46.1834" lon="6.83348">
        <ele>1685</ele>
        <time>2010-01-01T14:13:08Z</time>
      </trkpt>
      <trkpt lat="46.18339" lon="6.83373">
        <ele>1684</ele>
        <time>2010-01-01T14:13:15Z</time>
      </trkpt>
      <trkpt lat="46.1834" lon="6.83392">
        <ele>1684</ele>
        <time>2010-01-01T14:13:20Z</time>
      </trkpt>
      <trkpt lat="46.18348" lon="6.83403">
        <ele>1684</ele>
        <time>2010-01-01T14:13:25Z</time>
      </trkpt>
      <trkpt lat="46.18357" lon="6.83417">
        <ele>1683</ele>
        <time>2010-01-01T14:13:30Z</time>
      </trkpt>
      <trkpt lat="46.18363" lon="6.83422">
        <ele>1683</ele>
        <time>2010-01-01T14:13:33Z</time>
      </trkpt>
      <trkpt lat="46.18369" lon="6.83426">
        <ele>1683</ele>
        <time>2010-01-01T14:13:35Z</time>
      </trkpt>
      <trkpt lat="46.18377" lon="6.83421">
        <ele>1683</ele>
        <time>2010-01-01T14:13:39Z</time>
      </trkpt>
      <trkpt lat="46.18383" lon="6.83418">
        <ele>1683</ele>
        <time>2010-01-01T14:13:41Z</time>
      </trkpt>
      <trkpt lat="46.18505" lon="6.83132">
        <ele>1727</ele>
        <time>2010-01-01T14:15:15Z</time>
      </trkpt>
      <trkpt lat="46.18619" lon="6.8287">
        <ele>1781</ele>
        <time>2010-01-01T14:16:40Z</time>
      </trkpt>
      <trkpt lat="46.18721" lon="6.82639">
        <ele>1844</ele>
        <time>2010-01-01T14:17:56Z</time>
      </trkpt>
      <trkpt lat="46.18819" lon="6.82427">
        <ele>1928</ele>
        <time>2010-01-01T14:19:07Z</time>
      </trkpt>
      <trkpt lat="46.19054" lon="6.81894">
        <ele>2128</ele>
        <time>2010-01-01T14:22:02Z</time>
      </trkpt>
      <trkpt lat="46.19195" lon="6.81587">
        <ele>2230</ele>
        <time>2010-01-01T14:23:44Z</time>
      </trkpt>
      <trkpt lat="46.19195" lon="6.81529">
        <ele>2237</ele>
        <time>2010-01-01T14:24:00Z</time>
      </trkpt>
      <trkpt lat="46.19157" lon="6.81476">
        <ele>2235</ele>
        <time>2010-01-01T14:24:21Z</time>
      </trkpt>
      <trkpt lat="46.19127" lon="6.81471">
        <ele>2230</ele>
        <time>2010-01-01T14:24:33Z</time>
      </trkpt>
      <trkpt lat="46.19093" lon="6.81477">
        <ele>2228</ele>
        <time>2010-01-01T14:24:47Z</time>
      </trkpt>
      <trkpt lat="46.19086" lon="6.81479">
        <ele>2229</ele>
        <time>2010-01-01T14:24:50Z</time>
      </trkpt>
      <trkpt lat="46.19067" lon="6.81498">
        <ele>2213</ele>
        <time>2010-01-01T14:24:59Z</time>
      </trkpt>
      <trkpt lat="46.19048" lon="6.81528">
        <ele>2217</ele>
        <time>2010-01-01T14:25:11Z</time>
      </trkpt>
      <trkpt lat="46.19037" lon="6.81554">
        <ele>2217</ele>
        <time>2010-01-01T14:25:19Z</time>
      </trkpt>
      <trkpt lat="46.19032" lon="6.81566">
        <ele>2216</ele>
        <time>2010-01-01T14:25:23Z</time>
      </trkpt>
      <trkpt lat="46.19029" lon="6.81572">
        <ele>2216</ele>
        <time>2010-01-01T14:25:25Z</time>
      </trkpt>
      <trkpt lat="46.18994" lon="6.8162">
        <ele>2199</ele>
        <time>2010-01-01T14:25:44Z</time>
      </trkpt>
      <trkpt lat="46.18994" lon="6.81621">
        <ele>2199</ele>
        <time>2010-01-01T14:25:44Z</time>
      </trkpt>
      <trkpt lat="46.18964" lon="6.81655">
        <ele>2196</ele>
        <time>2010-01-01T14:26:00Z</time>
      </trkpt>
      <trkpt lat="46.18932" lon="6.81678">
        <ele>2188</ele>
        <time>2010-01-01T14:26:14Z</time>
      </trkpt>
      <trkpt lat="46.18903" lon="6.81694">
        <ele>2174</ele>
        <time>2010-01-01T14:26:27Z</time>
      </trkpt>
      <trkpt lat="46.18887" lon="6.81698">
        <ele>2172</ele>
        <time>2010-01-01T14:26:33Z</time>
      </trkpt>
      <trkpt lat="46.18875" lon="6.81699">
        <ele>2171</ele>
        <time>2010-01-01T14:26:38Z</time>
      </trkpt>
      <trkpt lat="46.18875" lon="6.81699">
        <ele>2171</ele>
        <time>2010-01-01T14:26:38Z</time>
      </trkpt>
      <trkpt lat="46.18866" lon="6.81698">
        <ele>2170</ele>
        <time>2010-01-01T14:26:42Z</time>
      </trkpt>
      <trkpt lat="46.18856" lon="6.81701">
        <ele>2169</ele>
        <time>2010-01-01T14:26:46Z</time>
      </trkpt>
      <trkpt lat="46.18852" lon="6.8171">
        <ele>2169</ele>
        <time>2010-01-01T14:26:48Z</time>
      </trkpt>
      <trkpt lat="46.18853" lon="6.81715">
        <ele>2169</ele>
        <time>2010-01-01T14:26:50Z</time>
      </trkpt>
      <trkpt lat="46.18857" lon="6.81717">
        <ele>2169</ele>
        <time>2010-01-01T14:26:51Z</time>
      </trkpt>
      <trkpt lat="46.18866" lon="6.81716">
        <ele>2170</ele>
        <time>2010-01-01T14:26:55Z</time>
      </trkpt>
      <trkpt lat="46.18872" lon="6.81715">
        <ele>2170</ele>
        <time>2010-01-01T14:26:57Z</time>
      </trkpt>
      <trkpt lat="46.18882" lon="6.81712">
        <ele>2171</ele>
        <time>2010-01-01T14:27:01Z</time>
      </trkpt>
      <trkpt lat="46.18893" lon="6.81716">
        <ele>2171</ele>
        <time>2010-01-01T14:27:06Z</time>
      </trkpt>
      <trkpt lat="46.18903" lon="6.81721">
        <ele>2171</ele>
        <time>2010-01-01T14:27:10Z</time>
      </trkpt>
      <trkpt lat="46.18909" lon="6.81729">
        <ele>2170</ele>
        <time>2010-01-01T14:27:14Z</time>
      </trkpt>
      <trkpt lat="46.18914" lon="6.81735">
        <ele>2170</ele>
        <time>2010-01-01T14:27:16Z</time>
      </trkpt>
      <trkpt lat="46.18925" lon="6.81733">
        <ele>2179</ele>
        <time>2010-01-01T14:27:21Z</time>
      </trkpt>
      <trkpt lat="46.18935" lon="6.81733">
        <ele>2181</ele>
        <time>2010-01-01T14:27:25Z</time>
      </trkpt>
      <trkpt lat="46.18939" lon="6.81737">
        <ele>2181</ele>
        <time>2010-01-01T14:27:27Z</time>
      </trkpt>
      <trkpt lat="46.18945" lon="6.81746">
        <ele>2182</ele>
        <time>2010-01-01T14:27:30Z</time>
      </trkpt>
      <trkpt lat="46.18949" lon="6.81755">
        <ele>2161</ele>
        <time>2010-01-01T14:27:33Z</time>
      </trkpt>
      <trkpt lat="46.18953" lon="6.81765">
        <ele>2160</ele>
        <time>2010-01-01T14:27:36Z</time>
      </trkpt>
      <trkpt lat="46.1896" lon="6.8177">
        <ele>2160</ele>
        <time>2010-01-01T14:27:40Z</time>
      </trkpt>
      <trkpt lat="46.18968" lon="6.81767">
        <ele>2162</ele>
        <time>2010-01-01T14:27:43Z</time>
      </trkpt>
      <trkpt lat="46.18979" lon="6.81762">
        <ele>2167</ele>
        <time>2010-01-01T14:27:47Z</time>
      </trkpt>
      <trkpt lat="46.18989" lon="6.81764">
        <ele>2171</ele>
        <time>2010-01-01T14:27:51Z</time>
      </trkpt>
      <trkpt lat="46.18997" lon="6.81768">
        <ele>2170</ele>
        <time>2010-01-01T14:27:55Z</time>
      </trkpt>
      <trkpt lat="46.19002" lon="6.81775">
        <ele>2175</ele>
        <time>2010-01-01T14:27:58Z</time>
      </trkpt>
      <trkpt lat="46.19007" lon="6.8178">
        <ele>2173</ele>
        <time>2010-01-01T14:28:00Z</time>
      </trkpt>
      <trkpt lat="46.19011" lon="6.81792">
        <ele>2169</ele>
        <time>2010-01-01T14:28:04Z</time>
      </trkpt>
      <trkpt lat="46.19014" lon="6.81804">
        <ele>2165</ele>
        <time>2010-01-01T14:28:07Z</time>
      </trkpt>
      <trkpt lat="46.19018" lon="6.81813">
        <ele>2163</ele>
        <time>2010-01-01T14:28:10Z</time>
      </trkpt>
      <trkpt lat="46.19029" lon="6.81817">
        <ele>2163</ele>
        <time>2010-01-01T14:28:15Z</time>
      </trkpt>
      <trkpt lat="46.19037" lon="6.81807">
        <ele>2167</ele>
        <time>2010-01-01T14:28:19Z</time>
      </trkpt>
      <trkpt lat="46.19046" lon="6.81804">
        <ele>2168</ele>
        <time>2010-01-01T14:28:23Z</time>
      </trkpt>
      <trkpt lat="46.19056" lon="6.81812">
        <ele>2166</ele>
        <time>2010-01-01T14:28:27Z</time>
      </trkpt>
      <trkpt lat="46.19068" lon="6.81825">
        <ele>2163</ele>
        <time>2010-01-01T14:28:33Z</time>
      </trkpt>
      <trkpt lat="46.19073" lon="6.81835">
        <ele>2148</ele>
        <time>2010-01-01T14:28:36Z</time>
      </trkpt>
      <trkpt lat="46.19075" lon="6.81846">
        <ele>2145</ele>
        <time>2010-01-01T14:28:40Z</time>
      </trkpt>
      <trkpt lat="46.19079" lon="6.81857">
        <ele>2141</ele>
        <time>2010-01-01T14:28:43Z</time>
      </trkpt>
      <trkpt lat="46.19084" lon="6.81868">
        <ele>2139</ele>
        <time>2010-01-01T14:28:47Z</time>
      </trkpt>
      <trkpt lat="46.19092" lon="6.81881">
        <ele>2136</ele>
        <time>2010-01-01T14:28:52Z</time>
      </trkpt>
      <trkpt lat="46.19102" lon="6.81897">
        <ele>2132</ele>
        <time>2010-01-01T14:28:57Z</time>
      </trkpt>
      <trkpt lat="46.19113" lon="6.81909">
        <ele>2131</ele>
        <time>2010-01-01T14:29:03Z</time>
      </trkpt>
      <trkpt lat="46.19124" lon="6.8192">
        <ele>2117</ele>
        <time>2010-01-01T14:29:08Z</time>
      </trkpt>
      <trkpt lat="46.19135" lon="6.8193">
        <ele>2117</ele>
        <time>2010-01-01T14:29:14Z</time>
      </trkpt>
      <trkpt lat="46.19146" lon="6.81935">
        <ele>2117</ele>
        <time>2010-01-01T14:29:18Z</time>
      </trkpt>
      <trkpt lat="46.19151" lon="6.8194">
        <ele>2117</ele>
        <time>2010-01-01T14:29:21Z</time>
      </trkpt>
      <trkpt lat="46.19158" lon="6.81946">
        <ele>2117</ele>
        <time>2010-01-01T14:29:24Z</time>
      </trkpt>
      <trkpt lat="46.19164" lon="6.81966">
        <ele>2116</ele>
        <time>2010-01-01T14:29:30Z</time>
      </trkpt>
      <trkpt lat="46.19164" lon="6.8198">
        <ele>2115</ele>
        <time>2010-01-01T14:29:34Z</time>
      </trkpt>
      <trkpt lat="46.19163" lon="6.81988">
        <ele>2116</ele>
        <time>2010-01-01T14:29:36Z</time>
      </trkpt>
      <trkpt lat="46.19169" lon="6.81988">
        <ele>2110</ele>
        <time>2010-01-01T14:29:38Z</time>
      </trkpt>
      <trkpt lat="46.19179" lon="6.81977">
        <ele>2104</ele>
        <time>2010-01-01T14:29:43Z</time>
      </trkpt>
      <trkpt lat="46.19184" lon="6.81967">
        <ele>2102</ele>
        <time>2010-01-01T14:29:47Z</time>
      </trkpt>
      <trkpt lat="46.19192" lon="6.81955">
        <ele>2101</ele>
        <time>2010-01-01T14:29:51Z</time>
      </trkpt>
      <trkpt lat="46.19197" lon="6.81953">
        <ele>2099</ele>
        <time>2010-01-01T14:29:53Z</time>
      </trkpt>
      <trkpt lat="46.19194" lon="6.81969">
        <ele>2100</ele>
        <time>2010-01-01T14:29:58Z</time>
      </trkpt>
      <trkpt lat="46.19189" lon="6.81982">
        <ele>2102</ele>
        <time>2010-01-01T14:30:02Z</time>
      </trkpt>
      <trkpt lat="46.19181" lon="6.82009">
        <ele>2102</ele>
        <time>2010-01-01T14:30:10Z</time>
      </trkpt>
      <trkpt lat="46.19176" lon="6.82018">
        <ele>2100</ele>
        <time>2010-01-01T14:30:13Z</time>
      </trkpt>
      <trkpt lat="46.19172" lon="6.82024">
        <ele>2099</ele>
        <time>2010-01-01T14:30:15Z</time>
      </trkpt>
      <trkpt lat="46.19172" lon="6.82033">
        <ele>2096</ele>
        <time>2010-01-01T14:30:18Z</time>
      </trkpt>
      <trkpt lat="46.19178" lon="6.8207">
        <ele>2091</ele>
        <time>2010-01-01T14:30:28Z</time>
      </trkpt>
      <trkpt lat="46.1918" lon="6.82073">
        <ele>2091</ele>
        <time>2010-01-01T14:30:30Z</time>
      </trkpt>
      <trkpt lat="46.19181" lon="6.82074">
        <ele>2091</ele>
        <time>2010-01-01T14:30:30Z</time>
      </trkpt>
      <trkpt lat="46.19186" lon="6.82083">
        <ele>2090</ele>
        <time>2010-01-01T14:30:33Z</time>
      </trkpt>
      <trkpt lat="46.19187" lon="6.82092">
        <ele>2088</ele>
        <time>2010-01-01T14:30:36Z</time>
      </trkpt>
      <trkpt lat="46.19189" lon="6.82105">
        <ele>2086</ele>
        <time>2010-01-01T14:30:39Z</time>
      </trkpt>
      <trkpt lat="46.1919" lon="6.82115">
        <ele>2086</ele>
        <time>2010-01-01T14:30:42Z</time>
      </trkpt>
      <trkpt lat="46.19196" lon="6.82117">
        <ele>2085</ele>
        <time>2010-01-01T14:30:45Z</time>
      </trkpt>
      <trkpt lat="46.19201" lon="6.82118">
        <ele>2085</ele>
        <time>2010-01-01T14:30:47Z</time>
      </trkpt>
      <trkpt lat="46.19213" lon="6.82122">
        <ele>2084</ele>
        <time>2010-01-01T14:30:52Z</time>
      </trkpt>
      <trkpt lat="46.19219" lon="6.82126">
        <ele>2084</ele>
        <time>2010-01-01T14:30:55Z</time>
      </trkpt>
      <trkpt lat="46.19225" lon="6.82124">
        <ele>2084</ele>
        <time>2010-01-01T14:30:57Z</time>
      </trkpt>
      <trkpt lat="46.19228" lon="6.8212">
        <ele>2083</ele>
        <time>2010-01-01T14:30:59Z</time>
      </trkpt>
      <trkpt lat="46.19227" lon="6.8211">
        <ele>2082</ele>
        <time>2010-01-01T14:31:01Z</time>
      </trkpt>
      <trkpt lat="46.19225" lon="6.82091">
        <ele>2080</ele>
        <time>2010-01-01T14:31:07Z</time>
      </trkpt>
      <trkpt lat="46.19225" lon="6.82077">
        <ele>2080</ele>
        <time>2010-01-01T14:31:11Z</time>
      </trkpt>
      <trkpt lat="46.19225" lon="6.82076">
        <ele>2080</ele>
        <time>2010-01-01T14:31:11Z</time>
      </trkpt>
      <trkpt lat="46.19225" lon="6.82065">
        <ele>2081</ele>
        <time>2010-01-01T14:31:14Z</time>
      </trkpt>
      <trkpt lat="46.19227" lon="6.82057">
        <ele>2081</ele>
        <time>2010-01-01T14:31:16Z</time>
      </trkpt>
      <trkpt lat="46.19231" lon="6.82059">
        <ele>2080</ele>
        <time>2010-01-01T14:31:18Z</time>
      </trkpt>
      <trkpt lat="46.19236" lon="6.82068">
        <ele>2078</ele>
        <time>2010-01-01T14:31:21Z</time>
      </trkpt>
      <trkpt lat="46.19238" lon="6.82074">
        <ele>2076</ele>
        <time>2010-01-01T14:31:23Z</time>
      </trkpt>
      <trkpt lat="46.19239" lon="6.82074">
        <ele>2076</ele>
        <time>2010-01-01T14:31:23Z</time>
      </trkpt>
      <trkpt lat="46.1924" lon="6.82075">
        <ele>2075</ele>
        <time>2010-01-01T14:31:24Z</time>
      </trkpt>
      <trkpt lat="46.1924" lon="6.82076">
        <ele>2075</ele>
        <time>2010-01-01T14:31:24Z</time>
      </trkpt>
      <trkpt lat="46.19241" lon="6.82077">
        <ele>2074</ele>
        <time>2010-01-01T14:31:24Z</time>
      </trkpt>
      <trkpt lat="46.19242" lon="6.82078">
        <ele>2073</ele>
        <time>2010-01-01T14:31:25Z</time>
      </trkpt>
      <trkpt lat="46.19242" lon="6.82079">
        <ele>2073</ele>
        <time>2010-01-01T14:31:25Z</time>
      </trkpt>
      <trkpt lat="46.19243" lon="6.8208">
        <ele>2073</ele>
        <time>2010-01-01T14:31:26Z</time>
      </trkpt>
      <trkpt lat="46.19244" lon="6.82082">
        <ele>2072</ele>
        <time>2010-01-01T14:31:26Z</time>
      </trkpt>
      <trkpt lat="46.19245" lon="6.82083">
        <ele>2071</ele>
        <time>2010-01-01T14:31:27Z</time>
      </trkpt>
      <trkpt lat="46.19245" lon="6.82084">
        <ele>2071</ele>
        <time>2010-01-01T14:31:27Z</time>
      </trkpt>
      <trkpt lat="46.19246" lon="6.82085">
        <ele>2071</ele>
        <time>2010-01-01T14:31:27Z</time>
      </trkpt>
      <trkpt lat="46.19247" lon="6.82085">
        <ele>2070</ele>
        <time>2010-01-01T14:31:28Z</time>
      </trkpt>
      <trkpt lat="46.19247" lon="6.82085">
        <ele>2070</ele>
        <time>2010-01-01T14:31:28Z</time>
      </trkpt>
      <trkpt lat="46.1926" lon="6.821">
        <ele>2073</ele>
        <time>2010-01-01T14:31:35Z</time>
      </trkpt>
      <trkpt lat="46.19278" lon="6.82108">
        <ele>2075</ele>
        <time>2010-01-01T14:31:42Z</time>
      </trkpt>
      <trkpt lat="46.1929" lon="6.82106">
        <ele>2074</ele>
        <time>2010-01-01T14:31:47Z</time>
      </trkpt>
      <trkpt lat="46.19309" lon="6.82094">
        <ele>2070</ele>
        <time>2010-01-01T14:31:55Z</time>
      </trkpt>
      <trkpt lat="46.19329" lon="6.82093">
        <ele>2064</ele>
        <time>2010-01-01T14:32:03Z</time>
      </trkpt>
      <trkpt lat="46.19349" lon="6.82092">
        <ele>2063</ele>
        <time>2010-01-01T14:32:11Z</time>
      </trkpt>
      <trkpt lat="46.19373" lon="6.82079">
        <ele>2046</ele>
        <time>2010-01-01T14:32:22Z</time>
      </trkpt>
      <trkpt lat="46.19376" lon="6.82077">
        <ele>2046</ele>
        <time>2010-01-01T14:32:23Z</time>
      </trkpt>
      <trkpt lat="46.19376" lon="6.82076">
        <ele>2046</ele>
        <time>2010-01-01T14:32:23Z</time>
      </trkpt>
      <trkpt lat="46.19377" lon="6.82075">
        <ele>2046</ele>
        <time>2010-01-01T14:32:23Z</time>
      </trkpt>
      <trkpt lat="46.19378" lon="6.82075">
        <ele>2045</ele>
        <time>2010-01-01T14:32:24Z</time>
      </trkpt>
      <trkpt lat="46.19379" lon="6.82074">
        <ele>2045</ele>
        <time>2010-01-01T14:32:24Z</time>
      </trkpt>
      <trkpt lat="46.1938" lon="6.82074">
        <ele>2045</ele>
        <time>2010-01-01T14:32:25Z</time>
      </trkpt>
      <trkpt lat="46.1938" lon="6.82073">
        <ele>2045</ele>
        <time>2010-01-01T14:32:25Z</time>
      </trkpt>
      <trkpt lat="46.19381" lon="6.82073">
        <ele>2045</ele>
        <time>2010-01-01T14:32:25Z</time>
      </trkpt>
      <trkpt lat="46.19382" lon="6.82072">
        <ele>2045</ele>
        <time>2010-01-01T14:32:26Z</time>
      </trkpt>
      <trkpt lat="46.19383" lon="6.82071">
        <ele>2045</ele>
        <time>2010-01-01T14:32:26Z</time>
      </trkpt>
      <trkpt lat="46.19385" lon="6.8207">
        <ele>2045</ele>
        <time>2010-01-01T14:32:27Z</time>
      </trkpt>
      <trkpt lat="46.19387" lon="6.82069">
        <ele>2045</ele>
        <time>2010-01-01T14:32:28Z</time>
      </trkpt>
      <trkpt lat="46.19389" lon="6.82068">
        <ele>2044</ele>
        <time>2010-01-01T14:32:29Z</time>
      </trkpt>
      <trkpt lat="46.1939" lon="6.82068">
        <ele>2044</ele>
        <time>2010-01-01T14:32:29Z</time>
      </trkpt>
      <trkpt lat="46.19391" lon="6.82067">
        <ele>2044</ele>
        <time>2010-01-01T14:32:29Z</time>
      </trkpt>
      <trkpt lat="46.19393" lon="6.82067">
        <ele>2044</ele>
        <time>2010-01-01T14:32:30Z</time>
      </trkpt>
      <trkpt lat="46.19394" lon="6.82066">
        <ele>2044</ele>
        <time>2010-01-01T14:32:31Z</time>
      </trkpt>
      <trkpt lat="46.19394" lon="6.82066">
        <ele>2044</ele>
        <time>2010-01-01T14:32:31Z</time>
      </trkpt>
      <trkpt lat="46.19396" lon="6.82066">
        <ele>2044</ele>
        <time>2010-01-01T14:32:32Z</time>
      </trkpt>
      <trkpt lat="46.19398" lon="6.82065">
        <ele>2044</ele>
        <time>2010-01-01T14:32:33Z</time>
      </trkpt>
      <trkpt lat="46.19401" lon="6.82063">
        <ele>2044</ele>
        <time>2010-01-01T14:32:34Z</time>
      </trkpt>
      <trkpt lat="46.19401" lon="6.82063">
        <ele>2044</ele>
        <time>2010-01-01T14:32:34Z</time>
      </trkpt>
      <trkpt lat="46.19403" lon="6.82063">
        <ele>2044</ele>
        <time>2010-01-01T14:32:34Z</time>
      </trkpt>
      <trkpt lat="46.19404" lon="6.82062">
        <ele>2044</ele>
        <time>2010-01-01T14:32:35Z</time>
      </trkpt>
      <trkpt lat="46.19405" lon="6.82061">
        <ele>2044</ele>
        <time>2010-01-01T14:32:36Z</time>
      </trkpt>
      <trkpt lat="46.19406" lon="6.82061">
        <ele>2044</ele>
        <time>2010-01-01T14:32:36Z</time>
      </trkpt>
      <trkpt lat="46.19407" lon="6.82061">
        <ele>2044</ele>
        <time>2010-01-01T14:32:36Z</time>
      </trkpt>
      <trkpt lat="46.19409" lon="6.8206">
        <ele>2043</ele>
        <time>2010-01-01T14:32:37Z</time>
      </trkpt>
      <trkpt lat="46.19411" lon="6.82059">
        <ele>2043</ele>
        <time>2010-01-01T14:32:38Z</time>
      </trkpt>
      <trkpt lat="46.19413" lon="6.82058">
        <ele>2043</ele>
        <time>2010-01-01T14:32:39Z</time>
      </trkpt>
      <trkpt lat="46.19414" lon="6.82057">
        <ele>2043</ele>
        <time>2010-01-01T14:32:39Z</time>
      </trkpt>
      <trkpt lat="46.19415" lon="6.82057">
        <ele>2043</ele>
        <time>2010-01-01T14:32:40Z</time>
      </trkpt>
      <trkpt lat="46.19416" lon="6.82056">
        <ele>2043</ele>
        <time>2010-01-01T14:32:40Z</time>
      </trkpt>
      <trkpt lat="46.19417" lon="6.82056">
        <ele>2043</ele>
        <time>2010-01-01T14:32:40Z</time>
      </trkpt>
      <trkpt lat="46.19417" lon="6.82056">
        <ele>2037</ele>
        <time>2010-01-01T14:32:40Z</time>
      </trkpt>
      <trkpt lat="46.19419" lon="6.82055">
        <ele>2036</ele>
        <time>2010-01-01T14:32:41Z</time>
      </trkpt>
      <trkpt lat="46.1942" lon="6.82055">
        <ele>2036</ele>
        <time>2010-01-01T14:32:42Z</time>
      </trkpt>
      <trkpt lat="46.1942" lon="6.82055">
        <ele>2036</ele>
        <time>2010-01-01T14:32:42Z</time>
      </trkpt>
      <trkpt lat="46.19421" lon="6.82055">
        <ele>2036</ele>
        <time>2010-01-01T14:32:42Z</time>
      </trkpt>
      <trkpt lat="46.19423" lon="6.82055">
        <ele>2036</ele>
        <time>2010-01-01T14:32:43Z</time>
      </trkpt>
      <trkpt lat="46.19424" lon="6.82055">
        <ele>2036</ele>
        <time>2010-01-01T14:32:43Z</time>
      </trkpt>
      <trkpt lat="46.19426" lon="6.82056">
        <ele>2036</ele>
        <time>2010-01-01T14:32:44Z</time>
      </trkpt>
      <trkpt lat="46.19426" lon="6.82056">
        <ele>2036</ele>
        <time>2010-01-01T14:32:44Z</time>
      </trkpt>
      <trkpt lat="46.19428" lon="6.82056">
        <ele>2036</ele>
        <time>2010-01-01T14:32:45Z</time>
      </trkpt>
      <trkpt lat="46.1943" lon="6.82057">
        <ele>2036</ele>
        <time>2010-01-01T14:32:46Z</time>
      </trkpt>
      <trkpt lat="46.19431" lon="6.82057">
        <ele>2036</ele>
        <time>2010-01-01T14:32:46Z</time>
      </trkpt>
      <trkpt lat="46.19433" lon="6.82057">
        <ele>2036</ele>
        <time>2010-01-01T14:32:47Z</time>
      </trkpt>
      <trkpt lat="46.19434" lon="6.82057">
        <ele>2036</ele>
        <time>2010-01-01T14:32:48Z</time>
      </trkpt>
      <trkpt lat="46.19436" lon="6.82057">
        <ele>2036</ele>
        <time>2010-01-01T14:32:48Z</time>
      </trkpt>
      <trkpt lat="46.19438" lon="6.82058">
        <ele>2036</ele>
        <time>2010-01-01T14:32:49Z</time>
      </trkpt>
      <trkpt lat="46.19438" lon="6.82058">
        <ele>2036</ele>
        <time>2010-01-01T14:32:49Z</time>
      </trkpt>
      <trkpt lat="46.1944" lon="6.82058">
        <ele>2036</ele>
        <time>2010-01-01T14:32:50Z</time>
      </trkpt>
      <trkpt lat="46.19442" lon="6.82057">
        <ele>2035</ele>
        <time>2010-01-01T14:32:50Z</time>
      </trkpt>
      <trkpt lat="46.19443" lon="6.82058">
        <ele>2035</ele>
        <time>2010-01-01T14:32:51Z</time>
      </trkpt>
      <trkpt lat="46.19443" lon="6.82058">
        <ele>2035</ele>
        <time>2010-01-01T14:32:51Z</time>
      </trkpt>
      <trkpt lat="46.19451" lon="6.82055">
        <ele>2034</ele>
        <time>2010-01-01T14:32:54Z</time>
      </trkpt>
      <trkpt lat="46.19474" lon="6.82051">
        <ele>2032</ele>
        <time>2010-01-01T14:33:04Z</time>
      </trkpt>
      <trkpt lat="46.19489" lon="6.8204">
        <ele>2030</ele>
        <time>2010-01-01T14:33:10Z</time>
      </trkpt>
      <trkpt lat="46.19504" lon="6.82033">
        <ele>2027</ele>
        <time>2010-01-01T14:33:16Z</time>
      </trkpt>
      <trkpt lat="46.19544" lon="6.82008">
        <ele>2025</ele>
        <time>2010-01-01T14:33:34Z</time>
      </trkpt>
      <trkpt lat="46.19607" lon="6.81961">
        <ele>2012</ele>
        <time>2010-01-01T14:34:03Z</time>
      </trkpt>
      <trkpt lat="46.19639" lon="6.81918">
        <ele>2010</ele>
        <time>2010-01-01T14:34:20Z</time>
      </trkpt>
      <trkpt lat="46.19643" lon="6.81903">
        <ele>1998</ele>
        <time>2010-01-01T14:34:24Z</time>
      </trkpt>
      <trkpt lat="46.1965" lon="6.81883">
        <ele>1996</ele>
        <time>2010-01-01T14:34:31Z</time>
      </trkpt>
      <trkpt lat="46.19673" lon="6.81825">
        <ele>1998</ele>
        <time>2010-01-01T14:34:49Z</time>
      </trkpt>
      <trkpt lat="46.1969" lon="6.8179">
        <ele>2001</ele>
        <time>2010-01-01T14:35:01Z</time>
      </trkpt>
      <trkpt lat="46.19699" lon="6.81752">
        <ele>1998</ele>
        <time>2010-01-01T14:35:12Z</time>
      </trkpt>
      <trkpt lat="46.19699" lon="6.81748">
        <ele>1990</ele>
        <time>2010-01-01T14:35:13Z</time>
      </trkpt>
      <trkpt lat="46.19708" lon="6.81699">
        <ele>1989</ele>
        <time>2010-01-01T14:35:27Z</time>
      </trkpt>
      <trkpt lat="46.19708" lon="6.81697">
        <ele>1989</ele>
        <time>2010-01-01T14:35:28Z</time>
      </trkpt>
      <trkpt lat="46.19705" lon="6.81665">
        <ele>1982</ele>
        <time>2010-01-01T14:35:36Z</time>
      </trkpt>
      <trkpt lat="46.1971" lon="6.81606">
        <ele>1981</ele>
        <time>2010-01-01T14:35:53Z</time>
      </trkpt>
      <trkpt lat="46.19712" lon="6.81581">
        <ele>1978</ele>
        <time>2010-01-01T14:36:00Z</time>
      </trkpt>
      <trkpt lat="46.19716" lon="6.81557">
        <ele>1978</ele>
        <time>2010-01-01T14:36:07Z</time>
      </trkpt>
      <trkpt lat="46.19711" lon="6.81546">
        <ele>1978</ele>
        <time>2010-01-01T14:36:10Z</time>
      </trkpt>
      <trkpt lat="46.19702" lon="6.8154">
        <ele>1978</ele>
        <time>2010-01-01T14:36:14Z</time>
      </trkpt>
      <trkpt lat="46.19695" lon="6.81526">
        <ele>1978</ele>
        <time>2010-01-01T14:36:19Z</time>
      </trkpt>
      <trkpt lat="46.19695" lon="6.81509">
        <ele>1978</ele>
        <time>2010-01-01T14:36:24Z</time>
      </trkpt>
      <trkpt lat="46.19693" lon="6.81495">
        <ele>1979</ele>
        <time>2010-01-01T14:36:28Z</time>
      </trkpt>
      <trkpt lat="46.19691" lon="6.81486">
        <ele>1979</ele>
        <time>2010-01-01T14:36:30Z</time>
      </trkpt>
      <trkpt lat="46.19682" lon="6.81469">
        <ele>1979</ele>
        <time>2010-01-01T14:36:36Z</time>
      </trkpt>
      <trkpt lat="46.19679" lon="6.81463">
        <ele>1979</ele>
        <time>2010-01-01T14:36:38Z</time>
      </trkpt>
      <trkpt lat="46.19676" lon="6.81459">
        <ele>1979</ele>
        <time>2010-01-01T14:36:40Z</time>
      </trkpt>
      <trkpt lat="46.1968" lon="6.81442">
        <ele>1980</ele>
        <time>2010-01-01T14:36:45Z</time>
      </trkpt>
      <trkpt lat="46.19683" lon="6.8143">
        <ele>1980</ele>
        <time>2010-01-01T14:36:49Z</time>
      </trkpt>
      <trkpt lat="46.1968" lon="6.81401">
        <ele>1980</ele>
        <time>2010-01-01T14:36:57Z</time>
      </trkpt>
      <trkpt lat="46.19671" lon="6.81379">
        <ele>1980</ele>
        <time>2010-01-01T14:37:04Z</time>
      </trkpt>
      <trkpt lat="46.19662" lon="6.81351">
        <ele>1984</ele>
        <time>2010-01-01T14:37:12Z</time>
      </trkpt>
      <trkpt lat="46.19656" lon="6.81327">
        <ele>1985</ele>
        <time>2010-01-01T14:37:19Z</time>
      </trkpt>
      <trkpt lat="46.19654" lon="6.81314">
        <ele>1985</ele>
        <time>2010-01-01T14:37:23Z</time>
      </trkpt>
      <trkpt lat="46.19661" lon="6.81306">
        <ele>1985</ele>
        <time>2010-01-01T14:37:26Z</time>
      </trkpt>
      <trkpt lat="46.19668" lon="6.81301">
        <ele>1977</ele>
        <time>2010-01-01T14:37:30Z</time>
      </trkpt>
      <trkpt lat="46.19677" lon="6.8129">
        <ele>1976</ele>
        <time>2010-01-01T14:37:34Z</time>
      </trkpt>
      <trkpt lat="46.19691" lon="6.81294">
        <ele>1976</ele>
        <time>2010-01-01T14:37:40Z</time>
      </trkpt>
      <trkpt lat="46.19743" lon="6.81286">
        <ele>1974</ele>
        <time>2010-01-01T14:38:01Z</time>
      </trkpt>
      <trkpt lat="46.19753" lon="6.81283">
        <ele>1967</ele>
        <time>2010-01-01T14:38:05Z</time>
      </trkpt>
      <trkpt lat="46.19769" lon="6.81259">
        <ele>1967</ele>
        <time>2010-01-01T14:38:14Z</time>
      </trkpt>
      <trkpt lat="46.19783" lon="6.81241">
        <ele>1965</ele>
        <time>2010-01-01T14:38:22Z</time>
      </trkpt>
      <trkpt lat="46.19783" lon="6.8124">
        <ele>1965</ele>
        <time>2010-01-01T14:38:22Z</time>
      </trkpt>
      <trkpt lat="46.19784" lon="6.81237">
        <ele>1965</ele>
        <time>2010-01-01T14:38:23Z</time>
      </trkpt>
      <trkpt lat="46.19813" lon="6.81189">
        <ele>1964</ele>
        <time>2010-01-01T14:38:41Z</time>
      </trkpt>
      <trkpt lat="46.19818" lon="6.81176">
        <ele>1964</ele>
        <time>2010-01-01T14:38:45Z</time>
      </trkpt>
      <trkpt lat="46.1982" lon="6.81163">
        <ele>1965</ele>
        <time>2010-01-01T14:38:48Z</time>
      </trkpt>
      <trkpt lat="46.19808" lon="6.81147">
        <ele>1966</ele>
        <time>2010-01-01T14:38:55Z</time>
      </trkpt>
      <trkpt lat="46.19799" lon="6.81133">
        <ele>1967</ele>
        <time>2010-01-01T14:39:00Z</time>
      </trkpt>
      <trkpt lat="46.19798" lon="6.81131">
        <ele>1967</ele>
        <time>2010-01-01T14:39:01Z</time>
      </trkpt>
      <trkpt lat="46.19792" lon="6.81122">
        <ele>1967</ele>
        <time>2010-01-01T14:39:05Z</time>
      </trkpt>
      <trkpt lat="46.19789" lon="6.8111">
        <ele>1968</ele>
        <time>2010-01-01T14:39:08Z</time>
      </trkpt>
      <trkpt lat="46.19789" lon="6.81099">
        <ele>1968</ele>
        <time>2010-01-01T14:39:11Z</time>
      </trkpt>
      <trkpt lat="46.19782" lon="6.81088">
        <ele>1968</ele>
        <time>2010-01-01T14:39:15Z</time>
      </trkpt>
      <trkpt lat="46.19773" lon="6.81078">
        <ele>1969</ele>
        <time>2010-01-01T14:39:20Z</time>
      </trkpt>
      <trkpt lat="46.19774" lon="6.81059">
        <ele>1969</ele>
        <time>2010-01-01T14:39:25Z</time>
      </trkpt>
      <trkpt lat="46.19778" lon="6.81048">
        <ele>1969</ele>
        <time>2010-01-01T14:39:29Z</time>
      </trkpt>
      <trkpt lat="46.19781" lon="6.8103">
        <ele>1968</ele>
        <time>2010-01-01T14:39:34Z</time>
      </trkpt>
      <trkpt lat="46.19795" lon="6.81013">
        <ele>1968</ele>
        <time>2010-01-01T14:39:41Z</time>
      </trkpt>
      <trkpt lat="46.19803" lon="6.80997">
        <ele>1969</ele>
        <time>2010-01-01T14:39:46Z</time>
      </trkpt>
      <trkpt lat="46.19803" lon="6.80979">
        <ele>1970</ele>
        <time>2010-01-01T14:39:51Z</time>
      </trkpt>
      <trkpt lat="46.19802" lon="6.80977">
        <ele>1970</ele>
        <time>2010-01-01T14:39:52Z</time>
      </trkpt>
      <trkpt lat="46.19796" lon="6.80962">
        <ele>1971</ele>
        <time>2010-01-01T14:39:57Z</time>
      </trkpt>
      <trkpt lat="46.19792" lon="6.80944">
        <ele>1971</ele>
        <time>2010-01-01T14:40:02Z</time>
      </trkpt>
      <trkpt lat="46.19784" lon="6.8093">
        <ele>1972</ele>
        <time>2010-01-01T14:40:07Z</time>
      </trkpt>
      <trkpt lat="46.19779" lon="6.80916">
        <ele>1976</ele>
        <time>2010-01-01T14:40:12Z</time>
      </trkpt>
      <trkpt lat="46.19774" lon="6.80905">
        <ele>1976</ele>
        <time>2010-01-01T14:40:15Z</time>
      </trkpt>
      <trkpt lat="46.19778" lon="6.80898">
        <ele>1976</ele>
        <time>2010-01-01T14:40:18Z</time>
      </trkpt>
      <trkpt lat="46.19782" lon="6.80886">
        <ele>1976</ele>
        <time>2010-01-01T14:40:21Z</time>
      </trkpt>
      <trkpt lat="46.19784" lon="6.80878">
        <ele>1977</ele>
        <time>2010-01-01T14:40:24Z</time>
      </trkpt>
      <trkpt lat="46.19787" lon="6.80864">
        <ele>1977</ele>
        <time>2010-01-01T14:40:28Z</time>
      </trkpt>
      <trkpt lat="46.19784" lon="6.80857">
        <ele>1977</ele>
        <time>2010-01-01T14:40:30Z</time>
      </trkpt>
      <trkpt lat="46.19783" lon="6.80848">
        <ele>1978</ele>
        <time>2010-01-01T14:40:32Z</time>
      </trkpt>
      <trkpt lat="46.19777" lon="6.80843">
        <ele>1978</ele>
        <time>2010-01-01T14:40:35Z</time>
      </trkpt>
      <trkpt lat="46.19769" lon="6.8084">
        <ele>1978</ele>
        <time>2010-01-01T14:40:38Z</time>
      </trkpt>
      <trkpt lat="46.19762" lon="6.80835">
        <ele>1978</ele>
        <time>2010-01-01T14:40:41Z</time>
      </trkpt>
      <trkpt lat="46.19758" lon="6.80826">
        <ele>1981</ele>
        <time>2010-01-01T14:40:44Z</time>
      </trkpt>
      <trkpt lat="46.19758" lon="6.80825">
        <ele>1982</ele>
        <time>2010-01-01T14:40:45Z</time>
      </trkpt>
      <trkpt lat="46.19759" lon="6.8081">
        <ele>1984</ele>
        <time>2010-01-01T14:40:49Z</time>
      </trkpt>
      <trkpt lat="46.1976" lon="6.80798">
        <ele>1985</ele>
        <time>2010-01-01T14:40:52Z</time>
      </trkpt>
      <trkpt lat="46.19758" lon="6.80792">
        <ele>1986</ele>
        <time>2010-01-01T14:40:54Z</time>
      </trkpt>
      <trkpt lat="46.19756" lon="6.80786">
        <ele>1986</ele>
        <time>2010-01-01T14:40:56Z</time>
      </trkpt>
      <trkpt lat="46.19748" lon="6.80772">
        <ele>1988</ele>
        <time>2010-01-01T14:41:01Z</time>
      </trkpt>
      <trkpt lat="46.19745" lon="6.80765">
        <ele>1989</ele>
        <time>2010-01-01T14:41:03Z</time>
      </trkpt>
      <trkpt lat="46.19742" lon="6.80759">
        <ele>1989</ele>
        <time>2010-01-01T14:41:05Z</time>
      </trkpt>
      <trkpt lat="46.19738" lon="6.80743">
        <ele>1993</ele>
        <time>2010-01-01T14:41:10Z</time>
      </trkpt>
      <trkpt lat="46.19737" lon="6.80739">
        <ele>1993</ele>
        <time>2010-01-01T14:41:11Z</time>
      </trkpt>
      <trkpt lat="46.19735" lon="6.80735">
        <ele>1994</ele>
        <time>2010-01-01T14:41:13Z</time>
      </trkpt>
      <trkpt lat="46.19732" lon="6.80726">
        <ele>1995</ele>
        <time>2010-01-01T14:41:15Z</time>
      </trkpt>
      <trkpt lat="46.19727" lon="6.80719">
        <ele>1995</ele>
        <time>2010-01-01T14:41:18Z</time>
      </trkpt>
      <trkpt lat="46.19718" lon="6.80712">
        <ele>1996</ele>
        <time>2010-01-01T14:41:22Z</time>
      </trkpt>
      <trkpt lat="46.19712" lon="6.80706">
        <ele>1996</ele>
        <time>2010-01-01T14:41:25Z</time>
      </trkpt>
      <trkpt lat="46.19706" lon="6.80697">
        <ele>1996</ele>
        <time>2010-01-01T14:41:28Z</time>
      </trkpt>
      <trkpt lat="46.19702" lon="6.80692">
        <ele>1997</ele>
        <time>2010-01-01T14:41:31Z</time>
      </trkpt>
      <trkpt lat="46.19701" lon="6.80677">
        <ele>1997</ele>
        <time>2010-01-01T14:41:35Z</time>
      </trkpt>
      <trkpt lat="46.19702" lon="6.80662">
        <ele>2000</ele>
        <time>2010-01-01T14:41:39Z</time>
      </trkpt>
      <trkpt lat="46.19703" lon="6.8065">
        <ele>2000</ele>
        <time>2010-01-01T14:41:42Z</time>
      </trkpt>
      <trkpt lat="46.197" lon="6.80638">
        <ele>2000</ele>
        <time>2010-01-01T14:41:46Z</time>
      </trkpt>
      <trkpt lat="46.19697" lon="6.8063">
        <ele>2000</ele>
        <time>2010-01-01T14:41:48Z</time>
      </trkpt>
      <trkpt lat="46.19697" lon="6.80619">
        <ele>2000</ele>
        <time>2010-01-01T14:41:51Z</time>
      </trkpt>
      <trkpt lat="46.19696" lon="6.80616">
        <ele>2000</ele>
        <time>2010-01-01T14:41:52Z</time>
      </trkpt>
      <trkpt lat="46.19692" lon="6.80601">
        <ele>2000</ele>
        <time>2010-01-01T14:41:57Z</time>
      </trkpt>
      <trkpt lat="46.19693" lon="6.80579">
        <ele>1999</ele>
        <time>2010-01-01T14:42:03Z</time>
      </trkpt>
      <trkpt lat="46.1969" lon="6.80561">
        <ele>1999</ele>
        <time>2010-01-01T14:42:08Z</time>
      </trkpt>
      <trkpt lat="46.19692" lon="6.80541">
        <ele>1999</ele>
        <time>2010-01-01T14:42:14Z</time>
      </trkpt>
      <trkpt lat="46.19699" lon="6.8053">
        <ele>1999</ele>
        <time>2010-01-01T14:42:17Z</time>
      </trkpt>
      <trkpt lat="46.197" lon="6.80509">
        <ele>1999</ele>
        <time>2010-01-01T14:42:23Z</time>
      </trkpt>
      <trkpt lat="46.19702" lon="6.80493">
        <ele>1994</ele>
        <time>2010-01-01T14:42:28Z</time>
      </trkpt>
      <trkpt lat="46.19707" lon="6.80478">
        <ele>1994</ele>
        <time>2010-01-01T14:42:33Z</time>
      </trkpt>
      <trkpt lat="46.19718" lon="6.80464">
        <ele>1994</ele>
        <time>2010-01-01T14:42:39Z</time>
      </trkpt>
      <trkpt lat="46.19737" lon="6.80438">
        <ele>1994</ele>
        <time>2010-01-01T14:42:49Z</time>
      </trkpt>
      <trkpt lat="46.19754" lon="6.80415">
        <ele>1998</ele>
        <time>2010-01-01T14:42:58Z</time>
      </trkpt>
      <trkpt lat="46.1976" lon="6.80401">
        <ele>1998</ele>
        <time>2010-01-01T14:43:03Z</time>
      </trkpt>
      <trkpt lat="46.19771" lon="6.80374">
        <ele>1997</ele>
        <time>2010-01-01T14:43:12Z</time>
      </trkpt>
      <trkpt lat="46.19789" lon="6.80339">
        <ele>1997</ele>
        <time>2010-01-01T14:43:23Z</time>
      </trkpt>
      <trkpt lat="46.19801" lon="6.80314">
        <ele>1988</ele>
        <time>2010-01-01T14:43:32Z</time>
      </trkpt>
      <trkpt lat="46.19808" lon="6.80289">
        <ele>1986</ele>
        <time>2010-01-01T14:43:39Z</time>
      </trkpt>
      <trkpt lat="46.19809" lon="6.80273">
        <ele>1985</ele>
        <time>2010-01-01T14:43:44Z</time>
      </trkpt>
      <trkpt lat="46.19814" lon="6.8026">
        <ele>1985</ele>
        <time>2010-01-01T14:43:48Z</time>
      </trkpt>
      <trkpt lat="46.19819" lon="6.80249">
        <ele>1980</ele>
        <time>2010-01-01T14:43:52Z</time>
      </trkpt>
      <trkpt lat="46.19822" lon="6.80237">
        <ele>1979</ele>
        <time>2010-01-01T14:43:55Z</time>
      </trkpt>
      <trkpt lat="46.19824" lon="6.80218">
        <ele>1975</ele>
        <time>2010-01-01T14:44:01Z</time>
      </trkpt>
      <trkpt lat="46.19829" lon="6.80203">
        <ele>1974</ele>
        <time>2010-01-01T14:44:05Z</time>
      </trkpt>
      <trkpt lat="46.19829" lon="6.80186">
        <ele>1974</ele>
        <time>2010-01-01T14:44:10Z</time>
      </trkpt>
      <trkpt lat="46.19833" lon="6.80176">
        <ele>1975</ele>
        <time>2010-01-01T14:44:13Z</time>
      </trkpt>
      <trkpt lat="46.19834" lon="6.80162">
        <ele>1977</ele>
        <time>2010-01-01T14:44:17Z</time>
      </trkpt>
      <trkpt lat="46.19836" lon="6.80146">
        <ele>1978</ele>
        <time>2010-01-01T14:44:21Z</time>
      </trkpt>
      <trkpt lat="46.19844" lon="6.8012">
        <ele>1976</ele>
        <time>2010-01-01T14:44:29Z</time>
      </trkpt>
      <trkpt lat="46.1985" lon="6.80097">
        <ele>1974</ele>
        <time>2010-01-01T14:44:36Z</time>
      </trkpt>
      <trkpt lat="46.19857" lon="6.80081">
        <ele>1967</ele>
        <time>2010-01-01T14:44:41Z</time>
      </trkpt>
      <trkpt lat="46.19869" lon="6.80056">
        <ele>1967</ele>
        <time>2010-01-01T14:44:50Z</time>
      </trkpt>
      <trkpt lat="46.19881" lon="6.80042">
        <ele>1967</ele>
        <time>2010-01-01T14:44:56Z</time>
      </trkpt>
      <trkpt lat="46.1989" lon="6.80023">
        <ele>1966</ele>
        <time>2010-01-01T14:45:02Z</time>
      </trkpt>
      <trkpt lat="46.19901" lon="6.80005">
        <ele>1965</ele>
        <time>2010-01-01T14:45:09Z</time>
      </trkpt>
      <trkpt lat="46.1991" lon="6.79982">
        <ele>1958</ele>
        <time>2010-01-01T14:45:16Z</time>
      </trkpt>
      <trkpt lat="46.19919" lon="6.79955">
        <ele>1955</ele>
        <time>2010-01-01T14:45:25Z</time>
      </trkpt>
      <trkpt lat="46.19925" lon="6.79946">
        <ele>1954</ele>
        <time>2010-01-01T14:45:28Z</time>
      </trkpt>
      <trkpt lat="46.1993" lon="6.7994">
        <ele>1953</ele>
        <time>2010-01-01T14:45:31Z</time>
      </trkpt>
      <trkpt lat="46.1993" lon="6.79939">
        <ele>1953</ele>
        <time>2010-01-01T14:45:31Z</time>
      </trkpt>
      <trkpt lat="46.1994" lon="6.79933">
        <ele>1953</ele>
        <time>2010-01-01T14:45:35Z</time>
      </trkpt>
      <trkpt lat="46.19948" lon="6.79921">
        <ele>1952</ele>
        <time>2010-01-01T14:45:40Z</time>
      </trkpt>
      <trkpt lat="46.19958" lon="6.79915">
        <ele>1944</ele>
        <time>2010-01-01T14:45:44Z</time>
      </trkpt>
      <trkpt lat="46.19972" lon="6.79907">
        <ele>1944</ele>
        <time>2010-01-01T14:45:50Z</time>
      </trkpt>
      <trkpt lat="46.19983" lon="6.79899">
        <ele>1945</ele>
        <time>2010-01-01T14:45:55Z</time>
      </trkpt>
      <trkpt lat="46.20005" lon="6.79879">
        <ele>1947</ele>
        <time>2010-01-01T14:46:06Z</time>
      </trkpt>
      <trkpt lat="46.20017" lon="6.79863">
        <ele>1946</ele>
        <time>2010-01-01T14:46:12Z</time>
      </trkpt>
      <trkpt lat="46.20024" lon="6.79857">
        <ele>1946</ele>
        <time>2010-01-01T14:46:16Z</time>
      </trkpt>
      <trkpt lat="46.20028" lon="6.79853">
        <ele>1946</ele>
        <time>2010-01-01T14:46:18Z</time>
      </trkpt>
      <trkpt lat="46.20034" lon="6.79844">
        <ele>1946</ele>
        <time>2010-01-01T14:46:21Z</time>
      </trkpt>
      <trkpt lat="46.20034" lon="6.79841">
        <ele>1946</ele>
        <time>2010-01-01T14:46:22Z</time>
      </trkpt>
      <trkpt lat="46.20035" lon="6.79834">
        <ele>1945</ele>
        <time>2010-01-01T14:46:24Z</time>
      </trkpt>
      <trkpt lat="46.20038" lon="6.79823">
        <ele>1938</ele>
        <time>2010-01-01T14:46:27Z</time>
      </trkpt>
      <trkpt lat="46.2004" lon="6.79818">
        <ele>1938</ele>
        <time>2010-01-01T14:46:29Z</time>
      </trkpt>
      <trkpt lat="46.20044" lon="6.79809">
        <ele>1938</ele>
        <time>2010-01-01T14:46:32Z</time>
      </trkpt>
      <trkpt lat="46.20048" lon="6.798">
        <ele>1938</ele>
        <time>2010-01-01T14:46:34Z</time>
      </trkpt>
      <trkpt lat="46.2005" lon="6.79793">
        <ele>1937</ele>
        <time>2010-01-01T14:46:37Z</time>
      </trkpt>
      <trkpt lat="46.20051" lon="6.79789">
        <ele>1937</ele>
        <time>2010-01-01T14:46:38Z</time>
      </trkpt>
      <trkpt lat="46.20057" lon="6.79782">
        <ele>1937</ele>
        <time>2010-01-01T14:46:41Z</time>
      </trkpt>
      <trkpt lat="46.20059" lon="6.79777">
        <ele>1937</ele>
        <time>2010-01-01T14:46:43Z</time>
      </trkpt>
      <trkpt lat="46.2006" lon="6.79776">
        <ele>1937</ele>
        <time>2010-01-01T14:46:43Z</time>
      </trkpt>
      <trkpt lat="46.20061" lon="6.79775">
        <ele>1937</ele>
        <time>2010-01-01T14:46:43Z</time>
      </trkpt>
      <trkpt lat="46.20063" lon="6.79774">
        <ele>1937</ele>
        <time>2010-01-01T14:46:44Z</time>
      </trkpt>
      <trkpt lat="46.20063" lon="6.79773">
        <ele>1937</ele>
        <time>2010-01-01T14:46:44Z</time>
      </trkpt>
      <trkpt lat="46.20069" lon="6.79771">
        <ele>1937</ele>
        <time>2010-01-01T14:46:47Z</time>
      </trkpt>
      <trkpt lat="46.20083" lon="6.79769">
        <ele>1937</ele>
        <time>2010-01-01T14:46:53Z</time>
      </trkpt>
      <trkpt lat="46.20093" lon="6.79764">
        <ele>1945</ele>
        <time>2010-01-01T14:46:57Z</time>
      </trkpt>
      <trkpt lat="46.20101" lon="6.79755">
        <ele>1946</ele>
        <time>2010-01-01T14:47:01Z</time>
      </trkpt>
      <trkpt lat="46.20104" lon="6.7974">
        <ele>1935</ele>
        <time>2010-01-01T14:47:05Z</time>
      </trkpt>
      <trkpt lat="46.20104" lon="6.79728">
        <ele>1933</ele>
        <time>2010-01-01T14:47:09Z</time>
      </trkpt>
      <trkpt lat="46.20106" lon="6.79725">
        <ele>1933</ele>
        <time>2010-01-01T14:47:10Z</time>
      </trkpt>
      <trkpt lat="46.20108" lon="6.79723">
        <ele>1933</ele>
        <time>2010-01-01T14:47:11Z</time>
      </trkpt>
      <trkpt lat="46.20109" lon="6.79716">
        <ele>1932</ele>
        <time>2010-01-01T14:47:13Z</time>
      </trkpt>
      <trkpt lat="46.20102" lon="6.79712">
        <ele>1931</ele>
        <time>2010-01-01T14:47:16Z</time>
      </trkpt>
      <trkpt lat="46.20099" lon="6.79706">
        <ele>1930</ele>
        <time>2010-01-01T14:47:18Z</time>
      </trkpt>
      <trkpt lat="46.20091" lon="6.79699">
        <ele>1928</ele>
        <time>2010-01-01T14:47:21Z</time>
      </trkpt>
      <trkpt lat="46.20085" lon="6.79694">
        <ele>1926</ele>
        <time>2010-01-01T14:47:24Z</time>
      </trkpt>
      <trkpt lat="46.20083" lon="6.79687">
        <ele>1919</ele>
        <time>2010-01-01T14:47:26Z</time>
      </trkpt>
      <trkpt lat="46.20087" lon="6.79683">
        <ele>1922</ele>
        <time>2010-01-01T14:47:28Z</time>
      </trkpt>
      <trkpt lat="46.20091" lon="6.79684">
        <ele>1923</ele>
        <time>2010-01-01T14:47:30Z</time>
      </trkpt>
      <trkpt lat="46.20095" lon="6.79685">
        <ele>1924</ele>
        <time>2010-01-01T14:47:32Z</time>
      </trkpt>
      <trkpt lat="46.20096" lon="6.79686">
        <ele>1925</ele>
        <time>2010-01-01T14:47:32Z</time>
      </trkpt>
      <trkpt lat="46.20097" lon="6.79686">
        <ele>1925</ele>
        <time>2010-01-01T14:47:32Z</time>
      </trkpt>
      <trkpt lat="46.20098" lon="6.79686">
        <ele>1925</ele>
        <time>2010-01-01T14:47:33Z</time>
      </trkpt>
      <trkpt lat="46.20099" lon="6.79686">
        <ele>1925</ele>
        <time>2010-01-01T14:47:33Z</time>
      </trkpt>
      <trkpt lat="46.201" lon="6.79685">
        <ele>1925</ele>
        <time>2010-01-01T14:47:34Z</time>
      </trkpt>
      <trkpt lat="46.20101" lon="6.79685">
        <ele>1925</ele>
        <time>2010-01-01T14:47:34Z</time>
      </trkpt>
      <trkpt lat="46.20101" lon="6.79685">
        <ele>1925</ele>
        <time>2010-01-01T14:47:34Z</time>
      </trkpt>
      <trkpt lat="46.20103" lon="6.79683">
        <ele>1925</ele>
        <time>2010-01-01T14:47:35Z</time>
      </trkpt>
      <trkpt lat="46.20103" lon="6.79682">
        <ele>1925</ele>
        <time>2010-01-01T14:47:35Z</time>
      </trkpt>
      <trkpt lat="46.20103" lon="6.79681">
        <ele>1925</ele>
        <time>2010-01-01T14:47:36Z</time>
      </trkpt>
      <trkpt lat="46.20104" lon="6.7968">
        <ele>1925</ele>
        <time>2010-01-01T14:47:36Z</time>
      </trkpt>
      <trkpt lat="46.20105" lon="6.79679">
        <ele>1925</ele>
        <time>2010-01-01T14:47:36Z</time>
      </trkpt>
      <trkpt lat="46.20106" lon="6.79678">
        <ele>1925</ele>
        <time>2010-01-01T14:47:37Z</time>
      </trkpt>
      <trkpt lat="46.20106" lon="6.79677">
        <ele>1925</ele>
        <time>2010-01-01T14:47:37Z</time>
      </trkpt>
      <trkpt lat="46.20107" lon="6.79676">
        <ele>1925</ele>
        <time>2010-01-01T14:47:37Z</time>
      </trkpt>
      <trkpt lat="46.20107" lon="6.79676">
        <ele>1925</ele>
        <time>2010-01-01T14:47:38Z</time>
      </trkpt>
      <trkpt lat="46.20108" lon="6.79675">
        <ele>1925</ele>
        <time>2010-01-01T14:47:38Z</time>
      </trkpt>
      <trkpt lat="46.20109" lon="6.79674">
        <ele>1925</ele>
        <time>2010-01-01T14:47:39Z</time>
      </trkpt>
      <trkpt lat="46.20109" lon="6.79673">
        <ele>1925</ele>
        <time>2010-01-01T14:47:39Z</time>
      </trkpt>
      <trkpt lat="46.2011" lon="6.79671">
        <ele>1925</ele>
        <time>2010-01-01T14:47:39Z</time>
      </trkpt>
      <trkpt lat="46.2011" lon="6.7967">
        <ele>1925</ele>
        <time>2010-01-01T14:47:40Z</time>
      </trkpt>
      <trkpt lat="46.2011" lon="6.79669">
        <ele>1925</ele>
        <time>2010-01-01T14:47:40Z</time>
      </trkpt>
      <trkpt lat="46.2011" lon="6.79668">
        <ele>1925</ele>
        <time>2010-01-01T14:47:40Z</time>
      </trkpt>
      <trkpt lat="46.2011" lon="6.79667">
        <ele>1909</ele>
        <time>2010-01-01T14:47:41Z</time>
      </trkpt>
      <trkpt lat="46.20111" lon="6.79666">
        <ele>1909</ele>
        <time>2010-01-01T14:47:41Z</time>
      </trkpt>
      <trkpt lat="46.20111" lon="6.79664">
        <ele>1909</ele>
        <time>2010-01-01T14:47:41Z</time>
      </trkpt>
      <trkpt lat="46.20111" lon="6.79663">
        <ele>1909</ele>
        <time>2010-01-01T14:47:42Z</time>
      </trkpt>
      <trkpt lat="46.20111" lon="6.79662">
        <ele>1909</ele>
        <time>2010-01-01T14:47:42Z</time>
      </trkpt>
      <trkpt lat="46.20111" lon="6.79661">
        <ele>1909</ele>
        <time>2010-01-01T14:47:42Z</time>
      </trkpt>
      <trkpt lat="46.20111" lon="6.79659">
        <ele>1909</ele>
        <time>2010-01-01T14:47:43Z</time>
      </trkpt>
      <trkpt lat="46.20111" lon="6.79658">
        <ele>1909</ele>
        <time>2010-01-01T14:47:43Z</time>
      </trkpt>
      <trkpt lat="46.20111" lon="6.79657">
        <ele>1908</ele>
        <time>2010-01-01T14:47:44Z</time>
      </trkpt>
      <trkpt lat="46.20111" lon="6.79655">
        <ele>1908</ele>
        <time>2010-01-01T14:47:44Z</time>
      </trkpt>
      <trkpt lat="46.20111" lon="6.79655">
        <ele>1908</ele>
        <time>2010-01-01T14:47:44Z</time>
      </trkpt>
      <trkpt lat="46.20111" lon="6.79653">
        <ele>1908</ele>
        <time>2010-01-01T14:47:45Z</time>
      </trkpt>
      <trkpt lat="46.20111" lon="6.79651">
        <ele>1908</ele>
        <time>2010-01-01T14:47:45Z</time>
      </trkpt>
      <trkpt lat="46.20112" lon="6.7965">
        <ele>1908</ele>
        <time>2010-01-01T14:47:45Z</time>
      </trkpt>
      <trkpt lat="46.20112" lon="6.79649">
        <ele>1908</ele>
        <time>2010-01-01T14:47:46Z</time>
      </trkpt>
      <trkpt lat="46.20112" lon="6.79647">
        <ele>1907</ele>
        <time>2010-01-01T14:47:46Z</time>
      </trkpt>
      <trkpt lat="46.20112" lon="6.79646">
        <ele>1907</ele>
        <time>2010-01-01T14:47:47Z</time>
      </trkpt>
      <trkpt lat="46.20113" lon="6.79646">
        <ele>1907</ele>
        <time>2010-01-01T14:47:47Z</time>
      </trkpt>
      <trkpt lat="46.20114" lon="6.79644">
        <ele>1907</ele>
        <time>2010-01-01T14:47:47Z</time>
      </trkpt>
      <trkpt lat="46.20114" lon="6.79644">
        <ele>1907</ele>
        <time>2010-01-01T14:47:48Z</time>
      </trkpt>
      <trkpt lat="46.20115" lon="6.79642">
        <ele>1907</ele>
        <time>2010-01-01T14:47:48Z</time>
      </trkpt>
      <trkpt lat="46.20116" lon="6.79641">
        <ele>1907</ele>
        <time>2010-01-01T14:47:49Z</time>
      </trkpt>
      <trkpt lat="46.20116" lon="6.79641">
        <ele>1907</ele>
        <time>2010-01-01T14:47:49Z</time>
      </trkpt>
      <trkpt lat="46.20117" lon="6.7964">
        <ele>1907</ele>
        <time>2010-01-01T14:47:49Z</time>
      </trkpt>
      <trkpt lat="46.20118" lon="6.7964">
        <ele>1907</ele>
        <time>2010-01-01T14:47:49Z</time>
      </trkpt>
      <trkpt lat="46.20119" lon="6.79639">
        <ele>1907</ele>
        <time>2010-01-01T14:47:50Z</time>
      </trkpt>
      <trkpt lat="46.2012" lon="6.79638">
        <ele>1907</ele>
        <time>2010-01-01T14:47:50Z</time>
      </trkpt>
      <trkpt lat="46.20121" lon="6.79638">
        <ele>1907</ele>
        <time>2010-01-01T14:47:51Z</time>
      </trkpt>
      <trkpt lat="46.20122" lon="6.79637">
        <ele>1907</ele>
        <time>2010-01-01T14:47:51Z</time>
      </trkpt>
      <trkpt lat="46.20124" lon="6.79636">
        <ele>1907</ele>
        <time>2010-01-01T14:47:52Z</time>
      </trkpt>
      <trkpt lat="46.20124" lon="6.79635">
        <ele>1906</ele>
        <time>2010-01-01T14:47:52Z</time>
      </trkpt>
      <trkpt lat="46.20124" lon="6.79634">
        <ele>1906</ele>
        <time>2010-01-01T14:47:53Z</time>
      </trkpt>
      <trkpt lat="46.20124" lon="6.79633">
        <ele>1906</ele>
        <time>2010-01-01T14:47:53Z</time>
      </trkpt>
      <trkpt lat="46.20124" lon="6.79633">
        <ele>1906</ele>
        <time>2010-01-01T14:47:53Z</time>
      </trkpt>
      <trkpt lat="46.20127" lon="6.7963">
        <ele>1906</ele>
        <time>2010-01-01T14:47:54Z</time>
      </trkpt>
      <trkpt lat="46.2014" lon="6.79605">
        <ele>1904</ele>
        <time>2010-01-01T14:48:03Z</time>
      </trkpt>
      <trkpt lat="46.20142" lon="6.79585">
        <ele>1902</ele>
        <time>2010-01-01T14:48:08Z</time>
      </trkpt>
      <trkpt lat="46.20157" lon="6.79564">
        <ele>1891</ele>
        <time>2010-01-01T14:48:17Z</time>
      </trkpt>
      <trkpt lat="46.20165" lon="6.79537">
        <ele>1885</ele>
        <time>2010-01-01T14:48:25Z</time>
      </trkpt>
      <trkpt lat="46.20176" lon="6.79518">
        <ele>1897</ele>
        <time>2010-01-01T14:48:32Z</time>
      </trkpt>
      <trkpt lat="46.2019" lon="6.79501">
        <ele>1898</ele>
        <time>2010-01-01T14:48:40Z</time>
      </trkpt>
      <trkpt lat="46.20206" lon="6.79476">
        <ele>1884</ele>
        <time>2010-01-01T14:48:49Z</time>
      </trkpt>
      <trkpt lat="46.2022" lon="6.79462">
        <ele>1884</ele>
        <time>2010-01-01T14:48:55Z</time>
      </trkpt>
      <trkpt lat="46.20229" lon="6.7945">
        <ele>1883</ele>
        <time>2010-01-01T14:49:01Z</time>
      </trkpt>
      <trkpt lat="46.20242" lon="6.79437">
        <ele>1882</ele>
        <time>2010-01-01T14:49:07Z</time>
      </trkpt>
      <trkpt lat="46.2025" lon="6.79419">
        <ele>1882</ele>
        <time>2010-01-01T14:49:13Z</time>
      </trkpt>
      <trkpt lat="46.20264" lon="6.794">
        <ele>1880</ele>
        <time>2010-01-01T14:49:20Z</time>
      </trkpt>
      <trkpt lat="46.20281" lon="6.79379">
        <ele>1879</ele>
        <time>2010-01-01T14:49:29Z</time>
      </trkpt>
      <trkpt lat="46.20296" lon="6.79348">
        <ele>1876</ele>
        <time>2010-01-01T14:49:40Z</time>
      </trkpt>
      <trkpt lat="46.2031" lon="6.79325">
        <ele>1862</ele>
        <time>2010-01-01T14:49:48Z</time>
      </trkpt>
      <trkpt lat="46.20324" lon="6.79311">
        <ele>1862</ele>
        <time>2010-01-01T14:49:55Z</time>
      </trkpt>
      <trkpt lat="46.20334" lon="6.79285">
        <ele>1869</ele>
        <time>2010-01-01T14:50:03Z</time>
      </trkpt>
      <trkpt lat="46.20344" lon="6.79265">
        <ele>1864</ele>
        <time>2010-01-01T14:50:10Z</time>
      </trkpt>
      <trkpt lat="46.20353" lon="6.79261">
        <ele>1865</ele>
        <time>2010-01-01T14:50:14Z</time>
      </trkpt>
      <trkpt lat="46.2037" lon="6.79259">
        <ele>1868</ele>
        <time>2010-01-01T14:50:21Z</time>
      </trkpt>
      <trkpt lat="46.20391" lon="6.79254">
        <ele>1869</ele>
        <time>2010-01-01T14:50:29Z</time>
      </trkpt>
      <trkpt lat="46.20411" lon="6.79247">
        <ele>1861</ele>
        <time>2010-01-01T14:50:37Z</time>
      </trkpt>
      <trkpt lat="46.2043" lon="6.79231">
        <ele>1859</ele>
        <time>2010-01-01T14:50:46Z</time>
      </trkpt>
      <trkpt lat="46.20444" lon="6.79225">
        <ele>1857</ele>
        <time>2010-01-01T14:50:52Z</time>
      </trkpt>
      <trkpt lat="46.20457" lon="6.79222">
        <ele>1857</ele>
        <time>2010-01-01T14:50:57Z</time>
      </trkpt>
      <trkpt lat="46.20475" lon="6.79205">
        <ele>1855</ele>
        <time>2010-01-01T14:51:06Z</time>
      </trkpt>
      <trkpt lat="46.20496" lon="6.79196">
        <ele>1852</ele>
        <time>2010-01-01T14:51:15Z</time>
      </trkpt>
      <trkpt lat="46.2051" lon="6.79189">
        <ele>1853</ele>
        <time>2010-01-01T14:51:20Z</time>
      </trkpt>
      <trkpt lat="46.20522" lon="6.79181">
        <ele>1853</ele>
        <time>2010-01-01T14:51:26Z</time>
      </trkpt>
      <trkpt lat="46.2054" lon="6.79155">
        <ele>1841</ele>
        <time>2010-01-01T14:51:36Z</time>
      </trkpt>
      <trkpt lat="46.20556" lon="6.79139">
        <ele>1841</ele>
        <time>2010-01-01T14:51:44Z</time>
      </trkpt>
      <trkpt lat="46.20573" lon="6.7913">
        <ele>1841</ele>
        <time>2010-01-01T14:51:51Z</time>
      </trkpt>
      <trkpt lat="46.20586" lon="6.79114">
        <ele>1842</ele>
        <time>2010-01-01T14:51:58Z</time>
      </trkpt>
      <trkpt lat="46.20599" lon="6.79099">
        <ele>1841</ele>
        <time>2010-01-01T14:52:05Z</time>
      </trkpt>
      <trkpt lat="46.20608" lon="6.79081">
        <ele>1833</ele>
        <time>2010-01-01T14:52:11Z</time>
      </trkpt>
      <trkpt lat="46.20617" lon="6.79064">
        <ele>1832</ele>
        <time>2010-01-01T14:52:17Z</time>
      </trkpt>
      <trkpt lat="46.20636" lon="6.7904">
        <ele>1831</ele>
        <time>2010-01-01T14:52:27Z</time>
      </trkpt>
      <trkpt lat="46.20652" lon="6.79025">
        <ele>1830</ele>
        <time>2010-01-01T14:52:35Z</time>
      </trkpt>
      <trkpt lat="46.20662" lon="6.79019">
        <ele>1829</ele>
        <time>2010-01-01T14:52:39Z</time>
      </trkpt>
      <trkpt lat="46.20666" lon="6.79012">
        <ele>1828</ele>
        <time>2010-01-01T14:52:41Z</time>
      </trkpt>
      <trkpt lat="46.20669" lon="6.78996">
        <ele>1826</ele>
        <time>2010-01-01T14:52:46Z</time>
      </trkpt>
      <trkpt lat="46.20681" lon="6.78983">
        <ele>1825</ele>
        <time>2010-01-01T14:52:52Z</time>
      </trkpt>
      <trkpt lat="46.20688" lon="6.78977">
        <ele>1824</ele>
        <time>2010-01-01T14:52:55Z</time>
      </trkpt>
      <trkpt lat="46.20695" lon="6.78973">
        <ele>1824</ele>
        <time>2010-01-01T14:52:58Z</time>
      </trkpt>
      <trkpt lat="46.20698" lon="6.78963">
        <ele>1823</ele>
        <time>2010-01-01T14:53:01Z</time>
      </trkpt>
      <trkpt lat="46.20699" lon="6.7895">
        <ele>1822</ele>
        <time>2010-01-01T14:53:05Z</time>
      </trkpt>
      <trkpt lat="46.20703" lon="6.78928">
        <ele>1820</ele>
        <time>2010-01-01T14:53:12Z</time>
      </trkpt>
      <trkpt lat="46.20709" lon="6.78913">
        <ele>1812</ele>
        <time>2010-01-01T14:53:16Z</time>
      </trkpt>
      <trkpt lat="46.20715" lon="6.78896">
        <ele>1812</ele>
        <time>2010-01-01T14:53:22Z</time>
      </trkpt>
      <trkpt lat="46.20716" lon="6.78895">
        <ele>1812</ele>
        <time>2010-01-01T14:53:22Z</time>
      </trkpt>
      <trkpt lat="46.20724" lon="6.78874">
        <ele>1811</ele>
        <time>2010-01-01T14:53:29Z</time>
      </trkpt>
      <trkpt lat="46.20733" lon="6.78857">
        <ele>1810</ele>
        <time>2010-01-01T14:53:35Z</time>
      </trkpt>
      <trkpt lat="46.20741" lon="6.78848">
        <ele>1810</ele>
        <time>2010-01-01T14:53:39Z</time>
      </trkpt>
      <trkpt lat="46.20745" lon="6.78844">
        <ele>1809</ele>
        <time>2010-01-01T14:53:40Z</time>
      </trkpt>
      <trkpt lat="46.20743" lon="6.78837">
        <ele>1809</ele>
        <time>2010-01-01T14:53:42Z</time>
      </trkpt>
      <trkpt lat="46.20746" lon="6.78826">
        <ele>1806</ele>
        <time>2010-01-01T14:53:46Z</time>
      </trkpt>
      <trkpt lat="46.20749" lon="6.78818">
        <ele>1804</ele>
        <time>2010-01-01T14:53:48Z</time>
      </trkpt>
      <trkpt lat="46.20752" lon="6.78799">
        <ele>1805</ele>
        <time>2010-01-01T14:53:54Z</time>
      </trkpt>
      <trkpt lat="46.20752" lon="6.78791">
        <ele>1804</ele>
        <time>2010-01-01T14:53:56Z</time>
      </trkpt>
      <trkpt lat="46.20755" lon="6.7878">
        <ele>1803</ele>
        <time>2010-01-01T14:53:59Z</time>
      </trkpt>
      <trkpt lat="46.20767" lon="6.7877">
        <ele>1802</ele>
        <time>2010-01-01T14:54:05Z</time>
      </trkpt>
      <trkpt lat="46.20779" lon="6.78762">
        <ele>1802</ele>
        <time>2010-01-01T14:54:10Z</time>
      </trkpt>
      <trkpt lat="46.20787" lon="6.78756">
        <ele>1802</ele>
        <time>2010-01-01T14:54:14Z</time>
      </trkpt>
      <trkpt lat="46.20808" lon="6.78749">
        <ele>1788</ele>
        <time>2010-01-01T14:54:23Z</time>
      </trkpt>
      <trkpt lat="46.20845" lon="6.78729">
        <ele>1787</ele>
        <time>2010-01-01T14:54:38Z</time>
      </trkpt>
      <trkpt lat="46.20881" lon="6.7871">
        <ele>1783</ele>
        <time>2010-01-01T14:54:54Z</time>
      </trkpt>
      <trkpt lat="46.20896" lon="6.78697">
        <ele>1780</ele>
        <time>2010-01-01T14:55:01Z</time>
      </trkpt>
      <trkpt lat="46.20908" lon="6.78689">
        <ele>1778</ele>
        <time>2010-01-01T14:55:06Z</time>
      </trkpt>
      <trkpt lat="46.20915" lon="6.78685">
        <ele>1777</ele>
        <time>2010-01-01T14:55:09Z</time>
      </trkpt>
      <trkpt lat="46.20927" lon="6.78678">
        <ele>1780</ele>
        <time>2010-01-01T14:55:14Z</time>
      </trkpt>
      <trkpt lat="46.20937" lon="6.78683">
        <ele>1783</ele>
        <time>2010-01-01T14:55:18Z</time>
      </trkpt>
      <trkpt lat="46.2094" lon="6.78672">
        <ele>1782</ele>
        <time>2010-01-01T14:55:22Z</time>
      </trkpt>
      <trkpt lat="46.20943" lon="6.78645">
        <ele>1768</ele>
        <time>2010-01-01T14:55:29Z</time>
      </trkpt>
      <trkpt lat="46.20958" lon="6.78605">
        <ele>1764</ele>
        <time>2010-01-01T14:55:42Z</time>
      </trkpt>
      <trkpt lat="46.20976" lon="6.78587">
        <ele>1764</ele>
        <time>2010-01-01T14:55:51Z</time>
      </trkpt>
      <trkpt lat="46.21" lon="6.78577">
        <ele>1759</ele>
        <time>2010-01-01T14:56:01Z</time>
      </trkpt>
      <trkpt lat="46.2102" lon="6.7857">
        <ele>1763</ele>
        <time>2010-01-01T14:56:09Z</time>
      </trkpt>
      <trkpt lat="46.21051" lon="6.78511">
        <ele>1760</ele>
        <time>2010-01-01T14:56:30Z</time>
      </trkpt>
      <trkpt lat="46.21065" lon="6.78485">
        <ele>1747</ele>
        <time>2010-01-01T14:56:39Z</time>
      </trkpt>
      <trkpt lat="46.21074" lon="6.78453">
        <ele>1742</ele>
        <time>2010-01-01T14:56:48Z</time>
      </trkpt>
      <trkpt lat="46.21079" lon="6.78413">
        <ele>1741</ele>
        <time>2010-01-01T14:56:59Z</time>
      </trkpt>
      <trkpt lat="46.21086" lon="6.78387">
        <ele>1750</ele>
        <time>2010-01-01T14:57:07Z</time>
      </trkpt>
      <trkpt lat="46.21093" lon="6.78365">
        <ele>1747</ele>
        <time>2010-01-01T14:57:14Z</time>
      </trkpt>
      <trkpt lat="46.21096" lon="6.78346">
        <ele>1741</ele>
        <time>2010-01-01T14:57:19Z</time>
      </trkpt>
      <trkpt lat="46.21096" lon="6.78328">
        <ele>1729</ele>
        <time>2010-01-01T14:57:24Z</time>
      </trkpt>
      <trkpt lat="46.211" lon="6.78306">
        <ele>1730</ele>
        <time>2010-01-01T14:57:31Z</time>
      </trkpt>
      <trkpt lat="46.21119" lon="6.78251">
        <ele>1727</ele>
        <time>2010-01-01T14:57:48Z</time>
      </trkpt>
      <trkpt lat="46.2112" lon="6.78222">
        <ele>1714</ele>
        <time>2010-01-01T14:57:56Z</time>
      </trkpt>
      <trkpt lat="46.21121" lon="6.78216">
        <ele>1714</ele>
        <time>2010-01-01T14:57:57Z</time>
      </trkpt>
      <trkpt lat="46.21127" lon="6.78181">
        <ele>1712</ele>
        <time>2010-01-01T14:58:07Z</time>
      </trkpt>
      <trkpt lat="46.21134" lon="6.78148">
        <ele>1700</ele>
        <time>2010-01-01T14:58:17Z</time>
      </trkpt>
      <trkpt lat="46.21142" lon="6.78115">
        <ele>1697</ele>
        <time>2010-01-01T14:58:26Z</time>
      </trkpt>
      <trkpt lat="46.21145" lon="6.78085">
        <ele>1697</ele>
        <time>2010-01-01T14:58:35Z</time>
      </trkpt>
      <trkpt lat="46.21157" lon="6.7804">
        <ele>1679</ele>
        <time>2010-01-01T14:58:48Z</time>
      </trkpt>
      <trkpt lat="46.21167" lon="6.77993">
        <ele>1681</ele>
        <time>2010-01-01T14:59:02Z</time>
      </trkpt>
      <trkpt lat="46.21181" lon="6.77948">
        <ele>1676</ele>
        <time>2010-01-01T14:59:15Z</time>
      </trkpt>
      <trkpt lat="46.2119" lon="6.77907">
        <ele>1657</ele>
        <time>2010-01-01T14:59:27Z</time>
      </trkpt>
      <trkpt lat="46.21219" lon="6.77866">
        <ele>1656</ele>
        <time>2010-01-01T14:59:44Z</time>
      </trkpt>
      <trkpt lat="46.21248" lon="6.77816">
        <ele>1643</ele>
        <time>2010-01-01T15:00:02Z</time>
      </trkpt>
      <trkpt lat="46.21269" lon="6.77771">
        <ele>1649</ele>
        <time>2010-01-01T15:00:17Z</time>
      </trkpt>
      <trkpt lat="46.21273" lon="6.77754">
        <ele>1647</ele>
        <time>2010-01-01T15:00:22Z</time>
      </trkpt>
      <trkpt lat="46.21264" lon="6.77752">
        <ele>1642</ele>
        <time>2010-01-01T15:00:26Z</time>
      </trkpt>
      <trkpt lat="46.21248" lon="6.77752">
        <ele>1630</ele>
        <time>2010-01-01T15:00:32Z</time>
      </trkpt>
      <trkpt lat="46.21195" lon="6.77781">
        <ele>1627</ele>
        <time>2010-01-01T15:00:55Z</time>
      </trkpt>
      <trkpt lat="46.21121" lon="6.77828">
        <ele>1606</ele>
        <time>2010-01-01T15:01:27Z</time>
      </trkpt>
      <trkpt lat="46.21095" lon="6.77851">
        <ele>1613</ele>
        <time>2010-01-01T15:01:39Z</time>
      </trkpt>
      <trkpt lat="46.2107" lon="6.77863">
        <ele>1598</ele>
        <time>2010-01-01T15:01:50Z</time>
      </trkpt>
      <trkpt lat="46.21069" lon="6.77863">
        <ele>1598</ele>
        <time>2010-01-01T15:01:50Z</time>
      </trkpt>
      <trkpt lat="46.2105" lon="6.77872">
        <ele>1596</ele>
        <time>2010-01-01T15:01:58Z</time>
      </trkpt>
      <trkpt lat="46.21049" lon="6.77871">
        <ele>1596</ele>
        <time>2010-01-01T15:01:58Z</time>
      </trkpt>
      <trkpt lat="46.21047" lon="6.77873">
        <ele>1596</ele>
        <time>2010-01-01T15:01:59Z</time>
      </trkpt>
      <trkpt lat="46.2102" lon="6.77907">
        <ele>1592</ele>
        <time>2010-01-01T15:02:13Z</time>
      </trkpt>
      <trkpt lat="46.20941" lon="6.77998">
        <ele>1573</ele>
        <time>2010-01-01T15:02:54Z</time>
      </trkpt>
      <trkpt lat="46.20893" lon="6.78029">
        <ele>1562</ele>
        <time>2010-01-01T15:03:15Z</time>
      </trkpt>
      <trkpt lat="46.20835" lon="6.78053">
        <ele>1557</ele>
        <time>2010-01-01T15:03:39Z</time>
      </trkpt>
      <trkpt lat="46.20815" lon="6.78054">
        <ele>1544</ele>
        <time>2010-01-01T15:03:47Z</time>
      </trkpt>
      <trkpt lat="46.20785" lon="6.78052">
        <ele>1541</ele>
        <time>2010-01-01T15:03:59Z</time>
      </trkpt>
      <trkpt lat="46.20766" lon="6.78049">
        <ele>1539</ele>
        <time>2010-01-01T15:04:07Z</time>
      </trkpt>
      <trkpt lat="46.20747" lon="6.7805">
        <ele>1530</ele>
        <time>2010-01-01T15:04:15Z</time>
      </trkpt>
      <trkpt lat="46.20731" lon="6.78045">
        <ele>1529</ele>
        <time>2010-01-01T15:04:21Z</time>
      </trkpt>
      <trkpt lat="46.20728" lon="6.78011">
        <ele>1526</ele>
        <time>2010-01-01T15:04:31Z</time>
      </trkpt>
      <trkpt lat="46.20733" lon="6.77979">
        <ele>1519</ele>
        <time>2010-01-01T15:04:40Z</time>
      </trkpt>
      <trkpt lat="46.20742" lon="6.77935">
        <ele>1515</ele>
        <time>2010-01-01T15:04:53Z</time>
      </trkpt>
      <trkpt lat="46.20748" lon="6.77902">
        <ele>1511</ele>
        <time>2010-01-01T15:05:02Z</time>
      </trkpt>
      <trkpt lat="46.20746" lon="6.77887">
        <ele>1509</ele>
        <time>2010-01-01T15:05:06Z</time>
      </trkpt>
      <trkpt lat="46.20734" lon="6.77833">
        <ele>1504</ele>
        <time>2010-01-01T15:05:22Z</time>
      </trkpt>
      <trkpt lat="46.20714" lon="6.77791">
        <ele>1502</ele>
        <time>2010-01-01T15:05:36Z</time>
      </trkpt>
      <trkpt lat="46.20702" lon="6.77785">
        <ele>1502</ele>
        <time>2010-01-01T15:05:41Z</time>
      </trkpt>
      <trkpt lat="46.207" lon="6.77778">
        <ele>1502</ele>
        <time>2010-01-01T15:05:43Z</time>
      </trkpt>
      <trkpt lat="46.20698" lon="6.77764">
        <ele>1501</ele>
        <time>2010-01-01T15:05:47Z</time>
      </trkpt>
      <trkpt lat="46.207" lon="6.77745">
        <ele>1500</ele>
        <time>2010-01-01T15:05:52Z</time>
      </trkpt>
      <trkpt lat="46.20711" lon="6.7773">
        <ele>1500</ele>
        <time>2010-01-01T15:05:58Z</time>
      </trkpt>
      <trkpt lat="46.20717" lon="6.7772">
        <ele>1500</ele>
        <time>2010-01-01T15:06:02Z</time>
      </trkpt>
      <trkpt lat="46.20719" lon="6.77716">
        <ele>1500</ele>
        <time>2010-01-01T15:06:04Z</time>
      </trkpt>
      <trkpt lat="46.20722" lon="6.77713">
        <ele>1500</ele>
        <time>2010-01-01T15:06:05Z</time>
      </trkpt>
      <trkpt lat="46.20726" lon="6.7771">
        <ele>1500</ele>
        <time>2010-01-01T15:06:07Z</time>
      </trkpt>
      <trkpt lat="46.20734" lon="6.77705">
        <ele>1500</ele>
        <time>2010-01-01T15:06:10Z</time>
      </trkpt>
      <trkpt lat="46.20747" lon="6.77693">
        <ele>1500</ele>
        <time>2010-01-01T15:06:17Z</time>
      </trkpt>
      <trkpt lat="46.20761" lon="6.77679">
        <ele>1502</ele>
        <time>2010-01-01T15:06:23Z</time>
      </trkpt>
      <trkpt lat="46.20777" lon="6.77638">
        <ele>1502</ele>
        <time>2010-01-01T15:06:36Z</time>
      </trkpt>
      <trkpt lat="46.20798" lon="6.77616">
        <ele>1503</ele>
        <time>2010-01-01T15:06:47Z</time>
      </trkpt>
      <trkpt lat="46.20819" lon="6.776">
        <ele>1502</ele>
        <time>2010-01-01T15:06:56Z</time>
      </trkpt>
      <trkpt lat="46.20827" lon="6.77594">
        <ele>1501</ele>
        <time>2010-01-01T15:07:00Z</time>
      </trkpt>
      <trkpt lat="46.20843" lon="6.77591">
        <ele>1504</ele>
        <time>2010-01-01T15:07:06Z</time>
      </trkpt>
      <trkpt lat="46.20849" lon="6.77577">
        <ele>1503</ele>
        <time>2010-01-01T15:07:11Z</time>
      </trkpt>
      <trkpt lat="46.20855" lon="6.77566">
        <ele>1504</ele>
        <time>2010-01-01T15:07:14Z</time>
      </trkpt>
      <trkpt lat="46.20861" lon="6.77559">
        <ele>1505</ele>
        <time>2010-01-01T15:07:18Z</time>
      </trkpt>
      <trkpt lat="46.20868" lon="6.77553">
        <ele>1505</ele>
        <time>2010-01-01T15:07:21Z</time>
      </trkpt>
      <trkpt lat="46.20873" lon="6.77548">
        <ele>1505</ele>
        <time>2010-01-01T15:07:23Z</time>
      </trkpt>
      <trkpt lat="46.2088" lon="6.77546">
        <ele>1505</ele>
        <time>2010-01-01T15:07:26Z</time>
      </trkpt>
      <trkpt lat="46.20887" lon="6.77541">
        <ele>1505</ele>
        <time>2010-01-01T15:07:29Z</time>
      </trkpt>
      <trkpt lat="46.20894" lon="6.77534">
        <ele>1504</ele>
        <time>2010-01-01T15:07:33Z</time>
      </trkpt>
      <trkpt lat="46.20904" lon="6.77524">
        <ele>1503</ele>
        <time>2010-01-01T15:07:37Z</time>
      </trkpt>
      <trkpt lat="46.2091" lon="6.77509">
        <ele>1500</ele>
        <time>2010-01-01T15:07:42Z</time>
      </trkpt>
      <trkpt lat="46.20912" lon="6.77496">
        <ele>1498</ele>
        <time>2010-01-01T15:07:46Z</time>
      </trkpt>
      <trkpt lat="46.20913" lon="6.77485">
        <ele>1500</ele>
        <time>2010-01-01T15:07:49Z</time>
      </trkpt>
      <trkpt lat="46.20918" lon="6.77483">
        <ele>1494</ele>
        <time>2010-01-01T15:07:51Z</time>
      </trkpt>
      <trkpt lat="46.20925" lon="6.7748">
        <ele>1494</ele>
        <time>2010-01-01T15:07:54Z</time>
      </trkpt>
      <trkpt lat="46.20932" lon="6.77472">
        <ele>1493</ele>
        <time>2010-01-01T15:07:57Z</time>
      </trkpt>
      <trkpt lat="46.20938" lon="6.77463">
        <ele>1492</ele>
        <time>2010-01-01T15:08:01Z</time>
      </trkpt>
      <trkpt lat="46.20951" lon="6.77441">
        <ele>1490</ele>
        <time>2010-01-01T15:08:09Z</time>
      </trkpt>
      <trkpt lat="46.20961" lon="6.77435">
        <ele>1489</ele>
        <time>2010-01-01T15:08:13Z</time>
      </trkpt>
      <trkpt lat="46.20976" lon="6.77441">
        <ele>1488</ele>
        <time>2010-01-01T15:08:19Z</time>
      </trkpt>
      <trkpt lat="46.20989" lon="6.77442">
        <ele>1488</ele>
        <time>2010-01-01T15:08:25Z</time>
      </trkpt>
      <trkpt lat="46.20996" lon="6.77442">
        <ele>1487</ele>
        <time>2010-01-01T15:08:27Z</time>
      </trkpt>
      <trkpt lat="46.21004" lon="6.77441">
        <ele>1488</ele>
        <time>2010-01-01T15:08:31Z</time>
      </trkpt>
      <trkpt lat="46.21013" lon="6.77438">
        <ele>1488</ele>
        <time>2010-01-01T15:08:34Z</time>
      </trkpt>
      <trkpt lat="46.21023" lon="6.77437">
        <ele>1489</ele>
        <time>2010-01-01T15:08:38Z</time>
      </trkpt>
      <trkpt lat="46.21033" lon="6.77434">
        <ele>1490</ele>
        <time>2010-01-01T15:08:42Z</time>
      </trkpt>
      <trkpt lat="46.21042" lon="6.77432">
        <ele>1490</ele>
        <time>2010-01-01T15:08:46Z</time>
      </trkpt>
      <trkpt lat="46.21048" lon="6.77425">
        <ele>1489</ele>
        <time>2010-01-01T15:08:49Z</time>
      </trkpt>
      <trkpt lat="46.21059" lon="6.77419">
        <ele>1487</ele>
        <time>2010-01-01T15:08:54Z</time>
      </trkpt>
      <trkpt lat="46.2107" lon="6.77416">
        <ele>1477</ele>
        <time>2010-01-01T15:08:59Z</time>
      </trkpt>
      <trkpt lat="46.21078" lon="6.77411">
        <ele>1477</ele>
        <time>2010-01-01T15:09:02Z</time>
      </trkpt>
      <trkpt lat="46.21086" lon="6.77405">
        <ele>1480</ele>
        <time>2010-01-01T15:09:05Z</time>
      </trkpt>
      <trkpt lat="46.21092" lon="6.77396">
        <ele>1481</ele>
        <time>2010-01-01T15:09:09Z</time>
      </trkpt>
      <trkpt lat="46.21099" lon="6.77384">
        <ele>1481</ele>
        <time>2010-01-01T15:09:13Z</time>
      </trkpt>
      <trkpt lat="46.211" lon="6.77368">
        <ele>1479</ele>
        <time>2010-01-01T15:09:18Z</time>
      </trkpt>
      <trkpt lat="46.21093" lon="6.77355">
        <ele>1476</ele>
        <time>2010-01-01T15:09:22Z</time>
      </trkpt>
      <trkpt lat="46.2108" lon="6.77354">
        <ele>1471</ele>
        <time>2010-01-01T15:09:28Z</time>
      </trkpt>
      <trkpt lat="46.21062" lon="6.77355">
        <ele>1471</ele>
        <time>2010-01-01T15:09:35Z</time>
      </trkpt>
      <trkpt lat="46.21046" lon="6.77357">
        <ele>1471</ele>
        <time>2010-01-01T15:09:41Z</time>
      </trkpt>
      <trkpt lat="46.21035" lon="6.77356">
        <ele>1471</ele>
        <time>2010-01-01T15:09:46Z</time>
      </trkpt>
      <trkpt lat="46.21021" lon="6.77347">
        <ele>1470</ele>
        <time>2010-01-01T15:09:52Z</time>
      </trkpt>
      <trkpt lat="46.21007" lon="6.77332">
        <ele>1464</ele>
        <time>2010-01-01T15:09:59Z</time>
      </trkpt>
      <trkpt lat="46.21008" lon="6.77316">
        <ele>1462</ele>
        <time>2010-01-01T15:10:03Z</time>
      </trkpt>
      <trkpt lat="46.2102" lon="6.7731">
        <ele>1461</ele>
        <time>2010-01-01T15:10:08Z</time>
      </trkpt>
      <trkpt lat="46.21021" lon="6.77308">
        <ele>1461</ele>
        <time>2010-01-01T15:10:09Z</time>
      </trkpt>
      <trkpt lat="46.21033" lon="6.77302">
        <ele>1460</ele>
        <time>2010-01-01T15:10:14Z</time>
      </trkpt>
      <trkpt lat="46.21046" lon="6.77296">
        <ele>1460</ele>
        <time>2010-01-01T15:10:19Z</time>
      </trkpt>
      <trkpt lat="46.21063" lon="6.77295">
        <ele>1460</ele>
        <time>2010-01-01T15:10:26Z</time>
      </trkpt>
      <trkpt lat="46.21077" lon="6.77299">
        <ele>1461</ele>
        <time>2010-01-01T15:10:31Z</time>
      </trkpt>
      <trkpt lat="46.21089" lon="6.77301">
        <ele>1463</ele>
        <time>2010-01-01T15:10:36Z</time>
      </trkpt>
      <trkpt lat="46.21106" lon="6.7729">
        <ele>1462</ele>
        <time>2010-01-01T15:10:44Z</time>
      </trkpt>
      <trkpt lat="46.21122" lon="6.77269">
        <ele>1460</ele>
        <time>2010-01-01T15:10:52Z</time>
      </trkpt>
      <trkpt lat="46.2114" lon="6.77251">
        <ele>1458</ele>
        <time>2010-01-01T15:11:01Z</time>
      </trkpt>
      <trkpt lat="46.21157" lon="6.7723">
        <ele>1444</ele>
        <time>2010-01-01T15:11:10Z</time>
      </trkpt>
      <trkpt lat="46.2117" lon="6.77214">
        <ele>1444</ele>
        <time>2010-01-01T15:11:17Z</time>
      </trkpt>
      <trkpt lat="46.21185" lon="6.77202">
        <ele>1441</ele>
        <time>2010-01-01T15:11:24Z</time>
      </trkpt>
      <trkpt lat="46.21199" lon="6.77192">
        <ele>1441</ele>
        <time>2010-01-01T15:11:30Z</time>
      </trkpt>
      <trkpt lat="46.21215" lon="6.77182">
        <ele>1440</ele>
        <time>2010-01-01T15:11:37Z</time>
      </trkpt>
      <trkpt lat="46.21232" lon="6.77175">
        <ele>1439</ele>
        <time>2010-01-01T15:11:44Z</time>
      </trkpt>
      <trkpt lat="46.21253" lon="6.77165">
        <ele>1431</ele>
        <time>2010-01-01T15:11:53Z</time>
      </trkpt>
      <trkpt lat="46.21274" lon="6.77163">
        <ele>1424</ele>
        <time>2010-01-01T15:12:01Z</time>
      </trkpt>
      <trkpt lat="46.21291" lon="6.77161">
        <ele>1424</ele>
        <time>2010-01-01T15:12:08Z</time>
      </trkpt>
      <trkpt lat="46.21313" lon="6.77154">
        <ele>1426</ele>
        <time>2010-01-01T15:12:17Z</time>
      </trkpt>
      <trkpt lat="46.21327" lon="6.77151">
        <ele>1428</ele>
        <time>2010-01-01T15:12:23Z</time>
      </trkpt>
      <trkpt lat="46.21353" lon="6.77143">
        <ele>1430</ele>
        <time>2010-01-01T15:12:34Z</time>
      </trkpt>
      <trkpt lat="46.21372" lon="6.77125">
        <ele>1427</ele>
        <time>2010-01-01T15:12:43Z</time>
      </trkpt>
      <trkpt lat="46.21383" lon="6.77111">
        <ele>1424</ele>
        <time>2010-01-01T15:12:49Z</time>
      </trkpt>
      <trkpt lat="46.21418" lon="6.77088">
        <ele>1421</ele>
        <time>2010-01-01T15:13:04Z</time>
      </trkpt>
      <trkpt lat="46.21436" lon="6.77076">
        <ele>1418</ele>
        <time>2010-01-01T15:13:12Z</time>
      </trkpt>
      <trkpt lat="46.21448" lon="6.77066">
        <ele>1421</ele>
        <time>2010-01-01T15:13:17Z</time>
      </trkpt>
      <trkpt lat="46.21453" lon="6.77059">
        <ele>1422</ele>
        <time>2010-01-01T15:13:20Z</time>
      </trkpt>
      <trkpt lat="46.21453" lon="6.77059">
        <ele>1422</ele>
        <time>2010-01-01T15:13:21Z</time>
      </trkpt>
      <trkpt lat="46.21453" lon="6.77053">
        <ele>1421</ele>
        <time>2010-01-01T15:13:22Z</time>
      </trkpt>
      <trkpt lat="46.21454" lon="6.77044">
        <ele>1420</ele>
        <time>2010-01-01T15:13:25Z</time>
      </trkpt>
      <trkpt lat="46.21453" lon="6.77043">
        <ele>1420</ele>
        <time>2010-01-01T15:13:25Z</time>
      </trkpt>
      <trkpt lat="46.21455" lon="6.7705">
        <ele>1421</ele>
        <time>2010-01-01T15:13:27Z</time>
      </trkpt>
      <trkpt lat="46.21454" lon="6.77042">
        <ele>1420</ele>
        <time>2010-01-01T15:13:29Z</time>
      </trkpt>
      <trkpt lat="46.21442" lon="6.77042">
        <ele>1417</ele>
        <time>2010-01-01T15:13:34Z</time>
      </trkpt>
      <trkpt lat="46.21406" lon="6.77066">
        <ele>1402</ele>
        <time>2010-01-01T15:13:50Z</time>
      </trkpt>
      <trkpt lat="46.21375" lon="6.77072">
        <ele>1397</ele>
        <time>2010-01-01T15:14:02Z</time>
      </trkpt>
      <trkpt lat="46.21351" lon="6.77088">
        <ele>1412</ele>
        <time>2010-01-01T15:14:13Z</time>
      </trkpt>
      <trkpt lat="46.21337" lon="6.77102">
        <ele>1413</ele>
        <time>2010-01-01T15:14:20Z</time>
      </trkpt>
      <trkpt lat="46.2133" lon="6.77102">
        <ele>1408</ele>
        <time>2010-01-01T15:14:23Z</time>
      </trkpt>
      <trkpt lat="46.21332" lon="6.77086">
        <ele>1400</ele>
        <time>2010-01-01T15:14:27Z</time>
      </trkpt>
      <trkpt lat="46.21353" lon="6.77058">
        <ele>1394</ele>
        <time>2010-01-01T15:14:39Z</time>
      </trkpt>
      <trkpt lat="46.21377" lon="6.77042">
        <ele>1393</ele>
        <time>2010-01-01T15:14:49Z</time>
      </trkpt>
      <trkpt lat="46.21395" lon="6.77028">
        <ele>1393</ele>
        <time>2010-01-01T15:14:58Z</time>
      </trkpt>
      <trkpt lat="46.21407" lon="6.77008">
        <ele>1391</ele>
        <time>2010-01-01T15:15:05Z</time>
      </trkpt>
      <trkpt lat="46.21414" lon="6.7699">
        <ele>1384</ele>
        <time>2010-01-01T15:15:10Z</time>
      </trkpt>
      <trkpt lat="46.21418" lon="6.76969">
        <ele>1394</ele>
        <time>2010-01-01T15:15:17Z</time>
      </trkpt>
      <trkpt lat="46.21424" lon="6.76959">
        <ele>1394</ele>
        <time>2010-01-01T15:15:20Z</time>
      </trkpt>
      <trkpt lat="46.21434" lon="6.7694">
        <ele>1392</ele>
        <time>2010-01-01T15:15:27Z</time>
      </trkpt>
      <trkpt lat="46.21444" lon="6.76922">
        <ele>1393</ele>
        <time>2010-01-01T15:15:33Z</time>
      </trkpt>
      <trkpt lat="46.21451" lon="6.76908">
        <ele>1384</ele>
        <time>2010-01-01T15:15:38Z</time>
      </trkpt>
      <trkpt lat="46.2146" lon="6.76899">
        <ele>1386</ele>
        <time>2010-01-01T15:15:42Z</time>
      </trkpt>
      <trkpt lat="46.21463" lon="6.769">
        <ele>1388</ele>
        <time>2010-01-01T15:15:44Z</time>
      </trkpt>
      <trkpt lat="46.21472" lon="6.76888">
        <ele>1389</ele>
        <time>2010-01-01T15:15:49Z</time>
      </trkpt>
      <trkpt lat="46.21469" lon="6.76875">
        <ele>1385</ele>
        <time>2010-01-01T15:15:52Z</time>
      </trkpt>
      <trkpt lat="46.21457" lon="6.76877">
        <ele>1382</ele>
        <time>2010-01-01T15:15:57Z</time>
      </trkpt>
      <trkpt lat="46.21437" lon="6.76892">
        <ele>1379</ele>
        <time>2010-01-01T15:16:06Z</time>
      </trkpt>
      <trkpt lat="46.21404" lon="6.76917">
        <ele>1372</ele>
        <time>2010-01-01T15:16:21Z</time>
      </trkpt>
      <trkpt lat="46.21388" lon="6.76933">
        <ele>1372</ele>
        <time>2010-01-01T15:16:29Z</time>
      </trkpt>
      <trkpt lat="46.21387" lon="6.76933">
        <ele>1372</ele>
        <time>2010-01-01T15:16:29Z</time>
      </trkpt>
      <trkpt lat="46.2137" lon="6.76945">
        <ele>1372</ele>
        <time>2010-01-01T15:16:37Z</time>
      </trkpt>
      <trkpt lat="46.21366" lon="6.76939">
        <ele>1371</ele>
        <time>2010-01-01T15:16:39Z</time>
      </trkpt>
      <trkpt lat="46.21375" lon="6.7692">
        <ele>1370</ele>
        <time>2010-01-01T15:16:46Z</time>
      </trkpt>
      <trkpt lat="46.21389" lon="6.76899">
        <ele>1359</ele>
        <time>2010-01-01T15:16:54Z</time>
      </trkpt>
      <trkpt lat="46.214" lon="6.76876">
        <ele>1356</ele>
        <time>2010-01-01T15:17:02Z</time>
      </trkpt>
      <trkpt lat="46.21414" lon="6.76834">
        <ele>1349</ele>
        <time>2010-01-01T15:17:14Z</time>
      </trkpt>
      <trkpt lat="46.21434" lon="6.76791">
        <ele>1357</ele>
        <time>2010-01-01T15:17:29Z</time>
      </trkpt>
      <trkpt lat="46.21442" lon="6.7677">
        <ele>1356</ele>
        <time>2010-01-01T15:17:35Z</time>
      </trkpt>
      <trkpt lat="46.21462" lon="6.76752">
        <ele>1359</ele>
        <time>2010-01-01T15:17:45Z</time>
      </trkpt>
      <trkpt lat="46.21477" lon="6.76742">
        <ele>1355</ele>
        <time>2010-01-01T15:17:52Z</time>
      </trkpt>
      <trkpt lat="46.21494" lon="6.76729">
        <ele>1356</ele>
        <time>2010-01-01T15:17:59Z</time>
      </trkpt>
      <trkpt lat="46.21495" lon="6.76713">
        <ele>1353</ele>
        <time>2010-01-01T15:18:04Z</time>
      </trkpt>
      <trkpt lat="46.21495" lon="6.76712">
        <ele>1353</ele>
        <time>2010-01-01T15:18:04Z</time>
      </trkpt>
      <trkpt lat="46.21482" lon="6.76702">
        <ele>1352</ele>
        <time>2010-01-01T15:18:10Z</time>
      </trkpt>
      <trkpt lat="46.21459" lon="6.76684">
        <ele>1348</ele>
        <time>2010-01-01T15:18:20Z</time>
      </trkpt>
      <trkpt lat="46.21455" lon="6.76671">
        <ele>1347</ele>
        <time>2010-01-01T15:18:24Z</time>
      </trkpt>
      <trkpt lat="46.21458" lon="6.76654">
        <ele>1336</ele>
        <time>2010-01-01T15:18:29Z</time>
      </trkpt>
      <trkpt lat="46.21467" lon="6.76622">
        <ele>1333</ele>
        <time>2010-01-01T15:18:39Z</time>
      </trkpt>
      <trkpt lat="46.2148" lon="6.76593">
        <ele>1330</ele>
        <time>2010-01-01T15:18:48Z</time>
      </trkpt>
      <trkpt lat="46.21468" lon="6.76571">
        <ele>1312</ele>
        <time>2010-01-01T15:18:56Z</time>
      </trkpt>
      <trkpt lat="46.21466" lon="6.76557">
        <ele>1309</ele>
        <time>2010-01-01T15:19:00Z</time>
      </trkpt>
      <trkpt lat="46.21473" lon="6.76552">
        <ele>1310</ele>
        <time>2010-01-01T15:19:03Z</time>
      </trkpt>
      <trkpt lat="46.21487" lon="6.76566">
        <ele>1316</ele>
        <time>2010-01-01T15:19:10Z</time>
      </trkpt>
      <trkpt lat="46.21502" lon="6.76584">
        <ele>1333</ele>
        <time>2010-01-01T15:19:17Z</time>
      </trkpt>
      <trkpt lat="46.21512" lon="6.76589">
        <ele>1346</ele>
        <time>2010-01-01T15:19:22Z</time>
      </trkpt>
      <trkpt lat="46.21515" lon="6.76574">
        <ele>1339</ele>
        <time>2010-01-01T15:19:26Z</time>
      </trkpt>
      <trkpt lat="46.21508" lon="6.76558">
        <ele>1339</ele>
        <time>2010-01-01T15:19:31Z</time>
      </trkpt>
      <trkpt lat="46.21507" lon="6.76557">
        <ele>1339</ele>
        <time>2010-01-01T15:19:32Z</time>
      </trkpt>
      <trkpt lat="46.21499" lon="6.76544">
        <ele>1312</ele>
        <time>2010-01-01T15:19:37Z</time>
      </trkpt>
      <trkpt lat="46.2151" lon="6.76528">
        <ele>1335</ele>
        <time>2010-01-01T15:19:43Z</time>
      </trkpt>
      <trkpt lat="46.21528" lon="6.76517">
        <ele>1339</ele>
        <time>2010-01-01T15:19:51Z</time>
      </trkpt>
      <trkpt lat="46.21545" lon="6.76478">
        <ele>1326</ele>
        <time>2010-01-01T15:20:04Z</time>
      </trkpt>
      <trkpt lat="46.21565" lon="6.76429">
        <ele>1325</ele>
        <time>2010-01-01T15:20:19Z</time>
      </trkpt>
      <trkpt lat="46.21576" lon="6.76389">
        <ele>1305</ele>
        <time>2010-01-01T15:20:31Z</time>
      </trkpt>
      <trkpt lat="46.21583" lon="6.76357">
        <ele>1299</ele>
        <time>2010-01-01T15:20:41Z</time>
      </trkpt>
      <trkpt lat="46.21575" lon="6.76353">
        <ele>1298</ele>
        <time>2010-01-01T15:20:44Z</time>
      </trkpt>
      <trkpt lat="46.21564" lon="6.76373">
        <ele>1298</ele>
        <time>2010-01-01T15:20:51Z</time>
      </trkpt>
      <trkpt lat="46.21556" lon="6.76401">
        <ele>1302</ele>
        <time>2010-01-01T15:20:59Z</time>
      </trkpt>
      <trkpt lat="46.2153" lon="6.76435">
        <ele>1313</ele>
        <time>2010-01-01T15:21:13Z</time>
      </trkpt>
      <trkpt lat="46.21514" lon="6.76452">
        <ele>1312</ele>
        <time>2010-01-01T15:21:22Z</time>
      </trkpt>
      <trkpt lat="46.21482" lon="6.76466">
        <ele>1284</ele>
        <time>2010-01-01T15:21:35Z</time>
      </trkpt>
      <trkpt lat="46.2145" lon="6.76492">
        <ele>1280</ele>
        <time>2010-01-01T15:21:50Z</time>
      </trkpt>
      <trkpt lat="46.21414" lon="6.76524">
        <ele>1276</ele>
        <time>2010-01-01T15:22:07Z</time>
      </trkpt>
      <trkpt lat="46.2141" lon="6.7653">
        <ele>1277</ele>
        <time>2010-01-01T15:22:09Z</time>
      </trkpt>
      <trkpt lat="46.21387" lon="6.7656">
        <ele>1282</ele>
        <time>2010-01-01T15:22:21Z</time>
      </trkpt>
      <trkpt lat="46.21365" lon="6.76579">
        <ele>1278</ele>
        <time>2010-01-01T15:22:31Z</time>
      </trkpt>
      <trkpt lat="46.21349" lon="6.76585">
        <ele>1285</ele>
        <time>2010-01-01T15:22:38Z</time>
      </trkpt>
      <trkpt lat="46.21357" lon="6.76561">
        <ele>1275</ele>
        <time>2010-01-01T15:22:46Z</time>
      </trkpt>
      <trkpt lat="46.21405" lon="6.76505">
        <ele>1273</ele>
        <time>2010-01-01T15:23:10Z</time>
      </trkpt>
      <trkpt lat="46.21407" lon="6.76503">
        <ele>1273</ele>
        <time>2010-01-01T15:23:11Z</time>
      </trkpt>
      <trkpt lat="46.21456" lon="6.76423">
        <ele>1272</ele>
        <time>2010-01-01T15:23:41Z</time>
      </trkpt>
      <trkpt lat="46.21486" lon="6.76357">
        <ele>1257</ele>
        <time>2010-01-01T15:24:03Z</time>
      </trkpt>
      <trkpt lat="46.21511" lon="6.7632">
        <ele>1263</ele>
        <time>2010-01-01T15:24:17Z</time>
      </trkpt>
      <trkpt lat="46.21525" lon="6.76254">
        <ele>1260</ele>
        <time>2010-01-01T15:24:36Z</time>
      </trkpt>
      <trkpt lat="46.2153" lon="6.76205">
        <ele>1248</ele>
        <time>2010-01-01T15:24:50Z</time>
      </trkpt>
      <trkpt lat="46.21553" lon="6.76148">
        <ele>1241</ele>
        <time>2010-01-01T15:25:08Z</time>
      </trkpt>
      <trkpt lat="46.21562" lon="6.76106">
        <ele>1239</ele>
        <time>2010-01-01T15:25:20Z</time>
      </trkpt>
      <trkpt lat="46.21556" lon="6.7607">
        <ele>1232</ele>
        <time>2010-01-01T15:25:31Z</time>
      </trkpt>
      <trkpt lat="46.21574" lon="6.7603">
        <ele>1232</ele>
        <time>2010-01-01T15:25:44Z</time>
      </trkpt>
      <trkpt lat="46.21583" lon="6.75968">
        <ele>1226</ele>
        <time>2010-01-01T15:26:01Z</time>
      </trkpt>
      <trkpt lat="46.21573" lon="6.75907">
        <ele>1221</ele>
        <time>2010-01-01T15:26:19Z</time>
      </trkpt>
      <trkpt lat="46.21534" lon="6.75769">
        <ele>1210</ele>
        <time>2010-01-01T15:27:00Z</time>
      </trkpt>
      <trkpt lat="46.21522" lon="6.75737">
        <ele>1209</ele>
        <time>2010-01-01T15:27:10Z</time>
      </trkpt>
      <trkpt lat="46.21512" lon="6.75704">
        <ele>1210</ele>
        <time>2010-01-01T15:27:20Z</time>
      </trkpt>
      <trkpt lat="46.21512" lon="6.75703">
        <ele>1210</ele>
        <time>2010-01-01T15:27:20Z</time>
      </trkpt>
      <trkpt lat="46.21501" lon="6.75656">
        <ele>1208</ele>
        <time>2010-01-01T15:27:34Z</time>
      </trkpt>
      <trkpt lat="46.21497" lon="6.75626">
        <ele>1212</ele>
        <time>2010-01-01T15:27:43Z</time>
      </trkpt>
      <trkpt lat="46.2149" lon="6.75581">
        <ele>1208</ele>
        <time>2010-01-01T15:27:55Z</time>
      </trkpt>
      <trkpt lat="46.21493" lon="6.75532">
        <ele>1205</ele>
        <time>2010-01-01T15:28:09Z</time>
      </trkpt>
      <trkpt lat="46.21501" lon="6.75488">
        <ele>1206</ele>
        <time>2010-01-01T15:28:22Z</time>
      </trkpt>
      <trkpt lat="46.21518" lon="6.75437">
        <ele>1205</ele>
        <time>2010-01-01T15:28:37Z</time>
      </trkpt>
      <trkpt lat="46.21519" lon="6.75387">
        <ele>1202</ele>
        <time>2010-01-01T15:28:51Z</time>
      </trkpt>
      <trkpt lat="46.21526" lon="6.75331">
        <ele>1199</ele>
        <time>2010-01-01T15:29:07Z</time>
      </trkpt>
      <trkpt lat="46.21537" lon="6.75281">
        <ele>1204</ele>
        <time>2010-01-01T15:29:21Z</time>
      </trkpt>
      <trkpt lat="46.21508" lon="6.75122">
        <ele>1203</ele>
        <time>2010-01-01T15:30:07Z</time>
      </trkpt>
      <trkpt lat="46.21486" lon="6.75059">
        <ele>1184</ele>
        <time>2010-01-01T15:30:26Z</time>
      </trkpt>
      <trkpt lat="46.21463" lon="6.74996">
        <ele>1188</ele>
        <time>2010-01-01T15:30:46Z</time>
      </trkpt>
      <trkpt lat="46.21429" lon="6.7491">
        <ele>1185</ele>
        <time>2010-01-01T15:31:14Z</time>
      </trkpt>
      <trkpt lat="46.21399" lon="6.74845">
        <ele>1171</ele>
        <time>2010-01-01T15:31:35Z</time>
      </trkpt>
      <trkpt lat="46.21332" lon="6.74736">
        <ele>1151</ele>
        <time>2010-01-01T15:32:15Z</time>
      </trkpt>
      <trkpt lat="46.21279" lon="6.74618">
        <ele>1153</ele>
        <time>2010-01-01T15:32:54Z</time>
      </trkpt>
      <trkpt lat="46.21262" lon="6.74557">
        <ele>1155</ele>
        <time>2010-01-01T15:33:13Z</time>
      </trkpt>
      <trkpt lat="46.21259" lon="6.74508">
        <ele>1150</ele>
        <time>2010-01-01T15:33:26Z</time>
      </trkpt>
      <trkpt lat="46.21217" lon="6.7434">
        <ele>1129</ele>
        <time>2010-01-01T15:34:16Z</time>
      </trkpt>
      <trkpt lat="46.21193" lon="6.74243">
        <ele>1129</ele>
        <time>2010-01-01T15:34:44Z</time>
      </trkpt>
      <trkpt lat="46.21163" lon="6.74166">
        <ele>1119</ele>
        <time>2010-01-01T15:35:09Z</time>
      </trkpt>
      <trkpt lat="46.21152" lon="6.74069">
        <ele>1112</ele>
        <time>2010-01-01T15:35:36Z</time>
      </trkpt>
      <trkpt lat="46.21122" lon="6.73951">
        <ele>1106</ele>
        <time>2010-01-01T15:36:11Z</time>
      </trkpt>
      <trkpt lat="46.21111" lon="6.73814">
        <ele>1107</ele>
        <time>2010-01-01T15:36:49Z</time>
      </trkpt>
      <trkpt lat="46.21109" lon="6.73736">
        <ele>1108</ele>
        <time>2010-01-01T15:37:11Z</time>
      </trkpt>
      <trkpt lat="46.21098" lon="6.73588">
        <ele>1105</ele>
        <time>2010-01-01T15:37:52Z</time>
      </trkpt>
      <trkpt lat="46.21088" lon="6.73516">
        <ele>1107</ele>
        <time>2010-01-01T15:38:12Z</time>
      </trkpt>
      <trkpt lat="46.21081" lon="6.7348">
        <ele>1088</ele>
        <time>2010-01-01T15:38:23Z</time>
      </trkpt>
      <trkpt lat="46.21072" lon="6.7345">
        <ele>1087</ele>
        <time>2010-01-01T15:38:32Z</time>
      </trkpt>
      <trkpt lat="46.21051" lon="6.73556">
        <ele>1081</ele>
        <time>2010-01-01T15:39:02Z</time>
      </trkpt>
      <trkpt lat="46.21032" lon="6.7365">
        <ele>1079</ele>
        <time>2010-01-01T15:39:29Z</time>
      </trkpt>
      <trkpt lat="46.20991" lon="6.73691">
        <ele>1079</ele>
        <time>2010-01-01T15:39:49Z</time>
      </trkpt>
      <trkpt lat="46.20946" lon="6.73701">
        <ele>1083</ele>
        <time>2010-01-01T15:40:08Z</time>
      </trkpt>
      <trkpt lat="46.20891" lon="6.73669">
        <ele>1094</ele>
        <time>2010-01-01T15:40:31Z</time>
      </trkpt>
      <trkpt lat="46.20872" lon="6.736">
        <ele>1084</ele>
        <time>2010-01-01T15:40:52Z</time>
      </trkpt>
      <trkpt lat="46.20856" lon="6.7357">
        <ele>1080</ele>
        <time>2010-01-01T15:41:03Z</time>
      </trkpt>
      <trkpt lat="46.2082" lon="6.73543">
        <ele>1099</ele>
        <time>2010-01-01T15:41:19Z</time>
      </trkpt>
      <trkpt lat="46.20812" lon="6.73475">
        <ele>1094</ele>
        <time>2010-01-01T15:41:38Z</time>
      </trkpt>
      <trkpt lat="46.20804" lon="6.73424">
        <ele>1094</ele>
        <time>2010-01-01T15:41:52Z</time>
      </trkpt>
      <trkpt lat="46.20814" lon="6.73354">
        <ele>1084</ele>
        <time>2010-01-01T15:42:12Z</time>
      </trkpt>
      <trkpt lat="46.20789" lon="6.73229">
        <ele>1083</ele>
        <time>2010-01-01T15:42:48Z</time>
      </trkpt>
      <trkpt lat="46.20764" lon="6.73177">
        <ele>1088</ele>
        <time>2010-01-01T15:43:06Z</time>
      </trkpt>
      <trkpt lat="46.2075" lon="6.73106">
        <ele>1115</ele>
        <time>2010-01-01T15:43:26Z</time>
      </trkpt>
      <trkpt lat="46.20762" lon="6.73047">
        <ele>1089</ele>
        <time>2010-01-01T15:43:43Z</time>
      </trkpt>
      <trkpt lat="46.20759" lon="6.72957">
        <ele>1084</ele>
        <time>2010-01-01T15:44:08Z</time>
      </trkpt>
      <trkpt lat="46.2075" lon="6.72843">
        <ele>1095</ele>
        <time>2010-01-01T15:44:40Z</time>
      </trkpt>
      <trkpt lat="46.2075" lon="6.72712">
        <ele>1108</ele>
        <time>2010-01-01T15:45:16Z</time>
      </trkpt>
      <trkpt lat="46.20747" lon="6.72628">
        <ele>1105</ele>
        <time>2010-01-01T15:45:40Z</time>
      </trkpt>
      <trkpt lat="46.20745" lon="6.72563">
        <ele>1104</ele>
        <time>2010-01-01T15:45:58Z</time>
      </trkpt>
      <trkpt lat="46.20741" lon="6.72521">
        <ele>1108</ele>
        <time>2010-01-01T15:46:09Z</time>
      </trkpt>
      <trkpt lat="46.20748" lon="6.72455">
        <ele>1113</ele>
        <time>2010-01-01T15:46:28Z</time>
      </trkpt>
      <trkpt lat="46.20763" lon="6.72415">
        <ele>1092</ele>
        <time>2010-01-01T15:46:40Z</time>
      </trkpt>
      <trkpt lat="46.20763" lon="6.72356">
        <ele>1083</ele>
        <time>2010-01-01T15:46:57Z</time>
      </trkpt>
      <trkpt lat="46.20763" lon="6.72354">
        <ele>1083</ele>
        <time>2010-01-01T15:46:57Z</time>
      </trkpt>
      <trkpt lat="46.20748" lon="6.72207">
        <ele>1092</ele>
        <time>2010-01-01T15:47:39Z</time>
      </trkpt>
      <trkpt lat="46.20744" lon="6.7213">
        <ele>1093</ele>
        <time>2010-01-01T15:48:00Z</time>
      </trkpt>
      <trkpt lat="46.20745" lon="6.72083">
        <ele>1088</ele>
        <time>2010-01-01T15:48:13Z</time>
      </trkpt>
      <trkpt lat="46.20792" lon="6.72051">
        <ele>1082</ele>
        <time>2010-01-01T15:48:34Z</time>
      </trkpt>
      <trkpt lat="46.20823" lon="6.72037">
        <ele>1081</ele>
        <time>2010-01-01T15:48:47Z</time>
      </trkpt>
      <trkpt lat="46.20841" lon="6.72013">
        <ele>1081</ele>
        <time>2010-01-01T15:48:57Z</time>
      </trkpt>
      <trkpt lat="46.20869" lon="6.71968">
        <ele>1090</ele>
        <time>2010-01-01T15:49:13Z</time>
      </trkpt>
      <trkpt lat="46.20883" lon="6.71944">
        <ele>1092</ele>
        <time>2010-01-01T15:49:22Z</time>
      </trkpt>
      <trkpt lat="46.20881" lon="6.71908">
        <ele>1097</ele>
        <time>2010-01-01T15:49:32Z</time>
      </trkpt>
      <trkpt lat="46.20862" lon="6.71822">
        <ele>1094</ele>
        <time>2010-01-01T15:49:57Z</time>
      </trkpt>
      <trkpt lat="46.2085" lon="6.7177">
        <ele>1091</ele>
        <time>2010-01-01T15:50:12Z</time>
      </trkpt>
      <trkpt lat="46.20846" lon="6.71716">
        <ele>1091</ele>
        <time>2010-01-01T15:50:27Z</time>
      </trkpt>
      <trkpt lat="46.2082" lon="6.71624">
        <ele>1070</ele>
        <time>2010-01-01T15:50:55Z</time>
      </trkpt>
      <trkpt lat="46.20781" lon="6.71587">
        <ele>1065</ele>
        <time>2010-01-01T15:51:13Z</time>
      </trkpt>
      <trkpt lat="46.20742" lon="6.71583">
        <ele>1055</ele>
        <time>2010-01-01T15:51:29Z</time>
      </trkpt>
      <trkpt lat="46.20723" lon="6.71558">
        <ele>1054</ele>
        <time>2010-01-01T15:51:39Z</time>
      </trkpt>
      <trkpt lat="46.20711" lon="6.71512">
        <ele>1051</ele>
        <time>2010-01-01T15:51:53Z</time>
      </trkpt>
      <trkpt lat="46.20693" lon="6.7143">
        <ele>1035</ele>
        <time>2010-01-01T15:52:17Z</time>
      </trkpt>
      <trkpt lat="46.20684" lon="6.71355">
        <ele>1023</ele>
        <time>2010-01-01T15:52:38Z</time>
      </trkpt>
      <trkpt lat="46.20679" lon="6.71295">
        <ele>1015</ele>
        <time>2010-01-01T15:52:55Z</time>
      </trkpt>
      <trkpt lat="46.20681" lon="6.71238">
        <ele>1007</ele>
        <time>2010-01-01T15:53:10Z</time>
      </trkpt>
      <trkpt lat="46.20672" lon="6.71172">
        <ele>1000</ele>
        <time>2010-01-01T15:53:29Z</time>
      </trkpt>
      <trkpt lat="46.20659" lon="6.71101">
        <ele>996</ele>
        <time>2010-01-01T15:53:49Z</time>
      </trkpt>
      <trkpt lat="46.20639" lon="6.71097">
        <ele>996</ele>
        <time>2010-01-01T15:53:57Z</time>
      </trkpt>
      <trkpt lat="46.20609" lon="6.7109">
        <ele>996</ele>
        <time>2010-01-01T15:54:10Z</time>
      </trkpt>
      <trkpt lat="46.20583" lon="6.71059">
        <ele>997</ele>
        <time>2010-01-01T15:54:23Z</time>
      </trkpt>
      <trkpt lat="46.20551" lon="6.71005">
        <ele>997</ele>
        <time>2010-01-01T15:54:43Z</time>
      </trkpt>
      <trkpt lat="46.20527" lon="6.70942">
        <ele>994</ele>
        <time>2010-01-01T15:55:03Z</time>
      </trkpt>
      <trkpt lat="46.20498" lon="6.70871">
        <ele>996</ele>
        <time>2010-01-01T15:55:26Z</time>
      </trkpt>
      <trkpt lat="46.20476" lon="6.70835">
        <ele>995</ele>
        <time>2010-01-01T15:55:39Z</time>
      </trkpt>
      <trkpt lat="46.2045" lon="6.70787">
        <ele>990</ele>
        <time>2010-01-01T15:55:56Z</time>
      </trkpt>
      <trkpt lat="46.20433" lon="6.70733">
        <ele>984</ele>
        <time>2010-01-01T15:56:12Z</time>
      </trkpt>
      <trkpt lat="46.2042" lon="6.70691">
        <ele>980</ele>
        <time>2010-01-01T15:56:25Z</time>
      </trkpt>
      <trkpt lat="46.20402" lon="6.70611">
        <ele>985</ele>
        <time>2010-01-01T15:56:48Z</time>
      </trkpt>
      <trkpt lat="46.20395" lon="6.70561">
        <ele>976</ele>
        <time>2010-01-01T15:57:03Z</time>
      </trkpt>
      <trkpt lat="46.20389" lon="6.7052">
        <ele>974</ele>
        <time>2010-01-01T15:57:14Z</time>
      </trkpt>
      <trkpt lat="46.20367" lon="6.70459">
        <ele>969</ele>
        <time>2010-01-01T15:57:33Z</time>
      </trkpt>
      <trkpt lat="46.20349" lon="6.70417">
        <ele>967</ele>
        <time>2010-01-01T15:57:47Z</time>
      </trkpt>
      <trkpt lat="46.20338" lon="6.70364">
        <ele>961</ele>
        <time>2010-01-01T15:58:02Z</time>
      </trkpt>
      <trkpt lat="46.20319" lon="6.70291">
        <ele>957</ele>
        <time>2010-01-01T15:58:24Z</time>
      </trkpt>
      <trkpt lat="46.20317" lon="6.70245">
        <ele>949</ele>
        <time>2010-01-01T15:58:37Z</time>
      </trkpt>
      <trkpt lat="46.20327" lon="6.70208">
        <ele>950</ele>
        <time>2010-01-01T15:58:48Z</time>
      </trkpt>
      <trkpt lat="46.20322" lon="6.70169">
        <ele>947</ele>
        <time>2010-01-01T15:58:59Z</time>
      </trkpt>
      <trkpt lat="46.20307" lon="6.70137">
        <ele>950</ele>
        <time>2010-01-01T15:59:09Z</time>
      </trkpt>
      <trkpt lat="46.2028" lon="6.70096">
        <ele>951</ele>
        <time>2010-01-01T15:59:25Z</time>
      </trkpt>
      <trkpt lat="46.2027" lon="6.70052">
        <ele>952</ele>
        <time>2010-01-01T15:59:38Z</time>
      </trkpt>
      <trkpt lat="46.20264" lon="6.70017">
        <ele>950</ele>
        <time>2010-01-01T15:59:48Z</time>
      </trkpt>
      <trkpt lat="46.20254" lon="6.69973">
        <ele>951</ele>
        <time>2010-01-01T16:00:01Z</time>
      </trkpt>
      <trkpt lat="46.20234" lon="6.69906">
        <ele>945</ele>
        <time>2010-01-01T16:00:21Z</time>
      </trkpt>
      <trkpt lat="46.20221" lon="6.69845">
        <ele>944</ele>
        <time>2010-01-01T16:00:39Z</time>
      </trkpt>
      <trkpt lat="46.20217" lon="6.69814">
        <ele>940</ele>
        <time>2010-01-01T16:00:47Z</time>
      </trkpt>
      <trkpt lat="46.20229" lon="6.69777">
        <ele>939</ele>
        <time>2010-01-01T16:00:59Z</time>
      </trkpt>
      <trkpt lat="46.20229" lon="6.69774">
        <ele>939</ele>
        <time>2010-01-01T16:00:59Z</time>
      </trkpt>
      <trkpt lat="46.20213" lon="6.69731">
        <ele>937</ele>
        <time>2010-01-01T16:01:13Z</time>
      </trkpt>
      <trkpt lat="46.20195" lon="6.69671">
        <ele>936</ele>
        <time>2010-01-01T16:01:31Z</time>
      </trkpt>
      <trkpt lat="46.20181" lon="6.69607">
        <ele>936</ele>
        <time>2010-01-01T16:01:50Z</time>
      </trkpt>
      <trkpt lat="46.20165" lon="6.69543">
        <ele>931</ele>
        <time>2010-01-01T16:02:09Z</time>
      </trkpt>
      <trkpt lat="46.20161" lon="6.69472">
        <ele>925</ele>
        <time>2010-01-01T16:02:28Z</time>
      </trkpt>
      <trkpt lat="46.20153" lon="6.69432">
        <ele>926</ele>
        <time>2010-01-01T16:02:40Z</time>
      </trkpt>
      <trkpt lat="46.20129" lon="6.69397">
        <ele>925</ele>
        <time>2010-01-01T16:02:53Z</time>
      </trkpt>
      <trkpt lat="46.20098" lon="6.69369">
        <ele>923</ele>
        <time>2010-01-01T16:03:08Z</time>
      </trkpt>
      <trkpt lat="46.20077" lon="6.69328">
        <ele>920</ele>
        <time>2010-01-01T16:03:22Z</time>
      </trkpt>
      <trkpt lat="46.20063" lon="6.69284">
        <ele>921</ele>
        <time>2010-01-01T16:03:36Z</time>
      </trkpt>
      <trkpt lat="46.20039" lon="6.6919">
        <ele>917</ele>
        <time>2010-01-01T16:04:03Z</time>
      </trkpt>
      <trkpt lat="46.20034" lon="6.69104">
        <ele>911</ele>
        <time>2010-01-01T16:04:27Z</time>
      </trkpt>
      <trkpt lat="46.20025" lon="6.69054">
        <ele>908</ele>
        <time>2010-01-01T16:04:42Z</time>
      </trkpt>
      <trkpt lat="46.20011" lon="6.68979">
        <ele>904</ele>
        <time>2010-01-01T16:05:03Z</time>
      </trkpt>
      <trkpt lat="46.20002" lon="6.68939">
        <ele>902</ele>
        <time>2010-01-01T16:05:15Z</time>
      </trkpt>
      <trkpt lat="46.2002" lon="6.68898">
        <ele>900</ele>
        <time>2010-01-01T16:05:28Z</time>
      </trkpt>
      <trkpt lat="46.20016" lon="6.68875">
        <ele>900</ele>
        <time>2010-01-01T16:05:35Z</time>
      </trkpt>
      <trkpt lat="46.19995" lon="6.68872">
        <ele>896</ele>
        <time>2010-01-01T16:05:43Z</time>
      </trkpt>
      <trkpt lat="46.19968" lon="6.68897">
        <ele>896</ele>
        <time>2010-01-01T16:05:56Z</time>
      </trkpt>
      <trkpt lat="46.19935" lon="6.68913">
        <ele>897</ele>
        <time>2010-01-01T16:06:10Z</time>
      </trkpt>
      <trkpt lat="46.19912" lon="6.68902">
        <ele>897</ele>
        <time>2010-01-01T16:06:20Z</time>
      </trkpt>
      <trkpt lat="46.19903" lon="6.68858">
        <ele>897</ele>
        <time>2010-01-01T16:06:32Z</time>
      </trkpt>
      <trkpt lat="46.19887" lon="6.68833">
        <ele>896</ele>
        <time>2010-01-01T16:06:42Z</time>
      </trkpt>
      <trkpt lat="46.19856" lon="6.68822">
        <ele>897</ele>
        <time>2010-01-01T16:06:55Z</time>
      </trkpt>
      <trkpt lat="46.19832" lon="6.68817">
        <ele>898</ele>
        <time>2010-01-01T16:07:04Z</time>
      </trkpt>
      <trkpt lat="46.19822" lon="6.68795">
        <ele>899</ele>
        <time>2010-01-01T16:07:12Z</time>
      </trkpt>
      <trkpt lat="46.19807" lon="6.68802">
        <ele>900</ele>
        <time>2010-01-01T16:07:18Z</time>
      </trkpt>
      <trkpt lat="46.19782" lon="6.68829">
        <ele>900</ele>
        <time>2010-01-01T16:07:31Z</time>
      </trkpt>
      <trkpt lat="46.1969" lon="6.68913">
        <ele>903</ele>
        <time>2010-01-01T16:08:14Z</time>
      </trkpt>
      <trkpt lat="46.19658" lon="6.68945">
        <ele>905</ele>
        <time>2010-01-01T16:08:30Z</time>
      </trkpt>
      <trkpt lat="46.19623" lon="6.68973">
        <ele>906</ele>
        <time>2010-01-01T16:08:46Z</time>
      </trkpt>
      <trkpt lat="46.19597" lon="6.68999">
        <ele>905</ele>
        <time>2010-01-01T16:08:58Z</time>
      </trkpt>
      <trkpt lat="46.19552" lon="6.69032">
        <ele>914</ele>
        <time>2010-01-01T16:09:19Z</time>
      </trkpt>
      <trkpt lat="46.19532" lon="6.69045">
        <ele>915</ele>
        <time>2010-01-01T16:09:28Z</time>
      </trkpt>
      <trkpt lat="46.19507" lon="6.69049">
        <ele>916</ele>
        <time>2010-01-01T16:09:37Z</time>
      </trkpt>
      <trkpt lat="46.19489" lon="6.69058">
        <ele>925</ele>
        <time>2010-01-01T16:09:45Z</time>
      </trkpt>
      <trkpt lat="46.19478" lon="6.69069">
        <ele>925</ele>
        <time>2010-01-01T16:09:50Z</time>
      </trkpt>
      <trkpt lat="46.19481" lon="6.6911">
        <ele>917</ele>
        <time>2010-01-01T16:10:02Z</time>
      </trkpt>
      <trkpt lat="46.19482" lon="6.69159">
        <ele>915</ele>
        <time>2010-01-01T16:10:15Z</time>
      </trkpt>
      <trkpt lat="46.19452" lon="6.69194">
        <ele>914</ele>
        <time>2010-01-01T16:10:31Z</time>
      </trkpt>
      <trkpt lat="46.19418" lon="6.69226">
        <ele>914</ele>
        <time>2010-01-01T16:10:47Z</time>
      </trkpt>
      <trkpt lat="46.19397" lon="6.69236">
        <ele>921</ele>
        <time>2010-01-01T16:10:56Z</time>
      </trkpt>
      <trkpt lat="46.19374" lon="6.69253">
        <ele>920</ele>
        <time>2010-01-01T16:11:06Z</time>
      </trkpt>
      <trkpt lat="46.19373" lon="6.69254">
        <ele>920</ele>
        <time>2010-01-01T16:11:07Z</time>
      </trkpt>
      <trkpt lat="46.19357" lon="6.69297">
        <ele>920</ele>
        <time>2010-01-01T16:11:20Z</time>
      </trkpt>
      <trkpt lat="46.19351" lon="6.69327">
        <ele>920</ele>
        <time>2010-01-01T16:11:29Z</time>
      </trkpt>
      <trkpt lat="46.19353" lon="6.69352">
        <ele>917</ele>
        <time>2010-01-01T16:11:36Z</time>
      </trkpt>
      <trkpt lat="46.19346" lon="6.6939">
        <ele>916</ele>
        <time>2010-01-01T16:11:47Z</time>
      </trkpt>
      <trkpt lat="46.19337" lon="6.69418">
        <ele>915</ele>
        <time>2010-01-01T16:11:55Z</time>
      </trkpt>
      <trkpt lat="46.19314" lon="6.69452">
        <ele>917</ele>
        <time>2010-01-01T16:12:08Z</time>
      </trkpt>
      <trkpt lat="46.19287" lon="6.69482">
        <ele>917</ele>
        <time>2010-01-01T16:12:22Z</time>
      </trkpt>
      <trkpt lat="46.19255" lon="6.69505">
        <ele>918</ele>
        <time>2010-01-01T16:12:36Z</time>
      </trkpt>
      <trkpt lat="46.19218" lon="6.69526">
        <ele>921</ele>
        <time>2010-01-01T16:12:52Z</time>
      </trkpt>
      <trkpt lat="46.19202" lon="6.69529">
        <ele>921</ele>
        <time>2010-01-01T16:12:59Z</time>
      </trkpt>
      <trkpt lat="46.1919" lon="6.69534">
        <ele>922</ele>
        <time>2010-01-01T16:13:04Z</time>
      </trkpt>
      <trkpt lat="46.19175" lon="6.69539">
        <ele>922</ele>
        <time>2010-01-01T16:13:10Z</time>
      </trkpt>
      <trkpt lat="46.19159" lon="6.69543">
        <ele>927</ele>
        <time>2010-01-01T16:13:17Z</time>
      </trkpt>
      <trkpt lat="46.19143" lon="6.6955">
        <ele>927</ele>
        <time>2010-01-01T16:13:23Z</time>
      </trkpt>
      <trkpt lat="46.19133" lon="6.69562">
        <ele>927</ele>
        <time>2010-01-01T16:13:28Z</time>
      </trkpt>
      <trkpt lat="46.19118" lon="6.6959">
        <ele>925</ele>
        <time>2010-01-01T16:13:38Z</time>
      </trkpt>
      <trkpt lat="46.19102" lon="6.69613">
        <ele>926</ele>
        <time>2010-01-01T16:13:47Z</time>
      </trkpt>
      <trkpt lat="46.191" lon="6.69616">
        <ele>926</ele>
        <time>2010-01-01T16:13:48Z</time>
      </trkpt>
      <trkpt lat="46.19081" lon="6.69638">
        <ele>929</ele>
        <time>2010-01-01T16:13:58Z</time>
      </trkpt>
      <trkpt lat="46.19052" lon="6.69647">
        <ele>929</ele>
        <time>2010-01-01T16:14:10Z</time>
      </trkpt>
      <trkpt lat="46.1902" lon="6.69647">
        <ele>929</ele>
        <time>2010-01-01T16:14:23Z</time>
      </trkpt>
      <trkpt lat="46.18993" lon="6.69657">
        <ele>931</ele>
        <time>2010-01-01T16:14:34Z</time>
      </trkpt>
      <trkpt lat="46.1897" lon="6.69682">
        <ele>931</ele>
        <time>2010-01-01T16:14:45Z</time>
      </trkpt>
      <trkpt lat="46.18947" lon="6.69709">
        <ele>932</ele>
        <time>2010-01-01T16:14:57Z</time>
      </trkpt>
      <trkpt lat="46.18924" lon="6.69745">
        <ele>929</ele>
        <time>2010-01-01T16:15:11Z</time>
      </trkpt>
      <trkpt lat="46.18907" lon="6.6977">
        <ele>931</ele>
        <time>2010-01-01T16:15:21Z</time>
      </trkpt>
      <trkpt lat="46.18886" lon="6.69784">
        <ele>932</ele>
        <time>2010-01-01T16:15:30Z</time>
      </trkpt>
      <trkpt lat="46.18855" lon="6.69798">
        <ele>932</ele>
        <time>2010-01-01T16:15:43Z</time>
      </trkpt>
      <trkpt lat="46.18854" lon="6.69799">
        <ele>932</ele>
        <time>2010-01-01T16:15:43Z</time>
      </trkpt>
      <trkpt lat="46.18811" lon="6.69815">
        <ele>936</ele>
        <time>2010-01-01T16:16:01Z</time>
      </trkpt>
      <trkpt lat="46.18785" lon="6.69834">
        <ele>933</ele>
        <time>2010-01-01T16:16:13Z</time>
      </trkpt>
      <trkpt lat="46.18783" lon="6.69836">
        <ele>933</ele>
        <time>2010-01-01T16:16:14Z</time>
      </trkpt>
      <trkpt lat="46.18758" lon="6.69866">
        <ele>934</ele>
        <time>2010-01-01T16:16:27Z</time>
      </trkpt>
      <trkpt lat="46.18757" lon="6.69868">
        <ele>933</ele>
        <time>2010-01-01T16:16:28Z</time>
      </trkpt>
      <trkpt lat="46.18742" lon="6.69895">
        <ele>938</ele>
        <time>2010-01-01T16:16:37Z</time>
      </trkpt>
      <trkpt lat="46.18741" lon="6.69896">
        <ele>938</ele>
        <time>2010-01-01T16:16:38Z</time>
      </trkpt>
      <trkpt lat="46.18738" lon="6.69935">
        <ele>935</ele>
        <time>2010-01-01T16:16:48Z</time>
      </trkpt>
      <trkpt lat="46.18738" lon="6.69985">
        <ele>936</ele>
        <time>2010-01-01T16:17:02Z</time>
      </trkpt>
      <trkpt lat="46.18718" lon="6.70027">
        <ele>938</ele>
        <time>2010-01-01T16:17:16Z</time>
      </trkpt>
      <trkpt lat="46.18717" lon="6.70031">
        <ele>939</ele>
        <time>2010-01-01T16:17:18Z</time>
      </trkpt>
      <trkpt lat="46.18706" lon="6.70066">
        <ele>940</ele>
        <time>2010-01-01T16:17:28Z</time>
      </trkpt>
      <trkpt lat="46.18706" lon="6.70068">
        <ele>940</ele>
        <time>2010-01-01T16:17:29Z</time>
      </trkpt>
      <trkpt lat="46.18692" lon="6.70105">
        <ele>944</ele>
        <time>2010-01-01T16:17:40Z</time>
      </trkpt>
      <trkpt lat="46.18673" lon="6.70134">
        <ele>944</ele>
        <time>2010-01-01T16:17:52Z</time>
      </trkpt>
      <trkpt lat="46.18645" lon="6.70167">
        <ele>944</ele>
        <time>2010-01-01T16:18:06Z</time>
      </trkpt>
      <trkpt lat="46.18594" lon="6.70202">
        <ele>945</ele>
        <time>2010-01-01T16:18:29Z</time>
      </trkpt>
      <trkpt lat="46.18552" lon="6.70247">
        <ele>945</ele>
        <time>2010-01-01T16:18:50Z</time>
      </trkpt>
      <trkpt lat="46.18547" lon="6.70253">
        <ele>945</ele>
        <time>2010-01-01T16:18:52Z</time>
      </trkpt>
      <trkpt lat="46.18511" lon="6.70293">
        <ele>944</ele>
        <time>2010-01-01T16:19:10Z</time>
      </trkpt>
      <trkpt lat="46.18492" lon="6.7032">
        <ele>945</ele>
        <time>2010-01-01T16:19:21Z</time>
      </trkpt>
      <trkpt lat="46.18469" lon="6.70353">
        <ele>946</ele>
        <time>2010-01-01T16:19:34Z</time>
      </trkpt>
      <trkpt lat="46.18439" lon="6.70394">
        <ele>947</ele>
        <time>2010-01-01T16:19:51Z</time>
      </trkpt>
      <trkpt lat="46.18436" lon="6.70397">
        <ele>946</ele>
        <time>2010-01-01T16:19:52Z</time>
      </trkpt>
      <trkpt lat="46.18402" lon="6.70435">
        <ele>947</ele>
        <time>2010-01-01T16:20:09Z</time>
      </trkpt>
      <trkpt lat="46.1837" lon="6.70473">
        <ele>949</ele>
        <time>2010-01-01T16:20:26Z</time>
      </trkpt>
      <trkpt lat="46.18353" lon="6.70499">
        <ele>949</ele>
        <time>2010-01-01T16:20:36Z</time>
      </trkpt>
      <trkpt lat="46.1834" lon="6.70526">
        <ele>953</ele>
        <time>2010-01-01T16:20:45Z</time>
      </trkpt>
      <trkpt lat="46.18339" lon="6.70527">
        <ele>953</ele>
        <time>2010-01-01T16:20:45Z</time>
      </trkpt>
      <trkpt lat="46.18316" lon="6.70555">
        <ele>951</ele>
        <time>2010-01-01T16:20:57Z</time>
      </trkpt>
      <trkpt lat="46.18314" lon="6.70558">
        <ele>951</ele>
        <time>2010-01-01T16:20:58Z</time>
      </trkpt>
      <trkpt lat="46.18288" lon="6.70581">
        <ele>951</ele>
        <time>2010-01-01T16:21:11Z</time>
      </trkpt>
      <trkpt lat="46.18262" lon="6.70604">
        <ele>957</ele>
        <time>2010-01-01T16:21:23Z</time>
      </trkpt>
      <trkpt lat="46.18261" lon="6.70605">
        <ele>957</ele>
        <time>2010-01-01T16:21:23Z</time>
      </trkpt>
      <trkpt lat="46.18195" lon="6.70642">
        <ele>955</ele>
        <time>2010-01-01T16:21:52Z</time>
      </trkpt>
      <trkpt lat="46.18146" lon="6.70687">
        <ele>955</ele>
        <time>2010-01-01T16:22:15Z</time>
      </trkpt>
      <trkpt lat="46.18118" lon="6.70721">
        <ele>956</ele>
        <time>2010-01-01T16:22:30Z</time>
      </trkpt>
      <trkpt lat="46.18085" lon="6.70751">
        <ele>954</ele>
        <time>2010-01-01T16:22:45Z</time>
      </trkpt>
      <trkpt lat="46.18019" lon="6.70794">
        <ele>959</ele>
        <time>2010-01-01T16:23:14Z</time>
      </trkpt>
      <trkpt lat="46.17987" lon="6.70822">
        <ele>961</ele>
        <time>2010-01-01T16:23:29Z</time>
      </trkpt>
      <trkpt lat="46.1796" lon="6.7085">
        <ele>964</ele>
        <time>2010-01-01T16:23:43Z</time>
      </trkpt>
      <trkpt lat="46.17946" lon="6.70864">
        <ele>964</ele>
        <time>2010-01-01T16:23:49Z</time>
      </trkpt>
      <trkpt lat="46.1789" lon="6.70865">
        <ele>966</ele>
        <time>2010-01-01T16:24:12Z</time>
      </trkpt>
      <trkpt lat="46.17873" lon="6.70881">
        <ele>967</ele>
        <time>2010-01-01T16:24:20Z</time>
      </trkpt>
      <trkpt lat="46.17849" lon="6.70898">
        <ele>967</ele>
        <time>2010-01-01T16:24:31Z</time>
      </trkpt>
      <trkpt lat="46.17778" lon="6.70909">
        <ele>970</ele>
        <time>2010-01-01T16:24:59Z</time>
      </trkpt>
      <trkpt lat="46.17739" lon="6.70898">
        <ele>971</ele>
        <time>2010-01-01T16:25:15Z</time>
      </trkpt>
      <trkpt lat="46.17712" lon="6.70882">
        <ele>973</ele>
        <time>2010-01-01T16:25:27Z</time>
      </trkpt>
      <trkpt lat="46.1768" lon="6.70902">
        <ele>972</ele>
        <time>2010-01-01T16:25:41Z</time>
      </trkpt>
      <trkpt lat="46.17668" lon="6.70934">
        <ele>971</ele>
        <time>2010-01-01T16:25:51Z</time>
      </trkpt>
      <trkpt lat="46.17658" lon="6.70959">
        <ele>975</ele>
        <time>2010-01-01T16:25:59Z</time>
      </trkpt>
      <trkpt lat="46.17638" lon="6.70994">
        <ele>976</ele>
        <time>2010-01-01T16:26:11Z</time>
      </trkpt>
      <trkpt lat="46.17624" lon="6.71016">
        <ele>982</ele>
        <time>2010-01-01T16:26:20Z</time>
      </trkpt>
      <trkpt lat="46.1761" lon="6.71026">
        <ele>982</ele>
        <time>2010-01-01T16:26:26Z</time>
      </trkpt>
      <trkpt lat="46.17589" lon="6.71025">
        <ele>981</ele>
        <time>2010-01-01T16:26:35Z</time>
      </trkpt>
      <trkpt lat="46.17578" lon="6.71009">
        <ele>978</ele>
        <time>2010-01-01T16:26:41Z</time>
      </trkpt>
      <trkpt lat="46.1757" lon="6.70988">
        <ele>981</ele>
        <time>2010-01-01T16:26:47Z</time>
      </trkpt>
      <trkpt lat="46.17568" lon="6.70941">
        <ele>985</ele>
        <time>2010-01-01T16:27:00Z</time>
      </trkpt>
      <trkpt lat="46.17572" lon="6.70912">
        <ele>988</ele>
        <time>2010-01-01T16:27:09Z</time>
      </trkpt>
      <trkpt lat="46.17584" lon="6.70891">
        <ele>983</ele>
        <time>2010-01-01T16:27:16Z</time>
      </trkpt>
      <trkpt lat="46.17593" lon="6.70881">
        <ele>983</ele>
        <time>2010-01-01T16:27:21Z</time>
      </trkpt>
      <trkpt lat="46.17604" lon="6.70864">
        <ele>985</ele>
        <time>2010-01-01T16:27:27Z</time>
      </trkpt>
      <trkpt lat="46.17659" lon="6.70811">
        <ele>988</ele>
        <time>2010-01-01T16:27:54Z</time>
      </trkpt>
      <trkpt lat="46.17683" lon="6.70788">
        <ele>985</ele>
        <time>2010-01-01T16:28:05Z</time>
      </trkpt>
      <trkpt lat="46.17696" lon="6.70763">
        <ele>987</ele>
        <time>2010-01-01T16:28:14Z</time>
      </trkpt>
      <trkpt lat="46.17731" lon="6.70708">
        <ele>989</ele>
        <time>2010-01-01T16:28:34Z</time>
      </trkpt>
      <trkpt lat="46.17738" lon="6.70692">
        <ele>989</ele>
        <time>2010-01-01T16:28:40Z</time>
      </trkpt>
      <trkpt lat="46.17742" lon="6.70682">
        <ele>988</ele>
        <time>2010-01-01T16:28:43Z</time>
      </trkpt>
      <trkpt lat="46.17742" lon="6.70676">
        <ele>988</ele>
        <time>2010-01-01T16:28:45Z</time>
      </trkpt>
      <trkpt lat="46.17746" lon="6.70665">
        <ele>988</ele>
        <time>2010-01-01T16:28:48Z</time>
      </trkpt>
      <trkpt lat="46.17753" lon="6.70662">
        <ele>987</ele>
        <time>2010-01-01T16:28:51Z</time>
      </trkpt>
      <trkpt lat="46.17758" lon="6.70667">
        <ele>987</ele>
        <time>2010-01-01T16:28:54Z</time>
      </trkpt>
      <trkpt lat="46.17762" lon="6.70665">
        <ele>986</ele>
        <time>2010-01-01T16:28:55Z</time>
      </trkpt>
      <trkpt lat="46.17826" lon="6.7056">
        <ele>986</ele>
        <time>2010-01-01T16:29:34Z</time>
      </trkpt>
      <trkpt lat="46.17843" lon="6.70531">
        <ele>984</ele>
        <time>2010-01-01T16:29:44Z</time>
      </trkpt>
      <trkpt lat="46.17931" lon="6.70401">
        <ele>984</ele>
        <time>2010-01-01T16:30:35Z</time>
      </trkpt>
      <trkpt lat="46.17993" lon="6.70303">
        <ele>984</ele>
        <time>2010-01-01T16:31:12Z</time>
      </trkpt>
      <trkpt lat="46.18039" lon="6.7023">
        <ele>980</ele>
        <time>2010-01-01T16:31:39Z</time>
      </trkpt>
      <trkpt lat="46.18044" lon="6.70219">
        <ele>980</ele>
        <time>2010-01-01T16:31:43Z</time>
      </trkpt>
      <trkpt lat="46.18032" lon="6.70203">
        <ele>981</ele>
        <time>2010-01-01T16:31:49Z</time>
      </trkpt>
      <trkpt lat="46.18016" lon="6.70178">
        <ele>982</ele>
        <time>2010-01-01T16:31:59Z</time>
      </trkpt>
      <trkpt lat="46.18004" lon="6.70169">
        <ele>983</ele>
        <time>2010-01-01T16:32:04Z</time>
      </trkpt>
      <trkpt lat="46.18003" lon="6.70169">
        <ele>984</ele>
        <time>2010-01-01T16:32:04Z</time>
      </trkpt>
      <trkpt lat="46.17987" lon="6.70154">
        <ele>988</ele>
        <time>2010-01-01T16:32:12Z</time>
      </trkpt>
      <trkpt lat="46.17974" lon="6.70136">
        <ele>991</ele>
        <time>2010-01-01T16:32:19Z</time>
      </trkpt>
      <trkpt lat="46.17962" lon="6.70134">
        <ele>992</ele>
        <time>2010-01-01T16:32:24Z</time>
      </trkpt>
      <trkpt lat="46.17852" lon="6.70031">
        <ele>1033</ele>
        <time>2010-01-01T16:33:17Z</time>
      </trkpt>
      <trkpt lat="46.17805" lon="6.70021">
        <ele>1062</ele>
        <time>2010-01-01T16:33:36Z</time>
      </trkpt>
      <trkpt lat="46.17709" lon="6.69911">
        <ele>1130</ele>
        <time>2010-01-01T16:34:25Z</time>
      </trkpt>
      <trkpt lat="46.17648" lon="6.69888">
        <ele>1167</ele>
        <time>2010-01-01T16:34:50Z</time>
      </trkpt>
      <trkpt lat="46.17582" lon="6.69757">
        <ele>1220</ele>
        <time>2010-01-01T16:35:35Z</time>
      </trkpt>
      <trkpt lat="46.17539" lon="6.69753">
        <ele>1222</ele>
        <time>2010-01-01T16:35:52Z</time>
      </trkpt>
      <trkpt lat="46.17422" lon="6.69627">
        <ele>1274</ele>
        <time>2010-01-01T16:36:50Z</time>
      </trkpt>
      <trkpt lat="46.17325" lon="6.69539">
        <ele>1315</ele>
        <time>2010-01-01T16:37:36Z</time>
      </trkpt>
      <trkpt lat="46.17218" lon="6.69447">
        <ele>1358</ele>
        <time>2010-01-01T16:38:26Z</time>
      </trkpt>
      <trkpt lat="46.17088" lon="6.69343">
        <ele>1428</ele>
        <time>2010-01-01T16:39:26Z</time>
      </trkpt>
      <trkpt lat="46.16968" lon="6.69204">
        <ele>1496</ele>
        <time>2010-01-01T16:40:27Z</time>
      </trkpt>
      <trkpt lat="46.1697" lon="6.69193">
        <ele>1496</ele>
        <time>2010-01-01T16:40:31Z</time>
      </trkpt>
      <trkpt lat="46.17002" lon="6.69169">
        <ele>1493</ele>
        <time>2010-01-01T16:40:45Z</time>
      </trkpt>
      <trkpt lat="46.17048" lon="6.69125">
        <ele>1483</ele>
        <time>2010-01-01T16:41:07Z</time>
      </trkpt>
      <trkpt lat="46.17078" lon="6.69093">
        <ele>1481</ele>
        <time>2010-01-01T16:41:22Z</time>
      </trkpt>
      <trkpt lat="46.17097" lon="6.69087">
        <ele>1476</ele>
        <time>2010-01-01T16:41:30Z</time>
      </trkpt>
      <trkpt lat="46.17123" lon="6.6912">
        <ele>1472</ele>
        <time>2010-01-01T16:41:44Z</time>
      </trkpt>
      <trkpt lat="46.17133" lon="6.69136">
        <ele>1470</ele>
        <time>2010-01-01T16:41:50Z</time>
      </trkpt>
      <trkpt lat="46.17144" lon="6.69137">
        <ele>1469</ele>
        <time>2010-01-01T16:41:54Z</time>
      </trkpt>
      <trkpt lat="46.17156" lon="6.69133">
        <ele>1469</ele>
        <time>2010-01-01T16:41:59Z</time>
      </trkpt>
      <trkpt lat="46.17165" lon="6.69124">
        <ele>1470</ele>
        <time>2010-01-01T16:42:04Z</time>
      </trkpt>
      <trkpt lat="46.17211" lon="6.69091">
        <ele>1458</ele>
        <time>2010-01-01T16:42:24Z</time>
      </trkpt>
      <trkpt lat="46.17217" lon="6.6907">
        <ele>1457</ele>
        <time>2010-01-01T16:42:30Z</time>
      </trkpt>
      <trkpt lat="46.17211" lon="6.69">
        <ele>1449</ele>
        <time>2010-01-01T16:42:50Z</time>
      </trkpt>
      <trkpt lat="46.17213" lon="6.68982">
        <ele>1448</ele>
        <time>2010-01-01T16:42:55Z</time>
      </trkpt>
      <trkpt lat="46.17225" lon="6.68953">
        <ele>1446</ele>
        <time>2010-01-01T16:43:04Z</time>
      </trkpt>
      <trkpt lat="46.17226" lon="6.68932">
        <ele>1444</ele>
        <time>2010-01-01T16:43:10Z</time>
      </trkpt>
      <trkpt lat="46.17217" lon="6.68917">
        <ele>1445</ele>
        <time>2010-01-01T16:43:15Z</time>
      </trkpt>
      <trkpt lat="46.17187" lon="6.68875">
        <ele>1441</ele>
        <time>2010-01-01T16:43:32Z</time>
      </trkpt>
      <trkpt lat="46.17181" lon="6.6885">
        <ele>1441</ele>
        <time>2010-01-01T16:43:40Z</time>
      </trkpt>
      <trkpt lat="46.1718" lon="6.68824">
        <ele>1437</ele>
        <time>2010-01-01T16:43:47Z</time>
      </trkpt>
      <trkpt lat="46.17174" lon="6.68781">
        <ele>1431</ele>
        <time>2010-01-01T16:43:59Z</time>
      </trkpt>
      <trkpt lat="46.1716" lon="6.68768">
        <ele>1439</ele>
        <time>2010-01-01T16:44:06Z</time>
      </trkpt>
      <trkpt lat="46.17131" lon="6.68744">
        <ele>1433</ele>
        <time>2010-01-01T16:44:19Z</time>
      </trkpt>
      <trkpt lat="46.1709" lon="6.68726">
        <ele>1436</ele>
        <time>2010-01-01T16:44:36Z</time>
      </trkpt>
      <trkpt lat="46.17041" lon="6.68714">
        <ele>1446</ele>
        <time>2010-01-01T16:44:56Z</time>
      </trkpt>
      <trkpt lat="46.17012" lon="6.68714">
        <ele>1448</ele>
        <time>2010-01-01T16:45:08Z</time>
      </trkpt>
      <trkpt lat="46.16985" lon="6.68701">
        <ele>1453</ele>
        <time>2010-01-01T16:45:19Z</time>
      </trkpt>
      <trkpt lat="46.16976" lon="6.68679">
        <ele>1451</ele>
        <time>2010-01-01T16:45:26Z</time>
      </trkpt>
      <trkpt lat="46.16955" lon="6.68662">
        <ele>1444</ele>
        <time>2010-01-01T16:45:36Z</time>
      </trkpt>
      <trkpt lat="46.16926" lon="6.68647">
        <ele>1445</ele>
        <time>2010-01-01T16:45:48Z</time>
      </trkpt>
      <trkpt lat="46.1688" lon="6.68621">
        <ele>1444</ele>
        <time>2010-01-01T16:46:08Z</time>
      </trkpt>
      <trkpt lat="46.16846" lon="6.68582">
        <ele>1434</ele>
        <time>2010-01-01T16:46:25Z</time>
      </trkpt>
      <trkpt lat="46.16839" lon="6.68581">
        <ele>1435</ele>
        <time>2010-01-01T16:46:28Z</time>
      </trkpt>
      <trkpt lat="46.16832" lon="6.6858">
        <ele>1436</ele>
        <time>2010-01-01T16:46:31Z</time>
      </trkpt>
      <trkpt lat="46.16806" lon="6.6859">
        <ele>1444</ele>
        <time>2010-01-01T16:46:42Z</time>
      </trkpt>
      <trkpt lat="46.16787" lon="6.6859">
        <ele>1445</ele>
        <time>2010-01-01T16:46:49Z</time>
      </trkpt>
      <trkpt lat="46.1677" lon="6.68588">
        <ele>1445</ele>
        <time>2010-01-01T16:46:56Z</time>
      </trkpt>
      <trkpt lat="46.16768" lon="6.68588">
        <ele>1445</ele>
        <time>2010-01-01T16:46:57Z</time>
      </trkpt>
      <trkpt lat="46.16737" lon="6.68577">
        <ele>1438</ele>
        <time>2010-01-01T16:47:10Z</time>
      </trkpt>
      <trkpt lat="46.16737" lon="6.68576">
        <ele>1437</ele>
        <time>2010-01-01T16:47:10Z</time>
      </trkpt>
      <trkpt lat="46.16711" lon="6.68563">
        <ele>1434</ele>
        <time>2010-01-01T16:47:21Z</time>
      </trkpt>
      <trkpt lat="46.16679" lon="6.68553">
        <ele>1433</ele>
        <time>2010-01-01T16:47:34Z</time>
      </trkpt>
      <trkpt lat="46.16654" lon="6.68547">
        <ele>1428</ele>
        <time>2010-01-01T16:47:44Z</time>
      </trkpt>
      <trkpt lat="46.1662" lon="6.6855">
        <ele>1427</ele>
        <time>2010-01-01T16:47:58Z</time>
      </trkpt>
      <trkpt lat="46.16614" lon="6.6855">
        <ele>1427</ele>
        <time>2010-01-01T16:48:00Z</time>
      </trkpt>
      <trkpt lat="46.1661" lon="6.68551">
        <ele>1427</ele>
        <time>2010-01-01T16:48:02Z</time>
      </trkpt>
      <trkpt lat="46.16585" lon="6.6855">
        <ele>1426</ele>
        <time>2010-01-01T16:48:12Z</time>
      </trkpt>
      <trkpt lat="46.16581" lon="6.6855">
        <ele>1426</ele>
        <time>2010-01-01T16:48:13Z</time>
      </trkpt>
      <trkpt lat="46.16554" lon="6.68538">
        <ele>1425</ele>
        <time>2010-01-01T16:48:25Z</time>
      </trkpt>
      <trkpt lat="46.16538" lon="6.68531">
        <ele>1425</ele>
        <time>2010-01-01T16:48:31Z</time>
      </trkpt>
      <trkpt lat="46.16526" lon="6.68532">
        <ele>1425</ele>
        <time>2010-01-01T16:48:36Z</time>
      </trkpt>
      <trkpt lat="46.16515" lon="6.68531">
        <ele>1425</ele>
        <time>2010-01-01T16:48:40Z</time>
      </trkpt>
      <trkpt lat="46.16468" lon="6.68492">
        <ele>1414</ele>
        <time>2010-01-01T16:49:02Z</time>
      </trkpt>
      <trkpt lat="46.16438" lon="6.68466">
        <ele>1414</ele>
        <time>2010-01-01T16:49:16Z</time>
      </trkpt>
      <trkpt lat="46.16429" lon="6.68457">
        <ele>1413</ele>
        <time>2010-01-01T16:49:21Z</time>
      </trkpt>
      <trkpt lat="46.16423" lon="6.68448">
        <ele>1412</ele>
        <time>2010-01-01T16:49:24Z</time>
      </trkpt>
      <trkpt lat="46.16414" lon="6.6844">
        <ele>1415</ele>
        <time>2010-01-01T16:49:28Z</time>
      </trkpt>
      <trkpt lat="46.16413" lon="6.68439">
        <ele>1415</ele>
        <time>2010-01-01T16:49:29Z</time>
      </trkpt>
      <trkpt lat="46.1641" lon="6.68439">
        <ele>1415</ele>
        <time>2010-01-01T16:49:30Z</time>
      </trkpt>
      <trkpt lat="46.1635" lon="6.68407">
        <ele>1407</ele>
        <time>2010-01-01T16:49:56Z</time>
      </trkpt>
      <trkpt lat="46.16317" lon="6.68378">
        <ele>1402</ele>
        <time>2010-01-01T16:50:11Z</time>
      </trkpt>
      <trkpt lat="46.16267" lon="6.68385">
        <ele>1402</ele>
        <time>2010-01-01T16:50:31Z</time>
      </trkpt>
      <trkpt lat="46.16222" lon="6.684">
        <ele>1397</ele>
        <time>2010-01-01T16:50:50Z</time>
      </trkpt>
      <trkpt lat="46.1614" lon="6.68437">
        <ele>1400</ele>
        <time>2010-01-01T16:51:24Z</time>
      </trkpt>
      <trkpt lat="46.16094" lon="6.68467">
        <ele>1401</ele>
        <time>2010-01-01T16:51:44Z</time>
      </trkpt>
      <trkpt lat="46.16037" lon="6.68515">
        <ele>1404</ele>
        <time>2010-01-01T16:52:11Z</time>
      </trkpt>
      <trkpt lat="46.16012" lon="6.68501">
        <ele>1397</ele>
        <time>2010-01-01T16:52:21Z</time>
      </trkpt>
      <trkpt lat="46.15994" lon="6.68494">
        <ele>1386</ele>
        <time>2010-01-01T16:52:29Z</time>
      </trkpt>
      <trkpt lat="46.15961" lon="6.68497">
        <ele>1380</ele>
        <time>2010-01-01T16:52:42Z</time>
      </trkpt>
      <trkpt lat="46.15938" lon="6.68488">
        <ele>1379</ele>
        <time>2010-01-01T16:52:52Z</time>
      </trkpt>
      <trkpt lat="46.15913" lon="6.68461">
        <ele>1376</ele>
        <time>2010-01-01T16:53:04Z</time>
      </trkpt>
      <trkpt lat="46.15885" lon="6.68439">
        <ele>1374</ele>
        <time>2010-01-01T16:53:17Z</time>
      </trkpt>
      <trkpt lat="46.15842" lon="6.68427">
        <ele>1372</ele>
        <time>2010-01-01T16:53:34Z</time>
      </trkpt>
      <trkpt lat="46.1583" lon="6.68385">
        <ele>1365</ele>
        <time>2010-01-01T16:53:47Z</time>
      </trkpt>
      <trkpt lat="46.15816" lon="6.68337">
        <ele>1360</ele>
        <time>2010-01-01T16:54:01Z</time>
      </trkpt>
      <trkpt lat="46.15773" lon="6.68274">
        <ele>1345</ele>
        <time>2010-01-01T16:54:26Z</time>
      </trkpt>
      <trkpt lat="46.15616" lon="6.68099">
        <ele>1324</ele>
        <time>2010-01-01T16:55:45Z</time>
      </trkpt>
      <trkpt lat="46.15601" lon="6.6805">
        <ele>1316</ele>
        <time>2010-01-01T16:56:00Z</time>
      </trkpt>
      <trkpt lat="46.15592" lon="6.68003">
        <ele>1315</ele>
        <time>2010-01-01T16:56:14Z</time>
      </trkpt>
      <trkpt lat="46.15585" lon="6.67896">
        <ele>1298</ele>
        <time>2010-01-01T16:56:43Z</time>
      </trkpt>
      <trkpt lat="46.15562" lon="6.67827">
        <ele>1294</ele>
        <time>2010-01-01T16:57:05Z</time>
      </trkpt>
      <trkpt lat="46.15536" lon="6.6777">
        <ele>1292</ele>
        <time>2010-01-01T16:57:23Z</time>
      </trkpt>
      <trkpt lat="46.15504" lon="6.6774">
        <ele>1286</ele>
        <time>2010-01-01T16:57:39Z</time>
      </trkpt>
      <trkpt lat="46.15471" lon="6.67708">
        <ele>1285</ele>
        <time>2010-01-01T16:57:55Z</time>
      </trkpt>
      <trkpt lat="46.15454" lon="6.67686">
        <ele>1284</ele>
        <time>2010-01-01T16:58:04Z</time>
      </trkpt>
      <trkpt lat="46.15441" lon="6.67667">
        <ele>1275</ele>
        <time>2010-01-01T16:58:11Z</time>
      </trkpt>
      <trkpt lat="46.15414" lon="6.6765">
        <ele>1277</ele>
        <time>2010-01-01T16:58:23Z</time>
      </trkpt>
      <trkpt lat="46.15407" lon="6.67625">
        <ele>1275</ele>
        <time>2010-01-01T16:58:31Z</time>
      </trkpt>
      <trkpt lat="46.15416" lon="6.67603">
        <ele>1272</ele>
        <time>2010-01-01T16:58:38Z</time>
      </trkpt>
      <trkpt lat="46.15409" lon="6.67579">
        <ele>1266</ele>
        <time>2010-01-01T16:58:45Z</time>
      </trkpt>
      <trkpt lat="46.1538" lon="6.67545">
        <ele>1265</ele>
        <time>2010-01-01T16:59:00Z</time>
      </trkpt>
      <trkpt lat="46.15362" lon="6.67513">
        <ele>1265</ele>
        <time>2010-01-01T16:59:11Z</time>
      </trkpt>
      <trkpt lat="46.15361" lon="6.67483">
        <ele>1258</ele>
        <time>2010-01-01T16:59:20Z</time>
      </trkpt>
      <trkpt lat="46.15404" lon="6.67423">
        <ele>1250</ele>
        <time>2010-01-01T16:59:43Z</time>
      </trkpt>
      <trkpt lat="46.15413" lon="6.67395">
        <ele>1247</ele>
        <time>2010-01-01T16:59:52Z</time>
      </trkpt>
      <trkpt lat="46.15421" lon="6.67376">
        <ele>1243</ele>
        <time>2010-01-01T16:59:58Z</time>
      </trkpt>
      <trkpt lat="46.15446" lon="6.67358">
        <ele>1242</ele>
        <time>2010-01-01T17:00:10Z</time>
      </trkpt>
      <trkpt lat="46.15461" lon="6.67344">
        <ele>1242</ele>
        <time>2010-01-01T17:00:16Z</time>
      </trkpt>
      <trkpt lat="46.15525" lon="6.67187">
        <ele>1237</ele>
        <time>2010-01-01T17:01:07Z</time>
      </trkpt>
      <trkpt lat="46.1559" lon="6.67124">
        <ele>1223</ele>
        <time>2010-01-01T17:01:38Z</time>
      </trkpt>
      <trkpt lat="46.15616" lon="6.67099">
        <ele>1221</ele>
        <time>2010-01-01T17:01:51Z</time>
      </trkpt>
      <trkpt lat="46.15614" lon="6.6708">
        <ele>1214</ele>
        <time>2010-01-01T17:01:56Z</time>
      </trkpt>
      <trkpt lat="46.15613" lon="6.6707">
        <ele>1213</ele>
        <time>2010-01-01T17:01:59Z</time>
      </trkpt>
      <trkpt lat="46.15637" lon="6.67069">
        <ele>1211</ele>
        <time>2010-01-01T17:02:09Z</time>
      </trkpt>
      <trkpt lat="46.15631" lon="6.67058">
        <ele>1210</ele>
        <time>2010-01-01T17:02:13Z</time>
      </trkpt>
      <trkpt lat="46.15628" lon="6.67045">
        <ele>1209</ele>
        <time>2010-01-01T17:02:16Z</time>
      </trkpt>
      <trkpt lat="46.15635" lon="6.67042">
        <ele>1208</ele>
        <time>2010-01-01T17:02:19Z</time>
      </trkpt>
      <trkpt lat="46.15644" lon="6.67047">
        <ele>1208</ele>
        <time>2010-01-01T17:02:23Z</time>
      </trkpt>
      <trkpt lat="46.15649" lon="6.67037">
        <ele>1206</ele>
        <time>2010-01-01T17:02:27Z</time>
      </trkpt>
      <trkpt lat="46.15644" lon="6.67028">
        <ele>1206</ele>
        <time>2010-01-01T17:02:30Z</time>
      </trkpt>
      <trkpt lat="46.15634" lon="6.67018">
        <ele>1206</ele>
        <time>2010-01-01T17:02:35Z</time>
      </trkpt>
      <trkpt lat="46.15635" lon="6.67005">
        <ele>1204</ele>
        <time>2010-01-01T17:02:39Z</time>
      </trkpt>
      <trkpt lat="46.15636" lon="6.67002">
        <ele>1204</ele>
        <time>2010-01-01T17:02:39Z</time>
      </trkpt>
      <trkpt lat="46.15646" lon="6.67007">
        <ele>1202</ele>
        <time>2010-01-01T17:02:43Z</time>
      </trkpt>
      <trkpt lat="46.15649" lon="6.6701">
        <ele>1201</ele>
        <time>2010-01-01T17:02:45Z</time>
      </trkpt>
      <trkpt lat="46.15666" lon="6.67019">
        <ele>1201</ele>
        <time>2010-01-01T17:02:52Z</time>
      </trkpt>
      <trkpt lat="46.15673" lon="6.67019">
        <ele>1192</ele>
        <time>2010-01-01T17:02:55Z</time>
      </trkpt>
      <trkpt lat="46.15674" lon="6.67012">
        <ele>1191</ele>
        <time>2010-01-01T17:02:57Z</time>
      </trkpt>
      <trkpt lat="46.15666" lon="6.66999">
        <ele>1191</ele>
        <time>2010-01-01T17:03:02Z</time>
      </trkpt>
      <trkpt lat="46.1566" lon="6.66989">
        <ele>1191</ele>
        <time>2010-01-01T17:03:06Z</time>
      </trkpt>
      <trkpt lat="46.15661" lon="6.6698">
        <ele>1191</ele>
        <time>2010-01-01T17:03:08Z</time>
      </trkpt>
      <trkpt lat="46.1567" lon="6.6698">
        <ele>1184</ele>
        <time>2010-01-01T17:03:12Z</time>
      </trkpt>
      <trkpt lat="46.15675" lon="6.66979">
        <ele>1183</ele>
        <time>2010-01-01T17:03:14Z</time>
      </trkpt>
      <trkpt lat="46.15671" lon="6.66966">
        <ele>1181</ele>
        <time>2010-01-01T17:03:18Z</time>
      </trkpt>
      <trkpt lat="46.15669" lon="6.6695">
        <ele>1179</ele>
        <time>2010-01-01T17:03:23Z</time>
      </trkpt>
      <trkpt lat="46.15664" lon="6.66937">
        <ele>1185</ele>
        <time>2010-01-01T17:03:27Z</time>
      </trkpt>
      <trkpt lat="46.15658" lon="6.66917">
        <ele>1181</ele>
        <time>2010-01-01T17:03:33Z</time>
      </trkpt>
      <trkpt lat="46.15651" lon="6.66893">
        <ele>1178</ele>
        <time>2010-01-01T17:03:40Z</time>
      </trkpt>
      <trkpt lat="46.1565" lon="6.66873">
        <ele>1178</ele>
        <time>2010-01-01T17:03:45Z</time>
      </trkpt>
      <trkpt lat="46.15651" lon="6.66872">
        <ele>1178</ele>
        <time>2010-01-01T17:03:46Z</time>
      </trkpt>
      <trkpt lat="46.15645" lon="6.66851">
        <ele>1177</ele>
        <time>2010-01-01T17:03:52Z</time>
      </trkpt>
      <trkpt lat="46.15646" lon="6.66829">
        <ele>1174</ele>
        <time>2010-01-01T17:03:58Z</time>
      </trkpt>
      <trkpt lat="46.15646" lon="6.66825">
        <ele>1174</ele>
        <time>2010-01-01T17:03:59Z</time>
      </trkpt>
      <trkpt lat="46.15653" lon="6.66812">
        <ele>1173</ele>
        <time>2010-01-01T17:04:04Z</time>
      </trkpt>
      <trkpt lat="46.15654" lon="6.66812">
        <ele>1173</ele>
        <time>2010-01-01T17:04:04Z</time>
      </trkpt>
      <trkpt lat="46.15675" lon="6.6681">
        <ele>1169</ele>
        <time>2010-01-01T17:04:13Z</time>
      </trkpt>
      <trkpt lat="46.1569" lon="6.66816">
        <ele>1168</ele>
        <time>2010-01-01T17:04:19Z</time>
      </trkpt>
      <trkpt lat="46.15679" lon="6.66824">
        <ele>1169</ele>
        <time>2010-01-01T17:04:23Z</time>
      </trkpt>
      <trkpt lat="46.15679" lon="6.66826">
        <ele>1169</ele>
        <time>2010-01-01T17:04:24Z</time>
      </trkpt>
      <trkpt lat="46.15673" lon="6.66838">
        <ele>1171</ele>
        <time>2010-01-01T17:04:28Z</time>
      </trkpt>
      <trkpt lat="46.15668" lon="6.66851">
        <ele>1171</ele>
        <time>2010-01-01T17:04:32Z</time>
      </trkpt>
      <trkpt lat="46.15599" lon="6.66972">
        <ele>1196</ele>
        <time>2010-01-01T17:05:16Z</time>
      </trkpt>
      <trkpt lat="46.15537" lon="6.67123">
        <ele>1232</ele>
        <time>2010-01-01T17:06:04Z</time>
      </trkpt>
      <trkpt lat="46.15403" lon="6.67485">
        <ele>1255</ele>
        <time>2010-01-01T17:07:58Z</time>
      </trkpt>
      <trkpt lat="46.15184" lon="6.67911">
        <ele>1343</ele>
        <time>2010-01-01T17:10:25Z</time>
      </trkpt>
      <trkpt lat="46.15119" lon="6.68089">
        <ele>1400</ele>
        <time>2010-01-01T17:11:21Z</time>
      </trkpt>
      <trkpt lat="46.15003" lon="6.68379">
        <ele>1461</ele>
        <time>2010-01-01T17:12:54Z</time>
      </trkpt>
      <trkpt lat="46.1487" lon="6.68704">
        <ele>1509</ele>
        <time>2010-01-01T17:14:38Z</time>
      </trkpt>
      <trkpt lat="46.14627" lon="6.69145">
        <ele>1577</ele>
        <time>2010-01-01T17:17:15Z</time>
      </trkpt>
      <trkpt lat="46.14513" lon="6.69396">
        <ele>1610</ele>
        <time>2010-01-01T17:18:38Z</time>
      </trkpt>
      <trkpt lat="46.14528" lon="6.69438">
        <ele>1606</ele>
        <time>2010-01-01T17:18:51Z</time>
      </trkpt>
      <trkpt lat="46.14568" lon="6.69422">
        <ele>1605</ele>
        <time>2010-01-01T17:19:08Z</time>
      </trkpt>
      <trkpt lat="46.14593" lon="6.69389">
        <ele>1603</ele>
        <time>2010-01-01T17:19:21Z</time>
      </trkpt>
      <trkpt lat="46.14622" lon="6.69343">
        <ele>1602</ele>
        <time>2010-01-01T17:19:39Z</time>
      </trkpt>
      <trkpt lat="46.14654" lon="6.69318">
        <ele>1599</ele>
        <time>2010-01-01T17:19:53Z</time>
      </trkpt>
      <trkpt lat="46.14685" lon="6.69318">
        <ele>1596</ele>
        <time>2010-01-01T17:20:06Z</time>
      </trkpt>
      <trkpt lat="46.14721" lon="6.69315">
        <ele>1593</ele>
        <time>2010-01-01T17:20:20Z</time>
      </trkpt>
      <trkpt lat="46.14752" lon="6.69313">
        <ele>1587</ele>
        <time>2010-01-01T17:20:33Z</time>
      </trkpt>
      <trkpt lat="46.14786" lon="6.6931">
        <ele>1584</ele>
        <time>2010-01-01T17:20:46Z</time>
      </trkpt>
      <trkpt lat="46.14793" lon="6.69307">
        <ele>1583</ele>
        <time>2010-01-01T17:20:49Z</time>
      </trkpt>
      <trkpt lat="46.14828" lon="6.69296">
        <ele>1581</ele>
        <time>2010-01-01T17:21:03Z</time>
      </trkpt>
      <trkpt lat="46.14843" lon="6.69305">
        <ele>1573</ele>
        <time>2010-01-01T17:21:10Z</time>
      </trkpt>
      <trkpt lat="46.14868" lon="6.69324">
        <ele>1572</ele>
        <time>2010-01-01T17:21:21Z</time>
      </trkpt>
      <trkpt lat="46.1489" lon="6.6934">
        <ele>1567</ele>
        <time>2010-01-01T17:21:31Z</time>
      </trkpt>
      <trkpt lat="46.14922" lon="6.69376">
        <ele>1560</ele>
        <time>2010-01-01T17:21:47Z</time>
      </trkpt>
      <trkpt lat="46.14942" lon="6.69395">
        <ele>1559</ele>
        <time>2010-01-01T17:21:57Z</time>
      </trkpt>
      <trkpt lat="46.1498" lon="6.69423">
        <ele>1555</ele>
        <time>2010-01-01T17:22:14Z</time>
      </trkpt>
      <trkpt lat="46.15004" lon="6.69439">
        <ele>1553</ele>
        <time>2010-01-01T17:22:24Z</time>
      </trkpt>
      <trkpt lat="46.15026" lon="6.69452">
        <ele>1551</ele>
        <time>2010-01-01T17:22:34Z</time>
      </trkpt>
      <trkpt lat="46.15044" lon="6.69457">
        <ele>1550</ele>
        <time>2010-01-01T17:22:41Z</time>
      </trkpt>
      <trkpt lat="46.15073" lon="6.69459">
        <ele>1550</ele>
        <time>2010-01-01T17:22:53Z</time>
      </trkpt>
      <trkpt lat="46.15097" lon="6.69456">
        <ele>1546</ele>
        <time>2010-01-01T17:23:02Z</time>
      </trkpt>
      <trkpt lat="46.15113" lon="6.69444">
        <ele>1545</ele>
        <time>2010-01-01T17:23:10Z</time>
      </trkpt>
      <trkpt lat="46.15125" lon="6.69433">
        <ele>1545</ele>
        <time>2010-01-01T17:23:16Z</time>
      </trkpt>
      <trkpt lat="46.15134" lon="6.69417">
        <ele>1544</ele>
        <time>2010-01-01T17:23:21Z</time>
      </trkpt>
      <trkpt lat="46.15146" lon="6.69405">
        <ele>1540</ele>
        <time>2010-01-01T17:23:27Z</time>
      </trkpt>
      <trkpt lat="46.15162" lon="6.69395">
        <ele>1540</ele>
        <time>2010-01-01T17:23:34Z</time>
      </trkpt>
      <trkpt lat="46.15164" lon="6.69394">
        <ele>1540</ele>
        <time>2010-01-01T17:23:35Z</time>
      </trkpt>
      <trkpt lat="46.15183" lon="6.69382">
        <ele>1531</ele>
        <time>2010-01-01T17:23:43Z</time>
      </trkpt>
      <trkpt lat="46.15189" lon="6.6938">
        <ele>1530</ele>
        <time>2010-01-01T17:23:45Z</time>
      </trkpt>
      <trkpt lat="46.15205" lon="6.69377">
        <ele>1529</ele>
        <time>2010-01-01T17:23:52Z</time>
      </trkpt>
      <trkpt lat="46.15205" lon="6.69376">
        <ele>1529</ele>
        <time>2010-01-01T17:23:52Z</time>
      </trkpt>
      <trkpt lat="46.15218" lon="6.69378">
        <ele>1528</ele>
        <time>2010-01-01T17:23:57Z</time>
      </trkpt>
      <trkpt lat="46.1522" lon="6.69379">
        <ele>1528</ele>
        <time>2010-01-01T17:23:58Z</time>
      </trkpt>
      <trkpt lat="46.15233" lon="6.69388">
        <ele>1527</ele>
        <time>2010-01-01T17:24:04Z</time>
      </trkpt>
      <trkpt lat="46.15235" lon="6.69389">
        <ele>1527</ele>
        <time>2010-01-01T17:24:05Z</time>
      </trkpt>
      <trkpt lat="46.15248" lon="6.69401">
        <ele>1526</ele>
        <time>2010-01-01T17:24:11Z</time>
      </trkpt>
      <trkpt lat="46.15262" lon="6.6941">
        <ele>1523</ele>
        <time>2010-01-01T17:24:17Z</time>
      </trkpt>
      <trkpt lat="46.15281" lon="6.69415">
        <ele>1521</ele>
        <time>2010-01-01T17:24:25Z</time>
      </trkpt>
      <trkpt lat="46.15282" lon="6.69414">
        <ele>1521</ele>
        <time>2010-01-01T17:24:26Z</time>
      </trkpt>
      <trkpt lat="46.153" lon="6.69414">
        <ele>1520</ele>
        <time>2010-01-01T17:24:33Z</time>
      </trkpt>
      <trkpt lat="46.15361" lon="6.69431">
        <ele>1518</ele>
        <time>2010-01-01T17:24:58Z</time>
      </trkpt>
      <trkpt lat="46.15362" lon="6.6943">
        <ele>1518</ele>
        <time>2010-01-01T17:24:58Z</time>
      </trkpt>
      <trkpt lat="46.1541" lon="6.69434">
        <ele>1522</ele>
        <time>2010-01-01T17:25:17Z</time>
      </trkpt>
      <trkpt lat="46.15427" lon="6.69424">
        <ele>1525</ele>
        <time>2010-01-01T17:25:25Z</time>
      </trkpt>
      <trkpt lat="46.1543" lon="6.69424">
        <ele>1524</ele>
        <time>2010-01-01T17:25:26Z</time>
      </trkpt>
      <trkpt lat="46.15433" lon="6.69424">
        <ele>1524</ele>
        <time>2010-01-01T17:25:27Z</time>
      </trkpt>
      <trkpt lat="46.15459" lon="6.69417">
        <ele>1526</ele>
        <time>2010-01-01T17:25:37Z</time>
      </trkpt>
      <trkpt lat="46.15462" lon="6.69416">
        <ele>1526</ele>
        <time>2010-01-01T17:25:39Z</time>
      </trkpt>
      <trkpt lat="46.15475" lon="6.69417">
        <ele>1522</ele>
        <time>2010-01-01T17:25:44Z</time>
      </trkpt>
      <trkpt lat="46.15477" lon="6.69418">
        <ele>1522</ele>
        <time>2010-01-01T17:25:45Z</time>
      </trkpt>
      <trkpt lat="46.15525" lon="6.69414">
        <ele>1525</ele>
        <time>2010-01-01T17:26:04Z</time>
      </trkpt>
      <trkpt lat="46.15526" lon="6.6941">
        <ele>1525</ele>
        <time>2010-01-01T17:26:05Z</time>
      </trkpt>
      <trkpt lat="46.15558" lon="6.69391">
        <ele>1524</ele>
        <time>2010-01-01T17:26:19Z</time>
      </trkpt>
      <trkpt lat="46.15558" lon="6.69391">
        <ele>1524</ele>
        <time>2010-01-01T17:26:19Z</time>
      </trkpt>
      <trkpt lat="46.15562" lon="6.69389">
        <ele>1524</ele>
        <time>2010-01-01T17:26:20Z</time>
      </trkpt>
      <trkpt lat="46.15593" lon="6.6938">
        <ele>1521</ele>
        <time>2010-01-01T17:26:33Z</time>
      </trkpt>
      <trkpt lat="46.15596" lon="6.69377">
        <ele>1521</ele>
        <time>2010-01-01T17:26:35Z</time>
      </trkpt>
      <trkpt lat="46.15598" lon="6.69376">
        <ele>1521</ele>
        <time>2010-01-01T17:26:35Z</time>
      </trkpt>
      <trkpt lat="46.15598" lon="6.69375">
        <ele>1521</ele>
        <time>2010-01-01T17:26:36Z</time>
      </trkpt>
      <trkpt lat="46.156" lon="6.69371">
        <ele>1521</ele>
        <time>2010-01-01T17:26:37Z</time>
      </trkpt>
      <trkpt lat="46.1561" lon="6.69363">
        <ele>1522</ele>
        <time>2010-01-01T17:26:42Z</time>
      </trkpt>
      <trkpt lat="46.1561" lon="6.69361">
        <ele>1522</ele>
        <time>2010-01-01T17:26:42Z</time>
      </trkpt>
      <trkpt lat="46.15658" lon="6.69333">
        <ele>1526</ele>
        <time>2010-01-01T17:27:03Z</time>
      </trkpt>
      <trkpt lat="46.15694" lon="6.69326">
        <ele>1517</ele>
        <time>2010-01-01T17:27:18Z</time>
      </trkpt>
      <trkpt lat="46.15721" lon="6.69296">
        <ele>1512</ele>
        <time>2010-01-01T17:27:31Z</time>
      </trkpt>
      <trkpt lat="46.15766" lon="6.6928">
        <ele>1501</ele>
        <time>2010-01-01T17:27:50Z</time>
      </trkpt>
      <trkpt lat="46.15816" lon="6.69262">
        <ele>1499</ele>
        <time>2010-01-01T17:28:11Z</time>
      </trkpt>
      <trkpt lat="46.15892" lon="6.69273">
        <ele>1497</ele>
        <time>2010-01-01T17:28:41Z</time>
      </trkpt>
      <trkpt lat="46.15941" lon="6.69326">
        <ele>1500</ele>
        <time>2010-01-01T17:29:06Z</time>
      </trkpt>
      <trkpt lat="46.15961" lon="6.6935">
        <ele>1498</ele>
        <time>2010-01-01T17:29:16Z</time>
      </trkpt>
      <trkpt lat="46.16014" lon="6.69366">
        <ele>1511</ele>
        <time>2010-01-01T17:29:38Z</time>
      </trkpt>
      <trkpt lat="46.16063" lon="6.69408">
        <ele>1520</ele>
        <time>2010-01-01T17:30:01Z</time>
      </trkpt>
      <trkpt lat="46.16097" lon="6.69454">
        <ele>1530</ele>
        <time>2010-01-01T17:30:19Z</time>
      </trkpt>
      <trkpt lat="46.16206" lon="6.69488">
        <ele>1538</ele>
        <time>2010-01-01T17:31:04Z</time>
      </trkpt>
      <trkpt lat="46.16247" lon="6.69473">
        <ele>1538</ele>
        <time>2010-01-01T17:31:21Z</time>
      </trkpt>
      <trkpt lat="46.16305" lon="6.69362">
        <ele>1540</ele>
        <time>2010-01-01T17:31:59Z</time>
      </trkpt>
      <trkpt lat="46.1641" lon="6.69316">
        <ele>1532</ele>
        <time>2010-01-01T17:32:43Z</time>
      </trkpt>
      <trkpt lat="46.16427" lon="6.69314">
        <ele>1529</ele>
        <time>2010-01-01T17:32:50Z</time>
      </trkpt>
      <trkpt lat="46.16486" lon="6.69301">
        <ele>1527</ele>
        <time>2010-01-01T17:33:14Z</time>
      </trkpt>
      <trkpt lat="46.16556" lon="6.69284">
        <ele>1527</ele>
        <time>2010-01-01T17:33:42Z</time>
      </trkpt>
      <trkpt lat="46.16623" lon="6.69288">
        <ele>1524</ele>
        <time>2010-01-01T17:34:09Z</time>
      </trkpt>
      <trkpt lat="46.16631" lon="6.69288">
        <ele>1524</ele>
        <time>2010-01-01T17:34:12Z</time>
      </trkpt>
      <trkpt lat="46.16714" lon="6.69259">
        <ele>1521</ele>
        <time>2010-01-01T17:34:47Z</time>
      </trkpt>
      <trkpt lat="46.16769" lon="6.6924">
        <ele>1519</ele>
        <time>2010-01-01T17:35:09Z</time>
      </trkpt>
      <trkpt lat="46.16856" lon="6.69218">
        <ele>1509</ele>
        <time>2010-01-01T17:35:45Z</time>
      </trkpt>
      <trkpt lat="46.16881" lon="6.69216">
        <ele>1507</ele>
        <time>2010-01-01T17:35:54Z</time>
      </trkpt>
      <trkpt lat="46.16905" lon="6.69214">
        <ele>1506</ele>
        <time>2010-01-01T17:36:04Z</time>
      </trkpt>
      <trkpt lat="46.16975" lon="6.69214">
        <ele>1495</ele>
        <time>2010-01-01T17:36:32Z</time>
      </trkpt>
      <trkpt lat="46.16824" lon="6.69224">
        <ele>1515</ele>
        <time>2010-01-01T17:37:33Z</time>
      </trkpt>
      <trkpt lat="46.16725" lon="6.69271">
        <ele>1519</ele>
        <time>2010-01-01T17:38:15Z</time>
      </trkpt>
      <trkpt lat="46.16664" lon="6.6928">
        <ele>1525</ele>
        <time>2010-01-01T17:38:39Z</time>
      </trkpt>
      <trkpt lat="46.16617" lon="6.69301">
        <ele>1523</ele>
        <time>2010-01-01T17:38:59Z</time>
      </trkpt>
      <trkpt lat="46.16561" lon="6.69306">
        <ele>1525</ele>
        <time>2010-01-01T17:39:21Z</time>
      </trkpt>
      <trkpt lat="46.16512" lon="6.69307">
        <ele>1525</ele>
        <time>2010-01-01T17:39:41Z</time>
      </trkpt>
      <trkpt lat="46.16472" lon="6.69308">
        <ele>1527</ele>
        <time>2010-01-01T17:39:57Z</time>
      </trkpt>
      <trkpt lat="46.16418" lon="6.69324">
        <ele>1530</ele>
        <time>2010-01-01T17:40:19Z</time>
      </trkpt>
      <trkpt lat="46.16459" lon="6.69328">
        <ele>1528</ele>
        <time>2010-01-01T17:40:36Z</time>
      </trkpt>
      <trkpt lat="46.16513" lon="6.69334">
        <ele>1516</ele>
        <time>2010-01-01T17:40:58Z</time>
      </trkpt>
      <trkpt lat="46.16548" lon="6.69348">
        <ele>1510</ele>
        <time>2010-01-01T17:41:12Z</time>
      </trkpt>
      <trkpt lat="46.16614" lon="6.69354">
        <ele>1502</ele>
        <time>2010-01-01T17:41:39Z</time>
      </trkpt>
      <trkpt lat="46.16679" lon="6.69355">
        <ele>1494</ele>
        <time>2010-01-01T17:42:05Z</time>
      </trkpt>
      <trkpt lat="46.16743" lon="6.69358">
        <ele>1490</ele>
        <time>2010-01-01T17:42:30Z</time>
      </trkpt>
      <trkpt lat="46.16851" lon="6.69377">
        <ele>1474</ele>
        <time>2010-01-01T17:43:14Z</time>
      </trkpt>
      <trkpt lat="46.16911" lon="6.69391">
        <ele>1468</ele>
        <time>2010-01-01T17:43:38Z</time>
      </trkpt>
      <trkpt lat="46.16959" lon="6.69401">
        <ele>1459</ele>
        <time>2010-01-01T17:43:58Z</time>
      </trkpt>
      <trkpt lat="46.17" lon="6.69412">
        <ele>1444</ele>
        <time>2010-01-01T17:44:14Z</time>
      </trkpt>
      <trkpt lat="46.16983" lon="6.69418">
        <ele>1441</ele>
        <time>2010-01-01T17:44:22Z</time>
      </trkpt>
      <trkpt lat="46.16961" lon="6.6944">
        <ele>1439</ele>
        <time>2010-01-01T17:44:32Z</time>
      </trkpt>
      <trkpt lat="46.16938" lon="6.69449">
        <ele>1439</ele>
        <time>2010-01-01T17:44:42Z</time>
      </trkpt>
      <trkpt lat="46.16909" lon="6.6946">
        <ele>1438</ele>
        <time>2010-01-01T17:44:54Z</time>
      </trkpt>
      <trkpt lat="46.1684" lon="6.69476">
        <ele>1431</ele>
        <time>2010-01-01T17:45:22Z</time>
      </trkpt>
      <trkpt lat="46.16748" lon="6.69513">
        <ele>1418</ele>
        <time>2010-01-01T17:46:00Z</time>
      </trkpt>
      <trkpt lat="46.16666" lon="6.69555">
        <ele>1416</ele>
        <time>2010-01-01T17:46:35Z</time>
      </trkpt>
      <trkpt lat="46.16613" lon="6.69574">
        <ele>1415</ele>
        <time>2010-01-01T17:46:57Z</time>
      </trkpt>
      <trkpt lat="46.166" lon="6.69575">
        <ele>1413</ele>
        <time>2010-01-01T17:47:02Z</time>
      </trkpt>
      <trkpt lat="46.16594" lon="6.69576">
        <ele>1412</ele>
        <time>2010-01-01T17:47:04Z</time>
      </trkpt>
      <trkpt lat="46.16596" lon="6.69584">
        <ele>1399</ele>
        <time>2010-01-01T17:47:07Z</time>
      </trkpt>
      <trkpt lat="46.1661" lon="6.69596">
        <ele>1394</ele>
        <time>2010-01-01T17:47:13Z</time>
      </trkpt>
      <trkpt lat="46.16645" lon="6.69611">
        <ele>1391</ele>
        <time>2010-01-01T17:47:28Z</time>
      </trkpt>
      <trkpt lat="46.16671" lon="6.69626">
        <ele>1384</ele>
        <time>2010-01-01T17:47:39Z</time>
      </trkpt>
      <trkpt lat="46.16705" lon="6.69636">
        <ele>1381</ele>
        <time>2010-01-01T17:47:53Z</time>
      </trkpt>
      <trkpt lat="46.16721" lon="6.69636">
        <ele>1380</ele>
        <time>2010-01-01T17:47:59Z</time>
      </trkpt>
      <trkpt lat="46.16742" lon="6.69641">
        <ele>1377</ele>
        <time>2010-01-01T17:48:08Z</time>
      </trkpt>
      <trkpt lat="46.16749" lon="6.69644">
        <ele>1375</ele>
        <time>2010-01-01T17:48:11Z</time>
      </trkpt>
      <trkpt lat="46.16764" lon="6.6965">
        <ele>1369</ele>
        <time>2010-01-01T17:48:17Z</time>
      </trkpt>
      <trkpt lat="46.16782" lon="6.69648">
        <ele>1369</ele>
        <time>2010-01-01T17:48:24Z</time>
      </trkpt>
      <trkpt lat="46.16801" lon="6.69644">
        <ele>1367</ele>
        <time>2010-01-01T17:48:32Z</time>
      </trkpt>
      <trkpt lat="46.16814" lon="6.69649">
        <ele>1364</ele>
        <time>2010-01-01T17:48:37Z</time>
      </trkpt>
      <trkpt lat="46.16836" lon="6.69676">
        <ele>1346</ele>
        <time>2010-01-01T17:48:49Z</time>
      </trkpt>
      <trkpt lat="46.16841" lon="6.69679">
        <ele>1345</ele>
        <time>2010-01-01T17:48:51Z</time>
      </trkpt>
      <trkpt lat="46.16859" lon="6.69702">
        <ele>1341</ele>
        <time>2010-01-01T17:49:01Z</time>
      </trkpt>
      <trkpt lat="46.16867" lon="6.69715">
        <ele>1340</ele>
        <time>2010-01-01T17:49:05Z</time>
      </trkpt>
      <trkpt lat="46.16867" lon="6.69715">
        <ele>1340</ele>
        <time>2010-01-01T17:49:06Z</time>
      </trkpt>
      <trkpt lat="46.16895" lon="6.69728">
        <ele>1338</ele>
        <time>2010-01-01T17:49:18Z</time>
      </trkpt>
      <trkpt lat="46.16898" lon="6.69729">
        <ele>1338</ele>
        <time>2010-01-01T17:49:19Z</time>
      </trkpt>
      <trkpt lat="46.16972" lon="6.69766">
        <ele>1322</ele>
        <time>2010-01-01T17:49:50Z</time>
      </trkpt>
      <trkpt lat="46.17028" lon="6.6979">
        <ele>1314</ele>
        <time>2010-01-01T17:50:13Z</time>
      </trkpt>
      <trkpt lat="46.17059" lon="6.69798">
        <ele>1311</ele>
        <time>2010-01-01T17:50:26Z</time>
      </trkpt>
      <trkpt lat="46.1709" lon="6.69797">
        <ele>1303</ele>
        <time>2010-01-01T17:50:38Z</time>
      </trkpt>
      <trkpt lat="46.17117" lon="6.69786">
        <ele>1303</ele>
        <time>2010-01-01T17:50:49Z</time>
      </trkpt>
      <trkpt lat="46.17153" lon="6.69773">
        <ele>1301</ele>
        <time>2010-01-01T17:51:05Z</time>
      </trkpt>
      <trkpt lat="46.17184" lon="6.69745">
        <ele>1306</ele>
        <time>2010-01-01T17:51:19Z</time>
      </trkpt>
      <trkpt lat="46.17215" lon="6.69725">
        <ele>1307</ele>
        <time>2010-01-01T17:51:33Z</time>
      </trkpt>
      <trkpt lat="46.17223" lon="6.69723">
        <ele>1307</ele>
        <time>2010-01-01T17:51:36Z</time>
      </trkpt>
      <trkpt lat="46.17264" lon="6.69679">
        <ele>1305</ele>
        <time>2010-01-01T17:51:57Z</time>
      </trkpt>
      <trkpt lat="46.17289" lon="6.69644">
        <ele>1308</ele>
        <time>2010-01-01T17:52:10Z</time>
      </trkpt>
      <trkpt lat="46.17306" lon="6.69602">
        <ele>1308</ele>
        <time>2010-01-01T17:52:24Z</time>
      </trkpt>
      <trkpt lat="46.1732" lon="6.69569">
        <ele>1311</ele>
        <time>2010-01-01T17:52:35Z</time>
      </trkpt>
      <trkpt lat="46.17336" lon="6.69545">
        <ele>1302</ele>
        <time>2010-01-01T17:52:44Z</time>
      </trkpt>
      <trkpt lat="46.17356" lon="6.69521">
        <ele>1302</ele>
        <time>2010-01-01T17:52:54Z</time>
      </trkpt>
      <trkpt lat="46.17357" lon="6.6952">
        <ele>1302</ele>
        <time>2010-01-01T17:52:55Z</time>
      </trkpt>
      <trkpt lat="46.17379" lon="6.69497">
        <ele>1305</ele>
        <time>2010-01-01T17:53:05Z</time>
      </trkpt>
      <trkpt lat="46.17394" lon="6.69478">
        <ele>1304</ele>
        <time>2010-01-01T17:53:13Z</time>
      </trkpt>
      <trkpt lat="46.17408" lon="6.69459">
        <ele>1305</ele>
        <time>2010-01-01T17:53:21Z</time>
      </trkpt>
      <trkpt lat="46.17412" lon="6.69449">
        <ele>1305</ele>
        <time>2010-01-01T17:53:24Z</time>
      </trkpt>
      <trkpt lat="46.17418" lon="6.69431">
        <ele>1299</ele>
        <time>2010-01-01T17:53:30Z</time>
      </trkpt>
      <trkpt lat="46.1743" lon="6.6941">
        <ele>1305</ele>
        <time>2010-01-01T17:53:38Z</time>
      </trkpt>
      <trkpt lat="46.17443" lon="6.69385">
        <ele>1307</ele>
        <time>2010-01-01T17:53:46Z</time>
      </trkpt>
      <trkpt lat="46.17459" lon="6.69359">
        <ele>1309</ele>
        <time>2010-01-01T17:53:56Z</time>
      </trkpt>
      <trkpt lat="46.17506" lon="6.69364">
        <ele>1303</ele>
        <time>2010-01-01T17:54:15Z</time>
      </trkpt>
      <trkpt lat="46.17547" lon="6.69371">
        <ele>1298</ele>
        <time>2010-01-01T17:54:31Z</time>
      </trkpt>
      <trkpt lat="46.17576" lon="6.69366">
        <ele>1297</ele>
        <time>2010-01-01T17:54:43Z</time>
      </trkpt>
      <trkpt lat="46.17602" lon="6.69352">
        <ele>1289</ele>
        <time>2010-01-01T17:54:54Z</time>
      </trkpt>
      <trkpt lat="46.17649" lon="6.69292">
        <ele>1292</ele>
        <time>2010-01-01T17:55:19Z</time>
      </trkpt>
      <trkpt lat="46.1766" lon="6.69247">
        <ele>1292</ele>
        <time>2010-01-01T17:55:33Z</time>
      </trkpt>
      <trkpt lat="46.17682" lon="6.69223">
        <ele>1287</ele>
        <time>2010-01-01T17:55:44Z</time>
      </trkpt>
      <trkpt lat="46.17692" lon="6.69217">
        <ele>1287</ele>
        <time>2010-01-01T17:55:48Z</time>
      </trkpt>
      <trkpt lat="46.17725" lon="6.69188">
        <ele>1285</ele>
        <time>2010-01-01T17:56:03Z</time>
      </trkpt>
      <trkpt lat="46.17761" lon="6.69157">
        <ele>1279</ele>
        <time>2010-01-01T17:56:20Z</time>
      </trkpt>
      <trkpt lat="46.17768" lon="6.69128">
        <ele>1278</ele>
        <time>2010-01-01T17:56:28Z</time>
      </trkpt>
      <trkpt lat="46.17787" lon="6.69118">
        <ele>1276</ele>
        <time>2010-01-01T17:56:37Z</time>
      </trkpt>
      <trkpt lat="46.17815" lon="6.69097">
        <ele>1271</ele>
        <time>2010-01-01T17:56:49Z</time>
      </trkpt>
      <trkpt lat="46.1785" lon="6.69079">
        <ele>1259</ele>
        <time>2010-01-01T17:57:04Z</time>
      </trkpt>
      <trkpt lat="46.17893" lon="6.69067">
        <ele>1252</ele>
        <time>2010-01-01T17:57:22Z</time>
      </trkpt>
      <trkpt lat="46.17925" lon="6.69056">
        <ele>1240</ele>
        <time>2010-01-01T17:57:35Z</time>
      </trkpt>
      <trkpt lat="46.17951" lon="6.6905">
        <ele>1236</ele>
        <time>2010-01-01T17:57:45Z</time>
      </trkpt>
      <trkpt lat="46.1799" lon="6.69074">
        <ele>1230</ele>
        <time>2010-01-01T17:58:02Z</time>
      </trkpt>
      <trkpt lat="46.18018" lon="6.69075">
        <ele>1222</ele>
        <time>2010-01-01T17:58:14Z</time>
      </trkpt>
      <trkpt lat="46.18035" lon="6.69059">
        <ele>1220</ele>
        <time>2010-01-01T17:58:22Z</time>
      </trkpt>
      <trkpt lat="46.18076" lon="6.69028">
        <ele>1218</ele>
        <time>2010-01-01T17:58:40Z</time>
      </trkpt>
      <trkpt lat="46.18114" lon="6.68981">
        <ele>1210</ele>
        <time>2010-01-01T17:59:00Z</time>
      </trkpt>
      <trkpt lat="46.18117" lon="6.68969">
        <ele>1209</ele>
        <time>2010-01-01T17:59:04Z</time>
      </trkpt>
      <trkpt lat="46.18148" lon="6.6893">
        <ele>1205</ele>
        <time>2010-01-01T17:59:20Z</time>
      </trkpt>
      <trkpt lat="46.18194" lon="6.68892">
        <ele>1188</ele>
        <time>2010-01-01T17:59:41Z</time>
      </trkpt>
      <trkpt lat="46.18243" lon="6.68852">
        <ele>1180</ele>
        <time>2010-01-01T18:00:04Z</time>
      </trkpt>
      <trkpt lat="46.18328" lon="6.68857">
        <ele>1173</ele>
        <time>2010-01-01T18:00:38Z</time>
      </trkpt>
      <trkpt lat="46.18411" lon="6.68873">
        <ele>1162</ele>
        <time>2010-01-01T18:01:11Z</time>
      </trkpt>
      <trkpt lat="46.18476" lon="6.68926">
        <ele>1146</ele>
        <time>2010-01-01T18:01:41Z</time>
      </trkpt>
      <trkpt lat="46.18522" lon="6.68989">
        <ele>1131</ele>
        <time>2010-01-01T18:02:07Z</time>
      </trkpt>
      <trkpt lat="46.18547" lon="6.69062">
        <ele>1114</ele>
        <time>2010-01-01T18:02:29Z</time>
      </trkpt>
      <trkpt lat="46.18541" lon="6.69143">
        <ele>1101</ele>
        <time>2010-01-01T18:02:52Z</time>
      </trkpt>
      <trkpt lat="46.18459" lon="6.69268">
        <ele>1079</ele>
        <time>2010-01-01T18:03:39Z</time>
      </trkpt>
      <trkpt lat="46.18356" lon="6.69342">
        <ele>1075</ele>
        <time>2010-01-01T18:04:26Z</time>
      </trkpt>
      <trkpt lat="46.18297" lon="6.69436">
        <ele>1058</ele>
        <time>2010-01-01T18:05:01Z</time>
      </trkpt>
      <trkpt lat="46.18216" lon="6.69582">
        <ele>1045</ele>
        <time>2010-01-01T18:05:53Z</time>
      </trkpt>
      <trkpt lat="46.18168" lon="6.69636">
        <ele>1028</ele>
        <time>2010-01-01T18:06:17Z</time>
      </trkpt>
      <trkpt lat="46.18137" lon="6.69687">
        <ele>1034</ele>
        <time>2010-01-01T18:06:36Z</time>
      </trkpt>
      <trkpt lat="46.18125" lon="6.69753">
        <ele>1016</ele>
        <time>2010-01-01T18:06:55Z</time>
      </trkpt>
      <trkpt lat="46.18085" lon="6.69798">
        <ele>1015</ele>
        <time>2010-01-01T18:07:15Z</time>
      </trkpt>
      <trkpt lat="46.18085" lon="6.69873">
        <ele>998</ele>
        <time>2010-01-01T18:07:36Z</time>
      </trkpt>
      <trkpt lat="46.18099" lon="6.69947">
        <ele>988</ele>
        <time>2010-01-01T18:07:57Z</time>
      </trkpt>
      <trkpt lat="46.18209" lon="6.70091">
        <ele>975</ele>
        <time>2010-01-01T18:08:57Z</time>
      </trkpt>
      <trkpt lat="46.1832" lon="6.70255">
        <ele>971</ele>
        <time>2010-01-01T18:10:00Z</time>
      </trkpt>
      <trkpt lat="46.18361" lon="6.70376">
        <ele>955</ele>
        <time>2010-01-01T18:10:37Z</time>
      </trkpt>
      <trkpt lat="46.18394" lon="6.70423">
        <ele>947</ele>
        <time>2010-01-01T18:10:56Z</time>
      </trkpt>
      <trkpt lat="46.18421" lon="6.70506">
        <ele>956</ele>
        <time>2010-01-01T18:11:21Z</time>
      </trkpt>
      <trkpt lat="46.18436" lon="6.70509">
        <ele>962</ele>
        <time>2010-01-01T18:11:27Z</time>
      </trkpt>
      <trkpt lat="46.18466" lon="6.70545">
        <ele>970</ele>
        <time>2010-01-01T18:11:43Z</time>
      </trkpt>
      <trkpt lat="46.18473" lon="6.70572">
        <ele>974</ele>
        <time>2010-01-01T18:11:51Z</time>
      </trkpt>
      <trkpt lat="46.18535" lon="6.70729">
        <ele>1031</ele>
        <time>2010-01-01T18:12:41Z</time>
      </trkpt>
      <trkpt lat="46.18659" lon="6.70836">
        <ele>1122</ele>
        <time>2010-01-01T18:13:39Z</time>
      </trkpt>
      <trkpt lat="46.18706" lon="6.70973">
        <ele>1181</ele>
        <time>2010-01-01T18:14:21Z</time>
      </trkpt>
      <trkpt lat="46.18814" lon="6.71177">
        <ele>1283</ele>
        <time>2010-01-01T18:15:33Z</time>
      </trkpt>
      <trkpt lat="46.1888" lon="6.71327">
        <ele>1331</ele>
        <time>2010-01-01T18:16:22Z</time>
      </trkpt>
      <trkpt lat="46.18955" lon="6.71477">
        <ele>1378</ele>
        <time>2010-01-01T18:17:13Z</time>
      </trkpt>
      <trkpt lat="46.19057" lon="6.71655">
        <ele>1426</ele>
        <time>2010-01-01T18:18:17Z</time>
      </trkpt>
      <trkpt lat="46.1911" lon="6.71769">
        <ele>1458</ele>
        <time>2010-01-01T18:18:55Z</time>
      </trkpt>
      <trkpt lat="46.19117" lon="6.71791">
        <ele>1460</ele>
        <time>2010-01-01T18:19:02Z</time>
      </trkpt>
      <trkpt lat="46.19117" lon="6.71812">
        <ele>1461</ele>
        <time>2010-01-01T18:19:08Z</time>
      </trkpt>
      <trkpt lat="46.19113" lon="6.71821">
        <ele>1461</ele>
        <time>2010-01-01T18:19:11Z</time>
      </trkpt>
      <trkpt lat="46.19106" lon="6.71822">
        <ele>1461</ele>
        <time>2010-01-01T18:19:13Z</time>
      </trkpt>
      <trkpt lat="46.19093" lon="6.71801">
        <ele>1460</ele>
        <time>2010-01-01T18:19:21Z</time>
      </trkpt>
      <trkpt lat="46.19092" lon="6.718">
        <ele>1460</ele>
        <time>2010-01-01T18:19:22Z</time>
      </trkpt>
      <trkpt lat="46.19075" lon="6.718">
        <ele>1454</ele>
        <time>2010-01-01T18:19:28Z</time>
      </trkpt>
      <trkpt lat="46.19062" lon="6.71799">
        <ele>1454</ele>
        <time>2010-01-01T18:19:34Z</time>
      </trkpt>
      <trkpt lat="46.1906" lon="6.71798">
        <ele>1453</ele>
        <time>2010-01-01T18:19:34Z</time>
      </trkpt>
      <trkpt lat="46.19052" lon="6.71794">
        <ele>1453</ele>
        <time>2010-01-01T18:19:38Z</time>
      </trkpt>
      <trkpt lat="46.19051" lon="6.71794">
        <ele>1453</ele>
        <time>2010-01-01T18:19:38Z</time>
      </trkpt>
      <trkpt lat="46.19043" lon="6.71787">
        <ele>1452</ele>
        <time>2010-01-01T18:19:42Z</time>
      </trkpt>
      <trkpt lat="46.1904" lon="6.71785">
        <ele>1451</ele>
        <time>2010-01-01T18:19:43Z</time>
      </trkpt>
      <trkpt lat="46.19038" lon="6.71785">
        <ele>1451</ele>
        <time>2010-01-01T18:19:44Z</time>
      </trkpt>
      <trkpt lat="46.19028" lon="6.71784">
        <ele>1451</ele>
        <time>2010-01-01T18:19:48Z</time>
      </trkpt>
      <trkpt lat="46.19027" lon="6.71794">
        <ele>1451</ele>
        <time>2010-01-01T18:19:51Z</time>
      </trkpt>
      <trkpt lat="46.19074" lon="6.7191">
        <ele>1471</ele>
        <time>2010-01-01T18:20:28Z</time>
      </trkpt>
      <trkpt lat="46.19145" lon="6.72053">
        <ele>1506</ele>
        <time>2010-01-01T18:21:17Z</time>
      </trkpt>
      <trkpt lat="46.19632" lon="6.73213">
        <ele>1741</ele>
        <time>2010-01-01T18:27:33Z</time>
      </trkpt>
      <trkpt lat="46.19629" lon="6.73293">
        <ele>1742</ele>
        <time>2010-01-01T18:27:55Z</time>
      </trkpt>
      <trkpt lat="46.19621" lon="6.73314">
        <ele>1742</ele>
        <time>2010-01-01T18:28:02Z</time>
      </trkpt>
      <trkpt lat="46.19609" lon="6.7335">
        <ele>1740</ele>
        <time>2010-01-01T18:28:13Z</time>
      </trkpt>
      <trkpt lat="46.19603" lon="6.7341">
        <ele>1740</ele>
        <time>2010-01-01T18:28:29Z</time>
      </trkpt>
      <trkpt lat="46.19621" lon="6.7348">
        <ele>1738</ele>
        <time>2010-01-01T18:28:50Z</time>
      </trkpt>
      <trkpt lat="46.19627" lon="6.73532">
        <ele>1737</ele>
        <time>2010-01-01T18:29:05Z</time>
      </trkpt>
      <trkpt lat="46.19657" lon="6.73591">
        <ele>1740</ele>
        <time>2010-01-01T18:29:25Z</time>
      </trkpt>
      <trkpt lat="46.19678" lon="6.73624">
        <ele>1738</ele>
        <time>2010-01-01T18:29:37Z</time>
      </trkpt>
      <trkpt lat="46.19719" lon="6.73677">
        <ele>1740</ele>
        <time>2010-01-01T18:29:59Z</time>
      </trkpt>
      <trkpt lat="46.19801" lon="6.73799">
        <ele>1750</ele>
        <time>2010-01-01T18:30:47Z</time>
      </trkpt>
      <trkpt lat="46.19873" lon="6.73958">
        <ele>1755</ele>
        <time>2010-01-01T18:31:39Z</time>
      </trkpt>
      <trkpt lat="46.19908" lon="6.74006">
        <ele>1754</ele>
        <time>2010-01-01T18:31:58Z</time>
      </trkpt>
      <trkpt lat="46.19932" lon="6.74043">
        <ele>1752</ele>
        <time>2010-01-01T18:32:13Z</time>
      </trkpt>
      <trkpt lat="46.1999" lon="6.74108">
        <ele>1756</ele>
        <time>2010-01-01T18:32:42Z</time>
      </trkpt>
      <trkpt lat="46.20023" lon="6.74197">
        <ele>1755</ele>
        <time>2010-01-01T18:33:10Z</time>
      </trkpt>
      <trkpt lat="46.20043" lon="6.74249">
        <ele>1754</ele>
        <time>2010-01-01T18:33:26Z</time>
      </trkpt>
      <trkpt lat="46.20046" lon="6.74277">
        <ele>1755</ele>
        <time>2010-01-01T18:33:34Z</time>
      </trkpt>
      <trkpt lat="46.2004" lon="6.74307">
        <ele>1755</ele>
        <time>2010-01-01T18:33:43Z</time>
      </trkpt>
      <trkpt lat="46.20036" lon="6.74364">
        <ele>1751</ele>
        <time>2010-01-01T18:33:58Z</time>
      </trkpt>
      <trkpt lat="46.20043" lon="6.74393">
        <ele>1750</ele>
        <time>2010-01-01T18:34:07Z</time>
      </trkpt>
      <trkpt lat="46.2005" lon="6.74449">
        <ele>1745</ele>
        <time>2010-01-01T18:34:23Z</time>
      </trkpt>
      <trkpt lat="46.20055" lon="6.74492">
        <ele>1745</ele>
        <time>2010-01-01T18:34:35Z</time>
      </trkpt>
      <trkpt lat="46.20056" lon="6.74526">
        <ele>1740</ele>
        <time>2010-01-01T18:34:44Z</time>
      </trkpt>
      <trkpt lat="46.20059" lon="6.74553">
        <ele>1739</ele>
        <time>2010-01-01T18:34:52Z</time>
      </trkpt>
      <trkpt lat="46.2006" lon="6.74555">
        <ele>1739</ele>
        <time>2010-01-01T18:34:53Z</time>
      </trkpt>
      <trkpt lat="46.20071" lon="6.74578">
        <ele>1740</ele>
        <time>2010-01-01T18:35:00Z</time>
      </trkpt>
      <trkpt lat="46.20073" lon="6.74604">
        <ele>1738</ele>
        <time>2010-01-01T18:35:08Z</time>
      </trkpt>
      <trkpt lat="46.20073" lon="6.74616">
        <ele>1737</ele>
        <time>2010-01-01T18:35:11Z</time>
      </trkpt>
      <trkpt lat="46.20072" lon="6.74645">
        <ele>1738</ele>
        <time>2010-01-01T18:35:19Z</time>
      </trkpt>
      <trkpt lat="46.20072" lon="6.74646">
        <ele>1738</ele>
        <time>2010-01-01T18:35:19Z</time>
      </trkpt>
      <trkpt lat="46.20078" lon="6.74707">
        <ele>1736</ele>
        <time>2010-01-01T18:35:36Z</time>
      </trkpt>
      <trkpt lat="46.20083" lon="6.74747">
        <ele>1742</ele>
        <time>2010-01-01T18:35:48Z</time>
      </trkpt>
      <trkpt lat="46.20093" lon="6.74841">
        <ele>1740</ele>
        <time>2010-01-01T18:36:14Z</time>
      </trkpt>
      <trkpt lat="46.20093" lon="6.74885">
        <ele>1738</ele>
        <time>2010-01-01T18:36:26Z</time>
      </trkpt>
      <trkpt lat="46.20107" lon="6.74982">
        <ele>1743</ele>
        <time>2010-01-01T18:36:54Z</time>
      </trkpt>
      <trkpt lat="46.20125" lon="6.75107">
        <ele>1750</ele>
        <time>2010-01-01T18:37:29Z</time>
      </trkpt>
      <trkpt lat="46.20133" lon="6.75199">
        <ele>1752</ele>
        <time>2010-01-01T18:37:55Z</time>
      </trkpt>
      <trkpt lat="46.20131" lon="6.75297">
        <ele>1755</ele>
        <time>2010-01-01T18:38:22Z</time>
      </trkpt>
      <trkpt lat="46.20121" lon="6.75378">
        <ele>1758</ele>
        <time>2010-01-01T18:38:45Z</time>
      </trkpt>
      <trkpt lat="46.20113" lon="6.75437">
        <ele>1759</ele>
        <time>2010-01-01T18:39:01Z</time>
      </trkpt>
      <trkpt lat="46.20108" lon="6.75467">
        <ele>1760</ele>
        <time>2010-01-01T18:39:10Z</time>
      </trkpt>
      <trkpt lat="46.20105" lon="6.75577">
        <ele>1761</ele>
        <time>2010-01-01T18:39:41Z</time>
      </trkpt>
      <trkpt lat="46.201" lon="6.75671">
        <ele>1763</ele>
        <time>2010-01-01T18:40:07Z</time>
      </trkpt>
      <trkpt lat="46.20097" lon="6.75695">
        <ele>1765</ele>
        <time>2010-01-01T18:40:13Z</time>
      </trkpt>
      <trkpt lat="46.20097" lon="6.75696">
        <ele>1765</ele>
        <time>2010-01-01T18:40:13Z</time>
      </trkpt>
      <trkpt lat="46.20084" lon="6.75723">
        <ele>1765</ele>
        <time>2010-01-01T18:40:22Z</time>
      </trkpt>
      <trkpt lat="46.20072" lon="6.75754">
        <ele>1761</ele>
        <time>2010-01-01T18:40:33Z</time>
      </trkpt>
      <trkpt lat="46.20069" lon="6.75758">
        <ele>1760</ele>
        <time>2010-01-01T18:40:34Z</time>
      </trkpt>
      <trkpt lat="46.20062" lon="6.75768">
        <ele>1759</ele>
        <time>2010-01-01T18:40:38Z</time>
      </trkpt>
      <trkpt lat="46.20056" lon="6.75785">
        <ele>1758</ele>
        <time>2010-01-01T18:40:43Z</time>
      </trkpt>
      <trkpt lat="46.20054" lon="6.75792">
        <ele>1758</ele>
        <time>2010-01-01T18:40:46Z</time>
      </trkpt>
      <trkpt lat="46.20054" lon="6.75812">
        <ele>1759</ele>
        <time>2010-01-01T18:40:51Z</time>
      </trkpt>
      <trkpt lat="46.20053" lon="6.7583">
        <ele>1759</ele>
        <time>2010-01-01T18:40:56Z</time>
      </trkpt>
      <trkpt lat="46.20054" lon="6.75847">
        <ele>1758</ele>
        <time>2010-01-01T18:41:01Z</time>
      </trkpt>
      <trkpt lat="46.20051" lon="6.75865">
        <ele>1756</ele>
        <time>2010-01-01T18:41:06Z</time>
      </trkpt>
      <trkpt lat="46.20042" lon="6.75879">
        <ele>1756</ele>
        <time>2010-01-01T18:41:11Z</time>
      </trkpt>
      <trkpt lat="46.20032" lon="6.75895">
        <ele>1756</ele>
        <time>2010-01-01T18:41:17Z</time>
      </trkpt>
      <trkpt lat="46.20025" lon="6.75907">
        <ele>1756</ele>
        <time>2010-01-01T18:41:21Z</time>
      </trkpt>
      <trkpt lat="46.20016" lon="6.7592">
        <ele>1753</ele>
        <time>2010-01-01T18:41:27Z</time>
      </trkpt>
      <trkpt lat="46.2002" lon="6.75928">
        <ele>1752</ele>
        <time>2010-01-01T18:41:29Z</time>
      </trkpt>
      <trkpt lat="46.2002" lon="6.75928">
        <ele>1752</ele>
        <time>2010-01-01T18:41:30Z</time>
      </trkpt>
      <trkpt lat="46.20032" lon="6.75924">
        <ele>1750</ele>
        <time>2010-01-01T18:41:34Z</time>
      </trkpt>
      <trkpt lat="46.20038" lon="6.75921">
        <ele>1750</ele>
        <time>2010-01-01T18:41:37Z</time>
      </trkpt>
      <trkpt lat="46.20038" lon="6.75942">
        <ele>1749</ele>
        <time>2010-01-01T18:41:43Z</time>
      </trkpt>
      <trkpt lat="46.20032" lon="6.75959">
        <ele>1748</ele>
        <time>2010-01-01T18:41:48Z</time>
      </trkpt>
      <trkpt lat="46.2003" lon="6.7596">
        <ele>1748</ele>
        <time>2010-01-01T18:41:49Z</time>
      </trkpt>
      <trkpt lat="46.20023" lon="6.75968">
        <ele>1749</ele>
        <time>2010-01-01T18:41:52Z</time>
      </trkpt>
      <trkpt lat="46.20019" lon="6.75978">
        <ele>1749</ele>
        <time>2010-01-01T18:41:56Z</time>
      </trkpt>
      <trkpt lat="46.20016" lon="6.75992">
        <ele>1750</ele>
        <time>2010-01-01T18:41:59Z</time>
      </trkpt>
      <trkpt lat="46.20016" lon="6.75992">
        <ele>1750</ele>
        <time>2010-01-01T18:42:00Z</time>
      </trkpt>
      <trkpt lat="46.20018" lon="6.76002">
        <ele>1745</ele>
        <time>2010-01-01T18:42:03Z</time>
      </trkpt>
      <trkpt lat="46.20029" lon="6.76">
        <ele>1747</ele>
        <time>2010-01-01T18:42:07Z</time>
      </trkpt>
      <trkpt lat="46.20029" lon="6.76">
        <ele>1747</ele>
        <time>2010-01-01T18:42:07Z</time>
      </trkpt>
      <trkpt lat="46.20033" lon="6.75997">
        <ele>1747</ele>
        <time>2010-01-01T18:42:09Z</time>
      </trkpt>
      <trkpt lat="46.20037" lon="6.75993">
        <ele>1746</ele>
        <time>2010-01-01T18:42:11Z</time>
      </trkpt>
      <trkpt lat="46.20039" lon="6.75997">
        <ele>1745</ele>
        <time>2010-01-01T18:42:12Z</time>
      </trkpt>
      <trkpt lat="46.20039" lon="6.75997">
        <ele>1745</ele>
        <time>2010-01-01T18:42:12Z</time>
      </trkpt>
      <trkpt lat="46.2004" lon="6.76008">
        <ele>1739</ele>
        <time>2010-01-01T18:42:16Z</time>
      </trkpt>
      <trkpt lat="46.20037" lon="6.76018">
        <ele>1739</ele>
        <time>2010-01-01T18:42:19Z</time>
      </trkpt>
      <trkpt lat="46.20039" lon="6.76028">
        <ele>1738</ele>
        <time>2010-01-01T18:42:21Z</time>
      </trkpt>
      <trkpt lat="46.2004" lon="6.76028">
        <ele>1738</ele>
        <time>2010-01-01T18:42:22Z</time>
      </trkpt>
      <trkpt lat="46.2006" lon="6.76056">
        <ele>1733</ele>
        <time>2010-01-01T18:42:33Z</time>
      </trkpt>
      <trkpt lat="46.20064" lon="6.76069">
        <ele>1729</ele>
        <time>2010-01-01T18:42:37Z</time>
      </trkpt>
      <trkpt lat="46.20065" lon="6.7608">
        <ele>1727</ele>
        <time>2010-01-01T18:42:40Z</time>
      </trkpt>
      <trkpt lat="46.20061" lon="6.76091">
        <ele>1725</ele>
        <time>2010-01-01T18:42:43Z</time>
      </trkpt>
      <trkpt lat="46.20065" lon="6.76119">
        <ele>1725</ele>
        <time>2010-01-01T18:42:51Z</time>
      </trkpt>
      <trkpt lat="46.20064" lon="6.76132">
        <ele>1724</ele>
        <time>2010-01-01T18:42:55Z</time>
      </trkpt>
      <trkpt lat="46.20061" lon="6.76143">
        <ele>1723</ele>
        <time>2010-01-01T18:42:58Z</time>
      </trkpt>
      <trkpt lat="46.2006" lon="6.76146">
        <ele>1723</ele>
        <time>2010-01-01T18:42:59Z</time>
      </trkpt>
      <trkpt lat="46.2006" lon="6.76146">
        <ele>1723</ele>
        <time>2010-01-01T18:42:59Z</time>
      </trkpt>
      <trkpt lat="46.20054" lon="6.76156">
        <ele>1724</ele>
        <time>2010-01-01T18:43:03Z</time>
      </trkpt>
      <trkpt lat="46.20053" lon="6.76158">
        <ele>1724</ele>
        <time>2010-01-01T18:43:03Z</time>
      </trkpt>
      <trkpt lat="46.20048" lon="6.76168">
        <ele>1721</ele>
        <time>2010-01-01T18:43:07Z</time>
      </trkpt>
      <trkpt lat="46.20048" lon="6.7617">
        <ele>1721</ele>
        <time>2010-01-01T18:43:07Z</time>
      </trkpt>
      <trkpt lat="46.20048" lon="6.76171">
        <ele>1721</ele>
        <time>2010-01-01T18:43:08Z</time>
      </trkpt>
      <trkpt lat="46.20045" lon="6.76183">
        <ele>1722</ele>
        <time>2010-01-01T18:43:11Z</time>
      </trkpt>
      <trkpt lat="46.20044" lon="6.76185">
        <ele>1722</ele>
        <time>2010-01-01T18:43:12Z</time>
      </trkpt>
      <trkpt lat="46.2004" lon="6.762">
        <ele>1722</ele>
        <time>2010-01-01T18:43:16Z</time>
      </trkpt>
      <trkpt lat="46.2004" lon="6.76203">
        <ele>1722</ele>
        <time>2010-01-01T18:43:17Z</time>
      </trkpt>
      <trkpt lat="46.20038" lon="6.76221">
        <ele>1722</ele>
        <time>2010-01-01T18:43:22Z</time>
      </trkpt>
      <trkpt lat="46.20039" lon="6.76222">
        <ele>1721</ele>
        <time>2010-01-01T18:43:23Z</time>
      </trkpt>
      <trkpt lat="46.20043" lon="6.76235">
        <ele>1719</ele>
        <time>2010-01-01T18:43:26Z</time>
      </trkpt>
      <trkpt lat="46.20043" lon="6.76235">
        <ele>1719</ele>
        <time>2010-01-01T18:43:27Z</time>
      </trkpt>
      <trkpt lat="46.20047" lon="6.76283">
        <ele>1713</ele>
        <time>2010-01-01T18:43:40Z</time>
      </trkpt>
      <trkpt lat="46.20045" lon="6.7631">
        <ele>1712</ele>
        <time>2010-01-01T18:43:47Z</time>
      </trkpt>
      <trkpt lat="46.20048" lon="6.76337">
        <ele>1710</ele>
        <time>2010-01-01T18:43:55Z</time>
      </trkpt>
      <trkpt lat="46.20049" lon="6.76338">
        <ele>1709</ele>
        <time>2010-01-01T18:43:55Z</time>
      </trkpt>
      <trkpt lat="46.2005" lon="6.76362">
        <ele>1710</ele>
        <time>2010-01-01T18:44:02Z</time>
      </trkpt>
      <trkpt lat="46.20057" lon="6.76398">
        <ele>1707</ele>
        <time>2010-01-01T18:44:12Z</time>
      </trkpt>
      <trkpt lat="46.20065" lon="6.76419">
        <ele>1703</ele>
        <time>2010-01-01T18:44:19Z</time>
      </trkpt>
      <trkpt lat="46.20072" lon="6.76445">
        <ele>1705</ele>
        <time>2010-01-01T18:44:27Z</time>
      </trkpt>
      <trkpt lat="46.20073" lon="6.7646">
        <ele>1707</ele>
        <time>2010-01-01T18:44:31Z</time>
      </trkpt>
      <trkpt lat="46.20073" lon="6.76461">
        <ele>1707</ele>
        <time>2010-01-01T18:44:31Z</time>
      </trkpt>
      <trkpt lat="46.2007" lon="6.7648">
        <ele>1705</ele>
        <time>2010-01-01T18:44:37Z</time>
      </trkpt>
      <trkpt lat="46.20076" lon="6.76484">
        <ele>1703</ele>
        <time>2010-01-01T18:44:39Z</time>
      </trkpt>
      <trkpt lat="46.20077" lon="6.76483">
        <ele>1703</ele>
        <time>2010-01-01T18:44:40Z</time>
      </trkpt>
      <trkpt lat="46.20078" lon="6.76482">
        <ele>1703</ele>
        <time>2010-01-01T18:44:40Z</time>
      </trkpt>
      <trkpt lat="46.20085" lon="6.76483">
        <ele>1686</ele>
        <time>2010-01-01T18:44:43Z</time>
      </trkpt>
      <trkpt lat="46.20092" lon="6.76487">
        <ele>1686</ele>
        <time>2010-01-01T18:44:46Z</time>
      </trkpt>
      <trkpt lat="46.20095" lon="6.76494">
        <ele>1686</ele>
        <time>2010-01-01T18:44:49Z</time>
      </trkpt>
      <trkpt lat="46.20095" lon="6.76495">
        <ele>1687</ele>
        <time>2010-01-01T18:44:49Z</time>
      </trkpt>
      <trkpt lat="46.20086" lon="6.76508">
        <ele>1689</ele>
        <time>2010-01-01T18:44:54Z</time>
      </trkpt>
      <trkpt lat="46.20105" lon="6.76537">
        <ele>1683</ele>
        <time>2010-01-01T18:45:06Z</time>
      </trkpt>
      <trkpt lat="46.20121" lon="6.76568">
        <ele>1682</ele>
        <time>2010-01-01T18:45:16Z</time>
      </trkpt>
      <trkpt lat="46.20126" lon="6.76589">
        <ele>1678</ele>
        <time>2010-01-01T18:45:22Z</time>
      </trkpt>
      <trkpt lat="46.20118" lon="6.76636">
        <ele>1676</ele>
        <time>2010-01-01T18:45:36Z</time>
      </trkpt>
      <trkpt lat="46.20112" lon="6.7666">
        <ele>1676</ele>
        <time>2010-01-01T18:45:43Z</time>
      </trkpt>
      <trkpt lat="46.20112" lon="6.76685">
        <ele>1669</ele>
        <time>2010-01-01T18:45:50Z</time>
      </trkpt>
      <trkpt lat="46.20112" lon="6.76685">
        <ele>1669</ele>
        <time>2010-01-01T18:45:50Z</time>
      </trkpt>
      <trkpt lat="46.20108" lon="6.76699">
        <ele>1668</ele>
        <time>2010-01-01T18:45:54Z</time>
      </trkpt>
      <trkpt lat="46.20107" lon="6.767">
        <ele>1668</ele>
        <time>2010-01-01T18:45:54Z</time>
      </trkpt>
      <trkpt lat="46.20097" lon="6.76723">
        <ele>1668</ele>
        <time>2010-01-01T18:46:02Z</time>
      </trkpt>
      <trkpt lat="46.20098" lon="6.76745">
        <ele>1669</ele>
        <time>2010-01-01T18:46:08Z</time>
      </trkpt>
      <trkpt lat="46.20098" lon="6.76745">
        <ele>1669</ele>
        <time>2010-01-01T18:46:08Z</time>
      </trkpt>
      <trkpt lat="46.20097" lon="6.76764">
        <ele>1665</ele>
        <time>2010-01-01T18:46:13Z</time>
      </trkpt>
      <trkpt lat="46.20097" lon="6.76767">
        <ele>1665</ele>
        <time>2010-01-01T18:46:14Z</time>
      </trkpt>
      <trkpt lat="46.20097" lon="6.76767">
        <ele>1665</ele>
        <time>2010-01-01T18:46:14Z</time>
      </trkpt>
      <trkpt lat="46.20099" lon="6.76786">
        <ele>1663</ele>
        <time>2010-01-01T18:46:20Z</time>
      </trkpt>
      <trkpt lat="46.20099" lon="6.76787">
        <ele>1663</ele>
        <time>2010-01-01T18:46:20Z</time>
      </trkpt>
      <trkpt lat="46.20101" lon="6.76805">
        <ele>1662</ele>
        <time>2010-01-01T18:46:25Z</time>
      </trkpt>
      <trkpt lat="46.20101" lon="6.76815">
        <ele>1663</ele>
        <time>2010-01-01T18:46:27Z</time>
      </trkpt>
      <trkpt lat="46.20124" lon="6.76822">
        <ele>1660</ele>
        <time>2010-01-01T18:46:37Z</time>
      </trkpt>
      <trkpt lat="46.20134" lon="6.7683">
        <ele>1659</ele>
        <time>2010-01-01T18:46:42Z</time>
      </trkpt>
      <trkpt lat="46.20139" lon="6.76842">
        <ele>1662</ele>
        <time>2010-01-01T18:46:45Z</time>
      </trkpt>
      <trkpt lat="46.20142" lon="6.76855">
        <ele>1663</ele>
        <time>2010-01-01T18:46:49Z</time>
      </trkpt>
      <trkpt lat="46.20143" lon="6.76857">
        <ele>1663</ele>
        <time>2010-01-01T18:46:50Z</time>
      </trkpt>
      <trkpt lat="46.20149" lon="6.76865">
        <ele>1664</ele>
        <time>2010-01-01T18:46:53Z</time>
      </trkpt>
      <trkpt lat="46.20151" lon="6.76866">
        <ele>1664</ele>
        <time>2010-01-01T18:46:54Z</time>
      </trkpt>
      <trkpt lat="46.20189" lon="6.76873">
        <ele>1656</ele>
        <time>2010-01-01T18:47:09Z</time>
      </trkpt>
      <trkpt lat="46.20203" lon="6.76879">
        <ele>1656</ele>
        <time>2010-01-01T18:47:15Z</time>
      </trkpt>
      <trkpt lat="46.20203" lon="6.76879">
        <ele>1656</ele>
        <time>2010-01-01T18:47:15Z</time>
      </trkpt>
      <trkpt lat="46.20216" lon="6.76882">
        <ele>1655</ele>
        <time>2010-01-01T18:47:21Z</time>
      </trkpt>
      <trkpt lat="46.20217" lon="6.76882">
        <ele>1655</ele>
        <time>2010-01-01T18:47:21Z</time>
      </trkpt>
      <trkpt lat="46.20227" lon="6.76886">
        <ele>1656</ele>
        <time>2010-01-01T18:47:25Z</time>
      </trkpt>
      <trkpt lat="46.20232" lon="6.76887">
        <ele>1656</ele>
        <time>2010-01-01T18:47:27Z</time>
      </trkpt>
      <trkpt lat="46.20294" lon="6.76883">
        <ele>1651</ele>
        <time>2010-01-01T18:47:52Z</time>
      </trkpt>
      <trkpt lat="46.20312" lon="6.76883">
        <ele>1652</ele>
        <time>2010-01-01T18:47:59Z</time>
      </trkpt>
      <trkpt lat="46.2032" lon="6.7688">
        <ele>1651</ele>
        <time>2010-01-01T18:48:02Z</time>
      </trkpt>
      <trkpt lat="46.20321" lon="6.7688">
        <ele>1651</ele>
        <time>2010-01-01T18:48:03Z</time>
      </trkpt>
      <trkpt lat="46.20333" lon="6.76877">
        <ele>1651</ele>
        <time>2010-01-01T18:48:08Z</time>
      </trkpt>
      <trkpt lat="46.20333" lon="6.76876">
        <ele>1651</ele>
        <time>2010-01-01T18:48:08Z</time>
      </trkpt>
      <trkpt lat="46.20348" lon="6.76874">
        <ele>1650</ele>
        <time>2010-01-01T18:48:14Z</time>
      </trkpt>
      <trkpt lat="46.20349" lon="6.76873">
        <ele>1650</ele>
        <time>2010-01-01T18:48:14Z</time>
      </trkpt>
      <trkpt lat="46.2039" lon="6.76862">
        <ele>1648</ele>
        <time>2010-01-01T18:48:31Z</time>
      </trkpt>
      <trkpt lat="46.20413" lon="6.76851">
        <ele>1646</ele>
        <time>2010-01-01T18:48:41Z</time>
      </trkpt>
      <trkpt lat="46.20426" lon="6.7684">
        <ele>1643</ele>
        <time>2010-01-01T18:48:47Z</time>
      </trkpt>
      <trkpt lat="46.20439" lon="6.76834">
        <ele>1642</ele>
        <time>2010-01-01T18:48:52Z</time>
      </trkpt>
      <trkpt lat="46.20448" lon="6.76839">
        <ele>1642</ele>
        <time>2010-01-01T18:48:56Z</time>
      </trkpt>
      <trkpt lat="46.20449" lon="6.76839">
        <ele>1642</ele>
        <time>2010-01-01T18:48:57Z</time>
      </trkpt>
      <trkpt lat="46.20457" lon="6.76851">
        <ele>1642</ele>
        <time>2010-01-01T18:49:01Z</time>
      </trkpt>
      <trkpt lat="46.20477" lon="6.7686">
        <ele>1641</ele>
        <time>2010-01-01T18:49:10Z</time>
      </trkpt>
      <trkpt lat="46.20485" lon="6.76861">
        <ele>1641</ele>
        <time>2010-01-01T18:49:13Z</time>
      </trkpt>
      <trkpt lat="46.20497" lon="6.76879">
        <ele>1641</ele>
        <time>2010-01-01T18:49:20Z</time>
      </trkpt>
      <trkpt lat="46.20497" lon="6.76915">
        <ele>1638</ele>
        <time>2010-01-01T18:49:30Z</time>
      </trkpt>
      <trkpt lat="46.20499" lon="6.76934">
        <ele>1642</ele>
        <time>2010-01-01T18:49:35Z</time>
      </trkpt>
      <trkpt lat="46.20499" lon="6.76937">
        <ele>1642</ele>
        <time>2010-01-01T18:49:36Z</time>
      </trkpt>
      <trkpt lat="46.20499" lon="6.76941">
        <ele>1643</ele>
        <time>2010-01-01T18:49:37Z</time>
      </trkpt>
      <trkpt lat="46.20498" lon="6.76972">
        <ele>1643</ele>
        <time>2010-01-01T18:49:46Z</time>
      </trkpt>
      <trkpt lat="46.20496" lon="6.76987">
        <ele>1641</ele>
        <time>2010-01-01T18:49:50Z</time>
      </trkpt>
      <trkpt lat="46.20499" lon="6.77067">
        <ele>1638</ele>
        <time>2010-01-01T18:50:12Z</time>
      </trkpt>
      <trkpt lat="46.20499" lon="6.77094">
        <ele>1634</ele>
        <time>2010-01-01T18:50:20Z</time>
      </trkpt>
      <trkpt lat="46.20496" lon="6.77108">
        <ele>1637</ele>
        <time>2010-01-01T18:50:23Z</time>
      </trkpt>
      <trkpt lat="46.20494" lon="6.77132">
        <ele>1636</ele>
        <time>2010-01-01T18:50:30Z</time>
      </trkpt>
      <trkpt lat="46.20494" lon="6.77135">
        <ele>1636</ele>
        <time>2010-01-01T18:50:31Z</time>
      </trkpt>
      <trkpt lat="46.20492" lon="6.77154">
        <ele>1633</ele>
        <time>2010-01-01T18:50:36Z</time>
      </trkpt>
      <trkpt lat="46.20492" lon="6.77156">
        <ele>1632</ele>
        <time>2010-01-01T18:50:37Z</time>
      </trkpt>
      <trkpt lat="46.20491" lon="6.77172">
        <ele>1630</ele>
        <time>2010-01-01T18:50:41Z</time>
      </trkpt>
      <trkpt lat="46.20491" lon="6.77173">
        <ele>1630</ele>
        <time>2010-01-01T18:50:42Z</time>
      </trkpt>
      <trkpt lat="46.2049" lon="6.77185">
        <ele>1632</ele>
        <time>2010-01-01T18:50:45Z</time>
      </trkpt>
      <trkpt lat="46.20484" lon="6.77218">
        <ele>1633</ele>
        <time>2010-01-01T18:50:54Z</time>
      </trkpt>
      <trkpt lat="46.20487" lon="6.77235">
        <ele>1631</ele>
        <time>2010-01-01T18:50:59Z</time>
      </trkpt>
      <trkpt lat="46.20488" lon="6.77237">
        <ele>1630</ele>
        <time>2010-01-01T18:51:00Z</time>
      </trkpt>
      <trkpt lat="46.20487" lon="6.77257">
        <ele>1626</ele>
        <time>2010-01-01T18:51:06Z</time>
      </trkpt>
      <trkpt lat="46.20487" lon="6.77259">
        <ele>1626</ele>
        <time>2010-01-01T18:51:06Z</time>
      </trkpt>
      <trkpt lat="46.20465" lon="6.7732">
        <ele>1625</ele>
        <time>2010-01-01T18:51:25Z</time>
      </trkpt>
      <trkpt lat="46.20457" lon="6.77343">
        <ele>1614</ele>
        <time>2010-01-01T18:51:32Z</time>
      </trkpt>
      <trkpt lat="46.20449" lon="6.77357">
        <ele>1614</ele>
        <time>2010-01-01T18:51:37Z</time>
      </trkpt>
      <trkpt lat="46.20441" lon="6.77368">
        <ele>1614</ele>
        <time>2010-01-01T18:51:42Z</time>
      </trkpt>
      <trkpt lat="46.2044" lon="6.77371">
        <ele>1613</ele>
        <time>2010-01-01T18:51:42Z</time>
      </trkpt>
      <trkpt lat="46.20427" lon="6.77391">
        <ele>1612</ele>
        <time>2010-01-01T18:51:50Z</time>
      </trkpt>
      <trkpt lat="46.20426" lon="6.77392">
        <ele>1612</ele>
        <time>2010-01-01T18:51:51Z</time>
      </trkpt>
      <trkpt lat="46.20415" lon="6.77407">
        <ele>1619</ele>
        <time>2010-01-01T18:51:57Z</time>
      </trkpt>
      <trkpt lat="46.20414" lon="6.77409">
        <ele>1618</ele>
        <time>2010-01-01T18:51:57Z</time>
      </trkpt>
      <trkpt lat="46.204" lon="6.77427">
        <ele>1615</ele>
        <time>2010-01-01T18:52:05Z</time>
      </trkpt>
      <trkpt lat="46.20399" lon="6.77431">
        <ele>1615</ele>
        <time>2010-01-01T18:52:06Z</time>
      </trkpt>
      <trkpt lat="46.20386" lon="6.77448">
        <ele>1616</ele>
        <time>2010-01-01T18:52:13Z</time>
      </trkpt>
      <trkpt lat="46.20384" lon="6.77453">
        <ele>1616</ele>
        <time>2010-01-01T18:52:15Z</time>
      </trkpt>
      <trkpt lat="46.20371" lon="6.77472">
        <ele>1617</ele>
        <time>2010-01-01T18:52:22Z</time>
      </trkpt>
      <trkpt lat="46.20363" lon="6.77488">
        <ele>1618</ele>
        <time>2010-01-01T18:52:28Z</time>
      </trkpt>
      <trkpt lat="46.20361" lon="6.77492">
        <ele>1618</ele>
        <time>2010-01-01T18:52:29Z</time>
      </trkpt>
      <trkpt lat="46.2036" lon="6.77505">
        <ele>1612</ele>
        <time>2010-01-01T18:52:32Z</time>
      </trkpt>
      <trkpt lat="46.2036" lon="6.77505">
        <ele>1612</ele>
        <time>2010-01-01T18:52:33Z</time>
      </trkpt>
      <trkpt lat="46.2036" lon="6.77511">
        <ele>1611</ele>
        <time>2010-01-01T18:52:34Z</time>
      </trkpt>
      <trkpt lat="46.20362" lon="6.77523">
        <ele>1609</ele>
        <time>2010-01-01T18:52:38Z</time>
      </trkpt>
      <trkpt lat="46.20363" lon="6.77546">
        <ele>1607</ele>
        <time>2010-01-01T18:52:44Z</time>
      </trkpt>
      <trkpt lat="46.20357" lon="6.77573">
        <ele>1609</ele>
        <time>2010-01-01T18:52:52Z</time>
      </trkpt>
      <trkpt lat="46.20358" lon="6.77592">
        <ele>1607</ele>
        <time>2010-01-01T18:52:57Z</time>
      </trkpt>
      <trkpt lat="46.20362" lon="6.77605">
        <ele>1605</ele>
        <time>2010-01-01T18:53:01Z</time>
      </trkpt>
      <trkpt lat="46.20366" lon="6.77621">
        <ele>1603</ele>
        <time>2010-01-01T18:53:06Z</time>
      </trkpt>
      <trkpt lat="46.20367" lon="6.77622">
        <ele>1603</ele>
        <time>2010-01-01T18:53:06Z</time>
      </trkpt>
      <trkpt lat="46.20372" lon="6.77638">
        <ele>1602</ele>
        <time>2010-01-01T18:53:11Z</time>
      </trkpt>
      <trkpt lat="46.20391" lon="6.77667">
        <ele>1598</ele>
        <time>2010-01-01T18:53:22Z</time>
      </trkpt>
      <trkpt lat="46.20388" lon="6.77687">
        <ele>1597</ele>
        <time>2010-01-01T18:53:28Z</time>
      </trkpt>
      <trkpt lat="46.20379" lon="6.77698">
        <ele>1599</ele>
        <time>2010-01-01T18:53:33Z</time>
      </trkpt>
      <trkpt lat="46.20374" lon="6.77711">
        <ele>1599</ele>
        <time>2010-01-01T18:53:37Z</time>
      </trkpt>
      <trkpt lat="46.20372" lon="6.77714">
        <ele>1599</ele>
        <time>2010-01-01T18:53:38Z</time>
      </trkpt>
      <trkpt lat="46.20359" lon="6.77736">
        <ele>1601</ele>
        <time>2010-01-01T18:53:46Z</time>
      </trkpt>
      <trkpt lat="46.20351" lon="6.77748">
        <ele>1603</ele>
        <time>2010-01-01T18:53:50Z</time>
      </trkpt>
      <trkpt lat="46.20338" lon="6.77776">
        <ele>1601</ele>
        <time>2010-01-01T18:54:00Z</time>
      </trkpt>
      <trkpt lat="46.20333" lon="6.77801">
        <ele>1600</ele>
        <time>2010-01-01T18:54:07Z</time>
      </trkpt>
      <trkpt lat="46.20333" lon="6.77817">
        <ele>1602</ele>
        <time>2010-01-01T18:54:12Z</time>
      </trkpt>
      <trkpt lat="46.20333" lon="6.77818">
        <ele>1615</ele>
        <time>2010-01-01T18:54:12Z</time>
      </trkpt>
      <trkpt lat="46.20338" lon="6.77839">
        <ele>1605</ele>
        <time>2010-01-01T18:54:18Z</time>
      </trkpt>
      <trkpt lat="46.20338" lon="6.7784">
        <ele>1604</ele>
        <time>2010-01-01T18:54:18Z</time>
      </trkpt>
      <trkpt lat="46.20342" lon="6.77856">
        <ele>1601</ele>
        <time>2010-01-01T18:54:23Z</time>
      </trkpt>
      <trkpt lat="46.20342" lon="6.77857">
        <ele>1600</ele>
        <time>2010-01-01T18:54:23Z</time>
      </trkpt>
      <trkpt lat="46.20344" lon="6.77871">
        <ele>1599</ele>
        <time>2010-01-01T18:54:27Z</time>
      </trkpt>
      <trkpt lat="46.20345" lon="6.77874">
        <ele>1599</ele>
        <time>2010-01-01T18:54:28Z</time>
      </trkpt>
      <trkpt lat="46.20345" lon="6.77878">
        <ele>1599</ele>
        <time>2010-01-01T18:54:29Z</time>
      </trkpt>
      <trkpt lat="46.20346" lon="6.779">
        <ele>1601</ele>
        <time>2010-01-01T18:54:35Z</time>
      </trkpt>
      <trkpt lat="46.20346" lon="6.77904">
        <ele>1602</ele>
        <time>2010-01-01T18:54:36Z</time>
      </trkpt>
      <trkpt lat="46.20342" lon="6.77914">
        <ele>1604</ele>
        <time>2010-01-01T18:54:40Z</time>
      </trkpt>
      <trkpt lat="46.20341" lon="6.77917">
        <ele>1605</ele>
        <time>2010-01-01T18:54:41Z</time>
      </trkpt>
      <trkpt lat="46.2034" lon="6.77919">
        <ele>1605</ele>
        <time>2010-01-01T18:54:41Z</time>
      </trkpt>
      <trkpt lat="46.20333" lon="6.77928">
        <ele>1609</ele>
        <time>2010-01-01T18:54:45Z</time>
      </trkpt>
      <trkpt lat="46.20332" lon="6.77928">
        <ele>1609</ele>
        <time>2010-01-01T18:54:45Z</time>
      </trkpt>
      <trkpt lat="46.2033" lon="6.77929">
        <ele>1609</ele>
        <time>2010-01-01T18:54:46Z</time>
      </trkpt>
      <trkpt lat="46.20328" lon="6.7793">
        <ele>1609</ele>
        <time>2010-01-01T18:54:47Z</time>
      </trkpt>
      <trkpt lat="46.20324" lon="6.77932">
        <ele>1609</ele>
        <time>2010-01-01T18:54:49Z</time>
      </trkpt>
      <trkpt lat="46.20323" lon="6.77933">
        <ele>1609</ele>
        <time>2010-01-01T18:54:49Z</time>
      </trkpt>
      <trkpt lat="46.20321" lon="6.77936">
        <ele>1609</ele>
        <time>2010-01-01T18:54:50Z</time>
      </trkpt>
      <trkpt lat="46.20319" lon="6.7794">
        <ele>1609</ele>
        <time>2010-01-01T18:54:52Z</time>
      </trkpt>
      <trkpt lat="46.20318" lon="6.77941">
        <ele>1609</ele>
        <time>2010-01-01T18:54:52Z</time>
      </trkpt>
      <trkpt lat="46.20303" lon="6.77949">
        <ele>1610</ele>
        <time>2010-01-01T18:54:59Z</time>
      </trkpt>
      <trkpt lat="46.20298" lon="6.77958">
        <ele>1610</ele>
        <time>2010-01-01T18:55:02Z</time>
      </trkpt>
      <trkpt lat="46.20298" lon="6.7796">
        <ele>1610</ele>
        <time>2010-01-01T18:55:03Z</time>
      </trkpt>
      <trkpt lat="46.20294" lon="6.77974">
        <ele>1609</ele>
        <time>2010-01-01T18:55:07Z</time>
      </trkpt>
      <trkpt lat="46.20293" lon="6.77977">
        <ele>1609</ele>
        <time>2010-01-01T18:55:07Z</time>
      </trkpt>
      <trkpt lat="46.20288" lon="6.77995">
        <ele>1608</ele>
        <time>2010-01-01T18:55:13Z</time>
      </trkpt>
      <trkpt lat="46.20289" lon="6.78011">
        <ele>1601</ele>
        <time>2010-01-01T18:55:17Z</time>
      </trkpt>
      <trkpt lat="46.20285" lon="6.78036">
        <ele>1600</ele>
        <time>2010-01-01T18:55:25Z</time>
      </trkpt>
      <trkpt lat="46.20269" lon="6.78048">
        <ele>1600</ele>
        <time>2010-01-01T18:55:31Z</time>
      </trkpt>
      <trkpt lat="46.20264" lon="6.78055">
        <ele>1600</ele>
        <time>2010-01-01T18:55:34Z</time>
      </trkpt>
      <trkpt lat="46.20247" lon="6.78075">
        <ele>1604</ele>
        <time>2010-01-01T18:55:43Z</time>
      </trkpt>
      <trkpt lat="46.20236" lon="6.7809">
        <ele>1603</ele>
        <time>2010-01-01T18:55:49Z</time>
      </trkpt>
      <trkpt lat="46.20232" lon="6.781">
        <ele>1605</ele>
        <time>2010-01-01T18:55:52Z</time>
      </trkpt>
      <trkpt lat="46.20228" lon="6.78115">
        <ele>1606</ele>
        <time>2010-01-01T18:55:57Z</time>
      </trkpt>
      <trkpt lat="46.20227" lon="6.78124">
        <ele>1606</ele>
        <time>2010-01-01T18:55:59Z</time>
      </trkpt>
      <trkpt lat="46.20226" lon="6.78125">
        <ele>1606</ele>
        <time>2010-01-01T18:56:00Z</time>
      </trkpt>
      <trkpt lat="46.20219" lon="6.78148">
        <ele>1605</ele>
        <time>2010-01-01T18:56:07Z</time>
      </trkpt>
      <trkpt lat="46.20216" lon="6.78154">
        <ele>1605</ele>
        <time>2010-01-01T18:56:09Z</time>
      </trkpt>
      <trkpt lat="46.20205" lon="6.78184">
        <ele>1600</ele>
        <time>2010-01-01T18:56:18Z</time>
      </trkpt>
      <trkpt lat="46.20204" lon="6.78189">
        <ele>1600</ele>
        <time>2010-01-01T18:56:20Z</time>
      </trkpt>
      <trkpt lat="46.20203" lon="6.78191">
        <ele>1600</ele>
        <time>2010-01-01T18:56:20Z</time>
      </trkpt>
      <trkpt lat="46.20202" lon="6.78192">
        <ele>1600</ele>
        <time>2010-01-01T18:56:21Z</time>
      </trkpt>
      <trkpt lat="46.20145" lon="6.78273">
        <ele>1608</ele>
        <time>2010-01-01T18:56:53Z</time>
      </trkpt>
      <trkpt lat="46.20131" lon="6.7828">
        <ele>1610</ele>
        <time>2010-01-01T18:56:59Z</time>
      </trkpt>
      <trkpt lat="46.20121" lon="6.78291">
        <ele>1610</ele>
        <time>2010-01-01T18:57:04Z</time>
      </trkpt>
      <trkpt lat="46.20116" lon="6.78309">
        <ele>1609</ele>
        <time>2010-01-01T18:57:09Z</time>
      </trkpt>
      <trkpt lat="46.20112" lon="6.78319">
        <ele>1609</ele>
        <time>2010-01-01T18:57:12Z</time>
      </trkpt>
      <trkpt lat="46.20111" lon="6.78334">
        <ele>1598</ele>
        <time>2010-01-01T18:57:16Z</time>
      </trkpt>
      <trkpt lat="46.20108" lon="6.78341">
        <ele>1599</ele>
        <time>2010-01-01T18:57:19Z</time>
      </trkpt>
      <trkpt lat="46.20091" lon="6.78372">
        <ele>1597</ele>
        <time>2010-01-01T18:57:30Z</time>
      </trkpt>
      <trkpt lat="46.20082" lon="6.78396">
        <ele>1610</ele>
        <time>2010-01-01T18:57:37Z</time>
      </trkpt>
      <trkpt lat="46.20078" lon="6.78417">
        <ele>1601</ele>
        <time>2010-01-01T18:57:43Z</time>
      </trkpt>
      <trkpt lat="46.20068" lon="6.78441">
        <ele>1604</ele>
        <time>2010-01-01T18:57:51Z</time>
      </trkpt>
      <trkpt lat="46.20064" lon="6.78463">
        <ele>1603</ele>
        <time>2010-01-01T18:57:57Z</time>
      </trkpt>
      <trkpt lat="46.20056" lon="6.78478">
        <ele>1603</ele>
        <time>2010-01-01T18:58:02Z</time>
      </trkpt>
      <trkpt lat="46.20049" lon="6.78505">
        <ele>1595</ele>
        <time>2010-01-01T18:58:10Z</time>
      </trkpt>
      <trkpt lat="46.20044" lon="6.78513">
        <ele>1595</ele>
        <time>2010-01-01T18:58:14Z</time>
      </trkpt>
      <trkpt lat="46.2004" lon="6.78524">
        <ele>1595</ele>
        <time>2010-01-01T18:58:17Z</time>
      </trkpt>
      <trkpt lat="46.20038" lon="6.78536">
        <ele>1595</ele>
        <time>2010-01-01T18:58:20Z</time>
      </trkpt>
      <trkpt lat="46.20034" lon="6.78552">
        <ele>1594</ele>
        <time>2010-01-01T18:58:25Z</time>
      </trkpt>
      <trkpt lat="46.2003" lon="6.78561">
        <ele>1594</ele>
        <time>2010-01-01T18:58:28Z</time>
      </trkpt>
      <trkpt lat="46.20027" lon="6.7857">
        <ele>1593</ele>
        <time>2010-01-01T18:58:31Z</time>
      </trkpt>
      <trkpt lat="46.20024" lon="6.78578">
        <ele>1593</ele>
        <time>2010-01-01T18:58:33Z</time>
      </trkpt>
      <trkpt lat="46.2002" lon="6.78584">
        <ele>1590</ele>
        <time>2010-01-01T18:58:35Z</time>
      </trkpt>
      <trkpt lat="46.20017" lon="6.78588">
        <ele>1590</ele>
        <time>2010-01-01T18:58:37Z</time>
      </trkpt>
      <trkpt lat="46.20013" lon="6.78589">
        <ele>1591</ele>
        <time>2010-01-01T18:58:39Z</time>
      </trkpt>
      <trkpt lat="46.20005" lon="6.78591">
        <ele>1592</ele>
        <time>2010-01-01T18:58:42Z</time>
      </trkpt>
      <trkpt lat="46.19992" lon="6.78582">
        <ele>1598</ele>
        <time>2010-01-01T18:58:48Z</time>
      </trkpt>
      <trkpt lat="46.19984" lon="6.78579">
        <ele>1600</ele>
        <time>2010-01-01T18:58:51Z</time>
      </trkpt>
      <trkpt lat="46.19954" lon="6.78582">
        <ele>1603</ele>
        <time>2010-01-01T18:59:03Z</time>
      </trkpt>
      <trkpt lat="46.19943" lon="6.78582">
        <ele>1602</ele>
        <time>2010-01-01T18:59:08Z</time>
      </trkpt>
      <trkpt lat="46.19931" lon="6.78586">
        <ele>1596</ele>
        <time>2010-01-01T18:59:12Z</time>
      </trkpt>
      <trkpt lat="46.19921" lon="6.78586">
        <ele>1597</ele>
        <time>2010-01-01T18:59:16Z</time>
      </trkpt>
      <trkpt lat="46.19908" lon="6.78596">
        <ele>1598</ele>
        <time>2010-01-01T18:59:22Z</time>
      </trkpt>
      <trkpt lat="46.19905" lon="6.78609">
        <ele>1597</ele>
        <time>2010-01-01T18:59:26Z</time>
      </trkpt>
      <trkpt lat="46.19897" lon="6.78634">
        <ele>1595</ele>
        <time>2010-01-01T18:59:33Z</time>
      </trkpt>
      <trkpt lat="46.19894" lon="6.78651">
        <ele>1593</ele>
        <time>2010-01-01T18:59:39Z</time>
      </trkpt>
      <trkpt lat="46.19891" lon="6.78664">
        <ele>1592</ele>
        <time>2010-01-01T18:59:42Z</time>
      </trkpt>
      <trkpt lat="46.19887" lon="6.78673">
        <ele>1588</ele>
        <time>2010-01-01T18:59:45Z</time>
      </trkpt>
      <trkpt lat="46.19885" lon="6.78686">
        <ele>1588</ele>
        <time>2010-01-01T18:59:49Z</time>
      </trkpt>
      <trkpt lat="46.19876" lon="6.787">
        <ele>1589</ele>
        <time>2010-01-01T18:59:54Z</time>
      </trkpt>
      <trkpt lat="46.19876" lon="6.78702">
        <ele>1589</ele>
        <time>2010-01-01T18:59:55Z</time>
      </trkpt>
      <trkpt lat="46.19879" lon="6.78735">
        <ele>1588</ele>
        <time>2010-01-01T19:00:04Z</time>
      </trkpt>
      <trkpt lat="46.19882" lon="6.78755">
        <ele>1589</ele>
        <time>2010-01-01T19:00:10Z</time>
      </trkpt>
      <trkpt lat="46.19901" lon="6.7876">
        <ele>1588</ele>
        <time>2010-01-01T19:00:17Z</time>
      </trkpt>
      <trkpt lat="46.19919" lon="6.78761">
        <ele>1588</ele>
        <time>2010-01-01T19:00:25Z</time>
      </trkpt>
      <trkpt lat="46.1992" lon="6.78761">
        <ele>1588</ele>
        <time>2010-01-01T19:00:25Z</time>
      </trkpt>
      <trkpt lat="46.19937" lon="6.78765">
        <ele>1591</ele>
        <time>2010-01-01T19:00:32Z</time>
      </trkpt>
      <trkpt lat="46.19952" lon="6.78759">
        <ele>1592</ele>
        <time>2010-01-01T19:00:38Z</time>
      </trkpt>
      <trkpt lat="46.19963" lon="6.78756">
        <ele>1593</ele>
        <time>2010-01-01T19:00:42Z</time>
      </trkpt>
      <trkpt lat="46.19965" lon="6.78755">
        <ele>1593</ele>
        <time>2010-01-01T19:00:43Z</time>
      </trkpt>
      <trkpt lat="46.19986" lon="6.7875">
        <ele>1590</ele>
        <time>2010-01-01T19:00:52Z</time>
      </trkpt>
      <trkpt lat="46.19997" lon="6.78739">
        <ele>1591</ele>
        <time>2010-01-01T19:00:57Z</time>
      </trkpt>
      <trkpt lat="46.19999" lon="6.78736">
        <ele>1590</ele>
        <time>2010-01-01T19:00:59Z</time>
      </trkpt>
      <trkpt lat="46.20013" lon="6.78724">
        <ele>1591</ele>
        <time>2010-01-01T19:01:05Z</time>
      </trkpt>
      <trkpt lat="46.20015" lon="6.78723">
        <ele>1591</ele>
        <time>2010-01-01T19:01:06Z</time>
      </trkpt>
      <trkpt lat="46.20056" lon="6.7872">
        <ele>1591</ele>
        <time>2010-01-01T19:01:22Z</time>
      </trkpt>
      <trkpt lat="46.20076" lon="6.78723">
        <ele>1592</ele>
        <time>2010-01-01T19:01:30Z</time>
      </trkpt>
      <trkpt lat="46.20103" lon="6.78723">
        <ele>1592</ele>
        <time>2010-01-01T19:01:41Z</time>
      </trkpt>
      <trkpt lat="46.20107" lon="6.78727">
        <ele>1592</ele>
        <time>2010-01-01T19:01:43Z</time>
      </trkpt>
      <trkpt lat="46.2012" lon="6.78735">
        <ele>1591</ele>
        <time>2010-01-01T19:01:49Z</time>
      </trkpt>
      <trkpt lat="46.20134" lon="6.78739">
        <ele>1591</ele>
        <time>2010-01-01T19:01:54Z</time>
      </trkpt>
      <trkpt lat="46.20135" lon="6.78739">
        <ele>1591</ele>
        <time>2010-01-01T19:01:55Z</time>
      </trkpt>
      <trkpt lat="46.2015" lon="6.78733">
        <ele>1590</ele>
        <time>2010-01-01T19:02:01Z</time>
      </trkpt>
      <trkpt lat="46.20166" lon="6.78736">
        <ele>1591</ele>
        <time>2010-01-01T19:02:07Z</time>
      </trkpt>
      <trkpt lat="46.20177" lon="6.78735">
        <ele>1588</ele>
        <time>2010-01-01T19:02:12Z</time>
      </trkpt>
      <trkpt lat="46.20205" lon="6.78744">
        <ele>1586</ele>
        <time>2010-01-01T19:02:23Z</time>
      </trkpt>
      <trkpt lat="46.20228" lon="6.78742">
        <ele>1585</ele>
        <time>2010-01-01T19:02:33Z</time>
      </trkpt>
      <trkpt lat="46.20249" lon="6.78733">
        <ele>1585</ele>
        <time>2010-01-01T19:02:41Z</time>
      </trkpt>
      <trkpt lat="46.20265" lon="6.78715">
        <ele>1582</ele>
        <time>2010-01-01T19:02:50Z</time>
      </trkpt>
      <trkpt lat="46.20325" lon="6.78663">
        <ele>1575</ele>
        <time>2010-01-01T19:03:17Z</time>
      </trkpt>
      <trkpt lat="46.20356" lon="6.78636">
        <ele>1579</ele>
        <time>2010-01-01T19:03:32Z</time>
      </trkpt>
      <trkpt lat="46.20379" lon="6.78602">
        <ele>1579</ele>
        <time>2010-01-01T19:03:45Z</time>
      </trkpt>
      <trkpt lat="46.20396" lon="6.7857">
        <ele>1571</ele>
        <time>2010-01-01T19:03:56Z</time>
      </trkpt>
      <trkpt lat="46.2045" lon="6.7853">
        <ele>1579</ele>
        <time>2010-01-01T19:04:21Z</time>
      </trkpt>
      <trkpt lat="46.20466" lon="6.785">
        <ele>1578</ele>
        <time>2010-01-01T19:04:31Z</time>
      </trkpt>
      <trkpt lat="46.20486" lon="6.78477">
        <ele>1568</ele>
        <time>2010-01-01T19:04:41Z</time>
      </trkpt>
      <trkpt lat="46.20515" lon="6.78445">
        <ele>1575</ele>
        <time>2010-01-01T19:04:56Z</time>
      </trkpt>
      <trkpt lat="46.20535" lon="6.78407">
        <ele>1564</ele>
        <time>2010-01-01T19:05:09Z</time>
      </trkpt>
      <trkpt lat="46.20533" lon="6.78383">
        <ele>1563</ele>
        <time>2010-01-01T19:05:16Z</time>
      </trkpt>
      <trkpt lat="46.20534" lon="6.78367">
        <ele>1562</ele>
        <time>2010-01-01T19:05:20Z</time>
      </trkpt>
      <trkpt lat="46.20536" lon="6.78348">
        <ele>1561</ele>
        <time>2010-01-01T19:05:26Z</time>
      </trkpt>
      <trkpt lat="46.2054" lon="6.78329">
        <ele>1555</ele>
        <time>2010-01-01T19:05:31Z</time>
      </trkpt>
      <trkpt lat="46.20549" lon="6.78307">
        <ele>1555</ele>
        <time>2010-01-01T19:05:38Z</time>
      </trkpt>
      <trkpt lat="46.20551" lon="6.78304">
        <ele>1555</ele>
        <time>2010-01-01T19:05:39Z</time>
      </trkpt>
      <trkpt lat="46.20565" lon="6.78276">
        <ele>1553</ele>
        <time>2010-01-01T19:05:49Z</time>
      </trkpt>
      <trkpt lat="46.20568" lon="6.78271">
        <ele>1553</ele>
        <time>2010-01-01T19:05:51Z</time>
      </trkpt>
      <trkpt lat="46.206" lon="6.78219">
        <ele>1547</ele>
        <time>2010-01-01T19:06:10Z</time>
      </trkpt>
      <trkpt lat="46.20601" lon="6.78219">
        <ele>1547</ele>
        <time>2010-01-01T19:06:10Z</time>
      </trkpt>
      <trkpt lat="46.20652" lon="6.78133">
        <ele>1535</ele>
        <time>2010-01-01T19:06:42Z</time>
      </trkpt>
      <trkpt lat="46.20678" lon="6.78096">
        <ele>1533</ele>
        <time>2010-01-01T19:06:56Z</time>
      </trkpt>
      <trkpt lat="46.20703" lon="6.78049">
        <ele>1527</ele>
        <time>2010-01-01T19:07:13Z</time>
      </trkpt>
      <trkpt lat="46.2072" lon="6.78016">
        <ele>1526</ele>
        <time>2010-01-01T19:07:24Z</time>
      </trkpt>
      <trkpt lat="46.20731" lon="6.77989">
        <ele>1520</ele>
        <time>2010-01-01T19:07:33Z</time>
      </trkpt>
      <trkpt lat="46.20736" lon="6.77966">
        <ele>1518</ele>
        <time>2010-01-01T19:07:39Z</time>
      </trkpt>
      <trkpt lat="46.20746" lon="6.77937">
        <ele>1516</ele>
        <time>2010-01-01T19:07:48Z</time>
      </trkpt>
      <trkpt lat="46.20701" lon="6.77803">
        <ele>1502</ele>
        <time>2010-01-01T19:08:30Z</time>
      </trkpt>
      <trkpt lat="46.20754" lon="6.77942">
        <ele>1523</ele>
        <time>2010-01-01T19:09:14Z</time>
      </trkpt>
      <trkpt lat="46.20825" lon="6.78131">
        <ele>1558</ele>
        <time>2010-01-01T19:10:13Z</time>
      </trkpt>
      <trkpt lat="46.20891" lon="6.78305">
        <ele>1619</ele>
        <time>2010-01-01T19:11:08Z</time>
      </trkpt>
      <trkpt lat="46.20926" lon="6.78411">
        <ele>1675</ele>
        <time>2010-01-01T19:11:41Z</time>
      </trkpt>
      <trkpt lat="46.20951" lon="6.78431">
        <ele>1699</ele>
        <time>2010-01-01T19:11:52Z</time>
      </trkpt>
      <trkpt lat="46.21016" lon="6.78604">
        <ele>1778</ele>
        <time>2010-01-01T19:12:47Z</time>
      </trkpt>
      <trkpt lat="46.2104" lon="6.78683">
        <ele>1803</ele>
        <time>2010-01-01T19:13:11Z</time>
      </trkpt>
      <trkpt lat="46.21103" lon="6.78849">
        <ele>1855</ele>
        <time>2010-01-01T19:14:03Z</time>
      </trkpt>
      <trkpt lat="46.2117" lon="6.79029">
        <ele>1905</ele>
        <time>2010-01-01T19:15:00Z</time>
      </trkpt>
      <trkpt lat="46.21175" lon="6.7903">
        <ele>1905</ele>
        <time>2010-01-01T19:15:02Z</time>
      </trkpt>
      <trkpt lat="46.21181" lon="6.79038">
        <ele>1906</ele>
        <time>2010-01-01T19:15:05Z</time>
      </trkpt>
      <trkpt lat="46.21195" lon="6.79032">
        <ele>1905</ele>
        <time>2010-01-01T19:15:11Z</time>
      </trkpt>
      <trkpt lat="46.21213" lon="6.79024">
        <ele>1904</ele>
        <time>2010-01-01T19:15:18Z</time>
      </trkpt>
      <trkpt lat="46.2122" lon="6.79021">
        <ele>1904</ele>
        <time>2010-01-01T19:15:21Z</time>
      </trkpt>
      <trkpt lat="46.21255" lon="6.78992">
        <ele>1901</ele>
        <time>2010-01-01T19:15:37Z</time>
      </trkpt>
      <trkpt lat="46.21257" lon="6.7899">
        <ele>1900</ele>
        <time>2010-01-01T19:15:39Z</time>
      </trkpt>
      <trkpt lat="46.2126" lon="6.78979">
        <ele>1897</ele>
        <time>2010-01-01T19:15:42Z</time>
      </trkpt>
      <trkpt lat="46.21277" lon="6.78947">
        <ele>1894</ele>
        <time>2010-01-01T19:15:53Z</time>
      </trkpt>
      <trkpt lat="46.21293" lon="6.78917">
        <ele>1893</ele>
        <time>2010-01-01T19:16:03Z</time>
      </trkpt>
      <trkpt lat="46.21293" lon="6.78917">
        <ele>1895</ele>
        <time>2010-01-01T19:16:03Z</time>
      </trkpt>
      <trkpt lat="46.213" lon="6.78891">
        <ele>1895</ele>
        <time>2010-01-01T19:16:11Z</time>
      </trkpt>
      <trkpt lat="46.213" lon="6.78891">
        <ele>1895</ele>
        <time>2010-01-01T19:16:11Z</time>
      </trkpt>
      <trkpt lat="46.21316" lon="6.78859">
        <ele>1896</ele>
        <time>2010-01-01T19:16:22Z</time>
      </trkpt>
      <trkpt lat="46.21325" lon="6.78846">
        <ele>1898</ele>
        <time>2010-01-01T19:16:27Z</time>
      </trkpt>
      <trkpt lat="46.21326" lon="6.78845">
        <ele>1898</ele>
        <time>2010-01-01T19:16:27Z</time>
      </trkpt>
      <trkpt lat="46.21346" lon="6.78817">
        <ele>1894</ele>
        <time>2010-01-01T19:16:39Z</time>
      </trkpt>
      <trkpt lat="46.21368" lon="6.78782">
        <ele>1889</ele>
        <time>2010-01-01T19:16:52Z</time>
      </trkpt>
      <trkpt lat="46.21375" lon="6.78756">
        <ele>1889</ele>
        <time>2010-01-01T19:17:00Z</time>
      </trkpt>
      <trkpt lat="46.21386" lon="6.78735">
        <ele>1889</ele>
        <time>2010-01-01T19:17:07Z</time>
      </trkpt>
      <trkpt lat="46.21397" lon="6.78706">
        <ele>1889</ele>
        <time>2010-01-01T19:17:16Z</time>
      </trkpt>
      <trkpt lat="46.21413" lon="6.78682">
        <ele>1891</ele>
        <time>2010-01-01T19:17:25Z</time>
      </trkpt>
      <trkpt lat="46.21443" lon="6.78653">
        <ele>1884</ele>
        <time>2010-01-01T19:17:39Z</time>
      </trkpt>
      <trkpt lat="46.2146" lon="6.78629">
        <ele>1882</ele>
        <time>2010-01-01T19:17:49Z</time>
      </trkpt>
      <trkpt lat="46.21489" lon="6.78593">
        <ele>1884</ele>
        <time>2010-01-01T19:18:05Z</time>
      </trkpt>
      <trkpt lat="46.21508" lon="6.7858">
        <ele>1884</ele>
        <time>2010-01-01T19:18:13Z</time>
      </trkpt>
      <trkpt lat="46.21527" lon="6.78574">
        <ele>1880</ele>
        <time>2010-01-01T19:18:21Z</time>
      </trkpt>
      <trkpt lat="46.21549" lon="6.78553">
        <ele>1877</ele>
        <time>2010-01-01T19:18:31Z</time>
      </trkpt>
      <trkpt lat="46.21558" lon="6.78538">
        <ele>1878</ele>
        <time>2010-01-01T19:18:37Z</time>
      </trkpt>
      <trkpt lat="46.21567" lon="6.78524">
        <ele>1881</ele>
        <time>2010-01-01T19:18:42Z</time>
      </trkpt>
      <trkpt lat="46.21572" lon="6.78509">
        <ele>1883</ele>
        <time>2010-01-01T19:18:47Z</time>
      </trkpt>
      <trkpt lat="46.21577" lon="6.78494">
        <ele>1886</ele>
        <time>2010-01-01T19:18:51Z</time>
      </trkpt>
      <trkpt lat="46.21587" lon="6.7847">
        <ele>1883</ele>
        <time>2010-01-01T19:18:59Z</time>
      </trkpt>
      <trkpt lat="46.21596" lon="6.78455">
        <ele>1883</ele>
        <time>2010-01-01T19:19:05Z</time>
      </trkpt>
      <trkpt lat="46.21597" lon="6.78454">
        <ele>1883</ele>
        <time>2010-01-01T19:19:05Z</time>
      </trkpt>
      <trkpt lat="46.21604" lon="6.78444">
        <ele>1883</ele>
        <time>2010-01-01T19:19:09Z</time>
      </trkpt>
      <trkpt lat="46.21617" lon="6.78416">
        <ele>1891</ele>
        <time>2010-01-01T19:19:18Z</time>
      </trkpt>
      <trkpt lat="46.21618" lon="6.78415">
        <ele>1891</ele>
        <time>2010-01-01T19:19:19Z</time>
      </trkpt>
      <trkpt lat="46.21618" lon="6.78414">
        <ele>1891</ele>
        <time>2010-01-01T19:19:19Z</time>
      </trkpt>
      <trkpt lat="46.21621" lon="6.78401">
        <ele>1892</ele>
        <time>2010-01-01T19:19:23Z</time>
      </trkpt>
      <trkpt lat="46.21621" lon="6.78399">
        <ele>1892</ele>
        <time>2010-01-01T19:19:23Z</time>
      </trkpt>
      <trkpt lat="46.21629" lon="6.78365">
        <ele>1893</ele>
        <time>2010-01-01T19:19:33Z</time>
      </trkpt>
      <trkpt lat="46.21636" lon="6.78319">
        <ele>1896</ele>
        <time>2010-01-01T19:19:46Z</time>
      </trkpt>
      <trkpt lat="46.21637" lon="6.78254">
        <ele>1897</ele>
        <time>2010-01-01T19:20:04Z</time>
      </trkpt>
      <trkpt lat="46.21637" lon="6.78228">
        <ele>1894</ele>
        <time>2010-01-01T19:20:11Z</time>
      </trkpt>
      <trkpt lat="46.21638" lon="6.78202">
        <ele>1893</ele>
        <time>2010-01-01T19:20:19Z</time>
      </trkpt>
      <trkpt lat="46.21638" lon="6.78169">
        <ele>1894</ele>
        <time>2010-01-01T19:20:28Z</time>
      </trkpt>
      <trkpt lat="46.21638" lon="6.78147">
        <ele>1888</ele>
        <time>2010-01-01T19:20:34Z</time>
      </trkpt>
      <trkpt lat="46.21644" lon="6.78129">
        <ele>1887</ele>
        <time>2010-01-01T19:20:39Z</time>
      </trkpt>
      <trkpt lat="46.21658" lon="6.78084">
        <ele>1893</ele>
        <time>2010-01-01T19:20:53Z</time>
      </trkpt>
      <trkpt lat="46.21673" lon="6.78049">
        <ele>1896</ele>
        <time>2010-01-01T19:21:05Z</time>
      </trkpt>
      <trkpt lat="46.21695" lon="6.78013">
        <ele>1893</ele>
        <time>2010-01-01T19:21:18Z</time>
      </trkpt>
      <trkpt lat="46.21705" lon="6.78">
        <ele>1879</ele>
        <time>2010-01-01T19:21:23Z</time>
      </trkpt>
      <trkpt lat="46.21723" lon="6.77983">
        <ele>1883</ele>
        <time>2010-01-01T19:21:32Z</time>
      </trkpt>
      <trkpt lat="46.21756" lon="6.77948">
        <ele>1892</ele>
        <time>2010-01-01T19:21:48Z</time>
      </trkpt>
      <trkpt lat="46.21798" lon="6.77907">
        <ele>1875</ele>
        <time>2010-01-01T19:22:08Z</time>
      </trkpt>
      <trkpt lat="46.21829" lon="6.77878">
        <ele>1874</ele>
        <time>2010-01-01T19:22:23Z</time>
      </trkpt>
      <trkpt lat="46.21848" lon="6.77861">
        <ele>1875</ele>
        <time>2010-01-01T19:22:32Z</time>
      </trkpt>
      <trkpt lat="46.21863" lon="6.77841">
        <ele>1873</ele>
        <time>2010-01-01T19:22:40Z</time>
      </trkpt>
      <trkpt lat="46.21864" lon="6.77841">
        <ele>1873</ele>
        <time>2010-01-01T19:22:41Z</time>
      </trkpt>
      <trkpt lat="46.21879" lon="6.7783">
        <ele>1862</ele>
        <time>2010-01-01T19:22:48Z</time>
      </trkpt>
      <trkpt lat="46.21882" lon="6.77827">
        <ele>1862</ele>
        <time>2010-01-01T19:22:49Z</time>
      </trkpt>
      <trkpt lat="46.21889" lon="6.77824">
        <ele>1862</ele>
        <time>2010-01-01T19:22:52Z</time>
      </trkpt>
      <trkpt lat="46.21898" lon="6.77816">
        <ele>1862</ele>
        <time>2010-01-01T19:22:56Z</time>
      </trkpt>
      <trkpt lat="46.21912" lon="6.77799">
        <ele>1862</ele>
        <time>2010-01-01T19:23:04Z</time>
      </trkpt>
      <trkpt lat="46.21917" lon="6.77792">
        <ele>1853</ele>
        <time>2010-01-01T19:23:06Z</time>
      </trkpt>
      <trkpt lat="46.2192" lon="6.77796">
        <ele>1853</ele>
        <time>2010-01-01T19:23:08Z</time>
      </trkpt>
      <trkpt lat="46.21915" lon="6.77809">
        <ele>1862</ele>
        <time>2010-01-01T19:23:12Z</time>
      </trkpt>
      <trkpt lat="46.21915" lon="6.77819">
        <ele>1863</ele>
        <time>2010-01-01T19:23:15Z</time>
      </trkpt>
      <trkpt lat="46.21917" lon="6.77828">
        <ele>1861</ele>
        <time>2010-01-01T19:23:17Z</time>
      </trkpt>
      <trkpt lat="46.21918" lon="6.77836">
        <ele>1863</ele>
        <time>2010-01-01T19:23:19Z</time>
      </trkpt>
      <trkpt lat="46.21921" lon="6.77848">
        <ele>1859</ele>
        <time>2010-01-01T19:23:23Z</time>
      </trkpt>
      <trkpt lat="46.21923" lon="6.77857">
        <ele>1858</ele>
        <time>2010-01-01T19:23:26Z</time>
      </trkpt>
      <trkpt lat="46.21925" lon="6.77865">
        <ele>1857</ele>
        <time>2010-01-01T19:23:28Z</time>
      </trkpt>
      <trkpt lat="46.21927" lon="6.77876">
        <ele>1858</ele>
        <time>2010-01-01T19:23:31Z</time>
      </trkpt>
      <trkpt lat="46.21929" lon="6.77881">
        <ele>1858</ele>
        <time>2010-01-01T19:23:33Z</time>
      </trkpt>
      <trkpt lat="46.21932" lon="6.77887">
        <ele>1859</ele>
        <time>2010-01-01T19:23:35Z</time>
      </trkpt>
      <trkpt lat="46.21934" lon="6.77891">
        <ele>1859</ele>
        <time>2010-01-01T19:23:36Z</time>
      </trkpt>
      <trkpt lat="46.21938" lon="6.77894">
        <ele>1859</ele>
        <time>2010-01-01T19:23:38Z</time>
      </trkpt>
      <trkpt lat="46.21937" lon="6.77889">
        <ele>1858</ele>
        <time>2010-01-01T19:23:39Z</time>
      </trkpt>
      <trkpt lat="46.21937" lon="6.7788">
        <ele>1857</ele>
        <time>2010-01-01T19:23:42Z</time>
      </trkpt>
      <trkpt lat="46.21934" lon="6.7787">
        <ele>1856</ele>
        <time>2010-01-01T19:23:45Z</time>
      </trkpt>
      <trkpt lat="46.21936" lon="6.77865">
        <ele>1855</ele>
        <time>2010-01-01T19:23:46Z</time>
      </trkpt>
      <trkpt lat="46.21938" lon="6.77865">
        <ele>1855</ele>
        <time>2010-01-01T19:23:47Z</time>
      </trkpt>
      <trkpt lat="46.21946" lon="6.77881">
        <ele>1854</ele>
        <time>2010-01-01T19:23:53Z</time>
      </trkpt>
      <trkpt lat="46.21953" lon="6.7789">
        <ele>1853</ele>
        <time>2010-01-01T19:23:56Z</time>
      </trkpt>
      <trkpt lat="46.21964" lon="6.77907">
        <ele>1850</ele>
        <time>2010-01-01T19:24:03Z</time>
      </trkpt>
      <trkpt lat="46.21968" lon="6.77916">
        <ele>1849</ele>
        <time>2010-01-01T19:24:06Z</time>
      </trkpt>
      <trkpt lat="46.21972" lon="6.77926">
        <ele>1852</ele>
        <time>2010-01-01T19:24:09Z</time>
      </trkpt>
      <trkpt lat="46.21972" lon="6.77927">
        <ele>1852</ele>
        <time>2010-01-01T19:24:09Z</time>
      </trkpt>
      <trkpt lat="46.21978" lon="6.77946">
        <ele>1852</ele>
        <time>2010-01-01T19:24:15Z</time>
      </trkpt>
      <trkpt lat="46.21986" lon="6.77973">
        <ele>1851</ele>
        <time>2010-01-01T19:24:23Z</time>
      </trkpt>
      <trkpt lat="46.21988" lon="6.77979">
        <ele>1849</ele>
        <time>2010-01-01T19:24:25Z</time>
      </trkpt>
      <trkpt lat="46.21991" lon="6.77986">
        <ele>1846</ele>
        <time>2010-01-01T19:24:27Z</time>
      </trkpt>
      <trkpt lat="46.21994" lon="6.77984">
        <ele>1846</ele>
        <time>2010-01-01T19:24:29Z</time>
      </trkpt>
      <trkpt lat="46.21993" lon="6.77975">
        <ele>1849</ele>
        <time>2010-01-01T19:24:31Z</time>
      </trkpt>
      <trkpt lat="46.21992" lon="6.77962">
        <ele>1850</ele>
        <time>2010-01-01T19:24:35Z</time>
      </trkpt>
      <trkpt lat="46.21994" lon="6.77944">
        <ele>1848</ele>
        <time>2010-01-01T19:24:40Z</time>
      </trkpt>
      <trkpt lat="46.21991" lon="6.77929">
        <ele>1844</ele>
        <time>2010-01-01T19:24:44Z</time>
      </trkpt>
      <trkpt lat="46.21987" lon="6.77911">
        <ele>1841</ele>
        <time>2010-01-01T19:24:50Z</time>
      </trkpt>
      <trkpt lat="46.21981" lon="6.77892">
        <ele>1845</ele>
        <time>2010-01-01T19:24:55Z</time>
      </trkpt>
      <trkpt lat="46.2198" lon="6.7788">
        <ele>1845</ele>
        <time>2010-01-01T19:24:59Z</time>
      </trkpt>
      <trkpt lat="46.21982" lon="6.77873">
        <ele>1844</ele>
        <time>2010-01-01T19:25:01Z</time>
      </trkpt>
      <trkpt lat="46.21987" lon="6.77882">
        <ele>1844</ele>
        <time>2010-01-01T19:25:04Z</time>
      </trkpt>
      <trkpt lat="46.21993" lon="6.7789">
        <ele>1843</ele>
        <time>2010-01-01T19:25:07Z</time>
      </trkpt>
      <trkpt lat="46.21997" lon="6.77891">
        <ele>1842</ele>
        <time>2010-01-01T19:25:09Z</time>
      </trkpt>
      <trkpt lat="46.22" lon="6.77888">
        <ele>1842</ele>
        <time>2010-01-01T19:25:10Z</time>
      </trkpt>
      <trkpt lat="46.22002" lon="6.77883">
        <ele>1817</ele>
        <time>2010-01-01T19:25:12Z</time>
      </trkpt>
      <trkpt lat="46.21996" lon="6.77867">
        <ele>1841</ele>
        <time>2010-01-01T19:25:17Z</time>
      </trkpt>
      <trkpt lat="46.21995" lon="6.77865">
        <ele>1841</ele>
        <time>2010-01-01T19:25:17Z</time>
      </trkpt>
      <trkpt lat="46.21989" lon="6.77854">
        <ele>1839</ele>
        <time>2010-01-01T19:25:21Z</time>
      </trkpt>
      <trkpt lat="46.21988" lon="6.77842">
        <ele>1836</ele>
        <time>2010-01-01T19:25:24Z</time>
      </trkpt>
      <trkpt lat="46.21991" lon="6.7784">
        <ele>1833</ele>
        <time>2010-01-01T19:25:26Z</time>
      </trkpt>
      <trkpt lat="46.22" lon="6.77851">
        <ele>1836</ele>
        <time>2010-01-01T19:25:30Z</time>
      </trkpt>
      <trkpt lat="46.22006" lon="6.77856">
        <ele>1816</ele>
        <time>2010-01-01T19:25:33Z</time>
      </trkpt>
      <trkpt lat="46.22013" lon="6.77863">
        <ele>1814</ele>
        <time>2010-01-01T19:25:36Z</time>
      </trkpt>
      <trkpt lat="46.22017" lon="6.77862">
        <ele>1814</ele>
        <time>2010-01-01T19:25:38Z</time>
      </trkpt>
      <trkpt lat="46.22023" lon="6.77873">
        <ele>1813</ele>
        <time>2010-01-01T19:25:42Z</time>
      </trkpt>
      <trkpt lat="46.22029" lon="6.77895">
        <ele>1813</ele>
        <time>2010-01-01T19:25:49Z</time>
      </trkpt>
      <trkpt lat="46.22035" lon="6.7791">
        <ele>1812</ele>
        <time>2010-01-01T19:25:53Z</time>
      </trkpt>
      <trkpt lat="46.22054" lon="6.77932">
        <ele>1807</ele>
        <time>2010-01-01T19:26:03Z</time>
      </trkpt>
      <trkpt lat="46.22059" lon="6.77944">
        <ele>1806</ele>
        <time>2010-01-01T19:26:07Z</time>
      </trkpt>
      <trkpt lat="46.22061" lon="6.77954">
        <ele>1806</ele>
        <time>2010-01-01T19:26:10Z</time>
      </trkpt>
      <trkpt lat="46.22061" lon="6.77966">
        <ele>1805</ele>
        <time>2010-01-01T19:26:13Z</time>
      </trkpt>
      <trkpt lat="46.22057" lon="6.77977">
        <ele>1805</ele>
        <time>2010-01-01T19:26:16Z</time>
      </trkpt>
      <trkpt lat="46.2205" lon="6.77985">
        <ele>1807</ele>
        <time>2010-01-01T19:26:20Z</time>
      </trkpt>
      <trkpt lat="46.22042" lon="6.77994">
        <ele>1810</ele>
        <time>2010-01-01T19:26:24Z</time>
      </trkpt>
      <trkpt lat="46.22032" lon="6.77999">
        <ele>1814</ele>
        <time>2010-01-01T19:26:29Z</time>
      </trkpt>
      <trkpt lat="46.22026" lon="6.78017">
        <ele>1812</ele>
        <time>2010-01-01T19:26:34Z</time>
      </trkpt>
      <trkpt lat="46.22023" lon="6.78031">
        <ele>1811</ele>
        <time>2010-01-01T19:26:38Z</time>
      </trkpt>
      <trkpt lat="46.22019" lon="6.78044">
        <ele>1810</ele>
        <time>2010-01-01T19:26:42Z</time>
      </trkpt>
      <trkpt lat="46.22019" lon="6.7805">
        <ele>1810</ele>
        <time>2010-01-01T19:26:44Z</time>
      </trkpt>
      <trkpt lat="46.22018" lon="6.78059">
        <ele>1811</ele>
        <time>2010-01-01T19:26:46Z</time>
      </trkpt>
      <trkpt lat="46.22018" lon="6.78083">
        <ele>1813</ele>
        <time>2010-01-01T19:26:53Z</time>
      </trkpt>
      <trkpt lat="46.2202" lon="6.78096">
        <ele>1808</ele>
        <time>2010-01-01T19:26:56Z</time>
      </trkpt>
      <trkpt lat="46.22024" lon="6.78113">
        <ele>1804</ele>
        <time>2010-01-01T19:27:01Z</time>
      </trkpt>
      <trkpt lat="46.22037" lon="6.7816">
        <ele>1799</ele>
        <time>2010-01-01T19:27:16Z</time>
      </trkpt>
      <trkpt lat="46.2204" lon="6.78173">
        <ele>1796</ele>
        <time>2010-01-01T19:27:19Z</time>
      </trkpt>
      <trkpt lat="46.2204" lon="6.78182">
        <ele>1795</ele>
        <time>2010-01-01T19:27:22Z</time>
      </trkpt>
      <trkpt lat="46.2204" lon="6.78201">
        <ele>1795</ele>
        <time>2010-01-01T19:27:27Z</time>
      </trkpt>
      <trkpt lat="46.22033" lon="6.78255">
        <ele>1791</ele>
        <time>2010-01-01T19:27:42Z</time>
      </trkpt>
      <trkpt lat="46.22031" lon="6.78273">
        <ele>1790</ele>
        <time>2010-01-01T19:27:47Z</time>
      </trkpt>
      <trkpt lat="46.22027" lon="6.78292">
        <ele>1787</ele>
        <time>2010-01-01T19:27:53Z</time>
      </trkpt>
      <trkpt lat="46.22018" lon="6.78308">
        <ele>1787</ele>
        <time>2010-01-01T19:27:59Z</time>
      </trkpt>
      <trkpt lat="46.22006" lon="6.78321">
        <ele>1789</ele>
        <time>2010-01-01T19:28:05Z</time>
      </trkpt>
      <trkpt lat="46.21992" lon="6.78331">
        <ele>1800</ele>
        <time>2010-01-01T19:28:11Z</time>
      </trkpt>
      <trkpt lat="46.21982" lon="6.78333">
        <ele>1794</ele>
        <time>2010-01-01T19:28:15Z</time>
      </trkpt>
      <trkpt lat="46.2197" lon="6.78346">
        <ele>1795</ele>
        <time>2010-01-01T19:28:21Z</time>
      </trkpt>
      <trkpt lat="46.21964" lon="6.7836">
        <ele>1795</ele>
        <time>2010-01-01T19:28:25Z</time>
      </trkpt>
      <trkpt lat="46.21964" lon="6.78361">
        <ele>1795</ele>
        <time>2010-01-01T19:28:26Z</time>
      </trkpt>
      <trkpt lat="46.21958" lon="6.78374">
        <ele>1794</ele>
        <time>2010-01-01T19:28:30Z</time>
      </trkpt>
      <trkpt lat="46.2195" lon="6.78387">
        <ele>1793</ele>
        <time>2010-01-01T19:28:35Z</time>
      </trkpt>
      <trkpt lat="46.21949" lon="6.78395">
        <ele>1792</ele>
        <time>2010-01-01T19:28:37Z</time>
      </trkpt>
      <trkpt lat="46.21949" lon="6.78399">
        <ele>1792</ele>
        <time>2010-01-01T19:28:38Z</time>
      </trkpt>
      <trkpt lat="46.21951" lon="6.784">
        <ele>1791</ele>
        <time>2010-01-01T19:28:39Z</time>
      </trkpt>
      <trkpt lat="46.21956" lon="6.78397">
        <ele>1791</ele>
        <time>2010-01-01T19:28:41Z</time>
      </trkpt>
      <trkpt lat="46.21965" lon="6.78391">
        <ele>1790</ele>
        <time>2010-01-01T19:28:45Z</time>
      </trkpt>
      <trkpt lat="46.21977" lon="6.78386">
        <ele>1789</ele>
        <time>2010-01-01T19:28:50Z</time>
      </trkpt>
      <trkpt lat="46.21984" lon="6.78385">
        <ele>1787</ele>
        <time>2010-01-01T19:28:53Z</time>
      </trkpt>
      <trkpt lat="46.21989" lon="6.78379">
        <ele>1788</ele>
        <time>2010-01-01T19:28:56Z</time>
      </trkpt>
      <trkpt lat="46.21994" lon="6.78368">
        <ele>1790</ele>
        <time>2010-01-01T19:28:59Z</time>
      </trkpt>
      <trkpt lat="46.22004" lon="6.78366">
        <ele>1770</ele>
        <time>2010-01-01T19:29:03Z</time>
      </trkpt>
      <trkpt lat="46.2202" lon="6.78362">
        <ele>1769</ele>
        <time>2010-01-01T19:29:10Z</time>
      </trkpt>
      <trkpt lat="46.22028" lon="6.78362">
        <ele>1767</ele>
        <time>2010-01-01T19:29:13Z</time>
      </trkpt>
      <trkpt lat="46.22041" lon="6.78347">
        <ele>1765</ele>
        <time>2010-01-01T19:29:20Z</time>
      </trkpt>
      <trkpt lat="46.22046" lon="6.78329">
        <ele>1780</ele>
        <time>2010-01-01T19:29:25Z</time>
      </trkpt>
      <trkpt lat="46.22049" lon="6.78341">
        <ele>1764</ele>
        <time>2010-01-01T19:29:29Z</time>
      </trkpt>
      <trkpt lat="46.22051" lon="6.78353">
        <ele>1762</ele>
        <time>2010-01-01T19:29:32Z</time>
      </trkpt>
      <trkpt lat="46.22054" lon="6.78356">
        <ele>1761</ele>
        <time>2010-01-01T19:29:33Z</time>
      </trkpt>
      <trkpt lat="46.22056" lon="6.78351">
        <ele>1761</ele>
        <time>2010-01-01T19:29:35Z</time>
      </trkpt>
      <trkpt lat="46.22057" lon="6.78341">
        <ele>1762</ele>
        <time>2010-01-01T19:29:38Z</time>
      </trkpt>
      <trkpt lat="46.22062" lon="6.78326">
        <ele>1774</ele>
        <time>2010-01-01T19:29:42Z</time>
      </trkpt>
      <trkpt lat="46.22065" lon="6.78315">
        <ele>1775</ele>
        <time>2010-01-01T19:29:46Z</time>
      </trkpt>
      <trkpt lat="46.2207" lon="6.78316">
        <ele>1773</ele>
        <time>2010-01-01T19:29:47Z</time>
      </trkpt>
      <trkpt lat="46.22067" lon="6.78327">
        <ele>1771</ele>
        <time>2010-01-01T19:29:51Z</time>
      </trkpt>
      <trkpt lat="46.22067" lon="6.78351">
        <ele>1760</ele>
        <time>2010-01-01T19:29:57Z</time>
      </trkpt>
      <trkpt lat="46.22063" lon="6.78368">
        <ele>1758</ele>
        <time>2010-01-01T19:30:02Z</time>
      </trkpt>
      <trkpt lat="46.22055" lon="6.78385">
        <ele>1756</ele>
        <time>2010-01-01T19:30:08Z</time>
      </trkpt>
      <trkpt lat="46.22048" lon="6.78397">
        <ele>1756</ele>
        <time>2010-01-01T19:30:12Z</time>
      </trkpt>
      <trkpt lat="46.22039" lon="6.78413">
        <ele>1757</ele>
        <time>2010-01-01T19:30:18Z</time>
      </trkpt>
      <trkpt lat="46.2203" lon="6.78427">
        <ele>1741</ele>
        <time>2010-01-01T19:30:23Z</time>
      </trkpt>
      <trkpt lat="46.22023" lon="6.78443">
        <ele>1740</ele>
        <time>2010-01-01T19:30:29Z</time>
      </trkpt>
      <trkpt lat="46.22022" lon="6.78455">
        <ele>1737</ele>
        <time>2010-01-01T19:30:32Z</time>
      </trkpt>
      <trkpt lat="46.22016" lon="6.78481">
        <ele>1733</ele>
        <time>2010-01-01T19:30:40Z</time>
      </trkpt>
      <trkpt lat="46.22005" lon="6.78494">
        <ele>1733</ele>
        <time>2010-01-01T19:30:45Z</time>
      </trkpt>
      <trkpt lat="46.21997" lon="6.78504">
        <ele>1733</ele>
        <time>2010-01-01T19:30:50Z</time>
      </trkpt>
      <trkpt lat="46.21986" lon="6.78508">
        <ele>1733</ele>
        <time>2010-01-01T19:30:54Z</time>
      </trkpt>
      <trkpt lat="46.2198" lon="6.78508">
        <ele>1733</ele>
        <time>2010-01-01T19:30:56Z</time>
      </trkpt>
      <trkpt lat="46.21976" lon="6.78509">
        <ele>1733</ele>
        <time>2010-01-01T19:30:58Z</time>
      </trkpt>
      <trkpt lat="46.21968" lon="6.78514">
        <ele>1733</ele>
        <time>2010-01-01T19:31:02Z</time>
      </trkpt>
      <trkpt lat="46.21963" lon="6.78522">
        <ele>1733</ele>
        <time>2010-01-01T19:31:04Z</time>
      </trkpt>
      <trkpt lat="46.21959" lon="6.78526">
        <ele>1733</ele>
        <time>2010-01-01T19:31:06Z</time>
      </trkpt>
      <trkpt lat="46.21948" lon="6.78531">
        <ele>1734</ele>
        <time>2010-01-01T19:31:11Z</time>
      </trkpt>
      <trkpt lat="46.21939" lon="6.78538">
        <ele>1733</ele>
        <time>2010-01-01T19:31:15Z</time>
      </trkpt>
      <trkpt lat="46.21913" lon="6.78543">
        <ele>1751</ele>
        <time>2010-01-01T19:31:25Z</time>
      </trkpt>
      <trkpt lat="46.21898" lon="6.78548">
        <ele>1752</ele>
        <time>2010-01-01T19:31:32Z</time>
      </trkpt>
      <trkpt lat="46.21881" lon="6.78561">
        <ele>1753</ele>
        <time>2010-01-01T19:31:39Z</time>
      </trkpt>
      <trkpt lat="46.21877" lon="6.78572">
        <ele>1752</ele>
        <time>2010-01-01T19:31:43Z</time>
      </trkpt>
      <trkpt lat="46.21873" lon="6.78581">
        <ele>1752</ele>
        <time>2010-01-01T19:31:46Z</time>
      </trkpt>
      <trkpt lat="46.21868" lon="6.78595">
        <ele>1733</ele>
        <time>2010-01-01T19:31:50Z</time>
      </trkpt>
      <trkpt lat="46.21854" lon="6.78605">
        <ele>1735</ele>
        <time>2010-01-01T19:31:56Z</time>
      </trkpt>
      <trkpt lat="46.21844" lon="6.78612">
        <ele>1735</ele>
        <time>2010-01-01T19:32:01Z</time>
      </trkpt>
      <trkpt lat="46.21837" lon="6.7862">
        <ele>1733</ele>
        <time>2010-01-01T19:32:05Z</time>
      </trkpt>
      <trkpt lat="46.21834" lon="6.78628">
        <ele>1731</ele>
        <time>2010-01-01T19:32:07Z</time>
      </trkpt>
      <trkpt lat="46.21839" lon="6.78642">
        <ele>1728</ele>
        <time>2010-01-01T19:32:11Z</time>
      </trkpt>
      <trkpt lat="46.21838" lon="6.78652">
        <ele>1726</ele>
        <time>2010-01-01T19:32:14Z</time>
      </trkpt>
      <trkpt lat="46.2183" lon="6.78664">
        <ele>1731</ele>
        <time>2010-01-01T19:32:18Z</time>
      </trkpt>
      <trkpt lat="46.21824" lon="6.78676">
        <ele>1727</ele>
        <time>2010-01-01T19:32:23Z</time>
      </trkpt>
      <trkpt lat="46.21817" lon="6.78685">
        <ele>1728</ele>
        <time>2010-01-01T19:32:26Z</time>
      </trkpt>
      <trkpt lat="46.21811" lon="6.787">
        <ele>1727</ele>
        <time>2010-01-01T19:32:31Z</time>
      </trkpt>
      <trkpt lat="46.21809" lon="6.78713">
        <ele>1726</ele>
        <time>2010-01-01T19:32:35Z</time>
      </trkpt>
      <trkpt lat="46.21802" lon="6.78719">
        <ele>1726</ele>
        <time>2010-01-01T19:32:38Z</time>
      </trkpt>
      <trkpt lat="46.21792" lon="6.78726">
        <ele>1727</ele>
        <time>2010-01-01T19:32:42Z</time>
      </trkpt>
      <trkpt lat="46.21786" lon="6.78731">
        <ele>1727</ele>
        <time>2010-01-01T19:32:45Z</time>
      </trkpt>
      <trkpt lat="46.21782" lon="6.78743">
        <ele>1727</ele>
        <time>2010-01-01T19:32:49Z</time>
      </trkpt>
      <trkpt lat="46.21778" lon="6.78762">
        <ele>1715</ele>
        <time>2010-01-01T19:32:54Z</time>
      </trkpt>
      <trkpt lat="46.21773" lon="6.78777">
        <ele>1713</ele>
        <time>2010-01-01T19:32:59Z</time>
      </trkpt>
      <trkpt lat="46.21764" lon="6.78785">
        <ele>1714</ele>
        <time>2010-01-01T19:33:03Z</time>
      </trkpt>
      <trkpt lat="46.21757" lon="6.78788">
        <ele>1714</ele>
        <time>2010-01-01T19:33:06Z</time>
      </trkpt>
      <trkpt lat="46.21747" lon="6.78793">
        <ele>1732</ele>
        <time>2010-01-01T19:33:10Z</time>
      </trkpt>
      <trkpt lat="46.21743" lon="6.78804">
        <ele>1730</ele>
        <time>2010-01-01T19:33:14Z</time>
      </trkpt>
      <trkpt lat="46.21744" lon="6.7881">
        <ele>1728</ele>
        <time>2010-01-01T19:33:15Z</time>
      </trkpt>
      <trkpt lat="46.21743" lon="6.78819">
        <ele>1725</ele>
        <time>2010-01-01T19:33:18Z</time>
      </trkpt>
      <trkpt lat="46.21742" lon="6.78829">
        <ele>1720</ele>
        <time>2010-01-01T19:33:21Z</time>
      </trkpt>
      <trkpt lat="46.21742" lon="6.78841">
        <ele>1717</ele>
        <time>2010-01-01T19:33:24Z</time>
      </trkpt>
      <trkpt lat="46.21741" lon="6.78853">
        <ele>1718</ele>
        <time>2010-01-01T19:33:28Z</time>
      </trkpt>
      <trkpt lat="46.21738" lon="6.78865">
        <ele>1719</ele>
        <time>2010-01-01T19:33:31Z</time>
      </trkpt>
      <trkpt lat="46.2173" lon="6.78872">
        <ele>1720</ele>
        <time>2010-01-01T19:33:35Z</time>
      </trkpt>
      <trkpt lat="46.2173" lon="6.78873">
        <ele>1720</ele>
        <time>2010-01-01T19:33:35Z</time>
      </trkpt>
      <trkpt lat="46.21725" lon="6.78878">
        <ele>1720</ele>
        <time>2010-01-01T19:33:37Z</time>
      </trkpt>
      <trkpt lat="46.21722" lon="6.78886">
        <ele>1720</ele>
        <time>2010-01-01T19:33:40Z</time>
      </trkpt>
      <trkpt lat="46.21719" lon="6.78914">
        <ele>1718</ele>
        <time>2010-01-01T19:33:48Z</time>
      </trkpt>
      <trkpt lat="46.21729" lon="6.78928">
        <ele>1710</ele>
        <time>2010-01-01T19:33:53Z</time>
      </trkpt>
      <trkpt lat="46.21737" lon="6.78936">
        <ele>1709</ele>
        <time>2010-01-01T19:33:57Z</time>
      </trkpt>
      <trkpt lat="46.21746" lon="6.78949">
        <ele>1708</ele>
        <time>2010-01-01T19:34:02Z</time>
      </trkpt>
      <trkpt lat="46.21755" lon="6.78962">
        <ele>1692</ele>
        <time>2010-01-01T19:34:08Z</time>
      </trkpt>
      <trkpt lat="46.21762" lon="6.78964">
        <ele>1692</ele>
        <time>2010-01-01T19:34:10Z</time>
      </trkpt>
      <trkpt lat="46.21769" lon="6.78973">
        <ele>1691</ele>
        <time>2010-01-01T19:34:14Z</time>
      </trkpt>
      <trkpt lat="46.21775" lon="6.78986">
        <ele>1690</ele>
        <time>2010-01-01T19:34:18Z</time>
      </trkpt>
      <trkpt lat="46.21777" lon="6.78998">
        <ele>1690</ele>
        <time>2010-01-01T19:34:22Z</time>
      </trkpt>
      <trkpt lat="46.21772" lon="6.79007">
        <ele>1687</ele>
        <time>2010-01-01T19:34:25Z</time>
      </trkpt>
      <trkpt lat="46.21768" lon="6.79013">
        <ele>1687</ele>
        <time>2010-01-01T19:34:27Z</time>
      </trkpt>
      <trkpt lat="46.21768" lon="6.79013">
        <ele>1687</ele>
        <time>2010-01-01T19:34:28Z</time>
      </trkpt>
      <trkpt lat="46.21764" lon="6.79017">
        <ele>1687</ele>
        <time>2010-01-01T19:34:29Z</time>
      </trkpt>
      <trkpt lat="46.21764" lon="6.79018">
        <ele>1687</ele>
        <time>2010-01-01T19:34:30Z</time>
      </trkpt>
      <trkpt lat="46.21761" lon="6.79025">
        <ele>1686</ele>
        <time>2010-01-01T19:34:32Z</time>
      </trkpt>
      <trkpt lat="46.21761" lon="6.79035">
        <ele>1685</ele>
        <time>2010-01-01T19:34:35Z</time>
      </trkpt>
      <trkpt lat="46.21756" lon="6.79052">
        <ele>1684</ele>
        <time>2010-01-01T19:34:40Z</time>
      </trkpt>
      <trkpt lat="46.21747" lon="6.79075">
        <ele>1691</ele>
        <time>2010-01-01T19:34:47Z</time>
      </trkpt>
      <trkpt lat="46.21729" lon="6.79076">
        <ele>1695</ele>
        <time>2010-01-01T19:34:54Z</time>
      </trkpt>
      <trkpt lat="46.21724" lon="6.7908">
        <ele>1696</ele>
        <time>2010-01-01T19:34:56Z</time>
      </trkpt>
      <trkpt lat="46.21708" lon="6.79124">
        <ele>1685</ele>
        <time>2010-01-01T19:35:10Z</time>
      </trkpt>
      <trkpt lat="46.21705" lon="6.79145">
        <ele>1683</ele>
        <time>2010-01-01T19:35:16Z</time>
      </trkpt>
      <trkpt lat="46.21689" lon="6.79179">
        <ele>1671</ele>
        <time>2010-01-01T19:35:27Z</time>
      </trkpt>
      <trkpt lat="46.21679" lon="6.79213">
        <ele>1666</ele>
        <time>2010-01-01T19:35:38Z</time>
      </trkpt>
      <trkpt lat="46.21677" lon="6.79216">
        <ele>1666</ele>
        <time>2010-01-01T19:35:39Z</time>
      </trkpt>
      <trkpt lat="46.21662" lon="6.79247">
        <ele>1670</ele>
        <time>2010-01-01T19:35:50Z</time>
      </trkpt>
      <trkpt lat="46.21656" lon="6.79273">
        <ele>1670</ele>
        <time>2010-01-01T19:35:57Z</time>
      </trkpt>
      <trkpt lat="46.21658" lon="6.79312">
        <ele>1665</ele>
        <time>2010-01-01T19:36:08Z</time>
      </trkpt>
      <trkpt lat="46.2167" lon="6.79323">
        <ele>1652</ele>
        <time>2010-01-01T19:36:14Z</time>
      </trkpt>
      <trkpt lat="46.21683" lon="6.79331">
        <ele>1652</ele>
        <time>2010-01-01T19:36:19Z</time>
      </trkpt>
      <trkpt lat="46.21695" lon="6.79337">
        <ele>1649</ele>
        <time>2010-01-01T19:36:25Z</time>
      </trkpt>
      <trkpt lat="46.21703" lon="6.79338">
        <ele>1649</ele>
        <time>2010-01-01T19:36:28Z</time>
      </trkpt>
      <trkpt lat="46.21712" lon="6.79327">
        <ele>1650</ele>
        <time>2010-01-01T19:36:32Z</time>
      </trkpt>
      <trkpt lat="46.21727" lon="6.79309">
        <ele>1649</ele>
        <time>2010-01-01T19:36:40Z</time>
      </trkpt>
      <trkpt lat="46.21744" lon="6.79304">
        <ele>1649</ele>
        <time>2010-01-01T19:36:47Z</time>
      </trkpt>
      <trkpt lat="46.21759" lon="6.79301">
        <ele>1643</ele>
        <time>2010-01-01T19:36:53Z</time>
      </trkpt>
      <trkpt lat="46.21782" lon="6.793">
        <ele>1642</ele>
        <time>2010-01-01T19:37:02Z</time>
      </trkpt>
      <trkpt lat="46.21795" lon="6.79338">
        <ele>1639</ele>
        <time>2010-01-01T19:37:14Z</time>
      </trkpt>
      <trkpt lat="46.21818" lon="6.79389">
        <ele>1637</ele>
        <time>2010-01-01T19:37:31Z</time>
      </trkpt>
      <trkpt lat="46.21825" lon="6.79444">
        <ele>1639</ele>
        <time>2010-01-01T19:37:46Z</time>
      </trkpt>
      <trkpt lat="46.21836" lon="6.79522">
        <ele>1634</ele>
        <time>2010-01-01T19:38:08Z</time>
      </trkpt>
      <trkpt lat="46.21845" lon="6.79569">
        <ele>1641</ele>
        <time>2010-01-01T19:38:22Z</time>
      </trkpt>
      <trkpt lat="46.2188" lon="6.79604">
        <ele>1653</ele>
        <time>2010-01-01T19:38:39Z</time>
      </trkpt>
      <trkpt lat="46.21925" lon="6.79637">
        <ele>1649</ele>
        <time>2010-01-01T19:38:59Z</time>
      </trkpt>
      <trkpt lat="46.21964" lon="6.79661">
        <ele>1650</ele>
        <time>2010-01-01T19:39:16Z</time>
      </trkpt>
      <trkpt lat="46.21997" lon="6.79668">
        <ele>1661</ele>
        <time>2010-01-01T19:39:29Z</time>
      </trkpt>
      <trkpt lat="46.22047" lon="6.79668">
        <ele>1672</ele>
        <time>2010-01-01T19:39:50Z</time>
      </trkpt>
      <trkpt lat="46.22093" lon="6.79675">
        <ele>1673</ele>
        <time>2010-01-01T19:40:08Z</time>
      </trkpt>
      <trkpt lat="46.22174" lon="6.79678">
        <ele>1685</ele>
        <time>2010-01-01T19:40:40Z</time>
      </trkpt>
      <trkpt lat="46.22218" lon="6.79676">
        <ele>1688</ele>
        <time>2010-01-01T19:40:58Z</time>
      </trkpt>
      <trkpt lat="46.22256" lon="6.79695">
        <ele>1688</ele>
        <time>2010-01-01T19:41:14Z</time>
      </trkpt>
      <trkpt lat="46.22288" lon="6.79703">
        <ele>1690</ele>
        <time>2010-01-01T19:41:27Z</time>
      </trkpt>
      <trkpt lat="46.22314" lon="6.79704">
        <ele>1688</ele>
        <time>2010-01-01T19:41:37Z</time>
      </trkpt>
      <trkpt lat="46.22354" lon="6.79722">
        <ele>1687</ele>
        <time>2010-01-01T19:41:55Z</time>
      </trkpt>
      <trkpt lat="46.22406" lon="6.7973">
        <ele>1690</ele>
        <time>2010-01-01T19:42:15Z</time>
      </trkpt>
      <trkpt lat="46.22419" lon="6.79732">
        <ele>1692</ele>
        <time>2010-01-01T19:42:21Z</time>
      </trkpt>
      <trkpt lat="46.22441" lon="6.79754">
        <ele>1707</ele>
        <time>2010-01-01T19:42:31Z</time>
      </trkpt>
      <trkpt lat="46.22466" lon="6.79749">
        <ele>1693</ele>
        <time>2010-01-01T19:42:41Z</time>
      </trkpt>
      <trkpt lat="46.22487" lon="6.79737">
        <ele>1695</ele>
        <time>2010-01-01T19:42:50Z</time>
      </trkpt>
      <trkpt lat="46.2251" lon="6.79751">
        <ele>1702</ele>
        <time>2010-01-01T19:43:00Z</time>
      </trkpt>
      <trkpt lat="46.22521" lon="6.79785">
        <ele>1702</ele>
        <time>2010-01-01T19:43:11Z</time>
      </trkpt>
      <trkpt lat="46.22544" lon="6.79808">
        <ele>1700</ele>
        <time>2010-01-01T19:43:22Z</time>
      </trkpt>
      <trkpt lat="46.22585" lon="6.79844">
        <ele>1691</ele>
        <time>2010-01-01T19:43:41Z</time>
      </trkpt>
      <trkpt lat="46.2263" lon="6.79871">
        <ele>1690</ele>
        <time>2010-01-01T19:44:00Z</time>
      </trkpt>
      <trkpt lat="46.22652" lon="6.7989">
        <ele>1690</ele>
        <time>2010-01-01T19:44:11Z</time>
      </trkpt>
      <trkpt lat="46.22669" lon="6.79883">
        <ele>1678</ele>
        <time>2010-01-01T19:44:18Z</time>
      </trkpt>
      <trkpt lat="46.22671" lon="6.79866">
        <ele>1676</ele>
        <time>2010-01-01T19:44:22Z</time>
      </trkpt>
      <trkpt lat="46.22674" lon="6.79843">
        <ele>1675</ele>
        <time>2010-01-01T19:44:29Z</time>
      </trkpt>
      <trkpt lat="46.22693" lon="6.79888">
        <ele>1676</ele>
        <time>2010-01-01T19:44:43Z</time>
      </trkpt>
      <trkpt lat="46.22718" lon="6.79898">
        <ele>1673</ele>
        <time>2010-01-01T19:44:54Z</time>
      </trkpt>
      <trkpt lat="46.22748" lon="6.79892">
        <ele>1670</ele>
        <time>2010-01-01T19:45:06Z</time>
      </trkpt>
      <trkpt lat="46.22797" lon="6.79877">
        <ele>1658</ele>
        <time>2010-01-01T19:45:26Z</time>
      </trkpt>
      <trkpt lat="46.22844" lon="6.79869">
        <ele>1651</ele>
        <time>2010-01-01T19:45:45Z</time>
      </trkpt>
      <trkpt lat="46.22906" lon="6.79888">
        <ele>1651</ele>
        <time>2010-01-01T19:46:10Z</time>
      </trkpt>
      <trkpt lat="46.22925" lon="6.79878">
        <ele>1654</ele>
        <time>2010-01-01T19:46:18Z</time>
      </trkpt>
      <trkpt lat="46.22971" lon="6.7985">
        <ele>1655</ele>
        <time>2010-01-01T19:46:38Z</time>
      </trkpt>
      <trkpt lat="46.23022" lon="6.79811">
        <ele>1650</ele>
        <time>2010-01-01T19:47:01Z</time>
      </trkpt>
      <trkpt lat="46.23089" lon="6.79821">
        <ele>1651</ele>
        <time>2010-01-01T19:47:28Z</time>
      </trkpt>
      <trkpt lat="46.23151" lon="6.79864">
        <ele>1653</ele>
        <time>2010-01-01T19:47:56Z</time>
      </trkpt>
      <trkpt lat="46.23196" lon="6.79903">
        <ele>1647</ele>
        <time>2010-01-01T19:48:17Z</time>
      </trkpt>
      <trkpt lat="46.23242" lon="6.79955">
        <ele>1649</ele>
        <time>2010-01-01T19:48:40Z</time>
      </trkpt>
      <trkpt lat="46.23267" lon="6.80005">
        <ele>1647</ele>
        <time>2010-01-01T19:48:57Z</time>
      </trkpt>
      <trkpt lat="46.23267" lon="6.80022">
        <ele>1647</ele>
        <time>2010-01-01T19:49:02Z</time>
      </trkpt>
      <trkpt lat="46.23279" lon="6.80049">
        <ele>1647</ele>
        <time>2010-01-01T19:49:11Z</time>
      </trkpt>
      <trkpt lat="46.23302" lon="6.80047">
        <ele>1646</ele>
        <time>2010-01-01T19:49:20Z</time>
      </trkpt>
      <trkpt lat="46.23316" lon="6.80048">
        <ele>1645</ele>
        <time>2010-01-01T19:49:26Z</time>
      </trkpt>
      <trkpt lat="46.23341" lon="6.80049">
        <ele>1641</ele>
        <time>2010-01-01T19:49:36Z</time>
      </trkpt>
      <trkpt lat="46.23345" lon="6.80064">
        <ele>1643</ele>
        <time>2010-01-01T19:49:41Z</time>
      </trkpt>
      <trkpt lat="46.23378" lon="6.80071">
        <ele>1642</ele>
        <time>2010-01-01T19:49:54Z</time>
      </trkpt>
      <trkpt lat="46.23407" lon="6.80073">
        <ele>1644</ele>
        <time>2010-01-01T19:50:06Z</time>
      </trkpt>
      <trkpt lat="46.23445" lon="6.80079">
        <ele>1641</ele>
        <time>2010-01-01T19:50:21Z</time>
      </trkpt>
      <trkpt lat="46.23474" lon="6.80094">
        <ele>1654</ele>
        <time>2010-01-01T19:50:33Z</time>
      </trkpt>
      <trkpt lat="46.23503" lon="6.80078">
        <ele>1642</ele>
        <time>2010-01-01T19:50:46Z</time>
      </trkpt>
      <trkpt lat="46.23532" lon="6.8006">
        <ele>1629</ele>
        <time>2010-01-01T19:50:58Z</time>
      </trkpt>
      <trkpt lat="46.23569" lon="6.80059">
        <ele>1626</ele>
        <time>2010-01-01T19:51:13Z</time>
      </trkpt>
      <trkpt lat="46.23601" lon="6.8007">
        <ele>1611</ele>
        <time>2010-01-01T19:51:26Z</time>
      </trkpt>
      <trkpt lat="46.23624" lon="6.80089">
        <ele>1623</ele>
        <time>2010-01-01T19:51:37Z</time>
      </trkpt>
      <trkpt lat="46.23635" lon="6.80137">
        <ele>1627</ele>
        <time>2010-01-01T19:51:51Z</time>
      </trkpt>
      <trkpt lat="46.23655" lon="6.8021">
        <ele>1652</ele>
        <time>2010-01-01T19:52:12Z</time>
      </trkpt>
      <trkpt lat="46.23671" lon="6.80278">
        <ele>1634</ele>
        <time>2010-01-01T19:52:33Z</time>
      </trkpt>
      <trkpt lat="46.23671" lon="6.80315">
        <ele>1642</ele>
        <time>2010-01-01T19:52:43Z</time>
      </trkpt>
      <trkpt lat="46.23677" lon="6.80368">
        <ele>1634</ele>
        <time>2010-01-01T19:52:57Z</time>
      </trkpt>
      <trkpt lat="46.23689" lon="6.80437">
        <ele>1624</ele>
        <time>2010-01-01T19:53:17Z</time>
      </trkpt>
      <trkpt lat="46.23693" lon="6.80481">
        <ele>1619</ele>
        <time>2010-01-01T19:53:30Z</time>
      </trkpt>
      <trkpt lat="46.23739" lon="6.80617">
        <ele>1606</ele>
        <time>2010-01-01T19:54:11Z</time>
      </trkpt>
      <trkpt lat="46.23779" lon="6.80668">
        <ele>1587</ele>
        <time>2010-01-01T19:54:33Z</time>
      </trkpt>
      <trkpt lat="46.23823" lon="6.80707">
        <ele>1583</ele>
        <time>2010-01-01T19:54:53Z</time>
      </trkpt>
      <trkpt lat="46.23866" lon="6.80726">
        <ele>1570</ele>
        <time>2010-01-01T19:55:12Z</time>
      </trkpt>
      <trkpt lat="46.23909" lon="6.80756">
        <ele>1572</ele>
        <time>2010-01-01T19:55:31Z</time>
      </trkpt>
      <trkpt lat="46.23951" lon="6.8079">
        <ele>1565</ele>
        <time>2010-01-01T19:55:50Z</time>
      </trkpt>
      <trkpt lat="46.23993" lon="6.8085">
        <ele>1577</ele>
        <time>2010-01-01T19:56:14Z</time>
      </trkpt>
      <trkpt lat="46.24019" lon="6.80883">
        <ele>1573</ele>
        <time>2010-01-01T19:56:27Z</time>
      </trkpt>
      <trkpt lat="46.2402" lon="6.80922">
        <ele>1586</ele>
        <time>2010-01-01T19:56:38Z</time>
      </trkpt>
      <trkpt lat="46.24073" lon="6.80955">
        <ele>1584</ele>
        <time>2010-01-01T19:57:01Z</time>
      </trkpt>
      <trkpt lat="46.24173" lon="6.81034">
        <ele>1582</ele>
        <time>2010-01-01T19:57:47Z</time>
      </trkpt>
      <trkpt lat="46.24406" lon="6.81213">
        <ele>1577</ele>
        <time>2010-01-01T19:59:32Z</time>
      </trkpt>
      <trkpt lat="46.24442" lon="6.81236">
        <ele>1543</ele>
        <time>2010-01-01T19:59:48Z</time>
      </trkpt>
      <trkpt lat="46.24491" lon="6.8126">
        <ele>1532</ele>
        <time>2010-01-01T20:00:09Z</time>
      </trkpt>
      <trkpt lat="46.2452" lon="6.81298">
        <ele>1504</ele>
        <time>2010-01-01T20:00:25Z</time>
      </trkpt>
      <trkpt lat="46.24544" lon="6.81325">
        <ele>1498</ele>
        <time>2010-01-01T20:00:37Z</time>
      </trkpt>
      <trkpt lat="46.24563" lon="6.81373">
        <ele>1504</ele>
        <time>2010-01-01T20:00:52Z</time>
      </trkpt>
      <trkpt lat="46.24551" lon="6.81453">
        <ele>1505</ele>
        <time>2010-01-01T20:01:15Z</time>
      </trkpt>
      <trkpt lat="46.24496" lon="6.81527">
        <ele>1528</ele>
        <time>2010-01-01T20:01:45Z</time>
      </trkpt>
      <trkpt lat="46.24465" lon="6.81588">
        <ele>1504</ele>
        <time>2010-01-01T20:02:06Z</time>
      </trkpt>
      <trkpt lat="46.24452" lon="6.81624">
        <ele>1504</ele>
        <time>2010-01-01T20:02:17Z</time>
      </trkpt>
      <trkpt lat="46.24442" lon="6.81684">
        <ele>1494</ele>
        <time>2010-01-01T20:02:34Z</time>
      </trkpt>
      <trkpt lat="46.24536" lon="6.81761">
        <ele>1481</ele>
        <time>2010-01-01T20:03:17Z</time>
      </trkpt>
      <trkpt lat="46.24595" lon="6.81788">
        <ele>1467</ele>
        <time>2010-01-01T20:03:42Z</time>
      </trkpt>
      <trkpt lat="46.24674" lon="6.81847">
        <ele>1443</ele>
        <time>2010-01-01T20:04:18Z</time>
      </trkpt>
      <trkpt lat="46.24771" lon="6.8205">
        <ele>1400</ele>
        <time>2010-01-01T20:05:26Z</time>
      </trkpt>
      <trkpt lat="46.24769" lon="6.82228">
        <ele>1394</ele>
        <time>2010-01-01T20:06:15Z</time>
      </trkpt>
      <trkpt lat="46.24753" lon="6.8231">
        <ele>1386</ele>
        <time>2010-01-01T20:06:39Z</time>
      </trkpt>
      <trkpt lat="46.2468" lon="6.82473">
        <ele>1388</ele>
        <time>2010-01-01T20:07:32Z</time>
      </trkpt>
      <trkpt lat="46.24774" lon="6.82582">
        <ele>1383</ele>
        <time>2010-01-01T20:08:20Z</time>
      </trkpt>
      <trkpt lat="46.24894" lon="6.82598">
        <ele>1380</ele>
        <time>2010-01-01T20:09:09Z</time>
      </trkpt>
      <trkpt lat="46.24977" lon="6.82609">
        <ele>1360</ele>
        <time>2010-01-01T20:09:42Z</time>
      </trkpt>
      <trkpt lat="46.2505" lon="6.82693">
        <ele>1346</ele>
        <time>2010-01-01T20:10:20Z</time>
      </trkpt>
      <trkpt lat="46.2512" lon="6.82774">
        <ele>1326</ele>
        <time>2010-01-01T20:10:56Z</time>
      </trkpt>
      <trkpt lat="46.25153" lon="6.82858">
        <ele>1329</ele>
        <time>2010-01-01T20:11:22Z</time>
      </trkpt>
      <trkpt lat="46.25185" lon="6.82962">
        <ele>1299</ele>
        <time>2010-01-01T20:11:54Z</time>
      </trkpt>
      <trkpt lat="46.25222" lon="6.8312">
        <ele>1304</ele>
        <time>2010-01-01T20:12:40Z</time>
      </trkpt>
      <trkpt lat="46.25248" lon="6.83153">
        <ele>1297</ele>
        <time>2010-01-01T20:12:54Z</time>
      </trkpt>
      <trkpt lat="46.25243" lon="6.83173">
        <ele>1299</ele>
        <time>2010-01-01T20:12:54Z</time>
      </trkpt>
      <trkpt lat="46.25247" lon="6.83157">
        <ele>1296</ele>
        <time>2010-01-01T20:12:58Z</time>
      </trkpt>
      <trkpt lat="46.25254" lon="6.83193">
        <ele>1283</ele>
        <time>2010-01-01T20:13:08Z</time>
      </trkpt>
      <trkpt lat="46.2527" lon="6.83211">
        <ele>1282</ele>
        <time>2010-01-01T20:13:16Z</time>
      </trkpt>
      <trkpt lat="46.25286" lon="6.83238">
        <ele>1281</ele>
        <time>2010-01-01T20:13:26Z</time>
      </trkpt>
      <trkpt lat="46.25305" lon="6.83242">
        <ele>1275</ele>
        <time>2010-01-01T20:13:34Z</time>
      </trkpt>
      <trkpt lat="46.25318" lon="6.83241">
        <ele>1271</ele>
        <time>2010-01-01T20:13:39Z</time>
      </trkpt>
      <trkpt lat="46.25338" lon="6.83299">
        <ele>1263</ele>
        <time>2010-01-01T20:13:57Z</time>
      </trkpt>
      <trkpt lat="46.25344" lon="6.83324">
        <ele>1269</ele>
        <time>2010-01-01T20:14:05Z</time>
      </trkpt>
      <trkpt lat="46.25369" lon="6.8337">
        <ele>1273</ele>
        <time>2010-01-01T20:14:21Z</time>
      </trkpt>
      <trkpt lat="46.25388" lon="6.83399">
        <ele>1271</ele>
        <time>2010-01-01T20:14:32Z</time>
      </trkpt>
      <trkpt lat="46.25409" lon="6.83433">
        <ele>1275</ele>
        <time>2010-01-01T20:14:44Z</time>
      </trkpt>
      <trkpt lat="46.2543" lon="6.83478">
        <ele>1261</ele>
        <time>2010-01-01T20:14:59Z</time>
      </trkpt>
      <trkpt lat="46.25432" lon="6.83483">
        <ele>1261</ele>
        <time>2010-01-01T20:15:01Z</time>
      </trkpt>
      <trkpt lat="46.25443" lon="6.83501">
        <ele>1265</ele>
        <time>2010-01-01T20:15:08Z</time>
      </trkpt>
      <trkpt lat="46.25459" lon="6.8354">
        <ele>1262</ele>
        <time>2010-01-01T20:15:20Z</time>
      </trkpt>
      <trkpt lat="46.25477" lon="6.83586">
        <ele>1265</ele>
        <time>2010-01-01T20:15:35Z</time>
      </trkpt>
      <trkpt lat="46.25509" lon="6.83655">
        <ele>1254</ele>
        <time>2010-01-01T20:15:58Z</time>
      </trkpt>
      <trkpt lat="46.25531" lon="6.837">
        <ele>1261</ele>
        <time>2010-01-01T20:16:13Z</time>
      </trkpt>
      <trkpt lat="46.25547" lon="6.83731">
        <ele>1262</ele>
        <time>2010-01-01T20:16:24Z</time>
      </trkpt>
      <trkpt lat="46.25564" lon="6.83753">
        <ele>1268</ele>
        <time>2010-01-01T20:16:33Z</time>
      </trkpt>
      <trkpt lat="46.25592" lon="6.83797">
        <ele>1253</ele>
        <time>2010-01-01T20:16:49Z</time>
      </trkpt>
      <trkpt lat="46.25592" lon="6.83789">
        <ele>1252</ele>
        <time>2010-01-01T20:16:52Z</time>
      </trkpt>
      <trkpt lat="46.25613" lon="6.83823">
        <ele>1253</ele>
        <time>2010-01-01T20:17:04Z</time>
      </trkpt>
      <trkpt lat="46.25632" lon="6.83869">
        <ele>1257</ele>
        <time>2010-01-01T20:17:19Z</time>
      </trkpt>
      <trkpt lat="46.25642" lon="6.83894">
        <ele>1256</ele>
        <time>2010-01-01T20:17:27Z</time>
      </trkpt>
      <trkpt lat="46.25656" lon="6.83926">
        <ele>1253</ele>
        <time>2010-01-01T20:17:38Z</time>
      </trkpt>
      <trkpt lat="46.25669" lon="6.8394">
        <ele>1245</ele>
        <time>2010-01-01T20:17:44Z</time>
      </trkpt>
      <trkpt lat="46.25684" lon="6.83953">
        <ele>1244</ele>
        <time>2010-01-01T20:17:51Z</time>
      </trkpt>
      <trkpt lat="46.25714" lon="6.83991">
        <ele>1244</ele>
        <time>2010-01-01T20:18:07Z</time>
      </trkpt>
      <trkpt lat="46.25732" lon="6.84017">
        <ele>1246</ele>
        <time>2010-01-01T20:18:18Z</time>
      </trkpt>
      <trkpt lat="46.25743" lon="6.8404">
        <ele>1246</ele>
        <time>2010-01-01T20:18:25Z</time>
      </trkpt>
      <trkpt lat="46.25752" lon="6.84044">
        <ele>1241</ele>
        <time>2010-01-01T20:18:29Z</time>
      </trkpt>
      <trkpt lat="46.25762" lon="6.84066">
        <ele>1242</ele>
        <time>2010-01-01T20:18:36Z</time>
      </trkpt>
      <trkpt lat="46.25771" lon="6.84043">
        <ele>1241</ele>
        <time>2010-01-01T20:18:44Z</time>
      </trkpt>
      <trkpt lat="46.25793" lon="6.84043">
        <ele>1240</ele>
        <time>2010-01-01T20:18:52Z</time>
      </trkpt>
      <trkpt lat="46.25823" lon="6.84054">
        <ele>1240</ele>
        <time>2010-01-01T20:19:05Z</time>
      </trkpt>
      <trkpt lat="46.25885" lon="6.84072">
        <ele>1237</ele>
        <time>2010-01-01T20:19:30Z</time>
      </trkpt>
      <trkpt lat="46.25932" lon="6.84082">
        <ele>1235</ele>
        <time>2010-01-01T20:19:49Z</time>
      </trkpt>
      <trkpt lat="46.25959" lon="6.84086">
        <ele>1240</ele>
        <time>2010-01-01T20:20:00Z</time>
      </trkpt>
      <trkpt lat="46.25995" lon="6.84088">
        <ele>1237</ele>
        <time>2010-01-01T20:20:14Z</time>
      </trkpt>
      <trkpt lat="46.26019" lon="6.84083">
        <ele>1230</ele>
        <time>2010-01-01T20:20:24Z</time>
      </trkpt>
      <trkpt lat="46.26055" lon="6.84077">
        <ele>1226</ele>
        <time>2010-01-01T20:20:39Z</time>
      </trkpt>
      <trkpt lat="46.26089" lon="6.84072">
        <ele>1224</ele>
        <time>2010-01-01T20:20:53Z</time>
      </trkpt>
      <trkpt lat="46.26116" lon="6.84071">
        <ele>1220</ele>
        <time>2010-01-01T20:21:03Z</time>
      </trkpt>
      <trkpt lat="46.26151" lon="6.84073">
        <ele>1219</ele>
        <time>2010-01-01T20:21:17Z</time>
      </trkpt>
      <trkpt lat="46.26181" lon="6.84081">
        <ele>1217</ele>
        <time>2010-01-01T20:21:29Z</time>
      </trkpt>
      <trkpt lat="46.26202" lon="6.84084">
        <ele>1223</ele>
        <time>2010-01-01T20:21:38Z</time>
      </trkpt>
      <trkpt lat="46.26222" lon="6.8409">
        <ele>1222</ele>
        <time>2010-01-01T20:21:46Z</time>
      </trkpt>
      <trkpt lat="46.26258" lon="6.84103">
        <ele>1215</ele>
        <time>2010-01-01T20:22:01Z</time>
      </trkpt>
      <trkpt lat="46.2629" lon="6.84115">
        <ele>1215</ele>
        <time>2010-01-01T20:22:14Z</time>
      </trkpt>
      <trkpt lat="46.26314" lon="6.84126">
        <ele>1215</ele>
        <time>2010-01-01T20:22:24Z</time>
      </trkpt>
      <trkpt lat="46.26334" lon="6.84131">
        <ele>1209</ele>
        <time>2010-01-01T20:22:32Z</time>
      </trkpt>
      <trkpt lat="46.26368" lon="6.84144">
        <ele>1208</ele>
        <time>2010-01-01T20:22:47Z</time>
      </trkpt>
      <trkpt lat="46.26404" lon="6.84152">
        <ele>1207</ele>
        <time>2010-01-01T20:23:01Z</time>
      </trkpt>
      <trkpt lat="46.26462" lon="6.84173">
        <ele>1212</ele>
        <time>2010-01-01T20:23:25Z</time>
      </trkpt>
      <trkpt lat="46.26493" lon="6.84178">
        <ele>1208</ele>
        <time>2010-01-01T20:23:37Z</time>
      </trkpt>
      <trkpt lat="46.26516" lon="6.84176">
        <ele>1207</ele>
        <time>2010-01-01T20:23:46Z</time>
      </trkpt>
      <trkpt lat="46.26552" lon="6.8417">
        <ele>1208</ele>
        <time>2010-01-01T20:24:01Z</time>
      </trkpt>
      <trkpt lat="46.26599" lon="6.84158">
        <ele>1198</ele>
        <time>2010-01-01T20:24:20Z</time>
      </trkpt>
      <trkpt lat="46.26638" lon="6.84142">
        <ele>1196</ele>
        <time>2010-01-01T20:24:36Z</time>
      </trkpt>
      <trkpt lat="46.2666" lon="6.84139">
        <ele>1196</ele>
        <time>2010-01-01T20:24:45Z</time>
      </trkpt>
      <trkpt lat="46.26678" lon="6.84143">
        <ele>1195</ele>
        <time>2010-01-01T20:24:53Z</time>
      </trkpt>
      <trkpt lat="46.26701" lon="6.84147">
        <ele>1194</ele>
        <time>2010-01-01T20:25:02Z</time>
      </trkpt>
      <trkpt lat="46.26726" lon="6.84168">
        <ele>1202</ele>
        <time>2010-01-01T20:25:13Z</time>
      </trkpt>
      <trkpt lat="46.26726" lon="6.84178">
        <ele>1203</ele>
        <time>2010-01-01T20:25:16Z</time>
      </trkpt>
      <trkpt lat="46.26712" lon="6.84187">
        <ele>1204</ele>
        <time>2010-01-01T20:25:22Z</time>
      </trkpt>
      <trkpt lat="46.26696" lon="6.84195">
        <ele>1205</ele>
        <time>2010-01-01T20:25:29Z</time>
      </trkpt>
      <trkpt lat="46.26681" lon="6.84202">
        <ele>1206</ele>
        <time>2010-01-01T20:25:36Z</time>
      </trkpt>
      <trkpt lat="46.26675" lon="6.84209">
        <ele>1207</ele>
        <time>2010-01-01T20:25:39Z</time>
      </trkpt>
      <trkpt lat="46.26661" lon="6.84216">
        <ele>1209</ele>
        <time>2010-01-01T20:25:45Z</time>
      </trkpt>
      <trkpt lat="46.26661" lon="6.84229">
        <ele>1211</ele>
        <time>2010-01-01T20:25:48Z</time>
      </trkpt>
      <trkpt lat="46.26659" lon="6.84237">
        <ele>1212</ele>
        <time>2010-01-01T20:25:50Z</time>
      </trkpt>
      <trkpt lat="46.26665" lon="6.84259">
        <ele>1220</ele>
        <time>2010-01-01T20:25:57Z</time>
      </trkpt>
      <trkpt lat="46.26669" lon="6.84265">
        <ele>1220</ele>
        <time>2010-01-01T20:25:59Z</time>
      </trkpt>
      <trkpt lat="46.26669" lon="6.84245">
        <ele>1214</ele>
        <time>2010-01-01T20:26:05Z</time>
      </trkpt>
      <trkpt lat="46.26676" lon="6.84242">
        <ele>1212</ele>
        <time>2010-01-01T20:26:08Z</time>
      </trkpt>
      <trkpt lat="46.26684" lon="6.84253">
        <ele>1219</ele>
        <time>2010-01-01T20:26:12Z</time>
      </trkpt>
      <trkpt lat="46.26683" lon="6.84269">
        <ele>1221</ele>
        <time>2010-01-01T20:26:17Z</time>
      </trkpt>
      <trkpt lat="46.2668" lon="6.84311">
        <ele>1227</ele>
        <time>2010-01-01T20:26:28Z</time>
      </trkpt>
      <trkpt lat="46.26679" lon="6.84343">
        <ele>1243</ele>
        <time>2010-01-01T20:26:37Z</time>
      </trkpt>
      <trkpt lat="46.26695" lon="6.84653">
        <ele>1395</ele>
        <time>2010-01-01T20:28:03Z</time>
      </trkpt>
      <trkpt lat="46.26702" lon="6.84793">
        <ele>1472</ele>
        <time>2010-01-01T20:28:42Z</time>
      </trkpt>
      <trkpt lat="46.26726" lon="6.84999">
        <ele>1505</ele>
        <time>2010-01-01T20:29:40Z</time>
      </trkpt>
      <trkpt lat="46.2674" lon="6.85268">
        <ele>1516</ele>
        <time>2010-01-01T20:30:55Z</time>
      </trkpt>
      <trkpt lat="46.26751" lon="6.85438">
        <ele>1556</ele>
        <time>2010-01-01T20:31:42Z</time>
      </trkpt>
      <trkpt lat="46.26753" lon="6.85531">
        <ele>1581</ele>
        <time>2010-01-01T20:32:08Z</time>
      </trkpt>
      <trkpt lat="46.26758" lon="6.8562">
        <ele>1602</ele>
        <time>2010-01-01T20:32:32Z</time>
      </trkpt>
      <trkpt lat="46.26767" lon="6.85687">
        <ele>1619</ele>
        <time>2010-01-01T20:32:51Z</time>
      </trkpt>
      <trkpt lat="46.26769" lon="6.8573">
        <ele>1625</ele>
        <time>2010-01-01T20:33:03Z</time>
      </trkpt>
      <trkpt lat="46.26769" lon="6.8574">
        <ele>1626</ele>
        <time>2010-01-01T20:33:06Z</time>
      </trkpt>
      <trkpt lat="46.26771" lon="6.85749">
        <ele>1627</ele>
        <time>2010-01-01T20:33:08Z</time>
      </trkpt>
      <trkpt lat="46.26773" lon="6.85756">
        <ele>1634</ele>
        <time>2010-01-01T20:33:10Z</time>
      </trkpt>
      <trkpt lat="46.26773" lon="6.8576">
        <ele>1635</ele>
        <time>2010-01-01T20:33:12Z</time>
      </trkpt>
      <trkpt lat="46.26772" lon="6.85764">
        <ele>1635</ele>
        <time>2010-01-01T20:33:13Z</time>
      </trkpt>
      <trkpt lat="46.26771" lon="6.8577">
        <ele>1635</ele>
        <time>2010-01-01T20:33:14Z</time>
      </trkpt>
      <trkpt lat="46.26771" lon="6.85773">
        <ele>1635</ele>
        <time>2010-01-01T20:33:15Z</time>
      </trkpt>
      <trkpt lat="46.26771" lon="6.85775">
        <ele>1636</ele>
        <time>2010-01-01T20:33:16Z</time>
      </trkpt>
      <trkpt lat="46.26772" lon="6.85782">
        <ele>1636</ele>
        <time>2010-01-01T20:33:18Z</time>
      </trkpt>
      <trkpt lat="46.26772" lon="6.85783">
        <ele>1636</ele>
        <time>2010-01-01T20:33:18Z</time>
      </trkpt>
      <trkpt lat="46.26773" lon="6.85782">
        <ele>1636</ele>
        <time>2010-01-01T20:33:18Z</time>
      </trkpt>
      <trkpt lat="46.26773" lon="6.85781">
        <ele>1636</ele>
        <time>2010-01-01T20:33:19Z</time>
      </trkpt>
      <trkpt lat="46.26775" lon="6.8578">
        <ele>1636</ele>
        <time>2010-01-01T20:33:20Z</time>
      </trkpt>
      <trkpt lat="46.26776" lon="6.85778">
        <ele>1636</ele>
        <time>2010-01-01T20:33:20Z</time>
      </trkpt>
      <trkpt lat="46.26777" lon="6.85777">
        <ele>1636</ele>
        <time>2010-01-01T20:33:21Z</time>
      </trkpt>
      <trkpt lat="46.26778" lon="6.85776">
        <ele>1636</ele>
        <time>2010-01-01T20:33:21Z</time>
      </trkpt>
      <trkpt lat="46.2678" lon="6.85776">
        <ele>1636</ele>
        <time>2010-01-01T20:33:22Z</time>
      </trkpt>
      <trkpt lat="46.2678" lon="6.85775">
        <ele>1636</ele>
        <time>2010-01-01T20:33:22Z</time>
      </trkpt>
      <trkpt lat="46.26781" lon="6.85775">
        <ele>1636</ele>
        <time>2010-01-01T20:33:22Z</time>
      </trkpt>
      <trkpt lat="46.26782" lon="6.85776">
        <ele>1636</ele>
        <time>2010-01-01T20:33:23Z</time>
      </trkpt>
      <trkpt lat="46.26782" lon="6.85776">
        <ele>1636</ele>
        <time>2010-01-01T20:33:23Z</time>
      </trkpt>
      <trkpt lat="46.26782" lon="6.85777">
        <ele>1636</ele>
        <time>2010-01-01T20:33:23Z</time>
      </trkpt>
      <trkpt lat="46.26782" lon="6.85779">
        <ele>1636</ele>
        <time>2010-01-01T20:33:24Z</time>
      </trkpt>
      <trkpt lat="46.26782" lon="6.85781">
        <ele>1636</ele>
        <time>2010-01-01T20:33:24Z</time>
      </trkpt>
      <trkpt lat="46.26782" lon="6.85782">
        <ele>1636</ele>
        <time>2010-01-01T20:33:25Z</time>
      </trkpt>
      <trkpt lat="46.26781" lon="6.85783">
        <ele>1636</ele>
        <time>2010-01-01T20:33:25Z</time>
      </trkpt>
      <trkpt lat="46.2678" lon="6.85784">
        <ele>1637</ele>
        <time>2010-01-01T20:33:25Z</time>
      </trkpt>
      <trkpt lat="46.2678" lon="6.85785">
        <ele>1637</ele>
        <time>2010-01-01T20:33:26Z</time>
      </trkpt>
      <trkpt lat="46.26779" lon="6.85786">
        <ele>1637</ele>
        <time>2010-01-01T20:33:26Z</time>
      </trkpt>
      <trkpt lat="46.26778" lon="6.85786">
        <ele>1637</ele>
        <time>2010-01-01T20:33:26Z</time>
      </trkpt>
      <trkpt lat="46.26777" lon="6.85786">
        <ele>1637</ele>
        <time>2010-01-01T20:33:27Z</time>
      </trkpt>
      <trkpt lat="46.26775" lon="6.85786">
        <ele>1637</ele>
        <time>2010-01-01T20:33:27Z</time>
      </trkpt>
      <trkpt lat="46.26774" lon="6.85787">
        <ele>1637</ele>
        <time>2010-01-01T20:33:28Z</time>
      </trkpt>
      <trkpt lat="46.26773" lon="6.85787">
        <ele>1637</ele>
        <time>2010-01-01T20:33:28Z</time>
      </trkpt>
      <trkpt lat="46.26772" lon="6.85788">
        <ele>1637</ele>
        <time>2010-01-01T20:33:29Z</time>
      </trkpt>
      <trkpt lat="46.2677" lon="6.8579">
        <ele>1637</ele>
        <time>2010-01-01T20:33:30Z</time>
      </trkpt>
      <trkpt lat="46.26769" lon="6.85791">
        <ele>1637</ele>
        <time>2010-01-01T20:33:30Z</time>
      </trkpt>
      <trkpt lat="46.26768" lon="6.85792">
        <ele>1637</ele>
        <time>2010-01-01T20:33:31Z</time>
      </trkpt>
      <trkpt lat="46.26766" lon="6.85793">
        <ele>1637</ele>
        <time>2010-01-01T20:33:32Z</time>
      </trkpt>
      <trkpt lat="46.26763" lon="6.85795">
        <ele>1637</ele>
        <time>2010-01-01T20:33:33Z</time>
      </trkpt>
      <trkpt lat="46.26761" lon="6.85797">
        <ele>1637</ele>
        <time>2010-01-01T20:33:34Z</time>
      </trkpt>
      <trkpt lat="46.2676" lon="6.85798">
        <ele>1637</ele>
        <time>2010-01-01T20:33:34Z</time>
      </trkpt>
      <trkpt lat="46.26759" lon="6.85799">
        <ele>1637</ele>
        <time>2010-01-01T20:33:35Z</time>
      </trkpt>
      <trkpt lat="46.26756" lon="6.858">
        <ele>1637</ele>
        <time>2010-01-01T20:33:36Z</time>
      </trkpt>
      <trkpt lat="46.26755" lon="6.858">
        <ele>1637</ele>
        <time>2010-01-01T20:33:36Z</time>
      </trkpt>
      <trkpt lat="46.26755" lon="6.85801">
        <ele>1637</ele>
        <time>2010-01-01T20:33:37Z</time>
      </trkpt>
      <trkpt lat="46.26754" lon="6.85801">
        <ele>1637</ele>
        <time>2010-01-01T20:33:37Z</time>
      </trkpt>
      <trkpt lat="46.26753" lon="6.85801">
        <ele>1637</ele>
        <time>2010-01-01T20:33:38Z</time>
      </trkpt>
      <trkpt lat="46.26752" lon="6.85802">
        <ele>1637</ele>
        <time>2010-01-01T20:33:38Z</time>
      </trkpt>
      <trkpt lat="46.26751" lon="6.85803">
        <ele>1637</ele>
        <time>2010-01-01T20:33:38Z</time>
      </trkpt>
      <trkpt lat="46.2675" lon="6.85804">
        <ele>1633</ele>
        <time>2010-01-01T20:33:39Z</time>
      </trkpt>
      <trkpt lat="46.26748" lon="6.85806">
        <ele>1634</ele>
        <time>2010-01-01T20:33:40Z</time>
      </trkpt>
      <trkpt lat="46.26745" lon="6.85809">
        <ele>1634</ele>
        <time>2010-01-01T20:33:41Z</time>
      </trkpt>
      <trkpt lat="46.26742" lon="6.85812">
        <ele>1634</ele>
        <time>2010-01-01T20:33:43Z</time>
      </trkpt>
      <trkpt lat="46.26739" lon="6.85815">
        <ele>1634</ele>
        <time>2010-01-01T20:33:44Z</time>
      </trkpt>
      <trkpt lat="46.26736" lon="6.85818">
        <ele>1634</ele>
        <time>2010-01-01T20:33:46Z</time>
      </trkpt>
      <trkpt lat="46.26734" lon="6.8582">
        <ele>1634</ele>
        <time>2010-01-01T20:33:47Z</time>
      </trkpt>
      <trkpt lat="46.26732" lon="6.8582">
        <ele>1634</ele>
        <time>2010-01-01T20:33:47Z</time>
      </trkpt>
      <trkpt lat="46.26732" lon="6.85821">
        <ele>1634</ele>
        <time>2010-01-01T20:33:48Z</time>
      </trkpt>
      <trkpt lat="46.2673" lon="6.85822">
        <ele>1634</ele>
        <time>2010-01-01T20:33:48Z</time>
      </trkpt>
      <trkpt lat="46.26729" lon="6.85823">
        <ele>1634</ele>
        <time>2010-01-01T20:33:49Z</time>
      </trkpt>
      <trkpt lat="46.26728" lon="6.85824">
        <ele>1634</ele>
        <time>2010-01-01T20:33:49Z</time>
      </trkpt>
      <trkpt lat="46.26727" lon="6.85825">
        <ele>1634</ele>
        <time>2010-01-01T20:33:50Z</time>
      </trkpt>
      <trkpt lat="46.26726" lon="6.85825">
        <ele>1634</ele>
        <time>2010-01-01T20:33:50Z</time>
      </trkpt>
      <trkpt lat="46.26726" lon="6.85826">
        <ele>1634</ele>
        <time>2010-01-01T20:33:50Z</time>
      </trkpt>
      <trkpt lat="46.26725" lon="6.85828">
        <ele>1634</ele>
        <time>2010-01-01T20:33:51Z</time>
      </trkpt>
      <trkpt lat="46.26724" lon="6.85829">
        <ele>1634</ele>
        <time>2010-01-01T20:33:51Z</time>
      </trkpt>
      <trkpt lat="46.26723" lon="6.85831">
        <ele>1634</ele>
        <time>2010-01-01T20:33:52Z</time>
      </trkpt>
      <trkpt lat="46.26722" lon="6.85833">
        <ele>1634</ele>
        <time>2010-01-01T20:33:53Z</time>
      </trkpt>
      <trkpt lat="46.26721" lon="6.85835">
        <ele>1640</ele>
        <time>2010-01-01T20:33:53Z</time>
      </trkpt>
      <trkpt lat="46.26718" lon="6.85838">
        <ele>1640</ele>
        <time>2010-01-01T20:33:55Z</time>
      </trkpt>
      <trkpt lat="46.26715" lon="6.85842">
        <ele>1639</ele>
        <time>2010-01-01T20:33:57Z</time>
      </trkpt>
      <trkpt lat="46.26713" lon="6.85844">
        <ele>1639</ele>
        <time>2010-01-01T20:33:57Z</time>
      </trkpt>
      <trkpt lat="46.26712" lon="6.85846">
        <ele>1639</ele>
        <time>2010-01-01T20:33:58Z</time>
      </trkpt>
      <trkpt lat="46.26711" lon="6.85847">
        <ele>1639</ele>
        <time>2010-01-01T20:33:59Z</time>
      </trkpt>
      <trkpt lat="46.2671" lon="6.85849">
        <ele>1639</ele>
        <time>2010-01-01T20:33:59Z</time>
      </trkpt>
      <trkpt lat="46.26709" lon="6.85851">
        <ele>1639</ele>
        <time>2010-01-01T20:34:00Z</time>
      </trkpt>
      <trkpt lat="46.26709" lon="6.85852">
        <ele>1639</ele>
        <time>2010-01-01T20:34:00Z</time>
      </trkpt>
      <trkpt lat="46.26707" lon="6.85854">
        <ele>1639</ele>
        <time>2010-01-01T20:34:01Z</time>
      </trkpt>
      <trkpt lat="46.26706" lon="6.85855">
        <ele>1639</ele>
        <time>2010-01-01T20:34:02Z</time>
      </trkpt>
      <trkpt lat="46.26705" lon="6.85856">
        <ele>1639</ele>
        <time>2010-01-01T20:34:02Z</time>
      </trkpt>
      <trkpt lat="46.26705" lon="6.85857">
        <ele>1639</ele>
        <time>2010-01-01T20:34:02Z</time>
      </trkpt>
      <trkpt lat="46.26702" lon="6.85863">
        <ele>1640</ele>
        <time>2010-01-01T20:34:04Z</time>
      </trkpt>
      <trkpt lat="46.26698" lon="6.85869">
        <ele>1640</ele>
        <time>2010-01-01T20:34:07Z</time>
      </trkpt>
      <trkpt lat="46.26696" lon="6.85871">
        <ele>1640</ele>
        <time>2010-01-01T20:34:08Z</time>
      </trkpt>
      <trkpt lat="46.26692" lon="6.85877">
        <ele>1640</ele>
        <time>2010-01-01T20:34:10Z</time>
      </trkpt>
      <trkpt lat="46.26689" lon="6.85882">
        <ele>1640</ele>
        <time>2010-01-01T20:34:12Z</time>
      </trkpt>
      <trkpt lat="46.26687" lon="6.85884">
        <ele>1640</ele>
        <time>2010-01-01T20:34:13Z</time>
      </trkpt>
      <trkpt lat="46.26685" lon="6.85887">
        <ele>1641</ele>
        <time>2010-01-01T20:34:14Z</time>
      </trkpt>
      <trkpt lat="46.26685" lon="6.85887">
        <ele>1641</ele>
        <time>2010-01-01T20:34:14Z</time>
      </trkpt>
      <trkpt lat="46.26684" lon="6.85889">
        <ele>1641</ele>
        <time>2010-01-01T20:34:15Z</time>
      </trkpt>
      <trkpt lat="46.26684" lon="6.85889">
        <ele>1641</ele>
        <time>2010-01-01T20:34:15Z</time>
      </trkpt>
      <trkpt lat="46.26683" lon="6.8589">
        <ele>1641</ele>
        <time>2010-01-01T20:34:15Z</time>
      </trkpt>
      <trkpt lat="46.26683" lon="6.8589">
        <ele>1641</ele>
        <time>2010-01-01T20:34:15Z</time>
      </trkpt>
      <trkpt lat="46.26679" lon="6.85895">
        <ele>1641</ele>
        <time>2010-01-01T20:34:17Z</time>
      </trkpt>
      <trkpt lat="46.26673" lon="6.85905">
        <ele>1641</ele>
        <time>2010-01-01T20:34:21Z</time>
      </trkpt>
      <trkpt lat="46.2667" lon="6.85908">
        <ele>1642</ele>
        <time>2010-01-01T20:34:22Z</time>
      </trkpt>
      <trkpt lat="46.26667" lon="6.8591">
        <ele>1642</ele>
        <time>2010-01-01T20:34:24Z</time>
      </trkpt>
      <trkpt lat="46.26661" lon="6.85919">
        <ele>1643</ele>
        <time>2010-01-01T20:34:27Z</time>
      </trkpt>
      <trkpt lat="46.26652" lon="6.85928">
        <ele>1644</ele>
        <time>2010-01-01T20:34:31Z</time>
      </trkpt>
      <trkpt lat="46.26645" lon="6.85932">
        <ele>1645</ele>
        <time>2010-01-01T20:34:34Z</time>
      </trkpt>
      <trkpt lat="46.26637" lon="6.85938">
        <ele>1646</ele>
        <time>2010-01-01T20:34:38Z</time>
      </trkpt>
      <trkpt lat="46.26632" lon="6.85941">
        <ele>1646</ele>
        <time>2010-01-01T20:34:40Z</time>
      </trkpt>
      <trkpt lat="46.26628" lon="6.85945">
        <ele>1646</ele>
        <time>2010-01-01T20:34:42Z</time>
      </trkpt>
      <trkpt lat="46.26623" lon="6.85948">
        <ele>1646</ele>
        <time>2010-01-01T20:34:44Z</time>
      </trkpt>
      <trkpt lat="46.26617" lon="6.85953">
        <ele>1646</ele>
        <time>2010-01-01T20:34:47Z</time>
      </trkpt>
      <trkpt lat="46.26595" lon="6.85974">
        <ele>1648</ele>
        <time>2010-01-01T20:34:58Z</time>
      </trkpt>
      <trkpt lat="46.26584" lon="6.85987">
        <ele>1649</ele>
        <time>2010-01-01T20:35:03Z</time>
      </trkpt>
      <trkpt lat="46.26555" lon="6.86023">
        <ele>1657</ele>
        <time>2010-01-01T20:35:19Z</time>
      </trkpt>
      <trkpt lat="46.26528" lon="6.86048">
        <ele>1659</ele>
        <time>2010-01-01T20:35:32Z</time>
      </trkpt>
      <trkpt lat="46.26496" lon="6.86072">
        <ele>1665</ele>
        <time>2010-01-01T20:35:46Z</time>
      </trkpt>
      <trkpt lat="46.26488" lon="6.86081">
        <ele>1665</ele>
        <time>2010-01-01T20:35:50Z</time>
      </trkpt>
      <trkpt lat="46.26479" lon="6.86091">
        <ele>1671</ele>
        <time>2010-01-01T20:35:55Z</time>
      </trkpt>
      <trkpt lat="46.26479" lon="6.86092">
        <ele>1671</ele>
        <time>2010-01-01T20:35:55Z</time>
      </trkpt>
      <trkpt lat="46.26473" lon="6.86111">
        <ele>1673</ele>
        <time>2010-01-01T20:36:01Z</time>
      </trkpt>
      <trkpt lat="46.26464" lon="6.86138">
        <ele>1675</ele>
        <time>2010-01-01T20:36:09Z</time>
      </trkpt>
      <trkpt lat="46.26464" lon="6.86149">
        <ele>1676</ele>
        <time>2010-01-01T20:36:12Z</time>
      </trkpt>
      <trkpt lat="46.26466" lon="6.86158">
        <ele>1676</ele>
        <time>2010-01-01T20:36:14Z</time>
      </trkpt>
      <trkpt lat="46.26472" lon="6.86171">
        <ele>1679</ele>
        <time>2010-01-01T20:36:19Z</time>
      </trkpt>
      <trkpt lat="46.26476" lon="6.86177">
        <ele>1679</ele>
        <time>2010-01-01T20:36:21Z</time>
      </trkpt>
      <trkpt lat="46.26483" lon="6.86178">
        <ele>1678</ele>
        <time>2010-01-01T20:36:24Z</time>
      </trkpt>
      <trkpt lat="46.26496" lon="6.86183">
        <ele>1678</ele>
        <time>2010-01-01T20:36:29Z</time>
      </trkpt>
      <trkpt lat="46.26504" lon="6.86182">
        <ele>1677</ele>
        <time>2010-01-01T20:36:33Z</time>
      </trkpt>
      <trkpt lat="46.26515" lon="6.86183">
        <ele>1678</ele>
        <time>2010-01-01T20:36:37Z</time>
      </trkpt>
      <trkpt lat="46.26523" lon="6.86185">
        <ele>1679</ele>
        <time>2010-01-01T20:36:40Z</time>
      </trkpt>
      <trkpt lat="46.26537" lon="6.86186">
        <ele>1680</ele>
        <time>2010-01-01T20:36:46Z</time>
      </trkpt>
      <trkpt lat="46.26545" lon="6.86186">
        <ele>1680</ele>
        <time>2010-01-01T20:36:49Z</time>
      </trkpt>
      <trkpt lat="46.26554" lon="6.86186">
        <ele>1680</ele>
        <time>2010-01-01T20:36:52Z</time>
      </trkpt>
      <trkpt lat="46.26566" lon="6.8619">
        <ele>1681</ele>
        <time>2010-01-01T20:36:58Z</time>
      </trkpt>
      <trkpt lat="46.26574" lon="6.86193">
        <ele>1681</ele>
        <time>2010-01-01T20:37:01Z</time>
      </trkpt>
      <trkpt lat="46.26595" lon="6.86217">
        <ele>1685</ele>
        <time>2010-01-01T20:37:11Z</time>
      </trkpt>
      <trkpt lat="46.26603" lon="6.8623">
        <ele>1686</ele>
        <time>2010-01-01T20:37:16Z</time>
      </trkpt>
      <trkpt lat="46.26603" lon="6.86246">
        <ele>1686</ele>
        <time>2010-01-01T20:37:21Z</time>
      </trkpt>
      <trkpt lat="46.26598" lon="6.86263">
        <ele>1690</ele>
        <time>2010-01-01T20:37:26Z</time>
      </trkpt>
      <trkpt lat="46.26588" lon="6.86288">
        <ele>1692</ele>
        <time>2010-01-01T20:37:34Z</time>
      </trkpt>
      <trkpt lat="46.26582" lon="6.86298">
        <ele>1687</ele>
        <time>2010-01-01T20:37:37Z</time>
      </trkpt>
      <trkpt lat="46.26582" lon="6.86298">
        <ele>1687</ele>
        <time>2010-01-01T20:37:37Z</time>
      </trkpt>
      <trkpt lat="46.26567" lon="6.86322">
        <ele>1688</ele>
        <time>2010-01-01T20:37:46Z</time>
      </trkpt>
      <trkpt lat="46.26562" lon="6.86331">
        <ele>1688</ele>
        <time>2010-01-01T20:37:50Z</time>
      </trkpt>
      <trkpt lat="46.26559" lon="6.86337">
        <ele>1690</ele>
        <time>2010-01-01T20:37:52Z</time>
      </trkpt>
      <trkpt lat="46.26555" lon="6.86343">
        <ele>1689</ele>
        <time>2010-01-01T20:37:54Z</time>
      </trkpt>
      <trkpt lat="46.26555" lon="6.86344">
        <ele>1689</ele>
        <time>2010-01-01T20:37:54Z</time>
      </trkpt>
      <trkpt lat="46.26555" lon="6.86346">
        <ele>1689</ele>
        <time>2010-01-01T20:37:55Z</time>
      </trkpt>
      <trkpt lat="46.26555" lon="6.86346">
        <ele>1689</ele>
        <time>2010-01-01T20:37:55Z</time>
      </trkpt>
      <trkpt lat="46.26555" lon="6.86347">
        <ele>1689</ele>
        <time>2010-01-01T20:37:55Z</time>
      </trkpt>
      <trkpt lat="46.26553" lon="6.86358">
        <ele>1689</ele>
        <time>2010-01-01T20:37:58Z</time>
      </trkpt>
      <trkpt lat="46.26553" lon="6.86358">
        <ele>1689</ele>
        <time>2010-01-01T20:37:58Z</time>
      </trkpt>
      <trkpt lat="46.2655" lon="6.86374">
        <ele>1689</ele>
        <time>2010-01-01T20:38:03Z</time>
      </trkpt>
      <trkpt lat="46.26542" lon="6.86423">
        <ele>1691</ele>
        <time>2010-01-01T20:38:17Z</time>
      </trkpt>
      <trkpt lat="46.26542" lon="6.86444">
        <ele>1691</ele>
        <time>2010-01-01T20:38:23Z</time>
      </trkpt>
      <trkpt lat="46.26544" lon="6.8646">
        <ele>1691</ele>
        <time>2010-01-01T20:38:27Z</time>
      </trkpt>
      <trkpt lat="46.26543" lon="6.86496">
        <ele>1691</ele>
        <time>2010-01-01T20:38:37Z</time>
      </trkpt>
      <trkpt lat="46.26541" lon="6.86517">
        <ele>1693</ele>
        <time>2010-01-01T20:38:43Z</time>
      </trkpt>
      <trkpt lat="46.26536" lon="6.86535">
        <ele>1693</ele>
        <time>2010-01-01T20:38:48Z</time>
      </trkpt>
      <trkpt lat="46.26539" lon="6.86548">
        <ele>1693</ele>
        <time>2010-01-01T20:38:52Z</time>
      </trkpt>
      <trkpt lat="46.26539" lon="6.86549">
        <ele>1693</ele>
        <time>2010-01-01T20:38:52Z</time>
      </trkpt>
      <trkpt lat="46.26545" lon="6.86562">
        <ele>1693</ele>
        <time>2010-01-01T20:38:56Z</time>
      </trkpt>
      <trkpt lat="46.26552" lon="6.86573">
        <ele>1692</ele>
        <time>2010-01-01T20:39:01Z</time>
      </trkpt>
      <trkpt lat="46.26553" lon="6.86576">
        <ele>1692</ele>
        <time>2010-01-01T20:39:02Z</time>
      </trkpt>
      <trkpt lat="46.26559" lon="6.86615">
        <ele>1692</ele>
        <time>2010-01-01T20:39:13Z</time>
      </trkpt>
      <trkpt lat="46.26559" lon="6.86632">
        <ele>1692</ele>
        <time>2010-01-01T20:39:17Z</time>
      </trkpt>
      <trkpt lat="46.26558" lon="6.86648">
        <ele>1691</ele>
        <time>2010-01-01T20:39:22Z</time>
      </trkpt>
      <trkpt lat="46.26553" lon="6.86663">
        <ele>1691</ele>
        <time>2010-01-01T20:39:27Z</time>
      </trkpt>
      <trkpt lat="46.26545" lon="6.86684">
        <ele>1690</ele>
        <time>2010-01-01T20:39:33Z</time>
      </trkpt>
      <trkpt lat="46.26534" lon="6.8671">
        <ele>1690</ele>
        <time>2010-01-01T20:39:41Z</time>
      </trkpt>
      <trkpt lat="46.26525" lon="6.86736">
        <ele>1690</ele>
        <time>2010-01-01T20:39:49Z</time>
      </trkpt>
      <trkpt lat="46.26522" lon="6.86751">
        <ele>1683</ele>
        <time>2010-01-01T20:39:54Z</time>
      </trkpt>
      <trkpt lat="46.26521" lon="6.86763">
        <ele>1681</ele>
        <time>2010-01-01T20:39:57Z</time>
      </trkpt>
      <trkpt lat="46.26518" lon="6.86765">
        <ele>1682</ele>
        <time>2010-01-01T20:39:58Z</time>
      </trkpt>
      <trkpt lat="46.26514" lon="6.86774">
        <ele>1681</ele>
        <time>2010-01-01T20:40:01Z</time>
      </trkpt>
      <trkpt lat="46.26514" lon="6.86775">
        <ele>1680</ele>
        <time>2010-01-01T20:40:02Z</time>
      </trkpt>
      <trkpt lat="46.26506" lon="6.8678">
        <ele>1680</ele>
        <time>2010-01-01T20:40:05Z</time>
      </trkpt>
      <trkpt lat="46.26493" lon="6.86789">
        <ele>1690</ele>
        <time>2010-01-01T20:40:11Z</time>
      </trkpt>
      <trkpt lat="46.26475" lon="6.86803">
        <ele>1689</ele>
        <time>2010-01-01T20:40:19Z</time>
      </trkpt>
      <trkpt lat="46.26471" lon="6.86805">
        <ele>1689</ele>
        <time>2010-01-01T20:40:21Z</time>
      </trkpt>
      <trkpt lat="46.26463" lon="6.8681">
        <ele>1690</ele>
        <time>2010-01-01T20:40:24Z</time>
      </trkpt>
      <trkpt lat="46.26458" lon="6.86815">
        <ele>1690</ele>
        <time>2010-01-01T20:40:27Z</time>
      </trkpt>
      <trkpt lat="46.26448" lon="6.86825">
        <ele>1690</ele>
        <time>2010-01-01T20:40:31Z</time>
      </trkpt>
      <trkpt lat="46.26444" lon="6.86827">
        <ele>1690</ele>
        <time>2010-01-01T20:40:33Z</time>
      </trkpt>
      <trkpt lat="46.26437" lon="6.86832">
        <ele>1691</ele>
        <time>2010-01-01T20:40:36Z</time>
      </trkpt>
      <trkpt lat="46.26429" lon="6.86838">
        <ele>1682</ele>
        <time>2010-01-01T20:40:40Z</time>
      </trkpt>
      <trkpt lat="46.26413" lon="6.8685">
        <ele>1687</ele>
        <time>2010-01-01T20:40:47Z</time>
      </trkpt>
      <trkpt lat="46.264" lon="6.86859">
        <ele>1686</ele>
        <time>2010-01-01T20:40:53Z</time>
      </trkpt>
      <trkpt lat="46.26386" lon="6.86866">
        <ele>1685</ele>
        <time>2010-01-01T20:40:59Z</time>
      </trkpt>
      <trkpt lat="46.26372" lon="6.86878">
        <ele>1685</ele>
        <time>2010-01-01T20:41:05Z</time>
      </trkpt>
      <trkpt lat="46.26361" lon="6.86887">
        <ele>1685</ele>
        <time>2010-01-01T20:41:10Z</time>
      </trkpt>
      <trkpt lat="46.26343" lon="6.86896">
        <ele>1684</ele>
        <time>2010-01-01T20:41:18Z</time>
      </trkpt>
      <trkpt lat="46.26324" lon="6.86903">
        <ele>1690</ele>
        <time>2010-01-01T20:41:26Z</time>
      </trkpt>
      <trkpt lat="46.26318" lon="6.86906">
        <ele>1690</ele>
        <time>2010-01-01T20:41:28Z</time>
      </trkpt>
      <trkpt lat="46.26305" lon="6.86912">
        <ele>1693</ele>
        <time>2010-01-01T20:41:34Z</time>
      </trkpt>
      <trkpt lat="46.26301" lon="6.86917">
        <ele>1693</ele>
        <time>2010-01-01T20:41:36Z</time>
      </trkpt>
      <trkpt lat="46.26291" lon="6.86928">
        <ele>1689</ele>
        <time>2010-01-01T20:41:41Z</time>
      </trkpt>
      <trkpt lat="46.26283" lon="6.86937">
        <ele>1690</ele>
        <time>2010-01-01T20:41:45Z</time>
      </trkpt>
      <trkpt lat="46.26276" lon="6.86943">
        <ele>1690</ele>
        <time>2010-01-01T20:41:48Z</time>
      </trkpt>
      <trkpt lat="46.2627" lon="6.86951">
        <ele>1690</ele>
        <time>2010-01-01T20:41:51Z</time>
      </trkpt>
      <trkpt lat="46.2626" lon="6.8698">
        <ele>1690</ele>
        <time>2010-01-01T20:42:00Z</time>
      </trkpt>
      <trkpt lat="46.26254" lon="6.87014">
        <ele>1691</ele>
        <time>2010-01-01T20:42:10Z</time>
      </trkpt>
      <trkpt lat="46.2625" lon="6.87043">
        <ele>1691</ele>
        <time>2010-01-01T20:42:18Z</time>
      </trkpt>
      <trkpt lat="46.26246" lon="6.8707">
        <ele>1701</ele>
        <time>2010-01-01T20:42:26Z</time>
      </trkpt>
      <trkpt lat="46.26245" lon="6.87084">
        <ele>1699</ele>
        <time>2010-01-01T20:42:30Z</time>
      </trkpt>
      <trkpt lat="46.26247" lon="6.871">
        <ele>1701</ele>
        <time>2010-01-01T20:42:34Z</time>
      </trkpt>
      <trkpt lat="46.26247" lon="6.8711">
        <ele>1703</ele>
        <time>2010-01-01T20:42:37Z</time>
      </trkpt>
      <trkpt lat="46.26244" lon="6.87114">
        <ele>1703</ele>
        <time>2010-01-01T20:42:39Z</time>
      </trkpt>
      <trkpt lat="46.26237" lon="6.87113">
        <ele>1704</ele>
        <time>2010-01-01T20:42:42Z</time>
      </trkpt>
      <trkpt lat="46.26221" lon="6.87098">
        <ele>1705</ele>
        <time>2010-01-01T20:42:49Z</time>
      </trkpt>
      <trkpt lat="46.26206" lon="6.87084">
        <ele>1707</ele>
        <time>2010-01-01T20:42:56Z</time>
      </trkpt>
      <trkpt lat="46.26197" lon="6.8707">
        <ele>1708</ele>
        <time>2010-01-01T20:43:02Z</time>
      </trkpt>
      <trkpt lat="46.26194" lon="6.87058">
        <ele>1708</ele>
        <time>2010-01-01T20:43:05Z</time>
      </trkpt>
      <trkpt lat="46.26193" lon="6.87041">
        <ele>1708</ele>
        <time>2010-01-01T20:43:10Z</time>
      </trkpt>
      <trkpt lat="46.26196" lon="6.87027">
        <ele>1708</ele>
        <time>2010-01-01T20:43:14Z</time>
      </trkpt>
      <trkpt lat="46.26198" lon="6.87005">
        <ele>1709</ele>
        <time>2010-01-01T20:43:20Z</time>
      </trkpt>
      <trkpt lat="46.26196" lon="6.86987">
        <ele>1711</ele>
        <time>2010-01-01T20:43:25Z</time>
      </trkpt>
      <trkpt lat="46.26196" lon="6.86979">
        <ele>1711</ele>
        <time>2010-01-01T20:43:27Z</time>
      </trkpt>
      <trkpt lat="46.26196" lon="6.86971">
        <ele>1711</ele>
        <time>2010-01-01T20:43:30Z</time>
      </trkpt>
      <trkpt lat="46.26195" lon="6.86956">
        <ele>1712</ele>
        <time>2010-01-01T20:43:34Z</time>
      </trkpt>
      <trkpt lat="46.26194" lon="6.86947">
        <ele>1712</ele>
        <time>2010-01-01T20:43:36Z</time>
      </trkpt>
      <trkpt lat="46.26191" lon="6.8693">
        <ele>1715</ele>
        <time>2010-01-01T20:43:41Z</time>
      </trkpt>
      <trkpt lat="46.26189" lon="6.86915">
        <ele>1720</ele>
        <time>2010-01-01T20:43:45Z</time>
      </trkpt>
      <trkpt lat="46.26188" lon="6.869">
        <ele>1720</ele>
        <time>2010-01-01T20:43:49Z</time>
      </trkpt>
      <trkpt lat="46.26187" lon="6.86891">
        <ele>1720</ele>
        <time>2010-01-01T20:43:52Z</time>
      </trkpt>
      <trkpt lat="46.26186" lon="6.86877">
        <ele>1720</ele>
        <time>2010-01-01T20:43:56Z</time>
      </trkpt>
      <trkpt lat="46.26185" lon="6.86871">
        <ele>1721</ele>
        <time>2010-01-01T20:43:58Z</time>
      </trkpt>
      <trkpt lat="46.26183" lon="6.86864">
        <ele>1721</ele>
        <time>2010-01-01T20:44:00Z</time>
      </trkpt>
      <trkpt lat="46.26183" lon="6.86861">
        <ele>1722</ele>
        <time>2010-01-01T20:44:00Z</time>
      </trkpt>
      <trkpt lat="46.2618" lon="6.86844">
        <ele>1725</ele>
        <time>2010-01-01T20:44:05Z</time>
      </trkpt>
      <trkpt lat="46.2618" lon="6.86832">
        <ele>1730</ele>
        <time>2010-01-01T20:44:08Z</time>
      </trkpt>
      <trkpt lat="46.26183" lon="6.86817">
        <ele>1729</ele>
        <time>2010-01-01T20:44:13Z</time>
      </trkpt>
      <trkpt lat="46.26187" lon="6.86809">
        <ele>1729</ele>
        <time>2010-01-01T20:44:16Z</time>
      </trkpt>
      <trkpt lat="46.26195" lon="6.86802">
        <ele>1729</ele>
        <time>2010-01-01T20:44:19Z</time>
      </trkpt>
      <trkpt lat="46.26196" lon="6.86799">
        <ele>1729</ele>
        <time>2010-01-01T20:44:20Z</time>
      </trkpt>
      <trkpt lat="46.26197" lon="6.86795">
        <ele>1729</ele>
        <time>2010-01-01T20:44:21Z</time>
      </trkpt>
      <trkpt lat="46.26197" lon="6.86792">
        <ele>1729</ele>
        <time>2010-01-01T20:44:22Z</time>
      </trkpt>
      <trkpt lat="46.26195" lon="6.86788">
        <ele>1730</ele>
        <time>2010-01-01T20:44:24Z</time>
      </trkpt>
      <trkpt lat="46.26192" lon="6.86787">
        <ele>1730</ele>
        <time>2010-01-01T20:44:25Z</time>
      </trkpt>
      <trkpt lat="46.26184" lon="6.86791">
        <ele>1730</ele>
        <time>2010-01-01T20:44:29Z</time>
      </trkpt>
      <trkpt lat="46.26176" lon="6.86796">
        <ele>1730</ele>
        <time>2010-01-01T20:44:32Z</time>
      </trkpt>
      <trkpt lat="46.26176" lon="6.86797">
        <ele>1730</ele>
        <time>2010-01-01T20:44:32Z</time>
      </trkpt>
      <trkpt lat="46.26167" lon="6.86813">
        <ele>1730</ele>
        <time>2010-01-01T20:44:38Z</time>
      </trkpt>
      <trkpt lat="46.26161" lon="6.86838">
        <ele>1737</ele>
        <time>2010-01-01T20:44:45Z</time>
      </trkpt>
      <trkpt lat="46.26155" lon="6.86863">
        <ele>1744</ele>
        <time>2010-01-01T20:44:52Z</time>
      </trkpt>
      <trkpt lat="46.26151" lon="6.86883">
        <ele>1744</ele>
        <time>2010-01-01T20:44:58Z</time>
      </trkpt>
      <trkpt lat="46.26146" lon="6.86914">
        <ele>1741</ele>
        <time>2010-01-01T20:45:07Z</time>
      </trkpt>
      <trkpt lat="46.26143" lon="6.86926">
        <ele>1738</ele>
        <time>2010-01-01T20:45:10Z</time>
      </trkpt>
      <trkpt lat="46.26141" lon="6.86931">
        <ele>1738</ele>
        <time>2010-01-01T20:45:12Z</time>
      </trkpt>
      <trkpt lat="46.26137" lon="6.86941">
        <ele>1740</ele>
        <time>2010-01-01T20:45:15Z</time>
      </trkpt>
      <trkpt lat="46.26132" lon="6.86948">
        <ele>1740</ele>
        <time>2010-01-01T20:45:18Z</time>
      </trkpt>
      <trkpt lat="46.26122" lon="6.86963">
        <ele>1741</ele>
        <time>2010-01-01T20:45:24Z</time>
      </trkpt>
      <trkpt lat="46.26109" lon="6.86982">
        <ele>1743</ele>
        <time>2010-01-01T20:45:31Z</time>
      </trkpt>
      <trkpt lat="46.26104" lon="6.8699">
        <ele>1744</ele>
        <time>2010-01-01T20:45:34Z</time>
      </trkpt>
      <trkpt lat="46.26096" lon="6.87001">
        <ele>1742</ele>
        <time>2010-01-01T20:45:39Z</time>
      </trkpt>
      <trkpt lat="46.26088" lon="6.87012">
        <ele>1742</ele>
        <time>2010-01-01T20:45:43Z</time>
      </trkpt>
      <trkpt lat="46.2608" lon="6.87025">
        <ele>1752</ele>
        <time>2010-01-01T20:45:48Z</time>
      </trkpt>
      <trkpt lat="46.26075" lon="6.87031">
        <ele>1752</ele>
        <time>2010-01-01T20:45:50Z</time>
      </trkpt>
      <trkpt lat="46.26072" lon="6.87036">
        <ele>1752</ele>
        <time>2010-01-01T20:45:52Z</time>
      </trkpt>
      <trkpt lat="46.26068" lon="6.87042">
        <ele>1752</ele>
        <time>2010-01-01T20:45:55Z</time>
      </trkpt>
      <trkpt lat="46.26064" lon="6.87047">
        <ele>1752</ele>
        <time>2010-01-01T20:45:57Z</time>
      </trkpt>
      <trkpt lat="46.2606" lon="6.87051">
        <ele>1752</ele>
        <time>2010-01-01T20:45:59Z</time>
      </trkpt>
      <trkpt lat="46.26052" lon="6.87059">
        <ele>1752</ele>
        <time>2010-01-01T20:46:03Z</time>
      </trkpt>
      <trkpt lat="46.26045" lon="6.87066">
        <ele>1753</ele>
        <time>2010-01-01T20:46:06Z</time>
      </trkpt>
      <trkpt lat="46.26036" lon="6.87073">
        <ele>1754</ele>
        <time>2010-01-01T20:46:10Z</time>
      </trkpt>
      <trkpt lat="46.26028" lon="6.87078">
        <ele>1756</ele>
        <time>2010-01-01T20:46:14Z</time>
      </trkpt>
      <trkpt lat="46.26019" lon="6.87081">
        <ele>1757</ele>
        <time>2010-01-01T20:46:17Z</time>
      </trkpt>
      <trkpt lat="46.26008" lon="6.87083">
        <ele>1759</ele>
        <time>2010-01-01T20:46:22Z</time>
      </trkpt>
      <trkpt lat="46.25998" lon="6.87082">
        <ele>1761</ele>
        <time>2010-01-01T20:46:26Z</time>
      </trkpt>
      <trkpt lat="46.25991" lon="6.87078">
        <ele>1765</ele>
        <time>2010-01-01T20:46:29Z</time>
      </trkpt>
      <trkpt lat="46.25982" lon="6.8707">
        <ele>1768</ele>
        <time>2010-01-01T20:46:33Z</time>
      </trkpt>
      <trkpt lat="46.25971" lon="6.87064">
        <ele>1770</ele>
        <time>2010-01-01T20:46:37Z</time>
      </trkpt>
      <trkpt lat="46.25961" lon="6.87065">
        <ele>1771</ele>
        <time>2010-01-01T20:46:42Z</time>
      </trkpt>
      <trkpt lat="46.25956" lon="6.87067">
        <ele>1771</ele>
        <time>2010-01-01T20:46:44Z</time>
      </trkpt>
      <trkpt lat="46.25949" lon="6.87072">
        <ele>1772</ele>
        <time>2010-01-01T20:46:47Z</time>
      </trkpt>
      <trkpt lat="46.25945" lon="6.87078">
        <ele>1772</ele>
        <time>2010-01-01T20:46:49Z</time>
      </trkpt>
      <trkpt lat="46.25943" lon="6.87084">
        <ele>1767</ele>
        <time>2010-01-01T20:46:51Z</time>
      </trkpt>
      <trkpt lat="46.25943" lon="6.8709">
        <ele>1767</ele>
        <time>2010-01-01T20:46:53Z</time>
      </trkpt>
      <trkpt lat="46.25943" lon="6.87095">
        <ele>1767</ele>
        <time>2010-01-01T20:46:54Z</time>
      </trkpt>
      <trkpt lat="46.25946" lon="6.87101">
        <ele>1766</ele>
        <time>2010-01-01T20:46:56Z</time>
      </trkpt>
      <trkpt lat="46.2595" lon="6.87108">
        <ele>1766</ele>
        <time>2010-01-01T20:46:59Z</time>
      </trkpt>
      <trkpt lat="46.2595" lon="6.87109">
        <ele>1766</ele>
        <time>2010-01-01T20:46:59Z</time>
      </trkpt>
      <trkpt lat="46.25957" lon="6.87123">
        <ele>1765</ele>
        <time>2010-01-01T20:47:04Z</time>
      </trkpt>
      <trkpt lat="46.25962" lon="6.87135">
        <ele>1764</ele>
        <time>2010-01-01T20:47:07Z</time>
      </trkpt>
      <trkpt lat="46.25963" lon="6.87146">
        <ele>1764</ele>
        <time>2010-01-01T20:47:10Z</time>
      </trkpt>
      <trkpt lat="46.25961" lon="6.8715">
        <ele>1764</ele>
        <time>2010-01-01T20:47:12Z</time>
      </trkpt>
      <trkpt lat="46.25958" lon="6.87154">
        <ele>1764</ele>
        <time>2010-01-01T20:47:13Z</time>
      </trkpt>
      <trkpt lat="46.25954" lon="6.87156">
        <ele>1765</ele>
        <time>2010-01-01T20:47:15Z</time>
      </trkpt>
      <trkpt lat="46.2595" lon="6.87158">
        <ele>1765</ele>
        <time>2010-01-01T20:47:17Z</time>
      </trkpt>
      <trkpt lat="46.25945" lon="6.87161">
        <ele>1766</ele>
        <time>2010-01-01T20:47:19Z</time>
      </trkpt>
      <trkpt lat="46.25942" lon="6.87162">
        <ele>1766</ele>
        <time>2010-01-01T20:47:20Z</time>
      </trkpt>
      <trkpt lat="46.25938" lon="6.87164">
        <ele>1767</ele>
        <time>2010-01-01T20:47:22Z</time>
      </trkpt>
      <trkpt lat="46.25936" lon="6.87165">
        <ele>1767</ele>
        <time>2010-01-01T20:47:23Z</time>
      </trkpt>
      <trkpt lat="46.25924" lon="6.87168">
        <ele>1769</ele>
        <time>2010-01-01T20:47:27Z</time>
      </trkpt>
      <trkpt lat="46.25915" lon="6.8717">
        <ele>1773</ele>
        <time>2010-01-01T20:47:31Z</time>
      </trkpt>
      <trkpt lat="46.25908" lon="6.87169">
        <ele>1774</ele>
        <time>2010-01-01T20:47:34Z</time>
      </trkpt>
      <trkpt lat="46.25899" lon="6.87167">
        <ele>1777</ele>
        <time>2010-01-01T20:47:38Z</time>
      </trkpt>
      <trkpt lat="46.25889" lon="6.87167">
        <ele>1780</ele>
        <time>2010-01-01T20:47:42Z</time>
      </trkpt>
      <trkpt lat="46.25879" lon="6.87169">
        <ele>1781</ele>
        <time>2010-01-01T20:47:46Z</time>
      </trkpt>
      <trkpt lat="46.25873" lon="6.87173">
        <ele>1782</ele>
        <time>2010-01-01T20:47:48Z</time>
      </trkpt>
      <trkpt lat="46.2587" lon="6.87179">
        <ele>1783</ele>
        <time>2010-01-01T20:47:50Z</time>
      </trkpt>
      <trkpt lat="46.25869" lon="6.87179">
        <ele>1783</ele>
        <time>2010-01-01T20:47:51Z</time>
      </trkpt>
      <trkpt lat="46.25867" lon="6.87193">
        <ele>1783</ele>
        <time>2010-01-01T20:47:55Z</time>
      </trkpt>
      <trkpt lat="46.25866" lon="6.8721">
        <ele>1783</ele>
        <time>2010-01-01T20:47:59Z</time>
      </trkpt>
      <trkpt lat="46.25866" lon="6.8721">
        <ele>1783</ele>
        <time>2010-01-01T20:47:59Z</time>
      </trkpt>
      <trkpt lat="46.25861" lon="6.87234">
        <ele>1784</ele>
        <time>2010-01-01T20:48:06Z</time>
      </trkpt>
      <trkpt lat="46.25851" lon="6.87258">
        <ele>1786</ele>
        <time>2010-01-01T20:48:14Z</time>
      </trkpt>
      <trkpt lat="46.25841" lon="6.87283">
        <ele>1785</ele>
        <time>2010-01-01T20:48:22Z</time>
      </trkpt>
      <trkpt lat="46.25835" lon="6.87296">
        <ele>1786</ele>
        <time>2010-01-01T20:48:26Z</time>
      </trkpt>
      <trkpt lat="46.25829" lon="6.87305">
        <ele>1787</ele>
        <time>2010-01-01T20:48:30Z</time>
      </trkpt>
      <trkpt lat="46.25823" lon="6.87315">
        <ele>1787</ele>
        <time>2010-01-01T20:48:33Z</time>
      </trkpt>
      <trkpt lat="46.25818" lon="6.87304">
        <ele>1787</ele>
        <time>2010-01-01T20:48:37Z</time>
      </trkpt>
      <trkpt lat="46.25813" lon="6.87301">
        <ele>1787</ele>
        <time>2010-01-01T20:48:39Z</time>
      </trkpt>
      <trkpt lat="46.25809" lon="6.87298">
        <ele>1787</ele>
        <time>2010-01-01T20:48:41Z</time>
      </trkpt>
      <trkpt lat="46.25804" lon="6.873">
        <ele>1787</ele>
        <time>2010-01-01T20:48:43Z</time>
      </trkpt>
      <trkpt lat="46.25796" lon="6.87305">
        <ele>1786</ele>
        <time>2010-01-01T20:48:47Z</time>
      </trkpt>
      <trkpt lat="46.25788" lon="6.87311">
        <ele>1785</ele>
        <time>2010-01-01T20:48:50Z</time>
      </trkpt>
      <trkpt lat="46.25788" lon="6.87311">
        <ele>1785</ele>
        <time>2010-01-01T20:48:50Z</time>
      </trkpt>
      <trkpt lat="46.25778" lon="6.87317">
        <ele>1784</ele>
        <time>2010-01-01T20:48:55Z</time>
      </trkpt>
      <trkpt lat="46.25766" lon="6.87322">
        <ele>1782</ele>
        <time>2010-01-01T20:49:00Z</time>
      </trkpt>
      <trkpt lat="46.25758" lon="6.87322">
        <ele>1781</ele>
        <time>2010-01-01T20:49:03Z</time>
      </trkpt>
      <trkpt lat="46.25755" lon="6.87325">
        <ele>1780</ele>
        <time>2010-01-01T20:49:04Z</time>
      </trkpt>
      <trkpt lat="46.25754" lon="6.87325">
        <ele>1780</ele>
        <time>2010-01-01T20:49:05Z</time>
      </trkpt>
      <trkpt lat="46.25749" lon="6.87328">
        <ele>1777</ele>
        <time>2010-01-01T20:49:07Z</time>
      </trkpt>
      <trkpt lat="46.25745" lon="6.87331">
        <ele>1777</ele>
        <time>2010-01-01T20:49:09Z</time>
      </trkpt>
      <trkpt lat="46.25743" lon="6.87332">
        <ele>1777</ele>
        <time>2010-01-01T20:49:10Z</time>
      </trkpt>
      <trkpt lat="46.25741" lon="6.87332">
        <ele>1777</ele>
        <time>2010-01-01T20:49:11Z</time>
      </trkpt>
      <trkpt lat="46.25738" lon="6.87335">
        <ele>1772</ele>
        <time>2010-01-01T20:49:12Z</time>
      </trkpt>
      <trkpt lat="46.25734" lon="6.87339">
        <ele>1771</ele>
        <time>2010-01-01T20:49:14Z</time>
      </trkpt>
      <trkpt lat="46.25726" lon="6.87339">
        <ele>1769</ele>
        <time>2010-01-01T20:49:17Z</time>
      </trkpt>
      <trkpt lat="46.2572" lon="6.87338">
        <ele>1768</ele>
        <time>2010-01-01T20:49:19Z</time>
      </trkpt>
      <trkpt lat="46.25715" lon="6.8733">
        <ele>1774</ele>
        <time>2010-01-01T20:49:22Z</time>
      </trkpt>
      <trkpt lat="46.25712" lon="6.87326">
        <ele>1774</ele>
        <time>2010-01-01T20:49:24Z</time>
      </trkpt>
      <trkpt lat="46.25709" lon="6.87324">
        <ele>1774</ele>
        <time>2010-01-01T20:49:25Z</time>
      </trkpt>
      <trkpt lat="46.25704" lon="6.87322">
        <ele>1773</ele>
        <time>2010-01-01T20:49:27Z</time>
      </trkpt>
      <trkpt lat="46.257" lon="6.8732">
        <ele>1773</ele>
        <time>2010-01-01T20:49:29Z</time>
      </trkpt>
      <trkpt lat="46.25694" lon="6.87317">
        <ele>1772</ele>
        <time>2010-01-01T20:49:32Z</time>
      </trkpt>
      <trkpt lat="46.25686" lon="6.87315">
        <ele>1771</ele>
        <time>2010-01-01T20:49:35Z</time>
      </trkpt>
      <trkpt lat="46.2568" lon="6.87313">
        <ele>1770</ele>
        <time>2010-01-01T20:49:37Z</time>
      </trkpt>
      <trkpt lat="46.2567" lon="6.87309">
        <ele>1770</ele>
        <time>2010-01-01T20:49:41Z</time>
      </trkpt>
      <trkpt lat="46.25664" lon="6.8731">
        <ele>1763</ele>
        <time>2010-01-01T20:49:44Z</time>
      </trkpt>
      <trkpt lat="46.25655" lon="6.8731">
        <ele>1763</ele>
        <time>2010-01-01T20:49:47Z</time>
      </trkpt>
      <trkpt lat="46.25648" lon="6.87313">
        <ele>1762</ele>
        <time>2010-01-01T20:49:50Z</time>
      </trkpt>
      <trkpt lat="46.25643" lon="6.87313">
        <ele>1762</ele>
        <time>2010-01-01T20:49:52Z</time>
      </trkpt>
      <trkpt lat="46.25637" lon="6.87313">
        <ele>1762</ele>
        <time>2010-01-01T20:49:55Z</time>
      </trkpt>
      <trkpt lat="46.2563" lon="6.87312">
        <ele>1762</ele>
        <time>2010-01-01T20:49:58Z</time>
      </trkpt>
      <trkpt lat="46.25625" lon="6.87312">
        <ele>1761</ele>
        <time>2010-01-01T20:49:59Z</time>
      </trkpt>
      <trkpt lat="46.25618" lon="6.87316">
        <ele>1760</ele>
        <time>2010-01-01T20:50:03Z</time>
      </trkpt>
      <trkpt lat="46.25612" lon="6.87317">
        <ele>1760</ele>
        <time>2010-01-01T20:50:05Z</time>
      </trkpt>
      <trkpt lat="46.25604" lon="6.87318">
        <ele>1759</ele>
        <time>2010-01-01T20:50:08Z</time>
      </trkpt>
      <trkpt lat="46.25589" lon="6.87312">
        <ele>1758</ele>
        <time>2010-01-01T20:50:14Z</time>
      </trkpt>
      <trkpt lat="46.25583" lon="6.87308">
        <ele>1754</ele>
        <time>2010-01-01T20:50:17Z</time>
      </trkpt>
      <trkpt lat="46.25579" lon="6.87307">
        <ele>1754</ele>
        <time>2010-01-01T20:50:19Z</time>
      </trkpt>
      <trkpt lat="46.25564" lon="6.87306">
        <ele>1753</ele>
        <time>2010-01-01T20:50:25Z</time>
      </trkpt>
      <trkpt lat="46.25559" lon="6.87306">
        <ele>1753</ele>
        <time>2010-01-01T20:50:27Z</time>
      </trkpt>
      <trkpt lat="46.25553" lon="6.87305">
        <ele>1753</ele>
        <time>2010-01-01T20:50:29Z</time>
      </trkpt>
      <trkpt lat="46.25544" lon="6.87303">
        <ele>1753</ele>
        <time>2010-01-01T20:50:33Z</time>
      </trkpt>
      <trkpt lat="46.25538" lon="6.873">
        <ele>1752</ele>
        <time>2010-01-01T20:50:35Z</time>
      </trkpt>
      <trkpt lat="46.25531" lon="6.873">
        <ele>1752</ele>
        <time>2010-01-01T20:50:38Z</time>
      </trkpt>
      <trkpt lat="46.25524" lon="6.873">
        <ele>1752</ele>
        <time>2010-01-01T20:50:41Z</time>
      </trkpt>
      <trkpt lat="46.25517" lon="6.87299">
        <ele>1751</ele>
        <time>2010-01-01T20:50:44Z</time>
      </trkpt>
      <trkpt lat="46.25508" lon="6.87303">
        <ele>1750</ele>
        <time>2010-01-01T20:50:47Z</time>
      </trkpt>
      <trkpt lat="46.25503" lon="6.87304">
        <ele>1750</ele>
        <time>2010-01-01T20:50:50Z</time>
      </trkpt>
      <trkpt lat="46.25498" lon="6.87306">
        <ele>1746</ele>
        <time>2010-01-01T20:50:52Z</time>
      </trkpt>
      <trkpt lat="46.25493" lon="6.87306">
        <ele>1746</ele>
        <time>2010-01-01T20:50:54Z</time>
      </trkpt>
      <trkpt lat="46.25483" lon="6.87308">
        <ele>1746</ele>
        <time>2010-01-01T20:50:58Z</time>
      </trkpt>
      <trkpt lat="46.25472" lon="6.87311">
        <ele>1746</ele>
        <time>2010-01-01T20:51:02Z</time>
      </trkpt>
      <trkpt lat="46.25466" lon="6.87312">
        <ele>1746</ele>
        <time>2010-01-01T20:51:04Z</time>
      </trkpt>
      <trkpt lat="46.25458" lon="6.87315">
        <ele>1746</ele>
        <time>2010-01-01T20:51:08Z</time>
      </trkpt>
      <trkpt lat="46.25444" lon="6.87316">
        <ele>1745</ele>
        <time>2010-01-01T20:51:14Z</time>
      </trkpt>
      <trkpt lat="46.25436" lon="6.87318">
        <ele>1744</ele>
        <time>2010-01-01T20:51:17Z</time>
      </trkpt>
      <trkpt lat="46.25415" lon="6.87327">
        <ele>1739</ele>
        <time>2010-01-01T20:51:25Z</time>
      </trkpt>
      <trkpt lat="46.25405" lon="6.87329">
        <ele>1740</ele>
        <time>2010-01-01T20:51:30Z</time>
      </trkpt>
      <trkpt lat="46.25395" lon="6.87331">
        <ele>1740</ele>
        <time>2010-01-01T20:51:34Z</time>
      </trkpt>
      <trkpt lat="46.25388" lon="6.87327">
        <ele>1740</ele>
        <time>2010-01-01T20:51:37Z</time>
      </trkpt>
      <trkpt lat="46.2538" lon="6.87329">
        <ele>1740</ele>
        <time>2010-01-01T20:51:40Z</time>
      </trkpt>
      <trkpt lat="46.25374" lon="6.87326">
        <ele>1740</ele>
        <time>2010-01-01T20:51:42Z</time>
      </trkpt>
      <trkpt lat="46.25368" lon="6.87326">
        <ele>1740</ele>
        <time>2010-01-01T20:51:45Z</time>
      </trkpt>
      <trkpt lat="46.25358" lon="6.87324">
        <ele>1739</ele>
        <time>2010-01-01T20:51:49Z</time>
      </trkpt>
      <trkpt lat="46.25351" lon="6.87324">
        <ele>1738</ele>
        <time>2010-01-01T20:51:52Z</time>
      </trkpt>
      <trkpt lat="46.25347" lon="6.87323">
        <ele>1738</ele>
        <time>2010-01-01T20:51:53Z</time>
      </trkpt>
      <trkpt lat="46.25339" lon="6.87322">
        <ele>1737</ele>
        <time>2010-01-01T20:51:56Z</time>
      </trkpt>
      <trkpt lat="46.25333" lon="6.8732">
        <ele>1737</ele>
        <time>2010-01-01T20:51:59Z</time>
      </trkpt>
      <trkpt lat="46.25323" lon="6.87311">
        <ele>1733</ele>
        <time>2010-01-01T20:52:04Z</time>
      </trkpt>
      <trkpt lat="46.25316" lon="6.87311">
        <ele>1733</ele>
        <time>2010-01-01T20:52:07Z</time>
      </trkpt>
      <trkpt lat="46.25307" lon="6.87307">
        <ele>1732</ele>
        <time>2010-01-01T20:52:10Z</time>
      </trkpt>
      <trkpt lat="46.25299" lon="6.87307">
        <ele>1732</ele>
        <time>2010-01-01T20:52:13Z</time>
      </trkpt>
      <trkpt lat="46.25294" lon="6.87306">
        <ele>1731</ele>
        <time>2010-01-01T20:52:15Z</time>
      </trkpt>
      <trkpt lat="46.2528" lon="6.873">
        <ele>1730</ele>
        <time>2010-01-01T20:52:21Z</time>
      </trkpt>
      <trkpt lat="46.2527" lon="6.87297">
        <ele>1730</ele>
        <time>2010-01-01T20:52:25Z</time>
      </trkpt>
      <trkpt lat="46.25261" lon="6.87294">
        <ele>1729</ele>
        <time>2010-01-01T20:52:29Z</time>
      </trkpt>
      <trkpt lat="46.25252" lon="6.8729">
        <ele>1729</ele>
        <time>2010-01-01T20:52:33Z</time>
      </trkpt>
      <trkpt lat="46.25244" lon="6.87289">
        <ele>1722</ele>
        <time>2010-01-01T20:52:36Z</time>
      </trkpt>
      <trkpt lat="46.25234" lon="6.87292">
        <ele>1721</ele>
        <time>2010-01-01T20:52:40Z</time>
      </trkpt>
      <trkpt lat="46.25226" lon="6.87298">
        <ele>1721</ele>
        <time>2010-01-01T20:52:44Z</time>
      </trkpt>
      <trkpt lat="46.25217" lon="6.87304">
        <ele>1721</ele>
        <time>2010-01-01T20:52:48Z</time>
      </trkpt>
      <trkpt lat="46.25208" lon="6.87313">
        <ele>1720</ele>
        <time>2010-01-01T20:52:52Z</time>
      </trkpt>
      <trkpt lat="46.25198" lon="6.87321">
        <ele>1720</ele>
        <time>2010-01-01T20:52:56Z</time>
      </trkpt>
      <trkpt lat="46.25193" lon="6.87324">
        <ele>1719</ele>
        <time>2010-01-01T20:52:59Z</time>
      </trkpt>
      <trkpt lat="46.25188" lon="6.87325">
        <ele>1719</ele>
        <time>2010-01-01T20:53:01Z</time>
      </trkpt>
      <trkpt lat="46.25179" lon="6.87328">
        <ele>1718</ele>
        <time>2010-01-01T20:53:04Z</time>
      </trkpt>
      <trkpt lat="46.25171" lon="6.87328">
        <ele>1717</ele>
        <time>2010-01-01T20:53:08Z</time>
      </trkpt>
      <trkpt lat="46.2516" lon="6.87325">
        <ele>1712</ele>
        <time>2010-01-01T20:53:12Z</time>
      </trkpt>
      <trkpt lat="46.2515" lon="6.8732">
        <ele>1710</ele>
        <time>2010-01-01T20:53:16Z</time>
      </trkpt>
      <trkpt lat="46.2514" lon="6.87318">
        <ele>1709</ele>
        <time>2010-01-01T20:53:20Z</time>
      </trkpt>
      <trkpt lat="46.25132" lon="6.87314">
        <ele>1707</ele>
        <time>2010-01-01T20:53:24Z</time>
      </trkpt>
      <trkpt lat="46.25124" lon="6.87311">
        <ele>1706</ele>
        <time>2010-01-01T20:53:27Z</time>
      </trkpt>
      <trkpt lat="46.2512" lon="6.87304">
        <ele>1706</ele>
        <time>2010-01-01T20:53:30Z</time>
      </trkpt>
      <trkpt lat="46.2511" lon="6.87281">
        <ele>1704</ele>
        <time>2010-01-01T20:53:37Z</time>
      </trkpt>
      <trkpt lat="46.25103" lon="6.87253">
        <ele>1702</ele>
        <time>2010-01-01T20:53:45Z</time>
      </trkpt>
      <trkpt lat="46.25102" lon="6.87238">
        <ele>1698</ele>
        <time>2010-01-01T20:53:50Z</time>
      </trkpt>
      <trkpt lat="46.25101" lon="6.87226">
        <ele>1697</ele>
        <time>2010-01-01T20:53:53Z</time>
      </trkpt>
      <trkpt lat="46.25098" lon="6.87221">
        <ele>1697</ele>
        <time>2010-01-01T20:53:55Z</time>
      </trkpt>
      <trkpt lat="46.25096" lon="6.87215">
        <ele>1696</ele>
        <time>2010-01-01T20:53:56Z</time>
      </trkpt>
      <trkpt lat="46.25092" lon="6.87212">
        <ele>1696</ele>
        <time>2010-01-01T20:53:58Z</time>
      </trkpt>
      <trkpt lat="46.25089" lon="6.87207">
        <ele>1695</ele>
        <time>2010-01-01T20:54:00Z</time>
      </trkpt>
      <trkpt lat="46.25087" lon="6.87201">
        <ele>1695</ele>
        <time>2010-01-01T20:54:02Z</time>
      </trkpt>
      <trkpt lat="46.25088" lon="6.87193">
        <ele>1693</ele>
        <time>2010-01-01T20:54:04Z</time>
      </trkpt>
      <trkpt lat="46.25088" lon="6.87193">
        <ele>1693</ele>
        <time>2010-01-01T20:54:04Z</time>
      </trkpt>
      <trkpt lat="46.25088" lon="6.87186">
        <ele>1692</ele>
        <time>2010-01-01T20:54:06Z</time>
      </trkpt>
      <trkpt lat="46.25087" lon="6.87185">
        <ele>1692</ele>
        <time>2010-01-01T20:54:06Z</time>
      </trkpt>
      <trkpt lat="46.25088" lon="6.87179">
        <ele>1690</ele>
        <time>2010-01-01T20:54:08Z</time>
      </trkpt>
      <trkpt lat="46.25088" lon="6.87178">
        <ele>1690</ele>
        <time>2010-01-01T20:54:08Z</time>
      </trkpt>
      <trkpt lat="46.25089" lon="6.87177">
        <ele>1690</ele>
        <time>2010-01-01T20:54:09Z</time>
      </trkpt>
      <trkpt lat="46.2509" lon="6.87176">
        <ele>1690</ele>
        <time>2010-01-01T20:54:09Z</time>
      </trkpt>
      <trkpt lat="46.25094" lon="6.87169">
        <ele>1690</ele>
        <time>2010-01-01T20:54:12Z</time>
      </trkpt>
      <trkpt lat="46.25104" lon="6.87157">
        <ele>1687</ele>
        <time>2010-01-01T20:54:17Z</time>
      </trkpt>
      <trkpt lat="46.2511" lon="6.87153">
        <ele>1688</ele>
        <time>2010-01-01T20:54:19Z</time>
      </trkpt>
      <trkpt lat="46.25115" lon="6.87148">
        <ele>1688</ele>
        <time>2010-01-01T20:54:22Z</time>
      </trkpt>
      <trkpt lat="46.2512" lon="6.87144">
        <ele>1689</ele>
        <time>2010-01-01T20:54:24Z</time>
      </trkpt>
      <trkpt lat="46.25125" lon="6.87139">
        <ele>1689</ele>
        <time>2010-01-01T20:54:27Z</time>
      </trkpt>
      <trkpt lat="46.25123" lon="6.87127">
        <ele>1688</ele>
        <time>2010-01-01T20:54:30Z</time>
      </trkpt>
      <trkpt lat="46.25117" lon="6.8712">
        <ele>1687</ele>
        <time>2010-01-01T20:54:33Z</time>
      </trkpt>
      <trkpt lat="46.25108" lon="6.87106">
        <ele>1686</ele>
        <time>2010-01-01T20:54:38Z</time>
      </trkpt>
      <trkpt lat="46.25098" lon="6.87101">
        <ele>1684</ele>
        <time>2010-01-01T20:54:43Z</time>
      </trkpt>
      <trkpt lat="46.25083" lon="6.87096">
        <ele>1681</ele>
        <time>2010-01-01T20:54:48Z</time>
      </trkpt>
      <trkpt lat="46.2508" lon="6.87089">
        <ele>1676</ele>
        <time>2010-01-01T20:54:51Z</time>
      </trkpt>
      <trkpt lat="46.25073" lon="6.87083">
        <ele>1676</ele>
        <time>2010-01-01T20:54:54Z</time>
      </trkpt>
      <trkpt lat="46.25069" lon="6.87077">
        <ele>1676</ele>
        <time>2010-01-01T20:54:57Z</time>
      </trkpt>
      <trkpt lat="46.2506" lon="6.8707">
        <ele>1675</ele>
        <time>2010-01-01T20:55:01Z</time>
      </trkpt>
      <trkpt lat="46.2505" lon="6.87065">
        <ele>1674</ele>
        <time>2010-01-01T20:55:05Z</time>
      </trkpt>
      <trkpt lat="46.25034" lon="6.87051">
        <ele>1674</ele>
        <time>2010-01-01T20:55:12Z</time>
      </trkpt>
      <trkpt lat="46.25024" lon="6.87034">
        <ele>1674</ele>
        <time>2010-01-01T20:55:19Z</time>
      </trkpt>
      <trkpt lat="46.25005" lon="6.87008">
        <ele>1674</ele>
        <time>2010-01-01T20:55:29Z</time>
      </trkpt>
      <trkpt lat="46.24977" lon="6.86963">
        <ele>1673</ele>
        <time>2010-01-01T20:55:46Z</time>
      </trkpt>
      <trkpt lat="46.24962" lon="6.86938">
        <ele>1674</ele>
        <time>2010-01-01T20:55:55Z</time>
      </trkpt>
      <trkpt lat="46.2495" lon="6.8692">
        <ele>1672</ele>
        <time>2010-01-01T20:56:02Z</time>
      </trkpt>
      <trkpt lat="46.24943" lon="6.86904">
        <ele>1680</ele>
        <time>2010-01-01T20:56:07Z</time>
      </trkpt>
      <trkpt lat="46.24923" lon="6.8689">
        <ele>1678</ele>
        <time>2010-01-01T20:56:16Z</time>
      </trkpt>
      <trkpt lat="46.24901" lon="6.86877">
        <ele>1669</ele>
        <time>2010-01-01T20:56:25Z</time>
      </trkpt>
      <trkpt lat="46.2489" lon="6.86871">
        <ele>1669</ele>
        <time>2010-01-01T20:56:30Z</time>
      </trkpt>
      <trkpt lat="46.24884" lon="6.86862">
        <ele>1670</ele>
        <time>2010-01-01T20:56:34Z</time>
      </trkpt>
      <trkpt lat="46.24876" lon="6.86852">
        <ele>1670</ele>
        <time>2010-01-01T20:56:38Z</time>
      </trkpt>
      <trkpt lat="46.2487" lon="6.86853">
        <ele>1670</ele>
        <time>2010-01-01T20:56:40Z</time>
      </trkpt>
      <trkpt lat="46.24859" lon="6.86852">
        <ele>1670</ele>
        <time>2010-01-01T20:56:45Z</time>
      </trkpt>
      <trkpt lat="46.24849" lon="6.86853">
        <ele>1670</ele>
        <time>2010-01-01T20:56:49Z</time>
      </trkpt>
      <trkpt lat="46.24836" lon="6.86851">
        <ele>1671</ele>
        <time>2010-01-01T20:56:54Z</time>
      </trkpt>
      <trkpt lat="46.24808" lon="6.86838">
        <ele>1669</ele>
        <time>2010-01-01T20:57:06Z</time>
      </trkpt>
      <trkpt lat="46.24795" lon="6.86844">
        <ele>1669</ele>
        <time>2010-01-01T20:57:11Z</time>
      </trkpt>
      <trkpt lat="46.24782" lon="6.86842">
        <ele>1669</ele>
        <time>2010-01-01T20:57:16Z</time>
      </trkpt>
      <trkpt lat="46.24767" lon="6.86857">
        <ele>1669</ele>
        <time>2010-01-01T20:57:23Z</time>
      </trkpt>
      <trkpt lat="46.24755" lon="6.86863">
        <ele>1668</ele>
        <time>2010-01-01T20:57:29Z</time>
      </trkpt>
      <trkpt lat="46.24737" lon="6.86874">
        <ele>1663</ele>
        <time>2010-01-01T20:57:36Z</time>
      </trkpt>
      <trkpt lat="46.24728" lon="6.8688">
        <ele>1661</ele>
        <time>2010-01-01T20:57:41Z</time>
      </trkpt>
      <trkpt lat="46.24722" lon="6.86883">
        <ele>1661</ele>
        <time>2010-01-01T20:57:43Z</time>
      </trkpt>
      <trkpt lat="46.24711" lon="6.86881">
        <ele>1660</ele>
        <time>2010-01-01T20:57:47Z</time>
      </trkpt>
      <trkpt lat="46.24699" lon="6.8688">
        <ele>1660</ele>
        <time>2010-01-01T20:57:52Z</time>
      </trkpt>
      <trkpt lat="46.24688" lon="6.86868">
        <ele>1661</ele>
        <time>2010-01-01T20:57:58Z</time>
      </trkpt>
      <trkpt lat="46.24681" lon="6.86852">
        <ele>1662</ele>
        <time>2010-01-01T20:58:03Z</time>
      </trkpt>
      <trkpt lat="46.2467" lon="6.8683">
        <ele>1666</ele>
        <time>2010-01-01T20:58:11Z</time>
      </trkpt>
      <trkpt lat="46.24661" lon="6.86817">
        <ele>1654</ele>
        <time>2010-01-01T20:58:16Z</time>
      </trkpt>
      <trkpt lat="46.24648" lon="6.86791">
        <ele>1650</ele>
        <time>2010-01-01T20:58:24Z</time>
      </trkpt>
      <trkpt lat="46.24639" lon="6.8674">
        <ele>1651</ele>
        <time>2010-01-01T20:58:39Z</time>
      </trkpt>
      <trkpt lat="46.24637" lon="6.8673">
        <ele>1649</ele>
        <time>2010-01-01T20:58:42Z</time>
      </trkpt>
      <trkpt lat="46.24637" lon="6.86718">
        <ele>1648</ele>
        <time>2010-01-01T20:58:45Z</time>
      </trkpt>
      <trkpt lat="46.24637" lon="6.86674">
        <ele>1649</ele>
        <time>2010-01-01T20:58:57Z</time>
      </trkpt>
      <trkpt lat="46.24639" lon="6.86659">
        <ele>1649</ele>
        <time>2010-01-01T20:59:02Z</time>
      </trkpt>
      <trkpt lat="46.2464" lon="6.86642">
        <ele>1648</ele>
        <time>2010-01-01T20:59:06Z</time>
      </trkpt>
      <trkpt lat="46.24633" lon="6.86615">
        <ele>1645</ele>
        <time>2010-01-01T20:59:14Z</time>
      </trkpt>
      <trkpt lat="46.24631" lon="6.86601">
        <ele>1645</ele>
        <time>2010-01-01T20:59:18Z</time>
      </trkpt>
      <trkpt lat="46.24613" lon="6.86567">
        <ele>1642</ele>
        <time>2010-01-01T20:59:30Z</time>
      </trkpt>
      <trkpt lat="46.24604" lon="6.86555">
        <ele>1641</ele>
        <time>2010-01-01T20:59:35Z</time>
      </trkpt>
      <trkpt lat="46.24593" lon="6.8653">
        <ele>1641</ele>
        <time>2010-01-01T20:59:43Z</time>
      </trkpt>
      <trkpt lat="46.24576" lon="6.86497">
        <ele>1627</ele>
        <time>2010-01-01T20:59:55Z</time>
      </trkpt>
      <trkpt lat="46.24574" lon="6.86477">
        <ele>1622</ele>
        <time>2010-01-01T21:00:00Z</time>
      </trkpt>
      <trkpt lat="46.24575" lon="6.86468">
        <ele>1621</ele>
        <time>2010-01-01T21:00:03Z</time>
      </trkpt>
      <trkpt lat="46.24576" lon="6.86467">
        <ele>1621</ele>
        <time>2010-01-01T21:00:03Z</time>
      </trkpt>
      <trkpt lat="46.2458" lon="6.86455">
        <ele>1621</ele>
        <time>2010-01-01T21:00:07Z</time>
      </trkpt>
      <trkpt lat="46.24583" lon="6.86436">
        <ele>1625</ele>
        <time>2010-01-01T21:00:12Z</time>
      </trkpt>
      <trkpt lat="46.24583" lon="6.86419">
        <ele>1637</ele>
        <time>2010-01-01T21:00:17Z</time>
      </trkpt>
      <trkpt lat="46.24581" lon="6.86402">
        <ele>1628</ele>
        <time>2010-01-01T21:00:22Z</time>
      </trkpt>
      <trkpt lat="46.24582" lon="6.86387">
        <ele>1626</ele>
        <time>2010-01-01T21:00:26Z</time>
      </trkpt>
      <trkpt lat="46.24582" lon="6.86386">
        <ele>1625</ele>
        <time>2010-01-01T21:00:26Z</time>
      </trkpt>
      <trkpt lat="46.24586" lon="6.86375">
        <ele>1650</ele>
        <time>2010-01-01T21:00:30Z</time>
      </trkpt>
      <trkpt lat="46.2459" lon="6.86355">
        <ele>1650</ele>
        <time>2010-01-01T21:00:35Z</time>
      </trkpt>
      <trkpt lat="46.24592" lon="6.86347">
        <ele>1648</ele>
        <time>2010-01-01T21:00:38Z</time>
      </trkpt>
      <trkpt lat="46.24591" lon="6.86324">
        <ele>1649</ele>
        <time>2010-01-01T21:00:44Z</time>
      </trkpt>
      <trkpt lat="46.2459" lon="6.8631">
        <ele>1653</ele>
        <time>2010-01-01T21:00:48Z</time>
      </trkpt>
      <trkpt lat="46.2459" lon="6.86309">
        <ele>1653</ele>
        <time>2010-01-01T21:00:49Z</time>
      </trkpt>
      <trkpt lat="46.24591" lon="6.86297">
        <ele>1655</ele>
        <time>2010-01-01T21:00:52Z</time>
      </trkpt>
      <trkpt lat="46.24591" lon="6.86286">
        <ele>1655</ele>
        <time>2010-01-01T21:00:55Z</time>
      </trkpt>
      <trkpt lat="46.24591" lon="6.86285">
        <ele>1655</ele>
        <time>2010-01-01T21:00:55Z</time>
      </trkpt>
      <trkpt lat="46.2459" lon="6.86269">
        <ele>1653</ele>
        <time>2010-01-01T21:01:00Z</time>
      </trkpt>
      <trkpt lat="46.24589" lon="6.86237">
        <ele>1652</ele>
        <time>2010-01-01T21:01:09Z</time>
      </trkpt>
      <trkpt lat="46.2459" lon="6.86223">
        <ele>1655</ele>
        <time>2010-01-01T21:01:12Z</time>
      </trkpt>
      <trkpt lat="46.24591" lon="6.86203">
        <ele>1656</ele>
        <time>2010-01-01T21:01:18Z</time>
      </trkpt>
      <trkpt lat="46.24596" lon="6.86189">
        <ele>1656</ele>
        <time>2010-01-01T21:01:22Z</time>
      </trkpt>
      <trkpt lat="46.246" lon="6.86179">
        <ele>1655</ele>
        <time>2010-01-01T21:01:25Z</time>
      </trkpt>
      <trkpt lat="46.24602" lon="6.8617">
        <ele>1654</ele>
        <time>2010-01-01T21:01:28Z</time>
      </trkpt>
      <trkpt lat="46.24605" lon="6.86162">
        <ele>1655</ele>
        <time>2010-01-01T21:01:31Z</time>
      </trkpt>
      <trkpt lat="46.24608" lon="6.86157">
        <ele>1656</ele>
        <time>2010-01-01T21:01:32Z</time>
      </trkpt>
      <trkpt lat="46.24608" lon="6.86144">
        <ele>1657</ele>
        <time>2010-01-01T21:01:36Z</time>
      </trkpt>
      <trkpt lat="46.24608" lon="6.86143">
        <ele>1657</ele>
        <time>2010-01-01T21:01:36Z</time>
      </trkpt>
      <trkpt lat="46.24611" lon="6.86127">
        <ele>1658</ele>
        <time>2010-01-01T21:01:41Z</time>
      </trkpt>
      <trkpt lat="46.24616" lon="6.86119">
        <ele>1659</ele>
        <time>2010-01-01T21:01:44Z</time>
      </trkpt>
      <trkpt lat="46.24618" lon="6.86115">
        <ele>1659</ele>
        <time>2010-01-01T21:01:45Z</time>
      </trkpt>
      <trkpt lat="46.24615" lon="6.8611">
        <ele>1658</ele>
        <time>2010-01-01T21:01:47Z</time>
      </trkpt>
      <trkpt lat="46.2461" lon="6.86104">
        <ele>1656</ele>
        <time>2010-01-01T21:01:49Z</time>
      </trkpt>
      <trkpt lat="46.2461" lon="6.86085">
        <ele>1655</ele>
        <time>2010-01-01T21:01:55Z</time>
      </trkpt>
      <trkpt lat="46.2461" lon="6.8607">
        <ele>1653</ele>
        <time>2010-01-01T21:01:59Z</time>
      </trkpt>
      <trkpt lat="46.24611" lon="6.86061">
        <ele>1654</ele>
        <time>2010-01-01T21:02:01Z</time>
      </trkpt>
      <trkpt lat="46.24605" lon="6.8603">
        <ele>1653</ele>
        <time>2010-01-01T21:02:10Z</time>
      </trkpt>
      <trkpt lat="46.24602" lon="6.86012">
        <ele>1650</ele>
        <time>2010-01-01T21:02:15Z</time>
      </trkpt>
      <trkpt lat="46.24601" lon="6.85993">
        <ele>1645</ele>
        <time>2010-01-01T21:02:21Z</time>
      </trkpt>
      <trkpt lat="46.24601" lon="6.85974">
        <ele>1646</ele>
        <time>2010-01-01T21:02:26Z</time>
      </trkpt>
      <trkpt lat="46.24605" lon="6.85958">
        <ele>1646</ele>
        <time>2010-01-01T21:02:30Z</time>
      </trkpt>
      <trkpt lat="46.24619" lon="6.85938">
        <ele>1646</ele>
        <time>2010-01-01T21:02:38Z</time>
      </trkpt>
      <trkpt lat="46.24627" lon="6.85926">
        <ele>1648</ele>
        <time>2010-01-01T21:02:43Z</time>
      </trkpt>
      <trkpt lat="46.24634" lon="6.85915">
        <ele>1642</ele>
        <time>2010-01-01T21:02:47Z</time>
      </trkpt>
      <trkpt lat="46.24646" lon="6.85896">
        <ele>1643</ele>
        <time>2010-01-01T21:02:54Z</time>
      </trkpt>
      <trkpt lat="46.24653" lon="6.85868">
        <ele>1641</ele>
        <time>2010-01-01T21:03:03Z</time>
      </trkpt>
      <trkpt lat="46.24659" lon="6.85852">
        <ele>1642</ele>
        <time>2010-01-01T21:03:07Z</time>
      </trkpt>
      <trkpt lat="46.24667" lon="6.8584">
        <ele>1650</ele>
        <time>2010-01-01T21:03:12Z</time>
      </trkpt>
      <trkpt lat="46.24674" lon="6.85834">
        <ele>1651</ele>
        <time>2010-01-01T21:03:15Z</time>
      </trkpt>
      <trkpt lat="46.2468" lon="6.85827">
        <ele>1646</ele>
        <time>2010-01-01T21:03:18Z</time>
      </trkpt>
      <trkpt lat="46.24686" lon="6.85814">
        <ele>1646</ele>
        <time>2010-01-01T21:03:23Z</time>
      </trkpt>
      <trkpt lat="46.24687" lon="6.85812">
        <ele>1645</ele>
        <time>2010-01-01T21:03:23Z</time>
      </trkpt>
      <trkpt lat="46.24691" lon="6.85795">
        <ele>1644</ele>
        <time>2010-01-01T21:03:28Z</time>
      </trkpt>
      <trkpt lat="46.24691" lon="6.85794">
        <ele>1643</ele>
        <time>2010-01-01T21:03:29Z</time>
      </trkpt>
      <trkpt lat="46.24692" lon="6.85779">
        <ele>1641</ele>
        <time>2010-01-01T21:03:33Z</time>
      </trkpt>
      <trkpt lat="46.24694" lon="6.85763">
        <ele>1639</ele>
        <time>2010-01-01T21:03:37Z</time>
      </trkpt>
      <trkpt lat="46.24694" lon="6.85762">
        <ele>1638</ele>
        <time>2010-01-01T21:03:37Z</time>
      </trkpt>
      <trkpt lat="46.24702" lon="6.8575">
        <ele>1639</ele>
        <time>2010-01-01T21:03:42Z</time>
      </trkpt>
      <trkpt lat="46.24716" lon="6.85739">
        <ele>1625</ele>
        <time>2010-01-01T21:03:49Z</time>
      </trkpt>
      <trkpt lat="46.24735" lon="6.8574">
        <ele>1631</ele>
        <time>2010-01-01T21:03:56Z</time>
      </trkpt>
      <trkpt lat="46.24756" lon="6.85745">
        <ele>1642</ele>
        <time>2010-01-01T21:04:04Z</time>
      </trkpt>
      <trkpt lat="46.24776" lon="6.85739">
        <ele>1642</ele>
        <time>2010-01-01T21:04:13Z</time>
      </trkpt>
      <trkpt lat="46.24786" lon="6.85729">
        <ele>1642</ele>
        <time>2010-01-01T21:04:18Z</time>
      </trkpt>
      <trkpt lat="46.24796" lon="6.8572">
        <ele>1642</ele>
        <time>2010-01-01T21:04:22Z</time>
      </trkpt>
      <trkpt lat="46.24796" lon="6.8572">
        <ele>1642</ele>
        <time>2010-01-01T21:04:22Z</time>
      </trkpt>
      <trkpt lat="46.24818" lon="6.85691">
        <ele>1639</ele>
        <time>2010-01-01T21:04:34Z</time>
      </trkpt>
      <trkpt lat="46.24822" lon="6.85674">
        <ele>1637</ele>
        <time>2010-01-01T21:04:39Z</time>
      </trkpt>
      <trkpt lat="46.24829" lon="6.85656">
        <ele>1628</ele>
        <time>2010-01-01T21:04:45Z</time>
      </trkpt>
      <trkpt lat="46.24836" lon="6.85637">
        <ele>1639</ele>
        <time>2010-01-01T21:04:51Z</time>
      </trkpt>
      <trkpt lat="46.24835" lon="6.85624">
        <ele>1637</ele>
        <time>2010-01-01T21:04:54Z</time>
      </trkpt>
      <trkpt lat="46.24842" lon="6.85598">
        <ele>1631</ele>
        <time>2010-01-01T21:05:02Z</time>
      </trkpt>
      <trkpt lat="46.24844" lon="6.8558">
        <ele>1620</ele>
        <time>2010-01-01T21:05:07Z</time>
      </trkpt>
      <trkpt lat="46.24847" lon="6.85561">
        <ele>1619</ele>
        <time>2010-01-01T21:05:12Z</time>
      </trkpt>
      <trkpt lat="46.24852" lon="6.85542">
        <ele>1617</ele>
        <time>2010-01-01T21:05:18Z</time>
      </trkpt>
      <trkpt lat="46.24856" lon="6.85529">
        <ele>1616</ele>
        <time>2010-01-01T21:05:22Z</time>
      </trkpt>
      <trkpt lat="46.24862" lon="6.85522">
        <ele>1615</ele>
        <time>2010-01-01T21:05:25Z</time>
      </trkpt>
      <trkpt lat="46.24873" lon="6.85515">
        <ele>1616</ele>
        <time>2010-01-01T21:05:30Z</time>
      </trkpt>
      <trkpt lat="46.24879" lon="6.85512">
        <ele>1616</ele>
        <time>2010-01-01T21:05:32Z</time>
      </trkpt>
      <trkpt lat="46.24883" lon="6.85501">
        <ele>1615</ele>
        <time>2010-01-01T21:05:36Z</time>
      </trkpt>
      <trkpt lat="46.24896" lon="6.85494">
        <ele>1602</ele>
        <time>2010-01-01T21:05:41Z</time>
      </trkpt>
      <trkpt lat="46.2491" lon="6.85486">
        <ele>1603</ele>
        <time>2010-01-01T21:05:47Z</time>
      </trkpt>
      <trkpt lat="46.24925" lon="6.85485">
        <ele>1607</ele>
        <time>2010-01-01T21:05:53Z</time>
      </trkpt>
      <trkpt lat="46.24944" lon="6.85488">
        <ele>1606</ele>
        <time>2010-01-01T21:06:01Z</time>
      </trkpt>
      <trkpt lat="46.24958" lon="6.85491">
        <ele>1607</ele>
        <time>2010-01-01T21:06:07Z</time>
      </trkpt>
      <trkpt lat="46.24975" lon="6.85493">
        <ele>1608</ele>
        <time>2010-01-01T21:06:13Z</time>
      </trkpt>
      <trkpt lat="46.24981" lon="6.85492">
        <ele>1609</ele>
        <time>2010-01-01T21:06:16Z</time>
      </trkpt>
      <trkpt lat="46.24991" lon="6.85489">
        <ele>1611</ele>
        <time>2010-01-01T21:06:20Z</time>
      </trkpt>
      <trkpt lat="46.24995" lon="6.85475">
        <ele>1607</ele>
        <time>2010-01-01T21:06:24Z</time>
      </trkpt>
      <trkpt lat="46.25" lon="6.85468">
        <ele>1610</ele>
        <time>2010-01-01T21:06:27Z</time>
      </trkpt>
      <trkpt lat="46.25002" lon="6.85453">
        <ele>1607</ele>
        <time>2010-01-01T21:06:31Z</time>
      </trkpt>
      <trkpt lat="46.2501" lon="6.85433">
        <ele>1602</ele>
        <time>2010-01-01T21:06:38Z</time>
      </trkpt>
      <trkpt lat="46.25019" lon="6.85414">
        <ele>1591</ele>
        <time>2010-01-01T21:06:44Z</time>
      </trkpt>
      <trkpt lat="46.25026" lon="6.85401">
        <ele>1590</ele>
        <time>2010-01-01T21:06:49Z</time>
      </trkpt>
      <trkpt lat="46.25046" lon="6.85385">
        <ele>1590</ele>
        <time>2010-01-01T21:06:58Z</time>
      </trkpt>
      <trkpt lat="46.25056" lon="6.85378">
        <ele>1590</ele>
        <time>2010-01-01T21:07:02Z</time>
      </trkpt>
      <trkpt lat="46.25068" lon="6.85376">
        <ele>1590</ele>
        <time>2010-01-01T21:07:07Z</time>
      </trkpt>
      <trkpt lat="46.2508" lon="6.85381">
        <ele>1591</ele>
        <time>2010-01-01T21:07:12Z</time>
      </trkpt>
      <trkpt lat="46.25081" lon="6.85381">
        <ele>1591</ele>
        <time>2010-01-01T21:07:13Z</time>
      </trkpt>
      <trkpt lat="46.25097" lon="6.85389">
        <ele>1596</ele>
        <time>2010-01-01T21:07:19Z</time>
      </trkpt>
      <trkpt lat="46.25101" lon="6.85391">
        <ele>1596</ele>
        <time>2010-01-01T21:07:21Z</time>
      </trkpt>
      <trkpt lat="46.25107" lon="6.85394">
        <ele>1596</ele>
        <time>2010-01-01T21:07:24Z</time>
      </trkpt>
      <trkpt lat="46.25112" lon="6.8539">
        <ele>1596</ele>
        <time>2010-01-01T21:07:26Z</time>
      </trkpt>
      <trkpt lat="46.25123" lon="6.85393">
        <ele>1596</ele>
        <time>2010-01-01T21:07:30Z</time>
      </trkpt>
      <trkpt lat="46.25132" lon="6.85392">
        <ele>1596</ele>
        <time>2010-01-01T21:07:34Z</time>
      </trkpt>
      <trkpt lat="46.25139" lon="6.85385">
        <ele>1596</ele>
        <time>2010-01-01T21:07:37Z</time>
      </trkpt>
      <trkpt lat="46.25141" lon="6.85374">
        <ele>1594</ele>
        <time>2010-01-01T21:07:40Z</time>
      </trkpt>
      <trkpt lat="46.25138" lon="6.85352">
        <ele>1591</ele>
        <time>2010-01-01T21:07:47Z</time>
      </trkpt>
      <trkpt lat="46.25128" lon="6.85335">
        <ele>1591</ele>
        <time>2010-01-01T21:07:53Z</time>
      </trkpt>
      <trkpt lat="46.25122" lon="6.85321">
        <ele>1580</ele>
        <time>2010-01-01T21:07:57Z</time>
      </trkpt>
      <trkpt lat="46.25111" lon="6.85305">
        <ele>1579</ele>
        <time>2010-01-01T21:08:03Z</time>
      </trkpt>
      <trkpt lat="46.25102" lon="6.85294">
        <ele>1579</ele>
        <time>2010-01-01T21:08:08Z</time>
      </trkpt>
      <trkpt lat="46.25091" lon="6.85281">
        <ele>1577</ele>
        <time>2010-01-01T21:08:14Z</time>
      </trkpt>
      <trkpt lat="46.25069" lon="6.8527">
        <ele>1573</ele>
        <time>2010-01-01T21:08:23Z</time>
      </trkpt>
      <trkpt lat="46.25052" lon="6.8527">
        <ele>1572</ele>
        <time>2010-01-01T21:08:30Z</time>
      </trkpt>
      <trkpt lat="46.2504" lon="6.85265">
        <ele>1570</ele>
        <time>2010-01-01T21:08:35Z</time>
      </trkpt>
      <trkpt lat="46.25024" lon="6.85264">
        <ele>1568</ele>
        <time>2010-01-01T21:08:41Z</time>
      </trkpt>
      <trkpt lat="46.25006" lon="6.85273">
        <ele>1567</ele>
        <time>2010-01-01T21:08:49Z</time>
      </trkpt>
      <trkpt lat="46.24977" lon="6.85303">
        <ele>1559</ele>
        <time>2010-01-01T21:09:03Z</time>
      </trkpt>
      <trkpt lat="46.24957" lon="6.85324">
        <ele>1559</ele>
        <time>2010-01-01T21:09:13Z</time>
      </trkpt>
      <trkpt lat="46.24947" lon="6.85345">
        <ele>1572</ele>
        <time>2010-01-01T21:09:20Z</time>
      </trkpt>
      <trkpt lat="46.24937" lon="6.85363">
        <ele>1574</ele>
        <time>2010-01-01T21:09:27Z</time>
      </trkpt>
      <trkpt lat="46.24922" lon="6.85371">
        <ele>1575</ele>
        <time>2010-01-01T21:09:33Z</time>
      </trkpt>
      <trkpt lat="46.24909" lon="6.8536">
        <ele>1563</ele>
        <time>2010-01-01T21:09:39Z</time>
      </trkpt>
      <trkpt lat="46.24892" lon="6.85346">
        <ele>1560</ele>
        <time>2010-01-01T21:09:47Z</time>
      </trkpt>
      <trkpt lat="46.24869" lon="6.85347">
        <ele>1558</ele>
        <time>2010-01-01T21:09:56Z</time>
      </trkpt>
      <trkpt lat="46.24839" lon="6.85359">
        <ele>1555</ele>
        <time>2010-01-01T21:10:09Z</time>
      </trkpt>
      <trkpt lat="46.24812" lon="6.85375">
        <ele>1547</ele>
        <time>2010-01-01T21:10:20Z</time>
      </trkpt>
      <trkpt lat="46.24791" lon="6.85402">
        <ele>1548</ele>
        <time>2010-01-01T21:10:32Z</time>
      </trkpt>
      <trkpt lat="46.24773" lon="6.85438">
        <ele>1564</ele>
        <time>2010-01-01T21:10:44Z</time>
      </trkpt>
      <trkpt lat="46.24769" lon="6.85464">
        <ele>1568</ele>
        <time>2010-01-01T21:10:51Z</time>
      </trkpt>
      <trkpt lat="46.24758" lon="6.85474">
        <ele>1567</ele>
        <time>2010-01-01T21:10:56Z</time>
      </trkpt>
      <trkpt lat="46.24746" lon="6.85485">
        <ele>1555</ele>
        <time>2010-01-01T21:11:02Z</time>
      </trkpt>
      <trkpt lat="46.24745" lon="6.85486">
        <ele>1555</ele>
        <time>2010-01-01T21:11:02Z</time>
      </trkpt>
      <trkpt lat="46.24727" lon="6.85498">
        <ele>1552</ele>
        <time>2010-01-01T21:11:10Z</time>
      </trkpt>
      <trkpt lat="46.24714" lon="6.85496">
        <ele>1548</ele>
        <time>2010-01-01T21:11:16Z</time>
      </trkpt>
      <trkpt lat="46.247" lon="6.85504">
        <ele>1555</ele>
        <time>2010-01-01T21:11:22Z</time>
      </trkpt>
      <trkpt lat="46.24699" lon="6.85504">
        <ele>1555</ele>
        <time>2010-01-01T21:11:22Z</time>
      </trkpt>
      <trkpt lat="46.24687" lon="6.85512">
        <ele>1552</ele>
        <time>2010-01-01T21:11:27Z</time>
      </trkpt>
      <trkpt lat="46.24677" lon="6.85525">
        <ele>1553</ele>
        <time>2010-01-01T21:11:33Z</time>
      </trkpt>
      <trkpt lat="46.24676" lon="6.85527">
        <ele>1553</ele>
        <time>2010-01-01T21:11:33Z</time>
      </trkpt>
      <trkpt lat="46.24667" lon="6.85549">
        <ele>1558</ele>
        <time>2010-01-01T21:11:40Z</time>
      </trkpt>
      <trkpt lat="46.24646" lon="6.85575">
        <ele>1545</ele>
        <time>2010-01-01T21:11:52Z</time>
      </trkpt>
      <trkpt lat="46.24631" lon="6.85584">
        <ele>1556</ele>
        <time>2010-01-01T21:11:58Z</time>
      </trkpt>
      <trkpt lat="46.2462" lon="6.85589">
        <ele>1553</ele>
        <time>2010-01-01T21:12:03Z</time>
      </trkpt>
      <trkpt lat="46.24601" lon="6.85591">
        <ele>1545</ele>
        <time>2010-01-01T21:12:10Z</time>
      </trkpt>
      <trkpt lat="46.24589" lon="6.85611">
        <ele>1550</ele>
        <time>2010-01-01T21:12:17Z</time>
      </trkpt>
      <trkpt lat="46.24584" lon="6.85624">
        <ele>1554</ele>
        <time>2010-01-01T21:12:22Z</time>
      </trkpt>
      <trkpt lat="46.2457" lon="6.85637">
        <ele>1537</ele>
        <time>2010-01-01T21:12:28Z</time>
      </trkpt>
      <trkpt lat="46.24558" lon="6.85654">
        <ele>1538</ele>
        <time>2010-01-01T21:12:35Z</time>
      </trkpt>
      <trkpt lat="46.24549" lon="6.85671">
        <ele>1556</ele>
        <time>2010-01-01T21:12:41Z</time>
      </trkpt>
      <trkpt lat="46.24535" lon="6.85683">
        <ele>1554</ele>
        <time>2010-01-01T21:12:48Z</time>
      </trkpt>
      <trkpt lat="46.24518" lon="6.85695">
        <ele>1552</ele>
        <time>2010-01-01T21:12:55Z</time>
      </trkpt>
      <trkpt lat="46.24501" lon="6.85703">
        <ele>1552</ele>
        <time>2010-01-01T21:13:02Z</time>
      </trkpt>
      <trkpt lat="46.24483" lon="6.85737">
        <ele>1537</ele>
        <time>2010-01-01T21:13:14Z</time>
      </trkpt>
      <trkpt lat="46.24482" lon="6.85741">
        <ele>1537</ele>
        <time>2010-01-01T21:13:15Z</time>
      </trkpt>
      <trkpt lat="46.24464" lon="6.85781">
        <ele>1540</ele>
        <time>2010-01-01T21:13:29Z</time>
      </trkpt>
      <trkpt lat="46.24449" lon="6.85828">
        <ele>1537</ele>
        <time>2010-01-01T21:13:43Z</time>
      </trkpt>
      <trkpt lat="46.24443" lon="6.85868">
        <ele>1546</ele>
        <time>2010-01-01T21:13:54Z</time>
      </trkpt>
      <trkpt lat="46.24435" lon="6.85888">
        <ele>1547</ele>
        <time>2010-01-01T21:14:01Z</time>
      </trkpt>
      <trkpt lat="46.24422" lon="6.85892">
        <ele>1544</ele>
        <time>2010-01-01T21:14:06Z</time>
      </trkpt>
      <trkpt lat="46.24404" lon="6.85896">
        <ele>1523</ele>
        <time>2010-01-01T21:14:13Z</time>
      </trkpt>
      <trkpt lat="46.24381" lon="6.85911">
        <ele>1518</ele>
        <time>2010-01-01T21:14:24Z</time>
      </trkpt>
      <trkpt lat="46.2437" lon="6.8593">
        <ele>1521</ele>
        <time>2010-01-01T21:14:30Z</time>
      </trkpt>
      <trkpt lat="46.24367" lon="6.85958">
        <ele>1522</ele>
        <time>2010-01-01T21:14:38Z</time>
      </trkpt>
      <trkpt lat="46.24361" lon="6.85975">
        <ele>1521</ele>
        <time>2010-01-01T21:14:43Z</time>
      </trkpt>
      <trkpt lat="46.24356" lon="6.8596">
        <ele>1520</ele>
        <time>2010-01-01T21:14:48Z</time>
      </trkpt>
      <trkpt lat="46.2435" lon="6.8593">
        <ele>1515</ele>
        <time>2010-01-01T21:14:57Z</time>
      </trkpt>
      <trkpt lat="46.2435" lon="6.85925">
        <ele>1514</ele>
        <time>2010-01-01T21:14:58Z</time>
      </trkpt>
      <trkpt lat="46.24356" lon="6.85889">
        <ele>1511</ele>
        <time>2010-01-01T21:15:08Z</time>
      </trkpt>
      <trkpt lat="46.24361" lon="6.85846">
        <ele>1508</ele>
        <time>2010-01-01T21:15:20Z</time>
      </trkpt>
      <trkpt lat="46.24362" lon="6.85845">
        <ele>1508</ele>
        <time>2010-01-01T21:15:21Z</time>
      </trkpt>
      <trkpt lat="46.24369" lon="6.85835">
        <ele>1509</ele>
        <time>2010-01-01T21:15:25Z</time>
      </trkpt>
      <trkpt lat="46.24375" lon="6.85826">
        <ele>1503</ele>
        <time>2010-01-01T21:15:28Z</time>
      </trkpt>
      <trkpt lat="46.2438" lon="6.85822">
        <ele>1503</ele>
        <time>2010-01-01T21:15:30Z</time>
      </trkpt>
      <trkpt lat="46.24381" lon="6.85811">
        <ele>1503</ele>
        <time>2010-01-01T21:15:33Z</time>
      </trkpt>
      <trkpt lat="46.24376" lon="6.85805">
        <ele>1501</ele>
        <time>2010-01-01T21:15:36Z</time>
      </trkpt>
      <trkpt lat="46.24368" lon="6.85815">
        <ele>1500</ele>
        <time>2010-01-01T21:15:40Z</time>
      </trkpt>
      <trkpt lat="46.2435" lon="6.85826">
        <ele>1497</ele>
        <time>2010-01-01T21:15:48Z</time>
      </trkpt>
      <trkpt lat="46.24334" lon="6.85826">
        <ele>1494</ele>
        <time>2010-01-01T21:15:55Z</time>
      </trkpt>
      <trkpt lat="46.24324" lon="6.85852">
        <ele>1488</ele>
        <time>2010-01-01T21:16:03Z</time>
      </trkpt>
      <trkpt lat="46.24311" lon="6.85882">
        <ele>1488</ele>
        <time>2010-01-01T21:16:13Z</time>
      </trkpt>
      <trkpt lat="46.24293" lon="6.85909">
        <ele>1486</ele>
        <time>2010-01-01T21:16:23Z</time>
      </trkpt>
      <trkpt lat="46.24285" lon="6.85903">
        <ele>1484</ele>
        <time>2010-01-01T21:16:27Z</time>
      </trkpt>
      <trkpt lat="46.24292" lon="6.8587">
        <ele>1484</ele>
        <time>2010-01-01T21:16:36Z</time>
      </trkpt>
      <trkpt lat="46.24299" lon="6.85849">
        <ele>1484</ele>
        <time>2010-01-01T21:16:43Z</time>
      </trkpt>
      <trkpt lat="46.243" lon="6.8583">
        <ele>1478</ele>
        <time>2010-01-01T21:16:48Z</time>
      </trkpt>
      <trkpt lat="46.24296" lon="6.85805">
        <ele>1476</ele>
        <time>2010-01-01T21:16:55Z</time>
      </trkpt>
      <trkpt lat="46.24294" lon="6.85795">
        <ele>1475</ele>
        <time>2010-01-01T21:16:58Z</time>
      </trkpt>
      <trkpt lat="46.24295" lon="6.85786">
        <ele>1474</ele>
        <time>2010-01-01T21:17:00Z</time>
      </trkpt>
      <trkpt lat="46.24307" lon="6.85779">
        <ele>1475</ele>
        <time>2010-01-01T21:17:05Z</time>
      </trkpt>
      <trkpt lat="46.24317" lon="6.85776">
        <ele>1476</ele>
        <time>2010-01-01T21:17:09Z</time>
      </trkpt>
      <trkpt lat="46.24328" lon="6.85772">
        <ele>1477</ele>
        <time>2010-01-01T21:17:14Z</time>
      </trkpt>
      <trkpt lat="46.24338" lon="6.85761">
        <ele>1487</ele>
        <time>2010-01-01T21:17:19Z</time>
      </trkpt>
      <trkpt lat="46.24348" lon="6.85747">
        <ele>1483</ele>
        <time>2010-01-01T21:17:24Z</time>
      </trkpt>
      <trkpt lat="46.24358" lon="6.85732">
        <ele>1485</ele>
        <time>2010-01-01T21:17:30Z</time>
      </trkpt>
      <trkpt lat="46.24364" lon="6.85722">
        <ele>1486</ele>
        <time>2010-01-01T21:17:34Z</time>
      </trkpt>
      <trkpt lat="46.24369" lon="6.85699">
        <ele>1484</ele>
        <time>2010-01-01T21:17:41Z</time>
      </trkpt>
      <trkpt lat="46.24378" lon="6.85688">
        <ele>1485</ele>
        <time>2010-01-01T21:17:45Z</time>
      </trkpt>
      <trkpt lat="46.24392" lon="6.85671">
        <ele>1488</ele>
        <time>2010-01-01T21:17:53Z</time>
      </trkpt>
      <trkpt lat="46.24403" lon="6.85643">
        <ele>1475</ele>
        <time>2010-01-01T21:18:02Z</time>
      </trkpt>
      <trkpt lat="46.2441" lon="6.85627">
        <ele>1472</ele>
        <time>2010-01-01T21:18:07Z</time>
      </trkpt>
      <trkpt lat="46.24418" lon="6.85613">
        <ele>1487</ele>
        <time>2010-01-01T21:18:12Z</time>
      </trkpt>
      <trkpt lat="46.24431" lon="6.85592">
        <ele>1482</ele>
        <time>2010-01-01T21:18:20Z</time>
      </trkpt>
      <trkpt lat="46.24431" lon="6.85592">
        <ele>1482</ele>
        <time>2010-01-01T21:18:20Z</time>
      </trkpt>
      <trkpt lat="46.24447" lon="6.85566">
        <ele>1472</ele>
        <time>2010-01-01T21:18:30Z</time>
      </trkpt>
      <trkpt lat="46.24457" lon="6.85551">
        <ele>1473</ele>
        <time>2010-01-01T21:18:35Z</time>
      </trkpt>
      <trkpt lat="46.24466" lon="6.85519">
        <ele>1471</ele>
        <time>2010-01-01T21:18:45Z</time>
      </trkpt>
      <trkpt lat="46.2447" lon="6.855">
        <ele>1461</ele>
        <time>2010-01-01T21:18:50Z</time>
      </trkpt>
      <trkpt lat="46.24474" lon="6.85486">
        <ele>1461</ele>
        <time>2010-01-01T21:18:54Z</time>
      </trkpt>
      <trkpt lat="46.24478" lon="6.85479">
        <ele>1461</ele>
        <time>2010-01-01T21:18:57Z</time>
      </trkpt>
      <trkpt lat="46.24479" lon="6.85477">
        <ele>1461</ele>
        <time>2010-01-01T21:18:57Z</time>
      </trkpt>
      <trkpt lat="46.24489" lon="6.85468">
        <ele>1461</ele>
        <time>2010-01-01T21:19:02Z</time>
      </trkpt>
      <trkpt lat="46.24498" lon="6.85446">
        <ele>1459</ele>
        <time>2010-01-01T21:19:09Z</time>
      </trkpt>
      <trkpt lat="46.245" lon="6.85428">
        <ele>1472</ele>
        <time>2010-01-01T21:19:14Z</time>
      </trkpt>
      <trkpt lat="46.24501" lon="6.85409">
        <ele>1466</ele>
        <time>2010-01-01T21:19:20Z</time>
      </trkpt>
      <trkpt lat="46.24502" lon="6.85383">
        <ele>1468</ele>
        <time>2010-01-01T21:19:27Z</time>
      </trkpt>
      <trkpt lat="46.24507" lon="6.85358">
        <ele>1463</ele>
        <time>2010-01-01T21:19:34Z</time>
      </trkpt>
      <trkpt lat="46.24509" lon="6.85339">
        <ele>1456</ele>
        <time>2010-01-01T21:19:39Z</time>
      </trkpt>
      <trkpt lat="46.24509" lon="6.85338">
        <ele>1455</ele>
        <time>2010-01-01T21:19:40Z</time>
      </trkpt>
      <trkpt lat="46.24521" lon="6.85308">
        <ele>1452</ele>
        <time>2010-01-01T21:19:49Z</time>
      </trkpt>
      <trkpt lat="46.24534" lon="6.85277">
        <ele>1450</ele>
        <time>2010-01-01T21:19:59Z</time>
      </trkpt>
      <trkpt lat="46.24551" lon="6.85262">
        <ele>1452</ele>
        <time>2010-01-01T21:20:07Z</time>
      </trkpt>
      <trkpt lat="46.24562" lon="6.85238">
        <ele>1441</ele>
        <time>2010-01-01T21:20:15Z</time>
      </trkpt>
      <trkpt lat="46.24568" lon="6.85225">
        <ele>1440</ele>
        <time>2010-01-01T21:20:19Z</time>
      </trkpt>
      <trkpt lat="46.24573" lon="6.85207">
        <ele>1436</ele>
        <time>2010-01-01T21:20:25Z</time>
      </trkpt>
      <trkpt lat="46.24575" lon="6.85205">
        <ele>1436</ele>
        <time>2010-01-01T21:20:26Z</time>
      </trkpt>
      <trkpt lat="46.24575" lon="6.85204">
        <ele>1436</ele>
        <time>2010-01-01T21:20:26Z</time>
      </trkpt>
      <trkpt lat="46.24606" lon="6.85166">
        <ele>1432</ele>
        <time>2010-01-01T21:20:42Z</time>
      </trkpt>
      <trkpt lat="46.24617" lon="6.85153">
        <ele>1431</ele>
        <time>2010-01-01T21:20:48Z</time>
      </trkpt>
      <trkpt lat="46.24618" lon="6.85151">
        <ele>1431</ele>
        <time>2010-01-01T21:20:48Z</time>
      </trkpt>
      <trkpt lat="46.24639" lon="6.85131">
        <ele>1430</ele>
        <time>2010-01-01T21:20:59Z</time>
      </trkpt>
      <trkpt lat="46.2464" lon="6.85131">
        <ele>1430</ele>
        <time>2010-01-01T21:20:59Z</time>
      </trkpt>
      <trkpt lat="46.24654" lon="6.85127">
        <ele>1431</ele>
        <time>2010-01-01T21:21:05Z</time>
      </trkpt>
      <trkpt lat="46.24656" lon="6.85126">
        <ele>1430</ele>
        <time>2010-01-01T21:21:06Z</time>
      </trkpt>
      <trkpt lat="46.24677" lon="6.85117">
        <ele>1439</ele>
        <time>2010-01-01T21:21:14Z</time>
      </trkpt>
      <trkpt lat="46.24677" lon="6.85117">
        <ele>1439</ele>
        <time>2010-01-01T21:21:15Z</time>
      </trkpt>
      <trkpt lat="46.24697" lon="6.85113">
        <ele>1440</ele>
        <time>2010-01-01T21:21:22Z</time>
      </trkpt>
      <trkpt lat="46.24701" lon="6.85111">
        <ele>1440</ele>
        <time>2010-01-01T21:21:24Z</time>
      </trkpt>
      <trkpt lat="46.24718" lon="6.85105">
        <ele>1441</ele>
        <time>2010-01-01T21:21:31Z</time>
      </trkpt>
      <trkpt lat="46.24719" lon="6.85104">
        <ele>1441</ele>
        <time>2010-01-01T21:21:32Z</time>
      </trkpt>
      <trkpt lat="46.2473" lon="6.85098">
        <ele>1441</ele>
        <time>2010-01-01T21:21:36Z</time>
      </trkpt>
      <trkpt lat="46.24742" lon="6.85085">
        <ele>1439</ele>
        <time>2010-01-01T21:21:42Z</time>
      </trkpt>
      <trkpt lat="46.24753" lon="6.85063">
        <ele>1438</ele>
        <time>2010-01-01T21:21:50Z</time>
      </trkpt>
      <trkpt lat="46.24757" lon="6.85015">
        <ele>1428</ele>
        <time>2010-01-01T21:22:03Z</time>
      </trkpt>
      <trkpt lat="46.24761" lon="6.84985">
        <ele>1417</ele>
        <time>2010-01-01T21:22:12Z</time>
      </trkpt>
      <trkpt lat="46.24761" lon="6.84983">
        <ele>1417</ele>
        <time>2010-01-01T21:22:12Z</time>
      </trkpt>
      <trkpt lat="46.24772" lon="6.84959">
        <ele>1416</ele>
        <time>2010-01-01T21:22:20Z</time>
      </trkpt>
      <trkpt lat="46.24773" lon="6.84955">
        <ele>1415</ele>
        <time>2010-01-01T21:22:21Z</time>
      </trkpt>
      <trkpt lat="46.24774" lon="6.84953">
        <ele>1415</ele>
        <time>2010-01-01T21:22:22Z</time>
      </trkpt>
      <trkpt lat="46.24786" lon="6.84934">
        <ele>1414</ele>
        <time>2010-01-01T21:22:29Z</time>
      </trkpt>
      <trkpt lat="46.24796" lon="6.84914">
        <ele>1403</ele>
        <time>2010-01-01T21:22:36Z</time>
      </trkpt>
      <trkpt lat="46.24818" lon="6.84874">
        <ele>1401</ele>
        <time>2010-01-01T21:22:50Z</time>
      </trkpt>
      <trkpt lat="46.24832" lon="6.8484">
        <ele>1398</ele>
        <time>2010-01-01T21:23:01Z</time>
      </trkpt>
      <trkpt lat="46.2485" lon="6.84825">
        <ele>1393</ele>
        <time>2010-01-01T21:23:09Z</time>
      </trkpt>
      <trkpt lat="46.2487" lon="6.84821">
        <ele>1392</ele>
        <time>2010-01-01T21:23:18Z</time>
      </trkpt>
      <trkpt lat="46.24888" lon="6.84818">
        <ele>1392</ele>
        <time>2010-01-01T21:23:25Z</time>
      </trkpt>
      <trkpt lat="46.24889" lon="6.84818">
        <ele>1392</ele>
        <time>2010-01-01T21:23:25Z</time>
      </trkpt>
      <trkpt lat="46.24908" lon="6.84811">
        <ele>1393</ele>
        <time>2010-01-01T21:23:33Z</time>
      </trkpt>
      <trkpt lat="46.24912" lon="6.84809">
        <ele>1393</ele>
        <time>2010-01-01T21:23:35Z</time>
      </trkpt>
      <trkpt lat="46.24913" lon="6.84809">
        <ele>1393</ele>
        <time>2010-01-01T21:23:35Z</time>
      </trkpt>
      <trkpt lat="46.24927" lon="6.84798">
        <ele>1396</ele>
        <time>2010-01-01T21:23:41Z</time>
      </trkpt>
      <trkpt lat="46.24946" lon="6.8478">
        <ele>1395</ele>
        <time>2010-01-01T21:23:50Z</time>
      </trkpt>
      <trkpt lat="46.24946" lon="6.84779">
        <ele>1394</ele>
        <time>2010-01-01T21:23:51Z</time>
      </trkpt>
      <trkpt lat="46.24954" lon="6.84765">
        <ele>1394</ele>
        <time>2010-01-01T21:23:56Z</time>
      </trkpt>
      <trkpt lat="46.24961" lon="6.84748">
        <ele>1385</ele>
        <time>2010-01-01T21:24:01Z</time>
      </trkpt>
      <trkpt lat="46.24974" lon="6.84735">
        <ele>1386</ele>
        <time>2010-01-01T21:24:08Z</time>
      </trkpt>
      <trkpt lat="46.24986" lon="6.84722">
        <ele>1386</ele>
        <time>2010-01-01T21:24:14Z</time>
      </trkpt>
      <trkpt lat="46.24982" lon="6.84709">
        <ele>1384</ele>
        <time>2010-01-01T21:24:18Z</time>
      </trkpt>
      <trkpt lat="46.24974" lon="6.84707">
        <ele>1384</ele>
        <time>2010-01-01T21:24:21Z</time>
      </trkpt>
      <trkpt lat="46.24969" lon="6.8471">
        <ele>1384</ele>
        <time>2010-01-01T21:24:23Z</time>
      </trkpt>
      <trkpt lat="46.24955" lon="6.84729">
        <ele>1384</ele>
        <time>2010-01-01T21:24:31Z</time>
      </trkpt>
      <trkpt lat="46.24944" lon="6.84742">
        <ele>1383</ele>
        <time>2010-01-01T21:24:36Z</time>
      </trkpt>
      <trkpt lat="46.24925" lon="6.84748">
        <ele>1382</ele>
        <time>2010-01-01T21:24:44Z</time>
      </trkpt>
      <trkpt lat="46.24918" lon="6.84752">
        <ele>1382</ele>
        <time>2010-01-01T21:24:47Z</time>
      </trkpt>
      <trkpt lat="46.24926" lon="6.84728">
        <ele>1382</ele>
        <time>2010-01-01T21:24:54Z</time>
      </trkpt>
      <trkpt lat="46.24932" lon="6.84702">
        <ele>1381</ele>
        <time>2010-01-01T21:25:02Z</time>
      </trkpt>
      <trkpt lat="46.24933" lon="6.84701">
        <ele>1381</ele>
        <time>2010-01-01T21:25:03Z</time>
      </trkpt>
      <trkpt lat="46.24945" lon="6.84679">
        <ele>1381</ele>
        <time>2010-01-01T21:25:10Z</time>
      </trkpt>
      <trkpt lat="46.2495" lon="6.8465">
        <ele>1382</ele>
        <time>2010-01-01T21:25:18Z</time>
      </trkpt>
      <trkpt lat="46.24956" lon="6.84628">
        <ele>1384</ele>
        <time>2010-01-01T21:25:25Z</time>
      </trkpt>
      <trkpt lat="46.24959" lon="6.84613">
        <ele>1385</ele>
        <time>2010-01-01T21:25:29Z</time>
      </trkpt>
      <trkpt lat="46.24951" lon="6.84597">
        <ele>1386</ele>
        <time>2010-01-01T21:25:35Z</time>
      </trkpt>
      <trkpt lat="46.24945" lon="6.8459">
        <ele>1387</ele>
        <time>2010-01-01T21:25:38Z</time>
      </trkpt>
      <trkpt lat="46.24929" lon="6.84596">
        <ele>1389</ele>
        <time>2010-01-01T21:25:45Z</time>
      </trkpt>
      <trkpt lat="46.24912" lon="6.84604">
        <ele>1391</ele>
        <time>2010-01-01T21:25:52Z</time>
      </trkpt>
      <trkpt lat="46.24822" lon="6.84633">
        <ele>1390</ele>
        <time>2010-01-01T21:26:29Z</time>
      </trkpt>
      <trkpt lat="46.24783" lon="6.84648">
        <ele>1387</ele>
        <time>2010-01-01T21:26:45Z</time>
      </trkpt>
      <trkpt lat="46.24759" lon="6.84649">
        <ele>1384</ele>
        <time>2010-01-01T21:26:54Z</time>
      </trkpt>
      <trkpt lat="46.24734" lon="6.84652">
        <ele>1388</ele>
        <time>2010-01-01T21:27:05Z</time>
      </trkpt>
      <trkpt lat="46.24706" lon="6.8466">
        <ele>1393</ele>
        <time>2010-01-01T21:27:16Z</time>
      </trkpt>
      <trkpt lat="46.24677" lon="6.84674">
        <ele>1385</ele>
        <time>2010-01-01T21:27:28Z</time>
      </trkpt>
      <trkpt lat="46.24646" lon="6.84677">
        <ele>1385</ele>
        <time>2010-01-01T21:27:41Z</time>
      </trkpt>
      <trkpt lat="46.24627" lon="6.84686">
        <ele>1384</ele>
        <time>2010-01-01T21:27:49Z</time>
      </trkpt>
      <trkpt lat="46.24607" lon="6.84701">
        <ele>1382</ele>
        <time>2010-01-01T21:27:58Z</time>
      </trkpt>
      <trkpt lat="46.2458" lon="6.84715">
        <ele>1383</ele>
        <time>2010-01-01T21:28:09Z</time>
      </trkpt>
      <trkpt lat="46.24567" lon="6.84727">
        <ele>1380</ele>
        <time>2010-01-01T21:28:15Z</time>
      </trkpt>
      <trkpt lat="46.24547" lon="6.84727">
        <ele>1383</ele>
        <time>2010-01-01T21:28:23Z</time>
      </trkpt>
      <trkpt lat="46.24515" lon="6.84734">
        <ele>1381</ele>
        <time>2010-01-01T21:28:36Z</time>
      </trkpt>
      <trkpt lat="46.24501" lon="6.8474">
        <ele>1378</ele>
        <time>2010-01-01T21:28:42Z</time>
      </trkpt>
      <trkpt lat="46.24481" lon="6.84751">
        <ele>1375</ele>
        <time>2010-01-01T21:28:51Z</time>
      </trkpt>
      <trkpt lat="46.24458" lon="6.8477">
        <ele>1377</ele>
        <time>2010-01-01T21:29:01Z</time>
      </trkpt>
      <trkpt lat="46.24443" lon="6.84788">
        <ele>1378</ele>
        <time>2010-01-01T21:29:09Z</time>
      </trkpt>
      <trkpt lat="46.24428" lon="6.8481">
        <ele>1379</ele>
        <time>2010-01-01T21:29:18Z</time>
      </trkpt>
      <trkpt lat="46.24417" lon="6.84833">
        <ele>1382</ele>
        <time>2010-01-01T21:29:26Z</time>
      </trkpt>
      <trkpt lat="46.24418" lon="6.84852">
        <ele>1378</ele>
        <time>2010-01-01T21:29:31Z</time>
      </trkpt>
      <trkpt lat="46.24419" lon="6.84874">
        <ele>1376</ele>
        <time>2010-01-01T21:29:37Z</time>
      </trkpt>
      <trkpt lat="46.24421" lon="6.84889">
        <ele>1376</ele>
        <time>2010-01-01T21:29:41Z</time>
      </trkpt>
      <trkpt lat="46.24416" lon="6.8491">
        <ele>1380</ele>
        <time>2010-01-01T21:29:47Z</time>
      </trkpt>
      <trkpt lat="46.24395" lon="6.84939">
        <ele>1384</ele>
        <time>2010-01-01T21:29:59Z</time>
      </trkpt>
      <trkpt lat="46.24371" lon="6.84968">
        <ele>1387</ele>
        <time>2010-01-01T21:30:11Z</time>
      </trkpt>
      <trkpt lat="46.24355" lon="6.84986">
        <ele>1388</ele>
        <time>2010-01-01T21:30:19Z</time>
      </trkpt>
      <trkpt lat="46.24342" lon="6.85018">
        <ele>1384</ele>
        <time>2010-01-01T21:30:30Z</time>
      </trkpt>
      <trkpt lat="46.24328" lon="6.85032">
        <ele>1389</ele>
        <time>2010-01-01T21:30:37Z</time>
      </trkpt>
      <trkpt lat="46.24309" lon="6.85047">
        <ele>1389</ele>
        <time>2010-01-01T21:30:45Z</time>
      </trkpt>
      <trkpt lat="46.24291" lon="6.85053">
        <ele>1390</ele>
        <time>2010-01-01T21:30:53Z</time>
      </trkpt>
      <trkpt lat="46.24262" lon="6.85076">
        <ele>1389</ele>
        <time>2010-01-01T21:31:06Z</time>
      </trkpt>
      <trkpt lat="46.24244" lon="6.85081">
        <ele>1389</ele>
        <time>2010-01-01T21:31:13Z</time>
      </trkpt>
      <trkpt lat="46.2423" lon="6.85086">
        <ele>1377</ele>
        <time>2010-01-01T21:31:19Z</time>
      </trkpt>
      <trkpt lat="46.24217" lon="6.85091">
        <ele>1374</ele>
        <time>2010-01-01T21:31:24Z</time>
      </trkpt>
      <trkpt lat="46.24203" lon="6.85095">
        <ele>1372</ele>
        <time>2010-01-01T21:31:30Z</time>
      </trkpt>
      <trkpt lat="46.24192" lon="6.85095">
        <ele>1371</ele>
        <time>2010-01-01T21:31:35Z</time>
      </trkpt>
      <trkpt lat="46.24175" lon="6.85088">
        <ele>1372</ele>
        <time>2010-01-01T21:31:41Z</time>
      </trkpt>
      <trkpt lat="46.24152" lon="6.85098">
        <ele>1367</ele>
        <time>2010-01-01T21:31:51Z</time>
      </trkpt>
      <trkpt lat="46.24133" lon="6.85095">
        <ele>1365</ele>
        <time>2010-01-01T21:31:59Z</time>
      </trkpt>
      <trkpt lat="46.24113" lon="6.85092">
        <ele>1364</ele>
        <time>2010-01-01T21:32:07Z</time>
      </trkpt>
      <trkpt lat="46.241" lon="6.85095">
        <ele>1365</ele>
        <time>2010-01-01T21:32:12Z</time>
      </trkpt>
      <trkpt lat="46.24085" lon="6.85103">
        <ele>1364</ele>
        <time>2010-01-01T21:32:19Z</time>
      </trkpt>
      <trkpt lat="46.24076" lon="6.85099">
        <ele>1363</ele>
        <time>2010-01-01T21:32:22Z</time>
      </trkpt>
      <trkpt lat="46.24061" lon="6.85103">
        <ele>1362</ele>
        <time>2010-01-01T21:32:28Z</time>
      </trkpt>
      <trkpt lat="46.24041" lon="6.8511">
        <ele>1361</ele>
        <time>2010-01-01T21:32:36Z</time>
      </trkpt>
      <trkpt lat="46.24031" lon="6.85112">
        <ele>1361</ele>
        <time>2010-01-01T21:32:40Z</time>
      </trkpt>
      <trkpt lat="46.24015" lon="6.85116">
        <ele>1361</ele>
        <time>2010-01-01T21:32:47Z</time>
      </trkpt>
      <trkpt lat="46.23992" lon="6.85119">
        <ele>1359</ele>
        <time>2010-01-01T21:32:56Z</time>
      </trkpt>
      <trkpt lat="46.23971" lon="6.85115">
        <ele>1358</ele>
        <time>2010-01-01T21:33:05Z</time>
      </trkpt>
      <trkpt lat="46.23957" lon="6.85107">
        <ele>1358</ele>
        <time>2010-01-01T21:33:11Z</time>
      </trkpt>
      <trkpt lat="46.23934" lon="6.85098">
        <ele>1359</ele>
        <time>2010-01-01T21:33:20Z</time>
      </trkpt>
      <trkpt lat="46.23907" lon="6.85094">
        <ele>1357</ele>
        <time>2010-01-01T21:33:31Z</time>
      </trkpt>
      <trkpt lat="46.23888" lon="6.85095">
        <ele>1356</ele>
        <time>2010-01-01T21:33:39Z</time>
      </trkpt>
      <trkpt lat="46.23873" lon="6.85106">
        <ele>1355</ele>
        <time>2010-01-01T21:33:46Z</time>
      </trkpt>
      <trkpt lat="46.23857" lon="6.8511">
        <ele>1354</ele>
        <time>2010-01-01T21:33:52Z</time>
      </trkpt>
      <trkpt lat="46.23842" lon="6.85115">
        <ele>1354</ele>
        <time>2010-01-01T21:33:58Z</time>
      </trkpt>
      <trkpt lat="46.23839" lon="6.85127">
        <ele>1353</ele>
        <time>2010-01-01T21:34:02Z</time>
      </trkpt>
      <trkpt lat="46.23827" lon="6.85137">
        <ele>1352</ele>
        <time>2010-01-01T21:34:07Z</time>
      </trkpt>
      <trkpt lat="46.23811" lon="6.85145">
        <ele>1352</ele>
        <time>2010-01-01T21:34:14Z</time>
      </trkpt>
      <trkpt lat="46.23788" lon="6.85155">
        <ele>1352</ele>
        <time>2010-01-01T21:34:24Z</time>
      </trkpt>
      <trkpt lat="46.23754" lon="6.85174">
        <ele>1349</ele>
        <time>2010-01-01T21:34:38Z</time>
      </trkpt>
      <trkpt lat="46.23742" lon="6.85188">
        <ele>1347</ele>
        <time>2010-01-01T21:34:44Z</time>
      </trkpt>
      <trkpt lat="46.23727" lon="6.852">
        <ele>1346</ele>
        <time>2010-01-01T21:34:51Z</time>
      </trkpt>
      <trkpt lat="46.23708" lon="6.85235">
        <ele>1344</ele>
        <time>2010-01-01T21:35:04Z</time>
      </trkpt>
      <trkpt lat="46.23688" lon="6.85258">
        <ele>1340</ele>
        <time>2010-01-01T21:35:14Z</time>
      </trkpt>
      <trkpt lat="46.23675" lon="6.8528">
        <ele>1339</ele>
        <time>2010-01-01T21:35:22Z</time>
      </trkpt>
      <trkpt lat="46.23656" lon="6.85297">
        <ele>1338</ele>
        <time>2010-01-01T21:35:31Z</time>
      </trkpt>
      <trkpt lat="46.23632" lon="6.85308">
        <ele>1338</ele>
        <time>2010-01-01T21:35:41Z</time>
      </trkpt>
      <trkpt lat="46.2362" lon="6.85345">
        <ele>1337</ele>
        <time>2010-01-01T21:35:52Z</time>
      </trkpt>
      <trkpt lat="46.23618" lon="6.8537">
        <ele>1337</ele>
        <time>2010-01-01T21:35:59Z</time>
      </trkpt>
      <trkpt lat="46.23627" lon="6.85385">
        <ele>1337</ele>
        <time>2010-01-01T21:36:04Z</time>
      </trkpt>
      <trkpt lat="46.2365" lon="6.85394">
        <ele>1335</ele>
        <time>2010-01-01T21:36:14Z</time>
      </trkpt>
      <trkpt lat="46.23671" lon="6.85418">
        <ele>1330</ele>
        <time>2010-01-01T21:36:25Z</time>
      </trkpt>
      <trkpt lat="46.23682" lon="6.85432">
        <ele>1328</ele>
        <time>2010-01-01T21:36:31Z</time>
      </trkpt>
      <trkpt lat="46.23692" lon="6.85457">
        <ele>1327</ele>
        <time>2010-01-01T21:36:39Z</time>
      </trkpt>
      <trkpt lat="46.23697" lon="6.85525">
        <ele>1322</ele>
        <time>2010-01-01T21:36:58Z</time>
      </trkpt>
      <trkpt lat="46.23695" lon="6.85578">
        <ele>1320</ele>
        <time>2010-01-01T21:37:12Z</time>
      </trkpt>
      <trkpt lat="46.23707" lon="6.85637">
        <ele>1317</ele>
        <time>2010-01-01T21:37:29Z</time>
      </trkpt>
      <trkpt lat="46.23707" lon="6.85707">
        <ele>1316</ele>
        <time>2010-01-01T21:37:49Z</time>
      </trkpt>
      <trkpt lat="46.23706" lon="6.85764">
        <ele>1315</ele>
        <time>2010-01-01T21:38:05Z</time>
      </trkpt>
      <trkpt lat="46.23692" lon="6.85805">
        <ele>1316</ele>
        <time>2010-01-01T21:38:17Z</time>
      </trkpt>
      <trkpt lat="46.2367" lon="6.85812">
        <ele>1316</ele>
        <time>2010-01-01T21:38:26Z</time>
      </trkpt>
      <trkpt lat="46.2365" lon="6.85822">
        <ele>1324</ele>
        <time>2010-01-01T21:38:35Z</time>
      </trkpt>
      <trkpt lat="46.2363" lon="6.85832">
        <ele>1327</ele>
        <time>2010-01-01T21:38:43Z</time>
      </trkpt>
      <trkpt lat="46.23606" lon="6.85831">
        <ele>1332</ele>
        <time>2010-01-01T21:38:53Z</time>
      </trkpt>
      <trkpt lat="46.23585" lon="6.85841">
        <ele>1336</ele>
        <time>2010-01-01T21:39:02Z</time>
      </trkpt>
      <trkpt lat="46.23562" lon="6.85853">
        <ele>1358</ele>
        <time>2010-01-01T21:39:12Z</time>
      </trkpt>
      <trkpt lat="46.23514" lon="6.85861">
        <ele>1374</ele>
        <time>2010-01-01T21:39:31Z</time>
      </trkpt>
      <trkpt lat="46.2347" lon="6.85861">
        <ele>1415</ele>
        <time>2010-01-01T21:39:48Z</time>
      </trkpt>
      <trkpt lat="46.23446" lon="6.85881">
        <ele>1424</ele>
        <time>2010-01-01T21:39:59Z</time>
      </trkpt>
      <trkpt lat="46.23404" lon="6.85885">
        <ele>1467</ele>
        <time>2010-01-01T21:40:16Z</time>
      </trkpt>
      <trkpt lat="46.23317" lon="6.85913">
        <ele>1518</ele>
        <time>2010-01-01T21:40:52Z</time>
      </trkpt>
      <trkpt lat="46.23281" lon="6.85922">
        <ele>1536</ele>
        <time>2010-01-01T21:41:07Z</time>
      </trkpt>
      <trkpt lat="46.23258" lon="6.85927">
        <ele>1544</ele>
        <time>2010-01-01T21:41:16Z</time>
      </trkpt>
      <trkpt lat="46.23244" lon="6.8593">
        <ele>1560</ele>
        <time>2010-01-01T21:41:21Z</time>
      </trkpt>
      <trkpt lat="46.2322" lon="6.85937">
        <ele>1567</ele>
        <time>2010-01-01T21:41:31Z</time>
      </trkpt>
      <trkpt lat="46.23192" lon="6.85945">
        <ele>1574</ele>
        <time>2010-01-01T21:41:43Z</time>
      </trkpt>
      <trkpt lat="46.23168" lon="6.85954">
        <ele>1577</ele>
        <time>2010-01-01T21:41:53Z</time>
      </trkpt>
      <trkpt lat="46.23108" lon="6.8597">
        <ele>1601</ele>
        <time>2010-01-01T21:42:17Z</time>
      </trkpt>
      <trkpt lat="46.2307" lon="6.85975">
        <ele>1623</ele>
        <time>2010-01-01T21:42:32Z</time>
      </trkpt>
      <trkpt lat="46.23048" lon="6.8598">
        <ele>1628</ele>
        <time>2010-01-01T21:42:41Z</time>
      </trkpt>
      <trkpt lat="46.23037" lon="6.85986">
        <ele>1631</ele>
        <time>2010-01-01T21:42:46Z</time>
      </trkpt>
      <trkpt lat="46.23021" lon="6.85991">
        <ele>1635</ele>
        <time>2010-01-01T21:42:53Z</time>
      </trkpt>
      <trkpt lat="46.22962" lon="6.86009">
        <ele>1653</ele>
        <time>2010-01-01T21:43:17Z</time>
      </trkpt>
      <trkpt lat="46.229" lon="6.86026">
        <ele>1677</ele>
        <time>2010-01-01T21:43:42Z</time>
      </trkpt>
      <trkpt lat="46.22784" lon="6.86057">
        <ele>1705</ele>
        <time>2010-01-01T21:44:29Z</time>
      </trkpt>
      <trkpt lat="46.22713" lon="6.86073">
        <ele>1734</ele>
        <time>2010-01-01T21:44:58Z</time>
      </trkpt>
      <trkpt lat="46.22655" lon="6.86089">
        <ele>1764</ele>
        <time>2010-01-01T21:45:22Z</time>
      </trkpt>
      <trkpt lat="46.22601" lon="6.86106">
        <ele>1777</ele>
        <time>2010-01-01T21:45:44Z</time>
      </trkpt>
      <trkpt lat="46.22547" lon="6.86121">
        <ele>1798</ele>
        <time>2010-01-01T21:46:06Z</time>
      </trkpt>
      <trkpt lat="46.2252" lon="6.86128">
        <ele>1802</ele>
        <time>2010-01-01T21:46:17Z</time>
      </trkpt>
      <trkpt lat="46.22509" lon="6.86133">
        <ele>1803</ele>
        <time>2010-01-01T21:46:21Z</time>
      </trkpt>
      <trkpt lat="46.22501" lon="6.86134">
        <ele>1803</ele>
        <time>2010-01-01T21:46:24Z</time>
      </trkpt>
      <trkpt lat="46.22499" lon="6.86133">
        <ele>1810</ele>
        <time>2010-01-01T21:46:26Z</time>
      </trkpt>
      <trkpt lat="46.22497" lon="6.8613">
        <ele>1810</ele>
        <time>2010-01-01T21:46:26Z</time>
      </trkpt>
      <trkpt lat="46.22494" lon="6.86131">
        <ele>1810</ele>
        <time>2010-01-01T21:46:28Z</time>
      </trkpt>
      <trkpt lat="46.22484" lon="6.86134">
        <ele>1810</ele>
        <time>2010-01-01T21:46:32Z</time>
      </trkpt>
      <trkpt lat="46.22458" lon="6.86153">
        <ele>1809</ele>
        <time>2010-01-01T21:46:43Z</time>
      </trkpt>
      <trkpt lat="46.22432" lon="6.86168">
        <ele>1803</ele>
        <time>2010-01-01T21:46:55Z</time>
      </trkpt>
      <trkpt lat="46.22413" lon="6.86179">
        <ele>1798</ele>
        <time>2010-01-01T21:47:03Z</time>
      </trkpt>
      <trkpt lat="46.22404" lon="6.86183">
        <ele>1796</ele>
        <time>2010-01-01T21:47:07Z</time>
      </trkpt>
      <trkpt lat="46.22394" lon="6.86184">
        <ele>1794</ele>
        <time>2010-01-01T21:47:11Z</time>
      </trkpt>
      <trkpt lat="46.22368" lon="6.86182">
        <ele>1790</ele>
        <time>2010-01-01T21:47:21Z</time>
      </trkpt>
      <trkpt lat="46.22354" lon="6.86179">
        <ele>1789</ele>
        <time>2010-01-01T21:47:27Z</time>
      </trkpt>
      <trkpt lat="46.22338" lon="6.86172">
        <ele>1789</ele>
        <time>2010-01-01T21:47:33Z</time>
      </trkpt>
      <trkpt lat="46.2233" lon="6.86168">
        <ele>1786</ele>
        <time>2010-01-01T21:47:37Z</time>
      </trkpt>
      <trkpt lat="46.22325" lon="6.86168">
        <ele>1784</ele>
        <time>2010-01-01T21:47:39Z</time>
      </trkpt>
      <trkpt lat="46.22322" lon="6.86168">
        <ele>1782</ele>
        <time>2010-01-01T21:47:40Z</time>
      </trkpt>
      <trkpt lat="46.22317" lon="6.86168">
        <ele>1780</ele>
        <time>2010-01-01T21:47:42Z</time>
      </trkpt>
      <trkpt lat="46.22312" lon="6.86169">
        <ele>1778</ele>
        <time>2010-01-01T21:47:44Z</time>
      </trkpt>
      <trkpt lat="46.22307" lon="6.86167">
        <ele>1777</ele>
        <time>2010-01-01T21:47:46Z</time>
      </trkpt>
      <trkpt lat="46.22302" lon="6.86168">
        <ele>1776</ele>
        <time>2010-01-01T21:47:48Z</time>
      </trkpt>
      <trkpt lat="46.22292" lon="6.86173">
        <ele>1774</ele>
        <time>2010-01-01T21:47:52Z</time>
      </trkpt>
      <trkpt lat="46.22287" lon="6.86174">
        <ele>1773</ele>
        <time>2010-01-01T21:47:54Z</time>
      </trkpt>
      <trkpt lat="46.22279" lon="6.86182">
        <ele>1772</ele>
        <time>2010-01-01T21:47:58Z</time>
      </trkpt>
      <trkpt lat="46.22274" lon="6.86184">
        <ele>1771</ele>
        <time>2010-01-01T21:48:00Z</time>
      </trkpt>
      <trkpt lat="46.22262" lon="6.86192">
        <ele>1770</ele>
        <time>2010-01-01T21:48:06Z</time>
      </trkpt>
      <trkpt lat="46.22253" lon="6.86194">
        <ele>1769</ele>
        <time>2010-01-01T21:48:09Z</time>
      </trkpt>
      <trkpt lat="46.22238" lon="6.86192">
        <ele>1758</ele>
        <time>2010-01-01T21:48:15Z</time>
      </trkpt>
      <trkpt lat="46.22232" lon="6.86189">
        <ele>1758</ele>
        <time>2010-01-01T21:48:18Z</time>
      </trkpt>
      <trkpt lat="46.22226" lon="6.86189">
        <ele>1757</ele>
        <time>2010-01-01T21:48:20Z</time>
      </trkpt>
      <trkpt lat="46.2222" lon="6.86188">
        <ele>1756</ele>
        <time>2010-01-01T21:48:23Z</time>
      </trkpt>
      <trkpt lat="46.22201" lon="6.86188">
        <ele>1753</ele>
        <time>2010-01-01T21:48:30Z</time>
      </trkpt>
      <trkpt lat="46.22195" lon="6.8619">
        <ele>1752</ele>
        <time>2010-01-01T21:48:33Z</time>
      </trkpt>
      <trkpt lat="46.22188" lon="6.86194">
        <ele>1751</ele>
        <time>2010-01-01T21:48:36Z</time>
      </trkpt>
      <trkpt lat="46.22178" lon="6.86198">
        <ele>1750</ele>
        <time>2010-01-01T21:48:40Z</time>
      </trkpt>
      <trkpt lat="46.22171" lon="6.86205">
        <ele>1749</ele>
        <time>2010-01-01T21:48:43Z</time>
      </trkpt>
      <trkpt lat="46.22164" lon="6.8621">
        <ele>1736</ele>
        <time>2010-01-01T21:48:47Z</time>
      </trkpt>
      <trkpt lat="46.22156" lon="6.86218">
        <ele>1735</ele>
        <time>2010-01-01T21:48:50Z</time>
      </trkpt>
      <trkpt lat="46.22144" lon="6.8623">
        <ele>1734</ele>
        <time>2010-01-01T21:48:56Z</time>
      </trkpt>
      <trkpt lat="46.22138" lon="6.86228">
        <ele>1733</ele>
        <time>2010-01-01T21:48:59Z</time>
      </trkpt>
      <trkpt lat="46.22134" lon="6.86224">
        <ele>1733</ele>
        <time>2010-01-01T21:49:00Z</time>
      </trkpt>
      <trkpt lat="46.22132" lon="6.86217">
        <ele>1733</ele>
        <time>2010-01-01T21:49:03Z</time>
      </trkpt>
      <trkpt lat="46.22132" lon="6.86216">
        <ele>1733</ele>
        <time>2010-01-01T21:49:03Z</time>
      </trkpt>
      <trkpt lat="46.2213" lon="6.86207">
        <ele>1734</ele>
        <time>2010-01-01T21:49:05Z</time>
      </trkpt>
      <trkpt lat="46.22119" lon="6.86188">
        <ele>1734</ele>
        <time>2010-01-01T21:49:12Z</time>
      </trkpt>
      <trkpt lat="46.22114" lon="6.86182">
        <ele>1733</ele>
        <time>2010-01-01T21:49:15Z</time>
      </trkpt>
      <trkpt lat="46.22106" lon="6.86179">
        <ele>1732</ele>
        <time>2010-01-01T21:49:18Z</time>
      </trkpt>
      <trkpt lat="46.22092" lon="6.86177">
        <ele>1730</ele>
        <time>2010-01-01T21:49:24Z</time>
      </trkpt>
      <trkpt lat="46.22083" lon="6.86172">
        <ele>1725</ele>
        <time>2010-01-01T21:49:28Z</time>
      </trkpt>
      <trkpt lat="46.22075" lon="6.86169">
        <ele>1724</ele>
        <time>2010-01-01T21:49:31Z</time>
      </trkpt>
      <trkpt lat="46.22074" lon="6.86158">
        <ele>1726</ele>
        <time>2010-01-01T21:49:34Z</time>
      </trkpt>
      <trkpt lat="46.22072" lon="6.8612">
        <ele>1727</ele>
        <time>2010-01-01T21:49:44Z</time>
      </trkpt>
      <trkpt lat="46.2207" lon="6.86089">
        <ele>1731</ele>
        <time>2010-01-01T21:49:53Z</time>
      </trkpt>
      <trkpt lat="46.22064" lon="6.86072">
        <ele>1735</ele>
        <time>2010-01-01T21:49:58Z</time>
      </trkpt>
      <trkpt lat="46.22053" lon="6.86056">
        <ele>1735</ele>
        <time>2010-01-01T21:50:05Z</time>
      </trkpt>
      <trkpt lat="46.22034" lon="6.86029">
        <ele>1736</ele>
        <time>2010-01-01T21:50:15Z</time>
      </trkpt>
      <trkpt lat="46.22024" lon="6.86015">
        <ele>1735</ele>
        <time>2010-01-01T21:50:21Z</time>
      </trkpt>
      <trkpt lat="46.22016" lon="6.85992">
        <ele>1741</ele>
        <time>2010-01-01T21:50:28Z</time>
      </trkpt>
      <trkpt lat="46.22011" lon="6.85973">
        <ele>1743</ele>
        <time>2010-01-01T21:50:33Z</time>
      </trkpt>
      <trkpt lat="46.22009" lon="6.85965">
        <ele>1744</ele>
        <time>2010-01-01T21:50:36Z</time>
      </trkpt>
      <trkpt lat="46.21984" lon="6.85949">
        <ele>1736</ele>
        <time>2010-01-01T21:50:47Z</time>
      </trkpt>
      <trkpt lat="46.21951" lon="6.8593">
        <ele>1736</ele>
        <time>2010-01-01T21:51:01Z</time>
      </trkpt>
      <trkpt lat="46.21944" lon="6.85925">
        <ele>1736</ele>
        <time>2010-01-01T21:51:04Z</time>
      </trkpt>
      <trkpt lat="46.21937" lon="6.85927">
        <ele>1736</ele>
        <time>2010-01-01T21:51:07Z</time>
      </trkpt>
      <trkpt lat="46.21927" lon="6.85933">
        <ele>1736</ele>
        <time>2010-01-01T21:51:11Z</time>
      </trkpt>
      <trkpt lat="46.2191" lon="6.8594">
        <ele>1735</ele>
        <time>2010-01-01T21:51:18Z</time>
      </trkpt>
      <trkpt lat="46.21898" lon="6.85942">
        <ele>1735</ele>
        <time>2010-01-01T21:51:23Z</time>
      </trkpt>
      <trkpt lat="46.2187" lon="6.85946">
        <ele>1735</ele>
        <time>2010-01-01T21:51:34Z</time>
      </trkpt>
      <trkpt lat="46.21841" lon="6.85949">
        <ele>1736</ele>
        <time>2010-01-01T21:51:46Z</time>
      </trkpt>
      <trkpt lat="46.2183" lon="6.85955">
        <ele>1740</ele>
        <time>2010-01-01T21:51:51Z</time>
      </trkpt>
      <trkpt lat="46.21809" lon="6.85963">
        <ele>1740</ele>
        <time>2010-01-01T21:52:00Z</time>
      </trkpt>
      <trkpt lat="46.21799" lon="6.85971">
        <ele>1741</ele>
        <time>2010-01-01T21:52:04Z</time>
      </trkpt>
      <trkpt lat="46.21782" lon="6.85992">
        <ele>1741</ele>
        <time>2010-01-01T21:52:13Z</time>
      </trkpt>
      <trkpt lat="46.21778" lon="6.86008">
        <ele>1735</ele>
        <time>2010-01-01T21:52:18Z</time>
      </trkpt>
      <trkpt lat="46.21773" lon="6.86025">
        <ele>1734</ele>
        <time>2010-01-01T21:52:23Z</time>
      </trkpt>
      <trkpt lat="46.21769" lon="6.86038">
        <ele>1733</ele>
        <time>2010-01-01T21:52:27Z</time>
      </trkpt>
      <trkpt lat="46.2176" lon="6.8605">
        <ele>1733</ele>
        <time>2010-01-01T21:52:32Z</time>
      </trkpt>
      <trkpt lat="46.21753" lon="6.86056">
        <ele>1733</ele>
        <time>2010-01-01T21:52:35Z</time>
      </trkpt>
      <trkpt lat="46.21744" lon="6.86068">
        <ele>1738</ele>
        <time>2010-01-01T21:52:40Z</time>
      </trkpt>
      <trkpt lat="46.21721" lon="6.86105">
        <ele>1731</ele>
        <time>2010-01-01T21:52:54Z</time>
      </trkpt>
      <trkpt lat="46.2171" lon="6.86119">
        <ele>1731</ele>
        <time>2010-01-01T21:53:00Z</time>
      </trkpt>
      <trkpt lat="46.21704" lon="6.86126">
        <ele>1730</ele>
        <time>2010-01-01T21:53:03Z</time>
      </trkpt>
      <trkpt lat="46.21701" lon="6.86124">
        <ele>1730</ele>
        <time>2010-01-01T21:53:04Z</time>
      </trkpt>
      <trkpt lat="46.21696" lon="6.8612">
        <ele>1731</ele>
        <time>2010-01-01T21:53:06Z</time>
      </trkpt>
      <trkpt lat="46.21672" lon="6.86093">
        <ele>1735</ele>
        <time>2010-01-01T21:53:19Z</time>
      </trkpt>
      <trkpt lat="46.2166" lon="6.86084">
        <ele>1734</ele>
        <time>2010-01-01T21:53:24Z</time>
      </trkpt>
      <trkpt lat="46.21637" lon="6.86057">
        <ele>1738</ele>
        <time>2010-01-01T21:53:36Z</time>
      </trkpt>
      <trkpt lat="46.21612" lon="6.86019">
        <ele>1739</ele>
        <time>2010-01-01T21:53:50Z</time>
      </trkpt>
      <trkpt lat="46.21601" lon="6.85999">
        <ele>1748</ele>
        <time>2010-01-01T21:53:57Z</time>
      </trkpt>
      <trkpt lat="46.21587" lon="6.85976">
        <ele>1750</ele>
        <time>2010-01-01T21:54:06Z</time>
      </trkpt>
      <trkpt lat="46.21576" lon="6.85959">
        <ele>1741</ele>
        <time>2010-01-01T21:54:12Z</time>
      </trkpt>
      <trkpt lat="46.2156" lon="6.85937">
        <ele>1743</ele>
        <time>2010-01-01T21:54:21Z</time>
      </trkpt>
      <trkpt lat="46.21553" lon="6.85927">
        <ele>1743</ele>
        <time>2010-01-01T21:54:25Z</time>
      </trkpt>
      <trkpt lat="46.21549" lon="6.85919">
        <ele>1742</ele>
        <time>2010-01-01T21:54:28Z</time>
      </trkpt>
      <trkpt lat="46.21535" lon="6.85866">
        <ele>1754</ele>
        <time>2010-01-01T21:54:44Z</time>
      </trkpt>
      <trkpt lat="46.21515" lon="6.85824">
        <ele>1759</ele>
        <time>2010-01-01T21:54:58Z</time>
      </trkpt>
      <trkpt lat="46.21483" lon="6.8578">
        <ele>1750</ele>
        <time>2010-01-01T21:55:15Z</time>
      </trkpt>
      <trkpt lat="46.21432" lon="6.85704">
        <ele>1757</ele>
        <time>2010-01-01T21:55:44Z</time>
      </trkpt>
      <trkpt lat="46.21413" lon="6.85679">
        <ele>1750</ele>
        <time>2010-01-01T21:55:55Z</time>
      </trkpt>
      <trkpt lat="46.214" lon="6.85667">
        <ele>1749</ele>
        <time>2010-01-01T21:56:01Z</time>
      </trkpt>
      <trkpt lat="46.21393" lon="6.85659">
        <ele>1756</ele>
        <time>2010-01-01T21:56:05Z</time>
      </trkpt>
      <trkpt lat="46.21387" lon="6.85656">
        <ele>1755</ele>
        <time>2010-01-01T21:56:07Z</time>
      </trkpt>
      <trkpt lat="46.21366" lon="6.85641">
        <ele>1753</ele>
        <time>2010-01-01T21:56:16Z</time>
      </trkpt>
      <trkpt lat="46.21355" lon="6.8563">
        <ele>1753</ele>
        <time>2010-01-01T21:56:22Z</time>
      </trkpt>
      <trkpt lat="46.21344" lon="6.85613">
        <ele>1754</ele>
        <time>2010-01-01T21:56:28Z</time>
      </trkpt>
      <trkpt lat="46.21336" lon="6.85598">
        <ele>1754</ele>
        <time>2010-01-01T21:56:34Z</time>
      </trkpt>
      <trkpt lat="46.2133" lon="6.85586">
        <ele>1751</ele>
        <time>2010-01-01T21:56:38Z</time>
      </trkpt>
      <trkpt lat="46.21327" lon="6.85581">
        <ele>1753</ele>
        <time>2010-01-01T21:56:40Z</time>
      </trkpt>
      <trkpt lat="46.21297" lon="6.85559">
        <ele>1750</ele>
        <time>2010-01-01T21:56:53Z</time>
      </trkpt>
      <trkpt lat="46.21276" lon="6.85537">
        <ele>1750</ele>
        <time>2010-01-01T21:57:03Z</time>
      </trkpt>
      <trkpt lat="46.21272" lon="6.8553">
        <ele>1750</ele>
        <time>2010-01-01T21:57:06Z</time>
      </trkpt>
      <trkpt lat="46.21267" lon="6.8552">
        <ele>1750</ele>
        <time>2010-01-01T21:57:09Z</time>
      </trkpt>
      <trkpt lat="46.21245" lon="6.85483">
        <ele>1749</ele>
        <time>2010-01-01T21:57:23Z</time>
      </trkpt>
      <trkpt lat="46.21235" lon="6.8547">
        <ele>1749</ele>
        <time>2010-01-01T21:57:28Z</time>
      </trkpt>
      <trkpt lat="46.2122" lon="6.85453">
        <ele>1749</ele>
        <time>2010-01-01T21:57:36Z</time>
      </trkpt>
      <trkpt lat="46.21208" lon="6.85443">
        <ele>1749</ele>
        <time>2010-01-01T21:57:42Z</time>
      </trkpt>
      <trkpt lat="46.21201" lon="6.85434">
        <ele>1748</ele>
        <time>2010-01-01T21:57:45Z</time>
      </trkpt>
      <trkpt lat="46.21196" lon="6.85428">
        <ele>1748</ele>
        <time>2010-01-01T21:57:48Z</time>
      </trkpt>
      <trkpt lat="46.21191" lon="6.85423">
        <ele>1748</ele>
        <time>2010-01-01T21:57:50Z</time>
      </trkpt>
      <trkpt lat="46.21184" lon="6.85422">
        <ele>1747</ele>
        <time>2010-01-01T21:57:53Z</time>
      </trkpt>
      <trkpt lat="46.21178" lon="6.8542">
        <ele>1746</ele>
        <time>2010-01-01T21:57:56Z</time>
      </trkpt>
      <trkpt lat="46.21168" lon="6.85414">
        <ele>1747</ele>
        <time>2010-01-01T21:58:00Z</time>
      </trkpt>
      <trkpt lat="46.21162" lon="6.85407">
        <ele>1743</ele>
        <time>2010-01-01T21:58:03Z</time>
      </trkpt>
      <trkpt lat="46.21156" lon="6.85399">
        <ele>1742</ele>
        <time>2010-01-01T21:58:06Z</time>
      </trkpt>
      <trkpt lat="46.21149" lon="6.85386">
        <ele>1742</ele>
        <time>2010-01-01T21:58:11Z</time>
      </trkpt>
      <trkpt lat="46.21143" lon="6.85379">
        <ele>1742</ele>
        <time>2010-01-01T21:58:14Z</time>
      </trkpt>
      <trkpt lat="46.21136" lon="6.85372">
        <ele>1742</ele>
        <time>2010-01-01T21:58:17Z</time>
      </trkpt>
      <trkpt lat="46.21132" lon="6.85368">
        <ele>1741</ele>
        <time>2010-01-01T21:58:19Z</time>
      </trkpt>
      <trkpt lat="46.21122" lon="6.85353">
        <ele>1741</ele>
        <time>2010-01-01T21:58:25Z</time>
      </trkpt>
      <trkpt lat="46.21119" lon="6.85342">
        <ele>1741</ele>
        <time>2010-01-01T21:58:28Z</time>
      </trkpt>
      <trkpt lat="46.21117" lon="6.85335">
        <ele>1740</ele>
        <time>2010-01-01T21:58:30Z</time>
      </trkpt>
      <trkpt lat="46.21112" lon="6.85333">
        <ele>1750</ele>
        <time>2010-01-01T21:58:32Z</time>
      </trkpt>
      <trkpt lat="46.21109" lon="6.85335">
        <ele>1739</ele>
        <time>2010-01-01T21:58:34Z</time>
      </trkpt>
      <trkpt lat="46.21109" lon="6.85336">
        <ele>1739</ele>
        <time>2010-01-01T21:58:34Z</time>
      </trkpt>
      <trkpt lat="46.2111" lon="6.85345">
        <ele>1739</ele>
        <time>2010-01-01T21:58:36Z</time>
      </trkpt>
      <trkpt lat="46.2111" lon="6.85345">
        <ele>1739</ele>
        <time>2010-01-01T21:58:36Z</time>
      </trkpt>
      <trkpt lat="46.21114" lon="6.85356">
        <ele>1739</ele>
        <time>2010-01-01T21:58:40Z</time>
      </trkpt>
      <trkpt lat="46.21114" lon="6.85357">
        <ele>1739</ele>
        <time>2010-01-01T21:58:40Z</time>
      </trkpt>
      <trkpt lat="46.21114" lon="6.85359">
        <ele>1739</ele>
        <time>2010-01-01T21:58:41Z</time>
      </trkpt>
      <trkpt lat="46.21121" lon="6.85383">
        <ele>1738</ele>
        <time>2010-01-01T21:58:48Z</time>
      </trkpt>
      <trkpt lat="46.21125" lon="6.85397">
        <ele>1738</ele>
        <time>2010-01-01T21:58:52Z</time>
      </trkpt>
      <trkpt lat="46.21126" lon="6.85398">
        <ele>1738</ele>
        <time>2010-01-01T21:58:52Z</time>
      </trkpt>
      <trkpt lat="46.21129" lon="6.85412">
        <ele>1738</ele>
        <time>2010-01-01T21:58:56Z</time>
      </trkpt>
      <trkpt lat="46.21133" lon="6.85423">
        <ele>1730</ele>
        <time>2010-01-01T21:59:00Z</time>
      </trkpt>
      <trkpt lat="46.21136" lon="6.85432">
        <ele>1730</ele>
        <time>2010-01-01T21:59:03Z</time>
      </trkpt>
      <trkpt lat="46.21137" lon="6.85433">
        <ele>1730</ele>
        <time>2010-01-01T21:59:03Z</time>
      </trkpt>
      <trkpt lat="46.21137" lon="6.85447">
        <ele>1729</ele>
        <time>2010-01-01T21:59:07Z</time>
      </trkpt>
      <trkpt lat="46.21133" lon="6.85465">
        <ele>1727</ele>
        <time>2010-01-01T21:59:12Z</time>
      </trkpt>
      <trkpt lat="46.21122" lon="6.8547">
        <ele>1725</ele>
        <time>2010-01-01T21:59:16Z</time>
      </trkpt>
      <trkpt lat="46.21109" lon="6.85482">
        <ele>1722</ele>
        <time>2010-01-01T21:59:23Z</time>
      </trkpt>
      <trkpt lat="46.21082" lon="6.85508">
        <ele>1712</ele>
        <time>2010-01-01T21:59:36Z</time>
      </trkpt>
      <trkpt lat="46.21055" lon="6.85533">
        <ele>1709</ele>
        <time>2010-01-01T21:59:49Z</time>
      </trkpt>
      <trkpt lat="46.20985" lon="6.85598">
        <ele>1703</ele>
        <time>2010-01-01T22:00:22Z</time>
      </trkpt>
      <trkpt lat="46.2097" lon="6.85621">
        <ele>1702</ele>
        <time>2010-01-01T22:00:30Z</time>
      </trkpt>
      <trkpt lat="46.20957" lon="6.85642">
        <ele>1701</ele>
        <time>2010-01-01T22:00:38Z</time>
      </trkpt>
      <trkpt lat="46.20948" lon="6.85651">
        <ele>1700</ele>
        <time>2010-01-01T22:00:43Z</time>
      </trkpt>
      <trkpt lat="46.20923" lon="6.8567">
        <ele>1697</ele>
        <time>2010-01-01T22:00:54Z</time>
      </trkpt>
      <trkpt lat="46.20906" lon="6.85675">
        <ele>1697</ele>
        <time>2010-01-01T22:01:01Z</time>
      </trkpt>
      <trkpt lat="46.20885" lon="6.85671">
        <ele>1697</ele>
        <time>2010-01-01T22:01:09Z</time>
      </trkpt>
      <trkpt lat="46.20869" lon="6.85646">
        <ele>1697</ele>
        <time>2010-01-01T22:01:19Z</time>
      </trkpt>
      <trkpt lat="46.20862" lon="6.85637">
        <ele>1697</ele>
        <time>2010-01-01T22:01:23Z</time>
      </trkpt>
      <trkpt lat="46.20849" lon="6.85632">
        <ele>1697</ele>
        <time>2010-01-01T22:01:28Z</time>
      </trkpt>
      <trkpt lat="46.20848" lon="6.85633">
        <ele>1697</ele>
        <time>2010-01-01T22:01:29Z</time>
      </trkpt>
      <trkpt lat="46.20833" lon="6.85641">
        <ele>1705</ele>
        <time>2010-01-01T22:01:35Z</time>
      </trkpt>
      <trkpt lat="46.20819" lon="6.85665">
        <ele>1703</ele>
        <time>2010-01-01T22:01:44Z</time>
      </trkpt>
      <trkpt lat="46.20769" lon="6.85737">
        <ele>1704</ele>
        <time>2010-01-01T22:02:12Z</time>
      </trkpt>
      <trkpt lat="46.20752" lon="6.85753">
        <ele>1704</ele>
        <time>2010-01-01T22:02:20Z</time>
      </trkpt>
      <trkpt lat="46.20728" lon="6.85762">
        <ele>1705</ele>
        <time>2010-01-01T22:02:30Z</time>
      </trkpt>
      <trkpt lat="46.20713" lon="6.85764">
        <ele>1705</ele>
        <time>2010-01-01T22:02:36Z</time>
      </trkpt>
      <trkpt lat="46.20685" lon="6.85783">
        <ele>1706</ele>
        <time>2010-01-01T22:02:48Z</time>
      </trkpt>
      <trkpt lat="46.20668" lon="6.85804">
        <ele>1704</ele>
        <time>2010-01-01T22:02:57Z</time>
      </trkpt>
      <trkpt lat="46.20667" lon="6.85806">
        <ele>1704</ele>
        <time>2010-01-01T22:02:58Z</time>
      </trkpt>
      <trkpt lat="46.20657" lon="6.85828">
        <ele>1705</ele>
        <time>2010-01-01T22:03:05Z</time>
      </trkpt>
      <trkpt lat="46.20645" lon="6.85844">
        <ele>1697</ele>
        <time>2010-01-01T22:03:12Z</time>
      </trkpt>
      <trkpt lat="46.20632" lon="6.85846">
        <ele>1696</ele>
        <time>2010-01-01T22:03:17Z</time>
      </trkpt>
      <trkpt lat="46.20616" lon="6.85844">
        <ele>1697</ele>
        <time>2010-01-01T22:03:23Z</time>
      </trkpt>
      <trkpt lat="46.20605" lon="6.85844">
        <ele>1698</ele>
        <time>2010-01-01T22:03:28Z</time>
      </trkpt>
      <trkpt lat="46.20581" lon="6.85833">
        <ele>1704</ele>
        <time>2010-01-01T22:03:38Z</time>
      </trkpt>
      <trkpt lat="46.2057" lon="6.85832">
        <ele>1707</ele>
        <time>2010-01-01T22:03:42Z</time>
      </trkpt>
      <trkpt lat="46.20556" lon="6.85827">
        <ele>1708</ele>
        <time>2010-01-01T22:03:48Z</time>
      </trkpt>
      <trkpt lat="46.20547" lon="6.85829">
        <ele>1708</ele>
        <time>2010-01-01T22:03:52Z</time>
      </trkpt>
      <trkpt lat="46.20534" lon="6.85832">
        <ele>1707</ele>
        <time>2010-01-01T22:03:57Z</time>
      </trkpt>
      <trkpt lat="46.20523" lon="6.85837">
        <ele>1694</ele>
        <time>2010-01-01T22:04:02Z</time>
      </trkpt>
      <trkpt lat="46.20517" lon="6.85837">
        <ele>1694</ele>
        <time>2010-01-01T22:04:04Z</time>
      </trkpt>
      <trkpt lat="46.20513" lon="6.85833">
        <ele>1703</ele>
        <time>2010-01-01T22:04:06Z</time>
      </trkpt>
      <trkpt lat="46.20509" lon="6.8583">
        <ele>1702</ele>
        <time>2010-01-01T22:04:08Z</time>
      </trkpt>
      <trkpt lat="46.20503" lon="6.85824">
        <ele>1702</ele>
        <time>2010-01-01T22:04:11Z</time>
      </trkpt>
      <trkpt lat="46.20503" lon="6.85833">
        <ele>1699</ele>
        <time>2010-01-01T22:04:13Z</time>
      </trkpt>
      <trkpt lat="46.20503" lon="6.85843">
        <ele>1695</ele>
        <time>2010-01-01T22:04:16Z</time>
      </trkpt>
      <trkpt lat="46.20506" lon="6.85852">
        <ele>1693</ele>
        <time>2010-01-01T22:04:19Z</time>
      </trkpt>
      <trkpt lat="46.20514" lon="6.85859">
        <ele>1692</ele>
        <time>2010-01-01T22:04:23Z</time>
      </trkpt>
      <trkpt lat="46.20521" lon="6.85864">
        <ele>1691</ele>
        <time>2010-01-01T22:04:26Z</time>
      </trkpt>
      <trkpt lat="46.20533" lon="6.85864">
        <ele>1691</ele>
        <time>2010-01-01T22:04:31Z</time>
      </trkpt>
      <trkpt lat="46.20543" lon="6.85863">
        <ele>1692</ele>
        <time>2010-01-01T22:04:35Z</time>
      </trkpt>
      <trkpt lat="46.20551" lon="6.85868">
        <ele>1692</ele>
        <time>2010-01-01T22:04:38Z</time>
      </trkpt>
      <trkpt lat="46.20565" lon="6.85871">
        <ele>1692</ele>
        <time>2010-01-01T22:04:44Z</time>
      </trkpt>
      <trkpt lat="46.20581" lon="6.85881">
        <ele>1691</ele>
        <time>2010-01-01T22:04:51Z</time>
      </trkpt>
      <trkpt lat="46.20592" lon="6.85899">
        <ele>1689</ele>
        <time>2010-01-01T22:04:57Z</time>
      </trkpt>
      <trkpt lat="46.20592" lon="6.85898">
        <ele>1689</ele>
        <time>2010-01-01T22:04:58Z</time>
      </trkpt>
      <trkpt lat="46.20607" lon="6.85906">
        <ele>1690</ele>
        <time>2010-01-01T22:05:04Z</time>
      </trkpt>
      <trkpt lat="46.20622" lon="6.85912">
        <ele>1690</ele>
        <time>2010-01-01T22:05:10Z</time>
      </trkpt>
      <trkpt lat="46.20624" lon="6.85914">
        <ele>1689</ele>
        <time>2010-01-01T22:05:11Z</time>
      </trkpt>
      <trkpt lat="46.20652" lon="6.85928">
        <ele>1678</ele>
        <time>2010-01-01T22:05:23Z</time>
      </trkpt>
      <trkpt lat="46.20694" lon="6.85937">
        <ele>1675</ele>
        <time>2010-01-01T22:05:40Z</time>
      </trkpt>
      <trkpt lat="46.20731" lon="6.85952">
        <ele>1673</ele>
        <time>2010-01-01T22:05:55Z</time>
      </trkpt>
      <trkpt lat="46.20745" lon="6.85965">
        <ele>1671</ele>
        <time>2010-01-01T22:06:02Z</time>
      </trkpt>
      <trkpt lat="46.20746" lon="6.85975">
        <ele>1669</ele>
        <time>2010-01-01T22:06:05Z</time>
      </trkpt>
      <trkpt lat="46.20742" lon="6.85985">
        <ele>1667</ele>
        <time>2010-01-01T22:06:08Z</time>
      </trkpt>
      <trkpt lat="46.20727" lon="6.86004">
        <ele>1659</ele>
        <time>2010-01-01T22:06:16Z</time>
      </trkpt>
      <trkpt lat="46.20705" lon="6.86021">
        <ele>1658</ele>
        <time>2010-01-01T22:06:26Z</time>
      </trkpt>
      <trkpt lat="46.2069" lon="6.86012">
        <ele>1659</ele>
        <time>2010-01-01T22:06:32Z</time>
      </trkpt>
      <trkpt lat="46.20679" lon="6.85998">
        <ele>1668</ele>
        <time>2010-01-01T22:06:38Z</time>
      </trkpt>
      <trkpt lat="46.20676" lon="6.85984">
        <ele>1669</ele>
        <time>2010-01-01T22:06:42Z</time>
      </trkpt>
      <trkpt lat="46.20676" lon="6.85999">
        <ele>1667</ele>
        <time>2010-01-01T22:06:46Z</time>
      </trkpt>
      <trkpt lat="46.20668" lon="6.86">
        <ele>1665</ele>
        <time>2010-01-01T22:06:50Z</time>
      </trkpt>
      <trkpt lat="46.20665" lon="6.85992">
        <ele>1668</ele>
        <time>2010-01-01T22:06:52Z</time>
      </trkpt>
      <trkpt lat="46.20648" lon="6.85891">
        <ele>1690</ele>
        <time>2010-01-01T22:07:21Z</time>
      </trkpt>
      <trkpt lat="46.20653" lon="6.85892">
        <ele>1690</ele>
        <time>2010-01-01T22:07:23Z</time>
      </trkpt>
      <trkpt lat="46.20642" lon="6.85852">
        <ele>1696</ele>
        <time>2010-01-01T22:07:34Z</time>
      </trkpt>
      <trkpt lat="46.20638" lon="6.85824">
        <ele>1707</ele>
        <time>2010-01-01T22:07:42Z</time>
      </trkpt>
      <trkpt lat="46.20631" lon="6.85791">
        <ele>1710</ele>
        <time>2010-01-01T22:07:52Z</time>
      </trkpt>
      <trkpt lat="46.20625" lon="6.85753">
        <ele>1712</ele>
        <time>2010-01-01T22:08:03Z</time>
      </trkpt>
      <trkpt lat="46.20616" lon="6.85704">
        <ele>1728</ele>
        <time>2010-01-01T22:08:17Z</time>
      </trkpt>
      <trkpt lat="46.20612" lon="6.85678">
        <ele>1732</ele>
        <time>2010-01-01T22:08:24Z</time>
      </trkpt>
      <trkpt lat="46.20595" lon="6.85577">
        <ele>1777</ele>
        <time>2010-01-01T22:08:53Z</time>
      </trkpt>
      <trkpt lat="46.20583" lon="6.85509">
        <ele>1802</ele>
        <time>2010-01-01T22:09:12Z</time>
      </trkpt>
      <trkpt lat="46.2058" lon="6.85491">
        <ele>1810</ele>
        <time>2010-01-01T22:09:17Z</time>
      </trkpt>
      <trkpt lat="46.20577" lon="6.85473">
        <ele>1816</ele>
        <time>2010-01-01T22:09:22Z</time>
      </trkpt>
      <trkpt lat="46.20575" lon="6.85454">
        <ele>1820</ele>
        <time>2010-01-01T22:09:28Z</time>
      </trkpt>
      <trkpt lat="46.20573" lon="6.8544">
        <ele>1822</ele>
        <time>2010-01-01T22:09:32Z</time>
      </trkpt>
      <trkpt lat="46.20569" lon="6.85423">
        <ele>1823</ele>
        <time>2010-01-01T22:09:37Z</time>
      </trkpt>
      <trkpt lat="46.20568" lon="6.85414">
        <ele>1832</ele>
        <time>2010-01-01T22:09:39Z</time>
      </trkpt>
      <trkpt lat="46.20565" lon="6.85394">
        <ele>1835</ele>
        <time>2010-01-01T22:09:45Z</time>
      </trkpt>
      <trkpt lat="46.20563" lon="6.85381">
        <ele>1838</ele>
        <time>2010-01-01T22:09:49Z</time>
      </trkpt>
      <trkpt lat="46.20563" lon="6.85381">
        <ele>1838</ele>
        <time>2010-01-01T22:09:49Z</time>
      </trkpt>
      <trkpt lat="46.20561" lon="6.85366">
        <ele>1840</ele>
        <time>2010-01-01T22:09:53Z</time>
      </trkpt>
      <trkpt lat="46.20559" lon="6.85358">
        <ele>1841</ele>
        <time>2010-01-01T22:09:55Z</time>
      </trkpt>
      <trkpt lat="46.20557" lon="6.85349">
        <ele>1842</ele>
        <time>2010-01-01T22:09:58Z</time>
      </trkpt>
      <trkpt lat="46.20554" lon="6.85334">
        <ele>1843</ele>
        <time>2010-01-01T22:10:02Z</time>
      </trkpt>
      <trkpt lat="46.2055" lon="6.85318">
        <ele>1857</ele>
        <time>2010-01-01T22:10:07Z</time>
      </trkpt>
      <trkpt lat="46.20545" lon="6.85291">
        <ele>1862</ele>
        <time>2010-01-01T22:10:15Z</time>
      </trkpt>
      <trkpt lat="46.20538" lon="6.85246">
        <ele>1886</ele>
        <time>2010-01-01T22:10:27Z</time>
      </trkpt>
      <trkpt lat="46.20524" lon="6.85163">
        <ele>1922</ele>
        <time>2010-01-01T22:10:51Z</time>
      </trkpt>
      <trkpt lat="46.20506" lon="6.85055">
        <ele>1958</ele>
        <time>2010-01-01T22:11:22Z</time>
      </trkpt>
      <trkpt lat="46.2048" lon="6.84891">
        <ele>1996</ele>
        <time>2010-01-01T22:12:09Z</time>
      </trkpt>
      <trkpt lat="46.20466" lon="6.84808">
        <ele>2004</ele>
        <time>2010-01-01T22:12:32Z</time>
      </trkpt>
      <trkpt lat="46.20433" lon="6.84707">
        <ele>2007</ele>
        <time>2010-01-01T22:13:03Z</time>
      </trkpt>
      <trkpt lat="46.20364" lon="6.84621">
        <ele>2014</ele>
        <time>2010-01-01T22:13:40Z</time>
      </trkpt>
      <trkpt lat="46.20251" lon="6.84524">
        <ele>2008</ele>
        <time>2010-01-01T22:14:32Z</time>
      </trkpt>
      <trkpt lat="46.20227" lon="6.84499">
        <ele>2011</ele>
        <time>2010-01-01T22:14:44Z</time>
      </trkpt>
      <trkpt lat="46.20207" lon="6.84481">
        <ele>2011</ele>
        <time>2010-01-01T22:14:53Z</time>
      </trkpt>
      <trkpt lat="46.20189" lon="6.84467">
        <ele>2013</ele>
        <time>2010-01-01T22:15:02Z</time>
      </trkpt>
      <trkpt lat="46.20177" lon="6.84455">
        <ele>2014</ele>
        <time>2010-01-01T22:15:08Z</time>
      </trkpt>
      <trkpt lat="46.20167" lon="6.84441">
        <ele>2018</ele>
        <time>2010-01-01T22:15:13Z</time>
      </trkpt>
      <trkpt lat="46.20167" lon="6.8444">
        <ele>2021</ele>
        <time>2010-01-01T22:15:13Z</time>
      </trkpt>
      <trkpt lat="46.20159" lon="6.84431">
        <ele>2023</ele>
        <time>2010-01-01T22:15:17Z</time>
      </trkpt>
      <trkpt lat="46.20158" lon="6.8443">
        <ele>2023</ele>
        <time>2010-01-01T22:15:18Z</time>
      </trkpt>
      <trkpt lat="46.20146" lon="6.84423">
        <ele>2022</ele>
        <time>2010-01-01T22:15:23Z</time>
      </trkpt>
      <trkpt lat="46.20125" lon="6.84419">
        <ele>2021</ele>
        <time>2010-01-01T22:15:31Z</time>
      </trkpt>
      <trkpt lat="46.20105" lon="6.84414">
        <ele>2033</ele>
        <time>2010-01-01T22:15:39Z</time>
      </trkpt>
      <trkpt lat="46.20095" lon="6.8441">
        <ele>2033</ele>
        <time>2010-01-01T22:15:44Z</time>
      </trkpt>
      <trkpt lat="46.20084" lon="6.84403">
        <ele>2034</ele>
        <time>2010-01-01T22:15:49Z</time>
      </trkpt>
      <trkpt lat="46.20075" lon="6.84396">
        <ele>2039</ele>
        <time>2010-01-01T22:15:53Z</time>
      </trkpt>
      <trkpt lat="46.20058" lon="6.84385">
        <ele>2042</ele>
        <time>2010-01-01T22:16:00Z</time>
      </trkpt>
      <trkpt lat="46.20054" lon="6.84381">
        <ele>2043</ele>
        <time>2010-01-01T22:16:02Z</time>
      </trkpt>
      <trkpt lat="46.20049" lon="6.84385">
        <ele>2043</ele>
        <time>2010-01-01T22:16:04Z</time>
      </trkpt>
      <trkpt lat="46.20047" lon="6.84391">
        <ele>2042</ele>
        <time>2010-01-01T22:16:06Z</time>
      </trkpt>
      <trkpt lat="46.20043" lon="6.84393">
        <ele>2041</ele>
        <time>2010-01-01T22:16:08Z</time>
      </trkpt>
      <trkpt lat="46.20038" lon="6.84396">
        <ele>2041</ele>
        <time>2010-01-01T22:16:10Z</time>
      </trkpt>
      <trkpt lat="46.2003" lon="6.84397">
        <ele>2040</ele>
        <time>2010-01-01T22:16:13Z</time>
      </trkpt>
      <trkpt lat="46.20025" lon="6.84397">
        <ele>2040</ele>
        <time>2010-01-01T22:16:15Z</time>
      </trkpt>
      <trkpt lat="46.20019" lon="6.84397">
        <ele>2039</ele>
        <time>2010-01-01T22:16:17Z</time>
      </trkpt>
      <trkpt lat="46.20012" lon="6.84398">
        <ele>2038</ele>
        <time>2010-01-01T22:16:20Z</time>
      </trkpt>
      <trkpt lat="46.2" lon="6.84396">
        <ele>2038</ele>
        <time>2010-01-01T22:16:25Z</time>
      </trkpt>
      <trkpt lat="46.19992" lon="6.84392">
        <ele>2034</ele>
        <time>2010-01-01T22:16:28Z</time>
      </trkpt>
      <trkpt lat="46.19991" lon="6.84392">
        <ele>2034</ele>
        <time>2010-01-01T22:16:29Z</time>
      </trkpt>
      <trkpt lat="46.19983" lon="6.8438">
        <ele>2036</ele>
        <time>2010-01-01T22:16:33Z</time>
      </trkpt>
      <trkpt lat="46.19975" lon="6.84372">
        <ele>2038</ele>
        <time>2010-01-01T22:16:37Z</time>
      </trkpt>
      <trkpt lat="46.19956" lon="6.84356">
        <ele>2038</ele>
        <time>2010-01-01T22:16:46Z</time>
      </trkpt>
      <trkpt lat="46.19927" lon="6.84339">
        <ele>2040</ele>
        <time>2010-01-01T22:16:58Z</time>
      </trkpt>
      <trkpt lat="46.19921" lon="6.84326">
        <ele>2049</ele>
        <time>2010-01-01T22:17:03Z</time>
      </trkpt>
      <trkpt lat="46.19913" lon="6.84314">
        <ele>2044</ele>
        <time>2010-01-01T22:17:08Z</time>
      </trkpt>
      <trkpt lat="46.19908" lon="6.843">
        <ele>2046</ele>
        <time>2010-01-01T22:17:12Z</time>
      </trkpt>
      <trkpt lat="46.19904" lon="6.84292">
        <ele>2047</ele>
        <time>2010-01-01T22:17:15Z</time>
      </trkpt>
      <trkpt lat="46.19901" lon="6.84284">
        <ele>2049</ele>
        <time>2010-01-01T22:17:17Z</time>
      </trkpt>
      <trkpt lat="46.19858" lon="6.84259">
        <ele>2047</ele>
        <time>2010-01-01T22:17:36Z</time>
      </trkpt>
      <trkpt lat="46.19833" lon="6.84245">
        <ele>2052</ele>
        <time>2010-01-01T22:17:46Z</time>
      </trkpt>
      <trkpt lat="46.19821" lon="6.84247">
        <ele>2053</ele>
        <time>2010-01-01T22:17:51Z</time>
      </trkpt>
      <trkpt lat="46.19793" lon="6.84231">
        <ele>2054</ele>
        <time>2010-01-01T22:18:03Z</time>
      </trkpt>
      <trkpt lat="46.19767" lon="6.84234">
        <ele>2048</ele>
        <time>2010-01-01T22:18:14Z</time>
      </trkpt>
      <trkpt lat="46.1974" lon="6.84242">
        <ele>2034</ele>
        <time>2010-01-01T22:18:25Z</time>
      </trkpt>
      <trkpt lat="46.19719" lon="6.8424">
        <ele>2032</ele>
        <time>2010-01-01T22:18:33Z</time>
      </trkpt>
      <trkpt lat="46.19711" lon="6.84234">
        <ele>2031</ele>
        <time>2010-01-01T22:18:37Z</time>
      </trkpt>
      <trkpt lat="46.19709" lon="6.84224">
        <ele>2032</ele>
        <time>2010-01-01T22:18:40Z</time>
      </trkpt>
      <trkpt lat="46.19708" lon="6.84206">
        <ele>2034</ele>
        <time>2010-01-01T22:18:45Z</time>
      </trkpt>
      <trkpt lat="46.19688" lon="6.84199">
        <ele>2031</ele>
        <time>2010-01-01T22:18:53Z</time>
      </trkpt>
      <trkpt lat="46.19675" lon="6.84194">
        <ele>2030</ele>
        <time>2010-01-01T22:18:58Z</time>
      </trkpt>
      <trkpt lat="46.19662" lon="6.84209">
        <ele>2013</ele>
        <time>2010-01-01T22:19:05Z</time>
      </trkpt>
      <trkpt lat="46.19645" lon="6.84227">
        <ele>2011</ele>
        <time>2010-01-01T22:19:13Z</time>
      </trkpt>
      <trkpt lat="46.1963" lon="6.84238">
        <ele>2008</ele>
        <time>2010-01-01T22:19:20Z</time>
      </trkpt>
      <trkpt lat="46.19619" lon="6.84246">
        <ele>2006</ele>
        <time>2010-01-01T22:19:25Z</time>
      </trkpt>
      <trkpt lat="46.19618" lon="6.84246">
        <ele>2006</ele>
        <time>2010-01-01T22:19:26Z</time>
      </trkpt>
      <trkpt lat="46.19602" lon="6.84247">
        <ele>2002</ele>
        <time>2010-01-01T22:19:32Z</time>
      </trkpt>
      <trkpt lat="46.19593" lon="6.84242">
        <ele>2000</ele>
        <time>2010-01-01T22:19:36Z</time>
      </trkpt>
      <trkpt lat="46.19585" lon="6.8422">
        <ele>2003</ele>
        <time>2010-01-01T22:19:43Z</time>
      </trkpt>
      <trkpt lat="46.19578" lon="6.84194">
        <ele>1986</ele>
        <time>2010-01-01T22:19:51Z</time>
      </trkpt>
      <trkpt lat="46.19575" lon="6.84174">
        <ele>1991</ele>
        <time>2010-01-01T22:19:56Z</time>
      </trkpt>
      <trkpt lat="46.19572" lon="6.84159">
        <ele>1992</ele>
        <time>2010-01-01T22:20:01Z</time>
      </trkpt>
      <trkpt lat="46.19562" lon="6.84117">
        <ele>1987</ele>
        <time>2010-01-01T22:20:13Z</time>
      </trkpt>
      <trkpt lat="46.19551" lon="6.84064">
        <ele>1987</ele>
        <time>2010-01-01T22:20:28Z</time>
      </trkpt>
      <trkpt lat="46.19549" lon="6.84059">
        <ele>1987</ele>
        <time>2010-01-01T22:20:30Z</time>
      </trkpt>
      <trkpt lat="46.1954" lon="6.83985">
        <ele>1985</ele>
        <time>2010-01-01T22:20:51Z</time>
      </trkpt>
      <trkpt lat="46.19528" lon="6.83928">
        <ele>1980</ele>
        <time>2010-01-01T22:21:07Z</time>
      </trkpt>
      <trkpt lat="46.1953" lon="6.83902">
        <ele>1980</ele>
        <time>2010-01-01T22:21:14Z</time>
      </trkpt>
      <trkpt lat="46.19525" lon="6.83864">
        <ele>1979</ele>
        <time>2010-01-01T22:21:25Z</time>
      </trkpt>
      <trkpt lat="46.19522" lon="6.83847">
        <ele>1977</ele>
        <time>2010-01-01T22:21:30Z</time>
      </trkpt>
      <trkpt lat="46.19518" lon="6.83845">
        <ele>1975</ele>
        <time>2010-01-01T22:21:32Z</time>
      </trkpt>
      <trkpt lat="46.19509" lon="6.83867">
        <ele>1976</ele>
        <time>2010-01-01T22:21:39Z</time>
      </trkpt>
      <trkpt lat="46.19501" lon="6.83886">
        <ele>1975</ele>
        <time>2010-01-01T22:21:45Z</time>
      </trkpt>
      <trkpt lat="46.19493" lon="6.83895">
        <ele>1955</ele>
        <time>2010-01-01T22:21:49Z</time>
      </trkpt>
      <trkpt lat="46.19479" lon="6.83903">
        <ele>1953</ele>
        <time>2010-01-01T22:21:55Z</time>
      </trkpt>
      <trkpt lat="46.19472" lon="6.83913">
        <ele>1952</ele>
        <time>2010-01-01T22:21:59Z</time>
      </trkpt>
      <trkpt lat="46.19466" lon="6.83932">
        <ele>1951</ele>
        <time>2010-01-01T22:22:05Z</time>
      </trkpt>
      <trkpt lat="46.1946" lon="6.83959">
        <ele>1950</ele>
        <time>2010-01-01T22:22:13Z</time>
      </trkpt>
      <trkpt lat="46.19449" lon="6.83977">
        <ele>1948</ele>
        <time>2010-01-01T22:22:19Z</time>
      </trkpt>
      <trkpt lat="46.19435" lon="6.83976">
        <ele>1946</ele>
        <time>2010-01-01T22:22:25Z</time>
      </trkpt>
      <trkpt lat="46.19424" lon="6.83961">
        <ele>1946</ele>
        <time>2010-01-01T22:22:31Z</time>
      </trkpt>
      <trkpt lat="46.19388" lon="6.83876">
        <ele>1925</ele>
        <time>2010-01-01T22:22:58Z</time>
      </trkpt>
      <trkpt lat="46.19372" lon="6.83847">
        <ele>1922</ele>
        <time>2010-01-01T22:23:09Z</time>
      </trkpt>
      <trkpt lat="46.19355" lon="6.83815">
        <ele>1916</ele>
        <time>2010-01-01T22:23:20Z</time>
      </trkpt>
      <trkpt lat="46.19349" lon="6.83779">
        <ele>1914</ele>
        <time>2010-01-01T22:23:30Z</time>
      </trkpt>
      <trkpt lat="46.1937" lon="6.83732">
        <ele>1911</ele>
        <time>2010-01-01T22:23:46Z</time>
      </trkpt>
      <trkpt lat="46.19384" lon="6.83705">
        <ele>1912</ele>
        <time>2010-01-01T22:23:55Z</time>
      </trkpt>
      <trkpt lat="46.19384" lon="6.83685">
        <ele>1912</ele>
        <time>2010-01-01T22:24:01Z</time>
      </trkpt>
      <trkpt lat="46.19376" lon="6.83675">
        <ele>1910</ele>
        <time>2010-01-01T22:24:05Z</time>
      </trkpt>
      <trkpt lat="46.19352" lon="6.83694">
        <ele>1907</ele>
        <time>2010-01-01T22:24:16Z</time>
      </trkpt>
      <trkpt lat="46.19326" lon="6.83716">
        <ele>1892</ele>
        <time>2010-01-01T22:24:28Z</time>
      </trkpt>
      <trkpt lat="46.19297" lon="6.83733">
        <ele>1889</ele>
        <time>2010-01-01T22:24:40Z</time>
      </trkpt>
      <trkpt lat="46.19293" lon="6.83746">
        <ele>1889</ele>
        <time>2010-01-01T22:24:45Z</time>
      </trkpt>
      <trkpt lat="46.19292" lon="6.83749">
        <ele>1889</ele>
        <time>2010-01-01T22:24:45Z</time>
      </trkpt>
      <trkpt lat="46.19285" lon="6.83779">
        <ele>1891</ele>
        <time>2010-01-01T22:24:54Z</time>
      </trkpt>
      <trkpt lat="46.19284" lon="6.83783">
        <ele>1891</ele>
        <time>2010-01-01T22:24:55Z</time>
      </trkpt>
      <trkpt lat="46.1928" lon="6.83811">
        <ele>1890</ele>
        <time>2010-01-01T22:25:03Z</time>
      </trkpt>
      <trkpt lat="46.19264" lon="6.83828">
        <ele>1885</ele>
        <time>2010-01-01T22:25:11Z</time>
      </trkpt>
      <trkpt lat="46.19246" lon="6.83825">
        <ele>1874</ele>
        <time>2010-01-01T22:25:18Z</time>
      </trkpt>
      <trkpt lat="46.19246" lon="6.83824">
        <ele>1873</ele>
        <time>2010-01-01T22:25:19Z</time>
      </trkpt>
      <trkpt lat="46.19224" lon="6.83803">
        <ele>1866</ele>
        <time>2010-01-01T22:25:29Z</time>
      </trkpt>
      <trkpt lat="46.19222" lon="6.83776">
        <ele>1865</ele>
        <time>2010-01-01T22:25:37Z</time>
      </trkpt>
      <trkpt lat="46.19223" lon="6.83706">
        <ele>1862</ele>
        <time>2010-01-01T22:25:56Z</time>
      </trkpt>
      <trkpt lat="46.19229" lon="6.836">
        <ele>1857</ele>
        <time>2010-01-01T22:26:26Z</time>
      </trkpt>
      <trkpt lat="46.19233" lon="6.83568">
        <ele>1854</ele>
        <time>2010-01-01T22:26:35Z</time>
      </trkpt>
      <trkpt lat="46.19229" lon="6.83555">
        <ele>1852</ele>
        <time>2010-01-01T22:26:39Z</time>
      </trkpt>
      <trkpt lat="46.1921" lon="6.83563">
        <ele>1850</ele>
        <time>2010-01-01T22:26:46Z</time>
      </trkpt>
      <trkpt lat="46.19193" lon="6.83564">
        <ele>1848</ele>
        <time>2010-01-01T22:26:53Z</time>
      </trkpt>
      <trkpt lat="46.19173" lon="6.83566">
        <ele>1846</ele>
        <time>2010-01-01T22:27:01Z</time>
      </trkpt>
      <trkpt lat="46.19148" lon="6.83565">
        <ele>1839</ele>
        <time>2010-01-01T22:27:11Z</time>
      </trkpt>
      <trkpt lat="46.19124" lon="6.83563">
        <ele>1837</ele>
        <time>2010-01-01T22:27:21Z</time>
      </trkpt>
      <trkpt lat="46.19108" lon="6.83573">
        <ele>1835</ele>
        <time>2010-01-01T22:27:28Z</time>
      </trkpt>
      <trkpt lat="46.19086" lon="6.8361">
        <ele>1831</ele>
        <time>2010-01-01T22:27:41Z</time>
      </trkpt>
      <trkpt lat="46.19064" lon="6.83645">
        <ele>1818</ele>
        <time>2010-01-01T22:27:55Z</time>
      </trkpt>
      <trkpt lat="46.19049" lon="6.8366">
        <ele>1816</ele>
        <time>2010-01-01T22:28:02Z</time>
      </trkpt>
      <trkpt lat="46.19033" lon="6.83643">
        <ele>1815</ele>
        <time>2010-01-01T22:28:10Z</time>
      </trkpt>
      <trkpt lat="46.19015" lon="6.83621">
        <ele>1815</ele>
        <time>2010-01-01T22:28:20Z</time>
      </trkpt>
      <trkpt lat="46.18998" lon="6.83611">
        <ele>1804</ele>
        <time>2010-01-01T22:28:27Z</time>
      </trkpt>
      <trkpt lat="46.18978" lon="6.83599">
        <ele>1803</ele>
        <time>2010-01-01T22:28:35Z</time>
      </trkpt>
      <trkpt lat="46.18976" lon="6.83596">
        <ele>1803</ele>
        <time>2010-01-01T22:28:37Z</time>
      </trkpt>
      <trkpt lat="46.18967" lon="6.83528">
        <ele>1811</ele>
        <time>2010-01-01T22:28:56Z</time>
      </trkpt>
      <trkpt lat="46.18959" lon="6.83492">
        <ele>1819</ele>
        <time>2010-01-01T22:29:06Z</time>
      </trkpt>
      <trkpt lat="46.18945" lon="6.83466">
        <ele>1818</ele>
        <time>2010-01-01T22:29:15Z</time>
      </trkpt>
      <trkpt lat="46.18924" lon="6.8345">
        <ele>1818</ele>
        <time>2010-01-01T22:29:25Z</time>
      </trkpt>
      <trkpt lat="46.18908" lon="6.83434">
        <ele>1806</ele>
        <time>2010-01-01T22:29:32Z</time>
      </trkpt>
      <trkpt lat="46.18891" lon="6.83415">
        <ele>1813</ele>
        <time>2010-01-01T22:29:41Z</time>
      </trkpt>
      <trkpt lat="46.18864" lon="6.83391">
        <ele>1808</ele>
        <time>2010-01-01T22:29:54Z</time>
      </trkpt>
      <trkpt lat="46.18855" lon="6.83375">
        <ele>1808</ele>
        <time>2010-01-01T22:29:59Z</time>
      </trkpt>
      <trkpt lat="46.18841" lon="6.83329">
        <ele>1810</ele>
        <time>2010-01-01T22:30:13Z</time>
      </trkpt>
      <trkpt lat="46.18817" lon="6.83247">
        <ele>1813</ele>
        <time>2010-01-01T22:30:38Z</time>
      </trkpt>
      <trkpt lat="46.18794" lon="6.83227">
        <ele>1809</ele>
        <time>2010-01-01T22:30:49Z</time>
      </trkpt>
      <trkpt lat="46.18774" lon="6.83216">
        <ele>1807</ele>
        <time>2010-01-01T22:30:57Z</time>
      </trkpt>
      <trkpt lat="46.1876" lon="6.83163">
        <ele>1812</ele>
        <time>2010-01-01T22:31:13Z</time>
      </trkpt>
      <trkpt lat="46.18758" lon="6.8316">
        <ele>1811</ele>
        <time>2010-01-01T22:31:14Z</time>
      </trkpt>
      <trkpt lat="46.18741" lon="6.83138">
        <ele>1800</ele>
        <time>2010-01-01T22:31:24Z</time>
      </trkpt>
      <trkpt lat="46.18733" lon="6.83092">
        <ele>1805</ele>
        <time>2010-01-01T22:31:37Z</time>
      </trkpt>
      <trkpt lat="46.18731" lon="6.8304">
        <ele>1810</ele>
        <time>2010-01-01T22:31:51Z</time>
      </trkpt>
      <trkpt lat="46.18731" lon="6.83021">
        <ele>1813</ele>
        <time>2010-01-01T22:31:56Z</time>
      </trkpt>
      <trkpt lat="46.1872" lon="6.82993">
        <ele>1817</ele>
        <time>2010-01-01T22:32:05Z</time>
      </trkpt>
      <trkpt lat="46.18712" lon="6.82927">
        <ele>1818</ele>
        <time>2010-01-01T22:32:24Z</time>
      </trkpt>
      <trkpt lat="46.18714" lon="6.82875">
        <ele>1823</ele>
        <time>2010-01-01T22:32:38Z</time>
      </trkpt>
      <trkpt lat="46.18711" lon="6.8282">
        <ele>1825</ele>
        <time>2010-01-01T22:32:54Z</time>
      </trkpt>
      <trkpt lat="46.1871" lon="6.82748">
        <ele>1830</ele>
        <time>2010-01-01T22:33:13Z</time>
      </trkpt>
      <trkpt lat="46.18708" lon="6.82685">
        <ele>1832</ele>
        <time>2010-01-01T22:33:31Z</time>
      </trkpt>
      <trkpt lat="46.18703" lon="6.82641">
        <ele>1839</ele>
        <time>2010-01-01T22:33:43Z</time>
      </trkpt>
      <trkpt lat="46.18692" lon="6.8261">
        <ele>1840</ele>
        <time>2010-01-01T22:33:53Z</time>
      </trkpt>
      <trkpt lat="46.18669" lon="6.82592">
        <ele>1835</ele>
        <time>2010-01-01T22:34:03Z</time>
      </trkpt>
      <trkpt lat="46.18638" lon="6.8256">
        <ele>1838</ele>
        <time>2010-01-01T22:34:19Z</time>
      </trkpt>
      <trkpt lat="46.18595" lon="6.82538">
        <ele>1839</ele>
        <time>2010-01-01T22:34:37Z</time>
      </trkpt>
      <trkpt lat="46.18498" lon="6.82496">
        <ele>1836</ele>
        <time>2010-01-01T22:35:17Z</time>
      </trkpt>
      <trkpt lat="46.18472" lon="6.82469">
        <ele>1843</ele>
        <time>2010-01-01T22:35:30Z</time>
      </trkpt>
      <trkpt lat="46.18458" lon="6.82446">
        <ele>1845</ele>
        <time>2010-01-01T22:35:39Z</time>
      </trkpt>
      <trkpt lat="46.18449" lon="6.82424">
        <ele>1846</ele>
        <time>2010-01-01T22:35:46Z</time>
      </trkpt>
      <trkpt lat="46.18434" lon="6.82421">
        <ele>1846</ele>
        <time>2010-01-01T22:35:52Z</time>
      </trkpt>
      <trkpt lat="46.18424" lon="6.82438">
        <ele>1844</ele>
        <time>2010-01-01T22:35:58Z</time>
      </trkpt>
      <trkpt lat="46.18415" lon="6.8247">
        <ele>1836</ele>
        <time>2010-01-01T22:36:07Z</time>
      </trkpt>
      <trkpt lat="46.18395" lon="6.82472">
        <ele>1836</ele>
        <time>2010-01-01T22:36:15Z</time>
      </trkpt>
      <trkpt lat="46.1839" lon="6.8247">
        <ele>1837</ele>
        <time>2010-01-01T22:36:18Z</time>
      </trkpt>
      <trkpt lat="46.18404" lon="6.82473">
        <ele>1836</ele>
        <time>2010-01-01T22:36:23Z</time>
      </trkpt>
      <trkpt lat="46.18376" lon="6.82468">
        <ele>1837</ele>
        <time>2010-01-01T22:36:35Z</time>
      </trkpt>
      <trkpt lat="46.18361" lon="6.82451">
        <ele>1839</ele>
        <time>2010-01-01T22:36:42Z</time>
      </trkpt>
      <trkpt lat="46.18337" lon="6.82426">
        <ele>1842</ele>
        <time>2010-01-01T22:36:54Z</time>
      </trkpt>
      <trkpt lat="46.18309" lon="6.82405">
        <ele>1846</ele>
        <time>2010-01-01T22:37:07Z</time>
      </trkpt>
      <trkpt lat="46.18268" lon="6.82379">
        <ele>1847</ele>
        <time>2010-01-01T22:37:25Z</time>
      </trkpt>
      <trkpt lat="46.18245" lon="6.82373">
        <ele>1846</ele>
        <time>2010-01-01T22:37:34Z</time>
      </trkpt>
      <trkpt lat="46.18228" lon="6.82344">
        <ele>1848</ele>
        <time>2010-01-01T22:37:44Z</time>
      </trkpt>
      <trkpt lat="46.18218" lon="6.82326">
        <ele>1857</ele>
        <time>2010-01-01T22:37:51Z</time>
      </trkpt>
      <trkpt lat="46.18204" lon="6.8232">
        <ele>1857</ele>
        <time>2010-01-01T22:37:57Z</time>
      </trkpt>
      <trkpt lat="46.18187" lon="6.8234">
        <ele>1848</ele>
        <time>2010-01-01T22:38:05Z</time>
      </trkpt>
      <trkpt lat="46.1818" lon="6.82359">
        <ele>1846</ele>
        <time>2010-01-01T22:38:11Z</time>
      </trkpt>
      <trkpt lat="46.18166" lon="6.82371">
        <ele>1845</ele>
        <time>2010-01-01T22:38:18Z</time>
      </trkpt>
      <trkpt lat="46.18153" lon="6.82395">
        <ele>1841</ele>
        <time>2010-01-01T22:38:26Z</time>
      </trkpt>
      <trkpt lat="46.18147" lon="6.82417">
        <ele>1833</ele>
        <time>2010-01-01T22:38:33Z</time>
      </trkpt>
      <trkpt lat="46.18128" lon="6.82431">
        <ele>1832</ele>
        <time>2010-01-01T22:38:41Z</time>
      </trkpt>
      <trkpt lat="46.1811" lon="6.82432">
        <ele>1832</ele>
        <time>2010-01-01T22:38:48Z</time>
      </trkpt>
      <trkpt lat="46.1809" lon="6.82437">
        <ele>1833</ele>
        <time>2010-01-01T22:38:56Z</time>
      </trkpt>
      <trkpt lat="46.18065" lon="6.8245">
        <ele>1834</ele>
        <time>2010-01-01T22:39:07Z</time>
      </trkpt>
      <trkpt lat="46.18041" lon="6.8245">
        <ele>1835</ele>
        <time>2010-01-01T22:39:17Z</time>
      </trkpt>
      <trkpt lat="46.18006" lon="6.82475">
        <ele>1833</ele>
        <time>2010-01-01T22:39:33Z</time>
      </trkpt>
      <trkpt lat="46.17979" lon="6.82492">
        <ele>1835</ele>
        <time>2010-01-01T22:39:44Z</time>
      </trkpt>
      <trkpt lat="46.17966" lon="6.82504">
        <ele>1832</ele>
        <time>2010-01-01T22:39:51Z</time>
      </trkpt>
      <trkpt lat="46.17961" lon="6.8253">
        <ele>1831</ele>
        <time>2010-01-01T22:39:58Z</time>
      </trkpt>
      <trkpt lat="46.1795" lon="6.82548">
        <ele>1831</ele>
        <time>2010-01-01T22:40:05Z</time>
      </trkpt>
      <trkpt lat="46.1793" lon="6.82563">
        <ele>1831</ele>
        <time>2010-01-01T22:40:14Z</time>
      </trkpt>
      <trkpt lat="46.17919" lon="6.82558">
        <ele>1831</ele>
        <time>2010-01-01T22:40:18Z</time>
      </trkpt>
      <trkpt lat="46.17911" lon="6.82543">
        <ele>1826</ele>
        <time>2010-01-01T22:40:23Z</time>
      </trkpt>
      <trkpt lat="46.17899" lon="6.82528">
        <ele>1826</ele>
        <time>2010-01-01T22:40:30Z</time>
      </trkpt>
      <trkpt lat="46.17893" lon="6.82507">
        <ele>1826</ele>
        <time>2010-01-01T22:40:36Z</time>
      </trkpt>
      <trkpt lat="46.17893" lon="6.8247">
        <ele>1829</ele>
        <time>2010-01-01T22:40:46Z</time>
      </trkpt>
      <trkpt lat="46.17882" lon="6.82414">
        <ele>1834</ele>
        <time>2010-01-01T22:41:02Z</time>
      </trkpt>
      <trkpt lat="46.1788" lon="6.82392">
        <ele>1834</ele>
        <time>2010-01-01T22:41:08Z</time>
      </trkpt>
      <trkpt lat="46.17877" lon="6.82373">
        <ele>1835</ele>
        <time>2010-01-01T22:41:14Z</time>
      </trkpt>
      <trkpt lat="46.1788" lon="6.82343">
        <ele>1837</ele>
        <time>2010-01-01T22:41:22Z</time>
      </trkpt>
      <trkpt lat="46.17878" lon="6.82311">
        <ele>1845</ele>
        <time>2010-01-01T22:41:31Z</time>
      </trkpt>
      <trkpt lat="46.17864" lon="6.82252">
        <ele>1845</ele>
        <time>2010-01-01T22:41:48Z</time>
      </trkpt>
      <trkpt lat="46.17851" lon="6.82188">
        <ele>1854</ele>
        <time>2010-01-01T22:42:07Z</time>
      </trkpt>
      <trkpt lat="46.17837" lon="6.82153">
        <ele>1855</ele>
        <time>2010-01-01T22:42:18Z</time>
      </trkpt>
      <trkpt lat="46.17828" lon="6.82124">
        <ele>1841</ele>
        <time>2010-01-01T22:42:27Z</time>
      </trkpt>
      <trkpt lat="46.17813" lon="6.82088">
        <ele>1844</ele>
        <time>2010-01-01T22:42:38Z</time>
      </trkpt>
      <trkpt lat="46.17799" lon="6.82067">
        <ele>1845</ele>
        <time>2010-01-01T22:42:47Z</time>
      </trkpt>
      <trkpt lat="46.17795" lon="6.82053">
        <ele>1844</ele>
        <time>2010-01-01T22:42:51Z</time>
      </trkpt>
      <trkpt lat="46.17795" lon="6.82043">
        <ele>1844</ele>
        <time>2010-01-01T22:42:54Z</time>
      </trkpt>
      <trkpt lat="46.17797" lon="6.82029">
        <ele>1845</ele>
        <time>2010-01-01T22:42:58Z</time>
      </trkpt>
      <trkpt lat="46.17796" lon="6.82006">
        <ele>1846</ele>
        <time>2010-01-01T22:43:04Z</time>
      </trkpt>
      <trkpt lat="46.17794" lon="6.81989">
        <ele>1849</ele>
        <time>2010-01-01T22:43:09Z</time>
      </trkpt>
      <trkpt lat="46.17784" lon="6.81953">
        <ele>1847</ele>
        <time>2010-01-01T22:43:20Z</time>
      </trkpt>
      <trkpt lat="46.1778" lon="6.81927">
        <ele>1846</ele>
        <time>2010-01-01T22:43:27Z</time>
      </trkpt>
      <trkpt lat="46.17785" lon="6.81892">
        <ele>1851</ele>
        <time>2010-01-01T22:43:37Z</time>
      </trkpt>
      <trkpt lat="46.17786" lon="6.81871">
        <ele>1852</ele>
        <time>2010-01-01T22:43:42Z</time>
      </trkpt>
      <trkpt lat="46.17778" lon="6.81843">
        <ele>1849</ele>
        <time>2010-01-01T22:43:51Z</time>
      </trkpt>
      <trkpt lat="46.17777" lon="6.81827">
        <ele>1853</ele>
        <time>2010-01-01T22:43:55Z</time>
      </trkpt>
      <trkpt lat="46.17785" lon="6.81799">
        <ele>1858</ele>
        <time>2010-01-01T22:44:04Z</time>
      </trkpt>
      <trkpt lat="46.17788" lon="6.81785">
        <ele>1860</ele>
        <time>2010-01-01T22:44:08Z</time>
      </trkpt>
      <trkpt lat="46.17779" lon="6.81758">
        <ele>1857</ele>
        <time>2010-01-01T22:44:16Z</time>
      </trkpt>
      <trkpt lat="46.17765" lon="6.81729">
        <ele>1859</ele>
        <time>2010-01-01T22:44:26Z</time>
      </trkpt>
      <trkpt lat="46.17746" lon="6.81699">
        <ele>1840</ele>
        <time>2010-01-01T22:44:37Z</time>
      </trkpt>
      <trkpt lat="46.17732" lon="6.81674">
        <ele>1842</ele>
        <time>2010-01-01T22:44:46Z</time>
      </trkpt>
      <trkpt lat="46.17728" lon="6.81646">
        <ele>1843</ele>
        <time>2010-01-01T22:44:54Z</time>
      </trkpt>
      <trkpt lat="46.17735" lon="6.81601">
        <ele>1844</ele>
        <time>2010-01-01T22:45:07Z</time>
      </trkpt>
      <trkpt lat="46.17741" lon="6.81569">
        <ele>1845</ele>
        <time>2010-01-01T22:45:16Z</time>
      </trkpt>
      <trkpt lat="46.17748" lon="6.81513">
        <ele>1845</ele>
        <time>2010-01-01T22:45:32Z</time>
      </trkpt>
      <trkpt lat="46.17751" lon="6.81477">
        <ele>1859</ele>
        <time>2010-01-01T22:45:42Z</time>
      </trkpt>
      <trkpt lat="46.17754" lon="6.81457">
        <ele>1862</ele>
        <time>2010-01-01T22:45:48Z</time>
      </trkpt>
      <trkpt lat="46.17744" lon="6.81434">
        <ele>1848</ele>
        <time>2010-01-01T22:45:55Z</time>
      </trkpt>
      <trkpt lat="46.17733" lon="6.81411">
        <ele>1854</ele>
        <time>2010-01-01T22:46:03Z</time>
      </trkpt>
      <trkpt lat="46.1771" lon="6.81396">
        <ele>1852</ele>
        <time>2010-01-01T22:46:13Z</time>
      </trkpt>
      <trkpt lat="46.17668" lon="6.81371">
        <ele>1850</ele>
        <time>2010-01-01T22:46:31Z</time>
      </trkpt>
      <trkpt lat="46.17635" lon="6.81347">
        <ele>1846</ele>
        <time>2010-01-01T22:46:46Z</time>
      </trkpt>
      <trkpt lat="46.17617" lon="6.81322">
        <ele>1856</ele>
        <time>2010-01-01T22:46:56Z</time>
      </trkpt>
      <trkpt lat="46.17599" lon="6.81315">
        <ele>1855</ele>
        <time>2010-01-01T22:47:03Z</time>
      </trkpt>
      <trkpt lat="46.17576" lon="6.81304">
        <ele>1853</ele>
        <time>2010-01-01T22:47:13Z</time>
      </trkpt>
      <trkpt lat="46.17553" lon="6.81294">
        <ele>1854</ele>
        <time>2010-01-01T22:47:23Z</time>
      </trkpt>
      <trkpt lat="46.17527" lon="6.81293">
        <ele>1853</ele>
        <time>2010-01-01T22:47:33Z</time>
      </trkpt>
      <trkpt lat="46.17504" lon="6.81307">
        <ele>1851</ele>
        <time>2010-01-01T22:47:43Z</time>
      </trkpt>
      <trkpt lat="46.17484" lon="6.81323">
        <ele>1848</ele>
        <time>2010-01-01T22:47:52Z</time>
      </trkpt>
      <trkpt lat="46.1747" lon="6.81348">
        <ele>1842</ele>
        <time>2010-01-01T22:48:01Z</time>
      </trkpt>
      <trkpt lat="46.1745" lon="6.81377">
        <ele>1840</ele>
        <time>2010-01-01T22:48:12Z</time>
      </trkpt>
      <trkpt lat="46.17434" lon="6.81403">
        <ele>1839</ele>
        <time>2010-01-01T22:48:22Z</time>
      </trkpt>
      <trkpt lat="46.17419" lon="6.8143">
        <ele>1834</ele>
        <time>2010-01-01T22:48:31Z</time>
      </trkpt>
      <trkpt lat="46.17402" lon="6.81467">
        <ele>1832</ele>
        <time>2010-01-01T22:48:44Z</time>
      </trkpt>
      <trkpt lat="46.17382" lon="6.81485">
        <ele>1832</ele>
        <time>2010-01-01T22:48:53Z</time>
      </trkpt>
      <trkpt lat="46.17348" lon="6.81511">
        <ele>1828</ele>
        <time>2010-01-01T22:49:09Z</time>
      </trkpt>
      <trkpt lat="46.17327" lon="6.8154">
        <ele>1828</ele>
        <time>2010-01-01T22:49:20Z</time>
      </trkpt>
      <trkpt lat="46.17319" lon="6.81566">
        <ele>1826</ele>
        <time>2010-01-01T22:49:28Z</time>
      </trkpt>
      <trkpt lat="46.17311" lon="6.81589">
        <ele>1820</ele>
        <time>2010-01-01T22:49:35Z</time>
      </trkpt>
      <trkpt lat="46.17295" lon="6.81597">
        <ele>1819</ele>
        <time>2010-01-01T22:49:42Z</time>
      </trkpt>
      <trkpt lat="46.17279" lon="6.81586">
        <ele>1820</ele>
        <time>2010-01-01T22:49:49Z</time>
      </trkpt>
      <trkpt lat="46.17256" lon="6.81585">
        <ele>1824</ele>
        <time>2010-01-01T22:49:59Z</time>
      </trkpt>
      <trkpt lat="46.1723" lon="6.81592">
        <ele>1823</ele>
        <time>2010-01-01T22:50:09Z</time>
      </trkpt>
      <trkpt lat="46.17207" lon="6.81584">
        <ele>1824</ele>
        <time>2010-01-01T22:50:19Z</time>
      </trkpt>
      <trkpt lat="46.17178" lon="6.81576">
        <ele>1830</ele>
        <time>2010-01-01T22:50:31Z</time>
      </trkpt>
      <trkpt lat="46.17162" lon="6.81584">
        <ele>1828</ele>
        <time>2010-01-01T22:50:37Z</time>
      </trkpt>
      <trkpt lat="46.1716" lon="6.81618">
        <ele>1825</ele>
        <time>2010-01-01T22:50:47Z</time>
      </trkpt>
      <trkpt lat="46.17147" lon="6.81636">
        <ele>1824</ele>
        <time>2010-01-01T22:50:54Z</time>
      </trkpt>
      <trkpt lat="46.17134" lon="6.81645">
        <ele>1824</ele>
        <time>2010-01-01T22:51:00Z</time>
      </trkpt>
      <trkpt lat="46.17094" lon="6.81661">
        <ele>1823</ele>
        <time>2010-01-01T22:51:16Z</time>
      </trkpt>
      <trkpt lat="46.17058" lon="6.81675">
        <ele>1818</ele>
        <time>2010-01-01T22:51:31Z</time>
      </trkpt>
      <trkpt lat="46.17033" lon="6.81674">
        <ele>1817</ele>
        <time>2010-01-01T22:51:41Z</time>
      </trkpt>
      <trkpt lat="46.17016" lon="6.8167">
        <ele>1818</ele>
        <time>2010-01-01T22:51:48Z</time>
      </trkpt>
      <trkpt lat="46.17004" lon="6.8165">
        <ele>1823</ele>
        <time>2010-01-01T22:51:56Z</time>
      </trkpt>
      <trkpt lat="46.16981" lon="6.81617">
        <ele>1817</ele>
        <time>2010-01-01T22:52:08Z</time>
      </trkpt>
      <trkpt lat="46.16969" lon="6.81592">
        <ele>1817</ele>
        <time>2010-01-01T22:52:17Z</time>
      </trkpt>
      <trkpt lat="46.16963" lon="6.81566">
        <ele>1821</ele>
        <time>2010-01-01T22:52:25Z</time>
      </trkpt>
      <trkpt lat="46.16968" lon="6.81538">
        <ele>1822</ele>
        <time>2010-01-01T22:52:32Z</time>
      </trkpt>
      <trkpt lat="46.16966" lon="6.81518">
        <ele>1823</ele>
        <time>2010-01-01T22:52:38Z</time>
      </trkpt>
      <trkpt lat="46.16945" lon="6.81467">
        <ele>1828</ele>
        <time>2010-01-01T22:52:55Z</time>
      </trkpt>
      <trkpt lat="46.16913" lon="6.81417">
        <ele>1817</ele>
        <time>2010-01-01T22:53:14Z</time>
      </trkpt>
      <trkpt lat="46.16899" lon="6.81396">
        <ele>1816</ele>
        <time>2010-01-01T22:53:21Z</time>
      </trkpt>
      <trkpt lat="46.16888" lon="6.81372">
        <ele>1815</ele>
        <time>2010-01-01T22:53:29Z</time>
      </trkpt>
      <trkpt lat="46.16883" lon="6.81351">
        <ele>1816</ele>
        <time>2010-01-01T22:53:36Z</time>
      </trkpt>
      <trkpt lat="46.16872" lon="6.81336">
        <ele>1814</ele>
        <time>2010-01-01T22:53:42Z</time>
      </trkpt>
      <trkpt lat="46.16842" lon="6.8129">
        <ele>1819</ele>
        <time>2010-01-01T22:53:59Z</time>
      </trkpt>
      <trkpt lat="46.16826" lon="6.81252">
        <ele>1809</ele>
        <time>2010-01-01T22:54:11Z</time>
      </trkpt>
      <trkpt lat="46.16817" lon="6.81234">
        <ele>1811</ele>
        <time>2010-01-01T22:54:18Z</time>
      </trkpt>
      <trkpt lat="46.16801" lon="6.81232">
        <ele>1809</ele>
        <time>2010-01-01T22:54:24Z</time>
      </trkpt>
      <trkpt lat="46.16786" lon="6.81222">
        <ele>1807</ele>
        <time>2010-01-01T22:54:31Z</time>
      </trkpt>
      <trkpt lat="46.16775" lon="6.81202">
        <ele>1808</ele>
        <time>2010-01-01T22:54:38Z</time>
      </trkpt>
      <trkpt lat="46.16746" lon="6.81181">
        <ele>1796</ele>
        <time>2010-01-01T22:54:51Z</time>
      </trkpt>
      <trkpt lat="46.16725" lon="6.81164">
        <ele>1800</ele>
        <time>2010-01-01T22:55:00Z</time>
      </trkpt>
      <trkpt lat="46.1671" lon="6.81142">
        <ele>1798</ele>
        <time>2010-01-01T22:55:09Z</time>
      </trkpt>
      <trkpt lat="46.16704" lon="6.81125">
        <ele>1798</ele>
        <time>2010-01-01T22:55:14Z</time>
      </trkpt>
      <trkpt lat="46.1669" lon="6.81092">
        <ele>1797</ele>
        <time>2010-01-01T22:55:25Z</time>
      </trkpt>
      <trkpt lat="46.16677" lon="6.81074">
        <ele>1798</ele>
        <time>2010-01-01T22:55:32Z</time>
      </trkpt>
      <trkpt lat="46.16664" lon="6.81061">
        <ele>1788</ele>
        <time>2010-01-01T22:55:38Z</time>
      </trkpt>
      <trkpt lat="46.16653" lon="6.81057">
        <ele>1787</ele>
        <time>2010-01-01T22:55:43Z</time>
      </trkpt>
      <trkpt lat="46.16654" lon="6.81072">
        <ele>1788</ele>
        <time>2010-01-01T22:55:47Z</time>
      </trkpt>
      <trkpt lat="46.16666" lon="6.81079">
        <ele>1790</ele>
        <time>2010-01-01T22:55:52Z</time>
      </trkpt>
      <trkpt lat="46.16678" lon="6.81101">
        <ele>1795</ele>
        <time>2010-01-01T22:56:00Z</time>
      </trkpt>
      <trkpt lat="46.16684" lon="6.81136">
        <ele>1794</ele>
        <time>2010-01-01T22:56:10Z</time>
      </trkpt>
      <trkpt lat="46.1669" lon="6.81179">
        <ele>1785</ele>
        <time>2010-01-01T22:56:22Z</time>
      </trkpt>
      <trkpt lat="46.1669" lon="6.81206">
        <ele>1783</ele>
        <time>2010-01-01T22:56:30Z</time>
      </trkpt>
      <trkpt lat="46.16696" lon="6.81234">
        <ele>1781</ele>
        <time>2010-01-01T22:56:38Z</time>
      </trkpt>
      <trkpt lat="46.16703" lon="6.81255">
        <ele>1774</ele>
        <time>2010-01-01T22:56:44Z</time>
      </trkpt>
      <trkpt lat="46.1671" lon="6.81268">
        <ele>1775</ele>
        <time>2010-01-01T22:56:49Z</time>
      </trkpt>
      <trkpt lat="46.16705" lon="6.81288">
        <ele>1773</ele>
        <time>2010-01-01T22:56:55Z</time>
      </trkpt>
      <trkpt lat="46.16706" lon="6.81309">
        <ele>1772</ele>
        <time>2010-01-01T22:57:00Z</time>
      </trkpt>
      <trkpt lat="46.1672" lon="6.81332">
        <ele>1774</ele>
        <time>2010-01-01T22:57:09Z</time>
      </trkpt>
      <trkpt lat="46.16721" lon="6.81349">
        <ele>1770</ele>
        <time>2010-01-01T22:57:14Z</time>
      </trkpt>
      <trkpt lat="46.16711" lon="6.8138">
        <ele>1768</ele>
        <time>2010-01-01T22:57:23Z</time>
      </trkpt>
      <trkpt lat="46.1671" lon="6.81417">
        <ele>1766</ele>
        <time>2010-01-01T22:57:33Z</time>
      </trkpt>
      <trkpt lat="46.16713" lon="6.81443">
        <ele>1766</ele>
        <time>2010-01-01T22:57:41Z</time>
      </trkpt>
      <trkpt lat="46.16709" lon="6.81464">
        <ele>1764</ele>
        <time>2010-01-01T22:57:47Z</time>
      </trkpt>
      <trkpt lat="46.16708" lon="6.81488">
        <ele>1764</ele>
        <time>2010-01-01T22:57:53Z</time>
      </trkpt>
      <trkpt lat="46.16705" lon="6.81504">
        <ele>1760</ele>
        <time>2010-01-01T22:57:58Z</time>
      </trkpt>
      <trkpt lat="46.16704" lon="6.81523">
        <ele>1760</ele>
        <time>2010-01-01T22:58:03Z</time>
      </trkpt>
      <trkpt lat="46.16699" lon="6.81538">
        <ele>1759</ele>
        <time>2010-01-01T22:58:08Z</time>
      </trkpt>
      <trkpt lat="46.16688" lon="6.8158">
        <ele>1755</ele>
        <time>2010-01-01T22:58:20Z</time>
      </trkpt>
      <trkpt lat="46.16672" lon="6.81587">
        <ele>1750</ele>
        <time>2010-01-01T22:58:27Z</time>
      </trkpt>
      <trkpt lat="46.16658" lon="6.81594">
        <ele>1744</ele>
        <time>2010-01-01T22:58:33Z</time>
      </trkpt>
      <trkpt lat="46.16638" lon="6.81589">
        <ele>1741</ele>
        <time>2010-01-01T22:58:41Z</time>
      </trkpt>
      <trkpt lat="46.16629" lon="6.8158">
        <ele>1743</ele>
        <time>2010-01-01T22:58:46Z</time>
      </trkpt>
      <trkpt lat="46.16621" lon="6.81567">
        <ele>1742</ele>
        <time>2010-01-01T22:58:50Z</time>
      </trkpt>
      <trkpt lat="46.16622" lon="6.81553">
        <ele>1743</ele>
        <time>2010-01-01T22:58:54Z</time>
      </trkpt>
      <trkpt lat="46.16627" lon="6.81549">
        <ele>1744</ele>
        <time>2010-01-01T22:58:57Z</time>
      </trkpt>
      <trkpt lat="46.16628" lon="6.81548">
        <ele>1744</ele>
        <time>2010-01-01T22:58:57Z</time>
      </trkpt>
      <trkpt lat="46.1663" lon="6.81546">
        <ele>1744</ele>
        <time>2010-01-01T22:58:58Z</time>
      </trkpt>
      <trkpt lat="46.16631" lon="6.81543">
        <ele>1744</ele>
        <time>2010-01-01T22:58:59Z</time>
      </trkpt>
      <trkpt lat="46.16631" lon="6.8154">
        <ele>1744</ele>
        <time>2010-01-01T22:59:00Z</time>
      </trkpt>
      <trkpt lat="46.16632" lon="6.81537">
        <ele>1744</ele>
        <time>2010-01-01T22:59:00Z</time>
      </trkpt>
      <trkpt lat="46.16631" lon="6.81534">
        <ele>1744</ele>
        <time>2010-01-01T22:59:01Z</time>
      </trkpt>
      <trkpt lat="46.16629" lon="6.81531">
        <ele>1744</ele>
        <time>2010-01-01T22:59:02Z</time>
      </trkpt>
      <trkpt lat="46.16628" lon="6.81529">
        <ele>1744</ele>
        <time>2010-01-01T22:59:03Z</time>
      </trkpt>
      <trkpt lat="46.16628" lon="6.81527">
        <ele>1744</ele>
        <time>2010-01-01T22:59:04Z</time>
      </trkpt>
      <trkpt lat="46.16617" lon="6.81518">
        <ele>1743</ele>
        <time>2010-01-01T22:59:09Z</time>
      </trkpt>
      <trkpt lat="46.16611" lon="6.81513">
        <ele>1742</ele>
        <time>2010-01-01T22:59:12Z</time>
      </trkpt>
      <trkpt lat="46.16609" lon="6.81511">
        <ele>1742</ele>
        <time>2010-01-01T22:59:13Z</time>
      </trkpt>
      <trkpt lat="46.16608" lon="6.81509">
        <ele>1742</ele>
        <time>2010-01-01T22:59:13Z</time>
      </trkpt>
      <trkpt lat="46.16607" lon="6.81506">
        <ele>1742</ele>
        <time>2010-01-01T22:59:14Z</time>
      </trkpt>
      <trkpt lat="46.16607" lon="6.81503">
        <ele>1742</ele>
        <time>2010-01-01T22:59:15Z</time>
      </trkpt>
      <trkpt lat="46.16607" lon="6.81501">
        <ele>1742</ele>
        <time>2010-01-01T22:59:16Z</time>
      </trkpt>
      <trkpt lat="46.16606" lon="6.81497">
        <ele>1743</ele>
        <time>2010-01-01T22:59:17Z</time>
      </trkpt>
      <trkpt lat="46.16605" lon="6.81494">
        <ele>1743</ele>
        <time>2010-01-01T22:59:18Z</time>
      </trkpt>
      <trkpt lat="46.16605" lon="6.81492">
        <ele>1743</ele>
        <time>2010-01-01T22:59:18Z</time>
      </trkpt>
      <trkpt lat="46.16604" lon="6.81489">
        <ele>1743</ele>
        <time>2010-01-01T22:59:19Z</time>
      </trkpt>
      <trkpt lat="46.16604" lon="6.81488">
        <ele>1743</ele>
        <time>2010-01-01T22:59:19Z</time>
      </trkpt>
      <trkpt lat="46.16604" lon="6.8148">
        <ele>1743</ele>
        <time>2010-01-01T22:59:22Z</time>
      </trkpt>
      <trkpt lat="46.16605" lon="6.81472">
        <ele>1744</ele>
        <time>2010-01-01T22:59:24Z</time>
      </trkpt>
      <trkpt lat="46.16609" lon="6.81464">
        <ele>1744</ele>
        <time>2010-01-01T22:59:26Z</time>
      </trkpt>
      <trkpt lat="46.16611" lon="6.81462">
        <ele>1744</ele>
        <time>2010-01-01T22:59:28Z</time>
      </trkpt>
      <trkpt lat="46.16613" lon="6.8146">
        <ele>1745</ele>
        <time>2010-01-01T22:59:28Z</time>
      </trkpt>
      <trkpt lat="46.16614" lon="6.81457">
        <ele>1745</ele>
        <time>2010-01-01T22:59:29Z</time>
      </trkpt>
      <trkpt lat="46.16615" lon="6.81455">
        <ele>1745</ele>
        <time>2010-01-01T22:59:30Z</time>
      </trkpt>
      <trkpt lat="46.16616" lon="6.81454">
        <ele>1745</ele>
        <time>2010-01-01T22:59:31Z</time>
      </trkpt>
      <trkpt lat="46.16616" lon="6.81451">
        <ele>1745</ele>
        <time>2010-01-01T22:59:31Z</time>
      </trkpt>
      <trkpt lat="46.16616" lon="6.8145">
        <ele>1745</ele>
        <time>2010-01-01T22:59:32Z</time>
      </trkpt>
      <trkpt lat="46.16615" lon="6.81445">
        <ele>1745</ele>
        <time>2010-01-01T22:59:33Z</time>
      </trkpt>
      <trkpt lat="46.166" lon="6.81441">
        <ele>1743</ele>
        <time>2010-01-01T22:59:39Z</time>
      </trkpt>
      <trkpt lat="46.16591" lon="6.81436">
        <ele>1742</ele>
        <time>2010-01-01T22:59:43Z</time>
      </trkpt>
      <trkpt lat="46.1659" lon="6.81417">
        <ele>1740</ele>
        <time>2010-01-01T22:59:48Z</time>
      </trkpt>
      <trkpt lat="46.16595" lon="6.81404">
        <ele>1741</ele>
        <time>2010-01-01T22:59:52Z</time>
      </trkpt>
      <trkpt lat="46.16601" lon="6.81382">
        <ele>1743</ele>
        <time>2010-01-01T22:59:59Z</time>
      </trkpt>
      <trkpt lat="46.16596" lon="6.81356">
        <ele>1741</ele>
        <time>2010-01-01T23:00:07Z</time>
      </trkpt>
      <trkpt lat="46.16596" lon="6.81336">
        <ele>1739</ele>
        <time>2010-01-01T23:00:12Z</time>
      </trkpt>
      <trkpt lat="46.166" lon="6.81324">
        <ele>1742</ele>
        <time>2010-01-01T23:00:16Z</time>
      </trkpt>
      <trkpt lat="46.16606" lon="6.81317">
        <ele>1744</ele>
        <time>2010-01-01T23:00:19Z</time>
      </trkpt>
      <trkpt lat="46.16608" lon="6.81308">
        <ele>1745</ele>
        <time>2010-01-01T23:00:22Z</time>
      </trkpt>
      <trkpt lat="46.16608" lon="6.81305">
        <ele>1746</ele>
        <time>2010-01-01T23:00:22Z</time>
      </trkpt>
      <trkpt lat="46.16607" lon="6.81302">
        <ele>1746</ele>
        <time>2010-01-01T23:00:23Z</time>
      </trkpt>
      <trkpt lat="46.16605" lon="6.81301">
        <ele>1746</ele>
        <time>2010-01-01T23:00:24Z</time>
      </trkpt>
      <trkpt lat="46.16603" lon="6.81299">
        <ele>1745</ele>
        <time>2010-01-01T23:00:25Z</time>
      </trkpt>
      <trkpt lat="46.166" lon="6.81298">
        <ele>1745</ele>
        <time>2010-01-01T23:00:26Z</time>
      </trkpt>
      <trkpt lat="46.16586" lon="6.81287">
        <ele>1745</ele>
        <time>2010-01-01T23:00:33Z</time>
      </trkpt>
      <trkpt lat="46.16571" lon="6.81268">
        <ele>1732</ele>
        <time>2010-01-01T23:00:41Z</time>
      </trkpt>
      <trkpt lat="46.16565" lon="6.81257">
        <ele>1733</ele>
        <time>2010-01-01T23:00:45Z</time>
      </trkpt>
      <trkpt lat="46.16563" lon="6.81255">
        <ele>1733</ele>
        <time>2010-01-01T23:00:46Z</time>
      </trkpt>
      <trkpt lat="46.16562" lon="6.81253">
        <ele>1732</ele>
        <time>2010-01-01T23:00:47Z</time>
      </trkpt>
      <trkpt lat="46.1656" lon="6.8125">
        <ele>1737</ele>
        <time>2010-01-01T23:00:48Z</time>
      </trkpt>
      <trkpt lat="46.16559" lon="6.81247">
        <ele>1737</ele>
        <time>2010-01-01T23:00:49Z</time>
      </trkpt>
      <trkpt lat="46.16559" lon="6.81244">
        <ele>1737</ele>
        <time>2010-01-01T23:00:49Z</time>
      </trkpt>
      <trkpt lat="46.1656" lon="6.8124">
        <ele>1737</ele>
        <time>2010-01-01T23:00:50Z</time>
      </trkpt>
      <trkpt lat="46.16559" lon="6.81237">
        <ele>1737</ele>
        <time>2010-01-01T23:00:51Z</time>
      </trkpt>
      <trkpt lat="46.16558" lon="6.81235">
        <ele>1737</ele>
        <time>2010-01-01T23:00:52Z</time>
      </trkpt>
      <trkpt lat="46.16557" lon="6.81234">
        <ele>1737</ele>
        <time>2010-01-01T23:00:52Z</time>
      </trkpt>
      <trkpt lat="46.16552" lon="6.81218">
        <ele>1737</ele>
        <time>2010-01-01T23:00:57Z</time>
      </trkpt>
      <trkpt lat="46.16532" lon="6.81206">
        <ele>1735</ele>
        <time>2010-01-01T23:01:06Z</time>
      </trkpt>
      <trkpt lat="46.16512" lon="6.81217">
        <ele>1732</ele>
        <time>2010-01-01T23:01:14Z</time>
      </trkpt>
      <trkpt lat="46.16487" lon="6.81205">
        <ele>1721</ele>
        <time>2010-01-01T23:01:25Z</time>
      </trkpt>
      <trkpt lat="46.1646" lon="6.81188">
        <ele>1719</ele>
        <time>2010-01-01T23:01:37Z</time>
      </trkpt>
      <trkpt lat="46.16435" lon="6.81164">
        <ele>1720</ele>
        <time>2010-01-01T23:01:49Z</time>
      </trkpt>
      <trkpt lat="46.16423" lon="6.81133">
        <ele>1722</ele>
        <time>2010-01-01T23:01:59Z</time>
      </trkpt>
      <trkpt lat="46.16421" lon="6.81111">
        <ele>1722</ele>
        <time>2010-01-01T23:02:05Z</time>
      </trkpt>
      <trkpt lat="46.16433" lon="6.81084">
        <ele>1721</ele>
        <time>2010-01-01T23:02:14Z</time>
      </trkpt>
      <trkpt lat="46.16433" lon="6.8107">
        <ele>1725</ele>
        <time>2010-01-01T23:02:17Z</time>
      </trkpt>
      <trkpt lat="46.16433" lon="6.8106">
        <ele>1726</ele>
        <time>2010-01-01T23:02:20Z</time>
      </trkpt>
      <trkpt lat="46.1643" lon="6.8103">
        <ele>1727</ele>
        <time>2010-01-01T23:02:29Z</time>
      </trkpt>
      <trkpt lat="46.16427" lon="6.81012">
        <ele>1723</ele>
        <time>2010-01-01T23:02:34Z</time>
      </trkpt>
      <trkpt lat="46.16422" lon="6.81002">
        <ele>1718</ele>
        <time>2010-01-01T23:02:37Z</time>
      </trkpt>
      <trkpt lat="46.1642" lon="6.81001">
        <ele>1717</ele>
        <time>2010-01-01T23:02:38Z</time>
      </trkpt>
      <trkpt lat="46.16418" lon="6.80998">
        <ele>1717</ele>
        <time>2010-01-01T23:02:39Z</time>
      </trkpt>
      <trkpt lat="46.16416" lon="6.80997">
        <ele>1713</ele>
        <time>2010-01-01T23:02:40Z</time>
      </trkpt>
      <trkpt lat="46.16415" lon="6.80995">
        <ele>1712</ele>
        <time>2010-01-01T23:02:41Z</time>
      </trkpt>
      <trkpt lat="46.16412" lon="6.8098">
        <ele>1707</ele>
        <time>2010-01-01T23:02:45Z</time>
      </trkpt>
      <trkpt lat="46.16409" lon="6.80948">
        <ele>1705</ele>
        <time>2010-01-01T23:02:54Z</time>
      </trkpt>
      <trkpt lat="46.16409" lon="6.80927">
        <ele>1709</ele>
        <time>2010-01-01T23:03:00Z</time>
      </trkpt>
      <trkpt lat="46.16395" lon="6.80892">
        <ele>1701</ele>
        <time>2010-01-01T23:03:11Z</time>
      </trkpt>
      <trkpt lat="46.16395" lon="6.80861">
        <ele>1700</ele>
        <time>2010-01-01T23:03:20Z</time>
      </trkpt>
      <trkpt lat="46.16394" lon="6.80827">
        <ele>1697</ele>
        <time>2010-01-01T23:03:29Z</time>
      </trkpt>
      <trkpt lat="46.16402" lon="6.80815">
        <ele>1697</ele>
        <time>2010-01-01T23:03:34Z</time>
      </trkpt>
      <trkpt lat="46.16417" lon="6.80801">
        <ele>1716</ele>
        <time>2010-01-01T23:03:41Z</time>
      </trkpt>
      <trkpt lat="46.16421" lon="6.80789">
        <ele>1716</ele>
        <time>2010-01-01T23:03:44Z</time>
      </trkpt>
      <trkpt lat="46.16408" lon="6.80768">
        <ele>1696</ele>
        <time>2010-01-01T23:03:52Z</time>
      </trkpt>
      <trkpt lat="46.16401" lon="6.80745">
        <ele>1694</ele>
        <time>2010-01-01T23:03:59Z</time>
      </trkpt>
      <trkpt lat="46.16401" lon="6.80721">
        <ele>1691</ele>
        <time>2010-01-01T23:04:06Z</time>
      </trkpt>
      <trkpt lat="46.16413" lon="6.807">
        <ele>1692</ele>
        <time>2010-01-01T23:04:13Z</time>
      </trkpt>
      <trkpt lat="46.16399" lon="6.80649">
        <ele>1689</ele>
        <time>2010-01-01T23:04:28Z</time>
      </trkpt>
      <trkpt lat="46.16402" lon="6.80619">
        <ele>1688</ele>
        <time>2010-01-01T23:04:37Z</time>
      </trkpt>
      <trkpt lat="46.16404" lon="6.8058">
        <ele>1692</ele>
        <time>2010-01-01T23:04:48Z</time>
      </trkpt>
      <trkpt lat="46.16391" lon="6.80553">
        <ele>1685</ele>
        <time>2010-01-01T23:04:57Z</time>
      </trkpt>
      <trkpt lat="46.16384" lon="6.80529">
        <ele>1684</ele>
        <time>2010-01-01T23:05:04Z</time>
      </trkpt>
      <trkpt lat="46.16375" lon="6.80499">
        <ele>1684</ele>
        <time>2010-01-01T23:05:13Z</time>
      </trkpt>
      <trkpt lat="46.16364" lon="6.80473">
        <ele>1682</ele>
        <time>2010-01-01T23:05:22Z</time>
      </trkpt>
      <trkpt lat="46.16356" lon="6.80423">
        <ele>1682</ele>
        <time>2010-01-01T23:05:36Z</time>
      </trkpt>
      <trkpt lat="46.16337" lon="6.80411">
        <ele>1680</ele>
        <time>2010-01-01T23:05:44Z</time>
      </trkpt>
      <trkpt lat="46.16325" lon="6.80377">
        <ele>1675</ele>
        <time>2010-01-01T23:05:55Z</time>
      </trkpt>
      <trkpt lat="46.16314" lon="6.80365">
        <ele>1676</ele>
        <time>2010-01-01T23:06:00Z</time>
      </trkpt>
      <trkpt lat="46.16296" lon="6.80351">
        <ele>1675</ele>
        <time>2010-01-01T23:06:08Z</time>
      </trkpt>
      <trkpt lat="46.16268" lon="6.80315">
        <ele>1682</ele>
        <time>2010-01-01T23:06:23Z</time>
      </trkpt>
      <trkpt lat="46.16244" lon="6.80272">
        <ele>1676</ele>
        <time>2010-01-01T23:06:39Z</time>
      </trkpt>
      <trkpt lat="46.16224" lon="6.80251">
        <ele>1675</ele>
        <time>2010-01-01T23:06:49Z</time>
      </trkpt>
      <trkpt lat="46.16202" lon="6.80239">
        <ele>1682</ele>
        <time>2010-01-01T23:06:58Z</time>
      </trkpt>
      <trkpt lat="46.16177" lon="6.80208">
        <ele>1684</ele>
        <time>2010-01-01T23:07:11Z</time>
      </trkpt>
      <trkpt lat="46.16159" lon="6.80197">
        <ele>1678</ele>
        <time>2010-01-01T23:07:19Z</time>
      </trkpt>
      <trkpt lat="46.16135" lon="6.80189">
        <ele>1679</ele>
        <time>2010-01-01T23:07:29Z</time>
      </trkpt>
      <trkpt lat="46.16099" lon="6.80189">
        <ele>1680</ele>
        <time>2010-01-01T23:07:43Z</time>
      </trkpt>
      <trkpt lat="46.16036" lon="6.80235">
        <ele>1674</ele>
        <time>2010-01-01T23:08:12Z</time>
      </trkpt>
      <trkpt lat="46.16023" lon="6.80252">
        <ele>1661</ele>
        <time>2010-01-01T23:08:19Z</time>
      </trkpt>
      <trkpt lat="46.16013" lon="6.80249">
        <ele>1673</ele>
        <time>2010-01-01T23:08:23Z</time>
      </trkpt>
      <trkpt lat="46.16001" lon="6.80245">
        <ele>1672</ele>
        <time>2010-01-01T23:08:28Z</time>
      </trkpt>
      <trkpt lat="46.15999" lon="6.80241">
        <ele>1671</ele>
        <time>2010-01-01T23:08:29Z</time>
      </trkpt>
      <trkpt lat="46.15997" lon="6.80238">
        <ele>1671</ele>
        <time>2010-01-01T23:08:30Z</time>
      </trkpt>
      <trkpt lat="46.15995" lon="6.80236">
        <ele>1671</ele>
        <time>2010-01-01T23:08:31Z</time>
      </trkpt>
      <trkpt lat="46.15994" lon="6.80235">
        <ele>1671</ele>
        <time>2010-01-01T23:08:32Z</time>
      </trkpt>
      <trkpt lat="46.15991" lon="6.80234">
        <ele>1671</ele>
        <time>2010-01-01T23:08:33Z</time>
      </trkpt>
      <trkpt lat="46.15991" lon="6.80234">
        <ele>1671</ele>
        <time>2010-01-01T23:08:33Z</time>
      </trkpt>
      <trkpt lat="46.15981" lon="6.80236">
        <ele>1670</ele>
        <time>2010-01-01T23:08:37Z</time>
      </trkpt>
      <trkpt lat="46.15955" lon="6.80227">
        <ele>1668</ele>
        <time>2010-01-01T23:08:48Z</time>
      </trkpt>
      <trkpt lat="46.15949" lon="6.80219">
        <ele>1668</ele>
        <time>2010-01-01T23:08:51Z</time>
      </trkpt>
      <trkpt lat="46.15943" lon="6.80215">
        <ele>1668</ele>
        <time>2010-01-01T23:08:54Z</time>
      </trkpt>
      <trkpt lat="46.15941" lon="6.80221">
        <ele>1667</ele>
        <time>2010-01-01T23:08:55Z</time>
      </trkpt>
      <trkpt lat="46.15939" lon="6.80219">
        <ele>1667</ele>
        <time>2010-01-01T23:08:56Z</time>
      </trkpt>
      <trkpt lat="46.15937" lon="6.80218">
        <ele>1667</ele>
        <time>2010-01-01T23:08:57Z</time>
      </trkpt>
      <trkpt lat="46.15935" lon="6.80215">
        <ele>1667</ele>
        <time>2010-01-01T23:08:58Z</time>
      </trkpt>
      <trkpt lat="46.15933" lon="6.80214">
        <ele>1667</ele>
        <time>2010-01-01T23:08:59Z</time>
      </trkpt>
      <trkpt lat="46.15919" lon="6.80218">
        <ele>1665</ele>
        <time>2010-01-01T23:09:05Z</time>
      </trkpt>
      <trkpt lat="46.159" lon="6.80218">
        <ele>1650</ele>
        <time>2010-01-01T23:09:12Z</time>
      </trkpt>
      <trkpt lat="46.15889" lon="6.802">
        <ele>1650</ele>
        <time>2010-01-01T23:09:19Z</time>
      </trkpt>
      <trkpt lat="46.15867" lon="6.80163">
        <ele>1656</ele>
        <time>2010-01-01T23:09:33Z</time>
      </trkpt>
      <trkpt lat="46.15847" lon="6.80133">
        <ele>1657</ele>
        <time>2010-01-01T23:09:44Z</time>
      </trkpt>
      <trkpt lat="46.15831" lon="6.80109">
        <ele>1649</ele>
        <time>2010-01-01T23:09:54Z</time>
      </trkpt>
      <trkpt lat="46.15816" lon="6.80097">
        <ele>1650</ele>
        <time>2010-01-01T23:10:00Z</time>
      </trkpt>
      <trkpt lat="46.1581" lon="6.80103">
        <ele>1648</ele>
        <time>2010-01-01T23:10:03Z</time>
      </trkpt>
      <trkpt lat="46.1582" lon="6.80143">
        <ele>1643</ele>
        <time>2010-01-01T23:10:15Z</time>
      </trkpt>
      <trkpt lat="46.15831" lon="6.80205">
        <ele>1631</ele>
        <time>2010-01-01T23:10:33Z</time>
      </trkpt>
      <trkpt lat="46.15835" lon="6.80275">
        <ele>1630</ele>
        <time>2010-01-01T23:10:52Z</time>
      </trkpt>
      <trkpt lat="46.1583" lon="6.80331">
        <ele>1613</ele>
        <time>2010-01-01T23:11:08Z</time>
      </trkpt>
      <trkpt lat="46.15841" lon="6.80366">
        <ele>1612</ele>
        <time>2010-01-01T23:11:19Z</time>
      </trkpt>
      <trkpt lat="46.15858" lon="6.80384">
        <ele>1611</ele>
        <time>2010-01-01T23:11:27Z</time>
      </trkpt>
      <trkpt lat="46.15893" lon="6.80437">
        <ele>1594</ele>
        <time>2010-01-01T23:11:48Z</time>
      </trkpt>
      <trkpt lat="46.15913" lon="6.80456">
        <ele>1591</ele>
        <time>2010-01-01T23:11:57Z</time>
      </trkpt>
      <trkpt lat="46.15928" lon="6.80485">
        <ele>1596</ele>
        <time>2010-01-01T23:12:07Z</time>
      </trkpt>
      <trkpt lat="46.15969" lon="6.8051">
        <ele>1584</ele>
        <time>2010-01-01T23:12:25Z</time>
      </trkpt>
      <trkpt lat="46.15973" lon="6.80518">
        <ele>1583</ele>
        <time>2010-01-01T23:12:28Z</time>
      </trkpt>
      <trkpt lat="46.15985" lon="6.80534">
        <ele>1580</ele>
        <time>2010-01-01T23:12:34Z</time>
      </trkpt>
      <trkpt lat="46.15972" lon="6.80534">
        <ele>1579</ele>
        <time>2010-01-01T23:12:39Z</time>
      </trkpt>
      <trkpt lat="46.15953" lon="6.80529">
        <ele>1578</ele>
        <time>2010-01-01T23:12:47Z</time>
      </trkpt>
      <trkpt lat="46.15943" lon="6.80539">
        <ele>1575</ele>
        <time>2010-01-01T23:12:52Z</time>
      </trkpt>
      <trkpt lat="46.15927" lon="6.80539">
        <ele>1574</ele>
        <time>2010-01-01T23:12:58Z</time>
      </trkpt>
      <trkpt lat="46.15905" lon="6.80523">
        <ele>1565</ele>
        <time>2010-01-01T23:13:08Z</time>
      </trkpt>
      <trkpt lat="46.15895" lon="6.80514">
        <ele>1564</ele>
        <time>2010-01-01T23:13:13Z</time>
      </trkpt>
      <trkpt lat="46.15893" lon="6.80513">
        <ele>1564</ele>
        <time>2010-01-01T23:13:14Z</time>
      </trkpt>
      <trkpt lat="46.15891" lon="6.80513">
        <ele>1563</ele>
        <time>2010-01-01T23:13:15Z</time>
      </trkpt>
      <trkpt lat="46.15888" lon="6.80512">
        <ele>1562</ele>
        <time>2010-01-01T23:13:16Z</time>
      </trkpt>
      <trkpt lat="46.15887" lon="6.80511">
        <ele>1562</ele>
        <time>2010-01-01T23:13:16Z</time>
      </trkpt>
      <trkpt lat="46.15886" lon="6.80509">
        <ele>1562</ele>
        <time>2010-01-01T23:13:17Z</time>
      </trkpt>
      <trkpt lat="46.15883" lon="6.80508">
        <ele>1561</ele>
        <time>2010-01-01T23:13:18Z</time>
      </trkpt>
      <trkpt lat="46.15881" lon="6.80506">
        <ele>1561</ele>
        <time>2010-01-01T23:13:19Z</time>
      </trkpt>
      <trkpt lat="46.15879" lon="6.80504">
        <ele>1560</ele>
        <time>2010-01-01T23:13:20Z</time>
      </trkpt>
      <trkpt lat="46.15877" lon="6.80502">
        <ele>1560</ele>
        <time>2010-01-01T23:13:21Z</time>
      </trkpt>
      <trkpt lat="46.15875" lon="6.80502">
        <ele>1559</ele>
        <time>2010-01-01T23:13:22Z</time>
      </trkpt>
      <trkpt lat="46.15874" lon="6.80501">
        <ele>1559</ele>
        <time>2010-01-01T23:13:22Z</time>
      </trkpt>
      <trkpt lat="46.15858" lon="6.80496">
        <ele>1573</ele>
        <time>2010-01-01T23:13:29Z</time>
      </trkpt>
      <trkpt lat="46.15848" lon="6.80494">
        <ele>1568</ele>
        <time>2010-01-01T23:13:33Z</time>
      </trkpt>
      <trkpt lat="46.15843" lon="6.8049">
        <ele>1566</ele>
        <time>2010-01-01T23:13:35Z</time>
      </trkpt>
      <trkpt lat="46.15842" lon="6.8049">
        <ele>1566</ele>
        <time>2010-01-01T23:13:36Z</time>
      </trkpt>
      <trkpt lat="46.15839" lon="6.80489">
        <ele>1565</ele>
        <time>2010-01-01T23:13:37Z</time>
      </trkpt>
      <trkpt lat="46.15837" lon="6.80488">
        <ele>1565</ele>
        <time>2010-01-01T23:13:38Z</time>
      </trkpt>
      <trkpt lat="46.15835" lon="6.80488">
        <ele>1565</ele>
        <time>2010-01-01T23:13:39Z</time>
      </trkpt>
      <trkpt lat="46.15831" lon="6.80489">
        <ele>1560</ele>
        <time>2010-01-01T23:13:40Z</time>
      </trkpt>
      <trkpt lat="46.15829" lon="6.80489">
        <ele>1561</ele>
        <time>2010-01-01T23:13:41Z</time>
      </trkpt>
      <trkpt lat="46.15828" lon="6.8049">
        <ele>1560</ele>
        <time>2010-01-01T23:13:41Z</time>
      </trkpt>
      <trkpt lat="46.15828" lon="6.80493">
        <ele>1559</ele>
        <time>2010-01-01T23:13:42Z</time>
      </trkpt>
      <trkpt lat="46.15829" lon="6.80495">
        <ele>1557</ele>
        <time>2010-01-01T23:13:43Z</time>
      </trkpt>
      <trkpt lat="46.15833" lon="6.80501">
        <ele>1552</ele>
        <time>2010-01-01T23:13:45Z</time>
      </trkpt>
      <trkpt lat="46.15841" lon="6.8051">
        <ele>1553</ele>
        <time>2010-01-01T23:13:49Z</time>
      </trkpt>
      <trkpt lat="46.15857" lon="6.80522">
        <ele>1554</ele>
        <time>2010-01-01T23:13:56Z</time>
      </trkpt>
      <trkpt lat="46.15865" lon="6.80539">
        <ele>1553</ele>
        <time>2010-01-01T23:14:02Z</time>
      </trkpt>
      <trkpt lat="46.15875" lon="6.8058">
        <ele>1549</ele>
        <time>2010-01-01T23:14:14Z</time>
      </trkpt>
      <trkpt lat="46.15893" lon="6.80629">
        <ele>1530</ele>
        <time>2010-01-01T23:14:30Z</time>
      </trkpt>
      <trkpt lat="46.159" lon="6.80648">
        <ele>1528</ele>
        <time>2010-01-01T23:14:36Z</time>
      </trkpt>
      <trkpt lat="46.15903" lon="6.80673">
        <ele>1517</ele>
        <time>2010-01-01T23:14:43Z</time>
      </trkpt>
      <trkpt lat="46.15919" lon="6.80697">
        <ele>1523</ele>
        <time>2010-01-01T23:14:52Z</time>
      </trkpt>
      <trkpt lat="46.15931" lon="6.80717">
        <ele>1521</ele>
        <time>2010-01-01T23:14:59Z</time>
      </trkpt>
      <trkpt lat="46.15948" lon="6.80727">
        <ele>1522</ele>
        <time>2010-01-01T23:15:06Z</time>
      </trkpt>
      <trkpt lat="46.15959" lon="6.8074">
        <ele>1524</ele>
        <time>2010-01-01T23:15:12Z</time>
      </trkpt>
      <trkpt lat="46.15958" lon="6.80926">
        <ele>1499</ele>
        <time>2010-01-01T23:16:04Z</time>
      </trkpt>
      <trkpt lat="46.15959" lon="6.80997">
        <ele>1497</ele>
        <time>2010-01-01T23:16:23Z</time>
      </trkpt>
      <trkpt lat="46.15967" lon="6.81052">
        <ele>1493</ele>
        <time>2010-01-01T23:16:39Z</time>
      </trkpt>
      <trkpt lat="46.1597" lon="6.81077">
        <ele>1493</ele>
        <time>2010-01-01T23:16:46Z</time>
      </trkpt>
      <trkpt lat="46.15972" lon="6.81082">
        <ele>1493</ele>
        <time>2010-01-01T23:16:48Z</time>
      </trkpt>
      <trkpt lat="46.15975" lon="6.81086">
        <ele>1488</ele>
        <time>2010-01-01T23:16:49Z</time>
      </trkpt>
      <trkpt lat="46.15976" lon="6.81089">
        <ele>1488</ele>
        <time>2010-01-01T23:16:50Z</time>
      </trkpt>
      <trkpt lat="46.15975" lon="6.81096">
        <ele>1487</ele>
        <time>2010-01-01T23:16:52Z</time>
      </trkpt>
      <trkpt lat="46.15975" lon="6.81097">
        <ele>1487</ele>
        <time>2010-01-01T23:16:52Z</time>
      </trkpt>
      <trkpt lat="46.15976" lon="6.81101">
        <ele>1487</ele>
        <time>2010-01-01T23:16:53Z</time>
      </trkpt>
      <trkpt lat="46.15976" lon="6.81107">
        <ele>1486</ele>
        <time>2010-01-01T23:16:55Z</time>
      </trkpt>
      <trkpt lat="46.15976" lon="6.81183">
        <ele>1475</ele>
        <time>2010-01-01T23:17:16Z</time>
      </trkpt>
      <trkpt lat="46.15983" lon="6.81251">
        <ele>1468</ele>
        <time>2010-01-01T23:17:35Z</time>
      </trkpt>
      <trkpt lat="46.15976" lon="6.81317">
        <ele>1461</ele>
        <time>2010-01-01T23:17:54Z</time>
      </trkpt>
      <trkpt lat="46.15969" lon="6.81391">
        <ele>1454</ele>
        <time>2010-01-01T23:18:15Z</time>
      </trkpt>
      <trkpt lat="46.15963" lon="6.81419">
        <ele>1449</ele>
        <time>2010-01-01T23:18:22Z</time>
      </trkpt>
      <trkpt lat="46.15963" lon="6.81432">
        <ele>1449</ele>
        <time>2010-01-01T23:18:26Z</time>
      </trkpt>
      <trkpt lat="46.15963" lon="6.81437">
        <ele>1449</ele>
        <time>2010-01-01T23:18:28Z</time>
      </trkpt>
      <trkpt lat="46.15963" lon="6.81444">
        <ele>1448</ele>
        <time>2010-01-01T23:18:29Z</time>
      </trkpt>
      <trkpt lat="46.15962" lon="6.81448">
        <ele>1448</ele>
        <time>2010-01-01T23:18:31Z</time>
      </trkpt>
      <trkpt lat="46.15962" lon="6.8145">
        <ele>1448</ele>
        <time>2010-01-01T23:18:31Z</time>
      </trkpt>
      <trkpt lat="46.15961" lon="6.81455">
        <ele>1448</ele>
        <time>2010-01-01T23:18:33Z</time>
      </trkpt>
      <trkpt lat="46.15958" lon="6.81459">
        <ele>1447</ele>
        <time>2010-01-01T23:18:34Z</time>
      </trkpt>
      <trkpt lat="46.15955" lon="6.81463">
        <ele>1447</ele>
        <time>2010-01-01T23:18:36Z</time>
      </trkpt>
      <trkpt lat="46.15955" lon="6.81466">
        <ele>1446</ele>
        <time>2010-01-01T23:18:37Z</time>
      </trkpt>
      <trkpt lat="46.15954" lon="6.81471">
        <ele>1446</ele>
        <time>2010-01-01T23:18:38Z</time>
      </trkpt>
      <trkpt lat="46.15953" lon="6.81474">
        <ele>1446</ele>
        <time>2010-01-01T23:18:39Z</time>
      </trkpt>
      <trkpt lat="46.15953" lon="6.81478">
        <ele>1446</ele>
        <time>2010-01-01T23:18:40Z</time>
      </trkpt>
      <trkpt lat="46.15954" lon="6.81482">
        <ele>1446</ele>
        <time>2010-01-01T23:18:41Z</time>
      </trkpt>
      <trkpt lat="46.15955" lon="6.81488">
        <ele>1446</ele>
        <time>2010-01-01T23:18:43Z</time>
      </trkpt>
      <trkpt lat="46.15956" lon="6.81494">
        <ele>1446</ele>
        <time>2010-01-01T23:18:45Z</time>
      </trkpt>
      <trkpt lat="46.15956" lon="6.81499">
        <ele>1445</ele>
        <time>2010-01-01T23:18:46Z</time>
      </trkpt>
      <trkpt lat="46.15957" lon="6.81504">
        <ele>1440</ele>
        <time>2010-01-01T23:18:47Z</time>
      </trkpt>
      <trkpt lat="46.15956" lon="6.81508">
        <ele>1439</ele>
        <time>2010-01-01T23:18:49Z</time>
      </trkpt>
      <trkpt lat="46.15956" lon="6.81512">
        <ele>1439</ele>
        <time>2010-01-01T23:18:50Z</time>
      </trkpt>
      <trkpt lat="46.15956" lon="6.81516">
        <ele>1439</ele>
        <time>2010-01-01T23:18:51Z</time>
      </trkpt>
      <trkpt lat="46.15955" lon="6.81522">
        <ele>1439</ele>
        <time>2010-01-01T23:18:52Z</time>
      </trkpt>
      <trkpt lat="46.15955" lon="6.81527">
        <ele>1438</ele>
        <time>2010-01-01T23:18:54Z</time>
      </trkpt>
      <trkpt lat="46.15954" lon="6.81532">
        <ele>1438</ele>
        <time>2010-01-01T23:18:55Z</time>
      </trkpt>
      <trkpt lat="46.15954" lon="6.81535">
        <ele>1438</ele>
        <time>2010-01-01T23:18:56Z</time>
      </trkpt>
      <trkpt lat="46.15954" lon="6.81538">
        <ele>1437</ele>
        <time>2010-01-01T23:18:57Z</time>
      </trkpt>
      <trkpt lat="46.15954" lon="6.81543">
        <ele>1437</ele>
        <time>2010-01-01T23:18:58Z</time>
      </trkpt>
      <trkpt lat="46.15954" lon="6.81547">
        <ele>1437</ele>
        <time>2010-01-01T23:19:00Z</time>
      </trkpt>
      <trkpt lat="46.15954" lon="6.81551">
        <ele>1436</ele>
        <time>2010-01-01T23:19:01Z</time>
      </trkpt>
      <trkpt lat="46.15954" lon="6.81557">
        <ele>1436</ele>
        <time>2010-01-01T23:19:02Z</time>
      </trkpt>
      <trkpt lat="46.15953" lon="6.81581">
        <ele>1434</ele>
        <time>2010-01-01T23:19:09Z</time>
      </trkpt>
      <trkpt lat="46.15959" lon="6.81658">
        <ele>1430</ele>
        <time>2010-01-01T23:19:31Z</time>
      </trkpt>
      <trkpt lat="46.15969" lon="6.81758">
        <ele>1421</ele>
        <time>2010-01-01T23:19:59Z</time>
      </trkpt>
      <trkpt lat="46.15974" lon="6.81801">
        <ele>1419</ele>
        <time>2010-01-01T23:20:11Z</time>
      </trkpt>
      <trkpt lat="46.15967" lon="6.81848">
        <ele>1414</ele>
        <time>2010-01-01T23:20:24Z</time>
      </trkpt>
      <trkpt lat="46.15965" lon="6.81867">
        <ele>1413</ele>
        <time>2010-01-01T23:20:29Z</time>
      </trkpt>
      <trkpt lat="46.15964" lon="6.81873">
        <ele>1413</ele>
        <time>2010-01-01T23:20:31Z</time>
      </trkpt>
      <trkpt lat="46.15965" lon="6.81877">
        <ele>1413</ele>
        <time>2010-01-01T23:20:32Z</time>
      </trkpt>
      <trkpt lat="46.15965" lon="6.81879">
        <ele>1413</ele>
        <time>2010-01-01T23:20:33Z</time>
      </trkpt>
      <trkpt lat="46.15964" lon="6.81886">
        <ele>1413</ele>
        <time>2010-01-01T23:20:35Z</time>
      </trkpt>
      <trkpt lat="46.15964" lon="6.81891">
        <ele>1412</ele>
        <time>2010-01-01T23:20:36Z</time>
      </trkpt>
      <trkpt lat="46.15964" lon="6.81895">
        <ele>1412</ele>
        <time>2010-01-01T23:20:37Z</time>
      </trkpt>
      <trkpt lat="46.15964" lon="6.81899">
        <ele>1412</ele>
        <time>2010-01-01T23:20:38Z</time>
      </trkpt>
      <trkpt lat="46.15966" lon="6.81904">
        <ele>1412</ele>
        <time>2010-01-01T23:20:40Z</time>
      </trkpt>
      <trkpt lat="46.15967" lon="6.8191">
        <ele>1412</ele>
        <time>2010-01-01T23:20:41Z</time>
      </trkpt>
      <trkpt lat="46.15967" lon="6.81919">
        <ele>1409</ele>
        <time>2010-01-01T23:20:44Z</time>
      </trkpt>
      <trkpt lat="46.15968" lon="6.81925">
        <ele>1409</ele>
        <time>2010-01-01T23:20:46Z</time>
      </trkpt>
      <trkpt lat="46.15969" lon="6.81928">
        <ele>1409</ele>
        <time>2010-01-01T23:20:47Z</time>
      </trkpt>
      <trkpt lat="46.1597" lon="6.81931">
        <ele>1409</ele>
        <time>2010-01-01T23:20:47Z</time>
      </trkpt>
      <trkpt lat="46.15971" lon="6.81936">
        <ele>1409</ele>
        <time>2010-01-01T23:20:49Z</time>
      </trkpt>
      <trkpt lat="46.15971" lon="6.81939">
        <ele>1409</ele>
        <time>2010-01-01T23:20:50Z</time>
      </trkpt>
      <trkpt lat="46.15973" lon="6.81946">
        <ele>1409</ele>
        <time>2010-01-01T23:20:52Z</time>
      </trkpt>
      <trkpt lat="46.15973" lon="6.81951">
        <ele>1409</ele>
        <time>2010-01-01T23:20:53Z</time>
      </trkpt>
      <trkpt lat="46.15974" lon="6.81957">
        <ele>1409</ele>
        <time>2010-01-01T23:20:55Z</time>
      </trkpt>
      <trkpt lat="46.15975" lon="6.81959">
        <ele>1408</ele>
        <time>2010-01-01T23:20:55Z</time>
      </trkpt>
      <trkpt lat="46.15975" lon="6.81966">
        <ele>1408</ele>
        <time>2010-01-01T23:20:57Z</time>
      </trkpt>
      <trkpt lat="46.15976" lon="6.81973">
        <ele>1408</ele>
        <time>2010-01-01T23:20:59Z</time>
      </trkpt>
      <trkpt lat="46.15976" lon="6.81977">
        <ele>1408</ele>
        <time>2010-01-01T23:21:01Z</time>
      </trkpt>
      <trkpt lat="46.15975" lon="6.81986">
        <ele>1407</ele>
        <time>2010-01-01T23:21:03Z</time>
      </trkpt>
      <trkpt lat="46.15975" lon="6.81989">
        <ele>1407</ele>
        <time>2010-01-01T23:21:04Z</time>
      </trkpt>
      <trkpt lat="46.15975" lon="6.81993">
        <ele>1407</ele>
        <time>2010-01-01T23:21:05Z</time>
      </trkpt>
      <trkpt lat="46.15976" lon="6.82015">
        <ele>1403</ele>
        <time>2010-01-01T23:21:11Z</time>
      </trkpt>
      <trkpt lat="46.15988" lon="6.82096">
        <ele>1394</ele>
        <time>2010-01-01T23:21:34Z</time>
      </trkpt>
      <trkpt lat="46.1599" lon="6.82119">
        <ele>1392</ele>
        <time>2010-01-01T23:21:40Z</time>
      </trkpt>
      <trkpt lat="46.15991" lon="6.82126">
        <ele>1391</ele>
        <time>2010-01-01T23:21:42Z</time>
      </trkpt>
      <trkpt lat="46.15992" lon="6.82132">
        <ele>1390</ele>
        <time>2010-01-01T23:21:44Z</time>
      </trkpt>
      <trkpt lat="46.15992" lon="6.82134">
        <ele>1390</ele>
        <time>2010-01-01T23:21:45Z</time>
      </trkpt>
      <trkpt lat="46.15993" lon="6.82142">
        <ele>1389</ele>
        <time>2010-01-01T23:21:47Z</time>
      </trkpt>
      <trkpt lat="46.15994" lon="6.82147">
        <ele>1389</ele>
        <time>2010-01-01T23:21:48Z</time>
      </trkpt>
      <trkpt lat="46.15994" lon="6.82149">
        <ele>1389</ele>
        <time>2010-01-01T23:21:49Z</time>
      </trkpt>
      <trkpt lat="46.15995" lon="6.82155">
        <ele>1388</ele>
        <time>2010-01-01T23:21:51Z</time>
      </trkpt>
      <trkpt lat="46.15996" lon="6.8216">
        <ele>1387</ele>
        <time>2010-01-01T23:21:52Z</time>
      </trkpt>
      <trkpt lat="46.15997" lon="6.82165">
        <ele>1387</ele>
        <time>2010-01-01T23:21:54Z</time>
      </trkpt>
      <trkpt lat="46.15998" lon="6.8217">
        <ele>1385</ele>
        <time>2010-01-01T23:21:55Z</time>
      </trkpt>
      <trkpt lat="46.15999" lon="6.82175">
        <ele>1385</ele>
        <time>2010-01-01T23:21:56Z</time>
      </trkpt>
      <trkpt lat="46.15999" lon="6.82179">
        <ele>1384</ele>
        <time>2010-01-01T23:21:58Z</time>
      </trkpt>
      <trkpt lat="46.16" lon="6.82185">
        <ele>1394</ele>
        <time>2010-01-01T23:21:59Z</time>
      </trkpt>
      <trkpt lat="46.16001" lon="6.82189">
        <ele>1395</ele>
        <time>2010-01-01T23:22:01Z</time>
      </trkpt>
      <trkpt lat="46.16001" lon="6.8219">
        <ele>1395</ele>
        <time>2010-01-01T23:22:01Z</time>
      </trkpt>
      <trkpt lat="46.16001" lon="6.82197">
        <ele>1396</ele>
        <time>2010-01-01T23:22:03Z</time>
      </trkpt>
      <trkpt lat="46.16001" lon="6.82204">
        <ele>1396</ele>
        <time>2010-01-01T23:22:05Z</time>
      </trkpt>
      <trkpt lat="46.16001" lon="6.8221">
        <ele>1396</ele>
        <time>2010-01-01T23:22:06Z</time>
      </trkpt>
      <trkpt lat="46.16001" lon="6.82217">
        <ele>1395</ele>
        <time>2010-01-01T23:22:08Z</time>
      </trkpt>
      <trkpt lat="46.16001" lon="6.82221">
        <ele>1394</ele>
        <time>2010-01-01T23:22:09Z</time>
      </trkpt>
      <trkpt lat="46.16" lon="6.82226">
        <ele>1393</ele>
        <time>2010-01-01T23:22:11Z</time>
      </trkpt>
      <trkpt lat="46.16001" lon="6.82236">
        <ele>1390</ele>
        <time>2010-01-01T23:22:14Z</time>
      </trkpt>
      <trkpt lat="46.15991" lon="6.82268">
        <ele>1377</ele>
        <time>2010-01-01T23:22:23Z</time>
      </trkpt>
      <trkpt lat="46.15991" lon="6.8237">
        <ele>1370</ele>
        <time>2010-01-01T23:22:51Z</time>
      </trkpt>
      <trkpt lat="46.15995" lon="6.82507">
        <ele>1361</ele>
        <time>2010-01-01T23:23:30Z</time>
      </trkpt>
      <trkpt lat="46.16031" lon="6.82575">
        <ele>1365</ele>
        <time>2010-01-01T23:23:53Z</time>
      </trkpt>
      <trkpt lat="46.16064" lon="6.8263">
        <ele>1361</ele>
        <time>2010-01-01T23:24:13Z</time>
      </trkpt>
      <trkpt lat="46.1609" lon="6.82692">
        <ele>1372</ele>
        <time>2010-01-01T23:24:34Z</time>
      </trkpt>
      <trkpt lat="46.16095" lon="6.82788">
        <ele>1363</ele>
        <time>2010-01-01T23:25:00Z</time>
      </trkpt>
      <trkpt lat="46.16092" lon="6.82897">
        <ele>1361</ele>
        <time>2010-01-01T23:25:31Z</time>
      </trkpt>
      <trkpt lat="46.16078" lon="6.82991">
        <ele>1348</ele>
        <time>2010-01-01T23:25:57Z</time>
      </trkpt>
      <trkpt lat="46.16083" lon="6.83076">
        <ele>1338</ele>
        <time>2010-01-01T23:26:21Z</time>
      </trkpt>
      <trkpt lat="46.16136" lon="6.83204">
        <ele>1339</ele>
        <time>2010-01-01T23:27:02Z</time>
      </trkpt>
      <trkpt lat="46.16171" lon="6.83297">
        <ele>1348</ele>
        <time>2010-01-01T23:27:32Z</time>
      </trkpt>
      <trkpt lat="46.16228" lon="6.83398">
        <ele>1339</ele>
        <time>2010-01-01T23:28:08Z</time>
      </trkpt>
      <trkpt lat="46.16271" lon="6.83457">
        <ele>1348</ele>
        <time>2010-01-01T23:28:31Z</time>
      </trkpt>
      <trkpt lat="46.16317" lon="6.83532">
        <ele>1336</ele>
        <time>2010-01-01T23:28:59Z</time>
      </trkpt>
      <trkpt lat="46.16362" lon="6.83564">
        <ele>1355</ele>
        <time>2010-01-01T23:29:19Z</time>
      </trkpt>
      <trkpt lat="46.16389" lon="6.83573">
        <ele>1361</ele>
        <time>2010-01-01T23:29:30Z</time>
      </trkpt>
      <trkpt lat="46.16399" lon="6.8359">
        <ele>1356</ele>
        <time>2010-01-01T23:29:37Z</time>
      </trkpt>
      <trkpt lat="46.16399" lon="6.83602">
        <ele>1355</ele>
        <time>2010-01-01T23:29:40Z</time>
      </trkpt>
      <trkpt lat="46.16398" lon="6.83606">
        <ele>1354</ele>
        <time>2010-01-01T23:29:41Z</time>
      </trkpt>
      <trkpt lat="46.16396" lon="6.83609">
        <ele>1354</ele>
        <time>2010-01-01T23:29:42Z</time>
      </trkpt>
      <trkpt lat="46.16396" lon="6.83611">
        <ele>1354</ele>
        <time>2010-01-01T23:29:43Z</time>
      </trkpt>
      <trkpt lat="46.16393" lon="6.83613">
        <ele>1353</ele>
        <time>2010-01-01T23:29:44Z</time>
      </trkpt>
      <trkpt lat="46.16389" lon="6.83616">
        <ele>1353</ele>
        <time>2010-01-01T23:29:46Z</time>
      </trkpt>
      <trkpt lat="46.16388" lon="6.83618">
        <ele>1352</ele>
        <time>2010-01-01T23:29:46Z</time>
      </trkpt>
      <trkpt lat="46.16381" lon="6.83615">
        <ele>1351</ele>
        <time>2010-01-01T23:29:49Z</time>
      </trkpt>
      <trkpt lat="46.1633" lon="6.8364">
        <ele>1329</ele>
        <time>2010-01-01T23:30:11Z</time>
      </trkpt>
      <trkpt lat="46.16316" lon="6.83762">
        <ele>1348</ele>
        <time>2010-01-01T23:30:45Z</time>
      </trkpt>
      <trkpt lat="46.16298" lon="6.83866">
        <ele>1351</ele>
        <time>2010-01-01T23:31:15Z</time>
      </trkpt>
      <trkpt lat="46.16284" lon="6.83928">
        <ele>1354</ele>
        <time>2010-01-01T23:31:33Z</time>
      </trkpt>
      <trkpt lat="46.16267" lon="6.83961">
        <ele>1352</ele>
        <time>2010-01-01T23:31:44Z</time>
      </trkpt>
      <trkpt lat="46.16243" lon="6.84077">
        <ele>1338</ele>
        <time>2010-01-01T23:32:18Z</time>
      </trkpt>
      <trkpt lat="46.16241" lon="6.84101">
        <ele>1336</ele>
        <time>2010-01-01T23:32:25Z</time>
      </trkpt>
      <trkpt lat="46.1624" lon="6.84106">
        <ele>1335</ele>
        <time>2010-01-01T23:32:26Z</time>
      </trkpt>
      <trkpt lat="46.16239" lon="6.8411">
        <ele>1334</ele>
        <time>2010-01-01T23:32:27Z</time>
      </trkpt>
      <trkpt lat="46.16236" lon="6.84116">
        <ele>1333</ele>
        <time>2010-01-01T23:32:29Z</time>
      </trkpt>
      <trkpt lat="46.16234" lon="6.84122">
        <ele>1333</ele>
        <time>2010-01-01T23:32:31Z</time>
      </trkpt>
      <trkpt lat="46.16232" lon="6.84129">
        <ele>1333</ele>
        <time>2010-01-01T23:32:33Z</time>
      </trkpt>
      <trkpt lat="46.16231" lon="6.84133">
        <ele>1333</ele>
        <time>2010-01-01T23:32:34Z</time>
      </trkpt>
      <trkpt lat="46.1623" lon="6.84139">
        <ele>1333</ele>
        <time>2010-01-01T23:32:36Z</time>
      </trkpt>
      <trkpt lat="46.1623" lon="6.84148">
        <ele>1335</ele>
        <time>2010-01-01T23:32:39Z</time>
      </trkpt>
      <trkpt lat="46.1623" lon="6.84152">
        <ele>1336</ele>
        <time>2010-01-01T23:32:40Z</time>
      </trkpt>
      <trkpt lat="46.16231" lon="6.84158">
        <ele>1337</ele>
        <time>2010-01-01T23:32:41Z</time>
      </trkpt>
      <trkpt lat="46.16231" lon="6.84163">
        <ele>1338</ele>
        <time>2010-01-01T23:32:43Z</time>
      </trkpt>
      <trkpt lat="46.16231" lon="6.84167">
        <ele>1338</ele>
        <time>2010-01-01T23:32:44Z</time>
      </trkpt>
      <trkpt lat="46.1623" lon="6.84172">
        <ele>1339</ele>
        <time>2010-01-01T23:32:45Z</time>
      </trkpt>
      <trkpt lat="46.16229" lon="6.84179">
        <ele>1338</ele>
        <time>2010-01-01T23:32:47Z</time>
      </trkpt>
      <trkpt lat="46.16228" lon="6.84187">
        <ele>1336</ele>
        <time>2010-01-01T23:32:50Z</time>
      </trkpt>
      <trkpt lat="46.16227" lon="6.8419">
        <ele>1336</ele>
        <time>2010-01-01T23:32:50Z</time>
      </trkpt>
      <trkpt lat="46.16226" lon="6.84194">
        <ele>1335</ele>
        <time>2010-01-01T23:32:52Z</time>
      </trkpt>
      <trkpt lat="46.16226" lon="6.84199">
        <ele>1335</ele>
        <time>2010-01-01T23:32:53Z</time>
      </trkpt>
      <trkpt lat="46.16226" lon="6.84206">
        <ele>1334</ele>
        <time>2010-01-01T23:32:55Z</time>
      </trkpt>
      <trkpt lat="46.16228" lon="6.8421">
        <ele>1335</ele>
        <time>2010-01-01T23:32:56Z</time>
      </trkpt>
      <trkpt lat="46.1623" lon="6.84213">
        <ele>1335</ele>
        <time>2010-01-01T23:32:57Z</time>
      </trkpt>
      <trkpt lat="46.16233" lon="6.8422">
        <ele>1336</ele>
        <time>2010-01-01T23:33:00Z</time>
      </trkpt>
      <trkpt lat="46.16234" lon="6.84222">
        <ele>1337</ele>
        <time>2010-01-01T23:33:01Z</time>
      </trkpt>
      <trkpt lat="46.16237" lon="6.84227">
        <ele>1338</ele>
        <time>2010-01-01T23:33:02Z</time>
      </trkpt>
      <trkpt lat="46.16238" lon="6.8423">
        <ele>1339</ele>
        <time>2010-01-01T23:33:03Z</time>
      </trkpt>
      <trkpt lat="46.16239" lon="6.84235">
        <ele>1341</ele>
        <time>2010-01-01T23:33:05Z</time>
      </trkpt>
      <trkpt lat="46.1624" lon="6.84236">
        <ele>1341</ele>
        <time>2010-01-01T23:33:05Z</time>
      </trkpt>
      <trkpt lat="46.16242" lon="6.84242">
        <ele>1344</ele>
        <time>2010-01-01T23:33:07Z</time>
      </trkpt>
      <trkpt lat="46.16243" lon="6.84245">
        <ele>1345</ele>
        <time>2010-01-01T23:33:08Z</time>
      </trkpt>
      <trkpt lat="46.16242" lon="6.84256">
        <ele>1344</ele>
        <time>2010-01-01T23:33:11Z</time>
      </trkpt>
      <trkpt lat="46.16236" lon="6.84264">
        <ele>1339</ele>
        <time>2010-01-01T23:33:14Z</time>
      </trkpt>
      <trkpt lat="46.16234" lon="6.84264">
        <ele>1338</ele>
        <time>2010-01-01T23:33:15Z</time>
      </trkpt>
      <trkpt lat="46.1623" lon="6.84267">
        <ele>1336</ele>
        <time>2010-01-01T23:33:17Z</time>
      </trkpt>
      <trkpt lat="46.16228" lon="6.84267">
        <ele>1336</ele>
        <time>2010-01-01T23:33:18Z</time>
      </trkpt>
      <trkpt lat="46.16225" lon="6.84268">
        <ele>1334</ele>
        <time>2010-01-01T23:33:19Z</time>
      </trkpt>
      <trkpt lat="46.16221" lon="6.8427">
        <ele>1333</ele>
        <time>2010-01-01T23:33:20Z</time>
      </trkpt>
      <trkpt lat="46.16219" lon="6.84271">
        <ele>1332</ele>
        <time>2010-01-01T23:33:21Z</time>
      </trkpt>
      <trkpt lat="46.16212" lon="6.84283">
        <ele>1330</ele>
        <time>2010-01-01T23:33:26Z</time>
      </trkpt>
      <trkpt lat="46.16211" lon="6.84347">
        <ele>1328</ele>
        <time>2010-01-01T23:33:44Z</time>
      </trkpt>
      <trkpt lat="46.16208" lon="6.84384">
        <ele>1327</ele>
        <time>2010-01-01T23:33:54Z</time>
      </trkpt>
      <trkpt lat="46.16208" lon="6.84386">
        <ele>1327</ele>
        <time>2010-01-01T23:33:54Z</time>
      </trkpt>
      <trkpt lat="46.1621" lon="6.84392">
        <ele>1327</ele>
        <time>2010-01-01T23:33:56Z</time>
      </trkpt>
      <trkpt lat="46.16211" lon="6.84403">
        <ele>1328</ele>
        <time>2010-01-01T23:33:59Z</time>
      </trkpt>
      <trkpt lat="46.16212" lon="6.84408">
        <ele>1328</ele>
        <time>2010-01-01T23:34:01Z</time>
      </trkpt>
      <trkpt lat="46.16211" lon="6.84413">
        <ele>1328</ele>
        <time>2010-01-01T23:34:02Z</time>
      </trkpt>
      <trkpt lat="46.16212" lon="6.84417">
        <ele>1328</ele>
        <time>2010-01-01T23:34:03Z</time>
      </trkpt>
      <trkpt lat="46.16212" lon="6.84426">
        <ele>1329</ele>
        <time>2010-01-01T23:34:06Z</time>
      </trkpt>
      <trkpt lat="46.16213" lon="6.84434">
        <ele>1329</ele>
        <time>2010-01-01T23:34:08Z</time>
      </trkpt>
      <trkpt lat="46.16212" lon="6.84442">
        <ele>1329</ele>
        <time>2010-01-01T23:34:10Z</time>
      </trkpt>
      <trkpt lat="46.16211" lon="6.84445">
        <ele>1329</ele>
        <time>2010-01-01T23:34:11Z</time>
      </trkpt>
      <trkpt lat="46.16211" lon="6.84455">
        <ele>1329</ele>
        <time>2010-01-01T23:34:14Z</time>
      </trkpt>
      <trkpt lat="46.1621" lon="6.84457">
        <ele>1329</ele>
        <time>2010-01-01T23:34:14Z</time>
      </trkpt>
      <trkpt lat="46.16209" lon="6.84467">
        <ele>1329</ele>
        <time>2010-01-01T23:34:17Z</time>
      </trkpt>
      <trkpt lat="46.16209" lon="6.84471">
        <ele>1328</ele>
        <time>2010-01-01T23:34:18Z</time>
      </trkpt>
      <trkpt lat="46.16208" lon="6.84478">
        <ele>1328</ele>
        <time>2010-01-01T23:34:20Z</time>
      </trkpt>
      <trkpt lat="46.16208" lon="6.84481">
        <ele>1328</ele>
        <time>2010-01-01T23:34:21Z</time>
      </trkpt>
      <trkpt lat="46.16208" lon="6.84519">
        <ele>1329</ele>
        <time>2010-01-01T23:34:32Z</time>
      </trkpt>
      <trkpt lat="46.16217" lon="6.8471">
        <ele>1321</ele>
        <time>2010-01-01T23:35:25Z</time>
      </trkpt>
      <trkpt lat="46.16245" lon="6.84891">
        <ele>1294</ele>
        <time>2010-01-01T23:36:16Z</time>
      </trkpt>
      <trkpt lat="46.16256" lon="6.8495">
        <ele>1310</ele>
        <time>2010-01-01T23:36:33Z</time>
      </trkpt>
      <trkpt lat="46.16257" lon="6.84955">
        <ele>1309</ele>
        <time>2010-01-01T23:36:35Z</time>
      </trkpt>
      <trkpt lat="46.16264" lon="6.84999">
        <ele>1294</ele>
        <time>2010-01-01T23:36:47Z</time>
      </trkpt>
      <trkpt lat="46.16298" lon="6.85071">
        <ele>1294</ele>
        <time>2010-01-01T23:37:11Z</time>
      </trkpt>
      <trkpt lat="46.16326" lon="6.85135">
        <ele>1275</ele>
        <time>2010-01-01T23:37:32Z</time>
      </trkpt>
      <trkpt lat="46.16348" lon="6.85192">
        <ele>1277</ele>
        <time>2010-01-01T23:37:50Z</time>
      </trkpt>
      <trkpt lat="46.1637" lon="6.85214">
        <ele>1278</ele>
        <time>2010-01-01T23:38:01Z</time>
      </trkpt>
      <trkpt lat="46.164" lon="6.8526">
        <ele>1266</ele>
        <time>2010-01-01T23:38:19Z</time>
      </trkpt>
      <trkpt lat="46.16426" lon="6.85303">
        <ele>1276</ele>
        <time>2010-01-01T23:38:34Z</time>
      </trkpt>
      <trkpt lat="46.16452" lon="6.85357">
        <ele>1259</ele>
        <time>2010-01-01T23:38:53Z</time>
      </trkpt>
      <trkpt lat="46.16488" lon="6.85418">
        <ele>1250</ele>
        <time>2010-01-01T23:39:15Z</time>
      </trkpt>
      <trkpt lat="46.16538" lon="6.85501">
        <ele>1234</ele>
        <time>2010-01-01T23:39:45Z</time>
      </trkpt>
      <trkpt lat="46.16585" lon="6.85546">
        <ele>1247</ele>
        <time>2010-01-01T23:40:08Z</time>
      </trkpt>
      <trkpt lat="46.16606" lon="6.85563">
        <ele>1246</ele>
        <time>2010-01-01T23:40:18Z</time>
      </trkpt>
      <trkpt lat="46.16604" lon="6.85596">
        <ele>1226</ele>
        <time>2010-01-01T23:40:27Z</time>
      </trkpt>
      <trkpt lat="46.16649" lon="6.85667">
        <ele>1225</ele>
        <time>2010-01-01T23:40:54Z</time>
      </trkpt>
      <trkpt lat="46.16664" lon="6.85714">
        <ele>1200</ele>
        <time>2010-01-01T23:41:08Z</time>
      </trkpt>
      <trkpt lat="46.16697" lon="6.8574">
        <ele>1222</ele>
        <time>2010-01-01T23:41:23Z</time>
      </trkpt>
      <trkpt lat="46.16755" lon="6.85823">
        <ele>1204</ele>
        <time>2010-01-01T23:41:56Z</time>
      </trkpt>
      <trkpt lat="46.16785" lon="6.85878">
        <ele>1187</ele>
        <time>2010-01-01T23:42:15Z</time>
      </trkpt>
      <trkpt lat="46.1683" lon="6.85914">
        <ele>1185</ele>
        <time>2010-01-01T23:42:36Z</time>
      </trkpt>
      <trkpt lat="46.16844" lon="6.85913">
        <ele>1193</ele>
        <time>2010-01-01T23:42:42Z</time>
      </trkpt>
      <trkpt lat="46.16844" lon="6.85977">
        <ele>1177</ele>
        <time>2010-01-01T23:42:59Z</time>
      </trkpt>
      <trkpt lat="46.16882" lon="6.86028">
        <ele>1163</ele>
        <time>2010-01-01T23:43:20Z</time>
      </trkpt>
      <trkpt lat="46.16946" lon="6.8607">
        <ele>1165</ele>
        <time>2010-01-01T23:43:48Z</time>
      </trkpt>
      <trkpt lat="46.16987" lon="6.86095">
        <ele>1151</ele>
        <time>2010-01-01T23:44:06Z</time>
      </trkpt>
      <trkpt lat="46.17021" lon="6.86111">
        <ele>1154</ele>
        <time>2010-01-01T23:44:20Z</time>
      </trkpt>
      <trkpt lat="46.17098" lon="6.86201">
        <ele>1137</ele>
        <time>2010-01-01T23:45:00Z</time>
      </trkpt>
      <trkpt lat="46.17149" lon="6.86283">
        <ele>1111</ele>
        <time>2010-01-01T23:45:30Z</time>
      </trkpt>
      <trkpt lat="46.1721" lon="6.86291">
        <ele>1116</ele>
        <time>2010-01-01T23:45:55Z</time>
      </trkpt>
      <trkpt lat="46.17249" lon="6.86279">
        <ele>1121</ele>
        <time>2010-01-01T23:46:11Z</time>
      </trkpt>
      <trkpt lat="46.17253" lon="6.86283">
        <ele>1126</ele>
        <time>2010-01-01T23:46:13Z</time>
      </trkpt>
      <trkpt lat="46.17298" lon="6.86338">
        <ele>1106</ele>
        <time>2010-01-01T23:46:36Z</time>
      </trkpt>
      <trkpt lat="46.17317" lon="6.86401">
        <ele>1100</ele>
        <time>2010-01-01T23:46:55Z</time>
      </trkpt>
      <trkpt lat="46.17356" lon="6.86425">
        <ele>1101</ele>
        <time>2010-01-01T23:47:12Z</time>
      </trkpt>
      <trkpt lat="46.17372" lon="6.86515">
        <ele>1086</ele>
        <time>2010-01-01T23:47:38Z</time>
      </trkpt>
      <trkpt lat="46.17396" lon="6.86584">
        <ele>1074</ele>
        <time>2010-01-01T23:48:00Z</time>
      </trkpt>
      <trkpt lat="46.17397" lon="6.866">
        <ele>1073</ele>
        <time>2010-01-01T23:48:04Z</time>
      </trkpt>
      <trkpt lat="46.17407" lon="6.86608">
        <ele>1073</ele>
        <time>2010-01-01T23:48:08Z</time>
      </trkpt>
      <trkpt lat="46.17426" lon="6.8662">
        <ele>1076</ele>
        <time>2010-01-01T23:48:17Z</time>
      </trkpt>
      <trkpt lat="46.17442" lon="6.86629">
        <ele>1076</ele>
        <time>2010-01-01T23:48:24Z</time>
      </trkpt>
      <trkpt lat="46.1746" lon="6.86636">
        <ele>1076</ele>
        <time>2010-01-01T23:48:31Z</time>
      </trkpt>
      <trkpt lat="46.17481" lon="6.86644">
        <ele>1075</ele>
        <time>2010-01-01T23:48:40Z</time>
      </trkpt>
      <trkpt lat="46.17503" lon="6.86651">
        <ele>1077</ele>
        <time>2010-01-01T23:48:49Z</time>
      </trkpt>
      <trkpt lat="46.17505" lon="6.86652">
        <ele>1077</ele>
        <time>2010-01-01T23:48:50Z</time>
      </trkpt>
      <trkpt lat="46.17519" lon="6.86659">
        <ele>1078</ele>
        <time>2010-01-01T23:48:56Z</time>
      </trkpt>
      <trkpt lat="46.17527" lon="6.86671">
        <ele>1068</ele>
        <time>2010-01-01T23:49:00Z</time>
      </trkpt>
      <trkpt lat="46.1752" lon="6.86679">
        <ele>1068</ele>
        <time>2010-01-01T23:49:04Z</time>
      </trkpt>
      <trkpt lat="46.17513" lon="6.86695">
        <ele>1067</ele>
        <time>2010-01-01T23:49:09Z</time>
      </trkpt>
      <trkpt lat="46.17483" lon="6.86726">
        <ele>1061</ele>
        <time>2010-01-01T23:49:24Z</time>
      </trkpt>
      <trkpt lat="46.17438" lon="6.86766">
        <ele>1055</ele>
        <time>2010-01-01T23:49:45Z</time>
      </trkpt>
      <trkpt lat="46.17434" lon="6.8678">
        <ele>1055</ele>
        <time>2010-01-01T23:49:49Z</time>
      </trkpt>
      <trkpt lat="46.17472" lon="6.86855">
        <ele>1047</ele>
        <time>2010-01-01T23:50:15Z</time>
      </trkpt>
      <trkpt lat="46.175" lon="6.86899">
        <ele>1045</ele>
        <time>2010-01-01T23:50:32Z</time>
      </trkpt>
      <trkpt lat="46.17523" lon="6.86932">
        <ele>1042</ele>
        <time>2010-01-01T23:50:45Z</time>
      </trkpt>
      <trkpt lat="46.17529" lon="6.8696">
        <ele>1041</ele>
        <time>2010-01-01T23:50:53Z</time>
      </trkpt>
      <trkpt lat="46.17515" lon="6.87021">
        <ele>1037</ele>
        <time>2010-01-01T23:51:11Z</time>
      </trkpt>
      <trkpt lat="46.17507" lon="6.87048">
        <ele>1036</ele>
        <time>2010-01-01T23:51:19Z</time>
      </trkpt>
      <trkpt lat="46.17507" lon="6.87105">
        <ele>1033</ele>
        <time>2010-01-01T23:51:35Z</time>
      </trkpt>
      <trkpt lat="46.17501" lon="6.87144">
        <ele>1032</ele>
        <time>2010-01-01T23:51:46Z</time>
      </trkpt>
      <trkpt lat="46.17481" lon="6.87111">
        <ele>1031</ele>
        <time>2010-01-01T23:51:58Z</time>
      </trkpt>
      <trkpt lat="46.17493" lon="6.8709">
        <ele>1033</ele>
        <time>2010-01-01T23:52:06Z</time>
      </trkpt>
      <trkpt lat="46.175" lon="6.87086">
        <ele>1034</ele>
        <time>2010-01-01T23:52:09Z</time>
      </trkpt>
      <trkpt lat="46.1749" lon="6.87065">
        <ele>1036</ele>
        <time>2010-01-01T23:52:16Z</time>
      </trkpt>
      <trkpt lat="46.17486" lon="6.8681">
        <ele>1053</ele>
        <time>2010-01-01T23:53:26Z</time>
      </trkpt>
      <trkpt lat="46.17481" lon="6.86446">
        <ele>1129</ele>
        <time>2010-01-01T23:55:07Z</time>
      </trkpt>
      <trkpt lat="46.17478" lon="6.86232">
        <ele>1202</ele>
        <time>2010-01-01T23:56:07Z</time>
      </trkpt>
      <trkpt lat="46.17478" lon="6.86123">
        <ele>1230</ele>
        <time>2010-01-01T23:56:37Z</time>
      </trkpt>
      <trkpt lat="46.17492" lon="6.86061">
        <ele>1259</ele>
        <time>2010-01-01T23:56:55Z</time>
      </trkpt>
      <trkpt lat="46.17494" lon="6.86037">
        <ele>1265</ele>
        <time>2010-01-01T23:57:02Z</time>
      </trkpt>
      <trkpt lat="46.17495" lon="6.86002">
        <ele>1283</ele>
        <time>2010-01-01T23:57:11Z</time>
      </trkpt>
      <trkpt lat="46.17496" lon="6.8598">
        <ele>1291</ele>
        <time>2010-01-01T23:57:18Z</time>
      </trkpt>
      <trkpt lat="46.17498" lon="6.85932">
        <ele>1306</ele>
        <time>2010-01-01T23:57:31Z</time>
      </trkpt>
      <trkpt lat="46.175" lon="6.85823">
        <ele>1347</ele>
        <time>2010-01-01T23:58:01Z</time>
      </trkpt>
      <trkpt lat="46.17512" lon="6.85483">
        <ele>1491</ele>
        <time>2010-01-01T23:59:35Z</time>
      </trkpt>
      <trkpt lat="46.17514" lon="6.8522">
        <ele>1559</ele>
        <time>2010-01-02T00:00:48Z</time>
      </trkpt>
      <trkpt lat="46.17509" lon="6.84825">
        <ele>1764</ele>
        <time>2010-01-02T00:02:38Z</time>
      </trkpt>
      <trkpt lat="46.17508" lon="6.84784">
        <ele>1788</ele>
        <time>2010-01-02T00:02:49Z</time>
      </trkpt>
      <trkpt lat="46.17508" lon="6.84695">
        <ele>1861</ele>
        <time>2010-01-02T00:03:14Z</time>
      </trkpt>
      <trkpt lat="46.17505" lon="6.84673">
        <ele>1884</ele>
        <time>2010-01-02T00:03:20Z</time>
      </trkpt>
      <trkpt lat="46.17506" lon="6.84658">
        <ele>1901</ele>
        <time>2010-01-02T00:03:24Z</time>
      </trkpt>
      <trkpt lat="46.17507" lon="6.84623">
        <ele>1910</ele>
        <time>2010-01-02T00:03:34Z</time>
      </trkpt>
      <trkpt lat="46.17509" lon="6.84617">
        <ele>1912</ele>
        <time>2010-01-02T00:03:36Z</time>
      </trkpt>
      <trkpt lat="46.17512" lon="6.84614">
        <ele>1913</ele>
        <time>2010-01-02T00:03:37Z</time>
      </trkpt>
      <trkpt lat="46.17514" lon="6.84612">
        <ele>1913</ele>
        <time>2010-01-02T00:03:38Z</time>
      </trkpt>
      <trkpt lat="46.17514" lon="6.84611">
        <ele>1914</ele>
        <time>2010-01-02T00:03:38Z</time>
      </trkpt>
      <trkpt lat="46.17514" lon="6.84605">
        <ele>1916</ele>
        <time>2010-01-02T00:03:40Z</time>
      </trkpt>
      <trkpt lat="46.17509" lon="6.84598">
        <ele>1919</ele>
        <time>2010-01-02T00:03:43Z</time>
      </trkpt>
      <trkpt lat="46.17502" lon="6.84581">
        <ele>1929</ele>
        <time>2010-01-02T00:03:48Z</time>
      </trkpt>
      <trkpt lat="46.17513" lon="6.84566">
        <ele>1929</ele>
        <time>2010-01-02T00:03:54Z</time>
      </trkpt>
      <trkpt lat="46.17515" lon="6.84533">
        <ele>1928</ele>
        <time>2010-01-02T00:04:03Z</time>
      </trkpt>
      <trkpt lat="46.17518" lon="6.84524">
        <ele>1928</ele>
        <time>2010-01-02T00:04:06Z</time>
      </trkpt>
      <trkpt lat="46.17518" lon="6.84524">
        <ele>1928</ele>
        <time>2010-01-02T00:04:06Z</time>
      </trkpt>
      <trkpt lat="46.17518" lon="6.84523">
        <ele>1927</ele>
        <time>2010-01-02T00:04:06Z</time>
      </trkpt>
      <trkpt lat="46.17522" lon="6.84511">
        <ele>1927</ele>
        <time>2010-01-02T00:04:10Z</time>
      </trkpt>
      <trkpt lat="46.17522" lon="6.84508">
        <ele>1927</ele>
        <time>2010-01-02T00:04:11Z</time>
      </trkpt>
      <trkpt lat="46.17523" lon="6.84507">
        <ele>1927</ele>
        <time>2010-01-02T00:04:11Z</time>
      </trkpt>
      <trkpt lat="46.17528" lon="6.84494">
        <ele>1921</ele>
        <time>2010-01-02T00:04:16Z</time>
      </trkpt>
      <trkpt lat="46.17529" lon="6.84492">
        <ele>1921</ele>
        <time>2010-01-02T00:04:16Z</time>
      </trkpt>
      <trkpt lat="46.17542" lon="6.84469">
        <ele>1919</ele>
        <time>2010-01-02T00:04:24Z</time>
      </trkpt>
      <trkpt lat="46.17542" lon="6.84469">
        <ele>1919</ele>
        <time>2010-01-02T00:04:25Z</time>
      </trkpt>
      <trkpt lat="46.17551" lon="6.84462">
        <ele>1919</ele>
        <time>2010-01-02T00:04:28Z</time>
      </trkpt>
      <trkpt lat="46.17559" lon="6.84451">
        <ele>1918</ele>
        <time>2010-01-02T00:04:33Z</time>
      </trkpt>
      <trkpt lat="46.17565" lon="6.84448">
        <ele>1918</ele>
        <time>2010-01-02T00:04:35Z</time>
      </trkpt>
      <trkpt lat="46.17568" lon="6.84448">
        <ele>1918</ele>
        <time>2010-01-02T00:04:37Z</time>
      </trkpt>
      <trkpt lat="46.17569" lon="6.84448">
        <ele>1918</ele>
        <time>2010-01-02T00:04:37Z</time>
      </trkpt>
      <trkpt lat="46.17572" lon="6.84441">
        <ele>1917</ele>
        <time>2010-01-02T00:04:39Z</time>
      </trkpt>
      <trkpt lat="46.17572" lon="6.84431">
        <ele>1916</ele>
        <time>2010-01-02T00:04:42Z</time>
      </trkpt>
      <trkpt lat="46.17573" lon="6.84428">
        <ele>1916</ele>
        <time>2010-01-02T00:04:43Z</time>
      </trkpt>
      <trkpt lat="46.17574" lon="6.84413">
        <ele>1911</ele>
        <time>2010-01-02T00:04:47Z</time>
      </trkpt>
      <trkpt lat="46.17574" lon="6.84413">
        <ele>1910</ele>
        <time>2010-01-02T00:04:47Z</time>
      </trkpt>
      <trkpt lat="46.17571" lon="6.84407">
        <ele>1909</ele>
        <time>2010-01-02T00:04:49Z</time>
      </trkpt>
      <trkpt lat="46.17571" lon="6.84404">
        <ele>1909</ele>
        <time>2010-01-02T00:04:50Z</time>
      </trkpt>
      <trkpt lat="46.17574" lon="6.8437">
        <ele>1904</ele>
        <time>2010-01-02T00:05:00Z</time>
      </trkpt>
      <trkpt lat="46.17575" lon="6.84347">
        <ele>1903</ele>
        <time>2010-01-02T00:05:06Z</time>
      </trkpt>
      <trkpt lat="46.1758" lon="6.84305">
        <ele>1899</ele>
        <time>2010-01-02T00:05:18Z</time>
      </trkpt>
      <trkpt lat="46.17572" lon="6.84284">
        <ele>1898</ele>
        <time>2010-01-02T00:05:24Z</time>
      </trkpt>
      <trkpt lat="46.1757" lon="6.84264">
        <ele>1899</ele>
        <time>2010-01-02T00:05:30Z</time>
      </trkpt>
      <trkpt lat="46.17565" lon="6.84244">
        <ele>1897</ele>
        <time>2010-01-02T00:05:36Z</time>
      </trkpt>
      <trkpt lat="46.17569" lon="6.84194">
        <ele>1895</ele>
        <time>2010-01-02T00:05:50Z</time>
      </trkpt>
      <trkpt lat="46.17577" lon="6.84162">
        <ele>1897</ele>
        <time>2010-01-02T00:05:59Z</time>
      </trkpt>
      <trkpt lat="46.17583" lon="6.84138">
        <ele>1891</ele>
        <time>2010-01-02T00:06:06Z</time>
      </trkpt>
      <trkpt lat="46.17588" lon="6.84109">
        <ele>1900</ele>
        <time>2010-01-02T00:06:14Z</time>
      </trkpt>
      <trkpt lat="46.17588" lon="6.84088">
        <ele>1897</ele>
        <time>2010-01-02T00:06:20Z</time>
      </trkpt>
      <trkpt lat="46.1761" lon="6.84003">
        <ele>1897</ele>
        <time>2010-01-02T00:06:45Z</time>
      </trkpt>
      <trkpt lat="46.17624" lon="6.83911">
        <ele>1882</ele>
        <time>2010-01-02T00:07:11Z</time>
      </trkpt>
      <trkpt lat="46.17634" lon="6.83854">
        <ele>1879</ele>
        <time>2010-01-02T00:07:28Z</time>
      </trkpt>
      <trkpt lat="46.17645" lon="6.8383">
        <ele>1872</ele>
        <time>2010-01-02T00:07:36Z</time>
      </trkpt>
      <trkpt lat="46.17671" lon="6.83777">
        <ele>1872</ele>
        <time>2010-01-02T00:07:54Z</time>
      </trkpt>
      <trkpt lat="46.17687" lon="6.83758">
        <ele>1870</ele>
        <time>2010-01-02T00:08:02Z</time>
      </trkpt>
      <trkpt lat="46.17702" lon="6.83752">
        <ele>1870</ele>
        <time>2010-01-02T00:08:08Z</time>
      </trkpt>
      <trkpt lat="46.1772" lon="6.8374">
        <ele>1858</ele>
        <time>2010-01-02T00:08:16Z</time>
      </trkpt>
      <trkpt lat="46.17739" lon="6.8374">
        <ele>1860</ele>
        <time>2010-01-02T00:08:24Z</time>
      </trkpt>
      <trkpt lat="46.17754" lon="6.83725">
        <ele>1856</ele>
        <time>2010-01-02T00:08:31Z</time>
      </trkpt>
      <trkpt lat="46.17765" lon="6.8371">
        <ele>1853</ele>
        <time>2010-01-02T00:08:37Z</time>
      </trkpt>
      <trkpt lat="46.17768" lon="6.83688">
        <ele>1851</ele>
        <time>2010-01-02T00:08:43Z</time>
      </trkpt>
      <trkpt lat="46.17768" lon="6.83686">
        <ele>1851</ele>
        <time>2010-01-02T00:08:44Z</time>
      </trkpt>
      <trkpt lat="46.17768" lon="6.83672">
        <ele>1850</ele>
        <time>2010-01-02T00:08:48Z</time>
      </trkpt>
      <trkpt lat="46.17754" lon="6.83653">
        <ele>1845</ele>
        <time>2010-01-02T00:08:56Z</time>
      </trkpt>
      <trkpt lat="46.17744" lon="6.83632">
        <ele>1842</ele>
        <time>2010-01-02T00:09:03Z</time>
      </trkpt>
      <trkpt lat="46.1774" lon="6.83609">
        <ele>1840</ele>
        <time>2010-01-02T00:09:09Z</time>
      </trkpt>
      <trkpt lat="46.1775" lon="6.83569">
        <ele>1833</ele>
        <time>2010-01-02T00:09:21Z</time>
      </trkpt>
      <trkpt lat="46.17759" lon="6.83538">
        <ele>1829</ele>
        <time>2010-01-02T00:09:30Z</time>
      </trkpt>
      <trkpt lat="46.17769" lon="6.83504">
        <ele>1828</ele>
        <time>2010-01-02T00:09:41Z</time>
      </trkpt>
      <trkpt lat="46.17772" lon="6.83484">
        <ele>1823</ele>
        <time>2010-01-02T00:09:46Z</time>
      </trkpt>
      <trkpt lat="46.17775" lon="6.83464">
        <ele>1821</ele>
        <time>2010-01-02T00:09:52Z</time>
      </trkpt>
      <trkpt lat="46.17778" lon="6.83437">
        <ele>1820</ele>
        <time>2010-01-02T00:10:00Z</time>
      </trkpt>
      <trkpt lat="46.17778" lon="6.83435">
        <ele>1820</ele>
        <time>2010-01-02T00:10:00Z</time>
      </trkpt>
      <trkpt lat="46.17772" lon="6.83412">
        <ele>1816</ele>
        <time>2010-01-02T00:10:07Z</time>
      </trkpt>
      <trkpt lat="46.17767" lon="6.83396">
        <ele>1816</ele>
        <time>2010-01-02T00:10:12Z</time>
      </trkpt>
      <trkpt lat="46.17757" lon="6.83371">
        <ele>1813</ele>
        <time>2010-01-02T00:10:20Z</time>
      </trkpt>
      <trkpt lat="46.17749" lon="6.83356">
        <ele>1809</ele>
        <time>2010-01-02T00:10:25Z</time>
      </trkpt>
      <trkpt lat="46.17755" lon="6.83347">
        <ele>1811</ele>
        <time>2010-01-02T00:10:28Z</time>
      </trkpt>
      <trkpt lat="46.17761" lon="6.83336">
        <ele>1811</ele>
        <time>2010-01-02T00:10:32Z</time>
      </trkpt>
      <trkpt lat="46.17769" lon="6.83316">
        <ele>1808</ele>
        <time>2010-01-02T00:10:39Z</time>
      </trkpt>
      <trkpt lat="46.17785" lon="6.83269">
        <ele>1807</ele>
        <time>2010-01-02T00:10:53Z</time>
      </trkpt>
      <trkpt lat="46.17805" lon="6.83222">
        <ele>1806</ele>
        <time>2010-01-02T00:11:08Z</time>
      </trkpt>
      <trkpt lat="46.17805" lon="6.83205">
        <ele>1806</ele>
        <time>2010-01-02T00:11:13Z</time>
      </trkpt>
      <trkpt lat="46.17821" lon="6.83135">
        <ele>1805</ele>
        <time>2010-01-02T00:11:34Z</time>
      </trkpt>
      <trkpt lat="46.17842" lon="6.83057">
        <ele>1805</ele>
        <time>2010-01-02T00:11:57Z</time>
      </trkpt>
      <trkpt lat="46.17846" lon="6.83046">
        <ele>1805</ele>
        <time>2010-01-02T00:12:00Z</time>
      </trkpt>
      <trkpt lat="46.17851" lon="6.83049">
        <ele>1804</ele>
        <time>2010-01-02T00:12:03Z</time>
      </trkpt>
      <trkpt lat="46.1786" lon="6.83049">
        <ele>1804</ele>
        <time>2010-01-02T00:12:06Z</time>
      </trkpt>
      <trkpt lat="46.1787" lon="6.83039">
        <ele>1803</ele>
        <time>2010-01-02T00:12:11Z</time>
      </trkpt>
      <trkpt lat="46.17883" lon="6.83015">
        <ele>1802</ele>
        <time>2010-01-02T00:12:19Z</time>
      </trkpt>
      <trkpt lat="46.17891" lon="6.82982">
        <ele>1804</ele>
        <time>2010-01-02T00:12:29Z</time>
      </trkpt>
      <trkpt lat="46.17896" lon="6.82958">
        <ele>1805</ele>
        <time>2010-01-02T00:12:36Z</time>
      </trkpt>
      <trkpt lat="46.17901" lon="6.8295">
        <ele>1805</ele>
        <time>2010-01-02T00:12:39Z</time>
      </trkpt>
      <trkpt lat="46.17907" lon="6.82949">
        <ele>1805</ele>
        <time>2010-01-02T00:12:41Z</time>
      </trkpt>
      <trkpt lat="46.17911" lon="6.82957">
        <ele>1805</ele>
        <time>2010-01-02T00:12:44Z</time>
      </trkpt>
      <trkpt lat="46.17915" lon="6.82976">
        <ele>1803</ele>
        <time>2010-01-02T00:12:49Z</time>
      </trkpt>
      <trkpt lat="46.17918" lon="6.82989">
        <ele>1793</ele>
        <time>2010-01-02T00:12:53Z</time>
      </trkpt>
      <trkpt lat="46.17925" lon="6.83">
        <ele>1794</ele>
        <time>2010-01-02T00:12:57Z</time>
      </trkpt>
      <trkpt lat="46.17928" lon="6.83025">
        <ele>1788</ele>
        <time>2010-01-02T00:13:04Z</time>
      </trkpt>
      <trkpt lat="46.17928" lon="6.83049">
        <ele>1787</ele>
        <time>2010-01-02T00:13:11Z</time>
      </trkpt>
      <trkpt lat="46.17928" lon="6.83068">
        <ele>1788</ele>
        <time>2010-01-02T00:13:16Z</time>
      </trkpt>
      <trkpt lat="46.17929" lon="6.83082">
        <ele>1790</ele>
        <time>2010-01-02T00:13:20Z</time>
      </trkpt>
      <trkpt lat="46.1793" lon="6.83094">
        <ele>1790</ele>
        <time>2010-01-02T00:13:24Z</time>
      </trkpt>
      <trkpt lat="46.17935" lon="6.83104">
        <ele>1788</ele>
        <time>2010-01-02T00:13:27Z</time>
      </trkpt>
      <trkpt lat="46.17939" lon="6.83104">
        <ele>1788</ele>
        <time>2010-01-02T00:13:29Z</time>
      </trkpt>
      <trkpt lat="46.1794" lon="6.83101">
        <ele>1788</ele>
        <time>2010-01-02T00:13:29Z</time>
      </trkpt>
      <trkpt lat="46.17942" lon="6.83086">
        <ele>1788</ele>
        <time>2010-01-02T00:13:34Z</time>
      </trkpt>
      <trkpt lat="46.17942" lon="6.83085">
        <ele>1788</ele>
        <time>2010-01-02T00:13:34Z</time>
      </trkpt>
      <trkpt lat="46.17942" lon="6.83084">
        <ele>1788</ele>
        <time>2010-01-02T00:13:34Z</time>
      </trkpt>
      <trkpt lat="46.17952" lon="6.83042">
        <ele>1784</ele>
        <time>2010-01-02T00:13:46Z</time>
      </trkpt>
      <trkpt lat="46.17952" lon="6.83041">
        <ele>1783</ele>
        <time>2010-01-02T00:13:47Z</time>
      </trkpt>
      <trkpt lat="46.17953" lon="6.83039">
        <ele>1783</ele>
        <time>2010-01-02T00:13:47Z</time>
      </trkpt>
      <trkpt lat="46.17962" lon="6.83006">
        <ele>1781</ele>
        <time>2010-01-02T00:13:57Z</time>
      </trkpt>
      <trkpt lat="46.17963" lon="6.83003">
        <ele>1781</ele>
        <time>2010-01-02T00:13:58Z</time>
      </trkpt>
      <trkpt lat="46.17967" lon="6.82971">
        <ele>1784</ele>
        <time>2010-01-02T00:14:07Z</time>
      </trkpt>
      <trkpt lat="46.17967" lon="6.8297">
        <ele>1784</ele>
        <time>2010-01-02T00:14:07Z</time>
      </trkpt>
      <trkpt lat="46.1797" lon="6.82948">
        <ele>1785</ele>
        <time>2010-01-02T00:14:14Z</time>
      </trkpt>
      <trkpt lat="46.17972" lon="6.82946">
        <ele>1785</ele>
        <time>2010-01-02T00:14:14Z</time>
      </trkpt>
      <trkpt lat="46.17988" lon="6.82931">
        <ele>1783</ele>
        <time>2010-01-02T00:14:22Z</time>
      </trkpt>
      <trkpt lat="46.17989" lon="6.8293">
        <ele>1783</ele>
        <time>2010-01-02T00:14:23Z</time>
      </trkpt>
      <trkpt lat="46.18017" lon="6.82929">
        <ele>1771</ele>
        <time>2010-01-02T00:14:34Z</time>
      </trkpt>
      <trkpt lat="46.18047" lon="6.82923">
        <ele>1767</ele>
        <time>2010-01-02T00:14:46Z</time>
      </trkpt>
      <trkpt lat="46.18065" lon="6.82906">
        <ele>1773</ele>
        <time>2010-01-02T00:14:55Z</time>
      </trkpt>
      <trkpt lat="46.18085" lon="6.82896">
        <ele>1764</ele>
        <time>2010-01-02T00:15:03Z</time>
      </trkpt>
      <trkpt lat="46.18101" lon="6.82898">
        <ele>1763</ele>
        <time>2010-01-02T00:15:10Z</time>
      </trkpt>
      <trkpt lat="46.1812" lon="6.82887">
        <ele>1763</ele>
        <time>2010-01-02T00:15:18Z</time>
      </trkpt>
      <trkpt lat="46.18133" lon="6.82881">
        <ele>1762</ele>
        <time>2010-01-02T00:15:23Z</time>
      </trkpt>
      <trkpt lat="46.18142" lon="6.82884">
        <ele>1761</ele>
        <time>2010-01-02T00:15:27Z</time>
      </trkpt>
      <trkpt lat="46.18143" lon="6.82904">
        <ele>1758</ele>
        <time>2010-01-02T00:15:32Z</time>
      </trkpt>
      <trkpt lat="46.18124" lon="6.82935">
        <ele>1750</ele>
        <time>2010-01-02T00:15:44Z</time>
      </trkpt>
      <trkpt lat="46.18115" lon="6.82951">
        <ele>1750</ele>
        <time>2010-01-02T00:15:50Z</time>
      </trkpt>
      <trkpt lat="46.18087" lon="6.82999">
        <ele>1749</ele>
        <time>2010-01-02T00:16:07Z</time>
      </trkpt>
      <trkpt lat="46.18077" lon="6.83031">
        <ele>1753</ele>
        <time>2010-01-02T00:16:17Z</time>
      </trkpt>
      <trkpt lat="46.18076" lon="6.83049">
        <ele>1752</ele>
        <time>2010-01-02T00:16:22Z</time>
      </trkpt>
      <trkpt lat="46.18085" lon="6.83064">
        <ele>1738</ele>
        <time>2010-01-02T00:16:27Z</time>
      </trkpt>
      <trkpt lat="46.18093" lon="6.83087">
        <ele>1737</ele>
        <time>2010-01-02T00:16:35Z</time>
      </trkpt>
      <trkpt lat="46.18098" lon="6.83103">
        <ele>1735</ele>
        <time>2010-01-02T00:16:40Z</time>
      </trkpt>
      <trkpt lat="46.18107" lon="6.83124">
        <ele>1733</ele>
        <time>2010-01-02T00:16:46Z</time>
      </trkpt>
      <trkpt lat="46.1812" lon="6.83139">
        <ele>1732</ele>
        <time>2010-01-02T00:16:53Z</time>
      </trkpt>
      <trkpt lat="46.18138" lon="6.83155">
        <ele>1728</ele>
        <time>2010-01-02T00:17:01Z</time>
      </trkpt>
      <trkpt lat="46.18147" lon="6.83171">
        <ele>1727</ele>
        <time>2010-01-02T00:17:07Z</time>
      </trkpt>
      <trkpt lat="46.18153" lon="6.83176">
        <ele>1726</ele>
        <time>2010-01-02T00:17:10Z</time>
      </trkpt>
      <trkpt lat="46.18161" lon="6.83188">
        <ele>1727</ele>
        <time>2010-01-02T00:17:15Z</time>
      </trkpt>
      <trkpt lat="46.18167" lon="6.83194">
        <ele>1716</ele>
        <time>2010-01-02T00:17:17Z</time>
      </trkpt>
      <trkpt lat="46.18176" lon="6.83195">
        <ele>1715</ele>
        <time>2010-01-02T00:17:21Z</time>
      </trkpt>
      <trkpt lat="46.18177" lon="6.83195">
        <ele>1715</ele>
        <time>2010-01-02T00:17:22Z</time>
      </trkpt>
      <trkpt lat="46.18186" lon="6.83196">
        <ele>1714</ele>
        <time>2010-01-02T00:17:25Z</time>
      </trkpt>
      <trkpt lat="46.18193" lon="6.83203">
        <ele>1714</ele>
        <time>2010-01-02T00:17:29Z</time>
      </trkpt>
      <trkpt lat="46.182" lon="6.83213">
        <ele>1713</ele>
        <time>2010-01-02T00:17:32Z</time>
      </trkpt>
      <trkpt lat="46.18208" lon="6.8322">
        <ele>1713</ele>
        <time>2010-01-02T00:17:36Z</time>
      </trkpt>
      <trkpt lat="46.18214" lon="6.83212">
        <ele>1712</ele>
        <time>2010-01-02T00:17:39Z</time>
      </trkpt>
      <trkpt lat="46.18214" lon="6.83202">
        <ele>1711</ele>
        <time>2010-01-02T00:17:42Z</time>
      </trkpt>
      <trkpt lat="46.18208" lon="6.83177">
        <ele>1712</ele>
        <time>2010-01-02T00:17:49Z</time>
      </trkpt>
      <trkpt lat="46.18205" lon="6.83169">
        <ele>1712</ele>
        <time>2010-01-02T00:17:52Z</time>
      </trkpt>
      <trkpt lat="46.18205" lon="6.83168">
        <ele>1712</ele>
        <time>2010-01-02T00:17:53Z</time>
      </trkpt>
      <trkpt lat="46.18206" lon="6.83157">
        <ele>1712</ele>
        <time>2010-01-02T00:17:55Z</time>
      </trkpt>
      <trkpt lat="46.18208" lon="6.83155">
        <ele>1711</ele>
        <time>2010-01-02T00:17:56Z</time>
      </trkpt>
      <trkpt lat="46.18242" lon="6.83131">
        <ele>1709</ele>
        <time>2010-01-02T00:18:12Z</time>
      </trkpt>
      <trkpt lat="46.18267" lon="6.83124">
        <ele>1705</ele>
        <time>2010-01-02T00:18:22Z</time>
      </trkpt>
      <trkpt lat="46.18261" lon="6.83161">
        <ele>1703</ele>
        <time>2010-01-02T00:18:32Z</time>
      </trkpt>
      <trkpt lat="46.18263" lon="6.83177">
        <ele>1700</ele>
        <time>2010-01-02T00:18:36Z</time>
      </trkpt>
      <trkpt lat="46.18267" lon="6.83196">
        <ele>1699</ele>
        <time>2010-01-02T00:18:42Z</time>
      </trkpt>
      <trkpt lat="46.18276" lon="6.83213">
        <ele>1699</ele>
        <time>2010-01-02T00:18:48Z</time>
      </trkpt>
      <trkpt lat="46.18283" lon="6.83225">
        <ele>1698</ele>
        <time>2010-01-02T00:18:52Z</time>
      </trkpt>
      <trkpt lat="46.18287" lon="6.8324">
        <ele>1698</ele>
        <time>2010-01-02T00:18:57Z</time>
      </trkpt>
      <trkpt lat="46.18294" lon="6.83258">
        <ele>1695</ele>
        <time>2010-01-02T00:19:03Z</time>
      </trkpt>
      <trkpt lat="46.18307" lon="6.83277">
        <ele>1693</ele>
        <time>2010-01-02T00:19:10Z</time>
      </trkpt>
      <trkpt lat="46.18312" lon="6.83292">
        <ele>1693</ele>
        <time>2010-01-02T00:19:14Z</time>
      </trkpt>
      <trkpt lat="46.18322" lon="6.83307">
        <ele>1691</ele>
        <time>2010-01-02T00:19:20Z</time>
      </trkpt>
      <trkpt lat="46.18334" lon="6.83324">
        <ele>1686</ele>
        <time>2010-01-02T00:19:27Z</time>
      </trkpt>
      <trkpt lat="46.18341" lon="6.83331">
        <ele>1686</ele>
        <time>2010-01-02T00:19:30Z</time>
      </trkpt>
      <trkpt lat="46.1834" lon="6.83348">
        <ele>1685</ele>
        <time>2010-01-02T00:19:35Z</time>
      </trkpt>
      <trkpt lat="46.18339" lon="6.83373">
        <ele>1684</ele>
        <time>2010-01-02T00:19:42Z</time>
      </trkpt>
      <trkpt lat="46.1834" lon="6.83392">
        <ele>1684</ele>
        <time>2010-01-02T00:19:47Z</time>
      </trkpt>
      <trkpt lat="46.18348" lon="6.83403">
        <ele>1684</ele>
        <time>2010-01-02T00:19:52Z</time>
      </trkpt>
      <trkpt lat="46.18357" lon="6.83417">
        <ele>1683</ele>
        <time>2010-01-02T00:19:57Z</time>
      </trkpt>
      <trkpt lat="46.18363" lon="6.83422">
        <ele>1683</ele>
        <time>2010-01-02T00:20:00Z</time>
      </trkpt>
      <trkpt lat="46.18369" lon="6.83426">
        <ele>1683</ele>
        <time>2010-01-02T00:20:02Z</time>
      </trkpt>
      <trkpt lat="46.18377" lon="6.83421">
        <ele>1683</ele>
        <time>2010-01-02T00:20:06Z</time>
      </trkpt>
      <trkpt lat="46.18383" lon="6.83418">
        <ele>1683</ele>
        <time>2010-01-02T00:20:08Z</time>
      </trkpt>
      <trkpt lat="46.18505" lon="6.83132">
        <ele>1727</ele>
        <time>2010-01-02T00:21:42Z</time>
      </trkpt>
      <trkpt lat="46.18619" lon="6.8287">
        <ele>1781</ele>
        <time>2010-01-02T00:23:07Z</time>
      </trkpt>
      <trkpt lat="46.18721" lon="6.82639">
        <ele>1844</ele>
        <time>2010-01-02T00:24:23Z</time>
      </trkpt>
      <trkpt lat="46.18819" lon="6.82427">
        <ele>1928</ele>
        <time>2010-01-02T00:25:34Z</time>
      </trkpt>
      <trkpt lat="46.19054" lon="6.81894">
        <ele>2128</ele>
        <time>2010-01-02T00:28:29Z</time>
      </trkpt>
      <trkpt lat="46.19195" lon="6.81587">
        <ele>2230</ele>
        <time>2010-01-02T00:30:11Z</time>
      </trkpt>
      <trkpt lat="46.19195" lon="6.81529">
        <ele>2237</ele>
        <time>2010-01-02T00:30:27Z</time>
      </trkpt>
      <trkpt lat="46.19157" lon="6.81476">
        <ele>2235</ele>
        <time>2010-01-02T00:30:48Z</time>
      </trkpt>
      <trkpt lat="46.19127" lon="6.81471">
        <ele>2230</ele>
        <time>2010-01-02T00:31:00Z</time>
      </trkpt>
      <trkpt lat="46.19093" lon="6.81477">
        <ele>2228</ele>
        <time>2010-01-02T00:31:14Z</time>
      </trkpt>
      <trkpt lat="46.19086" lon="6.81479">
        <ele>2229</ele>
        <time>2010-01-02T00:31:17Z</time>
      </trkpt>
      <trkpt lat="46.19067" lon="6.81498">
        <ele>2213</ele>
        <time>2010-01-02T00:31:26Z</time>
      </trkpt>
      <trkpt lat="46.19048" lon="6.81528">
        <ele>2217</ele>
        <time>2010-01-02T00:31:38Z</time>
      </trkpt>
      <trkpt lat="46.19037" lon="6.81554">
        <ele>2217</ele>
        <time>2010-01-02T00:31:46Z</time>
      </trkpt>
      <trkpt lat="46.19032" lon="6.81566">
        <ele>2216</ele>
        <time>2010-01-02T00:31:50Z</time>
      </trkpt>
      <trkpt lat="46.19029" lon="6.81572">
        <ele>2216</ele>
        <time>2010-01-02T00:31:52Z</time>
      </trkpt>
      <trkpt lat="46.18994" lon="6.8162">
        <ele>2199</ele>
        <time>2010-01-02T00:32:11Z</time>
      </trkpt>
      <trkpt lat="46.18994" lon="6.81621">
        <ele>2199</ele>
        <time>2010-01-02T00:32:12Z</time>
      </trkpt>
      <trkpt lat="46.18964" lon="6.81655">
        <ele>2196</ele>
        <time>2010-01-02T00:32:27Z</time>
      </trkpt>
      <trkpt lat="46.18932" lon="6.81678">
        <ele>2188</ele>
        <time>2010-01-02T00:32:41Z</time>
      </trkpt>
      <trkpt lat="46.18903" lon="6.81694">
        <ele>2174</ele>
        <time>2010-01-02T00:32:54Z</time>
      </trkpt>
      <trkpt lat="46.18887" lon="6.81698">
        <ele>2172</ele>
        <time>2010-01-02T00:33:00Z</time>
      </trkpt>
      <trkpt lat="46.18875" lon="6.81699">
        <ele>2171</ele>
        <time>2010-01-02T00:33:05Z</time>
      </trkpt>
      <trkpt lat="46.18875" lon="6.81699">
        <ele>2171</ele>
        <time>2010-01-02T00:33:05Z</time>
      </trkpt>
      <trkpt lat="46.18866" lon="6.81698">
        <ele>2170</ele>
        <time>2010-01-02T00:33:09Z</time>
      </trkpt>
      <trkpt lat="46.18856" lon="6.81701">
        <ele>2169</ele>
        <time>2010-01-02T00:33:13Z</time>
      </trkpt>
      <trkpt lat="46.18852" lon="6.8171">
        <ele>2169</ele>
        <time>2010-01-02T00:33:15Z</time>
      </trkpt>
      <trkpt lat="46.18853" lon="6.81715">
        <ele>2169</ele>
        <time>2010-01-02T00:33:17Z</time>
      </trkpt>
      <trkpt lat="46.18857" lon="6.81717">
        <ele>2169</ele>
        <time>2010-01-02T00:33:18Z</time>
      </trkpt>
      <trkpt lat="46.18866" lon="6.81716">
        <ele>2170</ele>
        <time>2010-01-02T00:33:22Z</time>
      </trkpt>
      <trkpt lat="46.18872" lon="6.81715">
        <ele>2170</ele>
        <time>2010-01-02T00:33:24Z</time>
      </trkpt>
      <trkpt lat="46.18882" lon="6.81712">
        <ele>2171</ele>
        <time>2010-01-02T00:33:29Z</time>
      </trkpt>
      <trkpt lat="46.18893" lon="6.81716">
        <ele>2171</ele>
        <time>2010-01-02T00:33:33Z</time>
      </trkpt>
      <trkpt lat="46.18903" lon="6.81721">
        <ele>2171</ele>
        <time>2010-01-02T00:33:37Z</time>
      </trkpt>
      <trkpt lat="46.18909" lon="6.81729">
        <ele>2170</ele>
        <time>2010-01-02T00:33:41Z</time>
      </trkpt>
      <trkpt lat="46.18914" lon="6.81735">
        <ele>2170</ele>
        <time>2010-01-02T00:33:43Z</time>
      </trkpt>
      <trkpt lat="46.18925" lon="6.81733">
        <ele>2179</ele>
        <time>2010-01-02T00:33:48Z</time>
      </trkpt>
      <trkpt lat="46.18935" lon="6.81733">
        <ele>2181</ele>
        <time>2010-01-02T00:33:52Z</time>
      </trkpt>
      <trkpt lat="46.18939" lon="6.81737">
        <ele>2181</ele>
        <time>2010-01-02T00:33:54Z</time>
      </trkpt>
      <trkpt lat="46.18945" lon="6.81746">
        <ele>2182</ele>
        <time>2010-01-02T00:33:57Z</time>
      </trkpt>
      <trkpt lat="46.18949" lon="6.81755">
        <ele>2161</ele>
        <time>2010-01-02T00:34:00Z</time>
      </trkpt>
      <trkpt lat="46.18953" lon="6.81765">
        <ele>2160</ele>
        <time>2010-01-02T00:34:03Z</time>
      </trkpt>
      <trkpt lat="46.1896" lon="6.8177">
        <ele>2160</ele>
        <time>2010-01-02T00:34:07Z</time>
      </trkpt>
      <trkpt lat="46.18968" lon="6.81767">
        <ele>2162</ele>
        <time>2010-01-02T00:34:10Z</time>
      </trkpt>
      <trkpt lat="46.18979" lon="6.81762">
        <ele>2167</ele>
        <time>2010-01-02T00:34:14Z</time>
      </trkpt>
      <trkpt lat="46.18989" lon="6.81764">
        <ele>2171</ele>
        <time>2010-01-02T00:34:18Z</time>
      </trkpt>
      <trkpt lat="46.18997" lon="6.81768">
        <ele>2170</ele>
        <time>2010-01-02T00:34:22Z</time>
      </trkpt>
      <trkpt lat="46.19002" lon="6.81775">
        <ele>2175</ele>
        <time>2010-01-02T00:34:25Z</time>
      </trkpt>
      <trkpt lat="46.19007" lon="6.8178">
        <ele>2173</ele>
        <time>2010-01-02T00:34:27Z</time>
      </trkpt>
      <trkpt lat="46.19011" lon="6.81792">
        <ele>2169</ele>
        <time>2010-01-02T00:34:31Z</time>
      </trkpt>
      <trkpt lat="46.19014" lon="6.81804">
        <ele>2165</ele>
        <time>2010-01-02T00:34:34Z</time>
      </trkpt>
      <trkpt lat="46.19018" lon="6.81813">
        <ele>2163</ele>
        <time>2010-01-02T00:34:37Z</time>
      </trkpt>
      <trkpt lat="46.19029" lon="6.81817">
        <ele>2163</ele>
        <time>2010-01-02T00:34:42Z</time>
      </trkpt>
      <trkpt lat="46.19037" lon="6.81807">
        <ele>2167</ele>
        <time>2010-01-02T00:34:46Z</time>
      </trkpt>
      <trkpt lat="46.19046" lon="6.81804">
        <ele>2168</ele>
        <time>2010-01-02T00:34:50Z</time>
      </trkpt>
      <trkpt lat="46.19056" lon="6.81812">
        <ele>2166</ele>
        <time>2010-01-02T00:34:54Z</time>
      </trkpt>
      <trkpt lat="46.19068" lon="6.81825">
        <ele>2163</ele>
        <time>2010-01-02T00:35:00Z</time>
      </trkpt>
      <trkpt lat="46.19073" lon="6.81835">
        <ele>2148</ele>
        <time>2010-01-02T00:35:03Z</time>
      </trkpt>
      <trkpt lat="46.19075" lon="6.81846">
        <ele>2145</ele>
        <time>2010-01-02T00:35:07Z</time>
      </trkpt>
      <trkpt lat="46.19079" lon="6.81857">
        <ele>2141</ele>
        <time>2010-01-02T00:35:10Z</time>
      </trkpt>
      <trkpt lat="46.19084" lon="6.81868">
        <ele>2139</ele>
        <time>2010-01-02T00:35:14Z</time>
      </trkpt>
      <trkpt lat="46.19092" lon="6.81881">
        <ele>2136</ele>
        <time>2010-01-02T00:35:19Z</time>
      </trkpt>
      <trkpt lat="46.19102" lon="6.81897">
        <ele>2132</ele>
        <time>2010-01-02T00:35:24Z</time>
      </trkpt>
      <trkpt lat="46.19113" lon="6.81909">
        <ele>2131</ele>
        <time>2010-01-02T00:35:30Z</time>
      </trkpt>
      <trkpt lat="46.19124" lon="6.8192">
        <ele>2117</ele>
        <time>2010-01-02T00:35:35Z</time>
      </trkpt>
      <trkpt lat="46.19135" lon="6.8193">
        <ele>2117</ele>
        <time>2010-01-02T00:35:41Z</time>
      </trkpt>
      <trkpt lat="46.19146" lon="6.81935">
        <ele>2117</ele>
        <time>2010-01-02T00:35:45Z</time>
      </trkpt>
      <trkpt lat="46.19151" lon="6.8194">
        <ele>2117</ele>
        <time>2010-01-02T00:35:48Z</time>
      </trkpt>
      <trkpt lat="46.19158" lon="6.81946">
        <ele>2117</ele>
        <time>2010-01-02T00:35:51Z</time>
      </trkpt>
      <trkpt lat="46.19164" lon="6.81966">
        <ele>2116</ele>
        <time>2010-01-02T00:35:57Z</time>
      </trkpt>
      <trkpt lat="46.19164" lon="6.8198">
        <ele>2115</ele>
        <time>2010-01-02T00:36:01Z</time>
      </trkpt>
      <trkpt lat="46.19163" lon="6.81988">
        <ele>2116</ele>
        <time>2010-01-02T00:36:03Z</time>
      </trkpt>
      <trkpt lat="46.19169" lon="6.81988">
        <ele>2110</ele>
        <time>2010-01-02T00:36:05Z</time>
      </trkpt>
      <trkpt lat="46.19179" lon="6.81977">
        <ele>2104</ele>
        <time>2010-01-02T00:36:10Z</time>
      </trkpt>
      <trkpt lat="46.19184" lon="6.81967">
        <ele>2102</ele>
        <time>2010-01-02T00:36:14Z</time>
      </trkpt>
      <trkpt lat="46.19192" lon="6.81955">
        <ele>2101</ele>
        <time>2010-01-02T00:36:18Z</time>
      </trkpt>
      <trkpt lat="46.19197" lon="6.81953">
        <ele>2099</ele>
        <time>2010-01-02T00:36:20Z</time>
      </trkpt>
      <trkpt lat="46.19194" lon="6.81969">
        <ele>2100</ele>
        <time>2010-01-02T00:36:25Z</time>
      </trkpt>
      <trkpt lat="46.19189" lon="6.81982">
        <ele>2102</ele>
        <time>2010-01-02T00:36:29Z</time>
      </trkpt>
      <trkpt lat="46.19181" lon="6.82009">
        <ele>2102</ele>
        <time>2010-01-02T00:36:37Z</time>
      </trkpt>
      <trkpt lat="46.19176" lon="6.82018">
        <ele>2100</ele>
        <time>2010-01-02T00:36:40Z</time>
      </trkpt>
      <trkpt lat="46.19172" lon="6.82024">
        <ele>2099</ele>
        <time>2010-01-02T00:36:42Z</time>
      </trkpt>
      <trkpt lat="46.19172" lon="6.82033">
        <ele>2096</ele>
        <time>2010-01-02T00:36:45Z</time>
      </trkpt>
      <trkpt lat="46.19178" lon="6.8207">
        <ele>2091</ele>
        <time>2010-01-02T00:36:55Z</time>
      </trkpt>
      <trkpt lat="46.1918" lon="6.82073">
        <ele>2091</ele>
        <time>2010-01-02T00:36:57Z</time>
      </trkpt>
      <trkpt lat="46.19181" lon="6.82074">
        <ele>2091</ele>
        <time>2010-01-02T00:36:57Z</time>
      </trkpt>
      <trkpt lat="46.19186" lon="6.82083">
        <ele>2090</ele>
        <time>2010-01-02T00:37:00Z</time>
      </trkpt>
      <trkpt lat="46.19187" lon="6.82092">
        <ele>2088</ele>
        <time>2010-01-02T00:37:03Z</time>
      </trkpt>
      <trkpt lat="46.19189" lon="6.82105">
        <ele>2086</ele>
        <time>2010-01-02T00:37:07Z</time>
      </trkpt>
      <trkpt lat="46.1919" lon="6.82115">
        <ele>2086</ele>
        <time>2010-01-02T00:37:09Z</time>
      </trkpt>
      <trkpt lat="46.19196" lon="6.82117">
        <ele>2085</ele>
        <time>2010-01-02T00:37:12Z</time>
      </trkpt>
      <trkpt lat="46.19201" lon="6.82118">
        <ele>2085</ele>
        <time>2010-01-02T00:37:14Z</time>
      </trkpt>
      <trkpt lat="46.19213" lon="6.82122">
        <ele>2084</ele>
        <time>2010-01-02T00:37:19Z</time>
      </trkpt>
      <trkpt lat="46.19219" lon="6.82126">
        <ele>2084</ele>
        <time>2010-01-02T00:37:22Z</time>
      </trkpt>
      <trkpt lat="46.19225" lon="6.82124">
        <ele>2084</ele>
        <time>2010-01-02T00:37:24Z</time>
      </trkpt>
      <trkpt lat="46.19228" lon="6.8212">
        <ele>2083</ele>
        <time>2010-01-02T00:37:26Z</time>
      </trkpt>
      <trkpt lat="46.19227" lon="6.8211">
        <ele>2082</ele>
        <time>2010-01-02T00:37:28Z</time>
      </trkpt>
      <trkpt lat="46.19225" lon="6.82091">
        <ele>2080</ele>
        <time>2010-01-02T00:37:34Z</time>
      </trkpt>
      <trkpt lat="46.19225" lon="6.82077">
        <ele>2080</ele>
        <time>2010-01-02T00:37:38Z</time>
      </trkpt>
      <trkpt lat="46.19225" lon="6.82076">
        <ele>2080</ele>
        <time>2010-01-02T00:37:38Z</time>
      </trkpt>
      <trkpt lat="46.19225" lon="6.82065">
        <ele>2081</ele>
        <time>2010-01-02T00:37:41Z</time>
      </trkpt>
      <trkpt lat="46.19227" lon="6.82057">
        <ele>2081</ele>
        <time>2010-01-02T00:37:43Z</time>
      </trkpt>
      <trkpt lat="46.19231" lon="6.82059">
        <ele>2080</ele>
        <time>2010-01-02T00:37:45Z</time>
      </trkpt>
      <trkpt lat="46.19236" lon="6.82068">
        <ele>2078</ele>
        <time>2010-01-02T00:37:48Z</time>
      </trkpt>
      <trkpt lat="46.19238" lon="6.82074">
        <ele>2076</ele>
        <time>2010-01-02T00:37:50Z</time>
      </trkpt>
      <trkpt lat="46.19239" lon="6.82074">
        <ele>2076</ele>
        <time>2010-01-02T00:37:50Z</time>
      </trkpt>
      <trkpt lat="46.1924" lon="6.82075">
        <ele>2075</ele>
        <time>2010-01-02T00:37:51Z</time>
      </trkpt>
      <trkpt lat="46.1924" lon="6.82076">
        <ele>2075</ele>
        <time>2010-01-02T00:37:51Z</time>
      </trkpt>
      <trkpt lat="46.19241" lon="6.82077">
        <ele>2074</ele>
        <time>2010-01-02T00:37:52Z</time>
      </trkpt>
      <trkpt lat="46.19242" lon="6.82078">
        <ele>2073</ele>
        <time>2010-01-02T00:37:52Z</time>
      </trkpt>
      <trkpt lat="46.19242" lon="6.82079">
        <ele>2073</ele>
        <time>2010-01-02T00:37:52Z</time>
      </trkpt>
      <trkpt lat="46.19243" lon="6.8208">
        <ele>2073</ele>
        <time>2010-01-02T00:37:53Z</time>
      </trkpt>
      <trkpt lat="46.19244" lon="6.82082">
        <ele>2072</ele>
        <time>2010-01-02T00:37:53Z</time>
      </trkpt>
      <trkpt lat="46.19245" lon="6.82083">
        <ele>2071</ele>
        <time>2010-01-02T00:37:54Z</time>
      </trkpt>
      <trkpt lat="46.19245" lon="6.82084">
        <ele>2071</ele>
        <time>2010-01-02T00:37:54Z</time>
      </trkpt>
      <trkpt lat="46.19246" lon="6.82085">
        <ele>2071</ele>
        <time>2010-01-02T00:37:55Z</time>
      </trkpt>
      <trkpt lat="46.19247" lon="6.82085">
        <ele>2070</ele>
        <time>2010-01-02T00:37:55Z</time>
      </trkpt>
      <trkpt lat="46.19247" lon="6.82085">
        <ele>2070</ele>
        <time>2010-01-02T00:37:55Z</time>
      </trkpt>
      <trkpt lat="46.1926" lon="6.821">
        <ele>2073</ele>
        <time>2010-01-02T00:38:02Z</time>
      </trkpt>
      <trkpt lat="46.19278" lon="6.82108">
        <ele>2075</ele>
        <time>2010-01-02T00:38:09Z</time>
      </trkpt>
      <trkpt lat="46.1929" lon="6.82106">
        <ele>2074</ele>
        <time>2010-01-02T00:38:14Z</time>
      </trkpt>
      <trkpt lat="46.19309" lon="6.82094">
        <ele>2070</ele>
        <time>2010-01-02T00:38:22Z</time>
      </trkpt>
      <trkpt lat="46.19329" lon="6.82093">
        <ele>2064</ele>
        <time>2010-01-02T00:38:30Z</time>
      </trkpt>
      <trkpt lat="46.19349" lon="6.82092">
        <ele>2063</ele>
        <time>2010-01-02T00:38:38Z</time>
      </trkpt>
      <trkpt lat="46.19373" lon="6.82079">
        <ele>2046</ele>
        <time>2010-01-02T00:38:49Z</time>
      </trkpt>
      <trkpt lat="46.19376" lon="6.82077">
        <ele>2046</ele>
        <time>2010-01-02T00:38:50Z</time>
      </trkpt>
      <trkpt lat="46.19376" lon="6.82076">
        <ele>2046</ele>
        <time>2010-01-02T00:38:50Z</time>
      </trkpt>
      <trkpt lat="46.19377" lon="6.82075">
        <ele>2046</ele>
        <time>2010-01-02T00:38:50Z</time>
      </trkpt>
      <trkpt lat="46.19378" lon="6.82075">
        <ele>2045</ele>
        <time>2010-01-02T00:38:51Z</time>
      </trkpt>
      <trkpt lat="46.19379" lon="6.82074">
        <ele>2045</ele>
        <time>2010-01-02T00:38:51Z</time>
      </trkpt>
      <trkpt lat="46.1938" lon="6.82074">
        <ele>2045</ele>
        <time>2010-01-02T00:38:52Z</time>
      </trkpt>
      <trkpt lat="46.1938" lon="6.82073">
        <ele>2045</ele>
        <time>2010-01-02T00:38:52Z</time>
      </trkpt>
      <trkpt lat="46.19381" lon="6.82073">
        <ele>2045</ele>
        <time>2010-01-02T00:38:52Z</time>
      </trkpt>
      <trkpt lat="46.19382" lon="6.82072">
        <ele>2045</ele>
        <time>2010-01-02T00:38:53Z</time>
      </trkpt>
      <trkpt lat="46.19383" lon="6.82071">
        <ele>2045</ele>
        <time>2010-01-02T00:38:53Z</time>
      </trkpt>
      <trkpt lat="46.19385" lon="6.8207">
        <ele>2045</ele>
        <time>2010-01-02T00:38:54Z</time>
      </trkpt>
      <trkpt lat="46.19387" lon="6.82069">
        <ele>2045</ele>
        <time>2010-01-02T00:38:55Z</time>
      </trkpt>
      <trkpt lat="46.19389" lon="6.82068">
        <ele>2044</ele>
        <time>2010-01-02T00:38:56Z</time>
      </trkpt>
      <trkpt lat="46.1939" lon="6.82068">
        <ele>2044</ele>
        <time>2010-01-02T00:38:56Z</time>
      </trkpt>
      <trkpt lat="46.19391" lon="6.82067">
        <ele>2044</ele>
        <time>2010-01-02T00:38:56Z</time>
      </trkpt>
      <trkpt lat="46.19393" lon="6.82067">
        <ele>2044</ele>
        <time>2010-01-02T00:38:57Z</time>
      </trkpt>
      <trkpt lat="46.19394" lon="6.82066">
        <ele>2044</ele>
        <time>2010-01-02T00:38:58Z</time>
      </trkpt>
      <trkpt lat="46.19394" lon="6.82066">
        <ele>2044</ele>
        <time>2010-01-02T00:38:58Z</time>
      </trkpt>
      <trkpt lat="46.19396" lon="6.82066">
        <ele>2044</ele>
        <time>2010-01-02T00:38:59Z</time>
      </trkpt>
      <trkpt lat="46.19398" lon="6.82065">
        <ele>2044</ele>
        <time>2010-01-02T00:39:00Z</time>
      </trkpt>
      <trkpt lat="46.19401" lon="6.82063">
        <ele>2044</ele>
        <time>2010-01-02T00:39:01Z</time>
      </trkpt>
      <trkpt lat="46.19401" lon="6.82063">
        <ele>2044</ele>
        <time>2010-01-02T00:39:01Z</time>
      </trkpt>
      <trkpt lat="46.19403" lon="6.82063">
        <ele>2044</ele>
        <time>2010-01-02T00:39:01Z</time>
      </trkpt>
      <trkpt lat="46.19404" lon="6.82062">
        <ele>2044</ele>
        <time>2010-01-02T00:39:02Z</time>
      </trkpt>
      <trkpt lat="46.19405" lon="6.82061">
        <ele>2044</ele>
        <time>2010-01-02T00:39:03Z</time>
      </trkpt>
      <trkpt lat="46.19406" lon="6.82061">
        <ele>2044</ele>
        <time>2010-01-02T00:39:03Z</time>
      </trkpt>
      <trkpt lat="46.19407" lon="6.82061">
        <ele>2044</ele>
        <time>2010-01-02T00:39:03Z</time>
      </trkpt>
      <trkpt lat="46.19409" lon="6.8206">
        <ele>2043</ele>
        <time>2010-01-02T00:39:04Z</time>
      </trkpt>
      <trkpt lat="46.19411" lon="6.82059">
        <ele>2043</ele>
        <time>2010-01-02T00:39:05Z</time>
      </trkpt>
      <trkpt lat="46.19413" lon="6.82058">
        <ele>2043</ele>
        <time>2010-01-02T00:39:06Z</time>
      </trkpt>
      <trkpt lat="46.19414" lon="6.82057">
        <ele>2043</ele>
        <time>2010-01-02T00:39:06Z</time>
      </trkpt>
      <trkpt lat="46.19415" lon="6.82057">
        <ele>2043</ele>
        <time>2010-01-02T00:39:07Z</time>
      </trkpt>
      <trkpt lat="46.19416" lon="6.82056">
        <ele>2043</ele>
        <time>2010-01-02T00:39:07Z</time>
      </trkpt>
      <trkpt lat="46.19417" lon="6.82056">
        <ele>2043</ele>
        <time>2010-01-02T00:39:07Z</time>
      </trkpt>
      <trkpt lat="46.19417" lon="6.82056">
        <ele>2037</ele>
        <time>2010-01-02T00:39:08Z</time>
      </trkpt>
      <trkpt lat="46.19419" lon="6.82055">
        <ele>2036</ele>
        <time>2010-01-02T00:39:08Z</time>
      </trkpt>
      <trkpt lat="46.1942" lon="6.82055">
        <ele>2036</ele>
        <time>2010-01-02T00:39:09Z</time>
      </trkpt>
      <trkpt lat="46.1942" lon="6.82055">
        <ele>2036</ele>
        <time>2010-01-02T00:39:09Z</time>
      </trkpt>
      <trkpt lat="46.19421" lon="6.82055">
        <ele>2036</ele>
        <time>2010-01-02T00:39:09Z</time>
      </trkpt>
      <trkpt lat="46.19423" lon="6.82055">
        <ele>2036</ele>
        <time>2010-01-02T00:39:10Z</time>
      </trkpt>
      <trkpt lat="46.19424" lon="6.82055">
        <ele>2036</ele>
        <time>2010-01-02T00:39:10Z</time>
      </trkpt>
      <trkpt lat="46.19426" lon="6.82056">
        <ele>2036</ele>
        <time>2010-01-02T00:39:11Z</time>
      </trkpt>
      <trkpt lat="46.19426" lon="6.82056">
        <ele>2036</ele>
        <time>2010-01-02T00:39:11Z</time>
      </trkpt>
      <trkpt lat="46.19428" lon="6.82056">
        <ele>2036</ele>
        <time>2010-01-02T00:39:12Z</time>
      </trkpt>
      <trkpt lat="46.1943" lon="6.82057">
        <ele>2036</ele>
        <time>2010-01-02T00:39:13Z</time>
      </trkpt>
      <trkpt lat="46.19431" lon="6.82057">
        <ele>2036</ele>
        <time>2010-01-02T00:39:13Z</time>
      </trkpt>
      <trkpt lat="46.19433" lon="6.82057">
        <ele>2036</ele>
        <time>2010-01-02T00:39:14Z</time>
      </trkpt>
      <trkpt lat="46.19434" lon="6.82057">
        <ele>2036</ele>
        <time>2010-01-02T00:39:15Z</time>
      </trkpt>
      <trkpt lat="46.19436" lon="6.82057">
        <ele>2036</ele>
        <time>2010-01-02T00:39:15Z</time>
      </trkpt>
      <trkpt lat="46.19438" lon="6.82058">
        <ele>2036</ele>
        <time>2010-01-02T00:39:16Z</time>
      </trkpt>
      <trkpt lat="46.19438" lon="6.82058">
        <ele>2036</ele>
        <time>2010-01-02T00:39:16Z</time>
      </trkpt>
      <trkpt lat="46.1944" lon="6.82058">
        <ele>2036</ele>
        <time>2010-01-02T00:39:17Z</time>
      </trkpt>
      <trkpt lat="46.19442" lon="6.82057">
        <ele>2035</ele>
        <time>2010-01-02T00:39:17Z</time>
      </trkpt>
      <trkpt lat="46.19443" lon="6.82058">
        <ele>2035</ele>
        <time>2010-01-02T00:39:18Z</time>
      </trkpt>
      <trkpt lat="46.19443" lon="6.82058">
        <ele>2035</ele>
        <time>2010-01-02T00:39:18Z</time>
      </trkpt>
      <trkpt lat="46.19451" lon="6.82055">
        <ele>2034</ele>
        <time>2010-01-02T00:39:21Z</time>
      </trkpt>
      <trkpt lat="46.19474" lon="6.82051">
        <ele>2032</ele>
        <time>2010-01-02T00:39:31Z</time>
      </trkpt>
      <trkpt lat="46.19489" lon="6.8204">
        <ele>2030</ele>
        <time>2010-01-02T00:39:37Z</time>
      </trkpt>
      <trkpt lat="46.19504" lon="6.82033">
        <ele>2027</ele>
        <time>2010-01-02T00:39:43Z</time>
      </trkpt>
      <trkpt lat="46.19544" lon="6.82008">
        <ele>2025</ele>
        <time>2010-01-02T00:40:01Z</time>
      </trkpt>
      <trkpt lat="46.19607" lon="6.81961">
        <ele>2012</ele>
        <time>2010-01-02T00:40:30Z</time>
      </trkpt>
      <trkpt lat="46.19639" lon="6.81918">
        <ele>2010</ele>
        <time>2010-01-02T00:40:47Z</time>
      </trkpt>
      <trkpt lat="46.19643" lon="6.81903">
        <ele>1998</ele>
        <time>2010-01-02T00:40:51Z</time>
      </trkpt>
      <trkpt lat="46.1965" lon="6.81883">
        <ele>1996</ele>
        <time>2010-01-02T00:40:58Z</time>
      </trkpt>
      <trkpt lat="46.19673" lon="6.81825">
        <ele>1998</ele>
        <time>2010-01-02T00:41:16Z</time>
      </trkpt>
      <trkpt lat="46.1969" lon="6.8179">
        <ele>2001</ele>
        <time>2010-01-02T00:41:28Z</time>
      </trkpt>
      <trkpt lat="46.19699" lon="6.81752">
        <ele>1998</ele>
        <time>2010-01-02T00:41:39Z</time>
      </trkpt>
      <trkpt lat="46.19699" lon="6.81748">
        <ele>1990</ele>
        <time>2010-01-02T00:41:40Z</time>
      </trkpt>
      <trkpt lat="46.19708" lon="6.81699">
        <ele>1989</ele>
        <time>2010-01-02T00:41:54Z</time>
      </trkpt>
      <trkpt lat="46.19708" lon="6.81697">
        <ele>1989</ele>
        <time>2010-01-02T00:41:55Z</time>
      </trkpt>
      <trkpt lat="46.19705" lon="6.81665">
        <ele>1982</ele>
        <time>2010-01-02T00:42:04Z</time>
      </trkpt>
      <trkpt lat="46.1971" lon="6.81606">
        <ele>1981</ele>
        <time>2010-01-02T00:42:20Z</time>
      </trkpt>
      <trkpt lat="46.19712" lon="6.81581">
        <ele>1978</ele>
        <time>2010-01-02T00:42:27Z</time>
      </trkpt>
      <trkpt lat="46.19716" lon="6.81557">
        <ele>1978</ele>
        <time>2010-01-02T00:42:34Z</time>
      </trkpt>
      <trkpt lat="46.19711" lon="6.81546">
        <ele>1978</ele>
        <time>2010-01-02T00:42:38Z</time>
      </trkpt>
      <trkpt lat="46.19702" lon="6.8154">
        <ele>1978</ele>
        <time>2010-01-02T00:42:41Z</time>
      </trkpt>
      <trkpt lat="46.19695" lon="6.81526">
        <ele>1978</ele>
        <time>2010-01-02T00:42:46Z</time>
      </trkpt>
      <trkpt lat="46.19695" lon="6.81509">
        <ele>1978</ele>
        <time>2010-01-02T00:42:51Z</time>
      </trkpt>
      <trkpt lat="46.19693" lon="6.81495">
        <ele>1979</ele>
        <time>2010-01-02T00:42:55Z</time>
      </trkpt>
      <trkpt lat="46.19691" lon="6.81486">
        <ele>1979</ele>
        <time>2010-01-02T00:42:57Z</time>
      </trkpt>
      <trkpt lat="46.19682" lon="6.81469">
        <ele>1979</ele>
        <time>2010-01-02T00:43:03Z</time>
      </trkpt>
      <trkpt lat="46.19679" lon="6.81463">
        <ele>1979</ele>
        <time>2010-01-02T00:43:05Z</time>
      </trkpt>
      <trkpt lat="46.19676" lon="6.81459">
        <ele>1979</ele>
        <time>2010-01-02T00:43:07Z</time>
      </trkpt>
      <trkpt lat="46.1968" lon="6.81442">
        <ele>1980</ele>
        <time>2010-01-02T00:43:12Z</time>
      </trkpt>
      <trkpt lat="46.19683" lon="6.8143">
        <ele>1980</ele>
        <time>2010-01-02T00:43:16Z</time>
      </trkpt>
      <trkpt lat="46.1968" lon="6.81401">
        <ele>1980</ele>
        <time>2010-01-02T00:43:24Z</time>
      </trkpt>
      <trkpt lat="46.19671" lon="6.81379">
        <ele>1980</ele>
        <time>2010-01-02T00:43:31Z</time>
      </trkpt>
      <trkpt lat="46.19662" lon="6.81351">
        <ele>1984</ele>
        <time>2010-01-02T00:43:39Z</time>
      </trkpt>
      <trkpt lat="46.19656" lon="6.81327">
        <ele>1985</ele>
        <time>2010-01-02T00:43:46Z</time>
      </trkpt>
      <trkpt lat="46.19654" lon="6.81314">
        <ele>1985</ele>
        <time>2010-01-02T00:43:50Z</time>
      </trkpt>
      <trkpt lat="46.19661" lon="6.81306">
        <ele>1985</ele>
        <time>2010-01-02T00:43:54Z</time>
      </trkpt>
      <trkpt lat="46.19668" lon="6.81301">
        <ele>1977</ele>
        <time>2010-01-02T00:43:57Z</time>
      </trkpt>
      <trkpt lat="46.19677" lon="6.8129">
        <ele>1976</ele>
        <time>2010-01-02T00:44:02Z</time>
      </trkpt>
      <trkpt lat="46.19691" lon="6.81294">
        <ele>1976</ele>
        <time>2010-01-02T00:44:07Z</time>
      </trkpt>
      <trkpt lat="46.19743" lon="6.81286">
        <ele>1974</ele>
        <time>2010-01-02T00:44:28Z</time>
      </trkpt>
      <trkpt lat="46.19753" lon="6.81283">
        <ele>1967</ele>
        <time>2010-01-02T00:44:32Z</time>
      </trkpt>
      <trkpt lat="46.19769" lon="6.81259">
        <ele>1967</ele>
        <time>2010-01-02T00:44:41Z</time>
      </trkpt>
      <trkpt lat="46.19783" lon="6.81241">
        <ele>1965</ele>
        <time>2010-01-02T00:44:49Z</time>
      </trkpt>
      <trkpt lat="46.19783" lon="6.8124">
        <ele>1965</ele>
        <time>2010-01-02T00:44:49Z</time>
      </trkpt>
      <trkpt lat="46.19784" lon="6.81237">
        <ele>1965</ele>
        <time>2010-01-02T00:44:50Z</time>
      </trkpt>
      <trkpt lat="46.19813" lon="6.81189">
        <ele>1964</ele>
        <time>2010-01-02T00:45:08Z</time>
      </trkpt>
      <trkpt lat="46.19818" lon="6.81176">
        <ele>1964</ele>
        <time>2010-01-02T00:45:12Z</time>
      </trkpt>
      <trkpt lat="46.1982" lon="6.81163">
        <ele>1965</ele>
        <time>2010-01-02T00:45:16Z</time>
      </trkpt>
      <trkpt lat="46.19808" lon="6.81147">
        <ele>1966</ele>
        <time>2010-01-02T00:45:22Z</time>
      </trkpt>
      <trkpt lat="46.19799" lon="6.81133">
        <ele>1967</ele>
        <time>2010-01-02T00:45:28Z</time>
      </trkpt>
      <trkpt lat="46.19798" lon="6.81131">
        <ele>1967</ele>
        <time>2010-01-02T00:45:28Z</time>
      </trkpt>
      <trkpt lat="46.19792" lon="6.81122">
        <ele>1967</ele>
        <time>2010-01-02T00:45:32Z</time>
      </trkpt>
      <trkpt lat="46.19789" lon="6.8111">
        <ele>1968</ele>
        <time>2010-01-02T00:45:35Z</time>
      </trkpt>
      <trkpt lat="46.19789" lon="6.81099">
        <ele>1968</ele>
        <time>2010-01-02T00:45:38Z</time>
      </trkpt>
      <trkpt lat="46.19782" lon="6.81088">
        <ele>1968</ele>
        <time>2010-01-02T00:45:42Z</time>
      </trkpt>
      <trkpt lat="46.19773" lon="6.81078">
        <ele>1969</ele>
        <time>2010-01-02T00:45:47Z</time>
      </trkpt>
      <trkpt lat="46.19774" lon="6.81059">
        <ele>1969</ele>
        <time>2010-01-02T00:45:52Z</time>
      </trkpt>
      <trkpt lat="46.19778" lon="6.81048">
        <ele>1969</ele>
        <time>2010-01-02T00:45:56Z</time>
      </trkpt>
      <trkpt lat="46.19781" lon="6.8103">
        <ele>1968</ele>
        <time>2010-01-02T00:46:01Z</time>
      </trkpt>
      <trkpt lat="46.19795" lon="6.81013">
        <ele>1968</ele>
        <time>2010-01-02T00:46:08Z</time>
      </trkpt>
      <trkpt lat="46.19803" lon="6.80997">
        <ele>1969</ele>
        <time>2010-01-02T00:46:13Z</time>
      </trkpt>
      <trkpt lat="46.19803" lon="6.80979">
        <ele>1970</ele>
        <time>2010-01-02T00:46:18Z</time>
      </trkpt>
      <trkpt lat="46.19802" lon="6.80977">
        <ele>1970</ele>
        <time>2010-01-02T00:46:19Z</time>
      </trkpt>
      <trkpt lat="46.19796" lon="6.80962">
        <ele>1971</ele>
        <time>2010-01-02T00:46:24Z</time>
      </trkpt>
      <trkpt lat="46.19792" lon="6.80944">
        <ele>1971</ele>
        <time>2010-01-02T00:46:29Z</time>
      </trkpt>
      <trkpt lat="46.19784" lon="6.8093">
        <ele>1972</ele>
        <time>2010-01-02T00:46:34Z</time>
      </trkpt>
      <trkpt lat="46.19779" lon="6.80916">
        <ele>1976</ele>
        <time>2010-01-02T00:46:39Z</time>
      </trkpt>
      <trkpt lat="46.19774" lon="6.80905">
        <ele>1976</ele>
        <time>2010-01-02T00:46:42Z</time>
      </trkpt>
      <trkpt lat="46.19778" lon="6.80898">
        <ele>1976</ele>
        <time>2010-01-02T00:46:45Z</time>
      </trkpt>
      <trkpt lat="46.19782" lon="6.80886">
        <ele>1976</ele>
        <time>2010-01-02T00:46:48Z</time>
      </trkpt>
      <trkpt lat="46.19784" lon="6.80878">
        <ele>1977</ele>
        <time>2010-01-02T00:46:51Z</time>
      </trkpt>
      <trkpt lat="46.19787" lon="6.80864">
        <ele>1977</ele>
        <time>2010-01-02T00:46:55Z</time>
      </trkpt>
      <trkpt lat="46.19784" lon="6.80857">
        <ele>1977</ele>
        <time>2010-01-02T00:46:57Z</time>
      </trkpt>
      <trkpt lat="46.19783" lon="6.80848">
        <ele>1978</ele>
        <time>2010-01-02T00:47:00Z</time>
      </trkpt>
      <trkpt lat="46.19777" lon="6.80843">
        <ele>1978</ele>
        <time>2010-01-02T00:47:02Z</time>
      </trkpt>
      <trkpt lat="46.19769" lon="6.8084">
        <ele>1978</ele>
        <time>2010-01-02T00:47:06Z</time>
      </trkpt>
      <trkpt lat="46.19762" lon="6.80835">
        <ele>1978</ele>
        <time>2010-01-02T00:47:09Z</time>
      </trkpt>
      <trkpt lat="46.19758" lon="6.80826">
        <ele>1981</ele>
        <time>2010-01-02T00:47:11Z</time>
      </trkpt>
      <trkpt lat="46.19758" lon="6.80825">
        <ele>1982</ele>
        <time>2010-01-02T00:47:12Z</time>
      </trkpt>
      <trkpt lat="46.19759" lon="6.8081">
        <ele>1984</ele>
        <time>2010-01-02T00:47:16Z</time>
      </trkpt>
      <trkpt lat="46.1976" lon="6.80798">
        <ele>1985</ele>
        <time>2010-01-02T00:47:19Z</time>
      </trkpt>
      <trkpt lat="46.19758" lon="6.80792">
        <ele>1986</ele>
        <time>2010-01-02T00:47:21Z</time>
      </trkpt>
      <trkpt lat="46.19756" lon="6.80786">
        <ele>1986</ele>
        <time>2010-01-02T00:47:23Z</time>
      </trkpt>
      <trkpt lat="46.19748" lon="6.80772">
        <ele>1988</ele>
        <time>2010-01-02T00:47:28Z</time>
      </trkpt>
      <trkpt lat="46.19745" lon="6.80765">
        <ele>1989</ele>
        <time>2010-01-02T00:47:30Z</time>
      </trkpt>
      <trkpt lat="46.19742" lon="6.80759">
        <ele>1989</ele>
        <time>2010-01-02T00:47:32Z</time>
      </trkpt>
      <trkpt lat="46.19738" lon="6.80743">
        <ele>1993</ele>
        <time>2010-01-02T00:47:37Z</time>
      </trkpt>
      <trkpt lat="46.19737" lon="6.80739">
        <ele>1993</ele>
        <time>2010-01-02T00:47:38Z</time>
      </trkpt>
      <trkpt lat="46.19735" lon="6.80735">
        <ele>1994</ele>
        <time>2010-01-02T00:47:40Z</time>
      </trkpt>
      <trkpt lat="46.19732" lon="6.80726">
        <ele>1995</ele>
        <time>2010-01-02T00:47:42Z</time>
      </trkpt>
      <trkpt lat="46.19727" lon="6.80719">
        <ele>1995</ele>
        <time>2010-01-02T00:47:45Z</time>
      </trkpt>
      <trkpt lat="46.19718" lon="6.80712">
        <ele>1996</ele>
        <time>2010-01-02T00:47:49Z</time>
      </trkpt>
      <trkpt lat="46.19712" lon="6.80706">
        <ele>1996</ele>
        <time>2010-01-02T00:47:52Z</time>
      </trkpt>
      <trkpt lat="46.19706" lon="6.80697">
        <ele>1996</ele>
        <time>2010-01-02T00:47:56Z</time>
      </trkpt>
      <trkpt lat="46.19702" lon="6.80692">
        <ele>1997</ele>
        <time>2010-01-02T00:47:58Z</time>
      </trkpt>
      <trkpt lat="46.19701" lon="6.80677">
        <ele>1997</ele>
        <time>2010-01-02T00:48:02Z</time>
      </trkpt>
      <trkpt lat="46.19702" lon="6.80662">
        <ele>2000</ele>
        <time>2010-01-02T00:48:06Z</time>
      </trkpt>
      <trkpt lat="46.19703" lon="6.8065">
        <ele>2000</ele>
        <time>2010-01-02T00:48:09Z</time>
      </trkpt>
      <trkpt lat="46.197" lon="6.80638">
        <ele>2000</ele>
        <time>2010-01-02T00:48:13Z</time>
      </trkpt>
      <trkpt lat="46.19697" lon="6.8063">
        <ele>2000</ele>
        <time>2010-01-02T00:48:15Z</time>
      </trkpt>
      <trkpt lat="46.19697" lon="6.80619">
        <ele>2000</ele>
        <time>2010-01-02T00:48:18Z</time>
      </trkpt>
      <trkpt lat="46.19696" lon="6.80616">
        <ele>2000</ele>
        <time>2010-01-02T00:48:19Z</time>
      </trkpt>
      <trkpt lat="46.19692" lon="6.80601">
        <ele>2000</ele>
        <time>2010-01-02T00:48:24Z</time>
      </trkpt>
      <trkpt lat="46.19693" lon="6.80579">
        <ele>1999</ele>
        <time>2010-01-02T00:48:30Z</time>
      </trkpt>
      <trkpt lat="46.1969" lon="6.80561">
        <ele>1999</ele>
        <time>2010-01-02T00:48:35Z</time>
      </trkpt>
      <trkpt lat="46.19692" lon="6.80541">
        <ele>1999</ele>
        <time>2010-01-02T00:48:41Z</time>
      </trkpt>
      <trkpt lat="46.19699" lon="6.8053">
        <ele>1999</ele>
        <time>2010-01-02T00:48:45Z</time>
      </trkpt>
      <trkpt lat="46.197" lon="6.80509">
        <ele>1999</ele>
        <time>2010-01-02T00:48:50Z</time>
      </trkpt>
      <trkpt lat="46.19702" lon="6.80493">
        <ele>1994</ele>
        <time>2010-01-02T00:48:55Z</time>
      </trkpt>
      <trkpt lat="46.19707" lon="6.80478">
        <ele>1994</ele>
        <time>2010-01-02T00:49:00Z</time>
      </trkpt>
      <trkpt lat="46.19718" lon="6.80464">
        <ele>1994</ele>
        <time>2010-01-02T00:49:06Z</time>
      </trkpt>
      <trkpt lat="46.19737" lon="6.80438">
        <ele>1994</ele>
        <time>2010-01-02T00:49:16Z</time>
      </trkpt>
      <trkpt lat="46.19754" lon="6.80415">
        <ele>1998</ele>
        <time>2010-01-02T00:49:25Z</time>
      </trkpt>
      <trkpt lat="46.1976" lon="6.80401">
        <ele>1998</ele>
        <time>2010-01-02T00:49:30Z</time>
      </trkpt>
      <trkpt lat="46.19771" lon="6.80374">
        <ele>1997</ele>
        <time>2010-01-02T00:49:39Z</time>
      </trkpt>
      <trkpt lat="46.19789" lon="6.80339">
        <ele>1997</ele>
        <time>2010-01-02T00:49:50Z</time>
      </trkpt>
      <trkpt lat="46.19801" lon="6.80314">
        <ele>1988</ele>
        <time>2010-01-02T00:49:59Z</time>
      </trkpt>
      <trkpt lat="46.19808" lon="6.80289">
        <ele>1986</ele>
        <time>2010-01-02T00:50:06Z</time>
      </trkpt>
      <trkpt lat="46.19809" lon="6.80273">
        <ele>1985</ele>
        <time>2010-01-02T00:50:11Z</time>
      </trkpt>
      <trkpt lat="46.19814" lon="6.8026">
        <ele>1985</ele>
        <time>2010-01-02T00:50:15Z</time>
      </trkpt>
      <trkpt lat="46.19819" lon="6.80249">
        <ele>1980</ele>
        <time>2010-01-02T00:50:19Z</time>
      </trkpt>
      <trkpt lat="46.19822" lon="6.80237">
        <ele>1979</ele>
        <time>2010-01-02T00:50:22Z</time>
      </trkpt>
      <trkpt lat="46.19824" lon="6.80218">
        <ele>1975</ele>
        <time>2010-01-02T00:50:28Z</time>
      </trkpt>
      <trkpt lat="46.19829" lon="6.80203">
        <ele>1974</ele>
        <time>2010-01-02T00:50:32Z</time>
      </trkpt>
      <trkpt lat="46.19829" lon="6.80186">
        <ele>1974</ele>
        <time>2010-01-02T00:50:37Z</time>
      </trkpt>
      <trkpt lat="46.19833" lon="6.80176">
        <ele>1975</ele>
        <time>2010-01-02T00:50:40Z</time>
      </trkpt>
      <trkpt lat="46.19834" lon="6.80162">
        <ele>1977</ele>
        <time>2010-01-02T00:50:44Z</time>
      </trkpt>
      <trkpt lat="46.19836" lon="6.80146">
        <ele>1978</ele>
        <time>2010-01-02T00:50:48Z</time>
      </trkpt>
      <trkpt lat="46.19844" lon="6.8012">
        <ele>1976</ele>
        <time>2010-01-02T00:50:57Z</time>
      </trkpt>
      <trkpt lat="46.1985" lon="6.80097">
        <ele>1974</ele>
        <time>2010-01-02T00:51:03Z</time>
      </trkpt>
      <trkpt lat="46.19857" lon="6.80081">
        <ele>1967</ele>
        <time>2010-01-02T00:51:08Z</time>
      </trkpt>
      <trkpt lat="46.19869" lon="6.80056">
        <ele>1967</ele>
        <time>2010-01-02T00:51:17Z</time>
      </trkpt>
      <trkpt lat="46.19881" lon="6.80042">
        <ele>1967</ele>
        <time>2010-01-02T00:51:23Z</time>
      </trkpt>
      <trkpt lat="46.1989" lon="6.80023">
        <ele>1966</ele>
        <time>2010-01-02T00:51:30Z</time>
      </trkpt>
      <trkpt lat="46.19901" lon="6.80005">
        <ele>1965</ele>
        <time>2010-01-02T00:51:36Z</time>
      </trkpt>
      <trkpt lat="46.1991" lon="6.79982">
        <ele>1958</ele>
        <time>2010-01-02T00:51:43Z</time>
      </trkpt>
      <trkpt lat="46.19919" lon="6.79955">
        <ele>1955</ele>
        <time>2010-01-02T00:51:52Z</time>
      </trkpt>
      <trkpt lat="46.19925" lon="6.79946">
        <ele>1954</ele>
        <time>2010-01-02T00:51:55Z</time>
      </trkpt>
      <trkpt lat="46.1993" lon="6.7994">
        <ele>1953</ele>
        <time>2010-01-02T00:51:58Z</time>
      </trkpt>
      <trkpt lat="46.1993" lon="6.79939">
        <ele>1953</ele>
        <time>2010-01-02T00:51:58Z</time>
      </trkpt>
      <trkpt lat="46.1994" lon="6.79933">
        <ele>1953</ele>
        <time>2010-01-02T00:52:02Z</time>
      </trkpt>
      <trkpt lat="46.19948" lon="6.79921">
        <ele>1952</ele>
        <time>2010-01-02T00:52:07Z</time>
      </trkpt>
      <trkpt lat="46.19958" lon="6.79915">
        <ele>1944</ele>
        <time>2010-01-02T00:52:11Z</time>
      </trkpt>
      <trkpt lat="46.19972" lon="6.79907">
        <ele>1944</ele>
        <time>2010-01-02T00:52:17Z</time>
      </trkpt>
      <trkpt lat="46.19983" lon="6.79899">
        <ele>1945</ele>
        <time>2010-01-02T00:52:22Z</time>
      </trkpt>
      <trkpt lat="46.20005" lon="6.79879">
        <ele>1947</ele>
        <time>2010-01-02T00:52:33Z</time>
      </trkpt>
      <trkpt lat="46.20017" lon="6.79863">
        <ele>1946</ele>
        <time>2010-01-02T00:52:40Z</time>
      </trkpt>
      <trkpt lat="46.20024" lon="6.79857">
        <ele>1946</ele>
        <time>2010-01-02T00:52:43Z</time>
      </trkpt>
      <trkpt lat="46.20028" lon="6.79853">
        <ele>1946</ele>
        <time>2010-01-02T00:52:45Z</time>
      </trkpt>
      <trkpt lat="46.20034" lon="6.79844">
        <ele>1946</ele>
        <time>2010-01-02T00:52:48Z</time>
      </trkpt>
      <trkpt lat="46.20034" lon="6.79841">
        <ele>1946</ele>
        <time>2010-01-02T00:52:49Z</time>
      </trkpt>
      <trkpt lat="46.20035" lon="6.79834">
        <ele>1945</ele>
        <time>2010-01-02T00:52:51Z</time>
      </trkpt>
      <trkpt lat="46.20038" lon="6.79823">
        <ele>1938</ele>
        <time>2010-01-02T00:52:54Z</time>
      </trkpt>
      <trkpt lat="46.2004" lon="6.79818">
        <ele>1938</ele>
        <time>2010-01-02T00:52:56Z</time>
      </trkpt>
      <trkpt lat="46.20044" lon="6.79809">
        <ele>1938</ele>
        <time>2010-01-02T00:52:59Z</time>
      </trkpt>
      <trkpt lat="46.20048" lon="6.798">
        <ele>1938</ele>
        <time>2010-01-02T00:53:02Z</time>
      </trkpt>
      <trkpt lat="46.2005" lon="6.79793">
        <ele>1937</ele>
        <time>2010-01-02T00:53:04Z</time>
      </trkpt>
      <trkpt lat="46.20051" lon="6.79789">
        <ele>1937</ele>
        <time>2010-01-02T00:53:05Z</time>
      </trkpt>
      <trkpt lat="46.20057" lon="6.79782">
        <ele>1937</ele>
        <time>2010-01-02T00:53:08Z</time>
      </trkpt>
      <trkpt lat="46.20059" lon="6.79777">
        <ele>1937</ele>
        <time>2010-01-02T00:53:10Z</time>
      </trkpt>
      <trkpt lat="46.2006" lon="6.79776">
        <ele>1937</ele>
        <time>2010-01-02T00:53:10Z</time>
      </trkpt>
      <trkpt lat="46.20061" lon="6.79775">
        <ele>1937</ele>
        <time>2010-01-02T00:53:11Z</time>
      </trkpt>
      <trkpt lat="46.20063" lon="6.79774">
        <ele>1937</ele>
        <time>2010-01-02T00:53:11Z</time>
      </trkpt>
      <trkpt lat="46.20063" lon="6.79773">
        <ele>1937</ele>
        <time>2010-01-02T00:53:12Z</time>
      </trkpt>
      <trkpt lat="46.20069" lon="6.79771">
        <ele>1937</ele>
        <time>2010-01-02T00:53:14Z</time>
      </trkpt>
      <trkpt lat="46.20083" lon="6.79769">
        <ele>1937</ele>
        <time>2010-01-02T00:53:20Z</time>
      </trkpt>
      <trkpt lat="46.20093" lon="6.79764">
        <ele>1945</ele>
        <time>2010-01-02T00:53:24Z</time>
      </trkpt>
      <trkpt lat="46.20101" lon="6.79755">
        <ele>1946</ele>
        <time>2010-01-02T00:53:28Z</time>
      </trkpt>
      <trkpt lat="46.20104" lon="6.7974">
        <ele>1935</ele>
        <time>2010-01-02T00:53:32Z</time>
      </trkpt>
      <trkpt lat="46.20104" lon="6.79728">
        <ele>1933</ele>
        <time>2010-01-02T00:53:36Z</time>
      </trkpt>
      <trkpt lat="46.20106" lon="6.79725">
        <ele>1933</ele>
        <time>2010-01-02T00:53:37Z</time>
      </trkpt>
      <trkpt lat="46.20108" lon="6.79723">
        <ele>1933</ele>
        <time>2010-01-02T00:53:38Z</time>
      </trkpt>
      <trkpt lat="46.20109" lon="6.79716">
        <ele>1932</ele>
        <time>2010-01-02T00:53:40Z</time>
      </trkpt>
      <trkpt lat="46.20102" lon="6.79712">
        <ele>1931</ele>
        <time>2010-01-02T00:53:43Z</time>
      </trkpt>
      <trkpt lat="46.20099" lon="6.79706">
        <ele>1930</ele>
        <time>2010-01-02T00:53:45Z</time>
      </trkpt>
      <trkpt lat="46.20091" lon="6.79699">
        <ele>1928</ele>
        <time>2010-01-02T00:53:48Z</time>
      </trkpt>
      <trkpt lat="46.20085" lon="6.79694">
        <ele>1926</ele>
        <time>2010-01-02T00:53:51Z</time>
      </trkpt>
      <trkpt lat="46.20083" lon="6.79687">
        <ele>1919</ele>
        <time>2010-01-02T00:53:53Z</time>
      </trkpt>
      <trkpt lat="46.20087" lon="6.79683">
        <ele>1922</ele>
        <time>2010-01-02T00:53:55Z</time>
      </trkpt>
      <trkpt lat="46.20091" lon="6.79684">
        <ele>1923</ele>
        <time>2010-01-02T00:53:57Z</time>
      </trkpt>
      <trkpt lat="46.20095" lon="6.79685">
        <ele>1924</ele>
        <time>2010-01-02T00:53:59Z</time>
      </trkpt>
      <trkpt lat="46.20096" lon="6.79686">
        <ele>1925</ele>
        <time>2010-01-02T00:53:59Z</time>
      </trkpt>
      <trkpt lat="46.20097" lon="6.79686">
        <ele>1925</ele>
        <time>2010-01-02T00:53:59Z</time>
      </trkpt>
      <trkpt lat="46.20098" lon="6.79686">
        <ele>1925</ele>
        <time>2010-01-02T00:54:00Z</time>
      </trkpt>
      <trkpt lat="46.20099" lon="6.79686">
        <ele>1925</ele>
        <time>2010-01-02T00:54:01Z</time>
      </trkpt>
      <trkpt lat="46.201" lon="6.79685">
        <ele>1925</ele>
        <time>2010-01-02T00:54:01Z</time>
      </trkpt>
      <trkpt lat="46.20101" lon="6.79685">
        <ele>1925</ele>
        <time>2010-01-02T00:54:01Z</time>
      </trkpt>
      <trkpt lat="46.20101" lon="6.79685">
        <ele>1925</ele>
        <time>2010-01-02T00:54:01Z</time>
      </trkpt>
      <trkpt lat="46.20103" lon="6.79683">
        <ele>1925</ele>
        <time>2010-01-02T00:54:02Z</time>
      </trkpt>
      <trkpt lat="46.20103" lon="6.79682">
        <ele>1925</ele>
        <time>2010-01-02T00:54:02Z</time>
      </trkpt>
      <trkpt lat="46.20103" lon="6.79681">
        <ele>1925</ele>
        <time>2010-01-02T00:54:03Z</time>
      </trkpt>
      <trkpt lat="46.20104" lon="6.7968">
        <ele>1925</ele>
        <time>2010-01-02T00:54:03Z</time>
      </trkpt>
      <trkpt lat="46.20105" lon="6.79679">
        <ele>1925</ele>
        <time>2010-01-02T00:54:03Z</time>
      </trkpt>
      <trkpt lat="46.20106" lon="6.79678">
        <ele>1925</ele>
        <time>2010-01-02T00:54:04Z</time>
      </trkpt>
      <trkpt lat="46.20106" lon="6.79677">
        <ele>1925</ele>
        <time>2010-01-02T00:54:04Z</time>
      </trkpt>
      <trkpt lat="46.20107" lon="6.79676">
        <ele>1925</ele>
        <time>2010-01-02T00:54:05Z</time>
      </trkpt>
      <trkpt lat="46.20107" lon="6.79676">
        <ele>1925</ele>
        <time>2010-01-02T00:54:05Z</time>
      </trkpt>
      <trkpt lat="46.20108" lon="6.79675">
        <ele>1925</ele>
        <time>2010-01-02T00:54:05Z</time>
      </trkpt>
      <trkpt lat="46.20109" lon="6.79674">
        <ele>1925</ele>
        <time>2010-01-02T00:54:06Z</time>
      </trkpt>
      <trkpt lat="46.20109" lon="6.79673">
        <ele>1925</ele>
        <time>2010-01-02T00:54:06Z</time>
      </trkpt>
      <trkpt lat="46.2011" lon="6.79671">
        <ele>1925</ele>
        <time>2010-01-02T00:54:07Z</time>
      </trkpt>
      <trkpt lat="46.2011" lon="6.7967">
        <ele>1925</ele>
        <time>2010-01-02T00:54:07Z</time>
      </trkpt>
      <trkpt lat="46.2011" lon="6.79669">
        <ele>1925</ele>
        <time>2010-01-02T00:54:07Z</time>
      </trkpt>
      <trkpt lat="46.2011" lon="6.79668">
        <ele>1925</ele>
        <time>2010-01-02T00:54:07Z</time>
      </trkpt>
      <trkpt lat="46.2011" lon="6.79667">
        <ele>1909</ele>
        <time>2010-01-02T00:54:08Z</time>
      </trkpt>
      <trkpt lat="46.20111" lon="6.79666">
        <ele>1909</ele>
        <time>2010-01-02T00:54:08Z</time>
      </trkpt>
      <trkpt lat="46.20111" lon="6.79664">
        <ele>1909</ele>
        <time>2010-01-02T00:54:08Z</time>
      </trkpt>
      <trkpt lat="46.20111" lon="6.79663">
        <ele>1909</ele>
        <time>2010-01-02T00:54:09Z</time>
      </trkpt>
      <trkpt lat="46.20111" lon="6.79662">
        <ele>1909</ele>
        <time>2010-01-02T00:54:09Z</time>
      </trkpt>
      <trkpt lat="46.20111" lon="6.79661">
        <ele>1909</ele>
        <time>2010-01-02T00:54:09Z</time>
      </trkpt>
      <trkpt lat="46.20111" lon="6.79659">
        <ele>1909</ele>
        <time>2010-01-02T00:54:10Z</time>
      </trkpt>
      <trkpt lat="46.20111" lon="6.79658">
        <ele>1909</ele>
        <time>2010-01-02T00:54:10Z</time>
      </trkpt>
      <trkpt lat="46.20111" lon="6.79657">
        <ele>1908</ele>
        <time>2010-01-02T00:54:11Z</time>
      </trkpt>
      <trkpt lat="46.20111" lon="6.79655">
        <ele>1908</ele>
        <time>2010-01-02T00:54:11Z</time>
      </trkpt>
      <trkpt lat="46.20111" lon="6.79655">
        <ele>1908</ele>
        <time>2010-01-02T00:54:11Z</time>
      </trkpt>
      <trkpt lat="46.20111" lon="6.79653">
        <ele>1908</ele>
        <time>2010-01-02T00:54:12Z</time>
      </trkpt>
      <trkpt lat="46.20111" lon="6.79651">
        <ele>1908</ele>
        <time>2010-01-02T00:54:12Z</time>
      </trkpt>
      <trkpt lat="46.20112" lon="6.7965">
        <ele>1908</ele>
        <time>2010-01-02T00:54:13Z</time>
      </trkpt>
      <trkpt lat="46.20112" lon="6.79649">
        <ele>1908</ele>
        <time>2010-01-02T00:54:13Z</time>
      </trkpt>
      <trkpt lat="46.20112" lon="6.79647">
        <ele>1907</ele>
        <time>2010-01-02T00:54:13Z</time>
      </trkpt>
      <trkpt lat="46.20112" lon="6.79646">
        <ele>1907</ele>
        <time>2010-01-02T00:54:14Z</time>
      </trkpt>
      <trkpt lat="46.20113" lon="6.79646">
        <ele>1907</ele>
        <time>2010-01-02T00:54:14Z</time>
      </trkpt>
      <trkpt lat="46.20114" lon="6.79644">
        <ele>1907</ele>
        <time>2010-01-02T00:54:14Z</time>
      </trkpt>
      <trkpt lat="46.20114" lon="6.79644">
        <ele>1907</ele>
        <time>2010-01-02T00:54:15Z</time>
      </trkpt>
      <trkpt lat="46.20115" lon="6.79642">
        <ele>1907</ele>
        <time>2010-01-02T00:54:15Z</time>
      </trkpt>
      <trkpt lat="46.20116" lon="6.79641">
        <ele>1907</ele>
        <time>2010-01-02T00:54:16Z</time>
      </trkpt>
      <trkpt lat="46.20116" lon="6.79641">
        <ele>1907</ele>
        <time>2010-01-02T00:54:16Z</time>
      </trkpt>
      <trkpt lat="46.20117" lon="6.7964">
        <ele>1907</ele>
        <time>2010-01-02T00:54:16Z</time>
      </trkpt>
      <trkpt lat="46.20118" lon="6.7964">
        <ele>1907</ele>
        <time>2010-01-02T00:54:16Z</time>
      </trkpt>
      <trkpt lat="46.20119" lon="6.79639">
        <ele>1907</ele>
        <time>2010-01-02T00:54:17Z</time>
      </trkpt>
      <trkpt lat="46.2012" lon="6.79638">
        <ele>1907</ele>
        <time>2010-01-02T00:54:17Z</time>
      </trkpt>
      <trkpt lat="46.20121" lon="6.79638">
        <ele>1907</ele>
        <time>2010-01-02T00:54:18Z</time>
      </trkpt>
      <trkpt lat="46.20122" lon="6.79637">
        <ele>1907</ele>
        <time>2010-01-02T00:54:19Z</time>
      </trkpt>
      <trkpt lat="46.20124" lon="6.79636">
        <ele>1907</ele>
        <time>2010-01-02T00:54:19Z</time>
      </trkpt>
      <trkpt lat="46.20124" lon="6.79635">
        <ele>1906</ele>
        <time>2010-01-02T00:54:19Z</time>
      </trkpt>
      <trkpt lat="46.20124" lon="6.79634">
        <ele>1906</ele>
        <time>2010-01-02T00:54:20Z</time>
      </trkpt>
      <trkpt lat="46.20124" lon="6.79633">
        <ele>1906</ele>
        <time>2010-01-02T00:54:20Z</time>
      </trkpt>
      <trkpt lat="46.20124" lon="6.79633">
        <ele>1906</ele>
        <time>2010-01-02T00:54:20Z</time>
      </trkpt>
      <trkpt lat="46.20127" lon="6.7963">
        <ele>1906</ele>
        <time>2010-01-02T00:54:21Z</time>
      </trkpt>
      <trkpt lat="46.2014" lon="6.79605">
        <ele>1904</ele>
        <time>2010-01-02T00:54:30Z</time>
      </trkpt>
      <trkpt lat="46.20142" lon="6.79585">
        <ele>1902</ele>
        <time>2010-01-02T00:54:36Z</time>
      </trkpt>
      <trkpt lat="46.20157" lon="6.79564">
        <ele>1891</ele>
        <time>2010-01-02T00:54:44Z</time>
      </trkpt>
      <trkpt lat="46.20165" lon="6.79537">
        <ele>1885</ele>
        <time>2010-01-02T00:54:52Z</time>
      </trkpt>
      <trkpt lat="46.20176" lon="6.79518">
        <ele>1897</ele>
        <time>2010-01-02T00:54:59Z</time>
      </trkpt>
      <trkpt lat="46.2019" lon="6.79501">
        <ele>1898</ele>
        <time>2010-01-02T00:55:07Z</time>
      </trkpt>
      <trkpt lat="46.20206" lon="6.79476">
        <ele>1884</ele>
        <time>2010-01-02T00:55:16Z</time>
      </trkpt>
      <trkpt lat="46.2022" lon="6.79462">
        <ele>1884</ele>
        <time>2010-01-02T00:55:22Z</time>
      </trkpt>
      <trkpt lat="46.20229" lon="6.7945">
        <ele>1883</ele>
        <time>2010-01-02T00:55:28Z</time>
      </trkpt>
      <trkpt lat="46.20242" lon="6.79437">
        <ele>1882</ele>
        <time>2010-01-02T00:55:34Z</time>
      </trkpt>
      <trkpt lat="46.2025" lon="6.79419">
        <ele>1882</ele>
        <time>2010-01-02T00:55:40Z</time>
      </trkpt>
      <trkpt lat="46.20264" lon="6.794">
        <ele>1880</ele>
        <time>2010-01-02T00:55:47Z</time>
      </trkpt>
      <trkpt lat="46.20281" lon="6.79379">
        <ele>1879</ele>
        <time>2010-01-02T00:55:56Z</time>
      </trkpt>
      <trkpt lat="46.20296" lon="6.79348">
        <ele>1876</ele>
        <time>2010-01-02T00:56:07Z</time>
      </trkpt>
      <trkpt lat="46.2031" lon="6.79325">
        <ele>1862</ele>
        <time>2010-01-02T00:56:15Z</time>
      </trkpt>
      <trkpt lat="46.20324" lon="6.79311">
        <ele>1862</ele>
        <time>2010-01-02T00:56:22Z</time>
      </trkpt>
      <trkpt lat="46.20334" lon="6.79285">
        <ele>1869</ele>
        <time>2010-01-02T00:56:30Z</time>
      </trkpt>
      <trkpt lat="46.20344" lon="6.79265">
        <ele>1864</ele>
        <time>2010-01-02T00:56:37Z</time>
      </trkpt>
      <trkpt lat="46.20353" lon="6.79261">
        <ele>1865</ele>
        <time>2010-01-02T00:56:41Z</time>
      </trkpt>
      <trkpt lat="46.2037" lon="6.79259">
        <ele>1868</ele>
        <time>2010-01-02T00:56:48Z</time>
      </trkpt>
      <trkpt lat="46.20391" lon="6.79254">
        <ele>1869</ele>
        <time>2010-01-02T00:56:56Z</time>
      </trkpt>
      <trkpt lat="46.20411" lon="6.79247">
        <ele>1861</ele>
        <time>2010-01-02T00:57:04Z</time>
      </trkpt>
      <trkpt lat="46.2043" lon="6.79231">
        <ele>1859</ele>
        <time>2010-01-02T00:57:14Z</time>
      </trkpt>
      <trkpt lat="46.20444" lon="6.79225">
        <ele>1857</ele>
        <time>2010-01-02T00:57:19Z</time>
      </trkpt>
      <trkpt lat="46.20457" lon="6.79222">
        <ele>1857</ele>
        <time>2010-01-02T00:57:24Z</time>
      </trkpt>
      <trkpt lat="46.20475" lon="6.79205">
        <ele>1855</ele>
        <time>2010-01-02T00:57:33Z</time>
      </trkpt>
      <trkpt lat="46.20496" lon="6.79196">
        <ele>1852</ele>
        <time>2010-01-02T00:57:42Z</time>
      </trkpt>
      <trkpt lat="46.2051" lon="6.79189">
        <ele>1853</ele>
        <time>2010-01-02T00:57:47Z</time>
      </trkpt>
      <trkpt lat="46.20522" lon="6.79181">
        <ele>1853</ele>
        <time>2010-01-02T00:57:53Z</time>
      </trkpt>
      <trkpt lat="46.2054" lon="6.79155">
        <ele>1841</ele>
        <time>2010-01-02T00:58:03Z</time>
      </trkpt>
      <trkpt lat="46.20556" lon="6.79139">
        <ele>1841</ele>
        <time>2010-01-02T00:58:11Z</time>
      </trkpt>
      <trkpt lat="46.20573" lon="6.7913">
        <ele>1841</ele>
        <time>2010-01-02T00:58:18Z</time>
      </trkpt>
      <trkpt lat="46.20586" lon="6.79114">
        <ele>1842</ele>
        <time>2010-01-02T00:58:25Z</time>
      </trkpt>
      <trkpt lat="46.20599" lon="6.79099">
        <ele>1841</ele>
        <time>2010-01-02T00:58:32Z</time>
      </trkpt>
      <trkpt lat="46.20608" lon="6.79081">
        <ele>1833</ele>
        <time>2010-01-02T00:58:38Z</time>
      </trkpt>
      <trkpt lat="46.20617" lon="6.79064">
        <ele>1832</ele>
        <time>2010-01-02T00:58:44Z</time>
      </trkpt>
      <trkpt lat="46.20636" lon="6.7904">
        <ele>1831</ele>
        <time>2010-01-02T00:58:54Z</time>
      </trkpt>
      <trkpt lat="46.20652" lon="6.79025">
        <ele>1830</ele>
        <time>2010-01-02T00:59:02Z</time>
      </trkpt>
      <trkpt lat="46.20662" lon="6.79019">
        <ele>1829</ele>
        <time>2010-01-02T00:59:06Z</time>
      </trkpt>
      <trkpt lat="46.20666" lon="6.79012">
        <ele>1828</ele>
        <time>2010-01-02T00:59:09Z</time>
      </trkpt>
      <trkpt lat="46.20669" lon="6.78996">
        <ele>1826</ele>
        <time>2010-01-02T00:59:13Z</time>
      </trkpt>
      <trkpt lat="46.20681" lon="6.78983">
        <ele>1825</ele>
        <time>2010-01-02T00:59:19Z</time>
      </trkpt>
      <trkpt lat="46.20688" lon="6.78977">
        <ele>1824</ele>
        <time>2010-01-02T00:59:22Z</time>
      </trkpt>
      <trkpt lat="46.20695" lon="6.78973">
        <ele>1824</ele>
        <time>2010-01-02T00:59:25Z</time>
      </trkpt>
      <trkpt lat="46.20698" lon="6.78963">
        <ele>1823</ele>
        <time>2010-01-02T00:59:28Z</time>
      </trkpt>
      <trkpt lat="46.20699" lon="6.7895">
        <ele>1822</ele>
        <time>2010-01-02T00:59:32Z</time>
      </trkpt>
      <trkpt lat="46.20703" lon="6.78928">
        <ele>1820</ele>
        <time>2010-01-02T00:59:39Z</time>
      </trkpt>
      <trkpt lat="46.20709" lon="6.78913">
        <ele>1812</ele>
        <time>2010-01-02T00:59:43Z</time>
      </trkpt>
      <trkpt lat="46.20715" lon="6.78896">
        <ele>1812</ele>
        <time>2010-01-02T00:59:49Z</time>
      </trkpt>
      <trkpt lat="46.20716" lon="6.78895">
        <ele>1812</ele>
        <time>2010-01-02T00:59:49Z</time>
      </trkpt>
      <trkpt lat="46.20724" lon="6.78874">
        <ele>1811</ele>
        <time>2010-01-02T00:59:56Z</time>
      </trkpt>
      <trkpt lat="46.20733" lon="6.78857">
        <ele>1810</ele>
        <time>2010-01-02T01:00:02Z</time>
      </trkpt>
      <trkpt lat="46.20741" lon="6.78848">
        <ele>1810</ele>
        <time>2010-01-02T01:00:06Z</time>
      </trkpt>
      <trkpt lat="46.20745" lon="6.78844">
        <ele>1809</ele>
        <time>2010-01-02T01:00:08Z</time>
      </trkpt>
      <trkpt lat="46.20743" lon="6.78837">
        <ele>1809</ele>
        <time>2010-01-02T01:00:09Z</time>
      </trkpt>
      <trkpt lat="46.20746" lon="6.78826">
        <ele>1806</ele>
        <time>2010-01-02T01:00:13Z</time>
      </trkpt>
      <trkpt lat="46.20749" lon="6.78818">
        <ele>1804</ele>
        <time>2010-01-02T01:00:15Z</time>
      </trkpt>
      <trkpt lat="46.20752" lon="6.78799">
        <ele>1805</ele>
        <time>2010-01-02T01:00:21Z</time>
      </trkpt>
      <trkpt lat="46.20752" lon="6.78791">
        <ele>1804</ele>
        <time>2010-01-02T01:00:23Z</time>
      </trkpt>
      <trkpt lat="46.20755" lon="6.7878">
        <ele>1803</ele>
        <time>2010-01-02T01:00:26Z</time>
      </trkpt>
      <trkpt lat="46.20767" lon="6.7877">
        <ele>1802</ele>
        <time>2010-01-02T01:00:32Z</time>
      </trkpt>
      <trkpt lat="46.20779" lon="6.78762">
        <ele>1802</ele>
        <time>2010-01-02T01:00:37Z</time>
      </trkpt>
      <trkpt lat="46.20787" lon="6.78756">
        <ele>1802</ele>
        <time>2010-01-02T01:00:41Z</time>
      </trkpt>
      <trkpt lat="46.20808" lon="6.78749">
        <ele>1788</ele>
        <time>2010-01-02T01:00:50Z</time>
      </trkpt>
      <trkpt lat="46.20845" lon="6.78729">
        <ele>1787</ele>
        <time>2010-01-02T01:01:05Z</time>
      </trkpt>
      <trkpt lat="46.20881" lon="6.7871">
        <ele>1783</ele>
        <time>2010-01-02T01:01:21Z</time>
      </trkpt>
      <trkpt lat="46.20896" lon="6.78697">
        <ele>1780</ele>
        <time>2010-01-02T01:01:28Z</time>
      </trkpt>
      <trkpt lat="46.20908" lon="6.78689">
        <ele>1778</ele>
        <time>2010-01-02T01:01:33Z</time>
      </trkpt>
      <trkpt lat="46.20915" lon="6.78685">
        <ele>1777</ele>
        <time>2010-01-02T01:01:36Z</time>
      </trkpt>
      <trkpt lat="46.20927" lon="6.78678">
        <ele>1780</ele>
        <time>2010-01-02T01:01:41Z</time>
      </trkpt>
      <trkpt lat="46.20937" lon="6.78683">
        <ele>1783</ele>
        <time>2010-01-02T01:01:46Z</time>
      </trkpt>
      <trkpt lat="46.2094" lon="6.78672">
        <ele>1782</ele>
        <time>2010-01-02T01:01:49Z</time>
      </trkpt>
      <trkpt lat="46.20943" lon="6.78645">
        <ele>1768</ele>
        <time>2010-01-02T01:01:56Z</time>
      </trkpt>
      <trkpt lat="46.20958" lon="6.78605">
        <ele>1764</ele>
        <time>2010-01-02T01:02:09Z</time>
      </trkpt>
      <trkpt lat="46.20976" lon="6.78587">
        <ele>1764</ele>
        <time>2010-01-02T01:02:18Z</time>
      </trkpt>
      <trkpt lat="46.21" lon="6.78577">
        <ele>1759</ele>
        <time>2010-01-02T01:02:28Z</time>
      </trkpt>
      <trkpt lat="46.2102" lon="6.7857">
        <ele>1763</ele>
        <time>2010-01-02T01:02:36Z</time>
      </trkpt>
      <trkpt lat="46.21051" lon="6.78511">
        <ele>1760</ele>
        <time>2010-01-02T01:02:57Z</time>
      </trkpt>
      <trkpt lat="46.21065" lon="6.78485">
        <ele>1747</ele>
        <time>2010-01-02T01:03:06Z</time>
      </trkpt>
      <trkpt lat="46.21074" lon="6.78453">
        <ele>1742</ele>
        <time>2010-01-02T01:03:15Z</time>
      </trkpt>
      <trkpt lat="46.21079" lon="6.78413">
        <ele>1741</ele>
        <time>2010-01-02T01:03:26Z</time>
      </trkpt>
      <trkpt lat="46.21086" lon="6.78387">
        <ele>1750</ele>
        <time>2010-01-02T01:03:34Z</time>
      </trkpt>
      <trkpt lat="46.21093" lon="6.78365">
        <ele>1747</ele>
        <time>2010-01-02T01:03:41Z</time>
      </trkpt>
      <trkpt lat="46.21096" lon="6.78346">
        <ele>1741</ele>
        <time>2010-01-02T01:03:46Z</time>
      </trkpt>
      <trkpt lat="46.21096" lon="6.78328">
        <ele>1729</ele>
        <time>2010-01-02T01:03:51Z</time>
      </trkpt>
      <trkpt lat="46.211" lon="6.78306">
        <ele>1730</ele>
        <time>2010-01-02T01:03:58Z</time>
      </trkpt>
      <trkpt lat="46.21119" lon="6.78251">
        <ele>1727</ele>
        <time>2010-01-02T01:04:15Z</time>
      </trkpt>
      <trkpt lat="46.2112" lon="6.78222">
        <ele>1714</ele>
        <time>2010-01-02T01:04:23Z</time>
      </trkpt>
      <trkpt lat="46.21121" lon="6.78216">
        <ele>1714</ele>
        <time>2010-01-02T01:04:24Z</time>
      </trkpt>
      <trkpt lat="46.21127" lon="6.78181">
        <ele>1712</ele>
        <time>2010-01-02T01:04:34Z</time>
      </trkpt>
      <trkpt lat="46.21134" lon="6.78148">
        <ele>1700</ele>
        <time>2010-01-02T01:04:44Z</time>
      </trkpt>
      <trkpt lat="46.21142" lon="6.78115">
        <ele>1697</ele>
        <time>2010-01-02T01:04:54Z</time>
      </trkpt>
      <trkpt lat="46.21145" lon="6.78085">
        <ele>1697</ele>
        <time>2010-01-02T01:05:02Z</time>
      </trkpt>
      <trkpt lat="46.21157" lon="6.7804">
        <ele>1679</ele>
        <time>2010-01-02T01:05:15Z</time>
      </trkpt>
      <trkpt lat="46.21167" lon="6.77993">
        <ele>1681</ele>
        <time>2010-01-02T01:05:29Z</time>
      </trkpt>
      <trkpt lat="46.21181" lon="6.77948">
        <ele>1676</ele>
        <time>2010-01-02T01:05:42Z</time>
      </trkpt>
      <trkpt lat="46.2119" lon="6.77907">
        <ele>1657</ele>
        <time>2010-01-02T01:05:54Z</time>
      </trkpt>
      <trkpt lat="46.21219" lon="6.77866">
        <ele>1656</ele>
        <time>2010-01-02T01:06:11Z</time>
      </trkpt>
      <trkpt lat="46.21248" lon="6.77816">
        <ele>1643</ele>
        <time>2010-01-02T01:06:29Z</time>
      </trkpt>
      <trkpt lat="46.21269" lon="6.77771">
        <ele>1649</ele>
        <time>2010-01-02T01:06:44Z</time>
      </trkpt>
      <trkpt lat="46.21273" lon="6.77754">
        <ele>1647</ele>
        <time>2010-01-02T01:06:49Z</time>
      </trkpt>
      <trkpt lat="46.21264" lon="6.77752">
        <ele>1642</ele>
        <time>2010-01-02T01:06:53Z</time>
      </trkpt>
      <trkpt lat="46.21248" lon="6.77752">
        <ele>1630</ele>
        <time>2010-01-02T01:06:59Z</time>
      </trkpt>
      <trkpt lat="46.21195" lon="6.77781">
        <ele>1627</ele>
        <time>2010-01-02T01:07:22Z</time>
      </trkpt>
      <trkpt lat="46.21121" lon="6.77828">
        <ele>1606</ele>
        <time>2010-01-02T01:07:54Z</time>
      </trkpt>
      <trkpt lat="46.21095" lon="6.77851">
        <ele>1613</ele>
        <time>2010-01-02T01:08:06Z</time>
      </trkpt>
      <trkpt lat="46.2107" lon="6.77863">
        <ele>1598</ele>
        <time>2010-01-02T01:08:17Z</time>
      </trkpt>
      <trkpt lat="46.21069" lon="6.77863">
        <ele>1598</ele>
        <time>2010-01-02T01:08:17Z</time>
      </trkpt>
      <trkpt lat="46.2105" lon="6.77872">
        <ele>1596</ele>
        <time>2010-01-02T01:08:25Z</time>
      </trkpt>
      <trkpt lat="46.21049" lon="6.77871">
        <ele>1596</ele>
        <time>2010-01-02T01:08:26Z</time>
      </trkpt>
      <trkpt lat="46.21047" lon="6.77873">
        <ele>1596</ele>
        <time>2010-01-02T01:08:26Z</time>
      </trkpt>
      <trkpt lat="46.2102" lon="6.77907">
        <ele>1592</ele>
        <time>2010-01-02T01:08:41Z</time>
      </trkpt>
      <trkpt lat="46.20941" lon="6.77998">
        <ele>1573</ele>
        <time>2010-01-02T01:09:21Z</time>
      </trkpt>
      <trkpt lat="46.20893" lon="6.78029">
        <ele>1562</ele>
        <time>2010-01-02T01:09:42Z</time>
      </trkpt>
      <trkpt lat="46.20835" lon="6.78053">
        <ele>1557</ele>
        <time>2010-01-02T01:10:06Z</time>
      </trkpt>
      <trkpt lat="46.20815" lon="6.78054">
        <ele>1544</ele>
        <time>2010-01-02T01:10:15Z</time>
      </trkpt>
      <trkpt lat="46.20785" lon="6.78052">
        <ele>1541</ele>
        <time>2010-01-02T01:10:26Z</time>
      </trkpt>
      <trkpt lat="46.20766" lon="6.78049">
        <ele>1539</ele>
        <time>2010-01-02T01:10:34Z</time>
      </trkpt>
      <trkpt lat="46.20747" lon="6.7805">
        <ele>1530</ele>
        <time>2010-01-02T01:10:42Z</time>
      </trkpt>
      <trkpt lat="46.20731" lon="6.78045">
        <ele>1529</ele>
        <time>2010-01-02T01:10:48Z</time>
      </trkpt>
      <trkpt lat="46.20728" lon="6.78011">
        <ele>1526</ele>
        <time>2010-01-02T01:10:58Z</time>
      </trkpt>
      <trkpt lat="46.20733" lon="6.77979">
        <ele>1519</ele>
        <time>2010-01-02T01:11:07Z</time>
      </trkpt>
      <trkpt lat="46.20742" lon="6.77935">
        <ele>1515</ele>
        <time>2010-01-02T01:11:20Z</time>
      </trkpt>
      <trkpt lat="46.20748" lon="6.77902">
        <ele>1511</ele>
        <time>2010-01-02T01:11:29Z</time>
      </trkpt>
      <trkpt lat="46.20746" lon="6.77887">
        <ele>1509</ele>
        <time>2010-01-02T01:11:33Z</time>
      </trkpt>
      <trkpt lat="46.20734" lon="6.77833">
        <ele>1504</ele>
        <time>2010-01-02T01:11:49Z</time>
      </trkpt>
      <trkpt lat="46.20714" lon="6.77791">
        <ele>1502</ele>
        <time>2010-01-02T01:12:03Z</time>
      </trkpt>
      <trkpt lat="46.20702" lon="6.77785">
        <ele>1502</ele>
        <time>2010-01-02T01:12:08Z</time>
      </trkpt>
      <trkpt lat="46.207" lon="6.77778">
        <ele>1502</ele>
        <time>2010-01-02T01:12:10Z</time>
      </trkpt>
      <trkpt lat="46.20698" lon="6.77764">
        <ele>1501</ele>
        <time>2010-01-02T01:12:14Z</time>
      </trkpt>
      <trkpt lat="46.207" lon="6.77745">
        <ele>1500</ele>
        <time>2010-01-02T01:12:20Z</time>
      </trkpt>
      <trkpt lat="46.20711" lon="6.7773">
        <ele>1500</ele>
        <time>2010-01-02T01:12:25Z</time>
      </trkpt>
      <trkpt lat="46.20717" lon="6.7772">
        <ele>1500</ele>
        <time>2010-01-02T01:12:29Z</time>
      </trkpt>
      <trkpt lat="46.20719" lon="6.77716">
        <ele>1500</ele>
        <time>2010-01-02T01:12:31Z</time>
      </trkpt>
      <trkpt lat="46.20722" lon="6.77713">
        <ele>1500</ele>
        <time>2010-01-02T01:12:32Z</time>
      </trkpt>
      <trkpt lat="46.20726" lon="6.7771">
        <ele>1500</ele>
        <time>2010-01-02T01:12:34Z</time>
      </trkpt>
      <trkpt lat="46.20734" lon="6.77705">
        <ele>1500</ele>
        <time>2010-01-02T01:12:37Z</time>
      </trkpt>
      <trkpt lat="46.20747" lon="6.77693">
        <ele>1500</ele>
        <time>2010-01-02T01:12:44Z</time>
      </trkpt>
      <trkpt lat="46.20761" lon="6.77679">
        <ele>1502</ele>
        <time>2010-01-02T01:12:50Z</time>
      </trkpt>
      <trkpt lat="46.20777" lon="6.77638">
        <ele>1502</ele>
        <time>2010-01-02T01:13:03Z</time>
      </trkpt>
      <trkpt lat="46.20798" lon="6.77616">
        <ele>1503</ele>
        <time>2010-01-02T01:13:14Z</time>
      </trkpt>
      <trkpt lat="46.20819" lon="6.776">
        <ele>1502</ele>
        <time>2010-01-02T01:13:23Z</time>
      </trkpt>
      <trkpt lat="46.20827" lon="6.77594">
        <ele>1501</ele>
        <time>2010-01-02T01:13:27Z</time>
      </trkpt>
      <trkpt lat="46.20843" lon="6.77591">
        <ele>1504</ele>
        <time>2010-01-02T01:13:33Z</time>
      </trkpt>
      <trkpt lat="46.20849" lon="6.77577">
        <ele>1503</ele>
        <time>2010-01-02T01:13:38Z</time>
      </trkpt>
      <trkpt lat="46.20855" lon="6.77566">
        <ele>1504</ele>
        <time>2010-01-02T01:13:42Z</time>
      </trkpt>
      <trkpt lat="46.20861" lon="6.77559">
        <ele>1505</ele>
        <time>2010-01-02T01:13:45Z</time>
      </trkpt>
      <trkpt lat="46.20868" lon="6.77553">
        <ele>1505</ele>
        <time>2010-01-02T01:13:48Z</time>
      </trkpt>
      <trkpt lat="46.20873" lon="6.77548">
        <ele>1505</ele>
        <time>2010-01-02T01:13:50Z</time>
      </trkpt>
      <trkpt lat="46.2088" lon="6.77546">
        <ele>1505</ele>
        <time>2010-01-02T01:13:53Z</time>
      </trkpt>
      <trkpt lat="46.20887" lon="6.77541">
        <ele>1505</ele>
        <time>2010-01-02T01:13:56Z</time>
      </trkpt>
      <trkpt lat="46.20894" lon="6.77534">
        <ele>1504</ele>
        <time>2010-01-02T01:14:00Z</time>
      </trkpt>
      <trkpt lat="46.20904" lon="6.77524">
        <ele>1503</ele>
        <time>2010-01-02T01:14:05Z</time>
      </trkpt>
      <trkpt lat="46.2091" lon="6.77509">
        <ele>1500</ele>
        <time>2010-01-02T01:14:09Z</time>
      </trkpt>
      <trkpt lat="46.20912" lon="6.77496">
        <ele>1498</ele>
        <time>2010-01-02T01:14:13Z</time>
      </trkpt>
      <trkpt lat="46.20913" lon="6.77485">
        <ele>1500</ele>
        <time>2010-01-02T01:14:16Z</time>
      </trkpt>
      <trkpt lat="46.20918" lon="6.77483">
        <ele>1494</ele>
        <time>2010-01-02T01:14:18Z</time>
      </trkpt>
      <trkpt lat="46.20925" lon="6.7748">
        <ele>1494</ele>
        <time>2010-01-02T01:14:21Z</time>
      </trkpt>
      <trkpt lat="46.20932" lon="6.77472">
        <ele>1493</ele>
        <time>2010-01-02T01:14:24Z</time>
      </trkpt>
      <trkpt lat="46.20938" lon="6.77463">
        <ele>1492</ele>
        <time>2010-01-02T01:14:28Z</time>
      </trkpt>
      <trkpt lat="46.20951" lon="6.77441">
        <ele>1490</ele>
        <time>2010-01-02T01:14:36Z</time>
      </trkpt>
      <trkpt lat="46.20961" lon="6.77435">
        <ele>1489</ele>
        <time>2010-01-02T01:14:40Z</time>
      </trkpt>
      <trkpt lat="46.20976" lon="6.77441">
        <ele>1488</ele>
        <time>2010-01-02T01:14:47Z</time>
      </trkpt>
      <trkpt lat="46.20989" lon="6.77442">
        <ele>1488</ele>
        <time>2010-01-02T01:14:52Z</time>
      </trkpt>
      <trkpt lat="46.20996" lon="6.77442">
        <ele>1487</ele>
        <time>2010-01-02T01:14:54Z</time>
      </trkpt>
      <trkpt lat="46.21004" lon="6.77441">
        <ele>1488</ele>
        <time>2010-01-02T01:14:58Z</time>
      </trkpt>
      <trkpt lat="46.21013" lon="6.77438">
        <ele>1488</ele>
        <time>2010-01-02T01:15:01Z</time>
      </trkpt>
      <trkpt lat="46.21023" lon="6.77437">
        <ele>1489</ele>
        <time>2010-01-02T01:15:05Z</time>
      </trkpt>
      <trkpt lat="46.21033" lon="6.77434">
        <ele>1490</ele>
        <time>2010-01-02T01:15:09Z</time>
      </trkpt>
      <trkpt lat="46.21042" lon="6.77432">
        <ele>1490</ele>
        <time>2010-01-02T01:15:13Z</time>
      </trkpt>
      <trkpt lat="46.21048" lon="6.77425">
        <ele>1489</ele>
        <time>2010-01-02T01:15:16Z</time>
      </trkpt>
      <trkpt lat="46.21059" lon="6.77419">
        <ele>1487</ele>
        <time>2010-01-02T01:15:21Z</time>
      </trkpt>
      <trkpt lat="46.2107" lon="6.77416">
        <ele>1477</ele>
        <time>2010-01-02T01:15:26Z</time>
      </trkpt>
      <trkpt lat="46.21078" lon="6.77411">
        <ele>1477</ele>
        <time>2010-01-02T01:15:29Z</time>
      </trkpt>
      <trkpt lat="46.21086" lon="6.77405">
        <ele>1480</ele>
        <time>2010-01-02T01:15:33Z</time>
      </trkpt>
      <trkpt lat="46.21092" lon="6.77396">
        <ele>1481</ele>
        <time>2010-01-02T01:15:36Z</time>
      </trkpt>
      <trkpt lat="46.21099" lon="6.77384">
        <ele>1481</ele>
        <time>2010-01-02T01:15:41Z</time>
      </trkpt>
      <trkpt lat="46.211" lon="6.77368">
        <ele>1479</ele>
        <time>2010-01-02T01:15:45Z</time>
      </trkpt>
      <trkpt lat="46.21093" lon="6.77355">
        <ele>1476</ele>
        <time>2010-01-02T01:15:49Z</time>
      </trkpt>
      <trkpt lat="46.2108" lon="6.77354">
        <ele>1471</ele>
        <time>2010-01-02T01:15:55Z</time>
      </trkpt>
      <trkpt lat="46.21062" lon="6.77355">
        <ele>1471</ele>
        <time>2010-01-02T01:16:02Z</time>
      </trkpt>
      <trkpt lat="46.21046" lon="6.77357">
        <ele>1471</ele>
        <time>2010-01-02T01:16:08Z</time>
      </trkpt>
      <trkpt lat="46.21035" lon="6.77356">
        <ele>1471</ele>
        <time>2010-01-02T01:16:13Z</time>
      </trkpt>
      <trkpt lat="46.21021" lon="6.77347">
        <ele>1470</ele>
        <time>2010-01-02T01:16:19Z</time>
      </trkpt>
      <trkpt lat="46.21007" lon="6.77332">
        <ele>1464</ele>
        <time>2010-01-02T01:16:26Z</time>
      </trkpt>
      <trkpt lat="46.21008" lon="6.77316">
        <ele>1462</ele>
        <time>2010-01-02T01:16:30Z</time>
      </trkpt>
      <trkpt lat="46.2102" lon="6.7731">
        <ele>1461</ele>
        <time>2010-01-02T01:16:35Z</time>
      </trkpt>
      <trkpt lat="46.21021" lon="6.77308">
        <ele>1461</ele>
        <time>2010-01-02T01:16:36Z</time>
      </trkpt>
      <trkpt lat="46.21033" lon="6.77302">
        <ele>1460</ele>
        <time>2010-01-02T01:16:41Z</time>
      </trkpt>
      <trkpt lat="46.21046" lon="6.77296">
        <ele>1460</ele>
        <time>2010-01-02T01:16:46Z</time>
      </trkpt>
      <trkpt lat="46.21063" lon="6.77295">
        <ele>1460</ele>
        <time>2010-01-02T01:16:53Z</time>
      </trkpt>
      <trkpt lat="46.21077" lon="6.77299">
        <ele>1461</ele>
        <time>2010-01-02T01:16:59Z</time>
      </trkpt>
      <trkpt lat="46.21089" lon="6.77301">
        <ele>1463</ele>
        <time>2010-01-02T01:17:04Z</time>
      </trkpt>
      <trkpt lat="46.21106" lon="6.7729">
        <ele>1462</ele>
        <time>2010-01-02T01:17:11Z</time>
      </trkpt>
      <trkpt lat="46.21122" lon="6.77269">
        <ele>1460</ele>
        <time>2010-01-02T01:17:20Z</time>
      </trkpt>
      <trkpt lat="46.2114" lon="6.77251">
        <ele>1458</ele>
        <time>2010-01-02T01:17:28Z</time>
      </trkpt>
      <trkpt lat="46.21157" lon="6.7723">
        <ele>1444</ele>
        <time>2010-01-02T01:17:37Z</time>
      </trkpt>
      <trkpt lat="46.2117" lon="6.77214">
        <ele>1444</ele>
        <time>2010-01-02T01:17:44Z</time>
      </trkpt>
      <trkpt lat="46.21185" lon="6.77202">
        <ele>1441</ele>
        <time>2010-01-02T01:17:51Z</time>
      </trkpt>
      <trkpt lat="46.21199" lon="6.77192">
        <ele>1441</ele>
        <time>2010-01-02T01:17:57Z</time>
      </trkpt>
      <trkpt lat="46.21215" lon="6.77182">
        <ele>1440</ele>
        <time>2010-01-02T01:18:04Z</time>
      </trkpt>
      <trkpt lat="46.21232" lon="6.77175">
        <ele>1439</ele>
        <time>2010-01-02T01:18:11Z</time>
      </trkpt>
      <trkpt lat="46.21253" lon="6.77165">
        <ele>1431</ele>
        <time>2010-01-02T01:18:20Z</time>
      </trkpt>
      <trkpt lat="46.21274" lon="6.77163">
        <ele>1424</ele>
        <time>2010-01-02T01:18:29Z</time>
      </trkpt>
      <trkpt lat="46.21291" lon="6.77161">
        <ele>1424</ele>
        <time>2010-01-02T01:18:35Z</time>
      </trkpt>
      <trkpt lat="46.21313" lon="6.77154">
        <ele>1426</ele>
        <time>2010-01-02T01:18:44Z</time>
      </trkpt>
      <trkpt lat="46.21327" lon="6.77151">
        <ele>1428</ele>
        <time>2010-01-02T01:18:50Z</time>
      </trkpt>
      <trkpt lat="46.21353" lon="6.77143">
        <ele>1430</ele>
        <time>2010-01-02T01:19:01Z</time>
      </trkpt>
      <trkpt lat="46.21372" lon="6.77125">
        <ele>1427</ele>
        <time>2010-01-02T01:19:10Z</time>
      </trkpt>
      <trkpt lat="46.21383" lon="6.77111">
        <ele>1424</ele>
        <time>2010-01-02T01:19:16Z</time>
      </trkpt>
      <trkpt lat="46.21418" lon="6.77088">
        <ele>1421</ele>
        <time>2010-01-02T01:19:31Z</time>
      </trkpt>
      <trkpt lat="46.21436" lon="6.77076">
        <ele>1418</ele>
        <time>2010-01-02T01:19:39Z</time>
      </trkpt>
      <trkpt lat="46.21448" lon="6.77066">
        <ele>1421</ele>
        <time>2010-01-02T01:19:44Z</time>
      </trkpt>
      <trkpt lat="46.21453" lon="6.77059">
        <ele>1422</ele>
        <time>2010-01-02T01:19:47Z</time>
      </trkpt>
      <trkpt lat="46.21453" lon="6.77059">
        <ele>1422</ele>
        <time>2010-01-02T01:19:48Z</time>
      </trkpt>
      <trkpt lat="46.21453" lon="6.77053">
        <ele>1421</ele>
        <time>2010-01-02T01:19:49Z</time>
      </trkpt>
      <trkpt lat="46.21454" lon="6.77044">
        <ele>1420</ele>
        <time>2010-01-02T01:19:52Z</time>
      </trkpt>
      <trkpt lat="46.21453" lon="6.77043">
        <ele>1420</ele>
        <time>2010-01-02T01:19:52Z</time>
      </trkpt>
      <trkpt lat="46.21455" lon="6.7705">
        <ele>1421</ele>
        <time>2010-01-02T01:19:54Z</time>
      </trkpt>
      <trkpt lat="46.21454" lon="6.77042">
        <ele>1420</ele>
        <time>2010-01-02T01:19:56Z</time>
      </trkpt>
      <trkpt lat="46.21442" lon="6.77042">
        <ele>1417</ele>
        <time>2010-01-02T01:20:01Z</time>
      </trkpt>
      <trkpt lat="46.21406" lon="6.77066">
        <ele>1402</ele>
        <time>2010-01-02T01:20:17Z</time>
      </trkpt>
      <trkpt lat="46.21375" lon="6.77072">
        <ele>1397</ele>
        <time>2010-01-02T01:20:30Z</time>
      </trkpt>
      <trkpt lat="46.21351" lon="6.77088">
        <ele>1412</ele>
        <time>2010-01-02T01:20:40Z</time>
      </trkpt>
      <trkpt lat="46.21337" lon="6.77102">
        <ele>1413</ele>
        <time>2010-01-02T01:20:47Z</time>
      </trkpt>
      <trkpt lat="46.2133" lon="6.77102">
        <ele>1408</ele>
        <time>2010-01-02T01:20:50Z</time>
      </trkpt>
      <trkpt lat="46.21332" lon="6.77086">
        <ele>1400</ele>
        <time>2010-01-02T01:20:54Z</time>
      </trkpt>
      <trkpt lat="46.21353" lon="6.77058">
        <ele>1394</ele>
        <time>2010-01-02T01:21:06Z</time>
      </trkpt>
      <trkpt lat="46.21377" lon="6.77042">
        <ele>1393</ele>
        <time>2010-01-02T01:21:16Z</time>
      </trkpt>
      <trkpt lat="46.21395" lon="6.77028">
        <ele>1393</ele>
        <time>2010-01-02T01:21:25Z</time>
      </trkpt>
      <trkpt lat="46.21407" lon="6.77008">
        <ele>1391</ele>
        <time>2010-01-02T01:21:32Z</time>
      </trkpt>
      <trkpt lat="46.21414" lon="6.7699">
        <ele>1384</ele>
        <time>2010-01-02T01:21:38Z</time>
      </trkpt>
      <trkpt lat="46.21418" lon="6.76969">
        <ele>1394</ele>
        <time>2010-01-02T01:21:44Z</time>
      </trkpt>
      <trkpt lat="46.21424" lon="6.76959">
        <ele>1394</ele>
        <time>2010-01-02T01:21:47Z</time>
      </trkpt>
      <trkpt lat="46.21434" lon="6.7694">
        <ele>1392</ele>
        <time>2010-01-02T01:21:54Z</time>
      </trkpt>
      <trkpt lat="46.21444" lon="6.76922">
        <ele>1393</ele>
        <time>2010-01-02T01:22:00Z</time>
      </trkpt>
      <trkpt lat="46.21451" lon="6.76908">
        <ele>1384</ele>
        <time>2010-01-02T01:22:05Z</time>
      </trkpt>
      <trkpt lat="46.2146" lon="6.76899">
        <ele>1386</ele>
        <time>2010-01-02T01:22:10Z</time>
      </trkpt>
      <trkpt lat="46.21463" lon="6.769">
        <ele>1388</ele>
        <time>2010-01-02T01:22:11Z</time>
      </trkpt>
      <trkpt lat="46.21472" lon="6.76888">
        <ele>1389</ele>
        <time>2010-01-02T01:22:16Z</time>
      </trkpt>
      <trkpt lat="46.21469" lon="6.76875">
        <ele>1385</ele>
        <time>2010-01-02T01:22:19Z</time>
      </trkpt>
      <trkpt lat="46.21457" lon="6.76877">
        <ele>1382</ele>
        <time>2010-01-02T01:22:24Z</time>
      </trkpt>
      <trkpt lat="46.21437" lon="6.76892">
        <ele>1379</ele>
        <time>2010-01-02T01:22:33Z</time>
      </trkpt>
      <trkpt lat="46.21404" lon="6.76917">
        <ele>1372</ele>
        <time>2010-01-02T01:22:48Z</time>
      </trkpt>
      <trkpt lat="46.21388" lon="6.76933">
        <ele>1372</ele>
        <time>2010-01-02T01:22:56Z</time>
      </trkpt>
      <trkpt lat="46.21387" lon="6.76933">
        <ele>1372</ele>
        <time>2010-01-02T01:22:56Z</time>
      </trkpt>
      <trkpt lat="46.2137" lon="6.76945">
        <ele>1372</ele>
        <time>2010-01-02T01:23:04Z</time>
      </trkpt>
      <trkpt lat="46.21366" lon="6.76939">
        <ele>1371</ele>
        <time>2010-01-02T01:23:06Z</time>
      </trkpt>
      <trkpt lat="46.21375" lon="6.7692">
        <ele>1370</ele>
        <time>2010-01-02T01:23:13Z</time>
      </trkpt>
      <trkpt lat="46.21389" lon="6.76899">
        <ele>1359</ele>
        <time>2010-01-02T01:23:21Z</time>
      </trkpt>
      <trkpt lat="46.214" lon="6.76876">
        <ele>1356</ele>
        <time>2010-01-02T01:23:29Z</time>
      </trkpt>
      <trkpt lat="46.21414" lon="6.76834">
        <ele>1349</ele>
        <time>2010-01-02T01:23:41Z</time>
      </trkpt>
      <trkpt lat="46.21434" lon="6.76791">
        <ele>1357</ele>
        <time>2010-01-02T01:23:56Z</time>
      </trkpt>
      <trkpt lat="46.21442" lon="6.7677">
        <ele>1356</ele>
        <time>2010-01-02T01:24:02Z</time>
      </trkpt>
      <trkpt lat="46.21462" lon="6.76752">
        <ele>1359</ele>
        <time>2010-01-02T01:24:12Z</time>
      </trkpt>
      <trkpt lat="46.21477" lon="6.76742">
        <ele>1355</ele>
        <time>2010-01-02T01:24:19Z</time>
      </trkpt>
      <trkpt lat="46.21494" lon="6.76729">
        <ele>1356</ele>
        <time>2010-01-02T01:24:26Z</time>
      </trkpt>
      <trkpt lat="46.21495" lon="6.76713">
        <ele>1353</ele>
        <time>2010-01-02T01:24:31Z</time>
      </trkpt>
      <trkpt lat="46.21495" lon="6.76712">
        <ele>1353</ele>
        <time>2010-01-02T01:24:31Z</time>
      </trkpt>
      <trkpt lat="46.21482" lon="6.76702">
        <ele>1352</ele>
        <time>2010-01-02T01:24:37Z</time>
      </trkpt>
      <trkpt lat="46.21459" lon="6.76684">
        <ele>1348</ele>
        <time>2010-01-02T01:24:47Z</time>
      </trkpt>
      <trkpt lat="46.21455" lon="6.76671">
        <ele>1347</ele>
        <time>2010-01-02T01:24:51Z</time>
      </trkpt>
      <trkpt lat="46.21458" lon="6.76654">
        <ele>1336</ele>
        <time>2010-01-02T01:24:56Z</time>
      </trkpt>
      <trkpt lat="46.21467" lon="6.76622">
        <ele>1333</ele>
        <time>2010-01-02T01:25:06Z</time>
      </trkpt>
      <trkpt lat="46.2148" lon="6.76593">
        <ele>1330</ele>
        <time>2010-01-02T01:25:15Z</time>
      </trkpt>
      <trkpt lat="46.21468" lon="6.76571">
        <ele>1312</ele>
        <time>2010-01-02T01:25:23Z</time>
      </trkpt>
      <trkpt lat="46.21466" lon="6.76557">
        <ele>1309</ele>
        <time>2010-01-02T01:25:27Z</time>
      </trkpt>
      <trkpt lat="46.21473" lon="6.76552">
        <ele>1310</ele>
        <time>2010-01-02T01:25:30Z</time>
      </trkpt>
      <trkpt lat="46.21487" lon="6.76566">
        <ele>1316</ele>
        <time>2010-01-02T01:25:37Z</time>
      </trkpt>
      <trkpt lat="46.21502" lon="6.76584">
        <ele>1333</ele>
        <time>2010-01-02T01:25:45Z</time>
      </trkpt>
      <trkpt lat="46.21512" lon="6.76589">
        <ele>1346</ele>
        <time>2010-01-02T01:25:49Z</time>
      </trkpt>
      <trkpt lat="46.21515" lon="6.76574">
        <ele>1339</ele>
        <time>2010-01-02T01:25:53Z</time>
      </trkpt>
      <trkpt lat="46.21508" lon="6.76558">
        <ele>1339</ele>
        <time>2010-01-02T01:25:58Z</time>
      </trkpt>
      <trkpt lat="46.21507" lon="6.76557">
        <ele>1339</ele>
        <time>2010-01-02T01:25:59Z</time>
      </trkpt>
      <trkpt lat="46.21499" lon="6.76544">
        <ele>1312</ele>
        <time>2010-01-02T01:26:04Z</time>
      </trkpt>
      <trkpt lat="46.2151" lon="6.76528">
        <ele>1335</ele>
        <time>2010-01-02T01:26:10Z</time>
      </trkpt>
      <trkpt lat="46.21528" lon="6.76517">
        <ele>1339</ele>
        <time>2010-01-02T01:26:18Z</time>
      </trkpt>
      <trkpt lat="46.21545" lon="6.76478">
        <ele>1326</ele>
        <time>2010-01-02T01:26:31Z</time>
      </trkpt>
      <trkpt lat="46.21565" lon="6.76429">
        <ele>1325</ele>
        <time>2010-01-02T01:26:46Z</time>
      </trkpt>
      <trkpt lat="46.21576" lon="6.76389">
        <ele>1305</ele>
        <time>2010-01-02T01:26:59Z</time>
      </trkpt>
      <trkpt lat="46.21583" lon="6.76357">
        <ele>1299</ele>
        <time>2010-01-02T01:27:08Z</time>
      </trkpt>
      <trkpt lat="46.21575" lon="6.76353">
        <ele>1298</ele>
        <time>2010-01-02T01:27:11Z</time>
      </trkpt>
      <trkpt lat="46.21564" lon="6.76373">
        <ele>1298</ele>
        <time>2010-01-02T01:27:18Z</time>
      </trkpt>
      <trkpt lat="46.21556" lon="6.76401">
        <ele>1302</ele>
        <time>2010-01-02T01:27:27Z</time>
      </trkpt>
      <trkpt lat="46.2153" lon="6.76435">
        <ele>1313</ele>
        <time>2010-01-02T01:27:40Z</time>
      </trkpt>
      <trkpt lat="46.21514" lon="6.76452">
        <ele>1312</ele>
        <time>2010-01-02T01:27:49Z</time>
      </trkpt>
      <trkpt lat="46.21482" lon="6.76466">
        <ele>1284</ele>
        <time>2010-01-02T01:28:02Z</time>
      </trkpt>
      <trkpt lat="46.2145" lon="6.76492">
        <ele>1280</ele>
        <time>2010-01-02T01:28:17Z</time>
      </trkpt>
      <trkpt lat="46.21414" lon="6.76524">
        <ele>1276</ele>
        <time>2010-01-02T01:28:34Z</time>
      </trkpt>
      <trkpt lat="46.2141" lon="6.7653">
        <ele>1277</ele>
        <time>2010-01-02T01:28:36Z</time>
      </trkpt>
      <trkpt lat="46.21387" lon="6.7656">
        <ele>1282</ele>
        <time>2010-01-02T01:28:48Z</time>
      </trkpt>
      <trkpt lat="46.21365" lon="6.76579">
        <ele>1278</ele>
        <time>2010-01-02T01:28:58Z</time>
      </trkpt>
      <trkpt lat="46.21349" lon="6.76585">
        <ele>1285</ele>
        <time>2010-01-02T01:29:05Z</time>
      </trkpt>
      <trkpt lat="46.21357" lon="6.76561">
        <ele>1275</ele>
        <time>2010-01-02T01:29:13Z</time>
      </trkpt>
      <trkpt lat="46.21405" lon="6.76505">
        <ele>1273</ele>
        <time>2010-01-02T01:29:38Z</time>
      </trkpt>
      <trkpt lat="46.21407" lon="6.76503">
        <ele>1273</ele>
        <time>2010-01-02T01:29:38Z</time>
      </trkpt>
      <trkpt lat="46.21456" lon="6.76423">
        <ele>1272</ele>
        <time>2010-01-02T01:30:08Z</time>
      </trkpt>
      <trkpt lat="46.21486" lon="6.76357">
        <ele>1257</ele>
        <time>2010-01-02T01:30:30Z</time>
      </trkpt>
      <trkpt lat="46.21511" lon="6.7632">
        <ele>1263</ele>
        <time>2010-01-02T01:30:44Z</time>
      </trkpt>
      <trkpt lat="46.21525" lon="6.76254">
        <ele>1260</ele>
        <time>2010-01-02T01:31:03Z</time>
      </trkpt>
      <trkpt lat="46.2153" lon="6.76205">
        <ele>1248</ele>
        <time>2010-01-02T01:31:17Z</time>
      </trkpt>
      <trkpt lat="46.21553" lon="6.76148">
        <ele>1241</ele>
        <time>2010-01-02T01:31:35Z</time>
      </trkpt>
      <trkpt lat="46.21562" lon="6.76106">
        <ele>1239</ele>
        <time>2010-01-02T01:31:48Z</time>
      </trkpt>
      <trkpt lat="46.21556" lon="6.7607">
        <ele>1232</ele>
        <time>2010-01-02T01:31:58Z</time>
      </trkpt>
      <trkpt lat="46.21574" lon="6.7603">
        <ele>1232</ele>
        <time>2010-01-02T01:32:11Z</time>
      </trkpt>
      <trkpt lat="46.21583" lon="6.75968">
        <ele>1226</ele>
        <time>2010-01-02T01:32:28Z</time>
      </trkpt>
      <trkpt lat="46.21573" lon="6.75907">
        <ele>1221</ele>
        <time>2010-01-02T01:32:46Z</time>
      </trkpt>
      <trkpt lat="46.21534" lon="6.75769">
        <ele>1210</ele>
        <time>2010-01-02T01:33:27Z</time>
      </trkpt>
      <trkpt lat="46.21522" lon="6.75737">
        <ele>1209</ele>
        <time>2010-01-02T01:33:37Z</time>
      </trkpt>
      <trkpt lat="46.21512" lon="6.75704">
        <ele>1210</ele>
        <time>2010-01-02T01:33:47Z</time>
      </trkpt>
      <trkpt lat="46.21512" lon="6.75703">
        <ele>1210</ele>
        <time>2010-01-02T01:33:47Z</time>
      </trkpt>
      <trkpt lat="46.21501" lon="6.75656">
        <ele>1208</ele>
        <time>2010-01-02T01:34:01Z</time>
      </trkpt>
      <trkpt lat="46.21497" lon="6.75626">
        <ele>1212</ele>
        <time>2010-01-02T01:34:10Z</time>
      </trkpt>
      <trkpt lat="46.2149" lon="6.75581">
        <ele>1208</ele>
        <time>2010-01-02T01:34:22Z</time>
      </trkpt>
      <trkpt lat="46.21493" lon="6.75532">
        <ele>1205</ele>
        <time>2010-01-02T01:34:36Z</time>
      </trkpt>
      <trkpt lat="46.21501" lon="6.75488">
        <ele>1206</ele>
        <time>2010-01-02T01:34:49Z</time>
      </trkpt>
      <trkpt lat="46.21518" lon="6.75437">
        <ele>1205</ele>
        <time>2010-01-02T01:35:04Z</time>
      </trkpt>
      <trkpt lat="46.21519" lon="6.75387">
        <ele>1202</ele>
        <time>2010-01-02T01:35:18Z</time>
      </trkpt>
      <trkpt lat="46.21526" lon="6.75331">
        <ele>1199</ele>
        <time>2010-01-02T01:35:34Z</time>
      </trkpt>
      <trkpt lat="46.21537" lon="6.75281">
        <ele>1204</ele>
        <time>2010-01-02T01:35:48Z</time>
      </trkpt>
      <trkpt lat="46.21508" lon="6.75122">
        <ele>1203</ele>
        <time>2010-01-02T01:36:34Z</time>
      </trkpt>
      <trkpt lat="46.21486" lon="6.75059">
        <ele>1184</ele>
        <time>2010-01-02T01:36:53Z</time>
      </trkpt>
      <trkpt lat="46.21463" lon="6.74996">
        <ele>1188</ele>
        <time>2010-01-02T01:37:13Z</time>
      </trkpt>
      <trkpt lat="46.21429" lon="6.7491">
        <ele>1185</ele>
        <time>2010-01-02T01:37:41Z</time>
      </trkpt>
      <trkpt lat="46.21399" lon="6.74845">
        <ele>1171</ele>
        <time>2010-01-02T01:38:02Z</time>
      </trkpt>
      <trkpt lat="46.21332" lon="6.74736">
        <ele>1151</ele>
        <time>2010-01-02T01:38:43Z</time>
      </trkpt>
      <trkpt lat="46.21279" lon="6.74618">
        <ele>1153</ele>
        <time>2010-01-02T01:39:21Z</time>
      </trkpt>
      <trkpt lat="46.21262" lon="6.74557">
        <ele>1155</ele>
        <time>2010-01-02T01:39:40Z</time>
      </trkpt>
      <trkpt lat="46.21259" lon="6.74508">
        <ele>1150</ele>
        <time>2010-01-02T01:39:54Z</time>
      </trkpt>
      <trkpt lat="46.21217" lon="6.7434">
        <ele>1129</ele>
        <time>2010-01-02T01:40:43Z</time>
      </trkpt>
      <trkpt lat="46.21193" lon="6.74243">
        <ele>1129</ele>
        <time>2010-01-02T01:41:11Z</time>
      </trkpt>
      <trkpt lat="46.21163" lon="6.74166">
        <ele>1119</ele>
        <time>2010-01-02T01:41:36Z</time>
      </trkpt>
      <trkpt lat="46.21152" lon="6.74069">
        <ele>1112</ele>
        <time>2010-01-02T01:42:03Z</time>
      </trkpt>
      <trkpt lat="46.21122" lon="6.73951">
        <ele>1106</ele>
        <time>2010-01-02T01:42:38Z</time>
      </trkpt>
      <trkpt lat="46.21111" lon="6.73814">
        <ele>1107</ele>
        <time>2010-01-02T01:43:16Z</time>
      </trkpt>
      <trkpt lat="46.21109" lon="6.73736">
        <ele>1108</ele>
        <time>2010-01-02T01:43:38Z</time>
      </trkpt>
      <trkpt lat="46.21098" lon="6.73588">
        <ele>1105</ele>
        <time>2010-01-02T01:44:19Z</time>
      </trkpt>
      <trkpt lat="46.21088" lon="6.73516">
        <ele>1107</ele>
        <time>2010-01-02T01:44:39Z</time>
      </trkpt>
      <trkpt lat="46.21081" lon="6.7348">
        <ele>1088</ele>
        <time>2010-01-02T01:44:50Z</time>
      </trkpt>
      <trkpt lat="46.21072" lon="6.7345">
        <ele>1087</ele>
        <time>2010-01-02T01:44:59Z</time>
      </trkpt>
      <trkpt lat="46.21051" lon="6.73556">
        <ele>1081</ele>
        <time>2010-01-02T01:45:29Z</time>
      </trkpt>
      <trkpt lat="46.21032" lon="6.7365">
        <ele>1079</ele>
        <time>2010-01-02T01:45:57Z</time>
      </trkpt>
      <trkpt lat="46.20991" lon="6.73691">
        <ele>1079</ele>
        <time>2010-01-02T01:46:17Z</time>
      </trkpt>
      <trkpt lat="46.20946" lon="6.73701">
        <ele>1083</ele>
        <time>2010-01-02T01:46:35Z</time>
      </trkpt>
      <trkpt lat="46.20891" lon="6.73669">
        <ele>1094</ele>
        <time>2010-01-02T01:46:58Z</time>
      </trkpt>
      <trkpt lat="46.20872" lon="6.736">
        <ele>1084</ele>
        <time>2010-01-02T01:47:19Z</time>
      </trkpt>
      <trkpt lat="46.20856" lon="6.7357">
        <ele>1080</ele>
        <time>2010-01-02T01:47:30Z</time>
      </trkpt>
      <trkpt lat="46.2082" lon="6.73543">
        <ele>1099</ele>
        <time>2010-01-02T01:47:46Z</time>
      </trkpt>
      <trkpt lat="46.20812" lon="6.73475">
        <ele>1094</ele>
        <time>2010-01-02T01:48:05Z</time>
      </trkpt>
      <trkpt lat="46.20804" lon="6.73424">
        <ele>1094</ele>
        <time>2010-01-02T01:48:19Z</time>
      </trkpt>
      <trkpt lat="46.20814" lon="6.73354">
        <ele>1084</ele>
        <time>2010-01-02T01:48:39Z</time>
      </trkpt>
      <trkpt lat="46.20789" lon="6.73229">
        <ele>1083</ele>
        <time>2010-01-02T01:49:15Z</time>
      </trkpt>
      <trkpt lat="46.20764" lon="6.73177">
        <ele>1088</ele>
        <time>2010-01-02T01:49:33Z</time>
      </trkpt>
      <trkpt lat="46.2075" lon="6.73106">
        <ele>1115</ele>
        <time>2010-01-02T01:49:53Z</time>
      </trkpt>
      <trkpt lat="46.20762" lon="6.73047">
        <ele>1089</ele>
        <time>2010-01-02T01:50:10Z</time>
      </trkpt>
      <trkpt lat="46.20759" lon="6.72957">
        <ele>1084</ele>
        <time>2010-01-02T01:50:35Z</time>
      </trkpt>
      <trkpt lat="46.2075" lon="6.72843">
        <ele>1095</ele>
        <time>2010-01-02T01:51:07Z</time>
      </trkpt>
      <trkpt lat="46.2075" lon="6.72712">
        <ele>1108</ele>
        <time>2010-01-02T01:51:43Z</time>
      </trkpt>
      <trkpt lat="46.20747" lon="6.72628">
        <ele>1105</ele>
        <time>2010-01-02T01:52:07Z</time>
      </trkpt>
      <trkpt lat="46.20745" lon="6.72563">
        <ele>1104</ele>
        <time>2010-01-02T01:52:25Z</time>
      </trkpt>
      <trkpt lat="46.20741" lon="6.72521">
        <ele>1108</ele>
        <time>2010-01-02T01:52:36Z</time>
      </trkpt>
      <trkpt lat="46.20748" lon="6.72455">
        <ele>1113</ele>
        <time>2010-01-02T01:52:55Z</time>
      </trkpt>
      <trkpt lat="46.20763" lon="6.72415">
        <ele>1092</ele>
        <time>2010-01-02T01:53:07Z</time>
      </trkpt>
      <trkpt lat="46.20763" lon="6.72356">
        <ele>1083</ele>
        <time>2010-01-02T01:53:24Z</time>
      </trkpt>
      <trkpt lat="46.20763" lon="6.72354">
        <ele>1083</ele>
        <time>2010-01-02T01:53:24Z</time>
      </trkpt>
      <trkpt lat="46.20748" lon="6.72207">
        <ele>1092</ele>
        <time>2010-01-02T01:54:06Z</time>
      </trkpt>
      <trkpt lat="46.20744" lon="6.7213">
        <ele>1093</ele>
        <time>2010-01-02T01:54:27Z</time>
      </trkpt>
      <trkpt lat="46.20745" lon="6.72083">
        <ele>1088</ele>
        <time>2010-01-02T01:54:40Z</time>
      </trkpt>
      <trkpt lat="46.20792" lon="6.72051">
        <ele>1082</ele>
        <time>2010-01-02T01:55:01Z</time>
      </trkpt>
      <trkpt lat="46.20823" lon="6.72037">
        <ele>1081</ele>
        <time>2010-01-02T01:55:14Z</time>
      </trkpt>
      <trkpt lat="46.20841" lon="6.72013">
        <ele>1081</ele>
        <time>2010-01-02T01:55:24Z</time>
      </trkpt>
      <trkpt lat="46.20869" lon="6.71968">
        <ele>1090</ele>
        <time>2010-01-02T01:55:40Z</time>
      </trkpt>
      <trkpt lat="46.20883" lon="6.71944">
        <ele>1092</ele>
        <time>2010-01-02T01:55:49Z</time>
      </trkpt>
      <trkpt lat="46.20881" lon="6.71908">
        <ele>1097</ele>
        <time>2010-01-02T01:55:59Z</time>
      </trkpt>
      <trkpt lat="46.20862" lon="6.71822">
        <ele>1094</ele>
        <time>2010-01-02T01:56:24Z</time>
      </trkpt>
      <trkpt lat="46.2085" lon="6.7177">
        <ele>1091</ele>
        <time>2010-01-02T01:56:39Z</time>
      </trkpt>
      <trkpt lat="46.20846" lon="6.71716">
        <ele>1091</ele>
        <time>2010-01-02T01:56:54Z</time>
      </trkpt>
      <trkpt lat="46.2082" lon="6.71624">
        <ele>1070</ele>
        <time>2010-01-02T01:57:22Z</time>
      </trkpt>
      <trkpt lat="46.20781" lon="6.71587">
        <ele>1065</ele>
        <time>2010-01-02T01:57:40Z</time>
      </trkpt>
      <trkpt lat="46.20742" lon="6.71583">
        <ele>1055</ele>
        <time>2010-01-02T01:57:56Z</time>
      </trkpt>
      <trkpt lat="46.20723" lon="6.71558">
        <ele>1054</ele>
        <time>2010-01-02T01:58:06Z</time>
      </trkpt>
      <trkpt lat="46.20711" lon="6.71512">
        <ele>1051</ele>
        <time>2010-01-02T01:58:20Z</time>
      </trkpt>
      <trkpt lat="46.20693" lon="6.7143">
        <ele>1035</ele>
        <time>2010-01-02T01:58:44Z</time>
      </trkpt>
      <trkpt lat="46.20684" lon="6.71355">
        <ele>1023</ele>
        <time>2010-01-02T01:59:05Z</time>
      </trkpt>
      <trkpt lat="46.20679" lon="6.71295">
        <ele>1015</ele>
        <time>2010-01-02T01:59:22Z</time>
      </trkpt>
      <trkpt lat="46.20681" lon="6.71238">
        <ele>1007</ele>
        <time>2010-01-02T01:59:38Z</time>
      </trkpt>
      <trkpt lat="46.20672" lon="6.71172">
        <ele>1000</ele>
        <time>2010-01-02T01:59:56Z</time>
      </trkpt>
      <trkpt lat="46.20659" lon="6.71101">
        <ele>996</ele>
        <time>2010-01-02T02:00:16Z</time>
      </trkpt>
      <trkpt lat="46.20639" lon="6.71097">
        <ele>996</ele>
        <time>2010-01-02T02:00:24Z</time>
      </trkpt>
      <trkpt lat="46.20609" lon="6.7109">
        <ele>996</ele>
        <time>2010-01-02T02:00:37Z</time>
      </trkpt>
      <trkpt lat="46.20583" lon="6.71059">
        <ele>997</ele>
        <time>2010-01-02T02:00:50Z</time>
      </trkpt>
      <trkpt lat="46.20551" lon="6.71005">
        <ele>997</ele>
        <time>2010-01-02T02:01:10Z</time>
      </trkpt>
      <trkpt lat="46.20527" lon="6.70942">
        <ele>994</ele>
        <time>2010-01-02T02:01:30Z</time>
      </trkpt>
      <trkpt lat="46.20498" lon="6.70871">
        <ele>996</ele>
        <time>2010-01-02T02:01:53Z</time>
      </trkpt>
      <trkpt lat="46.20476" lon="6.70835">
        <ele>995</ele>
        <time>2010-01-02T02:02:06Z</time>
      </trkpt>
      <trkpt lat="46.2045" lon="6.70787">
        <ele>990</ele>
        <time>2010-01-02T02:02:23Z</time>
      </trkpt>
      <trkpt lat="46.20433" lon="6.70733">
        <ele>984</ele>
        <time>2010-01-02T02:02:39Z</time>
      </trkpt>
      <trkpt lat="46.2042" lon="6.70691">
        <ele>980</ele>
        <time>2010-01-02T02:02:52Z</time>
      </trkpt>
      <trkpt lat="46.20402" lon="6.70611">
        <ele>985</ele>
        <time>2010-01-02T02:03:15Z</time>
      </trkpt>
      <trkpt lat="46.20395" lon="6.70561">
        <ele>976</ele>
        <time>2010-01-02T02:03:30Z</time>
      </trkpt>
      <trkpt lat="46.20389" lon="6.7052">
        <ele>974</ele>
        <time>2010-01-02T02:03:41Z</time>
      </trkpt>
      <trkpt lat="46.20367" lon="6.70459">
        <ele>969</ele>
        <time>2010-01-02T02:04:00Z</time>
      </trkpt>
      <trkpt lat="46.20349" lon="6.70417">
        <ele>967</ele>
        <time>2010-01-02T02:04:14Z</time>
      </trkpt>
      <trkpt lat="46.20338" lon="6.70364">
        <ele>961</ele>
        <time>2010-01-02T02:04:29Z</time>
      </trkpt>
      <trkpt lat="46.20319" lon="6.70291">
        <ele>957</ele>
        <time>2010-01-02T02:04:51Z</time>
      </trkpt>
      <trkpt lat="46.20317" lon="6.70245">
        <ele>949</ele>
        <time>2010-01-02T02:05:04Z</time>
      </trkpt>
      <trkpt lat="46.20327" lon="6.70208">
        <ele>950</ele>
        <time>2010-01-02T02:05:15Z</time>
      </trkpt>
      <trkpt lat="46.20322" lon="6.70169">
        <ele>947</ele>
        <time>2010-01-02T02:05:26Z</time>
      </trkpt>
      <trkpt lat="46.20307" lon="6.70137">
        <ele>950</ele>
        <time>2010-01-02T02:05:37Z</time>
      </trkpt>
      <trkpt lat="46.2028" lon="6.70096">
        <ele>951</ele>
        <time>2010-01-02T02:05:52Z</time>
      </trkpt>
      <trkpt lat="46.2027" lon="6.70052">
        <ele>952</ele>
        <time>2010-01-02T02:06:05Z</time>
      </trkpt>
      <trkpt lat="46.20264" lon="6.70017">
        <ele>950</ele>
        <time>2010-01-02T02:06:15Z</time>
      </trkpt>
      <trkpt lat="46.20254" lon="6.69973">
        <ele>951</ele>
        <time>2010-01-02T02:06:28Z</time>
      </trkpt>
      <trkpt lat="46.20234" lon="6.69906">
        <ele>945</ele>
        <time>2010-01-02T02:06:48Z</time>
      </trkpt>
      <trkpt lat="46.20221" lon="6.69845">
        <ele>944</ele>
        <time>2010-01-02T02:07:06Z</time>
      </trkpt>
      <trkpt lat="46.20217" lon="6.69814">
        <ele>940</ele>
        <time>2010-01-02T02:07:14Z</time>
      </trkpt>
      <trkpt lat="46.20229" lon="6.69777">
        <ele>939</ele>
        <time>2010-01-02T02:07:26Z</time>
      </trkpt>
      <trkpt lat="46.20229" lon="6.69774">
        <ele>939</ele>
        <time>2010-01-02T02:07:27Z</time>
      </trkpt>
      <trkpt lat="46.20213" lon="6.69731">
        <ele>937</ele>
        <time>2010-01-02T02:07:40Z</time>
      </trkpt>
      <trkpt lat="46.20195" lon="6.69671">
        <ele>936</ele>
        <time>2010-01-02T02:07:58Z</time>
      </trkpt>
      <trkpt lat="46.20181" lon="6.69607">
        <ele>936</ele>
        <time>2010-01-02T02:08:17Z</time>
      </trkpt>
      <trkpt lat="46.20165" lon="6.69543">
        <ele>931</ele>
        <time>2010-01-02T02:08:36Z</time>
      </trkpt>
      <trkpt lat="46.20161" lon="6.69472">
        <ele>925</ele>
        <time>2010-01-02T02:08:55Z</time>
      </trkpt>
      <trkpt lat="46.20153" lon="6.69432">
        <ele>926</ele>
        <time>2010-01-02T02:09:07Z</time>
      </trkpt>
      <trkpt lat="46.20129" lon="6.69397">
        <ele>925</ele>
        <time>2010-01-02T02:09:20Z</time>
      </trkpt>
      <trkpt lat="46.20098" lon="6.69369">
        <ele>923</ele>
        <time>2010-01-02T02:09:35Z</time>
      </trkpt>
      <trkpt lat="46.20077" lon="6.69328">
        <ele>920</ele>
        <time>2010-01-02T02:09:50Z</time>
      </trkpt>
      <trkpt lat="46.20063" lon="6.69284">
        <ele>921</ele>
        <time>2010-01-02T02:10:03Z</time>
      </trkpt>
      <trkpt lat="46.20039" lon="6.6919">
        <ele>917</ele>
        <time>2010-01-02T02:10:31Z</time>
      </trkpt>
      <trkpt lat="46.20034" lon="6.69104">
        <ele>911</ele>
        <time>2010-01-02T02:10:54Z</time>
      </trkpt>
      <trkpt lat="46.20025" lon="6.69054">
        <ele>908</ele>
        <time>2010-01-02T02:11:09Z</time>
      </trkpt>
      <trkpt lat="46.20011" lon="6.68979">
        <ele>904</ele>
        <time>2010-01-02T02:11:30Z</time>
      </trkpt>
      <trkpt lat="46.20002" lon="6.68939">
        <ele>902</ele>
        <time>2010-01-02T02:11:42Z</time>
      </trkpt>
      <trkpt lat="46.2002" lon="6.68898">
        <ele>900</ele>
        <time>2010-01-02T02:11:55Z</time>
      </trkpt>
      <trkpt lat="46.20016" lon="6.68875">
        <ele>900</ele>
        <time>2010-01-02T02:12:02Z</time>
      </trkpt>
      <trkpt lat="46.19995" lon="6.68872">
        <ele>896</ele>
        <time>2010-01-02T02:12:10Z</time>
      </trkpt>
      <trkpt lat="46.19968" lon="6.68897">
        <ele>896</ele>
        <time>2010-01-02T02:12:23Z</time>
      </trkpt>
      <trkpt lat="46.19935" lon="6.68913">
        <ele>897</ele>
        <time>2010-01-02T02:12:37Z</time>
      </trkpt>
      <trkpt lat="46.19912" lon="6.68902">
        <ele>897</ele>
        <time>2010-01-02T02:12:47Z</time>
      </trkpt>
      <trkpt lat="46.19903" lon="6.68858">
        <ele>897</ele>
        <time>2010-01-02T02:13:00Z</time>
      </trkpt>
      <trkpt lat="46.19887" lon="6.68833">
        <ele>896</ele>
        <time>2010-01-02T02:13:09Z</time>
      </trkpt>
      <trkpt lat="46.19856" lon="6.68822">
        <ele>897</ele>
        <time>2010-01-02T02:13:22Z</time>
      </trkpt>
      <trkpt lat="46.19832" lon="6.68817">
        <ele>898</ele>
        <time>2010-01-02T02:13:31Z</time>
      </trkpt>
      <trkpt lat="46.19822" lon="6.68795">
        <ele>899</ele>
        <time>2010-01-02T02:13:39Z</time>
      </trkpt>
      <trkpt lat="46.19807" lon="6.68802">
        <ele>900</ele>
        <time>2010-01-02T02:13:45Z</time>
      </trkpt>
      <trkpt lat="46.19782" lon="6.68829">
        <ele>900</ele>
        <time>2010-01-02T02:13:58Z</time>
      </trkpt>
      <trkpt lat="46.1969" lon="6.68913">
        <ele>903</ele>
        <time>2010-01-02T02:14:41Z</time>
      </trkpt>
      <trkpt lat="46.19658" lon="6.68945">
        <ele>905</ele>
        <time>2010-01-02T02:14:57Z</time>
      </trkpt>
      <trkpt lat="46.19623" lon="6.68973">
        <ele>906</ele>
        <time>2010-01-02T02:15:13Z</time>
      </trkpt>
      <trkpt lat="46.19597" lon="6.68999">
        <ele>905</ele>
        <time>2010-01-02T02:15:26Z</time>
      </trkpt>
      <trkpt lat="46.19552" lon="6.69032">
        <ele>914</ele>
        <time>2010-01-02T02:15:46Z</time>
      </trkpt>
      <trkpt lat="46.19532" lon="6.69045">
        <ele>915</ele>
        <time>2010-01-02T02:15:55Z</time>
      </trkpt>
      <trkpt lat="46.19507" lon="6.69049">
        <ele>916</ele>
        <time>2010-01-02T02:16:04Z</time>
      </trkpt>
      <trkpt lat="46.19489" lon="6.69058">
        <ele>925</ele>
        <time>2010-01-02T02:16:12Z</time>
      </trkpt>
      <trkpt lat="46.19478" lon="6.69069">
        <ele>925</ele>
        <time>2010-01-02T02:16:17Z</time>
      </trkpt>
      <trkpt lat="46.19481" lon="6.6911">
        <ele>917</ele>
        <time>2010-01-02T02:16:29Z</time>
      </trkpt>
      <trkpt lat="46.19482" lon="6.69159">
        <ele>915</ele>
        <time>2010-01-02T02:16:42Z</time>
      </trkpt>
      <trkpt lat="46.19452" lon="6.69194">
        <ele>914</ele>
        <time>2010-01-02T02:16:58Z</time>
      </trkpt>
      <trkpt lat="46.19418" lon="6.69226">
        <ele>914</ele>
        <time>2010-01-02T02:17:14Z</time>
      </trkpt>
      <trkpt lat="46.19397" lon="6.69236">
        <ele>921</ele>
        <time>2010-01-02T02:17:23Z</time>
      </trkpt>
      <trkpt lat="46.19374" lon="6.69253">
        <ele>920</ele>
        <time>2010-01-02T02:17:33Z</time>
      </trkpt>
      <trkpt lat="46.19373" lon="6.69254">
        <ele>920</ele>
        <time>2010-01-02T02:17:34Z</time>
      </trkpt>
      <trkpt lat="46.19357" lon="6.69297">
        <ele>920</ele>
        <time>2010-01-02T02:17:47Z</time>
      </trkpt>
      <trkpt lat="46.19351" lon="6.69327">
        <ele>920</ele>
        <time>2010-01-02T02:17:56Z</time>
      </trkpt>
      <trkpt lat="46.19353" lon="6.69352">
        <ele>917</ele>
        <time>2010-01-02T02:18:03Z</time>
      </trkpt>
      <trkpt lat="46.19346" lon="6.6939">
        <ele>916</ele>
        <time>2010-01-02T02:18:14Z</time>
      </trkpt>
      <trkpt lat="46.19337" lon="6.69418">
        <ele>915</ele>
        <time>2010-01-02T02:18:22Z</time>
      </trkpt>
      <trkpt lat="46.19314" lon="6.69452">
        <ele>917</ele>
        <time>2010-01-02T02:18:36Z</time>
      </trkpt>
      <trkpt lat="46.19287" lon="6.69482">
        <ele>917</ele>
        <time>2010-01-02T02:18:49Z</time>
      </trkpt>
      <trkpt lat="46.19255" lon="6.69505">
        <ele>918</ele>
        <time>2010-01-02T02:19:03Z</time>
      </trkpt>
      <trkpt lat="46.19218" lon="6.69526">
        <ele>921</ele>
        <time>2010-01-02T02:19:19Z</time>
      </trkpt>
      <trkpt lat="46.19202" lon="6.69529">
        <ele>921</ele>
        <time>2010-01-02T02:19:26Z</time>
      </trkpt>
      <trkpt lat="46.1919" lon="6.69534">
        <ele>922</ele>
        <time>2010-01-02T02:19:31Z</time>
      </trkpt>
      <trkpt lat="46.19175" lon="6.69539">
        <ele>922</ele>
        <time>2010-01-02T02:19:37Z</time>
      </trkpt>
      <trkpt lat="46.19159" lon="6.69543">
        <ele>927</ele>
        <time>2010-01-02T02:19:44Z</time>
      </trkpt>
      <trkpt lat="46.19143" lon="6.6955">
        <ele>927</ele>
        <time>2010-01-02T02:19:50Z</time>
      </trkpt>
      <trkpt lat="46.19133" lon="6.69562">
        <ele>927</ele>
        <time>2010-01-02T02:19:55Z</time>
      </trkpt>
      <trkpt lat="46.19118" lon="6.6959">
        <ele>925</ele>
        <time>2010-01-02T02:20:05Z</time>
      </trkpt>
      <trkpt lat="46.19102" lon="6.69613">
        <ele>926</ele>
        <time>2010-01-02T02:20:14Z</time>
      </trkpt>
      <trkpt lat="46.191" lon="6.69616">
        <ele>926</ele>
        <time>2010-01-02T02:20:15Z</time>
      </trkpt>
      <trkpt lat="46.19081" lon="6.69638">
        <ele>929</ele>
        <time>2010-01-02T02:20:25Z</time>
      </trkpt>
      <trkpt lat="46.19052" lon="6.69647">
        <ele>929</ele>
        <time>2010-01-02T02:20:37Z</time>
      </trkpt>
      <trkpt lat="46.1902" lon="6.69647">
        <ele>929</ele>
        <time>2010-01-02T02:20:50Z</time>
      </trkpt>
      <trkpt lat="46.18993" lon="6.69657">
        <ele>931</ele>
        <time>2010-01-02T02:21:01Z</time>
      </trkpt>
      <trkpt lat="46.1897" lon="6.69682">
        <ele>931</ele>
        <time>2010-01-02T02:21:13Z</time>
      </trkpt>
      <trkpt lat="46.18947" lon="6.69709">
        <ele>932</ele>
        <time>2010-01-02T02:21:24Z</time>
      </trkpt>
      <trkpt lat="46.18924" lon="6.69745">
        <ele>929</ele>
        <time>2010-01-02T02:21:38Z</time>
      </trkpt>
      <trkpt lat="46.18907" lon="6.6977">
        <ele>931</ele>
        <time>2010-01-02T02:21:48Z</time>
      </trkpt>
      <trkpt lat="46.18886" lon="6.69784">
        <ele>932</ele>
        <time>2010-01-02T02:21:57Z</time>
      </trkpt>
      <trkpt lat="46.18855" lon="6.69798">
        <ele>932</ele>
        <time>2010-01-02T02:22:10Z</time>
      </trkpt>
      <trkpt lat="46.18854" lon="6.69799">
        <ele>932</ele>
        <time>2010-01-02T02:22:10Z</time>
      </trkpt>
      <trkpt lat="46.18811" lon="6.69815">
        <ele>936</ele>
        <time>2010-01-02T02:22:28Z</time>
      </trkpt>
      <trkpt lat="46.18785" lon="6.69834">
        <ele>933</ele>
        <time>2010-01-02T02:22:40Z</time>
      </trkpt>
      <trkpt lat="46.18783" lon="6.69836">
        <ele>933</ele>
        <time>2010-01-02T02:22:41Z</time>
      </trkpt>
      <trkpt lat="46.18758" lon="6.69866">
        <ele>934</ele>
        <time>2010-01-02T02:22:54Z</time>
      </trkpt>
      <trkpt lat="46.18757" lon="6.69868">
        <ele>933</ele>
        <time>2010-01-02T02:22:55Z</time>
      </trkpt>
      <trkpt lat="46.18742" lon="6.69895">
        <ele>938</ele>
        <time>2010-01-02T02:23:04Z</time>
      </trkpt>
      <trkpt lat="46.18741" lon="6.69896">
        <ele>938</ele>
        <time>2010-01-02T02:23:05Z</time>
      </trkpt>
      <trkpt lat="46.18738" lon="6.69935">
        <ele>935</ele>
        <time>2010-01-02T02:23:15Z</time>
      </trkpt>
      <trkpt lat="46.18738" lon="6.69985">
        <ele>936</ele>
        <time>2010-01-02T02:23:29Z</time>
      </trkpt>
      <trkpt lat="46.18718" lon="6.70027">
        <ele>938</ele>
        <time>2010-01-02T02:23:44Z</time>
      </trkpt>
      <trkpt lat="46.18717" lon="6.70031">
        <ele>939</ele>
        <time>2010-01-02T02:23:45Z</time>
      </trkpt>
      <trkpt lat="46.18706" lon="6.70066">
        <ele>940</ele>
        <time>2010-01-02T02:23:55Z</time>
      </trkpt>
      <trkpt lat="46.18706" lon="6.70068">
        <ele>940</ele>
        <time>2010-01-02T02:23:56Z</time>
      </trkpt>
      <trkpt lat="46.18692" lon="6.70105">
        <ele>944</ele>
        <time>2010-01-02T02:24:07Z</time>
      </trkpt>
      <trkpt lat="46.18673" lon="6.70134">
        <ele>944</ele>
        <time>2010-01-02T02:24:19Z</time>
      </trkpt>
      <trkpt lat="46.18645" lon="6.70167">
        <ele>944</ele>
        <time>2010-01-02T02:24:33Z</time>
      </trkpt>
      <trkpt lat="46.18594" lon="6.70202">
        <ele>945</ele>
        <time>2010-01-02T02:24:56Z</time>
      </trkpt>
      <trkpt lat="46.18552" lon="6.70247">
        <ele>945</ele>
        <time>2010-01-02T02:25:17Z</time>
      </trkpt>
      <trkpt lat="46.18547" lon="6.70253">
        <ele>945</ele>
        <time>2010-01-02T02:25:19Z</time>
      </trkpt>
      <trkpt lat="46.18511" lon="6.70293">
        <ele>944</ele>
        <time>2010-01-02T02:25:37Z</time>
      </trkpt>
      <trkpt lat="46.18492" lon="6.7032">
        <ele>945</ele>
        <time>2010-01-02T02:25:48Z</time>
      </trkpt>
      <trkpt lat="46.18469" lon="6.70353">
        <ele>946</ele>
        <time>2010-01-02T02:26:01Z</time>
      </trkpt>
      <trkpt lat="46.18439" lon="6.70394">
        <ele>947</ele>
        <time>2010-01-02T02:26:18Z</time>
      </trkpt>
      <trkpt lat="46.18436" lon="6.70397">
        <ele>946</ele>
        <time>2010-01-02T02:26:19Z</time>
      </trkpt>
      <trkpt lat="46.18402" lon="6.70435">
        <ele>947</ele>
        <time>2010-01-02T02:26:36Z</time>
      </trkpt>
      <trkpt lat="46.1837" lon="6.70473">
        <ele>949</ele>
        <time>2010-01-02T02:26:53Z</time>
      </trkpt>
      <trkpt lat="46.18353" lon="6.70499">
        <ele>949</ele>
        <time>2010-01-02T02:27:03Z</time>
      </trkpt>
      <trkpt lat="46.1834" lon="6.70526">
        <ele>953</ele>
        <time>2010-01-02T02:27:12Z</time>
      </trkpt>
      <trkpt lat="46.18339" lon="6.70527">
        <ele>953</ele>
        <time>2010-01-02T02:27:12Z</time>
      </trkpt>
      <trkpt lat="46.18316" lon="6.70555">
        <ele>951</ele>
        <time>2010-01-02T02:27:24Z</time>
      </trkpt>
      <trkpt lat="46.18314" lon="6.70558">
        <ele>951</ele>
        <time>2010-01-02T02:27:25Z</time>
      </trkpt>
      <trkpt lat="46.18288" lon="6.70581">
        <ele>951</ele>
        <time>2010-01-02T02:27:38Z</time>
      </trkpt>
      <trkpt lat="46.18262" lon="6.70604">
        <ele>957</ele>
        <time>2010-01-02T02:27:50Z</time>
      </trkpt>
      <trkpt lat="46.18261" lon="6.70605">
        <ele>957</ele>
        <time>2010-01-02T02:27:51Z</time>
      </trkpt>
      <trkpt lat="46.18195" lon="6.70642">
        <ele>955</ele>
        <time>2010-01-02T02:28:19Z</time>
      </trkpt>
      <trkpt lat="46.18146" lon="6.70687">
        <ele>955</ele>
        <time>2010-01-02T02:28:42Z</time>
      </trkpt>
      <trkpt lat="46.18118" lon="6.70721">
        <ele>956</ele>
        <time>2010-01-02T02:28:57Z</time>
      </trkpt>
      <trkpt lat="46.18085" lon="6.70751">
        <ele>954</ele>
        <time>2010-01-02T02:29:12Z</time>
      </trkpt>
      <trkpt lat="46.18019" lon="6.70794">
        <ele>959</ele>
        <time>2010-01-02T02:29:41Z</time>
      </trkpt>
      <trkpt lat="46.17987" lon="6.70822">
        <ele>961</ele>
        <time>2010-01-02T02:29:56Z</time>
      </trkpt>
      <trkpt lat="46.1796" lon="6.7085">
        <ele>964</ele>
        <time>2010-01-02T02:30:10Z</time>
      </trkpt>
      <trkpt lat="46.17946" lon="6.70864">
        <ele>964</ele>
        <time>2010-01-02T02:30:16Z</time>
      </trkpt>
      <trkpt lat="46.1789" lon="6.70865">
        <ele>966</ele>
        <time>2010-01-02T02:30:39Z</time>
      </trkpt>
      <trkpt lat="46.17873" lon="6.70881">
        <ele>967</ele>
        <time>2010-01-02T02:30:47Z</time>
      </trkpt>
      <trkpt lat="46.17849" lon="6.70898">
        <ele>967</ele>
        <time>2010-01-02T02:30:58Z</time>
      </trkpt>
      <trkpt lat="46.17778" lon="6.70909">
        <ele>970</ele>
        <time>2010-01-02T02:31:26Z</time>
      </trkpt>
      <trkpt lat="46.17739" lon="6.70898">
        <ele>971</ele>
        <time>2010-01-02T02:31:42Z</time>
      </trkpt>
      <trkpt lat="46.17712" lon="6.70882">
        <ele>973</ele>
        <time>2010-01-02T02:31:54Z</time>
      </trkpt>
      <trkpt lat="46.1768" lon="6.70902">
        <ele>972</ele>
        <time>2010-01-02T02:32:08Z</time>
      </trkpt>
      <trkpt lat="46.17668" lon="6.70934">
        <ele>971</ele>
        <time>2010-01-02T02:32:18Z</time>
      </trkpt>
      <trkpt lat="46.17658" lon="6.70959">
        <ele>975</ele>
        <time>2010-01-02T02:32:26Z</time>
      </trkpt>
      <trkpt lat="46.17638" lon="6.70994">
        <ele>976</ele>
        <time>2010-01-02T02:32:38Z</time>
      </trkpt>
      <trkpt lat="46.17624" lon="6.71016">
        <ele>982</ele>
        <time>2010-01-02T02:32:47Z</time>
      </trkpt>
      <trkpt lat="46.1761" lon="6.71026">
        <ele>982</ele>
        <time>2010-01-02T02:32:53Z</time>
      </trkpt>
      <trkpt lat="46.17589" lon="6.71025">
        <ele>981</ele>
        <time>2010-01-02T02:33:02Z</time>
      </trkpt>
      <trkpt lat="46.17578" lon="6.71009">
        <ele>978</ele>
        <time>2010-01-02T02:33:08Z</time>
      </trkpt>
      <trkpt lat="46.1757" lon="6.70988">
        <ele>981</ele>
        <time>2010-01-02T02:33:14Z</time>
      </trkpt>
      <trkpt lat="46.17568" lon="6.70941">
        <ele>985</ele>
        <time>2010-01-02T02:33:27Z</time>
      </trkpt>
      <trkpt lat="46.17572" lon="6.70912">
        <ele>988</ele>
        <time>2010-01-02T02:33:36Z</time>
      </trkpt>
      <trkpt lat="46.17584" lon="6.70891">
        <ele>983</ele>
        <time>2010-01-02T02:33:43Z</time>
      </trkpt>
      <trkpt lat="46.17593" lon="6.70881">
        <ele>983</ele>
        <time>2010-01-02T02:33:48Z</time>
      </trkpt>
      <trkpt lat="46.17604" lon="6.70864">
        <ele>985</ele>
        <time>2010-01-02T02:33:54Z</time>
      </trkpt>
      <trkpt lat="46.17659" lon="6.70811">
        <ele>988</ele>
        <time>2010-01-02T02:34:21Z</time>
      </trkpt>
      <trkpt lat="46.17683" lon="6.70788">
        <ele>985</ele>
        <time>2010-01-02T02:34:32Z</time>
      </trkpt>
      <trkpt lat="46.17696" lon="6.70763">
        <ele>987</ele>
        <time>2010-01-02T02:34:41Z</time>
      </trkpt>
      <trkpt lat="46.17731" lon="6.70708">
        <ele>989</ele>
        <time>2010-01-02T02:35:01Z</time>
      </trkpt>
      <trkpt lat="46.17738" lon="6.70692">
        <ele>989</ele>
        <time>2010-01-02T02:35:07Z</time>
      </trkpt>
      <trkpt lat="46.17742" lon="6.70682">
        <ele>988</ele>
        <time>2010-01-02T02:35:10Z</time>
      </trkpt>
      <trkpt lat="46.17742" lon="6.70676">
        <ele>988</ele>
        <time>2010-01-02T02:35:12Z</time>
      </trkpt>
      <trkpt lat="46.17746" lon="6.70665">
        <ele>988</ele>
        <time>2010-01-02T02:35:15Z</time>
      </trkpt>
      <trkpt lat="46.17753" lon="6.70662">
        <ele>987</ele>
        <time>2010-01-02T02:35:18Z</time>
      </trkpt>
      <trkpt lat="46.17758" lon="6.70667">
        <ele>987</ele>
        <time>2010-01-02T02:35:21Z</time>
      </trkpt>
      <trkpt lat="46.17762" lon="6.70665">
        <ele>986</ele>
        <time>2010-01-02T02:35:22Z</time>
      </trkpt>
      <trkpt lat="46.17826" lon="6.7056">
        <ele>986</ele>
        <time>2010-01-02T02:36:01Z</time>
      </trkpt>
      <trkpt lat="46.17843" lon="6.70531">
        <ele>984</ele>
        <time>2010-01-02T02:36:12Z</time>
      </trkpt>
      <trkpt lat="46.17931" lon="6.70401">
        <ele>984</ele>
        <time>2010-01-02T02:37:02Z</time>
      </trkpt>
      <trkpt lat="46.17993" lon="6.70303">
        <ele>984</ele>
        <time>2010-01-02T02:37:39Z</time>
      </trkpt>
      <trkpt lat="46.18039" lon="6.7023">
        <ele>980</ele>
        <time>2010-01-02T02:38:06Z</time>
      </trkpt>
      <trkpt lat="46.18044" lon="6.70219">
        <ele>980</ele>
        <time>2010-01-02T02:38:10Z</time>
      </trkpt>
      <trkpt lat="46.18032" lon="6.70203">
        <ele>981</ele>
        <time>2010-01-02T02:38:16Z</time>
      </trkpt>
      <trkpt lat="46.18016" lon="6.70178">
        <ele>982</ele>
        <time>2010-01-02T02:38:26Z</time>
      </trkpt>
      <trkpt lat="46.18004" lon="6.70169">
        <ele>983</ele>
        <time>2010-01-02T02:38:31Z</time>
      </trkpt>
      <trkpt lat="46.18003" lon="6.70169">
        <ele>984</ele>
        <time>2010-01-02T02:38:32Z</time>
      </trkpt>
      <trkpt lat="46.17987" lon="6.70154">
        <ele>988</ele>
        <time>2010-01-02T02:38:39Z</time>
      </trkpt>
      <trkpt lat="46.17974" lon="6.70136">
        <ele>991</ele>
        <time>2010-01-02T02:38:46Z</time>
      </trkpt>
      <trkpt lat="46.17962" lon="6.70134">
        <ele>992</ele>
        <time>2010-01-02T02:38:51Z</time>
      </trkpt>
      <trkpt lat="46.17852" lon="6.70031">
        <ele>1033</ele>
        <time>2010-01-02T02:39:44Z</time>
      </trkpt>
      <trkpt lat="46.17805" lon="6.70021">
        <ele>1062</ele>
        <time>2010-01-02T02:40:03Z</time>
      </trkpt>
      <trkpt lat="46.17709" lon="6.69911">
        <ele>1130</ele>
        <time>2010-01-02T02:40:52Z</time>
      </trkpt>
      <trkpt lat="46.17648" lon="6.69888">
        <ele>1167</ele>
        <time>2010-01-02T02:41:17Z</time>
      </trkpt>
      <trkpt lat="46.17582" lon="6.69757">
        <ele>1220</ele>
        <time>2010-01-02T02:42:02Z</time>
      </trkpt>
      <trkpt lat="46.17539" lon="6.69753">
        <ele>1222</ele>
        <time>2010-01-02T02:42:19Z</time>
      </trkpt>
      <trkpt lat="46.17422" lon="6.69627">
        <ele>1274</ele>
        <time>2010-01-02T02:43:18Z</time>
      </trkpt>
      <trkpt lat="46.17325" lon="6.69539">
        <ele>1315</ele>
        <time>2010-01-02T02:44:03Z</time>
      </trkpt>
      <trkpt lat="46.17218" lon="6.69447">
        <ele>1358</ele>
        <time>2010-01-02T02:44:53Z</time>
      </trkpt>
      <trkpt lat="46.17088" lon="6.69343">
        <ele>1428</ele>
        <time>2010-01-02T02:45:53Z</time>
      </trkpt>
      <trkpt lat="46.16968" lon="6.69204">
        <ele>1496</ele>
        <time>2010-01-02T02:46:54Z</time>
      </trkpt>
      <trkpt lat="46.1697" lon="6.69193">
        <ele>1496</ele>
        <time>2010-01-02T02:46:58Z</time>
      </trkpt>
      <trkpt lat="46.17002" lon="6.69169">
        <ele>1493</ele>
        <time>2010-01-02T02:47:12Z</time>
      </trkpt>
      <trkpt lat="46.17048" lon="6.69125">
        <ele>1483</ele>
        <time>2010-01-02T02:47:34Z</time>
      </trkpt>
      <trkpt lat="46.17078" lon="6.69093">
        <ele>1481</ele>
        <time>2010-01-02T02:47:49Z</time>
      </trkpt>
      <trkpt lat="46.17097" lon="6.69087">
        <ele>1476</ele>
        <time>2010-01-02T02:47:57Z</time>
      </trkpt>
      <trkpt lat="46.17123" lon="6.6912">
        <ele>1472</ele>
        <time>2010-01-02T02:48:11Z</time>
      </trkpt>
      <trkpt lat="46.17133" lon="6.69136">
        <ele>1470</ele>
        <time>2010-01-02T02:48:17Z</time>
      </trkpt>
      <trkpt lat="46.17144" lon="6.69137">
        <ele>1469</ele>
        <time>2010-01-02T02:48:21Z</time>
      </trkpt>
      <trkpt lat="46.17156" lon="6.69133">
        <ele>1469</ele>
        <time>2010-01-02T02:48:26Z</time>
      </trkpt>
      <trkpt lat="46.17165" lon="6.69124">
        <ele>1470</ele>
        <time>2010-01-02T02:48:31Z</time>
      </trkpt>
      <trkpt lat="46.17211" lon="6.69091">
        <ele>1458</ele>
        <time>2010-01-02T02:48:51Z</time>
      </trkpt>
      <trkpt lat="46.17217" lon="6.6907">
        <ele>1457</ele>
        <time>2010-01-02T02:48:57Z</time>
      </trkpt>
      <trkpt lat="46.17211" lon="6.69">
        <ele>1449</ele>
        <time>2010-01-02T02:49:17Z</time>
      </trkpt>
      <trkpt lat="46.17213" lon="6.68982">
        <ele>1448</ele>
        <time>2010-01-02T02:49:22Z</time>
      </trkpt>
      <trkpt lat="46.17225" lon="6.68953">
        <ele>1446</ele>
        <time>2010-01-02T02:49:31Z</time>
      </trkpt>
      <trkpt lat="46.17226" lon="6.68932">
        <ele>1444</ele>
        <time>2010-01-02T02:49:37Z</time>
      </trkpt>
      <trkpt lat="46.17217" lon="6.68917">
        <ele>1445</ele>
        <time>2010-01-02T02:49:42Z</time>
      </trkpt>
      <trkpt lat="46.17187" lon="6.68875">
        <ele>1441</ele>
        <time>2010-01-02T02:49:59Z</time>
      </trkpt>
      <trkpt lat="46.17181" lon="6.6885">
        <ele>1441</ele>
        <time>2010-01-02T02:50:07Z</time>
      </trkpt>
      <trkpt lat="46.1718" lon="6.68824">
        <ele>1437</ele>
        <time>2010-01-02T02:50:14Z</time>
      </trkpt>
      <trkpt lat="46.17174" lon="6.68781">
        <ele>1431</ele>
        <time>2010-01-02T02:50:26Z</time>
      </trkpt>
      <trkpt lat="46.1716" lon="6.68768">
        <ele>1439</ele>
        <time>2010-01-02T02:50:33Z</time>
      </trkpt>
      <trkpt lat="46.17131" lon="6.68744">
        <ele>1433</ele>
        <time>2010-01-02T02:50:46Z</time>
      </trkpt>
      <trkpt lat="46.1709" lon="6.68726">
        <ele>1436</ele>
        <time>2010-01-02T02:51:03Z</time>
      </trkpt>
      <trkpt lat="46.17041" lon="6.68714">
        <ele>1446</ele>
        <time>2010-01-02T02:51:23Z</time>
      </trkpt>
      <trkpt lat="46.17012" lon="6.68714">
        <ele>1448</ele>
        <time>2010-01-02T02:51:35Z</time>
      </trkpt>
      <trkpt lat="46.16985" lon="6.68701">
        <ele>1453</ele>
        <time>2010-01-02T02:51:46Z</time>
      </trkpt>
      <trkpt lat="46.16976" lon="6.68679">
        <ele>1451</ele>
        <time>2010-01-02T02:51:53Z</time>
      </trkpt>
      <trkpt lat="46.16955" lon="6.68662">
        <ele>1444</ele>
        <time>2010-01-02T02:52:03Z</time>
      </trkpt>
      <trkpt lat="46.16926" lon="6.68647">
        <ele>1445</ele>
        <time>2010-01-02T02:52:15Z</time>
      </trkpt>
      <trkpt lat="46.1688" lon="6.68621">
        <ele>1444</ele>
        <time>2010-01-02T02:52:35Z</time>
      </trkpt>
      <trkpt lat="46.16846" lon="6.68582">
        <ele>1434</ele>
        <time>2010-01-02T02:52:52Z</time>
      </trkpt>
      <trkpt lat="46.16839" lon="6.68581">
        <ele>1435</ele>
        <time>2010-01-02T02:52:55Z</time>
      </trkpt>
      <trkpt lat="46.16832" lon="6.6858">
        <ele>1436</ele>
        <time>2010-01-02T02:52:58Z</time>
      </trkpt>
      <trkpt lat="46.16806" lon="6.6859">
        <ele>1444</ele>
        <time>2010-01-02T02:53:09Z</time>
      </trkpt>
      <trkpt lat="46.16787" lon="6.6859">
        <ele>1445</ele>
        <time>2010-01-02T02:53:16Z</time>
      </trkpt>
      <trkpt lat="46.1677" lon="6.68588">
        <ele>1445</ele>
        <time>2010-01-02T02:53:23Z</time>
      </trkpt>
      <trkpt lat="46.16768" lon="6.68588">
        <ele>1445</ele>
        <time>2010-01-02T02:53:24Z</time>
      </trkpt>
      <trkpt lat="46.16737" lon="6.68577">
        <ele>1438</ele>
        <time>2010-01-02T02:53:37Z</time>
      </trkpt>
      <trkpt lat="46.16737" lon="6.68576">
        <ele>1437</ele>
        <time>2010-01-02T02:53:37Z</time>
      </trkpt>
      <trkpt lat="46.16711" lon="6.68563">
        <ele>1434</ele>
        <time>2010-01-02T02:53:48Z</time>
      </trkpt>
      <trkpt lat="46.16679" lon="6.68553">
        <ele>1433</ele>
        <time>2010-01-02T02:54:01Z</time>
      </trkpt>
      <trkpt lat="46.16654" lon="6.68547">
        <ele>1428</ele>
        <time>2010-01-02T02:54:11Z</time>
      </trkpt>
      <trkpt lat="46.1662" lon="6.6855">
        <ele>1427</ele>
        <time>2010-01-02T02:54:25Z</time>
      </trkpt>
      <trkpt lat="46.16614" lon="6.6855">
        <ele>1427</ele>
        <time>2010-01-02T02:54:27Z</time>
      </trkpt>
      <trkpt lat="46.1661" lon="6.68551">
        <ele>1427</ele>
        <time>2010-01-02T02:54:29Z</time>
      </trkpt>
      <trkpt lat="46.16585" lon="6.6855">
        <ele>1426</ele>
        <time>2010-01-02T02:54:39Z</time>
      </trkpt>
      <trkpt lat="46.16581" lon="6.6855">
        <ele>1426</ele>
        <time>2010-01-02T02:54:40Z</time>
      </trkpt>
      <trkpt lat="46.16554" lon="6.68538">
        <ele>1425</ele>
        <time>2010-01-02T02:54:52Z</time>
      </trkpt>
      <trkpt lat="46.16538" lon="6.68531">
        <ele>1425</ele>
        <time>2010-01-02T02:54:59Z</time>
      </trkpt>
      <trkpt lat="46.16526" lon="6.68532">
        <ele>1425</ele>
        <time>2010-01-02T02:55:03Z</time>
      </trkpt>
      <trkpt lat="46.16515" lon="6.68531">
        <ele>1425</ele>
        <time>2010-01-02T02:55:07Z</time>
      </trkpt>
      <trkpt lat="46.16468" lon="6.68492">
        <ele>1414</ele>
        <time>2010-01-02T02:55:29Z</time>
      </trkpt>
      <trkpt lat="46.16438" lon="6.68466">
        <ele>1414</ele>
        <time>2010-01-02T02:55:43Z</time>
      </trkpt>
      <trkpt lat="46.16429" lon="6.68457">
        <ele>1413</ele>
        <time>2010-01-02T02:55:48Z</time>
      </trkpt>
      <trkpt lat="46.16423" lon="6.68448">
        <ele>1412</ele>
        <time>2010-01-02T02:55:51Z</time>
      </trkpt>
      <trkpt lat="46.16414" lon="6.6844">
        <ele>1415</ele>
        <time>2010-01-02T02:55:56Z</time>
      </trkpt>
      <trkpt lat="46.16413" lon="6.68439">
        <ele>1415</ele>
        <time>2010-01-02T02:55:56Z</time>
      </trkpt>
      <trkpt lat="46.1641" lon="6.68439">
        <ele>1415</ele>
        <time>2010-01-02T02:55:57Z</time>
      </trkpt>
      <trkpt lat="46.1635" lon="6.68407">
        <ele>1407</ele>
        <time>2010-01-02T02:56:23Z</time>
      </trkpt>
      <trkpt lat="46.16317" lon="6.68378">
        <ele>1402</ele>
        <time>2010-01-02T02:56:38Z</time>
      </trkpt>
      <trkpt lat="46.16267" lon="6.68385">
        <ele>1402</ele>
        <time>2010-01-02T02:56:58Z</time>
      </trkpt>
      <trkpt lat="46.16222" lon="6.684">
        <ele>1397</ele>
        <time>2010-01-02T02:57:17Z</time>
      </trkpt>
      <trkpt lat="46.1614" lon="6.68437">
        <ele>1400</ele>
        <time>2010-01-02T02:57:51Z</time>
      </trkpt>
      <trkpt lat="46.16094" lon="6.68467">
        <ele>1401</ele>
        <time>2010-01-02T02:58:11Z</time>
      </trkpt>
      <trkpt lat="46.16037" lon="6.68515">
        <ele>1404</ele>
        <time>2010-01-02T02:58:38Z</time>
      </trkpt>
      <trkpt lat="46.16012" lon="6.68501">
        <ele>1397</ele>
        <time>2010-01-02T02:58:48Z</time>
      </trkpt>
      <trkpt lat="46.15994" lon="6.68494">
        <ele>1386</ele>
        <time>2010-01-02T02:58:56Z</time>
      </trkpt>
      <trkpt lat="46.15961" lon="6.68497">
        <ele>1380</ele>
        <time>2010-01-02T02:59:09Z</time>
      </trkpt>
      <trkpt lat="46.15938" lon="6.68488">
        <ele>1379</ele>
        <time>2010-01-02T02:59:19Z</time>
      </trkpt>
      <trkpt lat="46.15913" lon="6.68461">
        <ele>1376</ele>
        <time>2010-01-02T02:59:31Z</time>
      </trkpt>
      <trkpt lat="46.15885" lon="6.68439">
        <ele>1374</ele>
        <time>2010-01-02T02:59:44Z</time>
      </trkpt>
      <trkpt lat="46.15842" lon="6.68427">
        <ele>1372</ele>
        <time>2010-01-02T03:00:01Z</time>
      </trkpt>
      <trkpt lat="46.1583" lon="6.68385">
        <ele>1365</ele>
        <time>2010-01-02T03:00:14Z</time>
      </trkpt>
      <trkpt lat="46.15816" lon="6.68337">
        <ele>1360</ele>
        <time>2010-01-02T03:00:28Z</time>
      </trkpt>
      <trkpt lat="46.15773" lon="6.68274">
        <ele>1345</ele>
        <time>2010-01-02T03:00:53Z</time>
      </trkpt>
      <trkpt lat="46.15616" lon="6.68099">
        <ele>1324</ele>
        <time>2010-01-02T03:02:12Z</time>
      </trkpt>
      <trkpt lat="46.15601" lon="6.6805">
        <ele>1316</ele>
        <time>2010-01-02T03:02:27Z</time>
      </trkpt>
      <trkpt lat="46.15592" lon="6.68003">
        <ele>1315</ele>
        <time>2010-01-02T03:02:41Z</time>
      </trkpt>
      <trkpt lat="46.15585" lon="6.67896">
        <ele>1298</ele>
        <time>2010-01-02T03:03:10Z</time>
      </trkpt>
      <trkpt lat="46.15562" lon="6.67827">
        <ele>1294</ele>
        <time>2010-01-02T03:03:32Z</time>
      </trkpt>
      <trkpt lat="46.15536" lon="6.6777">
        <ele>1292</ele>
        <time>2010-01-02T03:03:50Z</time>
      </trkpt>
      <trkpt lat="46.15504" lon="6.6774">
        <ele>1286</ele>
        <time>2010-01-02T03:04:06Z</time>
      </trkpt>
      <trkpt lat="46.15471" lon="6.67708">
        <ele>1285</ele>
        <time>2010-01-02T03:04:22Z</time>
      </trkpt>
      <trkpt lat="46.15454" lon="6.67686">
        <ele>1284</ele>
        <time>2010-01-02T03:04:31Z</time>
      </trkpt>
      <trkpt lat="46.15441" lon="6.67667">
        <ele>1275</ele>
        <time>2010-01-02T03:04:38Z</time>
      </trkpt>
      <trkpt lat="46.15414" lon="6.6765">
        <ele>1277</ele>
        <time>2010-01-02T03:04:50Z</time>
      </trkpt>
      <trkpt lat="46.15407" lon="6.67625">
        <ele>1275</ele>
        <time>2010-01-02T03:04:58Z</time>
      </trkpt>
      <trkpt lat="46.15416" lon="6.67603">
        <ele>1272</ele>
        <time>2010-01-02T03:05:05Z</time>
      </trkpt>
      <trkpt lat="46.15409" lon="6.67579">
        <ele>1266</ele>
        <time>2010-01-02T03:05:12Z</time>
      </trkpt>
      <trkpt lat="46.1538" lon="6.67545">
        <ele>1265</ele>
        <time>2010-01-02T03:05:27Z</time>
      </trkpt>
      <trkpt lat="46.15362" lon="6.67513">
        <ele>1265</ele>
        <time>2010-01-02T03:05:38Z</time>
      </trkpt>
      <trkpt lat="46.15361" lon="6.67483">
        <ele>1258</ele>
        <time>2010-01-02T03:05:47Z</time>
      </trkpt>
      <trkpt lat="46.15404" lon="6.67423">
        <ele>1250</ele>
        <time>2010-01-02T03:06:11Z</time>
      </trkpt>
      <trkpt lat="46.15413" lon="6.67395">
        <ele>1247</ele>
        <time>2010-01-02T03:06:19Z</time>
      </trkpt>
      <trkpt lat="46.15421" lon="6.67376">
        <ele>1243</ele>
        <time>2010-01-02T03:06:25Z</time>
      </trkpt>
      <trkpt lat="46.15446" lon="6.67358">
        <ele>1242</ele>
        <time>2010-01-02T03:06:37Z</time>
      </trkpt>
      <trkpt lat="46.15461" lon="6.67344">
        <ele>1242</ele>
        <time>2010-01-02T03:06:43Z</time>
      </trkpt>
      <trkpt lat="46.15525" lon="6.67187">
        <ele>1237</ele>
        <time>2010-01-02T03:07:34Z</time>
      </trkpt>
      <trkpt lat="46.1559" lon="6.67124">
        <ele>1223</ele>
        <time>2010-01-02T03:08:05Z</time>
      </trkpt>
      <trkpt lat="46.15616" lon="6.67099">
        <ele>1221</ele>
        <time>2010-01-02T03:08:18Z</time>
      </trkpt>
      <trkpt lat="46.15614" lon="6.6708">
        <ele>1214</ele>
        <time>2010-01-02T03:08:23Z</time>
      </trkpt>
      <trkpt lat="46.15613" lon="6.6707">
        <ele>1213</ele>
        <time>2010-01-02T03:08:26Z</time>
      </trkpt>
      <trkpt lat="46.15637" lon="6.67069">
        <ele>1211</ele>
        <time>2010-01-02T03:08:36Z</time>
      </trkpt>
      <trkpt lat="46.15631" lon="6.67058">
        <ele>1210</ele>
        <time>2010-01-02T03:08:40Z</time>
      </trkpt>
      <trkpt lat="46.15628" lon="6.67045">
        <ele>1209</ele>
        <time>2010-01-02T03:08:44Z</time>
      </trkpt>
      <trkpt lat="46.15635" lon="6.67042">
        <ele>1208</ele>
        <time>2010-01-02T03:08:46Z</time>
      </trkpt>
      <trkpt lat="46.15644" lon="6.67047">
        <ele>1208</ele>
        <time>2010-01-02T03:08:50Z</time>
      </trkpt>
      <trkpt lat="46.15649" lon="6.67037">
        <ele>1206</ele>
        <time>2010-01-02T03:08:54Z</time>
      </trkpt>
      <trkpt lat="46.15644" lon="6.67028">
        <ele>1206</ele>
        <time>2010-01-02T03:08:57Z</time>
      </trkpt>
      <trkpt lat="46.15634" lon="6.67018">
        <ele>1206</ele>
        <time>2010-01-02T03:09:02Z</time>
      </trkpt>
      <trkpt lat="46.15635" lon="6.67005">
        <ele>1204</ele>
        <time>2010-01-02T03:09:06Z</time>
      </trkpt>
      <trkpt lat="46.15636" lon="6.67002">
        <ele>1204</ele>
        <time>2010-01-02T03:09:06Z</time>
      </trkpt>
      <trkpt lat="46.15646" lon="6.67007">
        <ele>1202</ele>
        <time>2010-01-02T03:09:10Z</time>
      </trkpt>
      <trkpt lat="46.15649" lon="6.6701">
        <ele>1201</ele>
        <time>2010-01-02T03:09:12Z</time>
      </trkpt>
      <trkpt lat="46.15666" lon="6.67019">
        <ele>1201</ele>
        <time>2010-01-02T03:09:19Z</time>
      </trkpt>
      <trkpt lat="46.15673" lon="6.67019">
        <ele>1192</ele>
        <time>2010-01-02T03:09:22Z</time>
      </trkpt>
      <trkpt lat="46.15674" lon="6.67012">
        <ele>1191</ele>
        <time>2010-01-02T03:09:24Z</time>
      </trkpt>
      <trkpt lat="46.15666" lon="6.66999">
        <ele>1191</ele>
        <time>2010-01-02T03:09:29Z</time>
      </trkpt>
      <trkpt lat="46.1566" lon="6.66989">
        <ele>1191</ele>
        <time>2010-01-02T03:09:33Z</time>
      </trkpt>
      <trkpt lat="46.15661" lon="6.6698">
        <ele>1191</ele>
        <time>2010-01-02T03:09:35Z</time>
      </trkpt>
      <trkpt lat="46.1567" lon="6.6698">
        <ele>1184</ele>
        <time>2010-01-02T03:09:39Z</time>
      </trkpt>
      <trkpt lat="46.15675" lon="6.66979">
        <ele>1183</ele>
        <time>2010-01-02T03:09:41Z</time>
      </trkpt>
      <trkpt lat="46.15671" lon="6.66966">
        <ele>1181</ele>
        <time>2010-01-02T03:09:45Z</time>
      </trkpt>
      <trkpt lat="46.15669" lon="6.6695">
        <ele>1179</ele>
        <time>2010-01-02T03:09:50Z</time>
      </trkpt>
      <trkpt lat="46.15664" lon="6.66937">
        <ele>1185</ele>
        <time>2010-01-02T03:09:54Z</time>
      </trkpt>
      <trkpt lat="46.15658" lon="6.66917">
        <ele>1181</ele>
        <time>2010-01-02T03:10:00Z</time>
      </trkpt>
      <trkpt lat="46.15651" lon="6.66893">
        <ele>1178</ele>
        <time>2010-01-02T03:10:07Z</time>
      </trkpt>
      <trkpt lat="46.1565" lon="6.66873">
        <ele>1178</ele>
        <time>2010-01-02T03:10:13Z</time>
      </trkpt>
      <trkpt lat="46.15651" lon="6.66872">
        <ele>1178</ele>
        <time>2010-01-02T03:10:13Z</time>
      </trkpt>
      <trkpt lat="46.15645" lon="6.66851">
        <ele>1177</ele>
        <time>2010-01-02T03:10:19Z</time>
      </trkpt>
      <trkpt lat="46.15646" lon="6.66829">
        <ele>1174</ele>
        <time>2010-01-02T03:10:25Z</time>
      </trkpt>
      <trkpt lat="46.15646" lon="6.66825">
        <ele>1174</ele>
        <time>2010-01-02T03:10:26Z</time>
      </trkpt>
      <trkpt lat="46.15653" lon="6.66812">
        <ele>1173</ele>
        <time>2010-01-02T03:10:31Z</time>
      </trkpt>
      <trkpt lat="46.15654" lon="6.66812">
        <ele>1173</ele>
        <time>2010-01-02T03:10:31Z</time>
      </trkpt>
      <trkpt lat="46.15675" lon="6.6681">
        <ele>1169</ele>
        <time>2010-01-02T03:10:40Z</time>
      </trkpt>
      <trkpt lat="46.1569" lon="6.66816">
        <ele>1168</ele>
        <time>2010-01-02T03:10:46Z</time>
      </trkpt>
      <trkpt lat="46.15679" lon="6.66824">
        <ele>1169</ele>
        <time>2010-01-02T03:10:50Z</time>
      </trkpt>
      <trkpt lat="46.15679" lon="6.66826">
        <ele>1169</ele>
        <time>2010-01-02T03:10:51Z</time>
      </trkpt>
      <trkpt lat="46.15673" lon="6.66838">
        <ele>1171</ele>
        <time>2010-01-02T03:10:55Z</time>
      </trkpt>
      <trkpt lat="46.15668" lon="6.66851">
        <ele>1171</ele>
        <time>2010-01-02T03:10:59Z</time>
      </trkpt>
      <trkpt lat="46.15599" lon="6.66972">
        <ele>1196</ele>
        <time>2010-01-02T03:11:43Z</time>
      </trkpt>
      <trkpt lat="46.15537" lon="6.67123">
        <ele>1232</ele>
        <time>2010-01-02T03:12:31Z</time>
      </trkpt>
      <trkpt lat="46.15403" lon="6.67485">
        <ele>1255</ele>
        <time>2010-01-02T03:14:25Z</time>
      </trkpt>
      <trkpt lat="46.15184" lon="6.67911">
        <ele>1343</ele>
        <time>2010-01-02T03:16:52Z</time>
      </trkpt>
      <trkpt lat="46.15119" lon="6.68089">
        <ele>1400</ele>
        <time>2010-01-02T03:17:48Z</time>
      </trkpt>
      <trkpt lat="46.15003" lon="6.68379">
        <ele>1461</ele>
        <time>2010-01-02T03:19:21Z</time>
      </trkpt>
      <trkpt lat="46.1487" lon="6.68704">
        <ele>1509</ele>
        <time>2010-01-02T03:21:06Z</time>
      </trkpt>
      <trkpt lat="46.14627" lon="6.69145">
        <ele>1577</ele>
        <time>2010-01-02T03:23:42Z</time>
      </trkpt>
      <trkpt lat="46.14513" lon="6.69396">
        <ele>1610</ele>
        <time>2010-01-02T03:25:05Z</time>
      </trkpt>
      <trkpt lat="46.14528" lon="6.69438">
        <ele>1606</ele>
        <time>2010-01-02T03:25:18Z</time>
      </trkpt>
      <trkpt lat="46.14568" lon="6.69422">
        <ele>1605</ele>
        <time>2010-01-02T03:25:35Z</time>
      </trkpt>
      <trkpt lat="46.14593" lon="6.69389">
        <ele>1603</ele>
        <time>2010-01-02T03:25:48Z</time>
      </trkpt>
      <trkpt lat="46.14622" lon="6.69343">
        <ele>1602</ele>
        <time>2010-01-02T03:26:06Z</time>
      </trkpt>
      <trkpt lat="46.14654" lon="6.69318">
        <ele>1599</ele>
        <time>2010-01-02T03:26:20Z</time>
      </trkpt>
      <trkpt lat="46.14685" lon="6.69318">
        <ele>1596</ele>
        <time>2010-01-02T03:26:33Z</time>
      </trkpt>
      <trkpt lat="46.14721" lon="6.69315">
        <ele>1593</ele>
        <time>2010-01-02T03:26:47Z</time>
      </trkpt>
      <trkpt lat="46.14752" lon="6.69313">
        <ele>1587</ele>
        <time>2010-01-02T03:27:00Z</time>
      </trkpt>
      <trkpt lat="46.14786" lon="6.6931">
        <ele>1584</ele>
        <time>2010-01-02T03:27:13Z</time>
      </trkpt>
      <trkpt lat="46.14793" lon="6.69307">
        <ele>1583</ele>
        <time>2010-01-02T03:27:16Z</time>
      </trkpt>
      <trkpt lat="46.14828" lon="6.69296">
        <ele>1581</ele>
        <time>2010-01-02T03:27:30Z</time>
      </trkpt>
      <trkpt lat="46.14843" lon="6.69305">
        <ele>1573</ele>
        <time>2010-01-02T03:27:37Z</time>
      </trkpt>
      <trkpt lat="46.14868" lon="6.69324">
        <ele>1572</ele>
        <time>2010-01-02T03:27:48Z</time>
      </trkpt>
      <trkpt lat="46.1489" lon="6.6934">
        <ele>1567</ele>
        <time>2010-01-02T03:27:58Z</time>
      </trkpt>
      <trkpt lat="46.14922" lon="6.69376">
        <ele>1560</ele>
        <time>2010-01-02T03:28:14Z</time>
      </trkpt>
      <trkpt lat="46.14942" lon="6.69395">
        <ele>1559</ele>
        <time>2010-01-02T03:28:24Z</time>
      </trkpt>
      <trkpt lat="46.1498" lon="6.69423">
        <ele>1555</ele>
        <time>2010-01-02T03:28:41Z</time>
      </trkpt>
      <trkpt lat="46.15004" lon="6.69439">
        <ele>1553</ele>
        <time>2010-01-02T03:28:51Z</time>
      </trkpt>
      <trkpt lat="46.15026" lon="6.69452">
        <ele>1551</ele>
        <time>2010-01-02T03:29:01Z</time>
      </trkpt>
      <trkpt lat="46.15044" lon="6.69457">
        <ele>1550</ele>
        <time>2010-01-02T03:29:09Z</time>
      </trkpt>
      <trkpt lat="46.15073" lon="6.69459">
        <ele>1550</ele>
        <time>2010-01-02T03:29:20Z</time>
      </trkpt>
      <trkpt lat="46.15097" lon="6.69456">
        <ele>1546</ele>
        <time>2010-01-02T03:29:29Z</time>
      </trkpt>
      <trkpt lat="46.15113" lon="6.69444">
        <ele>1545</ele>
        <time>2010-01-02T03:29:37Z</time>
      </trkpt>
      <trkpt lat="46.15125" lon="6.69433">
        <ele>1545</ele>
        <time>2010-01-02T03:29:43Z</time>
      </trkpt>
      <trkpt lat="46.15134" lon="6.69417">
        <ele>1544</ele>
        <time>2010-01-02T03:29:48Z</time>
      </trkpt>
      <trkpt lat="46.15146" lon="6.69405">
        <ele>1540</ele>
        <time>2010-01-02T03:29:54Z</time>
      </trkpt>
      <trkpt lat="46.15162" lon="6.69395">
        <ele>1540</ele>
        <time>2010-01-02T03:30:01Z</time>
      </trkpt>
      <trkpt lat="46.15164" lon="6.69394">
        <ele>1540</ele>
        <time>2010-01-02T03:30:02Z</time>
      </trkpt>
      <trkpt lat="46.15183" lon="6.69382">
        <ele>1531</ele>
        <time>2010-01-02T03:30:10Z</time>
      </trkpt>
      <trkpt lat="46.15189" lon="6.6938">
        <ele>1530</ele>
        <time>2010-01-02T03:30:12Z</time>
      </trkpt>
      <trkpt lat="46.15205" lon="6.69377">
        <ele>1529</ele>
        <time>2010-01-02T03:30:19Z</time>
      </trkpt>
      <trkpt lat="46.15205" lon="6.69376">
        <ele>1529</ele>
        <time>2010-01-02T03:30:19Z</time>
      </trkpt>
      <trkpt lat="46.15218" lon="6.69378">
        <ele>1528</ele>
        <time>2010-01-02T03:30:24Z</time>
      </trkpt>
      <trkpt lat="46.1522" lon="6.69379">
        <ele>1528</ele>
        <time>2010-01-02T03:30:25Z</time>
      </trkpt>
      <trkpt lat="46.15233" lon="6.69388">
        <ele>1527</ele>
        <time>2010-01-02T03:30:31Z</time>
      </trkpt>
      <trkpt lat="46.15235" lon="6.69389">
        <ele>1527</ele>
        <time>2010-01-02T03:30:32Z</time>
      </trkpt>
      <trkpt lat="46.15248" lon="6.69401">
        <ele>1526</ele>
        <time>2010-01-02T03:30:38Z</time>
      </trkpt>
      <trkpt lat="46.15262" lon="6.6941">
        <ele>1523</ele>
        <time>2010-01-02T03:30:44Z</time>
      </trkpt>
      <trkpt lat="46.15281" lon="6.69415">
        <ele>1521</ele>
        <time>2010-01-02T03:30:52Z</time>
      </trkpt>
      <trkpt lat="46.15282" lon="6.69414">
        <ele>1521</ele>
        <time>2010-01-02T03:30:53Z</time>
      </trkpt>
      <trkpt lat="46.153" lon="6.69414">
        <ele>1520</ele>
        <time>2010-01-02T03:31:00Z</time>
      </trkpt>
      <trkpt lat="46.15361" lon="6.69431">
        <ele>1518</ele>
        <time>2010-01-02T03:31:25Z</time>
      </trkpt>
      <trkpt lat="46.15362" lon="6.6943">
        <ele>1518</ele>
        <time>2010-01-02T03:31:25Z</time>
      </trkpt>
      <trkpt lat="46.1541" lon="6.69434">
        <ele>1522</ele>
        <time>2010-01-02T03:31:44Z</time>
      </trkpt>
      <trkpt lat="46.15427" lon="6.69424">
        <ele>1525</ele>
        <time>2010-01-02T03:31:52Z</time>
      </trkpt>
      <trkpt lat="46.1543" lon="6.69424">
        <ele>1524</ele>
        <time>2010-01-02T03:31:53Z</time>
      </trkpt>
      <trkpt lat="46.15433" lon="6.69424">
        <ele>1524</ele>
        <time>2010-01-02T03:31:54Z</time>
      </trkpt>
      <trkpt lat="46.15459" lon="6.69417">
        <ele>1526</ele>
        <time>2010-01-02T03:32:05Z</time>
      </trkpt>
      <trkpt lat="46.15462" lon="6.69416">
        <ele>1526</ele>
        <time>2010-01-02T03:32:06Z</time>
      </trkpt>
      <trkpt lat="46.15475" lon="6.69417">
        <ele>1522</ele>
        <time>2010-01-02T03:32:11Z</time>
      </trkpt>
      <trkpt lat="46.15477" lon="6.69418">
        <ele>1522</ele>
        <time>2010-01-02T03:32:12Z</time>
      </trkpt>
      <trkpt lat="46.15525" lon="6.69414">
        <ele>1525</ele>
        <time>2010-01-02T03:32:31Z</time>
      </trkpt>
      <trkpt lat="46.15526" lon="6.6941">
        <ele>1525</ele>
        <time>2010-01-02T03:32:32Z</time>
      </trkpt>
      <trkpt lat="46.15558" lon="6.69391">
        <ele>1524</ele>
        <time>2010-01-02T03:32:46Z</time>
      </trkpt>
      <trkpt lat="46.15558" lon="6.69391">
        <ele>1524</ele>
        <time>2010-01-02T03:32:46Z</time>
      </trkpt>
      <trkpt lat="46.15562" lon="6.69389">
        <ele>1524</ele>
        <time>2010-01-02T03:32:48Z</time>
      </trkpt>
      <trkpt lat="46.15593" lon="6.6938">
        <ele>1521</ele>
        <time>2010-01-02T03:33:00Z</time>
      </trkpt>
      <trkpt lat="46.15596" lon="6.69377">
        <ele>1521</ele>
        <time>2010-01-02T03:33:02Z</time>
      </trkpt>
      <trkpt lat="46.15598" lon="6.69376">
        <ele>1521</ele>
        <time>2010-01-02T03:33:02Z</time>
      </trkpt>
      <trkpt lat="46.15598" lon="6.69375">
        <ele>1521</ele>
        <time>2010-01-02T03:33:03Z</time>
      </trkpt>
      <trkpt lat="46.156" lon="6.69371">
        <ele>1521</ele>
        <time>2010-01-02T03:33:04Z</time>
      </trkpt>
      <trkpt lat="46.1561" lon="6.69363">
        <ele>1522</ele>
        <time>2010-01-02T03:33:09Z</time>
      </trkpt>
      <trkpt lat="46.1561" lon="6.69361">
        <ele>1522</ele>
        <time>2010-01-02T03:33:09Z</time>
      </trkpt>
      <trkpt lat="46.15658" lon="6.69333">
        <ele>1526</ele>
        <time>2010-01-02T03:33:30Z</time>
      </trkpt>
      <trkpt lat="46.15694" lon="6.69326">
        <ele>1517</ele>
        <time>2010-01-02T03:33:45Z</time>
      </trkpt>
      <trkpt lat="46.15721" lon="6.69296">
        <ele>1512</ele>
        <time>2010-01-02T03:33:58Z</time>
      </trkpt>
      <trkpt lat="46.15766" lon="6.6928">
        <ele>1501</ele>
        <time>2010-01-02T03:34:17Z</time>
      </trkpt>
      <trkpt lat="46.15816" lon="6.69262">
        <ele>1499</ele>
        <time>2010-01-02T03:34:38Z</time>
      </trkpt>
      <trkpt lat="46.15892" lon="6.69273">
        <ele>1497</ele>
        <time>2010-01-02T03:35:08Z</time>
      </trkpt>
      <trkpt lat="46.15941" lon="6.69326">
        <ele>1500</ele>
        <time>2010-01-02T03:35:33Z</time>
      </trkpt>
      <trkpt lat="46.15961" lon="6.6935">
        <ele>1498</ele>
        <time>2010-01-02T03:35:43Z</time>
      </trkpt>
      <trkpt lat="46.16014" lon="6.69366">
        <ele>1511</ele>
        <time>2010-01-02T03:36:05Z</time>
      </trkpt>
      <trkpt lat="46.16063" lon="6.69408">
        <ele>1520</ele>
        <time>2010-01-02T03:36:28Z</time>
      </trkpt>
      <trkpt lat="46.16097" lon="6.69454">
        <ele>1530</ele>
        <time>2010-01-02T03:36:46Z</time>
      </trkpt>
      <trkpt lat="46.16206" lon="6.69488">
        <ele>1538</ele>
        <time>2010-01-02T03:37:31Z</time>
      </trkpt>
      <trkpt lat="46.16247" lon="6.69473">
        <ele>1538</ele>
        <time>2010-01-02T03:37:48Z</time>
      </trkpt>
      <trkpt lat="46.16305" lon="6.69362">
        <ele>1540</ele>
        <time>2010-01-02T03:38:26Z</time>
      </trkpt>
      <trkpt lat="46.1641" lon="6.69316">
        <ele>1532</ele>
        <time>2010-01-02T03:39:10Z</time>
      </trkpt>
      <trkpt lat="46.16427" lon="6.69314">
        <ele>1529</ele>
        <time>2010-01-02T03:39:17Z</time>
      </trkpt>
      <trkpt lat="46.16486" lon="6.69301">
        <ele>1527</ele>
        <time>2010-01-02T03:39:41Z</time>
      </trkpt>
      <trkpt lat="46.16556" lon="6.69284">
        <ele>1527</ele>
        <time>2010-01-02T03:40:09Z</time>
      </trkpt>
      <trkpt lat="46.16623" lon="6.69288">
        <ele>1524</ele>
        <time>2010-01-02T03:40:36Z</time>
      </trkpt>
      <trkpt lat="46.16631" lon="6.69288">
        <ele>1524</ele>
        <time>2010-01-02T03:40:39Z</time>
      </trkpt>
      <trkpt lat="46.16714" lon="6.69259">
        <ele>1521</ele>
        <time>2010-01-02T03:41:14Z</time>
      </trkpt>
      <trkpt lat="46.16769" lon="6.6924">
        <ele>1519</ele>
        <time>2010-01-02T03:41:36Z</time>
      </trkpt>
      <trkpt lat="46.16856" lon="6.69218">
        <ele>1509</ele>
        <time>2010-01-02T03:42:12Z</time>
      </trkpt>
      <trkpt lat="46.16881" lon="6.69216">
        <ele>1507</ele>
        <time>2010-01-02T03:42:22Z</time>
      </trkpt>
      <trkpt lat="46.16905" lon="6.69214">
        <ele>1506</ele>
        <time>2010-01-02T03:42:31Z</time>
      </trkpt>
      <trkpt lat="46.16975" lon="6.69214">
        <ele>1495</ele>
        <time>2010-01-02T03:42:59Z</time>
      </trkpt>
      <trkpt lat="46.16824" lon="6.69224">
        <ele>1515</ele>
        <time>2010-01-02T03:44:00Z</time>
      </trkpt>
      <trkpt lat="46.16725" lon="6.69271">
        <ele>1519</ele>
        <time>2010-01-02T03:44:42Z</time>
      </trkpt>
      <trkpt lat="46.16664" lon="6.6928">
        <ele>1525</ele>
        <time>2010-01-02T03:45:06Z</time>
      </trkpt>
      <trkpt lat="46.16617" lon="6.69301">
        <ele>1523</ele>
        <time>2010-01-02T03:45:26Z</time>
      </trkpt>
      <trkpt lat="46.16561" lon="6.69306">
        <ele>1525</ele>
        <time>2010-01-02T03:45:48Z</time>
      </trkpt>
      <trkpt lat="46.16512" lon="6.69307">
        <ele>1525</ele>
        <time>2010-01-02T03:46:08Z</time>
      </trkpt>
      <trkpt lat="46.16472" lon="6.69308">
        <ele>1527</ele>
        <time>2010-01-02T03:46:24Z</time>
      </trkpt>
      <trkpt lat="46.16418" lon="6.69324">
        <ele>1530</ele>
        <time>2010-01-02T03:46:46Z</time>
      </trkpt>
      <trkpt lat="46.16459" lon="6.69328">
        <ele>1528</ele>
        <time>2010-01-02T03:47:03Z</time>
      </trkpt>
      <trkpt lat="46.16513" lon="6.69334">
        <ele>1516</ele>
        <time>2010-01-02T03:47:25Z</time>
      </trkpt>
      <trkpt lat="46.16548" lon="6.69348">
        <ele>1510</ele>
        <time>2010-01-02T03:47:39Z</time>
      </trkpt>
      <trkpt lat="46.16614" lon="6.69354">
        <ele>1502</ele>
        <time>2010-01-02T03:48:06Z</time>
      </trkpt>
      <trkpt lat="46.16679" lon="6.69355">
        <ele>1494</ele>
        <time>2010-01-02T03:48:32Z</time>
      </trkpt>
      <trkpt lat="46.16743" lon="6.69358">
        <ele>1490</ele>
        <time>2010-01-02T03:48:57Z</time>
      </trkpt>
      <trkpt lat="46.16851" lon="6.69377">
        <ele>1474</ele>
        <time>2010-01-02T03:49:41Z</time>
      </trkpt>
      <trkpt lat="46.16911" lon="6.69391">
        <ele>1468</ele>
        <time>2010-01-02T03:50:05Z</time>
      </trkpt>
      <trkpt lat="46.16959" lon="6.69401">
        <ele>1459</ele>
        <time>2010-01-02T03:50:25Z</time>
      </trkpt>
      <trkpt lat="46.17" lon="6.69412">
        <ele>1444</ele>
        <time>2010-01-02T03:50:41Z</time>
      </trkpt>
      <trkpt lat="46.16983" lon="6.69418">
        <ele>1441</ele>
        <time>2010-01-02T03:50:49Z</time>
      </trkpt>
      <trkpt lat="46.16961" lon="6.6944">
        <ele>1439</ele>
        <time>2010-01-02T03:50:59Z</time>
      </trkpt>
      <trkpt lat="46.16938" lon="6.69449">
        <ele>1439</ele>
        <time>2010-01-02T03:51:09Z</time>
      </trkpt>
      <trkpt lat="46.16909" lon="6.6946">
        <ele>1438</ele>
        <time>2010-01-02T03:51:21Z</time>
      </trkpt>
      <trkpt lat="46.1684" lon="6.69476">
        <ele>1431</ele>
        <time>2010-01-02T03:51:49Z</time>
      </trkpt>
      <trkpt lat="46.16748" lon="6.69513">
        <ele>1418</ele>
        <time>2010-01-02T03:52:27Z</time>
      </trkpt>
      <trkpt lat="46.16666" lon="6.69555">
        <ele>1416</ele>
        <time>2010-01-02T03:53:02Z</time>
      </trkpt>
      <trkpt lat="46.16613" lon="6.69574">
        <ele>1415</ele>
        <time>2010-01-02T03:53:24Z</time>
      </trkpt>
      <trkpt lat="46.166" lon="6.69575">
        <ele>1413</ele>
        <time>2010-01-02T03:53:29Z</time>
      </trkpt>
      <trkpt lat="46.16594" lon="6.69576">
        <ele>1412</ele>
        <time>2010-01-02T03:53:31Z</time>
      </trkpt>
      <trkpt lat="46.16596" lon="6.69584">
        <ele>1399</ele>
        <time>2010-01-02T03:53:34Z</time>
      </trkpt>
      <trkpt lat="46.1661" lon="6.69596">
        <ele>1394</ele>
        <time>2010-01-02T03:53:40Z</time>
      </trkpt>
      <trkpt lat="46.16645" lon="6.69611">
        <ele>1391</ele>
        <time>2010-01-02T03:53:55Z</time>
      </trkpt>
      <trkpt lat="46.16671" lon="6.69626">
        <ele>1384</ele>
        <time>2010-01-02T03:54:06Z</time>
      </trkpt>
      <trkpt lat="46.16705" lon="6.69636">
        <ele>1381</ele>
        <time>2010-01-02T03:54:20Z</time>
      </trkpt>
      <trkpt lat="46.16721" lon="6.69636">
        <ele>1380</ele>
        <time>2010-01-02T03:54:26Z</time>
      </trkpt>
      <trkpt lat="46.16742" lon="6.69641">
        <ele>1377</ele>
        <time>2010-01-02T03:54:35Z</time>
      </trkpt>
      <trkpt lat="46.16749" lon="6.69644">
        <ele>1375</ele>
        <time>2010-01-02T03:54:38Z</time>
      </trkpt>
      <trkpt lat="46.16764" lon="6.6965">
        <ele>1369</ele>
        <time>2010-01-02T03:54:44Z</time>
      </trkpt>
      <trkpt lat="46.16782" lon="6.69648">
        <ele>1369</ele>
        <time>2010-01-02T03:54:51Z</time>
      </trkpt>
      <trkpt lat="46.16801" lon="6.69644">
        <ele>1367</ele>
        <time>2010-01-02T03:54:59Z</time>
      </trkpt>
      <trkpt lat="46.16814" lon="6.69649">
        <ele>1364</ele>
        <time>2010-01-02T03:55:04Z</time>
      </trkpt>
      <trkpt lat="46.16836" lon="6.69676">
        <ele>1346</ele>
        <time>2010-01-02T03:55:16Z</time>
      </trkpt>
      <trkpt lat="46.16841" lon="6.69679">
        <ele>1345</ele>
        <time>2010-01-02T03:55:18Z</time>
      </trkpt>
      <trkpt lat="46.16859" lon="6.69702">
        <ele>1341</ele>
        <time>2010-01-02T03:55:28Z</time>
      </trkpt>
      <trkpt lat="46.16867" lon="6.69715">
        <ele>1340</ele>
        <time>2010-01-02T03:55:32Z</time>
      </trkpt>
      <trkpt lat="46.16867" lon="6.69715">
        <ele>1340</ele>
        <time>2010-01-02T03:55:33Z</time>
      </trkpt>
      <trkpt lat="46.16895" lon="6.69728">
        <ele>1338</ele>
        <time>2010-01-02T03:55:45Z</time>
      </trkpt>
      <trkpt lat="46.16898" lon="6.69729">
        <ele>1338</ele>
        <time>2010-01-02T03:55:46Z</time>
      </trkpt>
      <trkpt lat="46.16972" lon="6.69766">
        <ele>1322</ele>
        <time>2010-01-02T03:56:17Z</time>
      </trkpt>
      <trkpt lat="46.17028" lon="6.6979">
        <ele>1314</ele>
        <time>2010-01-02T03:56:40Z</time>
      </trkpt>
      <trkpt lat="46.17059" lon="6.69798">
        <ele>1311</ele>
        <time>2010-01-02T03:56:53Z</time>
      </trkpt>
      <trkpt lat="46.1709" lon="6.69797">
        <ele>1303</ele>
        <time>2010-01-02T03:57:05Z</time>
      </trkpt>
      <trkpt lat="46.17117" lon="6.69786">
        <ele>1303</ele>
        <time>2010-01-02T03:57:17Z</time>
      </trkpt>
      <trkpt lat="46.17153" lon="6.69773">
        <ele>1301</ele>
        <time>2010-01-02T03:57:32Z</time>
      </trkpt>
      <trkpt lat="46.17184" lon="6.69745">
        <ele>1306</ele>
        <time>2010-01-02T03:57:46Z</time>
      </trkpt>
      <trkpt lat="46.17215" lon="6.69725">
        <ele>1307</ele>
        <time>2010-01-02T03:58:00Z</time>
      </trkpt>
      <trkpt lat="46.17223" lon="6.69723">
        <ele>1307</ele>
        <time>2010-01-02T03:58:03Z</time>
      </trkpt>
      <trkpt lat="46.17264" lon="6.69679">
        <ele>1305</ele>
        <time>2010-01-02T03:58:24Z</time>
      </trkpt>
      <trkpt lat="46.17289" lon="6.69644">
        <ele>1308</ele>
        <time>2010-01-02T03:58:37Z</time>
      </trkpt>
      <trkpt lat="46.17306" lon="6.69602">
        <ele>1308</ele>
        <time>2010-01-02T03:58:51Z</time>
      </trkpt>
      <trkpt lat="46.1732" lon="6.69569">
        <ele>1311</ele>
        <time>2010-01-02T03:59:02Z</time>
      </trkpt>
      <trkpt lat="46.17336" lon="6.69545">
        <ele>1302</ele>
        <time>2010-01-02T03:59:11Z</time>
      </trkpt>
      <trkpt lat="46.17356" lon="6.69521">
        <ele>1302</ele>
        <time>2010-01-02T03:59:21Z</time>
      </trkpt>
      <trkpt lat="46.17357" lon="6.6952">
        <ele>1302</ele>
        <time>2010-01-02T03:59:22Z</time>
      </trkpt>
      <trkpt lat="46.17379" lon="6.69497">
        <ele>1305</ele>
        <time>2010-01-02T03:59:33Z</time>
      </trkpt>
      <trkpt lat="46.17394" lon="6.69478">
        <ele>1304</ele>
        <time>2010-01-02T03:59:40Z</time>
      </trkpt>
      <trkpt lat="46.17408" lon="6.69459">
        <ele>1305</ele>
        <time>2010-01-02T03:59:48Z</time>
      </trkpt>
      <trkpt lat="46.17412" lon="6.69449">
        <ele>1305</ele>
        <time>2010-01-02T03:59:51Z</time>
      </trkpt>
      <trkpt lat="46.17418" lon="6.69431">
        <ele>1299</ele>
        <time>2010-01-02T03:59:57Z</time>
      </trkpt>
      <trkpt lat="46.1743" lon="6.6941">
        <ele>1305</ele>
        <time>2010-01-02T04:00:05Z</time>
      </trkpt>
      <trkpt lat="46.17443" lon="6.69385">
        <ele>1307</ele>
        <time>2010-01-02T04:00:13Z</time>
      </trkpt>
      <trkpt lat="46.17459" lon="6.69359">
        <ele>1309</ele>
        <time>2010-01-02T04:00:23Z</time>
      </trkpt>
      <trkpt lat="46.17506" lon="6.69364">
        <ele>1303</ele>
        <time>2010-01-02T04:00:42Z</time>
      </trkpt>
      <trkpt lat="46.17547" lon="6.69371">
        <ele>1298</ele>
        <time>2010-01-02T04:00:58Z</time>
      </trkpt>
      <trkpt lat="46.17576" lon="6.69366">
        <ele>1297</ele>
        <time>2010-01-02T04:01:10Z</time>
      </trkpt>
      <trkpt lat="46.17602" lon="6.69352">
        <ele>1289</ele>
        <time>2010-01-02T04:01:21Z</time>
      </trkpt>
      <trkpt lat="46.17649" lon="6.69292">
        <ele>1292</ele>
        <time>2010-01-02T04:01:46Z</time>
      </trkpt>
      <trkpt lat="46.1766" lon="6.69247">
        <ele>1292</ele>
        <time>2010-01-02T04:02:00Z</time>
      </trkpt>
      <trkpt lat="46.17682" lon="6.69223">
        <ele>1287</ele>
        <time>2010-01-02T04:02:11Z</time>
      </trkpt>
      <trkpt lat="46.17692" lon="6.69217">
        <ele>1287</ele>
        <time>2010-01-02T04:02:15Z</time>
      </trkpt>
      <trkpt lat="46.17725" lon="6.69188">
        <ele>1285</ele>
        <time>2010-01-02T04:02:30Z</time>
      </trkpt>
      <trkpt lat="46.17761" lon="6.69157">
        <ele>1279</ele>
        <time>2010-01-02T04:02:47Z</time>
      </trkpt>
      <trkpt lat="46.17768" lon="6.69128">
        <ele>1278</ele>
        <time>2010-01-02T04:02:55Z</time>
      </trkpt>
      <trkpt lat="46.17787" lon="6.69118">
        <ele>1276</ele>
        <time>2010-01-02T04:03:04Z</time>
      </trkpt>
      <trkpt lat="46.17815" lon="6.69097">
        <ele>1271</ele>
        <time>2010-01-02T04:03:16Z</time>
      </trkpt>
      <trkpt lat="46.1785" lon="6.69079">
        <ele>1259</ele>
        <time>2010-01-02T04:03:31Z</time>
      </trkpt>
      <trkpt lat="46.17893" lon="6.69067">
        <ele>1252</ele>
        <time>2010-01-02T04:03:49Z</time>
      </trkpt>
      <trkpt lat="46.17925" lon="6.69056">
        <ele>1240</ele>
        <time>2010-01-02T04:04:02Z</time>
      </trkpt>
      <trkpt lat="46.17951" lon="6.6905">
        <ele>1236</ele>
        <time>2010-01-02T04:04:12Z</time>
      </trkpt>
      <trkpt lat="46.1799" lon="6.69074">
        <ele>1230</ele>
        <time>2010-01-02T04:04:29Z</time>
      </trkpt>
      <trkpt lat="46.18018" lon="6.69075">
        <ele>1222</ele>
        <time>2010-01-02T04:04:41Z</time>
      </trkpt>
      <trkpt lat="46.18035" lon="6.69059">
        <ele>1220</ele>
        <time>2010-01-02T04:04:49Z</time>
      </trkpt>
      <trkpt lat="46.18076" lon="6.69028">
        <ele>1218</ele>
        <time>2010-01-02T04:05:07Z</time>
      </trkpt>
      <trkpt lat="46.18114" lon="6.68981">
        <ele>1210</ele>
        <time>2010-01-02T04:05:27Z</time>
      </trkpt>
      <trkpt lat="46.18117" lon="6.68969">
        <ele>1209</ele>
        <time>2010-01-02T04:05:31Z</time>
      </trkpt>
      <trkpt lat="46.18148" lon="6.6893">
        <ele>1205</ele>
        <time>2010-01-02T04:05:47Z</time>
      </trkpt>
      <trkpt lat="46.18194" lon="6.68892">
        <ele>1188</ele>
        <time>2010-01-02T04:06:08Z</time>
      </trkpt>
      <trkpt lat="46.18243" lon="6.68852">
        <ele>1180</ele>
        <time>2010-01-02T04:06:31Z</time>
      </trkpt>
      <trkpt lat="46.18328" lon="6.68857">
        <ele>1173</ele>
        <time>2010-01-02T04:07:05Z</time>
      </trkpt>
      <trkpt lat="46.18411" lon="6.68873">
        <ele>1162</ele>
        <time>2010-01-02T04:07:38Z</time>
      </trkpt>
      <trkpt lat="46.18476" lon="6.68926">
        <ele>1146</ele>
        <time>2010-01-02T04:08:08Z</time>
      </trkpt>
      <trkpt lat="46.18522" lon="6.68989">
        <ele>1131</ele>
        <time>2010-01-02T04:08:34Z</time>
      </trkpt>
      <trkpt lat="46.18547" lon="6.69062">
        <ele>1114</ele>
        <time>2010-01-02T04:08:56Z</time>
      </trkpt>
      <trkpt lat="46.18541" lon="6.69143">
        <ele>1101</ele>
        <time>2010-01-02T04:09:19Z</time>
      </trkpt>
      <trkpt lat="46.18459" lon="6.69268">
        <ele>1079</ele>
        <time>2010-01-02T04:10:06Z</time>
      </trkpt>
      <trkpt lat="46.18356" lon="6.69342">
        <ele>1075</ele>
        <time>2010-01-02T04:10:53Z</time>
      </trkpt>
      <trkpt lat="46.18297" lon="6.69436">
        <ele>1058</ele>
        <time>2010-01-02T04:11:28Z</time>
      </trkpt>
      <trkpt lat="46.18216" lon="6.69582">
        <ele>1045</ele>
        <time>2010-01-02T04:12:20Z</time>
      </trkpt>
      <trkpt lat="46.18168" lon="6.69636">
        <ele>1028</ele>
        <time>2010-01-02T04:12:44Z</time>
      </trkpt>
      <trkpt lat="46.18137" lon="6.69687">
        <ele>1034</ele>
        <time>2010-01-02T04:13:03Z</time>
      </trkpt>
      <trkpt lat="46.18125" lon="6.69753">
        <ele>1016</ele>
        <time>2010-01-02T04:13:22Z</time>
      </trkpt>
      <trkpt lat="46.18085" lon="6.69798">
        <ele>1015</ele>
        <time>2010-01-02T04:13:42Z</time>
      </trkpt>
      <trkpt lat="46.18085" lon="6.69873">
        <ele>998</ele>
        <time>2010-01-02T04:14:03Z</time>
      </trkpt>
      <trkpt lat="46.18099" lon="6.69947">
        <ele>988</ele>
        <time>2010-01-02T04:14:24Z</time>
      </trkpt>
      <trkpt lat="46.18209" lon="6.70091">
        <ele>975</ele>
        <time>2010-01-02T04:15:24Z</time>
      </trkpt>
      <trkpt lat="46.1832" lon="6.70255">
        <ele>971</ele>
        <time>2010-01-02T04:16:27Z</time>
      </trkpt>
      <trkpt lat="46.18361" lon="6.70376">
        <ele>955</ele>
        <time>2010-01-02T04:17:05Z</time>
      </trkpt>
      <trkpt lat="46.18394" lon="6.70423">
        <ele>947</ele>
        <time>2010-01-02T04:17:23Z</time>
      </trkpt>
      <trkpt lat="46.18421" lon="6.70506">
        <ele>956</ele>
        <time>2010-01-02T04:17:49Z</time>
      </trkpt>
      <trkpt lat="46.18436" lon="6.70509">
        <ele>962</ele>
        <time>2010-01-02T04:17:54Z</time>
      </trkpt>
      <trkpt lat="46.18466" lon="6.70545">
        <ele>970</ele>
        <time>2010-01-02T04:18:10Z</time>
      </trkpt>
      <trkpt lat="46.18473" lon="6.70572">
        <ele>974</ele>
        <time>2010-01-02T04:18:18Z</time>
      </trkpt>
      <trkpt lat="46.18535" lon="6.70729">
        <ele>1031</ele>
        <time>2010-01-02T04:19:08Z</time>
      </trkpt>
      <trkpt lat="46.18659" lon="6.70836">
        <ele>1122</ele>
        <time>2010-01-02T04:20:06Z</time>
      </trkpt>
      <trkpt lat="46.18706" lon="6.70973">
        <ele>1181</ele>
        <time>2010-01-02T04:20:48Z</time>
      </trkpt>
      <trkpt lat="46.18814" lon="6.71177">
        <ele>1283</ele>
        <time>2010-01-02T04:22:00Z</time>
      </trkpt>
      <trkpt lat="46.1888" lon="6.71327">
        <ele>1331</ele>
        <time>2010-01-02T04:22:49Z</time>
      </trkpt>
      <trkpt lat="46.18955" lon="6.71477">
        <ele>1378</ele>
        <time>2010-01-02T04:23:40Z</time>
      </trkpt>
      <trkpt lat="46.19057" lon="6.71655">
        <ele>1426</ele>
        <time>2010-01-02T04:24:44Z</time>
      </trkpt>
      <trkpt lat="46.1911" lon="6.71769">
        <ele>1458</ele>
        <time>2010-01-02T04:25:22Z</time>
      </trkpt>
      <trkpt lat="46.19117" lon="6.71791">
        <ele>1460</ele>
        <time>2010-01-02T04:25:29Z</time>
      </trkpt>
      <trkpt lat="46.19117" lon="6.71812">
        <ele>1461</ele>
        <time>2010-01-02T04:25:35Z</time>
      </trkpt>
      <trkpt lat="46.19113" lon="6.71821">
        <ele>1461</ele>
        <time>2010-01-02T04:25:38Z</time>
      </trkpt>
      <trkpt lat="46.19106" lon="6.71822">
        <ele>1461</ele>
        <time>2010-01-02T04:25:40Z</time>
      </trkpt>
      <trkpt lat="46.19093" lon="6.71801">
        <ele>1460</ele>
        <time>2010-01-02T04:25:48Z</time>
      </trkpt>
      <trkpt lat="46.19092" lon="6.718">
        <ele>1460</ele>
        <time>2010-01-02T04:25:49Z</time>
      </trkpt>
      <trkpt lat="46.19075" lon="6.718">
        <ele>1454</ele>
        <time>2010-01-02T04:25:55Z</time>
      </trkpt>
      <trkpt lat="46.19062" lon="6.71799">
        <ele>1454</ele>
        <time>2010-01-02T04:26:01Z</time>
      </trkpt>
      <trkpt lat="46.1906" lon="6.71798">
        <ele>1453</ele>
        <time>2010-01-02T04:26:01Z</time>
      </trkpt>
      <trkpt lat="46.19052" lon="6.71794">
        <ele>1453</ele>
        <time>2010-01-02T04:26:05Z</time>
      </trkpt>
      <trkpt lat="46.19051" lon="6.71794">
        <ele>1453</ele>
        <time>2010-01-02T04:26:05Z</time>
      </trkpt>
      <trkpt lat="46.19043" lon="6.71787">
        <ele>1452</ele>
        <time>2010-01-02T04:26:09Z</time>
      </trkpt>
      <trkpt lat="46.1904" lon="6.71785">
        <ele>1451</ele>
        <time>2010-01-02T04:26:11Z</time>
      </trkpt>
      <trkpt lat="46.19038" lon="6.71785">
        <ele>1451</ele>
        <time>2010-01-02T04:26:11Z</time>
      </trkpt>
      <trkpt lat="46.19028" lon="6.71784">
        <ele>1451</ele>
        <time>2010-01-02T04:26:15Z</time>
      </trkpt>
      <trkpt lat="46.19027" lon="6.71794">
        <ele>1451</ele>
        <time>2010-01-02T04:26:18Z</time>
      </trkpt>
      <trkpt lat="46.19074" lon="6.7191">
        <ele>1471</ele>
        <time>2010-01-02T04:26:55Z</time>
      </trkpt>
      <trkpt lat="46.19145" lon="6.72053">
        <ele>1506</ele>
        <time>2010-01-02T04:27:44Z</time>
      </trkpt>
      <trkpt lat="46.19632" lon="6.73213">
        <ele>1741</ele>
        <time>2010-01-02T04:34:00Z</time>
      </trkpt>
      <trkpt lat="46.19629" lon="6.73293">
        <ele>1742</ele>
        <time>2010-01-02T04:34:22Z</time>
      </trkpt>
      <trkpt lat="46.19621" lon="6.73314">
        <ele>1742</ele>
        <time>2010-01-02T04:34:29Z</time>
      </trkpt>
      <trkpt lat="46.19609" lon="6.7335">
        <ele>1740</ele>
        <time>2010-01-02T04:34:40Z</time>
      </trkpt>
      <trkpt lat="46.19603" lon="6.7341">
        <ele>1740</ele>
        <time>2010-01-02T04:34:56Z</time>
      </trkpt>
      <trkpt lat="46.19621" lon="6.7348">
        <ele>1738</ele>
        <time>2010-01-02T04:35:17Z</time>
      </trkpt>
      <trkpt lat="46.19627" lon="6.73532">
        <ele>1737</ele>
        <time>2010-01-02T04:35:32Z</time>
      </trkpt>
      <trkpt lat="46.19657" lon="6.73591">
        <ele>1740</ele>
        <time>2010-01-02T04:35:52Z</time>
      </trkpt>
      <trkpt lat="46.19678" lon="6.73624">
        <ele>1738</ele>
        <time>2010-01-02T04:36:04Z</time>
      </trkpt>
      <trkpt lat="46.19719" lon="6.73677">
        <ele>1740</ele>
        <time>2010-01-02T04:36:26Z</time>
      </trkpt>
      <trkpt lat="46.19801" lon="6.73799">
        <ele>1750</ele>
        <time>2010-01-02T04:37:14Z</time>
      </trkpt>
      <trkpt lat="46.19873" lon="6.73958">
        <ele>1755</ele>
        <time>2010-01-02T04:38:06Z</time>
      </trkpt>
      <trkpt lat="46.19908" lon="6.74006">
        <ele>1754</ele>
        <time>2010-01-02T04:38:25Z</time>
      </trkpt>
      <trkpt lat="46.19932" lon="6.74043">
        <ele>1752</ele>
        <time>2010-01-02T04:38:40Z</time>
      </trkpt>
      <trkpt lat="46.1999" lon="6.74108">
        <ele>1756</ele>
        <time>2010-01-02T04:39:09Z</time>
      </trkpt>
      <trkpt lat="46.20023" lon="6.74197">
        <ele>1755</ele>
        <time>2010-01-02T04:39:37Z</time>
      </trkpt>
      <trkpt lat="46.20043" lon="6.74249">
        <ele>1754</ele>
        <time>2010-01-02T04:39:53Z</time>
      </trkpt>
      <trkpt lat="46.20046" lon="6.74277">
        <ele>1755</ele>
        <time>2010-01-02T04:40:01Z</time>
      </trkpt>
      <trkpt lat="46.2004" lon="6.74307">
        <ele>1755</ele>
        <time>2010-01-02T04:40:10Z</time>
      </trkpt>
      <trkpt lat="46.20036" lon="6.74364">
        <ele>1751</ele>
        <time>2010-01-02T04:40:26Z</time>
      </trkpt>
      <trkpt lat="46.20043" lon="6.74393">
        <ele>1750</ele>
        <time>2010-01-02T04:40:34Z</time>
      </trkpt>
      <trkpt lat="46.2005" lon="6.74449">
        <ele>1745</ele>
        <time>2010-01-02T04:40:50Z</time>
      </trkpt>
      <trkpt lat="46.20055" lon="6.74492">
        <ele>1745</ele>
        <time>2010-01-02T04:41:02Z</time>
      </trkpt>
      <trkpt lat="46.20056" lon="6.74526">
        <ele>1740</ele>
        <time>2010-01-02T04:41:11Z</time>
      </trkpt>
      <trkpt lat="46.20059" lon="6.74553">
        <ele>1739</ele>
        <time>2010-01-02T04:41:19Z</time>
      </trkpt>
      <trkpt lat="46.2006" lon="6.74555">
        <ele>1739</ele>
        <time>2010-01-02T04:41:20Z</time>
      </trkpt>
      <trkpt lat="46.20071" lon="6.74578">
        <ele>1740</ele>
        <time>2010-01-02T04:41:27Z</time>
      </trkpt>
      <trkpt lat="46.20073" lon="6.74604">
        <ele>1738</ele>
        <time>2010-01-02T04:41:35Z</time>
      </trkpt>
      <trkpt lat="46.20073" lon="6.74616">
        <ele>1737</ele>
        <time>2010-01-02T04:41:38Z</time>
      </trkpt>
      <trkpt lat="46.20072" lon="6.74645">
        <ele>1738</ele>
        <time>2010-01-02T04:41:46Z</time>
      </trkpt>
      <trkpt lat="46.20072" lon="6.74646">
        <ele>1738</ele>
        <time>2010-01-02T04:41:46Z</time>
      </trkpt>
      <trkpt lat="46.20078" lon="6.74707">
        <ele>1736</ele>
        <time>2010-01-02T04:42:03Z</time>
      </trkpt>
      <trkpt lat="46.20083" lon="6.74747">
        <ele>1742</ele>
        <time>2010-01-02T04:42:15Z</time>
      </trkpt>
      <trkpt lat="46.20093" lon="6.74841">
        <ele>1740</ele>
        <time>2010-01-02T04:42:41Z</time>
      </trkpt>
      <trkpt lat="46.20093" lon="6.74885">
        <ele>1738</ele>
        <time>2010-01-02T04:42:53Z</time>
      </trkpt>
      <trkpt lat="46.20107" lon="6.74982">
        <ele>1743</ele>
        <time>2010-01-02T04:43:21Z</time>
      </trkpt>
      <trkpt lat="46.20125" lon="6.75107">
        <ele>1750</ele>
        <time>2010-01-02T04:43:56Z</time>
      </trkpt>
      <trkpt lat="46.20133" lon="6.75199">
        <ele>1752</ele>
        <time>2010-01-02T04:44:22Z</time>
      </trkpt>
      <trkpt lat="46.20131" lon="6.75297">
        <ele>1755</ele>
        <time>2010-01-02T04:44:49Z</time>
      </trkpt>
      <trkpt lat="46.20121" lon="6.75378">
        <ele>1758</ele>
        <time>2010-01-02T04:45:12Z</time>
      </trkpt>
      <trkpt lat="46.20113" lon="6.75437">
        <ele>1759</ele>
        <time>2010-01-02T04:45:29Z</time>
      </trkpt>
      <trkpt lat="46.20108" lon="6.75467">
        <ele>1760</ele>
        <time>2010-01-02T04:45:37Z</time>
      </trkpt>
      <trkpt lat="46.20105" lon="6.75577">
        <ele>1761</ele>
        <time>2010-01-02T04:46:08Z</time>
      </trkpt>
      <trkpt lat="46.201" lon="6.75671">
        <ele>1763</ele>
        <time>2010-01-02T04:46:34Z</time>
      </trkpt>
      <trkpt lat="46.20097" lon="6.75695">
        <ele>1765</ele>
        <time>2010-01-02T04:46:40Z</time>
      </trkpt>
      <trkpt lat="46.20097" lon="6.75696">
        <ele>1765</ele>
        <time>2010-01-02T04:46:41Z</time>
      </trkpt>
      <trkpt lat="46.20084" lon="6.75723">
        <ele>1765</ele>
        <time>2010-01-02T04:46:50Z</time>
      </trkpt>
      <trkpt lat="46.20072" lon="6.75754">
        <ele>1761</ele>
        <time>2010-01-02T04:47:00Z</time>
      </trkpt>
      <trkpt lat="46.20069" lon="6.75758">
        <ele>1760</ele>
        <time>2010-01-02T04:47:01Z</time>
      </trkpt>
      <trkpt lat="46.20062" lon="6.75768">
        <ele>1759</ele>
        <time>2010-01-02T04:47:05Z</time>
      </trkpt>
      <trkpt lat="46.20056" lon="6.75785">
        <ele>1758</ele>
        <time>2010-01-02T04:47:10Z</time>
      </trkpt>
      <trkpt lat="46.20054" lon="6.75792">
        <ele>1758</ele>
        <time>2010-01-02T04:47:13Z</time>
      </trkpt>
      <trkpt lat="46.20054" lon="6.75812">
        <ele>1759</ele>
        <time>2010-01-02T04:47:18Z</time>
      </trkpt>
      <trkpt lat="46.20053" lon="6.7583">
        <ele>1759</ele>
        <time>2010-01-02T04:47:23Z</time>
      </trkpt>
      <trkpt lat="46.20054" lon="6.75847">
        <ele>1758</ele>
        <time>2010-01-02T04:47:28Z</time>
      </trkpt>
      <trkpt lat="46.20051" lon="6.75865">
        <ele>1756</ele>
        <time>2010-01-02T04:47:33Z</time>
      </trkpt>
      <trkpt lat="46.20042" lon="6.75879">
        <ele>1756</ele>
        <time>2010-01-02T04:47:38Z</time>
      </trkpt>
      <trkpt lat="46.20032" lon="6.75895">
        <ele>1756</ele>
        <time>2010-01-02T04:47:44Z</time>
      </trkpt>
      <trkpt lat="46.20025" lon="6.75907">
        <ele>1756</ele>
        <time>2010-01-02T04:47:48Z</time>
      </trkpt>
      <trkpt lat="46.20016" lon="6.7592">
        <ele>1753</ele>
        <time>2010-01-02T04:47:54Z</time>
      </trkpt>
      <trkpt lat="46.2002" lon="6.75928">
        <ele>1752</ele>
        <time>2010-01-02T04:47:56Z</time>
      </trkpt>
      <trkpt lat="46.2002" lon="6.75928">
        <ele>1752</ele>
        <time>2010-01-02T04:47:57Z</time>
      </trkpt>
      <trkpt lat="46.20032" lon="6.75924">
        <ele>1750</ele>
        <time>2010-01-02T04:48:01Z</time>
      </trkpt>
      <trkpt lat="46.20038" lon="6.75921">
        <ele>1750</ele>
        <time>2010-01-02T04:48:04Z</time>
      </trkpt>
      <trkpt lat="46.20038" lon="6.75942">
        <ele>1749</ele>
        <time>2010-01-02T04:48:10Z</time>
      </trkpt>
      <trkpt lat="46.20032" lon="6.75959">
        <ele>1748</ele>
        <time>2010-01-02T04:48:15Z</time>
      </trkpt>
      <trkpt lat="46.2003" lon="6.7596">
        <ele>1748</ele>
        <time>2010-01-02T04:48:16Z</time>
      </trkpt>
      <trkpt lat="46.20023" lon="6.75968">
        <ele>1749</ele>
        <time>2010-01-02T04:48:19Z</time>
      </trkpt>
      <trkpt lat="46.20019" lon="6.75978">
        <ele>1749</ele>
        <time>2010-01-02T04:48:23Z</time>
      </trkpt>
      <trkpt lat="46.20016" lon="6.75992">
        <ele>1750</ele>
        <time>2010-01-02T04:48:27Z</time>
      </trkpt>
      <trkpt lat="46.20016" lon="6.75992">
        <ele>1750</ele>
        <time>2010-01-02T04:48:27Z</time>
      </trkpt>
      <trkpt lat="46.20018" lon="6.76002">
        <ele>1745</ele>
        <time>2010-01-02T04:48:30Z</time>
      </trkpt>
      <trkpt lat="46.20029" lon="6.76">
        <ele>1747</ele>
        <time>2010-01-02T04:48:34Z</time>
      </trkpt>
      <trkpt lat="46.20029" lon="6.76">
        <ele>1747</ele>
        <time>2010-01-02T04:48:34Z</time>
      </trkpt>
      <trkpt lat="46.20033" lon="6.75997">
        <ele>1747</ele>
        <time>2010-01-02T04:48:36Z</time>
      </trkpt>
      <trkpt lat="46.20037" lon="6.75993">
        <ele>1746</ele>
        <time>2010-01-02T04:48:38Z</time>
      </trkpt>
      <trkpt lat="46.20039" lon="6.75997">
        <ele>1745</ele>
        <time>2010-01-02T04:48:39Z</time>
      </trkpt>
      <trkpt lat="46.20039" lon="6.75997">
        <ele>1745</ele>
        <time>2010-01-02T04:48:40Z</time>
      </trkpt>
      <trkpt lat="46.2004" lon="6.76008">
        <ele>1739</ele>
        <time>2010-01-02T04:48:43Z</time>
      </trkpt>
      <trkpt lat="46.20037" lon="6.76018">
        <ele>1739</ele>
        <time>2010-01-02T04:48:46Z</time>
      </trkpt>
      <trkpt lat="46.20039" lon="6.76028">
        <ele>1738</ele>
        <time>2010-01-02T04:48:48Z</time>
      </trkpt>
      <trkpt lat="46.2004" lon="6.76028">
        <ele>1738</ele>
        <time>2010-01-02T04:48:49Z</time>
      </trkpt>
      <trkpt lat="46.2006" lon="6.76056">
        <ele>1733</ele>
        <time>2010-01-02T04:49:00Z</time>
      </trkpt>
      <trkpt lat="46.20064" lon="6.76069">
        <ele>1729</ele>
        <time>2010-01-02T04:49:04Z</time>
      </trkpt>
      <trkpt lat="46.20065" lon="6.7608">
        <ele>1727</ele>
        <time>2010-01-02T04:49:07Z</time>
      </trkpt>
      <trkpt lat="46.20061" lon="6.76091">
        <ele>1725</ele>
        <time>2010-01-02T04:49:11Z</time>
      </trkpt>
      <trkpt lat="46.20065" lon="6.76119">
        <ele>1725</ele>
        <time>2010-01-02T04:49:18Z</time>
      </trkpt>
      <trkpt lat="46.20064" lon="6.76132">
        <ele>1724</ele>
        <time>2010-01-02T04:49:22Z</time>
      </trkpt>
      <trkpt lat="46.20061" lon="6.76143">
        <ele>1723</ele>
        <time>2010-01-02T04:49:25Z</time>
      </trkpt>
      <trkpt lat="46.2006" lon="6.76146">
        <ele>1723</ele>
        <time>2010-01-02T04:49:26Z</time>
      </trkpt>
      <trkpt lat="46.2006" lon="6.76146">
        <ele>1723</ele>
        <time>2010-01-02T04:49:26Z</time>
      </trkpt>
      <trkpt lat="46.20054" lon="6.76156">
        <ele>1724</ele>
        <time>2010-01-02T04:49:30Z</time>
      </trkpt>
      <trkpt lat="46.20053" lon="6.76158">
        <ele>1724</ele>
        <time>2010-01-02T04:49:30Z</time>
      </trkpt>
      <trkpt lat="46.20048" lon="6.76168">
        <ele>1721</ele>
        <time>2010-01-02T04:49:34Z</time>
      </trkpt>
      <trkpt lat="46.20048" lon="6.7617">
        <ele>1721</ele>
        <time>2010-01-02T04:49:34Z</time>
      </trkpt>
      <trkpt lat="46.20048" lon="6.76171">
        <ele>1721</ele>
        <time>2010-01-02T04:49:35Z</time>
      </trkpt>
      <trkpt lat="46.20045" lon="6.76183">
        <ele>1722</ele>
        <time>2010-01-02T04:49:38Z</time>
      </trkpt>
      <trkpt lat="46.20044" lon="6.76185">
        <ele>1722</ele>
        <time>2010-01-02T04:49:39Z</time>
      </trkpt>
      <trkpt lat="46.2004" lon="6.762">
        <ele>1722</ele>
        <time>2010-01-02T04:49:43Z</time>
      </trkpt>
      <trkpt lat="46.2004" lon="6.76203">
        <ele>1722</ele>
        <time>2010-01-02T04:49:44Z</time>
      </trkpt>
      <trkpt lat="46.20038" lon="6.76221">
        <ele>1722</ele>
        <time>2010-01-02T04:49:49Z</time>
      </trkpt>
      <trkpt lat="46.20039" lon="6.76222">
        <ele>1721</ele>
        <time>2010-01-02T04:49:50Z</time>
      </trkpt>
      <trkpt lat="46.20043" lon="6.76235">
        <ele>1719</ele>
        <time>2010-01-02T04:49:53Z</time>
      </trkpt>
      <trkpt lat="46.20043" lon="6.76235">
        <ele>1719</ele>
        <time>2010-01-02T04:49:54Z</time>
      </trkpt>
      <trkpt lat="46.20047" lon="6.76283">
        <ele>1713</ele>
        <time>2010-01-02T04:50:07Z</time>
      </trkpt>
      <trkpt lat="46.20045" lon="6.7631">
        <ele>1712</ele>
        <time>2010-01-02T04:50:14Z</time>
      </trkpt>
      <trkpt lat="46.20048" lon="6.76337">
        <ele>1710</ele>
        <time>2010-01-02T04:50:22Z</time>
      </trkpt>
      <trkpt lat="46.20049" lon="6.76338">
        <ele>1709</ele>
        <time>2010-01-02T04:50:22Z</time>
      </trkpt>
      <trkpt lat="46.2005" lon="6.76362">
        <ele>1710</ele>
        <time>2010-01-02T04:50:29Z</time>
      </trkpt>
      <trkpt lat="46.20057" lon="6.76398">
        <ele>1707</ele>
        <time>2010-01-02T04:50:39Z</time>
      </trkpt>
      <trkpt lat="46.20065" lon="6.76419">
        <ele>1703</ele>
        <time>2010-01-02T04:50:46Z</time>
      </trkpt>
      <trkpt lat="46.20072" lon="6.76445">
        <ele>1705</ele>
        <time>2010-01-02T04:50:54Z</time>
      </trkpt>
      <trkpt lat="46.20073" lon="6.7646">
        <ele>1707</ele>
        <time>2010-01-02T04:50:58Z</time>
      </trkpt>
      <trkpt lat="46.20073" lon="6.76461">
        <ele>1707</ele>
        <time>2010-01-02T04:50:58Z</time>
      </trkpt>
      <trkpt lat="46.2007" lon="6.7648">
        <ele>1705</ele>
        <time>2010-01-02T04:51:04Z</time>
      </trkpt>
      <trkpt lat="46.20076" lon="6.76484">
        <ele>1703</ele>
        <time>2010-01-02T04:51:07Z</time>
      </trkpt>
      <trkpt lat="46.20077" lon="6.76483">
        <ele>1703</ele>
        <time>2010-01-02T04:51:07Z</time>
      </trkpt>
      <trkpt lat="46.20078" lon="6.76482">
        <ele>1703</ele>
        <time>2010-01-02T04:51:07Z</time>
      </trkpt>
      <trkpt lat="46.20085" lon="6.76483">
        <ele>1686</ele>
        <time>2010-01-02T04:51:11Z</time>
      </trkpt>
      <trkpt lat="46.20092" lon="6.76487">
        <ele>1686</ele>
        <time>2010-01-02T04:51:13Z</time>
      </trkpt>
      <trkpt lat="46.20095" lon="6.76494">
        <ele>1686</ele>
        <time>2010-01-02T04:51:16Z</time>
      </trkpt>
      <trkpt lat="46.20095" lon="6.76495">
        <ele>1687</ele>
        <time>2010-01-02T04:51:16Z</time>
      </trkpt>
      <trkpt lat="46.20086" lon="6.76508">
        <ele>1689</ele>
        <time>2010-01-02T04:51:21Z</time>
      </trkpt>
      <trkpt lat="46.20105" lon="6.76537">
        <ele>1683</ele>
        <time>2010-01-02T04:51:33Z</time>
      </trkpt>
      <trkpt lat="46.20121" lon="6.76568">
        <ele>1682</ele>
        <time>2010-01-02T04:51:43Z</time>
      </trkpt>
      <trkpt lat="46.20126" lon="6.76589">
        <ele>1678</ele>
        <time>2010-01-02T04:51:50Z</time>
      </trkpt>
      <trkpt lat="46.20118" lon="6.76636">
        <ele>1676</ele>
        <time>2010-01-02T04:52:03Z</time>
      </trkpt>
      <trkpt lat="46.20112" lon="6.7666">
        <ele>1676</ele>
        <time>2010-01-02T04:52:10Z</time>
      </trkpt>
      <trkpt lat="46.20112" lon="6.76685">
        <ele>1669</ele>
        <time>2010-01-02T04:52:17Z</time>
      </trkpt>
      <trkpt lat="46.20112" lon="6.76685">
        <ele>1669</ele>
        <time>2010-01-02T04:52:17Z</time>
      </trkpt>
      <trkpt lat="46.20108" lon="6.76699">
        <ele>1668</ele>
        <time>2010-01-02T04:52:21Z</time>
      </trkpt>
      <trkpt lat="46.20107" lon="6.767">
        <ele>1668</ele>
        <time>2010-01-02T04:52:21Z</time>
      </trkpt>
      <trkpt lat="46.20097" lon="6.76723">
        <ele>1668</ele>
        <time>2010-01-02T04:52:29Z</time>
      </trkpt>
      <trkpt lat="46.20098" lon="6.76745">
        <ele>1669</ele>
        <time>2010-01-02T04:52:35Z</time>
      </trkpt>
      <trkpt lat="46.20098" lon="6.76745">
        <ele>1669</ele>
        <time>2010-01-02T04:52:35Z</time>
      </trkpt>
      <trkpt lat="46.20097" lon="6.76764">
        <ele>1665</ele>
        <time>2010-01-02T04:52:40Z</time>
      </trkpt>
      <trkpt lat="46.20097" lon="6.76767">
        <ele>1665</ele>
        <time>2010-01-02T04:52:41Z</time>
      </trkpt>
      <trkpt lat="46.20097" lon="6.76767">
        <ele>1665</ele>
        <time>2010-01-02T04:52:41Z</time>
      </trkpt>
      <trkpt lat="46.20099" lon="6.76786">
        <ele>1663</ele>
        <time>2010-01-02T04:52:47Z</time>
      </trkpt>
      <trkpt lat="46.20099" lon="6.76787">
        <ele>1663</ele>
        <time>2010-01-02T04:52:47Z</time>
      </trkpt>
      <trkpt lat="46.20101" lon="6.76805">
        <ele>1662</ele>
        <time>2010-01-02T04:52:52Z</time>
      </trkpt>
      <trkpt lat="46.20101" lon="6.76815">
        <ele>1663</ele>
        <time>2010-01-02T04:52:55Z</time>
      </trkpt>
      <trkpt lat="46.20124" lon="6.76822">
        <ele>1660</ele>
        <time>2010-01-02T04:53:04Z</time>
      </trkpt>
      <trkpt lat="46.20134" lon="6.7683">
        <ele>1659</ele>
        <time>2010-01-02T04:53:09Z</time>
      </trkpt>
      <trkpt lat="46.20139" lon="6.76842">
        <ele>1662</ele>
        <time>2010-01-02T04:53:13Z</time>
      </trkpt>
      <trkpt lat="46.20142" lon="6.76855">
        <ele>1663</ele>
        <time>2010-01-02T04:53:16Z</time>
      </trkpt>
      <trkpt lat="46.20143" lon="6.76857">
        <ele>1663</ele>
        <time>2010-01-02T04:53:17Z</time>
      </trkpt>
      <trkpt lat="46.20149" lon="6.76865">
        <ele>1664</ele>
        <time>2010-01-02T04:53:20Z</time>
      </trkpt>
      <trkpt lat="46.20151" lon="6.76866">
        <ele>1664</ele>
        <time>2010-01-02T04:53:21Z</time>
      </trkpt>
      <trkpt lat="46.20189" lon="6.76873">
        <ele>1656</ele>
        <time>2010-01-02T04:53:36Z</time>
      </trkpt>
      <trkpt lat="46.20203" lon="6.76879">
        <ele>1656</ele>
        <time>2010-01-02T04:53:42Z</time>
      </trkpt>
      <trkpt lat="46.20203" lon="6.76879">
        <ele>1656</ele>
        <time>2010-01-02T04:53:42Z</time>
      </trkpt>
      <trkpt lat="46.20216" lon="6.76882">
        <ele>1655</ele>
        <time>2010-01-02T04:53:48Z</time>
      </trkpt>
      <trkpt lat="46.20217" lon="6.76882">
        <ele>1655</ele>
        <time>2010-01-02T04:53:48Z</time>
      </trkpt>
      <trkpt lat="46.20227" lon="6.76886">
        <ele>1656</ele>
        <time>2010-01-02T04:53:52Z</time>
      </trkpt>
      <trkpt lat="46.20232" lon="6.76887">
        <ele>1656</ele>
        <time>2010-01-02T04:53:54Z</time>
      </trkpt>
      <trkpt lat="46.20294" lon="6.76883">
        <ele>1651</ele>
        <time>2010-01-02T04:54:19Z</time>
      </trkpt>
      <trkpt lat="46.20312" lon="6.76883">
        <ele>1652</ele>
        <time>2010-01-02T04:54:26Z</time>
      </trkpt>
      <trkpt lat="46.2032" lon="6.7688">
        <ele>1651</ele>
        <time>2010-01-02T04:54:29Z</time>
      </trkpt>
      <trkpt lat="46.20321" lon="6.7688">
        <ele>1651</ele>
        <time>2010-01-02T04:54:30Z</time>
      </trkpt>
      <trkpt lat="46.20333" lon="6.76877">
        <ele>1651</ele>
        <time>2010-01-02T04:54:35Z</time>
      </trkpt>
      <trkpt lat="46.20333" lon="6.76876">
        <ele>1651</ele>
        <time>2010-01-02T04:54:35Z</time>
      </trkpt>
      <trkpt lat="46.20348" lon="6.76874">
        <ele>1650</ele>
        <time>2010-01-02T04:54:41Z</time>
      </trkpt>
      <trkpt lat="46.20349" lon="6.76873">
        <ele>1650</ele>
        <time>2010-01-02T04:54:41Z</time>
      </trkpt>
      <trkpt lat="46.2039" lon="6.76862">
        <ele>1648</ele>
        <time>2010-01-02T04:54:58Z</time>
      </trkpt>
      <trkpt lat="46.20413" lon="6.76851">
        <ele>1646</ele>
        <time>2010-01-02T04:55:08Z</time>
      </trkpt>
      <trkpt lat="46.20426" lon="6.7684">
        <ele>1643</ele>
        <time>2010-01-02T04:55:14Z</time>
      </trkpt>
      <trkpt lat="46.20439" lon="6.76834">
        <ele>1642</ele>
        <time>2010-01-02T04:55:19Z</time>
      </trkpt>
      <trkpt lat="46.20448" lon="6.76839">
        <ele>1642</ele>
        <time>2010-01-02T04:55:23Z</time>
      </trkpt>
      <trkpt lat="46.20449" lon="6.76839">
        <ele>1642</ele>
        <time>2010-01-02T04:55:24Z</time>
      </trkpt>
      <trkpt lat="46.20457" lon="6.76851">
        <ele>1642</ele>
        <time>2010-01-02T04:55:28Z</time>
      </trkpt>
      <trkpt lat="46.20477" lon="6.7686">
        <ele>1641</ele>
        <time>2010-01-02T04:55:37Z</time>
      </trkpt>
      <trkpt lat="46.20485" lon="6.76861">
        <ele>1641</ele>
        <time>2010-01-02T04:55:40Z</time>
      </trkpt>
      <trkpt lat="46.20497" lon="6.76879">
        <ele>1641</ele>
        <time>2010-01-02T04:55:47Z</time>
      </trkpt>
      <trkpt lat="46.20497" lon="6.76915">
        <ele>1638</ele>
        <time>2010-01-02T04:55:57Z</time>
      </trkpt>
      <trkpt lat="46.20499" lon="6.76934">
        <ele>1642</ele>
        <time>2010-01-02T04:56:02Z</time>
      </trkpt>
      <trkpt lat="46.20499" lon="6.76937">
        <ele>1642</ele>
        <time>2010-01-02T04:56:03Z</time>
      </trkpt>
      <trkpt lat="46.20499" lon="6.76941">
        <ele>1643</ele>
        <time>2010-01-02T04:56:04Z</time>
      </trkpt>
      <trkpt lat="46.20498" lon="6.76972">
        <ele>1643</ele>
        <time>2010-01-02T04:56:13Z</time>
      </trkpt>
      <trkpt lat="46.20496" lon="6.76987">
        <ele>1641</ele>
        <time>2010-01-02T04:56:17Z</time>
      </trkpt>
      <trkpt lat="46.20499" lon="6.77067">
        <ele>1638</ele>
        <time>2010-01-02T04:56:39Z</time>
      </trkpt>
      <trkpt lat="46.20499" lon="6.77094">
        <ele>1634</ele>
        <time>2010-01-02T04:56:47Z</time>
      </trkpt>
      <trkpt lat="46.20496" lon="6.77108">
        <ele>1637</ele>
        <time>2010-01-02T04:56:51Z</time>
      </trkpt>
      <trkpt lat="46.20494" lon="6.77132">
        <ele>1636</ele>
        <time>2010-01-02T04:56:57Z</time>
      </trkpt>
      <trkpt lat="46.20494" lon="6.77135">
        <ele>1636</ele>
        <time>2010-01-02T04:56:58Z</time>
      </trkpt>
      <trkpt lat="46.20492" lon="6.77154">
        <ele>1633</ele>
        <time>2010-01-02T04:57:03Z</time>
      </trkpt>
      <trkpt lat="46.20492" lon="6.77156">
        <ele>1632</ele>
        <time>2010-01-02T04:57:04Z</time>
      </trkpt>
      <trkpt lat="46.20491" lon="6.77172">
        <ele>1630</ele>
        <time>2010-01-02T04:57:08Z</time>
      </trkpt>
      <trkpt lat="46.20491" lon="6.77173">
        <ele>1630</ele>
        <time>2010-01-02T04:57:09Z</time>
      </trkpt>
      <trkpt lat="46.2049" lon="6.77185">
        <ele>1632</ele>
        <time>2010-01-02T04:57:12Z</time>
      </trkpt>
      <trkpt lat="46.20484" lon="6.77218">
        <ele>1633</ele>
        <time>2010-01-02T04:57:21Z</time>
      </trkpt>
      <trkpt lat="46.20487" lon="6.77235">
        <ele>1631</ele>
        <time>2010-01-02T04:57:26Z</time>
      </trkpt>
      <trkpt lat="46.20488" lon="6.77237">
        <ele>1630</ele>
        <time>2010-01-02T04:57:27Z</time>
      </trkpt>
      <trkpt lat="46.20487" lon="6.77257">
        <ele>1626</ele>
        <time>2010-01-02T04:57:33Z</time>
      </trkpt>
      <trkpt lat="46.20487" lon="6.77259">
        <ele>1626</ele>
        <time>2010-01-02T04:57:33Z</time>
      </trkpt>
      <trkpt lat="46.20465" lon="6.7732">
        <ele>1625</ele>
        <time>2010-01-02T04:57:52Z</time>
      </trkpt>
      <trkpt lat="46.20457" lon="6.77343">
        <ele>1614</ele>
        <time>2010-01-02T04:58:00Z</time>
      </trkpt>
      <trkpt lat="46.20449" lon="6.77357">
        <ele>1614</ele>
        <time>2010-01-02T04:58:04Z</time>
      </trkpt>
      <trkpt lat="46.20441" lon="6.77368">
        <ele>1614</ele>
        <time>2010-01-02T04:58:09Z</time>
      </trkpt>
      <trkpt lat="46.2044" lon="6.77371">
        <ele>1613</ele>
        <time>2010-01-02T04:58:10Z</time>
      </trkpt>
      <trkpt lat="46.20427" lon="6.77391">
        <ele>1612</ele>
        <time>2010-01-02T04:58:17Z</time>
      </trkpt>
      <trkpt lat="46.20426" lon="6.77392">
        <ele>1612</ele>
        <time>2010-01-02T04:58:18Z</time>
      </trkpt>
      <trkpt lat="46.20415" lon="6.77407">
        <ele>1619</ele>
        <time>2010-01-02T04:58:24Z</time>
      </trkpt>
      <trkpt lat="46.20414" lon="6.77409">
        <ele>1618</ele>
        <time>2010-01-02T04:58:24Z</time>
      </trkpt>
      <trkpt lat="46.204" lon="6.77427">
        <ele>1615</ele>
        <time>2010-01-02T04:58:32Z</time>
      </trkpt>
      <trkpt lat="46.20399" lon="6.77431">
        <ele>1615</ele>
        <time>2010-01-02T04:58:33Z</time>
      </trkpt>
      <trkpt lat="46.20386" lon="6.77448">
        <ele>1616</ele>
        <time>2010-01-02T04:58:40Z</time>
      </trkpt>
      <trkpt lat="46.20384" lon="6.77453">
        <ele>1616</ele>
        <time>2010-01-02T04:58:42Z</time>
      </trkpt>
      <trkpt lat="46.20371" lon="6.77472">
        <ele>1617</ele>
        <time>2010-01-02T04:58:49Z</time>
      </trkpt>
      <trkpt lat="46.20363" lon="6.77488">
        <ele>1618</ele>
        <time>2010-01-02T04:58:55Z</time>
      </trkpt>
      <trkpt lat="46.20361" lon="6.77492">
        <ele>1618</ele>
        <time>2010-01-02T04:58:56Z</time>
      </trkpt>
      <trkpt lat="46.2036" lon="6.77505">
        <ele>1612</ele>
        <time>2010-01-02T04:59:00Z</time>
      </trkpt>
      <trkpt lat="46.2036" lon="6.77505">
        <ele>1612</ele>
        <time>2010-01-02T04:59:00Z</time>
      </trkpt>
      <trkpt lat="46.2036" lon="6.77511">
        <ele>1611</ele>
        <time>2010-01-02T04:59:01Z</time>
      </trkpt>
      <trkpt lat="46.20362" lon="6.77523">
        <ele>1609</ele>
        <time>2010-01-02T04:59:05Z</time>
      </trkpt>
      <trkpt lat="46.20363" lon="6.77546">
        <ele>1607</ele>
        <time>2010-01-02T04:59:11Z</time>
      </trkpt>
      <trkpt lat="46.20357" lon="6.77573">
        <ele>1609</ele>
        <time>2010-01-02T04:59:19Z</time>
      </trkpt>
      <trkpt lat="46.20358" lon="6.77592">
        <ele>1607</ele>
        <time>2010-01-02T04:59:24Z</time>
      </trkpt>
      <trkpt lat="46.20362" lon="6.77605">
        <ele>1605</ele>
        <time>2010-01-02T04:59:28Z</time>
      </trkpt>
      <trkpt lat="46.20366" lon="6.77621">
        <ele>1603</ele>
        <time>2010-01-02T04:59:33Z</time>
      </trkpt>
      <trkpt lat="46.20367" lon="6.77622">
        <ele>1603</ele>
        <time>2010-01-02T04:59:33Z</time>
      </trkpt>
      <trkpt lat="46.20372" lon="6.77638">
        <ele>1602</ele>
        <time>2010-01-02T04:59:38Z</time>
      </trkpt>
      <trkpt lat="46.20391" lon="6.77667">
        <ele>1598</ele>
        <time>2010-01-02T04:59:49Z</time>
      </trkpt>
      <trkpt lat="46.20388" lon="6.77687">
        <ele>1597</ele>
        <time>2010-01-02T04:59:55Z</time>
      </trkpt>
      <trkpt lat="46.20379" lon="6.77698">
        <ele>1599</ele>
        <time>2010-01-02T05:00:00Z</time>
      </trkpt>
      <trkpt lat="46.20374" lon="6.77711">
        <ele>1599</ele>
        <time>2010-01-02T05:00:04Z</time>
      </trkpt>
      <trkpt lat="46.20372" lon="6.77714">
        <ele>1599</ele>
        <time>2010-01-02T05:00:05Z</time>
      </trkpt>
      <trkpt lat="46.20359" lon="6.77736">
        <ele>1601</ele>
        <time>2010-01-02T05:00:13Z</time>
      </trkpt>
      <trkpt lat="46.20351" lon="6.77748">
        <ele>1603</ele>
        <time>2010-01-02T05:00:18Z</time>
      </trkpt>
      <trkpt lat="46.20338" lon="6.77776">
        <ele>1601</ele>
        <time>2010-01-02T05:00:27Z</time>
      </trkpt>
      <trkpt lat="46.20333" lon="6.77801">
        <ele>1600</ele>
        <time>2010-01-02T05:00:34Z</time>
      </trkpt>
      <trkpt lat="46.20333" lon="6.77817">
        <ele>1602</ele>
        <time>2010-01-02T05:00:39Z</time>
      </trkpt>
      <trkpt lat="46.20333" lon="6.77818">
        <ele>1615</ele>
        <time>2010-01-02T05:00:39Z</time>
      </trkpt>
      <trkpt lat="46.20338" lon="6.77839">
        <ele>1605</ele>
        <time>2010-01-02T05:00:45Z</time>
      </trkpt>
      <trkpt lat="46.20338" lon="6.7784">
        <ele>1604</ele>
        <time>2010-01-02T05:00:45Z</time>
      </trkpt>
      <trkpt lat="46.20342" lon="6.77856">
        <ele>1601</ele>
        <time>2010-01-02T05:00:50Z</time>
      </trkpt>
      <trkpt lat="46.20342" lon="6.77857">
        <ele>1600</ele>
        <time>2010-01-02T05:00:50Z</time>
      </trkpt>
      <trkpt lat="46.20344" lon="6.77871">
        <ele>1599</ele>
        <time>2010-01-02T05:00:54Z</time>
      </trkpt>
      <trkpt lat="46.20345" lon="6.77874">
        <ele>1599</ele>
        <time>2010-01-02T05:00:55Z</time>
      </trkpt>
      <trkpt lat="46.20345" lon="6.77878">
        <ele>1599</ele>
        <time>2010-01-02T05:00:56Z</time>
      </trkpt>
      <trkpt lat="46.20346" lon="6.779">
        <ele>1601</ele>
        <time>2010-01-02T05:01:02Z</time>
      </trkpt>
      <trkpt lat="46.20346" lon="6.77904">
        <ele>1602</ele>
        <time>2010-01-02T05:01:03Z</time>
      </trkpt>
      <trkpt lat="46.20342" lon="6.77914">
        <ele>1604</ele>
        <time>2010-01-02T05:01:07Z</time>
      </trkpt>
      <trkpt lat="46.20341" lon="6.77917">
        <ele>1605</ele>
        <time>2010-01-02T05:01:08Z</time>
      </trkpt>
      <trkpt lat="46.2034" lon="6.77919">
        <ele>1605</ele>
        <time>2010-01-02T05:01:08Z</time>
      </trkpt>
      <trkpt lat="46.20333" lon="6.77928">
        <ele>1609</ele>
        <time>2010-01-02T05:01:12Z</time>
      </trkpt>
      <trkpt lat="46.20332" lon="6.77928">
        <ele>1609</ele>
        <time>2010-01-02T05:01:12Z</time>
      </trkpt>
      <trkpt lat="46.2033" lon="6.77929">
        <ele>1609</ele>
        <time>2010-01-02T05:01:13Z</time>
      </trkpt>
      <trkpt lat="46.20328" lon="6.7793">
        <ele>1609</ele>
        <time>2010-01-02T05:01:14Z</time>
      </trkpt>
      <trkpt lat="46.20324" lon="6.77932">
        <ele>1609</ele>
        <time>2010-01-02T05:01:16Z</time>
      </trkpt>
      <trkpt lat="46.20323" lon="6.77933">
        <ele>1609</ele>
        <time>2010-01-02T05:01:16Z</time>
      </trkpt>
      <trkpt lat="46.20321" lon="6.77936">
        <ele>1609</ele>
        <time>2010-01-02T05:01:17Z</time>
      </trkpt>
      <trkpt lat="46.20319" lon="6.7794">
        <ele>1609</ele>
        <time>2010-01-02T05:01:19Z</time>
      </trkpt>
      <trkpt lat="46.20318" lon="6.77941">
        <ele>1609</ele>
        <time>2010-01-02T05:01:19Z</time>
      </trkpt>
      <trkpt lat="46.20303" lon="6.77949">
        <ele>1610</ele>
        <time>2010-01-02T05:01:26Z</time>
      </trkpt>
      <trkpt lat="46.20298" lon="6.77958">
        <ele>1610</ele>
        <time>2010-01-02T05:01:29Z</time>
      </trkpt>
      <trkpt lat="46.20298" lon="6.7796">
        <ele>1610</ele>
        <time>2010-01-02T05:01:30Z</time>
      </trkpt>
      <trkpt lat="46.20294" lon="6.77974">
        <ele>1609</ele>
        <time>2010-01-02T05:01:34Z</time>
      </trkpt>
      <trkpt lat="46.20293" lon="6.77977">
        <ele>1609</ele>
        <time>2010-01-02T05:01:34Z</time>
      </trkpt>
      <trkpt lat="46.20288" lon="6.77995">
        <ele>1608</ele>
        <time>2010-01-02T05:01:40Z</time>
      </trkpt>
      <trkpt lat="46.20289" lon="6.78011">
        <ele>1601</ele>
        <time>2010-01-02T05:01:44Z</time>
      </trkpt>
      <trkpt lat="46.20285" lon="6.78036">
        <ele>1600</ele>
        <time>2010-01-02T05:01:52Z</time>
      </trkpt>
      <trkpt lat="46.20269" lon="6.78048">
        <ele>1600</ele>
        <time>2010-01-02T05:01:59Z</time>
      </trkpt>
      <trkpt lat="46.20264" lon="6.78055">
        <ele>1600</ele>
        <time>2010-01-02T05:02:02Z</time>
      </trkpt>
      <trkpt lat="46.20247" lon="6.78075">
        <ele>1604</ele>
        <time>2010-01-02T05:02:10Z</time>
      </trkpt>
      <trkpt lat="46.20236" lon="6.7809">
        <ele>1603</ele>
        <time>2010-01-02T05:02:16Z</time>
      </trkpt>
      <trkpt lat="46.20232" lon="6.781">
        <ele>1605</ele>
        <time>2010-01-02T05:02:20Z</time>
      </trkpt>
      <trkpt lat="46.20228" lon="6.78115">
        <ele>1606</ele>
        <time>2010-01-02T05:02:24Z</time>
      </trkpt>
      <trkpt lat="46.20227" lon="6.78124">
        <ele>1606</ele>
        <time>2010-01-02T05:02:26Z</time>
      </trkpt>
      <trkpt lat="46.20226" lon="6.78125">
        <ele>1606</ele>
        <time>2010-01-02T05:02:27Z</time>
      </trkpt>
      <trkpt lat="46.20219" lon="6.78148">
        <ele>1605</ele>
        <time>2010-01-02T05:02:34Z</time>
      </trkpt>
      <trkpt lat="46.20216" lon="6.78154">
        <ele>1605</ele>
        <time>2010-01-02T05:02:36Z</time>
      </trkpt>
      <trkpt lat="46.20205" lon="6.78184">
        <ele>1600</ele>
        <time>2010-01-02T05:02:45Z</time>
      </trkpt>
      <trkpt lat="46.20204" lon="6.78189">
        <ele>1600</ele>
        <time>2010-01-02T05:02:47Z</time>
      </trkpt>
      <trkpt lat="46.20203" lon="6.78191">
        <ele>1600</ele>
        <time>2010-01-02T05:02:47Z</time>
      </trkpt>
      <trkpt lat="46.20202" lon="6.78192">
        <ele>1600</ele>
        <time>2010-01-02T05:02:48Z</time>
      </trkpt>
      <trkpt lat="46.20145" lon="6.78273">
        <ele>1608</ele>
        <time>2010-01-02T05:03:20Z</time>
      </trkpt>
      <trkpt lat="46.20131" lon="6.7828">
        <ele>1610</ele>
        <time>2010-01-02T05:03:26Z</time>
      </trkpt>
      <trkpt lat="46.20121" lon="6.78291">
        <ele>1610</ele>
        <time>2010-01-02T05:03:31Z</time>
      </trkpt>
      <trkpt lat="46.20116" lon="6.78309">
        <ele>1609</ele>
        <time>2010-01-02T05:03:36Z</time>
      </trkpt>
      <trkpt lat="46.20112" lon="6.78319">
        <ele>1609</ele>
        <time>2010-01-02T05:03:39Z</time>
      </trkpt>
      <trkpt lat="46.20111" lon="6.78334">
        <ele>1598</ele>
        <time>2010-01-02T05:03:43Z</time>
      </trkpt>
      <trkpt lat="46.20108" lon="6.78341">
        <ele>1599</ele>
        <time>2010-01-02T05:03:46Z</time>
      </trkpt>
      <trkpt lat="46.20091" lon="6.78372">
        <ele>1597</ele>
        <time>2010-01-02T05:03:57Z</time>
      </trkpt>
      <trkpt lat="46.20082" lon="6.78396">
        <ele>1610</ele>
        <time>2010-01-02T05:04:04Z</time>
      </trkpt>
      <trkpt lat="46.20078" lon="6.78417">
        <ele>1601</ele>
        <time>2010-01-02T05:04:10Z</time>
      </trkpt>
      <trkpt lat="46.20068" lon="6.78441">
        <ele>1604</ele>
        <time>2010-01-02T05:04:18Z</time>
      </trkpt>
      <trkpt lat="46.20064" lon="6.78463">
        <ele>1603</ele>
        <time>2010-01-02T05:04:24Z</time>
      </trkpt>
      <trkpt lat="46.20056" lon="6.78478">
        <ele>1603</ele>
        <time>2010-01-02T05:04:30Z</time>
      </trkpt>
      <trkpt lat="46.20049" lon="6.78505">
        <ele>1595</ele>
        <time>2010-01-02T05:04:37Z</time>
      </trkpt>
      <trkpt lat="46.20044" lon="6.78513">
        <ele>1595</ele>
        <time>2010-01-02T05:04:41Z</time>
      </trkpt>
      <trkpt lat="46.2004" lon="6.78524">
        <ele>1595</ele>
        <time>2010-01-02T05:04:44Z</time>
      </trkpt>
      <trkpt lat="46.20038" lon="6.78536">
        <ele>1595</ele>
        <time>2010-01-02T05:04:47Z</time>
      </trkpt>
      <trkpt lat="46.20034" lon="6.78552">
        <ele>1594</ele>
        <time>2010-01-02T05:04:52Z</time>
      </trkpt>
      <trkpt lat="46.2003" lon="6.78561">
        <ele>1594</ele>
        <time>2010-01-02T05:04:55Z</time>
      </trkpt>
      <trkpt lat="46.20027" lon="6.7857">
        <ele>1593</ele>
        <time>2010-01-02T05:04:58Z</time>
      </trkpt>
      <trkpt lat="46.20024" lon="6.78578">
        <ele>1593</ele>
        <time>2010-01-02T05:05:00Z</time>
      </trkpt>
      <trkpt lat="46.2002" lon="6.78584">
        <ele>1590</ele>
        <time>2010-01-02T05:05:03Z</time>
      </trkpt>
      <trkpt lat="46.20017" lon="6.78588">
        <ele>1590</ele>
        <time>2010-01-02T05:05:04Z</time>
      </trkpt>
      <trkpt lat="46.20013" lon="6.78589">
        <ele>1591</ele>
        <time>2010-01-02T05:05:06Z</time>
      </trkpt>
      <trkpt lat="46.20005" lon="6.78591">
        <ele>1592</ele>
        <time>2010-01-02T05:05:09Z</time>
      </trkpt>
      <trkpt lat="46.19992" lon="6.78582">
        <ele>1598</ele>
        <time>2010-01-02T05:05:15Z</time>
      </trkpt>
      <trkpt lat="46.19984" lon="6.78579">
        <ele>1600</ele>
        <time>2010-01-02T05:05:18Z</time>
      </trkpt>
      <trkpt lat="46.19954" lon="6.78582">
        <ele>1603</ele>
        <time>2010-01-02T05:05:30Z</time>
      </trkpt>
      <trkpt lat="46.19943" lon="6.78582">
        <ele>1602</ele>
        <time>2010-01-02T05:05:35Z</time>
      </trkpt>
      <trkpt lat="46.19931" lon="6.78586">
        <ele>1596</ele>
        <time>2010-01-02T05:05:39Z</time>
      </trkpt>
      <trkpt lat="46.19921" lon="6.78586">
        <ele>1597</ele>
        <time>2010-01-02T05:05:43Z</time>
      </trkpt>
      <trkpt lat="46.19908" lon="6.78596">
        <ele>1598</ele>
        <time>2010-01-02T05:05:49Z</time>
      </trkpt>
      <trkpt lat="46.19905" lon="6.78609">
        <ele>1597</ele>
        <time>2010-01-02T05:05:53Z</time>
      </trkpt>
      <trkpt lat="46.19897" lon="6.78634">
        <ele>1595</ele>
        <time>2010-01-02T05:06:01Z</time>
      </trkpt>
      <trkpt lat="46.19894" lon="6.78651">
        <ele>1593</ele>
        <time>2010-01-02T05:06:06Z</time>
      </trkpt>
      <trkpt lat="46.19891" lon="6.78664">
        <ele>1592</ele>
        <time>2010-01-02T05:06:09Z</time>
      </trkpt>
      <trkpt lat="46.19887" lon="6.78673">
        <ele>1588</ele>
        <time>2010-01-02T05:06:12Z</time>
      </trkpt>
      <trkpt lat="46.19885" lon="6.78686">
        <ele>1588</ele>
        <time>2010-01-02T05:06:16Z</time>
      </trkpt>
      <trkpt lat="46.19876" lon="6.787">
        <ele>1589</ele>
        <time>2010-01-02T05:06:21Z</time>
      </trkpt>
      <trkpt lat="46.19876" lon="6.78702">
        <ele>1589</ele>
        <time>2010-01-02T05:06:22Z</time>
      </trkpt>
      <trkpt lat="46.19879" lon="6.78735">
        <ele>1588</ele>
        <time>2010-01-02T05:06:31Z</time>
      </trkpt>
      <trkpt lat="46.19882" lon="6.78755">
        <ele>1589</ele>
        <time>2010-01-02T05:06:37Z</time>
      </trkpt>
      <trkpt lat="46.19901" lon="6.7876">
        <ele>1588</ele>
        <time>2010-01-02T05:06:44Z</time>
      </trkpt>
      <trkpt lat="46.19919" lon="6.78761">
        <ele>1588</ele>
        <time>2010-01-02T05:06:52Z</time>
      </trkpt>
      <trkpt lat="46.1992" lon="6.78761">
        <ele>1588</ele>
        <time>2010-01-02T05:06:52Z</time>
      </trkpt>
      <trkpt lat="46.19937" lon="6.78765">
        <ele>1591</ele>
        <time>2010-01-02T05:06:59Z</time>
      </trkpt>
      <trkpt lat="46.19952" lon="6.78759">
        <ele>1592</ele>
        <time>2010-01-02T05:07:05Z</time>
      </trkpt>
      <trkpt lat="46.19963" lon="6.78756">
        <ele>1593</ele>
        <time>2010-01-02T05:07:10Z</time>
      </trkpt>
      <trkpt lat="46.19965" lon="6.78755">
        <ele>1593</ele>
        <time>2010-01-02T05:07:10Z</time>
      </trkpt>
      <trkpt lat="46.19986" lon="6.7875">
        <ele>1590</ele>
        <time>2010-01-02T05:07:19Z</time>
      </trkpt>
      <trkpt lat="46.19997" lon="6.78739">
        <ele>1591</ele>
        <time>2010-01-02T05:07:24Z</time>
      </trkpt>
      <trkpt lat="46.19999" lon="6.78736">
        <ele>1590</ele>
        <time>2010-01-02T05:07:26Z</time>
      </trkpt>
      <trkpt lat="46.20013" lon="6.78724">
        <ele>1591</ele>
        <time>2010-01-02T05:07:32Z</time>
      </trkpt>
      <trkpt lat="46.20015" lon="6.78723">
        <ele>1591</ele>
        <time>2010-01-02T05:07:33Z</time>
      </trkpt>
      <trkpt lat="46.20056" lon="6.7872">
        <ele>1591</ele>
        <time>2010-01-02T05:07:49Z</time>
      </trkpt>
      <trkpt lat="46.20076" lon="6.78723">
        <ele>1592</ele>
        <time>2010-01-02T05:07:57Z</time>
      </trkpt>
      <trkpt lat="46.20103" lon="6.78723">
        <ele>1592</ele>
        <time>2010-01-02T05:08:08Z</time>
      </trkpt>
      <trkpt lat="46.20107" lon="6.78727">
        <ele>1592</ele>
        <time>2010-01-02T05:08:10Z</time>
      </trkpt>
      <trkpt lat="46.2012" lon="6.78735">
        <ele>1591</ele>
        <time>2010-01-02T05:08:16Z</time>
      </trkpt>
      <trkpt lat="46.20134" lon="6.78739">
        <ele>1591</ele>
        <time>2010-01-02T05:08:21Z</time>
      </trkpt>
      <trkpt lat="46.20135" lon="6.78739">
        <ele>1591</ele>
        <time>2010-01-02T05:08:22Z</time>
      </trkpt>
      <trkpt lat="46.2015" lon="6.78733">
        <ele>1590</ele>
        <time>2010-01-02T05:08:28Z</time>
      </trkpt>
      <trkpt lat="46.20166" lon="6.78736">
        <ele>1591</ele>
        <time>2010-01-02T05:08:35Z</time>
      </trkpt>
      <trkpt lat="46.20177" lon="6.78735">
        <ele>1588</ele>
        <time>2010-01-02T05:08:39Z</time>
      </trkpt>
      <trkpt lat="46.20205" lon="6.78744">
        <ele>1586</ele>
        <time>2010-01-02T05:08:50Z</time>
      </trkpt>
      <trkpt lat="46.20228" lon="6.78742">
        <ele>1585</ele>
        <time>2010-01-02T05:09:00Z</time>
      </trkpt>
      <trkpt lat="46.20249" lon="6.78733">
        <ele>1585</ele>
        <time>2010-01-02T05:09:08Z</time>
      </trkpt>
      <trkpt lat="46.20265" lon="6.78715">
        <ele>1582</ele>
        <time>2010-01-02T05:09:17Z</time>
      </trkpt>
      <trkpt lat="46.20325" lon="6.78663">
        <ele>1575</ele>
        <time>2010-01-02T05:09:44Z</time>
      </trkpt>
      <trkpt lat="46.20356" lon="6.78636">
        <ele>1579</ele>
        <time>2010-01-02T05:09:59Z</time>
      </trkpt>
      <trkpt lat="46.20379" lon="6.78602">
        <ele>1579</ele>
        <time>2010-01-02T05:10:12Z</time>
      </trkpt>
      <trkpt lat="46.20396" lon="6.7857">
        <ele>1571</ele>
        <time>2010-01-02T05:10:24Z</time>
      </trkpt>
      <trkpt lat="46.2045" lon="6.7853">
        <ele>1579</ele>
        <time>2010-01-02T05:10:48Z</time>
      </trkpt>
      <trkpt lat="46.20466" lon="6.785">
        <ele>1578</ele>
        <time>2010-01-02T05:10:58Z</time>
      </trkpt>
      <trkpt lat="46.20486" lon="6.78477">
        <ele>1568</ele>
        <time>2010-01-02T05:11:08Z</time>
      </trkpt>
      <trkpt lat="46.20515" lon="6.78445">
        <ele>1575</ele>
        <time>2010-01-02T05:11:23Z</time>
      </trkpt>
      <trkpt lat="46.20535" lon="6.78407">
        <ele>1564</ele>
        <time>2010-01-02T05:11:36Z</time>
      </trkpt>
      <trkpt lat="46.20533" lon="6.78383">
        <ele>1563</ele>
        <time>2010-01-02T05:11:43Z</time>
      </trkpt>
      <trkpt lat="46.20534" lon="6.78367">
        <ele>1562</ele>
        <time>2010-01-02T05:11:47Z</time>
      </trkpt>
      <trkpt lat="46.20536" lon="6.78348">
        <ele>1561</ele>
        <time>2010-01-02T05:11:53Z</time>
      </trkpt>
      <trkpt lat="46.2054" lon="6.78329">
        <ele>1555</ele>
        <time>2010-01-02T05:11:58Z</time>
      </trkpt>
      <trkpt lat="46.20549" lon="6.78307">
        <ele>1555</ele>
        <time>2010-01-02T05:12:05Z</time>
      </trkpt>
      <trkpt lat="46.20551" lon="6.78304">
        <ele>1555</ele>
        <time>2010-01-02T05:12:06Z</time>
      </trkpt>
      <trkpt lat="46.20565" lon="6.78276">
        <ele>1553</ele>
        <time>2010-01-02T05:12:16Z</time>
      </trkpt>
      <trkpt lat="46.20568" lon="6.78271">
        <ele>1553</ele>
        <time>2010-01-02T05:12:18Z</time>
      </trkpt>
      <trkpt lat="46.206" lon="6.78219">
        <ele>1547</ele>
        <time>2010-01-02T05:12:37Z</time>
      </trkpt>
      <trkpt lat="46.20601" lon="6.78219">
        <ele>1547</ele>
        <time>2010-01-02T05:12:37Z</time>
      </trkpt>
      <trkpt lat="46.20652" lon="6.78133">
        <ele>1535</ele>
        <time>2010-01-02T05:13:09Z</time>
      </trkpt>
      <trkpt lat="46.20678" lon="6.78096">
        <ele>1533</ele>
        <time>2010-01-02T05:13:23Z</time>
      </trkpt>
      <trkpt lat="46.20703" lon="6.78049">
        <ele>1527</ele>
        <time>2010-01-02T05:13:40Z</time>
      </trkpt>
      <trkpt lat="46.2072" lon="6.78016">
        <ele>1526</ele>
        <time>2010-01-02T05:13:51Z</time>
      </trkpt>
      <trkpt lat="46.20731" lon="6.77989">
        <ele>1520</ele>
        <time>2010-01-02T05:14:00Z</time>
      </trkpt>
      <trkpt lat="46.20736" lon="6.77966">
        <ele>1518</ele>
        <time>2010-01-02T05:14:06Z</time>
      </trkpt>
      <trkpt lat="46.20746" lon="6.77937">
        <ele>1516</ele>
        <time>2010-01-02T05:14:15Z</time>
      </trkpt>
      <trkpt lat="46.20701" lon="6.77803">
        <ele>1502</ele>
        <time>2010-01-02T05:14:57Z</time>
      </trkpt>
      <trkpt lat="46.20754" lon="6.77942">
        <ele>1523</ele>
        <time>2010-01-02T05:15:41Z</time>
      </trkpt>
      <trkpt lat="46.20825" lon="6.78131">
        <ele>1558</ele>
        <time>2010-01-02T05:16:40Z</time>
      </trkpt>
      <trkpt lat="46.20891" lon="6.78305">
        <ele>1619</ele>
        <time>2010-01-02T05:17:35Z</time>
      </trkpt>
      <trkpt lat="46.20926" lon="6.78411">
        <ele>1675</ele>
        <time>2010-01-02T05:18:08Z</time>
      </trkpt>
      <trkpt lat="46.20951" lon="6.78431">
        <ele>1699</ele>
        <time>2010-01-02T05:18:19Z</time>
      </trkpt>
      <trkpt lat="46.21016" lon="6.78604">
        <ele>1778</ele>
        <time>2010-01-02T05:19:14Z</time>
      </trkpt>
      <trkpt lat="46.2104" lon="6.78683">
        <ele>1803</ele>
        <time>2010-01-02T05:19:38Z</time>
      </trkpt>
      <trkpt lat="46.21103" lon="6.78849">
        <ele>1855</ele>
        <time>2010-01-02T05:20:30Z</time>
      </trkpt>
      <trkpt lat="46.2117" lon="6.79029">
        <ele>1905</ele>
        <time>2010-01-02T05:21:27Z</time>
      </trkpt>
      <trkpt lat="46.21175" lon="6.7903">
        <ele>1905</ele>
        <time>2010-01-02T05:21:29Z</time>
      </trkpt>
      <trkpt lat="46.21181" lon="6.79038">
        <ele>1906</ele>
        <time>2010-01-02T05:21:32Z</time>
      </trkpt>
      <trkpt lat="46.21195" lon="6.79032">
        <ele>1905</ele>
        <time>2010-01-02T05:21:38Z</time>
      </trkpt>
      <trkpt lat="46.21213" lon="6.79024">
        <ele>1904</ele>
        <time>2010-01-02T05:21:46Z</time>
      </trkpt>
      <trkpt lat="46.2122" lon="6.79021">
        <ele>1904</ele>
        <time>2010-01-02T05:21:48Z</time>
      </trkpt>
      <trkpt lat="46.21255" lon="6.78992">
        <ele>1901</ele>
        <time>2010-01-02T05:22:04Z</time>
      </trkpt>
      <trkpt lat="46.21257" lon="6.7899">
        <ele>1900</ele>
        <time>2010-01-02T05:22:06Z</time>
      </trkpt>
      <trkpt lat="46.2126" lon="6.78979">
        <ele>1897</ele>
        <time>2010-01-02T05:22:09Z</time>
      </trkpt>
      <trkpt lat="46.21277" lon="6.78947">
        <ele>1894</ele>
        <time>2010-01-02T05:22:20Z</time>
      </trkpt>
      <trkpt lat="46.21293" lon="6.78917">
        <ele>1893</ele>
        <time>2010-01-02T05:22:30Z</time>
      </trkpt>
      <trkpt lat="46.21293" lon="6.78917">
        <ele>1895</ele>
        <time>2010-01-02T05:22:30Z</time>
      </trkpt>
      <trkpt lat="46.213" lon="6.78891">
        <ele>1895</ele>
        <time>2010-01-02T05:22:38Z</time>
      </trkpt>
      <trkpt lat="46.213" lon="6.78891">
        <ele>1895</ele>
        <time>2010-01-02T05:22:38Z</time>
      </trkpt>
      <trkpt lat="46.21316" lon="6.78859">
        <ele>1896</ele>
        <time>2010-01-02T05:22:49Z</time>
      </trkpt>
      <trkpt lat="46.21325" lon="6.78846">
        <ele>1898</ele>
        <time>2010-01-02T05:22:54Z</time>
      </trkpt>
      <trkpt lat="46.21326" lon="6.78845">
        <ele>1898</ele>
        <time>2010-01-02T05:22:55Z</time>
      </trkpt>
      <trkpt lat="46.21346" lon="6.78817">
        <ele>1894</ele>
        <time>2010-01-02T05:23:06Z</time>
      </trkpt>
      <trkpt lat="46.21368" lon="6.78782">
        <ele>1889</ele>
        <time>2010-01-02T05:23:19Z</time>
      </trkpt>
      <trkpt lat="46.21375" lon="6.78756">
        <ele>1889</ele>
        <time>2010-01-02T05:23:27Z</time>
      </trkpt>
      <trkpt lat="46.21386" lon="6.78735">
        <ele>1889</ele>
        <time>2010-01-02T05:23:34Z</time>
      </trkpt>
      <trkpt lat="46.21397" lon="6.78706">
        <ele>1889</ele>
        <time>2010-01-02T05:23:43Z</time>
      </trkpt>
      <trkpt lat="46.21413" lon="6.78682">
        <ele>1891</ele>
        <time>2010-01-02T05:23:52Z</time>
      </trkpt>
      <trkpt lat="46.21443" lon="6.78653">
        <ele>1884</ele>
        <time>2010-01-02T05:24:06Z</time>
      </trkpt>
      <trkpt lat="46.2146" lon="6.78629">
        <ele>1882</ele>
        <time>2010-01-02T05:24:16Z</time>
      </trkpt>
      <trkpt lat="46.21489" lon="6.78593">
        <ele>1884</ele>
        <time>2010-01-02T05:24:32Z</time>
      </trkpt>
      <trkpt lat="46.21508" lon="6.7858">
        <ele>1884</ele>
        <time>2010-01-02T05:24:40Z</time>
      </trkpt>
      <trkpt lat="46.21527" lon="6.78574">
        <ele>1880</ele>
        <time>2010-01-02T05:24:48Z</time>
      </trkpt>
      <trkpt lat="46.21549" lon="6.78553">
        <ele>1877</ele>
        <time>2010-01-02T05:24:58Z</time>
      </trkpt>
      <trkpt lat="46.21558" lon="6.78538">
        <ele>1878</ele>
        <time>2010-01-02T05:25:04Z</time>
      </trkpt>
      <trkpt lat="46.21567" lon="6.78524">
        <ele>1881</ele>
        <time>2010-01-02T05:25:09Z</time>
      </trkpt>
      <trkpt lat="46.21572" lon="6.78509">
        <ele>1883</ele>
        <time>2010-01-02T05:25:14Z</time>
      </trkpt>
      <trkpt lat="46.21577" lon="6.78494">
        <ele>1886</ele>
        <time>2010-01-02T05:25:18Z</time>
      </trkpt>
      <trkpt lat="46.21587" lon="6.7847">
        <ele>1883</ele>
        <time>2010-01-02T05:25:26Z</time>
      </trkpt>
      <trkpt lat="46.21596" lon="6.78455">
        <ele>1883</ele>
        <time>2010-01-02T05:25:32Z</time>
      </trkpt>
      <trkpt lat="46.21597" lon="6.78454">
        <ele>1883</ele>
        <time>2010-01-02T05:25:32Z</time>
      </trkpt>
      <trkpt lat="46.21604" lon="6.78444">
        <ele>1883</ele>
        <time>2010-01-02T05:25:36Z</time>
      </trkpt>
      <trkpt lat="46.21617" lon="6.78416">
        <ele>1891</ele>
        <time>2010-01-02T05:25:45Z</time>
      </trkpt>
      <trkpt lat="46.21618" lon="6.78415">
        <ele>1891</ele>
        <time>2010-01-02T05:25:46Z</time>
      </trkpt>
      <trkpt lat="46.21618" lon="6.78414">
        <ele>1891</ele>
        <time>2010-01-02T05:25:46Z</time>
      </trkpt>
      <trkpt lat="46.21621" lon="6.78401">
        <ele>1892</ele>
        <time>2010-01-02T05:25:50Z</time>
      </trkpt>
      <trkpt lat="46.21621" lon="6.78399">
        <ele>1892</ele>
        <time>2010-01-02T05:25:51Z</time>
      </trkpt>
      <trkpt lat="46.21629" lon="6.78365">
        <ele>1893</ele>
        <time>2010-01-02T05:26:00Z</time>
      </trkpt>
      <trkpt lat="46.21636" lon="6.78319">
        <ele>1896</ele>
        <time>2010-01-02T05:26:13Z</time>
      </trkpt>
      <trkpt lat="46.21637" lon="6.78254">
        <ele>1897</ele>
        <time>2010-01-02T05:26:31Z</time>
      </trkpt>
      <trkpt lat="46.21637" lon="6.78228">
        <ele>1894</ele>
        <time>2010-01-02T05:26:39Z</time>
      </trkpt>
      <trkpt lat="46.21638" lon="6.78202">
        <ele>1893</ele>
        <time>2010-01-02T05:26:46Z</time>
      </trkpt>
      <trkpt lat="46.21638" lon="6.78169">
        <ele>1894</ele>
        <time>2010-01-02T05:26:55Z</time>
      </trkpt>
      <trkpt lat="46.21638" lon="6.78147">
        <ele>1888</ele>
        <time>2010-01-02T05:27:01Z</time>
      </trkpt>
      <trkpt lat="46.21644" lon="6.78129">
        <ele>1887</ele>
        <time>2010-01-02T05:27:06Z</time>
      </trkpt>
      <trkpt lat="46.21658" lon="6.78084">
        <ele>1893</ele>
        <time>2010-01-02T05:27:20Z</time>
      </trkpt>
      <trkpt lat="46.21673" lon="6.78049">
        <ele>1896</ele>
        <time>2010-01-02T05:27:32Z</time>
      </trkpt>
      <trkpt lat="46.21695" lon="6.78013">
        <ele>1893</ele>
        <time>2010-01-02T05:27:45Z</time>
      </trkpt>
      <trkpt lat="46.21705" lon="6.78">
        <ele>1879</ele>
        <time>2010-01-02T05:27:50Z</time>
      </trkpt>
      <trkpt lat="46.21723" lon="6.77983">
        <ele>1883</ele>
        <time>2010-01-02T05:27:59Z</time>
      </trkpt>
      <trkpt lat="46.21756" lon="6.77948">
        <ele>1892</ele>
        <time>2010-01-02T05:28:15Z</time>
      </trkpt>
      <trkpt lat="46.21798" lon="6.77907">
        <ele>1875</ele>
        <time>2010-01-02T05:28:35Z</time>
      </trkpt>
      <trkpt lat="46.21829" lon="6.77878">
        <ele>1874</ele>
        <time>2010-01-02T05:28:50Z</time>
      </trkpt>
      <trkpt lat="46.21848" lon="6.77861">
        <ele>1875</ele>
        <time>2010-01-02T05:28:59Z</time>
      </trkpt>
      <trkpt lat="46.21863" lon="6.77841">
        <ele>1873</ele>
        <time>2010-01-02T05:29:07Z</time>
      </trkpt>
      <trkpt lat="46.21864" lon="6.77841">
        <ele>1873</ele>
        <time>2010-01-02T05:29:08Z</time>
      </trkpt>
      <trkpt lat="46.21879" lon="6.7783">
        <ele>1862</ele>
        <time>2010-01-02T05:29:15Z</time>
      </trkpt>
      <trkpt lat="46.21882" lon="6.77827">
        <ele>1862</ele>
        <time>2010-01-02T05:29:16Z</time>
      </trkpt>
      <trkpt lat="46.21889" lon="6.77824">
        <ele>1862</ele>
        <time>2010-01-02T05:29:19Z</time>
      </trkpt>
      <trkpt lat="46.21898" lon="6.77816">
        <ele>1862</ele>
        <time>2010-01-02T05:29:23Z</time>
      </trkpt>
      <trkpt lat="46.21912" lon="6.77799">
        <ele>1862</ele>
        <time>2010-01-02T05:29:31Z</time>
      </trkpt>
      <trkpt lat="46.21917" lon="6.77792">
        <ele>1853</ele>
        <time>2010-01-02T05:29:33Z</time>
      </trkpt>
      <trkpt lat="46.2192" lon="6.77796">
        <ele>1853</ele>
        <time>2010-01-02T05:29:35Z</time>
      </trkpt>
      <trkpt lat="46.21915" lon="6.77809">
        <ele>1862</ele>
        <time>2010-01-02T05:29:39Z</time>
      </trkpt>
      <trkpt lat="46.21915" lon="6.77819">
        <ele>1863</ele>
        <time>2010-01-02T05:29:42Z</time>
      </trkpt>
      <trkpt lat="46.21917" lon="6.77828">
        <ele>1861</ele>
        <time>2010-01-02T05:29:44Z</time>
      </trkpt>
      <trkpt lat="46.21918" lon="6.77836">
        <ele>1863</ele>
        <time>2010-01-02T05:29:46Z</time>
      </trkpt>
      <trkpt lat="46.21921" lon="6.77848">
        <ele>1859</ele>
        <time>2010-01-02T05:29:50Z</time>
      </trkpt>
      <trkpt lat="46.21923" lon="6.77857">
        <ele>1858</ele>
        <time>2010-01-02T05:29:53Z</time>
      </trkpt>
      <trkpt lat="46.21925" lon="6.77865">
        <ele>1857</ele>
        <time>2010-01-02T05:29:55Z</time>
      </trkpt>
      <trkpt lat="46.21927" lon="6.77876">
        <ele>1858</ele>
        <time>2010-01-02T05:29:58Z</time>
      </trkpt>
      <trkpt lat="46.21929" lon="6.77881">
        <ele>1858</ele>
        <time>2010-01-02T05:30:00Z</time>
      </trkpt>
      <trkpt lat="46.21932" lon="6.77887">
        <ele>1859</ele>
        <time>2010-01-02T05:30:02Z</time>
      </trkpt>
      <trkpt lat="46.21934" lon="6.77891">
        <ele>1859</ele>
        <time>2010-01-02T05:30:03Z</time>
      </trkpt>
      <trkpt lat="46.21938" lon="6.77894">
        <ele>1859</ele>
        <time>2010-01-02T05:30:05Z</time>
      </trkpt>
      <trkpt lat="46.21937" lon="6.77889">
        <ele>1858</ele>
        <time>2010-01-02T05:30:06Z</time>
      </trkpt>
      <trkpt lat="46.21937" lon="6.7788">
        <ele>1857</ele>
        <time>2010-01-02T05:30:09Z</time>
      </trkpt>
      <trkpt lat="46.21934" lon="6.7787">
        <ele>1856</ele>
        <time>2010-01-02T05:30:12Z</time>
      </trkpt>
      <trkpt lat="46.21936" lon="6.77865">
        <ele>1855</ele>
        <time>2010-01-02T05:30:13Z</time>
      </trkpt>
      <trkpt lat="46.21938" lon="6.77865">
        <ele>1855</ele>
        <time>2010-01-02T05:30:14Z</time>
      </trkpt>
      <trkpt lat="46.21946" lon="6.77881">
        <ele>1854</ele>
        <time>2010-01-02T05:30:20Z</time>
      </trkpt>
      <trkpt lat="46.21953" lon="6.7789">
        <ele>1853</ele>
        <time>2010-01-02T05:30:23Z</time>
      </trkpt>
      <trkpt lat="46.21964" lon="6.77907">
        <ele>1850</ele>
        <time>2010-01-02T05:30:30Z</time>
      </trkpt>
      <trkpt lat="46.21968" lon="6.77916">
        <ele>1849</ele>
        <time>2010-01-02T05:30:33Z</time>
      </trkpt>
      <trkpt lat="46.21972" lon="6.77926">
        <ele>1852</ele>
        <time>2010-01-02T05:30:36Z</time>
      </trkpt>
      <trkpt lat="46.21972" lon="6.77927">
        <ele>1852</ele>
        <time>2010-01-02T05:30:36Z</time>
      </trkpt>
      <trkpt lat="46.21978" lon="6.77946">
        <ele>1852</ele>
        <time>2010-01-02T05:30:42Z</time>
      </trkpt>
      <trkpt lat="46.21986" lon="6.77973">
        <ele>1851</ele>
        <time>2010-01-02T05:30:50Z</time>
      </trkpt>
      <trkpt lat="46.21988" lon="6.77979">
        <ele>1849</ele>
        <time>2010-01-02T05:30:52Z</time>
      </trkpt>
      <trkpt lat="46.21991" lon="6.77986">
        <ele>1846</ele>
        <time>2010-01-02T05:30:54Z</time>
      </trkpt>
      <trkpt lat="46.21994" lon="6.77984">
        <ele>1846</ele>
        <time>2010-01-02T05:30:56Z</time>
      </trkpt>
      <trkpt lat="46.21993" lon="6.77975">
        <ele>1849</ele>
        <time>2010-01-02T05:30:58Z</time>
      </trkpt>
      <trkpt lat="46.21992" lon="6.77962">
        <ele>1850</ele>
        <time>2010-01-02T05:31:02Z</time>
      </trkpt>
      <trkpt lat="46.21994" lon="6.77944">
        <ele>1848</ele>
        <time>2010-01-02T05:31:07Z</time>
      </trkpt>
      <trkpt lat="46.21991" lon="6.77929">
        <ele>1844</ele>
        <time>2010-01-02T05:31:11Z</time>
      </trkpt>
      <trkpt lat="46.21987" lon="6.77911">
        <ele>1841</ele>
        <time>2010-01-02T05:31:17Z</time>
      </trkpt>
      <trkpt lat="46.21981" lon="6.77892">
        <ele>1845</ele>
        <time>2010-01-02T05:31:22Z</time>
      </trkpt>
      <trkpt lat="46.2198" lon="6.7788">
        <ele>1845</ele>
        <time>2010-01-02T05:31:26Z</time>
      </trkpt>
      <trkpt lat="46.21982" lon="6.77873">
        <ele>1844</ele>
        <time>2010-01-02T05:31:28Z</time>
      </trkpt>
      <trkpt lat="46.21987" lon="6.77882">
        <ele>1844</ele>
        <time>2010-01-02T05:31:31Z</time>
      </trkpt>
      <trkpt lat="46.21993" lon="6.7789">
        <ele>1843</ele>
        <time>2010-01-02T05:31:34Z</time>
      </trkpt>
      <trkpt lat="46.21997" lon="6.77891">
        <ele>1842</ele>
        <time>2010-01-02T05:31:36Z</time>
      </trkpt>
      <trkpt lat="46.22" lon="6.77888">
        <ele>1842</ele>
        <time>2010-01-02T05:31:37Z</time>
      </trkpt>
      <trkpt lat="46.22002" lon="6.77883">
        <ele>1817</ele>
        <time>2010-01-02T05:31:39Z</time>
      </trkpt>
      <trkpt lat="46.21996" lon="6.77867">
        <ele>1841</ele>
        <time>2010-01-02T05:31:44Z</time>
      </trkpt>
      <trkpt lat="46.21995" lon="6.77865">
        <ele>1841</ele>
        <time>2010-01-02T05:31:44Z</time>
      </trkpt>
      <trkpt lat="46.21989" lon="6.77854">
        <ele>1839</ele>
        <time>2010-01-02T05:31:48Z</time>
      </trkpt>
      <trkpt lat="46.21988" lon="6.77842">
        <ele>1836</ele>
        <time>2010-01-02T05:31:52Z</time>
      </trkpt>
      <trkpt lat="46.21991" lon="6.7784">
        <ele>1833</ele>
        <time>2010-01-02T05:31:53Z</time>
      </trkpt>
      <trkpt lat="46.22" lon="6.77851">
        <ele>1836</ele>
        <time>2010-01-02T05:31:57Z</time>
      </trkpt>
      <trkpt lat="46.22006" lon="6.77856">
        <ele>1816</ele>
        <time>2010-01-02T05:32:00Z</time>
      </trkpt>
      <trkpt lat="46.22013" lon="6.77863">
        <ele>1814</ele>
        <time>2010-01-02T05:32:04Z</time>
      </trkpt>
      <trkpt lat="46.22017" lon="6.77862">
        <ele>1814</ele>
        <time>2010-01-02T05:32:05Z</time>
      </trkpt>
      <trkpt lat="46.22023" lon="6.77873">
        <ele>1813</ele>
        <time>2010-01-02T05:32:09Z</time>
      </trkpt>
      <trkpt lat="46.22029" lon="6.77895">
        <ele>1813</ele>
        <time>2010-01-02T05:32:16Z</time>
      </trkpt>
      <trkpt lat="46.22035" lon="6.7791">
        <ele>1812</ele>
        <time>2010-01-02T05:32:20Z</time>
      </trkpt>
      <trkpt lat="46.22054" lon="6.77932">
        <ele>1807</ele>
        <time>2010-01-02T05:32:30Z</time>
      </trkpt>
      <trkpt lat="46.22059" lon="6.77944">
        <ele>1806</ele>
        <time>2010-01-02T05:32:34Z</time>
      </trkpt>
      <trkpt lat="46.22061" lon="6.77954">
        <ele>1806</ele>
        <time>2010-01-02T05:32:37Z</time>
      </trkpt>
      <trkpt lat="46.22061" lon="6.77966">
        <ele>1805</ele>
        <time>2010-01-02T05:32:40Z</time>
      </trkpt>
      <trkpt lat="46.22057" lon="6.77977">
        <ele>1805</ele>
        <time>2010-01-02T05:32:44Z</time>
      </trkpt>
      <trkpt lat="46.2205" lon="6.77985">
        <ele>1807</ele>
        <time>2010-01-02T05:32:47Z</time>
      </trkpt>
      <trkpt lat="46.22042" lon="6.77994">
        <ele>1810</ele>
        <time>2010-01-02T05:32:51Z</time>
      </trkpt>
      <trkpt lat="46.22032" lon="6.77999">
        <ele>1814</ele>
        <time>2010-01-02T05:32:56Z</time>
      </trkpt>
      <trkpt lat="46.22026" lon="6.78017">
        <ele>1812</ele>
        <time>2010-01-02T05:33:01Z</time>
      </trkpt>
      <trkpt lat="46.22023" lon="6.78031">
        <ele>1811</ele>
        <time>2010-01-02T05:33:05Z</time>
      </trkpt>
      <trkpt lat="46.22019" lon="6.78044">
        <ele>1810</ele>
        <time>2010-01-02T05:33:09Z</time>
      </trkpt>
      <trkpt lat="46.22019" lon="6.7805">
        <ele>1810</ele>
        <time>2010-01-02T05:33:11Z</time>
      </trkpt>
      <trkpt lat="46.22018" lon="6.78059">
        <ele>1811</ele>
        <time>2010-01-02T05:33:13Z</time>
      </trkpt>
      <trkpt lat="46.22018" lon="6.78083">
        <ele>1813</ele>
        <time>2010-01-02T05:33:20Z</time>
      </trkpt>
      <trkpt lat="46.2202" lon="6.78096">
        <ele>1808</ele>
        <time>2010-01-02T05:33:24Z</time>
      </trkpt>
      <trkpt lat="46.22024" lon="6.78113">
        <ele>1804</ele>
        <time>2010-01-02T05:33:29Z</time>
      </trkpt>
      <trkpt lat="46.22037" lon="6.7816">
        <ele>1799</ele>
        <time>2010-01-02T05:33:43Z</time>
      </trkpt>
      <trkpt lat="46.2204" lon="6.78173">
        <ele>1796</ele>
        <time>2010-01-02T05:33:46Z</time>
      </trkpt>
      <trkpt lat="46.2204" lon="6.78182">
        <ele>1795</ele>
        <time>2010-01-02T05:33:49Z</time>
      </trkpt>
      <trkpt lat="46.2204" lon="6.78201">
        <ele>1795</ele>
        <time>2010-01-02T05:33:54Z</time>
      </trkpt>
      <trkpt lat="46.22033" lon="6.78255">
        <ele>1791</ele>
        <time>2010-01-02T05:34:09Z</time>
      </trkpt>
      <trkpt lat="46.22031" lon="6.78273">
        <ele>1790</ele>
        <time>2010-01-02T05:34:14Z</time>
      </trkpt>
      <trkpt lat="46.22027" lon="6.78292">
        <ele>1787</ele>
        <time>2010-01-02T05:34:20Z</time>
      </trkpt>
      <trkpt lat="46.22018" lon="6.78308">
        <ele>1787</ele>
        <time>2010-01-02T05:34:26Z</time>
      </trkpt>
      <trkpt lat="46.22006" lon="6.78321">
        <ele>1789</ele>
        <time>2010-01-02T05:34:32Z</time>
      </trkpt>
      <trkpt lat="46.21992" lon="6.78331">
        <ele>1800</ele>
        <time>2010-01-02T05:34:38Z</time>
      </trkpt>
      <trkpt lat="46.21982" lon="6.78333">
        <ele>1794</ele>
        <time>2010-01-02T05:34:42Z</time>
      </trkpt>
      <trkpt lat="46.2197" lon="6.78346">
        <ele>1795</ele>
        <time>2010-01-02T05:34:48Z</time>
      </trkpt>
      <trkpt lat="46.21964" lon="6.7836">
        <ele>1795</ele>
        <time>2010-01-02T05:34:52Z</time>
      </trkpt>
      <trkpt lat="46.21964" lon="6.78361">
        <ele>1795</ele>
        <time>2010-01-02T05:34:53Z</time>
      </trkpt>
      <trkpt lat="46.21958" lon="6.78374">
        <ele>1794</ele>
        <time>2010-01-02T05:34:57Z</time>
      </trkpt>
      <trkpt lat="46.2195" lon="6.78387">
        <ele>1793</ele>
        <time>2010-01-02T05:35:02Z</time>
      </trkpt>
      <trkpt lat="46.21949" lon="6.78395">
        <ele>1792</ele>
        <time>2010-01-02T05:35:04Z</time>
      </trkpt>
      <trkpt lat="46.21949" lon="6.78399">
        <ele>1792</ele>
        <time>2010-01-02T05:35:05Z</time>
      </trkpt>
      <trkpt lat="46.21951" lon="6.784">
        <ele>1791</ele>
        <time>2010-01-02T05:35:06Z</time>
      </trkpt>
      <trkpt lat="46.21956" lon="6.78397">
        <ele>1791</ele>
        <time>2010-01-02T05:35:08Z</time>
      </trkpt>
      <trkpt lat="46.21965" lon="6.78391">
        <ele>1790</ele>
        <time>2010-01-02T05:35:12Z</time>
      </trkpt>
      <trkpt lat="46.21977" lon="6.78386">
        <ele>1789</ele>
        <time>2010-01-02T05:35:17Z</time>
      </trkpt>
      <trkpt lat="46.21984" lon="6.78385">
        <ele>1787</ele>
        <time>2010-01-02T05:35:20Z</time>
      </trkpt>
      <trkpt lat="46.21989" lon="6.78379">
        <ele>1788</ele>
        <time>2010-01-02T05:35:23Z</time>
      </trkpt>
      <trkpt lat="46.21994" lon="6.78368">
        <ele>1790</ele>
        <time>2010-01-02T05:35:26Z</time>
      </trkpt>
      <trkpt lat="46.22004" lon="6.78366">
        <ele>1770</ele>
        <time>2010-01-02T05:35:30Z</time>
      </trkpt>
      <trkpt lat="46.2202" lon="6.78362">
        <ele>1769</ele>
        <time>2010-01-02T05:35:37Z</time>
      </trkpt>
      <trkpt lat="46.22028" lon="6.78362">
        <ele>1767</ele>
        <time>2010-01-02T05:35:40Z</time>
      </trkpt>
      <trkpt lat="46.22041" lon="6.78347">
        <ele>1765</ele>
        <time>2010-01-02T05:35:47Z</time>
      </trkpt>
      <trkpt lat="46.22046" lon="6.78329">
        <ele>1780</ele>
        <time>2010-01-02T05:35:52Z</time>
      </trkpt>
      <trkpt lat="46.22049" lon="6.78341">
        <ele>1764</ele>
        <time>2010-01-02T05:35:56Z</time>
      </trkpt>
      <trkpt lat="46.22051" lon="6.78353">
        <ele>1762</ele>
        <time>2010-01-02T05:35:59Z</time>
      </trkpt>
      <trkpt lat="46.22054" lon="6.78356">
        <ele>1761</ele>
        <time>2010-01-02T05:36:00Z</time>
      </trkpt>
      <trkpt lat="46.22056" lon="6.78351">
        <ele>1761</ele>
        <time>2010-01-02T05:36:02Z</time>
      </trkpt>
      <trkpt lat="46.22057" lon="6.78341">
        <ele>1762</ele>
        <time>2010-01-02T05:36:05Z</time>
      </trkpt>
      <trkpt lat="46.22062" lon="6.78326">
        <ele>1774</ele>
        <time>2010-01-02T05:36:10Z</time>
      </trkpt>
      <trkpt lat="46.22065" lon="6.78315">
        <ele>1775</ele>
        <time>2010-01-02T05:36:13Z</time>
      </trkpt>
      <trkpt lat="46.2207" lon="6.78316">
        <ele>1773</ele>
        <time>2010-01-02T05:36:14Z</time>
      </trkpt>
      <trkpt lat="46.22067" lon="6.78327">
        <ele>1771</ele>
        <time>2010-01-02T05:36:18Z</time>
      </trkpt>
      <trkpt lat="46.22067" lon="6.78351">
        <ele>1760</ele>
        <time>2010-01-02T05:36:24Z</time>
      </trkpt>
      <trkpt lat="46.22063" lon="6.78368">
        <ele>1758</ele>
        <time>2010-01-02T05:36:29Z</time>
      </trkpt>
      <trkpt lat="46.22055" lon="6.78385">
        <ele>1756</ele>
        <time>2010-01-02T05:36:35Z</time>
      </trkpt>
      <trkpt lat="46.22048" lon="6.78397">
        <ele>1756</ele>
        <time>2010-01-02T05:36:39Z</time>
      </trkpt>
      <trkpt lat="46.22039" lon="6.78413">
        <ele>1757</ele>
        <time>2010-01-02T05:36:45Z</time>
      </trkpt>
      <trkpt lat="46.2203" lon="6.78427">
        <ele>1741</ele>
        <time>2010-01-02T05:36:51Z</time>
      </trkpt>
      <trkpt lat="46.22023" lon="6.78443">
        <ele>1740</ele>
        <time>2010-01-02T05:36:56Z</time>
      </trkpt>
      <trkpt lat="46.22022" lon="6.78455">
        <ele>1737</ele>
        <time>2010-01-02T05:36:59Z</time>
      </trkpt>
      <trkpt lat="46.22016" lon="6.78481">
        <ele>1733</ele>
        <time>2010-01-02T05:37:07Z</time>
      </trkpt>
      <trkpt lat="46.22005" lon="6.78494">
        <ele>1733</ele>
        <time>2010-01-02T05:37:12Z</time>
      </trkpt>
      <trkpt lat="46.21997" lon="6.78504">
        <ele>1733</ele>
        <time>2010-01-02T05:37:17Z</time>
      </trkpt>
      <trkpt lat="46.21986" lon="6.78508">
        <ele>1733</ele>
        <time>2010-01-02T05:37:21Z</time>
      </trkpt>
      <trkpt lat="46.2198" lon="6.78508">
        <ele>1733</ele>
        <time>2010-01-02T05:37:24Z</time>
      </trkpt>
      <trkpt lat="46.21976" lon="6.78509">
        <ele>1733</ele>
        <time>2010-01-02T05:37:25Z</time>
      </trkpt>
      <trkpt lat="46.21968" lon="6.78514">
        <ele>1733</ele>
        <time>2010-01-02T05:37:29Z</time>
      </trkpt>
      <trkpt lat="46.21963" lon="6.78522">
        <ele>1733</ele>
        <time>2010-01-02T05:37:31Z</time>
      </trkpt>
      <trkpt lat="46.21959" lon="6.78526">
        <ele>1733</ele>
        <time>2010-01-02T05:37:33Z</time>
      </trkpt>
      <trkpt lat="46.21948" lon="6.78531">
        <ele>1734</ele>
        <time>2010-01-02T05:37:38Z</time>
      </trkpt>
      <trkpt lat="46.21939" lon="6.78538">
        <ele>1733</ele>
        <time>2010-01-02T05:37:42Z</time>
      </trkpt>
      <trkpt lat="46.21913" lon="6.78543">
        <ele>1751</ele>
        <time>2010-01-02T05:37:53Z</time>
      </trkpt>
      <trkpt lat="46.21898" lon="6.78548">
        <ele>1752</ele>
        <time>2010-01-02T05:37:59Z</time>
      </trkpt>
      <trkpt lat="46.21881" lon="6.78561">
        <ele>1753</ele>
        <time>2010-01-02T05:38:06Z</time>
      </trkpt>
      <trkpt lat="46.21877" lon="6.78572">
        <ele>1752</ele>
        <time>2010-01-02T05:38:10Z</time>
      </trkpt>
      <trkpt lat="46.21873" lon="6.78581">
        <ele>1752</ele>
        <time>2010-01-02T05:38:13Z</time>
      </trkpt>
      <trkpt lat="46.21868" lon="6.78595">
        <ele>1733</ele>
        <time>2010-01-02T05:38:17Z</time>
      </trkpt>
      <trkpt lat="46.21854" lon="6.78605">
        <ele>1735</ele>
        <time>2010-01-02T05:38:23Z</time>
      </trkpt>
      <trkpt lat="46.21844" lon="6.78612">
        <ele>1735</ele>
        <time>2010-01-02T05:38:28Z</time>
      </trkpt>
      <trkpt lat="46.21837" lon="6.7862">
        <ele>1733</ele>
        <time>2010-01-02T05:38:32Z</time>
      </trkpt>
      <trkpt lat="46.21834" lon="6.78628">
        <ele>1731</ele>
        <time>2010-01-02T05:38:34Z</time>
      </trkpt>
      <trkpt lat="46.21839" lon="6.78642">
        <ele>1728</ele>
        <time>2010-01-02T05:38:38Z</time>
      </trkpt>
      <trkpt lat="46.21838" lon="6.78652">
        <ele>1726</ele>
        <time>2010-01-02T05:38:41Z</time>
      </trkpt>
      <trkpt lat="46.2183" lon="6.78664">
        <ele>1731</ele>
        <time>2010-01-02T05:38:45Z</time>
      </trkpt>
      <trkpt lat="46.21824" lon="6.78676">
        <ele>1727</ele>
        <time>2010-01-02T05:38:50Z</time>
      </trkpt>
      <trkpt lat="46.21817" lon="6.78685">
        <ele>1728</ele>
        <time>2010-01-02T05:38:53Z</time>
      </trkpt>
      <trkpt lat="46.21811" lon="6.787">
        <ele>1727</ele>
        <time>2010-01-02T05:38:58Z</time>
      </trkpt>
      <trkpt lat="46.21809" lon="6.78713">
        <ele>1726</ele>
        <time>2010-01-02T05:39:02Z</time>
      </trkpt>
      <trkpt lat="46.21802" lon="6.78719">
        <ele>1726</ele>
        <time>2010-01-02T05:39:05Z</time>
      </trkpt>
      <trkpt lat="46.21792" lon="6.78726">
        <ele>1727</ele>
        <time>2010-01-02T05:39:09Z</time>
      </trkpt>
      <trkpt lat="46.21786" lon="6.78731">
        <ele>1727</ele>
        <time>2010-01-02T05:39:12Z</time>
      </trkpt>
      <trkpt lat="46.21782" lon="6.78743">
        <ele>1727</ele>
        <time>2010-01-02T05:39:16Z</time>
      </trkpt>
      <trkpt lat="46.21778" lon="6.78762">
        <ele>1715</ele>
        <time>2010-01-02T05:39:21Z</time>
      </trkpt>
      <trkpt lat="46.21773" lon="6.78777">
        <ele>1713</ele>
        <time>2010-01-02T05:39:26Z</time>
      </trkpt>
      <trkpt lat="46.21764" lon="6.78785">
        <ele>1714</ele>
        <time>2010-01-02T05:39:30Z</time>
      </trkpt>
      <trkpt lat="46.21757" lon="6.78788">
        <ele>1714</ele>
        <time>2010-01-02T05:39:33Z</time>
      </trkpt>
      <trkpt lat="46.21747" lon="6.78793">
        <ele>1732</ele>
        <time>2010-01-02T05:39:37Z</time>
      </trkpt>
      <trkpt lat="46.21743" lon="6.78804">
        <ele>1730</ele>
        <time>2010-01-02T05:39:41Z</time>
      </trkpt>
      <trkpt lat="46.21744" lon="6.7881">
        <ele>1728</ele>
        <time>2010-01-02T05:39:42Z</time>
      </trkpt>
      <trkpt lat="46.21743" lon="6.78819">
        <ele>1725</ele>
        <time>2010-01-02T05:39:45Z</time>
      </trkpt>
      <trkpt lat="46.21742" lon="6.78829">
        <ele>1720</ele>
        <time>2010-01-02T05:39:48Z</time>
      </trkpt>
      <trkpt lat="46.21742" lon="6.78841">
        <ele>1717</ele>
        <time>2010-01-02T05:39:51Z</time>
      </trkpt>
      <trkpt lat="46.21741" lon="6.78853">
        <ele>1718</ele>
        <time>2010-01-02T05:39:55Z</time>
      </trkpt>
      <trkpt lat="46.21738" lon="6.78865">
        <ele>1719</ele>
        <time>2010-01-02T05:39:58Z</time>
      </trkpt>
      <trkpt lat="46.2173" lon="6.78872">
        <ele>1720</ele>
        <time>2010-01-02T05:40:02Z</time>
      </trkpt>
      <trkpt lat="46.2173" lon="6.78873">
        <ele>1720</ele>
        <time>2010-01-02T05:40:02Z</time>
      </trkpt>
      <trkpt lat="46.21725" lon="6.78878">
        <ele>1720</ele>
        <time>2010-01-02T05:40:04Z</time>
      </trkpt>
      <trkpt lat="46.21722" lon="6.78886">
        <ele>1720</ele>
        <time>2010-01-02T05:40:07Z</time>
      </trkpt>
      <trkpt lat="46.21719" lon="6.78914">
        <ele>1718</ele>
        <time>2010-01-02T05:40:15Z</time>
      </trkpt>
      <trkpt lat="46.21729" lon="6.78928">
        <ele>1710</ele>
        <time>2010-01-02T05:40:20Z</time>
      </trkpt>
      <trkpt lat="46.21737" lon="6.78936">
        <ele>1709</ele>
        <time>2010-01-02T05:40:24Z</time>
      </trkpt>
      <trkpt lat="46.21746" lon="6.78949">
        <ele>1708</ele>
        <time>2010-01-02T05:40:29Z</time>
      </trkpt>
      <trkpt lat="46.21755" lon="6.78962">
        <ele>1692</ele>
        <time>2010-01-02T05:40:35Z</time>
      </trkpt>
      <trkpt lat="46.21762" lon="6.78964">
        <ele>1692</ele>
        <time>2010-01-02T05:40:37Z</time>
      </trkpt>
      <trkpt lat="46.21769" lon="6.78973">
        <ele>1691</ele>
        <time>2010-01-02T05:40:41Z</time>
      </trkpt>
      <trkpt lat="46.21775" lon="6.78986">
        <ele>1690</ele>
        <time>2010-01-02T05:40:45Z</time>
      </trkpt>
      <trkpt lat="46.21777" lon="6.78998">
        <ele>1690</ele>
        <time>2010-01-02T05:40:49Z</time>
      </trkpt>
      <trkpt lat="46.21772" lon="6.79007">
        <ele>1687</ele>
        <time>2010-01-02T05:40:52Z</time>
      </trkpt>
      <trkpt lat="46.21768" lon="6.79013">
        <ele>1687</ele>
        <time>2010-01-02T05:40:54Z</time>
      </trkpt>
      <trkpt lat="46.21768" lon="6.79013">
        <ele>1687</ele>
        <time>2010-01-02T05:40:55Z</time>
      </trkpt>
      <trkpt lat="46.21764" lon="6.79017">
        <ele>1687</ele>
        <time>2010-01-02T05:40:56Z</time>
      </trkpt>
      <trkpt lat="46.21764" lon="6.79018">
        <ele>1687</ele>
        <time>2010-01-02T05:40:57Z</time>
      </trkpt>
      <trkpt lat="46.21761" lon="6.79025">
        <ele>1686</ele>
        <time>2010-01-02T05:40:59Z</time>
      </trkpt>
      <trkpt lat="46.21761" lon="6.79035">
        <ele>1685</ele>
        <time>2010-01-02T05:41:02Z</time>
      </trkpt>
      <trkpt lat="46.21756" lon="6.79052">
        <ele>1684</ele>
        <time>2010-01-02T05:41:07Z</time>
      </trkpt>
      <trkpt lat="46.21747" lon="6.79075">
        <ele>1691</ele>
        <time>2010-01-02T05:41:14Z</time>
      </trkpt>
      <trkpt lat="46.21729" lon="6.79076">
        <ele>1695</ele>
        <time>2010-01-02T05:41:21Z</time>
      </trkpt>
      <trkpt lat="46.21724" lon="6.7908">
        <ele>1696</ele>
        <time>2010-01-02T05:41:23Z</time>
      </trkpt>
      <trkpt lat="46.21708" lon="6.79124">
        <ele>1685</ele>
        <time>2010-01-02T05:41:37Z</time>
      </trkpt>
      <trkpt lat="46.21705" lon="6.79145">
        <ele>1683</ele>
        <time>2010-01-02T05:41:43Z</time>
      </trkpt>
      <trkpt lat="46.21689" lon="6.79179">
        <ele>1671</ele>
        <time>2010-01-02T05:41:55Z</time>
      </trkpt>
      <trkpt lat="46.21679" lon="6.79213">
        <ele>1666</ele>
        <time>2010-01-02T05:42:05Z</time>
      </trkpt>
      <trkpt lat="46.21677" lon="6.79216">
        <ele>1666</ele>
        <time>2010-01-02T05:42:06Z</time>
      </trkpt>
      <trkpt lat="46.21662" lon="6.79247">
        <ele>1670</ele>
        <time>2010-01-02T05:42:17Z</time>
      </trkpt>
      <trkpt lat="46.21656" lon="6.79273">
        <ele>1670</ele>
        <time>2010-01-02T05:42:24Z</time>
      </trkpt>
      <trkpt lat="46.21658" lon="6.79312">
        <ele>1665</ele>
        <time>2010-01-02T05:42:35Z</time>
      </trkpt>
      <trkpt lat="46.2167" lon="6.79323">
        <ele>1652</ele>
        <time>2010-01-02T05:42:41Z</time>
      </trkpt>
      <trkpt lat="46.21683" lon="6.79331">
        <ele>1652</ele>
        <time>2010-01-02T05:42:46Z</time>
      </trkpt>
      <trkpt lat="46.21695" lon="6.79337">
        <ele>1649</ele>
        <time>2010-01-02T05:42:52Z</time>
      </trkpt>
      <trkpt lat="46.21703" lon="6.79338">
        <ele>1649</ele>
        <time>2010-01-02T05:42:55Z</time>
      </trkpt>
      <trkpt lat="46.21712" lon="6.79327">
        <ele>1650</ele>
        <time>2010-01-02T05:42:59Z</time>
      </trkpt>
      <trkpt lat="46.21727" lon="6.79309">
        <ele>1649</ele>
        <time>2010-01-02T05:43:07Z</time>
      </trkpt>
      <trkpt lat="46.21744" lon="6.79304">
        <ele>1649</ele>
        <time>2010-01-02T05:43:14Z</time>
      </trkpt>
      <trkpt lat="46.21759" lon="6.79301">
        <ele>1643</ele>
        <time>2010-01-02T05:43:20Z</time>
      </trkpt>
      <trkpt lat="46.21782" lon="6.793">
        <ele>1642</ele>
        <time>2010-01-02T05:43:30Z</time>
      </trkpt>
      <trkpt lat="46.21795" lon="6.79338">
        <ele>1639</ele>
        <time>2010-01-02T05:43:41Z</time>
      </trkpt>
      <trkpt lat="46.21818" lon="6.79389">
        <ele>1637</ele>
        <time>2010-01-02T05:43:58Z</time>
      </trkpt>
      <trkpt lat="46.21825" lon="6.79444">
        <ele>1639</ele>
        <time>2010-01-02T05:44:14Z</time>
      </trkpt>
      <trkpt lat="46.21836" lon="6.79522">
        <ele>1634</ele>
        <time>2010-01-02T05:44:36Z</time>
      </trkpt>
      <trkpt lat="46.21845" lon="6.79569">
        <ele>1641</ele>
        <time>2010-01-02T05:44:49Z</time>
      </trkpt>
      <trkpt lat="46.2188" lon="6.79604">
        <ele>1653</ele>
        <time>2010-01-02T05:45:06Z</time>
      </trkpt>
      <trkpt lat="46.21925" lon="6.79637">
        <ele>1649</ele>
        <time>2010-01-02T05:45:26Z</time>
      </trkpt>
      <trkpt lat="46.21964" lon="6.79661">
        <ele>1650</ele>
        <time>2010-01-02T05:45:43Z</time>
      </trkpt>
      <trkpt lat="46.21997" lon="6.79668">
        <ele>1661</ele>
        <time>2010-01-02T05:45:56Z</time>
      </trkpt>
      <trkpt lat="46.22047" lon="6.79668">
        <ele>1672</ele>
        <time>2010-01-02T05:46:17Z</time>
      </trkpt>
      <trkpt lat="46.22093" lon="6.79675">
        <ele>1673</ele>
        <time>2010-01-02T05:46:35Z</time>
      </trkpt>
      <trkpt lat="46.22174" lon="6.79678">
        <ele>1685</ele>
        <time>2010-01-02T05:47:07Z</time>
      </trkpt>
      <trkpt lat="46.22218" lon="6.79676">
        <ele>1688</ele>
        <time>2010-01-02T05:47:25Z</time>
      </trkpt>
      <trkpt lat="46.22256" lon="6.79695">
        <ele>1688</ele>
        <time>2010-01-02T05:47:41Z</time>
      </trkpt>
      <trkpt lat="46.22288" lon="6.79703">
        <ele>1690</ele>
        <time>2010-01-02T05:47:54Z</time>
      </trkpt>
      <trkpt lat="46.22314" lon="6.79704">
        <ele>1688</ele>
        <time>2010-01-02T05:48:05Z</time>
      </trkpt>
      <trkpt lat="46.22354" lon="6.79722">
        <ele>1687</ele>
        <time>2010-01-02T05:48:22Z</time>
      </trkpt>
      <trkpt lat="46.22406" lon="6.7973">
        <ele>1690</ele>
        <time>2010-01-02T05:48:42Z</time>
      </trkpt>
      <trkpt lat="46.22419" lon="6.79732">
        <ele>1692</ele>
        <time>2010-01-02T05:48:48Z</time>
      </trkpt>
      <trkpt lat="46.22441" lon="6.79754">
        <ele>1707</ele>
        <time>2010-01-02T05:48:58Z</time>
      </trkpt>
      <trkpt lat="46.22466" lon="6.79749">
        <ele>1693</ele>
        <time>2010-01-02T05:49:08Z</time>
      </trkpt>
      <trkpt lat="46.22487" lon="6.79737">
        <ele>1695</ele>
        <time>2010-01-02T05:49:17Z</time>
      </trkpt>
      <trkpt lat="46.2251" lon="6.79751">
        <ele>1702</ele>
        <time>2010-01-02T05:49:27Z</time>
      </trkpt>
      <trkpt lat="46.22521" lon="6.79785">
        <ele>1702</ele>
        <time>2010-01-02T05:49:38Z</time>
      </trkpt>
      <trkpt lat="46.22544" lon="6.79808">
        <ele>1700</ele>
        <time>2010-01-02T05:49:49Z</time>
      </trkpt>
      <trkpt lat="46.22585" lon="6.79844">
        <ele>1691</ele>
        <time>2010-01-02T05:50:08Z</time>
      </trkpt>
      <trkpt lat="46.2263" lon="6.79871">
        <ele>1690</ele>
        <time>2010-01-02T05:50:27Z</time>
      </trkpt>
      <trkpt lat="46.22652" lon="6.7989">
        <ele>1690</ele>
        <time>2010-01-02T05:50:38Z</time>
      </trkpt>
      <trkpt lat="46.22669" lon="6.79883">
        <ele>1678</ele>
        <time>2010-01-02T05:50:45Z</time>
      </trkpt>
      <trkpt lat="46.22671" lon="6.79866">
        <ele>1676</ele>
        <time>2010-01-02T05:50:49Z</time>
      </trkpt>
      <trkpt lat="46.22674" lon="6.79843">
        <ele>1675</ele>
        <time>2010-01-02T05:50:56Z</time>
      </trkpt>
      <trkpt lat="46.22693" lon="6.79888">
        <ele>1676</ele>
        <time>2010-01-02T05:51:11Z</time>
      </trkpt>
      <trkpt lat="46.22718" lon="6.79898">
        <ele>1673</ele>
        <time>2010-01-02T05:51:21Z</time>
      </trkpt>
      <trkpt lat="46.22748" lon="6.79892">
        <ele>1670</ele>
        <time>2010-01-02T05:51:33Z</time>
      </trkpt>
      <trkpt lat="46.22797" lon="6.79877">
        <ele>1658</ele>
        <time>2010-01-02T05:51:53Z</time>
      </trkpt>
      <trkpt lat="46.22844" lon="6.79869">
        <ele>1651</ele>
        <time>2010-01-02T05:52:12Z</time>
      </trkpt>
      <trkpt lat="46.22906" lon="6.79888">
        <ele>1651</ele>
        <time>2010-01-02T05:52:37Z</time>
      </trkpt>
      <trkpt lat="46.22925" lon="6.79878">
        <ele>1654</ele>
        <time>2010-01-02T05:52:45Z</time>
      </trkpt>
      <trkpt lat="46.22971" lon="6.7985">
        <ele>1655</ele>
        <time>2010-01-02T05:53:05Z</time>
      </trkpt>
      <trkpt lat="46.23022" lon="6.79811">
        <ele>1650</ele>
        <time>2010-01-02T05:53:28Z</time>
      </trkpt>
      <trkpt lat="46.23089" lon="6.79821">
        <ele>1651</ele>
        <time>2010-01-02T05:53:55Z</time>
      </trkpt>
      <trkpt lat="46.23151" lon="6.79864">
        <ele>1653</ele>
        <time>2010-01-02T05:54:23Z</time>
      </trkpt>
      <trkpt lat="46.23196" lon="6.79903">
        <ele>1647</ele>
        <time>2010-01-02T05:54:44Z</time>
      </trkpt>
      <trkpt lat="46.23242" lon="6.79955">
        <ele>1649</ele>
        <time>2010-01-02T05:55:07Z</time>
      </trkpt>
      <trkpt lat="46.23267" lon="6.80005">
        <ele>1647</ele>
        <time>2010-01-02T05:55:24Z</time>
      </trkpt>
      <trkpt lat="46.23267" lon="6.80022">
        <ele>1647</ele>
        <time>2010-01-02T05:55:29Z</time>
      </trkpt>
      <trkpt lat="46.23279" lon="6.80049">
        <ele>1647</ele>
        <time>2010-01-02T05:55:38Z</time>
      </trkpt>
      <trkpt lat="46.23302" lon="6.80047">
        <ele>1646</ele>
        <time>2010-01-02T05:55:47Z</time>
      </trkpt>
      <trkpt lat="46.23316" lon="6.80048">
        <ele>1645</ele>
        <time>2010-01-02T05:55:53Z</time>
      </trkpt>
      <trkpt lat="46.23341" lon="6.80049">
        <ele>1641</ele>
        <time>2010-01-02T05:56:03Z</time>
      </trkpt>
      <trkpt lat="46.23345" lon="6.80064">
        <ele>1643</ele>
        <time>2010-01-02T05:56:08Z</time>
      </trkpt>
      <trkpt lat="46.23378" lon="6.80071">
        <ele>1642</ele>
        <time>2010-01-02T05:56:21Z</time>
      </trkpt>
      <trkpt lat="46.23407" lon="6.80073">
        <ele>1644</ele>
        <time>2010-01-02T05:56:33Z</time>
      </trkpt>
      <trkpt lat="46.23445" lon="6.80079">
        <ele>1641</ele>
        <time>2010-01-02T05:56:48Z</time>
      </trkpt>
      <trkpt lat="46.23474" lon="6.80094">
        <ele>1654</ele>
        <time>2010-01-02T05:57:00Z</time>
      </trkpt>
      <trkpt lat="46.23503" lon="6.80078">
        <ele>1642</ele>
        <time>2010-01-02T05:57:13Z</time>
      </trkpt>
      <trkpt lat="46.23532" lon="6.8006">
        <ele>1629</ele>
        <time>2010-01-02T05:57:25Z</time>
      </trkpt>
      <trkpt lat="46.23569" lon="6.80059">
        <ele>1626</ele>
        <time>2010-01-02T05:57:40Z</time>
      </trkpt>
      <trkpt lat="46.23601" lon="6.8007">
        <ele>1611</ele>
        <time>2010-01-02T05:57:53Z</time>
      </trkpt>
      <trkpt lat="46.23624" lon="6.80089">
        <ele>1623</ele>
        <time>2010-01-02T05:58:04Z</time>
      </trkpt>
      <trkpt lat="46.23635" lon="6.80137">
        <ele>1627</ele>
        <time>2010-01-02T05:58:18Z</time>
      </trkpt>
      <trkpt lat="46.23655" lon="6.8021">
        <ele>1652</ele>
        <time>2010-01-02T05:58:40Z</time>
      </trkpt>
      <trkpt lat="46.23671" lon="6.80278">
        <ele>1634</ele>
        <time>2010-01-02T05:59:00Z</time>
      </trkpt>
      <trkpt lat="46.23671" lon="6.80315">
        <ele>1642</ele>
        <time>2010-01-02T05:59:10Z</time>
      </trkpt>
      <trkpt lat="46.23677" lon="6.80368">
        <ele>1634</ele>
        <time>2010-01-02T05:59:25Z</time>
      </trkpt>
      <trkpt lat="46.23689" lon="6.80437">
        <ele>1624</ele>
        <time>2010-01-02T05:59:44Z</time>
      </trkpt>
      <trkpt lat="46.23693" lon="6.80481">
        <ele>1619</ele>
        <time>2010-01-02T05:59:57Z</time>
      </trkpt>
      <trkpt lat="46.23739" lon="6.80617">
        <ele>1606</ele>
        <time>2010-01-02T06:00:38Z</time>
      </trkpt>
      <trkpt lat="46.23779" lon="6.80668">
        <ele>1587</ele>
        <time>2010-01-02T06:01:00Z</time>
      </trkpt>
      <trkpt lat="46.23823" lon="6.80707">
        <ele>1583</ele>
        <time>2010-01-02T06:01:20Z</time>
      </trkpt>
      <trkpt lat="46.23866" lon="6.80726">
        <ele>1570</ele>
        <time>2010-01-02T06:01:39Z</time>
      </trkpt>
      <trkpt lat="46.23909" lon="6.80756">
        <ele>1572</ele>
        <time>2010-01-02T06:01:58Z</time>
      </trkpt>
      <trkpt lat="46.23951" lon="6.8079">
        <ele>1565</ele>
        <time>2010-01-02T06:02:17Z</time>
      </trkpt>
      <trkpt lat="46.23993" lon="6.8085">
        <ele>1577</ele>
        <time>2010-01-02T06:02:41Z</time>
      </trkpt>
      <trkpt lat="46.24019" lon="6.80883">
        <ele>1573</ele>
        <time>2010-01-02T06:02:54Z</time>
      </trkpt>
      <trkpt lat="46.2402" lon="6.80922">
        <ele>1586</ele>
        <time>2010-01-02T06:03:05Z</time>
      </trkpt>
      <trkpt lat="46.24073" lon="6.80955">
        <ele>1584</ele>
        <time>2010-01-02T06:03:28Z</time>
      </trkpt>
      <trkpt lat="46.24173" lon="6.81034">
        <ele>1582</ele>
        <time>2010-01-02T06:04:14Z</time>
      </trkpt>
      <trkpt lat="46.24406" lon="6.81213">
        <ele>1577</ele>
        <time>2010-01-02T06:05:59Z</time>
      </trkpt>
      <trkpt lat="46.24442" lon="6.81236">
        <ele>1543</ele>
        <time>2010-01-02T06:06:15Z</time>
      </trkpt>
      <trkpt lat="46.24491" lon="6.8126">
        <ele>1532</ele>
        <time>2010-01-02T06:06:36Z</time>
      </trkpt>
      <trkpt lat="46.2452" lon="6.81298">
        <ele>1504</ele>
        <time>2010-01-02T06:06:52Z</time>
      </trkpt>
      <trkpt lat="46.24544" lon="6.81325">
        <ele>1498</ele>
        <time>2010-01-02T06:07:04Z</time>
      </trkpt>
      <trkpt lat="46.24563" lon="6.81373">
        <ele>1504</ele>
        <time>2010-01-02T06:07:19Z</time>
      </trkpt>
      <trkpt lat="46.24551" lon="6.81453">
        <ele>1505</ele>
        <time>2010-01-02T06:07:42Z</time>
      </trkpt>
      <trkpt lat="46.24496" lon="6.81527">
        <ele>1528</ele>
        <time>2010-01-02T06:08:12Z</time>
      </trkpt>
      <trkpt lat="46.24465" lon="6.81588">
        <ele>1504</ele>
        <time>2010-01-02T06:08:33Z</time>
      </trkpt>
      <trkpt lat="46.24452" lon="6.81624">
        <ele>1504</ele>
        <time>2010-01-02T06:08:44Z</time>
      </trkpt>
      <trkpt lat="46.24442" lon="6.81684">
        <ele>1494</ele>
        <time>2010-01-02T06:09:01Z</time>
      </trkpt>
      <trkpt lat="46.24536" lon="6.81761">
        <ele>1481</ele>
        <time>2010-01-02T06:09:44Z</time>
      </trkpt>
      <trkpt lat="46.24595" lon="6.81788">
        <ele>1467</ele>
        <time>2010-01-02T06:10:09Z</time>
      </trkpt>
      <trkpt lat="46.24674" lon="6.81847">
        <ele>1443</ele>
        <time>2010-01-02T06:10:45Z</time>
      </trkpt>
      <trkpt lat="46.24771" lon="6.8205">
        <ele>1400</ele>
        <time>2010-01-02T06:11:53Z</time>
      </trkpt>
      <trkpt lat="46.24769" lon="6.82228">
        <ele>1394</ele>
        <time>2010-01-02T06:12:42Z</time>
      </trkpt>
      <trkpt lat="46.24753" lon="6.8231">
        <ele>1386</ele>
        <time>2010-01-02T06:13:06Z</time>
      </trkpt>
      <trkpt lat="46.2468" lon="6.82473">
        <ele>1388</ele>
        <time>2010-01-02T06:14:00Z</time>
      </trkpt>
      <trkpt lat="46.24774" lon="6.82582">
        <ele>1383</ele>
        <time>2010-01-02T06:14:47Z</time>
      </trkpt>
      <trkpt lat="46.24894" lon="6.82598">
        <ele>1380</ele>
        <time>2010-01-02T06:15:36Z</time>
      </trkpt>
      <trkpt lat="46.24977" lon="6.82609">
        <ele>1360</ele>
        <time>2010-01-02T06:16:09Z</time>
      </trkpt>
      <trkpt lat="46.2505" lon="6.82693">
        <ele>1346</ele>
        <time>2010-01-02T06:16:47Z</time>
      </trkpt>
      <trkpt lat="46.2512" lon="6.82774">
        <ele>1326</ele>
        <time>2010-01-02T06:17:23Z</time>
      </trkpt>
      <trkpt lat="46.25153" lon="6.82858">
        <ele>1329</ele>
        <time>2010-01-02T06:17:49Z</time>
      </trkpt>
      <trkpt lat="46.25185" lon="6.82962">
        <ele>1299</ele>
        <time>2010-01-02T06:18:21Z</time>
      </trkpt>
      <trkpt lat="46.25222" lon="6.8312">
        <ele>1304</ele>
        <time>2010-01-02T06:19:07Z</time>
      </trkpt>
      <trkpt lat="46.25248" lon="6.83153">
        <ele>1297</ele>
        <time>2010-01-02T06:19:21Z</time>
      </trkpt>
      <trkpt lat="46.25243" lon="6.83173">
        <ele>1299</ele>
        <time>2010-01-02T06:19:21Z</time>
      </trkpt>
      <trkpt lat="46.25247" lon="6.83157">
        <ele>1296</ele>
        <time>2010-01-02T06:19:25Z</time>
      </trkpt>
      <trkpt lat="46.25254" lon="6.83193">
        <ele>1283</ele>
        <time>2010-01-02T06:19:35Z</time>
      </trkpt>
      <trkpt lat="46.2527" lon="6.83211">
        <ele>1282</ele>
        <time>2010-01-02T06:19:44Z</time>
      </trkpt>
      <trkpt lat="46.25286" lon="6.83238">
        <ele>1281</ele>
        <time>2010-01-02T06:19:53Z</time>
      </trkpt>
      <trkpt lat="46.25305" lon="6.83242">
        <ele>1275</ele>
        <time>2010-01-02T06:20:01Z</time>
      </trkpt>
      <trkpt lat="46.25318" lon="6.83241">
        <ele>1271</ele>
        <time>2010-01-02T06:20:06Z</time>
      </trkpt>
      <trkpt lat="46.25338" lon="6.83299">
        <ele>1263</ele>
        <time>2010-01-02T06:20:24Z</time>
      </trkpt>
      <trkpt lat="46.25344" lon="6.83324">
        <ele>1269</ele>
        <time>2010-01-02T06:20:32Z</time>
      </trkpt>
      <trkpt lat="46.25369" lon="6.8337">
        <ele>1273</ele>
        <time>2010-01-02T06:20:48Z</time>
      </trkpt>
      <trkpt lat="46.25388" lon="6.83399">
        <ele>1271</ele>
        <time>2010-01-02T06:20:59Z</time>
      </trkpt>
      <trkpt lat="46.25409" lon="6.83433">
        <ele>1275</ele>
        <time>2010-01-02T06:21:11Z</time>
      </trkpt>
      <trkpt lat="46.2543" lon="6.83478">
        <ele>1261</ele>
        <time>2010-01-02T06:21:26Z</time>
      </trkpt>
      <trkpt lat="46.25432" lon="6.83483">
        <ele>1261</ele>
        <time>2010-01-02T06:21:28Z</time>
      </trkpt>
      <trkpt lat="46.25443" lon="6.83501">
        <ele>1265</ele>
        <time>2010-01-02T06:21:35Z</time>
      </trkpt>
      <trkpt lat="46.25459" lon="6.8354">
        <ele>1262</ele>
        <time>2010-01-02T06:21:47Z</time>
      </trkpt>
      <trkpt lat="46.25477" lon="6.83586">
        <ele>1265</ele>
        <time>2010-01-02T06:22:02Z</time>
      </trkpt>
      <trkpt lat="46.25509" lon="6.83655">
        <ele>1254</ele>
        <time>2010-01-02T06:22:25Z</time>
      </trkpt>
      <trkpt lat="46.25531" lon="6.837">
        <ele>1261</ele>
        <time>2010-01-02T06:22:40Z</time>
      </trkpt>
      <trkpt lat="46.25547" lon="6.83731">
        <ele>1262</ele>
        <time>2010-01-02T06:22:51Z</time>
      </trkpt>
      <trkpt lat="46.25564" lon="6.83753">
        <ele>1268</ele>
        <time>2010-01-02T06:23:00Z</time>
      </trkpt>
      <trkpt lat="46.25592" lon="6.83797">
        <ele>1253</ele>
        <time>2010-01-02T06:23:17Z</time>
      </trkpt>
      <trkpt lat="46.25592" lon="6.83789">
        <ele>1252</ele>
        <time>2010-01-02T06:23:19Z</time>
      </trkpt>
      <trkpt lat="46.25613" lon="6.83823">
        <ele>1253</ele>
        <time>2010-01-02T06:23:32Z</time>
      </trkpt>
      <trkpt lat="46.25632" lon="6.83869">
        <ele>1257</ele>
        <time>2010-01-02T06:23:46Z</time>
      </trkpt>
      <trkpt lat="46.25642" lon="6.83894">
        <ele>1256</ele>
        <time>2010-01-02T06:23:54Z</time>
      </trkpt>
      <trkpt lat="46.25656" lon="6.83926">
        <ele>1253</ele>
        <time>2010-01-02T06:24:05Z</time>
      </trkpt>
      <trkpt lat="46.25669" lon="6.8394">
        <ele>1245</ele>
        <time>2010-01-02T06:24:11Z</time>
      </trkpt>
      <trkpt lat="46.25684" lon="6.83953">
        <ele>1244</ele>
        <time>2010-01-02T06:24:18Z</time>
      </trkpt>
      <trkpt lat="46.25714" lon="6.83991">
        <ele>1244</ele>
        <time>2010-01-02T06:24:34Z</time>
      </trkpt>
      <trkpt lat="46.25732" lon="6.84017">
        <ele>1246</ele>
        <time>2010-01-02T06:24:45Z</time>
      </trkpt>
      <trkpt lat="46.25743" lon="6.8404">
        <ele>1246</ele>
        <time>2010-01-02T06:24:52Z</time>
      </trkpt>
      <trkpt lat="46.25752" lon="6.84044">
        <ele>1241</ele>
        <time>2010-01-02T06:24:56Z</time>
      </trkpt>
      <trkpt lat="46.25762" lon="6.84066">
        <ele>1242</ele>
        <time>2010-01-02T06:25:03Z</time>
      </trkpt>
      <trkpt lat="46.25771" lon="6.84043">
        <ele>1241</ele>
        <time>2010-01-02T06:25:11Z</time>
      </trkpt>
      <trkpt lat="46.25793" lon="6.84043">
        <ele>1240</ele>
        <time>2010-01-02T06:25:19Z</time>
      </trkpt>
      <trkpt lat="46.25823" lon="6.84054">
        <ele>1240</ele>
        <time>2010-01-02T06:25:32Z</time>
      </trkpt>
      <trkpt lat="46.25885" lon="6.84072">
        <ele>1237</ele>
        <time>2010-01-02T06:25:57Z</time>
      </trkpt>
      <trkpt lat="46.25932" lon="6.84082">
        <ele>1235</ele>
        <time>2010-01-02T06:26:16Z</time>
      </trkpt>
      <trkpt lat="46.25959" lon="6.84086">
        <ele>1240</ele>
        <time>2010-01-02T06:26:27Z</time>
      </trkpt>
      <trkpt lat="46.25995" lon="6.84088">
        <ele>1237</ele>
        <time>2010-01-02T06:26:42Z</time>
      </trkpt>
      <trkpt lat="46.26019" lon="6.84083">
        <ele>1230</ele>
        <time>2010-01-02T06:26:51Z</time>
      </trkpt>
      <trkpt lat="46.26055" lon="6.84077">
        <ele>1226</ele>
        <time>2010-01-02T06:27:06Z</time>
      </trkpt>
      <trkpt lat="46.26089" lon="6.84072">
        <ele>1224</ele>
        <time>2010-01-02T06:27:20Z</time>
      </trkpt>
      <trkpt lat="46.26116" lon="6.84071">
        <ele>1220</ele>
        <time>2010-01-02T06:27:30Z</time>
      </trkpt>
      <trkpt lat="46.26151" lon="6.84073">
        <ele>1219</ele>
        <time>2010-01-02T06:27:44Z</time>
      </trkpt>
      <trkpt lat="46.26181" lon="6.84081">
        <ele>1217</ele>
        <time>2010-01-02T06:27:56Z</time>
      </trkpt>
      <trkpt lat="46.26202" lon="6.84084">
        <ele>1223</ele>
        <time>2010-01-02T06:28:05Z</time>
      </trkpt>
      <trkpt lat="46.26222" lon="6.8409">
        <ele>1222</ele>
        <time>2010-01-02T06:28:13Z</time>
      </trkpt>
      <trkpt lat="46.26258" lon="6.84103">
        <ele>1215</ele>
        <time>2010-01-02T06:28:28Z</time>
      </trkpt>
      <trkpt lat="46.2629" lon="6.84115">
        <ele>1215</ele>
        <time>2010-01-02T06:28:41Z</time>
      </trkpt>
      <trkpt lat="46.26314" lon="6.84126">
        <ele>1215</ele>
        <time>2010-01-02T06:28:51Z</time>
      </trkpt>
      <trkpt lat="46.26334" lon="6.84131">
        <ele>1209</ele>
        <time>2010-01-02T06:28:59Z</time>
      </trkpt>
      <trkpt lat="46.26368" lon="6.84144">
        <ele>1208</ele>
        <time>2010-01-02T06:29:14Z</time>
      </trkpt>
      <trkpt lat="46.26404" lon="6.84152">
        <ele>1207</ele>
        <time>2010-01-02T06:29:28Z</time>
      </trkpt>
      <trkpt lat="46.26462" lon="6.84173">
        <ele>1212</ele>
        <time>2010-01-02T06:29:52Z</time>
      </trkpt>
      <trkpt lat="46.26493" lon="6.84178">
        <ele>1208</ele>
        <time>2010-01-02T06:30:04Z</time>
      </trkpt>
      <trkpt lat="46.26516" lon="6.84176">
        <ele>1207</ele>
        <time>2010-01-02T06:30:14Z</time>
      </trkpt>
      <trkpt lat="46.26552" lon="6.8417">
        <ele>1208</ele>
        <time>2010-01-02T06:30:28Z</time>
      </trkpt>
      <trkpt lat="46.26599" lon="6.84158">
        <ele>1198</ele>
        <time>2010-01-02T06:30:47Z</time>
      </trkpt>
      <trkpt lat="46.26638" lon="6.84142">
        <ele>1196</ele>
        <time>2010-01-02T06:31:04Z</time>
      </trkpt>
      <trkpt lat="46.2666" lon="6.84139">
        <ele>1196</ele>
        <time>2010-01-02T06:31:12Z</time>
      </trkpt>
      <trkpt lat="46.26678" lon="6.84143">
        <ele>1195</ele>
        <time>2010-01-02T06:31:20Z</time>
      </trkpt>
      <trkpt lat="46.26701" lon="6.84147">
        <ele>1194</ele>
        <time>2010-01-02T06:31:29Z</time>
      </trkpt>
      <trkpt lat="46.26726" lon="6.84168">
        <ele>1202</ele>
        <time>2010-01-02T06:31:41Z</time>
      </trkpt>
      <trkpt lat="46.26726" lon="6.84178">
        <ele>1203</ele>
        <time>2010-01-02T06:31:44Z</time>
      </trkpt>
      <trkpt lat="46.26712" lon="6.84187">
        <ele>1204</ele>
        <time>2010-01-02T06:31:49Z</time>
      </trkpt>
      <trkpt lat="46.26696" lon="6.84195">
        <ele>1205</ele>
        <time>2010-01-02T06:31:56Z</time>
      </trkpt>
      <trkpt lat="46.26681" lon="6.84202">
        <ele>1206</ele>
        <time>2010-01-02T06:32:03Z</time>
      </trkpt>
      <trkpt lat="46.26675" lon="6.84209">
        <ele>1207</ele>
        <time>2010-01-02T06:32:06Z</time>
      </trkpt>
      <trkpt lat="46.26661" lon="6.84216">
        <ele>1209</ele>
        <time>2010-01-02T06:32:12Z</time>
      </trkpt>
      <trkpt lat="46.26661" lon="6.84229">
        <ele>1211</ele>
        <time>2010-01-02T06:32:15Z</time>
      </trkpt>
      <trkpt lat="46.26659" lon="6.84237">
        <ele>1212</ele>
        <time>2010-01-02T06:32:17Z</time>
      </trkpt>
      <trkpt lat="46.26665" lon="6.84259">
        <ele>1220</ele>
        <time>2010-01-02T06:32:24Z</time>
      </trkpt>
      <trkpt lat="46.26669" lon="6.84265">
        <ele>1220</ele>
        <time>2010-01-02T06:32:26Z</time>
      </trkpt>
      <trkpt lat="46.26669" lon="6.84245">
        <ele>1214</ele>
        <time>2010-01-02T06:32:32Z</time>
      </trkpt>
      <trkpt lat="46.26676" lon="6.84242">
        <ele>1212</ele>
        <time>2010-01-02T06:32:35Z</time>
      </trkpt>
      <trkpt lat="46.26684" lon="6.84253">
        <ele>1219</ele>
        <time>2010-01-02T06:32:39Z</time>
      </trkpt>
      <trkpt lat="46.26683" lon="6.84269">
        <ele>1221</ele>
        <time>2010-01-02T06:32:44Z</time>
      </trkpt>
      <trkpt lat="46.2668" lon="6.84311">
        <ele>1227</ele>
        <time>2010-01-02T06:32:55Z</time>
      </trkpt>
      <trkpt lat="46.26679" lon="6.84343">
        <ele>1243</ele>
        <time>2010-01-02T06:33:04Z</time>
      </trkpt>
      <trkpt lat="46.26695" lon="6.84653">
        <ele>1395</ele>
        <time>2010-01-02T06:34:30Z</time>
      </trkpt>
      <trkpt lat="46.26702" lon="6.84793">
        <ele>1472</ele>
        <time>2010-01-02T06:35:09Z</time>
      </trkpt>
      <trkpt lat="46.26726" lon="6.84999">
        <ele>1505</ele>
        <time>2010-01-02T06:36:07Z</time>
      </trkpt>
      <trkpt lat="46.2674" lon="6.85268">
        <ele>1516</ele>
        <time>2010-01-02T06:37:22Z</time>
      </trkpt>
      <trkpt lat="46.26751" lon="6.85438">
        <ele>1556</ele>
        <time>2010-01-02T06:38:09Z</time>
      </trkpt>
      <trkpt lat="46.26753" lon="6.85531">
        <ele>1581</ele>
        <time>2010-01-02T06:38:35Z</time>
      </trkpt>
      <trkpt lat="46.26758" lon="6.8562">
        <ele>1602</ele>
        <time>2010-01-02T06:38:59Z</time>
      </trkpt>
      <trkpt lat="46.26767" lon="6.85687">
        <ele>1619</ele>
        <time>2010-01-02T06:39:18Z</time>
      </trkpt>
      <trkpt lat="46.26769" lon="6.8573">
        <ele>1625</ele>
        <time>2010-01-02T06:39:30Z</time>
      </trkpt>
      <trkpt lat="46.26769" lon="6.8574">
        <ele>1626</ele>
        <time>2010-01-02T06:39:33Z</time>
      </trkpt>
      <trkpt lat="46.26771" lon="6.85749">
        <ele>1627</ele>
        <time>2010-01-02T06:39:35Z</time>
      </trkpt>
      <trkpt lat="46.26773" lon="6.85756">
        <ele>1634</ele>
        <time>2010-01-02T06:39:37Z</time>
      </trkpt>
      <trkpt lat="46.26773" lon="6.8576">
        <ele>1635</ele>
        <time>2010-01-02T06:39:39Z</time>
      </trkpt>
      <trkpt lat="46.26772" lon="6.85764">
        <ele>1635</ele>
        <time>2010-01-02T06:39:40Z</time>
      </trkpt>
      <trkpt lat="46.26771" lon="6.8577">
        <ele>1635</ele>
        <time>2010-01-02T06:39:41Z</time>
      </trkpt>
      <trkpt lat="46.26771" lon="6.85773">
        <ele>1635</ele>
        <time>2010-01-02T06:39:42Z</time>
      </trkpt>
      <trkpt lat="46.26771" lon="6.85775">
        <ele>1636</ele>
        <time>2010-01-02T06:39:43Z</time>
      </trkpt>
      <trkpt lat="46.26772" lon="6.85782">
        <ele>1636</ele>
        <time>2010-01-02T06:39:45Z</time>
      </trkpt>
      <trkpt lat="46.26772" lon="6.85783">
        <ele>1636</ele>
        <time>2010-01-02T06:39:45Z</time>
      </trkpt>
      <trkpt lat="46.26773" lon="6.85782">
        <ele>1636</ele>
        <time>2010-01-02T06:39:45Z</time>
      </trkpt>
      <trkpt lat="46.26773" lon="6.85781">
        <ele>1636</ele>
        <time>2010-01-02T06:39:46Z</time>
      </trkpt>
      <trkpt lat="46.26775" lon="6.8578">
        <ele>1636</ele>
        <time>2010-01-02T06:39:47Z</time>
      </trkpt>
      <trkpt lat="46.26776" lon="6.85778">
        <ele>1636</ele>
        <time>2010-01-02T06:39:47Z</time>
      </trkpt>
      <trkpt lat="46.26777" lon="6.85777">
        <ele>1636</ele>
        <time>2010-01-02T06:39:48Z</time>
      </trkpt>
      <trkpt lat="46.26778" lon="6.85776">
        <ele>1636</ele>
        <time>2010-01-02T06:39:48Z</time>
      </trkpt>
      <trkpt lat="46.2678" lon="6.85776">
        <ele>1636</ele>
        <time>2010-01-02T06:39:49Z</time>
      </trkpt>
      <trkpt lat="46.2678" lon="6.85775">
        <ele>1636</ele>
        <time>2010-01-02T06:39:49Z</time>
      </trkpt>
      <trkpt lat="46.26781" lon="6.85775">
        <ele>1636</ele>
        <time>2010-01-02T06:39:49Z</time>
      </trkpt>
      <trkpt lat="46.26782" lon="6.85776">
        <ele>1636</ele>
        <time>2010-01-02T06:39:50Z</time>
      </trkpt>
      <trkpt lat="46.26782" lon="6.85776">
        <ele>1636</ele>
        <time>2010-01-02T06:39:50Z</time>
      </trkpt>
      <trkpt lat="46.26782" lon="6.85777">
        <ele>1636</ele>
        <time>2010-01-02T06:39:50Z</time>
      </trkpt>
      <trkpt lat="46.26782" lon="6.85779">
        <ele>1636</ele>
        <time>2010-01-02T06:39:51Z</time>
      </trkpt>
      <trkpt lat="46.26782" lon="6.85781">
        <ele>1636</ele>
        <time>2010-01-02T06:39:51Z</time>
      </trkpt>
      <trkpt lat="46.26782" lon="6.85782">
        <ele>1636</ele>
        <time>2010-01-02T06:39:52Z</time>
      </trkpt>
      <trkpt lat="46.26781" lon="6.85783">
        <ele>1636</ele>
        <time>2010-01-02T06:39:52Z</time>
      </trkpt>
      <trkpt lat="46.2678" lon="6.85784">
        <ele>1637</ele>
        <time>2010-01-02T06:39:52Z</time>
      </trkpt>
      <trkpt lat="46.2678" lon="6.85785">
        <ele>1637</ele>
        <time>2010-01-02T06:39:53Z</time>
      </trkpt>
      <trkpt lat="46.26779" lon="6.85786">
        <ele>1637</ele>
        <time>2010-01-02T06:39:53Z</time>
      </trkpt>
      <trkpt lat="46.26778" lon="6.85786">
        <ele>1637</ele>
        <time>2010-01-02T06:39:53Z</time>
      </trkpt>
      <trkpt lat="46.26777" lon="6.85786">
        <ele>1637</ele>
        <time>2010-01-02T06:39:54Z</time>
      </trkpt>
      <trkpt lat="46.26775" lon="6.85786">
        <ele>1637</ele>
        <time>2010-01-02T06:39:55Z</time>
      </trkpt>
      <trkpt lat="46.26774" lon="6.85787">
        <ele>1637</ele>
        <time>2010-01-02T06:39:55Z</time>
      </trkpt>
      <trkpt lat="46.26773" lon="6.85787">
        <ele>1637</ele>
        <time>2010-01-02T06:39:56Z</time>
      </trkpt>
      <trkpt lat="46.26772" lon="6.85788">
        <ele>1637</ele>
        <time>2010-01-02T06:39:56Z</time>
      </trkpt>
      <trkpt lat="46.2677" lon="6.8579">
        <ele>1637</ele>
        <time>2010-01-02T06:39:57Z</time>
      </trkpt>
      <trkpt lat="46.26769" lon="6.85791">
        <ele>1637</ele>
        <time>2010-01-02T06:39:57Z</time>
      </trkpt>
      <trkpt lat="46.26768" lon="6.85792">
        <ele>1637</ele>
        <time>2010-01-02T06:39:58Z</time>
      </trkpt>
      <trkpt lat="46.26766" lon="6.85793">
        <ele>1637</ele>
        <time>2010-01-02T06:39:59Z</time>
      </trkpt>
      <trkpt lat="46.26763" lon="6.85795">
        <ele>1637</ele>
        <time>2010-01-02T06:40:00Z</time>
      </trkpt>
      <trkpt lat="46.26761" lon="6.85797">
        <ele>1637</ele>
        <time>2010-01-02T06:40:01Z</time>
      </trkpt>
      <trkpt lat="46.2676" lon="6.85798">
        <ele>1637</ele>
        <time>2010-01-02T06:40:01Z</time>
      </trkpt>
      <trkpt lat="46.26759" lon="6.85799">
        <ele>1637</ele>
        <time>2010-01-02T06:40:02Z</time>
      </trkpt>
      <trkpt lat="46.26756" lon="6.858">
        <ele>1637</ele>
        <time>2010-01-02T06:40:03Z</time>
      </trkpt>
      <trkpt lat="46.26755" lon="6.858">
        <ele>1637</ele>
        <time>2010-01-02T06:40:03Z</time>
      </trkpt>
      <trkpt lat="46.26755" lon="6.85801">
        <ele>1637</ele>
        <time>2010-01-02T06:40:04Z</time>
      </trkpt>
      <trkpt lat="46.26754" lon="6.85801">
        <ele>1637</ele>
        <time>2010-01-02T06:40:04Z</time>
      </trkpt>
      <trkpt lat="46.26753" lon="6.85801">
        <ele>1637</ele>
        <time>2010-01-02T06:40:05Z</time>
      </trkpt>
      <trkpt lat="46.26752" lon="6.85802">
        <ele>1637</ele>
        <time>2010-01-02T06:40:05Z</time>
      </trkpt>
      <trkpt lat="46.26751" lon="6.85803">
        <ele>1637</ele>
        <time>2010-01-02T06:40:05Z</time>
      </trkpt>
      <trkpt lat="46.2675" lon="6.85804">
        <ele>1633</ele>
        <time>2010-01-02T06:40:06Z</time>
      </trkpt>
      <trkpt lat="46.26748" lon="6.85806">
        <ele>1634</ele>
        <time>2010-01-02T06:40:07Z</time>
      </trkpt>
      <trkpt lat="46.26745" lon="6.85809">
        <ele>1634</ele>
        <time>2010-01-02T06:40:09Z</time>
      </trkpt>
      <trkpt lat="46.26742" lon="6.85812">
        <ele>1634</ele>
        <time>2010-01-02T06:40:10Z</time>
      </trkpt>
      <trkpt lat="46.26739" lon="6.85815">
        <ele>1634</ele>
        <time>2010-01-02T06:40:11Z</time>
      </trkpt>
      <trkpt lat="46.26736" lon="6.85818">
        <ele>1634</ele>
        <time>2010-01-02T06:40:13Z</time>
      </trkpt>
      <trkpt lat="46.26734" lon="6.8582">
        <ele>1634</ele>
        <time>2010-01-02T06:40:14Z</time>
      </trkpt>
      <trkpt lat="46.26732" lon="6.8582">
        <ele>1634</ele>
        <time>2010-01-02T06:40:14Z</time>
      </trkpt>
      <trkpt lat="46.26732" lon="6.85821">
        <ele>1634</ele>
        <time>2010-01-02T06:40:15Z</time>
      </trkpt>
      <trkpt lat="46.2673" lon="6.85822">
        <ele>1634</ele>
        <time>2010-01-02T06:40:15Z</time>
      </trkpt>
      <trkpt lat="46.26729" lon="6.85823">
        <ele>1634</ele>
        <time>2010-01-02T06:40:16Z</time>
      </trkpt>
      <trkpt lat="46.26728" lon="6.85824">
        <ele>1634</ele>
        <time>2010-01-02T06:40:16Z</time>
      </trkpt>
      <trkpt lat="46.26727" lon="6.85825">
        <ele>1634</ele>
        <time>2010-01-02T06:40:17Z</time>
      </trkpt>
      <trkpt lat="46.26726" lon="6.85825">
        <ele>1634</ele>
        <time>2010-01-02T06:40:17Z</time>
      </trkpt>
      <trkpt lat="46.26726" lon="6.85826">
        <ele>1634</ele>
        <time>2010-01-02T06:40:18Z</time>
      </trkpt>
      <trkpt lat="46.26725" lon="6.85828">
        <ele>1634</ele>
        <time>2010-01-02T06:40:18Z</time>
      </trkpt>
      <trkpt lat="46.26724" lon="6.85829">
        <ele>1634</ele>
        <time>2010-01-02T06:40:19Z</time>
      </trkpt>
      <trkpt lat="46.26723" lon="6.85831">
        <ele>1634</ele>
        <time>2010-01-02T06:40:19Z</time>
      </trkpt>
      <trkpt lat="46.26722" lon="6.85833">
        <ele>1634</ele>
        <time>2010-01-02T06:40:20Z</time>
      </trkpt>
      <trkpt lat="46.26721" lon="6.85835">
        <ele>1640</ele>
        <time>2010-01-02T06:40:21Z</time>
      </trkpt>
      <trkpt lat="46.26718" lon="6.85838">
        <ele>1640</ele>
        <time>2010-01-02T06:40:22Z</time>
      </trkpt>
      <trkpt lat="46.26715" lon="6.85842">
        <ele>1639</ele>
        <time>2010-01-02T06:40:24Z</time>
      </trkpt>
      <trkpt lat="46.26713" lon="6.85844">
        <ele>1639</ele>
        <time>2010-01-02T06:40:25Z</time>
      </trkpt>
      <trkpt lat="46.26712" lon="6.85846">
        <ele>1639</ele>
        <time>2010-01-02T06:40:25Z</time>
      </trkpt>
      <trkpt lat="46.26711" lon="6.85847">
        <ele>1639</ele>
        <time>2010-01-02T06:40:26Z</time>
      </trkpt>
      <trkpt lat="46.2671" lon="6.85849">
        <ele>1639</ele>
        <time>2010-01-02T06:40:26Z</time>
      </trkpt>
      <trkpt lat="46.26709" lon="6.85851">
        <ele>1639</ele>
        <time>2010-01-02T06:40:27Z</time>
      </trkpt>
      <trkpt lat="46.26709" lon="6.85852">
        <ele>1639</ele>
        <time>2010-01-02T06:40:27Z</time>
      </trkpt>
      <trkpt lat="46.26707" lon="6.85854">
        <ele>1639</ele>
        <time>2010-01-02T06:40:28Z</time>
      </trkpt>
      <trkpt lat="46.26706" lon="6.85855">
        <ele>1639</ele>
        <time>2010-01-02T06:40:29Z</time>
      </trkpt>
      <trkpt lat="46.26705" lon="6.85856">
        <ele>1639</ele>
        <time>2010-01-02T06:40:29Z</time>
      </trkpt>
      <trkpt lat="46.26705" lon="6.85857">
        <ele>1639</ele>
        <time>2010-01-02T06:40:29Z</time>
      </trkpt>
      <trkpt lat="46.26702" lon="6.85863">
        <ele>1640</ele>
        <time>2010-01-02T06:40:31Z</time>
      </trkpt>
      <trkpt lat="46.26698" lon="6.85869">
        <ele>1640</ele>
        <time>2010-01-02T06:40:34Z</time>
      </trkpt>
      <trkpt lat="46.26696" lon="6.85871">
        <ele>1640</ele>
        <time>2010-01-02T06:40:35Z</time>
      </trkpt>
      <trkpt lat="46.26692" lon="6.85877">
        <ele>1640</ele>
        <time>2010-01-02T06:40:37Z</time>
      </trkpt>
      <trkpt lat="46.26689" lon="6.85882">
        <ele>1640</ele>
        <time>2010-01-02T06:40:39Z</time>
      </trkpt>
      <trkpt lat="46.26687" lon="6.85884">
        <ele>1640</ele>
        <time>2010-01-02T06:40:40Z</time>
      </trkpt>
      <trkpt lat="46.26685" lon="6.85887">
        <ele>1641</ele>
        <time>2010-01-02T06:40:41Z</time>
      </trkpt>
      <trkpt lat="46.26685" lon="6.85887">
        <ele>1641</ele>
        <time>2010-01-02T06:40:41Z</time>
      </trkpt>
      <trkpt lat="46.26684" lon="6.85889">
        <ele>1641</ele>
        <time>2010-01-02T06:40:42Z</time>
      </trkpt>
      <trkpt lat="46.26684" lon="6.85889">
        <ele>1641</ele>
        <time>2010-01-02T06:40:42Z</time>
      </trkpt>
      <trkpt lat="46.26683" lon="6.8589">
        <ele>1641</ele>
        <time>2010-01-02T06:40:42Z</time>
      </trkpt>
      <trkpt lat="46.26683" lon="6.8589">
        <ele>1641</ele>
        <time>2010-01-02T06:40:42Z</time>
      </trkpt>
      <trkpt lat="46.26679" lon="6.85895">
        <ele>1641</ele>
        <time>2010-01-02T06:40:44Z</time>
      </trkpt>
      <trkpt lat="46.26673" lon="6.85905">
        <ele>1641</ele>
        <time>2010-01-02T06:40:48Z</time>
      </trkpt>
      <trkpt lat="46.2667" lon="6.85908">
        <ele>1642</ele>
        <time>2010-01-02T06:40:50Z</time>
      </trkpt>
      <trkpt lat="46.26667" lon="6.8591">
        <ele>1642</ele>
        <time>2010-01-02T06:40:51Z</time>
      </trkpt>
      <trkpt lat="46.26661" lon="6.85919">
        <ele>1643</ele>
        <time>2010-01-02T06:40:54Z</time>
      </trkpt>
      <trkpt lat="46.26652" lon="6.85928">
        <ele>1644</ele>
        <time>2010-01-02T06:40:59Z</time>
      </trkpt>
      <trkpt lat="46.26645" lon="6.85932">
        <ele>1645</ele>
        <time>2010-01-02T06:41:01Z</time>
      </trkpt>
      <trkpt lat="46.26637" lon="6.85938">
        <ele>1646</ele>
        <time>2010-01-02T06:41:05Z</time>
      </trkpt>
      <trkpt lat="46.26632" lon="6.85941">
        <ele>1646</ele>
        <time>2010-01-02T06:41:07Z</time>
      </trkpt>
      <trkpt lat="46.26628" lon="6.85945">
        <ele>1646</ele>
        <time>2010-01-02T06:41:09Z</time>
      </trkpt>
      <trkpt lat="46.26623" lon="6.85948">
        <ele>1646</ele>
        <time>2010-01-02T06:41:12Z</time>
      </trkpt>
      <trkpt lat="46.26617" lon="6.85953">
        <ele>1646</ele>
        <time>2010-01-02T06:41:14Z</time>
      </trkpt>
      <trkpt lat="46.26595" lon="6.85974">
        <ele>1648</ele>
        <time>2010-01-02T06:41:25Z</time>
      </trkpt>
      <trkpt lat="46.26584" lon="6.85987">
        <ele>1649</ele>
        <time>2010-01-02T06:41:31Z</time>
      </trkpt>
      <trkpt lat="46.26555" lon="6.86023">
        <ele>1657</ele>
        <time>2010-01-02T06:41:46Z</time>
      </trkpt>
      <trkpt lat="46.26528" lon="6.86048">
        <ele>1659</ele>
        <time>2010-01-02T06:41:59Z</time>
      </trkpt>
      <trkpt lat="46.26496" lon="6.86072">
        <ele>1665</ele>
        <time>2010-01-02T06:42:13Z</time>
      </trkpt>
      <trkpt lat="46.26488" lon="6.86081">
        <ele>1665</ele>
        <time>2010-01-02T06:42:17Z</time>
      </trkpt>
      <trkpt lat="46.26479" lon="6.86091">
        <ele>1671</ele>
        <time>2010-01-02T06:42:22Z</time>
      </trkpt>
      <trkpt lat="46.26479" lon="6.86092">
        <ele>1671</ele>
        <time>2010-01-02T06:42:22Z</time>
      </trkpt>
      <trkpt lat="46.26473" lon="6.86111">
        <ele>1673</ele>
        <time>2010-01-02T06:42:28Z</time>
      </trkpt>
      <trkpt lat="46.26464" lon="6.86138">
        <ele>1675</ele>
        <time>2010-01-02T06:42:36Z</time>
      </trkpt>
      <trkpt lat="46.26464" lon="6.86149">
        <ele>1676</ele>
        <time>2010-01-02T06:42:39Z</time>
      </trkpt>
      <trkpt lat="46.26466" lon="6.86158">
        <ele>1676</ele>
        <time>2010-01-02T06:42:42Z</time>
      </trkpt>
      <trkpt lat="46.26472" lon="6.86171">
        <ele>1679</ele>
        <time>2010-01-02T06:42:46Z</time>
      </trkpt>
      <trkpt lat="46.26476" lon="6.86177">
        <ele>1679</ele>
        <time>2010-01-02T06:42:48Z</time>
      </trkpt>
      <trkpt lat="46.26483" lon="6.86178">
        <ele>1678</ele>
        <time>2010-01-02T06:42:51Z</time>
      </trkpt>
      <trkpt lat="46.26496" lon="6.86183">
        <ele>1678</ele>
        <time>2010-01-02T06:42:57Z</time>
      </trkpt>
      <trkpt lat="46.26504" lon="6.86182">
        <ele>1677</ele>
        <time>2010-01-02T06:43:00Z</time>
      </trkpt>
      <trkpt lat="46.26515" lon="6.86183">
        <ele>1678</ele>
        <time>2010-01-02T06:43:04Z</time>
      </trkpt>
      <trkpt lat="46.26523" lon="6.86185">
        <ele>1679</ele>
        <time>2010-01-02T06:43:07Z</time>
      </trkpt>
      <trkpt lat="46.26537" lon="6.86186">
        <ele>1680</ele>
        <time>2010-01-02T06:43:13Z</time>
      </trkpt>
      <trkpt lat="46.26545" lon="6.86186">
        <ele>1680</ele>
        <time>2010-01-02T06:43:16Z</time>
      </trkpt>
      <trkpt lat="46.26554" lon="6.86186">
        <ele>1680</ele>
        <time>2010-01-02T06:43:20Z</time>
      </trkpt>
      <trkpt lat="46.26566" lon="6.8619">
        <ele>1681</ele>
        <time>2010-01-02T06:43:25Z</time>
      </trkpt>
      <trkpt lat="46.26574" lon="6.86193">
        <ele>1681</ele>
        <time>2010-01-02T06:43:28Z</time>
      </trkpt>
      <trkpt lat="46.26595" lon="6.86217">
        <ele>1685</ele>
        <time>2010-01-02T06:43:39Z</time>
      </trkpt>
      <trkpt lat="46.26603" lon="6.8623">
        <ele>1686</ele>
        <time>2010-01-02T06:43:44Z</time>
      </trkpt>
      <trkpt lat="46.26603" lon="6.86246">
        <ele>1686</ele>
        <time>2010-01-02T06:43:48Z</time>
      </trkpt>
      <trkpt lat="46.26598" lon="6.86263">
        <ele>1690</ele>
        <time>2010-01-02T06:43:53Z</time>
      </trkpt>
      <trkpt lat="46.26588" lon="6.86288">
        <ele>1692</ele>
        <time>2010-01-02T06:44:01Z</time>
      </trkpt>
      <trkpt lat="46.26582" lon="6.86298">
        <ele>1687</ele>
        <time>2010-01-02T06:44:04Z</time>
      </trkpt>
      <trkpt lat="46.26582" lon="6.86298">
        <ele>1687</ele>
        <time>2010-01-02T06:44:04Z</time>
      </trkpt>
      <trkpt lat="46.26567" lon="6.86322">
        <ele>1688</ele>
        <time>2010-01-02T06:44:13Z</time>
      </trkpt>
      <trkpt lat="46.26562" lon="6.86331">
        <ele>1688</ele>
        <time>2010-01-02T06:44:17Z</time>
      </trkpt>
      <trkpt lat="46.26559" lon="6.86337">
        <ele>1690</ele>
        <time>2010-01-02T06:44:19Z</time>
      </trkpt>
      <trkpt lat="46.26555" lon="6.86343">
        <ele>1689</ele>
        <time>2010-01-02T06:44:21Z</time>
      </trkpt>
      <trkpt lat="46.26555" lon="6.86344">
        <ele>1689</ele>
        <time>2010-01-02T06:44:21Z</time>
      </trkpt>
      <trkpt lat="46.26555" lon="6.86346">
        <ele>1689</ele>
        <time>2010-01-02T06:44:22Z</time>
      </trkpt>
      <trkpt lat="46.26555" lon="6.86346">
        <ele>1689</ele>
        <time>2010-01-02T06:44:22Z</time>
      </trkpt>
      <trkpt lat="46.26555" lon="6.86347">
        <ele>1689</ele>
        <time>2010-01-02T06:44:22Z</time>
      </trkpt>
      <trkpt lat="46.26553" lon="6.86358">
        <ele>1689</ele>
        <time>2010-01-02T06:44:25Z</time>
      </trkpt>
      <trkpt lat="46.26553" lon="6.86358">
        <ele>1689</ele>
        <time>2010-01-02T06:44:25Z</time>
      </trkpt>
      <trkpt lat="46.2655" lon="6.86374">
        <ele>1689</ele>
        <time>2010-01-02T06:44:30Z</time>
      </trkpt>
      <trkpt lat="46.26542" lon="6.86423">
        <ele>1691</ele>
        <time>2010-01-02T06:44:44Z</time>
      </trkpt>
      <trkpt lat="46.26542" lon="6.86444">
        <ele>1691</ele>
        <time>2010-01-02T06:44:50Z</time>
      </trkpt>
      <trkpt lat="46.26544" lon="6.8646">
        <ele>1691</ele>
        <time>2010-01-02T06:44:54Z</time>
      </trkpt>
      <trkpt lat="46.26543" lon="6.86496">
        <ele>1691</ele>
        <time>2010-01-02T06:45:04Z</time>
      </trkpt>
      <trkpt lat="46.26541" lon="6.86517">
        <ele>1693</ele>
        <time>2010-01-02T06:45:10Z</time>
      </trkpt>
      <trkpt lat="46.26536" lon="6.86535">
        <ele>1693</ele>
        <time>2010-01-02T06:45:15Z</time>
      </trkpt>
      <trkpt lat="46.26539" lon="6.86548">
        <ele>1693</ele>
        <time>2010-01-02T06:45:19Z</time>
      </trkpt>
      <trkpt lat="46.26539" lon="6.86549">
        <ele>1693</ele>
        <time>2010-01-02T06:45:19Z</time>
      </trkpt>
      <trkpt lat="46.26545" lon="6.86562">
        <ele>1693</ele>
        <time>2010-01-02T06:45:23Z</time>
      </trkpt>
      <trkpt lat="46.26552" lon="6.86573">
        <ele>1692</ele>
        <time>2010-01-02T06:45:28Z</time>
      </trkpt>
      <trkpt lat="46.26553" lon="6.86576">
        <ele>1692</ele>
        <time>2010-01-02T06:45:29Z</time>
      </trkpt>
      <trkpt lat="46.26559" lon="6.86615">
        <ele>1692</ele>
        <time>2010-01-02T06:45:40Z</time>
      </trkpt>
      <trkpt lat="46.26559" lon="6.86632">
        <ele>1692</ele>
        <time>2010-01-02T06:45:45Z</time>
      </trkpt>
      <trkpt lat="46.26558" lon="6.86648">
        <ele>1691</ele>
        <time>2010-01-02T06:45:49Z</time>
      </trkpt>
      <trkpt lat="46.26553" lon="6.86663">
        <ele>1691</ele>
        <time>2010-01-02T06:45:54Z</time>
      </trkpt>
      <trkpt lat="46.26545" lon="6.86684">
        <ele>1690</ele>
        <time>2010-01-02T06:46:00Z</time>
      </trkpt>
      <trkpt lat="46.26534" lon="6.8671">
        <ele>1690</ele>
        <time>2010-01-02T06:46:08Z</time>
      </trkpt>
      <trkpt lat="46.26525" lon="6.86736">
        <ele>1690</ele>
        <time>2010-01-02T06:46:17Z</time>
      </trkpt>
      <trkpt lat="46.26522" lon="6.86751">
        <ele>1683</ele>
        <time>2010-01-02T06:46:21Z</time>
      </trkpt>
      <trkpt lat="46.26521" lon="6.86763">
        <ele>1681</ele>
        <time>2010-01-02T06:46:24Z</time>
      </trkpt>
      <trkpt lat="46.26518" lon="6.86765">
        <ele>1682</ele>
        <time>2010-01-02T06:46:25Z</time>
      </trkpt>
      <trkpt lat="46.26514" lon="6.86774">
        <ele>1681</ele>
        <time>2010-01-02T06:46:28Z</time>
      </trkpt>
      <trkpt lat="46.26514" lon="6.86775">
        <ele>1680</ele>
        <time>2010-01-02T06:46:29Z</time>
      </trkpt>
      <trkpt lat="46.26506" lon="6.8678">
        <ele>1680</ele>
        <time>2010-01-02T06:46:32Z</time>
      </trkpt>
      <trkpt lat="46.26493" lon="6.86789">
        <ele>1690</ele>
        <time>2010-01-02T06:46:38Z</time>
      </trkpt>
      <trkpt lat="46.26475" lon="6.86803">
        <ele>1689</ele>
        <time>2010-01-02T06:46:46Z</time>
      </trkpt>
      <trkpt lat="46.26471" lon="6.86805">
        <ele>1689</ele>
        <time>2010-01-02T06:46:48Z</time>
      </trkpt>
      <trkpt lat="46.26463" lon="6.8681">
        <ele>1690</ele>
        <time>2010-01-02T06:46:51Z</time>
      </trkpt>
      <trkpt lat="46.26458" lon="6.86815">
        <ele>1690</ele>
        <time>2010-01-02T06:46:54Z</time>
      </trkpt>
      <trkpt lat="46.26448" lon="6.86825">
        <ele>1690</ele>
        <time>2010-01-02T06:46:58Z</time>
      </trkpt>
      <trkpt lat="46.26444" lon="6.86827">
        <ele>1690</ele>
        <time>2010-01-02T06:47:00Z</time>
      </trkpt>
      <trkpt lat="46.26437" lon="6.86832">
        <ele>1691</ele>
        <time>2010-01-02T06:47:03Z</time>
      </trkpt>
      <trkpt lat="46.26429" lon="6.86838">
        <ele>1682</ele>
        <time>2010-01-02T06:47:07Z</time>
      </trkpt>
      <trkpt lat="46.26413" lon="6.8685">
        <ele>1687</ele>
        <time>2010-01-02T06:47:14Z</time>
      </trkpt>
      <trkpt lat="46.264" lon="6.86859">
        <ele>1686</ele>
        <time>2010-01-02T06:47:20Z</time>
      </trkpt>
      <trkpt lat="46.26386" lon="6.86866">
        <ele>1685</ele>
        <time>2010-01-02T06:47:26Z</time>
      </trkpt>
      <trkpt lat="46.26372" lon="6.86878">
        <ele>1685</ele>
        <time>2010-01-02T06:47:32Z</time>
      </trkpt>
      <trkpt lat="46.26361" lon="6.86887">
        <ele>1685</ele>
        <time>2010-01-02T06:47:37Z</time>
      </trkpt>
      <trkpt lat="46.26343" lon="6.86896">
        <ele>1684</ele>
        <time>2010-01-02T06:47:45Z</time>
      </trkpt>
      <trkpt lat="46.26324" lon="6.86903">
        <ele>1690</ele>
        <time>2010-01-02T06:47:53Z</time>
      </trkpt>
      <trkpt lat="46.26318" lon="6.86906">
        <ele>1690</ele>
        <time>2010-01-02T06:47:56Z</time>
      </trkpt>
      <trkpt lat="46.26305" lon="6.86912">
        <ele>1693</ele>
        <time>2010-01-02T06:48:01Z</time>
      </trkpt>
      <trkpt lat="46.26301" lon="6.86917">
        <ele>1693</ele>
        <time>2010-01-02T06:48:03Z</time>
      </trkpt>
      <trkpt lat="46.26291" lon="6.86928">
        <ele>1689</ele>
        <time>2010-01-02T06:48:08Z</time>
      </trkpt>
      <trkpt lat="46.26283" lon="6.86937">
        <ele>1690</ele>
        <time>2010-01-02T06:48:12Z</time>
      </trkpt>
      <trkpt lat="46.26276" lon="6.86943">
        <ele>1690</ele>
        <time>2010-01-02T06:48:15Z</time>
      </trkpt>
      <trkpt lat="46.2627" lon="6.86951">
        <ele>1690</ele>
        <time>2010-01-02T06:48:19Z</time>
      </trkpt>
      <trkpt lat="46.2626" lon="6.8698">
        <ele>1690</ele>
        <time>2010-01-02T06:48:27Z</time>
      </trkpt>
      <trkpt lat="46.26254" lon="6.87014">
        <ele>1691</ele>
        <time>2010-01-02T06:48:37Z</time>
      </trkpt>
      <trkpt lat="46.2625" lon="6.87043">
        <ele>1691</ele>
        <time>2010-01-02T06:48:45Z</time>
      </trkpt>
      <trkpt lat="46.26246" lon="6.8707">
        <ele>1701</ele>
        <time>2010-01-02T06:48:53Z</time>
      </trkpt>
      <trkpt lat="46.26245" lon="6.87084">
        <ele>1699</ele>
        <time>2010-01-02T06:48:57Z</time>
      </trkpt>
      <trkpt lat="46.26247" lon="6.871">
        <ele>1701</ele>
        <time>2010-01-02T06:49:01Z</time>
      </trkpt>
      <trkpt lat="46.26247" lon="6.8711">
        <ele>1703</ele>
        <time>2010-01-02T06:49:04Z</time>
      </trkpt>
      <trkpt lat="46.26244" lon="6.87114">
        <ele>1703</ele>
        <time>2010-01-02T06:49:06Z</time>
      </trkpt>
      <trkpt lat="46.26237" lon="6.87113">
        <ele>1704</ele>
        <time>2010-01-02T06:49:09Z</time>
      </trkpt>
      <trkpt lat="46.26221" lon="6.87098">
        <ele>1705</ele>
        <time>2010-01-02T06:49:16Z</time>
      </trkpt>
      <trkpt lat="46.26206" lon="6.87084">
        <ele>1707</ele>
        <time>2010-01-02T06:49:23Z</time>
      </trkpt>
      <trkpt lat="46.26197" lon="6.8707">
        <ele>1708</ele>
        <time>2010-01-02T06:49:29Z</time>
      </trkpt>
      <trkpt lat="46.26194" lon="6.87058">
        <ele>1708</ele>
        <time>2010-01-02T06:49:32Z</time>
      </trkpt>
      <trkpt lat="46.26193" lon="6.87041">
        <ele>1708</ele>
        <time>2010-01-02T06:49:37Z</time>
      </trkpt>
      <trkpt lat="46.26196" lon="6.87027">
        <ele>1708</ele>
        <time>2010-01-02T06:49:41Z</time>
      </trkpt>
      <trkpt lat="46.26198" lon="6.87005">
        <ele>1709</ele>
        <time>2010-01-02T06:49:47Z</time>
      </trkpt>
      <trkpt lat="46.26196" lon="6.86987">
        <ele>1711</ele>
        <time>2010-01-02T06:49:52Z</time>
      </trkpt>
      <trkpt lat="46.26196" lon="6.86979">
        <ele>1711</ele>
        <time>2010-01-02T06:49:54Z</time>
      </trkpt>
      <trkpt lat="46.26196" lon="6.86971">
        <ele>1711</ele>
        <time>2010-01-02T06:49:57Z</time>
      </trkpt>
      <trkpt lat="46.26195" lon="6.86956">
        <ele>1712</ele>
        <time>2010-01-02T06:50:01Z</time>
      </trkpt>
      <trkpt lat="46.26194" lon="6.86947">
        <ele>1712</ele>
        <time>2010-01-02T06:50:03Z</time>
      </trkpt>
      <trkpt lat="46.26191" lon="6.8693">
        <ele>1715</ele>
        <time>2010-01-02T06:50:08Z</time>
      </trkpt>
      <trkpt lat="46.26189" lon="6.86915">
        <ele>1720</ele>
        <time>2010-01-02T06:50:12Z</time>
      </trkpt>
      <trkpt lat="46.26188" lon="6.869">
        <ele>1720</ele>
        <time>2010-01-02T06:50:17Z</time>
      </trkpt>
      <trkpt lat="46.26187" lon="6.86891">
        <ele>1720</ele>
        <time>2010-01-02T06:50:19Z</time>
      </trkpt>
      <trkpt lat="46.26186" lon="6.86877">
        <ele>1720</ele>
        <time>2010-01-02T06:50:23Z</time>
      </trkpt>
      <trkpt lat="46.26185" lon="6.86871">
        <ele>1721</ele>
        <time>2010-01-02T06:50:25Z</time>
      </trkpt>
      <trkpt lat="46.26183" lon="6.86864">
        <ele>1721</ele>
        <time>2010-01-02T06:50:27Z</time>
      </trkpt>
      <trkpt lat="46.26183" lon="6.86861">
        <ele>1722</ele>
        <time>2010-01-02T06:50:27Z</time>
      </trkpt>
      <trkpt lat="46.2618" lon="6.86844">
        <ele>1725</ele>
        <time>2010-01-02T06:50:32Z</time>
      </trkpt>
      <trkpt lat="46.2618" lon="6.86832">
        <ele>1730</ele>
        <time>2010-01-02T06:50:36Z</time>
      </trkpt>
      <trkpt lat="46.26183" lon="6.86817">
        <ele>1729</ele>
        <time>2010-01-02T06:50:40Z</time>
      </trkpt>
      <trkpt lat="46.26187" lon="6.86809">
        <ele>1729</ele>
        <time>2010-01-02T06:50:43Z</time>
      </trkpt>
      <trkpt lat="46.26195" lon="6.86802">
        <ele>1729</ele>
        <time>2010-01-02T06:50:46Z</time>
      </trkpt>
      <trkpt lat="46.26196" lon="6.86799">
        <ele>1729</ele>
        <time>2010-01-02T06:50:47Z</time>
      </trkpt>
      <trkpt lat="46.26197" lon="6.86795">
        <ele>1729</ele>
        <time>2010-01-02T06:50:48Z</time>
      </trkpt>
      <trkpt lat="46.26197" lon="6.86792">
        <ele>1729</ele>
        <time>2010-01-02T06:50:49Z</time>
      </trkpt>
      <trkpt lat="46.26195" lon="6.86788">
        <ele>1730</ele>
        <time>2010-01-02T06:50:51Z</time>
      </trkpt>
      <trkpt lat="46.26192" lon="6.86787">
        <ele>1730</ele>
        <time>2010-01-02T06:50:52Z</time>
      </trkpt>
      <trkpt lat="46.26184" lon="6.86791">
        <ele>1730</ele>
        <time>2010-01-02T06:50:56Z</time>
      </trkpt>
      <trkpt lat="46.26176" lon="6.86796">
        <ele>1730</ele>
        <time>2010-01-02T06:50:59Z</time>
      </trkpt>
      <trkpt lat="46.26176" lon="6.86797">
        <ele>1730</ele>
        <time>2010-01-02T06:50:59Z</time>
      </trkpt>
      <trkpt lat="46.26167" lon="6.86813">
        <ele>1730</ele>
        <time>2010-01-02T06:51:05Z</time>
      </trkpt>
      <trkpt lat="46.26161" lon="6.86838">
        <ele>1737</ele>
        <time>2010-01-02T06:51:12Z</time>
      </trkpt>
      <trkpt lat="46.26155" lon="6.86863">
        <ele>1744</ele>
        <time>2010-01-02T06:51:20Z</time>
      </trkpt>
      <trkpt lat="46.26151" lon="6.86883">
        <ele>1744</ele>
        <time>2010-01-02T06:51:25Z</time>
      </trkpt>
      <trkpt lat="46.26146" lon="6.86914">
        <ele>1741</ele>
        <time>2010-01-02T06:51:34Z</time>
      </trkpt>
      <trkpt lat="46.26143" lon="6.86926">
        <ele>1738</ele>
        <time>2010-01-02T06:51:38Z</time>
      </trkpt>
      <trkpt lat="46.26141" lon="6.86931">
        <ele>1738</ele>
        <time>2010-01-02T06:51:39Z</time>
      </trkpt>
      <trkpt lat="46.26137" lon="6.86941">
        <ele>1740</ele>
        <time>2010-01-02T06:51:42Z</time>
      </trkpt>
      <trkpt lat="46.26132" lon="6.86948">
        <ele>1740</ele>
        <time>2010-01-02T06:51:45Z</time>
      </trkpt>
      <trkpt lat="46.26122" lon="6.86963">
        <ele>1741</ele>
        <time>2010-01-02T06:51:51Z</time>
      </trkpt>
      <trkpt lat="46.26109" lon="6.86982">
        <ele>1743</ele>
        <time>2010-01-02T06:51:58Z</time>
      </trkpt>
      <trkpt lat="46.26104" lon="6.8699">
        <ele>1744</ele>
        <time>2010-01-02T06:52:01Z</time>
      </trkpt>
      <trkpt lat="46.26096" lon="6.87001">
        <ele>1742</ele>
        <time>2010-01-02T06:52:06Z</time>
      </trkpt>
      <trkpt lat="46.26088" lon="6.87012">
        <ele>1742</ele>
        <time>2010-01-02T06:52:10Z</time>
      </trkpt>
      <trkpt lat="46.2608" lon="6.87025">
        <ele>1752</ele>
        <time>2010-01-02T06:52:15Z</time>
      </trkpt>
      <trkpt lat="46.26075" lon="6.87031">
        <ele>1752</ele>
        <time>2010-01-02T06:52:17Z</time>
      </trkpt>
      <trkpt lat="46.26072" lon="6.87036">
        <ele>1752</ele>
        <time>2010-01-02T06:52:19Z</time>
      </trkpt>
      <trkpt lat="46.26068" lon="6.87042">
        <ele>1752</ele>
        <time>2010-01-02T06:52:22Z</time>
      </trkpt>
      <trkpt lat="46.26064" lon="6.87047">
        <ele>1752</ele>
        <time>2010-01-02T06:52:24Z</time>
      </trkpt>
      <trkpt lat="46.2606" lon="6.87051">
        <ele>1752</ele>
        <time>2010-01-02T06:52:26Z</time>
      </trkpt>
      <trkpt lat="46.26052" lon="6.87059">
        <ele>1752</ele>
        <time>2010-01-02T06:52:30Z</time>
      </trkpt>
      <trkpt lat="46.26045" lon="6.87066">
        <ele>1753</ele>
        <time>2010-01-02T06:52:33Z</time>
      </trkpt>
      <trkpt lat="46.26036" lon="6.87073">
        <ele>1754</ele>
        <time>2010-01-02T06:52:37Z</time>
      </trkpt>
      <trkpt lat="46.26028" lon="6.87078">
        <ele>1756</ele>
        <time>2010-01-02T06:52:41Z</time>
      </trkpt>
      <trkpt lat="46.26019" lon="6.87081">
        <ele>1757</ele>
        <time>2010-01-02T06:52:44Z</time>
      </trkpt>
      <trkpt lat="46.26008" lon="6.87083">
        <ele>1759</ele>
        <time>2010-01-02T06:52:49Z</time>
      </trkpt>
      <trkpt lat="46.25998" lon="6.87082">
        <ele>1761</ele>
        <time>2010-01-02T06:52:53Z</time>
      </trkpt>
      <trkpt lat="46.25991" lon="6.87078">
        <ele>1765</ele>
        <time>2010-01-02T06:52:56Z</time>
      </trkpt>
      <trkpt lat="46.25982" lon="6.8707">
        <ele>1768</ele>
        <time>2010-01-02T06:53:00Z</time>
      </trkpt>
      <trkpt lat="46.25971" lon="6.87064">
        <ele>1770</ele>
        <time>2010-01-02T06:53:05Z</time>
      </trkpt>
      <trkpt lat="46.25961" lon="6.87065">
        <ele>1771</ele>
        <time>2010-01-02T06:53:09Z</time>
      </trkpt>
      <trkpt lat="46.25956" lon="6.87067">
        <ele>1771</ele>
        <time>2010-01-02T06:53:11Z</time>
      </trkpt>
      <trkpt lat="46.25949" lon="6.87072">
        <ele>1772</ele>
        <time>2010-01-02T06:53:14Z</time>
      </trkpt>
      <trkpt lat="46.25945" lon="6.87078">
        <ele>1772</ele>
        <time>2010-01-02T06:53:16Z</time>
      </trkpt>
      <trkpt lat="46.25943" lon="6.87084">
        <ele>1767</ele>
        <time>2010-01-02T06:53:18Z</time>
      </trkpt>
      <trkpt lat="46.25943" lon="6.8709">
        <ele>1767</ele>
        <time>2010-01-02T06:53:20Z</time>
      </trkpt>
      <trkpt lat="46.25943" lon="6.87095">
        <ele>1767</ele>
        <time>2010-01-02T06:53:21Z</time>
      </trkpt>
      <trkpt lat="46.25946" lon="6.87101">
        <ele>1766</ele>
        <time>2010-01-02T06:53:23Z</time>
      </trkpt>
      <trkpt lat="46.2595" lon="6.87108">
        <ele>1766</ele>
        <time>2010-01-02T06:53:26Z</time>
      </trkpt>
      <trkpt lat="46.2595" lon="6.87109">
        <ele>1766</ele>
        <time>2010-01-02T06:53:26Z</time>
      </trkpt>
      <trkpt lat="46.25957" lon="6.87123">
        <ele>1765</ele>
        <time>2010-01-02T06:53:31Z</time>
      </trkpt>
      <trkpt lat="46.25962" lon="6.87135">
        <ele>1764</ele>
        <time>2010-01-02T06:53:34Z</time>
      </trkpt>
      <trkpt lat="46.25963" lon="6.87146">
        <ele>1764</ele>
        <time>2010-01-02T06:53:38Z</time>
      </trkpt>
      <trkpt lat="46.25961" lon="6.8715">
        <ele>1764</ele>
        <time>2010-01-02T06:53:39Z</time>
      </trkpt>
      <trkpt lat="46.25958" lon="6.87154">
        <ele>1764</ele>
        <time>2010-01-02T06:53:40Z</time>
      </trkpt>
      <trkpt lat="46.25954" lon="6.87156">
        <ele>1765</ele>
        <time>2010-01-02T06:53:42Z</time>
      </trkpt>
      <trkpt lat="46.2595" lon="6.87158">
        <ele>1765</ele>
        <time>2010-01-02T06:53:44Z</time>
      </trkpt>
      <trkpt lat="46.25945" lon="6.87161">
        <ele>1766</ele>
        <time>2010-01-02T06:53:46Z</time>
      </trkpt>
      <trkpt lat="46.25942" lon="6.87162">
        <ele>1766</ele>
        <time>2010-01-02T06:53:47Z</time>
      </trkpt>
      <trkpt lat="46.25938" lon="6.87164">
        <ele>1767</ele>
        <time>2010-01-02T06:53:49Z</time>
      </trkpt>
      <trkpt lat="46.25936" lon="6.87165">
        <ele>1767</ele>
        <time>2010-01-02T06:53:50Z</time>
      </trkpt>
      <trkpt lat="46.25924" lon="6.87168">
        <ele>1769</ele>
        <time>2010-01-02T06:53:55Z</time>
      </trkpt>
      <trkpt lat="46.25915" lon="6.8717">
        <ele>1773</ele>
        <time>2010-01-02T06:53:59Z</time>
      </trkpt>
      <trkpt lat="46.25908" lon="6.87169">
        <ele>1774</ele>
        <time>2010-01-02T06:54:01Z</time>
      </trkpt>
      <trkpt lat="46.25899" lon="6.87167">
        <ele>1777</ele>
        <time>2010-01-02T06:54:05Z</time>
      </trkpt>
      <trkpt lat="46.25889" lon="6.87167">
        <ele>1780</ele>
        <time>2010-01-02T06:54:09Z</time>
      </trkpt>
      <trkpt lat="46.25879" lon="6.87169">
        <ele>1781</ele>
        <time>2010-01-02T06:54:13Z</time>
      </trkpt>
      <trkpt lat="46.25873" lon="6.87173">
        <ele>1782</ele>
        <time>2010-01-02T06:54:15Z</time>
      </trkpt>
      <trkpt lat="46.2587" lon="6.87179">
        <ele>1783</ele>
        <time>2010-01-02T06:54:18Z</time>
      </trkpt>
      <trkpt lat="46.25869" lon="6.87179">
        <ele>1783</ele>
        <time>2010-01-02T06:54:18Z</time>
      </trkpt>
      <trkpt lat="46.25867" lon="6.87193">
        <ele>1783</ele>
        <time>2010-01-02T06:54:22Z</time>
      </trkpt>
      <trkpt lat="46.25866" lon="6.8721">
        <ele>1783</ele>
        <time>2010-01-02T06:54:26Z</time>
      </trkpt>
      <trkpt lat="46.25866" lon="6.8721">
        <ele>1783</ele>
        <time>2010-01-02T06:54:26Z</time>
      </trkpt>
      <trkpt lat="46.25861" lon="6.87234">
        <ele>1784</ele>
        <time>2010-01-02T06:54:33Z</time>
      </trkpt>
      <trkpt lat="46.25851" lon="6.87258">
        <ele>1786</ele>
        <time>2010-01-02T06:54:41Z</time>
      </trkpt>
      <trkpt lat="46.25841" lon="6.87283">
        <ele>1785</ele>
        <time>2010-01-02T06:54:49Z</time>
      </trkpt>
      <trkpt lat="46.25835" lon="6.87296">
        <ele>1786</ele>
        <time>2010-01-02T06:54:53Z</time>
      </trkpt>
      <trkpt lat="46.25829" lon="6.87305">
        <ele>1787</ele>
        <time>2010-01-02T06:54:57Z</time>
      </trkpt>
      <trkpt lat="46.25823" lon="6.87315">
        <ele>1787</ele>
        <time>2010-01-02T06:55:01Z</time>
      </trkpt>
      <trkpt lat="46.25818" lon="6.87304">
        <ele>1787</ele>
        <time>2010-01-02T06:55:04Z</time>
      </trkpt>
      <trkpt lat="46.25813" lon="6.87301">
        <ele>1787</ele>
        <time>2010-01-02T06:55:06Z</time>
      </trkpt>
      <trkpt lat="46.25809" lon="6.87298">
        <ele>1787</ele>
        <time>2010-01-02T06:55:08Z</time>
      </trkpt>
      <trkpt lat="46.25804" lon="6.873">
        <ele>1787</ele>
        <time>2010-01-02T06:55:10Z</time>
      </trkpt>
      <trkpt lat="46.25796" lon="6.87305">
        <ele>1786</ele>
        <time>2010-01-02T06:55:14Z</time>
      </trkpt>
      <trkpt lat="46.25788" lon="6.87311">
        <ele>1785</ele>
        <time>2010-01-02T06:55:17Z</time>
      </trkpt>
      <trkpt lat="46.25788" lon="6.87311">
        <ele>1785</ele>
        <time>2010-01-02T06:55:18Z</time>
      </trkpt>
      <trkpt lat="46.25778" lon="6.87317">
        <ele>1784</ele>
        <time>2010-01-02T06:55:22Z</time>
      </trkpt>
      <trkpt lat="46.25766" lon="6.87322">
        <ele>1782</ele>
        <time>2010-01-02T06:55:27Z</time>
      </trkpt>
      <trkpt lat="46.25758" lon="6.87322">
        <ele>1781</ele>
        <time>2010-01-02T06:55:30Z</time>
      </trkpt>
      <trkpt lat="46.25755" lon="6.87325">
        <ele>1780</ele>
        <time>2010-01-02T06:55:32Z</time>
      </trkpt>
      <trkpt lat="46.25754" lon="6.87325">
        <ele>1780</ele>
        <time>2010-01-02T06:55:32Z</time>
      </trkpt>
      <trkpt lat="46.25749" lon="6.87328">
        <ele>1777</ele>
        <time>2010-01-02T06:55:34Z</time>
      </trkpt>
      <trkpt lat="46.25745" lon="6.87331">
        <ele>1777</ele>
        <time>2010-01-02T06:55:36Z</time>
      </trkpt>
      <trkpt lat="46.25743" lon="6.87332">
        <ele>1777</ele>
        <time>2010-01-02T06:55:37Z</time>
      </trkpt>
      <trkpt lat="46.25741" lon="6.87332">
        <ele>1777</ele>
        <time>2010-01-02T06:55:38Z</time>
      </trkpt>
      <trkpt lat="46.25738" lon="6.87335">
        <ele>1772</ele>
        <time>2010-01-02T06:55:39Z</time>
      </trkpt>
      <trkpt lat="46.25734" lon="6.87339">
        <ele>1771</ele>
        <time>2010-01-02T06:55:41Z</time>
      </trkpt>
      <trkpt lat="46.25726" lon="6.87339">
        <ele>1769</ele>
        <time>2010-01-02T06:55:44Z</time>
      </trkpt>
      <trkpt lat="46.2572" lon="6.87338">
        <ele>1768</ele>
        <time>2010-01-02T06:55:46Z</time>
      </trkpt>
      <trkpt lat="46.25715" lon="6.8733">
        <ele>1774</ele>
        <time>2010-01-02T06:55:49Z</time>
      </trkpt>
      <trkpt lat="46.25712" lon="6.87326">
        <ele>1774</ele>
        <time>2010-01-02T06:55:51Z</time>
      </trkpt>
      <trkpt lat="46.25709" lon="6.87324">
        <ele>1774</ele>
        <time>2010-01-02T06:55:52Z</time>
      </trkpt>
      <trkpt lat="46.25704" lon="6.87322">
        <ele>1773</ele>
        <time>2010-01-02T06:55:54Z</time>
      </trkpt>
      <trkpt lat="46.257" lon="6.8732">
        <ele>1773</ele>
        <time>2010-01-02T06:55:56Z</time>
      </trkpt>
      <trkpt lat="46.25694" lon="6.87317">
        <ele>1772</ele>
        <time>2010-01-02T06:55:59Z</time>
      </trkpt>
      <trkpt lat="46.25686" lon="6.87315">
        <ele>1771</ele>
        <time>2010-01-02T06:56:02Z</time>
      </trkpt>
      <trkpt lat="46.2568" lon="6.87313">
        <ele>1770</ele>
        <time>2010-01-02T06:56:05Z</time>
      </trkpt>
      <trkpt lat="46.2567" lon="6.87309">
        <ele>1770</ele>
        <time>2010-01-02T06:56:08Z</time>
      </trkpt>
      <trkpt lat="46.25664" lon="6.8731">
        <ele>1763</ele>
        <time>2010-01-02T06:56:11Z</time>
      </trkpt>
      <trkpt lat="46.25655" lon="6.8731">
        <ele>1763</ele>
        <time>2010-01-02T06:56:15Z</time>
      </trkpt>
      <trkpt lat="46.25648" lon="6.87313">
        <ele>1762</ele>
        <time>2010-01-02T06:56:17Z</time>
      </trkpt>
      <trkpt lat="46.25643" lon="6.87313">
        <ele>1762</ele>
        <time>2010-01-02T06:56:19Z</time>
      </trkpt>
      <trkpt lat="46.25637" lon="6.87313">
        <ele>1762</ele>
        <time>2010-01-02T06:56:22Z</time>
      </trkpt>
      <trkpt lat="46.2563" lon="6.87312">
        <ele>1762</ele>
        <time>2010-01-02T06:56:25Z</time>
      </trkpt>
      <trkpt lat="46.25625" lon="6.87312">
        <ele>1761</ele>
        <time>2010-01-02T06:56:26Z</time>
      </trkpt>
      <trkpt lat="46.25618" lon="6.87316">
        <ele>1760</ele>
        <time>2010-01-02T06:56:30Z</time>
      </trkpt>
      <trkpt lat="46.25612" lon="6.87317">
        <ele>1760</ele>
        <time>2010-01-02T06:56:32Z</time>
      </trkpt>
      <trkpt lat="46.25604" lon="6.87318">
        <ele>1759</ele>
        <time>2010-01-02T06:56:35Z</time>
      </trkpt>
      <trkpt lat="46.25589" lon="6.87312">
        <ele>1758</ele>
        <time>2010-01-02T06:56:42Z</time>
      </trkpt>
      <trkpt lat="46.25583" lon="6.87308">
        <ele>1754</ele>
        <time>2010-01-02T06:56:44Z</time>
      </trkpt>
      <trkpt lat="46.25579" lon="6.87307">
        <ele>1754</ele>
        <time>2010-01-02T06:56:46Z</time>
      </trkpt>
      <trkpt lat="46.25564" lon="6.87306">
        <ele>1753</ele>
        <time>2010-01-02T06:56:52Z</time>
      </trkpt>
      <trkpt lat="46.25559" lon="6.87306">
        <ele>1753</ele>
        <time>2010-01-02T06:56:54Z</time>
      </trkpt>
      <trkpt lat="46.25553" lon="6.87305">
        <ele>1753</ele>
        <time>2010-01-02T06:56:56Z</time>
      </trkpt>
      <trkpt lat="46.25544" lon="6.87303">
        <ele>1753</ele>
        <time>2010-01-02T06:57:00Z</time>
      </trkpt>
      <trkpt lat="46.25538" lon="6.873">
        <ele>1752</ele>
        <time>2010-01-02T06:57:02Z</time>
      </trkpt>
      <trkpt lat="46.25531" lon="6.873">
        <ele>1752</ele>
        <time>2010-01-02T06:57:05Z</time>
      </trkpt>
      <trkpt lat="46.25524" lon="6.873">
        <ele>1752</ele>
        <time>2010-01-02T06:57:08Z</time>
      </trkpt>
      <trkpt lat="46.25517" lon="6.87299">
        <ele>1751</ele>
        <time>2010-01-02T06:57:11Z</time>
      </trkpt>
      <trkpt lat="46.25508" lon="6.87303">
        <ele>1750</ele>
        <time>2010-01-02T06:57:15Z</time>
      </trkpt>
      <trkpt lat="46.25503" lon="6.87304">
        <ele>1750</ele>
        <time>2010-01-02T06:57:17Z</time>
      </trkpt>
      <trkpt lat="46.25498" lon="6.87306">
        <ele>1746</ele>
        <time>2010-01-02T06:57:19Z</time>
      </trkpt>
      <trkpt lat="46.25493" lon="6.87306">
        <ele>1746</ele>
        <time>2010-01-02T06:57:21Z</time>
      </trkpt>
      <trkpt lat="46.25483" lon="6.87308">
        <ele>1746</ele>
        <time>2010-01-02T06:57:25Z</time>
      </trkpt>
      <trkpt lat="46.25472" lon="6.87311">
        <ele>1746</ele>
        <time>2010-01-02T06:57:29Z</time>
      </trkpt>
      <trkpt lat="46.25466" lon="6.87312">
        <ele>1746</ele>
        <time>2010-01-02T06:57:31Z</time>
      </trkpt>
      <trkpt lat="46.25458" lon="6.87315">
        <ele>1746</ele>
        <time>2010-01-02T06:57:35Z</time>
      </trkpt>
      <trkpt lat="46.25444" lon="6.87316">
        <ele>1745</ele>
        <time>2010-01-02T06:57:41Z</time>
      </trkpt>
      <trkpt lat="46.25436" lon="6.87318">
        <ele>1744</ele>
        <time>2010-01-02T06:57:44Z</time>
      </trkpt>
      <trkpt lat="46.25415" lon="6.87327">
        <ele>1739</ele>
        <time>2010-01-02T06:57:52Z</time>
      </trkpt>
      <trkpt lat="46.25405" lon="6.87329">
        <ele>1740</ele>
        <time>2010-01-02T06:57:57Z</time>
      </trkpt>
      <trkpt lat="46.25395" lon="6.87331">
        <ele>1740</ele>
        <time>2010-01-02T06:58:01Z</time>
      </trkpt>
      <trkpt lat="46.25388" lon="6.87327">
        <ele>1740</ele>
        <time>2010-01-02T06:58:04Z</time>
      </trkpt>
      <trkpt lat="46.2538" lon="6.87329">
        <ele>1740</ele>
        <time>2010-01-02T06:58:07Z</time>
      </trkpt>
      <trkpt lat="46.25374" lon="6.87326">
        <ele>1740</ele>
        <time>2010-01-02T06:58:10Z</time>
      </trkpt>
      <trkpt lat="46.25368" lon="6.87326">
        <ele>1740</ele>
        <time>2010-01-02T06:58:12Z</time>
      </trkpt>
      <trkpt lat="46.25358" lon="6.87324">
        <ele>1739</ele>
        <time>2010-01-02T06:58:16Z</time>
      </trkpt>
      <trkpt lat="46.25351" lon="6.87324">
        <ele>1738</ele>
        <time>2010-01-02T06:58:19Z</time>
      </trkpt>
      <trkpt lat="46.25347" lon="6.87323">
        <ele>1738</ele>
        <time>2010-01-02T06:58:21Z</time>
      </trkpt>
      <trkpt lat="46.25339" lon="6.87322">
        <ele>1737</ele>
        <time>2010-01-02T06:58:24Z</time>
      </trkpt>
      <trkpt lat="46.25333" lon="6.8732">
        <ele>1737</ele>
        <time>2010-01-02T06:58:26Z</time>
      </trkpt>
      <trkpt lat="46.25323" lon="6.87311">
        <ele>1733</ele>
        <time>2010-01-02T06:58:31Z</time>
      </trkpt>
      <trkpt lat="46.25316" lon="6.87311">
        <ele>1733</ele>
        <time>2010-01-02T06:58:34Z</time>
      </trkpt>
      <trkpt lat="46.25307" lon="6.87307">
        <ele>1732</ele>
        <time>2010-01-02T06:58:37Z</time>
      </trkpt>
      <trkpt lat="46.25299" lon="6.87307">
        <ele>1732</ele>
        <time>2010-01-02T06:58:40Z</time>
      </trkpt>
      <trkpt lat="46.25294" lon="6.87306">
        <ele>1731</ele>
        <time>2010-01-02T06:58:42Z</time>
      </trkpt>
      <trkpt lat="46.2528" lon="6.873">
        <ele>1730</ele>
        <time>2010-01-02T06:58:48Z</time>
      </trkpt>
      <trkpt lat="46.2527" lon="6.87297">
        <ele>1730</ele>
        <time>2010-01-02T06:58:52Z</time>
      </trkpt>
      <trkpt lat="46.25261" lon="6.87294">
        <ele>1729</ele>
        <time>2010-01-02T06:58:56Z</time>
      </trkpt>
      <trkpt lat="46.25252" lon="6.8729">
        <ele>1729</ele>
        <time>2010-01-02T06:59:00Z</time>
      </trkpt>
      <trkpt lat="46.25244" lon="6.87289">
        <ele>1722</ele>
        <time>2010-01-02T06:59:03Z</time>
      </trkpt>
      <trkpt lat="46.25234" lon="6.87292">
        <ele>1721</ele>
        <time>2010-01-02T06:59:07Z</time>
      </trkpt>
      <trkpt lat="46.25226" lon="6.87298">
        <ele>1721</ele>
        <time>2010-01-02T06:59:11Z</time>
      </trkpt>
      <trkpt lat="46.25217" lon="6.87304">
        <ele>1721</ele>
        <time>2010-01-02T06:59:15Z</time>
      </trkpt>
      <trkpt lat="46.25208" lon="6.87313">
        <ele>1720</ele>
        <time>2010-01-02T06:59:19Z</time>
      </trkpt>
      <trkpt lat="46.25198" lon="6.87321">
        <ele>1720</ele>
        <time>2010-01-02T06:59:23Z</time>
      </trkpt>
      <trkpt lat="46.25193" lon="6.87324">
        <ele>1719</ele>
        <time>2010-01-02T06:59:26Z</time>
      </trkpt>
      <trkpt lat="46.25188" lon="6.87325">
        <ele>1719</ele>
        <time>2010-01-02T06:59:28Z</time>
      </trkpt>
      <trkpt lat="46.25179" lon="6.87328">
        <ele>1718</ele>
        <time>2010-01-02T06:59:32Z</time>
      </trkpt>
      <trkpt lat="46.25171" lon="6.87328">
        <ele>1717</ele>
        <time>2010-01-02T06:59:35Z</time>
      </trkpt>
      <trkpt lat="46.2516" lon="6.87325">
        <ele>1712</ele>
        <time>2010-01-02T06:59:39Z</time>
      </trkpt>
      <trkpt lat="46.2515" lon="6.8732">
        <ele>1710</ele>
        <time>2010-01-02T06:59:44Z</time>
      </trkpt>
      <trkpt lat="46.2514" lon="6.87318">
        <ele>1709</ele>
        <time>2010-01-02T06:59:47Z</time>
      </trkpt>
      <trkpt lat="46.25132" lon="6.87314">
        <ele>1707</ele>
        <time>2010-01-02T06:59:51Z</time>
      </trkpt>
      <trkpt lat="46.25124" lon="6.87311">
        <ele>1706</ele>
        <time>2010-01-02T06:59:54Z</time>
      </trkpt>
      <trkpt lat="46.2512" lon="6.87304">
        <ele>1706</ele>
        <time>2010-01-02T06:59:57Z</time>
      </trkpt>
      <trkpt lat="46.2511" lon="6.87281">
        <ele>1704</ele>
        <time>2010-01-02T07:00:04Z</time>
      </trkpt>
      <trkpt lat="46.25103" lon="6.87253">
        <ele>1702</ele>
        <time>2010-01-02T07:00:13Z</time>
      </trkpt>
      <trkpt lat="46.25102" lon="6.87238">
        <ele>1698</ele>
        <time>2010-01-02T07:00:17Z</time>
      </trkpt>
      <trkpt lat="46.25101" lon="6.87226">
        <ele>1697</ele>
        <time>2010-01-02T07:00:20Z</time>
      </trkpt>
      <trkpt lat="46.25098" lon="6.87221">
        <ele>1697</ele>
        <time>2010-01-02T07:00:22Z</time>
      </trkpt>
      <trkpt lat="46.25096" lon="6.87215">
        <ele>1696</ele>
        <time>2010-01-02T07:00:24Z</time>
      </trkpt>
      <trkpt lat="46.25092" lon="6.87212">
        <ele>1696</ele>
        <time>2010-01-02T07:00:25Z</time>
      </trkpt>
      <trkpt lat="46.25089" lon="6.87207">
        <ele>1695</ele>
        <time>2010-01-02T07:00:27Z</time>
      </trkpt>
      <trkpt lat="46.25087" lon="6.87201">
        <ele>1695</ele>
        <time>2010-01-02T07:00:29Z</time>
      </trkpt>
      <trkpt lat="46.25088" lon="6.87193">
        <ele>1693</ele>
        <time>2010-01-02T07:00:31Z</time>
      </trkpt>
      <trkpt lat="46.25088" lon="6.87193">
        <ele>1693</ele>
        <time>2010-01-02T07:00:31Z</time>
      </trkpt>
      <trkpt lat="46.25088" lon="6.87186">
        <ele>1692</ele>
        <time>2010-01-02T07:00:33Z</time>
      </trkpt>
      <trkpt lat="46.25087" lon="6.87185">
        <ele>1692</ele>
        <time>2010-01-02T07:00:33Z</time>
      </trkpt>
      <trkpt lat="46.25088" lon="6.87179">
        <ele>1690</ele>
        <time>2010-01-02T07:00:35Z</time>
      </trkpt>
      <trkpt lat="46.25088" lon="6.87178">
        <ele>1690</ele>
        <time>2010-01-02T07:00:35Z</time>
      </trkpt>
      <trkpt lat="46.25089" lon="6.87177">
        <ele>1690</ele>
        <time>2010-01-02T07:00:36Z</time>
      </trkpt>
      <trkpt lat="46.2509" lon="6.87176">
        <ele>1690</ele>
        <time>2010-01-02T07:00:36Z</time>
      </trkpt>
      <trkpt lat="46.25094" lon="6.87169">
        <ele>1690</ele>
        <time>2010-01-02T07:00:39Z</time>
      </trkpt>
      <trkpt lat="46.25104" lon="6.87157">
        <ele>1687</ele>
        <time>2010-01-02T07:00:44Z</time>
      </trkpt>
      <trkpt lat="46.2511" lon="6.87153">
        <ele>1688</ele>
        <time>2010-01-02T07:00:46Z</time>
      </trkpt>
      <trkpt lat="46.25115" lon="6.87148">
        <ele>1688</ele>
        <time>2010-01-02T07:00:49Z</time>
      </trkpt>
      <trkpt lat="46.2512" lon="6.87144">
        <ele>1689</ele>
        <time>2010-01-02T07:00:51Z</time>
      </trkpt>
      <trkpt lat="46.25125" lon="6.87139">
        <ele>1689</ele>
        <time>2010-01-02T07:00:54Z</time>
      </trkpt>
      <trkpt lat="46.25123" lon="6.87127">
        <ele>1688</ele>
        <time>2010-01-02T07:00:57Z</time>
      </trkpt>
      <trkpt lat="46.25117" lon="6.8712">
        <ele>1687</ele>
        <time>2010-01-02T07:01:00Z</time>
      </trkpt>
      <trkpt lat="46.25108" lon="6.87106">
        <ele>1686</ele>
        <time>2010-01-02T07:01:05Z</time>
      </trkpt>
      <trkpt lat="46.25098" lon="6.87101">
        <ele>1684</ele>
        <time>2010-01-02T07:01:10Z</time>
      </trkpt>
      <trkpt lat="46.25083" lon="6.87096">
        <ele>1681</ele>
        <time>2010-01-02T07:01:16Z</time>
      </trkpt>
      <trkpt lat="46.2508" lon="6.87089">
        <ele>1676</ele>
        <time>2010-01-02T07:01:18Z</time>
      </trkpt>
      <trkpt lat="46.25073" lon="6.87083">
        <ele>1676</ele>
        <time>2010-01-02T07:01:21Z</time>
      </trkpt>
      <trkpt lat="46.25069" lon="6.87077">
        <ele>1676</ele>
        <time>2010-01-02T07:01:24Z</time>
      </trkpt>
      <trkpt lat="46.2506" lon="6.8707">
        <ele>1675</ele>
        <time>2010-01-02T07:01:28Z</time>
      </trkpt>
      <trkpt lat="46.2505" lon="6.87065">
        <ele>1674</ele>
        <time>2010-01-02T07:01:32Z</time>
      </trkpt>
      <trkpt lat="46.25034" lon="6.87051">
        <ele>1674</ele>
        <time>2010-01-02T07:01:39Z</time>
      </trkpt>
      <trkpt lat="46.25024" lon="6.87034">
        <ele>1674</ele>
        <time>2010-01-02T07:01:46Z</time>
      </trkpt>
      <trkpt lat="46.25005" lon="6.87008">
        <ele>1674</ele>
        <time>2010-01-02T07:01:56Z</time>
      </trkpt>
      <trkpt lat="46.24977" lon="6.86963">
        <ele>1673</ele>
        <time>2010-01-02T07:02:13Z</time>
      </trkpt>
      <trkpt lat="46.24962" lon="6.86938">
        <ele>1674</ele>
        <time>2010-01-02T07:02:22Z</time>
      </trkpt>
      <trkpt lat="46.2495" lon="6.8692">
        <ele>1672</ele>
        <time>2010-01-02T07:02:29Z</time>
      </trkpt>
      <trkpt lat="46.24943" lon="6.86904">
        <ele>1680</ele>
        <time>2010-01-02T07:02:34Z</time>
      </trkpt>
      <trkpt lat="46.24923" lon="6.8689">
        <ele>1678</ele>
        <time>2010-01-02T07:02:43Z</time>
      </trkpt>
      <trkpt lat="46.24901" lon="6.86877">
        <ele>1669</ele>
        <time>2010-01-02T07:02:52Z</time>
      </trkpt>
      <trkpt lat="46.2489" lon="6.86871">
        <ele>1669</ele>
        <time>2010-01-02T07:02:57Z</time>
      </trkpt>
      <trkpt lat="46.24884" lon="6.86862">
        <ele>1670</ele>
        <time>2010-01-02T07:03:01Z</time>
      </trkpt>
      <trkpt lat="46.24876" lon="6.86852">
        <ele>1670</ele>
        <time>2010-01-02T07:03:05Z</time>
      </trkpt>
      <trkpt lat="46.2487" lon="6.86853">
        <ele>1670</ele>
        <time>2010-01-02T07:03:07Z</time>
      </trkpt>
      <trkpt lat="46.24859" lon="6.86852">
        <ele>1670</ele>
        <time>2010-01-02T07:03:12Z</time>
      </trkpt>
      <trkpt lat="46.24849" lon="6.86853">
        <ele>1670</ele>
        <time>2010-01-02T07:03:16Z</time>
      </trkpt>
      <trkpt lat="46.24836" lon="6.86851">
        <ele>1671</ele>
        <time>2010-01-02T07:03:21Z</time>
      </trkpt>
      <trkpt lat="46.24808" lon="6.86838">
        <ele>1669</ele>
        <time>2010-01-02T07:03:33Z</time>
      </trkpt>
      <trkpt lat="46.24795" lon="6.86844">
        <ele>1669</ele>
        <time>2010-01-02T07:03:38Z</time>
      </trkpt>
      <trkpt lat="46.24782" lon="6.86842">
        <ele>1669</ele>
        <time>2010-01-02T07:03:44Z</time>
      </trkpt>
      <trkpt lat="46.24767" lon="6.86857">
        <ele>1669</ele>
        <time>2010-01-02T07:03:51Z</time>
      </trkpt>
      <trkpt lat="46.24755" lon="6.86863">
        <ele>1668</ele>
        <time>2010-01-02T07:03:56Z</time>
      </trkpt>
      <trkpt lat="46.24737" lon="6.86874">
        <ele>1663</ele>
        <time>2010-01-02T07:04:03Z</time>
      </trkpt>
      <trkpt lat="46.24728" lon="6.8688">
        <ele>1661</ele>
        <time>2010-01-02T07:04:08Z</time>
      </trkpt>
      <trkpt lat="46.24722" lon="6.86883">
        <ele>1661</ele>
        <time>2010-01-02T07:04:10Z</time>
      </trkpt>
      <trkpt lat="46.24711" lon="6.86881">
        <ele>1660</ele>
        <time>2010-01-02T07:04:14Z</time>
      </trkpt>
      <trkpt lat="46.24699" lon="6.8688">
        <ele>1660</ele>
        <time>2010-01-02T07:04:19Z</time>
      </trkpt>
      <trkpt lat="46.24688" lon="6.86868">
        <ele>1661</ele>
        <time>2010-01-02T07:04:25Z</time>
      </trkpt>
      <trkpt lat="46.24681" lon="6.86852">
        <ele>1662</ele>
        <time>2010-01-02T07:04:30Z</time>
      </trkpt>
      <trkpt lat="46.2467" lon="6.8683">
        <ele>1666</ele>
        <time>2010-01-02T07:04:38Z</time>
      </trkpt>
      <trkpt lat="46.24661" lon="6.86817">
        <ele>1654</ele>
        <time>2010-01-02T07:04:43Z</time>
      </trkpt>
      <trkpt lat="46.24648" lon="6.86791">
        <ele>1650</ele>
        <time>2010-01-02T07:04:51Z</time>
      </trkpt>
      <trkpt lat="46.24639" lon="6.8674">
        <ele>1651</ele>
        <time>2010-01-02T07:05:06Z</time>
      </trkpt>
      <trkpt lat="46.24637" lon="6.8673">
        <ele>1649</ele>
        <time>2010-01-02T07:05:09Z</time>
      </trkpt>
      <trkpt lat="46.24637" lon="6.86718">
        <ele>1648</ele>
        <time>2010-01-02T07:05:12Z</time>
      </trkpt>
      <trkpt lat="46.24637" lon="6.86674">
        <ele>1649</ele>
        <time>2010-01-02T07:05:24Z</time>
      </trkpt>
      <trkpt lat="46.24639" lon="6.86659">
        <ele>1649</ele>
        <time>2010-01-02T07:05:29Z</time>
      </trkpt>
      <trkpt lat="46.2464" lon="6.86642">
        <ele>1648</ele>
        <time>2010-01-02T07:05:33Z</time>
      </trkpt>
      <trkpt lat="46.24633" lon="6.86615">
        <ele>1645</ele>
        <time>2010-01-02T07:05:41Z</time>
      </trkpt>
      <trkpt lat="46.24631" lon="6.86601">
        <ele>1645</ele>
        <time>2010-01-02T07:05:46Z</time>
      </trkpt>
      <trkpt lat="46.24613" lon="6.86567">
        <ele>1642</ele>
        <time>2010-01-02T07:05:57Z</time>
      </trkpt>
      <trkpt lat="46.24604" lon="6.86555">
        <ele>1641</ele>
        <time>2010-01-02T07:06:02Z</time>
      </trkpt>
      <trkpt lat="46.24593" lon="6.8653">
        <ele>1641</ele>
        <time>2010-01-02T07:06:10Z</time>
      </trkpt>
      <trkpt lat="46.24576" lon="6.86497">
        <ele>1627</ele>
        <time>2010-01-02T07:06:22Z</time>
      </trkpt>
      <trkpt lat="46.24574" lon="6.86477">
        <ele>1622</ele>
        <time>2010-01-02T07:06:27Z</time>
      </trkpt>
      <trkpt lat="46.24575" lon="6.86468">
        <ele>1621</ele>
        <time>2010-01-02T07:06:30Z</time>
      </trkpt>
      <trkpt lat="46.24576" lon="6.86467">
        <ele>1621</ele>
        <time>2010-01-02T07:06:30Z</time>
      </trkpt>
      <trkpt lat="46.2458" lon="6.86455">
        <ele>1621</ele>
        <time>2010-01-02T07:06:34Z</time>
      </trkpt>
      <trkpt lat="46.24583" lon="6.86436">
        <ele>1625</ele>
        <time>2010-01-02T07:06:39Z</time>
      </trkpt>
      <trkpt lat="46.24583" lon="6.86419">
        <ele>1637</ele>
        <time>2010-01-02T07:06:44Z</time>
      </trkpt>
      <trkpt lat="46.24581" lon="6.86402">
        <ele>1628</ele>
        <time>2010-01-02T07:06:49Z</time>
      </trkpt>
      <trkpt lat="46.24582" lon="6.86387">
        <ele>1626</ele>
        <time>2010-01-02T07:06:53Z</time>
      </trkpt>
      <trkpt lat="46.24582" lon="6.86386">
        <ele>1625</ele>
        <time>2010-01-02T07:06:53Z</time>
      </trkpt>
      <trkpt lat="46.24586" lon="6.86375">
        <ele>1650</ele>
        <time>2010-01-02T07:06:57Z</time>
      </trkpt>
      <trkpt lat="46.2459" lon="6.86355">
        <ele>1650</ele>
        <time>2010-01-02T07:07:03Z</time>
      </trkpt>
      <trkpt lat="46.24592" lon="6.86347">
        <ele>1648</ele>
        <time>2010-01-02T07:07:05Z</time>
      </trkpt>
      <trkpt lat="46.24591" lon="6.86324">
        <ele>1649</ele>
        <time>2010-01-02T07:07:11Z</time>
      </trkpt>
      <trkpt lat="46.2459" lon="6.8631">
        <ele>1653</ele>
        <time>2010-01-02T07:07:15Z</time>
      </trkpt>
      <trkpt lat="46.2459" lon="6.86309">
        <ele>1653</ele>
        <time>2010-01-02T07:07:16Z</time>
      </trkpt>
      <trkpt lat="46.24591" lon="6.86297">
        <ele>1655</ele>
        <time>2010-01-02T07:07:19Z</time>
      </trkpt>
      <trkpt lat="46.24591" lon="6.86286">
        <ele>1655</ele>
        <time>2010-01-02T07:07:22Z</time>
      </trkpt>
      <trkpt lat="46.24591" lon="6.86285">
        <ele>1655</ele>
        <time>2010-01-02T07:07:22Z</time>
      </trkpt>
      <trkpt lat="46.2459" lon="6.86269">
        <ele>1653</ele>
        <time>2010-01-02T07:07:27Z</time>
      </trkpt>
      <trkpt lat="46.24589" lon="6.86237">
        <ele>1652</ele>
        <time>2010-01-02T07:07:36Z</time>
      </trkpt>
      <trkpt lat="46.2459" lon="6.86223">
        <ele>1655</ele>
        <time>2010-01-02T07:07:39Z</time>
      </trkpt>
      <trkpt lat="46.24591" lon="6.86203">
        <ele>1656</ele>
        <time>2010-01-02T07:07:45Z</time>
      </trkpt>
      <trkpt lat="46.24596" lon="6.86189">
        <ele>1656</ele>
        <time>2010-01-02T07:07:49Z</time>
      </trkpt>
      <trkpt lat="46.246" lon="6.86179">
        <ele>1655</ele>
        <time>2010-01-02T07:07:53Z</time>
      </trkpt>
      <trkpt lat="46.24602" lon="6.8617">
        <ele>1654</ele>
        <time>2010-01-02T07:07:55Z</time>
      </trkpt>
      <trkpt lat="46.24605" lon="6.86162">
        <ele>1655</ele>
        <time>2010-01-02T07:07:58Z</time>
      </trkpt>
      <trkpt lat="46.24608" lon="6.86157">
        <ele>1656</ele>
        <time>2010-01-02T07:07:59Z</time>
      </trkpt>
      <trkpt lat="46.24608" lon="6.86144">
        <ele>1657</ele>
        <time>2010-01-02T07:08:03Z</time>
      </trkpt>
      <trkpt lat="46.24608" lon="6.86143">
        <ele>1657</ele>
        <time>2010-01-02T07:08:03Z</time>
      </trkpt>
      <trkpt lat="46.24611" lon="6.86127">
        <ele>1658</ele>
        <time>2010-01-02T07:08:08Z</time>
      </trkpt>
      <trkpt lat="46.24616" lon="6.86119">
        <ele>1659</ele>
        <time>2010-01-02T07:08:11Z</time>
      </trkpt>
      <trkpt lat="46.24618" lon="6.86115">
        <ele>1659</ele>
        <time>2010-01-02T07:08:12Z</time>
      </trkpt>
      <trkpt lat="46.24615" lon="6.8611">
        <ele>1658</ele>
        <time>2010-01-02T07:08:14Z</time>
      </trkpt>
      <trkpt lat="46.2461" lon="6.86104">
        <ele>1656</ele>
        <time>2010-01-02T07:08:16Z</time>
      </trkpt>
      <trkpt lat="46.2461" lon="6.86085">
        <ele>1655</ele>
        <time>2010-01-02T07:08:22Z</time>
      </trkpt>
      <trkpt lat="46.2461" lon="6.8607">
        <ele>1653</ele>
        <time>2010-01-02T07:08:26Z</time>
      </trkpt>
      <trkpt lat="46.24611" lon="6.86061">
        <ele>1654</ele>
        <time>2010-01-02T07:08:28Z</time>
      </trkpt>
      <trkpt lat="46.24605" lon="6.8603">
        <ele>1653</ele>
        <time>2010-01-02T07:08:37Z</time>
      </trkpt>
      <trkpt lat="46.24602" lon="6.86012">
        <ele>1650</ele>
        <time>2010-01-02T07:08:42Z</time>
      </trkpt>
      <trkpt lat="46.24601" lon="6.85993">
        <ele>1645</ele>
        <time>2010-01-02T07:08:48Z</time>
      </trkpt>
      <trkpt lat="46.24601" lon="6.85974">
        <ele>1646</ele>
        <time>2010-01-02T07:08:53Z</time>
      </trkpt>
      <trkpt lat="46.24605" lon="6.85958">
        <ele>1646</ele>
        <time>2010-01-02T07:08:58Z</time>
      </trkpt>
      <trkpt lat="46.24619" lon="6.85938">
        <ele>1646</ele>
        <time>2010-01-02T07:09:05Z</time>
      </trkpt>
      <trkpt lat="46.24627" lon="6.85926">
        <ele>1648</ele>
        <time>2010-01-02T07:09:10Z</time>
      </trkpt>
      <trkpt lat="46.24634" lon="6.85915">
        <ele>1642</ele>
        <time>2010-01-02T07:09:14Z</time>
      </trkpt>
      <trkpt lat="46.24646" lon="6.85896">
        <ele>1643</ele>
        <time>2010-01-02T07:09:21Z</time>
      </trkpt>
      <trkpt lat="46.24653" lon="6.85868">
        <ele>1641</ele>
        <time>2010-01-02T07:09:30Z</time>
      </trkpt>
      <trkpt lat="46.24659" lon="6.85852">
        <ele>1642</ele>
        <time>2010-01-02T07:09:34Z</time>
      </trkpt>
      <trkpt lat="46.24667" lon="6.8584">
        <ele>1650</ele>
        <time>2010-01-02T07:09:39Z</time>
      </trkpt>
      <trkpt lat="46.24674" lon="6.85834">
        <ele>1651</ele>
        <time>2010-01-02T07:09:42Z</time>
      </trkpt>
      <trkpt lat="46.2468" lon="6.85827">
        <ele>1646</ele>
        <time>2010-01-02T07:09:45Z</time>
      </trkpt>
      <trkpt lat="46.24686" lon="6.85814">
        <ele>1646</ele>
        <time>2010-01-02T07:09:50Z</time>
      </trkpt>
      <trkpt lat="46.24687" lon="6.85812">
        <ele>1645</ele>
        <time>2010-01-02T07:09:50Z</time>
      </trkpt>
      <trkpt lat="46.24691" lon="6.85795">
        <ele>1644</ele>
        <time>2010-01-02T07:09:55Z</time>
      </trkpt>
      <trkpt lat="46.24691" lon="6.85794">
        <ele>1643</ele>
        <time>2010-01-02T07:09:56Z</time>
      </trkpt>
      <trkpt lat="46.24692" lon="6.85779">
        <ele>1641</ele>
        <time>2010-01-02T07:10:00Z</time>
      </trkpt>
      <trkpt lat="46.24694" lon="6.85763">
        <ele>1639</ele>
        <time>2010-01-02T07:10:04Z</time>
      </trkpt>
      <trkpt lat="46.24694" lon="6.85762">
        <ele>1638</ele>
        <time>2010-01-02T07:10:05Z</time>
      </trkpt>
      <trkpt lat="46.24702" lon="6.8575">
        <ele>1639</ele>
        <time>2010-01-02T07:10:09Z</time>
      </trkpt>
      <trkpt lat="46.24716" lon="6.85739">
        <ele>1625</ele>
        <time>2010-01-02T07:10:16Z</time>
      </trkpt>
      <trkpt lat="46.24735" lon="6.8574">
        <ele>1631</ele>
        <time>2010-01-02T07:10:23Z</time>
      </trkpt>
      <trkpt lat="46.24756" lon="6.85745">
        <ele>1642</ele>
        <time>2010-01-02T07:10:32Z</time>
      </trkpt>
      <trkpt lat="46.24776" lon="6.85739">
        <ele>1642</ele>
        <time>2010-01-02T07:10:40Z</time>
      </trkpt>
      <trkpt lat="46.24786" lon="6.85729">
        <ele>1642</ele>
        <time>2010-01-02T07:10:45Z</time>
      </trkpt>
      <trkpt lat="46.24796" lon="6.8572">
        <ele>1642</ele>
        <time>2010-01-02T07:10:49Z</time>
      </trkpt>
      <trkpt lat="46.24796" lon="6.8572">
        <ele>1642</ele>
        <time>2010-01-02T07:10:49Z</time>
      </trkpt>
      <trkpt lat="46.24818" lon="6.85691">
        <ele>1639</ele>
        <time>2010-01-02T07:11:01Z</time>
      </trkpt>
      <trkpt lat="46.24822" lon="6.85674">
        <ele>1637</ele>
        <time>2010-01-02T07:11:06Z</time>
      </trkpt>
      <trkpt lat="46.24829" lon="6.85656">
        <ele>1628</ele>
        <time>2010-01-02T07:11:12Z</time>
      </trkpt>
      <trkpt lat="46.24836" lon="6.85637">
        <ele>1639</ele>
        <time>2010-01-02T07:11:18Z</time>
      </trkpt>
      <trkpt lat="46.24835" lon="6.85624">
        <ele>1637</ele>
        <time>2010-01-02T07:11:21Z</time>
      </trkpt>
      <trkpt lat="46.24842" lon="6.85598">
        <ele>1631</ele>
        <time>2010-01-02T07:11:29Z</time>
      </trkpt>
      <trkpt lat="46.24844" lon="6.8558">
        <ele>1620</ele>
        <time>2010-01-02T07:11:34Z</time>
      </trkpt>
      <trkpt lat="46.24847" lon="6.85561">
        <ele>1619</ele>
        <time>2010-01-02T07:11:40Z</time>
      </trkpt>
      <trkpt lat="46.24852" lon="6.85542">
        <ele>1617</ele>
        <time>2010-01-02T07:11:45Z</time>
      </trkpt>
      <trkpt lat="46.24856" lon="6.85529">
        <ele>1616</ele>
        <time>2010-01-02T07:11:49Z</time>
      </trkpt>
      <trkpt lat="46.24862" lon="6.85522">
        <ele>1615</ele>
        <time>2010-01-02T07:11:52Z</time>
      </trkpt>
      <trkpt lat="46.24873" lon="6.85515">
        <ele>1616</ele>
        <time>2010-01-02T07:11:57Z</time>
      </trkpt>
      <trkpt lat="46.24879" lon="6.85512">
        <ele>1616</ele>
        <time>2010-01-02T07:11:59Z</time>
      </trkpt>
      <trkpt lat="46.24883" lon="6.85501">
        <ele>1615</ele>
        <time>2010-01-02T07:12:03Z</time>
      </trkpt>
      <trkpt lat="46.24896" lon="6.85494">
        <ele>1602</ele>
        <time>2010-01-02T07:12:08Z</time>
      </trkpt>
      <trkpt lat="46.2491" lon="6.85486">
        <ele>1603</ele>
        <time>2010-01-02T07:12:14Z</time>
      </trkpt>
      <trkpt lat="46.24925" lon="6.85485">
        <ele>1607</ele>
        <time>2010-01-02T07:12:20Z</time>
      </trkpt>
      <trkpt lat="46.24944" lon="6.85488">
        <ele>1606</ele>
        <time>2010-01-02T07:12:28Z</time>
      </trkpt>
      <trkpt lat="46.24958" lon="6.85491">
        <ele>1607</ele>
        <time>2010-01-02T07:12:34Z</time>
      </trkpt>
      <trkpt lat="46.24975" lon="6.85493">
        <ele>1608</ele>
        <time>2010-01-02T07:12:40Z</time>
      </trkpt>
      <trkpt lat="46.24981" lon="6.85492">
        <ele>1609</ele>
        <time>2010-01-02T07:12:43Z</time>
      </trkpt>
      <trkpt lat="46.24991" lon="6.85489">
        <ele>1611</ele>
        <time>2010-01-02T07:12:47Z</time>
      </trkpt>
      <trkpt lat="46.24995" lon="6.85475">
        <ele>1607</ele>
        <time>2010-01-02T07:12:51Z</time>
      </trkpt>
      <trkpt lat="46.25" lon="6.85468">
        <ele>1610</ele>
        <time>2010-01-02T07:12:54Z</time>
      </trkpt>
      <trkpt lat="46.25002" lon="6.85453">
        <ele>1607</ele>
        <time>2010-01-02T07:12:58Z</time>
      </trkpt>
      <trkpt lat="46.2501" lon="6.85433">
        <ele>1602</ele>
        <time>2010-01-02T07:13:05Z</time>
      </trkpt>
      <trkpt lat="46.25019" lon="6.85414">
        <ele>1591</ele>
        <time>2010-01-02T07:13:11Z</time>
      </trkpt>
      <trkpt lat="46.25026" lon="6.85401">
        <ele>1590</ele>
        <time>2010-01-02T07:13:16Z</time>
      </trkpt>
      <trkpt lat="46.25046" lon="6.85385">
        <ele>1590</ele>
        <time>2010-01-02T07:13:25Z</time>
      </trkpt>
      <trkpt lat="46.25056" lon="6.85378">
        <ele>1590</ele>
        <time>2010-01-02T07:13:29Z</time>
      </trkpt>
      <trkpt lat="46.25068" lon="6.85376">
        <ele>1590</ele>
        <time>2010-01-02T07:13:34Z</time>
      </trkpt>
      <trkpt lat="46.2508" lon="6.85381">
        <ele>1591</ele>
        <time>2010-01-02T07:13:39Z</time>
      </trkpt>
      <trkpt lat="46.25081" lon="6.85381">
        <ele>1591</ele>
        <time>2010-01-02T07:13:40Z</time>
      </trkpt>
      <trkpt lat="46.25097" lon="6.85389">
        <ele>1596</ele>
        <time>2010-01-02T07:13:46Z</time>
      </trkpt>
      <trkpt lat="46.25101" lon="6.85391">
        <ele>1596</ele>
        <time>2010-01-02T07:13:48Z</time>
      </trkpt>
      <trkpt lat="46.25107" lon="6.85394">
        <ele>1596</ele>
        <time>2010-01-02T07:13:51Z</time>
      </trkpt>
      <trkpt lat="46.25112" lon="6.8539">
        <ele>1596</ele>
        <time>2010-01-02T07:13:53Z</time>
      </trkpt>
      <trkpt lat="46.25123" lon="6.85393">
        <ele>1596</ele>
        <time>2010-01-02T07:13:57Z</time>
      </trkpt>
      <trkpt lat="46.25132" lon="6.85392">
        <ele>1596</ele>
        <time>2010-01-02T07:14:01Z</time>
      </trkpt>
      <trkpt lat="46.25139" lon="6.85385">
        <ele>1596</ele>
        <time>2010-01-02T07:14:04Z</time>
      </trkpt>
      <trkpt lat="46.25141" lon="6.85374">
        <ele>1594</ele>
        <time>2010-01-02T07:14:07Z</time>
      </trkpt>
      <trkpt lat="46.25138" lon="6.85352">
        <ele>1591</ele>
        <time>2010-01-02T07:14:14Z</time>
      </trkpt>
      <trkpt lat="46.25128" lon="6.85335">
        <ele>1591</ele>
        <time>2010-01-02T07:14:20Z</time>
      </trkpt>
      <trkpt lat="46.25122" lon="6.85321">
        <ele>1580</ele>
        <time>2010-01-02T07:14:24Z</time>
      </trkpt>
      <trkpt lat="46.25111" lon="6.85305">
        <ele>1579</ele>
        <time>2010-01-02T07:14:31Z</time>
      </trkpt>
      <trkpt lat="46.25102" lon="6.85294">
        <ele>1579</ele>
        <time>2010-01-02T07:14:35Z</time>
      </trkpt>
      <trkpt lat="46.25091" lon="6.85281">
        <ele>1577</ele>
        <time>2010-01-02T07:14:41Z</time>
      </trkpt>
      <trkpt lat="46.25069" lon="6.8527">
        <ele>1573</ele>
        <time>2010-01-02T07:14:50Z</time>
      </trkpt>
      <trkpt lat="46.25052" lon="6.8527">
        <ele>1572</ele>
        <time>2010-01-02T07:14:57Z</time>
      </trkpt>
      <trkpt lat="46.2504" lon="6.85265">
        <ele>1570</ele>
        <time>2010-01-02T07:15:02Z</time>
      </trkpt>
      <trkpt lat="46.25024" lon="6.85264">
        <ele>1568</ele>
        <time>2010-01-02T07:15:08Z</time>
      </trkpt>
      <trkpt lat="46.25006" lon="6.85273">
        <ele>1567</ele>
        <time>2010-01-02T07:15:16Z</time>
      </trkpt>
      <trkpt lat="46.24977" lon="6.85303">
        <ele>1559</ele>
        <time>2010-01-02T07:15:30Z</time>
      </trkpt>
      <trkpt lat="46.24957" lon="6.85324">
        <ele>1559</ele>
        <time>2010-01-02T07:15:40Z</time>
      </trkpt>
      <trkpt lat="46.24947" lon="6.85345">
        <ele>1572</ele>
        <time>2010-01-02T07:15:47Z</time>
      </trkpt>
      <trkpt lat="46.24937" lon="6.85363">
        <ele>1574</ele>
        <time>2010-01-02T07:15:54Z</time>
      </trkpt>
      <trkpt lat="46.24922" lon="6.85371">
        <ele>1575</ele>
        <time>2010-01-02T07:16:00Z</time>
      </trkpt>
      <trkpt lat="46.24909" lon="6.8536">
        <ele>1563</ele>
        <time>2010-01-02T07:16:06Z</time>
      </trkpt>
      <trkpt lat="46.24892" lon="6.85346">
        <ele>1560</ele>
        <time>2010-01-02T07:16:14Z</time>
      </trkpt>
      <trkpt lat="46.24869" lon="6.85347">
        <ele>1558</ele>
        <time>2010-01-02T07:16:23Z</time>
      </trkpt>
      <trkpt lat="46.24839" lon="6.85359">
        <ele>1555</ele>
        <time>2010-01-02T07:16:36Z</time>
      </trkpt>
      <trkpt lat="46.24812" lon="6.85375">
        <ele>1547</ele>
        <time>2010-01-02T07:16:47Z</time>
      </trkpt>
      <trkpt lat="46.24791" lon="6.85402">
        <ele>1548</ele>
        <time>2010-01-02T07:16:59Z</time>
      </trkpt>
      <trkpt lat="46.24773" lon="6.85438">
        <ele>1564</ele>
        <time>2010-01-02T07:17:11Z</time>
      </trkpt>
      <trkpt lat="46.24769" lon="6.85464">
        <ele>1568</ele>
        <time>2010-01-02T07:17:18Z</time>
      </trkpt>
      <trkpt lat="46.24758" lon="6.85474">
        <ele>1567</ele>
        <time>2010-01-02T07:17:23Z</time>
      </trkpt>
      <trkpt lat="46.24746" lon="6.85485">
        <ele>1555</ele>
        <time>2010-01-02T07:17:29Z</time>
      </trkpt>
      <trkpt lat="46.24745" lon="6.85486">
        <ele>1555</ele>
        <time>2010-01-02T07:17:29Z</time>
      </trkpt>
      <trkpt lat="46.24727" lon="6.85498">
        <ele>1552</ele>
        <time>2010-01-02T07:17:37Z</time>
      </trkpt>
      <trkpt lat="46.24714" lon="6.85496">
        <ele>1548</ele>
        <time>2010-01-02T07:17:43Z</time>
      </trkpt>
      <trkpt lat="46.247" lon="6.85504">
        <ele>1555</ele>
        <time>2010-01-02T07:17:49Z</time>
      </trkpt>
      <trkpt lat="46.24699" lon="6.85504">
        <ele>1555</ele>
        <time>2010-01-02T07:17:49Z</time>
      </trkpt>
      <trkpt lat="46.24687" lon="6.85512">
        <ele>1552</ele>
        <time>2010-01-02T07:17:55Z</time>
      </trkpt>
      <trkpt lat="46.24677" lon="6.85525">
        <ele>1553</ele>
        <time>2010-01-02T07:18:00Z</time>
      </trkpt>
      <trkpt lat="46.24676" lon="6.85527">
        <ele>1553</ele>
        <time>2010-01-02T07:18:01Z</time>
      </trkpt>
      <trkpt lat="46.24667" lon="6.85549">
        <ele>1558</ele>
        <time>2010-01-02T07:18:08Z</time>
      </trkpt>
      <trkpt lat="46.24646" lon="6.85575">
        <ele>1545</ele>
        <time>2010-01-02T07:18:19Z</time>
      </trkpt>
      <trkpt lat="46.24631" lon="6.85584">
        <ele>1556</ele>
        <time>2010-01-02T07:18:25Z</time>
      </trkpt>
      <trkpt lat="46.2462" lon="6.85589">
        <ele>1553</ele>
        <time>2010-01-02T07:18:30Z</time>
      </trkpt>
      <trkpt lat="46.24601" lon="6.85591">
        <ele>1545</ele>
        <time>2010-01-02T07:18:38Z</time>
      </trkpt>
      <trkpt lat="46.24589" lon="6.85611">
        <ele>1550</ele>
        <time>2010-01-02T07:18:45Z</time>
      </trkpt>
      <trkpt lat="46.24584" lon="6.85624">
        <ele>1554</ele>
        <time>2010-01-02T07:18:49Z</time>
      </trkpt>
      <trkpt lat="46.2457" lon="6.85637">
        <ele>1537</ele>
        <time>2010-01-02T07:18:55Z</time>
      </trkpt>
      <trkpt lat="46.24558" lon="6.85654">
        <ele>1538</ele>
        <time>2010-01-02T07:19:02Z</time>
      </trkpt>
      <trkpt lat="46.24549" lon="6.85671">
        <ele>1556</ele>
        <time>2010-01-02T07:19:08Z</time>
      </trkpt>
      <trkpt lat="46.24535" lon="6.85683">
        <ele>1554</ele>
        <time>2010-01-02T07:19:15Z</time>
      </trkpt>
      <trkpt lat="46.24518" lon="6.85695">
        <ele>1552</ele>
        <time>2010-01-02T07:19:22Z</time>
      </trkpt>
      <trkpt lat="46.24501" lon="6.85703">
        <ele>1552</ele>
        <time>2010-01-02T07:19:29Z</time>
      </trkpt>
      <trkpt lat="46.24483" lon="6.85737">
        <ele>1537</ele>
        <time>2010-01-02T07:19:41Z</time>
      </trkpt>
      <trkpt lat="46.24482" lon="6.85741">
        <ele>1537</ele>
        <time>2010-01-02T07:19:43Z</time>
      </trkpt>
      <trkpt lat="46.24464" lon="6.85781">
        <ele>1540</ele>
        <time>2010-01-02T07:19:56Z</time>
      </trkpt>
      <trkpt lat="46.24449" lon="6.85828">
        <ele>1537</ele>
        <time>2010-01-02T07:20:10Z</time>
      </trkpt>
      <trkpt lat="46.24443" lon="6.85868">
        <ele>1546</ele>
        <time>2010-01-02T07:20:21Z</time>
      </trkpt>
      <trkpt lat="46.24435" lon="6.85888">
        <ele>1547</ele>
        <time>2010-01-02T07:20:28Z</time>
      </trkpt>
      <trkpt lat="46.24422" lon="6.85892">
        <ele>1544</ele>
        <time>2010-01-02T07:20:33Z</time>
      </trkpt>
      <trkpt lat="46.24404" lon="6.85896">
        <ele>1523</ele>
        <time>2010-01-02T07:20:40Z</time>
      </trkpt>
      <trkpt lat="46.24381" lon="6.85911">
        <ele>1518</ele>
        <time>2010-01-02T07:20:51Z</time>
      </trkpt>
      <trkpt lat="46.2437" lon="6.8593">
        <ele>1521</ele>
        <time>2010-01-02T07:20:57Z</time>
      </trkpt>
      <trkpt lat="46.24367" lon="6.85958">
        <ele>1522</ele>
        <time>2010-01-02T07:21:05Z</time>
      </trkpt>
      <trkpt lat="46.24361" lon="6.85975">
        <ele>1521</ele>
        <time>2010-01-02T07:21:10Z</time>
      </trkpt>
      <trkpt lat="46.24356" lon="6.8596">
        <ele>1520</ele>
        <time>2010-01-02T07:21:15Z</time>
      </trkpt>
      <trkpt lat="46.2435" lon="6.8593">
        <ele>1515</ele>
        <time>2010-01-02T07:21:24Z</time>
      </trkpt>
      <trkpt lat="46.2435" lon="6.85925">
        <ele>1514</ele>
        <time>2010-01-02T07:21:25Z</time>
      </trkpt>
      <trkpt lat="46.24356" lon="6.85889">
        <ele>1511</ele>
        <time>2010-01-02T07:21:35Z</time>
      </trkpt>
      <trkpt lat="46.24361" lon="6.85846">
        <ele>1508</ele>
        <time>2010-01-02T07:21:47Z</time>
      </trkpt>
      <trkpt lat="46.24362" lon="6.85845">
        <ele>1508</ele>
        <time>2010-01-02T07:21:48Z</time>
      </trkpt>
      <trkpt lat="46.24369" lon="6.85835">
        <ele>1509</ele>
        <time>2010-01-02T07:21:52Z</time>
      </trkpt>
      <trkpt lat="46.24375" lon="6.85826">
        <ele>1503</ele>
        <time>2010-01-02T07:21:55Z</time>
      </trkpt>
      <trkpt lat="46.2438" lon="6.85822">
        <ele>1503</ele>
        <time>2010-01-02T07:21:58Z</time>
      </trkpt>
      <trkpt lat="46.24381" lon="6.85811">
        <ele>1503</ele>
        <time>2010-01-02T07:22:00Z</time>
      </trkpt>
      <trkpt lat="46.24376" lon="6.85805">
        <ele>1501</ele>
        <time>2010-01-02T07:22:03Z</time>
      </trkpt>
      <trkpt lat="46.24368" lon="6.85815">
        <ele>1500</ele>
        <time>2010-01-02T07:22:07Z</time>
      </trkpt>
      <trkpt lat="46.2435" lon="6.85826">
        <ele>1497</ele>
        <time>2010-01-02T07:22:15Z</time>
      </trkpt>
      <trkpt lat="46.24334" lon="6.85826">
        <ele>1494</ele>
        <time>2010-01-02T07:22:22Z</time>
      </trkpt>
      <trkpt lat="46.24324" lon="6.85852">
        <ele>1488</ele>
        <time>2010-01-02T07:22:30Z</time>
      </trkpt>
      <trkpt lat="46.24311" lon="6.85882">
        <ele>1488</ele>
        <time>2010-01-02T07:22:40Z</time>
      </trkpt>
      <trkpt lat="46.24293" lon="6.85909">
        <ele>1486</ele>
        <time>2010-01-02T07:22:50Z</time>
      </trkpt>
      <trkpt lat="46.24285" lon="6.85903">
        <ele>1484</ele>
        <time>2010-01-02T07:22:54Z</time>
      </trkpt>
      <trkpt lat="46.24292" lon="6.8587">
        <ele>1484</ele>
        <time>2010-01-02T07:23:03Z</time>
      </trkpt>
      <trkpt lat="46.24299" lon="6.85849">
        <ele>1484</ele>
        <time>2010-01-02T07:23:10Z</time>
      </trkpt>
      <trkpt lat="46.243" lon="6.8583">
        <ele>1478</ele>
        <time>2010-01-02T07:23:15Z</time>
      </trkpt>
      <trkpt lat="46.24296" lon="6.85805">
        <ele>1476</ele>
        <time>2010-01-02T07:23:22Z</time>
      </trkpt>
      <trkpt lat="46.24294" lon="6.85795">
        <ele>1475</ele>
        <time>2010-01-02T07:23:25Z</time>
      </trkpt>
      <trkpt lat="46.24295" lon="6.85786">
        <ele>1474</ele>
        <time>2010-01-02T07:23:27Z</time>
      </trkpt>
      <trkpt lat="46.24307" lon="6.85779">
        <ele>1475</ele>
        <time>2010-01-02T07:23:32Z</time>
      </trkpt>
      <trkpt lat="46.24317" lon="6.85776">
        <ele>1476</ele>
        <time>2010-01-02T07:23:36Z</time>
      </trkpt>
      <trkpt lat="46.24328" lon="6.85772">
        <ele>1477</ele>
        <time>2010-01-02T07:23:41Z</time>
      </trkpt>
      <trkpt lat="46.24338" lon="6.85761">
        <ele>1487</ele>
        <time>2010-01-02T07:23:46Z</time>
      </trkpt>
      <trkpt lat="46.24348" lon="6.85747">
        <ele>1483</ele>
        <time>2010-01-02T07:23:52Z</time>
      </trkpt>
      <trkpt lat="46.24358" lon="6.85732">
        <ele>1485</ele>
        <time>2010-01-02T07:23:57Z</time>
      </trkpt>
      <trkpt lat="46.24364" lon="6.85722">
        <ele>1486</ele>
        <time>2010-01-02T07:24:01Z</time>
      </trkpt>
      <trkpt lat="46.24369" lon="6.85699">
        <ele>1484</ele>
        <time>2010-01-02T07:24:08Z</time>
      </trkpt>
      <trkpt lat="46.24378" lon="6.85688">
        <ele>1485</ele>
        <time>2010-01-02T07:24:12Z</time>
      </trkpt>
      <trkpt lat="46.24392" lon="6.85671">
        <ele>1488</ele>
        <time>2010-01-02T07:24:20Z</time>
      </trkpt>
      <trkpt lat="46.24403" lon="6.85643">
        <ele>1475</ele>
        <time>2010-01-02T07:24:29Z</time>
      </trkpt>
      <trkpt lat="46.2441" lon="6.85627">
        <ele>1472</ele>
        <time>2010-01-02T07:24:34Z</time>
      </trkpt>
      <trkpt lat="46.24418" lon="6.85613">
        <ele>1487</ele>
        <time>2010-01-02T07:24:39Z</time>
      </trkpt>
      <trkpt lat="46.24431" lon="6.85592">
        <ele>1482</ele>
        <time>2010-01-02T07:24:47Z</time>
      </trkpt>
      <trkpt lat="46.24431" lon="6.85592">
        <ele>1482</ele>
        <time>2010-01-02T07:24:47Z</time>
      </trkpt>
      <trkpt lat="46.24447" lon="6.85566">
        <ele>1472</ele>
        <time>2010-01-02T07:24:57Z</time>
      </trkpt>
      <trkpt lat="46.24457" lon="6.85551">
        <ele>1473</ele>
        <time>2010-01-02T07:25:02Z</time>
      </trkpt>
      <trkpt lat="46.24466" lon="6.85519">
        <ele>1471</ele>
        <time>2010-01-02T07:25:12Z</time>
      </trkpt>
      <trkpt lat="46.2447" lon="6.855">
        <ele>1461</ele>
        <time>2010-01-02T07:25:17Z</time>
      </trkpt>
      <trkpt lat="46.24474" lon="6.85486">
        <ele>1461</ele>
        <time>2010-01-02T07:25:22Z</time>
      </trkpt>
      <trkpt lat="46.24478" lon="6.85479">
        <ele>1461</ele>
        <time>2010-01-02T07:25:24Z</time>
      </trkpt>
      <trkpt lat="46.24479" lon="6.85477">
        <ele>1461</ele>
        <time>2010-01-02T07:25:25Z</time>
      </trkpt>
      <trkpt lat="46.24489" lon="6.85468">
        <ele>1461</ele>
        <time>2010-01-02T07:25:29Z</time>
      </trkpt>
      <trkpt lat="46.24498" lon="6.85446">
        <ele>1459</ele>
        <time>2010-01-02T07:25:36Z</time>
      </trkpt>
      <trkpt lat="46.245" lon="6.85428">
        <ele>1472</ele>
        <time>2010-01-02T07:25:41Z</time>
      </trkpt>
      <trkpt lat="46.24501" lon="6.85409">
        <ele>1466</ele>
        <time>2010-01-02T07:25:47Z</time>
      </trkpt>
      <trkpt lat="46.24502" lon="6.85383">
        <ele>1468</ele>
        <time>2010-01-02T07:25:54Z</time>
      </trkpt>
      <trkpt lat="46.24507" lon="6.85358">
        <ele>1463</ele>
        <time>2010-01-02T07:26:01Z</time>
      </trkpt>
      <trkpt lat="46.24509" lon="6.85339">
        <ele>1456</ele>
        <time>2010-01-02T07:26:06Z</time>
      </trkpt>
      <trkpt lat="46.24509" lon="6.85338">
        <ele>1455</ele>
        <time>2010-01-02T07:26:07Z</time>
      </trkpt>
      <trkpt lat="46.24521" lon="6.85308">
        <ele>1452</ele>
        <time>2010-01-02T07:26:16Z</time>
      </trkpt>
      <trkpt lat="46.24534" lon="6.85277">
        <ele>1450</ele>
        <time>2010-01-02T07:26:26Z</time>
      </trkpt>
      <trkpt lat="46.24551" lon="6.85262">
        <ele>1452</ele>
        <time>2010-01-02T07:26:34Z</time>
      </trkpt>
      <trkpt lat="46.24562" lon="6.85238">
        <ele>1441</ele>
        <time>2010-01-02T07:26:42Z</time>
      </trkpt>
      <trkpt lat="46.24568" lon="6.85225">
        <ele>1440</ele>
        <time>2010-01-02T07:26:47Z</time>
      </trkpt>
      <trkpt lat="46.24573" lon="6.85207">
        <ele>1436</ele>
        <time>2010-01-02T07:26:52Z</time>
      </trkpt>
      <trkpt lat="46.24575" lon="6.85205">
        <ele>1436</ele>
        <time>2010-01-02T07:26:53Z</time>
      </trkpt>
      <trkpt lat="46.24575" lon="6.85204">
        <ele>1436</ele>
        <time>2010-01-02T07:26:53Z</time>
      </trkpt>
      <trkpt lat="46.24606" lon="6.85166">
        <ele>1432</ele>
        <time>2010-01-02T07:27:09Z</time>
      </trkpt>
      <trkpt lat="46.24617" lon="6.85153">
        <ele>1431</ele>
        <time>2010-01-02T07:27:15Z</time>
      </trkpt>
      <trkpt lat="46.24618" lon="6.85151">
        <ele>1431</ele>
        <time>2010-01-02T07:27:15Z</time>
      </trkpt>
      <trkpt lat="46.24639" lon="6.85131">
        <ele>1430</ele>
        <time>2010-01-02T07:27:26Z</time>
      </trkpt>
      <trkpt lat="46.2464" lon="6.85131">
        <ele>1430</ele>
        <time>2010-01-02T07:27:26Z</time>
      </trkpt>
      <trkpt lat="46.24654" lon="6.85127">
        <ele>1431</ele>
        <time>2010-01-02T07:27:32Z</time>
      </trkpt>
      <trkpt lat="46.24656" lon="6.85126">
        <ele>1430</ele>
        <time>2010-01-02T07:27:33Z</time>
      </trkpt>
      <trkpt lat="46.24677" lon="6.85117">
        <ele>1439</ele>
        <time>2010-01-02T07:27:41Z</time>
      </trkpt>
      <trkpt lat="46.24677" lon="6.85117">
        <ele>1439</ele>
        <time>2010-01-02T07:27:42Z</time>
      </trkpt>
      <trkpt lat="46.24697" lon="6.85113">
        <ele>1440</ele>
        <time>2010-01-02T07:27:50Z</time>
      </trkpt>
      <trkpt lat="46.24701" lon="6.85111">
        <ele>1440</ele>
        <time>2010-01-02T07:27:51Z</time>
      </trkpt>
      <trkpt lat="46.24718" lon="6.85105">
        <ele>1441</ele>
        <time>2010-01-02T07:27:58Z</time>
      </trkpt>
      <trkpt lat="46.24719" lon="6.85104">
        <ele>1441</ele>
        <time>2010-01-02T07:27:59Z</time>
      </trkpt>
      <trkpt lat="46.2473" lon="6.85098">
        <ele>1441</ele>
        <time>2010-01-02T07:28:03Z</time>
      </trkpt>
      <trkpt lat="46.24742" lon="6.85085">
        <ele>1439</ele>
        <time>2010-01-02T07:28:09Z</time>
      </trkpt>
      <trkpt lat="46.24753" lon="6.85063">
        <ele>1438</ele>
        <time>2010-01-02T07:28:17Z</time>
      </trkpt>
      <trkpt lat="46.24757" lon="6.85015">
        <ele>1428</ele>
        <time>2010-01-02T07:28:30Z</time>
      </trkpt>
      <trkpt lat="46.24761" lon="6.84985">
        <ele>1417</ele>
        <time>2010-01-02T07:28:39Z</time>
      </trkpt>
      <trkpt lat="46.24761" lon="6.84983">
        <ele>1417</ele>
        <time>2010-01-02T07:28:39Z</time>
      </trkpt>
      <trkpt lat="46.24772" lon="6.84959">
        <ele>1416</ele>
        <time>2010-01-02T07:28:47Z</time>
      </trkpt>
      <trkpt lat="46.24773" lon="6.84955">
        <ele>1415</ele>
        <time>2010-01-02T07:28:48Z</time>
      </trkpt>
      <trkpt lat="46.24774" lon="6.84953">
        <ele>1415</ele>
        <time>2010-01-02T07:28:49Z</time>
      </trkpt>
      <trkpt lat="46.24786" lon="6.84934">
        <ele>1414</ele>
        <time>2010-01-02T07:28:56Z</time>
      </trkpt>
      <trkpt lat="46.24796" lon="6.84914">
        <ele>1403</ele>
        <time>2010-01-02T07:29:03Z</time>
      </trkpt>
      <trkpt lat="46.24818" lon="6.84874">
        <ele>1401</ele>
        <time>2010-01-02T07:29:17Z</time>
      </trkpt>
      <trkpt lat="46.24832" lon="6.8484">
        <ele>1398</ele>
        <time>2010-01-02T07:29:28Z</time>
      </trkpt>
      <trkpt lat="46.2485" lon="6.84825">
        <ele>1393</ele>
        <time>2010-01-02T07:29:36Z</time>
      </trkpt>
      <trkpt lat="46.2487" lon="6.84821">
        <ele>1392</ele>
        <time>2010-01-02T07:29:45Z</time>
      </trkpt>
      <trkpt lat="46.24888" lon="6.84818">
        <ele>1392</ele>
        <time>2010-01-02T07:29:52Z</time>
      </trkpt>
      <trkpt lat="46.24889" lon="6.84818">
        <ele>1392</ele>
        <time>2010-01-02T07:29:52Z</time>
      </trkpt>
      <trkpt lat="46.24908" lon="6.84811">
        <ele>1393</ele>
        <time>2010-01-02T07:30:00Z</time>
      </trkpt>
      <trkpt lat="46.24912" lon="6.84809">
        <ele>1393</ele>
        <time>2010-01-02T07:30:02Z</time>
      </trkpt>
      <trkpt lat="46.24913" lon="6.84809">
        <ele>1393</ele>
        <time>2010-01-02T07:30:02Z</time>
      </trkpt>
      <trkpt lat="46.24927" lon="6.84798">
        <ele>1396</ele>
        <time>2010-01-02T07:30:08Z</time>
      </trkpt>
      <trkpt lat="46.24946" lon="6.8478">
        <ele>1395</ele>
        <time>2010-01-02T07:30:17Z</time>
      </trkpt>
      <trkpt lat="46.24946" lon="6.84779">
        <ele>1394</ele>
        <time>2010-01-02T07:30:18Z</time>
      </trkpt>
      <trkpt lat="46.24954" lon="6.84765">
        <ele>1394</ele>
        <time>2010-01-02T07:30:23Z</time>
      </trkpt>
      <trkpt lat="46.24961" lon="6.84748">
        <ele>1385</ele>
        <time>2010-01-02T07:30:28Z</time>
      </trkpt>
      <trkpt lat="46.24974" lon="6.84735">
        <ele>1386</ele>
        <time>2010-01-02T07:30:35Z</time>
      </trkpt>
      <trkpt lat="46.24986" lon="6.84722">
        <ele>1386</ele>
        <time>2010-01-02T07:30:41Z</time>
      </trkpt>
      <trkpt lat="46.24982" lon="6.84709">
        <ele>1384</ele>
        <time>2010-01-02T07:30:45Z</time>
      </trkpt>
      <trkpt lat="46.24974" lon="6.84707">
        <ele>1384</ele>
        <time>2010-01-02T07:30:48Z</time>
      </trkpt>
      <trkpt lat="46.24969" lon="6.8471">
        <ele>1384</ele>
        <time>2010-01-02T07:30:50Z</time>
      </trkpt>
      <trkpt lat="46.24955" lon="6.84729">
        <ele>1384</ele>
        <time>2010-01-02T07:30:58Z</time>
      </trkpt>
      <trkpt lat="46.24944" lon="6.84742">
        <ele>1383</ele>
        <time>2010-01-02T07:31:03Z</time>
      </trkpt>
      <trkpt lat="46.24925" lon="6.84748">
        <ele>1382</ele>
        <time>2010-01-02T07:31:11Z</time>
      </trkpt>
      <trkpt lat="46.24918" lon="6.84752">
        <ele>1382</ele>
        <time>2010-01-02T07:31:14Z</time>
      </trkpt>
      <trkpt lat="46.24926" lon="6.84728">
        <ele>1382</ele>
        <time>2010-01-02T07:31:21Z</time>
      </trkpt>
      <trkpt lat="46.24932" lon="6.84702">
        <ele>1381</ele>
        <time>2010-01-02T07:31:29Z</time>
      </trkpt>
      <trkpt lat="46.24933" lon="6.84701">
        <ele>1381</ele>
        <time>2010-01-02T07:31:30Z</time>
      </trkpt>
      <trkpt lat="46.24945" lon="6.84679">
        <ele>1381</ele>
        <time>2010-01-02T07:31:37Z</time>
      </trkpt>
      <trkpt lat="46.2495" lon="6.8465">
        <ele>1382</ele>
        <time>2010-01-02T07:31:46Z</time>
      </trkpt>
      <trkpt lat="46.24956" lon="6.84628">
        <ele>1384</ele>
        <time>2010-01-02T07:31:52Z</time>
      </trkpt>
      <trkpt lat="46.24959" lon="6.84613">
        <ele>1385</ele>
        <time>2010-01-02T07:31:56Z</time>
      </trkpt>
      <trkpt lat="46.24951" lon="6.84597">
        <ele>1386</ele>
        <time>2010-01-02T07:32:02Z</time>
      </trkpt>
      <trkpt lat="46.24945" lon="6.8459">
        <ele>1387</ele>
        <time>2010-01-02T07:32:05Z</time>
      </trkpt>
      <trkpt lat="46.24929" lon="6.84596">
        <ele>1389</ele>
        <time>2010-01-02T07:32:12Z</time>
      </trkpt>
      <trkpt lat="46.24912" lon="6.84604">
        <ele>1391</ele>
        <time>2010-01-02T07:32:19Z</time>
      </trkpt>
      <trkpt lat="46.24822" lon="6.84633">
        <ele>1390</ele>
        <time>2010-01-02T07:32:56Z</time>
      </trkpt>
      <trkpt lat="46.24783" lon="6.84648">
        <ele>1387</ele>
        <time>2010-01-02T07:33:12Z</time>
      </trkpt>
      <trkpt lat="46.24759" lon="6.84649">
        <ele>1384</ele>
        <time>2010-01-02T07:33:21Z</time>
      </trkpt>
      <trkpt lat="46.24734" lon="6.84652">
        <ele>1388</ele>
        <time>2010-01-02T07:33:32Z</time>
      </trkpt>
      <trkpt lat="46.24706" lon="6.8466">
        <ele>1393</ele>
        <time>2010-01-02T07:33:43Z</time>
      </trkpt>
      <trkpt lat="46.24677" lon="6.84674">
        <ele>1385</ele>
        <time>2010-01-02T07:33:55Z</time>
      </trkpt>
      <trkpt lat="46.24646" lon="6.84677">
        <ele>1385</ele>
        <time>2010-01-02T07:34:08Z</time>
      </trkpt>
      <trkpt lat="46.24627" lon="6.84686">
        <ele>1384</ele>
        <time>2010-01-02T07:34:16Z</time>
      </trkpt>
      <trkpt lat="46.24607" lon="6.84701">
        <ele>1382</ele>
        <time>2010-01-02T07:34:25Z</time>
      </trkpt>
      <trkpt lat="46.2458" lon="6.84715">
        <ele>1383</ele>
        <time>2010-01-02T07:34:36Z</time>
      </trkpt>
      <trkpt lat="46.24567" lon="6.84727">
        <ele>1380</ele>
        <time>2010-01-02T07:34:42Z</time>
      </trkpt>
      <trkpt lat="46.24547" lon="6.84727">
        <ele>1383</ele>
        <time>2010-01-02T07:34:51Z</time>
      </trkpt>
      <trkpt lat="46.24515" lon="6.84734">
        <ele>1381</ele>
        <time>2010-01-02T07:35:03Z</time>
      </trkpt>
      <trkpt lat="46.24501" lon="6.8474">
        <ele>1378</ele>
        <time>2010-01-02T07:35:09Z</time>
      </trkpt>
      <trkpt lat="46.24481" lon="6.84751">
        <ele>1375</ele>
        <time>2010-01-02T07:35:18Z</time>
      </trkpt>
      <trkpt lat="46.24458" lon="6.8477">
        <ele>1377</ele>
        <time>2010-01-02T07:35:28Z</time>
      </trkpt>
      <trkpt lat="46.24443" lon="6.84788">
        <ele>1378</ele>
        <time>2010-01-02T07:35:36Z</time>
      </trkpt>
      <trkpt lat="46.24428" lon="6.8481">
        <ele>1379</ele>
        <time>2010-01-02T07:35:45Z</time>
      </trkpt>
      <trkpt lat="46.24417" lon="6.84833">
        <ele>1382</ele>
        <time>2010-01-02T07:35:53Z</time>
      </trkpt>
      <trkpt lat="46.24418" lon="6.84852">
        <ele>1378</ele>
        <time>2010-01-02T07:35:58Z</time>
      </trkpt>
      <trkpt lat="46.24419" lon="6.84874">
        <ele>1376</ele>
        <time>2010-01-02T07:36:04Z</time>
      </trkpt>
      <trkpt lat="46.24421" lon="6.84889">
        <ele>1376</ele>
        <time>2010-01-02T07:36:08Z</time>
      </trkpt>
      <trkpt lat="46.24416" lon="6.8491">
        <ele>1380</ele>
        <time>2010-01-02T07:36:14Z</time>
      </trkpt>
      <trkpt lat="46.24395" lon="6.84939">
        <ele>1384</ele>
        <time>2010-01-02T07:36:26Z</time>
      </trkpt>
      <trkpt lat="46.24371" lon="6.84968">
        <ele>1387</ele>
        <time>2010-01-02T07:36:38Z</time>
      </trkpt>
      <trkpt lat="46.24355" lon="6.84986">
        <ele>1388</ele>
        <time>2010-01-02T07:36:46Z</time>
      </trkpt>
      <trkpt lat="46.24342" lon="6.85018">
        <ele>1384</ele>
        <time>2010-01-02T07:36:57Z</time>
      </trkpt>
      <trkpt lat="46.24328" lon="6.85032">
        <ele>1389</ele>
        <time>2010-01-02T07:37:04Z</time>
      </trkpt>
      <trkpt lat="46.24309" lon="6.85047">
        <ele>1389</ele>
        <time>2010-01-02T07:37:12Z</time>
      </trkpt>
      <trkpt lat="46.24291" lon="6.85053">
        <ele>1390</ele>
        <time>2010-01-02T07:37:20Z</time>
      </trkpt>
      <trkpt lat="46.24262" lon="6.85076">
        <ele>1389</ele>
        <time>2010-01-02T07:37:33Z</time>
      </trkpt>
      <trkpt lat="46.24244" lon="6.85081">
        <ele>1389</ele>
        <time>2010-01-02T07:37:40Z</time>
      </trkpt>
      <trkpt lat="46.2423" lon="6.85086">
        <ele>1377</ele>
        <time>2010-01-02T07:37:46Z</time>
      </trkpt>
      <trkpt lat="46.24217" lon="6.85091">
        <ele>1374</ele>
        <time>2010-01-02T07:37:52Z</time>
      </trkpt>
      <trkpt lat="46.24203" lon="6.85095">
        <ele>1372</ele>
        <time>2010-01-02T07:37:57Z</time>
      </trkpt>
      <trkpt lat="46.24192" lon="6.85095">
        <ele>1371</ele>
        <time>2010-01-02T07:38:02Z</time>
      </trkpt>
      <trkpt lat="46.24175" lon="6.85088">
        <ele>1372</ele>
        <time>2010-01-02T07:38:09Z</time>
      </trkpt>
      <trkpt lat="46.24152" lon="6.85098">
        <ele>1367</ele>
        <time>2010-01-02T07:38:18Z</time>
      </trkpt>
      <trkpt lat="46.24133" lon="6.85095">
        <ele>1365</ele>
        <time>2010-01-02T07:38:26Z</time>
      </trkpt>
      <trkpt lat="46.24113" lon="6.85092">
        <ele>1364</ele>
        <time>2010-01-02T07:38:34Z</time>
      </trkpt>
      <trkpt lat="46.241" lon="6.85095">
        <ele>1365</ele>
        <time>2010-01-02T07:38:39Z</time>
      </trkpt>
      <trkpt lat="46.24085" lon="6.85103">
        <ele>1364</ele>
        <time>2010-01-02T07:38:46Z</time>
      </trkpt>
      <trkpt lat="46.24076" lon="6.85099">
        <ele>1363</ele>
        <time>2010-01-02T07:38:49Z</time>
      </trkpt>
      <trkpt lat="46.24061" lon="6.85103">
        <ele>1362</ele>
        <time>2010-01-02T07:38:55Z</time>
      </trkpt>
      <trkpt lat="46.24041" lon="6.8511">
        <ele>1361</ele>
        <time>2010-01-02T07:39:03Z</time>
      </trkpt>
      <trkpt lat="46.24031" lon="6.85112">
        <ele>1361</ele>
        <time>2010-01-02T07:39:07Z</time>
      </trkpt>
      <trkpt lat="46.24015" lon="6.85116">
        <ele>1361</ele>
        <time>2010-01-02T07:39:14Z</time>
      </trkpt>
      <trkpt lat="46.23992" lon="6.85119">
        <ele>1359</ele>
        <time>2010-01-02T07:39:23Z</time>
      </trkpt>
      <trkpt lat="46.23971" lon="6.85115">
        <ele>1358</ele>
        <time>2010-01-02T07:39:32Z</time>
      </trkpt>
      <trkpt lat="46.23957" lon="6.85107">
        <ele>1358</ele>
        <time>2010-01-02T07:39:38Z</time>
      </trkpt>
      <trkpt lat="46.23934" lon="6.85098">
        <ele>1359</ele>
        <time>2010-01-02T07:39:47Z</time>
      </trkpt>
      <trkpt lat="46.23907" lon="6.85094">
        <ele>1357</ele>
        <time>2010-01-02T07:39:58Z</time>
      </trkpt>
      <trkpt lat="46.23888" lon="6.85095">
        <ele>1356</ele>
        <time>2010-01-02T07:40:06Z</time>
      </trkpt>
      <trkpt lat="46.23873" lon="6.85106">
        <ele>1355</ele>
        <time>2010-01-02T07:40:13Z</time>
      </trkpt>
      <trkpt lat="46.23857" lon="6.8511">
        <ele>1354</ele>
        <time>2010-01-02T07:40:19Z</time>
      </trkpt>
      <trkpt lat="46.23842" lon="6.85115">
        <ele>1354</ele>
        <time>2010-01-02T07:40:25Z</time>
      </trkpt>
      <trkpt lat="46.23839" lon="6.85127">
        <ele>1353</ele>
        <time>2010-01-02T07:40:29Z</time>
      </trkpt>
      <trkpt lat="46.23827" lon="6.85137">
        <ele>1352</ele>
        <time>2010-01-02T07:40:34Z</time>
      </trkpt>
      <trkpt lat="46.23811" lon="6.85145">
        <ele>1352</ele>
        <time>2010-01-02T07:40:41Z</time>
      </trkpt>
      <trkpt lat="46.23788" lon="6.85155">
        <ele>1352</ele>
        <time>2010-01-02T07:40:51Z</time>
      </trkpt>
      <trkpt lat="46.23754" lon="6.85174">
        <ele>1349</ele>
        <time>2010-01-02T07:41:05Z</time>
      </trkpt>
      <trkpt lat="46.23742" lon="6.85188">
        <ele>1347</ele>
        <time>2010-01-02T07:41:12Z</time>
      </trkpt>
      <trkpt lat="46.23727" lon="6.852">
        <ele>1346</ele>
        <time>2010-01-02T07:41:18Z</time>
      </trkpt>
      <trkpt lat="46.23708" lon="6.85235">
        <ele>1344</ele>
        <time>2010-01-02T07:41:31Z</time>
      </trkpt>
      <trkpt lat="46.23688" lon="6.85258">
        <ele>1340</ele>
        <time>2010-01-02T07:41:41Z</time>
      </trkpt>
      <trkpt lat="46.23675" lon="6.8528">
        <ele>1339</ele>
        <time>2010-01-02T07:41:49Z</time>
      </trkpt>
      <trkpt lat="46.23656" lon="6.85297">
        <ele>1338</ele>
        <time>2010-01-02T07:41:58Z</time>
      </trkpt>
      <trkpt lat="46.23632" lon="6.85308">
        <ele>1338</ele>
        <time>2010-01-02T07:42:08Z</time>
      </trkpt>
      <trkpt lat="46.2362" lon="6.85345">
        <ele>1337</ele>
        <time>2010-01-02T07:42:19Z</time>
      </trkpt>
      <trkpt lat="46.23618" lon="6.8537">
        <ele>1337</ele>
        <time>2010-01-02T07:42:26Z</time>
      </trkpt>
      <trkpt lat="46.23627" lon="6.85385">
        <ele>1337</ele>
        <time>2010-01-02T07:42:32Z</time>
      </trkpt>
      <trkpt lat="46.2365" lon="6.85394">
        <ele>1335</ele>
        <time>2010-01-02T07:42:41Z</time>
      </trkpt>
      <trkpt lat="46.23671" lon="6.85418">
        <ele>1330</ele>
        <time>2010-01-02T07:42:52Z</time>
      </trkpt>
      <trkpt lat="46.23682" lon="6.85432">
        <ele>1328</ele>
        <time>2010-01-02T07:42:58Z</time>
      </trkpt>
      <trkpt lat="46.23692" lon="6.85457">
        <ele>1327</ele>
        <time>2010-01-02T07:43:06Z</time>
      </trkpt>
      <trkpt lat="46.23697" lon="6.85525">
        <ele>1322</ele>
        <time>2010-01-02T07:43:25Z</time>
      </trkpt>
      <trkpt lat="46.23695" lon="6.85578">
        <ele>1320</ele>
        <time>2010-01-02T07:43:40Z</time>
      </trkpt>
      <trkpt lat="46.23707" lon="6.85637">
        <ele>1317</ele>
        <time>2010-01-02T07:43:56Z</time>
      </trkpt>
      <trkpt lat="46.23707" lon="6.85707">
        <ele>1316</ele>
        <time>2010-01-02T07:44:16Z</time>
      </trkpt>
      <trkpt lat="46.23706" lon="6.85764">
        <ele>1315</ele>
        <time>2010-01-02T07:44:32Z</time>
      </trkpt>
      <trkpt lat="46.23692" lon="6.85805">
        <ele>1316</ele>
        <time>2010-01-02T07:44:44Z</time>
      </trkpt>
      <trkpt lat="46.2367" lon="6.85812">
        <ele>1316</ele>
        <time>2010-01-02T07:44:53Z</time>
      </trkpt>
      <trkpt lat="46.2365" lon="6.85822">
        <ele>1324</ele>
        <time>2010-01-02T07:45:02Z</time>
      </trkpt>
      <trkpt lat="46.2363" lon="6.85832">
        <ele>1327</ele>
        <time>2010-01-02T07:45:10Z</time>
      </trkpt>
      <trkpt lat="46.23606" lon="6.85831">
        <ele>1332</ele>
        <time>2010-01-02T07:45:20Z</time>
      </trkpt>
      <trkpt lat="46.23585" lon="6.85841">
        <ele>1336</ele>
        <time>2010-01-02T07:45:29Z</time>
      </trkpt>
      <trkpt lat="46.23562" lon="6.85853">
        <ele>1358</ele>
        <time>2010-01-02T07:45:39Z</time>
      </trkpt>
      <trkpt lat="46.23514" lon="6.85861">
        <ele>1374</ele>
        <time>2010-01-02T07:45:58Z</time>
      </trkpt>
      <trkpt lat="46.2347" lon="6.85861">
        <ele>1415</ele>
        <time>2010-01-02T07:46:15Z</time>
      </trkpt>
      <trkpt lat="46.23446" lon="6.85881">
        <ele>1424</ele>
        <time>2010-01-02T07:46:27Z</time>
      </trkpt>
      <trkpt lat="46.23404" lon="6.85885">
        <ele>1467</ele>
        <time>2010-01-02T07:46:43Z</time>
      </trkpt>
      <trkpt lat="46.23317" lon="6.85913">
        <ele>1518</ele>
        <time>2010-01-02T07:47:19Z</time>
      </trkpt>
      <trkpt lat="46.23281" lon="6.85922">
        <ele>1536</ele>
        <time>2010-01-02T07:47:34Z</time>
      </trkpt>
      <trkpt lat="46.23258" lon="6.85927">
        <ele>1544</ele>
        <time>2010-01-02T07:47:43Z</time>
      </trkpt>
      <trkpt lat="46.23244" lon="6.8593">
        <ele>1560</ele>
        <time>2010-01-02T07:47:49Z</time>
      </trkpt>
      <trkpt lat="46.2322" lon="6.85937">
        <ele>1567</ele>
        <time>2010-01-02T07:47:58Z</time>
      </trkpt>
      <trkpt lat="46.23192" lon="6.85945">
        <ele>1574</ele>
        <time>2010-01-02T07:48:10Z</time>
      </trkpt>
      <trkpt lat="46.23168" lon="6.85954">
        <ele>1577</ele>
        <time>2010-01-02T07:48:20Z</time>
      </trkpt>
      <trkpt lat="46.23108" lon="6.8597">
        <ele>1601</ele>
        <time>2010-01-02T07:48:44Z</time>
      </trkpt>
      <trkpt lat="46.2307" lon="6.85975">
        <ele>1623</ele>
        <time>2010-01-02T07:48:59Z</time>
      </trkpt>
      <trkpt lat="46.23048" lon="6.8598">
        <ele>1628</ele>
        <time>2010-01-02T07:49:08Z</time>
      </trkpt>
      <trkpt lat="46.23037" lon="6.85986">
        <ele>1631</ele>
        <time>2010-01-02T07:49:13Z</time>
      </trkpt>
      <trkpt lat="46.23021" lon="6.85991">
        <ele>1635</ele>
        <time>2010-01-02T07:49:20Z</time>
      </trkpt>
      <trkpt lat="46.22962" lon="6.86009">
        <ele>1653</ele>
        <time>2010-01-02T07:49:44Z</time>
      </trkpt>
      <trkpt lat="46.229" lon="6.86026">
        <ele>1677</ele>
        <time>2010-01-02T07:50:09Z</time>
      </trkpt>
      <trkpt lat="46.22784" lon="6.86057">
        <ele>1705</ele>
        <time>2010-01-02T07:50:56Z</time>
      </trkpt>
      <trkpt lat="46.22713" lon="6.86073">
        <ele>1734</ele>
        <time>2010-01-02T07:51:25Z</time>
      </trkpt>
      <trkpt lat="46.22655" lon="6.86089">
        <ele>1764</ele>
        <time>2010-01-02T07:51:49Z</time>
      </trkpt>
      <trkpt lat="46.22601" lon="6.86106">
        <ele>1777</ele>
        <time>2010-01-02T07:52:11Z</time>
      </trkpt>
      <trkpt lat="46.22547" lon="6.86121">
        <ele>1798</ele>
        <time>2010-01-02T07:52:33Z</time>
      </trkpt>
      <trkpt lat="46.2252" lon="6.86128">
        <ele>1802</ele>
        <time>2010-01-02T07:52:44Z</time>
      </trkpt>
      <trkpt lat="46.22509" lon="6.86133">
        <ele>1803</ele>
        <time>2010-01-02T07:52:48Z</time>
      </trkpt>
      <trkpt lat="46.22501" lon="6.86134">
        <ele>1803</ele>
        <time>2010-01-02T07:52:52Z</time>
      </trkpt>
      <trkpt lat="46.22499" lon="6.86133">
        <ele>1810</ele>
        <time>2010-01-02T07:52:53Z</time>
      </trkpt>
      <trkpt lat="46.22497" lon="6.8613">
        <ele>1810</ele>
        <time>2010-01-02T07:52:53Z</time>
      </trkpt>
      <trkpt lat="46.22494" lon="6.86131">
        <ele>1810</ele>
        <time>2010-01-02T07:52:55Z</time>
      </trkpt>
      <trkpt lat="46.22484" lon="6.86134">
        <ele>1810</ele>
        <time>2010-01-02T07:52:59Z</time>
      </trkpt>
      <trkpt lat="46.22458" lon="6.86153">
        <ele>1809</ele>
        <time>2010-01-02T07:53:11Z</time>
      </trkpt>
      <trkpt lat="46.22432" lon="6.86168">
        <ele>1803</ele>
        <time>2010-01-02T07:53:22Z</time>
      </trkpt>
      <trkpt lat="46.22413" lon="6.86179">
        <ele>1798</ele>
        <time>2010-01-02T07:53:30Z</time>
      </trkpt>
      <trkpt lat="46.22404" lon="6.86183">
        <ele>1796</ele>
        <time>2010-01-02T07:53:34Z</time>
      </trkpt>
      <trkpt lat="46.22394" lon="6.86184">
        <ele>1794</ele>
        <time>2010-01-02T07:53:38Z</time>
      </trkpt>
      <trkpt lat="46.22368" lon="6.86182">
        <ele>1790</ele>
        <time>2010-01-02T07:53:48Z</time>
      </trkpt>
      <trkpt lat="46.22354" lon="6.86179">
        <ele>1789</ele>
        <time>2010-01-02T07:53:54Z</time>
      </trkpt>
      <trkpt lat="46.22338" lon="6.86172">
        <ele>1789</ele>
        <time>2010-01-02T07:54:00Z</time>
      </trkpt>
      <trkpt lat="46.2233" lon="6.86168">
        <ele>1786</ele>
        <time>2010-01-02T07:54:04Z</time>
      </trkpt>
      <trkpt lat="46.22325" lon="6.86168">
        <ele>1784</ele>
        <time>2010-01-02T07:54:06Z</time>
      </trkpt>
      <trkpt lat="46.22322" lon="6.86168">
        <ele>1782</ele>
        <time>2010-01-02T07:54:07Z</time>
      </trkpt>
      <trkpt lat="46.22317" lon="6.86168">
        <ele>1780</ele>
        <time>2010-01-02T07:54:09Z</time>
      </trkpt>
      <trkpt lat="46.22312" lon="6.86169">
        <ele>1778</ele>
        <time>2010-01-02T07:54:11Z</time>
      </trkpt>
      <trkpt lat="46.22307" lon="6.86167">
        <ele>1777</ele>
        <time>2010-01-02T07:54:13Z</time>
      </trkpt>
      <trkpt lat="46.22302" lon="6.86168">
        <ele>1776</ele>
        <time>2010-01-02T07:54:15Z</time>
      </trkpt>
      <trkpt lat="46.22292" lon="6.86173">
        <ele>1774</ele>
        <time>2010-01-02T07:54:19Z</time>
      </trkpt>
      <trkpt lat="46.22287" lon="6.86174">
        <ele>1773</ele>
        <time>2010-01-02T07:54:21Z</time>
      </trkpt>
      <trkpt lat="46.22279" lon="6.86182">
        <ele>1772</ele>
        <time>2010-01-02T07:54:25Z</time>
      </trkpt>
      <trkpt lat="46.22274" lon="6.86184">
        <ele>1771</ele>
        <time>2010-01-02T07:54:27Z</time>
      </trkpt>
      <trkpt lat="46.22262" lon="6.86192">
        <ele>1770</ele>
        <time>2010-01-02T07:54:33Z</time>
      </trkpt>
      <trkpt lat="46.22253" lon="6.86194">
        <ele>1769</ele>
        <time>2010-01-02T07:54:36Z</time>
      </trkpt>
      <trkpt lat="46.22238" lon="6.86192">
        <ele>1758</ele>
        <time>2010-01-02T07:54:42Z</time>
      </trkpt>
      <trkpt lat="46.22232" lon="6.86189">
        <ele>1758</ele>
        <time>2010-01-02T07:54:45Z</time>
      </trkpt>
      <trkpt lat="46.22226" lon="6.86189">
        <ele>1757</ele>
        <time>2010-01-02T07:54:47Z</time>
      </trkpt>
      <trkpt lat="46.2222" lon="6.86188">
        <ele>1756</ele>
        <time>2010-01-02T07:54:50Z</time>
      </trkpt>
      <trkpt lat="46.22201" lon="6.86188">
        <ele>1753</ele>
        <time>2010-01-02T07:54:57Z</time>
      </trkpt>
      <trkpt lat="46.22195" lon="6.8619">
        <ele>1752</ele>
        <time>2010-01-02T07:55:00Z</time>
      </trkpt>
      <trkpt lat="46.22188" lon="6.86194">
        <ele>1751</ele>
        <time>2010-01-02T07:55:03Z</time>
      </trkpt>
      <trkpt lat="46.22178" lon="6.86198">
        <ele>1750</ele>
        <time>2010-01-02T07:55:07Z</time>
      </trkpt>
      <trkpt lat="46.22171" lon="6.86205">
        <ele>1749</ele>
        <time>2010-01-02T07:55:10Z</time>
      </trkpt>
      <trkpt lat="46.22164" lon="6.8621">
        <ele>1736</ele>
        <time>2010-01-02T07:55:14Z</time>
      </trkpt>
      <trkpt lat="46.22156" lon="6.86218">
        <ele>1735</ele>
        <time>2010-01-02T07:55:17Z</time>
      </trkpt>
      <trkpt lat="46.22144" lon="6.8623">
        <ele>1734</ele>
        <time>2010-01-02T07:55:23Z</time>
      </trkpt>
      <trkpt lat="46.22138" lon="6.86228">
        <ele>1733</ele>
        <time>2010-01-02T07:55:26Z</time>
      </trkpt>
      <trkpt lat="46.22134" lon="6.86224">
        <ele>1733</ele>
        <time>2010-01-02T07:55:27Z</time>
      </trkpt>
      <trkpt lat="46.22132" lon="6.86217">
        <ele>1733</ele>
        <time>2010-01-02T07:55:30Z</time>
      </trkpt>
      <trkpt lat="46.22132" lon="6.86216">
        <ele>1733</ele>
        <time>2010-01-02T07:55:30Z</time>
      </trkpt>
      <trkpt lat="46.2213" lon="6.86207">
        <ele>1734</ele>
        <time>2010-01-02T07:55:33Z</time>
      </trkpt>
      <trkpt lat="46.22119" lon="6.86188">
        <ele>1734</ele>
        <time>2010-01-02T07:55:39Z</time>
      </trkpt>
      <trkpt lat="46.22114" lon="6.86182">
        <ele>1733</ele>
        <time>2010-01-02T07:55:42Z</time>
      </trkpt>
      <trkpt lat="46.22106" lon="6.86179">
        <ele>1732</ele>
        <time>2010-01-02T07:55:45Z</time>
      </trkpt>
      <trkpt lat="46.22092" lon="6.86177">
        <ele>1730</ele>
        <time>2010-01-02T07:55:51Z</time>
      </trkpt>
      <trkpt lat="46.22083" lon="6.86172">
        <ele>1725</ele>
        <time>2010-01-02T07:55:55Z</time>
      </trkpt>
      <trkpt lat="46.22075" lon="6.86169">
        <ele>1724</ele>
        <time>2010-01-02T07:55:58Z</time>
      </trkpt>
      <trkpt lat="46.22074" lon="6.86158">
        <ele>1726</ele>
        <time>2010-01-02T07:56:01Z</time>
      </trkpt>
      <trkpt lat="46.22072" lon="6.8612">
        <ele>1727</ele>
        <time>2010-01-02T07:56:12Z</time>
      </trkpt>
      <trkpt lat="46.2207" lon="6.86089">
        <ele>1731</ele>
        <time>2010-01-02T07:56:20Z</time>
      </trkpt>
      <trkpt lat="46.22064" lon="6.86072">
        <ele>1735</ele>
        <time>2010-01-02T07:56:25Z</time>
      </trkpt>
      <trkpt lat="46.22053" lon="6.86056">
        <ele>1735</ele>
        <time>2010-01-02T07:56:32Z</time>
      </trkpt>
      <trkpt lat="46.22034" lon="6.86029">
        <ele>1736</ele>
        <time>2010-01-02T07:56:42Z</time>
      </trkpt>
      <trkpt lat="46.22024" lon="6.86015">
        <ele>1735</ele>
        <time>2010-01-02T07:56:48Z</time>
      </trkpt>
      <trkpt lat="46.22016" lon="6.85992">
        <ele>1741</ele>
        <time>2010-01-02T07:56:55Z</time>
      </trkpt>
      <trkpt lat="46.22011" lon="6.85973">
        <ele>1743</ele>
        <time>2010-01-02T07:57:00Z</time>
      </trkpt>
      <trkpt lat="46.22009" lon="6.85965">
        <ele>1744</ele>
        <time>2010-01-02T07:57:03Z</time>
      </trkpt>
      <trkpt lat="46.21984" lon="6.85949">
        <ele>1736</ele>
        <time>2010-01-02T07:57:14Z</time>
      </trkpt>
      <trkpt lat="46.21951" lon="6.8593">
        <ele>1736</ele>
        <time>2010-01-02T07:57:28Z</time>
      </trkpt>
      <trkpt lat="46.21944" lon="6.85925">
        <ele>1736</ele>
        <time>2010-01-02T07:57:31Z</time>
      </trkpt>
      <trkpt lat="46.21937" lon="6.85927">
        <ele>1736</ele>
        <time>2010-01-02T07:57:34Z</time>
      </trkpt>
      <trkpt lat="46.21927" lon="6.85933">
        <ele>1736</ele>
        <time>2010-01-02T07:57:38Z</time>
      </trkpt>
      <trkpt lat="46.2191" lon="6.8594">
        <ele>1735</ele>
        <time>2010-01-02T07:57:45Z</time>
      </trkpt>
      <trkpt lat="46.21898" lon="6.85942">
        <ele>1735</ele>
        <time>2010-01-02T07:57:50Z</time>
      </trkpt>
      <trkpt lat="46.2187" lon="6.85946">
        <ele>1735</ele>
        <time>2010-01-02T07:58:01Z</time>
      </trkpt>
      <trkpt lat="46.21841" lon="6.85949">
        <ele>1736</ele>
        <time>2010-01-02T07:58:13Z</time>
      </trkpt>
      <trkpt lat="46.2183" lon="6.85955">
        <ele>1740</ele>
        <time>2010-01-02T07:58:18Z</time>
      </trkpt>
      <trkpt lat="46.21809" lon="6.85963">
        <ele>1740</ele>
        <time>2010-01-02T07:58:27Z</time>
      </trkpt>
      <trkpt lat="46.21799" lon="6.85971">
        <ele>1741</ele>
        <time>2010-01-02T07:58:31Z</time>
      </trkpt>
      <trkpt lat="46.21782" lon="6.85992">
        <ele>1741</ele>
        <time>2010-01-02T07:58:40Z</time>
      </trkpt>
      <trkpt lat="46.21778" lon="6.86008">
        <ele>1735</ele>
        <time>2010-01-02T07:58:45Z</time>
      </trkpt>
      <trkpt lat="46.21773" lon="6.86025">
        <ele>1734</ele>
        <time>2010-01-02T07:58:50Z</time>
      </trkpt>
      <trkpt lat="46.21769" lon="6.86038">
        <ele>1733</ele>
        <time>2010-01-02T07:58:54Z</time>
      </trkpt>
      <trkpt lat="46.2176" lon="6.8605">
        <ele>1733</ele>
        <time>2010-01-02T07:58:59Z</time>
      </trkpt>
      <trkpt lat="46.21753" lon="6.86056">
        <ele>1733</ele>
        <time>2010-01-02T07:59:02Z</time>
      </trkpt>
      <trkpt lat="46.21744" lon="6.86068">
        <ele>1738</ele>
        <time>2010-01-02T07:59:07Z</time>
      </trkpt>
      <trkpt lat="46.21721" lon="6.86105">
        <ele>1731</ele>
        <time>2010-01-02T07:59:21Z</time>
      </trkpt>
      <trkpt lat="46.2171" lon="6.86119">
        <ele>1731</ele>
        <time>2010-01-02T07:59:27Z</time>
      </trkpt>
      <trkpt lat="46.21704" lon="6.86126">
        <ele>1730</ele>
        <time>2010-01-02T07:59:30Z</time>
      </trkpt>
      <trkpt lat="46.21701" lon="6.86124">
        <ele>1730</ele>
        <time>2010-01-02T07:59:31Z</time>
      </trkpt>
      <trkpt lat="46.21696" lon="6.8612">
        <ele>1731</ele>
        <time>2010-01-02T07:59:33Z</time>
      </trkpt>
      <trkpt lat="46.21672" lon="6.86093">
        <ele>1735</ele>
        <time>2010-01-02T07:59:46Z</time>
      </trkpt>
      <trkpt lat="46.2166" lon="6.86084">
        <ele>1734</ele>
        <time>2010-01-02T07:59:51Z</time>
      </trkpt>
      <trkpt lat="46.21637" lon="6.86057">
        <ele>1738</ele>
        <time>2010-01-02T08:00:03Z</time>
      </trkpt>
      <trkpt lat="46.21612" lon="6.86019">
        <ele>1739</ele>
        <time>2010-01-02T08:00:17Z</time>
      </trkpt>
      <trkpt lat="46.21601" lon="6.85999">
        <ele>1748</ele>
        <time>2010-01-02T08:00:24Z</time>
      </trkpt>
      <trkpt lat="46.21587" lon="6.85976">
        <ele>1750</ele>
        <time>2010-01-02T08:00:33Z</time>
      </trkpt>
      <trkpt lat="46.21576" lon="6.85959">
        <ele>1741</ele>
        <time>2010-01-02T08:00:39Z</time>
      </trkpt>
      <trkpt lat="46.2156" lon="6.85937">
        <ele>1743</ele>
        <time>2010-01-02T08:00:48Z</time>
      </trkpt>
      <trkpt lat="46.21553" lon="6.85927">
        <ele>1743</ele>
        <time>2010-01-02T08:00:52Z</time>
      </trkpt>
      <trkpt lat="46.21549" lon="6.85919">
        <ele>1742</ele>
        <time>2010-01-02T08:00:55Z</time>
      </trkpt>
      <trkpt lat="46.21535" lon="6.85866">
        <ele>1754</ele>
        <time>2010-01-02T08:01:11Z</time>
      </trkpt>
      <trkpt lat="46.21515" lon="6.85824">
        <ele>1759</ele>
        <time>2010-01-02T08:01:25Z</time>
      </trkpt>
      <trkpt lat="46.21483" lon="6.8578">
        <ele>1750</ele>
        <time>2010-01-02T08:01:42Z</time>
      </trkpt>
      <trkpt lat="46.21432" lon="6.85704">
        <ele>1757</ele>
        <time>2010-01-02T08:02:12Z</time>
      </trkpt>
      <trkpt lat="46.21413" lon="6.85679">
        <ele>1750</ele>
        <time>2010-01-02T08:02:22Z</time>
      </trkpt>
      <trkpt lat="46.214" lon="6.85667">
        <ele>1749</ele>
        <time>2010-01-02T08:02:28Z</time>
      </trkpt>
      <trkpt lat="46.21393" lon="6.85659">
        <ele>1756</ele>
        <time>2010-01-02T08:02:32Z</time>
      </trkpt>
      <trkpt lat="46.21387" lon="6.85656">
        <ele>1755</ele>
        <time>2010-01-02T08:02:34Z</time>
      </trkpt>
      <trkpt lat="46.21366" lon="6.85641">
        <ele>1753</ele>
        <time>2010-01-02T08:02:43Z</time>
      </trkpt>
      <trkpt lat="46.21355" lon="6.8563">
        <ele>1753</ele>
        <time>2010-01-02T08:02:49Z</time>
      </trkpt>
      <trkpt lat="46.21344" lon="6.85613">
        <ele>1754</ele>
        <time>2010-01-02T08:02:55Z</time>
      </trkpt>
      <trkpt lat="46.21336" lon="6.85598">
        <ele>1754</ele>
        <time>2010-01-02T08:03:01Z</time>
      </trkpt>
      <trkpt lat="46.2133" lon="6.85586">
        <ele>1751</ele>
        <time>2010-01-02T08:03:05Z</time>
      </trkpt>
      <trkpt lat="46.21327" lon="6.85581">
        <ele>1753</ele>
        <time>2010-01-02T08:03:07Z</time>
      </trkpt>
      <trkpt lat="46.21297" lon="6.85559">
        <ele>1750</ele>
        <time>2010-01-02T08:03:20Z</time>
      </trkpt>
      <trkpt lat="46.21276" lon="6.85537">
        <ele>1750</ele>
        <time>2010-01-02T08:03:30Z</time>
      </trkpt>
      <trkpt lat="46.21272" lon="6.8553">
        <ele>1750</ele>
        <time>2010-01-02T08:03:33Z</time>
      </trkpt>
      <trkpt lat="46.21267" lon="6.8552">
        <ele>1750</ele>
        <time>2010-01-02T08:03:36Z</time>
      </trkpt>
      <trkpt lat="46.21245" lon="6.85483">
        <ele>1749</ele>
        <time>2010-01-02T08:03:50Z</time>
      </trkpt>
      <trkpt lat="46.21235" lon="6.8547">
        <ele>1749</ele>
        <time>2010-01-02T08:03:55Z</time>
      </trkpt>
      <trkpt lat="46.2122" lon="6.85453">
        <ele>1749</ele>
        <time>2010-01-02T08:04:03Z</time>
      </trkpt>
      <trkpt lat="46.21208" lon="6.85443">
        <ele>1749</ele>
        <time>2010-01-02T08:04:09Z</time>
      </trkpt>
      <trkpt lat="46.21201" lon="6.85434">
        <ele>1748</ele>
        <time>2010-01-02T08:04:12Z</time>
      </trkpt>
      <trkpt lat="46.21196" lon="6.85428">
        <ele>1748</ele>
        <time>2010-01-02T08:04:15Z</time>
      </trkpt>
      <trkpt lat="46.21191" lon="6.85423">
        <ele>1748</ele>
        <time>2010-01-02T08:04:17Z</time>
      </trkpt>
      <trkpt lat="46.21184" lon="6.85422">
        <ele>1747</ele>
        <time>2010-01-02T08:04:20Z</time>
      </trkpt>
      <trkpt lat="46.21178" lon="6.8542">
        <ele>1746</ele>
        <time>2010-01-02T08:04:23Z</time>
      </trkpt>
      <trkpt lat="46.21168" lon="6.85414">
        <ele>1747</ele>
        <time>2010-01-02T08:04:27Z</time>
      </trkpt>
      <trkpt lat="46.21162" lon="6.85407">
        <ele>1743</ele>
        <time>2010-01-02T08:04:30Z</time>
      </trkpt>
      <trkpt lat="46.21156" lon="6.85399">
        <ele>1742</ele>
        <time>2010-01-02T08:04:33Z</time>
      </trkpt>
      <trkpt lat="46.21149" lon="6.85386">
        <ele>1742</ele>
        <time>2010-01-02T08:04:38Z</time>
      </trkpt>
      <trkpt lat="46.21143" lon="6.85379">
        <ele>1742</ele>
        <time>2010-01-02T08:04:41Z</time>
      </trkpt>
      <trkpt lat="46.21136" lon="6.85372">
        <ele>1742</ele>
        <time>2010-01-02T08:04:44Z</time>
      </trkpt>
      <trkpt lat="46.21132" lon="6.85368">
        <ele>1741</ele>
        <time>2010-01-02T08:04:46Z</time>
      </trkpt>
      <trkpt lat="46.21122" lon="6.85353">
        <ele>1741</ele>
        <time>2010-01-02T08:04:52Z</time>
      </trkpt>
      <trkpt lat="46.21119" lon="6.85342">
        <ele>1741</ele>
        <time>2010-01-02T08:04:55Z</time>
      </trkpt>
      <trkpt lat="46.21117" lon="6.85335">
        <ele>1740</ele>
        <time>2010-01-02T08:04:57Z</time>
      </trkpt>
      <trkpt lat="46.21112" lon="6.85333">
        <ele>1750</ele>
        <time>2010-01-02T08:04:59Z</time>
      </trkpt>
      <trkpt lat="46.21109" lon="6.85335">
        <ele>1739</ele>
        <time>2010-01-02T08:05:01Z</time>
      </trkpt>
      <trkpt lat="46.21109" lon="6.85336">
        <ele>1739</ele>
        <time>2010-01-02T08:05:01Z</time>
      </trkpt>
      <trkpt lat="46.2111" lon="6.85345">
        <ele>1739</ele>
        <time>2010-01-02T08:05:03Z</time>
      </trkpt>
      <trkpt lat="46.2111" lon="6.85345">
        <ele>1739</ele>
        <time>2010-01-02T08:05:03Z</time>
      </trkpt>
      <trkpt lat="46.21114" lon="6.85356">
        <ele>1739</ele>
        <time>2010-01-02T08:05:07Z</time>
      </trkpt>
      <trkpt lat="46.21114" lon="6.85357">
        <ele>1739</ele>
        <time>2010-01-02T08:05:07Z</time>
      </trkpt>
      <trkpt lat="46.21114" lon="6.85359">
        <ele>1739</ele>
        <time>2010-01-02T08:05:08Z</time>
      </trkpt>
      <trkpt lat="46.21121" lon="6.85383">
        <ele>1738</ele>
        <time>2010-01-02T08:05:15Z</time>
      </trkpt>
      <trkpt lat="46.21125" lon="6.85397">
        <ele>1738</ele>
        <time>2010-01-02T08:05:19Z</time>
      </trkpt>
      <trkpt lat="46.21126" lon="6.85398">
        <ele>1738</ele>
        <time>2010-01-02T08:05:19Z</time>
      </trkpt>
      <trkpt lat="46.21129" lon="6.85412">
        <ele>1738</ele>
        <time>2010-01-02T08:05:23Z</time>
      </trkpt>
      <trkpt lat="46.21133" lon="6.85423">
        <ele>1730</ele>
        <time>2010-01-02T08:05:27Z</time>
      </trkpt>
      <trkpt lat="46.21136" lon="6.85432">
        <ele>1730</ele>
        <time>2010-01-02T08:05:30Z</time>
      </trkpt>
      <trkpt lat="46.21137" lon="6.85433">
        <ele>1730</ele>
        <time>2010-01-02T08:05:30Z</time>
      </trkpt>
      <trkpt lat="46.21137" lon="6.85447">
        <ele>1729</ele>
        <time>2010-01-02T08:05:34Z</time>
      </trkpt>
      <trkpt lat="46.21133" lon="6.85465">
        <ele>1727</ele>
        <time>2010-01-02T08:05:39Z</time>
      </trkpt>
      <trkpt lat="46.21122" lon="6.8547">
        <ele>1725</ele>
        <time>2010-01-02T08:05:43Z</time>
      </trkpt>
      <trkpt lat="46.21109" lon="6.85482">
        <ele>1722</ele>
        <time>2010-01-02T08:05:50Z</time>
      </trkpt>
      <trkpt lat="46.21082" lon="6.85508">
        <ele>1712</ele>
        <time>2010-01-02T08:06:03Z</time>
      </trkpt>
      <trkpt lat="46.21055" lon="6.85533">
        <ele>1709</ele>
        <time>2010-01-02T08:06:16Z</time>
      </trkpt>
      <trkpt lat="46.20985" lon="6.85598">
        <ele>1703</ele>
        <time>2010-01-02T08:06:49Z</time>
      </trkpt>
      <trkpt lat="46.2097" lon="6.85621">
        <ele>1702</ele>
        <time>2010-01-02T08:06:58Z</time>
      </trkpt>
      <trkpt lat="46.20957" lon="6.85642">
        <ele>1701</ele>
        <time>2010-01-02T08:07:05Z</time>
      </trkpt>
      <trkpt lat="46.20948" lon="6.85651">
        <ele>1700</ele>
        <time>2010-01-02T08:07:10Z</time>
      </trkpt>
      <trkpt lat="46.20923" lon="6.8567">
        <ele>1697</ele>
        <time>2010-01-02T08:07:21Z</time>
      </trkpt>
      <trkpt lat="46.20906" lon="6.85675">
        <ele>1697</ele>
        <time>2010-01-02T08:07:28Z</time>
      </trkpt>
      <trkpt lat="46.20885" lon="6.85671">
        <ele>1697</ele>
        <time>2010-01-02T08:07:37Z</time>
      </trkpt>
      <trkpt lat="46.20869" lon="6.85646">
        <ele>1697</ele>
        <time>2010-01-02T08:07:46Z</time>
      </trkpt>
      <trkpt lat="46.20862" lon="6.85637">
        <ele>1697</ele>
        <time>2010-01-02T08:07:50Z</time>
      </trkpt>
      <trkpt lat="46.20849" lon="6.85632">
        <ele>1697</ele>
        <time>2010-01-02T08:07:55Z</time>
      </trkpt>
      <trkpt lat="46.20848" lon="6.85633">
        <ele>1697</ele>
        <time>2010-01-02T08:07:56Z</time>
      </trkpt>
      <trkpt lat="46.20833" lon="6.85641">
        <ele>1705</ele>
        <time>2010-01-02T08:08:02Z</time>
      </trkpt>
      <trkpt lat="46.20819" lon="6.85665">
        <ele>1703</ele>
        <time>2010-01-02T08:08:11Z</time>
      </trkpt>
      <trkpt lat="46.20769" lon="6.85737">
        <ele>1704</ele>
        <time>2010-01-02T08:08:39Z</time>
      </trkpt>
      <trkpt lat="46.20752" lon="6.85753">
        <ele>1704</ele>
        <time>2010-01-02T08:08:47Z</time>
      </trkpt>
      <trkpt lat="46.20728" lon="6.85762">
        <ele>1705</ele>
        <time>2010-01-02T08:08:57Z</time>
      </trkpt>
      <trkpt lat="46.20713" lon="6.85764">
        <ele>1705</ele>
        <time>2010-01-02T08:09:03Z</time>
      </trkpt>
      <trkpt lat="46.20685" lon="6.85783">
        <ele>1706</ele>
        <time>2010-01-02T08:09:15Z</time>
      </trkpt>
      <trkpt lat="46.20668" lon="6.85804">
        <ele>1704</ele>
        <time>2010-01-02T08:09:24Z</time>
      </trkpt>
      <trkpt lat="46.20667" lon="6.85806">
        <ele>1704</ele>
        <time>2010-01-02T08:09:25Z</time>
      </trkpt>
      <trkpt lat="46.20657" lon="6.85828">
        <ele>1705</ele>
        <time>2010-01-02T08:09:32Z</time>
      </trkpt>
      <trkpt lat="46.20645" lon="6.85844">
        <ele>1697</ele>
        <time>2010-01-02T08:09:39Z</time>
      </trkpt>
      <trkpt lat="46.20632" lon="6.85846">
        <ele>1696</ele>
        <time>2010-01-02T08:09:44Z</time>
      </trkpt>
      <trkpt lat="46.20616" lon="6.85844">
        <ele>1697</ele>
        <time>2010-01-02T08:09:50Z</time>
      </trkpt>
      <trkpt lat="46.20605" lon="6.85844">
        <ele>1698</ele>
        <time>2010-01-02T08:09:55Z</time>
      </trkpt>
      <trkpt lat="46.20581" lon="6.85833">
        <ele>1704</ele>
        <time>2010-01-02T08:10:05Z</time>
      </trkpt>
      <trkpt lat="46.2057" lon="6.85832">
        <ele>1707</ele>
        <time>2010-01-02T08:10:09Z</time>
      </trkpt>
      <trkpt lat="46.20556" lon="6.85827">
        <ele>1708</ele>
        <time>2010-01-02T08:10:15Z</time>
      </trkpt>
      <trkpt lat="46.20547" lon="6.85829">
        <ele>1708</ele>
        <time>2010-01-02T08:10:19Z</time>
      </trkpt>
      <trkpt lat="46.20534" lon="6.85832">
        <ele>1707</ele>
        <time>2010-01-02T08:10:24Z</time>
      </trkpt>
      <trkpt lat="46.20523" lon="6.85837">
        <ele>1694</ele>
        <time>2010-01-02T08:10:29Z</time>
      </trkpt>
      <trkpt lat="46.20517" lon="6.85837">
        <ele>1694</ele>
        <time>2010-01-02T08:10:31Z</time>
      </trkpt>
      <trkpt lat="46.20513" lon="6.85833">
        <ele>1703</ele>
        <time>2010-01-02T08:10:33Z</time>
      </trkpt>
      <trkpt lat="46.20509" lon="6.8583">
        <ele>1702</ele>
        <time>2010-01-02T08:10:35Z</time>
      </trkpt>
      <trkpt lat="46.20503" lon="6.85824">
        <ele>1702</ele>
        <time>2010-01-02T08:10:38Z</time>
      </trkpt>
      <trkpt lat="46.20503" lon="6.85833">
        <ele>1699</ele>
        <time>2010-01-02T08:10:40Z</time>
      </trkpt>
      <trkpt lat="46.20503" lon="6.85843">
        <ele>1695</ele>
        <time>2010-01-02T08:10:43Z</time>
      </trkpt>
      <trkpt lat="46.20506" lon="6.85852">
        <ele>1693</ele>
        <time>2010-01-02T08:10:46Z</time>
      </trkpt>
      <trkpt lat="46.20514" lon="6.85859">
        <ele>1692</ele>
        <time>2010-01-02T08:10:50Z</time>
      </trkpt>
      <trkpt lat="46.20521" lon="6.85864">
        <ele>1691</ele>
        <time>2010-01-02T08:10:53Z</time>
      </trkpt>
      <trkpt lat="46.20533" lon="6.85864">
        <ele>1691</ele>
        <time>2010-01-02T08:10:58Z</time>
      </trkpt>
      <trkpt lat="46.20543" lon="6.85863">
        <ele>1692</ele>
        <time>2010-01-02T08:11:02Z</time>
      </trkpt>
      <trkpt lat="46.20551" lon="6.85868">
        <ele>1692</ele>
        <time>2010-01-02T08:11:05Z</time>
      </trkpt>
      <trkpt lat="46.20565" lon="6.85871">
        <ele>1692</ele>
        <time>2010-01-02T08:11:11Z</time>
      </trkpt>
      <trkpt lat="46.20581" lon="6.85881">
        <ele>1691</ele>
        <time>2010-01-02T08:11:18Z</time>
      </trkpt>
      <trkpt lat="46.20592" lon="6.85899">
        <ele>1689</ele>
        <time>2010-01-02T08:11:24Z</time>
      </trkpt>
      <trkpt lat="46.20592" lon="6.85898">
        <ele>1689</ele>
        <time>2010-01-02T08:11:25Z</time>
      </trkpt>
      <trkpt lat="46.20607" lon="6.85906">
        <ele>1690</ele>
        <time>2010-01-02T08:11:31Z</time>
      </trkpt>
      <trkpt lat="46.20622" lon="6.85912">
        <ele>1690</ele>
        <time>2010-01-02T08:11:37Z</time>
      </trkpt>
      <trkpt lat="46.20624" lon="6.85914">
        <ele>1689</ele>
        <time>2010-01-02T08:11:38Z</time>
      </trkpt>
      <trkpt lat="46.20652" lon="6.85928">
        <ele>1678</ele>
        <time>2010-01-02T08:11:50Z</time>
      </trkpt>
      <trkpt lat="46.20694" lon="6.85937">
        <ele>1675</ele>
        <time>2010-01-02T08:12:07Z</time>
      </trkpt>
      <trkpt lat="46.20731" lon="6.85952">
        <ele>1673</ele>
        <time>2010-01-02T08:12:22Z</time>
      </trkpt>
      <trkpt lat="46.20745" lon="6.85965">
        <ele>1671</ele>
        <time>2010-01-02T08:12:29Z</time>
      </trkpt>
      <trkpt lat="46.20746" lon="6.85975">
        <ele>1669</ele>
        <time>2010-01-02T08:12:32Z</time>
      </trkpt>
      <trkpt lat="46.20742" lon="6.85985">
        <ele>1667</ele>
        <time>2010-01-02T08:12:35Z</time>
      </trkpt>
      <trkpt lat="46.20727" lon="6.86004">
        <ele>1659</ele>
        <time>2010-01-02T08:12:43Z</time>
      </trkpt>
      <trkpt lat="46.20705" lon="6.86021">
        <ele>1658</ele>
        <time>2010-01-02T08:12:53Z</time>
      </trkpt>
      <trkpt lat="46.2069" lon="6.86012">
        <ele>1659</ele>
        <time>2010-01-02T08:12:59Z</time>
      </trkpt>
      <trkpt lat="46.20679" lon="6.85998">
        <ele>1668</ele>
        <time>2010-01-02T08:13:05Z</time>
      </trkpt>
      <trkpt lat="46.20676" lon="6.85984">
        <ele>1669</ele>
        <time>2010-01-02T08:13:09Z</time>
      </trkpt>
      <trkpt lat="46.20676" lon="6.85999">
        <ele>1667</ele>
        <time>2010-01-02T08:13:13Z</time>
      </trkpt>
      <trkpt lat="46.20668" lon="6.86">
        <ele>1665</ele>
        <time>2010-01-02T08:13:17Z</time>
      </trkpt>
      <trkpt lat="46.20665" lon="6.85992">
        <ele>1668</ele>
        <time>2010-01-02T08:13:19Z</time>
      </trkpt>
      <trkpt lat="46.20648" lon="6.85891">
        <ele>1690</ele>
        <time>2010-01-02T08:13:48Z</time>
      </trkpt>
      <trkpt lat="46.20653" lon="6.85892">
        <ele>1690</ele>
        <time>2010-01-02T08:13:50Z</time>
      </trkpt>
      <trkpt lat="46.20642" lon="6.85852">
        <ele>1696</ele>
        <time>2010-01-02T08:14:01Z</time>
      </trkpt>
      <trkpt lat="46.20638" lon="6.85824">
        <ele>1707</ele>
        <time>2010-01-02T08:14:09Z</time>
      </trkpt>
      <trkpt lat="46.20631" lon="6.85791">
        <ele>1710</ele>
        <time>2010-01-02T08:14:19Z</time>
      </trkpt>
      <trkpt lat="46.20625" lon="6.85753">
        <ele>1712</ele>
        <time>2010-01-02T08:14:30Z</time>
      </trkpt>
      <trkpt lat="46.20616" lon="6.85704">
        <ele>1728</ele>
        <time>2010-01-02T08:14:44Z</time>
      </trkpt>
      <trkpt lat="46.20612" lon="6.85678">
        <ele>1732</ele>
        <time>2010-01-02T08:14:51Z</time>
      </trkpt>
      <trkpt lat="46.20595" lon="6.85577">
        <ele>1777</ele>
        <time>2010-01-02T08:15:20Z</time>
      </trkpt>
      <trkpt lat="46.20583" lon="6.85509">
        <ele>1802</ele>
        <time>2010-01-02T08:15:39Z</time>
      </trkpt>
      <trkpt lat="46.2058" lon="6.85491">
        <ele>1810</ele>
        <time>2010-01-02T08:15:44Z</time>
      </trkpt>
      <trkpt lat="46.20577" lon="6.85473">
        <ele>1816</ele>
        <time>2010-01-02T08:15:50Z</time>
      </trkpt>
      <trkpt lat="46.20575" lon="6.85454">
        <ele>1820</ele>
        <time>2010-01-02T08:15:55Z</time>
      </trkpt>
      <trkpt lat="46.20573" lon="6.8544">
        <ele>1822</ele>
        <time>2010-01-02T08:15:59Z</time>
      </trkpt>
      <trkpt lat="46.20569" lon="6.85423">
        <ele>1823</ele>
        <time>2010-01-02T08:16:04Z</time>
      </trkpt>
      <trkpt lat="46.20568" lon="6.85414">
        <ele>1832</ele>
        <time>2010-01-02T08:16:06Z</time>
      </trkpt>
      <trkpt lat="46.20565" lon="6.85394">
        <ele>1835</ele>
        <time>2010-01-02T08:16:12Z</time>
      </trkpt>
      <trkpt lat="46.20563" lon="6.85381">
        <ele>1838</ele>
        <time>2010-01-02T08:16:16Z</time>
      </trkpt>
      <trkpt lat="46.20563" lon="6.85381">
        <ele>1838</ele>
        <time>2010-01-02T08:16:16Z</time>
      </trkpt>
      <trkpt lat="46.20561" lon="6.85366">
        <ele>1840</ele>
        <time>2010-01-02T08:16:20Z</time>
      </trkpt>
      <trkpt lat="46.20559" lon="6.85358">
        <ele>1841</ele>
        <time>2010-01-02T08:16:22Z</time>
      </trkpt>
      <trkpt lat="46.20557" lon="6.85349">
        <ele>1842</ele>
        <time>2010-01-02T08:16:25Z</time>
      </trkpt>
      <trkpt lat="46.20554" lon="6.85334">
        <ele>1843</ele>
        <time>2010-01-02T08:16:29Z</time>
      </trkpt>
      <trkpt lat="46.2055" lon="6.85318">
        <ele>1857</ele>
        <time>2010-01-02T08:16:34Z</time>
      </trkpt>
      <trkpt lat="46.20545" lon="6.85291">
        <ele>1862</ele>
        <time>2010-01-02T08:16:42Z</time>
      </trkpt>
      <trkpt lat="46.20538" lon="6.85246">
        <ele>1886</ele>
        <time>2010-01-02T08:16:54Z</time>
      </trkpt>
      <trkpt lat="46.20524" lon="6.85163">
        <ele>1922</ele>
        <time>2010-01-02T08:17:18Z</time>
      </trkpt>
      <trkpt lat="46.20506" lon="6.85055">
        <ele>1958</ele>
        <time>2010-01-02T08:17:49Z</time>
      </trkpt>
      <trkpt lat="46.2048" lon="6.84891">
        <ele>1996</ele>
        <time>2010-01-02T08:18:36Z</time>
      </trkpt>
      <trkpt lat="46.20466" lon="6.84808">
        <ele>2004</ele>
        <time>2010-01-02T08:18:59Z</time>
      </trkpt>
      <trkpt lat="46.20433" lon="6.84707">
        <ele>2007</ele>
        <time>2010-01-02T08:19:30Z</time>
      </trkpt>
      <trkpt lat="46.20364" lon="6.84621">
        <ele>2014</ele>
        <time>2010-01-02T08:20:07Z</time>
      </trkpt>
      <trkpt lat="46.20251" lon="6.84524">
        <ele>2008</ele>
        <time>2010-01-02T08:20:59Z</time>
      </trkpt>
      <trkpt lat="46.20227" lon="6.84499">
        <ele>2011</ele>
        <time>2010-01-02T08:21:11Z</time>
      </trkpt>
      <trkpt lat="46.20207" lon="6.84481">
        <ele>2011</ele>
        <time>2010-01-02T08:21:20Z</time>
      </trkpt>
      <trkpt lat="46.20189" lon="6.84467">
        <ele>2013</ele>
        <time>2010-01-02T08:21:29Z</time>
      </trkpt>
      <trkpt lat="46.20177" lon="6.84455">
        <ele>2014</ele>
        <time>2010-01-02T08:21:35Z</time>
      </trkpt>
      <trkpt lat="46.20167" lon="6.84441">
        <ele>2018</ele>
        <time>2010-01-02T08:21:40Z</time>
      </trkpt>
      <trkpt lat="46.20167" lon="6.8444">
        <ele>2021</ele>
        <time>2010-01-02T08:21:40Z</time>
      </trkpt>
      <trkpt lat="46.20159" lon="6.84431">
        <ele>2023</ele>
        <time>2010-01-02T08:21:44Z</time>
      </trkpt>
      <trkpt lat="46.20158" lon="6.8443">
        <ele>2023</ele>
        <time>2010-01-02T08:21:45Z</time>
      </trkpt>
      <trkpt lat="46.20146" lon="6.84423">
        <ele>2022</ele>
        <time>2010-01-02T08:21:50Z</time>
      </trkpt>
      <trkpt lat="46.20125" lon="6.84419">
        <ele>2021</ele>
        <time>2010-01-02T08:21:58Z</time>
      </trkpt>
      <trkpt lat="46.20105" lon="6.84414">
        <ele>2033</ele>
        <time>2010-01-02T08:22:07Z</time>
      </trkpt>
      <trkpt lat="46.20095" lon="6.8441">
        <ele>2033</ele>
        <time>2010-01-02T08:22:11Z</time>
      </trkpt>
      <trkpt lat="46.20084" lon="6.84403">
        <ele>2034</ele>
        <time>2010-01-02T08:22:16Z</time>
      </trkpt>
      <trkpt lat="46.20075" lon="6.84396">
        <ele>2039</ele>
        <time>2010-01-02T08:22:20Z</time>
      </trkpt>
      <trkpt lat="46.20058" lon="6.84385">
        <ele>2042</ele>
        <time>2010-01-02T08:22:27Z</time>
      </trkpt>
      <trkpt lat="46.20054" lon="6.84381">
        <ele>2043</ele>
        <time>2010-01-02T08:22:29Z</time>
      </trkpt>
      <trkpt lat="46.20049" lon="6.84385">
        <ele>2043</ele>
        <time>2010-01-02T08:22:31Z</time>
      </trkpt>
      <trkpt lat="46.20047" lon="6.84391">
        <ele>2042</ele>
        <time>2010-01-02T08:22:33Z</time>
      </trkpt>
      <trkpt lat="46.20043" lon="6.84393">
        <ele>2041</ele>
        <time>2010-01-02T08:22:35Z</time>
      </trkpt>
      <trkpt lat="46.20038" lon="6.84396">
        <ele>2041</ele>
        <time>2010-01-02T08:22:37Z</time>
      </trkpt>
      <trkpt lat="46.2003" lon="6.84397">
        <ele>2040</ele>
        <time>2010-01-02T08:22:40Z</time>
      </trkpt>
      <trkpt lat="46.20025" lon="6.84397">
        <ele>2040</ele>
        <time>2010-01-02T08:22:42Z</time>
      </trkpt>
      <trkpt lat="46.20019" lon="6.84397">
        <ele>2039</ele>
        <time>2010-01-02T08:22:44Z</time>
      </trkpt>
      <trkpt lat="46.20012" lon="6.84398">
        <ele>2038</ele>
        <time>2010-01-02T08:22:47Z</time>
      </trkpt>
      <trkpt lat="46.2" lon="6.84396">
        <ele>2038</ele>
        <time>2010-01-02T08:22:52Z</time>
      </trkpt>
      <trkpt lat="46.19992" lon="6.84392">
        <ele>2034</ele>
        <time>2010-01-02T08:22:56Z</time>
      </trkpt>
      <trkpt lat="46.19991" lon="6.84392">
        <ele>2034</ele>
        <time>2010-01-02T08:22:56Z</time>
      </trkpt>
      <trkpt lat="46.19983" lon="6.8438">
        <ele>2036</ele>
        <time>2010-01-02T08:23:00Z</time>
      </trkpt>
      <trkpt lat="46.19975" lon="6.84372">
        <ele>2038</ele>
        <time>2010-01-02T08:23:04Z</time>
      </trkpt>
      <trkpt lat="46.19956" lon="6.84356">
        <ele>2038</ele>
        <time>2010-01-02T08:23:13Z</time>
      </trkpt>
      <trkpt lat="46.19927" lon="6.84339">
        <ele>2040</ele>
        <time>2010-01-02T08:23:25Z</time>
      </trkpt>
      <trkpt lat="46.19921" lon="6.84326">
        <ele>2049</ele>
        <time>2010-01-02T08:23:30Z</time>
      </trkpt>
      <trkpt lat="46.19913" lon="6.84314">
        <ele>2044</ele>
        <time>2010-01-02T08:23:35Z</time>
      </trkpt>
      <trkpt lat="46.19908" lon="6.843">
        <ele>2046</ele>
        <time>2010-01-02T08:23:39Z</time>
      </trkpt>
      <trkpt lat="46.19904" lon="6.84292">
        <ele>2047</ele>
        <time>2010-01-02T08:23:42Z</time>
      </trkpt>
      <trkpt lat="46.19901" lon="6.84284">
        <ele>2049</ele>
        <time>2010-01-02T08:23:44Z</time>
      </trkpt>
      <trkpt lat="46.19858" lon="6.84259">
        <ele>2047</ele>
        <time>2010-01-02T08:24:03Z</time>
      </trkpt>
      <trkpt lat="46.19833" lon="6.84245">
        <ele>2052</ele>
        <time>2010-01-02T08:24:13Z</time>
      </trkpt>
      <trkpt lat="46.19821" lon="6.84247">
        <ele>2053</ele>
        <time>2010-01-02T08:24:18Z</time>
      </trkpt>
      <trkpt lat="46.19793" lon="6.84231">
        <ele>2054</ele>
        <time>2010-01-02T08:24:30Z</time>
      </trkpt>
      <trkpt lat="46.19767" lon="6.84234">
        <ele>2048</ele>
        <time>2010-01-02T08:24:41Z</time>
      </trkpt>
      <trkpt lat="46.1974" lon="6.84242">
        <ele>2034</ele>
        <time>2010-01-02T08:24:52Z</time>
      </trkpt>
      <trkpt lat="46.19719" lon="6.8424">
        <ele>2032</ele>
        <time>2010-01-02T08:25:00Z</time>
      </trkpt>
      <trkpt lat="46.19711" lon="6.84234">
        <ele>2031</ele>
        <time>2010-01-02T08:25:04Z</time>
      </trkpt>
      <trkpt lat="46.19709" lon="6.84224">
        <ele>2032</ele>
        <time>2010-01-02T08:25:07Z</time>
      </trkpt>
      <trkpt lat="46.19708" lon="6.84206">
        <ele>2034</ele>
        <time>2010-01-02T08:25:12Z</time>
      </trkpt>
      <trkpt lat="46.19688" lon="6.84199">
        <ele>2031</ele>
        <time>2010-01-02T08:25:20Z</time>
      </trkpt>
      <trkpt lat="46.19675" lon="6.84194">
        <ele>2030</ele>
        <time>2010-01-02T08:25:25Z</time>
      </trkpt>
      <trkpt lat="46.19662" lon="6.84209">
        <ele>2013</ele>
        <time>2010-01-02T08:25:32Z</time>
      </trkpt>
      <trkpt lat="46.19645" lon="6.84227">
        <ele>2011</ele>
        <time>2010-01-02T08:25:40Z</time>
      </trkpt>
      <trkpt lat="46.1963" lon="6.84238">
        <ele>2008</ele>
        <time>2010-01-02T08:25:47Z</time>
      </trkpt>
      <trkpt lat="46.19619" lon="6.84246">
        <ele>2006</ele>
        <time>2010-01-02T08:25:52Z</time>
      </trkpt>
      <trkpt lat="46.19618" lon="6.84246">
        <ele>2006</ele>
        <time>2010-01-02T08:25:53Z</time>
      </trkpt>
      <trkpt lat="46.19602" lon="6.84247">
        <ele>2002</ele>
        <time>2010-01-02T08:25:59Z</time>
      </trkpt>
      <trkpt lat="46.19593" lon="6.84242">
        <ele>2000</ele>
        <time>2010-01-02T08:26:03Z</time>
      </trkpt>
      <trkpt lat="46.19585" lon="6.8422">
        <ele>2003</ele>
        <time>2010-01-02T08:26:10Z</time>
      </trkpt>
      <trkpt lat="46.19578" lon="6.84194">
        <ele>1986</ele>
        <time>2010-01-02T08:26:18Z</time>
      </trkpt>
      <trkpt lat="46.19575" lon="6.84174">
        <ele>1991</ele>
        <time>2010-01-02T08:26:23Z</time>
      </trkpt>
      <trkpt lat="46.19572" lon="6.84159">
        <ele>1992</ele>
        <time>2010-01-02T08:26:28Z</time>
      </trkpt>
      <trkpt lat="46.19562" lon="6.84117">
        <ele>1987</ele>
        <time>2010-01-02T08:26:40Z</time>
      </trkpt>
      <trkpt lat="46.19551" lon="6.84064">
        <ele>1987</ele>
        <time>2010-01-02T08:26:55Z</time>
      </trkpt>
      <trkpt lat="46.19549" lon="6.84059">
        <ele>1987</ele>
        <time>2010-01-02T08:26:57Z</time>
      </trkpt>
      <trkpt lat="46.1954" lon="6.83985">
        <ele>1985</ele>
        <time>2010-01-02T08:27:18Z</time>
      </trkpt>
      <trkpt lat="46.19528" lon="6.83928">
        <ele>1980</ele>
        <time>2010-01-02T08:27:34Z</time>
      </trkpt>
      <trkpt lat="46.1953" lon="6.83902">
        <ele>1980</ele>
        <time>2010-01-02T08:27:41Z</time>
      </trkpt>
      <trkpt lat="46.19525" lon="6.83864">
        <ele>1979</ele>
        <time>2010-01-02T08:27:52Z</time>
      </trkpt>
      <trkpt lat="46.19522" lon="6.83847">
        <ele>1977</ele>
        <time>2010-01-02T08:27:57Z</time>
      </trkpt>
      <trkpt lat="46.19518" lon="6.83845">
        <ele>1975</ele>
        <time>2010-01-02T08:27:59Z</time>
      </trkpt>
      <trkpt lat="46.19509" lon="6.83867">
        <ele>1976</ele>
        <time>2010-01-02T08:28:06Z</time>
      </trkpt>
      <trkpt lat="46.19501" lon="6.83886">
        <ele>1975</ele>
        <time>2010-01-02T08:28:12Z</time>
      </trkpt>
      <trkpt lat="46.19493" lon="6.83895">
        <ele>1955</ele>
        <time>2010-01-02T08:28:16Z</time>
      </trkpt>
      <trkpt lat="46.19479" lon="6.83903">
        <ele>1953</ele>
        <time>2010-01-02T08:28:22Z</time>
      </trkpt>
      <trkpt lat="46.19472" lon="6.83913">
        <ele>1952</ele>
        <time>2010-01-02T08:28:26Z</time>
      </trkpt>
      <trkpt lat="46.19466" lon="6.83932">
        <ele>1951</ele>
        <time>2010-01-02T08:28:32Z</time>
      </trkpt>
      <trkpt lat="46.1946" lon="6.83959">
        <ele>1950</ele>
        <time>2010-01-02T08:28:40Z</time>
      </trkpt>
      <trkpt lat="46.19449" lon="6.83977">
        <ele>1948</ele>
        <time>2010-01-02T08:28:46Z</time>
      </trkpt>
      <trkpt lat="46.19435" lon="6.83976">
        <ele>1946</ele>
        <time>2010-01-02T08:28:52Z</time>
      </trkpt>
      <trkpt lat="46.19424" lon="6.83961">
        <ele>1946</ele>
        <time>2010-01-02T08:28:58Z</time>
      </trkpt>
      <trkpt lat="46.19388" lon="6.83876">
        <ele>1925</ele>
        <time>2010-01-02T08:29:25Z</time>
      </trkpt>
      <trkpt lat="46.19372" lon="6.83847">
        <ele>1922</ele>
        <time>2010-01-02T08:29:36Z</time>
      </trkpt>
      <trkpt lat="46.19355" lon="6.83815">
        <ele>1916</ele>
        <time>2010-01-02T08:29:47Z</time>
      </trkpt>
      <trkpt lat="46.19349" lon="6.83779">
        <ele>1914</ele>
        <time>2010-01-02T08:29:57Z</time>
      </trkpt>
      <trkpt lat="46.1937" lon="6.83732">
        <ele>1911</ele>
        <time>2010-01-02T08:30:13Z</time>
      </trkpt>
      <trkpt lat="46.19384" lon="6.83705">
        <ele>1912</ele>
        <time>2010-01-02T08:30:22Z</time>
      </trkpt>
      <trkpt lat="46.19384" lon="6.83685">
        <ele>1912</ele>
        <time>2010-01-02T08:30:28Z</time>
      </trkpt>
      <trkpt lat="46.19376" lon="6.83675">
        <ele>1910</ele>
        <time>2010-01-02T08:30:32Z</time>
      </trkpt>
      <trkpt lat="46.19352" lon="6.83694">
        <ele>1907</ele>
        <time>2010-01-02T08:30:43Z</time>
      </trkpt>
      <trkpt lat="46.19326" lon="6.83716">
        <ele>1892</ele>
        <time>2010-01-02T08:30:55Z</time>
      </trkpt>
      <trkpt lat="46.19297" lon="6.83733">
        <ele>1889</ele>
        <time>2010-01-02T08:31:07Z</time>
      </trkpt>
      <trkpt lat="46.19293" lon="6.83746">
        <ele>1889</ele>
        <time>2010-01-02T08:31:12Z</time>
      </trkpt>
      <trkpt lat="46.19292" lon="6.83749">
        <ele>1889</ele>
        <time>2010-01-02T08:31:12Z</time>
      </trkpt>
      <trkpt lat="46.19285" lon="6.83779">
        <ele>1891</ele>
        <time>2010-01-02T08:31:21Z</time>
      </trkpt>
      <trkpt lat="46.19284" lon="6.83783">
        <ele>1891</ele>
        <time>2010-01-02T08:31:22Z</time>
      </trkpt>
      <trkpt lat="46.1928" lon="6.83811">
        <ele>1890</ele>
        <time>2010-01-02T08:31:30Z</time>
      </trkpt>
      <trkpt lat="46.19264" lon="6.83828">
        <ele>1885</ele>
        <time>2010-01-02T08:31:38Z</time>
      </trkpt>
      <trkpt lat="46.19246" lon="6.83825">
        <ele>1874</ele>
        <time>2010-01-02T08:31:46Z</time>
      </trkpt>
      <trkpt lat="46.19246" lon="6.83824">
        <ele>1873</ele>
        <time>2010-01-02T08:31:46Z</time>
      </trkpt>
      <trkpt lat="46.19224" lon="6.83803">
        <ele>1866</ele>
        <time>2010-01-02T08:31:56Z</time>
      </trkpt>
      <trkpt lat="46.19222" lon="6.83776">
        <ele>1865</ele>
        <time>2010-01-02T08:32:04Z</time>
      </trkpt>
      <trkpt lat="46.19223" lon="6.83706">
        <ele>1862</ele>
        <time>2010-01-02T08:32:23Z</time>
      </trkpt>
      <trkpt lat="46.19229" lon="6.836">
        <ele>1857</ele>
        <time>2010-01-02T08:32:53Z</time>
      </trkpt>
      <trkpt lat="46.19233" lon="6.83568">
        <ele>1854</ele>
        <time>2010-01-02T08:33:02Z</time>
      </trkpt>
      <trkpt lat="46.19229" lon="6.83555">
        <ele>1852</ele>
        <time>2010-01-02T08:33:06Z</time>
      </trkpt>
      <trkpt lat="46.1921" lon="6.83563">
        <ele>1850</ele>
        <time>2010-01-02T08:33:13Z</time>
      </trkpt>
      <trkpt lat="46.19193" lon="6.83564">
        <ele>1848</ele>
        <time>2010-01-02T08:33:20Z</time>
      </trkpt>
      <trkpt lat="46.19173" lon="6.83566">
        <ele>1846</ele>
        <time>2010-01-02T08:33:28Z</time>
      </trkpt>
      <trkpt lat="46.19148" lon="6.83565">
        <ele>1839</ele>
        <time>2010-01-02T08:33:38Z</time>
      </trkpt>
      <trkpt lat="46.19124" lon="6.83563">
        <ele>1837</ele>
        <time>2010-01-02T08:33:48Z</time>
      </trkpt>
      <trkpt lat="46.19108" lon="6.83573">
        <ele>1835</ele>
        <time>2010-01-02T08:33:55Z</time>
      </trkpt>
      <trkpt lat="46.19086" lon="6.8361">
        <ele>1831</ele>
        <time>2010-01-02T08:34:09Z</time>
      </trkpt>
      <trkpt lat="46.19064" lon="6.83645">
        <ele>1818</ele>
        <time>2010-01-02T08:34:22Z</time>
      </trkpt>
      <trkpt lat="46.19049" lon="6.8366">
        <ele>1816</ele>
        <time>2010-01-02T08:34:29Z</time>
      </trkpt>
      <trkpt lat="46.19033" lon="6.83643">
        <ele>1815</ele>
        <time>2010-01-02T08:34:37Z</time>
      </trkpt>
      <trkpt lat="46.19015" lon="6.83621">
        <ele>1815</ele>
        <time>2010-01-02T08:34:47Z</time>
      </trkpt>
      <trkpt lat="46.18998" lon="6.83611">
        <ele>1804</ele>
        <time>2010-01-02T08:34:54Z</time>
      </trkpt>
      <trkpt lat="46.18978" lon="6.83599">
        <ele>1803</ele>
        <time>2010-01-02T08:35:03Z</time>
      </trkpt>
      <trkpt lat="46.18976" lon="6.83596">
        <ele>1803</ele>
        <time>2010-01-02T08:35:04Z</time>
      </trkpt>
      <trkpt lat="46.18967" lon="6.83528">
        <ele>1811</ele>
        <time>2010-01-02T08:35:23Z</time>
      </trkpt>
      <trkpt lat="46.18959" lon="6.83492">
        <ele>1819</ele>
        <time>2010-01-02T08:35:33Z</time>
      </trkpt>
      <trkpt lat="46.18945" lon="6.83466">
        <ele>1818</ele>
        <time>2010-01-02T08:35:42Z</time>
      </trkpt>
      <trkpt lat="46.18924" lon="6.8345">
        <ele>1818</ele>
        <time>2010-01-02T08:35:52Z</time>
      </trkpt>
      <trkpt lat="46.18908" lon="6.83434">
        <ele>1806</ele>
        <time>2010-01-02T08:36:00Z</time>
      </trkpt>
      <trkpt lat="46.18891" lon="6.83415">
        <ele>1813</ele>
        <time>2010-01-02T08:36:08Z</time>
      </trkpt>
      <trkpt lat="46.18864" lon="6.83391">
        <ele>1808</ele>
        <time>2010-01-02T08:36:21Z</time>
      </trkpt>
      <trkpt lat="46.18855" lon="6.83375">
        <ele>1808</ele>
        <time>2010-01-02T08:36:27Z</time>
      </trkpt>
      <trkpt lat="46.18841" lon="6.83329">
        <ele>1810</ele>
        <time>2010-01-02T08:36:41Z</time>
      </trkpt>
      <trkpt lat="46.18817" lon="6.83247">
        <ele>1813</ele>
        <time>2010-01-02T08:37:05Z</time>
      </trkpt>
      <trkpt lat="46.18794" lon="6.83227">
        <ele>1809</ele>
        <time>2010-01-02T08:37:16Z</time>
      </trkpt>
      <trkpt lat="46.18774" lon="6.83216">
        <ele>1807</ele>
        <time>2010-01-02T08:37:24Z</time>
      </trkpt>
      <trkpt lat="46.1876" lon="6.83163">
        <ele>1812</ele>
        <time>2010-01-02T08:37:40Z</time>
      </trkpt>
      <trkpt lat="46.18758" lon="6.8316">
        <ele>1811</ele>
        <time>2010-01-02T08:37:41Z</time>
      </trkpt>
      <trkpt lat="46.18741" lon="6.83138">
        <ele>1800</ele>
        <time>2010-01-02T08:37:51Z</time>
      </trkpt>
      <trkpt lat="46.18733" lon="6.83092">
        <ele>1805</ele>
        <time>2010-01-02T08:38:04Z</time>
      </trkpt>
      <trkpt lat="46.18731" lon="6.8304">
        <ele>1810</ele>
        <time>2010-01-02T08:38:18Z</time>
      </trkpt>
      <trkpt lat="46.18731" lon="6.83021">
        <ele>1813</ele>
        <time>2010-01-02T08:38:23Z</time>
      </trkpt>
      <trkpt lat="46.1872" lon="6.82993">
        <ele>1817</ele>
        <time>2010-01-02T08:38:32Z</time>
      </trkpt>
      <trkpt lat="46.18712" lon="6.82927">
        <ele>1818</ele>
        <time>2010-01-02T08:38:51Z</time>
      </trkpt>
      <trkpt lat="46.18714" lon="6.82875">
        <ele>1823</ele>
        <time>2010-01-02T08:39:05Z</time>
      </trkpt>
      <trkpt lat="46.18711" lon="6.8282">
        <ele>1825</ele>
        <time>2010-01-02T08:39:21Z</time>
      </trkpt>
      <trkpt lat="46.1871" lon="6.82748">
        <ele>1830</ele>
        <time>2010-01-02T08:39:40Z</time>
      </trkpt>
      <trkpt lat="46.18708" lon="6.82685">
        <ele>1832</ele>
        <time>2010-01-02T08:39:58Z</time>
      </trkpt>
      <trkpt lat="46.18703" lon="6.82641">
        <ele>1839</ele>
        <time>2010-01-02T08:40:10Z</time>
      </trkpt>
      <trkpt lat="46.18692" lon="6.8261">
        <ele>1840</ele>
        <time>2010-01-02T08:40:20Z</time>
      </trkpt>
      <trkpt lat="46.18669" lon="6.82592">
        <ele>1835</ele>
        <time>2010-01-02T08:40:31Z</time>
      </trkpt>
      <trkpt lat="46.18638" lon="6.8256">
        <ele>1838</ele>
        <time>2010-01-02T08:40:46Z</time>
      </trkpt>
      <trkpt lat="46.18595" lon="6.82538">
        <ele>1839</ele>
        <time>2010-01-02T08:41:04Z</time>
      </trkpt>
      <trkpt lat="46.18498" lon="6.82496">
        <ele>1836</ele>
        <time>2010-01-02T08:41:44Z</time>
      </trkpt>
      <trkpt lat="46.18472" lon="6.82469">
        <ele>1843</ele>
        <time>2010-01-02T08:41:57Z</time>
      </trkpt>
      <trkpt lat="46.18458" lon="6.82446">
        <ele>1845</ele>
        <time>2010-01-02T08:42:06Z</time>
      </trkpt>
      <trkpt lat="46.18449" lon="6.82424">
        <ele>1846</ele>
        <time>2010-01-02T08:42:13Z</time>
      </trkpt>
      <trkpt lat="46.18434" lon="6.82421">
        <ele>1846</ele>
        <time>2010-01-02T08:42:19Z</time>
      </trkpt>
      <trkpt lat="46.18424" lon="6.82438">
        <ele>1844</ele>
        <time>2010-01-02T08:42:25Z</time>
      </trkpt>
      <trkpt lat="46.18415" lon="6.8247">
        <ele>1836</ele>
        <time>2010-01-02T08:42:34Z</time>
      </trkpt>
      <trkpt lat="46.18395" lon="6.82472">
        <ele>1836</ele>
        <time>2010-01-02T08:42:42Z</time>
      </trkpt>
      <trkpt lat="46.1839" lon="6.8247">
        <ele>1837</ele>
        <time>2010-01-02T08:42:45Z</time>
      </trkpt>
      <trkpt lat="46.18404" lon="6.82473">
        <ele>1836</ele>
        <time>2010-01-02T08:42:50Z</time>
      </trkpt>
      <trkpt lat="46.18376" lon="6.82468">
        <ele>1837</ele>
        <time>2010-01-02T08:43:02Z</time>
      </trkpt>
      <trkpt lat="46.18361" lon="6.82451">
        <ele>1839</ele>
        <time>2010-01-02T08:43:10Z</time>
      </trkpt>
      <trkpt lat="46.18337" lon="6.82426">
        <ele>1842</ele>
        <time>2010-01-02T08:43:21Z</time>
      </trkpt>
      <trkpt lat="46.18309" lon="6.82405">
        <ele>1846</ele>
        <time>2010-01-02T08:43:34Z</time>
      </trkpt>
      <trkpt lat="46.18268" lon="6.82379">
        <ele>1847</ele>
        <time>2010-01-02T08:43:52Z</time>
      </trkpt>
      <trkpt lat="46.18245" lon="6.82373">
        <ele>1846</ele>
        <time>2010-01-02T08:44:01Z</time>
      </trkpt>
      <trkpt lat="46.18228" lon="6.82344">
        <ele>1848</ele>
        <time>2010-01-02T08:44:12Z</time>
      </trkpt>
      <trkpt lat="46.18218" lon="6.82326">
        <ele>1857</ele>
        <time>2010-01-02T08:44:18Z</time>
      </trkpt>
      <trkpt lat="46.18204" lon="6.8232">
        <ele>1857</ele>
        <time>2010-01-02T08:44:24Z</time>
      </trkpt>
      <trkpt lat="46.18187" lon="6.8234">
        <ele>1848</ele>
        <time>2010-01-02T08:44:32Z</time>
      </trkpt>
      <trkpt lat="46.1818" lon="6.82359">
        <ele>1846</ele>
        <time>2010-01-02T08:44:38Z</time>
      </trkpt>
      <trkpt lat="46.18166" lon="6.82371">
        <ele>1845</ele>
        <time>2010-01-02T08:44:45Z</time>
      </trkpt>
      <trkpt lat="46.18153" lon="6.82395">
        <ele>1841</ele>
        <time>2010-01-02T08:44:53Z</time>
      </trkpt>
      <trkpt lat="46.18147" lon="6.82417">
        <ele>1833</ele>
        <time>2010-01-02T08:45:00Z</time>
      </trkpt>
      <trkpt lat="46.18128" lon="6.82431">
        <ele>1832</ele>
        <time>2010-01-02T08:45:08Z</time>
      </trkpt>
      <trkpt lat="46.1811" lon="6.82432">
        <ele>1832</ele>
        <time>2010-01-02T08:45:15Z</time>
      </trkpt>
      <trkpt lat="46.1809" lon="6.82437">
        <ele>1833</ele>
        <time>2010-01-02T08:45:24Z</time>
      </trkpt>
      <trkpt lat="46.18065" lon="6.8245">
        <ele>1834</ele>
        <time>2010-01-02T08:45:34Z</time>
      </trkpt>
      <trkpt lat="46.18041" lon="6.8245">
        <ele>1835</ele>
        <time>2010-01-02T08:45:44Z</time>
      </trkpt>
      <trkpt lat="46.18006" lon="6.82475">
        <ele>1833</ele>
        <time>2010-01-02T08:46:00Z</time>
      </trkpt>
      <trkpt lat="46.17979" lon="6.82492">
        <ele>1835</ele>
        <time>2010-01-02T08:46:11Z</time>
      </trkpt>
      <trkpt lat="46.17966" lon="6.82504">
        <ele>1832</ele>
        <time>2010-01-02T08:46:18Z</time>
      </trkpt>
      <trkpt lat="46.17961" lon="6.8253">
        <ele>1831</ele>
        <time>2010-01-02T08:46:25Z</time>
      </trkpt>
      <trkpt lat="46.1795" lon="6.82548">
        <ele>1831</ele>
        <time>2010-01-02T08:46:32Z</time>
      </trkpt>
      <trkpt lat="46.1793" lon="6.82563">
        <ele>1831</ele>
        <time>2010-01-02T08:46:41Z</time>
      </trkpt>
      <trkpt lat="46.17919" lon="6.82558">
        <ele>1831</ele>
        <time>2010-01-02T08:46:45Z</time>
      </trkpt>
      <trkpt lat="46.17911" lon="6.82543">
        <ele>1826</ele>
        <time>2010-01-02T08:46:50Z</time>
      </trkpt>
      <trkpt lat="46.17899" lon="6.82528">
        <ele>1826</ele>
        <time>2010-01-02T08:46:57Z</time>
      </trkpt>
      <trkpt lat="46.17893" lon="6.82507">
        <ele>1826</ele>
        <time>2010-01-02T08:47:03Z</time>
      </trkpt>
      <trkpt lat="46.17893" lon="6.8247">
        <ele>1829</ele>
        <time>2010-01-02T08:47:13Z</time>
      </trkpt>
      <trkpt lat="46.17882" lon="6.82414">
        <ele>1834</ele>
        <time>2010-01-02T08:47:29Z</time>
      </trkpt>
      <trkpt lat="46.1788" lon="6.82392">
        <ele>1834</ele>
        <time>2010-01-02T08:47:36Z</time>
      </trkpt>
      <trkpt lat="46.17877" lon="6.82373">
        <ele>1835</ele>
        <time>2010-01-02T08:47:41Z</time>
      </trkpt>
      <trkpt lat="46.1788" lon="6.82343">
        <ele>1837</ele>
        <time>2010-01-02T08:47:49Z</time>
      </trkpt>
      <trkpt lat="46.17878" lon="6.82311">
        <ele>1845</ele>
        <time>2010-01-02T08:47:58Z</time>
      </trkpt>
      <trkpt lat="46.17864" lon="6.82252">
        <ele>1845</ele>
        <time>2010-01-02T08:48:16Z</time>
      </trkpt>
      <trkpt lat="46.17851" lon="6.82188">
        <ele>1854</ele>
        <time>2010-01-02T08:48:34Z</time>
      </trkpt>
      <trkpt lat="46.17837" lon="6.82153">
        <ele>1855</ele>
        <time>2010-01-02T08:48:45Z</time>
      </trkpt>
      <trkpt lat="46.17828" lon="6.82124">
        <ele>1841</ele>
        <time>2010-01-02T08:48:54Z</time>
      </trkpt>
      <trkpt lat="46.17813" lon="6.82088">
        <ele>1844</ele>
        <time>2010-01-02T08:49:06Z</time>
      </trkpt>
      <trkpt lat="46.17799" lon="6.82067">
        <ele>1845</ele>
        <time>2010-01-02T08:49:14Z</time>
      </trkpt>
      <trkpt lat="46.17795" lon="6.82053">
        <ele>1844</ele>
        <time>2010-01-02T08:49:18Z</time>
      </trkpt>
      <trkpt lat="46.17795" lon="6.82043">
        <ele>1844</ele>
        <time>2010-01-02T08:49:21Z</time>
      </trkpt>
      <trkpt lat="46.17797" lon="6.82029">
        <ele>1845</ele>
        <time>2010-01-02T08:49:25Z</time>
      </trkpt>
      <trkpt lat="46.17796" lon="6.82006">
        <ele>1846</ele>
        <time>2010-01-02T08:49:31Z</time>
      </trkpt>
      <trkpt lat="46.17794" lon="6.81989">
        <ele>1849</ele>
        <time>2010-01-02T08:49:36Z</time>
      </trkpt>
      <trkpt lat="46.17784" lon="6.81953">
        <ele>1847</ele>
        <time>2010-01-02T08:49:47Z</time>
      </trkpt>
      <trkpt lat="46.1778" lon="6.81927">
        <ele>1846</ele>
        <time>2010-01-02T08:49:54Z</time>
      </trkpt>
      <trkpt lat="46.17785" lon="6.81892">
        <ele>1851</ele>
        <time>2010-01-02T08:50:04Z</time>
      </trkpt>
      <trkpt lat="46.17786" lon="6.81871">
        <ele>1852</ele>
        <time>2010-01-02T08:50:10Z</time>
      </trkpt>
      <trkpt lat="46.17778" lon="6.81843">
        <ele>1849</ele>
        <time>2010-01-02T08:50:18Z</time>
      </trkpt>
      <trkpt lat="46.17777" lon="6.81827">
        <ele>1853</ele>
        <time>2010-01-02T08:50:22Z</time>
      </trkpt>
      <trkpt lat="46.17785" lon="6.81799">
        <ele>1858</ele>
        <time>2010-01-02T08:50:31Z</time>
      </trkpt>
      <trkpt lat="46.17788" lon="6.81785">
        <ele>1860</ele>
        <time>2010-01-02T08:50:35Z</time>
      </trkpt>
      <trkpt lat="46.17779" lon="6.81758">
        <ele>1857</ele>
        <time>2010-01-02T08:50:43Z</time>
      </trkpt>
      <trkpt lat="46.17765" lon="6.81729">
        <ele>1859</ele>
        <time>2010-01-02T08:50:53Z</time>
      </trkpt>
      <trkpt lat="46.17746" lon="6.81699">
        <ele>1840</ele>
        <time>2010-01-02T08:51:04Z</time>
      </trkpt>
      <trkpt lat="46.17732" lon="6.81674">
        <ele>1842</ele>
        <time>2010-01-02T08:51:13Z</time>
      </trkpt>
      <trkpt lat="46.17728" lon="6.81646">
        <ele>1843</ele>
        <time>2010-01-02T08:51:21Z</time>
      </trkpt>
      <trkpt lat="46.17735" lon="6.81601">
        <ele>1844</ele>
        <time>2010-01-02T08:51:34Z</time>
      </trkpt>
      <trkpt lat="46.17741" lon="6.81569">
        <ele>1845</ele>
        <time>2010-01-02T08:51:43Z</time>
      </trkpt>
      <trkpt lat="46.17748" lon="6.81513">
        <ele>1845</ele>
        <time>2010-01-02T08:51:59Z</time>
      </trkpt>
      <trkpt lat="46.17751" lon="6.81477">
        <ele>1859</ele>
        <time>2010-01-02T08:52:09Z</time>
      </trkpt>
      <trkpt lat="46.17754" lon="6.81457">
        <ele>1862</ele>
        <time>2010-01-02T08:52:15Z</time>
      </trkpt>
      <trkpt lat="46.17744" lon="6.81434">
        <ele>1848</ele>
        <time>2010-01-02T08:52:22Z</time>
      </trkpt>
      <trkpt lat="46.17733" lon="6.81411">
        <ele>1854</ele>
        <time>2010-01-02T08:52:30Z</time>
      </trkpt>
      <trkpt lat="46.1771" lon="6.81396">
        <ele>1852</ele>
        <time>2010-01-02T08:52:40Z</time>
      </trkpt>
      <trkpt lat="46.17668" lon="6.81371">
        <ele>1850</ele>
        <time>2010-01-02T08:52:58Z</time>
      </trkpt>
      <trkpt lat="46.17635" lon="6.81347">
        <ele>1846</ele>
        <time>2010-01-02T08:53:13Z</time>
      </trkpt>
      <trkpt lat="46.17617" lon="6.81322">
        <ele>1856</ele>
        <time>2010-01-02T08:53:23Z</time>
      </trkpt>
      <trkpt lat="46.17599" lon="6.81315">
        <ele>1855</ele>
        <time>2010-01-02T08:53:30Z</time>
      </trkpt>
      <trkpt lat="46.17576" lon="6.81304">
        <ele>1853</ele>
        <time>2010-01-02T08:53:40Z</time>
      </trkpt>
      <trkpt lat="46.17553" lon="6.81294">
        <ele>1854</ele>
        <time>2010-01-02T08:53:50Z</time>
      </trkpt>
      <trkpt lat="46.17527" lon="6.81293">
        <ele>1853</ele>
        <time>2010-01-02T08:54:00Z</time>
      </trkpt>
      <trkpt lat="46.17504" lon="6.81307">
        <ele>1851</ele>
        <time>2010-01-02T08:54:10Z</time>
      </trkpt>
      <trkpt lat="46.17484" lon="6.81323">
        <ele>1848</ele>
        <time>2010-01-02T08:54:19Z</time>
      </trkpt>
      <trkpt lat="46.1747" lon="6.81348">
        <ele>1842</ele>
        <time>2010-01-02T08:54:28Z</time>
      </trkpt>
      <trkpt lat="46.1745" lon="6.81377">
        <ele>1840</ele>
        <time>2010-01-02T08:54:40Z</time>
      </trkpt>
      <trkpt lat="46.17434" lon="6.81403">
        <ele>1839</ele>
        <time>2010-01-02T08:54:49Z</time>
      </trkpt>
      <trkpt lat="46.17419" lon="6.8143">
        <ele>1834</ele>
        <time>2010-01-02T08:54:59Z</time>
      </trkpt>
      <trkpt lat="46.17402" lon="6.81467">
        <ele>1832</ele>
        <time>2010-01-02T08:55:11Z</time>
      </trkpt>
      <trkpt lat="46.17382" lon="6.81485">
        <ele>1832</ele>
        <time>2010-01-02T08:55:20Z</time>
      </trkpt>
      <trkpt lat="46.17348" lon="6.81511">
        <ele>1828</ele>
        <time>2010-01-02T08:55:36Z</time>
      </trkpt>
      <trkpt lat="46.17327" lon="6.8154">
        <ele>1828</ele>
        <time>2010-01-02T08:55:47Z</time>
      </trkpt>
      <trkpt lat="46.17319" lon="6.81566">
        <ele>1826</ele>
        <time>2010-01-02T08:55:55Z</time>
      </trkpt>
      <trkpt lat="46.17311" lon="6.81589">
        <ele>1820</ele>
        <time>2010-01-02T08:56:02Z</time>
      </trkpt>
      <trkpt lat="46.17295" lon="6.81597">
        <ele>1819</ele>
        <time>2010-01-02T08:56:09Z</time>
      </trkpt>
      <trkpt lat="46.17279" lon="6.81586">
        <ele>1820</ele>
        <time>2010-01-02T08:56:16Z</time>
      </trkpt>
      <trkpt lat="46.17256" lon="6.81585">
        <ele>1824</ele>
        <time>2010-01-02T08:56:26Z</time>
      </trkpt>
      <trkpt lat="46.1723" lon="6.81592">
        <ele>1823</ele>
        <time>2010-01-02T08:56:36Z</time>
      </trkpt>
      <trkpt lat="46.17207" lon="6.81584">
        <ele>1824</ele>
        <time>2010-01-02T08:56:46Z</time>
      </trkpt>
      <trkpt lat="46.17178" lon="6.81576">
        <ele>1830</ele>
        <time>2010-01-02T08:56:58Z</time>
      </trkpt>
      <trkpt lat="46.17162" lon="6.81584">
        <ele>1828</ele>
        <time>2010-01-02T08:57:04Z</time>
      </trkpt>
      <trkpt lat="46.1716" lon="6.81618">
        <ele>1825</ele>
        <time>2010-01-02T08:57:14Z</time>
      </trkpt>
      <trkpt lat="46.17147" lon="6.81636">
        <ele>1824</ele>
        <time>2010-01-02T08:57:21Z</time>
      </trkpt>
      <trkpt lat="46.17134" lon="6.81645">
        <ele>1824</ele>
        <time>2010-01-02T08:57:27Z</time>
      </trkpt>
      <trkpt lat="46.17094" lon="6.81661">
        <ele>1823</ele>
        <time>2010-01-02T08:57:44Z</time>
      </trkpt>
      <trkpt lat="46.17058" lon="6.81675">
        <ele>1818</ele>
        <time>2010-01-02T08:57:58Z</time>
      </trkpt>
      <trkpt lat="46.17033" lon="6.81674">
        <ele>1817</ele>
        <time>2010-01-02T08:58:08Z</time>
      </trkpt>
      <trkpt lat="46.17016" lon="6.8167">
        <ele>1818</ele>
        <time>2010-01-02T08:58:15Z</time>
      </trkpt>
      <trkpt lat="46.17004" lon="6.8165">
        <ele>1823</ele>
        <time>2010-01-02T08:58:23Z</time>
      </trkpt>
      <trkpt lat="46.16981" lon="6.81617">
        <ele>1817</ele>
        <time>2010-01-02T08:58:35Z</time>
      </trkpt>
      <trkpt lat="46.16969" lon="6.81592">
        <ele>1817</ele>
        <time>2010-01-02T08:58:44Z</time>
      </trkpt>
      <trkpt lat="46.16963" lon="6.81566">
        <ele>1821</ele>
        <time>2010-01-02T08:58:52Z</time>
      </trkpt>
      <trkpt lat="46.16968" lon="6.81538">
        <ele>1822</ele>
        <time>2010-01-02T08:58:59Z</time>
      </trkpt>
      <trkpt lat="46.16966" lon="6.81518">
        <ele>1823</ele>
        <time>2010-01-02T08:59:05Z</time>
      </trkpt>
      <trkpt lat="46.16945" lon="6.81467">
        <ele>1828</ele>
        <time>2010-01-02T08:59:22Z</time>
      </trkpt>
      <trkpt lat="46.16913" lon="6.81417">
        <ele>1817</ele>
        <time>2010-01-02T08:59:41Z</time>
      </trkpt>
      <trkpt lat="46.16899" lon="6.81396">
        <ele>1816</ele>
        <time>2010-01-02T08:59:48Z</time>
      </trkpt>
      <trkpt lat="46.16888" lon="6.81372">
        <ele>1815</ele>
        <time>2010-01-02T08:59:56Z</time>
      </trkpt>
      <trkpt lat="46.16883" lon="6.81351">
        <ele>1816</ele>
        <time>2010-01-02T09:00:03Z</time>
      </trkpt>
      <trkpt lat="46.16872" lon="6.81336">
        <ele>1814</ele>
        <time>2010-01-02T09:00:09Z</time>
      </trkpt>
      <trkpt lat="46.16842" lon="6.8129">
        <ele>1819</ele>
        <time>2010-01-02T09:00:26Z</time>
      </trkpt>
      <trkpt lat="46.16826" lon="6.81252">
        <ele>1809</ele>
        <time>2010-01-02T09:00:38Z</time>
      </trkpt>
      <trkpt lat="46.16817" lon="6.81234">
        <ele>1811</ele>
        <time>2010-01-02T09:00:45Z</time>
      </trkpt>
      <trkpt lat="46.16801" lon="6.81232">
        <ele>1809</ele>
        <time>2010-01-02T09:00:51Z</time>
      </trkpt>
      <trkpt lat="46.16786" lon="6.81222">
        <ele>1807</ele>
        <time>2010-01-02T09:00:58Z</time>
      </trkpt>
      <trkpt lat="46.16775" lon="6.81202">
        <ele>1808</ele>
        <time>2010-01-02T09:01:05Z</time>
      </trkpt>
      <trkpt lat="46.16746" lon="6.81181">
        <ele>1796</ele>
        <time>2010-01-02T09:01:18Z</time>
      </trkpt>
      <trkpt lat="46.16725" lon="6.81164">
        <ele>1800</ele>
        <time>2010-01-02T09:01:27Z</time>
      </trkpt>
      <trkpt lat="46.1671" lon="6.81142">
        <ele>1798</ele>
        <time>2010-01-02T09:01:36Z</time>
      </trkpt>
      <trkpt lat="46.16704" lon="6.81125">
        <ele>1798</ele>
        <time>2010-01-02T09:01:41Z</time>
      </trkpt>
      <trkpt lat="46.1669" lon="6.81092">
        <ele>1797</ele>
        <time>2010-01-02T09:01:52Z</time>
      </trkpt>
      <trkpt lat="46.16677" lon="6.81074">
        <ele>1798</ele>
        <time>2010-01-02T09:01:59Z</time>
      </trkpt>
      <trkpt lat="46.16664" lon="6.81061">
        <ele>1788</ele>
        <time>2010-01-02T09:02:06Z</time>
      </trkpt>
      <trkpt lat="46.16653" lon="6.81057">
        <ele>1787</ele>
        <time>2010-01-02T09:02:10Z</time>
      </trkpt>
      <trkpt lat="46.16654" lon="6.81072">
        <ele>1788</ele>
        <time>2010-01-02T09:02:14Z</time>
      </trkpt>
      <trkpt lat="46.16666" lon="6.81079">
        <ele>1790</ele>
        <time>2010-01-02T09:02:19Z</time>
      </trkpt>
      <trkpt lat="46.16678" lon="6.81101">
        <ele>1795</ele>
        <time>2010-01-02T09:02:27Z</time>
      </trkpt>
      <trkpt lat="46.16684" lon="6.81136">
        <ele>1794</ele>
        <time>2010-01-02T09:02:37Z</time>
      </trkpt>
      <trkpt lat="46.1669" lon="6.81179">
        <ele>1785</ele>
        <time>2010-01-02T09:02:49Z</time>
      </trkpt>
      <trkpt lat="46.1669" lon="6.81206">
        <ele>1783</ele>
        <time>2010-01-02T09:02:57Z</time>
      </trkpt>
      <trkpt lat="46.16696" lon="6.81234">
        <ele>1781</ele>
        <time>2010-01-02T09:03:05Z</time>
      </trkpt>
      <trkpt lat="46.16703" lon="6.81255">
        <ele>1774</ele>
        <time>2010-01-02T09:03:11Z</time>
      </trkpt>
      <trkpt lat="46.1671" lon="6.81268">
        <ele>1775</ele>
        <time>2010-01-02T09:03:16Z</time>
      </trkpt>
      <trkpt lat="46.16705" lon="6.81288">
        <ele>1773</ele>
        <time>2010-01-02T09:03:22Z</time>
      </trkpt>
      <trkpt lat="46.16706" lon="6.81309">
        <ele>1772</ele>
        <time>2010-01-02T09:03:28Z</time>
      </trkpt>
      <trkpt lat="46.1672" lon="6.81332">
        <ele>1774</ele>
        <time>2010-01-02T09:03:36Z</time>
      </trkpt>
      <trkpt lat="46.16721" lon="6.81349">
        <ele>1770</ele>
        <time>2010-01-02T09:03:41Z</time>
      </trkpt>
      <trkpt lat="46.16711" lon="6.8138">
        <ele>1768</ele>
        <time>2010-01-02T09:03:50Z</time>
      </trkpt>
      <trkpt lat="46.1671" lon="6.81417">
        <ele>1766</ele>
        <time>2010-01-02T09:04:00Z</time>
      </trkpt>
      <trkpt lat="46.16713" lon="6.81443">
        <ele>1766</ele>
        <time>2010-01-02T09:04:08Z</time>
      </trkpt>
      <trkpt lat="46.16709" lon="6.81464">
        <ele>1764</ele>
        <time>2010-01-02T09:04:14Z</time>
      </trkpt>
      <trkpt lat="46.16708" lon="6.81488">
        <ele>1764</ele>
        <time>2010-01-02T09:04:21Z</time>
      </trkpt>
      <trkpt lat="46.16705" lon="6.81504">
        <ele>1760</ele>
        <time>2010-01-02T09:04:25Z</time>
      </trkpt>
      <trkpt lat="46.16704" lon="6.81523">
        <ele>1760</ele>
        <time>2010-01-02T09:04:30Z</time>
      </trkpt>
      <trkpt lat="46.16699" lon="6.81538">
        <ele>1759</ele>
        <time>2010-01-02T09:04:35Z</time>
      </trkpt>
      <trkpt lat="46.16688" lon="6.8158">
        <ele>1755</ele>
        <time>2010-01-02T09:04:47Z</time>
      </trkpt>
      <trkpt lat="46.16672" lon="6.81587">
        <ele>1750</ele>
        <time>2010-01-02T09:04:54Z</time>
      </trkpt>
      <trkpt lat="46.16658" lon="6.81594">
        <ele>1744</ele>
        <time>2010-01-02T09:05:00Z</time>
      </trkpt>
      <trkpt lat="46.16638" lon="6.81589">
        <ele>1741</ele>
        <time>2010-01-02T09:05:08Z</time>
      </trkpt>
      <trkpt lat="46.16629" lon="6.8158">
        <ele>1743</ele>
        <time>2010-01-02T09:05:13Z</time>
      </trkpt>
      <trkpt lat="46.16621" lon="6.81567">
        <ele>1742</ele>
        <time>2010-01-02T09:05:17Z</time>
      </trkpt>
      <trkpt lat="46.16622" lon="6.81553">
        <ele>1743</ele>
        <time>2010-01-02T09:05:21Z</time>
      </trkpt>
      <trkpt lat="46.16627" lon="6.81549">
        <ele>1744</ele>
        <time>2010-01-02T09:05:24Z</time>
      </trkpt>
      <trkpt lat="46.16628" lon="6.81548">
        <ele>1744</ele>
        <time>2010-01-02T09:05:24Z</time>
      </trkpt>
      <trkpt lat="46.1663" lon="6.81546">
        <ele>1744</ele>
        <time>2010-01-02T09:05:25Z</time>
      </trkpt>
      <trkpt lat="46.16631" lon="6.81543">
        <ele>1744</ele>
        <time>2010-01-02T09:05:26Z</time>
      </trkpt>
      <trkpt lat="46.16631" lon="6.8154">
        <ele>1744</ele>
        <time>2010-01-02T09:05:27Z</time>
      </trkpt>
      <trkpt lat="46.16632" lon="6.81537">
        <ele>1744</ele>
        <time>2010-01-02T09:05:28Z</time>
      </trkpt>
      <trkpt lat="46.16631" lon="6.81534">
        <ele>1744</ele>
        <time>2010-01-02T09:05:28Z</time>
      </trkpt>
      <trkpt lat="46.16629" lon="6.81531">
        <ele>1744</ele>
        <time>2010-01-02T09:05:30Z</time>
      </trkpt>
      <trkpt lat="46.16628" lon="6.81529">
        <ele>1744</ele>
        <time>2010-01-02T09:05:30Z</time>
      </trkpt>
      <trkpt lat="46.16628" lon="6.81527">
        <ele>1744</ele>
        <time>2010-01-02T09:05:31Z</time>
      </trkpt>
      <trkpt lat="46.16617" lon="6.81518">
        <ele>1743</ele>
        <time>2010-01-02T09:05:36Z</time>
      </trkpt>
      <trkpt lat="46.16611" lon="6.81513">
        <ele>1742</ele>
        <time>2010-01-02T09:05:39Z</time>
      </trkpt>
      <trkpt lat="46.16609" lon="6.81511">
        <ele>1742</ele>
        <time>2010-01-02T09:05:40Z</time>
      </trkpt>
      <trkpt lat="46.16608" lon="6.81509">
        <ele>1742</ele>
        <time>2010-01-02T09:05:40Z</time>
      </trkpt>
      <trkpt lat="46.16607" lon="6.81506">
        <ele>1742</ele>
        <time>2010-01-02T09:05:41Z</time>
      </trkpt>
      <trkpt lat="46.16607" lon="6.81503">
        <ele>1742</ele>
        <time>2010-01-02T09:05:42Z</time>
      </trkpt>
      <trkpt lat="46.16607" lon="6.81501">
        <ele>1742</ele>
        <time>2010-01-02T09:05:43Z</time>
      </trkpt>
      <trkpt lat="46.16606" lon="6.81497">
        <ele>1743</ele>
        <time>2010-01-02T09:05:44Z</time>
      </trkpt>
      <trkpt lat="46.16605" lon="6.81494">
        <ele>1743</ele>
        <time>2010-01-02T09:05:45Z</time>
      </trkpt>
      <trkpt lat="46.16605" lon="6.81492">
        <ele>1743</ele>
        <time>2010-01-02T09:05:45Z</time>
      </trkpt>
      <trkpt lat="46.16604" lon="6.81489">
        <ele>1743</ele>
        <time>2010-01-02T09:05:46Z</time>
      </trkpt>
      <trkpt lat="46.16604" lon="6.81488">
        <ele>1743</ele>
        <time>2010-01-02T09:05:46Z</time>
      </trkpt>
      <trkpt lat="46.16604" lon="6.8148">
        <ele>1743</ele>
        <time>2010-01-02T09:05:49Z</time>
      </trkpt>
      <trkpt lat="46.16605" lon="6.81472">
        <ele>1744</ele>
        <time>2010-01-02T09:05:51Z</time>
      </trkpt>
      <trkpt lat="46.16609" lon="6.81464">
        <ele>1744</ele>
        <time>2010-01-02T09:05:53Z</time>
      </trkpt>
      <trkpt lat="46.16611" lon="6.81462">
        <ele>1744</ele>
        <time>2010-01-02T09:05:55Z</time>
      </trkpt>
      <trkpt lat="46.16613" lon="6.8146">
        <ele>1745</ele>
        <time>2010-01-02T09:05:56Z</time>
      </trkpt>
      <trkpt lat="46.16614" lon="6.81457">
        <ele>1745</ele>
        <time>2010-01-02T09:05:56Z</time>
      </trkpt>
      <trkpt lat="46.16615" lon="6.81455">
        <ele>1745</ele>
        <time>2010-01-02T09:05:57Z</time>
      </trkpt>
      <trkpt lat="46.16616" lon="6.81454">
        <ele>1745</ele>
        <time>2010-01-02T09:05:58Z</time>
      </trkpt>
      <trkpt lat="46.16616" lon="6.81451">
        <ele>1745</ele>
        <time>2010-01-02T09:05:58Z</time>
      </trkpt>
      <trkpt lat="46.16616" lon="6.8145">
        <ele>1745</ele>
        <time>2010-01-02T09:05:59Z</time>
      </trkpt>
      <trkpt lat="46.16615" lon="6.81445">
        <ele>1745</ele>
        <time>2010-01-02T09:06:00Z</time>
      </trkpt>
      <trkpt lat="46.166" lon="6.81441">
        <ele>1743</ele>
        <time>2010-01-02T09:06:06Z</time>
      </trkpt>
      <trkpt lat="46.16591" lon="6.81436">
        <ele>1742</ele>
        <time>2010-01-02T09:06:10Z</time>
      </trkpt>
      <trkpt lat="46.1659" lon="6.81417">
        <ele>1740</ele>
        <time>2010-01-02T09:06:15Z</time>
      </trkpt>
      <trkpt lat="46.16595" lon="6.81404">
        <ele>1741</ele>
        <time>2010-01-02T09:06:19Z</time>
      </trkpt>
      <trkpt lat="46.16601" lon="6.81382">
        <ele>1743</ele>
        <time>2010-01-02T09:06:26Z</time>
      </trkpt>
      <trkpt lat="46.16596" lon="6.81356">
        <ele>1741</ele>
        <time>2010-01-02T09:06:34Z</time>
      </trkpt>
      <trkpt lat="46.16596" lon="6.81336">
        <ele>1739</ele>
        <time>2010-01-02T09:06:39Z</time>
      </trkpt>
      <trkpt lat="46.166" lon="6.81324">
        <ele>1742</ele>
        <time>2010-01-02T09:06:43Z</time>
      </trkpt>
      <trkpt lat="46.16606" lon="6.81317">
        <ele>1744</ele>
        <time>2010-01-02T09:06:46Z</time>
      </trkpt>
      <trkpt lat="46.16608" lon="6.81308">
        <ele>1745</ele>
        <time>2010-01-02T09:06:49Z</time>
      </trkpt>
      <trkpt lat="46.16608" lon="6.81305">
        <ele>1746</ele>
        <time>2010-01-02T09:06:49Z</time>
      </trkpt>
      <trkpt lat="46.16607" lon="6.81302">
        <ele>1746</ele>
        <time>2010-01-02T09:06:50Z</time>
      </trkpt>
      <trkpt lat="46.16605" lon="6.81301">
        <ele>1746</ele>
        <time>2010-01-02T09:06:51Z</time>
      </trkpt>
      <trkpt lat="46.16603" lon="6.81299">
        <ele>1745</ele>
        <time>2010-01-02T09:06:52Z</time>
      </trkpt>
      <trkpt lat="46.166" lon="6.81298">
        <ele>1745</ele>
        <time>2010-01-02T09:06:54Z</time>
      </trkpt>
      <trkpt lat="46.16586" lon="6.81287">
        <ele>1745</ele>
        <time>2010-01-02T09:07:00Z</time>
      </trkpt>
      <trkpt lat="46.16571" lon="6.81268">
        <ele>1732</ele>
        <time>2010-01-02T09:07:08Z</time>
      </trkpt>
      <trkpt lat="46.16565" lon="6.81257">
        <ele>1733</ele>
        <time>2010-01-02T09:07:12Z</time>
      </trkpt>
      <trkpt lat="46.16563" lon="6.81255">
        <ele>1733</ele>
        <time>2010-01-02T09:07:13Z</time>
      </trkpt>
      <trkpt lat="46.16562" lon="6.81253">
        <ele>1732</ele>
        <time>2010-01-02T09:07:14Z</time>
      </trkpt>
      <trkpt lat="46.1656" lon="6.8125">
        <ele>1737</ele>
        <time>2010-01-02T09:07:15Z</time>
      </trkpt>
      <trkpt lat="46.16559" lon="6.81247">
        <ele>1737</ele>
        <time>2010-01-02T09:07:16Z</time>
      </trkpt>
      <trkpt lat="46.16559" lon="6.81244">
        <ele>1737</ele>
        <time>2010-01-02T09:07:16Z</time>
      </trkpt>
      <trkpt lat="46.1656" lon="6.8124">
        <ele>1737</ele>
        <time>2010-01-02T09:07:17Z</time>
      </trkpt>
      <trkpt lat="46.16559" lon="6.81237">
        <ele>1737</ele>
        <time>2010-01-02T09:07:18Z</time>
      </trkpt>
      <trkpt lat="46.16558" lon="6.81235">
        <ele>1737</ele>
        <time>2010-01-02T09:07:19Z</time>
      </trkpt>
      <trkpt lat="46.16557" lon="6.81234">
        <ele>1737</ele>
        <time>2010-01-02T09:07:19Z</time>
      </trkpt>
      <trkpt lat="46.16552" lon="6.81218">
        <ele>1737</ele>
        <time>2010-01-02T09:07:24Z</time>
      </trkpt>
      <trkpt lat="46.16532" lon="6.81206">
        <ele>1735</ele>
        <time>2010-01-02T09:07:33Z</time>
      </trkpt>
      <trkpt lat="46.16512" lon="6.81217">
        <ele>1732</ele>
        <time>2010-01-02T09:07:42Z</time>
      </trkpt>
      <trkpt lat="46.16487" lon="6.81205">
        <ele>1721</ele>
        <time>2010-01-02T09:07:52Z</time>
      </trkpt>
      <trkpt lat="46.1646" lon="6.81188">
        <ele>1719</ele>
        <time>2010-01-02T09:08:04Z</time>
      </trkpt>
      <trkpt lat="46.16435" lon="6.81164">
        <ele>1720</ele>
        <time>2010-01-02T09:08:16Z</time>
      </trkpt>
      <trkpt lat="46.16423" lon="6.81133">
        <ele>1722</ele>
        <time>2010-01-02T09:08:26Z</time>
      </trkpt>
      <trkpt lat="46.16421" lon="6.81111">
        <ele>1722</ele>
        <time>2010-01-02T09:08:32Z</time>
      </trkpt>
      <trkpt lat="46.16433" lon="6.81084">
        <ele>1721</ele>
        <time>2010-01-02T09:08:41Z</time>
      </trkpt>
      <trkpt lat="46.16433" lon="6.8107">
        <ele>1725</ele>
        <time>2010-01-02T09:08:44Z</time>
      </trkpt>
      <trkpt lat="46.16433" lon="6.8106">
        <ele>1726</ele>
        <time>2010-01-02T09:08:47Z</time>
      </trkpt>
      <trkpt lat="46.1643" lon="6.8103">
        <ele>1727</ele>
        <time>2010-01-02T09:08:56Z</time>
      </trkpt>
      <trkpt lat="46.16427" lon="6.81012">
        <ele>1723</ele>
        <time>2010-01-02T09:09:01Z</time>
      </trkpt>
      <trkpt lat="46.16422" lon="6.81002">
        <ele>1718</ele>
        <time>2010-01-02T09:09:04Z</time>
      </trkpt>
      <trkpt lat="46.1642" lon="6.81001">
        <ele>1717</ele>
        <time>2010-01-02T09:09:05Z</time>
      </trkpt>
      <trkpt lat="46.16418" lon="6.80998">
        <ele>1717</ele>
        <time>2010-01-02T09:09:06Z</time>
      </trkpt>
      <trkpt lat="46.16416" lon="6.80997">
        <ele>1713</ele>
        <time>2010-01-02T09:09:07Z</time>
      </trkpt>
      <trkpt lat="46.16415" lon="6.80995">
        <ele>1712</ele>
        <time>2010-01-02T09:09:08Z</time>
      </trkpt>
      <trkpt lat="46.16412" lon="6.8098">
        <ele>1707</ele>
        <time>2010-01-02T09:09:12Z</time>
      </trkpt>
      <trkpt lat="46.16409" lon="6.80948">
        <ele>1705</ele>
        <time>2010-01-02T09:09:21Z</time>
      </trkpt>
      <trkpt lat="46.16409" lon="6.80927">
        <ele>1709</ele>
        <time>2010-01-02T09:09:27Z</time>
      </trkpt>
      <trkpt lat="46.16395" lon="6.80892">
        <ele>1701</ele>
        <time>2010-01-02T09:09:38Z</time>
      </trkpt>
      <trkpt lat="46.16395" lon="6.80861">
        <ele>1700</ele>
        <time>2010-01-02T09:09:47Z</time>
      </trkpt>
      <trkpt lat="46.16394" lon="6.80827">
        <ele>1697</ele>
        <time>2010-01-02T09:09:56Z</time>
      </trkpt>
      <trkpt lat="46.16402" lon="6.80815">
        <ele>1697</ele>
        <time>2010-01-02T09:10:01Z</time>
      </trkpt>
      <trkpt lat="46.16417" lon="6.80801">
        <ele>1716</ele>
        <time>2010-01-02T09:10:08Z</time>
      </trkpt>
      <trkpt lat="46.16421" lon="6.80789">
        <ele>1716</ele>
        <time>2010-01-02T09:10:11Z</time>
      </trkpt>
      <trkpt lat="46.16408" lon="6.80768">
        <ele>1696</ele>
        <time>2010-01-02T09:10:19Z</time>
      </trkpt>
      <trkpt lat="46.16401" lon="6.80745">
        <ele>1694</ele>
        <time>2010-01-02T09:10:26Z</time>
      </trkpt>
      <trkpt lat="46.16401" lon="6.80721">
        <ele>1691</ele>
        <time>2010-01-02T09:10:33Z</time>
      </trkpt>
      <trkpt lat="46.16413" lon="6.807">
        <ele>1692</ele>
        <time>2010-01-02T09:10:40Z</time>
      </trkpt>
      <trkpt lat="46.16399" lon="6.80649">
        <ele>1689</ele>
        <time>2010-01-02T09:10:56Z</time>
      </trkpt>
      <trkpt lat="46.16402" lon="6.80619">
        <ele>1688</ele>
        <time>2010-01-02T09:11:04Z</time>
      </trkpt>
      <trkpt lat="46.16404" lon="6.8058">
        <ele>1692</ele>
        <time>2010-01-02T09:11:15Z</time>
      </trkpt>
      <trkpt lat="46.16391" lon="6.80553">
        <ele>1685</ele>
        <time>2010-01-02T09:11:24Z</time>
      </trkpt>
      <trkpt lat="46.16384" lon="6.80529">
        <ele>1684</ele>
        <time>2010-01-02T09:11:31Z</time>
      </trkpt>
      <trkpt lat="46.16375" lon="6.80499">
        <ele>1684</ele>
        <time>2010-01-02T09:11:40Z</time>
      </trkpt>
      <trkpt lat="46.16364" lon="6.80473">
        <ele>1682</ele>
        <time>2010-01-02T09:11:49Z</time>
      </trkpt>
      <trkpt lat="46.16356" lon="6.80423">
        <ele>1682</ele>
        <time>2010-01-02T09:12:03Z</time>
      </trkpt>
      <trkpt lat="46.16337" lon="6.80411">
        <ele>1680</ele>
        <time>2010-01-02T09:12:11Z</time>
      </trkpt>
      <trkpt lat="46.16325" lon="6.80377">
        <ele>1675</ele>
        <time>2010-01-02T09:12:22Z</time>
      </trkpt>
      <trkpt lat="46.16314" lon="6.80365">
        <ele>1676</ele>
        <time>2010-01-02T09:12:27Z</time>
      </trkpt>
      <trkpt lat="46.16296" lon="6.80351">
        <ele>1675</ele>
        <time>2010-01-02T09:12:35Z</time>
      </trkpt>
      <trkpt lat="46.16268" lon="6.80315">
        <ele>1682</ele>
        <time>2010-01-02T09:12:51Z</time>
      </trkpt>
      <trkpt lat="46.16244" lon="6.80272">
        <ele>1676</ele>
        <time>2010-01-02T09:13:06Z</time>
      </trkpt>
      <trkpt lat="46.16224" lon="6.80251">
        <ele>1675</ele>
        <time>2010-01-02T09:13:16Z</time>
      </trkpt>
      <trkpt lat="46.16202" lon="6.80239">
        <ele>1682</ele>
        <time>2010-01-02T09:13:25Z</time>
      </trkpt>
      <trkpt lat="46.16177" lon="6.80208">
        <ele>1684</ele>
        <time>2010-01-02T09:13:38Z</time>
      </trkpt>
      <trkpt lat="46.16159" lon="6.80197">
        <ele>1678</ele>
        <time>2010-01-02T09:13:46Z</time>
      </trkpt>
      <trkpt lat="46.16135" lon="6.80189">
        <ele>1679</ele>
        <time>2010-01-02T09:13:56Z</time>
      </trkpt>
      <trkpt lat="46.16099" lon="6.80189">
        <ele>1680</ele>
        <time>2010-01-02T09:14:11Z</time>
      </trkpt>
      <trkpt lat="46.16036" lon="6.80235">
        <ele>1674</ele>
        <time>2010-01-02T09:14:39Z</time>
      </trkpt>
      <trkpt lat="46.16023" lon="6.80252">
        <ele>1661</ele>
        <time>2010-01-02T09:14:46Z</time>
      </trkpt>
      <trkpt lat="46.16013" lon="6.80249">
        <ele>1673</ele>
        <time>2010-01-02T09:14:50Z</time>
      </trkpt>
      <trkpt lat="46.16001" lon="6.80245">
        <ele>1672</ele>
        <time>2010-01-02T09:14:55Z</time>
      </trkpt>
      <trkpt lat="46.15999" lon="6.80241">
        <ele>1671</ele>
        <time>2010-01-02T09:14:56Z</time>
      </trkpt>
      <trkpt lat="46.15997" lon="6.80238">
        <ele>1671</ele>
        <time>2010-01-02T09:14:57Z</time>
      </trkpt>
      <trkpt lat="46.15995" lon="6.80236">
        <ele>1671</ele>
        <time>2010-01-02T09:14:58Z</time>
      </trkpt>
      <trkpt lat="46.15994" lon="6.80235">
        <ele>1671</ele>
        <time>2010-01-02T09:14:59Z</time>
      </trkpt>
      <trkpt lat="46.15991" lon="6.80234">
        <ele>1671</ele>
        <time>2010-01-02T09:15:00Z</time>
      </trkpt>
      <trkpt lat="46.15991" lon="6.80234">
        <ele>1671</ele>
        <time>2010-01-02T09:15:00Z</time>
      </trkpt>
      <trkpt lat="46.15981" lon="6.80236">
        <ele>1670</ele>
        <time>2010-01-02T09:15:04Z</time>
      </trkpt>
      <trkpt lat="46.15955" lon="6.80227">
        <ele>1668</ele>
        <time>2010-01-02T09:15:15Z</time>
      </trkpt>
      <trkpt lat="46.15949" lon="6.80219">
        <ele>1668</ele>
        <time>2010-01-02T09:15:18Z</time>
      </trkpt>
      <trkpt lat="46.15943" lon="6.80215">
        <ele>1668</ele>
        <time>2010-01-02T09:15:21Z</time>
      </trkpt>
      <trkpt lat="46.15941" lon="6.80221">
        <ele>1667</ele>
        <time>2010-01-02T09:15:22Z</time>
      </trkpt>
      <trkpt lat="46.15939" lon="6.80219">
        <ele>1667</ele>
        <time>2010-01-02T09:15:23Z</time>
      </trkpt>
      <trkpt lat="46.15937" lon="6.80218">
        <ele>1667</ele>
        <time>2010-01-02T09:15:24Z</time>
      </trkpt>
      <trkpt lat="46.15935" lon="6.80215">
        <ele>1667</ele>
        <time>2010-01-02T09:15:25Z</time>
      </trkpt>
      <trkpt lat="46.15933" lon="6.80214">
        <ele>1667</ele>
        <time>2010-01-02T09:15:26Z</time>
      </trkpt>
      <trkpt lat="46.15919" lon="6.80218">
        <ele>1665</ele>
        <time>2010-01-02T09:15:32Z</time>
      </trkpt>
      <trkpt lat="46.159" lon="6.80218">
        <ele>1650</ele>
        <time>2010-01-02T09:15:40Z</time>
      </trkpt>
      <trkpt lat="46.15889" lon="6.802">
        <ele>1650</ele>
        <time>2010-01-02T09:15:46Z</time>
      </trkpt>
      <trkpt lat="46.15867" lon="6.80163">
        <ele>1656</ele>
        <time>2010-01-02T09:16:00Z</time>
      </trkpt>
      <trkpt lat="46.15847" lon="6.80133">
        <ele>1657</ele>
        <time>2010-01-02T09:16:11Z</time>
      </trkpt>
      <trkpt lat="46.15831" lon="6.80109">
        <ele>1649</ele>
        <time>2010-01-02T09:16:21Z</time>
      </trkpt>
      <trkpt lat="46.15816" lon="6.80097">
        <ele>1650</ele>
        <time>2010-01-02T09:16:27Z</time>
      </trkpt>
      <trkpt lat="46.1581" lon="6.80103">
        <ele>1648</ele>
        <time>2010-01-02T09:16:30Z</time>
      </trkpt>
      <trkpt lat="46.1582" lon="6.80143">
        <ele>1643</ele>
        <time>2010-01-02T09:16:42Z</time>
      </trkpt>
      <trkpt lat="46.15831" lon="6.80205">
        <ele>1631</ele>
        <time>2010-01-02T09:17:00Z</time>
      </trkpt>
      <trkpt lat="46.15835" lon="6.80275">
        <ele>1630</ele>
        <time>2010-01-02T09:17:19Z</time>
      </trkpt>
      <trkpt lat="46.1583" lon="6.80331">
        <ele>1613</ele>
        <time>2010-01-02T09:17:35Z</time>
      </trkpt>
      <trkpt lat="46.15841" lon="6.80366">
        <ele>1612</ele>
        <time>2010-01-02T09:17:46Z</time>
      </trkpt>
      <trkpt lat="46.15858" lon="6.80384">
        <ele>1611</ele>
        <time>2010-01-02T09:17:54Z</time>
      </trkpt>
      <trkpt lat="46.15893" lon="6.80437">
        <ele>1594</ele>
        <time>2010-01-02T09:18:15Z</time>
      </trkpt>
      <trkpt lat="46.15913" lon="6.80456">
        <ele>1591</ele>
        <time>2010-01-02T09:18:24Z</time>
      </trkpt>
      <trkpt lat="46.15928" lon="6.80485">
        <ele>1596</ele>
        <time>2010-01-02T09:18:34Z</time>
      </trkpt>
      <trkpt lat="46.15969" lon="6.8051">
        <ele>1584</ele>
        <time>2010-01-02T09:18:52Z</time>
      </trkpt>
      <trkpt lat="46.15973" lon="6.80518">
        <ele>1583</ele>
        <time>2010-01-02T09:18:55Z</time>
      </trkpt>
      <trkpt lat="46.15985" lon="6.80534">
        <ele>1580</ele>
        <time>2010-01-02T09:19:01Z</time>
      </trkpt>
      <trkpt lat="46.15972" lon="6.80534">
        <ele>1579</ele>
        <time>2010-01-02T09:19:06Z</time>
      </trkpt>
      <trkpt lat="46.15953" lon="6.80529">
        <ele>1578</ele>
        <time>2010-01-02T09:19:14Z</time>
      </trkpt>
      <trkpt lat="46.15943" lon="6.80539">
        <ele>1575</ele>
        <time>2010-01-02T09:19:19Z</time>
      </trkpt>
      <trkpt lat="46.15927" lon="6.80539">
        <ele>1574</ele>
        <time>2010-01-02T09:19:25Z</time>
      </trkpt>
      <trkpt lat="46.15905" lon="6.80523">
        <ele>1565</ele>
        <time>2010-01-02T09:19:35Z</time>
      </trkpt>
      <trkpt lat="46.15895" lon="6.80514">
        <ele>1564</ele>
        <time>2010-01-02T09:19:40Z</time>
      </trkpt>
      <trkpt lat="46.15893" lon="6.80513">
        <ele>1564</ele>
        <time>2010-01-02T09:19:41Z</time>
      </trkpt>
      <trkpt lat="46.15891" lon="6.80513">
        <ele>1563</ele>
        <time>2010-01-02T09:19:42Z</time>
      </trkpt>
      <trkpt lat="46.15888" lon="6.80512">
        <ele>1562</ele>
        <time>2010-01-02T09:19:43Z</time>
      </trkpt>
      <trkpt lat="46.15887" lon="6.80511">
        <ele>1562</ele>
        <time>2010-01-02T09:19:43Z</time>
      </trkpt>
      <trkpt lat="46.15886" lon="6.80509">
        <ele>1562</ele>
        <time>2010-01-02T09:19:44Z</time>
      </trkpt>
      <trkpt lat="46.15883" lon="6.80508">
        <ele>1561</ele>
        <time>2010-01-02T09:19:45Z</time>
      </trkpt>
      <trkpt lat="46.15881" lon="6.80506">
        <ele>1561</ele>
        <time>2010-01-02T09:19:46Z</time>
      </trkpt>
      <trkpt lat="46.15879" lon="6.80504">
        <ele>1560</ele>
        <time>2010-01-02T09:19:47Z</time>
      </trkpt>
      <trkpt lat="46.15877" lon="6.80502">
        <ele>1560</ele>
        <time>2010-01-02T09:19:48Z</time>
      </trkpt>
      <trkpt lat="46.15875" lon="6.80502">
        <ele>1559</ele>
        <time>2010-01-02T09:19:49Z</time>
      </trkpt>
      <trkpt lat="46.15874" lon="6.80501">
        <ele>1559</ele>
        <time>2010-01-02T09:19:49Z</time>
      </trkpt>
      <trkpt lat="46.15858" lon="6.80496">
        <ele>1573</ele>
        <time>2010-01-02T09:19:56Z</time>
      </trkpt>
      <trkpt lat="46.15848" lon="6.80494">
        <ele>1568</ele>
        <time>2010-01-02T09:20:00Z</time>
      </trkpt>
      <trkpt lat="46.15843" lon="6.8049">
        <ele>1566</ele>
        <time>2010-01-02T09:20:02Z</time>
      </trkpt>
      <trkpt lat="46.15842" lon="6.8049">
        <ele>1566</ele>
        <time>2010-01-02T09:20:03Z</time>
      </trkpt>
      <trkpt lat="46.15839" lon="6.80489">
        <ele>1565</ele>
        <time>2010-01-02T09:20:04Z</time>
      </trkpt>
      <trkpt lat="46.15837" lon="6.80488">
        <ele>1565</ele>
        <time>2010-01-02T09:20:05Z</time>
      </trkpt>
      <trkpt lat="46.15835" lon="6.80488">
        <ele>1565</ele>
        <time>2010-01-02T09:20:06Z</time>
      </trkpt>
      <trkpt lat="46.15831" lon="6.80489">
        <ele>1560</ele>
        <time>2010-01-02T09:20:07Z</time>
      </trkpt>
      <trkpt lat="46.15829" lon="6.80489">
        <ele>1561</ele>
        <time>2010-01-02T09:20:08Z</time>
      </trkpt>
      <trkpt lat="46.15828" lon="6.8049">
        <ele>1560</ele>
        <time>2010-01-02T09:20:08Z</time>
      </trkpt>
      <trkpt lat="46.15828" lon="6.80493">
        <ele>1559</ele>
        <time>2010-01-02T09:20:09Z</time>
      </trkpt>
      <trkpt lat="46.15829" lon="6.80495">
        <ele>1557</ele>
        <time>2010-01-02T09:20:10Z</time>
      </trkpt>
      <trkpt lat="46.15833" lon="6.80501">
        <ele>1552</ele>
        <time>2010-01-02T09:20:12Z</time>
      </trkpt>
      <trkpt lat="46.15841" lon="6.8051">
        <ele>1553</ele>
        <time>2010-01-02T09:20:16Z</time>
      </trkpt>
      <trkpt lat="46.15857" lon="6.80522">
        <ele>1554</ele>
        <time>2010-01-02T09:20:24Z</time>
      </trkpt>
      <trkpt lat="46.15865" lon="6.80539">
        <ele>1553</ele>
        <time>2010-01-02T09:20:29Z</time>
      </trkpt>
      <trkpt lat="46.15875" lon="6.8058">
        <ele>1549</ele>
        <time>2010-01-02T09:20:41Z</time>
      </trkpt>
      <trkpt lat="46.15893" lon="6.80629">
        <ele>1530</ele>
        <time>2010-01-02T09:20:57Z</time>
      </trkpt>
      <trkpt lat="46.159" lon="6.80648">
        <ele>1528</ele>
        <time>2010-01-02T09:21:03Z</time>
      </trkpt>
      <trkpt lat="46.15903" lon="6.80673">
        <ele>1517</ele>
        <time>2010-01-02T09:21:10Z</time>
      </trkpt>
      <trkpt lat="46.15919" lon="6.80697">
        <ele>1523</ele>
        <time>2010-01-02T09:21:19Z</time>
      </trkpt>
      <trkpt lat="46.15931" lon="6.80717">
        <ele>1521</ele>
        <time>2010-01-02T09:21:26Z</time>
      </trkpt>
      <trkpt lat="46.15948" lon="6.80727">
        <ele>1522</ele>
        <time>2010-01-02T09:21:33Z</time>
      </trkpt>
      <trkpt lat="46.15959" lon="6.8074">
        <ele>1524</ele>
        <time>2010-01-02T09:21:39Z</time>
      </trkpt>
      <trkpt lat="46.15958" lon="6.80926">
        <ele>1499</ele>
        <time>2010-01-02T09:22:31Z</time>
      </trkpt>
      <trkpt lat="46.15959" lon="6.80997">
        <ele>1497</ele>
        <time>2010-01-02T09:22:50Z</time>
      </trkpt>
      <trkpt lat="46.15967" lon="6.81052">
        <ele>1493</ele>
        <time>2010-01-02T09:23:06Z</time>
      </trkpt>
      <trkpt lat="46.1597" lon="6.81077">
        <ele>1493</ele>
        <time>2010-01-02T09:23:13Z</time>
      </trkpt>
      <trkpt lat="46.15972" lon="6.81082">
        <ele>1493</ele>
        <time>2010-01-02T09:23:15Z</time>
      </trkpt>
      <trkpt lat="46.15975" lon="6.81086">
        <ele>1488</ele>
        <time>2010-01-02T09:23:16Z</time>
      </trkpt>
      <trkpt lat="46.15976" lon="6.81089">
        <ele>1488</ele>
        <time>2010-01-02T09:23:17Z</time>
      </trkpt>
      <trkpt lat="46.15975" lon="6.81096">
        <ele>1487</ele>
        <time>2010-01-02T09:23:19Z</time>
      </trkpt>
      <trkpt lat="46.15975" lon="6.81097">
        <ele>1487</ele>
        <time>2010-01-02T09:23:19Z</time>
      </trkpt>
      <trkpt lat="46.15976" lon="6.81101">
        <ele>1487</ele>
        <time>2010-01-02T09:23:20Z</time>
      </trkpt>
      <trkpt lat="46.15976" lon="6.81107">
        <ele>1486</ele>
        <time>2010-01-02T09:23:22Z</time>
      </trkpt>
      <trkpt lat="46.15976" lon="6.81183">
        <ele>1475</ele>
        <time>2010-01-02T09:23:43Z</time>
      </trkpt>
      <trkpt lat="46.15983" lon="6.81251">
        <ele>1468</ele>
        <time>2010-01-02T09:24:02Z</time>
      </trkpt>
      <trkpt lat="46.15976" lon="6.81317">
        <ele>1461</ele>
        <time>2010-01-02T09:24:21Z</time>
      </trkpt>
      <trkpt lat="46.15969" lon="6.81391">
        <ele>1454</ele>
        <time>2010-01-02T09:24:42Z</time>
      </trkpt>
      <trkpt lat="46.15963" lon="6.81419">
        <ele>1449</ele>
        <time>2010-01-02T09:24:49Z</time>
      </trkpt>
      <trkpt lat="46.15963" lon="6.81432">
        <ele>1449</ele>
        <time>2010-01-02T09:24:53Z</time>
      </trkpt>
      <trkpt lat="46.15963" lon="6.81437">
        <ele>1449</ele>
        <time>2010-01-02T09:24:55Z</time>
      </trkpt>
      <trkpt lat="46.15963" lon="6.81444">
        <ele>1448</ele>
        <time>2010-01-02T09:24:56Z</time>
      </trkpt>
      <trkpt lat="46.15962" lon="6.81448">
        <ele>1448</ele>
        <time>2010-01-02T09:24:58Z</time>
      </trkpt>
      <trkpt lat="46.15962" lon="6.8145">
        <ele>1448</ele>
        <time>2010-01-02T09:24:58Z</time>
      </trkpt>
      <trkpt lat="46.15961" lon="6.81455">
        <ele>1448</ele>
        <time>2010-01-02T09:25:00Z</time>
      </trkpt>
      <trkpt lat="46.15958" lon="6.81459">
        <ele>1447</ele>
        <time>2010-01-02T09:25:01Z</time>
      </trkpt>
      <trkpt lat="46.15955" lon="6.81463">
        <ele>1447</ele>
        <time>2010-01-02T09:25:03Z</time>
      </trkpt>
      <trkpt lat="46.15955" lon="6.81466">
        <ele>1446</ele>
        <time>2010-01-02T09:25:04Z</time>
      </trkpt>
      <trkpt lat="46.15954" lon="6.81471">
        <ele>1446</ele>
        <time>2010-01-02T09:25:05Z</time>
      </trkpt>
      <trkpt lat="46.15953" lon="6.81474">
        <ele>1446</ele>
        <time>2010-01-02T09:25:06Z</time>
      </trkpt>
      <trkpt lat="46.15953" lon="6.81478">
        <ele>1446</ele>
        <time>2010-01-02T09:25:07Z</time>
      </trkpt>
      <trkpt lat="46.15954" lon="6.81482">
        <ele>1446</ele>
        <time>2010-01-02T09:25:08Z</time>
      </trkpt>
      <trkpt lat="46.15955" lon="6.81488">
        <ele>1446</ele>
        <time>2010-01-02T09:25:10Z</time>
      </trkpt>
      <trkpt lat="46.15956" lon="6.81494">
        <ele>1446</ele>
        <time>2010-01-02T09:25:12Z</time>
      </trkpt>
      <trkpt lat="46.15956" lon="6.81499">
        <ele>1445</ele>
        <time>2010-01-02T09:25:13Z</time>
      </trkpt>
      <trkpt lat="46.15957" lon="6.81504">
        <ele>1440</ele>
        <time>2010-01-02T09:25:15Z</time>
      </trkpt>
      <trkpt lat="46.15956" lon="6.81508">
        <ele>1439</ele>
        <time>2010-01-02T09:25:16Z</time>
      </trkpt>
      <trkpt lat="46.15956" lon="6.81512">
        <ele>1439</ele>
        <time>2010-01-02T09:25:17Z</time>
      </trkpt>
      <trkpt lat="46.15956" lon="6.81516">
        <ele>1439</ele>
        <time>2010-01-02T09:25:18Z</time>
      </trkpt>
      <trkpt lat="46.15955" lon="6.81522">
        <ele>1439</ele>
        <time>2010-01-02T09:25:19Z</time>
      </trkpt>
      <trkpt lat="46.15955" lon="6.81527">
        <ele>1438</ele>
        <time>2010-01-02T09:25:21Z</time>
      </trkpt>
      <trkpt lat="46.15954" lon="6.81532">
        <ele>1438</ele>
        <time>2010-01-02T09:25:22Z</time>
      </trkpt>
      <trkpt lat="46.15954" lon="6.81535">
        <ele>1438</ele>
        <time>2010-01-02T09:25:23Z</time>
      </trkpt>
      <trkpt lat="46.15954" lon="6.81538">
        <ele>1437</ele>
        <time>2010-01-02T09:25:24Z</time>
      </trkpt>
      <trkpt lat="46.15954" lon="6.81543">
        <ele>1437</ele>
        <time>2010-01-02T09:25:25Z</time>
      </trkpt>
      <trkpt lat="46.15954" lon="6.81547">
        <ele>1437</ele>
        <time>2010-01-02T09:25:27Z</time>
      </trkpt>
      <trkpt lat="46.15954" lon="6.81551">
        <ele>1436</ele>
        <time>2010-01-02T09:25:28Z</time>
      </trkpt>
      <trkpt lat="46.15954" lon="6.81557">
        <ele>1436</ele>
        <time>2010-01-02T09:25:29Z</time>
      </trkpt>
      <trkpt lat="46.15953" lon="6.81581">
        <ele>1434</ele>
        <time>2010-01-02T09:25:36Z</time>
      </trkpt>
      <trkpt lat="46.15959" lon="6.81658">
        <ele>1430</ele>
        <time>2010-01-02T09:25:58Z</time>
      </trkpt>
      <trkpt lat="46.15969" lon="6.81758">
        <ele>1421</ele>
        <time>2010-01-02T09:26:26Z</time>
      </trkpt>
      <trkpt lat="46.15974" lon="6.81801">
        <ele>1419</ele>
        <time>2010-01-02T09:26:38Z</time>
      </trkpt>
      <trkpt lat="46.15967" lon="6.81848">
        <ele>1414</ele>
        <time>2010-01-02T09:26:51Z</time>
      </trkpt>
      <trkpt lat="46.15965" lon="6.81867">
        <ele>1413</ele>
        <time>2010-01-02T09:26:56Z</time>
      </trkpt>
      <trkpt lat="46.15964" lon="6.81873">
        <ele>1413</ele>
        <time>2010-01-02T09:26:58Z</time>
      </trkpt>
      <trkpt lat="46.15965" lon="6.81877">
        <ele>1413</ele>
        <time>2010-01-02T09:26:59Z</time>
      </trkpt>
      <trkpt lat="46.15965" lon="6.81879">
        <ele>1413</ele>
        <time>2010-01-02T09:27:00Z</time>
      </trkpt>
      <trkpt lat="46.15964" lon="6.81886">
        <ele>1413</ele>
        <time>2010-01-02T09:27:02Z</time>
      </trkpt>
      <trkpt lat="46.15964" lon="6.81891">
        <ele>1412</ele>
        <time>2010-01-02T09:27:03Z</time>
      </trkpt>
      <trkpt lat="46.15964" lon="6.81895">
        <ele>1412</ele>
        <time>2010-01-02T09:27:04Z</time>
      </trkpt>
      <trkpt lat="46.15964" lon="6.81899">
        <ele>1412</ele>
        <time>2010-01-02T09:27:05Z</time>
      </trkpt>
      <trkpt lat="46.15966" lon="6.81904">
        <ele>1412</ele>
        <time>2010-01-02T09:27:07Z</time>
      </trkpt>
      <trkpt lat="46.15967" lon="6.8191">
        <ele>1412</ele>
        <time>2010-01-02T09:27:08Z</time>
      </trkpt>
      <trkpt lat="46.15967" lon="6.81919">
        <ele>1409</ele>
        <time>2010-01-02T09:27:11Z</time>
      </trkpt>
      <trkpt lat="46.15968" lon="6.81925">
        <ele>1409</ele>
        <time>2010-01-02T09:27:13Z</time>
      </trkpt>
      <trkpt lat="46.15969" lon="6.81928">
        <ele>1409</ele>
        <time>2010-01-02T09:27:14Z</time>
      </trkpt>
      <trkpt lat="46.1597" lon="6.81931">
        <ele>1409</ele>
        <time>2010-01-02T09:27:14Z</time>
      </trkpt>
      <trkpt lat="46.15971" lon="6.81936">
        <ele>1409</ele>
        <time>2010-01-02T09:27:16Z</time>
      </trkpt>
      <trkpt lat="46.15971" lon="6.81939">
        <ele>1409</ele>
        <time>2010-01-02T09:27:17Z</time>
      </trkpt>
      <trkpt lat="46.15973" lon="6.81946">
        <ele>1409</ele>
        <time>2010-01-02T09:27:19Z</time>
      </trkpt>
      <trkpt lat="46.15973" lon="6.81951">
        <ele>1409</ele>
        <time>2010-01-02T09:27:20Z</time>
      </trkpt>
      <trkpt lat="46.15974" lon="6.81957">
        <ele>1409</ele>
        <time>2010-01-02T09:27:22Z</time>
      </trkpt>
      <trkpt lat="46.15975" lon="6.81959">
        <ele>1408</ele>
        <time>2010-01-02T09:27:22Z</time>
      </trkpt>
      <trkpt lat="46.15975" lon="6.81966">
        <ele>1408</ele>
        <time>2010-01-02T09:27:24Z</time>
      </trkpt>
      <trkpt lat="46.15976" lon="6.81973">
        <ele>1408</ele>
        <time>2010-01-02T09:27:26Z</time>
      </trkpt>
      <trkpt lat="46.15976" lon="6.81977">
        <ele>1408</ele>
        <time>2010-01-02T09:27:28Z</time>
      </trkpt>
      <trkpt lat="46.15975" lon="6.81986">
        <ele>1407</ele>
        <time>2010-01-02T09:27:30Z</time>
      </trkpt>
      <trkpt lat="46.15975" lon="6.81989">
        <ele>1407</ele>
        <time>2010-01-02T09:27:31Z</time>
      </trkpt>
      <trkpt lat="46.15975" lon="6.81993">
        <ele>1407</ele>
        <time>2010-01-02T09:27:32Z</time>
      </trkpt>
      <trkpt lat="46.15976" lon="6.82015">
        <ele>1403</ele>
        <time>2010-01-02T09:27:38Z</time>
      </trkpt>
      <trkpt lat="46.15988" lon="6.82096">
        <ele>1394</ele>
        <time>2010-01-02T09:28:01Z</time>
      </trkpt>
      <trkpt lat="46.1599" lon="6.82119">
        <ele>1392</ele>
        <time>2010-01-02T09:28:07Z</time>
      </trkpt>
      <trkpt lat="46.15991" lon="6.82126">
        <ele>1391</ele>
        <time>2010-01-02T09:28:09Z</time>
      </trkpt>
      <trkpt lat="46.15992" lon="6.82132">
        <ele>1390</ele>
        <time>2010-01-02T09:28:11Z</time>
      </trkpt>
      <trkpt lat="46.15992" lon="6.82134">
        <ele>1390</ele>
        <time>2010-01-02T09:28:12Z</time>
      </trkpt>
      <trkpt lat="46.15993" lon="6.82142">
        <ele>1389</ele>
        <time>2010-01-02T09:28:14Z</time>
      </trkpt>
      <trkpt lat="46.15994" lon="6.82147">
        <ele>1389</ele>
        <time>2010-01-02T09:28:16Z</time>
      </trkpt>
      <trkpt lat="46.15994" lon="6.82149">
        <ele>1389</ele>
        <time>2010-01-02T09:28:16Z</time>
      </trkpt>
      <trkpt lat="46.15995" lon="6.82155">
        <ele>1388</ele>
        <time>2010-01-02T09:28:18Z</time>
      </trkpt>
      <trkpt lat="46.15996" lon="6.8216">
        <ele>1387</ele>
        <time>2010-01-02T09:28:19Z</time>
      </trkpt>
      <trkpt lat="46.15997" lon="6.82165">
        <ele>1387</ele>
        <time>2010-01-02T09:28:21Z</time>
      </trkpt>
      <trkpt lat="46.15998" lon="6.8217">
        <ele>1385</ele>
        <time>2010-01-02T09:28:22Z</time>
      </trkpt>
      <trkpt lat="46.15999" lon="6.82175">
        <ele>1385</ele>
        <time>2010-01-02T09:28:24Z</time>
      </trkpt>
      <trkpt lat="46.15999" lon="6.82179">
        <ele>1384</ele>
        <time>2010-01-02T09:28:25Z</time>
      </trkpt>
      <trkpt lat="46.16" lon="6.82185">
        <ele>1394</ele>
        <time>2010-01-02T09:28:27Z</time>
      </trkpt>
      <trkpt lat="46.16001" lon="6.82189">
        <ele>1395</ele>
        <time>2010-01-02T09:28:28Z</time>
      </trkpt>
      <trkpt lat="46.16001" lon="6.8219">
        <ele>1395</ele>
        <time>2010-01-02T09:28:28Z</time>
      </trkpt>
      <trkpt lat="46.16001" lon="6.82197">
        <ele>1396</ele>
        <time>2010-01-02T09:28:30Z</time>
      </trkpt>
      <trkpt lat="46.16001" lon="6.82204">
        <ele>1396</ele>
        <time>2010-01-02T09:28:32Z</time>
      </trkpt>
      <trkpt lat="46.16001" lon="6.8221">
        <ele>1396</ele>
        <time>2010-01-02T09:28:33Z</time>
      </trkpt>
      <trkpt lat="46.16001" lon="6.82217">
        <ele>1395</ele>
        <time>2010-01-02T09:28:35Z</time>
      </trkpt>
      <trkpt lat="46.16001" lon="6.82221">
        <ele>1394</ele>
        <time>2010-01-02T09:28:36Z</time>
      </trkpt>
      <trkpt lat="46.16" lon="6.82226">
        <ele>1393</ele>
        <time>2010-01-02T09:28:38Z</time>
      </trkpt>
      <trkpt lat="46.16001" lon="6.82236">
        <ele>1390</ele>
        <time>2010-01-02T09:28:41Z</time>
      </trkpt>
      <trkpt lat="46.15991" lon="6.82268">
        <ele>1377</ele>
        <time>2010-01-02T09:28:50Z</time>
      </trkpt>
      <trkpt lat="46.15991" lon="6.8237">
        <ele>1370</ele>
        <time>2010-01-02T09:29:19Z</time>
      </trkpt>
      <trkpt lat="46.15995" lon="6.82507">
        <ele>1361</ele>
        <time>2010-01-02T09:29:57Z</time>
      </trkpt>
      <trkpt lat="46.16031" lon="6.82575">
        <ele>1365</ele>
        <time>2010-01-02T09:30:20Z</time>
      </trkpt>
      <trkpt lat="46.16064" lon="6.8263">
        <ele>1361</ele>
        <time>2010-01-02T09:30:40Z</time>
      </trkpt>
      <trkpt lat="46.1609" lon="6.82692">
        <ele>1372</ele>
        <time>2010-01-02T09:31:01Z</time>
      </trkpt>
      <trkpt lat="46.16095" lon="6.82788">
        <ele>1363</ele>
        <time>2010-01-02T09:31:27Z</time>
      </trkpt>
      <trkpt lat="46.16092" lon="6.82897">
        <ele>1361</ele>
        <time>2010-01-02T09:31:58Z</time>
      </trkpt>
      <trkpt lat="46.16078" lon="6.82991">
        <ele>1348</ele>
        <time>2010-01-02T09:32:24Z</time>
      </trkpt>
      <trkpt lat="46.16083" lon="6.83076">
        <ele>1338</ele>
        <time>2010-01-02T09:32:48Z</time>
      </trkpt>
      <trkpt lat="46.16136" lon="6.83204">
        <ele>1339</ele>
        <time>2010-01-02T09:33:29Z</time>
      </trkpt>
      <trkpt lat="46.16171" lon="6.83297">
        <ele>1348</ele>
        <time>2010-01-02T09:33:59Z</time>
      </trkpt>
      <trkpt lat="46.16228" lon="6.83398">
        <ele>1339</ele>
        <time>2010-01-02T09:34:35Z</time>
      </trkpt>
      <trkpt lat="46.16271" lon="6.83457">
        <ele>1348</ele>
        <time>2010-01-02T09:34:58Z</time>
      </trkpt>
      <trkpt lat="46.16317" lon="6.83532">
        <ele>1336</ele>
        <time>2010-01-02T09:35:26Z</time>
      </trkpt>
      <trkpt lat="46.16362" lon="6.83564">
        <ele>1355</ele>
        <time>2010-01-02T09:35:46Z</time>
      </trkpt>
      <trkpt lat="46.16389" lon="6.83573">
        <ele>1361</ele>
        <time>2010-01-02T09:35:57Z</time>
      </trkpt>
      <trkpt lat="46.16399" lon="6.8359">
        <ele>1356</ele>
        <time>2010-01-02T09:36:04Z</time>
      </trkpt>
      <trkpt lat="46.16399" lon="6.83602">
        <ele>1355</ele>
        <time>2010-01-02T09:36:07Z</time>
      </trkpt>
      <trkpt lat="46.16398" lon="6.83606">
        <ele>1354</ele>
        <time>2010-01-02T09:36:08Z</time>
      </trkpt>
      <trkpt lat="46.16396" lon="6.83609">
        <ele>1354</ele>
        <time>2010-01-02T09:36:09Z</time>
      </trkpt>
      <trkpt lat="46.16396" lon="6.83611">
        <ele>1354</ele>
        <time>2010-01-02T09:36:10Z</time>
      </trkpt>
      <trkpt lat="46.16393" lon="6.83613">
        <ele>1353</ele>
        <time>2010-01-02T09:36:11Z</time>
      </trkpt>
      <trkpt lat="46.16389" lon="6.83616">
        <ele>1353</ele>
        <time>2010-01-02T09:36:13Z</time>
      </trkpt>
      <trkpt lat="46.16388" lon="6.83618">
        <ele>1352</ele>
        <time>2010-01-02T09:36:13Z</time>
      </trkpt>
      <trkpt lat="46.16381" lon="6.83615">
        <ele>1351</ele>
        <time>2010-01-02T09:36:16Z</time>
      </trkpt>
      <trkpt lat="46.1633" lon="6.8364">
        <ele>1329</ele>
        <time>2010-01-02T09:36:38Z</time>
      </trkpt>
      <trkpt lat="46.16316" lon="6.83762">
        <ele>1348</ele>
        <time>2010-01-02T09:37:12Z</time>
      </trkpt>
      <trkpt lat="46.16298" lon="6.83866">
        <ele>1351</ele>
        <time>2010-01-02T09:37:42Z</time>
      </trkpt>
      <trkpt lat="46.16284" lon="6.83928">
        <ele>1354</ele>
        <time>2010-01-02T09:38:00Z</time>
      </trkpt>
      <trkpt lat="46.16267" lon="6.83961">
        <ele>1352</ele>
        <time>2010-01-02T09:38:11Z</time>
      </trkpt>
      <trkpt lat="46.16243" lon="6.84077">
        <ele>1338</ele>
        <time>2010-01-02T09:38:45Z</time>
      </trkpt>
      <trkpt lat="46.16241" lon="6.84101">
        <ele>1336</ele>
        <time>2010-01-02T09:38:52Z</time>
      </trkpt>
      <trkpt lat="46.1624" lon="6.84106">
        <ele>1335</ele>
        <time>2010-01-02T09:38:53Z</time>
      </trkpt>
      <trkpt lat="46.16239" lon="6.8411">
        <ele>1334</ele>
        <time>2010-01-02T09:38:54Z</time>
      </trkpt>
      <trkpt lat="46.16236" lon="6.84116">
        <ele>1333</ele>
        <time>2010-01-02T09:38:56Z</time>
      </trkpt>
      <trkpt lat="46.16234" lon="6.84122">
        <ele>1333</ele>
        <time>2010-01-02T09:38:58Z</time>
      </trkpt>
      <trkpt lat="46.16232" lon="6.84129">
        <ele>1333</ele>
        <time>2010-01-02T09:39:00Z</time>
      </trkpt>
      <trkpt lat="46.16231" lon="6.84133">
        <ele>1333</ele>
        <time>2010-01-02T09:39:01Z</time>
      </trkpt>
      <trkpt lat="46.1623" lon="6.84139">
        <ele>1333</ele>
        <time>2010-01-02T09:39:03Z</time>
      </trkpt>
      <trkpt lat="46.1623" lon="6.84148">
        <ele>1335</ele>
        <time>2010-01-02T09:39:06Z</time>
      </trkpt>
      <trkpt lat="46.1623" lon="6.84152">
        <ele>1336</ele>
        <time>2010-01-02T09:39:07Z</time>
      </trkpt>
      <trkpt lat="46.16231" lon="6.84158">
        <ele>1337</ele>
        <time>2010-01-02T09:39:08Z</time>
      </trkpt>
      <trkpt lat="46.16231" lon="6.84163">
        <ele>1338</ele>
        <time>2010-01-02T09:39:10Z</time>
      </trkpt>
      <trkpt lat="46.16231" lon="6.84167">
        <ele>1338</ele>
        <time>2010-01-02T09:39:11Z</time>
      </trkpt>
      <trkpt lat="46.1623" lon="6.84172">
        <ele>1339</ele>
        <time>2010-01-02T09:39:12Z</time>
      </trkpt>
      <trkpt lat="46.16229" lon="6.84179">
        <ele>1338</ele>
        <time>2010-01-02T09:39:14Z</time>
      </trkpt>
      <trkpt lat="46.16228" lon="6.84187">
        <ele>1336</ele>
        <time>2010-01-02T09:39:17Z</time>
      </trkpt>
      <trkpt lat="46.16227" lon="6.8419">
        <ele>1336</ele>
        <time>2010-01-02T09:39:17Z</time>
      </trkpt>
      <trkpt lat="46.16226" lon="6.84194">
        <ele>1335</ele>
        <time>2010-01-02T09:39:19Z</time>
      </trkpt>
      <trkpt lat="46.16226" lon="6.84199">
        <ele>1335</ele>
        <time>2010-01-02T09:39:20Z</time>
      </trkpt>
      <trkpt lat="46.16226" lon="6.84206">
        <ele>1334</ele>
        <time>2010-01-02T09:39:22Z</time>
      </trkpt>
      <trkpt lat="46.16228" lon="6.8421">
        <ele>1335</ele>
        <time>2010-01-02T09:39:24Z</time>
      </trkpt>
      <trkpt lat="46.1623" lon="6.84213">
        <ele>1335</ele>
        <time>2010-01-02T09:39:24Z</time>
      </trkpt>
      <trkpt lat="46.16233" lon="6.8422">
        <ele>1336</ele>
        <time>2010-01-02T09:39:27Z</time>
      </trkpt>
      <trkpt lat="46.16234" lon="6.84222">
        <ele>1337</ele>
        <time>2010-01-02T09:39:28Z</time>
      </trkpt>
      <trkpt lat="46.16237" lon="6.84227">
        <ele>1338</ele>
        <time>2010-01-02T09:39:29Z</time>
      </trkpt>
      <trkpt lat="46.16238" lon="6.8423">
        <ele>1339</ele>
        <time>2010-01-02T09:39:30Z</time>
      </trkpt>
      <trkpt lat="46.16239" lon="6.84235">
        <ele>1341</ele>
        <time>2010-01-02T09:39:32Z</time>
      </trkpt>
      <trkpt lat="46.1624" lon="6.84236">
        <ele>1341</ele>
        <time>2010-01-02T09:39:32Z</time>
      </trkpt>
      <trkpt lat="46.16242" lon="6.84242">
        <ele>1344</ele>
        <time>2010-01-02T09:39:34Z</time>
      </trkpt>
      <trkpt lat="46.16243" lon="6.84245">
        <ele>1345</ele>
        <time>2010-01-02T09:39:35Z</time>
      </trkpt>
      <trkpt lat="46.16242" lon="6.84256">
        <ele>1344</ele>
        <time>2010-01-02T09:39:38Z</time>
      </trkpt>
      <trkpt lat="46.16236" lon="6.84264">
        <ele>1339</ele>
        <time>2010-01-02T09:39:41Z</time>
      </trkpt>
      <trkpt lat="46.16234" lon="6.84264">
        <ele>1338</ele>
        <time>2010-01-02T09:39:42Z</time>
      </trkpt>
      <trkpt lat="46.1623" lon="6.84267">
        <ele>1336</ele>
        <time>2010-01-02T09:39:44Z</time>
      </trkpt>
      <trkpt lat="46.16228" lon="6.84267">
        <ele>1336</ele>
        <time>2010-01-02T09:39:45Z</time>
      </trkpt>
      <trkpt lat="46.16225" lon="6.84268">
        <ele>1334</ele>
        <time>2010-01-02T09:39:46Z</time>
      </trkpt>
      <trkpt lat="46.16221" lon="6.8427">
        <ele>1333</ele>
        <time>2010-01-02T09:39:47Z</time>
      </trkpt>
      <trkpt lat="46.16219" lon="6.84271">
        <ele>1332</ele>
        <time>2010-01-02T09:39:48Z</time>
      </trkpt>
      <trkpt lat="46.16212" lon="6.84283">
        <ele>1330</ele>
        <time>2010-01-02T09:39:53Z</time>
      </trkpt>
      <trkpt lat="46.16211" lon="6.84347">
        <ele>1328</ele>
        <time>2010-01-02T09:40:11Z</time>
      </trkpt>
      <trkpt lat="46.16208" lon="6.84384">
        <ele>1327</ele>
        <time>2010-01-02T09:40:21Z</time>
      </trkpt>
      <trkpt lat="46.16208" lon="6.84386">
        <ele>1327</ele>
        <time>2010-01-02T09:40:21Z</time>
      </trkpt>
      <trkpt lat="46.1621" lon="6.84392">
        <ele>1327</ele>
        <time>2010-01-02T09:40:23Z</time>
      </trkpt>
      <trkpt lat="46.16211" lon="6.84403">
        <ele>1328</ele>
        <time>2010-01-02T09:40:26Z</time>
      </trkpt>
      <trkpt lat="46.16212" lon="6.84408">
        <ele>1328</ele>
        <time>2010-01-02T09:40:28Z</time>
      </trkpt>
      <trkpt lat="46.16211" lon="6.84413">
        <ele>1328</ele>
        <time>2010-01-02T09:40:29Z</time>
      </trkpt>
      <trkpt lat="46.16212" lon="6.84417">
        <ele>1328</ele>
        <time>2010-01-02T09:40:30Z</time>
      </trkpt>
      <trkpt lat="46.16212" lon="6.84426">
        <ele>1329</ele>
        <time>2010-01-02T09:40:33Z</time>
      </trkpt>
      <trkpt lat="46.16213" lon="6.84434">
        <ele>1329</ele>
        <time>2010-01-02T09:40:35Z</time>
      </trkpt>
      <trkpt lat="46.16212" lon="6.84442">
        <ele>1329</ele>
        <time>2010-01-02T09:40:37Z</time>
      </trkpt>
      <trkpt lat="46.16211" lon="6.84445">
        <ele>1329</ele>
        <time>2010-01-02T09:40:38Z</time>
      </trkpt>
      <trkpt lat="46.16211" lon="6.84455">
        <ele>1329</ele>
        <time>2010-01-02T09:40:41Z</time>
      </trkpt>
      <trkpt lat="46.1621" lon="6.84457">
        <ele>1329</ele>
        <time>2010-01-02T09:40:41Z</time>
      </trkpt>
      <trkpt lat="46.16209" lon="6.84467">
        <ele>1329</ele>
        <time>2010-01-02T09:40:44Z</time>
      </trkpt>
      <trkpt lat="46.16209" lon="6.84471">
        <ele>1328</ele>
        <time>2010-01-02T09:40:45Z</time>
      </trkpt>
      <trkpt lat="46.16208" lon="6.84478">
        <ele>1328</ele>
        <time>2010-01-02T09:40:47Z</time>
      </trkpt>
      <trkpt lat="46.16208" lon="6.84481">
        <ele>1328</ele>
        <time>2010-01-02T09:40:48Z</time>
      </trkpt>
      <trkpt lat="46.16208" lon="6.84519">
        <ele>1329</ele>
        <time>2010-01-02T09:40:59Z</time>
      </trkpt>
      <trkpt lat="46.16217" lon="6.8471">
        <ele>1321</ele>
        <time>2010-01-02T09:41:52Z</time>
      </trkpt>
      <trkpt lat="46.16245" lon="6.84891">
        <ele>1294</ele>
        <time>2010-01-02T09:42:43Z</time>
      </trkpt>
      <trkpt lat="46.16256" lon="6.8495">
        <ele>1310</ele>
        <time>2010-01-02T09:43:00Z</time>
      </trkpt>
      <trkpt lat="46.16257" lon="6.84955">
        <ele>1309</ele>
        <time>2010-01-02T09:43:02Z</time>
      </trkpt>
      <trkpt lat="46.16264" lon="6.84999">
        <ele>1294</ele>
        <time>2010-01-02T09:43:14Z</time>
      </trkpt>
      <trkpt lat="46.16298" lon="6.85071">
        <ele>1294</ele>
        <time>2010-01-02T09:43:38Z</time>
      </trkpt>
      <trkpt lat="46.16326" lon="6.85135">
        <ele>1275</ele>
        <time>2010-01-02T09:43:59Z</time>
      </trkpt>
      <trkpt lat="46.16348" lon="6.85192">
        <ele>1277</ele>
        <time>2010-01-02T09:44:17Z</time>
      </trkpt>
      <trkpt lat="46.1637" lon="6.85214">
        <ele>1278</ele>
        <time>2010-01-02T09:44:28Z</time>
      </trkpt>
      <trkpt lat="46.164" lon="6.8526">
        <ele>1266</ele>
        <time>2010-01-02T09:44:46Z</time>
      </trkpt>
      <trkpt lat="46.16426" lon="6.85303">
        <ele>1276</ele>
        <time>2010-01-02T09:45:01Z</time>
      </trkpt>
      <trkpt lat="46.16452" lon="6.85357">
        <ele>1259</ele>
        <time>2010-01-02T09:45:20Z</time>
      </trkpt>
      <trkpt lat="46.16488" lon="6.85418">
        <ele>1250</ele>
        <time>2010-01-02T09:45:42Z</time>
      </trkpt>
      <trkpt lat="46.16538" lon="6.85501">
        <ele>1234</ele>
        <time>2010-01-02T09:46:12Z</time>
      </trkpt>
      <trkpt lat="46.16585" lon="6.85546">
        <ele>1247</ele>
        <time>2010-01-02T09:46:35Z</time>
      </trkpt>
      <trkpt lat="46.16606" lon="6.85563">
        <ele>1246</ele>
        <time>2010-01-02T09:46:45Z</time>
      </trkpt>
      <trkpt lat="46.16604" lon="6.85596">
        <ele>1226</ele>
        <time>2010-01-02T09:46:54Z</time>
      </trkpt>
      <trkpt lat="46.16649" lon="6.85667">
        <ele>1225</ele>
        <time>2010-01-02T09:47:21Z</time>
      </trkpt>
      <trkpt lat="46.16664" lon="6.85714">
        <ele>1200</ele>
        <time>2010-01-02T09:47:35Z</time>
      </trkpt>
      <trkpt lat="46.16697" lon="6.8574">
        <ele>1222</ele>
        <time>2010-01-02T09:47:50Z</time>
      </trkpt>
      <trkpt lat="46.16755" lon="6.85823">
        <ele>1204</ele>
        <time>2010-01-02T09:48:23Z</time>
      </trkpt>
      <trkpt lat="46.16785" lon="6.85878">
        <ele>1187</ele>
        <time>2010-01-02T09:48:42Z</time>
      </trkpt>
      <trkpt lat="46.1683" lon="6.85914">
        <ele>1185</ele>
        <time>2010-01-02T09:49:03Z</time>
      </trkpt>
      <trkpt lat="46.16844" lon="6.85913">
        <ele>1193</ele>
        <time>2010-01-02T09:49:09Z</time>
      </trkpt>
      <trkpt lat="46.16844" lon="6.85977">
        <ele>1177</ele>
        <time>2010-01-02T09:49:26Z</time>
      </trkpt>
      <trkpt lat="46.16882" lon="6.86028">
        <ele>1163</ele>
        <time>2010-01-02T09:49:47Z</time>
      </trkpt>
      <trkpt lat="46.16946" lon="6.8607">
        <ele>1165</ele>
        <time>2010-01-02T09:50:15Z</time>
      </trkpt>
      <trkpt lat="46.16987" lon="6.86095">
        <ele>1151</ele>
        <time>2010-01-02T09:50:33Z</time>
      </trkpt>
      <trkpt lat="46.17021" lon="6.86111">
        <ele>1154</ele>
        <time>2010-01-02T09:50:47Z</time>
      </trkpt>
      <trkpt lat="46.17098" lon="6.86201">
        <ele>1137</ele>
        <time>2010-01-02T09:51:27Z</time>
      </trkpt>
      <trkpt lat="46.17149" lon="6.86283">
        <ele>1111</ele>
        <time>2010-01-02T09:51:57Z</time>
      </trkpt>
      <trkpt lat="46.1721" lon="6.86291">
        <ele>1116</ele>
        <time>2010-01-02T09:52:22Z</time>
      </trkpt>
      <trkpt lat="46.17249" lon="6.86279">
        <ele>1121</ele>
        <time>2010-01-02T09:52:38Z</time>
      </trkpt>
      <trkpt lat="46.17253" lon="6.86283">
        <ele>1126</ele>
        <time>2010-01-02T09:52:40Z</time>
      </trkpt>
      <trkpt lat="46.17298" lon="6.86338">
        <ele>1106</ele>
        <time>2010-01-02T09:53:03Z</time>
      </trkpt>
      <trkpt lat="46.17317" lon="6.86401">
        <ele>1100</ele>
        <time>2010-01-02T09:53:22Z</time>
      </trkpt>
      <trkpt lat="46.17356" lon="6.86425">
        <ele>1101</ele>
        <time>2010-01-02T09:53:39Z</time>
      </trkpt>
      <trkpt lat="46.17372" lon="6.86515">
        <ele>1086</ele>
        <time>2010-01-02T09:54:05Z</time>
      </trkpt>
      <trkpt lat="46.17396" lon="6.86584">
        <ele>1074</ele>
        <time>2010-01-02T09:54:27Z</time>
      </trkpt>
      <trkpt lat="46.17397" lon="6.866">
        <ele>1073</ele>
        <time>2010-01-02T09:54:31Z</time>
      </trkpt>
      <trkpt lat="46.17407" lon="6.86608">
        <ele>1073</ele>
        <time>2010-01-02T09:54:36Z</time>
      </trkpt>
      <trkpt lat="46.17426" lon="6.8662">
        <ele>1076</ele>
        <time>2010-01-02T09:54:44Z</time>
      </trkpt>
      <trkpt lat="46.17442" lon="6.86629">
        <ele>1076</ele>
        <time>2010-01-02T09:54:51Z</time>
      </trkpt>
      <trkpt lat="46.1746" lon="6.86636">
        <ele>1076</ele>
        <time>2010-01-02T09:54:58Z</time>
      </trkpt>
      <trkpt lat="46.17481" lon="6.86644">
        <ele>1075</ele>
        <time>2010-01-02T09:55:07Z</time>
      </trkpt>
      <trkpt lat="46.17503" lon="6.86651">
        <ele>1077</ele>
        <time>2010-01-02T09:55:16Z</time>
      </trkpt>
      <trkpt lat="46.17505" lon="6.86652">
        <ele>1077</ele>
        <time>2010-01-02T09:55:17Z</time>
      </trkpt>
      <trkpt lat="46.17519" lon="6.86659">
        <ele>1078</ele>
        <time>2010-01-02T09:55:23Z</time>
      </trkpt>
      <trkpt lat="46.17527" lon="6.86671">
        <ele>1068</ele>
        <time>2010-01-02T09:55:27Z</time>
      </trkpt>
      <trkpt lat="46.1752" lon="6.86679">
        <ele>1068</ele>
        <time>2010-01-02T09:55:31Z</time>
      </trkpt>
      <trkpt lat="46.17513" lon="6.86695">
        <ele>1067</ele>
        <time>2010-01-02T09:55:36Z</time>
      </trkpt>
      <trkpt lat="46.17483" lon="6.86726">
        <ele>1061</ele>
        <time>2010-01-02T09:55:51Z</time>
      </trkpt>
      <trkpt lat="46.17438" lon="6.86766">
        <ele>1055</ele>
        <time>2010-01-02T09:56:12Z</time>
      </trkpt>
      <trkpt lat="46.17434" lon="6.8678">
        <ele>1055</ele>
        <time>2010-01-02T09:56:16Z</time>
      </trkpt>
      <trkpt lat="46.17472" lon="6.86855">
        <ele>1047</ele>
        <time>2010-01-02T09:56:42Z</time>
      </trkpt>
      <trkpt lat="46.175" lon="6.86899">
        <ele>1045</ele>
        <time>2010-01-02T09:56:59Z</time>
      </trkpt>
      <trkpt lat="46.17523" lon="6.86932">
        <ele>1042</ele>
        <time>2010-01-02T09:57:12Z</time>
      </trkpt>
      <trkpt lat="46.17529" lon="6.8696">
        <ele>1041</ele>
        <time>2010-01-02T09:57:20Z</time>
      </trkpt>
      <trkpt lat="46.17515" lon="6.87021">
        <ele>1037</ele>
        <time>2010-01-02T09:57:38Z</time>
      </trkpt>
      <trkpt lat="46.17507" lon="6.87048">
        <ele>1036</ele>
        <time>2010-01-02T09:57:46Z</time>
      </trkpt>
      <trkpt lat="46.17507" lon="6.87105">
        <ele>1033</ele>
        <time>2010-01-02T09:58:02Z</time>
      </trkpt>
      <trkpt lat="46.17501" lon="6.87144">
        <ele>1032</ele>
        <time>2010-01-02T09:58:13Z</time>
      </trkpt>
      <trkpt lat="46.17481" lon="6.87111">
        <ele>1031</ele>
        <time>2010-01-02T09:58:25Z</time>
      </trkpt>
      <trkpt lat="46.17493" lon="6.8709">
        <ele>1033</ele>
        <time>2010-01-02T09:58:33Z</time>
      </trkpt>
      <trkpt lat="46.175" lon="6.87086">
        <ele>1034</ele>
        <time>2010-01-02T09:58:36Z</time>
      </trkpt>
      <trkpt lat="46.1749" lon="6.87065">
        <ele>1036</ele>
        <time>2010-01-02T09:58:43Z</time>
      </trkpt>
      <trkpt lat="46.17486" lon="6.8681">
        <ele>1053</ele>
        <time>2010-01-02T09:59:53Z</time>
      </trkpt>
      <trkpt lat="46.17481" lon="6.86446">
        <ele>1129</ele>
        <time>2010-01-02T10:01:34Z</time>
      </trkpt>
      <trkpt lat="46.17478" lon="6.86232">
        <ele>1202</ele>
        <time>2010-01-02T10:02:34Z</time>
      </trkpt>
      <trkpt lat="46.17478" lon="6.86123">
        <ele>1230</ele>
        <time>2010-01-02T10:03:04Z</time>
      </trkpt>
      <trkpt lat="46.17492" lon="6.86061">
        <ele>1259</ele>
        <time>2010-01-02T10:03:22Z</time>
      </trkpt>
      <trkpt lat="46.17494" lon="6.86037">
        <ele>1265</ele>
        <time>2010-01-02T10:03:29Z</time>
      </trkpt>
      <trkpt lat="46.17495" lon="6.86002">
        <ele>1283</ele>
        <time>2010-01-02T10:03:38Z</time>
      </trkpt>
      <trkpt lat="46.17496" lon="6.8598">
        <ele>1291</ele>
        <time>2010-01-02T10:03:45Z</time>
      </trkpt>
      <trkpt lat="46.17498" lon="6.85932">
        <ele>1306</ele>
        <time>2010-01-02T10:03:58Z</time>
      </trkpt>
      <trkpt lat="46.175" lon="6.85823">
        <ele>1347</ele>
        <time>2010-01-02T10:04:28Z</time>
      </trkpt>
      <trkpt lat="46.17512" lon="6.85483">
        <ele>1491</ele>
        <time>2010-01-02T10:06:02Z</time>
      </trkpt>
      <trkpt lat="46.17514" lon="6.8522">
        <ele>1559</ele>
        <time>2010-01-02T10:07:15Z</time>
      </trkpt>
      <trkpt lat="46.17509" lon="6.84825">
        <ele>1764</ele>
        <time>2010-01-02T10:09:05Z</time>
      </trkpt>
      <trkpt lat="46.17508" lon="6.84784">
        <ele>1788</ele>
        <time>2010-01-02T10:09:16Z</time>
      </trkpt>
      <trkpt lat="46.17508" lon="6.84695">
        <ele>1861</ele>
        <time>2010-01-02T10:09:41Z</time>
      </trkpt>
      <trkpt lat="46.17505" lon="6.84673">
        <ele>1884</ele>
        <time>2010-01-02T10:09:47Z</time>
      </trkpt>
      <trkpt lat="46.17506" lon="6.84658">
        <ele>1901</ele>
        <time>2010-01-02T10:09:51Z</time>
      </trkpt>
      <trkpt lat="46.17507" lon="6.84623">
        <ele>1910</ele>
        <time>2010-01-02T10:10:01Z</time>
      </trkpt>
      <trkpt lat="46.17509" lon="6.84617">
        <ele>1912</ele>
        <time>2010-01-02T10:10:03Z</time>
      </trkpt>
      <trkpt lat="46.17512" lon="6.84614">
        <ele>1913</ele>
        <time>2010-01-02T10:10:04Z</time>
      </trkpt>
      <trkpt lat="46.17514" lon="6.84612">
        <ele>1913</ele>
        <time>2010-01-02T10:10:05Z</time>
      </trkpt>
      <trkpt lat="46.17514" lon="6.84611">
        <ele>1914</ele>
        <time>2010-01-02T10:10:05Z</time>
      </trkpt>
      <trkpt lat="46.17514" lon="6.84605">
        <ele>1916</ele>
        <time>2010-01-02T10:10:07Z</time>
      </trkpt>
      <trkpt lat="46.17509" lon="6.84598">
        <ele>1919</ele>
        <time>2010-01-02T10:10:10Z</time>
      </trkpt>
      <trkpt lat="46.17502" lon="6.84581">
        <ele>1929</ele>
        <time>2010-01-02T10:10:15Z</time>
      </trkpt>
      <trkpt lat="46.17513" lon="6.84566">
        <ele>1929</ele>
        <time>2010-01-02T10:10:21Z</time>
      </trkpt>
      <trkpt lat="46.17515" lon="6.84533">
        <ele>1928</ele>
        <time>2010-01-02T10:10:31Z</time>
      </trkpt>
      <trkpt lat="46.17518" lon="6.84524">
        <ele>1928</ele>
        <time>2010-01-02T10:10:33Z</time>
      </trkpt>
      <trkpt lat="46.17518" lon="6.84524">
        <ele>1928</ele>
        <time>2010-01-02T10:10:33Z</time>
      </trkpt>
      <trkpt lat="46.17518" lon="6.84523">
        <ele>1927</ele>
        <time>2010-01-02T10:10:34Z</time>
      </trkpt>
      <trkpt lat="46.17522" lon="6.84511">
        <ele>1927</ele>
        <time>2010-01-02T10:10:37Z</time>
      </trkpt>
      <trkpt lat="46.17522" lon="6.84508">
        <ele>1927</ele>
        <time>2010-01-02T10:10:38Z</time>
      </trkpt>
      <trkpt lat="46.17523" lon="6.84507">
        <ele>1927</ele>
        <time>2010-01-02T10:10:38Z</time>
      </trkpt>
      <trkpt lat="46.17528" lon="6.84494">
        <ele>1921</ele>
        <time>2010-01-02T10:10:43Z</time>
      </trkpt>
      <trkpt lat="46.17529" lon="6.84492">
        <ele>1921</ele>
        <time>2010-01-02T10:10:43Z</time>
      </trkpt>
      <trkpt lat="46.17542" lon="6.84469">
        <ele>1919</ele>
        <time>2010-01-02T10:10:51Z</time>
      </trkpt>
      <trkpt lat="46.17542" lon="6.84469">
        <ele>1919</ele>
        <time>2010-01-02T10:10:52Z</time>
      </trkpt>
      <trkpt lat="46.17551" lon="6.84462">
        <ele>1919</ele>
        <time>2010-01-02T10:10:56Z</time>
      </trkpt>
      <trkpt lat="46.17559" lon="6.84451">
        <ele>1918</ele>
        <time>2010-01-02T10:11:00Z</time>
      </trkpt>
      <trkpt lat="46.17565" lon="6.84448">
        <ele>1918</ele>
        <time>2010-01-02T10:11:02Z</time>
      </trkpt>
      <trkpt lat="46.17568" lon="6.84448">
        <ele>1918</ele>
        <time>2010-01-02T10:11:04Z</time>
      </trkpt>
      <trkpt lat="46.17569" lon="6.84448">
        <ele>1918</ele>
        <time>2010-01-02T10:11:04Z</time>
      </trkpt>
      <trkpt lat="46.17572" lon="6.84441">
        <ele>1917</ele>
        <time>2010-01-02T10:11:06Z</time>
      </trkpt>
      <trkpt lat="46.17572" lon="6.84431">
        <ele>1916</ele>
        <time>2010-01-02T10:11:09Z</time>
      </trkpt>
      <trkpt lat="46.17573" lon="6.84428">
        <ele>1916</ele>
        <time>2010-01-02T10:11:10Z</time>
      </trkpt>
      <trkpt lat="46.17574" lon="6.84413">
        <ele>1911</ele>
        <time>2010-01-02T10:11:14Z</time>
      </trkpt>
      <trkpt lat="46.17574" lon="6.84413">
        <ele>1910</ele>
        <time>2010-01-02T10:11:14Z</time>
      </trkpt>
      <trkpt lat="46.17571" lon="6.84407">
        <ele>1909</ele>
        <time>2010-01-02T10:11:16Z</time>
      </trkpt>
      <trkpt lat="46.17571" lon="6.84404">
        <ele>1909</ele>
        <time>2010-01-02T10:11:17Z</time>
      </trkpt>
      <trkpt lat="46.17574" lon="6.8437">
        <ele>1904</ele>
        <time>2010-01-02T10:11:27Z</time>
      </trkpt>
      <trkpt lat="46.17575" lon="6.84347">
        <ele>1903</ele>
        <time>2010-01-02T10:11:33Z</time>
      </trkpt>
      <trkpt lat="46.1758" lon="6.84305">
        <ele>1899</ele>
        <time>2010-01-02T10:11:45Z</time>
      </trkpt>
      <trkpt lat="46.17572" lon="6.84284">
        <ele>1898</ele>
        <time>2010-01-02T10:11:51Z</time>
      </trkpt>
      <trkpt lat="46.1757" lon="6.84264">
        <ele>1899</ele>
        <time>2010-01-02T10:11:57Z</time>
      </trkpt>
      <trkpt lat="46.17565" lon="6.84244">
        <ele>1897</ele>
        <time>2010-01-02T10:12:03Z</time>
      </trkpt>
      <trkpt lat="46.17569" lon="6.84194">
        <ele>1895</ele>
        <time>2010-01-02T10:12:17Z</time>
      </trkpt>
      <trkpt lat="46.17577" lon="6.84162">
        <ele>1897</ele>
        <time>2010-01-02T10:12:26Z</time>
      </trkpt>
      <trkpt lat="46.17583" lon="6.84138">
        <ele>1891</ele>
        <time>2010-01-02T10:12:33Z</time>
      </trkpt>
      <trkpt lat="46.17588" lon="6.84109">
        <ele>1900</ele>
        <time>2010-01-02T10:12:41Z</time>
      </trkpt>
      <trkpt lat="46.17588" lon="6.84088">
        <ele>1897</ele>
        <time>2010-01-02T10:12:47Z</time>
      </trkpt>
      <trkpt lat="46.1761" lon="6.84003">
        <ele>1897</ele>
        <time>2010-01-02T10:13:12Z</time>
      </trkpt>
      <trkpt lat="46.17624" lon="6.83911">
        <ele>1882</ele>
        <time>2010-01-02T10:13:38Z</time>
      </trkpt>
      <trkpt lat="46.17634" lon="6.83854">
        <ele>1879</ele>
        <time>2010-01-02T10:13:55Z</time>
      </trkpt>
      <trkpt lat="46.17645" lon="6.8383">
        <ele>1872</ele>
        <time>2010-01-02T10:14:03Z</time>
      </trkpt>
      <trkpt lat="46.17671" lon="6.83777">
        <ele>1872</ele>
        <time>2010-01-02T10:14:21Z</time>
      </trkpt>
      <trkpt lat="46.17687" lon="6.83758">
        <ele>1870</ele>
        <time>2010-01-02T10:14:29Z</time>
      </trkpt>
      <trkpt lat="46.17702" lon="6.83752">
        <ele>1870</ele>
        <time>2010-01-02T10:14:35Z</time>
      </trkpt>
      <trkpt lat="46.1772" lon="6.8374">
        <ele>1858</ele>
        <time>2010-01-02T10:14:43Z</time>
      </trkpt>
      <trkpt lat="46.17739" lon="6.8374">
        <ele>1860</ele>
        <time>2010-01-02T10:14:51Z</time>
      </trkpt>
      <trkpt lat="46.17754" lon="6.83725">
        <ele>1856</ele>
        <time>2010-01-02T10:14:58Z</time>
      </trkpt>
      <trkpt lat="46.17765" lon="6.8371">
        <ele>1853</ele>
        <time>2010-01-02T10:15:04Z</time>
      </trkpt>
      <trkpt lat="46.17768" lon="6.83688">
        <ele>1851</ele>
        <time>2010-01-02T10:15:10Z</time>
      </trkpt>
      <trkpt lat="46.17768" lon="6.83686">
        <ele>1851</ele>
        <time>2010-01-02T10:15:11Z</time>
      </trkpt>
      <trkpt lat="46.17768" lon="6.83672">
        <ele>1850</ele>
        <time>2010-01-02T10:15:15Z</time>
      </trkpt>
      <trkpt lat="46.17754" lon="6.83653">
        <ele>1845</ele>
        <time>2010-01-02T10:15:23Z</time>
      </trkpt>
      <trkpt lat="46.17744" lon="6.83632">
        <ele>1842</ele>
        <time>2010-01-02T10:15:30Z</time>
      </trkpt>
      <trkpt lat="46.1774" lon="6.83609">
        <ele>1840</ele>
        <time>2010-01-02T10:15:36Z</time>
      </trkpt>
      <trkpt lat="46.1775" lon="6.83569">
        <ele>1833</ele>
        <time>2010-01-02T10:15:48Z</time>
      </trkpt>
      <trkpt lat="46.17759" lon="6.83538">
        <ele>1829</ele>
        <time>2010-01-02T10:15:58Z</time>
      </trkpt>
      <trkpt lat="46.17769" lon="6.83504">
        <ele>1828</ele>
        <time>2010-01-02T10:16:08Z</time>
      </trkpt>
      <trkpt lat="46.17772" lon="6.83484">
        <ele>1823</ele>
        <time>2010-01-02T10:16:14Z</time>
      </trkpt>
      <trkpt lat="46.17775" lon="6.83464">
        <ele>1821</ele>
        <time>2010-01-02T10:16:19Z</time>
      </trkpt>
      <trkpt lat="46.17778" lon="6.83437">
        <ele>1820</ele>
        <time>2010-01-02T10:16:27Z</time>
      </trkpt>
      <trkpt lat="46.17778" lon="6.83435">
        <ele>1820</ele>
        <time>2010-01-02T10:16:27Z</time>
      </trkpt>
      <trkpt lat="46.17772" lon="6.83412">
        <ele>1816</ele>
        <time>2010-01-02T10:16:34Z</time>
      </trkpt>
      <trkpt lat="46.17767" lon="6.83396">
        <ele>1816</ele>
        <time>2010-01-02T10:16:39Z</time>
      </trkpt>
      <trkpt lat="46.17757" lon="6.83371">
        <ele>1813</ele>
        <time>2010-01-02T10:16:47Z</time>
      </trkpt>
      <trkpt lat="46.17749" lon="6.83356">
        <ele>1809</ele>
        <time>2010-01-02T10:16:52Z</time>
      </trkpt>
      <trkpt lat="46.17755" lon="6.83347">
        <ele>1811</ele>
        <time>2010-01-02T10:16:55Z</time>
      </trkpt>
      <trkpt lat="46.17761" lon="6.83336">
        <ele>1811</ele>
        <time>2010-01-02T10:16:59Z</time>
      </trkpt>
      <trkpt lat="46.17769" lon="6.83316">
        <ele>1808</ele>
        <time>2010-01-02T10:17:06Z</time>
      </trkpt>
      <trkpt lat="46.17785" lon="6.83269">
        <ele>1807</ele>
        <time>2010-01-02T10:17:20Z</time>
      </trkpt>
      <trkpt lat="46.17805" lon="6.83222">
        <ele>1806</ele>
        <time>2010-01-02T10:17:35Z</time>
      </trkpt>
      <trkpt lat="46.17805" lon="6.83205">
        <ele>1806</ele>
        <time>2010-01-02T10:17:40Z</time>
      </trkpt>
      <trkpt lat="46.17821" lon="6.83135">
        <ele>1805</ele>
        <time>2010-01-02T10:18:01Z</time>
      </trkpt>
      <trkpt lat="46.17842" lon="6.83057">
        <ele>1805</ele>
        <time>2010-01-02T10:18:24Z</time>
      </trkpt>
      <trkpt lat="46.17846" lon="6.83046">
        <ele>1805</ele>
        <time>2010-01-02T10:18:27Z</time>
      </trkpt>
      <trkpt lat="46.17851" lon="6.83049">
        <ele>1804</ele>
        <time>2010-01-02T10:18:30Z</time>
      </trkpt>
      <trkpt lat="46.1786" lon="6.83049">
        <ele>1804</ele>
        <time>2010-01-02T10:18:33Z</time>
      </trkpt>
      <trkpt lat="46.1787" lon="6.83039">
        <ele>1803</ele>
        <time>2010-01-02T10:18:38Z</time>
      </trkpt>
      <trkpt lat="46.17883" lon="6.83015">
        <ele>1802</ele>
        <time>2010-01-02T10:18:46Z</time>
      </trkpt>
      <trkpt lat="46.17891" lon="6.82982">
        <ele>1804</ele>
        <time>2010-01-02T10:18:56Z</time>
      </trkpt>
      <trkpt lat="46.17896" lon="6.82958">
        <ele>1805</ele>
        <time>2010-01-02T10:19:03Z</time>
      </trkpt>
      <trkpt lat="46.17901" lon="6.8295">
        <ele>1805</ele>
        <time>2010-01-02T10:19:06Z</time>
      </trkpt>
      <trkpt lat="46.17907" lon="6.82949">
        <ele>1805</ele>
        <time>2010-01-02T10:19:09Z</time>
      </trkpt>
      <trkpt lat="46.17911" lon="6.82957">
        <ele>1805</ele>
        <time>2010-01-02T10:19:11Z</time>
      </trkpt>
      <trkpt lat="46.17915" lon="6.82976">
        <ele>1803</ele>
        <time>2010-01-02T10:19:17Z</time>
      </trkpt>
      <trkpt lat="46.17918" lon="6.82989">
        <ele>1793</ele>
        <time>2010-01-02T10:19:20Z</time>
      </trkpt>
      <trkpt lat="46.17925" lon="6.83">
        <ele>1794</ele>
        <time>2010-01-02T10:19:24Z</time>
      </trkpt>
      <trkpt lat="46.17928" lon="6.83025">
        <ele>1788</ele>
        <time>2010-01-02T10:19:31Z</time>
      </trkpt>
      <trkpt lat="46.17928" lon="6.83049">
        <ele>1787</ele>
        <time>2010-01-02T10:19:38Z</time>
      </trkpt>
      <trkpt lat="46.17928" lon="6.83068">
        <ele>1788</ele>
        <time>2010-01-02T10:19:44Z</time>
      </trkpt>
      <trkpt lat="46.17929" lon="6.83082">
        <ele>1790</ele>
        <time>2010-01-02T10:19:47Z</time>
      </trkpt>
      <trkpt lat="46.1793" lon="6.83094">
        <ele>1790</ele>
        <time>2010-01-02T10:19:51Z</time>
      </trkpt>
      <trkpt lat="46.17935" lon="6.83104">
        <ele>1788</ele>
        <time>2010-01-02T10:19:54Z</time>
      </trkpt>
      <trkpt lat="46.17939" lon="6.83104">
        <ele>1788</ele>
        <time>2010-01-02T10:19:56Z</time>
      </trkpt>
      <trkpt lat="46.1794" lon="6.83101">
        <ele>1788</ele>
        <time>2010-01-02T10:19:56Z</time>
      </trkpt>
      <trkpt lat="46.17942" lon="6.83086">
        <ele>1788</ele>
        <time>2010-01-02T10:20:01Z</time>
      </trkpt>
      <trkpt lat="46.17942" lon="6.83085">
        <ele>1788</ele>
        <time>2010-01-02T10:20:01Z</time>
      </trkpt>
      <trkpt lat="46.17942" lon="6.83084">
        <ele>1788</ele>
        <time>2010-01-02T10:20:01Z</time>
      </trkpt>
      <trkpt lat="46.17952" lon="6.83042">
        <ele>1784</ele>
        <time>2010-01-02T10:20:13Z</time>
      </trkpt>
      <trkpt lat="46.17952" lon="6.83041">
        <ele>1783</ele>
        <time>2010-01-02T10:20:14Z</time>
      </trkpt>
      <trkpt lat="46.17953" lon="6.83039">
        <ele>1783</ele>
        <time>2010-01-02T10:20:14Z</time>
      </trkpt>
      <trkpt lat="46.17962" lon="6.83006">
        <ele>1781</ele>
        <time>2010-01-02T10:20:24Z</time>
      </trkpt>
      <trkpt lat="46.17963" lon="6.83003">
        <ele>1781</ele>
        <time>2010-01-02T10:20:25Z</time>
      </trkpt>
      <trkpt lat="46.17967" lon="6.82971">
        <ele>1784</ele>
        <time>2010-01-02T10:20:34Z</time>
      </trkpt>
      <trkpt lat="46.17967" lon="6.8297">
        <ele>1784</ele>
        <time>2010-01-02T10:20:35Z</time>
      </trkpt>
      <trkpt lat="46.1797" lon="6.82948">
        <ele>1785</ele>
        <time>2010-01-02T10:20:41Z</time>
      </trkpt>
      <trkpt lat="46.17972" lon="6.82946">
        <ele>1785</ele>
        <time>2010-01-02T10:20:42Z</time>
      </trkpt>
      <trkpt lat="46.17988" lon="6.82931">
        <ele>1783</ele>
        <time>2010-01-02T10:20:49Z</time>
      </trkpt>
      <trkpt lat="46.17989" lon="6.8293">
        <ele>1783</ele>
        <time>2010-01-02T10:20:50Z</time>
      </trkpt>
      <trkpt lat="46.18017" lon="6.82929">
        <ele>1771</ele>
        <time>2010-01-02T10:21:01Z</time>
      </trkpt>
      <trkpt lat="46.18047" lon="6.82923">
        <ele>1767</ele>
        <time>2010-01-02T10:21:13Z</time>
      </trkpt>
      <trkpt lat="46.18065" lon="6.82906">
        <ele>1773</ele>
        <time>2010-01-02T10:21:22Z</time>
      </trkpt>
      <trkpt lat="46.18085" lon="6.82896">
        <ele>1764</ele>
        <time>2010-01-02T10:21:30Z</time>
      </trkpt>
      <trkpt lat="46.18101" lon="6.82898">
        <ele>1763</ele>
        <time>2010-01-02T10:21:37Z</time>
      </trkpt>
      <trkpt lat="46.1812" lon="6.82887">
        <ele>1763</ele>
        <time>2010-01-02T10:21:45Z</time>
      </trkpt>
      <trkpt lat="46.18133" lon="6.82881">
        <ele>1762</ele>
        <time>2010-01-02T10:21:50Z</time>
      </trkpt>
      <trkpt lat="46.18142" lon="6.82884">
        <ele>1761</ele>
        <time>2010-01-02T10:21:54Z</time>
      </trkpt>
      <trkpt lat="46.18143" lon="6.82904">
        <ele>1758</ele>
        <time>2010-01-02T10:21:59Z</time>
      </trkpt>
      <trkpt lat="46.18124" lon="6.82935">
        <ele>1750</ele>
        <time>2010-01-02T10:22:11Z</time>
      </trkpt>
      <trkpt lat="46.18115" lon="6.82951">
        <ele>1750</ele>
        <time>2010-01-02T10:22:17Z</time>
      </trkpt>
      <trkpt lat="46.18087" lon="6.82999">
        <ele>1749</ele>
        <time>2010-01-02T10:22:34Z</time>
      </trkpt>
      <trkpt lat="46.18077" lon="6.83031">
        <ele>1753</ele>
        <time>2010-01-02T10:22:44Z</time>
      </trkpt>
      <trkpt lat="46.18076" lon="6.83049">
        <ele>1752</ele>
        <time>2010-01-02T10:22:49Z</time>
      </trkpt>
      <trkpt lat="46.18085" lon="6.83064">
        <ele>1738</ele>
        <time>2010-01-02T10:22:54Z</time>
      </trkpt>
      <trkpt lat="46.18093" lon="6.83087">
        <ele>1737</ele>
        <time>2010-01-02T10:23:02Z</time>
      </trkpt>
      <trkpt lat="46.18098" lon="6.83103">
        <ele>1735</ele>
        <time>2010-01-02T10:23:07Z</time>
      </trkpt>
      <trkpt lat="46.18107" lon="6.83124">
        <ele>1733</ele>
        <time>2010-01-02T10:23:13Z</time>
      </trkpt>
      <trkpt lat="46.1812" lon="6.83139">
        <ele>1732</ele>
        <time>2010-01-02T10:23:20Z</time>
      </trkpt>
      <trkpt lat="46.18138" lon="6.83155">
        <ele>1728</ele>
        <time>2010-01-02T10:23:29Z</time>
      </trkpt>
      <trkpt lat="46.18147" lon="6.83171">
        <ele>1727</ele>
        <time>2010-01-02T10:23:34Z</time>
      </trkpt>
      <trkpt lat="46.18153" lon="6.83176">
        <ele>1726</ele>
        <time>2010-01-02T10:23:37Z</time>
      </trkpt>
      <trkpt lat="46.18161" lon="6.83188">
        <ele>1727</ele>
        <time>2010-01-02T10:23:42Z</time>
      </trkpt>
      <trkpt lat="46.18167" lon="6.83194">
        <ele>1716</ele>
        <time>2010-01-02T10:23:44Z</time>
      </trkpt>
      <trkpt lat="46.18176" lon="6.83195">
        <ele>1715</ele>
        <time>2010-01-02T10:23:48Z</time>
      </trkpt>
      <trkpt lat="46.18177" lon="6.83195">
        <ele>1715</ele>
        <time>2010-01-02T10:23:49Z</time>
      </trkpt>
      <trkpt lat="46.18186" lon="6.83196">
        <ele>1714</ele>
        <time>2010-01-02T10:23:52Z</time>
      </trkpt>
      <trkpt lat="46.18193" lon="6.83203">
        <ele>1714</ele>
        <time>2010-01-02T10:23:56Z</time>
      </trkpt>
      <trkpt lat="46.182" lon="6.83213">
        <ele>1713</ele>
        <time>2010-01-02T10:24:00Z</time>
      </trkpt>
      <trkpt lat="46.18208" lon="6.8322">
        <ele>1713</ele>
        <time>2010-01-02T10:24:03Z</time>
      </trkpt>
      <trkpt lat="46.18214" lon="6.83212">
        <ele>1712</ele>
        <time>2010-01-02T10:24:06Z</time>
      </trkpt>
      <trkpt lat="46.18214" lon="6.83202">
        <ele>1711</ele>
        <time>2010-01-02T10:24:09Z</time>
      </trkpt>
      <trkpt lat="46.18208" lon="6.83177">
        <ele>1712</ele>
        <time>2010-01-02T10:24:16Z</time>
      </trkpt>
      <trkpt lat="46.18205" lon="6.83169">
        <ele>1712</ele>
        <time>2010-01-02T10:24:19Z</time>
      </trkpt>
      <trkpt lat="46.18205" lon="6.83168">
        <ele>1712</ele>
        <time>2010-01-02T10:24:20Z</time>
      </trkpt>
      <trkpt lat="46.18206" lon="6.83157">
        <ele>1712</ele>
        <time>2010-01-02T10:24:23Z</time>
      </trkpt>
      <trkpt lat="46.18208" lon="6.83155">
        <ele>1711</ele>
        <time>2010-01-02T10:24:24Z</time>
      </trkpt>
      <trkpt lat="46.18242" lon="6.83131">
        <ele>1709</ele>
        <time>2010-01-02T10:24:39Z</time>
      </trkpt>
      <trkpt lat="46.18267" lon="6.83124">
        <ele>1705</ele>
        <time>2010-01-02T10:24:49Z</time>
      </trkpt>
      <trkpt lat="46.18261" lon="6.83161">
        <ele>1703</ele>
        <time>2010-01-02T10:24:59Z</time>
      </trkpt>
      <trkpt lat="46.18263" lon="6.83177">
        <ele>1700</ele>
        <time>2010-01-02T10:25:04Z</time>
      </trkpt>
      <trkpt lat="46.18267" lon="6.83196">
        <ele>1699</ele>
        <time>2010-01-02T10:25:09Z</time>
      </trkpt>
      <trkpt lat="46.18276" lon="6.83213">
        <ele>1699</ele>
        <time>2010-01-02T10:25:15Z</time>
      </trkpt>
      <trkpt lat="46.18283" lon="6.83225">
        <ele>1698</ele>
        <time>2010-01-02T10:25:19Z</time>
      </trkpt>
      <trkpt lat="46.18287" lon="6.8324">
        <ele>1698</ele>
        <time>2010-01-02T10:25:24Z</time>
      </trkpt>
      <trkpt lat="46.18294" lon="6.83258">
        <ele>1695</ele>
        <time>2010-01-02T10:25:30Z</time>
      </trkpt>
      <trkpt lat="46.18307" lon="6.83277">
        <ele>1693</ele>
        <time>2010-01-02T10:25:37Z</time>
      </trkpt>
      <trkpt lat="46.18312" lon="6.83292">
        <ele>1693</ele>
        <time>2010-01-02T10:25:41Z</time>
      </trkpt>
      <trkpt lat="46.18322" lon="6.83307">
        <ele>1691</ele>
        <time>2010-01-02T10:25:47Z</time>
      </trkpt>
      <trkpt lat="46.18334" lon="6.83324">
        <ele>1686</ele>
        <time>2010-01-02T10:25:54Z</time>
      </trkpt>
      <trkpt lat="46.18341" lon="6.83331">
        <ele>1686</ele>
        <time>2010-01-02T10:25:57Z</time>
      </trkpt>
      <trkpt lat="46.1834" lon="6.83348">
        <ele>1685</ele>
        <time>2010-01-02T10:26:02Z</time>
      </trkpt>
      <trkpt lat="46.18339" lon="6.83373">
        <ele>1684</ele>
        <time>2010-01-02T10:26:09Z</time>
      </trkpt>
      <trkpt lat="46.1834" lon="6.83392">
        <ele>1684</ele>
        <time>2010-01-02T10:26:14Z</time>
      </trkpt>
      <trkpt lat="46.18348" lon="6.83403">
        <ele>1684</ele>
        <time>2010-01-02T10:26:19Z</time>
      </trkpt>
      <trkpt lat="46.18357" lon="6.83417">
        <ele>1683</ele>
        <time>2010-01-02T10:26:24Z</time>
      </trkpt>
      <trkpt lat="46.18363" lon="6.83422">
        <ele>1683</ele>
        <time>2010-01-02T10:26:27Z</time>
      </trkpt>
      <trkpt lat="46.18369" lon="6.83426">
        <ele>1683</ele>
        <time>2010-01-02T10:26:29Z</time>
      </trkpt>
      <trkpt lat="46.18377" lon="6.83421">
        <ele>1683</ele>
        <time>2010-01-02T10:26:33Z</time>
      </trkpt>
      <trkpt lat="46.18383" lon="6.83418">
        <ele>1683</ele>
        <time>2010-01-02T10:26:35Z</time>
      </trkpt>
      <trkpt lat="46.18505" lon="6.83132">
        <ele>1727</ele>
        <time>2010-01-02T10:28:09Z</time>
      </trkpt>
      <trkpt lat="46.18619" lon="6.8287">
        <ele>1781</ele>
        <time>2010-01-02T10:29:34Z</time>
      </trkpt>
      <trkpt lat="46.18721" lon="6.82639">
        <ele>1844</ele>
        <time>2010-01-02T10:30:50Z</time>
      </trkpt>
      <trkpt lat="46.18819" lon="6.82427">
        <ele>1928</ele>
        <time>2010-01-02T10:32:01Z</time>
      </trkpt>
      <trkpt lat="46.19054" lon="6.81894">
        <ele>2128</ele>
        <time>2010-01-02T10:34:56Z</time>
      </trkpt>
      <trkpt lat="46.19195" lon="6.81587">
        <ele>2230</ele>
        <time>2010-01-02T10:36:38Z</time>
      </trkpt>
      <trkpt lat="46.19195" lon="6.81529">
        <ele>2237</ele>
        <time>2010-01-02T10:36:54Z</time>
      </trkpt>
      <trkpt lat="46.19157" lon="6.81476">
        <ele>2235</ele>
        <time>2010-01-02T10:37:15Z</time>
      </trkpt>
      <trkpt lat="46.19127" lon="6.81471">
        <ele>2230</ele>
        <time>2010-01-02T10:37:27Z</time>
      </trkpt>
      <trkpt lat="46.19093" lon="6.81477">
        <ele>2228</ele>
        <time>2010-01-02T10:37:41Z</time>
      </trkpt>
      <trkpt lat="46.19086" lon="6.81479">
        <ele>2229</ele>
        <time>2010-01-02T10:37:44Z</time>
      </trkpt>
      <trkpt lat="46.19067" lon="6.81498">
        <ele>2213</ele>
        <time>2010-01-02T10:37:53Z</time>
      </trkpt>
      <trkpt lat="46.19048" lon="6.81528">
        <ele>2217</ele>
        <time>2010-01-02T10:38:05Z</time>
      </trkpt>
      <trkpt lat="46.19037" lon="6.81554">
        <ele>2217</ele>
        <time>2010-01-02T10:38:13Z</time>
      </trkpt>
      <trkpt lat="46.19032" lon="6.81566">
        <ele>2216</ele>
        <time>2010-01-02T10:38:17Z</time>
      </trkpt>
      <trkpt lat="46.19029" lon="6.81572">
        <ele>2216</ele>
        <time>2010-01-02T10:38:19Z</time>
      </trkpt>
      <trkpt lat="46.18994" lon="6.8162">
        <ele>2199</ele>
        <time>2010-01-02T10:38:39Z</time>
      </trkpt>
      <trkpt lat="46.18994" lon="6.81621">
        <ele>2199</ele>
        <time>2010-01-02T10:38:39Z</time>
      </trkpt>
      <trkpt lat="46.18964" lon="6.81655">
        <ele>2196</ele>
        <time>2010-01-02T10:38:54Z</time>
      </trkpt>
      <trkpt lat="46.18932" lon="6.81678">
        <ele>2188</ele>
        <time>2010-01-02T10:39:08Z</time>
      </trkpt>
      <trkpt lat="46.18903" lon="6.81694">
        <ele>2174</ele>
        <time>2010-01-02T10:39:21Z</time>
      </trkpt>
      <trkpt lat="46.18887" lon="6.81698">
        <ele>2172</ele>
        <time>2010-01-02T10:39:27Z</time>
      </trkpt>
      <trkpt lat="46.18875" lon="6.81699">
        <ele>2171</ele>
        <time>2010-01-02T10:39:32Z</time>
      </trkpt>
      <trkpt lat="46.18875" lon="6.81699">
        <ele>2171</ele>
        <time>2010-01-02T10:39:32Z</time>
      </trkpt>
      <trkpt lat="46.18866" lon="6.81698">
        <ele>2170</ele>
        <time>2010-01-02T10:39:36Z</time>
      </trkpt>
      <trkpt lat="46.18856" lon="6.81701">
        <ele>2169</ele>
        <time>2010-01-02T10:39:40Z</time>
      </trkpt>
      <trkpt lat="46.18852" lon="6.8171">
        <ele>2169</ele>
        <time>2010-01-02T10:39:43Z</time>
      </trkpt>
      <trkpt lat="46.18853" lon="6.81715">
        <ele>2169</ele>
        <time>2010-01-02T10:39:44Z</time>
      </trkpt>
      <trkpt lat="46.18857" lon="6.81717">
        <ele>2169</ele>
        <time>2010-01-02T10:39:45Z</time>
      </trkpt>
      <trkpt lat="46.18866" lon="6.81716">
        <ele>2170</ele>
        <time>2010-01-02T10:39:49Z</time>
      </trkpt>
      <trkpt lat="46.18872" lon="6.81715">
        <ele>2170</ele>
        <time>2010-01-02T10:39:52Z</time>
      </trkpt>
      <trkpt lat="46.18882" lon="6.81712">
        <ele>2171</ele>
        <time>2010-01-02T10:39:56Z</time>
      </trkpt>
      <trkpt lat="46.18893" lon="6.81716">
        <ele>2171</ele>
        <time>2010-01-02T10:40:00Z</time>
      </trkpt>
      <trkpt lat="46.18903" lon="6.81721">
        <ele>2171</ele>
        <time>2010-01-02T10:40:05Z</time>
      </trkpt>
      <trkpt lat="46.18909" lon="6.81729">
        <ele>2170</ele>
        <time>2010-01-02T10:40:08Z</time>
      </trkpt>
      <trkpt lat="46.18914" lon="6.81735">
        <ele>2170</ele>
        <time>2010-01-02T10:40:10Z</time>
      </trkpt>
      <trkpt lat="46.18925" lon="6.81733">
        <ele>2179</ele>
        <time>2010-01-02T10:40:15Z</time>
      </trkpt>
      <trkpt lat="46.18935" lon="6.81733">
        <ele>2181</ele>
        <time>2010-01-02T10:40:19Z</time>
      </trkpt>
      <trkpt lat="46.18939" lon="6.81737">
        <ele>2181</ele>
        <time>2010-01-02T10:40:21Z</time>
      </trkpt>
      <trkpt lat="46.18945" lon="6.81746">
        <ele>2182</ele>
        <time>2010-01-02T10:40:24Z</time>
      </trkpt>
      <trkpt lat="46.18949" lon="6.81755">
        <ele>2161</ele>
        <time>2010-01-02T10:40:27Z</time>
      </trkpt>
      <trkpt lat="46.18953" lon="6.81765">
        <ele>2160</ele>
        <time>2010-01-02T10:40:30Z</time>
      </trkpt>
      <trkpt lat="46.1896" lon="6.8177">
        <ele>2160</ele>
        <time>2010-01-02T10:40:34Z</time>
      </trkpt>
      <trkpt lat="46.18968" lon="6.81767">
        <ele>2162</ele>
        <time>2010-01-02T10:40:37Z</time>
      </trkpt>
      <trkpt lat="46.18979" lon="6.81762">
        <ele>2167</ele>
        <time>2010-01-02T10:40:41Z</time>
      </trkpt>
      <trkpt lat="46.18989" lon="6.81764">
        <ele>2171</ele>
        <time>2010-01-02T10:40:46Z</time>
      </trkpt>
      <trkpt lat="46.18997" lon="6.81768">
        <ele>2170</ele>
        <time>2010-01-02T10:40:49Z</time>
      </trkpt>
      <trkpt lat="46.19002" lon="6.81775">
        <ele>2175</ele>
        <time>2010-01-02T10:40:52Z</time>
      </trkpt>
      <trkpt lat="46.19007" lon="6.8178">
        <ele>2173</ele>
        <time>2010-01-02T10:40:54Z</time>
      </trkpt>
      <trkpt lat="46.19011" lon="6.81792">
        <ele>2169</ele>
        <time>2010-01-02T10:40:58Z</time>
      </trkpt>
      <trkpt lat="46.19014" lon="6.81804">
        <ele>2165</ele>
        <time>2010-01-02T10:41:01Z</time>
      </trkpt>
      <trkpt lat="46.19018" lon="6.81813">
        <ele>2163</ele>
        <time>2010-01-02T10:41:04Z</time>
      </trkpt>
      <trkpt lat="46.19029" lon="6.81817">
        <ele>2163</ele>
        <time>2010-01-02T10:41:09Z</time>
      </trkpt>
      <trkpt lat="46.19037" lon="6.81807">
        <ele>2167</ele>
        <time>2010-01-02T10:41:13Z</time>
      </trkpt>
      <trkpt lat="46.19046" lon="6.81804">
        <ele>2168</ele>
        <time>2010-01-02T10:41:17Z</time>
      </trkpt>
      <trkpt lat="46.19056" lon="6.81812">
        <ele>2166</ele>
        <time>2010-01-02T10:41:21Z</time>
      </trkpt>
      <trkpt lat="46.19068" lon="6.81825">
        <ele>2163</ele>
        <time>2010-01-02T10:41:27Z</time>
      </trkpt>
      <trkpt lat="46.19073" lon="6.81835">
        <ele>2148</ele>
        <time>2010-01-02T10:41:30Z</time>
      </trkpt>
      <trkpt lat="46.19075" lon="6.81846">
        <ele>2145</ele>
        <time>2010-01-02T10:41:34Z</time>
      </trkpt>
      <trkpt lat="46.19079" lon="6.81857">
        <ele>2141</ele>
        <time>2010-01-02T10:41:37Z</time>
      </trkpt>
      <trkpt lat="46.19084" lon="6.81868">
        <ele>2139</ele>
        <time>2010-01-02T10:41:41Z</time>
      </trkpt>
      <trkpt lat="46.19092" lon="6.81881">
        <ele>2136</ele>
        <time>2010-01-02T10:41:46Z</time>
      </trkpt>
      <trkpt lat="46.19102" lon="6.81897">
        <ele>2132</ele>
        <time>2010-01-02T10:41:52Z</time>
      </trkpt>
      <trkpt lat="46.19113" lon="6.81909">
        <ele>2131</ele>
        <time>2010-01-02T10:41:57Z</time>
      </trkpt>
      <trkpt lat="46.19124" lon="6.8192">
        <ele>2117</ele>
        <time>2010-01-02T10:42:03Z</time>
      </trkpt>
      <trkpt lat="46.19135" lon="6.8193">
        <ele>2117</ele>
        <time>2010-01-02T10:42:08Z</time>
      </trkpt>
      <trkpt lat="46.19146" lon="6.81935">
        <ele>2117</ele>
        <time>2010-01-02T10:42:12Z</time>
      </trkpt>
      <trkpt lat="46.19151" lon="6.8194">
        <ele>2117</ele>
        <time>2010-01-02T10:42:15Z</time>
      </trkpt>
      <trkpt lat="46.19158" lon="6.81946">
        <ele>2117</ele>
        <time>2010-01-02T10:42:18Z</time>
      </trkpt>
      <trkpt lat="46.19164" lon="6.81966">
        <ele>2116</ele>
        <time>2010-01-02T10:42:24Z</time>
      </trkpt>
      <trkpt lat="46.19164" lon="6.8198">
        <ele>2115</ele>
        <time>2010-01-02T10:42:28Z</time>
      </trkpt>
      <trkpt lat="46.19163" lon="6.81988">
        <ele>2116</ele>
        <time>2010-01-02T10:42:30Z</time>
      </trkpt>
      <trkpt lat="46.19169" lon="6.81988">
        <ele>2110</ele>
        <time>2010-01-02T10:42:32Z</time>
      </trkpt>
      <trkpt lat="46.19179" lon="6.81977">
        <ele>2104</ele>
        <time>2010-01-02T10:42:37Z</time>
      </trkpt>
      <trkpt lat="46.19184" lon="6.81967">
        <ele>2102</ele>
        <time>2010-01-02T10:42:41Z</time>
      </trkpt>
      <trkpt lat="46.19192" lon="6.81955">
        <ele>2101</ele>
        <time>2010-01-02T10:42:45Z</time>
      </trkpt>
      <trkpt lat="46.19197" lon="6.81953">
        <ele>2099</ele>
        <time>2010-01-02T10:42:47Z</time>
      </trkpt>
      <trkpt lat="46.19194" lon="6.81969">
        <ele>2100</ele>
        <time>2010-01-02T10:42:52Z</time>
      </trkpt>
      <trkpt lat="46.19189" lon="6.81982">
        <ele>2102</ele>
        <time>2010-01-02T10:42:56Z</time>
      </trkpt>
      <trkpt lat="46.19181" lon="6.82009">
        <ele>2102</ele>
        <time>2010-01-02T10:43:04Z</time>
      </trkpt>
      <trkpt lat="46.19176" lon="6.82018">
        <ele>2100</ele>
        <time>2010-01-02T10:43:07Z</time>
      </trkpt>
      <trkpt lat="46.19172" lon="6.82024">
        <ele>2099</ele>
        <time>2010-01-02T10:43:10Z</time>
      </trkpt>
      <trkpt lat="46.19172" lon="6.82033">
        <ele>2096</ele>
        <time>2010-01-02T10:43:12Z</time>
      </trkpt>
      <trkpt lat="46.19178" lon="6.8207">
        <ele>2091</ele>
        <time>2010-01-02T10:43:23Z</time>
      </trkpt>
      <trkpt lat="46.1918" lon="6.82073">
        <ele>2091</ele>
        <time>2010-01-02T10:43:24Z</time>
      </trkpt>
      <trkpt lat="46.19181" lon="6.82074">
        <ele>2091</ele>
        <time>2010-01-02T10:43:24Z</time>
      </trkpt>
      <trkpt lat="46.19186" lon="6.82083">
        <ele>2090</ele>
        <time>2010-01-02T10:43:27Z</time>
      </trkpt>
      <trkpt lat="46.19187" lon="6.82092">
        <ele>2088</ele>
        <time>2010-01-02T10:43:30Z</time>
      </trkpt>
      <trkpt lat="46.19189" lon="6.82105">
        <ele>2086</ele>
        <time>2010-01-02T10:43:34Z</time>
      </trkpt>
      <trkpt lat="46.1919" lon="6.82115">
        <ele>2086</ele>
        <time>2010-01-02T10:43:36Z</time>
      </trkpt>
      <trkpt lat="46.19196" lon="6.82117">
        <ele>2085</ele>
        <time>2010-01-02T10:43:39Z</time>
      </trkpt>
      <trkpt lat="46.19201" lon="6.82118">
        <ele>2085</ele>
        <time>2010-01-02T10:43:41Z</time>
      </trkpt>
      <trkpt lat="46.19213" lon="6.82122">
        <ele>2084</ele>
        <time>2010-01-02T10:43:46Z</time>
      </trkpt>
      <trkpt lat="46.19219" lon="6.82126">
        <ele>2084</ele>
        <time>2010-01-02T10:43:49Z</time>
      </trkpt>
      <trkpt lat="46.19225" lon="6.82124">
        <ele>2084</ele>
        <time>2010-01-02T10:43:51Z</time>
      </trkpt>
      <trkpt lat="46.19228" lon="6.8212">
        <ele>2083</ele>
        <time>2010-01-02T10:43:53Z</time>
      </trkpt>
      <trkpt lat="46.19227" lon="6.8211">
        <ele>2082</ele>
        <time>2010-01-02T10:43:55Z</time>
      </trkpt>
      <trkpt lat="46.19225" lon="6.82091">
        <ele>2080</ele>
        <time>2010-01-02T10:44:01Z</time>
      </trkpt>
      <trkpt lat="46.19225" lon="6.82077">
        <ele>2080</ele>
        <time>2010-01-02T10:44:05Z</time>
      </trkpt>
      <trkpt lat="46.19225" lon="6.82076">
        <ele>2080</ele>
        <time>2010-01-02T10:44:05Z</time>
      </trkpt>
      <trkpt lat="46.19225" lon="6.82065">
        <ele>2081</ele>
        <time>2010-01-02T10:44:08Z</time>
      </trkpt>
      <trkpt lat="46.19227" lon="6.82057">
        <ele>2081</ele>
        <time>2010-01-02T10:44:10Z</time>
      </trkpt>
      <trkpt lat="46.19231" lon="6.82059">
        <ele>2080</ele>
        <time>2010-01-02T10:44:12Z</time>
      </trkpt>
      <trkpt lat="46.19236" lon="6.82068">
        <ele>2078</ele>
        <time>2010-01-02T10:44:15Z</time>
      </trkpt>
      <trkpt lat="46.19238" lon="6.82074">
        <ele>2076</ele>
        <time>2010-01-02T10:44:17Z</time>
      </trkpt>
      <trkpt lat="46.19239" lon="6.82074">
        <ele>2076</ele>
        <time>2010-01-02T10:44:17Z</time>
      </trkpt>
      <trkpt lat="46.1924" lon="6.82075">
        <ele>2075</ele>
        <time>2010-01-02T10:44:18Z</time>
      </trkpt>
      <trkpt lat="46.1924" lon="6.82076">
        <ele>2075</ele>
        <time>2010-01-02T10:44:18Z</time>
      </trkpt>
      <trkpt lat="46.19241" lon="6.82077">
        <ele>2074</ele>
        <time>2010-01-02T10:44:19Z</time>
      </trkpt>
      <trkpt lat="46.19242" lon="6.82078">
        <ele>2073</ele>
        <time>2010-01-02T10:44:19Z</time>
      </trkpt>
      <trkpt lat="46.19242" lon="6.82079">
        <ele>2073</ele>
        <time>2010-01-02T10:44:19Z</time>
      </trkpt>
      <trkpt lat="46.19243" lon="6.8208">
        <ele>2073</ele>
        <time>2010-01-02T10:44:20Z</time>
      </trkpt>
      <trkpt lat="46.19244" lon="6.82082">
        <ele>2072</ele>
        <time>2010-01-02T10:44:20Z</time>
      </trkpt>
      <trkpt lat="46.19245" lon="6.82083">
        <ele>2071</ele>
        <time>2010-01-02T10:44:21Z</time>
      </trkpt>
      <trkpt lat="46.19245" lon="6.82084">
        <ele>2071</ele>
        <time>2010-01-02T10:44:21Z</time>
      </trkpt>
      <trkpt lat="46.19246" lon="6.82085">
        <ele>2071</ele>
        <time>2010-01-02T10:44:22Z</time>
      </trkpt>
      <trkpt lat="46.19247" lon="6.82085">
        <ele>2070</ele>
        <time>2010-01-02T10:44:22Z</time>
      </trkpt>
      <trkpt lat="46.19247" lon="6.82085">
        <ele>2070</ele>
        <time>2010-01-02T10:44:22Z</time>
      </trkpt>
      <trkpt lat="46.1926" lon="6.821">
        <ele>2073</ele>
        <time>2010-01-02T10:44:29Z</time>
      </trkpt>
      <trkpt lat="46.19278" lon="6.82108">
        <ele>2075</ele>
        <time>2010-01-02T10:44:36Z</time>
      </trkpt>
      <trkpt lat="46.1929" lon="6.82106">
        <ele>2074</ele>
        <time>2010-01-02T10:44:41Z</time>
      </trkpt>
      <trkpt lat="46.19309" lon="6.82094">
        <ele>2070</ele>
        <time>2010-01-02T10:44:49Z</time>
      </trkpt>
      <trkpt lat="46.19329" lon="6.82093">
        <ele>2064</ele>
        <time>2010-01-02T10:44:57Z</time>
      </trkpt>
      <trkpt lat="46.19349" lon="6.82092">
        <ele>2063</ele>
        <time>2010-01-02T10:45:05Z</time>
      </trkpt>
      <trkpt lat="46.19373" lon="6.82079">
        <ele>2046</ele>
        <time>2010-01-02T10:45:16Z</time>
      </trkpt>
      <trkpt lat="46.19376" lon="6.82077">
        <ele>2046</ele>
        <time>2010-01-02T10:45:17Z</time>
      </trkpt>
      <trkpt lat="46.19376" lon="6.82076">
        <ele>2046</ele>
        <time>2010-01-02T10:45:17Z</time>
      </trkpt>
      <trkpt lat="46.19377" lon="6.82075">
        <ele>2046</ele>
        <time>2010-01-02T10:45:17Z</time>
      </trkpt>
      <trkpt lat="46.19378" lon="6.82075">
        <ele>2045</ele>
        <time>2010-01-02T10:45:18Z</time>
      </trkpt>
      <trkpt lat="46.19379" lon="6.82074">
        <ele>2045</ele>
        <time>2010-01-02T10:45:18Z</time>
      </trkpt>
      <trkpt lat="46.1938" lon="6.82074">
        <ele>2045</ele>
        <time>2010-01-02T10:45:19Z</time>
      </trkpt>
      <trkpt lat="46.1938" lon="6.82073">
        <ele>2045</ele>
        <time>2010-01-02T10:45:19Z</time>
      </trkpt>
      <trkpt lat="46.19381" lon="6.82073">
        <ele>2045</ele>
        <time>2010-01-02T10:45:19Z</time>
      </trkpt>
      <trkpt lat="46.19382" lon="6.82072">
        <ele>2045</ele>
        <time>2010-01-02T10:45:20Z</time>
      </trkpt>
      <trkpt lat="46.19383" lon="6.82071">
        <ele>2045</ele>
        <time>2010-01-02T10:45:20Z</time>
      </trkpt>
      <trkpt lat="46.19385" lon="6.8207">
        <ele>2045</ele>
        <time>2010-01-02T10:45:21Z</time>
      </trkpt>
      <trkpt lat="46.19387" lon="6.82069">
        <ele>2045</ele>
        <time>2010-01-02T10:45:22Z</time>
      </trkpt>
      <trkpt lat="46.19389" lon="6.82068">
        <ele>2044</ele>
        <time>2010-01-02T10:45:23Z</time>
      </trkpt>
      <trkpt lat="46.1939" lon="6.82068">
        <ele>2044</ele>
        <time>2010-01-02T10:45:23Z</time>
      </trkpt>
      <trkpt lat="46.19391" lon="6.82067">
        <ele>2044</ele>
        <time>2010-01-02T10:45:24Z</time>
      </trkpt>
      <trkpt lat="46.19393" lon="6.82067">
        <ele>2044</ele>
        <time>2010-01-02T10:45:24Z</time>
      </trkpt>
      <trkpt lat="46.19394" lon="6.82066">
        <ele>2044</ele>
        <time>2010-01-02T10:45:25Z</time>
      </trkpt>
      <trkpt lat="46.19394" lon="6.82066">
        <ele>2044</ele>
        <time>2010-01-02T10:45:25Z</time>
      </trkpt>
      <trkpt lat="46.19396" lon="6.82066">
        <ele>2044</ele>
        <time>2010-01-02T10:45:26Z</time>
      </trkpt>
      <trkpt lat="46.19398" lon="6.82065">
        <ele>2044</ele>
        <time>2010-01-02T10:45:27Z</time>
      </trkpt>
      <trkpt lat="46.19401" lon="6.82063">
        <ele>2044</ele>
        <time>2010-01-02T10:45:28Z</time>
      </trkpt>
      <trkpt lat="46.19401" lon="6.82063">
        <ele>2044</ele>
        <time>2010-01-02T10:45:28Z</time>
      </trkpt>
      <trkpt lat="46.19403" lon="6.82063">
        <ele>2044</ele>
        <time>2010-01-02T10:45:28Z</time>
      </trkpt>
      <trkpt lat="46.19404" lon="6.82062">
        <ele>2044</ele>
        <time>2010-01-02T10:45:29Z</time>
      </trkpt>
      <trkpt lat="46.19405" lon="6.82061">
        <ele>2044</ele>
        <time>2010-01-02T10:45:30Z</time>
      </trkpt>
      <trkpt lat="46.19406" lon="6.82061">
        <ele>2044</ele>
        <time>2010-01-02T10:45:30Z</time>
      </trkpt>
      <trkpt lat="46.19407" lon="6.82061">
        <ele>2044</ele>
        <time>2010-01-02T10:45:30Z</time>
      </trkpt>
      <trkpt lat="46.19409" lon="6.8206">
        <ele>2043</ele>
        <time>2010-01-02T10:45:31Z</time>
      </trkpt>
      <trkpt lat="46.19411" lon="6.82059">
        <ele>2043</ele>
        <time>2010-01-02T10:45:32Z</time>
      </trkpt>
      <trkpt lat="46.19413" lon="6.82058">
        <ele>2043</ele>
        <time>2010-01-02T10:45:33Z</time>
      </trkpt>
      <trkpt lat="46.19414" lon="6.82057">
        <ele>2043</ele>
        <time>2010-01-02T10:45:33Z</time>
      </trkpt>
      <trkpt lat="46.19415" lon="6.82057">
        <ele>2043</ele>
        <time>2010-01-02T10:45:34Z</time>
      </trkpt>
      <trkpt lat="46.19416" lon="6.82056">
        <ele>2043</ele>
        <time>2010-01-02T10:45:34Z</time>
      </trkpt>
      <trkpt lat="46.19417" lon="6.82056">
        <ele>2043</ele>
        <time>2010-01-02T10:45:34Z</time>
      </trkpt>
      <trkpt lat="46.19417" lon="6.82056">
        <ele>2037</ele>
        <time>2010-01-02T10:45:35Z</time>
      </trkpt>
      <trkpt lat="46.19419" lon="6.82055">
        <ele>2036</ele>
        <time>2010-01-02T10:45:35Z</time>
      </trkpt>
      <trkpt lat="46.1942" lon="6.82055">
        <ele>2036</ele>
        <time>2010-01-02T10:45:36Z</time>
      </trkpt>
      <trkpt lat="46.1942" lon="6.82055">
        <ele>2036</ele>
        <time>2010-01-02T10:45:36Z</time>
      </trkpt>
      <trkpt lat="46.19421" lon="6.82055">
        <ele>2036</ele>
        <time>2010-01-02T10:45:36Z</time>
      </trkpt>
      <trkpt lat="46.19423" lon="6.82055">
        <ele>2036</ele>
        <time>2010-01-02T10:45:37Z</time>
      </trkpt>
      <trkpt lat="46.19424" lon="6.82055">
        <ele>2036</ele>
        <time>2010-01-02T10:45:37Z</time>
      </trkpt>
      <trkpt lat="46.19426" lon="6.82056">
        <ele>2036</ele>
        <time>2010-01-02T10:45:38Z</time>
      </trkpt>
      <trkpt lat="46.19426" lon="6.82056">
        <ele>2036</ele>
        <time>2010-01-02T10:45:38Z</time>
      </trkpt>
      <trkpt lat="46.19428" lon="6.82056">
        <ele>2036</ele>
        <time>2010-01-02T10:45:39Z</time>
      </trkpt>
      <trkpt lat="46.1943" lon="6.82057">
        <ele>2036</ele>
        <time>2010-01-02T10:45:40Z</time>
      </trkpt>
      <trkpt lat="46.19431" lon="6.82057">
        <ele>2036</ele>
        <time>2010-01-02T10:45:40Z</time>
      </trkpt>
      <trkpt lat="46.19433" lon="6.82057">
        <ele>2036</ele>
        <time>2010-01-02T10:45:41Z</time>
      </trkpt>
      <trkpt lat="46.19434" lon="6.82057">
        <ele>2036</ele>
        <time>2010-01-02T10:45:42Z</time>
      </trkpt>
      <trkpt lat="46.19436" lon="6.82057">
        <ele>2036</ele>
        <time>2010-01-02T10:45:42Z</time>
      </trkpt>
      <trkpt lat="46.19438" lon="6.82058">
        <ele>2036</ele>
        <time>2010-01-02T10:45:43Z</time>
      </trkpt>
      <trkpt lat="46.19438" lon="6.82058">
        <ele>2036</ele>
        <time>2010-01-02T10:45:43Z</time>
      </trkpt>
      <trkpt lat="46.1944" lon="6.82058">
        <ele>2036</ele>
        <time>2010-01-02T10:45:44Z</time>
      </trkpt>
      <trkpt lat="46.19442" lon="6.82057">
        <ele>2035</ele>
        <time>2010-01-02T10:45:45Z</time>
      </trkpt>
      <trkpt lat="46.19443" lon="6.82058">
        <ele>2035</ele>
        <time>2010-01-02T10:45:45Z</time>
      </trkpt>
      <trkpt lat="46.19443" lon="6.82058">
        <ele>2035</ele>
        <time>2010-01-02T10:45:45Z</time>
      </trkpt>
      <trkpt lat="46.19451" lon="6.82055">
        <ele>2034</ele>
        <time>2010-01-02T10:45:49Z</time>
      </trkpt>
      <trkpt lat="46.19474" lon="6.82051">
        <ele>2032</ele>
        <time>2010-01-02T10:45:58Z</time>
      </trkpt>
      <trkpt lat="46.19489" lon="6.8204">
        <ele>2030</ele>
        <time>2010-01-02T10:46:04Z</time>
      </trkpt>
      <trkpt lat="46.19504" lon="6.82033">
        <ele>2027</ele>
        <time>2010-01-02T10:46:11Z</time>
      </trkpt>
      <trkpt lat="46.19544" lon="6.82008">
        <ele>2025</ele>
        <time>2010-01-02T10:46:28Z</time>
      </trkpt>
      <trkpt lat="46.19607" lon="6.81961">
        <ele>2012</ele>
        <time>2010-01-02T10:46:57Z</time>
      </trkpt>
      <trkpt lat="46.19639" lon="6.81918">
        <ele>2010</ele>
        <time>2010-01-02T10:47:14Z</time>
      </trkpt>
      <trkpt lat="46.19643" lon="6.81903">
        <ele>1998</ele>
        <time>2010-01-02T10:47:18Z</time>
      </trkpt>
      <trkpt lat="46.1965" lon="6.81883">
        <ele>1996</ele>
        <time>2010-01-02T10:47:25Z</time>
      </trkpt>
      <trkpt lat="46.19673" lon="6.81825">
        <ele>1998</ele>
        <time>2010-01-02T10:47:43Z</time>
      </trkpt>
      <trkpt lat="46.1969" lon="6.8179">
        <ele>2001</ele>
        <time>2010-01-02T10:47:55Z</time>
      </trkpt>
      <trkpt lat="46.19699" lon="6.81752">
        <ele>1998</ele>
        <time>2010-01-02T10:48:06Z</time>
      </trkpt>
      <trkpt lat="46.19699" lon="6.81748">
        <ele>1990</ele>
        <time>2010-01-02T10:48:07Z</time>
      </trkpt>
      <trkpt lat="46.19708" lon="6.81699">
        <ele>1989</ele>
        <time>2010-01-02T10:48:21Z</time>
      </trkpt>
      <trkpt lat="46.19708" lon="6.81697">
        <ele>1989</ele>
        <time>2010-01-02T10:48:22Z</time>
      </trkpt>
      <trkpt lat="46.19705" lon="6.81665">
        <ele>1982</ele>
        <time>2010-01-02T10:48:31Z</time>
      </trkpt>
      <trkpt lat="46.1971" lon="6.81606">
        <ele>1981</ele>
        <time>2010-01-02T10:48:47Z</time>
      </trkpt>
      <trkpt lat="46.19712" lon="6.81581">
        <ele>1978</ele>
        <time>2010-01-02T10:48:54Z</time>
      </trkpt>
      <trkpt lat="46.19716" lon="6.81557">
        <ele>1978</ele>
        <time>2010-01-02T10:49:01Z</time>
      </trkpt>
      <trkpt lat="46.19711" lon="6.81546">
        <ele>1978</ele>
        <time>2010-01-02T10:49:05Z</time>
      </trkpt>
      <trkpt lat="46.19702" lon="6.8154">
        <ele>1978</ele>
        <time>2010-01-02T10:49:08Z</time>
      </trkpt>
      <trkpt lat="46.19695" lon="6.81526">
        <ele>1978</ele>
        <time>2010-01-02T10:49:13Z</time>
      </trkpt>
      <trkpt lat="46.19695" lon="6.81509">
        <ele>1978</ele>
        <time>2010-01-02T10:49:18Z</time>
      </trkpt>
      <trkpt lat="46.19693" lon="6.81495">
        <ele>1979</ele>
        <time>2010-01-02T10:49:22Z</time>
      </trkpt>
      <trkpt lat="46.19691" lon="6.81486">
        <ele>1979</ele>
        <time>2010-01-02T10:49:25Z</time>
      </trkpt>
      <trkpt lat="46.19682" lon="6.81469">
        <ele>1979</ele>
        <time>2010-01-02T10:49:30Z</time>
      </trkpt>
      <trkpt lat="46.19679" lon="6.81463">
        <ele>1979</ele>
        <time>2010-01-02T10:49:32Z</time>
      </trkpt>
      <trkpt lat="46.19676" lon="6.81459">
        <ele>1979</ele>
        <time>2010-01-02T10:49:34Z</time>
      </trkpt>
      <trkpt lat="46.1968" lon="6.81442">
        <ele>1980</ele>
        <time>2010-01-02T10:49:39Z</time>
      </trkpt>
      <trkpt lat="46.19683" lon="6.8143">
        <ele>1980</ele>
        <time>2010-01-02T10:49:43Z</time>
      </trkpt>
      <trkpt lat="46.1968" lon="6.81401">
        <ele>1980</ele>
        <time>2010-01-02T10:49:51Z</time>
      </trkpt>
      <trkpt lat="46.19671" lon="6.81379">
        <ele>1980</ele>
        <time>2010-01-02T10:49:58Z</time>
      </trkpt>
      <trkpt lat="46.19662" lon="6.81351">
        <ele>1984</ele>
        <time>2010-01-02T10:50:06Z</time>
      </trkpt>
      <trkpt lat="46.19656" lon="6.81327">
        <ele>1985</ele>
        <time>2010-01-02T10:50:13Z</time>
      </trkpt>
      <trkpt lat="46.19654" lon="6.81314">
        <ele>1985</ele>
        <time>2010-01-02T10:50:17Z</time>
      </trkpt>
      <trkpt lat="46.19661" lon="6.81306">
        <ele>1985</ele>
        <time>2010-01-02T10:50:21Z</time>
      </trkpt>
      <trkpt lat="46.19668" lon="6.81301">
        <ele>1977</ele>
        <time>2010-01-02T10:50:24Z</time>
      </trkpt>
      <trkpt lat="46.19677" lon="6.8129">
        <ele>1976</ele>
        <time>2010-01-02T10:50:29Z</time>
      </trkpt>
      <trkpt lat="46.19691" lon="6.81294">
        <ele>1976</ele>
        <time>2010-01-02T10:50:34Z</time>
      </trkpt>
      <trkpt lat="46.19743" lon="6.81286">
        <ele>1974</ele>
        <time>2010-01-02T10:50:55Z</time>
      </trkpt>
      <trkpt lat="46.19753" lon="6.81283">
        <ele>1967</ele>
        <time>2010-01-02T10:50:59Z</time>
      </trkpt>
      <trkpt lat="46.19769" lon="6.81259">
        <ele>1967</ele>
        <time>2010-01-02T10:51:08Z</time>
      </trkpt>
      <trkpt lat="46.19783" lon="6.81241">
        <ele>1965</ele>
        <time>2010-01-02T10:51:16Z</time>
      </trkpt>
      <trkpt lat="46.19783" lon="6.8124">
        <ele>1965</ele>
        <time>2010-01-02T10:51:16Z</time>
      </trkpt>
      <trkpt lat="46.19784" lon="6.81237">
        <ele>1965</ele>
        <time>2010-01-02T10:51:17Z</time>
      </trkpt>
      <trkpt lat="46.19813" lon="6.81189">
        <ele>1964</ele>
        <time>2010-01-02T10:51:35Z</time>
      </trkpt>
      <trkpt lat="46.19818" lon="6.81176">
        <ele>1964</ele>
        <time>2010-01-02T10:51:39Z</time>
      </trkpt>
      <trkpt lat="46.1982" lon="6.81163">
        <ele>1965</ele>
        <time>2010-01-02T10:51:43Z</time>
      </trkpt>
      <trkpt lat="46.19808" lon="6.81147">
        <ele>1966</ele>
        <time>2010-01-02T10:51:49Z</time>
      </trkpt>
      <trkpt lat="46.19799" lon="6.81133">
        <ele>1967</ele>
        <time>2010-01-02T10:51:55Z</time>
      </trkpt>
      <trkpt lat="46.19798" lon="6.81131">
        <ele>1967</ele>
        <time>2010-01-02T10:51:55Z</time>
      </trkpt>
      <trkpt lat="46.19792" lon="6.81122">
        <ele>1967</ele>
        <time>2010-01-02T10:51:59Z</time>
      </trkpt>
      <trkpt lat="46.19789" lon="6.8111">
        <ele>1968</ele>
        <time>2010-01-02T10:52:02Z</time>
      </trkpt>
      <trkpt lat="46.19789" lon="6.81099">
        <ele>1968</ele>
        <time>2010-01-02T10:52:05Z</time>
      </trkpt>
      <trkpt lat="46.19782" lon="6.81088">
        <ele>1968</ele>
        <time>2010-01-02T10:52:09Z</time>
      </trkpt>
      <trkpt lat="46.19773" lon="6.81078">
        <ele>1969</ele>
        <time>2010-01-02T10:52:14Z</time>
      </trkpt>
      <trkpt lat="46.19774" lon="6.81059">
        <ele>1969</ele>
        <time>2010-01-02T10:52:19Z</time>
      </trkpt>
      <trkpt lat="46.19778" lon="6.81048">
        <ele>1969</ele>
        <time>2010-01-02T10:52:23Z</time>
      </trkpt>
      <trkpt lat="46.19781" lon="6.8103">
        <ele>1968</ele>
        <time>2010-01-02T10:52:28Z</time>
      </trkpt>
      <trkpt lat="46.19795" lon="6.81013">
        <ele>1968</ele>
        <time>2010-01-02T10:52:35Z</time>
      </trkpt>
      <trkpt lat="46.19803" lon="6.80997">
        <ele>1969</ele>
        <time>2010-01-02T10:52:41Z</time>
      </trkpt>
      <trkpt lat="46.19803" lon="6.80979">
        <ele>1970</ele>
        <time>2010-01-02T10:52:46Z</time>
      </trkpt>
      <trkpt lat="46.19802" lon="6.80977">
        <ele>1970</ele>
        <time>2010-01-02T10:52:46Z</time>
      </trkpt>
      <trkpt lat="46.19796" lon="6.80962">
        <ele>1971</ele>
        <time>2010-01-02T10:52:51Z</time>
      </trkpt>
      <trkpt lat="46.19792" lon="6.80944">
        <ele>1971</ele>
        <time>2010-01-02T10:52:56Z</time>
      </trkpt>
      <trkpt lat="46.19784" lon="6.8093">
        <ele>1972</ele>
        <time>2010-01-02T10:53:01Z</time>
      </trkpt>
      <trkpt lat="46.19779" lon="6.80916">
        <ele>1976</ele>
        <time>2010-01-02T10:53:06Z</time>
      </trkpt>
      <trkpt lat="46.19774" lon="6.80905">
        <ele>1976</ele>
        <time>2010-01-02T10:53:09Z</time>
      </trkpt>
      <trkpt lat="46.19778" lon="6.80898">
        <ele>1976</ele>
        <time>2010-01-02T10:53:12Z</time>
      </trkpt>
      <trkpt lat="46.19782" lon="6.80886">
        <ele>1976</ele>
        <time>2010-01-02T10:53:15Z</time>
      </trkpt>
      <trkpt lat="46.19784" lon="6.80878">
        <ele>1977</ele>
        <time>2010-01-02T10:53:18Z</time>
      </trkpt>
      <trkpt lat="46.19787" lon="6.80864">
        <ele>1977</ele>
        <time>2010-01-02T10:53:22Z</time>
      </trkpt>
      <trkpt lat="46.19784" lon="6.80857">
        <ele>1977</ele>
        <time>2010-01-02T10:53:24Z</time>
      </trkpt>
      <trkpt lat="46.19783" lon="6.80848">
        <ele>1978</ele>
        <time>2010-01-02T10:53:27Z</time>
      </trkpt>
      <trkpt lat="46.19777" lon="6.80843">
        <ele>1978</ele>
        <time>2010-01-02T10:53:29Z</time>
      </trkpt>
      <trkpt lat="46.19769" lon="6.8084">
        <ele>1978</ele>
        <time>2010-01-02T10:53:33Z</time>
      </trkpt>
      <trkpt lat="46.19762" lon="6.80835">
        <ele>1978</ele>
        <time>2010-01-02T10:53:36Z</time>
      </trkpt>
      <trkpt lat="46.19758" lon="6.80826">
        <ele>1981</ele>
        <time>2010-01-02T10:53:38Z</time>
      </trkpt>
      <trkpt lat="46.19758" lon="6.80825">
        <ele>1982</ele>
        <time>2010-01-02T10:53:39Z</time>
      </trkpt>
      <trkpt lat="46.19759" lon="6.8081">
        <ele>1984</ele>
        <time>2010-01-02T10:53:43Z</time>
      </trkpt>
      <trkpt lat="46.1976" lon="6.80798">
        <ele>1985</ele>
        <time>2010-01-02T10:53:46Z</time>
      </trkpt>
      <trkpt lat="46.19758" lon="6.80792">
        <ele>1986</ele>
        <time>2010-01-02T10:53:48Z</time>
      </trkpt>
      <trkpt lat="46.19756" lon="6.80786">
        <ele>1986</ele>
        <time>2010-01-02T10:53:50Z</time>
      </trkpt>
      <trkpt lat="46.19748" lon="6.80772">
        <ele>1988</ele>
        <time>2010-01-02T10:53:55Z</time>
      </trkpt>
      <trkpt lat="46.19745" lon="6.80765">
        <ele>1989</ele>
        <time>2010-01-02T10:53:57Z</time>
      </trkpt>
      <trkpt lat="46.19742" lon="6.80759">
        <ele>1989</ele>
        <time>2010-01-02T10:53:59Z</time>
      </trkpt>
      <trkpt lat="46.19738" lon="6.80743">
        <ele>1993</ele>
        <time>2010-01-02T10:54:04Z</time>
      </trkpt>
      <trkpt lat="46.19737" lon="6.80739">
        <ele>1993</ele>
        <time>2010-01-02T10:54:05Z</time>
      </trkpt>
      <trkpt lat="46.19735" lon="6.80735">
        <ele>1994</ele>
        <time>2010-01-02T10:54:07Z</time>
      </trkpt>
      <trkpt lat="46.19732" lon="6.80726">
        <ele>1995</ele>
        <time>2010-01-02T10:54:09Z</time>
      </trkpt>
      <trkpt lat="46.19727" lon="6.80719">
        <ele>1995</ele>
        <time>2010-01-02T10:54:12Z</time>
      </trkpt>
      <trkpt lat="46.19718" lon="6.80712">
        <ele>1996</ele>
        <time>2010-01-02T10:54:16Z</time>
      </trkpt>
      <trkpt lat="46.19712" lon="6.80706">
        <ele>1996</ele>
        <time>2010-01-02T10:54:19Z</time>
      </trkpt>
      <trkpt lat="46.19706" lon="6.80697">
        <ele>1996</ele>
        <time>2010-01-02T10:54:23Z</time>
      </trkpt>
      <trkpt lat="46.19702" lon="6.80692">
        <ele>1997</ele>
        <time>2010-01-02T10:54:25Z</time>
      </trkpt>
      <trkpt lat="46.19701" lon="6.80677">
        <ele>1997</ele>
        <time>2010-01-02T10:54:29Z</time>
      </trkpt>
      <trkpt lat="46.19702" lon="6.80662">
        <ele>2000</ele>
        <time>2010-01-02T10:54:33Z</time>
      </trkpt>
      <trkpt lat="46.19703" lon="6.8065">
        <ele>2000</ele>
        <time>2010-01-02T10:54:36Z</time>
      </trkpt>
      <trkpt lat="46.197" lon="6.80638">
        <ele>2000</ele>
        <time>2010-01-02T10:54:40Z</time>
      </trkpt>
      <trkpt lat="46.19697" lon="6.8063">
        <ele>2000</ele>
        <time>2010-01-02T10:54:43Z</time>
      </trkpt>
      <trkpt lat="46.19697" lon="6.80619">
        <ele>2000</ele>
        <time>2010-01-02T10:54:45Z</time>
      </trkpt>
      <trkpt lat="46.19696" lon="6.80616">
        <ele>2000</ele>
        <time>2010-01-02T10:54:46Z</time>
      </trkpt>
      <trkpt lat="46.19692" lon="6.80601">
        <ele>2000</ele>
        <time>2010-01-02T10:54:51Z</time>
      </trkpt>
      <trkpt lat="46.19693" lon="6.80579">
        <ele>1999</ele>
        <time>2010-01-02T10:54:57Z</time>
      </trkpt>
      <trkpt lat="46.1969" lon="6.80561">
        <ele>1999</ele>
        <time>2010-01-02T10:55:02Z</time>
      </trkpt>
      <trkpt lat="46.19692" lon="6.80541">
        <ele>1999</ele>
        <time>2010-01-02T10:55:08Z</time>
      </trkpt>
      <trkpt lat="46.19699" lon="6.8053">
        <ele>1999</ele>
        <time>2010-01-02T10:55:12Z</time>
      </trkpt>
      <trkpt lat="46.197" lon="6.80509">
        <ele>1999</ele>
        <time>2010-01-02T10:55:17Z</time>
      </trkpt>
      <trkpt lat="46.19702" lon="6.80493">
        <ele>1994</ele>
        <time>2010-01-02T10:55:22Z</time>
      </trkpt>
      <trkpt lat="46.19707" lon="6.80478">
        <ele>1994</ele>
        <time>2010-01-02T10:55:27Z</time>
      </trkpt>
      <trkpt lat="46.19718" lon="6.80464">
        <ele>1994</ele>
        <time>2010-01-02T10:55:33Z</time>
      </trkpt>
      <trkpt lat="46.19737" lon="6.80438">
        <ele>1994</ele>
        <time>2010-01-02T10:55:43Z</time>
      </trkpt>
      <trkpt lat="46.19754" lon="6.80415">
        <ele>1998</ele>
        <time>2010-01-02T10:55:52Z</time>
      </trkpt>
      <trkpt lat="46.1976" lon="6.80401">
        <ele>1998</ele>
        <time>2010-01-02T10:55:57Z</time>
      </trkpt>
      <trkpt lat="46.19771" lon="6.80374">
        <ele>1997</ele>
        <time>2010-01-02T10:56:06Z</time>
      </trkpt>
      <trkpt lat="46.19789" lon="6.80339">
        <ele>1997</ele>
        <time>2010-01-02T10:56:18Z</time>
      </trkpt>
      <trkpt lat="46.19801" lon="6.80314">
        <ele>1988</ele>
        <time>2010-01-02T10:56:26Z</time>
      </trkpt>
      <trkpt lat="46.19808" lon="6.80289">
        <ele>1986</ele>
        <time>2010-01-02T10:56:33Z</time>
      </trkpt>
      <trkpt lat="46.19809" lon="6.80273">
        <ele>1985</ele>
        <time>2010-01-02T10:56:38Z</time>
      </trkpt>
      <trkpt lat="46.19814" lon="6.8026">
        <ele>1985</ele>
        <time>2010-01-02T10:56:42Z</time>
      </trkpt>
      <trkpt lat="46.19819" lon="6.80249">
        <ele>1980</ele>
        <time>2010-01-02T10:56:46Z</time>
      </trkpt>
      <trkpt lat="46.19822" lon="6.80237">
        <ele>1979</ele>
        <time>2010-01-02T10:56:49Z</time>
      </trkpt>
      <trkpt lat="46.19824" lon="6.80218">
        <ele>1975</ele>
        <time>2010-01-02T10:56:55Z</time>
      </trkpt>
      <trkpt lat="46.19829" lon="6.80203">
        <ele>1974</ele>
        <time>2010-01-02T10:56:59Z</time>
      </trkpt>
      <trkpt lat="46.19829" lon="6.80186">
        <ele>1974</ele>
        <time>2010-01-02T10:57:04Z</time>
      </trkpt>
      <trkpt lat="46.19833" lon="6.80176">
        <ele>1975</ele>
        <time>2010-01-02T10:57:07Z</time>
      </trkpt>
      <trkpt lat="46.19834" lon="6.80162">
        <ele>1977</ele>
        <time>2010-01-02T10:57:11Z</time>
      </trkpt>
      <trkpt lat="46.19836" lon="6.80146">
        <ele>1978</ele>
        <time>2010-01-02T10:57:15Z</time>
      </trkpt>
      <trkpt lat="46.19844" lon="6.8012">
        <ele>1976</ele>
        <time>2010-01-02T10:57:24Z</time>
      </trkpt>
      <trkpt lat="46.1985" lon="6.80097">
        <ele>1974</ele>
        <time>2010-01-02T10:57:30Z</time>
      </trkpt>
      <trkpt lat="46.19857" lon="6.80081">
        <ele>1967</ele>
        <time>2010-01-02T10:57:36Z</time>
      </trkpt>
      <trkpt lat="46.19869" lon="6.80056">
        <ele>1967</ele>
        <time>2010-01-02T10:57:44Z</time>
      </trkpt>
      <trkpt lat="46.19881" lon="6.80042">
        <ele>1967</ele>
        <time>2010-01-02T10:57:50Z</time>
      </trkpt>
      <trkpt lat="46.1989" lon="6.80023">
        <ele>1966</ele>
        <time>2010-01-02T10:57:57Z</time>
      </trkpt>
      <trkpt lat="46.19901" lon="6.80005">
        <ele>1965</ele>
        <time>2010-01-02T10:58:03Z</time>
      </trkpt>
      <trkpt lat="46.1991" lon="6.79982">
        <ele>1958</ele>
        <time>2010-01-02T10:58:10Z</time>
      </trkpt>
      <trkpt lat="46.19919" lon="6.79955">
        <ele>1955</ele>
        <time>2010-01-02T10:58:19Z</time>
      </trkpt>
      <trkpt lat="46.19925" lon="6.79946">
        <ele>1954</ele>
        <time>2010-01-02T10:58:22Z</time>
      </trkpt>
      <trkpt lat="46.1993" lon="6.7994">
        <ele>1953</ele>
        <time>2010-01-02T10:58:25Z</time>
      </trkpt>
      <trkpt lat="46.1993" lon="6.79939">
        <ele>1953</ele>
        <time>2010-01-02T10:58:25Z</time>
      </trkpt>
      <trkpt lat="46.1994" lon="6.79933">
        <ele>1953</ele>
        <time>2010-01-02T10:58:30Z</time>
      </trkpt>
      <trkpt lat="46.19948" lon="6.79921">
        <ele>1952</ele>
        <time>2010-01-02T10:58:34Z</time>
      </trkpt>
      <trkpt lat="46.19958" lon="6.79915">
        <ele>1944</ele>
        <time>2010-01-02T10:58:38Z</time>
      </trkpt>
      <trkpt lat="46.19972" lon="6.79907">
        <ele>1944</ele>
        <time>2010-01-02T10:58:44Z</time>
      </trkpt>
      <trkpt lat="46.19983" lon="6.79899">
        <ele>1945</ele>
        <time>2010-01-02T10:58:50Z</time>
      </trkpt>
      <trkpt lat="46.20005" lon="6.79879">
        <ele>1947</ele>
        <time>2010-01-02T10:59:00Z</time>
      </trkpt>
      <trkpt lat="46.20017" lon="6.79863">
        <ele>1946</ele>
        <time>2010-01-02T10:59:07Z</time>
      </trkpt>
      <trkpt lat="46.20024" lon="6.79857">
        <ele>1946</ele>
        <time>2010-01-02T10:59:10Z</time>
      </trkpt>
      <trkpt lat="46.20028" lon="6.79853">
        <ele>1946</ele>
        <time>2010-01-02T10:59:12Z</time>
      </trkpt>
      <trkpt lat="46.20034" lon="6.79844">
        <ele>1946</ele>
        <time>2010-01-02T10:59:15Z</time>
      </trkpt>
      <trkpt lat="46.20034" lon="6.79841">
        <ele>1946</ele>
        <time>2010-01-02T10:59:16Z</time>
      </trkpt>
      <trkpt lat="46.20035" lon="6.79834">
        <ele>1945</ele>
        <time>2010-01-02T10:59:18Z</time>
      </trkpt>
      <trkpt lat="46.20038" lon="6.79823">
        <ele>1938</ele>
        <time>2010-01-02T10:59:21Z</time>
      </trkpt>
      <trkpt lat="46.2004" lon="6.79818">
        <ele>1938</ele>
        <time>2010-01-02T10:59:23Z</time>
      </trkpt>
      <trkpt lat="46.20044" lon="6.79809">
        <ele>1938</ele>
        <time>2010-01-02T10:59:26Z</time>
      </trkpt>
      <trkpt lat="46.20048" lon="6.798">
        <ele>1938</ele>
        <time>2010-01-02T10:59:29Z</time>
      </trkpt>
      <trkpt lat="46.2005" lon="6.79793">
        <ele>1937</ele>
        <time>2010-01-02T10:59:31Z</time>
      </trkpt>
      <trkpt lat="46.20051" lon="6.79789">
        <ele>1937</ele>
        <time>2010-01-02T10:59:32Z</time>
      </trkpt>
      <trkpt lat="46.20057" lon="6.79782">
        <ele>1937</ele>
        <time>2010-01-02T10:59:35Z</time>
      </trkpt>
      <trkpt lat="46.20059" lon="6.79777">
        <ele>1937</ele>
        <time>2010-01-02T10:59:37Z</time>
      </trkpt>
      <trkpt lat="46.2006" lon="6.79776">
        <ele>1937</ele>
        <time>2010-01-02T10:59:37Z</time>
      </trkpt>
      <trkpt lat="46.20061" lon="6.79775">
        <ele>1937</ele>
        <time>2010-01-02T10:59:38Z</time>
      </trkpt>
      <trkpt lat="46.20063" lon="6.79774">
        <ele>1937</ele>
        <time>2010-01-02T10:59:38Z</time>
      </trkpt>
      <trkpt lat="46.20063" lon="6.79773">
        <ele>1937</ele>
        <time>2010-01-02T10:59:39Z</time>
      </trkpt>
      <trkpt lat="46.20069" lon="6.79771">
        <ele>1937</ele>
        <time>2010-01-02T10:59:41Z</time>
      </trkpt>
      <trkpt lat="46.20083" lon="6.79769">
        <ele>1937</ele>
        <time>2010-01-02T10:59:47Z</time>
      </trkpt>
      <trkpt lat="46.20093" lon="6.79764">
        <ele>1945</ele>
        <time>2010-01-02T10:59:51Z</time>
      </trkpt>
      <trkpt lat="46.20101" lon="6.79755">
        <ele>1946</ele>
        <time>2010-01-02T10:59:55Z</time>
      </trkpt>
      <trkpt lat="46.20104" lon="6.7974">
        <ele>1935</ele>
        <time>2010-01-02T10:59:59Z</time>
      </trkpt>
      <trkpt lat="46.20104" lon="6.79728">
        <ele>1933</ele>
        <time>2010-01-02T11:00:03Z</time>
      </trkpt>
      <trkpt lat="46.20106" lon="6.79725">
        <ele>1933</ele>
        <time>2010-01-02T11:00:04Z</time>
      </trkpt>
      <trkpt lat="46.20108" lon="6.79723">
        <ele>1933</ele>
        <time>2010-01-02T11:00:05Z</time>
      </trkpt>
      <trkpt lat="46.20109" lon="6.79716">
        <ele>1932</ele>
        <time>2010-01-02T11:00:07Z</time>
      </trkpt>
      <trkpt lat="46.20102" lon="6.79712">
        <ele>1931</ele>
        <time>2010-01-02T11:00:10Z</time>
      </trkpt>
      <trkpt lat="46.20099" lon="6.79706">
        <ele>1930</ele>
        <time>2010-01-02T11:00:12Z</time>
      </trkpt>
      <trkpt lat="46.20091" lon="6.79699">
        <ele>1928</ele>
        <time>2010-01-02T11:00:15Z</time>
      </trkpt>
      <trkpt lat="46.20085" lon="6.79694">
        <ele>1926</ele>
        <time>2010-01-02T11:00:18Z</time>
      </trkpt>
      <trkpt lat="46.20083" lon="6.79687">
        <ele>1919</ele>
        <time>2010-01-02T11:00:20Z</time>
      </trkpt>
      <trkpt lat="46.20087" lon="6.79683">
        <ele>1922</ele>
        <time>2010-01-02T11:00:22Z</time>
      </trkpt>
      <trkpt lat="46.20091" lon="6.79684">
        <ele>1923</ele>
        <time>2010-01-02T11:00:24Z</time>
      </trkpt>
      <trkpt lat="46.20095" lon="6.79685">
        <ele>1924</ele>
        <time>2010-01-02T11:00:26Z</time>
      </trkpt>
      <trkpt lat="46.20096" lon="6.79686">
        <ele>1925</ele>
        <time>2010-01-02T11:00:26Z</time>
      </trkpt>
      <trkpt lat="46.20097" lon="6.79686">
        <ele>1925</ele>
        <time>2010-01-02T11:00:26Z</time>
      </trkpt>
      <trkpt lat="46.20098" lon="6.79686">
        <ele>1925</ele>
        <time>2010-01-02T11:00:27Z</time>
      </trkpt>
      <trkpt lat="46.20099" lon="6.79686">
        <ele>1925</ele>
        <time>2010-01-02T11:00:28Z</time>
      </trkpt>
      <trkpt lat="46.201" lon="6.79685">
        <ele>1925</ele>
        <time>2010-01-02T11:00:28Z</time>
      </trkpt>
      <trkpt lat="46.20101" lon="6.79685">
        <ele>1925</ele>
        <time>2010-01-02T11:00:28Z</time>
      </trkpt>
      <trkpt lat="46.20101" lon="6.79685">
        <ele>1925</ele>
        <time>2010-01-02T11:00:28Z</time>
      </trkpt>
      <trkpt lat="46.20103" lon="6.79683">
        <ele>1925</ele>
        <time>2010-01-02T11:00:29Z</time>
      </trkpt>
      <trkpt lat="46.20103" lon="6.79682">
        <ele>1925</ele>
        <time>2010-01-02T11:00:29Z</time>
      </trkpt>
      <trkpt lat="46.20103" lon="6.79681">
        <ele>1925</ele>
        <time>2010-01-02T11:00:30Z</time>
      </trkpt>
      <trkpt lat="46.20104" lon="6.7968">
        <ele>1925</ele>
        <time>2010-01-02T11:00:30Z</time>
      </trkpt>
      <trkpt lat="46.20105" lon="6.79679">
        <ele>1925</ele>
        <time>2010-01-02T11:00:31Z</time>
      </trkpt>
      <trkpt lat="46.20106" lon="6.79678">
        <ele>1925</ele>
        <time>2010-01-02T11:00:31Z</time>
      </trkpt>
      <trkpt lat="46.20106" lon="6.79677">
        <ele>1925</ele>
        <time>2010-01-02T11:00:31Z</time>
      </trkpt>
      <trkpt lat="46.20107" lon="6.79676">
        <ele>1925</ele>
        <time>2010-01-02T11:00:32Z</time>
      </trkpt>
      <trkpt lat="46.20107" lon="6.79676">
        <ele>1925</ele>
        <time>2010-01-02T11:00:32Z</time>
      </trkpt>
      <trkpt lat="46.20108" lon="6.79675">
        <ele>1925</ele>
        <time>2010-01-02T11:00:32Z</time>
      </trkpt>
      <trkpt lat="46.20109" lon="6.79674">
        <ele>1925</ele>
        <time>2010-01-02T11:00:33Z</time>
      </trkpt>
      <trkpt lat="46.20109" lon="6.79673">
        <ele>1925</ele>
        <time>2010-01-02T11:00:33Z</time>
      </trkpt>
      <trkpt lat="46.2011" lon="6.79671">
        <ele>1925</ele>
        <time>2010-01-02T11:00:34Z</time>
      </trkpt>
      <trkpt lat="46.2011" lon="6.7967">
        <ele>1925</ele>
        <time>2010-01-02T11:00:34Z</time>
      </trkpt>
      <trkpt lat="46.2011" lon="6.79669">
        <ele>1925</ele>
        <time>2010-01-02T11:00:34Z</time>
      </trkpt>
      <trkpt lat="46.2011" lon="6.79668">
        <ele>1925</ele>
        <time>2010-01-02T11:00:35Z</time>
      </trkpt>
      <trkpt lat="46.2011" lon="6.79667">
        <ele>1909</ele>
        <time>2010-01-02T11:00:35Z</time>
      </trkpt>
      <trkpt lat="46.20111" lon="6.79666">
        <ele>1909</ele>
        <time>2010-01-02T11:00:35Z</time>
      </trkpt>
      <trkpt lat="46.20111" lon="6.79664">
        <ele>1909</ele>
        <time>2010-01-02T11:00:36Z</time>
      </trkpt>
      <trkpt lat="46.20111" lon="6.79663">
        <ele>1909</ele>
        <time>2010-01-02T11:00:36Z</time>
      </trkpt>
      <trkpt lat="46.20111" lon="6.79662">
        <ele>1909</ele>
        <time>2010-01-02T11:00:36Z</time>
      </trkpt>
      <trkpt lat="46.20111" lon="6.79661">
        <ele>1909</ele>
        <time>2010-01-02T11:00:37Z</time>
      </trkpt>
      <trkpt lat="46.20111" lon="6.79659">
        <ele>1909</ele>
        <time>2010-01-02T11:00:37Z</time>
      </trkpt>
      <trkpt lat="46.20111" lon="6.79658">
        <ele>1909</ele>
        <time>2010-01-02T11:00:37Z</time>
      </trkpt>
      <trkpt lat="46.20111" lon="6.79657">
        <ele>1908</ele>
        <time>2010-01-02T11:00:38Z</time>
      </trkpt>
      <trkpt lat="46.20111" lon="6.79655">
        <ele>1908</ele>
        <time>2010-01-02T11:00:38Z</time>
      </trkpt>
      <trkpt lat="46.20111" lon="6.79655">
        <ele>1908</ele>
        <time>2010-01-02T11:00:38Z</time>
      </trkpt>
      <trkpt lat="46.20111" lon="6.79653">
        <ele>1908</ele>
        <time>2010-01-02T11:00:39Z</time>
      </trkpt>
      <trkpt lat="46.20111" lon="6.79651">
        <ele>1908</ele>
        <time>2010-01-02T11:00:39Z</time>
      </trkpt>
      <trkpt lat="46.20112" lon="6.7965">
        <ele>1908</ele>
        <time>2010-01-02T11:00:40Z</time>
      </trkpt>
      <trkpt lat="46.20112" lon="6.79649">
        <ele>1908</ele>
        <time>2010-01-02T11:00:40Z</time>
      </trkpt>
      <trkpt lat="46.20112" lon="6.79647">
        <ele>1907</ele>
        <time>2010-01-02T11:00:40Z</time>
      </trkpt>
      <trkpt lat="46.20112" lon="6.79646">
        <ele>1907</ele>
        <time>2010-01-02T11:00:41Z</time>
      </trkpt>
      <trkpt lat="46.20113" lon="6.79646">
        <ele>1907</ele>
        <time>2010-01-02T11:00:41Z</time>
      </trkpt>
      <trkpt lat="46.20114" lon="6.79644">
        <ele>1907</ele>
        <time>2010-01-02T11:00:42Z</time>
      </trkpt>
      <trkpt lat="46.20114" lon="6.79644">
        <ele>1907</ele>
        <time>2010-01-02T11:00:42Z</time>
      </trkpt>
      <trkpt lat="46.20115" lon="6.79642">
        <ele>1907</ele>
        <time>2010-01-02T11:00:42Z</time>
      </trkpt>
      <trkpt lat="46.20116" lon="6.79641">
        <ele>1907</ele>
        <time>2010-01-02T11:00:43Z</time>
      </trkpt>
      <trkpt lat="46.20116" lon="6.79641">
        <ele>1907</ele>
        <time>2010-01-02T11:00:43Z</time>
      </trkpt>
      <trkpt lat="46.20117" lon="6.7964">
        <ele>1907</ele>
        <time>2010-01-02T11:00:43Z</time>
      </trkpt>
      <trkpt lat="46.20118" lon="6.7964">
        <ele>1907</ele>
        <time>2010-01-02T11:00:44Z</time>
      </trkpt>
      <trkpt lat="46.20119" lon="6.79639">
        <ele>1907</ele>
        <time>2010-01-02T11:00:44Z</time>
      </trkpt>
      <trkpt lat="46.2012" lon="6.79638">
        <ele>1907</ele>
        <time>2010-01-02T11:00:44Z</time>
      </trkpt>
      <trkpt lat="46.20121" lon="6.79638">
        <ele>1907</ele>
        <time>2010-01-02T11:00:45Z</time>
      </trkpt>
      <trkpt lat="46.20122" lon="6.79637">
        <ele>1907</ele>
        <time>2010-01-02T11:00:46Z</time>
      </trkpt>
      <trkpt lat="46.20124" lon="6.79636">
        <ele>1907</ele>
        <time>2010-01-02T11:00:46Z</time>
      </trkpt>
      <trkpt lat="46.20124" lon="6.79635">
        <ele>1906</ele>
        <time>2010-01-02T11:00:46Z</time>
      </trkpt>
      <trkpt lat="46.20124" lon="6.79634">
        <ele>1906</ele>
        <time>2010-01-02T11:00:47Z</time>
      </trkpt>
      <trkpt lat="46.20124" lon="6.79633">
        <ele>1906</ele>
        <time>2010-01-02T11:00:47Z</time>
      </trkpt>
      <trkpt lat="46.20124" lon="6.79633">
        <ele>1906</ele>
        <time>2010-01-02T11:00:47Z</time>
      </trkpt>
      <trkpt lat="46.20127" lon="6.7963">
        <ele>1906</ele>
        <time>2010-01-02T11:00:48Z</time>
      </trkpt>
      <trkpt lat="46.2014" lon="6.79605">
        <ele>1904</ele>
        <time>2010-01-02T11:00:57Z</time>
      </trkpt>
      <trkpt lat="46.20142" lon="6.79585">
        <ele>1902</ele>
        <time>2010-01-02T11:01:03Z</time>
      </trkpt>
      <trkpt lat="46.20157" lon="6.79564">
        <ele>1891</ele>
        <time>2010-01-02T11:01:11Z</time>
      </trkpt>
      <trkpt lat="46.20165" lon="6.79537">
        <ele>1885</ele>
        <time>2010-01-02T11:01:19Z</time>
      </trkpt>
      <trkpt lat="46.20176" lon="6.79518">
        <ele>1897</ele>
        <time>2010-01-02T11:01:26Z</time>
      </trkpt>
      <trkpt lat="46.2019" lon="6.79501">
        <ele>1898</ele>
        <time>2010-01-02T11:01:34Z</time>
      </trkpt>
      <trkpt lat="46.20206" lon="6.79476">
        <ele>1884</ele>
        <time>2010-01-02T11:01:43Z</time>
      </trkpt>
      <trkpt lat="46.2022" lon="6.79462">
        <ele>1884</ele>
        <time>2010-01-02T11:01:50Z</time>
      </trkpt>
      <trkpt lat="46.20229" lon="6.7945">
        <ele>1883</ele>
        <time>2010-01-02T11:01:55Z</time>
      </trkpt>
      <trkpt lat="46.20242" lon="6.79437">
        <ele>1882</ele>
        <time>2010-01-02T11:02:01Z</time>
      </trkpt>
      <trkpt lat="46.2025" lon="6.79419">
        <ele>1882</ele>
        <time>2010-01-02T11:02:07Z</time>
      </trkpt>
      <trkpt lat="46.20264" lon="6.794">
        <ele>1880</ele>
        <time>2010-01-02T11:02:15Z</time>
      </trkpt>
      <trkpt lat="46.20281" lon="6.79379">
        <ele>1879</ele>
        <time>2010-01-02T11:02:23Z</time>
      </trkpt>
      <trkpt lat="46.20296" lon="6.79348">
        <ele>1876</ele>
        <time>2010-01-02T11:02:34Z</time>
      </trkpt>
      <trkpt lat="46.2031" lon="6.79325">
        <ele>1862</ele>
        <time>2010-01-02T11:02:42Z</time>
      </trkpt>
      <trkpt lat="46.20324" lon="6.79311">
        <ele>1862</ele>
        <time>2010-01-02T11:02:49Z</time>
      </trkpt>
      <trkpt lat="46.20334" lon="6.79285">
        <ele>1869</ele>
        <time>2010-01-02T11:02:57Z</time>
      </trkpt>
      <trkpt lat="46.20344" lon="6.79265">
        <ele>1864</ele>
        <time>2010-01-02T11:03:04Z</time>
      </trkpt>
      <trkpt lat="46.20353" lon="6.79261">
        <ele>1865</ele>
        <time>2010-01-02T11:03:08Z</time>
      </trkpt>
      <trkpt lat="46.2037" lon="6.79259">
        <ele>1868</ele>
        <time>2010-01-02T11:03:15Z</time>
      </trkpt>
      <trkpt lat="46.20391" lon="6.79254">
        <ele>1869</ele>
        <time>2010-01-02T11:03:23Z</time>
      </trkpt>
      <trkpt lat="46.20411" lon="6.79247">
        <ele>1861</ele>
        <time>2010-01-02T11:03:32Z</time>
      </trkpt>
      <trkpt lat="46.2043" lon="6.79231">
        <ele>1859</ele>
        <time>2010-01-02T11:03:41Z</time>
      </trkpt>
      <trkpt lat="46.20444" lon="6.79225">
        <ele>1857</ele>
        <time>2010-01-02T11:03:46Z</time>
      </trkpt>
      <trkpt lat="46.20457" lon="6.79222">
        <ele>1857</ele>
        <time>2010-01-02T11:03:51Z</time>
      </trkpt>
      <trkpt lat="46.20475" lon="6.79205">
        <ele>1855</ele>
        <time>2010-01-02T11:04:00Z</time>
      </trkpt>
      <trkpt lat="46.20496" lon="6.79196">
        <ele>1852</ele>
        <time>2010-01-02T11:04:09Z</time>
      </trkpt>
      <trkpt lat="46.2051" lon="6.79189">
        <ele>1853</ele>
        <time>2010-01-02T11:04:15Z</time>
      </trkpt>
      <trkpt lat="46.20522" lon="6.79181">
        <ele>1853</ele>
        <time>2010-01-02T11:04:20Z</time>
      </trkpt>
      <trkpt lat="46.2054" lon="6.79155">
        <ele>1841</ele>
        <time>2010-01-02T11:04:30Z</time>
      </trkpt>
      <trkpt lat="46.20556" lon="6.79139">
        <ele>1841</ele>
        <time>2010-01-02T11:04:38Z</time>
      </trkpt>
      <trkpt lat="46.20573" lon="6.7913">
        <ele>1841</ele>
        <time>2010-01-02T11:04:45Z</time>
      </trkpt>
      <trkpt lat="46.20586" lon="6.79114">
        <ele>1842</ele>
        <time>2010-01-02T11:04:52Z</time>
      </trkpt>
      <trkpt lat="46.20599" lon="6.79099">
        <ele>1841</ele>
        <time>2010-01-02T11:04:59Z</time>
      </trkpt>
      <trkpt lat="46.20608" lon="6.79081">
        <ele>1833</ele>
        <time>2010-01-02T11:05:05Z</time>
      </trkpt>
      <trkpt lat="46.20617" lon="6.79064">
        <ele>1832</ele>
        <time>2010-01-02T11:05:11Z</time>
      </trkpt>
      <trkpt lat="46.20636" lon="6.7904">
        <ele>1831</ele>
        <time>2010-01-02T11:05:21Z</time>
      </trkpt>
      <trkpt lat="46.20652" lon="6.79025">
        <ele>1830</ele>
        <time>2010-01-02T11:05:29Z</time>
      </trkpt>
      <trkpt lat="46.20662" lon="6.79019">
        <ele>1829</ele>
        <time>2010-01-02T11:05:33Z</time>
      </trkpt>
      <trkpt lat="46.20666" lon="6.79012">
        <ele>1828</ele>
        <time>2010-01-02T11:05:36Z</time>
      </trkpt>
      <trkpt lat="46.20669" lon="6.78996">
        <ele>1826</ele>
        <time>2010-01-02T11:05:40Z</time>
      </trkpt>
      <trkpt lat="46.20681" lon="6.78983">
        <ele>1825</ele>
        <time>2010-01-02T11:05:46Z</time>
      </trkpt>
      <trkpt lat="46.20688" lon="6.78977">
        <ele>1824</ele>
        <time>2010-01-02T11:05:49Z</time>
      </trkpt>
      <trkpt lat="46.20695" lon="6.78973">
        <ele>1824</ele>
        <time>2010-01-02T11:05:52Z</time>
      </trkpt>
      <trkpt lat="46.20698" lon="6.78963">
        <ele>1823</ele>
        <time>2010-01-02T11:05:55Z</time>
      </trkpt>
      <trkpt lat="46.20699" lon="6.7895">
        <ele>1822</ele>
        <time>2010-01-02T11:05:59Z</time>
      </trkpt>
      <trkpt lat="46.20703" lon="6.78928">
        <ele>1820</ele>
        <time>2010-01-02T11:06:06Z</time>
      </trkpt>
      <trkpt lat="46.20709" lon="6.78913">
        <ele>1812</ele>
        <time>2010-01-02T11:06:10Z</time>
      </trkpt>
      <trkpt lat="46.20715" lon="6.78896">
        <ele>1812</ele>
        <time>2010-01-02T11:06:16Z</time>
      </trkpt>
      <trkpt lat="46.20716" lon="6.78895">
        <ele>1812</ele>
        <time>2010-01-02T11:06:16Z</time>
      </trkpt>
      <trkpt lat="46.20724" lon="6.78874">
        <ele>1811</ele>
        <time>2010-01-02T11:06:23Z</time>
      </trkpt>
      <trkpt lat="46.20733" lon="6.78857">
        <ele>1810</ele>
        <time>2010-01-02T11:06:29Z</time>
      </trkpt>
      <trkpt lat="46.20741" lon="6.78848">
        <ele>1810</ele>
        <time>2010-01-02T11:06:33Z</time>
      </trkpt>
      <trkpt lat="46.20745" lon="6.78844">
        <ele>1809</ele>
        <time>2010-01-02T11:06:35Z</time>
      </trkpt>
      <trkpt lat="46.20743" lon="6.78837">
        <ele>1809</ele>
        <time>2010-01-02T11:06:37Z</time>
      </trkpt>
      <trkpt lat="46.20746" lon="6.78826">
        <ele>1806</ele>
        <time>2010-01-02T11:06:40Z</time>
      </trkpt>
      <trkpt lat="46.20749" lon="6.78818">
        <ele>1804</ele>
        <time>2010-01-02T11:06:42Z</time>
      </trkpt>
      <trkpt lat="46.20752" lon="6.78799">
        <ele>1805</ele>
        <time>2010-01-02T11:06:48Z</time>
      </trkpt>
      <trkpt lat="46.20752" lon="6.78791">
        <ele>1804</ele>
        <time>2010-01-02T11:06:50Z</time>
      </trkpt>
      <trkpt lat="46.20755" lon="6.7878">
        <ele>1803</ele>
        <time>2010-01-02T11:06:53Z</time>
      </trkpt>
      <trkpt lat="46.20767" lon="6.7877">
        <ele>1802</ele>
        <time>2010-01-02T11:06:59Z</time>
      </trkpt>
      <trkpt lat="46.20779" lon="6.78762">
        <ele>1802</ele>
        <time>2010-01-02T11:07:04Z</time>
      </trkpt>
      <trkpt lat="46.20787" lon="6.78756">
        <ele>1802</ele>
        <time>2010-01-02T11:07:08Z</time>
      </trkpt>
      <trkpt lat="46.20808" lon="6.78749">
        <ele>1788</ele>
        <time>2010-01-02T11:07:17Z</time>
      </trkpt>
      <trkpt lat="46.20845" lon="6.78729">
        <ele>1787</ele>
        <time>2010-01-02T11:07:33Z</time>
      </trkpt>
      <trkpt lat="46.20881" lon="6.7871">
        <ele>1783</ele>
        <time>2010-01-02T11:07:48Z</time>
      </trkpt>
      <trkpt lat="46.20896" lon="6.78697">
        <ele>1780</ele>
        <time>2010-01-02T11:07:55Z</time>
      </trkpt>
      <trkpt lat="46.20908" lon="6.78689">
        <ele>1778</ele>
        <time>2010-01-02T11:08:00Z</time>
      </trkpt>
      <trkpt lat="46.20915" lon="6.78685">
        <ele>1777</ele>
        <time>2010-01-02T11:08:03Z</time>
      </trkpt>
      <trkpt lat="46.20927" lon="6.78678">
        <ele>1780</ele>
        <time>2010-01-02T11:08:08Z</time>
      </trkpt>
      <trkpt lat="46.20937" lon="6.78683">
        <ele>1783</ele>
        <time>2010-01-02T11:08:13Z</time>
      </trkpt>
      <trkpt lat="46.2094" lon="6.78672">
        <ele>1782</ele>
        <time>2010-01-02T11:08:16Z</time>
      </trkpt>
      <trkpt lat="46.20943" lon="6.78645">
        <ele>1768</ele>
        <time>2010-01-02T11:08:23Z</time>
      </trkpt>
      <trkpt lat="46.20958" lon="6.78605">
        <ele>1764</ele>
        <time>2010-01-02T11:08:36Z</time>
      </trkpt>
      <trkpt lat="46.20976" lon="6.78587">
        <ele>1764</ele>
        <time>2010-01-02T11:08:45Z</time>
      </trkpt>
      <trkpt lat="46.21" lon="6.78577">
        <ele>1759</ele>
        <time>2010-01-02T11:08:55Z</time>
      </trkpt>
      <trkpt lat="46.2102" lon="6.7857">
        <ele>1763</ele>
        <time>2010-01-02T11:09:03Z</time>
      </trkpt>
      <trkpt lat="46.21051" lon="6.78511">
        <ele>1760</ele>
        <time>2010-01-02T11:09:24Z</time>
      </trkpt>
      <trkpt lat="46.21065" lon="6.78485">
        <ele>1747</ele>
        <time>2010-01-02T11:09:33Z</time>
      </trkpt>
      <trkpt lat="46.21074" lon="6.78453">
        <ele>1742</ele>
        <time>2010-01-02T11:09:42Z</time>
      </trkpt>
      <trkpt lat="46.21079" lon="6.78413">
        <ele>1741</ele>
        <time>2010-01-02T11:09:54Z</time>
      </trkpt>
      <trkpt lat="46.21086" lon="6.78387">
        <ele>1750</ele>
        <time>2010-01-02T11:10:01Z</time>
      </trkpt>
      <trkpt lat="46.21093" lon="6.78365">
        <ele>1747</ele>
        <time>2010-01-02T11:10:08Z</time>
      </trkpt>
      <trkpt lat="46.21096" lon="6.78346">
        <ele>1741</ele>
        <time>2010-01-02T11:10:13Z</time>
      </trkpt>
      <trkpt lat="46.21096" lon="6.78328">
        <ele>1729</ele>
        <time>2010-01-02T11:10:18Z</time>
      </trkpt>
      <trkpt lat="46.211" lon="6.78306">
        <ele>1730</ele>
        <time>2010-01-02T11:10:25Z</time>
      </trkpt>
      <trkpt lat="46.21119" lon="6.78251">
        <ele>1727</ele>
        <time>2010-01-02T11:10:42Z</time>
      </trkpt>
      <trkpt lat="46.2112" lon="6.78222">
        <ele>1714</ele>
        <time>2010-01-02T11:10:50Z</time>
      </trkpt>
      <trkpt lat="46.21121" lon="6.78216">
        <ele>1714</ele>
        <time>2010-01-02T11:10:51Z</time>
      </trkpt>
      <trkpt lat="46.21127" lon="6.78181">
        <ele>1712</ele>
        <time>2010-01-02T11:11:01Z</time>
      </trkpt>
      <trkpt lat="46.21134" lon="6.78148">
        <ele>1700</ele>
        <time>2010-01-02T11:11:11Z</time>
      </trkpt>
      <trkpt lat="46.21142" lon="6.78115">
        <ele>1697</ele>
        <time>2010-01-02T11:11:21Z</time>
      </trkpt>
      <trkpt lat="46.21145" lon="6.78085">
        <ele>1697</ele>
        <time>2010-01-02T11:11:29Z</time>
      </trkpt>
      <trkpt lat="46.21157" lon="6.7804">
        <ele>1679</ele>
        <time>2010-01-02T11:11:43Z</time>
      </trkpt>
      <trkpt lat="46.21167" lon="6.77993">
        <ele>1681</ele>
        <time>2010-01-02T11:11:56Z</time>
      </trkpt>
      <trkpt lat="46.21181" lon="6.77948">
        <ele>1676</ele>
        <time>2010-01-02T11:12:10Z</time>
      </trkpt>
      <trkpt lat="46.2119" lon="6.77907">
        <ele>1657</ele>
        <time>2010-01-02T11:12:22Z</time>
      </trkpt>
      <trkpt lat="46.21219" lon="6.77866">
        <ele>1656</ele>
        <time>2010-01-02T11:12:38Z</time>
      </trkpt>
      <trkpt lat="46.21248" lon="6.77816">
        <ele>1643</ele>
        <time>2010-01-02T11:12:56Z</time>
      </trkpt>
      <trkpt lat="46.21269" lon="6.77771">
        <ele>1649</ele>
        <time>2010-01-02T11:13:11Z</time>
      </trkpt>
      <trkpt lat="46.21273" lon="6.77754">
        <ele>1647</ele>
        <time>2010-01-02T11:13:16Z</time>
      </trkpt>
      <trkpt lat="46.21264" lon="6.77752">
        <ele>1642</ele>
        <time>2010-01-02T11:13:20Z</time>
      </trkpt>
      <trkpt lat="46.21248" lon="6.77752">
        <ele>1630</ele>
        <time>2010-01-02T11:13:26Z</time>
      </trkpt>
      <trkpt lat="46.21195" lon="6.77781">
        <ele>1627</ele>
        <time>2010-01-02T11:13:49Z</time>
      </trkpt>
      <trkpt lat="46.21121" lon="6.77828">
        <ele>1606</ele>
        <time>2010-01-02T11:14:21Z</time>
      </trkpt>
      <trkpt lat="46.21095" lon="6.77851">
        <ele>1613</ele>
        <time>2010-01-02T11:14:33Z</time>
      </trkpt>
      <trkpt lat="46.2107" lon="6.77863">
        <ele>1598</ele>
        <time>2010-01-02T11:14:44Z</time>
      </trkpt>
      <trkpt lat="46.21069" lon="6.77863">
        <ele>1598</ele>
        <time>2010-01-02T11:14:44Z</time>
      </trkpt>
      <trkpt lat="46.2105" lon="6.77872">
        <ele>1596</ele>
        <time>2010-01-02T11:14:52Z</time>
      </trkpt>
      <trkpt lat="46.21049" lon="6.77871">
        <ele>1596</ele>
        <time>2010-01-02T11:14:53Z</time>
      </trkpt>
      <trkpt lat="46.21047" lon="6.77873">
        <ele>1596</ele>
        <time>2010-01-02T11:14:53Z</time>
      </trkpt>
      <trkpt lat="46.2102" lon="6.77907">
        <ele>1592</ele>
        <time>2010-01-02T11:15:08Z</time>
      </trkpt>
      <trkpt lat="46.20941" lon="6.77998">
        <ele>1573</ele>
        <time>2010-01-02T11:15:48Z</time>
      </trkpt>
      <trkpt lat="46.20893" lon="6.78029">
        <ele>1562</ele>
        <time>2010-01-02T11:16:09Z</time>
      </trkpt>
      <trkpt lat="46.20835" lon="6.78053">
        <ele>1557</ele>
        <time>2010-01-02T11:16:33Z</time>
      </trkpt>
      <trkpt lat="46.20815" lon="6.78054">
        <ele>1544</ele>
        <time>2010-01-02T11:16:42Z</time>
      </trkpt>
      <trkpt lat="46.20785" lon="6.78052">
        <ele>1541</ele>
        <time>2010-01-02T11:16:53Z</time>
      </trkpt>
      <trkpt lat="46.20766" lon="6.78049">
        <ele>1539</ele>
        <time>2010-01-02T11:17:01Z</time>
      </trkpt>
      <trkpt lat="46.20747" lon="6.7805">
        <ele>1530</ele>
        <time>2010-01-02T11:17:09Z</time>
      </trkpt>
      <trkpt lat="46.20731" lon="6.78045">
        <ele>1529</ele>
        <time>2010-01-02T11:17:15Z</time>
      </trkpt>
      <trkpt lat="46.20728" lon="6.78011">
        <ele>1526</ele>
        <time>2010-01-02T11:17:25Z</time>
      </trkpt>
      <trkpt lat="46.20733" lon="6.77979">
        <ele>1519</ele>
        <time>2010-01-02T11:17:34Z</time>
      </trkpt>
      <trkpt lat="46.20742" lon="6.77935">
        <ele>1515</ele>
        <time>2010-01-02T11:17:47Z</time>
      </trkpt>
      <trkpt lat="46.20748" lon="6.77902">
        <ele>1511</ele>
        <time>2010-01-02T11:17:56Z</time>
      </trkpt>
      <trkpt lat="46.20746" lon="6.77887">
        <ele>1509</ele>
        <time>2010-01-02T11:18:00Z</time>
      </trkpt>
      <trkpt lat="46.20734" lon="6.77833">
        <ele>1504</ele>
        <time>2010-01-02T11:18:16Z</time>
      </trkpt>
      <trkpt lat="46.20714" lon="6.77791">
        <ele>1502</ele>
        <time>2010-01-02T11:18:30Z</time>
      </trkpt>
      <trkpt lat="46.20702" lon="6.77785">
        <ele>1502</ele>
        <time>2010-01-02T11:18:35Z</time>
      </trkpt>
      <trkpt lat="46.207" lon="6.77778">
        <ele>1502</ele>
        <time>2010-01-02T11:18:37Z</time>
      </trkpt>
      <trkpt lat="46.20698" lon="6.77764">
        <ele>1501</ele>
        <time>2010-01-02T11:18:41Z</time>
      </trkpt>
      <trkpt lat="46.207" lon="6.77745">
        <ele>1500</ele>
        <time>2010-01-02T11:18:47Z</time>
      </trkpt>
      <trkpt lat="46.20711" lon="6.7773">
        <ele>1500</ele>
        <time>2010-01-02T11:18:53Z</time>
      </trkpt>
      <trkpt lat="46.20717" lon="6.7772">
        <ele>1500</ele>
        <time>2010-01-02T11:18:56Z</time>
      </trkpt>
      <trkpt lat="46.20719" lon="6.77716">
        <ele>1500</ele>
        <time>2010-01-02T11:18:58Z</time>
      </trkpt>
      <trkpt lat="46.20722" lon="6.77713">
        <ele>1500</ele>
        <time>2010-01-02T11:18:59Z</time>
      </trkpt>
      <trkpt lat="46.20726" lon="6.7771">
        <ele>1500</ele>
        <time>2010-01-02T11:19:01Z</time>
      </trkpt>
      <trkpt lat="46.20734" lon="6.77705">
        <ele>1500</ele>
        <time>2010-01-02T11:19:05Z</time>
      </trkpt>
      <trkpt lat="46.20747" lon="6.77693">
        <ele>1500</ele>
        <time>2010-01-02T11:19:11Z</time>
      </trkpt>
      <trkpt lat="46.20761" lon="6.77679">
        <ele>1502</ele>
        <time>2010-01-02T11:19:17Z</time>
      </trkpt>
      <trkpt lat="46.20777" lon="6.77638">
        <ele>1502</ele>
        <time>2010-01-02T11:19:30Z</time>
      </trkpt>
      <trkpt lat="46.20798" lon="6.77616">
        <ele>1503</ele>
        <time>2010-01-02T11:19:41Z</time>
      </trkpt>
      <trkpt lat="46.20819" lon="6.776">
        <ele>1502</ele>
        <time>2010-01-02T11:19:51Z</time>
      </trkpt>
      <trkpt lat="46.20827" lon="6.77594">
        <ele>1501</ele>
        <time>2010-01-02T11:19:54Z</time>
      </trkpt>
      <trkpt lat="46.20843" lon="6.77591">
        <ele>1504</ele>
        <time>2010-01-02T11:20:00Z</time>
      </trkpt>
      <trkpt lat="46.20849" lon="6.77577">
        <ele>1503</ele>
        <time>2010-01-02T11:20:05Z</time>
      </trkpt>
      <trkpt lat="46.20855" lon="6.77566">
        <ele>1504</ele>
        <time>2010-01-02T11:20:09Z</time>
      </trkpt>
      <trkpt lat="46.20861" lon="6.77559">
        <ele>1505</ele>
        <time>2010-01-02T11:20:12Z</time>
      </trkpt>
      <trkpt lat="46.20868" lon="6.77553">
        <ele>1505</ele>
        <time>2010-01-02T11:20:15Z</time>
      </trkpt>
      <trkpt lat="46.20873" lon="6.77548">
        <ele>1505</ele>
        <time>2010-01-02T11:20:17Z</time>
      </trkpt>
      <trkpt lat="46.2088" lon="6.77546">
        <ele>1505</ele>
        <time>2010-01-02T11:20:20Z</time>
      </trkpt>
      <trkpt lat="46.20887" lon="6.77541">
        <ele>1505</ele>
        <time>2010-01-02T11:20:23Z</time>
      </trkpt>
      <trkpt lat="46.20894" lon="6.77534">
        <ele>1504</ele>
        <time>2010-01-02T11:20:27Z</time>
      </trkpt>
      <trkpt lat="46.20904" lon="6.77524">
        <ele>1503</ele>
        <time>2010-01-02T11:20:32Z</time>
      </trkpt>
      <trkpt lat="46.2091" lon="6.77509">
        <ele>1500</ele>
        <time>2010-01-02T11:20:36Z</time>
      </trkpt>
      <trkpt lat="46.20912" lon="6.77496">
        <ele>1498</ele>
        <time>2010-01-02T11:20:40Z</time>
      </trkpt>
      <trkpt lat="46.20913" lon="6.77485">
        <ele>1500</ele>
        <time>2010-01-02T11:20:43Z</time>
      </trkpt>
      <trkpt lat="46.20918" lon="6.77483">
        <ele>1494</ele>
        <time>2010-01-02T11:20:45Z</time>
      </trkpt>
      <trkpt lat="46.20925" lon="6.7748">
        <ele>1494</ele>
        <time>2010-01-02T11:20:48Z</time>
      </trkpt>
      <trkpt lat="46.20932" lon="6.77472">
        <ele>1493</ele>
        <time>2010-01-02T11:20:52Z</time>
      </trkpt>
      <trkpt lat="46.20938" lon="6.77463">
        <ele>1492</ele>
        <time>2010-01-02T11:20:55Z</time>
      </trkpt>
      <trkpt lat="46.20951" lon="6.77441">
        <ele>1490</ele>
        <time>2010-01-02T11:21:03Z</time>
      </trkpt>
      <trkpt lat="46.20961" lon="6.77435">
        <ele>1489</ele>
        <time>2010-01-02T11:21:08Z</time>
      </trkpt>
      <trkpt lat="46.20976" lon="6.77441">
        <ele>1488</ele>
        <time>2010-01-02T11:21:14Z</time>
      </trkpt>
      <trkpt lat="46.20989" lon="6.77442">
        <ele>1488</ele>
        <time>2010-01-02T11:21:19Z</time>
      </trkpt>
      <trkpt lat="46.20996" lon="6.77442">
        <ele>1487</ele>
        <time>2010-01-02T11:21:21Z</time>
      </trkpt>
      <trkpt lat="46.21004" lon="6.77441">
        <ele>1488</ele>
        <time>2010-01-02T11:21:25Z</time>
      </trkpt>
      <trkpt lat="46.21013" lon="6.77438">
        <ele>1488</ele>
        <time>2010-01-02T11:21:28Z</time>
      </trkpt>
      <trkpt lat="46.21023" lon="6.77437">
        <ele>1489</ele>
        <time>2010-01-02T11:21:32Z</time>
      </trkpt>
      <trkpt lat="46.21033" lon="6.77434">
        <ele>1490</ele>
        <time>2010-01-02T11:21:36Z</time>
      </trkpt>
      <trkpt lat="46.21042" lon="6.77432">
        <ele>1490</ele>
        <time>2010-01-02T11:21:40Z</time>
      </trkpt>
      <trkpt lat="46.21048" lon="6.77425">
        <ele>1489</ele>
        <time>2010-01-02T11:21:43Z</time>
      </trkpt>
      <trkpt lat="46.21059" lon="6.77419">
        <ele>1487</ele>
        <time>2010-01-02T11:21:48Z</time>
      </trkpt>
      <trkpt lat="46.2107" lon="6.77416">
        <ele>1477</ele>
        <time>2010-01-02T11:21:53Z</time>
      </trkpt>
      <trkpt lat="46.21078" lon="6.77411">
        <ele>1477</ele>
        <time>2010-01-02T11:21:56Z</time>
      </trkpt>
      <trkpt lat="46.21086" lon="6.77405">
        <ele>1480</ele>
        <time>2010-01-02T11:22:00Z</time>
      </trkpt>
      <trkpt lat="46.21092" lon="6.77396">
        <ele>1481</ele>
        <time>2010-01-02T11:22:03Z</time>
      </trkpt>
      <trkpt lat="46.21099" lon="6.77384">
        <ele>1481</ele>
        <time>2010-01-02T11:22:08Z</time>
      </trkpt>
      <trkpt lat="46.211" lon="6.77368">
        <ele>1479</ele>
        <time>2010-01-02T11:22:12Z</time>
      </trkpt>
      <trkpt lat="46.21093" lon="6.77355">
        <ele>1476</ele>
        <time>2010-01-02T11:22:16Z</time>
      </trkpt>
      <trkpt lat="46.2108" lon="6.77354">
        <ele>1471</ele>
        <time>2010-01-02T11:22:22Z</time>
      </trkpt>
      <trkpt lat="46.21062" lon="6.77355">
        <ele>1471</ele>
        <time>2010-01-02T11:22:29Z</time>
      </trkpt>
      <trkpt lat="46.21046" lon="6.77357">
        <ele>1471</ele>
        <time>2010-01-02T11:22:35Z</time>
      </trkpt>
      <trkpt lat="46.21035" lon="6.77356">
        <ele>1471</ele>
        <time>2010-01-02T11:22:40Z</time>
      </trkpt>
      <trkpt lat="46.21021" lon="6.77347">
        <ele>1470</ele>
        <time>2010-01-02T11:22:46Z</time>
      </trkpt>
      <trkpt lat="46.21007" lon="6.77332">
        <ele>1464</ele>
        <time>2010-01-02T11:22:53Z</time>
      </trkpt>
      <trkpt lat="46.21008" lon="6.77316">
        <ele>1462</ele>
        <time>2010-01-02T11:22:57Z</time>
      </trkpt>
      <trkpt lat="46.2102" lon="6.7731">
        <ele>1461</ele>
        <time>2010-01-02T11:23:02Z</time>
      </trkpt>
      <trkpt lat="46.21021" lon="6.77308">
        <ele>1461</ele>
        <time>2010-01-02T11:23:03Z</time>
      </trkpt>
      <trkpt lat="46.21033" lon="6.77302">
        <ele>1460</ele>
        <time>2010-01-02T11:23:08Z</time>
      </trkpt>
      <trkpt lat="46.21046" lon="6.77296">
        <ele>1460</ele>
        <time>2010-01-02T11:23:13Z</time>
      </trkpt>
      <trkpt lat="46.21063" lon="6.77295">
        <ele>1460</ele>
        <time>2010-01-02T11:23:20Z</time>
      </trkpt>
      <trkpt lat="46.21077" lon="6.77299">
        <ele>1461</ele>
        <time>2010-01-02T11:23:26Z</time>
      </trkpt>
      <trkpt lat="46.21089" lon="6.77301">
        <ele>1463</ele>
        <time>2010-01-02T11:23:31Z</time>
      </trkpt>
      <trkpt lat="46.21106" lon="6.7729">
        <ele>1462</ele>
        <time>2010-01-02T11:23:38Z</time>
      </trkpt>
      <trkpt lat="46.21122" lon="6.77269">
        <ele>1460</ele>
        <time>2010-01-02T11:23:47Z</time>
      </trkpt>
      <trkpt lat="46.2114" lon="6.77251">
        <ele>1458</ele>
        <time>2010-01-02T11:23:55Z</time>
      </trkpt>
      <trkpt lat="46.21157" lon="6.7723">
        <ele>1444</ele>
        <time>2010-01-02T11:24:05Z</time>
      </trkpt>
      <trkpt lat="46.2117" lon="6.77214">
        <ele>1444</ele>
        <time>2010-01-02T11:24:11Z</time>
      </trkpt>
      <trkpt lat="46.21185" lon="6.77202">
        <ele>1441</ele>
        <time>2010-01-02T11:24:18Z</time>
      </trkpt>
      <trkpt lat="46.21199" lon="6.77192">
        <ele>1441</ele>
        <time>2010-01-02T11:24:24Z</time>
      </trkpt>
      <trkpt lat="46.21215" lon="6.77182">
        <ele>1440</ele>
        <time>2010-01-02T11:24:31Z</time>
      </trkpt>
      <trkpt lat="46.21232" lon="6.77175">
        <ele>1439</ele>
        <time>2010-01-02T11:24:38Z</time>
      </trkpt>
      <trkpt lat="46.21253" lon="6.77165">
        <ele>1431</ele>
        <time>2010-01-02T11:24:47Z</time>
      </trkpt>
      <trkpt lat="46.21274" lon="6.77163">
        <ele>1424</ele>
        <time>2010-01-02T11:24:56Z</time>
      </trkpt>
      <trkpt lat="46.21291" lon="6.77161">
        <ele>1424</ele>
        <time>2010-01-02T11:25:02Z</time>
      </trkpt>
      <trkpt lat="46.21313" lon="6.77154">
        <ele>1426</ele>
        <time>2010-01-02T11:25:11Z</time>
      </trkpt>
      <trkpt lat="46.21327" lon="6.77151">
        <ele>1428</ele>
        <time>2010-01-02T11:25:17Z</time>
      </trkpt>
      <trkpt lat="46.21353" lon="6.77143">
        <ele>1430</ele>
        <time>2010-01-02T11:25:28Z</time>
      </trkpt>
      <trkpt lat="46.21372" lon="6.77125">
        <ele>1427</ele>
        <time>2010-01-02T11:25:37Z</time>
      </trkpt>
      <trkpt lat="46.21383" lon="6.77111">
        <ele>1424</ele>
        <time>2010-01-02T11:25:43Z</time>
      </trkpt>
      <trkpt lat="46.21418" lon="6.77088">
        <ele>1421</ele>
        <time>2010-01-02T11:25:58Z</time>
      </trkpt>
      <trkpt lat="46.21436" lon="6.77076">
        <ele>1418</ele>
        <time>2010-01-02T11:26:06Z</time>
      </trkpt>
      <trkpt lat="46.21448" lon="6.77066">
        <ele>1421</ele>
        <time>2010-01-02T11:26:12Z</time>
      </trkpt>
      <trkpt lat="46.21453" lon="6.77059">
        <ele>1422</ele>
        <time>2010-01-02T11:26:14Z</time>
      </trkpt>
      <trkpt lat="46.21453" lon="6.77059">
        <ele>1422</ele>
        <time>2010-01-02T11:26:15Z</time>
      </trkpt>
      <trkpt lat="46.21453" lon="6.77053">
        <ele>1421</ele>
        <time>2010-01-02T11:26:16Z</time>
      </trkpt>
      <trkpt lat="46.21454" lon="6.77044">
        <ele>1420</ele>
        <time>2010-01-02T11:26:19Z</time>
      </trkpt>
      <trkpt lat="46.21453" lon="6.77043">
        <ele>1420</ele>
        <time>2010-01-02T11:26:19Z</time>
      </trkpt>
      <trkpt lat="46.21455" lon="6.7705">
        <ele>1421</ele>
        <time>2010-01-02T11:26:21Z</time>
      </trkpt>
      <trkpt lat="46.21454" lon="6.77042">
        <ele>1420</ele>
        <time>2010-01-02T11:26:23Z</time>
      </trkpt>
      <trkpt lat="46.21442" lon="6.77042">
        <ele>1417</ele>
        <time>2010-01-02T11:26:28Z</time>
      </trkpt>
      <trkpt lat="46.21406" lon="6.77066">
        <ele>1402</ele>
        <time>2010-01-02T11:26:44Z</time>
      </trkpt>
      <trkpt lat="46.21375" lon="6.77072">
        <ele>1397</ele>
        <time>2010-01-02T11:26:57Z</time>
      </trkpt>
      <trkpt lat="46.21351" lon="6.77088">
        <ele>1412</ele>
        <time>2010-01-02T11:27:07Z</time>
      </trkpt>
      <trkpt lat="46.21337" lon="6.77102">
        <ele>1413</ele>
        <time>2010-01-02T11:27:14Z</time>
      </trkpt>
      <trkpt lat="46.2133" lon="6.77102">
        <ele>1408</ele>
        <time>2010-01-02T11:27:17Z</time>
      </trkpt>
      <trkpt lat="46.21332" lon="6.77086">
        <ele>1400</ele>
        <time>2010-01-02T11:27:21Z</time>
      </trkpt>
      <trkpt lat="46.21353" lon="6.77058">
        <ele>1394</ele>
        <time>2010-01-02T11:27:33Z</time>
      </trkpt>
      <trkpt lat="46.21377" lon="6.77042">
        <ele>1393</ele>
        <time>2010-01-02T11:27:43Z</time>
      </trkpt>
      <trkpt lat="46.21395" lon="6.77028">
        <ele>1393</ele>
        <time>2010-01-02T11:27:52Z</time>
      </trkpt>
      <trkpt lat="46.21407" lon="6.77008">
        <ele>1391</ele>
        <time>2010-01-02T11:27:59Z</time>
      </trkpt>
      <trkpt lat="46.21414" lon="6.7699">
        <ele>1384</ele>
        <time>2010-01-02T11:28:05Z</time>
      </trkpt>
      <trkpt lat="46.21418" lon="6.76969">
        <ele>1394</ele>
        <time>2010-01-02T11:28:11Z</time>
      </trkpt>
      <trkpt lat="46.21424" lon="6.76959">
        <ele>1394</ele>
        <time>2010-01-02T11:28:14Z</time>
      </trkpt>
      <trkpt lat="46.21434" lon="6.7694">
        <ele>1392</ele>
        <time>2010-01-02T11:28:21Z</time>
      </trkpt>
      <trkpt lat="46.21444" lon="6.76922">
        <ele>1393</ele>
        <time>2010-01-02T11:28:27Z</time>
      </trkpt>
      <trkpt lat="46.21451" lon="6.76908">
        <ele>1384</ele>
        <time>2010-01-02T11:28:32Z</time>
      </trkpt>
      <trkpt lat="46.2146" lon="6.76899">
        <ele>1386</ele>
        <time>2010-01-02T11:28:37Z</time>
      </trkpt>
      <trkpt lat="46.21463" lon="6.769">
        <ele>1388</ele>
        <time>2010-01-02T11:28:38Z</time>
      </trkpt>
      <trkpt lat="46.21472" lon="6.76888">
        <ele>1389</ele>
        <time>2010-01-02T11:28:43Z</time>
      </trkpt>
      <trkpt lat="46.21469" lon="6.76875">
        <ele>1385</ele>
        <time>2010-01-02T11:28:46Z</time>
      </trkpt>
      <trkpt lat="46.21457" lon="6.76877">
        <ele>1382</ele>
        <time>2010-01-02T11:28:51Z</time>
      </trkpt>
      <trkpt lat="46.21437" lon="6.76892">
        <ele>1379</ele>
        <time>2010-01-02T11:29:00Z</time>
      </trkpt>
      <trkpt lat="46.21404" lon="6.76917">
        <ele>1372</ele>
        <time>2010-01-02T11:29:15Z</time>
      </trkpt>
      <trkpt lat="46.21388" lon="6.76933">
        <ele>1372</ele>
        <time>2010-01-02T11:29:23Z</time>
      </trkpt>
      <trkpt lat="46.21387" lon="6.76933">
        <ele>1372</ele>
        <time>2010-01-02T11:29:23Z</time>
      </trkpt>
      <trkpt lat="46.2137" lon="6.76945">
        <ele>1372</ele>
        <time>2010-01-02T11:29:31Z</time>
      </trkpt>
      <trkpt lat="46.21366" lon="6.76939">
        <ele>1371</ele>
        <time>2010-01-02T11:29:33Z</time>
      </trkpt>
      <trkpt lat="46.21375" lon="6.7692">
        <ele>1370</ele>
        <time>2010-01-02T11:29:40Z</time>
      </trkpt>
      <trkpt lat="46.21389" lon="6.76899">
        <ele>1359</ele>
        <time>2010-01-02T11:29:48Z</time>
      </trkpt>
      <trkpt lat="46.214" lon="6.76876">
        <ele>1356</ele>
        <time>2010-01-02T11:29:56Z</time>
      </trkpt>
      <trkpt lat="46.21414" lon="6.76834">
        <ele>1349</ele>
        <time>2010-01-02T11:30:09Z</time>
      </trkpt>
      <trkpt lat="46.21434" lon="6.76791">
        <ele>1357</ele>
        <time>2010-01-02T11:30:23Z</time>
      </trkpt>
      <trkpt lat="46.21442" lon="6.7677">
        <ele>1356</ele>
        <time>2010-01-02T11:30:29Z</time>
      </trkpt>
      <trkpt lat="46.21462" lon="6.76752">
        <ele>1359</ele>
        <time>2010-01-02T11:30:39Z</time>
      </trkpt>
      <trkpt lat="46.21477" lon="6.76742">
        <ele>1355</ele>
        <time>2010-01-02T11:30:46Z</time>
      </trkpt>
      <trkpt lat="46.21494" lon="6.76729">
        <ele>1356</ele>
        <time>2010-01-02T11:30:53Z</time>
      </trkpt>
      <trkpt lat="46.21495" lon="6.76713">
        <ele>1353</ele>
        <time>2010-01-02T11:30:58Z</time>
      </trkpt>
      <trkpt lat="46.21495" lon="6.76712">
        <ele>1353</ele>
        <time>2010-01-02T11:30:58Z</time>
      </trkpt>
      <trkpt lat="46.21482" lon="6.76702">
        <ele>1352</ele>
        <time>2010-01-02T11:31:04Z</time>
      </trkpt>
      <trkpt lat="46.21459" lon="6.76684">
        <ele>1348</ele>
        <time>2010-01-02T11:31:14Z</time>
      </trkpt>
      <trkpt lat="46.21455" lon="6.76671">
        <ele>1347</ele>
        <time>2010-01-02T11:31:18Z</time>
      </trkpt>
      <trkpt lat="46.21458" lon="6.76654">
        <ele>1336</ele>
        <time>2010-01-02T11:31:23Z</time>
      </trkpt>
      <trkpt lat="46.21467" lon="6.76622">
        <ele>1333</ele>
        <time>2010-01-02T11:31:33Z</time>
      </trkpt>
      <trkpt lat="46.2148" lon="6.76593">
        <ele>1330</ele>
        <time>2010-01-02T11:31:42Z</time>
      </trkpt>
      <trkpt lat="46.21468" lon="6.76571">
        <ele>1312</ele>
        <time>2010-01-02T11:31:50Z</time>
      </trkpt>
      <trkpt lat="46.21466" lon="6.76557">
        <ele>1309</ele>
        <time>2010-01-02T11:31:54Z</time>
      </trkpt>
      <trkpt lat="46.21473" lon="6.76552">
        <ele>1310</ele>
        <time>2010-01-02T11:31:57Z</time>
      </trkpt>
      <trkpt lat="46.21487" lon="6.76566">
        <ele>1316</ele>
        <time>2010-01-02T11:32:04Z</time>
      </trkpt>
      <trkpt lat="46.21502" lon="6.76584">
        <ele>1333</ele>
        <time>2010-01-02T11:32:12Z</time>
      </trkpt>
      <trkpt lat="46.21512" lon="6.76589">
        <ele>1346</ele>
        <time>2010-01-02T11:32:16Z</time>
      </trkpt>
      <trkpt lat="46.21515" lon="6.76574">
        <ele>1339</ele>
        <time>2010-01-02T11:32:20Z</time>
      </trkpt>
      <trkpt lat="46.21508" lon="6.76558">
        <ele>1339</ele>
        <time>2010-01-02T11:32:25Z</time>
      </trkpt>
      <trkpt lat="46.21507" lon="6.76557">
        <ele>1339</ele>
        <time>2010-01-02T11:32:26Z</time>
      </trkpt>
      <trkpt lat="46.21499" lon="6.76544">
        <ele>1312</ele>
        <time>2010-01-02T11:32:31Z</time>
      </trkpt>
      <trkpt lat="46.2151" lon="6.76528">
        <ele>1335</ele>
        <time>2010-01-02T11:32:37Z</time>
      </trkpt>
      <trkpt lat="46.21528" lon="6.76517">
        <ele>1339</ele>
        <time>2010-01-02T11:32:45Z</time>
      </trkpt>
      <trkpt lat="46.21545" lon="6.76478">
        <ele>1326</ele>
        <time>2010-01-02T11:32:58Z</time>
      </trkpt>
      <trkpt lat="46.21565" lon="6.76429">
        <ele>1325</ele>
        <time>2010-01-02T11:33:14Z</time>
      </trkpt>
      <trkpt lat="46.21576" lon="6.76389">
        <ele>1305</ele>
        <time>2010-01-02T11:33:26Z</time>
      </trkpt>
      <trkpt lat="46.21583" lon="6.76357">
        <ele>1299</ele>
        <time>2010-01-02T11:33:35Z</time>
      </trkpt>
      <trkpt lat="46.21575" lon="6.76353">
        <ele>1298</ele>
        <time>2010-01-02T11:33:38Z</time>
      </trkpt>
      <trkpt lat="46.21564" lon="6.76373">
        <ele>1298</ele>
        <time>2010-01-02T11:33:45Z</time>
      </trkpt>
      <trkpt lat="46.21556" lon="6.76401">
        <ele>1302</ele>
        <time>2010-01-02T11:33:54Z</time>
      </trkpt>
      <trkpt lat="46.2153" lon="6.76435">
        <ele>1313</ele>
        <time>2010-01-02T11:34:07Z</time>
      </trkpt>
      <trkpt lat="46.21514" lon="6.76452">
        <ele>1312</ele>
        <time>2010-01-02T11:34:16Z</time>
      </trkpt>
      <trkpt lat="46.21482" lon="6.76466">
        <ele>1284</ele>
        <time>2010-01-02T11:34:29Z</time>
      </trkpt>
      <trkpt lat="46.2145" lon="6.76492">
        <ele>1280</ele>
        <time>2010-01-02T11:34:44Z</time>
      </trkpt>
      <trkpt lat="46.21414" lon="6.76524">
        <ele>1276</ele>
        <time>2010-01-02T11:35:01Z</time>
      </trkpt>
      <trkpt lat="46.2141" lon="6.7653">
        <ele>1277</ele>
        <time>2010-01-02T11:35:03Z</time>
      </trkpt>
      <trkpt lat="46.21387" lon="6.7656">
        <ele>1282</ele>
        <time>2010-01-02T11:35:15Z</time>
      </trkpt>
      <trkpt lat="46.21365" lon="6.76579">
        <ele>1278</ele>
        <time>2010-01-02T11:35:26Z</time>
      </trkpt>
      <trkpt lat="46.21349" lon="6.76585">
        <ele>1285</ele>
        <time>2010-01-02T11:35:32Z</time>
      </trkpt>
      <trkpt lat="46.21357" lon="6.76561">
        <ele>1275</ele>
        <time>2010-01-02T11:35:40Z</time>
      </trkpt>
      <trkpt lat="46.21405" lon="6.76505">
        <ele>1273</ele>
        <time>2010-01-02T11:36:05Z</time>
      </trkpt>
      <trkpt lat="46.21407" lon="6.76503">
        <ele>1273</ele>
        <time>2010-01-02T11:36:05Z</time>
      </trkpt>
      <trkpt lat="46.21456" lon="6.76423">
        <ele>1272</ele>
        <time>2010-01-02T11:36:35Z</time>
      </trkpt>
      <trkpt lat="46.21486" lon="6.76357">
        <ele>1257</ele>
        <time>2010-01-02T11:36:57Z</time>
      </trkpt>
      <trkpt lat="46.21511" lon="6.7632">
        <ele>1263</ele>
        <time>2010-01-02T11:37:11Z</time>
      </trkpt>
      <trkpt lat="46.21525" lon="6.76254">
        <ele>1260</ele>
        <time>2010-01-02T11:37:30Z</time>
      </trkpt>
      <trkpt lat="46.2153" lon="6.76205">
        <ele>1248</ele>
        <time>2010-01-02T11:37:44Z</time>
      </trkpt>
      <trkpt lat="46.21553" lon="6.76148">
        <ele>1241</ele>
        <time>2010-01-02T11:38:02Z</time>
      </trkpt>
      <trkpt lat="46.21562" lon="6.76106">
        <ele>1239</ele>
        <time>2010-01-02T11:38:15Z</time>
      </trkpt>
      <trkpt lat="46.21556" lon="6.7607">
        <ele>1232</ele>
        <time>2010-01-02T11:38:25Z</time>
      </trkpt>
      <trkpt lat="46.21574" lon="6.7603">
        <ele>1232</ele>
        <time>2010-01-02T11:38:38Z</time>
      </trkpt>
      <trkpt lat="46.21583" lon="6.75968">
        <ele>1226</ele>
        <time>2010-01-02T11:38:55Z</time>
      </trkpt>
      <trkpt lat="46.21573" lon="6.75907">
        <ele>1221</ele>
        <time>2010-01-02T11:39:13Z</time>
      </trkpt>
      <trkpt lat="46.21534" lon="6.75769">
        <ele>1210</ele>
        <time>2010-01-02T11:39:54Z</time>
      </trkpt>
      <trkpt lat="46.21522" lon="6.75737">
        <ele>1209</ele>
        <time>2010-01-02T11:40:04Z</time>
      </trkpt>
      <trkpt lat="46.21512" lon="6.75704">
        <ele>1210</ele>
        <time>2010-01-02T11:40:14Z</time>
      </trkpt>
      <trkpt lat="46.21512" lon="6.75703">
        <ele>1210</ele>
        <time>2010-01-02T11:40:14Z</time>
      </trkpt>
      <trkpt lat="46.21501" lon="6.75656">
        <ele>1208</ele>
        <time>2010-01-02T11:40:28Z</time>
      </trkpt>
      <trkpt lat="46.21497" lon="6.75626">
        <ele>1212</ele>
        <time>2010-01-02T11:40:37Z</time>
      </trkpt>
      <trkpt lat="46.2149" lon="6.75581">
        <ele>1208</ele>
        <time>2010-01-02T11:40:49Z</time>
      </trkpt>
      <trkpt lat="46.21493" lon="6.75532">
        <ele>1205</ele>
        <time>2010-01-02T11:41:03Z</time>
      </trkpt>
      <trkpt lat="46.21501" lon="6.75488">
        <ele>1206</ele>
        <time>2010-01-02T11:41:16Z</time>
      </trkpt>
      <trkpt lat="46.21518" lon="6.75437">
        <ele>1205</ele>
        <time>2010-01-02T11:41:31Z</time>
      </trkpt>
      <trkpt lat="46.21519" lon="6.75387">
        <ele>1202</ele>
        <time>2010-01-02T11:41:45Z</time>
      </trkpt>
      <trkpt lat="46.21526" lon="6.75331">
        <ele>1199</ele>
        <time>2010-01-02T11:42:01Z</time>
      </trkpt>
      <trkpt lat="46.21537" lon="6.75281">
        <ele>1204</ele>
        <time>2010-01-02T11:42:15Z</time>
      </trkpt>
      <trkpt lat="46.21508" lon="6.75122">
        <ele>1203</ele>
        <time>2010-01-02T11:43:01Z</time>
      </trkpt>
      <trkpt lat="46.21486" lon="6.75059">
        <ele>1184</ele>
        <time>2010-01-02T11:43:21Z</time>
      </trkpt>
      <trkpt lat="46.21463" lon="6.74996">
        <ele>1188</ele>
        <time>2010-01-02T11:43:40Z</time>
      </trkpt>
      <trkpt lat="46.21429" lon="6.7491">
        <ele>1185</ele>
        <time>2010-01-02T11:44:08Z</time>
      </trkpt>
      <trkpt lat="46.21399" lon="6.74845">
        <ele>1171</ele>
        <time>2010-01-02T11:44:30Z</time>
      </trkpt>
      <trkpt lat="46.21332" lon="6.74736">
        <ele>1151</ele>
        <time>2010-01-02T11:45:10Z</time>
      </trkpt>
      <trkpt lat="46.21279" lon="6.74618">
        <ele>1153</ele>
        <time>2010-01-02T11:45:49Z</time>
      </trkpt>
      <trkpt lat="46.21262" lon="6.74557">
        <ele>1155</ele>
        <time>2010-01-02T11:46:07Z</time>
      </trkpt>
      <trkpt lat="46.21259" lon="6.74508">
        <ele>1150</ele>
        <time>2010-01-02T11:46:21Z</time>
      </trkpt>
      <trkpt lat="46.21217" lon="6.7434">
        <ele>1129</ele>
        <time>2010-01-02T11:47:10Z</time>
      </trkpt>
      <trkpt lat="46.21193" lon="6.74243">
        <ele>1129</ele>
        <time>2010-01-02T11:47:38Z</time>
      </trkpt>
      <trkpt lat="46.21163" lon="6.74166">
        <ele>1119</ele>
        <time>2010-01-02T11:48:03Z</time>
      </trkpt>
      <trkpt lat="46.21152" lon="6.74069">
        <ele>1112</ele>
        <time>2010-01-02T11:48:30Z</time>
      </trkpt>
      <trkpt lat="46.21122" lon="6.73951">
        <ele>1106</ele>
        <time>2010-01-02T11:49:05Z</time>
      </trkpt>
      <trkpt lat="46.21111" lon="6.73814">
        <ele>1107</ele>
        <time>2010-01-02T11:49:43Z</time>
      </trkpt>
      <trkpt lat="46.21109" lon="6.73736">
        <ele>1108</ele>
        <time>2010-01-02T11:50:05Z</time>
      </trkpt>
      <trkpt lat="46.21098" lon="6.73588">
        <ele>1105</ele>
        <time>2010-01-02T11:50:46Z</time>
      </trkpt>
      <trkpt lat="46.21088" lon="6.73516">
        <ele>1107</ele>
        <time>2010-01-02T11:51:07Z</time>
      </trkpt>
      <trkpt lat="46.21081" lon="6.7348">
        <ele>1088</ele>
        <time>2010-01-02T11:51:17Z</time>
      </trkpt>
      <trkpt lat="46.21072" lon="6.7345">
        <ele>1087</ele>
        <time>2010-01-02T11:51:26Z</time>
      </trkpt>
      <trkpt lat="46.21051" lon="6.73556">
        <ele>1081</ele>
        <time>2010-01-02T11:51:56Z</time>
      </trkpt>
      <trkpt lat="46.21032" lon="6.7365">
        <ele>1079</ele>
        <time>2010-01-02T11:52:24Z</time>
      </trkpt>
      <trkpt lat="46.20991" lon="6.73691">
        <ele>1079</ele>
        <time>2010-01-02T11:52:44Z</time>
      </trkpt>
      <trkpt lat="46.20946" lon="6.73701">
        <ele>1083</ele>
        <time>2010-01-02T11:53:02Z</time>
      </trkpt>
      <trkpt lat="46.20891" lon="6.73669">
        <ele>1094</ele>
        <time>2010-01-02T11:53:25Z</time>
      </trkpt>
      <trkpt lat="46.20872" lon="6.736">
        <ele>1084</ele>
        <time>2010-01-02T11:53:46Z</time>
      </trkpt>
      <trkpt lat="46.20856" lon="6.7357">
        <ele>1080</ele>
        <time>2010-01-02T11:53:57Z</time>
      </trkpt>
      <trkpt lat="46.2082" lon="6.73543">
        <ele>1099</ele>
        <time>2010-01-02T11:54:13Z</time>
      </trkpt>
      <trkpt lat="46.20812" lon="6.73475">
        <ele>1094</ele>
        <time>2010-01-02T11:54:32Z</time>
      </trkpt>
      <trkpt lat="46.20804" lon="6.73424">
        <ele>1094</ele>
        <time>2010-01-02T11:54:46Z</time>
      </trkpt>
      <trkpt lat="46.20814" lon="6.73354">
        <ele>1084</ele>
        <time>2010-01-02T11:55:06Z</time>
      </trkpt>
      <trkpt lat="46.20789" lon="6.73229">
        <ele>1083</ele>
        <time>2010-01-02T11:55:42Z</time>
      </trkpt>
      <trkpt lat="46.20764" lon="6.73177">
        <ele>1088</ele>
        <time>2010-01-02T11:56:00Z</time>
      </trkpt>
      <trkpt lat="46.2075" lon="6.73106">
        <ele>1115</ele>
        <time>2010-01-02T11:56:20Z</time>
      </trkpt>
      <trkpt lat="46.20762" lon="6.73047">
        <ele>1089</ele>
        <time>2010-01-02T11:56:37Z</time>
      </trkpt>
      <trkpt lat="46.20759" lon="6.72957">
        <ele>1084</ele>
        <time>2010-01-02T11:57:02Z</time>
      </trkpt>
      <trkpt lat="46.2075" lon="6.72843">
        <ele>1095</ele>
        <time>2010-01-02T11:57:34Z</time>
      </trkpt>
      <trkpt lat="46.2075" lon="6.72712">
        <ele>1108</ele>
        <time>2010-01-02T11:58:10Z</time>
      </trkpt>
      <trkpt lat="46.20747" lon="6.72628">
        <ele>1105</ele>
        <time>2010-01-02T11:58:34Z</time>
      </trkpt>
      <trkpt lat="46.20745" lon="6.72563">
        <ele>1104</ele>
        <time>2010-01-02T11:58:52Z</time>
      </trkpt>
      <trkpt lat="46.20741" lon="6.72521">
        <ele>1108</ele>
        <time>2010-01-02T11:59:03Z</time>
      </trkpt>
      <trkpt lat="46.20748" lon="6.72455">
        <ele>1113</ele>
        <time>2010-01-02T11:59:22Z</time>
      </trkpt>
      <trkpt lat="46.20763" lon="6.72415">
        <ele>1092</ele>
        <time>2010-01-02T11:59:34Z</time>
      </trkpt>
      <trkpt lat="46.20763" lon="6.72356">
        <ele>1083</ele>
        <time>2010-01-02T11:59:51Z</time>
      </trkpt>
      <trkpt lat="46.20763" lon="6.72354">
        <ele>1083</ele>
        <time>2010-01-02T11:59:52Z</time>
      </trkpt>
      <trkpt lat="46.20748" lon="6.72207">
        <ele>1092</ele>
        <time>2010-01-02T12:00:33Z</time>
      </trkpt>
      <trkpt lat="46.20744" lon="6.7213">
        <ele>1093</ele>
        <time>2010-01-02T12:00:54Z</time>
      </trkpt>
      <trkpt lat="46.20745" lon="6.72083">
        <ele>1088</ele>
        <time>2010-01-02T12:01:07Z</time>
      </trkpt>
      <trkpt lat="46.20792" lon="6.72051">
        <ele>1082</ele>
        <time>2010-01-02T12:01:28Z</time>
      </trkpt>
      <trkpt lat="46.20823" lon="6.72037">
        <ele>1081</ele>
        <time>2010-01-02T12:01:41Z</time>
      </trkpt>
      <trkpt lat="46.20841" lon="6.72013">
        <ele>1081</ele>
        <time>2010-01-02T12:01:51Z</time>
      </trkpt>
      <trkpt lat="46.20869" lon="6.71968">
        <ele>1090</ele>
        <time>2010-01-02T12:02:08Z</time>
      </trkpt>
      <trkpt lat="46.20883" lon="6.71944">
        <ele>1092</ele>
        <time>2010-01-02T12:02:16Z</time>
      </trkpt>
      <trkpt lat="46.20881" lon="6.71908">
        <ele>1097</ele>
        <time>2010-01-02T12:02:26Z</time>
      </trkpt>
      <trkpt lat="46.20862" lon="6.71822">
        <ele>1094</ele>
        <time>2010-01-02T12:02:51Z</time>
      </trkpt>
      <trkpt lat="46.2085" lon="6.7177">
        <ele>1091</ele>
        <time>2010-01-02T12:03:06Z</time>
      </trkpt>
      <trkpt lat="46.20846" lon="6.71716">
        <ele>1091</ele>
        <time>2010-01-02T12:03:21Z</time>
      </trkpt>
      <trkpt lat="46.2082" lon="6.71624">
        <ele>1070</ele>
        <time>2010-01-02T12:03:49Z</time>
      </trkpt>
      <trkpt lat="46.20781" lon="6.71587">
        <ele>1065</ele>
        <time>2010-01-02T12:04:07Z</time>
      </trkpt>
      <trkpt lat="46.20742" lon="6.71583">
        <ele>1055</ele>
        <time>2010-01-02T12:04:23Z</time>
      </trkpt>
      <trkpt lat="46.20723" lon="6.71558">
        <ele>1054</ele>
        <time>2010-01-02T12:04:33Z</time>
      </trkpt>
      <trkpt lat="46.20711" lon="6.71512">
        <ele>1051</ele>
        <time>2010-01-02T12:04:47Z</time>
      </trkpt>
      <trkpt lat="46.20693" lon="6.7143">
        <ele>1035</ele>
        <time>2010-01-02T12:05:11Z</time>
      </trkpt>
      <trkpt lat="46.20684" lon="6.71355">
        <ele>1023</ele>
        <time>2010-01-02T12:05:32Z</time>
      </trkpt>
      <trkpt lat="46.20679" lon="6.71295">
        <ele>1015</ele>
        <time>2010-01-02T12:05:49Z</time>
      </trkpt>
      <trkpt lat="46.20681" lon="6.71238">
        <ele>1007</ele>
        <time>2010-01-02T12:06:05Z</time>
      </trkpt>
      <trkpt lat="46.20672" lon="6.71172">
        <ele>1000</ele>
        <time>2010-01-02T12:06:23Z</time>
      </trkpt>
      <trkpt lat="46.20659" lon="6.71101">
        <ele>996</ele>
        <time>2010-01-02T12:06:44Z</time>
      </trkpt>
      <trkpt lat="46.20639" lon="6.71097">
        <ele>996</ele>
        <time>2010-01-02T12:06:51Z</time>
      </trkpt>
      <trkpt lat="46.20609" lon="6.7109">
        <ele>996</ele>
        <time>2010-01-02T12:07:04Z</time>
      </trkpt>
      <trkpt lat="46.20583" lon="6.71059">
        <ele>997</ele>
        <time>2010-01-02T12:07:17Z</time>
      </trkpt>
      <trkpt lat="46.20551" lon="6.71005">
        <ele>997</ele>
        <time>2010-01-02T12:07:37Z</time>
      </trkpt>
      <trkpt lat="46.20527" lon="6.70942">
        <ele>994</ele>
        <time>2010-01-02T12:07:57Z</time>
      </trkpt>
      <trkpt lat="46.20498" lon="6.70871">
        <ele>996</ele>
        <time>2010-01-02T12:08:20Z</time>
      </trkpt>
      <trkpt lat="46.20476" lon="6.70835">
        <ele>995</ele>
        <time>2010-01-02T12:08:33Z</time>
      </trkpt>
      <trkpt lat="46.2045" lon="6.70787">
        <ele>990</ele>
        <time>2010-01-02T12:08:50Z</time>
      </trkpt>
      <trkpt lat="46.20433" lon="6.70733">
        <ele>984</ele>
        <time>2010-01-02T12:09:06Z</time>
      </trkpt>
      <trkpt lat="46.2042" lon="6.70691">
        <ele>980</ele>
        <time>2010-01-02T12:09:19Z</time>
      </trkpt>
      <trkpt lat="46.20402" lon="6.70611">
        <ele>985</ele>
        <time>2010-01-02T12:09:42Z</time>
      </trkpt>
      <trkpt lat="46.20395" lon="6.70561">
        <ele>976</ele>
        <time>2010-01-02T12:09:57Z</time>
      </trkpt>
      <trkpt lat="46.20389" lon="6.7052">
        <ele>974</ele>
        <time>2010-01-02T12:10:08Z</time>
      </trkpt>
      <trkpt lat="46.20367" lon="6.70459">
        <ele>969</ele>
        <time>2010-01-02T12:10:27Z</time>
      </trkpt>
      <trkpt lat="46.20349" lon="6.70417">
        <ele>967</ele>
        <time>2010-01-02T12:10:41Z</time>
      </trkpt>
      <trkpt lat="46.20338" lon="6.70364">
        <ele>961</ele>
        <time>2010-01-02T12:10:56Z</time>
      </trkpt>
      <trkpt lat="46.20319" lon="6.70291">
        <ele>957</ele>
        <time>2010-01-02T12:11:18Z</time>
      </trkpt>
      <trkpt lat="46.20317" lon="6.70245">
        <ele>949</ele>
        <time>2010-01-02T12:11:31Z</time>
      </trkpt>
      <trkpt lat="46.20327" lon="6.70208">
        <ele>950</ele>
        <time>2010-01-02T12:11:42Z</time>
      </trkpt>
      <trkpt lat="46.20322" lon="6.70169">
        <ele>947</ele>
        <time>2010-01-02T12:11:53Z</time>
      </trkpt>
      <trkpt lat="46.20307" lon="6.70137">
        <ele>950</ele>
        <time>2010-01-02T12:12:04Z</time>
      </trkpt>
      <trkpt lat="46.2028" lon="6.70096">
        <ele>951</ele>
        <time>2010-01-02T12:12:19Z</time>
      </trkpt>
      <trkpt lat="46.2027" lon="6.70052">
        <ele>952</ele>
        <time>2010-01-02T12:12:32Z</time>
      </trkpt>
      <trkpt lat="46.20264" lon="6.70017">
        <ele>950</ele>
        <time>2010-01-02T12:12:42Z</time>
      </trkpt>
      <trkpt lat="46.20254" lon="6.69973">
        <ele>951</ele>
        <time>2010-01-02T12:12:55Z</time>
      </trkpt>
      <trkpt lat="46.20234" lon="6.69906">
        <ele>945</ele>
        <time>2010-01-02T12:13:15Z</time>
      </trkpt>
      <trkpt lat="46.20221" lon="6.69845">
        <ele>944</ele>
        <time>2010-01-02T12:13:33Z</time>
      </trkpt>
      <trkpt lat="46.20217" lon="6.69814">
        <ele>940</ele>
        <time>2010-01-02T12:13:41Z</time>
      </trkpt>
      <trkpt lat="46.20229" lon="6.69777">
        <ele>939</ele>
        <time>2010-01-02T12:13:53Z</time>
      </trkpt>
      <trkpt lat="46.20229" lon="6.69774">
        <ele>939</ele>
        <time>2010-01-02T12:13:54Z</time>
      </trkpt>
      <trkpt lat="46.20213" lon="6.69731">
        <ele>937</ele>
        <time>2010-01-02T12:14:07Z</time>
      </trkpt>
      <trkpt lat="46.20195" lon="6.69671">
        <ele>936</ele>
        <time>2010-01-02T12:14:25Z</time>
      </trkpt>
      <trkpt lat="46.20181" lon="6.69607">
        <ele>936</ele>
        <time>2010-01-02T12:14:44Z</time>
      </trkpt>
      <trkpt lat="46.20165" lon="6.69543">
        <ele>931</ele>
        <time>2010-01-02T12:15:03Z</time>
      </trkpt>
      <trkpt lat="46.20161" lon="6.69472">
        <ele>925</ele>
        <time>2010-01-02T12:15:22Z</time>
      </trkpt>
      <trkpt lat="46.20153" lon="6.69432">
        <ele>926</ele>
        <time>2010-01-02T12:15:34Z</time>
      </trkpt>
      <trkpt lat="46.20129" lon="6.69397">
        <ele>925</ele>
        <time>2010-01-02T12:15:47Z</time>
      </trkpt>
      <trkpt lat="46.20098" lon="6.69369">
        <ele>923</ele>
        <time>2010-01-02T12:16:02Z</time>
      </trkpt>
      <trkpt lat="46.20077" lon="6.69328">
        <ele>920</ele>
        <time>2010-01-02T12:16:17Z</time>
      </trkpt>
      <trkpt lat="46.20063" lon="6.69284">
        <ele>921</ele>
        <time>2010-01-02T12:16:30Z</time>
      </trkpt>
      <trkpt lat="46.20039" lon="6.6919">
        <ele>917</ele>
        <time>2010-01-02T12:16:58Z</time>
      </trkpt>
      <trkpt lat="46.20034" lon="6.69104">
        <ele>911</ele>
        <time>2010-01-02T12:17:22Z</time>
      </trkpt>
      <trkpt lat="46.20025" lon="6.69054">
        <ele>908</ele>
        <time>2010-01-02T12:17:36Z</time>
      </trkpt>
      <trkpt lat="46.20011" lon="6.68979">
        <ele>904</ele>
        <time>2010-01-02T12:17:57Z</time>
      </trkpt>
      <trkpt lat="46.20002" lon="6.68939">
        <ele>902</ele>
        <time>2010-01-02T12:18:09Z</time>
      </trkpt>
      <trkpt lat="46.2002" lon="6.68898">
        <ele>900</ele>
        <time>2010-01-02T12:18:22Z</time>
      </trkpt>
      <trkpt lat="46.20016" lon="6.68875">
        <ele>900</ele>
        <time>2010-01-02T12:18:29Z</time>
      </trkpt>
      <trkpt lat="46.19995" lon="6.68872">
        <ele>896</ele>
        <time>2010-01-02T12:18:37Z</time>
      </trkpt>
      <trkpt lat="46.19968" lon="6.68897">
        <ele>896</ele>
        <time>2010-01-02T12:18:50Z</time>
      </trkpt>
      <trkpt lat="46.19935" lon="6.68913">
        <ele>897</ele>
        <time>2010-01-02T12:19:04Z</time>
      </trkpt>
      <trkpt lat="46.19912" lon="6.68902">
        <ele>897</ele>
        <time>2010-01-02T12:19:14Z</time>
      </trkpt>
      <trkpt lat="46.19903" lon="6.68858">
        <ele>897</ele>
        <time>2010-01-02T12:19:27Z</time>
      </trkpt>
      <trkpt lat="46.19887" lon="6.68833">
        <ele>896</ele>
        <time>2010-01-02T12:19:36Z</time>
      </trkpt>
      <trkpt lat="46.19856" lon="6.68822">
        <ele>897</ele>
        <time>2010-01-02T12:19:49Z</time>
      </trkpt>
      <trkpt lat="46.19832" lon="6.68817">
        <ele>898</ele>
        <time>2010-01-02T12:19:59Z</time>
      </trkpt>
      <trkpt lat="46.19822" lon="6.68795">
        <ele>899</ele>
        <time>2010-01-02T12:20:06Z</time>
      </trkpt>
      <trkpt lat="46.19807" lon="6.68802">
        <ele>900</ele>
        <time>2010-01-02T12:20:12Z</time>
      </trkpt>
      <trkpt lat="46.19782" lon="6.68829">
        <ele>900</ele>
        <time>2010-01-02T12:20:25Z</time>
      </trkpt>
      <trkpt lat="46.1969" lon="6.68913">
        <ele>903</ele>
        <time>2010-01-02T12:21:08Z</time>
      </trkpt>
      <trkpt lat="46.19658" lon="6.68945">
        <ele>905</ele>
        <time>2010-01-02T12:21:24Z</time>
      </trkpt>
      <trkpt lat="46.19623" lon="6.68973">
        <ele>906</ele>
        <time>2010-01-02T12:21:40Z</time>
      </trkpt>
      <trkpt lat="46.19597" lon="6.68999">
        <ele>905</ele>
        <time>2010-01-02T12:21:53Z</time>
      </trkpt>
      <trkpt lat="46.19552" lon="6.69032">
        <ele>914</ele>
        <time>2010-01-02T12:22:13Z</time>
      </trkpt>
      <trkpt lat="46.19532" lon="6.69045">
        <ele>915</ele>
        <time>2010-01-02T12:22:22Z</time>
      </trkpt>
      <trkpt lat="46.19507" lon="6.69049">
        <ele>916</ele>
        <time>2010-01-02T12:22:31Z</time>
      </trkpt>
      <trkpt lat="46.19489" lon="6.69058">
        <ele>925</ele>
        <time>2010-01-02T12:22:39Z</time>
      </trkpt>
      <trkpt lat="46.19478" lon="6.69069">
        <ele>925</ele>
        <time>2010-01-02T12:22:44Z</time>
      </trkpt>
      <trkpt lat="46.19481" lon="6.6911">
        <ele>917</ele>
        <time>2010-01-02T12:22:56Z</time>
      </trkpt>
      <trkpt lat="46.19482" lon="6.69159">
        <ele>915</ele>
        <time>2010-01-02T12:23:09Z</time>
      </trkpt>
      <trkpt lat="46.19452" lon="6.69194">
        <ele>914</ele>
        <time>2010-01-02T12:23:25Z</time>
      </trkpt>
      <trkpt lat="46.19418" lon="6.69226">
        <ele>914</ele>
        <time>2010-01-02T12:23:41Z</time>
      </trkpt>
      <trkpt lat="46.19397" lon="6.69236">
        <ele>921</ele>
        <time>2010-01-02T12:23:50Z</time>
      </trkpt>
      <trkpt lat="46.19374" lon="6.69253">
        <ele>920</ele>
        <time>2010-01-02T12:24:00Z</time>
      </trkpt>
      <trkpt lat="46.19373" lon="6.69254">
        <ele>920</ele>
        <time>2010-01-02T12:24:01Z</time>
      </trkpt>
      <trkpt lat="46.19357" lon="6.69297">
        <ele>920</ele>
        <time>2010-01-02T12:24:14Z</time>
      </trkpt>
      <trkpt lat="46.19351" lon="6.69327">
        <ele>920</ele>
        <time>2010-01-02T12:24:23Z</time>
      </trkpt>
      <trkpt lat="46.19353" lon="6.69352">
        <ele>917</ele>
        <time>2010-01-02T12:24:30Z</time>
      </trkpt>
      <trkpt lat="46.19346" lon="6.6939">
        <ele>916</ele>
        <time>2010-01-02T12:24:41Z</time>
      </trkpt>
      <trkpt lat="46.19337" lon="6.69418">
        <ele>915</ele>
        <time>2010-01-02T12:24:49Z</time>
      </trkpt>
      <trkpt lat="46.19314" lon="6.69452">
        <ele>917</ele>
        <time>2010-01-02T12:25:03Z</time>
      </trkpt>
      <trkpt lat="46.19287" lon="6.69482">
        <ele>917</ele>
        <time>2010-01-02T12:25:16Z</time>
      </trkpt>
      <trkpt lat="46.19255" lon="6.69505">
        <ele>918</ele>
        <time>2010-01-02T12:25:30Z</time>
      </trkpt>
      <trkpt lat="46.19218" lon="6.69526">
        <ele>921</ele>
        <time>2010-01-02T12:25:46Z</time>
      </trkpt>
      <trkpt lat="46.19202" lon="6.69529">
        <ele>921</ele>
        <time>2010-01-02T12:25:53Z</time>
      </trkpt>
      <trkpt lat="46.1919" lon="6.69534">
        <ele>922</ele>
        <time>2010-01-02T12:25:58Z</time>
      </trkpt>
      <trkpt lat="46.19175" lon="6.69539">
        <ele>922</ele>
        <time>2010-01-02T12:26:04Z</time>
      </trkpt>
      <trkpt lat="46.19159" lon="6.69543">
        <ele>927</ele>
        <time>2010-01-02T12:26:11Z</time>
      </trkpt>
      <trkpt lat="46.19143" lon="6.6955">
        <ele>927</ele>
        <time>2010-01-02T12:26:17Z</time>
      </trkpt>
      <trkpt lat="46.19133" lon="6.69562">
        <ele>927</ele>
        <time>2010-01-02T12:26:22Z</time>
      </trkpt>
      <trkpt lat="46.19118" lon="6.6959">
        <ele>925</ele>
        <time>2010-01-02T12:26:32Z</time>
      </trkpt>
      <trkpt lat="46.19102" lon="6.69613">
        <ele>926</ele>
        <time>2010-01-02T12:26:41Z</time>
      </trkpt>
      <trkpt lat="46.191" lon="6.69616">
        <ele>926</ele>
        <time>2010-01-02T12:26:43Z</time>
      </trkpt>
      <trkpt lat="46.19081" lon="6.69638">
        <ele>929</ele>
        <time>2010-01-02T12:26:52Z</time>
      </trkpt>
      <trkpt lat="46.19052" lon="6.69647">
        <ele>929</ele>
        <time>2010-01-02T12:27:04Z</time>
      </trkpt>
      <trkpt lat="46.1902" lon="6.69647">
        <ele>929</ele>
        <time>2010-01-02T12:27:17Z</time>
      </trkpt>
      <trkpt lat="46.18993" lon="6.69657">
        <ele>931</ele>
        <time>2010-01-02T12:27:28Z</time>
      </trkpt>
      <trkpt lat="46.1897" lon="6.69682">
        <ele>931</ele>
        <time>2010-01-02T12:27:40Z</time>
      </trkpt>
      <trkpt lat="46.18947" lon="6.69709">
        <ele>932</ele>
        <time>2010-01-02T12:27:51Z</time>
      </trkpt>
      <trkpt lat="46.18924" lon="6.69745">
        <ele>929</ele>
        <time>2010-01-02T12:28:05Z</time>
      </trkpt>
      <trkpt lat="46.18907" lon="6.6977">
        <ele>931</ele>
        <time>2010-01-02T12:28:15Z</time>
      </trkpt>
      <trkpt lat="46.18886" lon="6.69784">
        <ele>932</ele>
        <time>2010-01-02T12:28:24Z</time>
      </trkpt>
      <trkpt lat="46.18855" lon="6.69798">
        <ele>932</ele>
        <time>2010-01-02T12:28:37Z</time>
      </trkpt>
      <trkpt lat="46.18854" lon="6.69799">
        <ele>932</ele>
        <time>2010-01-02T12:28:37Z</time>
      </trkpt>
      <trkpt lat="46.18811" lon="6.69815">
        <ele>936</ele>
        <time>2010-01-02T12:28:55Z</time>
      </trkpt>
      <trkpt lat="46.18785" lon="6.69834">
        <ele>933</ele>
        <time>2010-01-02T12:29:07Z</time>
      </trkpt>
      <trkpt lat="46.18783" lon="6.69836">
        <ele>933</ele>
        <time>2010-01-02T12:29:08Z</time>
      </trkpt>
      <trkpt lat="46.18758" lon="6.69866">
        <ele>934</ele>
        <time>2010-01-02T12:29:21Z</time>
      </trkpt>
      <trkpt lat="46.18757" lon="6.69868">
        <ele>933</ele>
        <time>2010-01-02T12:29:22Z</time>
      </trkpt>
      <trkpt lat="46.18742" lon="6.69895">
        <ele>938</ele>
        <time>2010-01-02T12:29:31Z</time>
      </trkpt>
      <trkpt lat="46.18741" lon="6.69896">
        <ele>938</ele>
        <time>2010-01-02T12:29:32Z</time>
      </trkpt>
      <trkpt lat="46.18738" lon="6.69935">
        <ele>935</ele>
        <time>2010-01-02T12:29:42Z</time>
      </trkpt>
      <trkpt lat="46.18738" lon="6.69985">
        <ele>936</ele>
        <time>2010-01-02T12:29:57Z</time>
      </trkpt>
      <trkpt lat="46.18718" lon="6.70027">
        <ele>938</ele>
        <time>2010-01-02T12:30:11Z</time>
      </trkpt>
      <trkpt lat="46.18717" lon="6.70031">
        <ele>939</ele>
        <time>2010-01-02T12:30:12Z</time>
      </trkpt>
      <trkpt lat="46.18706" lon="6.70066">
        <ele>940</ele>
        <time>2010-01-02T12:30:22Z</time>
      </trkpt>
      <trkpt lat="46.18706" lon="6.70068">
        <ele>940</ele>
        <time>2010-01-02T12:30:23Z</time>
      </trkpt>
      <trkpt lat="46.18692" lon="6.70105">
        <ele>944</ele>
        <time>2010-01-02T12:30:35Z</time>
      </trkpt>
      <trkpt lat="46.18673" lon="6.70134">
        <ele>944</ele>
        <time>2010-01-02T12:30:46Z</time>
      </trkpt>
      <trkpt lat="46.18645" lon="6.70167">
        <ele>944</ele>
        <time>2010-01-02T12:31:00Z</time>
      </trkpt>
      <trkpt lat="46.18594" lon="6.70202">
        <ele>945</ele>
        <time>2010-01-02T12:31:23Z</time>
      </trkpt>
      <trkpt lat="46.18552" lon="6.70247">
        <ele>945</ele>
        <time>2010-01-02T12:31:44Z</time>
      </trkpt>
      <trkpt lat="46.18547" lon="6.70253">
        <ele>945</ele>
        <time>2010-01-02T12:31:46Z</time>
      </trkpt>
      <trkpt lat="46.18511" lon="6.70293">
        <ele>944</ele>
        <time>2010-01-02T12:32:05Z</time>
      </trkpt>
      <trkpt lat="46.18492" lon="6.7032">
        <ele>945</ele>
        <time>2010-01-02T12:32:15Z</time>
      </trkpt>
      <trkpt lat="46.18469" lon="6.70353">
        <ele>946</ele>
        <time>2010-01-02T12:32:28Z</time>
      </trkpt>
      <trkpt lat="46.18439" lon="6.70394">
        <ele>947</ele>
        <time>2010-01-02T12:32:45Z</time>
      </trkpt>
      <trkpt lat="46.18436" lon="6.70397">
        <ele>946</ele>
        <time>2010-01-02T12:32:46Z</time>
      </trkpt>
      <trkpt lat="46.18402" lon="6.70435">
        <ele>947</ele>
        <time>2010-01-02T12:33:03Z</time>
      </trkpt>
      <trkpt lat="46.1837" lon="6.70473">
        <ele>949</ele>
        <time>2010-01-02T12:33:20Z</time>
      </trkpt>
      <trkpt lat="46.18353" lon="6.70499">
        <ele>949</ele>
        <time>2010-01-02T12:33:30Z</time>
      </trkpt>
      <trkpt lat="46.1834" lon="6.70526">
        <ele>953</ele>
        <time>2010-01-02T12:33:39Z</time>
      </trkpt>
      <trkpt lat="46.18339" lon="6.70527">
        <ele>953</ele>
        <time>2010-01-02T12:33:40Z</time>
      </trkpt>
      <trkpt lat="46.18316" lon="6.70555">
        <ele>951</ele>
        <time>2010-01-02T12:33:52Z</time>
      </trkpt>
      <trkpt lat="46.18314" lon="6.70558">
        <ele>951</ele>
        <time>2010-01-02T12:33:52Z</time>
      </trkpt>
      <trkpt lat="46.18288" lon="6.70581">
        <ele>951</ele>
        <time>2010-01-02T12:34:05Z</time>
      </trkpt>
      <trkpt lat="46.18262" lon="6.70604">
        <ele>957</ele>
        <time>2010-01-02T12:34:17Z</time>
      </trkpt>
      <trkpt lat="46.18261" lon="6.70605">
        <ele>957</ele>
        <time>2010-01-02T12:34:18Z</time>
      </trkpt>
      <trkpt lat="46.18195" lon="6.70642">
        <ele>955</ele>
        <time>2010-01-02T12:34:46Z</time>
      </trkpt>
      <trkpt lat="46.18146" lon="6.70687">
        <ele>955</ele>
        <time>2010-01-02T12:35:09Z</time>
      </trkpt>
      <trkpt lat="46.18118" lon="6.70721">
        <ele>956</ele>
        <time>2010-01-02T12:35:24Z</time>
      </trkpt>
      <trkpt lat="46.18085" lon="6.70751">
        <ele>954</ele>
        <time>2010-01-02T12:35:40Z</time>
      </trkpt>
      <trkpt lat="46.18019" lon="6.70794">
        <ele>959</ele>
        <time>2010-01-02T12:36:08Z</time>
      </trkpt>
      <trkpt lat="46.17987" lon="6.70822">
        <ele>961</ele>
        <time>2010-01-02T12:36:24Z</time>
      </trkpt>
      <trkpt lat="46.1796" lon="6.7085">
        <ele>964</ele>
        <time>2010-01-02T12:36:37Z</time>
      </trkpt>
      <trkpt lat="46.17946" lon="6.70864">
        <ele>964</ele>
        <time>2010-01-02T12:36:43Z</time>
      </trkpt>
      <trkpt lat="46.1789" lon="6.70865">
        <ele>966</ele>
        <time>2010-01-02T12:37:06Z</time>
      </trkpt>
      <trkpt lat="46.17873" lon="6.70881">
        <ele>967</ele>
        <time>2010-01-02T12:37:14Z</time>
      </trkpt>
      <trkpt lat="46.17849" lon="6.70898">
        <ele>967</ele>
        <time>2010-01-02T12:37:25Z</time>
      </trkpt>
      <trkpt lat="46.17778" lon="6.70909">
        <ele>970</ele>
        <time>2010-01-02T12:37:53Z</time>
      </trkpt>
      <trkpt lat="46.17739" lon="6.70898">
        <ele>971</ele>
        <time>2010-01-02T12:38:09Z</time>
      </trkpt>
      <trkpt lat="46.17712" lon="6.70882">
        <ele>973</ele>
        <time>2010-01-02T12:38:21Z</time>
      </trkpt>
      <trkpt lat="46.1768" lon="6.70902">
        <ele>972</ele>
        <time>2010-01-02T12:38:35Z</time>
      </trkpt>
      <trkpt lat="46.17668" lon="6.70934">
        <ele>971</ele>
        <time>2010-01-02T12:38:45Z</time>
      </trkpt>
      <trkpt lat="46.17658" lon="6.70959">
        <ele>975</ele>
        <time>2010-01-02T12:38:53Z</time>
      </trkpt>
      <trkpt lat="46.17638" lon="6.70994">
        <ele>976</ele>
        <time>2010-01-02T12:39:06Z</time>
      </trkpt>
      <trkpt lat="46.17624" lon="6.71016">
        <ele>982</ele>
        <time>2010-01-02T12:39:14Z</time>
      </trkpt>
      <trkpt lat="46.1761" lon="6.71026">
        <ele>982</ele>
        <time>2010-01-02T12:39:20Z</time>
      </trkpt>
      <trkpt lat="46.17589" lon="6.71025">
        <ele>981</ele>
        <time>2010-01-02T12:39:29Z</time>
      </trkpt>
      <trkpt lat="46.17578" lon="6.71009">
        <ele>978</ele>
        <time>2010-01-02T12:39:35Z</time>
      </trkpt>
      <trkpt lat="46.1757" lon="6.70988">
        <ele>981</ele>
        <time>2010-01-02T12:39:42Z</time>
      </trkpt>
      <trkpt lat="46.17568" lon="6.70941">
        <ele>985</ele>
        <time>2010-01-02T12:39:54Z</time>
      </trkpt>
      <trkpt lat="46.17572" lon="6.70912">
        <ele>988</ele>
        <time>2010-01-02T12:40:03Z</time>
      </trkpt>
      <trkpt lat="46.17584" lon="6.70891">
        <ele>983</ele>
        <time>2010-01-02T12:40:10Z</time>
      </trkpt>
      <trkpt lat="46.17593" lon="6.70881">
        <ele>983</ele>
        <time>2010-01-02T12:40:15Z</time>
      </trkpt>
      <trkpt lat="46.17604" lon="6.70864">
        <ele>985</ele>
        <time>2010-01-02T12:40:21Z</time>
      </trkpt>
      <trkpt lat="46.17659" lon="6.70811">
        <ele>988</ele>
        <time>2010-01-02T12:40:48Z</time>
      </trkpt>
      <trkpt lat="46.17683" lon="6.70788">
        <ele>985</ele>
        <time>2010-01-02T12:40:59Z</time>
      </trkpt>
      <trkpt lat="46.17696" lon="6.70763">
        <ele>987</ele>
        <time>2010-01-02T12:41:08Z</time>
      </trkpt>
      <trkpt lat="46.17731" lon="6.70708">
        <ele>989</ele>
        <time>2010-01-02T12:41:28Z</time>
      </trkpt>
      <trkpt lat="46.17738" lon="6.70692">
        <ele>989</ele>
        <time>2010-01-02T12:41:34Z</time>
      </trkpt>
      <trkpt lat="46.17742" lon="6.70682">
        <ele>988</ele>
        <time>2010-01-02T12:41:37Z</time>
      </trkpt>
      <trkpt lat="46.17742" lon="6.70676">
        <ele>988</ele>
        <time>2010-01-02T12:41:39Z</time>
      </trkpt>
      <trkpt lat="46.17746" lon="6.70665">
        <ele>988</ele>
        <time>2010-01-02T12:41:42Z</time>
      </trkpt>
      <trkpt lat="46.17753" lon="6.70662">
        <ele>987</ele>
        <time>2010-01-02T12:41:45Z</time>
      </trkpt>
      <trkpt lat="46.17758" lon="6.70667">
        <ele>987</ele>
        <time>2010-01-02T12:41:48Z</time>
      </trkpt>
      <trkpt lat="46.17762" lon="6.70665">
        <ele>986</ele>
        <time>2010-01-02T12:41:49Z</time>
      </trkpt>
      <trkpt lat="46.17826" lon="6.7056">
        <ele>986</ele>
        <time>2010-01-02T12:42:28Z</time>
      </trkpt>
      <trkpt lat="46.17843" lon="6.70531">
        <ele>984</ele>
        <time>2010-01-02T12:42:39Z</time>
      </trkpt>
      <trkpt lat="46.17931" lon="6.70401">
        <ele>984</ele>
        <time>2010-01-02T12:43:29Z</time>
      </trkpt>
      <trkpt lat="46.17993" lon="6.70303">
        <ele>984</ele>
        <time>2010-01-02T12:44:06Z</time>
      </trkpt>
      <trkpt lat="46.18039" lon="6.7023">
        <ele>980</ele>
        <time>2010-01-02T12:44:33Z</time>
      </trkpt>
      <trkpt lat="46.18044" lon="6.70219">
        <ele>980</ele>
        <time>2010-01-02T12:44:37Z</time>
      </trkpt>
      <trkpt lat="46.18032" lon="6.70203">
        <ele>981</ele>
        <time>2010-01-02T12:44:43Z</time>
      </trkpt>
      <trkpt lat="46.18016" lon="6.70178">
        <ele>982</ele>
        <time>2010-01-02T12:44:53Z</time>
      </trkpt>
      <trkpt lat="46.18004" lon="6.70169">
        <ele>983</ele>
        <time>2010-01-02T12:44:58Z</time>
      </trkpt>
      <trkpt lat="46.18003" lon="6.70169">
        <ele>984</ele>
        <time>2010-01-02T12:44:59Z</time>
      </trkpt>
      <trkpt lat="46.17987" lon="6.70154">
        <ele>988</ele>
        <time>2010-01-02T12:45:06Z</time>
      </trkpt>
      <trkpt lat="46.17974" lon="6.70136">
        <ele>991</ele>
        <time>2010-01-02T12:45:14Z</time>
      </trkpt>
      <trkpt lat="46.17962" lon="6.70134">
        <ele>992</ele>
        <time>2010-01-02T12:45:18Z</time>
      </trkpt>
      <trkpt lat="46.17852" lon="6.70031">
        <ele>1033</ele>
        <time>2010-01-02T12:46:11Z</time>
      </trkpt>
      <trkpt lat="46.17805" lon="6.70021">
        <ele>1062</ele>
        <time>2010-01-02T12:46:30Z</time>
      </trkpt>
      <trkpt lat="46.17709" lon="6.69911">
        <ele>1130</ele>
        <time>2010-01-02T12:47:19Z</time>
      </trkpt>
      <trkpt lat="46.17648" lon="6.69888">
        <ele>1167</ele>
        <time>2010-01-02T12:47:44Z</time>
      </trkpt>
      <trkpt lat="46.17582" lon="6.69757">
        <ele>1220</ele>
        <time>2010-01-02T12:48:29Z</time>
      </trkpt>
      <trkpt lat="46.17539" lon="6.69753">
        <ele>1222</ele>
        <time>2010-01-02T12:48:46Z</time>
      </trkpt>
      <trkpt lat="46.17422" lon="6.69627">
        <ele>1274</ele>
        <time>2010-01-02T12:49:45Z</time>
      </trkpt>
      <trkpt lat="46.17325" lon="6.69539">
        <ele>1315</ele>
        <time>2010-01-02T12:50:31Z</time>
      </trkpt>
      <trkpt lat="46.17218" lon="6.69447">
        <ele>1358</ele>
        <time>2010-01-02T12:51:20Z</time>
      </trkpt>
      <trkpt lat="46.17088" lon="6.69343">
        <ele>1428</ele>
        <time>2010-01-02T12:52:20Z</time>
      </trkpt>
      <trkpt lat="46.16968" lon="6.69204">
        <ele>1496</ele>
        <time>2010-01-02T12:53:22Z</time>
      </trkpt>
      <trkpt lat="46.1697" lon="6.69193">
        <ele>1496</ele>
        <time>2010-01-02T12:53:25Z</time>
      </trkpt>
      <trkpt lat="46.17002" lon="6.69169">
        <ele>1493</ele>
        <time>2010-01-02T12:53:39Z</time>
      </trkpt>
      <trkpt lat="46.17048" lon="6.69125">
        <ele>1483</ele>
        <time>2010-01-02T12:54:01Z</time>
      </trkpt>
      <trkpt lat="46.17078" lon="6.69093">
        <ele>1481</ele>
        <time>2010-01-02T12:54:16Z</time>
      </trkpt>
      <trkpt lat="46.17097" lon="6.69087">
        <ele>1476</ele>
        <time>2010-01-02T12:54:24Z</time>
      </trkpt>
      <trkpt lat="46.17123" lon="6.6912">
        <ele>1472</ele>
        <time>2010-01-02T12:54:38Z</time>
      </trkpt>
      <trkpt lat="46.17133" lon="6.69136">
        <ele>1470</ele>
        <time>2010-01-02T12:54:44Z</time>
      </trkpt>
      <trkpt lat="46.17144" lon="6.69137">
        <ele>1469</ele>
        <time>2010-01-02T12:54:48Z</time>
      </trkpt>
      <trkpt lat="46.17156" lon="6.69133">
        <ele>1469</ele>
        <time>2010-01-02T12:54:53Z</time>
      </trkpt>
      <trkpt lat="46.17165" lon="6.69124">
        <ele>1470</ele>
        <time>2010-01-02T12:54:58Z</time>
      </trkpt>
      <trkpt lat="46.17211" lon="6.69091">
        <ele>1458</ele>
        <time>2010-01-02T12:55:18Z</time>
      </trkpt>
      <trkpt lat="46.17217" lon="6.6907">
        <ele>1457</ele>
        <time>2010-01-02T12:55:24Z</time>
      </trkpt>
      <trkpt lat="46.17211" lon="6.69">
        <ele>1449</ele>
        <time>2010-01-02T12:55:44Z</time>
      </trkpt>
      <trkpt lat="46.17213" lon="6.68982">
        <ele>1448</ele>
        <time>2010-01-02T12:55:49Z</time>
      </trkpt>
      <trkpt lat="46.17225" lon="6.68953">
        <ele>1446</ele>
        <time>2010-01-02T12:55:58Z</time>
      </trkpt>
      <trkpt lat="46.17226" lon="6.68932">
        <ele>1444</ele>
        <time>2010-01-02T12:56:04Z</time>
      </trkpt>
      <trkpt lat="46.17217" lon="6.68917">
        <ele>1445</ele>
        <time>2010-01-02T12:56:09Z</time>
      </trkpt>
      <trkpt lat="46.17187" lon="6.68875">
        <ele>1441</ele>
        <time>2010-01-02T12:56:26Z</time>
      </trkpt>
      <trkpt lat="46.17181" lon="6.6885">
        <ele>1441</ele>
        <time>2010-01-02T12:56:34Z</time>
      </trkpt>
      <trkpt lat="46.1718" lon="6.68824">
        <ele>1437</ele>
        <time>2010-01-02T12:56:41Z</time>
      </trkpt>
      <trkpt lat="46.17174" lon="6.68781">
        <ele>1431</ele>
        <time>2010-01-02T12:56:53Z</time>
      </trkpt>
      <trkpt lat="46.1716" lon="6.68768">
        <ele>1439</ele>
        <time>2010-01-02T12:57:00Z</time>
      </trkpt>
      <trkpt lat="46.17131" lon="6.68744">
        <ele>1433</ele>
        <time>2010-01-02T12:57:13Z</time>
      </trkpt>
      <trkpt lat="46.1709" lon="6.68726">
        <ele>1436</ele>
        <time>2010-01-02T12:57:30Z</time>
      </trkpt>
      <trkpt lat="46.17041" lon="6.68714">
        <ele>1446</ele>
        <time>2010-01-02T12:57:50Z</time>
      </trkpt>
      <trkpt lat="46.17012" lon="6.68714">
        <ele>1448</ele>
        <time>2010-01-02T12:58:02Z</time>
      </trkpt>
      <trkpt lat="46.16985" lon="6.68701">
        <ele>1453</ele>
        <time>2010-01-02T12:58:13Z</time>
      </trkpt>
      <trkpt lat="46.16976" lon="6.68679">
        <ele>1451</ele>
        <time>2010-01-02T12:58:20Z</time>
      </trkpt>
      <trkpt lat="46.16955" lon="6.68662">
        <ele>1444</ele>
        <time>2010-01-02T12:58:30Z</time>
      </trkpt>
      <trkpt lat="46.16926" lon="6.68647">
        <ele>1445</ele>
        <time>2010-01-02T12:58:42Z</time>
      </trkpt>
      <trkpt lat="46.1688" lon="6.68621">
        <ele>1444</ele>
        <time>2010-01-02T12:59:02Z</time>
      </trkpt>
      <trkpt lat="46.16846" lon="6.68582">
        <ele>1434</ele>
        <time>2010-01-02T12:59:19Z</time>
      </trkpt>
      <trkpt lat="46.16839" lon="6.68581">
        <ele>1435</ele>
        <time>2010-01-02T12:59:22Z</time>
      </trkpt>
      <trkpt lat="46.16832" lon="6.6858">
        <ele>1436</ele>
        <time>2010-01-02T12:59:25Z</time>
      </trkpt>
      <trkpt lat="46.16806" lon="6.6859">
        <ele>1444</ele>
        <time>2010-01-02T12:59:36Z</time>
      </trkpt>
      <trkpt lat="46.16787" lon="6.6859">
        <ele>1445</ele>
        <time>2010-01-02T12:59:44Z</time>
      </trkpt>
      <trkpt lat="46.1677" lon="6.68588">
        <ele>1445</ele>
        <time>2010-01-02T12:59:50Z</time>
      </trkpt>
      <trkpt lat="46.16768" lon="6.68588">
        <ele>1445</ele>
        <time>2010-01-02T12:59:51Z</time>
      </trkpt>
      <trkpt lat="46.16737" lon="6.68577">
        <ele>1438</ele>
        <time>2010-01-02T13:00:04Z</time>
      </trkpt>
      <trkpt lat="46.16737" lon="6.68576">
        <ele>1437</ele>
        <time>2010-01-02T13:00:04Z</time>
      </trkpt>
      <trkpt lat="46.16711" lon="6.68563">
        <ele>1434</ele>
        <time>2010-01-02T13:00:15Z</time>
      </trkpt>
      <trkpt lat="46.16679" lon="6.68553">
        <ele>1433</ele>
        <time>2010-01-02T13:00:28Z</time>
      </trkpt>
      <trkpt lat="46.16654" lon="6.68547">
        <ele>1428</ele>
        <time>2010-01-02T13:00:38Z</time>
      </trkpt>
      <trkpt lat="46.1662" lon="6.6855">
        <ele>1427</ele>
        <time>2010-01-02T13:00:52Z</time>
      </trkpt>
      <trkpt lat="46.16614" lon="6.6855">
        <ele>1427</ele>
        <time>2010-01-02T13:00:54Z</time>
      </trkpt>
      <trkpt lat="46.1661" lon="6.68551">
        <ele>1427</ele>
        <time>2010-01-02T13:00:56Z</time>
      </trkpt>
      <trkpt lat="46.16585" lon="6.6855">
        <ele>1426</ele>
        <time>2010-01-02T13:01:06Z</time>
      </trkpt>
      <trkpt lat="46.16581" lon="6.6855">
        <ele>1426</ele>
        <time>2010-01-02T13:01:07Z</time>
      </trkpt>
      <trkpt lat="46.16554" lon="6.68538">
        <ele>1425</ele>
        <time>2010-01-02T13:01:19Z</time>
      </trkpt>
      <trkpt lat="46.16538" lon="6.68531">
        <ele>1425</ele>
        <time>2010-01-02T13:01:26Z</time>
      </trkpt>
      <trkpt lat="46.16526" lon="6.68532">
        <ele>1425</ele>
        <time>2010-01-02T13:01:30Z</time>
      </trkpt>
      <trkpt lat="46.16515" lon="6.68531">
        <ele>1425</ele>
        <time>2010-01-02T13:01:35Z</time>
      </trkpt>
      <trkpt lat="46.16468" lon="6.68492">
        <ele>1414</ele>
        <time>2010-01-02T13:01:56Z</time>
      </trkpt>
      <trkpt lat="46.16438" lon="6.68466">
        <ele>1414</ele>
        <time>2010-01-02T13:02:10Z</time>
      </trkpt>
      <trkpt lat="46.16429" lon="6.68457">
        <ele>1413</ele>
        <time>2010-01-02T13:02:15Z</time>
      </trkpt>
      <trkpt lat="46.16423" lon="6.68448">
        <ele>1412</ele>
        <time>2010-01-02T13:02:18Z</time>
      </trkpt>
      <trkpt lat="46.16414" lon="6.6844">
        <ele>1415</ele>
        <time>2010-01-02T13:02:23Z</time>
      </trkpt>
      <trkpt lat="46.16413" lon="6.68439">
        <ele>1415</ele>
        <time>2010-01-02T13:02:23Z</time>
      </trkpt>
      <trkpt lat="46.1641" lon="6.68439">
        <ele>1415</ele>
        <time>2010-01-02T13:02:24Z</time>
      </trkpt>
      <trkpt lat="46.1635" lon="6.68407">
        <ele>1407</ele>
        <time>2010-01-02T13:02:50Z</time>
      </trkpt>
      <trkpt lat="46.16317" lon="6.68378">
        <ele>1402</ele>
        <time>2010-01-02T13:03:05Z</time>
      </trkpt>
      <trkpt lat="46.16267" lon="6.68385">
        <ele>1402</ele>
        <time>2010-01-02T13:03:25Z</time>
      </trkpt>
      <trkpt lat="46.16222" lon="6.684">
        <ele>1397</ele>
        <time>2010-01-02T13:03:44Z</time>
      </trkpt>
      <trkpt lat="46.1614" lon="6.68437">
        <ele>1400</ele>
        <time>2010-01-02T13:04:18Z</time>
      </trkpt>
      <trkpt lat="46.16094" lon="6.68467">
        <ele>1401</ele>
        <time>2010-01-02T13:04:38Z</time>
      </trkpt>
      <trkpt lat="46.16037" lon="6.68515">
        <ele>1404</ele>
        <time>2010-01-02T13:05:05Z</time>
      </trkpt>
      <trkpt lat="46.16012" lon="6.68501">
        <ele>1397</ele>
        <time>2010-01-02T13:05:15Z</time>
      </trkpt>
      <trkpt lat="46.15994" lon="6.68494">
        <ele>1386</ele>
        <time>2010-01-02T13:05:23Z</time>
      </trkpt>
      <trkpt lat="46.15961" lon="6.68497">
        <ele>1380</ele>
        <time>2010-01-02T13:05:36Z</time>
      </trkpt>
      <trkpt lat="46.15938" lon="6.68488">
        <ele>1379</ele>
        <time>2010-01-02T13:05:46Z</time>
      </trkpt>
      <trkpt lat="46.15913" lon="6.68461">
        <ele>1376</ele>
        <time>2010-01-02T13:05:58Z</time>
      </trkpt>
      <trkpt lat="46.15885" lon="6.68439">
        <ele>1374</ele>
        <time>2010-01-02T13:06:11Z</time>
      </trkpt>
      <trkpt lat="46.15842" lon="6.68427">
        <ele>1372</ele>
        <time>2010-01-02T13:06:28Z</time>
      </trkpt>
      <trkpt lat="46.1583" lon="6.68385">
        <ele>1365</ele>
        <time>2010-01-02T13:06:41Z</time>
      </trkpt>
      <trkpt lat="46.15816" lon="6.68337">
        <ele>1360</ele>
        <time>2010-01-02T13:06:55Z</time>
      </trkpt>
      <trkpt lat="46.15773" lon="6.68274">
        <ele>1345</ele>
        <time>2010-01-02T13:07:20Z</time>
      </trkpt>
      <trkpt lat="46.15616" lon="6.68099">
        <ele>1324</ele>
        <time>2010-01-02T13:08:39Z</time>
      </trkpt>
      <trkpt lat="46.15601" lon="6.6805">
        <ele>1316</ele>
        <time>2010-01-02T13:08:54Z</time>
      </trkpt>
      <trkpt lat="46.15592" lon="6.68003">
        <ele>1315</ele>
        <time>2010-01-02T13:09:08Z</time>
      </trkpt>
      <trkpt lat="46.15585" lon="6.67896">
        <ele>1298</ele>
        <time>2010-01-02T13:09:38Z</time>
      </trkpt>
      <trkpt lat="46.15562" lon="6.67827">
        <ele>1294</ele>
        <time>2010-01-02T13:09:59Z</time>
      </trkpt>
      <trkpt lat="46.15536" lon="6.6777">
        <ele>1292</ele>
        <time>2010-01-02T13:10:18Z</time>
      </trkpt>
      <trkpt lat="46.15504" lon="6.6774">
        <ele>1286</ele>
        <time>2010-01-02T13:10:33Z</time>
      </trkpt>
      <trkpt lat="46.15471" lon="6.67708">
        <ele>1285</ele>
        <time>2010-01-02T13:10:49Z</time>
      </trkpt>
      <trkpt lat="46.15454" lon="6.67686">
        <ele>1284</ele>
        <time>2010-01-02T13:10:58Z</time>
      </trkpt>
      <trkpt lat="46.15441" lon="6.67667">
        <ele>1275</ele>
        <time>2010-01-02T13:11:06Z</time>
      </trkpt>
      <trkpt lat="46.15414" lon="6.6765">
        <ele>1277</ele>
        <time>2010-01-02T13:11:17Z</time>
      </trkpt>
      <trkpt lat="46.15407" lon="6.67625">
        <ele>1275</ele>
        <time>2010-01-02T13:11:25Z</time>
      </trkpt>
      <trkpt lat="46.15416" lon="6.67603">
        <ele>1272</ele>
        <time>2010-01-02T13:11:32Z</time>
      </trkpt>
      <trkpt lat="46.15409" lon="6.67579">
        <ele>1266</ele>
        <time>2010-01-02T13:11:39Z</time>
      </trkpt>
      <trkpt lat="46.1538" lon="6.67545">
        <ele>1265</ele>
        <time>2010-01-02T13:11:54Z</time>
      </trkpt>
      <trkpt lat="46.15362" lon="6.67513">
        <ele>1265</ele>
        <time>2010-01-02T13:12:05Z</time>
      </trkpt>
      <trkpt lat="46.15361" lon="6.67483">
        <ele>1258</ele>
        <time>2010-01-02T13:12:14Z</time>
      </trkpt>
      <trkpt lat="46.15404" lon="6.67423">
        <ele>1250</ele>
        <time>2010-01-02T13:12:38Z</time>
      </trkpt>
      <trkpt lat="46.15413" lon="6.67395">
        <ele>1247</ele>
        <time>2010-01-02T13:12:46Z</time>
      </trkpt>
      <trkpt lat="46.15421" lon="6.67376">
        <ele>1243</ele>
        <time>2010-01-02T13:12:52Z</time>
      </trkpt>
      <trkpt lat="46.15446" lon="6.67358">
        <ele>1242</ele>
        <time>2010-01-02T13:13:04Z</time>
      </trkpt>
      <trkpt lat="46.15461" lon="6.67344">
        <ele>1242</ele>
        <time>2010-01-02T13:13:11Z</time>
      </trkpt>
      <trkpt lat="46.15525" lon="6.67187">
        <ele>1237</ele>
        <time>2010-01-02T13:14:01Z</time>
      </trkpt>
      <trkpt lat="46.1559" lon="6.67124">
        <ele>1223</ele>
        <time>2010-01-02T13:14:32Z</time>
      </trkpt>
      <trkpt lat="46.15616" lon="6.67099">
        <ele>1221</ele>
        <time>2010-01-02T13:14:45Z</time>
      </trkpt>
      <trkpt lat="46.15614" lon="6.6708">
        <ele>1214</ele>
        <time>2010-01-02T13:14:50Z</time>
      </trkpt>
      <trkpt lat="46.15613" lon="6.6707">
        <ele>1213</ele>
        <time>2010-01-02T13:14:53Z</time>
      </trkpt>
      <trkpt lat="46.15637" lon="6.67069">
        <ele>1211</ele>
        <time>2010-01-02T13:15:03Z</time>
      </trkpt>
      <trkpt lat="46.15631" lon="6.67058">
        <ele>1210</ele>
        <time>2010-01-02T13:15:07Z</time>
      </trkpt>
      <trkpt lat="46.15628" lon="6.67045">
        <ele>1209</ele>
        <time>2010-01-02T13:15:11Z</time>
      </trkpt>
      <trkpt lat="46.15635" lon="6.67042">
        <ele>1208</ele>
        <time>2010-01-02T13:15:13Z</time>
      </trkpt>
      <trkpt lat="46.15644" lon="6.67047">
        <ele>1208</ele>
        <time>2010-01-02T13:15:17Z</time>
      </trkpt>
      <trkpt lat="46.15649" lon="6.67037">
        <ele>1206</ele>
        <time>2010-01-02T13:15:21Z</time>
      </trkpt>
      <trkpt lat="46.15644" lon="6.67028">
        <ele>1206</ele>
        <time>2010-01-02T13:15:24Z</time>
      </trkpt>
      <trkpt lat="46.15634" lon="6.67018">
        <ele>1206</ele>
        <time>2010-01-02T13:15:29Z</time>
      </trkpt>
      <trkpt lat="46.15635" lon="6.67005">
        <ele>1204</ele>
        <time>2010-01-02T13:15:33Z</time>
      </trkpt>
      <trkpt lat="46.15636" lon="6.67002">
        <ele>1204</ele>
        <time>2010-01-02T13:15:33Z</time>
      </trkpt>
      <trkpt lat="46.15646" lon="6.67007">
        <ele>1202</ele>
        <time>2010-01-02T13:15:37Z</time>
      </trkpt>
      <trkpt lat="46.15649" lon="6.6701">
        <ele>1201</ele>
        <time>2010-01-02T13:15:39Z</time>
      </trkpt>
      <trkpt lat="46.15666" lon="6.67019">
        <ele>1201</ele>
        <time>2010-01-02T13:15:46Z</time>
      </trkpt>
      <trkpt lat="46.15673" lon="6.67019">
        <ele>1192</ele>
        <time>2010-01-02T13:15:49Z</time>
      </trkpt>
      <trkpt lat="46.15674" lon="6.67012">
        <ele>1191</ele>
        <time>2010-01-02T13:15:51Z</time>
      </trkpt>
      <trkpt lat="46.15666" lon="6.66999">
        <ele>1191</ele>
        <time>2010-01-02T13:15:56Z</time>
      </trkpt>
      <trkpt lat="46.1566" lon="6.66989">
        <ele>1191</ele>
        <time>2010-01-02T13:16:00Z</time>
      </trkpt>
      <trkpt lat="46.15661" lon="6.6698">
        <ele>1191</ele>
        <time>2010-01-02T13:16:02Z</time>
      </trkpt>
      <trkpt lat="46.1567" lon="6.6698">
        <ele>1184</ele>
        <time>2010-01-02T13:16:06Z</time>
      </trkpt>
      <trkpt lat="46.15675" lon="6.66979">
        <ele>1183</ele>
        <time>2010-01-02T13:16:08Z</time>
      </trkpt>
      <trkpt lat="46.15671" lon="6.66966">
        <ele>1181</ele>
        <time>2010-01-02T13:16:12Z</time>
      </trkpt>
      <trkpt lat="46.15669" lon="6.6695">
        <ele>1179</ele>
        <time>2010-01-02T13:16:17Z</time>
      </trkpt>
      <trkpt lat="46.15664" lon="6.66937">
        <ele>1185</ele>
        <time>2010-01-02T13:16:21Z</time>
      </trkpt>
      <trkpt lat="46.15658" lon="6.66917">
        <ele>1181</ele>
        <time>2010-01-02T13:16:27Z</time>
      </trkpt>
      <trkpt lat="46.15651" lon="6.66893">
        <ele>1178</ele>
        <time>2010-01-02T13:16:34Z</time>
      </trkpt>
      <trkpt lat="46.1565" lon="6.66873">
        <ele>1178</ele>
        <time>2010-01-02T13:16:40Z</time>
      </trkpt>
      <trkpt lat="46.15651" lon="6.66872">
        <ele>1178</ele>
        <time>2010-01-02T13:16:40Z</time>
      </trkpt>
      <trkpt lat="46.15645" lon="6.66851">
        <ele>1177</ele>
        <time>2010-01-02T13:16:46Z</time>
      </trkpt>
      <trkpt lat="46.15646" lon="6.66829">
        <ele>1174</ele>
        <time>2010-01-02T13:16:52Z</time>
      </trkpt>
      <trkpt lat="46.15646" lon="6.66825">
        <ele>1174</ele>
        <time>2010-01-02T13:16:53Z</time>
      </trkpt>
      <trkpt lat="46.15653" lon="6.66812">
        <ele>1173</ele>
        <time>2010-01-02T13:16:58Z</time>
      </trkpt>
      <trkpt lat="46.15654" lon="6.66812">
        <ele>1173</ele>
        <time>2010-01-02T13:16:58Z</time>
      </trkpt>
      <trkpt lat="46.15675" lon="6.6681">
        <ele>1169</ele>
        <time>2010-01-02T13:17:07Z</time>
      </trkpt>
      <trkpt lat="46.1569" lon="6.66816">
        <ele>1168</ele>
        <time>2010-01-02T13:17:13Z</time>
      </trkpt>
      <trkpt lat="46.15679" lon="6.66824">
        <ele>1169</ele>
        <time>2010-01-02T13:17:17Z</time>
      </trkpt>
      <trkpt lat="46.15679" lon="6.66826">
        <ele>1169</ele>
        <time>2010-01-02T13:17:18Z</time>
      </trkpt>
      <trkpt lat="46.15673" lon="6.66838">
        <ele>1171</ele>
        <time>2010-01-02T13:17:22Z</time>
      </trkpt>
      <trkpt lat="46.15668" lon="6.66851">
        <ele>1171</ele>
        <time>2010-01-02T13:17:26Z</time>
      </trkpt>
      <trkpt lat="46.15599" lon="6.66972">
        <ele>1196</ele>
        <time>2010-01-02T13:18:10Z</time>
      </trkpt>
      <trkpt lat="46.15537" lon="6.67123">
        <ele>1232</ele>
        <time>2010-01-02T13:18:58Z</time>
      </trkpt>
      <trkpt lat="46.15403" lon="6.67485">
        <ele>1255</ele>
        <time>2010-01-02T13:20:52Z</time>
      </trkpt>
      <trkpt lat="46.15184" lon="6.67911">
        <ele>1343</ele>
        <time>2010-01-02T13:23:19Z</time>
      </trkpt>
      <trkpt lat="46.15119" lon="6.68089">
        <ele>1400</ele>
        <time>2010-01-02T13:24:15Z</time>
      </trkpt>
      <trkpt lat="46.15003" lon="6.68379">
        <ele>1461</ele>
        <time>2010-01-02T13:25:48Z</time>
      </trkpt>
      <trkpt lat="46.1487" lon="6.68704">
        <ele>1509</ele>
        <time>2010-01-02T13:27:33Z</time>
      </trkpt>
      <trkpt lat="46.14627" lon="6.69145">
        <ele>1577</ele>
        <time>2010-01-02T13:30:09Z</time>
      </trkpt>
      <trkpt lat="46.14513" lon="6.69396">
        <ele>1610</ele>
        <time>2010-01-02T13:31:32Z</time>
      </trkpt>
      <trkpt lat="46.14528" lon="6.69438">
        <ele>1606</ele>
        <time>2010-01-02T13:31:45Z</time>
      </trkpt>
      <trkpt lat="46.14568" lon="6.69422">
        <ele>1605</ele>
        <time>2010-01-02T13:32:02Z</time>
      </trkpt>
      <trkpt lat="46.14593" lon="6.69389">
        <ele>1603</ele>
        <time>2010-01-02T13:32:16Z</time>
      </trkpt>
      <trkpt lat="46.14622" lon="6.69343">
        <ele>1602</ele>
        <time>2010-01-02T13:32:33Z</time>
      </trkpt>
      <trkpt lat="46.14654" lon="6.69318">
        <ele>1599</ele>
        <time>2010-01-02T13:32:47Z</time>
      </trkpt>
      <trkpt lat="46.14685" lon="6.69318">
        <ele>1596</ele>
        <time>2010-01-02T13:33:00Z</time>
      </trkpt>
      <trkpt lat="46.14721" lon="6.69315">
        <ele>1593</ele>
        <time>2010-01-02T13:33:14Z</time>
      </trkpt>
      <trkpt lat="46.14752" lon="6.69313">
        <ele>1587</ele>
        <time>2010-01-02T13:33:27Z</time>
      </trkpt>
      <trkpt lat="46.14786" lon="6.6931">
        <ele>1584</ele>
        <time>2010-01-02T13:33:40Z</time>
      </trkpt>
      <trkpt lat="46.14793" lon="6.69307">
        <ele>1583</ele>
        <time>2010-01-02T13:33:43Z</time>
      </trkpt>
      <trkpt lat="46.14828" lon="6.69296">
        <ele>1581</ele>
        <time>2010-01-02T13:33:58Z</time>
      </trkpt>
      <trkpt lat="46.14843" lon="6.69305">
        <ele>1573</ele>
        <time>2010-01-02T13:34:04Z</time>
      </trkpt>
      <trkpt lat="46.14868" lon="6.69324">
        <ele>1572</ele>
        <time>2010-01-02T13:34:15Z</time>
      </trkpt>
      <trkpt lat="46.1489" lon="6.6934">
        <ele>1567</ele>
        <time>2010-01-02T13:34:25Z</time>
      </trkpt>
      <trkpt lat="46.14922" lon="6.69376">
        <ele>1560</ele>
        <time>2010-01-02T13:34:41Z</time>
      </trkpt>
      <trkpt lat="46.14942" lon="6.69395">
        <ele>1559</ele>
        <time>2010-01-02T13:34:51Z</time>
      </trkpt>
      <trkpt lat="46.1498" lon="6.69423">
        <ele>1555</ele>
        <time>2010-01-02T13:35:08Z</time>
      </trkpt>
      <trkpt lat="46.15004" lon="6.69439">
        <ele>1553</ele>
        <time>2010-01-02T13:35:19Z</time>
      </trkpt>
      <trkpt lat="46.15026" lon="6.69452">
        <ele>1551</ele>
        <time>2010-01-02T13:35:28Z</time>
      </trkpt>
      <trkpt lat="46.15044" lon="6.69457">
        <ele>1550</ele>
        <time>2010-01-02T13:35:36Z</time>
      </trkpt>
      <trkpt lat="46.15073" lon="6.69459">
        <ele>1550</ele>
        <time>2010-01-02T13:35:47Z</time>
      </trkpt>
      <trkpt lat="46.15097" lon="6.69456">
        <ele>1546</ele>
        <time>2010-01-02T13:35:57Z</time>
      </trkpt>
      <trkpt lat="46.15113" lon="6.69444">
        <ele>1545</ele>
        <time>2010-01-02T13:36:04Z</time>
      </trkpt>
      <trkpt lat="46.15125" lon="6.69433">
        <ele>1545</ele>
        <time>2010-01-02T13:36:10Z</time>
      </trkpt>
      <trkpt lat="46.15134" lon="6.69417">
        <ele>1544</ele>
        <time>2010-01-02T13:36:15Z</time>
      </trkpt>
      <trkpt lat="46.15146" lon="6.69405">
        <ele>1540</ele>
        <time>2010-01-02T13:36:21Z</time>
      </trkpt>
      <trkpt lat="46.15162" lon="6.69395">
        <ele>1540</ele>
        <time>2010-01-02T13:36:28Z</time>
      </trkpt>
      <trkpt lat="46.15164" lon="6.69394">
        <ele>1540</ele>
        <time>2010-01-02T13:36:29Z</time>
      </trkpt>
      <trkpt lat="46.15183" lon="6.69382">
        <ele>1531</ele>
        <time>2010-01-02T13:36:37Z</time>
      </trkpt>
      <trkpt lat="46.15189" lon="6.6938">
        <ele>1530</ele>
        <time>2010-01-02T13:36:39Z</time>
      </trkpt>
      <trkpt lat="46.15205" lon="6.69377">
        <ele>1529</ele>
        <time>2010-01-02T13:36:46Z</time>
      </trkpt>
      <trkpt lat="46.15205" lon="6.69376">
        <ele>1529</ele>
        <time>2010-01-02T13:36:47Z</time>
      </trkpt>
      <trkpt lat="46.15218" lon="6.69378">
        <ele>1528</ele>
        <time>2010-01-02T13:36:52Z</time>
      </trkpt>
      <trkpt lat="46.1522" lon="6.69379">
        <ele>1528</ele>
        <time>2010-01-02T13:36:52Z</time>
      </trkpt>
      <trkpt lat="46.15233" lon="6.69388">
        <ele>1527</ele>
        <time>2010-01-02T13:36:58Z</time>
      </trkpt>
      <trkpt lat="46.15235" lon="6.69389">
        <ele>1527</ele>
        <time>2010-01-02T13:36:59Z</time>
      </trkpt>
      <trkpt lat="46.15248" lon="6.69401">
        <ele>1526</ele>
        <time>2010-01-02T13:37:05Z</time>
      </trkpt>
      <trkpt lat="46.15262" lon="6.6941">
        <ele>1523</ele>
        <time>2010-01-02T13:37:11Z</time>
      </trkpt>
      <trkpt lat="46.15281" lon="6.69415">
        <ele>1521</ele>
        <time>2010-01-02T13:37:19Z</time>
      </trkpt>
      <trkpt lat="46.15282" lon="6.69414">
        <ele>1521</ele>
        <time>2010-01-02T13:37:20Z</time>
      </trkpt>
      <trkpt lat="46.153" lon="6.69414">
        <ele>1520</ele>
        <time>2010-01-02T13:37:27Z</time>
      </trkpt>
      <trkpt lat="46.15361" lon="6.69431">
        <ele>1518</ele>
        <time>2010-01-02T13:37:52Z</time>
      </trkpt>
      <trkpt lat="46.15362" lon="6.6943">
        <ele>1518</ele>
        <time>2010-01-02T13:37:52Z</time>
      </trkpt>
      <trkpt lat="46.1541" lon="6.69434">
        <ele>1522</ele>
        <time>2010-01-02T13:38:11Z</time>
      </trkpt>
      <trkpt lat="46.15427" lon="6.69424">
        <ele>1525</ele>
        <time>2010-01-02T13:38:19Z</time>
      </trkpt>
      <trkpt lat="46.1543" lon="6.69424">
        <ele>1524</ele>
        <time>2010-01-02T13:38:20Z</time>
      </trkpt>
      <trkpt lat="46.15433" lon="6.69424">
        <ele>1524</ele>
        <time>2010-01-02T13:38:21Z</time>
      </trkpt>
      <trkpt lat="46.15459" lon="6.69417">
        <ele>1526</ele>
        <time>2010-01-02T13:38:32Z</time>
      </trkpt>
      <trkpt lat="46.15462" lon="6.69416">
        <ele>1526</ele>
        <time>2010-01-02T13:38:33Z</time>
      </trkpt>
      <trkpt lat="46.15475" lon="6.69417">
        <ele>1522</ele>
        <time>2010-01-02T13:38:38Z</time>
      </trkpt>
      <trkpt lat="46.15477" lon="6.69418">
        <ele>1522</ele>
        <time>2010-01-02T13:38:39Z</time>
      </trkpt>
      <trkpt lat="46.15525" lon="6.69414">
        <ele>1525</ele>
        <time>2010-01-02T13:38:58Z</time>
      </trkpt>
      <trkpt lat="46.15526" lon="6.6941">
        <ele>1525</ele>
        <time>2010-01-02T13:38:59Z</time>
      </trkpt>
      <trkpt lat="46.15558" lon="6.69391">
        <ele>1524</ele>
        <time>2010-01-02T13:39:13Z</time>
      </trkpt>
      <trkpt lat="46.15558" lon="6.69391">
        <ele>1524</ele>
        <time>2010-01-02T13:39:13Z</time>
      </trkpt>
      <trkpt lat="46.15562" lon="6.69389">
        <ele>1524</ele>
        <time>2010-01-02T13:39:15Z</time>
      </trkpt>
      <trkpt lat="46.15593" lon="6.6938">
        <ele>1521</ele>
        <time>2010-01-02T13:39:27Z</time>
      </trkpt>
      <trkpt lat="46.15596" lon="6.69377">
        <ele>1521</ele>
        <time>2010-01-02T13:39:29Z</time>
      </trkpt>
      <trkpt lat="46.15598" lon="6.69376">
        <ele>1521</ele>
        <time>2010-01-02T13:39:30Z</time>
      </trkpt>
      <trkpt lat="46.15598" lon="6.69375">
        <ele>1521</ele>
        <time>2010-01-02T13:39:30Z</time>
      </trkpt>
      <trkpt lat="46.156" lon="6.69371">
        <ele>1521</ele>
        <time>2010-01-02T13:39:31Z</time>
      </trkpt>
      <trkpt lat="46.1561" lon="6.69363">
        <ele>1522</ele>
        <time>2010-01-02T13:39:36Z</time>
      </trkpt>
      <trkpt lat="46.1561" lon="6.69361">
        <ele>1522</ele>
        <time>2010-01-02T13:39:36Z</time>
      </trkpt>
      <trkpt lat="46.15658" lon="6.69333">
        <ele>1526</ele>
        <time>2010-01-02T13:39:57Z</time>
      </trkpt>
      <trkpt lat="46.15694" lon="6.69326">
        <ele>1517</ele>
        <time>2010-01-02T13:40:12Z</time>
      </trkpt>
      <trkpt lat="46.15721" lon="6.69296">
        <ele>1512</ele>
        <time>2010-01-02T13:40:25Z</time>
      </trkpt>
      <trkpt lat="46.15766" lon="6.6928">
        <ele>1501</ele>
        <time>2010-01-02T13:40:44Z</time>
      </trkpt>
      <trkpt lat="46.15816" lon="6.69262">
        <ele>1499</ele>
        <time>2010-01-02T13:41:05Z</time>
      </trkpt>
      <trkpt lat="46.15892" lon="6.69273">
        <ele>1497</ele>
        <time>2010-01-02T13:41:35Z</time>
      </trkpt>
      <trkpt lat="46.15941" lon="6.69326">
        <ele>1500</ele>
        <time>2010-01-02T13:42:00Z</time>
      </trkpt>
      <trkpt lat="46.15961" lon="6.6935">
        <ele>1498</ele>
        <time>2010-01-02T13:42:10Z</time>
      </trkpt>
      <trkpt lat="46.16014" lon="6.69366">
        <ele>1511</ele>
        <time>2010-01-02T13:42:32Z</time>
      </trkpt>
      <trkpt lat="46.16063" lon="6.69408">
        <ele>1520</ele>
        <time>2010-01-02T13:42:55Z</time>
      </trkpt>
      <trkpt lat="46.16097" lon="6.69454">
        <ele>1530</ele>
        <time>2010-01-02T13:43:13Z</time>
      </trkpt>
      <trkpt lat="46.16206" lon="6.69488">
        <ele>1538</ele>
        <time>2010-01-02T13:43:58Z</time>
      </trkpt>
      <trkpt lat="46.16247" lon="6.69473">
        <ele>1538</ele>
        <time>2010-01-02T13:44:15Z</time>
      </trkpt>
      <trkpt lat="46.16305" lon="6.69362">
        <ele>1540</ele>
        <time>2010-01-02T13:44:54Z</time>
      </trkpt>
      <trkpt lat="46.1641" lon="6.69316">
        <ele>1532</ele>
        <time>2010-01-02T13:45:37Z</time>
      </trkpt>
      <trkpt lat="46.16427" lon="6.69314">
        <ele>1529</ele>
        <time>2010-01-02T13:45:44Z</time>
      </trkpt>
      <trkpt lat="46.16486" lon="6.69301">
        <ele>1527</ele>
        <time>2010-01-02T13:46:08Z</time>
      </trkpt>
      <trkpt lat="46.16556" lon="6.69284">
        <ele>1527</ele>
        <time>2010-01-02T13:46:36Z</time>
      </trkpt>
      <trkpt lat="46.16623" lon="6.69288">
        <ele>1524</ele>
        <time>2010-01-02T13:47:03Z</time>
      </trkpt>
      <trkpt lat="46.16631" lon="6.69288">
        <ele>1524</ele>
        <time>2010-01-02T13:47:06Z</time>
      </trkpt>
      <trkpt lat="46.16714" lon="6.69259">
        <ele>1521</ele>
        <time>2010-01-02T13:47:41Z</time>
      </trkpt>
      <trkpt lat="46.16769" lon="6.6924">
        <ele>1519</ele>
        <time>2010-01-02T13:48:03Z</time>
      </trkpt>
      <trkpt lat="46.16856" lon="6.69218">
        <ele>1509</ele>
        <time>2010-01-02T13:48:39Z</time>
      </trkpt>
      <trkpt lat="46.16881" lon="6.69216">
        <ele>1507</ele>
        <time>2010-01-02T13:48:49Z</time>
      </trkpt>
      <trkpt lat="46.16905" lon="6.69214">
        <ele>1506</ele>
        <time>2010-01-02T13:48:58Z</time>
      </trkpt>
      <trkpt lat="46.16975" lon="6.69214">
        <ele>1495</ele>
        <time>2010-01-02T13:49:27Z</time>
      </trkpt>
      <trkpt lat="46.16824" lon="6.69224">
        <ele>1515</ele>
        <time>2010-01-02T13:50:27Z</time>
      </trkpt>
      <trkpt lat="46.16725" lon="6.69271">
        <ele>1519</ele>
        <time>2010-01-02T13:51:09Z</time>
      </trkpt>
      <trkpt lat="46.16664" lon="6.6928">
        <ele>1525</ele>
        <time>2010-01-02T13:51:33Z</time>
      </trkpt>
      <trkpt lat="46.16617" lon="6.69301">
        <ele>1523</ele>
        <time>2010-01-02T13:51:53Z</time>
      </trkpt>
      <trkpt lat="46.16561" lon="6.69306">
        <ele>1525</ele>
        <time>2010-01-02T13:52:16Z</time>
      </trkpt>
      <trkpt lat="46.16512" lon="6.69307">
        <ele>1525</ele>
        <time>2010-01-02T13:52:35Z</time>
      </trkpt>
      <trkpt lat="46.16472" lon="6.69308">
        <ele>1527</ele>
        <time>2010-01-02T13:52:51Z</time>
      </trkpt>
      <trkpt lat="46.16418" lon="6.69324">
        <ele>1530</ele>
        <time>2010-01-02T13:53:13Z</time>
      </trkpt>
      <trkpt lat="46.16459" lon="6.69328">
        <ele>1528</ele>
        <time>2010-01-02T13:53:30Z</time>
      </trkpt>
      <trkpt lat="46.16513" lon="6.69334">
        <ele>1516</ele>
        <time>2010-01-02T13:53:52Z</time>
      </trkpt>
      <trkpt lat="46.16548" lon="6.69348">
        <ele>1510</ele>
        <time>2010-01-02T13:54:06Z</time>
      </trkpt>
      <trkpt lat="46.16614" lon="6.69354">
        <ele>1502</ele>
        <time>2010-01-02T13:54:33Z</time>
      </trkpt>
      <trkpt lat="46.16679" lon="6.69355">
        <ele>1494</ele>
        <time>2010-01-02T13:54:59Z</time>
      </trkpt>
      <trkpt lat="46.16743" lon="6.69358">
        <ele>1490</ele>
        <time>2010-01-02T13:55:24Z</time>
      </trkpt>
      <trkpt lat="46.16851" lon="6.69377">
        <ele>1474</ele>
        <time>2010-01-02T13:56:08Z</time>
      </trkpt>
      <trkpt lat="46.16911" lon="6.69391">
        <ele>1468</ele>
        <time>2010-01-02T13:56:32Z</time>
      </trkpt>
      <trkpt lat="46.16959" lon="6.69401">
        <ele>1459</ele>
        <time>2010-01-02T13:56:52Z</time>
      </trkpt>
      <trkpt lat="46.17" lon="6.69412">
        <ele>1444</ele>
        <time>2010-01-02T13:57:08Z</time>
      </trkpt>
      <trkpt lat="46.16983" lon="6.69418">
        <ele>1441</ele>
        <time>2010-01-02T13:57:16Z</time>
      </trkpt>
      <trkpt lat="46.16961" lon="6.6944">
        <ele>1439</ele>
        <time>2010-01-02T13:57:26Z</time>
      </trkpt>
      <trkpt lat="46.16938" lon="6.69449">
        <ele>1439</ele>
        <time>2010-01-02T13:57:36Z</time>
      </trkpt>
      <trkpt lat="46.16909" lon="6.6946">
        <ele>1438</ele>
        <time>2010-01-02T13:57:48Z</time>
      </trkpt>
      <trkpt lat="46.1684" lon="6.69476">
        <ele>1431</ele>
        <time>2010-01-02T13:58:16Z</time>
      </trkpt>
      <trkpt lat="46.16748" lon="6.69513">
        <ele>1418</ele>
        <time>2010-01-02T13:58:54Z</time>
      </trkpt>
      <trkpt lat="46.16666" lon="6.69555">
        <ele>1416</ele>
        <time>2010-01-02T13:59:29Z</time>
      </trkpt>
      <trkpt lat="46.16613" lon="6.69574">
        <ele>1415</ele>
        <time>2010-01-02T13:59:51Z</time>
      </trkpt>
      <trkpt lat="46.166" lon="6.69575">
        <ele>1413</ele>
        <time>2010-01-02T13:59:56Z</time>
      </trkpt>
      <trkpt lat="46.16594" lon="6.69576">
        <ele>1412</ele>
        <time>2010-01-02T13:59:58Z</time>
      </trkpt>
      <trkpt lat="46.16596" lon="6.69584">
        <ele>1399</ele>
        <time>2010-01-02T14:00:01Z</time>
      </trkpt>
      <trkpt lat="46.1661" lon="6.69596">
        <ele>1394</ele>
        <time>2010-01-02T14:00:07Z</time>
      </trkpt>
      <trkpt lat="46.16645" lon="6.69611">
        <ele>1391</ele>
        <time>2010-01-02T14:00:22Z</time>
      </trkpt>
      <trkpt lat="46.16671" lon="6.69626">
        <ele>1384</ele>
        <time>2010-01-02T14:00:33Z</time>
      </trkpt>
      <trkpt lat="46.16705" lon="6.69636">
        <ele>1381</ele>
        <time>2010-01-02T14:00:47Z</time>
      </trkpt>
      <trkpt lat="46.16721" lon="6.69636">
        <ele>1380</ele>
        <time>2010-01-02T14:00:53Z</time>
      </trkpt>
      <trkpt lat="46.16742" lon="6.69641">
        <ele>1377</ele>
        <time>2010-01-02T14:01:02Z</time>
      </trkpt>
      <trkpt lat="46.16749" lon="6.69644">
        <ele>1375</ele>
        <time>2010-01-02T14:01:05Z</time>
      </trkpt>
      <trkpt lat="46.16764" lon="6.6965">
        <ele>1369</ele>
        <time>2010-01-02T14:01:11Z</time>
      </trkpt>
      <trkpt lat="46.16782" lon="6.69648">
        <ele>1369</ele>
        <time>2010-01-02T14:01:18Z</time>
      </trkpt>
      <trkpt lat="46.16801" lon="6.69644">
        <ele>1367</ele>
        <time>2010-01-02T14:01:26Z</time>
      </trkpt>
      <trkpt lat="46.16814" lon="6.69649">
        <ele>1364</ele>
        <time>2010-01-02T14:01:31Z</time>
      </trkpt>
      <trkpt lat="46.16836" lon="6.69676">
        <ele>1346</ele>
        <time>2010-01-02T14:01:43Z</time>
      </trkpt>
      <trkpt lat="46.16841" lon="6.69679">
        <ele>1345</ele>
        <time>2010-01-02T14:01:45Z</time>
      </trkpt>
      <trkpt lat="46.16859" lon="6.69702">
        <ele>1341</ele>
        <time>2010-01-02T14:01:55Z</time>
      </trkpt>
      <trkpt lat="46.16867" lon="6.69715">
        <ele>1340</ele>
        <time>2010-01-02T14:01:59Z</time>
      </trkpt>
      <trkpt lat="46.16867" lon="6.69715">
        <ele>1340</ele>
        <time>2010-01-02T14:02:00Z</time>
      </trkpt>
      <trkpt lat="46.16895" lon="6.69728">
        <ele>1338</ele>
        <time>2010-01-02T14:02:12Z</time>
      </trkpt>
      <trkpt lat="46.16898" lon="6.69729">
        <ele>1338</ele>
        <time>2010-01-02T14:02:13Z</time>
      </trkpt>
      <trkpt lat="46.16972" lon="6.69766">
        <ele>1322</ele>
        <time>2010-01-02T14:02:44Z</time>
      </trkpt>
      <trkpt lat="46.17028" lon="6.6979">
        <ele>1314</ele>
        <time>2010-01-02T14:03:07Z</time>
      </trkpt>
      <trkpt lat="46.17059" lon="6.69798">
        <ele>1311</ele>
        <time>2010-01-02T14:03:20Z</time>
      </trkpt>
      <trkpt lat="46.1709" lon="6.69797">
        <ele>1303</ele>
        <time>2010-01-02T14:03:32Z</time>
      </trkpt>
      <trkpt lat="46.17117" lon="6.69786">
        <ele>1303</ele>
        <time>2010-01-02T14:03:44Z</time>
      </trkpt>
      <trkpt lat="46.17153" lon="6.69773">
        <ele>1301</ele>
        <time>2010-01-02T14:03:59Z</time>
      </trkpt>
      <trkpt lat="46.17184" lon="6.69745">
        <ele>1306</ele>
        <time>2010-01-02T14:04:13Z</time>
      </trkpt>
      <trkpt lat="46.17215" lon="6.69725">
        <ele>1307</ele>
        <time>2010-01-02T14:04:27Z</time>
      </trkpt>
      <trkpt lat="46.17223" lon="6.69723">
        <ele>1307</ele>
        <time>2010-01-02T14:04:30Z</time>
      </trkpt>
      <trkpt lat="46.17264" lon="6.69679">
        <ele>1305</ele>
        <time>2010-01-02T14:04:51Z</time>
      </trkpt>
      <trkpt lat="46.17289" lon="6.69644">
        <ele>1308</ele>
        <time>2010-01-02T14:05:04Z</time>
      </trkpt>
      <trkpt lat="46.17306" lon="6.69602">
        <ele>1308</ele>
        <time>2010-01-02T14:05:18Z</time>
      </trkpt>
      <trkpt lat="46.1732" lon="6.69569">
        <ele>1311</ele>
        <time>2010-01-02T14:05:29Z</time>
      </trkpt>
      <trkpt lat="46.17336" lon="6.69545">
        <ele>1302</ele>
        <time>2010-01-02T14:05:38Z</time>
      </trkpt>
      <trkpt lat="46.17356" lon="6.69521">
        <ele>1302</ele>
        <time>2010-01-02T14:05:48Z</time>
      </trkpt>
      <trkpt lat="46.17357" lon="6.6952">
        <ele>1302</ele>
        <time>2010-01-02T14:05:49Z</time>
      </trkpt>
      <trkpt lat="46.17379" lon="6.69497">
        <ele>1305</ele>
        <time>2010-01-02T14:06:00Z</time>
      </trkpt>
      <trkpt lat="46.17394" lon="6.69478">
        <ele>1304</ele>
        <time>2010-01-02T14:06:07Z</time>
      </trkpt>
      <trkpt lat="46.17408" lon="6.69459">
        <ele>1305</ele>
        <time>2010-01-02T14:06:15Z</time>
      </trkpt>
      <trkpt lat="46.17412" lon="6.69449">
        <ele>1305</ele>
        <time>2010-01-02T14:06:19Z</time>
      </trkpt>
      <trkpt lat="46.17418" lon="6.69431">
        <ele>1299</ele>
        <time>2010-01-02T14:06:24Z</time>
      </trkpt>
      <trkpt lat="46.1743" lon="6.6941">
        <ele>1305</ele>
        <time>2010-01-02T14:06:32Z</time>
      </trkpt>
      <trkpt lat="46.17443" lon="6.69385">
        <ele>1307</ele>
        <time>2010-01-02T14:06:40Z</time>
      </trkpt>
      <trkpt lat="46.17459" lon="6.69359">
        <ele>1309</ele>
        <time>2010-01-02T14:06:50Z</time>
      </trkpt>
      <trkpt lat="46.17506" lon="6.69364">
        <ele>1303</ele>
        <time>2010-01-02T14:07:09Z</time>
      </trkpt>
      <trkpt lat="46.17547" lon="6.69371">
        <ele>1298</ele>
        <time>2010-01-02T14:07:25Z</time>
      </trkpt>
      <trkpt lat="46.17576" lon="6.69366">
        <ele>1297</ele>
        <time>2010-01-02T14:07:37Z</time>
      </trkpt>
      <trkpt lat="46.17602" lon="6.69352">
        <ele>1289</ele>
        <time>2010-01-02T14:07:48Z</time>
      </trkpt>
      <trkpt lat="46.17649" lon="6.69292">
        <ele>1292</ele>
        <time>2010-01-02T14:08:13Z</time>
      </trkpt>
      <trkpt lat="46.1766" lon="6.69247">
        <ele>1292</ele>
        <time>2010-01-02T14:08:27Z</time>
      </trkpt>
      <trkpt lat="46.17682" lon="6.69223">
        <ele>1287</ele>
        <time>2010-01-02T14:08:38Z</time>
      </trkpt>
      <trkpt lat="46.17692" lon="6.69217">
        <ele>1287</ele>
        <time>2010-01-02T14:08:42Z</time>
      </trkpt>
      <trkpt lat="46.17725" lon="6.69188">
        <ele>1285</ele>
        <time>2010-01-02T14:08:57Z</time>
      </trkpt>
      <trkpt lat="46.17761" lon="6.69157">
        <ele>1279</ele>
        <time>2010-01-02T14:09:14Z</time>
      </trkpt>
      <trkpt lat="46.17768" lon="6.69128">
        <ele>1278</ele>
        <time>2010-01-02T14:09:22Z</time>
      </trkpt>
      <trkpt lat="46.17787" lon="6.69118">
        <ele>1276</ele>
        <time>2010-01-02T14:09:31Z</time>
      </trkpt>
      <trkpt lat="46.17815" lon="6.69097">
        <ele>1271</ele>
        <time>2010-01-02T14:09:44Z</time>
      </trkpt>
      <trkpt lat="46.1785" lon="6.69079">
        <ele>1259</ele>
        <time>2010-01-02T14:09:58Z</time>
      </trkpt>
      <trkpt lat="46.17893" lon="6.69067">
        <ele>1252</ele>
        <time>2010-01-02T14:10:16Z</time>
      </trkpt>
      <trkpt lat="46.17925" lon="6.69056">
        <ele>1240</ele>
        <time>2010-01-02T14:10:29Z</time>
      </trkpt>
      <trkpt lat="46.17951" lon="6.6905">
        <ele>1236</ele>
        <time>2010-01-02T14:10:39Z</time>
      </trkpt>
      <trkpt lat="46.1799" lon="6.69074">
        <ele>1230</ele>
        <time>2010-01-02T14:10:57Z</time>
      </trkpt>
      <trkpt lat="46.18018" lon="6.69075">
        <ele>1222</ele>
        <time>2010-01-02T14:11:08Z</time>
      </trkpt>
      <trkpt lat="46.18035" lon="6.69059">
        <ele>1220</ele>
        <time>2010-01-02T14:11:16Z</time>
      </trkpt>
      <trkpt lat="46.18076" lon="6.69028">
        <ele>1218</ele>
        <time>2010-01-02T14:11:34Z</time>
      </trkpt>
      <trkpt lat="46.18114" lon="6.68981">
        <ele>1210</ele>
        <time>2010-01-02T14:11:54Z</time>
      </trkpt>
      <trkpt lat="46.18117" lon="6.68969">
        <ele>1209</ele>
        <time>2010-01-02T14:11:58Z</time>
      </trkpt>
      <trkpt lat="46.18148" lon="6.6893">
        <ele>1205</ele>
        <time>2010-01-02T14:12:14Z</time>
      </trkpt>
      <trkpt lat="46.18194" lon="6.68892">
        <ele>1188</ele>
        <time>2010-01-02T14:12:35Z</time>
      </trkpt>
      <trkpt lat="46.18243" lon="6.68852">
        <ele>1180</ele>
        <time>2010-01-02T14:12:58Z</time>
      </trkpt>
      <trkpt lat="46.18328" lon="6.68857">
        <ele>1173</ele>
        <time>2010-01-02T14:13:32Z</time>
      </trkpt>
      <trkpt lat="46.18411" lon="6.68873">
        <ele>1162</ele>
        <time>2010-01-02T14:14:05Z</time>
      </trkpt>
      <trkpt lat="46.18476" lon="6.68926">
        <ele>1146</ele>
        <time>2010-01-02T14:14:36Z</time>
      </trkpt>
      <trkpt lat="46.18522" lon="6.68989">
        <ele>1131</ele>
        <time>2010-01-02T14:15:01Z</time>
      </trkpt>
      <trkpt lat="46.18547" lon="6.69062">
        <ele>1114</ele>
        <time>2010-01-02T14:15:23Z</time>
      </trkpt>
      <trkpt lat="46.18541" lon="6.69143">
        <ele>1101</ele>
        <time>2010-01-02T14:15:46Z</time>
      </trkpt>
      <trkpt lat="46.18459" lon="6.69268">
        <ele>1079</ele>
        <time>2010-01-02T14:16:34Z</time>
      </trkpt>
      <trkpt lat="46.18356" lon="6.69342">
        <ele>1075</ele>
        <time>2010-01-02T14:17:20Z</time>
      </trkpt>
      <trkpt lat="46.18297" lon="6.69436">
        <ele>1058</ele>
        <time>2010-01-02T14:17:55Z</time>
      </trkpt>
      <trkpt lat="46.18216" lon="6.69582">
        <ele>1045</ele>
        <time>2010-01-02T14:18:47Z</time>
      </trkpt>
      <trkpt lat="46.18168" lon="6.69636">
        <ele>1028</ele>
        <time>2010-01-02T14:19:11Z</time>
      </trkpt>
      <trkpt lat="46.18137" lon="6.69687">
        <ele>1034</ele>
        <time>2010-01-02T14:19:30Z</time>
      </trkpt>
      <trkpt lat="46.18125" lon="6.69753">
        <ele>1016</ele>
        <time>2010-01-02T14:19:49Z</time>
      </trkpt>
      <trkpt lat="46.18085" lon="6.69798">
        <ele>1015</ele>
        <time>2010-01-02T14:20:09Z</time>
      </trkpt>
      <trkpt lat="46.18085" lon="6.69873">
        <ele>998</ele>
        <time>2010-01-02T14:20:30Z</time>
      </trkpt>
      <trkpt lat="46.18099" lon="6.69947">
        <ele>988</ele>
        <time>2010-01-02T14:20:51Z</time>
      </trkpt>
      <trkpt lat="46.18209" lon="6.70091">
        <ele>975</ele>
        <time>2010-01-02T14:21:51Z</time>
      </trkpt>
      <trkpt lat="46.1832" lon="6.70255">
        <ele>971</ele>
        <time>2010-01-02T14:22:54Z</time>
      </trkpt>
      <trkpt lat="46.18361" lon="6.70376">
        <ele>955</ele>
        <time>2010-01-02T14:23:32Z</time>
      </trkpt>
      <trkpt lat="46.18394" lon="6.70423">
        <ele>947</ele>
        <time>2010-01-02T14:23:50Z</time>
      </trkpt>
      <trkpt lat="46.18421" lon="6.70506">
        <ele>956</ele>
        <time>2010-01-02T14:24:16Z</time>
      </trkpt>
      <trkpt lat="46.18436" lon="6.70509">
        <ele>962</ele>
        <time>2010-01-02T14:24:21Z</time>
      </trkpt>
      <trkpt lat="46.18466" lon="6.70545">
        <ele>970</ele>
        <time>2010-01-02T14:24:37Z</time>
      </trkpt>
      <trkpt lat="46.18473" lon="6.70572">
        <ele>974</ele>
        <time>2010-01-02T14:24:45Z</time>
      </trkpt>
      <trkpt lat="46.18535" lon="6.70729">
        <ele>1031</ele>
        <time>2010-01-02T14:25:35Z</time>
      </trkpt>
      <trkpt lat="46.18659" lon="6.70836">
        <ele>1122</ele>
        <time>2010-01-02T14:26:33Z</time>
      </trkpt>
      <trkpt lat="46.18706" lon="6.70973">
        <ele>1181</ele>
        <time>2010-01-02T14:27:16Z</time>
      </trkpt>
      <trkpt lat="46.18814" lon="6.71177">
        <ele>1283</ele>
        <time>2010-01-02T14:28:27Z</time>
      </trkpt>
      <trkpt lat="46.1888" lon="6.71327">
        <ele>1331</ele>
        <time>2010-01-02T14:29:16Z</time>
      </trkpt>
      <trkpt lat="46.18955" lon="6.71477">
        <ele>1378</ele>
        <time>2010-01-02T14:30:07Z</time>
      </trkpt>
      <trkpt lat="46.19057" lon="6.71655">
        <ele>1426</ele>
        <time>2010-01-02T14:31:11Z</time>
      </trkpt>
      <trkpt lat="46.1911" lon="6.71769">
        <ele>1458</ele>
        <time>2010-01-02T14:31:49Z</time>
      </trkpt>
      <trkpt lat="46.19117" lon="6.71791">
        <ele>1460</ele>
        <time>2010-01-02T14:31:56Z</time>
      </trkpt>
      <trkpt lat="46.19117" lon="6.71812">
        <ele>1461</ele>
        <time>2010-01-02T14:32:02Z</time>
      </trkpt>
      <trkpt lat="46.19113" lon="6.71821">
        <ele>1461</ele>
        <time>2010-01-02T14:32:05Z</time>
      </trkpt>
      <trkpt lat="46.19106" lon="6.71822">
        <ele>1461</ele>
        <time>2010-01-02T14:32:07Z</time>
      </trkpt>
      <trkpt lat="46.19093" lon="6.71801">
        <ele>1460</ele>
        <time>2010-01-02T14:32:15Z</time>
      </trkpt>
      <trkpt lat="46.19092" lon="6.718">
        <ele>1460</ele>
        <time>2010-01-02T14:32:16Z</time>
      </trkpt>
      <trkpt lat="46.19075" lon="6.718">
        <ele>1454</ele>
        <time>2010-01-02T14:32:22Z</time>
      </trkpt>
      <trkpt lat="46.19062" lon="6.71799">
        <ele>1454</ele>
        <time>2010-01-02T14:32:28Z</time>
      </trkpt>
      <trkpt lat="46.1906" lon="6.71798">
        <ele>1453</ele>
        <time>2010-01-02T14:32:29Z</time>
      </trkpt>
      <trkpt lat="46.19052" lon="6.71794">
        <ele>1453</ele>
        <time>2010-01-02T14:32:32Z</time>
      </trkpt>
      <trkpt lat="46.19051" lon="6.71794">
        <ele>1453</ele>
        <time>2010-01-02T14:32:32Z</time>
      </trkpt>
      <trkpt lat="46.19043" lon="6.71787">
        <ele>1452</ele>
        <time>2010-01-02T14:32:36Z</time>
      </trkpt>
      <trkpt lat="46.1904" lon="6.71785">
        <ele>1451</ele>
        <time>2010-01-02T14:32:38Z</time>
      </trkpt>
      <trkpt lat="46.19038" lon="6.71785">
        <ele>1451</ele>
        <time>2010-01-02T14:32:38Z</time>
      </trkpt>
      <trkpt lat="46.19028" lon="6.71784">
        <ele>1451</ele>
        <time>2010-01-02T14:32:42Z</time>
      </trkpt>
      <trkpt lat="46.19027" lon="6.71794">
        <ele>1451</ele>
        <time>2010-01-02T14:32:45Z</time>
      </trkpt>
      <trkpt lat="46.19074" lon="6.7191">
        <ele>1471</ele>
        <time>2010-01-02T14:33:22Z</time>
      </trkpt>
      <trkpt lat="46.19145" lon="6.72053">
        <ele>1506</ele>
        <time>2010-01-02T14:34:11Z</time>
      </trkpt>
      <trkpt lat="46.19632" lon="6.73213">
        <ele>1741</ele>
        <time>2010-01-02T14:40:27Z</time>
      </trkpt>
      <trkpt lat="46.19629" lon="6.73293">
        <ele>1742</ele>
        <time>2010-01-02T14:40:49Z</time>
      </trkpt>
      <trkpt lat="46.19621" lon="6.73314">
        <ele>1742</ele>
        <time>2010-01-02T14:40:56Z</time>
      </trkpt>
      <trkpt lat="46.19609" lon="6.7335">
        <ele>1740</ele>
        <time>2010-01-02T14:41:07Z</time>
      </trkpt>
      <trkpt lat="46.19603" lon="6.7341">
        <ele>1740</ele>
        <time>2010-01-02T14:41:24Z</time>
      </trkpt>
      <trkpt lat="46.19621" lon="6.7348">
        <ele>1738</ele>
        <time>2010-01-02T14:41:44Z</time>
      </trkpt>
      <trkpt lat="46.19627" lon="6.73532">
        <ele>1737</ele>
        <time>2010-01-02T14:41:59Z</time>
      </trkpt>
      <trkpt lat="46.19657" lon="6.73591">
        <ele>1740</ele>
        <time>2010-01-02T14:42:19Z</time>
      </trkpt>
      <trkpt lat="46.19678" lon="6.73624">
        <ele>1738</ele>
        <time>2010-01-02T14:42:32Z</time>
      </trkpt>
      <trkpt lat="46.19719" lon="6.73677">
        <ele>1740</ele>
        <time>2010-01-02T14:42:54Z</time>
      </trkpt>
      <trkpt lat="46.19801" lon="6.73799">
        <ele>1750</ele>
        <time>2010-01-02T14:43:41Z</time>
      </trkpt>
      <trkpt lat="46.19873" lon="6.73958">
        <ele>1755</ele>
        <time>2010-01-02T14:44:33Z</time>
      </trkpt>
      <trkpt lat="46.19908" lon="6.74006">
        <ele>1754</ele>
        <time>2010-01-02T14:44:52Z</time>
      </trkpt>
      <trkpt lat="46.19932" lon="6.74043">
        <ele>1752</ele>
        <time>2010-01-02T14:45:07Z</time>
      </trkpt>
      <trkpt lat="46.1999" lon="6.74108">
        <ele>1756</ele>
        <time>2010-01-02T14:45:36Z</time>
      </trkpt>
      <trkpt lat="46.20023" lon="6.74197">
        <ele>1755</ele>
        <time>2010-01-02T14:46:04Z</time>
      </trkpt>
      <trkpt lat="46.20043" lon="6.74249">
        <ele>1754</ele>
        <time>2010-01-02T14:46:20Z</time>
      </trkpt>
      <trkpt lat="46.20046" lon="6.74277">
        <ele>1755</ele>
        <time>2010-01-02T14:46:28Z</time>
      </trkpt>
      <trkpt lat="46.2004" lon="6.74307">
        <ele>1755</ele>
        <time>2010-01-02T14:46:37Z</time>
      </trkpt>
      <trkpt lat="46.20036" lon="6.74364">
        <ele>1751</ele>
        <time>2010-01-02T14:46:53Z</time>
      </trkpt>
      <trkpt lat="46.20043" lon="6.74393">
        <ele>1750</ele>
        <time>2010-01-02T14:47:01Z</time>
      </trkpt>
      <trkpt lat="46.2005" lon="6.74449">
        <ele>1745</ele>
        <time>2010-01-02T14:47:17Z</time>
      </trkpt>
      <trkpt lat="46.20055" lon="6.74492">
        <ele>1745</ele>
        <time>2010-01-02T14:47:29Z</time>
      </trkpt>
      <trkpt lat="46.20056" lon="6.74526">
        <ele>1740</ele>
        <time>2010-01-02T14:47:38Z</time>
      </trkpt>
      <trkpt lat="46.20059" lon="6.74553">
        <ele>1739</ele>
        <time>2010-01-02T14:47:46Z</time>
      </trkpt>
      <trkpt lat="46.2006" lon="6.74555">
        <ele>1739</ele>
        <time>2010-01-02T14:47:47Z</time>
      </trkpt>
      <trkpt lat="46.20071" lon="6.74578">
        <ele>1740</ele>
        <time>2010-01-02T14:47:54Z</time>
      </trkpt>
      <trkpt lat="46.20073" lon="6.74604">
        <ele>1738</ele>
        <time>2010-01-02T14:48:02Z</time>
      </trkpt>
      <trkpt lat="46.20073" lon="6.74616">
        <ele>1737</ele>
        <time>2010-01-02T14:48:05Z</time>
      </trkpt>
      <trkpt lat="46.20072" lon="6.74645">
        <ele>1738</ele>
        <time>2010-01-02T14:48:13Z</time>
      </trkpt>
      <trkpt lat="46.20072" lon="6.74646">
        <ele>1738</ele>
        <time>2010-01-02T14:48:13Z</time>
      </trkpt>
      <trkpt lat="46.20078" lon="6.74707">
        <ele>1736</ele>
        <time>2010-01-02T14:48:30Z</time>
      </trkpt>
      <trkpt lat="46.20083" lon="6.74747">
        <ele>1742</ele>
        <time>2010-01-02T14:48:42Z</time>
      </trkpt>
      <trkpt lat="46.20093" lon="6.74841">
        <ele>1740</ele>
        <time>2010-01-02T14:49:08Z</time>
      </trkpt>
      <trkpt lat="46.20093" lon="6.74885">
        <ele>1738</ele>
        <time>2010-01-02T14:49:20Z</time>
      </trkpt>
      <trkpt lat="46.20107" lon="6.74982">
        <ele>1743</ele>
        <time>2010-01-02T14:49:48Z</time>
      </trkpt>
      <trkpt lat="46.20125" lon="6.75107">
        <ele>1750</ele>
        <time>2010-01-02T14:50:23Z</time>
      </trkpt>
      <trkpt lat="46.20133" lon="6.75199">
        <ele>1752</ele>
        <time>2010-01-02T14:50:49Z</time>
      </trkpt>
      <trkpt lat="46.20131" lon="6.75297">
        <ele>1755</ele>
        <time>2010-01-02T14:51:16Z</time>
      </trkpt>
      <trkpt lat="46.20121" lon="6.75378">
        <ele>1758</ele>
        <time>2010-01-02T14:51:39Z</time>
      </trkpt>
      <trkpt lat="46.20113" lon="6.75437">
        <ele>1759</ele>
        <time>2010-01-02T14:51:56Z</time>
      </trkpt>
      <trkpt lat="46.20108" lon="6.75467">
        <ele>1760</ele>
        <time>2010-01-02T14:52:04Z</time>
      </trkpt>
      <trkpt lat="46.20105" lon="6.75577">
        <ele>1761</ele>
        <time>2010-01-02T14:52:35Z</time>
      </trkpt>
      <trkpt lat="46.201" lon="6.75671">
        <ele>1763</ele>
        <time>2010-01-02T14:53:01Z</time>
      </trkpt>
      <trkpt lat="46.20097" lon="6.75695">
        <ele>1765</ele>
        <time>2010-01-02T14:53:07Z</time>
      </trkpt>
      <trkpt lat="46.20097" lon="6.75696">
        <ele>1765</ele>
        <time>2010-01-02T14:53:08Z</time>
      </trkpt>
      <trkpt lat="46.20084" lon="6.75723">
        <ele>1765</ele>
        <time>2010-01-02T14:53:17Z</time>
      </trkpt>
      <trkpt lat="46.20072" lon="6.75754">
        <ele>1761</ele>
        <time>2010-01-02T14:53:27Z</time>
      </trkpt>
      <trkpt lat="46.20069" lon="6.75758">
        <ele>1760</ele>
        <time>2010-01-02T14:53:28Z</time>
      </trkpt>
      <trkpt lat="46.20062" lon="6.75768">
        <ele>1759</ele>
        <time>2010-01-02T14:53:32Z</time>
      </trkpt>
      <trkpt lat="46.20056" lon="6.75785">
        <ele>1758</ele>
        <time>2010-01-02T14:53:37Z</time>
      </trkpt>
      <trkpt lat="46.20054" lon="6.75792">
        <ele>1758</ele>
        <time>2010-01-02T14:53:40Z</time>
      </trkpt>
      <trkpt lat="46.20054" lon="6.75812">
        <ele>1759</ele>
        <time>2010-01-02T14:53:45Z</time>
      </trkpt>
      <trkpt lat="46.20053" lon="6.7583">
        <ele>1759</ele>
        <time>2010-01-02T14:53:50Z</time>
      </trkpt>
      <trkpt lat="46.20054" lon="6.75847">
        <ele>1758</ele>
        <time>2010-01-02T14:53:55Z</time>
      </trkpt>
      <trkpt lat="46.20051" lon="6.75865">
        <ele>1756</ele>
        <time>2010-01-02T14:54:00Z</time>
      </trkpt>
      <trkpt lat="46.20042" lon="6.75879">
        <ele>1756</ele>
        <time>2010-01-02T14:54:05Z</time>
      </trkpt>
      <trkpt lat="46.20032" lon="6.75895">
        <ele>1756</ele>
        <time>2010-01-02T14:54:11Z</time>
      </trkpt>
      <trkpt lat="46.20025" lon="6.75907">
        <ele>1756</ele>
        <time>2010-01-02T14:54:15Z</time>
      </trkpt>
      <trkpt lat="46.20016" lon="6.7592">
        <ele>1753</ele>
        <time>2010-01-02T14:54:21Z</time>
      </trkpt>
      <trkpt lat="46.2002" lon="6.75928">
        <ele>1752</ele>
        <time>2010-01-02T14:54:24Z</time>
      </trkpt>
      <trkpt lat="46.2002" lon="6.75928">
        <ele>1752</ele>
        <time>2010-01-02T14:54:24Z</time>
      </trkpt>
      <trkpt lat="46.20032" lon="6.75924">
        <ele>1750</ele>
        <time>2010-01-02T14:54:28Z</time>
      </trkpt>
      <trkpt lat="46.20038" lon="6.75921">
        <ele>1750</ele>
        <time>2010-01-02T14:54:31Z</time>
      </trkpt>
      <trkpt lat="46.20038" lon="6.75942">
        <ele>1749</ele>
        <time>2010-01-02T14:54:37Z</time>
      </trkpt>
      <trkpt lat="46.20032" lon="6.75959">
        <ele>1748</ele>
        <time>2010-01-02T14:54:42Z</time>
      </trkpt>
      <trkpt lat="46.2003" lon="6.7596">
        <ele>1748</ele>
        <time>2010-01-02T14:54:43Z</time>
      </trkpt>
      <trkpt lat="46.20023" lon="6.75968">
        <ele>1749</ele>
        <time>2010-01-02T14:54:46Z</time>
      </trkpt>
      <trkpt lat="46.20019" lon="6.75978">
        <ele>1749</ele>
        <time>2010-01-02T14:54:50Z</time>
      </trkpt>
      <trkpt lat="46.20016" lon="6.75992">
        <ele>1750</ele>
        <time>2010-01-02T14:54:54Z</time>
      </trkpt>
      <trkpt lat="46.20016" lon="6.75992">
        <ele>1750</ele>
        <time>2010-01-02T14:54:54Z</time>
      </trkpt>
      <trkpt lat="46.20018" lon="6.76002">
        <ele>1745</ele>
        <time>2010-01-02T14:54:57Z</time>
      </trkpt>
      <trkpt lat="46.20029" lon="6.76">
        <ele>1747</ele>
        <time>2010-01-02T14:55:01Z</time>
      </trkpt>
      <trkpt lat="46.20029" lon="6.76">
        <ele>1747</ele>
        <time>2010-01-02T14:55:01Z</time>
      </trkpt>
      <trkpt lat="46.20033" lon="6.75997">
        <ele>1747</ele>
        <time>2010-01-02T14:55:03Z</time>
      </trkpt>
      <trkpt lat="46.20037" lon="6.75993">
        <ele>1746</ele>
        <time>2010-01-02T14:55:05Z</time>
      </trkpt>
      <trkpt lat="46.20039" lon="6.75997">
        <ele>1745</ele>
        <time>2010-01-02T14:55:07Z</time>
      </trkpt>
      <trkpt lat="46.20039" lon="6.75997">
        <ele>1745</ele>
        <time>2010-01-02T14:55:07Z</time>
      </trkpt>
      <trkpt lat="46.2004" lon="6.76008">
        <ele>1739</ele>
        <time>2010-01-02T14:55:10Z</time>
      </trkpt>
      <trkpt lat="46.20037" lon="6.76018">
        <ele>1739</ele>
        <time>2010-01-02T14:55:13Z</time>
      </trkpt>
      <trkpt lat="46.20039" lon="6.76028">
        <ele>1738</ele>
        <time>2010-01-02T14:55:15Z</time>
      </trkpt>
      <trkpt lat="46.2004" lon="6.76028">
        <ele>1738</ele>
        <time>2010-01-02T14:55:16Z</time>
      </trkpt>
      <trkpt lat="46.2006" lon="6.76056">
        <ele>1733</ele>
        <time>2010-01-02T14:55:27Z</time>
      </trkpt>
      <trkpt lat="46.20064" lon="6.76069">
        <ele>1729</ele>
        <time>2010-01-02T14:55:31Z</time>
      </trkpt>
      <trkpt lat="46.20065" lon="6.7608">
        <ele>1727</ele>
        <time>2010-01-02T14:55:34Z</time>
      </trkpt>
      <trkpt lat="46.20061" lon="6.76091">
        <ele>1725</ele>
        <time>2010-01-02T14:55:38Z</time>
      </trkpt>
      <trkpt lat="46.20065" lon="6.76119">
        <ele>1725</ele>
        <time>2010-01-02T14:55:45Z</time>
      </trkpt>
      <trkpt lat="46.20064" lon="6.76132">
        <ele>1724</ele>
        <time>2010-01-02T14:55:49Z</time>
      </trkpt>
      <trkpt lat="46.20061" lon="6.76143">
        <ele>1723</ele>
        <time>2010-01-02T14:55:52Z</time>
      </trkpt>
      <trkpt lat="46.2006" lon="6.76146">
        <ele>1723</ele>
        <time>2010-01-02T14:55:53Z</time>
      </trkpt>
      <trkpt lat="46.2006" lon="6.76146">
        <ele>1723</ele>
        <time>2010-01-02T14:55:53Z</time>
      </trkpt>
      <trkpt lat="46.20054" lon="6.76156">
        <ele>1724</ele>
        <time>2010-01-02T14:55:57Z</time>
      </trkpt>
      <trkpt lat="46.20053" lon="6.76158">
        <ele>1724</ele>
        <time>2010-01-02T14:55:57Z</time>
      </trkpt>
      <trkpt lat="46.20048" lon="6.76168">
        <ele>1721</ele>
        <time>2010-01-02T14:56:01Z</time>
      </trkpt>
      <trkpt lat="46.20048" lon="6.7617">
        <ele>1721</ele>
        <time>2010-01-02T14:56:01Z</time>
      </trkpt>
      <trkpt lat="46.20048" lon="6.76171">
        <ele>1721</ele>
        <time>2010-01-02T14:56:02Z</time>
      </trkpt>
      <trkpt lat="46.20045" lon="6.76183">
        <ele>1722</ele>
        <time>2010-01-02T14:56:05Z</time>
      </trkpt>
      <trkpt lat="46.20044" lon="6.76185">
        <ele>1722</ele>
        <time>2010-01-02T14:56:06Z</time>
      </trkpt>
      <trkpt lat="46.2004" lon="6.762">
        <ele>1722</ele>
        <time>2010-01-02T14:56:10Z</time>
      </trkpt>
      <trkpt lat="46.2004" lon="6.76203">
        <ele>1722</ele>
        <time>2010-01-02T14:56:11Z</time>
      </trkpt>
      <trkpt lat="46.20038" lon="6.76221">
        <ele>1722</ele>
        <time>2010-01-02T14:56:16Z</time>
      </trkpt>
      <trkpt lat="46.20039" lon="6.76222">
        <ele>1721</ele>
        <time>2010-01-02T14:56:17Z</time>
      </trkpt>
      <trkpt lat="46.20043" lon="6.76235">
        <ele>1719</ele>
        <time>2010-01-02T14:56:20Z</time>
      </trkpt>
      <trkpt lat="46.20043" lon="6.76235">
        <ele>1719</ele>
        <time>2010-01-02T14:56:21Z</time>
      </trkpt>
      <trkpt lat="46.20047" lon="6.76283">
        <ele>1713</ele>
        <time>2010-01-02T14:56:34Z</time>
      </trkpt>
      <trkpt lat="46.20045" lon="6.7631">
        <ele>1712</ele>
        <time>2010-01-02T14:56:41Z</time>
      </trkpt>
      <trkpt lat="46.20048" lon="6.76337">
        <ele>1710</ele>
        <time>2010-01-02T14:56:49Z</time>
      </trkpt>
      <trkpt lat="46.20049" lon="6.76338">
        <ele>1709</ele>
        <time>2010-01-02T14:56:49Z</time>
      </trkpt>
      <trkpt lat="46.2005" lon="6.76362">
        <ele>1710</ele>
        <time>2010-01-02T14:56:56Z</time>
      </trkpt>
      <trkpt lat="46.20057" lon="6.76398">
        <ele>1707</ele>
        <time>2010-01-02T14:57:07Z</time>
      </trkpt>
      <trkpt lat="46.20065" lon="6.76419">
        <ele>1703</ele>
        <time>2010-01-02T14:57:13Z</time>
      </trkpt>
      <trkpt lat="46.20072" lon="6.76445">
        <ele>1705</ele>
        <time>2010-01-02T14:57:21Z</time>
      </trkpt>
      <trkpt lat="46.20073" lon="6.7646">
        <ele>1707</ele>
        <time>2010-01-02T14:57:25Z</time>
      </trkpt>
      <trkpt lat="46.20073" lon="6.76461">
        <ele>1707</ele>
        <time>2010-01-02T14:57:25Z</time>
      </trkpt>
      <trkpt lat="46.2007" lon="6.7648">
        <ele>1705</ele>
        <time>2010-01-02T14:57:31Z</time>
      </trkpt>
      <trkpt lat="46.20076" lon="6.76484">
        <ele>1703</ele>
        <time>2010-01-02T14:57:34Z</time>
      </trkpt>
      <trkpt lat="46.20077" lon="6.76483">
        <ele>1703</ele>
        <time>2010-01-02T14:57:34Z</time>
      </trkpt>
      <trkpt lat="46.20078" lon="6.76482">
        <ele>1703</ele>
        <time>2010-01-02T14:57:35Z</time>
      </trkpt>
      <trkpt lat="46.20085" lon="6.76483">
        <ele>1686</ele>
        <time>2010-01-02T14:57:38Z</time>
      </trkpt>
      <trkpt lat="46.20092" lon="6.76487">
        <ele>1686</ele>
        <time>2010-01-02T14:57:40Z</time>
      </trkpt>
      <trkpt lat="46.20095" lon="6.76494">
        <ele>1686</ele>
        <time>2010-01-02T14:57:43Z</time>
      </trkpt>
      <trkpt lat="46.20095" lon="6.76495">
        <ele>1687</ele>
        <time>2010-01-02T14:57:43Z</time>
      </trkpt>
      <trkpt lat="46.20086" lon="6.76508">
        <ele>1689</ele>
        <time>2010-01-02T14:57:48Z</time>
      </trkpt>
      <trkpt lat="46.20105" lon="6.76537">
        <ele>1683</ele>
        <time>2010-01-02T14:58:00Z</time>
      </trkpt>
      <trkpt lat="46.20121" lon="6.76568">
        <ele>1682</ele>
        <time>2010-01-02T14:58:10Z</time>
      </trkpt>
      <trkpt lat="46.20126" lon="6.76589">
        <ele>1678</ele>
        <time>2010-01-02T14:58:17Z</time>
      </trkpt>
      <trkpt lat="46.20118" lon="6.76636">
        <ele>1676</ele>
        <time>2010-01-02T14:58:30Z</time>
      </trkpt>
      <trkpt lat="46.20112" lon="6.7666">
        <ele>1676</ele>
        <time>2010-01-02T14:58:37Z</time>
      </trkpt>
      <trkpt lat="46.20112" lon="6.76685">
        <ele>1669</ele>
        <time>2010-01-02T14:58:44Z</time>
      </trkpt>
      <trkpt lat="46.20112" lon="6.76685">
        <ele>1669</ele>
        <time>2010-01-02T14:58:44Z</time>
      </trkpt>
      <trkpt lat="46.20108" lon="6.76699">
        <ele>1668</ele>
        <time>2010-01-02T14:58:48Z</time>
      </trkpt>
      <trkpt lat="46.20107" lon="6.767">
        <ele>1668</ele>
        <time>2010-01-02T14:58:49Z</time>
      </trkpt>
      <trkpt lat="46.20097" lon="6.76723">
        <ele>1668</ele>
        <time>2010-01-02T14:58:56Z</time>
      </trkpt>
      <trkpt lat="46.20098" lon="6.76745">
        <ele>1669</ele>
        <time>2010-01-02T14:59:02Z</time>
      </trkpt>
      <trkpt lat="46.20098" lon="6.76745">
        <ele>1669</ele>
        <time>2010-01-02T14:59:02Z</time>
      </trkpt>
      <trkpt lat="46.20097" lon="6.76764">
        <ele>1665</ele>
        <time>2010-01-02T14:59:07Z</time>
      </trkpt>
      <trkpt lat="46.20097" lon="6.76767">
        <ele>1665</ele>
        <time>2010-01-02T14:59:08Z</time>
      </trkpt>
      <trkpt lat="46.20097" lon="6.76767">
        <ele>1665</ele>
        <time>2010-01-02T14:59:08Z</time>
      </trkpt>
      <trkpt lat="46.20099" lon="6.76786">
        <ele>1663</ele>
        <time>2010-01-02T14:59:14Z</time>
      </trkpt>
      <trkpt lat="46.20099" lon="6.76787">
        <ele>1663</ele>
        <time>2010-01-02T14:59:14Z</time>
      </trkpt>
      <trkpt lat="46.20101" lon="6.76805">
        <ele>1662</ele>
        <time>2010-01-02T14:59:19Z</time>
      </trkpt>
      <trkpt lat="46.20101" lon="6.76815">
        <ele>1663</ele>
        <time>2010-01-02T14:59:22Z</time>
      </trkpt>
      <trkpt lat="46.20124" lon="6.76822">
        <ele>1660</ele>
        <time>2010-01-02T14:59:31Z</time>
      </trkpt>
      <trkpt lat="46.20134" lon="6.7683">
        <ele>1659</ele>
        <time>2010-01-02T14:59:36Z</time>
      </trkpt>
      <trkpt lat="46.20139" lon="6.76842">
        <ele>1662</ele>
        <time>2010-01-02T14:59:40Z</time>
      </trkpt>
      <trkpt lat="46.20142" lon="6.76855">
        <ele>1663</ele>
        <time>2010-01-02T14:59:43Z</time>
      </trkpt>
      <trkpt lat="46.20143" lon="6.76857">
        <ele>1663</ele>
        <time>2010-01-02T14:59:44Z</time>
      </trkpt>
      <trkpt lat="46.20149" lon="6.76865">
        <ele>1664</ele>
        <time>2010-01-02T14:59:47Z</time>
      </trkpt>
      <trkpt lat="46.20151" lon="6.76866">
        <ele>1664</ele>
        <time>2010-01-02T14:59:48Z</time>
      </trkpt>
      <trkpt lat="46.20189" lon="6.76873">
        <ele>1656</ele>
        <time>2010-01-02T15:00:03Z</time>
      </trkpt>
      <trkpt lat="46.20203" lon="6.76879">
        <ele>1656</ele>
        <time>2010-01-02T15:00:09Z</time>
      </trkpt>
      <trkpt lat="46.20203" lon="6.76879">
        <ele>1656</ele>
        <time>2010-01-02T15:00:09Z</time>
      </trkpt>
      <trkpt lat="46.20216" lon="6.76882">
        <ele>1655</ele>
        <time>2010-01-02T15:00:15Z</time>
      </trkpt>
      <trkpt lat="46.20217" lon="6.76882">
        <ele>1655</ele>
        <time>2010-01-02T15:00:15Z</time>
      </trkpt>
      <trkpt lat="46.20227" lon="6.76886">
        <ele>1656</ele>
        <time>2010-01-02T15:00:19Z</time>
      </trkpt>
      <trkpt lat="46.20232" lon="6.76887">
        <ele>1656</ele>
        <time>2010-01-02T15:00:21Z</time>
      </trkpt>
      <trkpt lat="46.20294" lon="6.76883">
        <ele>1651</ele>
        <time>2010-01-02T15:00:46Z</time>
      </trkpt>
      <trkpt lat="46.20312" lon="6.76883">
        <ele>1652</ele>
        <time>2010-01-02T15:00:53Z</time>
      </trkpt>
      <trkpt lat="46.2032" lon="6.7688">
        <ele>1651</ele>
        <time>2010-01-02T15:00:57Z</time>
      </trkpt>
      <trkpt lat="46.20321" lon="6.7688">
        <ele>1651</ele>
        <time>2010-01-02T15:00:57Z</time>
      </trkpt>
      <trkpt lat="46.20333" lon="6.76877">
        <ele>1651</ele>
        <time>2010-01-02T15:01:02Z</time>
      </trkpt>
      <trkpt lat="46.20333" lon="6.76876">
        <ele>1651</ele>
        <time>2010-01-02T15:01:02Z</time>
      </trkpt>
      <trkpt lat="46.20348" lon="6.76874">
        <ele>1650</ele>
        <time>2010-01-02T15:01:08Z</time>
      </trkpt>
      <trkpt lat="46.20349" lon="6.76873">
        <ele>1650</ele>
        <time>2010-01-02T15:01:08Z</time>
      </trkpt>
      <trkpt lat="46.2039" lon="6.76862">
        <ele>1648</ele>
        <time>2010-01-02T15:01:25Z</time>
      </trkpt>
      <trkpt lat="46.20413" lon="6.76851">
        <ele>1646</ele>
        <time>2010-01-02T15:01:35Z</time>
      </trkpt>
      <trkpt lat="46.20426" lon="6.7684">
        <ele>1643</ele>
        <time>2010-01-02T15:01:41Z</time>
      </trkpt>
      <trkpt lat="46.20439" lon="6.76834">
        <ele>1642</ele>
        <time>2010-01-02T15:01:47Z</time>
      </trkpt>
      <trkpt lat="46.20448" lon="6.76839">
        <ele>1642</ele>
        <time>2010-01-02T15:01:50Z</time>
      </trkpt>
      <trkpt lat="46.20449" lon="6.76839">
        <ele>1642</ele>
        <time>2010-01-02T15:01:51Z</time>
      </trkpt>
      <trkpt lat="46.20457" lon="6.76851">
        <ele>1642</ele>
        <time>2010-01-02T15:01:55Z</time>
      </trkpt>
      <trkpt lat="46.20477" lon="6.7686">
        <ele>1641</ele>
        <time>2010-01-02T15:02:04Z</time>
      </trkpt>
      <trkpt lat="46.20485" lon="6.76861">
        <ele>1641</ele>
        <time>2010-01-02T15:02:07Z</time>
      </trkpt>
      <trkpt lat="46.20497" lon="6.76879">
        <ele>1641</ele>
        <time>2010-01-02T15:02:14Z</time>
      </trkpt>
      <trkpt lat="46.20497" lon="6.76915">
        <ele>1638</ele>
        <time>2010-01-02T15:02:24Z</time>
      </trkpt>
      <trkpt lat="46.20499" lon="6.76934">
        <ele>1642</ele>
        <time>2010-01-02T15:02:29Z</time>
      </trkpt>
      <trkpt lat="46.20499" lon="6.76937">
        <ele>1642</ele>
        <time>2010-01-02T15:02:30Z</time>
      </trkpt>
      <trkpt lat="46.20499" lon="6.76941">
        <ele>1643</ele>
        <time>2010-01-02T15:02:31Z</time>
      </trkpt>
      <trkpt lat="46.20498" lon="6.76972">
        <ele>1643</ele>
        <time>2010-01-02T15:02:40Z</time>
      </trkpt>
      <trkpt lat="46.20496" lon="6.76987">
        <ele>1641</ele>
        <time>2010-01-02T15:02:44Z</time>
      </trkpt>
      <trkpt lat="46.20499" lon="6.77067">
        <ele>1638</ele>
        <time>2010-01-02T15:03:06Z</time>
      </trkpt>
      <trkpt lat="46.20499" lon="6.77094">
        <ele>1634</ele>
        <time>2010-01-02T15:03:14Z</time>
      </trkpt>
      <trkpt lat="46.20496" lon="6.77108">
        <ele>1637</ele>
        <time>2010-01-02T15:03:18Z</time>
      </trkpt>
      <trkpt lat="46.20494" lon="6.77132">
        <ele>1636</ele>
        <time>2010-01-02T15:03:24Z</time>
      </trkpt>
      <trkpt lat="46.20494" lon="6.77135">
        <ele>1636</ele>
        <time>2010-01-02T15:03:25Z</time>
      </trkpt>
      <trkpt lat="46.20492" lon="6.77154">
        <ele>1633</ele>
        <time>2010-01-02T15:03:31Z</time>
      </trkpt>
      <trkpt lat="46.20492" lon="6.77156">
        <ele>1632</ele>
        <time>2010-01-02T15:03:31Z</time>
      </trkpt>
      <trkpt lat="46.20491" lon="6.77172">
        <ele>1630</ele>
        <time>2010-01-02T15:03:35Z</time>
      </trkpt>
      <trkpt lat="46.20491" lon="6.77173">
        <ele>1630</ele>
        <time>2010-01-02T15:03:36Z</time>
      </trkpt>
      <trkpt lat="46.2049" lon="6.77185">
        <ele>1632</ele>
        <time>2010-01-02T15:03:39Z</time>
      </trkpt>
      <trkpt lat="46.20484" lon="6.77218">
        <ele>1633</ele>
        <time>2010-01-02T15:03:49Z</time>
      </trkpt>
      <trkpt lat="46.20487" lon="6.77235">
        <ele>1631</ele>
        <time>2010-01-02T15:03:53Z</time>
      </trkpt>
      <trkpt lat="46.20488" lon="6.77237">
        <ele>1630</ele>
        <time>2010-01-02T15:03:54Z</time>
      </trkpt>
      <trkpt lat="46.20487" lon="6.77257">
        <ele>1626</ele>
        <time>2010-01-02T15:04:00Z</time>
      </trkpt>
      <trkpt lat="46.20487" lon="6.77259">
        <ele>1626</ele>
        <time>2010-01-02T15:04:00Z</time>
      </trkpt>
      <trkpt lat="46.20465" lon="6.7732">
        <ele>1625</ele>
        <time>2010-01-02T15:04:19Z</time>
      </trkpt>
      <trkpt lat="46.20457" lon="6.77343">
        <ele>1614</ele>
        <time>2010-01-02T15:04:27Z</time>
      </trkpt>
      <trkpt lat="46.20449" lon="6.77357">
        <ele>1614</ele>
        <time>2010-01-02T15:04:31Z</time>
      </trkpt>
      <trkpt lat="46.20441" lon="6.77368">
        <ele>1614</ele>
        <time>2010-01-02T15:04:36Z</time>
      </trkpt>
      <trkpt lat="46.2044" lon="6.77371">
        <ele>1613</ele>
        <time>2010-01-02T15:04:37Z</time>
      </trkpt>
      <trkpt lat="46.20427" lon="6.77391">
        <ele>1612</ele>
        <time>2010-01-02T15:04:44Z</time>
      </trkpt>
      <trkpt lat="46.20426" lon="6.77392">
        <ele>1612</ele>
        <time>2010-01-02T15:04:45Z</time>
      </trkpt>
      <trkpt lat="46.20415" lon="6.77407">
        <ele>1619</ele>
        <time>2010-01-02T15:04:51Z</time>
      </trkpt>
      <trkpt lat="46.20414" lon="6.77409">
        <ele>1618</ele>
        <time>2010-01-02T15:04:51Z</time>
      </trkpt>
      <trkpt lat="46.204" lon="6.77427">
        <ele>1615</ele>
        <time>2010-01-02T15:04:59Z</time>
      </trkpt>
      <trkpt lat="46.20399" lon="6.77431">
        <ele>1615</ele>
        <time>2010-01-02T15:05:00Z</time>
      </trkpt>
      <trkpt lat="46.20386" lon="6.77448">
        <ele>1616</ele>
        <time>2010-01-02T15:05:07Z</time>
      </trkpt>
      <trkpt lat="46.20384" lon="6.77453">
        <ele>1616</ele>
        <time>2010-01-02T15:05:09Z</time>
      </trkpt>
      <trkpt lat="46.20371" lon="6.77472">
        <ele>1617</ele>
        <time>2010-01-02T15:05:16Z</time>
      </trkpt>
      <trkpt lat="46.20363" lon="6.77488">
        <ele>1618</ele>
        <time>2010-01-02T15:05:22Z</time>
      </trkpt>
      <trkpt lat="46.20361" lon="6.77492">
        <ele>1618</ele>
        <time>2010-01-02T15:05:23Z</time>
      </trkpt>
      <trkpt lat="46.2036" lon="6.77505">
        <ele>1612</ele>
        <time>2010-01-02T15:05:27Z</time>
      </trkpt>
      <trkpt lat="46.2036" lon="6.77505">
        <ele>1612</ele>
        <time>2010-01-02T15:05:27Z</time>
      </trkpt>
      <trkpt lat="46.2036" lon="6.77511">
        <ele>1611</ele>
        <time>2010-01-02T15:05:28Z</time>
      </trkpt>
      <trkpt lat="46.20362" lon="6.77523">
        <ele>1609</ele>
        <time>2010-01-02T15:05:32Z</time>
      </trkpt>
      <trkpt lat="46.20363" lon="6.77546">
        <ele>1607</ele>
        <time>2010-01-02T15:05:38Z</time>
      </trkpt>
      <trkpt lat="46.20357" lon="6.77573">
        <ele>1609</ele>
        <time>2010-01-02T15:05:46Z</time>
      </trkpt>
      <trkpt lat="46.20358" lon="6.77592">
        <ele>1607</ele>
        <time>2010-01-02T15:05:51Z</time>
      </trkpt>
      <trkpt lat="46.20362" lon="6.77605">
        <ele>1605</ele>
        <time>2010-01-02T15:05:55Z</time>
      </trkpt>
      <trkpt lat="46.20366" lon="6.77621">
        <ele>1603</ele>
        <time>2010-01-02T15:06:00Z</time>
      </trkpt>
      <trkpt lat="46.20367" lon="6.77622">
        <ele>1603</ele>
        <time>2010-01-02T15:06:00Z</time>
      </trkpt>
      <trkpt lat="46.20372" lon="6.77638">
        <ele>1602</ele>
        <time>2010-01-02T15:06:05Z</time>
      </trkpt>
      <trkpt lat="46.20391" lon="6.77667">
        <ele>1598</ele>
        <time>2010-01-02T15:06:16Z</time>
      </trkpt>
      <trkpt lat="46.20388" lon="6.77687">
        <ele>1597</ele>
        <time>2010-01-02T15:06:22Z</time>
      </trkpt>
      <trkpt lat="46.20379" lon="6.77698">
        <ele>1599</ele>
        <time>2010-01-02T15:06:27Z</time>
      </trkpt>
      <trkpt lat="46.20374" lon="6.77711">
        <ele>1599</ele>
        <time>2010-01-02T15:06:31Z</time>
      </trkpt>
      <trkpt lat="46.20372" lon="6.77714">
        <ele>1599</ele>
        <time>2010-01-02T15:06:32Z</time>
      </trkpt>
      <trkpt lat="46.20359" lon="6.77736">
        <ele>1601</ele>
        <time>2010-01-02T15:06:40Z</time>
      </trkpt>
      <trkpt lat="46.20351" lon="6.77748">
        <ele>1603</ele>
        <time>2010-01-02T15:06:45Z</time>
      </trkpt>
      <trkpt lat="46.20338" lon="6.77776">
        <ele>1601</ele>
        <time>2010-01-02T15:06:54Z</time>
      </trkpt>
      <trkpt lat="46.20333" lon="6.77801">
        <ele>1600</ele>
        <time>2010-01-02T15:07:01Z</time>
      </trkpt>
      <trkpt lat="46.20333" lon="6.77817">
        <ele>1602</ele>
        <time>2010-01-02T15:07:06Z</time>
      </trkpt>
      <trkpt lat="46.20333" lon="6.77818">
        <ele>1615</ele>
        <time>2010-01-02T15:07:06Z</time>
      </trkpt>
      <trkpt lat="46.20338" lon="6.77839">
        <ele>1605</ele>
        <time>2010-01-02T15:07:12Z</time>
      </trkpt>
      <trkpt lat="46.20338" lon="6.7784">
        <ele>1604</ele>
        <time>2010-01-02T15:07:13Z</time>
      </trkpt>
      <trkpt lat="46.20342" lon="6.77856">
        <ele>1601</ele>
        <time>2010-01-02T15:07:17Z</time>
      </trkpt>
      <trkpt lat="46.20342" lon="6.77857">
        <ele>1600</ele>
        <time>2010-01-02T15:07:17Z</time>
      </trkpt>
      <trkpt lat="46.20344" lon="6.77871">
        <ele>1599</ele>
        <time>2010-01-02T15:07:21Z</time>
      </trkpt>
      <trkpt lat="46.20345" lon="6.77874">
        <ele>1599</ele>
        <time>2010-01-02T15:07:22Z</time>
      </trkpt>
      <trkpt lat="46.20345" lon="6.77878">
        <ele>1599</ele>
        <time>2010-01-02T15:07:23Z</time>
      </trkpt>
      <trkpt lat="46.20346" lon="6.779">
        <ele>1601</ele>
        <time>2010-01-02T15:07:30Z</time>
      </trkpt>
      <trkpt lat="46.20346" lon="6.77904">
        <ele>1602</ele>
        <time>2010-01-02T15:07:31Z</time>
      </trkpt>
      <trkpt lat="46.20342" lon="6.77914">
        <ele>1604</ele>
        <time>2010-01-02T15:07:34Z</time>
      </trkpt>
      <trkpt lat="46.20341" lon="6.77917">
        <ele>1605</ele>
        <time>2010-01-02T15:07:35Z</time>
      </trkpt>
      <trkpt lat="46.2034" lon="6.77919">
        <ele>1605</ele>
        <time>2010-01-02T15:07:35Z</time>
      </trkpt>
      <trkpt lat="46.20333" lon="6.77928">
        <ele>1609</ele>
        <time>2010-01-02T15:07:39Z</time>
      </trkpt>
      <trkpt lat="46.20332" lon="6.77928">
        <ele>1609</ele>
        <time>2010-01-02T15:07:39Z</time>
      </trkpt>
      <trkpt lat="46.2033" lon="6.77929">
        <ele>1609</ele>
        <time>2010-01-02T15:07:40Z</time>
      </trkpt>
      <trkpt lat="46.20328" lon="6.7793">
        <ele>1609</ele>
        <time>2010-01-02T15:07:41Z</time>
      </trkpt>
      <trkpt lat="46.20324" lon="6.77932">
        <ele>1609</ele>
        <time>2010-01-02T15:07:43Z</time>
      </trkpt>
      <trkpt lat="46.20323" lon="6.77933">
        <ele>1609</ele>
        <time>2010-01-02T15:07:43Z</time>
      </trkpt>
      <trkpt lat="46.20321" lon="6.77936">
        <ele>1609</ele>
        <time>2010-01-02T15:07:44Z</time>
      </trkpt>
      <trkpt lat="46.20319" lon="6.7794">
        <ele>1609</ele>
        <time>2010-01-02T15:07:46Z</time>
      </trkpt>
      <trkpt lat="46.20318" lon="6.77941">
        <ele>1609</ele>
        <time>2010-01-02T15:07:46Z</time>
      </trkpt>
      <trkpt lat="46.20303" lon="6.77949">
        <ele>1610</ele>
        <time>2010-01-02T15:07:53Z</time>
      </trkpt>
      <trkpt lat="46.20298" lon="6.77958">
        <ele>1610</ele>
        <time>2010-01-02T15:07:56Z</time>
      </trkpt>
      <trkpt lat="46.20298" lon="6.7796">
        <ele>1610</ele>
        <time>2010-01-02T15:07:57Z</time>
      </trkpt>
      <trkpt lat="46.20294" lon="6.77974">
        <ele>1609</ele>
        <time>2010-01-02T15:08:01Z</time>
      </trkpt>
      <trkpt lat="46.20293" lon="6.77977">
        <ele>1609</ele>
        <time>2010-01-02T15:08:02Z</time>
      </trkpt>
      <trkpt lat="46.20288" lon="6.77995">
        <ele>1608</ele>
        <time>2010-01-02T15:08:07Z</time>
      </trkpt>
      <trkpt lat="46.20289" lon="6.78011">
        <ele>1601</ele>
        <time>2010-01-02T15:08:12Z</time>
      </trkpt>
      <trkpt lat="46.20285" lon="6.78036">
        <ele>1600</ele>
        <time>2010-01-02T15:08:19Z</time>
      </trkpt>
      <trkpt lat="46.20269" lon="6.78048">
        <ele>1600</ele>
        <time>2010-01-02T15:08:26Z</time>
      </trkpt>
      <trkpt lat="46.20264" lon="6.78055">
        <ele>1600</ele>
        <time>2010-01-02T15:08:29Z</time>
      </trkpt>
      <trkpt lat="46.20247" lon="6.78075">
        <ele>1604</ele>
        <time>2010-01-02T15:08:37Z</time>
      </trkpt>
      <trkpt lat="46.20236" lon="6.7809">
        <ele>1603</ele>
        <time>2010-01-02T15:08:43Z</time>
      </trkpt>
      <trkpt lat="46.20232" lon="6.781">
        <ele>1605</ele>
        <time>2010-01-02T15:08:47Z</time>
      </trkpt>
      <trkpt lat="46.20228" lon="6.78115">
        <ele>1606</ele>
        <time>2010-01-02T15:08:51Z</time>
      </trkpt>
      <trkpt lat="46.20227" lon="6.78124">
        <ele>1606</ele>
        <time>2010-01-02T15:08:53Z</time>
      </trkpt>
      <trkpt lat="46.20226" lon="6.78125">
        <ele>1606</ele>
        <time>2010-01-02T15:08:54Z</time>
      </trkpt>
      <trkpt lat="46.20219" lon="6.78148">
        <ele>1605</ele>
        <time>2010-01-02T15:09:01Z</time>
      </trkpt>
      <trkpt lat="46.20216" lon="6.78154">
        <ele>1605</ele>
        <time>2010-01-02T15:09:03Z</time>
      </trkpt>
      <trkpt lat="46.20205" lon="6.78184">
        <ele>1600</ele>
        <time>2010-01-02T15:09:12Z</time>
      </trkpt>
      <trkpt lat="46.20204" lon="6.78189">
        <ele>1600</ele>
        <time>2010-01-02T15:09:14Z</time>
      </trkpt>
      <trkpt lat="46.20203" lon="6.78191">
        <ele>1600</ele>
        <time>2010-01-02T15:09:14Z</time>
      </trkpt>
      <trkpt lat="46.20202" lon="6.78192">
        <ele>1600</ele>
        <time>2010-01-02T15:09:15Z</time>
      </trkpt>
      <trkpt lat="46.20145" lon="6.78273">
        <ele>1608</ele>
        <time>2010-01-02T15:09:47Z</time>
      </trkpt>
      <trkpt lat="46.20131" lon="6.7828">
        <ele>1610</ele>
        <time>2010-01-02T15:09:53Z</time>
      </trkpt>
      <trkpt lat="46.20121" lon="6.78291">
        <ele>1610</ele>
        <time>2010-01-02T15:09:58Z</time>
      </trkpt>
      <trkpt lat="46.20116" lon="6.78309">
        <ele>1609</ele>
        <time>2010-01-02T15:10:03Z</time>
      </trkpt>
      <trkpt lat="46.20112" lon="6.78319">
        <ele>1609</ele>
        <time>2010-01-02T15:10:06Z</time>
      </trkpt>
      <trkpt lat="46.20111" lon="6.78334">
        <ele>1598</ele>
        <time>2010-01-02T15:10:11Z</time>
      </trkpt>
      <trkpt lat="46.20108" lon="6.78341">
        <ele>1599</ele>
        <time>2010-01-02T15:10:13Z</time>
      </trkpt>
      <trkpt lat="46.20091" lon="6.78372">
        <ele>1597</ele>
        <time>2010-01-02T15:10:24Z</time>
      </trkpt>
      <trkpt lat="46.20082" lon="6.78396">
        <ele>1610</ele>
        <time>2010-01-02T15:10:31Z</time>
      </trkpt>
      <trkpt lat="46.20078" lon="6.78417">
        <ele>1601</ele>
        <time>2010-01-02T15:10:37Z</time>
      </trkpt>
      <trkpt lat="46.20068" lon="6.78441">
        <ele>1604</ele>
        <time>2010-01-02T15:10:45Z</time>
      </trkpt>
      <trkpt lat="46.20064" lon="6.78463">
        <ele>1603</ele>
        <time>2010-01-02T15:10:51Z</time>
      </trkpt>
      <trkpt lat="46.20056" lon="6.78478">
        <ele>1603</ele>
        <time>2010-01-02T15:10:57Z</time>
      </trkpt>
      <trkpt lat="46.20049" lon="6.78505">
        <ele>1595</ele>
        <time>2010-01-02T15:11:04Z</time>
      </trkpt>
      <trkpt lat="46.20044" lon="6.78513">
        <ele>1595</ele>
        <time>2010-01-02T15:11:08Z</time>
      </trkpt>
      <trkpt lat="46.2004" lon="6.78524">
        <ele>1595</ele>
        <time>2010-01-02T15:11:11Z</time>
      </trkpt>
      <trkpt lat="46.20038" lon="6.78536">
        <ele>1595</ele>
        <time>2010-01-02T15:11:15Z</time>
      </trkpt>
      <trkpt lat="46.20034" lon="6.78552">
        <ele>1594</ele>
        <time>2010-01-02T15:11:19Z</time>
      </trkpt>
      <trkpt lat="46.2003" lon="6.78561">
        <ele>1594</ele>
        <time>2010-01-02T15:11:22Z</time>
      </trkpt>
      <trkpt lat="46.20027" lon="6.7857">
        <ele>1593</ele>
        <time>2010-01-02T15:11:25Z</time>
      </trkpt>
      <trkpt lat="46.20024" lon="6.78578">
        <ele>1593</ele>
        <time>2010-01-02T15:11:27Z</time>
      </trkpt>
      <trkpt lat="46.2002" lon="6.78584">
        <ele>1590</ele>
        <time>2010-01-02T15:11:30Z</time>
      </trkpt>
      <trkpt lat="46.20017" lon="6.78588">
        <ele>1590</ele>
        <time>2010-01-02T15:11:31Z</time>
      </trkpt>
      <trkpt lat="46.20013" lon="6.78589">
        <ele>1591</ele>
        <time>2010-01-02T15:11:33Z</time>
      </trkpt>
      <trkpt lat="46.20005" lon="6.78591">
        <ele>1592</ele>
        <time>2010-01-02T15:11:36Z</time>
      </trkpt>
      <trkpt lat="46.19992" lon="6.78582">
        <ele>1598</ele>
        <time>2010-01-02T15:11:42Z</time>
      </trkpt>
      <trkpt lat="46.19984" lon="6.78579">
        <ele>1600</ele>
        <time>2010-01-02T15:11:45Z</time>
      </trkpt>
      <trkpt lat="46.19954" lon="6.78582">
        <ele>1603</ele>
        <time>2010-01-02T15:11:57Z</time>
      </trkpt>
      <trkpt lat="46.19943" lon="6.78582">
        <ele>1602</ele>
        <time>2010-01-02T15:12:02Z</time>
      </trkpt>
      <trkpt lat="46.19931" lon="6.78586">
        <ele>1596</ele>
        <time>2010-01-02T15:12:06Z</time>
      </trkpt>
      <trkpt lat="46.19921" lon="6.78586">
        <ele>1597</ele>
        <time>2010-01-02T15:12:10Z</time>
      </trkpt>
      <trkpt lat="46.19908" lon="6.78596">
        <ele>1598</ele>
        <time>2010-01-02T15:12:16Z</time>
      </trkpt>
      <trkpt lat="46.19905" lon="6.78609">
        <ele>1597</ele>
        <time>2010-01-02T15:12:20Z</time>
      </trkpt>
      <trkpt lat="46.19897" lon="6.78634">
        <ele>1595</ele>
        <time>2010-01-02T15:12:28Z</time>
      </trkpt>
      <trkpt lat="46.19894" lon="6.78651">
        <ele>1593</ele>
        <time>2010-01-02T15:12:33Z</time>
      </trkpt>
      <trkpt lat="46.19891" lon="6.78664">
        <ele>1592</ele>
        <time>2010-01-02T15:12:36Z</time>
      </trkpt>
      <trkpt lat="46.19887" lon="6.78673">
        <ele>1588</ele>
        <time>2010-01-02T15:12:39Z</time>
      </trkpt>
      <trkpt lat="46.19885" lon="6.78686">
        <ele>1588</ele>
        <time>2010-01-02T15:12:43Z</time>
      </trkpt>
      <trkpt lat="46.19876" lon="6.787">
        <ele>1589</ele>
        <time>2010-01-02T15:12:48Z</time>
      </trkpt>
      <trkpt lat="46.19876" lon="6.78702">
        <ele>1589</ele>
        <time>2010-01-02T15:12:49Z</time>
      </trkpt>
      <trkpt lat="46.19879" lon="6.78735">
        <ele>1588</ele>
        <time>2010-01-02T15:12:58Z</time>
      </trkpt>
      <trkpt lat="46.19882" lon="6.78755">
        <ele>1589</ele>
        <time>2010-01-02T15:13:04Z</time>
      </trkpt>
      <trkpt lat="46.19901" lon="6.7876">
        <ele>1588</ele>
        <time>2010-01-02T15:13:12Z</time>
      </trkpt>
      <trkpt lat="46.19919" lon="6.78761">
        <ele>1588</ele>
        <time>2010-01-02T15:13:19Z</time>
      </trkpt>
      <trkpt lat="46.1992" lon="6.78761">
        <ele>1588</ele>
        <time>2010-01-02T15:13:19Z</time>
      </trkpt>
      <trkpt lat="46.19937" lon="6.78765">
        <ele>1591</ele>
        <time>2010-01-02T15:13:26Z</time>
      </trkpt>
      <trkpt lat="46.19952" lon="6.78759">
        <ele>1592</ele>
        <time>2010-01-02T15:13:32Z</time>
      </trkpt>
      <trkpt lat="46.19963" lon="6.78756">
        <ele>1593</ele>
        <time>2010-01-02T15:13:37Z</time>
      </trkpt>
      <trkpt lat="46.19965" lon="6.78755">
        <ele>1593</ele>
        <time>2010-01-02T15:13:37Z</time>
      </trkpt>
      <trkpt lat="46.19986" lon="6.7875">
        <ele>1590</ele>
        <time>2010-01-02T15:13:46Z</time>
      </trkpt>
      <trkpt lat="46.19997" lon="6.78739">
        <ele>1591</ele>
        <time>2010-01-02T15:13:51Z</time>
      </trkpt>
      <trkpt lat="46.19999" lon="6.78736">
        <ele>1590</ele>
        <time>2010-01-02T15:13:53Z</time>
      </trkpt>
      <trkpt lat="46.20013" lon="6.78724">
        <ele>1591</ele>
        <time>2010-01-02T15:13:59Z</time>
      </trkpt>
      <trkpt lat="46.20015" lon="6.78723">
        <ele>1591</ele>
        <time>2010-01-02T15:14:00Z</time>
      </trkpt>
      <trkpt lat="46.20056" lon="6.7872">
        <ele>1591</ele>
        <time>2010-01-02T15:14:16Z</time>
      </trkpt>
      <trkpt lat="46.20076" lon="6.78723">
        <ele>1592</ele>
        <time>2010-01-02T15:14:24Z</time>
      </trkpt>
      <trkpt lat="46.20103" lon="6.78723">
        <ele>1592</ele>
        <time>2010-01-02T15:14:35Z</time>
      </trkpt>
      <trkpt lat="46.20107" lon="6.78727">
        <ele>1592</ele>
        <time>2010-01-02T15:14:37Z</time>
      </trkpt>
      <trkpt lat="46.2012" lon="6.78735">
        <ele>1591</ele>
        <time>2010-01-02T15:14:43Z</time>
      </trkpt>
      <trkpt lat="46.20134" lon="6.78739">
        <ele>1591</ele>
        <time>2010-01-02T15:14:48Z</time>
      </trkpt>
      <trkpt lat="46.20135" lon="6.78739">
        <ele>1591</ele>
        <time>2010-01-02T15:14:49Z</time>
      </trkpt>
      <trkpt lat="46.2015" lon="6.78733">
        <ele>1590</ele>
        <time>2010-01-02T15:14:55Z</time>
      </trkpt>
      <trkpt lat="46.20166" lon="6.78736">
        <ele>1591</ele>
        <time>2010-01-02T15:15:02Z</time>
      </trkpt>
      <trkpt lat="46.20177" lon="6.78735">
        <ele>1588</ele>
        <time>2010-01-02T15:15:06Z</time>
      </trkpt>
      <trkpt lat="46.20205" lon="6.78744">
        <ele>1586</ele>
        <time>2010-01-02T15:15:17Z</time>
      </trkpt>
      <trkpt lat="46.20228" lon="6.78742">
        <ele>1585</ele>
        <time>2010-01-02T15:15:27Z</time>
      </trkpt>
      <trkpt lat="46.20249" lon="6.78733">
        <ele>1585</ele>
        <time>2010-01-02T15:15:35Z</time>
      </trkpt>
      <trkpt lat="46.20265" lon="6.78715">
        <ele>1582</ele>
        <time>2010-01-02T15:15:44Z</time>
      </trkpt>
      <trkpt lat="46.20325" lon="6.78663">
        <ele>1575</ele>
        <time>2010-01-02T15:16:11Z</time>
      </trkpt>
      <trkpt lat="46.20356" lon="6.78636">
        <ele>1579</ele>
        <time>2010-01-02T15:16:26Z</time>
      </trkpt>
      <trkpt lat="46.20379" lon="6.78602">
        <ele>1579</ele>
        <time>2010-01-02T15:16:39Z</time>
      </trkpt>
      <trkpt lat="46.20396" lon="6.7857">
        <ele>1571</ele>
        <time>2010-01-02T15:16:51Z</time>
      </trkpt>
      <trkpt lat="46.2045" lon="6.7853">
        <ele>1579</ele>
        <time>2010-01-02T15:17:15Z</time>
      </trkpt>
      <trkpt lat="46.20466" lon="6.785">
        <ele>1578</ele>
        <time>2010-01-02T15:17:25Z</time>
      </trkpt>
      <trkpt lat="46.20486" lon="6.78477">
        <ele>1568</ele>
        <time>2010-01-02T15:17:35Z</time>
      </trkpt>
      <trkpt lat="46.20515" lon="6.78445">
        <ele>1575</ele>
        <time>2010-01-02T15:17:50Z</time>
      </trkpt>
      <trkpt lat="46.20535" lon="6.78407">
        <ele>1564</ele>
        <time>2010-01-02T15:18:03Z</time>
      </trkpt>
      <trkpt lat="46.20533" lon="6.78383">
        <ele>1563</ele>
        <time>2010-01-02T15:18:10Z</time>
      </trkpt>
      <trkpt lat="46.20534" lon="6.78367">
        <ele>1562</ele>
        <time>2010-01-02T15:18:15Z</time>
      </trkpt>
      <trkpt lat="46.20536" lon="6.78348">
        <ele>1561</ele>
        <time>2010-01-02T15:18:20Z</time>
      </trkpt>
      <trkpt lat="46.2054" lon="6.78329">
        <ele>1555</ele>
        <time>2010-01-02T15:18:25Z</time>
      </trkpt>
      <trkpt lat="46.20549" lon="6.78307">
        <ele>1555</ele>
        <time>2010-01-02T15:18:32Z</time>
      </trkpt>
      <trkpt lat="46.20551" lon="6.78304">
        <ele>1555</ele>
        <time>2010-01-02T15:18:33Z</time>
      </trkpt>
      <trkpt lat="46.20565" lon="6.78276">
        <ele>1553</ele>
        <time>2010-01-02T15:18:43Z</time>
      </trkpt>
      <trkpt lat="46.20568" lon="6.78271">
        <ele>1553</ele>
        <time>2010-01-02T15:18:45Z</time>
      </trkpt>
      <trkpt lat="46.206" lon="6.78219">
        <ele>1547</ele>
        <time>2010-01-02T15:19:04Z</time>
      </trkpt>
      <trkpt lat="46.20601" lon="6.78219">
        <ele>1547</ele>
        <time>2010-01-02T15:19:05Z</time>
      </trkpt>
      <trkpt lat="46.20652" lon="6.78133">
        <ele>1535</ele>
        <time>2010-01-02T15:19:36Z</time>
      </trkpt>
      <trkpt lat="46.20678" lon="6.78096">
        <ele>1533</ele>
        <time>2010-01-02T15:19:51Z</time>
      </trkpt>
      <trkpt lat="46.20703" lon="6.78049">
        <ele>1527</ele>
        <time>2010-01-02T15:20:07Z</time>
      </trkpt>
      <trkpt lat="46.2072" lon="6.78016">
        <ele>1526</ele>
        <time>2010-01-02T15:20:18Z</time>
      </trkpt>
      <trkpt lat="46.20731" lon="6.77989">
        <ele>1520</ele>
        <time>2010-01-02T15:20:27Z</time>
      </trkpt>
      <trkpt lat="46.20736" lon="6.77966">
        <ele>1518</ele>
        <time>2010-01-02T15:20:33Z</time>
      </trkpt>
      <trkpt lat="46.20746" lon="6.77937">
        <ele>1516</ele>
        <time>2010-01-02T15:20:43Z</time>
      </trkpt>
      <trkpt lat="46.20701" lon="6.77803">
        <ele>1502</ele>
        <time>2010-01-02T15:21:24Z</time>
      </trkpt>
      <trkpt lat="46.20754" lon="6.77942">
        <ele>1523</ele>
        <time>2010-01-02T15:22:08Z</time>
      </trkpt>
      <trkpt lat="46.20825" lon="6.78131">
        <ele>1558</ele>
        <time>2010-01-02T15:23:08Z</time>
      </trkpt>
      <trkpt lat="46.20891" lon="6.78305">
        <ele>1619</ele>
        <time>2010-01-02T15:24:02Z</time>
      </trkpt>
      <trkpt lat="46.20926" lon="6.78411">
        <ele>1675</ele>
        <time>2010-01-02T15:24:35Z</time>
      </trkpt>
      <trkpt lat="46.20951" lon="6.78431">
        <ele>1699</ele>
        <time>2010-01-02T15:24:46Z</time>
      </trkpt>
      <trkpt lat="46.21016" lon="6.78604">
        <ele>1778</ele>
        <time>2010-01-02T15:25:41Z</time>
      </trkpt>
      <trkpt lat="46.2104" lon="6.78683">
        <ele>1803</ele>
        <time>2010-01-02T15:26:05Z</time>
      </trkpt>
      <trkpt lat="46.21103" lon="6.78849">
        <ele>1855</ele>
        <time>2010-01-02T15:26:57Z</time>
      </trkpt>
      <trkpt lat="46.2117" lon="6.79029">
        <ele>1905</ele>
        <time>2010-01-02T15:27:54Z</time>
      </trkpt>
      <trkpt lat="46.21175" lon="6.7903">
        <ele>1905</ele>
        <time>2010-01-02T15:27:56Z</time>
      </trkpt>
      <trkpt lat="46.21181" lon="6.79038">
        <ele>1906</ele>
        <time>2010-01-02T15:27:59Z</time>
      </trkpt>
      <trkpt lat="46.21195" lon="6.79032">
        <ele>1905</ele>
        <time>2010-01-02T15:28:05Z</time>
      </trkpt>
      <trkpt lat="46.21213" lon="6.79024">
        <ele>1904</ele>
        <time>2010-01-02T15:28:13Z</time>
      </trkpt>
      <trkpt lat="46.2122" lon="6.79021">
        <ele>1904</ele>
        <time>2010-01-02T15:28:15Z</time>
      </trkpt>
      <trkpt lat="46.21255" lon="6.78992">
        <ele>1901</ele>
        <time>2010-01-02T15:28:32Z</time>
      </trkpt>
      <trkpt lat="46.21257" lon="6.7899">
        <ele>1900</ele>
        <time>2010-01-02T15:28:33Z</time>
      </trkpt>
      <trkpt lat="46.2126" lon="6.78979">
        <ele>1897</ele>
        <time>2010-01-02T15:28:36Z</time>
      </trkpt>
      <trkpt lat="46.21277" lon="6.78947">
        <ele>1894</ele>
        <time>2010-01-02T15:28:47Z</time>
      </trkpt>
      <trkpt lat="46.21293" lon="6.78917">
        <ele>1893</ele>
        <time>2010-01-02T15:28:57Z</time>
      </trkpt>
      <trkpt lat="46.21293" lon="6.78917">
        <ele>1895</ele>
        <time>2010-01-02T15:28:58Z</time>
      </trkpt>
      <trkpt lat="46.213" lon="6.78891">
        <ele>1895</ele>
        <time>2010-01-02T15:29:05Z</time>
      </trkpt>
      <trkpt lat="46.213" lon="6.78891">
        <ele>1895</ele>
        <time>2010-01-02T15:29:05Z</time>
      </trkpt>
      <trkpt lat="46.21316" lon="6.78859">
        <ele>1896</ele>
        <time>2010-01-02T15:29:16Z</time>
      </trkpt>
      <trkpt lat="46.21325" lon="6.78846">
        <ele>1898</ele>
        <time>2010-01-02T15:29:21Z</time>
      </trkpt>
      <trkpt lat="46.21326" lon="6.78845">
        <ele>1898</ele>
        <time>2010-01-02T15:29:22Z</time>
      </trkpt>
      <trkpt lat="46.21346" lon="6.78817">
        <ele>1894</ele>
        <time>2010-01-02T15:29:33Z</time>
      </trkpt>
      <trkpt lat="46.21368" lon="6.78782">
        <ele>1889</ele>
        <time>2010-01-02T15:29:46Z</time>
      </trkpt>
      <trkpt lat="46.21375" lon="6.78756">
        <ele>1889</ele>
        <time>2010-01-02T15:29:54Z</time>
      </trkpt>
      <trkpt lat="46.21386" lon="6.78735">
        <ele>1889</ele>
        <time>2010-01-02T15:30:01Z</time>
      </trkpt>
      <trkpt lat="46.21397" lon="6.78706">
        <ele>1889</ele>
        <time>2010-01-02T15:30:10Z</time>
      </trkpt>
      <trkpt lat="46.21413" lon="6.78682">
        <ele>1891</ele>
        <time>2010-01-02T15:30:19Z</time>
      </trkpt>
      <trkpt lat="46.21443" lon="6.78653">
        <ele>1884</ele>
        <time>2010-01-02T15:30:34Z</time>
      </trkpt>
      <trkpt lat="46.2146" lon="6.78629">
        <ele>1882</ele>
        <time>2010-01-02T15:30:43Z</time>
      </trkpt>
      <trkpt lat="46.21489" lon="6.78593">
        <ele>1884</ele>
        <time>2010-01-02T15:30:59Z</time>
      </trkpt>
      <trkpt lat="46.21508" lon="6.7858">
        <ele>1884</ele>
        <time>2010-01-02T15:31:07Z</time>
      </trkpt>
      <trkpt lat="46.21527" lon="6.78574">
        <ele>1880</ele>
        <time>2010-01-02T15:31:15Z</time>
      </trkpt>
      <trkpt lat="46.21549" lon="6.78553">
        <ele>1877</ele>
        <time>2010-01-02T15:31:25Z</time>
      </trkpt>
      <trkpt lat="46.21558" lon="6.78538">
        <ele>1878</ele>
        <time>2010-01-02T15:31:31Z</time>
      </trkpt>
      <trkpt lat="46.21567" lon="6.78524">
        <ele>1881</ele>
        <time>2010-01-02T15:31:36Z</time>
      </trkpt>
      <trkpt lat="46.21572" lon="6.78509">
        <ele>1883</ele>
        <time>2010-01-02T15:31:41Z</time>
      </trkpt>
      <trkpt lat="46.21577" lon="6.78494">
        <ele>1886</ele>
        <time>2010-01-02T15:31:45Z</time>
      </trkpt>
      <trkpt lat="46.21587" lon="6.7847">
        <ele>1883</ele>
        <time>2010-01-02T15:31:53Z</time>
      </trkpt>
      <trkpt lat="46.21596" lon="6.78455">
        <ele>1883</ele>
        <time>2010-01-02T15:31:59Z</time>
      </trkpt>
      <trkpt lat="46.21597" lon="6.78454">
        <ele>1883</ele>
        <time>2010-01-02T15:31:59Z</time>
      </trkpt>
      <trkpt lat="46.21604" lon="6.78444">
        <ele>1883</ele>
        <time>2010-01-02T15:32:03Z</time>
      </trkpt>
      <trkpt lat="46.21617" lon="6.78416">
        <ele>1891</ele>
        <time>2010-01-02T15:32:12Z</time>
      </trkpt>
      <trkpt lat="46.21618" lon="6.78415">
        <ele>1891</ele>
        <time>2010-01-02T15:32:13Z</time>
      </trkpt>
      <trkpt lat="46.21618" lon="6.78414">
        <ele>1891</ele>
        <time>2010-01-02T15:32:13Z</time>
      </trkpt>
      <trkpt lat="46.21621" lon="6.78401">
        <ele>1892</ele>
        <time>2010-01-02T15:32:17Z</time>
      </trkpt>
      <trkpt lat="46.21621" lon="6.78399">
        <ele>1892</ele>
        <time>2010-01-02T15:32:18Z</time>
      </trkpt>
      <trkpt lat="46.21629" lon="6.78365">
        <ele>1893</ele>
        <time>2010-01-02T15:32:27Z</time>
      </trkpt>
      <trkpt lat="46.21636" lon="6.78319">
        <ele>1896</ele>
        <time>2010-01-02T15:32:40Z</time>
      </trkpt>
      <trkpt lat="46.21637" lon="6.78254">
        <ele>1897</ele>
        <time>2010-01-02T15:32:58Z</time>
      </trkpt>
      <trkpt lat="46.21637" lon="6.78228">
        <ele>1894</ele>
        <time>2010-01-02T15:33:06Z</time>
      </trkpt>
      <trkpt lat="46.21638" lon="6.78202">
        <ele>1893</ele>
        <time>2010-01-02T15:33:13Z</time>
      </trkpt>
      <trkpt lat="46.21638" lon="6.78169">
        <ele>1894</ele>
        <time>2010-01-02T15:33:22Z</time>
      </trkpt>
      <trkpt lat="46.21638" lon="6.78147">
        <ele>1888</ele>
        <time>2010-01-02T15:33:28Z</time>
      </trkpt>
      <trkpt lat="46.21644" lon="6.78129">
        <ele>1887</ele>
        <time>2010-01-02T15:33:33Z</time>
      </trkpt>
      <trkpt lat="46.21658" lon="6.78084">
        <ele>1893</ele>
        <time>2010-01-02T15:33:47Z</time>
      </trkpt>
      <trkpt lat="46.21673" lon="6.78049">
        <ele>1896</ele>
        <time>2010-01-02T15:33:59Z</time>
      </trkpt>
      <trkpt lat="46.21695" lon="6.78013">
        <ele>1893</ele>
        <time>2010-01-02T15:34:12Z</time>
      </trkpt>
      <trkpt lat="46.21705" lon="6.78">
        <ele>1879</ele>
        <time>2010-01-02T15:34:17Z</time>
      </trkpt>
      <trkpt lat="46.21723" lon="6.77983">
        <ele>1883</ele>
        <time>2010-01-02T15:34:26Z</time>
      </trkpt>
      <trkpt lat="46.21756" lon="6.77948">
        <ele>1892</ele>
        <time>2010-01-02T15:34:42Z</time>
      </trkpt>
      <trkpt lat="46.21798" lon="6.77907">
        <ele>1875</ele>
        <time>2010-01-02T15:35:03Z</time>
      </trkpt>
      <trkpt lat="46.21829" lon="6.77878">
        <ele>1874</ele>
        <time>2010-01-02T15:35:18Z</time>
      </trkpt>
      <trkpt lat="46.21848" lon="6.77861">
        <ele>1875</ele>
        <time>2010-01-02T15:35:26Z</time>
      </trkpt>
      <trkpt lat="46.21863" lon="6.77841">
        <ele>1873</ele>
        <time>2010-01-02T15:35:35Z</time>
      </trkpt>
      <trkpt lat="46.21864" lon="6.77841">
        <ele>1873</ele>
        <time>2010-01-02T15:35:35Z</time>
      </trkpt>
      <trkpt lat="46.21879" lon="6.7783">
        <ele>1862</ele>
        <time>2010-01-02T15:35:42Z</time>
      </trkpt>
      <trkpt lat="46.21882" lon="6.77827">
        <ele>1862</ele>
        <time>2010-01-02T15:35:43Z</time>
      </trkpt>
      <trkpt lat="46.21889" lon="6.77824">
        <ele>1862</ele>
        <time>2010-01-02T15:35:46Z</time>
      </trkpt>
      <trkpt lat="46.21898" lon="6.77816">
        <ele>1862</ele>
        <time>2010-01-02T15:35:50Z</time>
      </trkpt>
      <trkpt lat="46.21912" lon="6.77799">
        <ele>1862</ele>
        <time>2010-01-02T15:35:58Z</time>
      </trkpt>
      <trkpt lat="46.21917" lon="6.77792">
        <ele>1853</ele>
        <time>2010-01-02T15:36:00Z</time>
      </trkpt>
      <trkpt lat="46.2192" lon="6.77796">
        <ele>1853</ele>
        <time>2010-01-02T15:36:02Z</time>
      </trkpt>
      <trkpt lat="46.21915" lon="6.77809">
        <ele>1862</ele>
        <time>2010-01-02T15:36:06Z</time>
      </trkpt>
      <trkpt lat="46.21915" lon="6.77819">
        <ele>1863</ele>
        <time>2010-01-02T15:36:09Z</time>
      </trkpt>
      <trkpt lat="46.21917" lon="6.77828">
        <ele>1861</ele>
        <time>2010-01-02T15:36:11Z</time>
      </trkpt>
      <trkpt lat="46.21918" lon="6.77836">
        <ele>1863</ele>
        <time>2010-01-02T15:36:13Z</time>
      </trkpt>
      <trkpt lat="46.21921" lon="6.77848">
        <ele>1859</ele>
        <time>2010-01-02T15:36:17Z</time>
      </trkpt>
      <trkpt lat="46.21923" lon="6.77857">
        <ele>1858</ele>
        <time>2010-01-02T15:36:20Z</time>
      </trkpt>
      <trkpt lat="46.21925" lon="6.77865">
        <ele>1857</ele>
        <time>2010-01-02T15:36:22Z</time>
      </trkpt>
      <trkpt lat="46.21927" lon="6.77876">
        <ele>1858</ele>
        <time>2010-01-02T15:36:25Z</time>
      </trkpt>
      <trkpt lat="46.21929" lon="6.77881">
        <ele>1858</ele>
        <time>2010-01-02T15:36:27Z</time>
      </trkpt>
      <trkpt lat="46.21932" lon="6.77887">
        <ele>1859</ele>
        <time>2010-01-02T15:36:29Z</time>
      </trkpt>
      <trkpt lat="46.21934" lon="6.77891">
        <ele>1859</ele>
        <time>2010-01-02T15:36:30Z</time>
      </trkpt>
      <trkpt lat="46.21938" lon="6.77894">
        <ele>1859</ele>
        <time>2010-01-02T15:36:32Z</time>
      </trkpt>
      <trkpt lat="46.21937" lon="6.77889">
        <ele>1858</ele>
        <time>2010-01-02T15:36:33Z</time>
      </trkpt>
      <trkpt lat="46.21937" lon="6.7788">
        <ele>1857</ele>
        <time>2010-01-02T15:36:36Z</time>
      </trkpt>
      <trkpt lat="46.21934" lon="6.7787">
        <ele>1856</ele>
        <time>2010-01-02T15:36:39Z</time>
      </trkpt>
      <trkpt lat="46.21936" lon="6.77865">
        <ele>1855</ele>
        <time>2010-01-02T15:36:40Z</time>
      </trkpt>
      <trkpt lat="46.21938" lon="6.77865">
        <ele>1855</ele>
        <time>2010-01-02T15:36:41Z</time>
      </trkpt>
      <trkpt lat="46.21946" lon="6.77881">
        <ele>1854</ele>
        <time>2010-01-02T15:36:47Z</time>
      </trkpt>
      <trkpt lat="46.21953" lon="6.7789">
        <ele>1853</ele>
        <time>2010-01-02T15:36:50Z</time>
      </trkpt>
      <trkpt lat="46.21964" lon="6.77907">
        <ele>1850</ele>
        <time>2010-01-02T15:36:57Z</time>
      </trkpt>
      <trkpt lat="46.21968" lon="6.77916">
        <ele>1849</ele>
        <time>2010-01-02T15:37:00Z</time>
      </trkpt>
      <trkpt lat="46.21972" lon="6.77926">
        <ele>1852</ele>
        <time>2010-01-02T15:37:03Z</time>
      </trkpt>
      <trkpt lat="46.21972" lon="6.77927">
        <ele>1852</ele>
        <time>2010-01-02T15:37:03Z</time>
      </trkpt>
      <trkpt lat="46.21978" lon="6.77946">
        <ele>1852</ele>
        <time>2010-01-02T15:37:09Z</time>
      </trkpt>
      <trkpt lat="46.21986" lon="6.77973">
        <ele>1851</ele>
        <time>2010-01-02T15:37:17Z</time>
      </trkpt>
      <trkpt lat="46.21988" lon="6.77979">
        <ele>1849</ele>
        <time>2010-01-02T15:37:19Z</time>
      </trkpt>
      <trkpt lat="46.21991" lon="6.77986">
        <ele>1846</ele>
        <time>2010-01-02T15:37:21Z</time>
      </trkpt>
      <trkpt lat="46.21994" lon="6.77984">
        <ele>1846</ele>
        <time>2010-01-02T15:37:23Z</time>
      </trkpt>
      <trkpt lat="46.21993" lon="6.77975">
        <ele>1849</ele>
        <time>2010-01-02T15:37:25Z</time>
      </trkpt>
      <trkpt lat="46.21992" lon="6.77962">
        <ele>1850</ele>
        <time>2010-01-02T15:37:29Z</time>
      </trkpt>
      <trkpt lat="46.21994" lon="6.77944">
        <ele>1848</ele>
        <time>2010-01-02T15:37:34Z</time>
      </trkpt>
      <trkpt lat="46.21991" lon="6.77929">
        <ele>1844</ele>
        <time>2010-01-02T15:37:39Z</time>
      </trkpt>
      <trkpt lat="46.21987" lon="6.77911">
        <ele>1841</ele>
        <time>2010-01-02T15:37:44Z</time>
      </trkpt>
      <trkpt lat="46.21981" lon="6.77892">
        <ele>1845</ele>
        <time>2010-01-02T15:37:49Z</time>
      </trkpt>
      <trkpt lat="46.2198" lon="6.7788">
        <ele>1845</ele>
        <time>2010-01-02T15:37:53Z</time>
      </trkpt>
      <trkpt lat="46.21982" lon="6.77873">
        <ele>1844</ele>
        <time>2010-01-02T15:37:55Z</time>
      </trkpt>
      <trkpt lat="46.21987" lon="6.77882">
        <ele>1844</ele>
        <time>2010-01-02T15:37:58Z</time>
      </trkpt>
      <trkpt lat="46.21993" lon="6.7789">
        <ele>1843</ele>
        <time>2010-01-02T15:38:01Z</time>
      </trkpt>
      <trkpt lat="46.21997" lon="6.77891">
        <ele>1842</ele>
        <time>2010-01-02T15:38:03Z</time>
      </trkpt>
      <trkpt lat="46.22" lon="6.77888">
        <ele>1842</ele>
        <time>2010-01-02T15:38:04Z</time>
      </trkpt>
      <trkpt lat="46.22002" lon="6.77883">
        <ele>1817</ele>
        <time>2010-01-02T15:38:06Z</time>
      </trkpt>
      <trkpt lat="46.21996" lon="6.77867">
        <ele>1841</ele>
        <time>2010-01-02T15:38:11Z</time>
      </trkpt>
      <trkpt lat="46.21995" lon="6.77865">
        <ele>1841</ele>
        <time>2010-01-02T15:38:12Z</time>
      </trkpt>
      <trkpt lat="46.21989" lon="6.77854">
        <ele>1839</ele>
        <time>2010-01-02T15:38:15Z</time>
      </trkpt>
      <trkpt lat="46.21988" lon="6.77842">
        <ele>1836</ele>
        <time>2010-01-02T15:38:19Z</time>
      </trkpt>
      <trkpt lat="46.21991" lon="6.7784">
        <ele>1833</ele>
        <time>2010-01-02T15:38:20Z</time>
      </trkpt>
      <trkpt lat="46.22" lon="6.77851">
        <ele>1836</ele>
        <time>2010-01-02T15:38:24Z</time>
      </trkpt>
      <trkpt lat="46.22006" lon="6.77856">
        <ele>1816</ele>
        <time>2010-01-02T15:38:27Z</time>
      </trkpt>
      <trkpt lat="46.22013" lon="6.77863">
        <ele>1814</ele>
        <time>2010-01-02T15:38:31Z</time>
      </trkpt>
      <trkpt lat="46.22017" lon="6.77862">
        <ele>1814</ele>
        <time>2010-01-02T15:38:32Z</time>
      </trkpt>
      <trkpt lat="46.22023" lon="6.77873">
        <ele>1813</ele>
        <time>2010-01-02T15:38:36Z</time>
      </trkpt>
      <trkpt lat="46.22029" lon="6.77895">
        <ele>1813</ele>
        <time>2010-01-02T15:38:43Z</time>
      </trkpt>
      <trkpt lat="46.22035" lon="6.7791">
        <ele>1812</ele>
        <time>2010-01-02T15:38:48Z</time>
      </trkpt>
      <trkpt lat="46.22054" lon="6.77932">
        <ele>1807</ele>
        <time>2010-01-02T15:38:57Z</time>
      </trkpt>
      <trkpt lat="46.22059" lon="6.77944">
        <ele>1806</ele>
        <time>2010-01-02T15:39:01Z</time>
      </trkpt>
      <trkpt lat="46.22061" lon="6.77954">
        <ele>1806</ele>
        <time>2010-01-02T15:39:04Z</time>
      </trkpt>
      <trkpt lat="46.22061" lon="6.77966">
        <ele>1805</ele>
        <time>2010-01-02T15:39:07Z</time>
      </trkpt>
      <trkpt lat="46.22057" lon="6.77977">
        <ele>1805</ele>
        <time>2010-01-02T15:39:11Z</time>
      </trkpt>
      <trkpt lat="46.2205" lon="6.77985">
        <ele>1807</ele>
        <time>2010-01-02T15:39:14Z</time>
      </trkpt>
      <trkpt lat="46.22042" lon="6.77994">
        <ele>1810</ele>
        <time>2010-01-02T15:39:18Z</time>
      </trkpt>
      <trkpt lat="46.22032" lon="6.77999">
        <ele>1814</ele>
        <time>2010-01-02T15:39:23Z</time>
      </trkpt>
      <trkpt lat="46.22026" lon="6.78017">
        <ele>1812</ele>
        <time>2010-01-02T15:39:28Z</time>
      </trkpt>
      <trkpt lat="46.22023" lon="6.78031">
        <ele>1811</ele>
        <time>2010-01-02T15:39:32Z</time>
      </trkpt>
      <trkpt lat="46.22019" lon="6.78044">
        <ele>1810</ele>
        <time>2010-01-02T15:39:36Z</time>
      </trkpt>
      <trkpt lat="46.22019" lon="6.7805">
        <ele>1810</ele>
        <time>2010-01-02T15:39:38Z</time>
      </trkpt>
      <trkpt lat="46.22018" lon="6.78059">
        <ele>1811</ele>
        <time>2010-01-02T15:39:40Z</time>
      </trkpt>
      <trkpt lat="46.22018" lon="6.78083">
        <ele>1813</ele>
        <time>2010-01-02T15:39:47Z</time>
      </trkpt>
      <trkpt lat="46.2202" lon="6.78096">
        <ele>1808</ele>
        <time>2010-01-02T15:39:51Z</time>
      </trkpt>
      <trkpt lat="46.22024" lon="6.78113">
        <ele>1804</ele>
        <time>2010-01-02T15:39:56Z</time>
      </trkpt>
      <trkpt lat="46.22037" lon="6.7816">
        <ele>1799</ele>
        <time>2010-01-02T15:40:10Z</time>
      </trkpt>
      <trkpt lat="46.2204" lon="6.78173">
        <ele>1796</ele>
        <time>2010-01-02T15:40:13Z</time>
      </trkpt>
      <trkpt lat="46.2204" lon="6.78182">
        <ele>1795</ele>
        <time>2010-01-02T15:40:16Z</time>
      </trkpt>
      <trkpt lat="46.2204" lon="6.78201">
        <ele>1795</ele>
        <time>2010-01-02T15:40:21Z</time>
      </trkpt>
      <trkpt lat="46.22033" lon="6.78255">
        <ele>1791</ele>
        <time>2010-01-02T15:40:36Z</time>
      </trkpt>
      <trkpt lat="46.22031" lon="6.78273">
        <ele>1790</ele>
        <time>2010-01-02T15:40:41Z</time>
      </trkpt>
      <trkpt lat="46.22027" lon="6.78292">
        <ele>1787</ele>
        <time>2010-01-02T15:40:47Z</time>
      </trkpt>
      <trkpt lat="46.22018" lon="6.78308">
        <ele>1787</ele>
        <time>2010-01-02T15:40:53Z</time>
      </trkpt>
      <trkpt lat="46.22006" lon="6.78321">
        <ele>1789</ele>
        <time>2010-01-02T15:40:59Z</time>
      </trkpt>
      <trkpt lat="46.21992" lon="6.78331">
        <ele>1800</ele>
        <time>2010-01-02T15:41:05Z</time>
      </trkpt>
      <trkpt lat="46.21982" lon="6.78333">
        <ele>1794</ele>
        <time>2010-01-02T15:41:09Z</time>
      </trkpt>
      <trkpt lat="46.2197" lon="6.78346">
        <ele>1795</ele>
        <time>2010-01-02T15:41:15Z</time>
      </trkpt>
      <trkpt lat="46.21964" lon="6.7836">
        <ele>1795</ele>
        <time>2010-01-02T15:41:20Z</time>
      </trkpt>
      <trkpt lat="46.21964" lon="6.78361">
        <ele>1795</ele>
        <time>2010-01-02T15:41:20Z</time>
      </trkpt>
      <trkpt lat="46.21958" lon="6.78374">
        <ele>1794</ele>
        <time>2010-01-02T15:41:24Z</time>
      </trkpt>
      <trkpt lat="46.2195" lon="6.78387">
        <ele>1793</ele>
        <time>2010-01-02T15:41:29Z</time>
      </trkpt>
      <trkpt lat="46.21949" lon="6.78395">
        <ele>1792</ele>
        <time>2010-01-02T15:41:31Z</time>
      </trkpt>
      <trkpt lat="46.21949" lon="6.78399">
        <ele>1792</ele>
        <time>2010-01-02T15:41:32Z</time>
      </trkpt>
      <trkpt lat="46.21951" lon="6.784">
        <ele>1791</ele>
        <time>2010-01-02T15:41:33Z</time>
      </trkpt>
      <trkpt lat="46.21956" lon="6.78397">
        <ele>1791</ele>
        <time>2010-01-02T15:41:35Z</time>
      </trkpt>
      <trkpt lat="46.21965" lon="6.78391">
        <ele>1790</ele>
        <time>2010-01-02T15:41:39Z</time>
      </trkpt>
      <trkpt lat="46.21977" lon="6.78386">
        <ele>1789</ele>
        <time>2010-01-02T15:41:44Z</time>
      </trkpt>
      <trkpt lat="46.21984" lon="6.78385">
        <ele>1787</ele>
        <time>2010-01-02T15:41:47Z</time>
      </trkpt>
      <trkpt lat="46.21989" lon="6.78379">
        <ele>1788</ele>
        <time>2010-01-02T15:41:50Z</time>
      </trkpt>
      <trkpt lat="46.21994" lon="6.78368">
        <ele>1790</ele>
        <time>2010-01-02T15:41:53Z</time>
      </trkpt>
      <trkpt lat="46.22004" lon="6.78366">
        <ele>1770</ele>
        <time>2010-01-02T15:41:58Z</time>
      </trkpt>
      <trkpt lat="46.2202" lon="6.78362">
        <ele>1769</ele>
        <time>2010-01-02T15:42:04Z</time>
      </trkpt>
      <trkpt lat="46.22028" lon="6.78362">
        <ele>1767</ele>
        <time>2010-01-02T15:42:07Z</time>
      </trkpt>
      <trkpt lat="46.22041" lon="6.78347">
        <ele>1765</ele>
        <time>2010-01-02T15:42:14Z</time>
      </trkpt>
      <trkpt lat="46.22046" lon="6.78329">
        <ele>1780</ele>
        <time>2010-01-02T15:42:19Z</time>
      </trkpt>
      <trkpt lat="46.22049" lon="6.78341">
        <ele>1764</ele>
        <time>2010-01-02T15:42:23Z</time>
      </trkpt>
      <trkpt lat="46.22051" lon="6.78353">
        <ele>1762</ele>
        <time>2010-01-02T15:42:26Z</time>
      </trkpt>
      <trkpt lat="46.22054" lon="6.78356">
        <ele>1761</ele>
        <time>2010-01-02T15:42:28Z</time>
      </trkpt>
      <trkpt lat="46.22056" lon="6.78351">
        <ele>1761</ele>
        <time>2010-01-02T15:42:29Z</time>
      </trkpt>
      <trkpt lat="46.22057" lon="6.78341">
        <ele>1762</ele>
        <time>2010-01-02T15:42:32Z</time>
      </trkpt>
      <trkpt lat="46.22062" lon="6.78326">
        <ele>1774</ele>
        <time>2010-01-02T15:42:37Z</time>
      </trkpt>
      <trkpt lat="46.22065" lon="6.78315">
        <ele>1775</ele>
        <time>2010-01-02T15:42:40Z</time>
      </trkpt>
      <trkpt lat="46.2207" lon="6.78316">
        <ele>1773</ele>
        <time>2010-01-02T15:42:42Z</time>
      </trkpt>
      <trkpt lat="46.22067" lon="6.78327">
        <ele>1771</ele>
        <time>2010-01-02T15:42:45Z</time>
      </trkpt>
      <trkpt lat="46.22067" lon="6.78351">
        <ele>1760</ele>
        <time>2010-01-02T15:42:51Z</time>
      </trkpt>
      <trkpt lat="46.22063" lon="6.78368">
        <ele>1758</ele>
        <time>2010-01-02T15:42:57Z</time>
      </trkpt>
      <trkpt lat="46.22055" lon="6.78385">
        <ele>1756</ele>
        <time>2010-01-02T15:43:02Z</time>
      </trkpt>
      <trkpt lat="46.22048" lon="6.78397">
        <ele>1756</ele>
        <time>2010-01-02T15:43:06Z</time>
      </trkpt>
      <trkpt lat="46.22039" lon="6.78413">
        <ele>1757</ele>
        <time>2010-01-02T15:43:12Z</time>
      </trkpt>
      <trkpt lat="46.2203" lon="6.78427">
        <ele>1741</ele>
        <time>2010-01-02T15:43:18Z</time>
      </trkpt>
      <trkpt lat="46.22023" lon="6.78443">
        <ele>1740</ele>
        <time>2010-01-02T15:43:23Z</time>
      </trkpt>
      <trkpt lat="46.22022" lon="6.78455">
        <ele>1737</ele>
        <time>2010-01-02T15:43:26Z</time>
      </trkpt>
      <trkpt lat="46.22016" lon="6.78481">
        <ele>1733</ele>
        <time>2010-01-02T15:43:34Z</time>
      </trkpt>
      <trkpt lat="46.22005" lon="6.78494">
        <ele>1733</ele>
        <time>2010-01-02T15:43:39Z</time>
      </trkpt>
      <trkpt lat="46.21997" lon="6.78504">
        <ele>1733</ele>
        <time>2010-01-02T15:43:44Z</time>
      </trkpt>
      <trkpt lat="46.21986" lon="6.78508">
        <ele>1733</ele>
        <time>2010-01-02T15:43:48Z</time>
      </trkpt>
      <trkpt lat="46.2198" lon="6.78508">
        <ele>1733</ele>
        <time>2010-01-02T15:43:51Z</time>
      </trkpt>
      <trkpt lat="46.21976" lon="6.78509">
        <ele>1733</ele>
        <time>2010-01-02T15:43:52Z</time>
      </trkpt>
      <trkpt lat="46.21968" lon="6.78514">
        <ele>1733</ele>
        <time>2010-01-02T15:43:56Z</time>
      </trkpt>
      <trkpt lat="46.21963" lon="6.78522">
        <ele>1733</ele>
        <time>2010-01-02T15:43:58Z</time>
      </trkpt>
      <trkpt lat="46.21959" lon="6.78526">
        <ele>1733</ele>
        <time>2010-01-02T15:44:00Z</time>
      </trkpt>
      <trkpt lat="46.21948" lon="6.78531">
        <ele>1734</ele>
        <time>2010-01-02T15:44:05Z</time>
      </trkpt>
      <trkpt lat="46.21939" lon="6.78538">
        <ele>1733</ele>
        <time>2010-01-02T15:44:09Z</time>
      </trkpt>
      <trkpt lat="46.21913" lon="6.78543">
        <ele>1751</ele>
        <time>2010-01-02T15:44:20Z</time>
      </trkpt>
      <trkpt lat="46.21898" lon="6.78548">
        <ele>1752</ele>
        <time>2010-01-02T15:44:26Z</time>
      </trkpt>
      <trkpt lat="46.21881" lon="6.78561">
        <ele>1753</ele>
        <time>2010-01-02T15:44:33Z</time>
      </trkpt>
      <trkpt lat="46.21877" lon="6.78572">
        <ele>1752</ele>
        <time>2010-01-02T15:44:37Z</time>
      </trkpt>
      <trkpt lat="46.21873" lon="6.78581">
        <ele>1752</ele>
        <time>2010-01-02T15:44:40Z</time>
      </trkpt>
      <trkpt lat="46.21868" lon="6.78595">
        <ele>1733</ele>
        <time>2010-01-02T15:44:44Z</time>
      </trkpt>
      <trkpt lat="46.21854" lon="6.78605">
        <ele>1735</ele>
        <time>2010-01-02T15:44:51Z</time>
      </trkpt>
      <trkpt lat="46.21844" lon="6.78612">
        <ele>1735</ele>
        <time>2010-01-02T15:44:55Z</time>
      </trkpt>
      <trkpt lat="46.21837" lon="6.7862">
        <ele>1733</ele>
        <time>2010-01-02T15:44:59Z</time>
      </trkpt>
      <trkpt lat="46.21834" lon="6.78628">
        <ele>1731</ele>
        <time>2010-01-02T15:45:01Z</time>
      </trkpt>
      <trkpt lat="46.21839" lon="6.78642">
        <ele>1728</ele>
        <time>2010-01-02T15:45:05Z</time>
      </trkpt>
      <trkpt lat="46.21838" lon="6.78652">
        <ele>1726</ele>
        <time>2010-01-02T15:45:08Z</time>
      </trkpt>
      <trkpt lat="46.2183" lon="6.78664">
        <ele>1731</ele>
        <time>2010-01-02T15:45:12Z</time>
      </trkpt>
      <trkpt lat="46.21824" lon="6.78676">
        <ele>1727</ele>
        <time>2010-01-02T15:45:17Z</time>
      </trkpt>
      <trkpt lat="46.21817" lon="6.78685">
        <ele>1728</ele>
        <time>2010-01-02T15:45:20Z</time>
      </trkpt>
      <trkpt lat="46.21811" lon="6.787">
        <ele>1727</ele>
        <time>2010-01-02T15:45:25Z</time>
      </trkpt>
      <trkpt lat="46.21809" lon="6.78713">
        <ele>1726</ele>
        <time>2010-01-02T15:45:29Z</time>
      </trkpt>
      <trkpt lat="46.21802" lon="6.78719">
        <ele>1726</ele>
        <time>2010-01-02T15:45:32Z</time>
      </trkpt>
      <trkpt lat="46.21792" lon="6.78726">
        <ele>1727</ele>
        <time>2010-01-02T15:45:36Z</time>
      </trkpt>
      <trkpt lat="46.21786" lon="6.78731">
        <ele>1727</ele>
        <time>2010-01-02T15:45:39Z</time>
      </trkpt>
      <trkpt lat="46.21782" lon="6.78743">
        <ele>1727</ele>
        <time>2010-01-02T15:45:43Z</time>
      </trkpt>
      <trkpt lat="46.21778" lon="6.78762">
        <ele>1715</ele>
        <time>2010-01-02T15:45:49Z</time>
      </trkpt>
      <trkpt lat="46.21773" lon="6.78777">
        <ele>1713</ele>
        <time>2010-01-02T15:45:53Z</time>
      </trkpt>
      <trkpt lat="46.21764" lon="6.78785">
        <ele>1714</ele>
        <time>2010-01-02T15:45:57Z</time>
      </trkpt>
      <trkpt lat="46.21757" lon="6.78788">
        <ele>1714</ele>
        <time>2010-01-02T15:46:01Z</time>
      </trkpt>
      <trkpt lat="46.21747" lon="6.78793">
        <ele>1732</ele>
        <time>2010-01-02T15:46:04Z</time>
      </trkpt>
      <trkpt lat="46.21743" lon="6.78804">
        <ele>1730</ele>
        <time>2010-01-02T15:46:08Z</time>
      </trkpt>
      <trkpt lat="46.21744" lon="6.7881">
        <ele>1728</ele>
        <time>2010-01-02T15:46:10Z</time>
      </trkpt>
      <trkpt lat="46.21743" lon="6.78819">
        <ele>1725</ele>
        <time>2010-01-02T15:46:12Z</time>
      </trkpt>
      <trkpt lat="46.21742" lon="6.78829">
        <ele>1720</ele>
        <time>2010-01-02T15:46:15Z</time>
      </trkpt>
      <trkpt lat="46.21742" lon="6.78841">
        <ele>1717</ele>
        <time>2010-01-02T15:46:18Z</time>
      </trkpt>
      <trkpt lat="46.21741" lon="6.78853">
        <ele>1718</ele>
        <time>2010-01-02T15:46:22Z</time>
      </trkpt>
      <trkpt lat="46.21738" lon="6.78865">
        <ele>1719</ele>
        <time>2010-01-02T15:46:25Z</time>
      </trkpt>
      <trkpt lat="46.2173" lon="6.78872">
        <ele>1720</ele>
        <time>2010-01-02T15:46:29Z</time>
      </trkpt>
      <trkpt lat="46.2173" lon="6.78873">
        <ele>1720</ele>
        <time>2010-01-02T15:46:29Z</time>
      </trkpt>
      <trkpt lat="46.21725" lon="6.78878">
        <ele>1720</ele>
        <time>2010-01-02T15:46:32Z</time>
      </trkpt>
      <trkpt lat="46.21722" lon="6.78886">
        <ele>1720</ele>
        <time>2010-01-02T15:46:34Z</time>
      </trkpt>
      <trkpt lat="46.21719" lon="6.78914">
        <ele>1718</ele>
        <time>2010-01-02T15:46:42Z</time>
      </trkpt>
      <trkpt lat="46.21729" lon="6.78928">
        <ele>1710</ele>
        <time>2010-01-02T15:46:47Z</time>
      </trkpt>
      <trkpt lat="46.21737" lon="6.78936">
        <ele>1709</ele>
        <time>2010-01-02T15:46:51Z</time>
      </trkpt>
      <trkpt lat="46.21746" lon="6.78949">
        <ele>1708</ele>
        <time>2010-01-02T15:46:56Z</time>
      </trkpt>
      <trkpt lat="46.21755" lon="6.78962">
        <ele>1692</ele>
        <time>2010-01-02T15:47:02Z</time>
      </trkpt>
      <trkpt lat="46.21762" lon="6.78964">
        <ele>1692</ele>
        <time>2010-01-02T15:47:04Z</time>
      </trkpt>
      <trkpt lat="46.21769" lon="6.78973">
        <ele>1691</ele>
        <time>2010-01-02T15:47:08Z</time>
      </trkpt>
      <trkpt lat="46.21775" lon="6.78986">
        <ele>1690</ele>
        <time>2010-01-02T15:47:12Z</time>
      </trkpt>
      <trkpt lat="46.21777" lon="6.78998">
        <ele>1690</ele>
        <time>2010-01-02T15:47:16Z</time>
      </trkpt>
      <trkpt lat="46.21772" lon="6.79007">
        <ele>1687</ele>
        <time>2010-01-02T15:47:19Z</time>
      </trkpt>
      <trkpt lat="46.21768" lon="6.79013">
        <ele>1687</ele>
        <time>2010-01-02T15:47:22Z</time>
      </trkpt>
      <trkpt lat="46.21768" lon="6.79013">
        <ele>1687</ele>
        <time>2010-01-02T15:47:22Z</time>
      </trkpt>
      <trkpt lat="46.21764" lon="6.79017">
        <ele>1687</ele>
        <time>2010-01-02T15:47:23Z</time>
      </trkpt>
      <trkpt lat="46.21764" lon="6.79018">
        <ele>1687</ele>
        <time>2010-01-02T15:47:24Z</time>
      </trkpt>
      <trkpt lat="46.21761" lon="6.79025">
        <ele>1686</ele>
        <time>2010-01-02T15:47:26Z</time>
      </trkpt>
      <trkpt lat="46.21761" lon="6.79035">
        <ele>1685</ele>
        <time>2010-01-02T15:47:29Z</time>
      </trkpt>
      <trkpt lat="46.21756" lon="6.79052">
        <ele>1684</ele>
        <time>2010-01-02T15:47:34Z</time>
      </trkpt>
      <trkpt lat="46.21747" lon="6.79075">
        <ele>1691</ele>
        <time>2010-01-02T15:47:41Z</time>
      </trkpt>
      <trkpt lat="46.21729" lon="6.79076">
        <ele>1695</ele>
        <time>2010-01-02T15:47:48Z</time>
      </trkpt>
      <trkpt lat="46.21724" lon="6.7908">
        <ele>1696</ele>
        <time>2010-01-02T15:47:51Z</time>
      </trkpt>
      <trkpt lat="46.21708" lon="6.79124">
        <ele>1685</ele>
        <time>2010-01-02T15:48:04Z</time>
      </trkpt>
      <trkpt lat="46.21705" lon="6.79145">
        <ele>1683</ele>
        <time>2010-01-02T15:48:10Z</time>
      </trkpt>
      <trkpt lat="46.21689" lon="6.79179">
        <ele>1671</ele>
        <time>2010-01-02T15:48:22Z</time>
      </trkpt>
      <trkpt lat="46.21679" lon="6.79213">
        <ele>1666</ele>
        <time>2010-01-02T15:48:32Z</time>
      </trkpt>
      <trkpt lat="46.21677" lon="6.79216">
        <ele>1666</ele>
        <time>2010-01-02T15:48:33Z</time>
      </trkpt>
      <trkpt lat="46.21662" lon="6.79247">
        <ele>1670</ele>
        <time>2010-01-02T15:48:44Z</time>
      </trkpt>
      <trkpt lat="46.21656" lon="6.79273">
        <ele>1670</ele>
        <time>2010-01-02T15:48:51Z</time>
      </trkpt>
      <trkpt lat="46.21658" lon="6.79312">
        <ele>1665</ele>
        <time>2010-01-02T15:49:02Z</time>
      </trkpt>
      <trkpt lat="46.2167" lon="6.79323">
        <ele>1652</ele>
        <time>2010-01-02T15:49:08Z</time>
      </trkpt>
      <trkpt lat="46.21683" lon="6.79331">
        <ele>1652</ele>
        <time>2010-01-02T15:49:14Z</time>
      </trkpt>
      <trkpt lat="46.21695" lon="6.79337">
        <ele>1649</ele>
        <time>2010-01-02T15:49:19Z</time>
      </trkpt>
      <trkpt lat="46.21703" lon="6.79338">
        <ele>1649</ele>
        <time>2010-01-02T15:49:22Z</time>
      </trkpt>
      <trkpt lat="46.21712" lon="6.79327">
        <ele>1650</ele>
        <time>2010-01-02T15:49:26Z</time>
      </trkpt>
      <trkpt lat="46.21727" lon="6.79309">
        <ele>1649</ele>
        <time>2010-01-02T15:49:34Z</time>
      </trkpt>
      <trkpt lat="46.21744" lon="6.79304">
        <ele>1649</ele>
        <time>2010-01-02T15:49:41Z</time>
      </trkpt>
      <trkpt lat="46.21759" lon="6.79301">
        <ele>1643</ele>
        <time>2010-01-02T15:49:47Z</time>
      </trkpt>
      <trkpt lat="46.21782" lon="6.793">
        <ele>1642</ele>
        <time>2010-01-02T15:49:57Z</time>
      </trkpt>
      <trkpt lat="46.21795" lon="6.79338">
        <ele>1639</ele>
        <time>2010-01-02T15:50:08Z</time>
      </trkpt>
      <trkpt lat="46.21818" lon="6.79389">
        <ele>1637</ele>
        <time>2010-01-02T15:50:25Z</time>
      </trkpt>
      <trkpt lat="46.21825" lon="6.79444">
        <ele>1639</ele>
        <time>2010-01-02T15:50:41Z</time>
      </trkpt>
      <trkpt lat="46.21836" lon="6.79522">
        <ele>1634</ele>
        <time>2010-01-02T15:51:03Z</time>
      </trkpt>
      <trkpt lat="46.21845" lon="6.79569">
        <ele>1641</ele>
        <time>2010-01-02T15:51:16Z</time>
      </trkpt>
      <trkpt lat="46.2188" lon="6.79604">
        <ele>1653</ele>
        <time>2010-01-02T15:51:33Z</time>
      </trkpt>
      <trkpt lat="46.21925" lon="6.79637">
        <ele>1649</ele>
        <time>2010-01-02T15:51:53Z</time>
      </trkpt>
      <trkpt lat="46.21964" lon="6.79661">
        <ele>1650</ele>
        <time>2010-01-02T15:52:10Z</time>
      </trkpt>
      <trkpt lat="46.21997" lon="6.79668">
        <ele>1661</ele>
        <time>2010-01-02T15:52:24Z</time>
      </trkpt>
      <trkpt lat="46.22047" lon="6.79668">
        <ele>1672</ele>
        <time>2010-01-02T15:52:44Z</time>
      </trkpt>
      <trkpt lat="46.22093" lon="6.79675">
        <ele>1673</ele>
        <time>2010-01-02T15:53:02Z</time>
      </trkpt>
      <trkpt lat="46.22174" lon="6.79678">
        <ele>1685</ele>
        <time>2010-01-02T15:53:34Z</time>
      </trkpt>
      <trkpt lat="46.22218" lon="6.79676">
        <ele>1688</ele>
        <time>2010-01-02T15:53:52Z</time>
      </trkpt>
      <trkpt lat="46.22256" lon="6.79695">
        <ele>1688</ele>
        <time>2010-01-02T15:54:08Z</time>
      </trkpt>
      <trkpt lat="46.22288" lon="6.79703">
        <ele>1690</ele>
        <time>2010-01-02T15:54:21Z</time>
      </trkpt>
      <trkpt lat="46.22314" lon="6.79704">
        <ele>1688</ele>
        <time>2010-01-02T15:54:32Z</time>
      </trkpt>
      <trkpt lat="46.22354" lon="6.79722">
        <ele>1687</ele>
        <time>2010-01-02T15:54:49Z</time>
      </trkpt>
      <trkpt lat="46.22406" lon="6.7973">
        <ele>1690</ele>
        <time>2010-01-02T15:55:10Z</time>
      </trkpt>
      <trkpt lat="46.22419" lon="6.79732">
        <ele>1692</ele>
        <time>2010-01-02T15:55:15Z</time>
      </trkpt>
      <trkpt lat="46.22441" lon="6.79754">
        <ele>1707</ele>
        <time>2010-01-02T15:55:25Z</time>
      </trkpt>
      <trkpt lat="46.22466" lon="6.79749">
        <ele>1693</ele>
        <time>2010-01-02T15:55:35Z</time>
      </trkpt>
      <trkpt lat="46.22487" lon="6.79737">
        <ele>1695</ele>
        <time>2010-01-02T15:55:45Z</time>
      </trkpt>
      <trkpt lat="46.2251" lon="6.79751">
        <ele>1702</ele>
        <time>2010-01-02T15:55:54Z</time>
      </trkpt>
      <trkpt lat="46.22521" lon="6.79785">
        <ele>1702</ele>
        <time>2010-01-02T15:56:05Z</time>
      </trkpt>
      <trkpt lat="46.22544" lon="6.79808">
        <ele>1700</ele>
        <time>2010-01-02T15:56:16Z</time>
      </trkpt>
      <trkpt lat="46.22585" lon="6.79844">
        <ele>1691</ele>
        <time>2010-01-02T15:56:35Z</time>
      </trkpt>
      <trkpt lat="46.2263" lon="6.79871">
        <ele>1690</ele>
        <time>2010-01-02T15:56:55Z</time>
      </trkpt>
      <trkpt lat="46.22652" lon="6.7989">
        <ele>1690</ele>
        <time>2010-01-02T15:57:05Z</time>
      </trkpt>
      <trkpt lat="46.22669" lon="6.79883">
        <ele>1678</ele>
        <time>2010-01-02T15:57:12Z</time>
      </trkpt>
      <trkpt lat="46.22671" lon="6.79866">
        <ele>1676</ele>
        <time>2010-01-02T15:57:16Z</time>
      </trkpt>
      <trkpt lat="46.22674" lon="6.79843">
        <ele>1675</ele>
        <time>2010-01-02T15:57:23Z</time>
      </trkpt>
      <trkpt lat="46.22693" lon="6.79888">
        <ele>1676</ele>
        <time>2010-01-02T15:57:38Z</time>
      </trkpt>
      <trkpt lat="46.22718" lon="6.79898">
        <ele>1673</ele>
        <time>2010-01-02T15:57:48Z</time>
      </trkpt>
      <trkpt lat="46.22748" lon="6.79892">
        <ele>1670</ele>
        <time>2010-01-02T15:58:00Z</time>
      </trkpt>
      <trkpt lat="46.22797" lon="6.79877">
        <ele>1658</ele>
        <time>2010-01-02T15:58:20Z</time>
      </trkpt>
      <trkpt lat="46.22844" lon="6.79869">
        <ele>1651</ele>
        <time>2010-01-02T15:58:39Z</time>
      </trkpt>
      <trkpt lat="46.22906" lon="6.79888">
        <ele>1651</ele>
        <time>2010-01-02T15:59:04Z</time>
      </trkpt>
      <trkpt lat="46.22925" lon="6.79878">
        <ele>1654</ele>
        <time>2010-01-02T15:59:12Z</time>
      </trkpt>
      <trkpt lat="46.22971" lon="6.7985">
        <ele>1655</ele>
        <time>2010-01-02T15:59:32Z</time>
      </trkpt>
      <trkpt lat="46.23022" lon="6.79811">
        <ele>1650</ele>
        <time>2010-01-02T15:59:56Z</time>
      </trkpt>
      <trkpt lat="46.23089" lon="6.79821">
        <ele>1651</ele>
        <time>2010-01-02T16:00:22Z</time>
      </trkpt>
      <trkpt lat="46.23151" lon="6.79864">
        <ele>1653</ele>
        <time>2010-01-02T16:00:50Z</time>
      </trkpt>
      <trkpt lat="46.23196" lon="6.79903">
        <ele>1647</ele>
        <time>2010-01-02T16:01:11Z</time>
      </trkpt>
      <trkpt lat="46.23242" lon="6.79955">
        <ele>1649</ele>
        <time>2010-01-02T16:01:35Z</time>
      </trkpt>
      <trkpt lat="46.23267" lon="6.80005">
        <ele>1647</ele>
        <time>2010-01-02T16:01:51Z</time>
      </trkpt>
      <trkpt lat="46.23267" lon="6.80022">
        <ele>1647</ele>
        <time>2010-01-02T16:01:56Z</time>
      </trkpt>
      <trkpt lat="46.23279" lon="6.80049">
        <ele>1647</ele>
        <time>2010-01-02T16:02:05Z</time>
      </trkpt>
      <trkpt lat="46.23302" lon="6.80047">
        <ele>1646</ele>
        <time>2010-01-02T16:02:14Z</time>
      </trkpt>
      <trkpt lat="46.23316" lon="6.80048">
        <ele>1645</ele>
        <time>2010-01-02T16:02:20Z</time>
      </trkpt>
      <trkpt lat="46.23341" lon="6.80049">
        <ele>1641</ele>
        <time>2010-01-02T16:02:30Z</time>
      </trkpt>
      <trkpt lat="46.23345" lon="6.80064">
        <ele>1643</ele>
        <time>2010-01-02T16:02:35Z</time>
      </trkpt>
      <trkpt lat="46.23378" lon="6.80071">
        <ele>1642</ele>
        <time>2010-01-02T16:02:48Z</time>
      </trkpt>
      <trkpt lat="46.23407" lon="6.80073">
        <ele>1644</ele>
        <time>2010-01-02T16:03:00Z</time>
      </trkpt>
      <trkpt lat="46.23445" lon="6.80079">
        <ele>1641</ele>
        <time>2010-01-02T16:03:15Z</time>
      </trkpt>
      <trkpt lat="46.23474" lon="6.80094">
        <ele>1654</ele>
        <time>2010-01-02T16:03:27Z</time>
      </trkpt>
      <trkpt lat="46.23503" lon="6.80078">
        <ele>1642</ele>
        <time>2010-01-02T16:03:40Z</time>
      </trkpt>
      <trkpt lat="46.23532" lon="6.8006">
        <ele>1629</ele>
        <time>2010-01-02T16:03:52Z</time>
      </trkpt>
      <trkpt lat="46.23569" lon="6.80059">
        <ele>1626</ele>
        <time>2010-01-02T16:04:07Z</time>
      </trkpt>
      <trkpt lat="46.23601" lon="6.8007">
        <ele>1611</ele>
        <time>2010-01-02T16:04:20Z</time>
      </trkpt>
      <trkpt lat="46.23624" lon="6.80089">
        <ele>1623</ele>
        <time>2010-01-02T16:04:31Z</time>
      </trkpt>
      <trkpt lat="46.23635" lon="6.80137">
        <ele>1627</ele>
        <time>2010-01-02T16:04:45Z</time>
      </trkpt>
      <trkpt lat="46.23655" lon="6.8021">
        <ele>1652</ele>
        <time>2010-01-02T16:05:07Z</time>
      </trkpt>
      <trkpt lat="46.23671" lon="6.80278">
        <ele>1634</ele>
        <time>2010-01-02T16:05:27Z</time>
      </trkpt>
      <trkpt lat="46.23671" lon="6.80315">
        <ele>1642</ele>
        <time>2010-01-02T16:05:37Z</time>
      </trkpt>
      <trkpt lat="46.23677" lon="6.80368">
        <ele>1634</ele>
        <time>2010-01-02T16:05:52Z</time>
      </trkpt>
      <trkpt lat="46.23689" lon="6.80437">
        <ele>1624</ele>
        <time>2010-01-02T16:06:11Z</time>
      </trkpt>
      <trkpt lat="46.23693" lon="6.80481">
        <ele>1619</ele>
        <time>2010-01-02T16:06:24Z</time>
      </trkpt>
      <trkpt lat="46.23739" lon="6.80617">
        <ele>1606</ele>
        <time>2010-01-02T16:07:06Z</time>
      </trkpt>
      <trkpt lat="46.23779" lon="6.80668">
        <ele>1587</ele>
        <time>2010-01-02T16:07:27Z</time>
      </trkpt>
      <trkpt lat="46.23823" lon="6.80707">
        <ele>1583</ele>
        <time>2010-01-02T16:07:48Z</time>
      </trkpt>
      <trkpt lat="46.23866" lon="6.80726">
        <ele>1570</ele>
        <time>2010-01-02T16:08:06Z</time>
      </trkpt>
      <trkpt lat="46.23909" lon="6.80756">
        <ele>1572</ele>
        <time>2010-01-02T16:08:25Z</time>
      </trkpt>
      <trkpt lat="46.23951" lon="6.8079">
        <ele>1565</ele>
        <time>2010-01-02T16:08:44Z</time>
      </trkpt>
      <trkpt lat="46.23993" lon="6.8085">
        <ele>1577</ele>
        <time>2010-01-02T16:09:08Z</time>
      </trkpt>
      <trkpt lat="46.24019" lon="6.80883">
        <ele>1573</ele>
        <time>2010-01-02T16:09:21Z</time>
      </trkpt>
      <trkpt lat="46.2402" lon="6.80922">
        <ele>1586</ele>
        <time>2010-01-02T16:09:32Z</time>
      </trkpt>
      <trkpt lat="46.24073" lon="6.80955">
        <ele>1584</ele>
        <time>2010-01-02T16:09:55Z</time>
      </trkpt>
      <trkpt lat="46.24173" lon="6.81034">
        <ele>1582</ele>
        <time>2010-01-02T16:10:41Z</time>
      </trkpt>
      <trkpt lat="46.24406" lon="6.81213">
        <ele>1577</ele>
        <time>2010-01-02T16:12:26Z</time>
      </trkpt>
      <trkpt lat="46.24442" lon="6.81236">
        <ele>1543</ele>
        <time>2010-01-02T16:12:42Z</time>
      </trkpt>
      <trkpt lat="46.24491" lon="6.8126">
        <ele>1532</ele>
        <time>2010-01-02T16:13:03Z</time>
      </trkpt>
      <trkpt lat="46.2452" lon="6.81298">
        <ele>1504</ele>
        <time>2010-01-02T16:13:19Z</time>
      </trkpt>
      <trkpt lat="46.24544" lon="6.81325">
        <ele>1498</ele>
        <time>2010-01-02T16:13:31Z</time>
      </trkpt>
      <trkpt lat="46.24563" lon="6.81373">
        <ele>1504</ele>
        <time>2010-01-02T16:13:46Z</time>
      </trkpt>
      <trkpt lat="46.24551" lon="6.81453">
        <ele>1505</ele>
        <time>2010-01-02T16:14:09Z</time>
      </trkpt>
      <trkpt lat="46.24496" lon="6.81527">
        <ele>1528</ele>
        <time>2010-01-02T16:14:39Z</time>
      </trkpt>
      <trkpt lat="46.24465" lon="6.81588">
        <ele>1504</ele>
        <time>2010-01-02T16:15:00Z</time>
      </trkpt>
      <trkpt lat="46.24452" lon="6.81624">
        <ele>1504</ele>
        <time>2010-01-02T16:15:11Z</time>
      </trkpt>
      <trkpt lat="46.24442" lon="6.81684">
        <ele>1494</ele>
        <time>2010-01-02T16:15:28Z</time>
      </trkpt>
      <trkpt lat="46.24536" lon="6.81761">
        <ele>1481</ele>
        <time>2010-01-02T16:16:11Z</time>
      </trkpt>
      <trkpt lat="46.24595" lon="6.81788">
        <ele>1467</ele>
        <time>2010-01-02T16:16:36Z</time>
      </trkpt>
      <trkpt lat="46.24674" lon="6.81847">
        <ele>1443</ele>
        <time>2010-01-02T16:17:12Z</time>
      </trkpt>
      <trkpt lat="46.24771" lon="6.8205">
        <ele>1400</ele>
        <time>2010-01-02T16:18:20Z</time>
      </trkpt>
      <trkpt lat="46.24769" lon="6.82228">
        <ele>1394</ele>
        <time>2010-01-02T16:19:09Z</time>
      </trkpt>
      <trkpt lat="46.24753" lon="6.8231">
        <ele>1386</ele>
        <time>2010-01-02T16:19:33Z</time>
      </trkpt>
      <trkpt lat="46.2468" lon="6.82473">
        <ele>1388</ele>
        <time>2010-01-02T16:20:27Z</time>
      </trkpt>
      <trkpt lat="46.24774" lon="6.82582">
        <ele>1383</ele>
        <time>2010-01-02T16:21:14Z</time>
      </trkpt>
      <trkpt lat="46.24894" lon="6.82598">
        <ele>1380</ele>
        <time>2010-01-02T16:22:03Z</time>
      </trkpt>
      <trkpt lat="46.24977" lon="6.82609">
        <ele>1360</ele>
        <time>2010-01-02T16:22:36Z</time>
      </trkpt>
      <trkpt lat="46.2505" lon="6.82693">
        <ele>1346</ele>
        <time>2010-01-02T16:23:14Z</time>
      </trkpt>
      <trkpt lat="46.2512" lon="6.82774">
        <ele>1326</ele>
        <time>2010-01-02T16:23:50Z</time>
      </trkpt>
      <trkpt lat="46.25153" lon="6.82858">
        <ele>1329</ele>
        <time>2010-01-02T16:24:16Z</time>
      </trkpt>
      <trkpt lat="46.25185" lon="6.82962">
        <ele>1299</ele>
        <time>2010-01-02T16:24:48Z</time>
      </trkpt>
      <trkpt lat="46.25222" lon="6.8312">
        <ele>1304</ele>
        <time>2010-01-02T16:25:34Z</time>
      </trkpt>
      <trkpt lat="46.25248" lon="6.83153">
        <ele>1297</ele>
        <time>2010-01-02T16:25:48Z</time>
      </trkpt>
      <trkpt lat="46.25243" lon="6.83173">
        <ele>1299</ele>
        <time>2010-01-02T16:25:48Z</time>
      </trkpt>
      <trkpt lat="46.25247" lon="6.83157">
        <ele>1296</ele>
        <time>2010-01-02T16:25:52Z</time>
      </trkpt>
      <trkpt lat="46.25254" lon="6.83193">
        <ele>1283</ele>
        <time>2010-01-02T16:26:02Z</time>
      </trkpt>
      <trkpt lat="46.2527" lon="6.83211">
        <ele>1282</ele>
        <time>2010-01-02T16:26:11Z</time>
      </trkpt>
      <trkpt lat="46.25286" lon="6.83238">
        <ele>1281</ele>
        <time>2010-01-02T16:26:21Z</time>
      </trkpt>
      <trkpt lat="46.25305" lon="6.83242">
        <ele>1275</ele>
        <time>2010-01-02T16:26:28Z</time>
      </trkpt>
      <trkpt lat="46.25318" lon="6.83241">
        <ele>1271</ele>
        <time>2010-01-02T16:26:33Z</time>
      </trkpt>
      <trkpt lat="46.25338" lon="6.83299">
        <ele>1263</ele>
        <time>2010-01-02T16:26:51Z</time>
      </trkpt>
      <trkpt lat="46.25344" lon="6.83324">
        <ele>1269</ele>
        <time>2010-01-02T16:26:59Z</time>
      </trkpt>
      <trkpt lat="46.25369" lon="6.8337">
        <ele>1273</ele>
        <time>2010-01-02T16:27:15Z</time>
      </trkpt>
      <trkpt lat="46.25388" lon="6.83399">
        <ele>1271</ele>
        <time>2010-01-02T16:27:26Z</time>
      </trkpt>
      <trkpt lat="46.25409" lon="6.83433">
        <ele>1275</ele>
        <time>2010-01-02T16:27:38Z</time>
      </trkpt>
      <trkpt lat="46.2543" lon="6.83478">
        <ele>1261</ele>
        <time>2010-01-02T16:27:53Z</time>
      </trkpt>
      <trkpt lat="46.25432" lon="6.83483">
        <ele>1261</ele>
        <time>2010-01-02T16:27:55Z</time>
      </trkpt>
      <trkpt lat="46.25443" lon="6.83501">
        <ele>1265</ele>
        <time>2010-01-02T16:28:02Z</time>
      </trkpt>
      <trkpt lat="46.25459" lon="6.8354">
        <ele>1262</ele>
        <time>2010-01-02T16:28:14Z</time>
      </trkpt>
      <trkpt lat="46.25477" lon="6.83586">
        <ele>1265</ele>
        <time>2010-01-02T16:28:29Z</time>
      </trkpt>
      <trkpt lat="46.25509" lon="6.83655">
        <ele>1254</ele>
        <time>2010-01-02T16:28:52Z</time>
      </trkpt>
      <trkpt lat="46.25531" lon="6.837">
        <ele>1261</ele>
        <time>2010-01-02T16:29:07Z</time>
      </trkpt>
      <trkpt lat="46.25547" lon="6.83731">
        <ele>1262</ele>
        <time>2010-01-02T16:29:18Z</time>
      </trkpt>
      <trkpt lat="46.25564" lon="6.83753">
        <ele>1268</ele>
        <time>2010-01-02T16:29:27Z</time>
      </trkpt>
      <trkpt lat="46.25592" lon="6.83797">
        <ele>1253</ele>
        <time>2010-01-02T16:29:44Z</time>
      </trkpt>
      <trkpt lat="46.25592" lon="6.83789">
        <ele>1252</ele>
        <time>2010-01-02T16:29:46Z</time>
      </trkpt>
      <trkpt lat="46.25613" lon="6.83823">
        <ele>1253</ele>
        <time>2010-01-02T16:29:59Z</time>
      </trkpt>
      <trkpt lat="46.25632" lon="6.83869">
        <ele>1257</ele>
        <time>2010-01-02T16:30:13Z</time>
      </trkpt>
      <trkpt lat="46.25642" lon="6.83894">
        <ele>1256</ele>
        <time>2010-01-02T16:30:21Z</time>
      </trkpt>
      <trkpt lat="46.25656" lon="6.83926">
        <ele>1253</ele>
        <time>2010-01-02T16:30:32Z</time>
      </trkpt>
      <trkpt lat="46.25669" lon="6.8394">
        <ele>1245</ele>
        <time>2010-01-02T16:30:38Z</time>
      </trkpt>
      <trkpt lat="46.25684" lon="6.83953">
        <ele>1244</ele>
        <time>2010-01-02T16:30:45Z</time>
      </trkpt>
      <trkpt lat="46.25714" lon="6.83991">
        <ele>1244</ele>
        <time>2010-01-02T16:31:01Z</time>
      </trkpt>
      <trkpt lat="46.25732" lon="6.84017">
        <ele>1246</ele>
        <time>2010-01-02T16:31:12Z</time>
      </trkpt>
      <trkpt lat="46.25743" lon="6.8404">
        <ele>1246</ele>
        <time>2010-01-02T16:31:19Z</time>
      </trkpt>
      <trkpt lat="46.25752" lon="6.84044">
        <ele>1241</ele>
        <time>2010-01-02T16:31:23Z</time>
      </trkpt>
      <trkpt lat="46.25762" lon="6.84066">
        <ele>1242</ele>
        <time>2010-01-02T16:31:30Z</time>
      </trkpt>
      <trkpt lat="46.25771" lon="6.84043">
        <ele>1241</ele>
        <time>2010-01-02T16:31:38Z</time>
      </trkpt>
      <trkpt lat="46.25793" lon="6.84043">
        <ele>1240</ele>
        <time>2010-01-02T16:31:46Z</time>
      </trkpt>
      <trkpt lat="46.25823" lon="6.84054">
        <ele>1240</ele>
        <time>2010-01-02T16:31:59Z</time>
      </trkpt>
      <trkpt lat="46.25885" lon="6.84072">
        <ele>1237</ele>
        <time>2010-01-02T16:32:24Z</time>
      </trkpt>
      <trkpt lat="46.25932" lon="6.84082">
        <ele>1235</ele>
        <time>2010-01-02T16:32:43Z</time>
      </trkpt>
      <trkpt lat="46.25959" lon="6.84086">
        <ele>1240</ele>
        <time>2010-01-02T16:32:54Z</time>
      </trkpt>
      <trkpt lat="46.25995" lon="6.84088">
        <ele>1237</ele>
        <time>2010-01-02T16:33:09Z</time>
      </trkpt>
      <trkpt lat="46.26019" lon="6.84083">
        <ele>1230</ele>
        <time>2010-01-02T16:33:18Z</time>
      </trkpt>
      <trkpt lat="46.26055" lon="6.84077">
        <ele>1226</ele>
        <time>2010-01-02T16:33:33Z</time>
      </trkpt>
      <trkpt lat="46.26089" lon="6.84072">
        <ele>1224</ele>
        <time>2010-01-02T16:33:47Z</time>
      </trkpt>
      <trkpt lat="46.26116" lon="6.84071">
        <ele>1220</ele>
        <time>2010-01-02T16:33:57Z</time>
      </trkpt>
      <trkpt lat="46.26151" lon="6.84073">
        <ele>1219</ele>
        <time>2010-01-02T16:34:11Z</time>
      </trkpt>
      <trkpt lat="46.26181" lon="6.84081">
        <ele>1217</ele>
        <time>2010-01-02T16:34:23Z</time>
      </trkpt>
      <trkpt lat="46.26202" lon="6.84084">
        <ele>1223</ele>
        <time>2010-01-02T16:34:32Z</time>
      </trkpt>
      <trkpt lat="46.26222" lon="6.8409">
        <ele>1222</ele>
        <time>2010-01-02T16:34:40Z</time>
      </trkpt>
      <trkpt lat="46.26258" lon="6.84103">
        <ele>1215</ele>
        <time>2010-01-02T16:34:55Z</time>
      </trkpt>
      <trkpt lat="46.2629" lon="6.84115">
        <ele>1215</ele>
        <time>2010-01-02T16:35:08Z</time>
      </trkpt>
      <trkpt lat="46.26314" lon="6.84126">
        <ele>1215</ele>
        <time>2010-01-02T16:35:18Z</time>
      </trkpt>
      <trkpt lat="46.26334" lon="6.84131">
        <ele>1209</ele>
        <time>2010-01-02T16:35:26Z</time>
      </trkpt>
      <trkpt lat="46.26368" lon="6.84144">
        <ele>1208</ele>
        <time>2010-01-02T16:35:41Z</time>
      </trkpt>
      <trkpt lat="46.26404" lon="6.84152">
        <ele>1207</ele>
        <time>2010-01-02T16:35:55Z</time>
      </trkpt>
      <trkpt lat="46.26462" lon="6.84173">
        <ele>1212</ele>
        <time>2010-01-02T16:36:19Z</time>
      </trkpt>
      <trkpt lat="46.26493" lon="6.84178">
        <ele>1208</ele>
        <time>2010-01-02T16:36:31Z</time>
      </trkpt>
      <trkpt lat="46.26516" lon="6.84176">
        <ele>1207</ele>
        <time>2010-01-02T16:36:41Z</time>
      </trkpt>
      <trkpt lat="46.26552" lon="6.8417">
        <ele>1208</ele>
        <time>2010-01-02T16:36:55Z</time>
      </trkpt>
      <trkpt lat="46.26599" lon="6.84158">
        <ele>1198</ele>
        <time>2010-01-02T16:37:14Z</time>
      </trkpt>
      <trkpt lat="46.26638" lon="6.84142">
        <ele>1196</ele>
        <time>2010-01-02T16:37:31Z</time>
      </trkpt>
      <trkpt lat="46.2666" lon="6.84139">
        <ele>1196</ele>
        <time>2010-01-02T16:37:40Z</time>
      </trkpt>
      <trkpt lat="46.26678" lon="6.84143">
        <ele>1195</ele>
        <time>2010-01-02T16:37:47Z</time>
      </trkpt>
      <trkpt lat="46.26701" lon="6.84147">
        <ele>1194</ele>
        <time>2010-01-02T16:37:56Z</time>
      </trkpt>
      <trkpt lat="46.26726" lon="6.84168">
        <ele>1202</ele>
        <time>2010-01-02T16:38:08Z</time>
      </trkpt>
      <trkpt lat="46.26726" lon="6.84178">
        <ele>1203</ele>
        <time>2010-01-02T16:38:11Z</time>
      </trkpt>
      <trkpt lat="46.26712" lon="6.84187">
        <ele>1204</ele>
        <time>2010-01-02T16:38:16Z</time>
      </trkpt>
      <trkpt lat="46.26696" lon="6.84195">
        <ele>1205</ele>
        <time>2010-01-02T16:38:23Z</time>
      </trkpt>
      <trkpt lat="46.26681" lon="6.84202">
        <ele>1206</ele>
        <time>2010-01-02T16:38:30Z</time>
      </trkpt>
      <trkpt lat="46.26675" lon="6.84209">
        <ele>1207</ele>
        <time>2010-01-02T16:38:33Z</time>
      </trkpt>
      <trkpt lat="46.26661" lon="6.84216">
        <ele>1209</ele>
        <time>2010-01-02T16:38:39Z</time>
      </trkpt>
      <trkpt lat="46.26661" lon="6.84229">
        <ele>1211</ele>
        <time>2010-01-02T16:38:42Z</time>
      </trkpt>
      <trkpt lat="46.26659" lon="6.84237">
        <ele>1212</ele>
        <time>2010-01-02T16:38:45Z</time>
      </trkpt>
      <trkpt lat="46.26665" lon="6.84259">
        <ele>1220</ele>
        <time>2010-01-02T16:38:51Z</time>
      </trkpt>
      <trkpt lat="46.26669" lon="6.84265">
        <ele>1220</ele>
        <time>2010-01-02T16:38:53Z</time>
      </trkpt>
      <trkpt lat="46.26669" lon="6.84245">
        <ele>1214</ele>
        <time>2010-01-02T16:38:59Z</time>
      </trkpt>
      <trkpt lat="46.26676" lon="6.84242">
        <ele>1212</ele>
        <time>2010-01-02T16:39:02Z</time>
      </trkpt>
      <trkpt lat="46.26684" lon="6.84253">
        <ele>1219</ele>
        <time>2010-01-02T16:39:06Z</time>
      </trkpt>
      <trkpt lat="46.26683" lon="6.84269">
        <ele>1221</ele>
        <time>2010-01-02T16:39:11Z</time>
      </trkpt>
      <trkpt lat="46.2668" lon="6.84311">
        <ele>1227</ele>
        <time>2010-01-02T16:39:22Z</time>
      </trkpt>
      <trkpt lat="46.26679" lon="6.84343">
        <ele>1243</ele>
        <time>2010-01-02T16:39:31Z</time>
      </trkpt>
      <trkpt lat="46.26695" lon="6.84653">
        <ele>1395</ele>
        <time>2010-01-02T16:40:57Z</time>
      </trkpt>
      <trkpt lat="46.26702" lon="6.84793">
        <ele>1472</ele>
        <time>2010-01-02T16:41:36Z</time>
      </trkpt>
      <trkpt lat="46.26726" lon="6.84999">
        <ele>1505</ele>
        <time>2010-01-02T16:42:34Z</time>
      </trkpt>
      <trkpt lat="46.2674" lon="6.85268">
        <ele>1516</ele>
        <time>2010-01-02T16:43:49Z</time>
      </trkpt>
      <trkpt lat="46.26751" lon="6.85438">
        <ele>1556</ele>
        <time>2010-01-02T16:44:36Z</time>
      </trkpt>
      <trkpt lat="46.26753" lon="6.85531">
        <ele>1581</ele>
        <time>2010-01-02T16:45:02Z</time>
      </trkpt>
      <trkpt lat="46.26758" lon="6.8562">
        <ele>1602</ele>
        <time>2010-01-02T16:45:26Z</time>
      </trkpt>
      <trkpt lat="46.26767" lon="6.85687">
        <ele>1619</ele>
        <time>2010-01-02T16:45:45Z</time>
      </trkpt>
      <trkpt lat="46.26769" lon="6.8573">
        <ele>1625</ele>
        <time>2010-01-02T16:45:57Z</time>
      </trkpt>
      <trkpt lat="46.26769" lon="6.8574">
        <ele>1626</ele>
        <time>2010-01-02T16:46:00Z</time>
      </trkpt>
      <trkpt lat="46.26771" lon="6.85749">
        <ele>1627</ele>
        <time>2010-01-02T16:46:03Z</time>
      </trkpt>
      <trkpt lat="46.26773" lon="6.85756">
        <ele>1634</ele>
        <time>2010-01-02T16:46:05Z</time>
      </trkpt>
      <trkpt lat="46.26773" lon="6.8576">
        <ele>1635</ele>
        <time>2010-01-02T16:46:06Z</time>
      </trkpt>
      <trkpt lat="46.26772" lon="6.85764">
        <ele>1635</ele>
        <time>2010-01-02T16:46:07Z</time>
      </trkpt>
      <trkpt lat="46.26771" lon="6.8577">
        <ele>1635</ele>
        <time>2010-01-02T16:46:08Z</time>
      </trkpt>
      <trkpt lat="46.26771" lon="6.85773">
        <ele>1635</ele>
        <time>2010-01-02T16:46:09Z</time>
      </trkpt>
      <trkpt lat="46.26771" lon="6.85775">
        <ele>1636</ele>
        <time>2010-01-02T16:46:10Z</time>
      </trkpt>
      <trkpt lat="46.26772" lon="6.85782">
        <ele>1636</ele>
        <time>2010-01-02T16:46:12Z</time>
      </trkpt>
      <trkpt lat="46.26772" lon="6.85783">
        <ele>1636</ele>
        <time>2010-01-02T16:46:12Z</time>
      </trkpt>
      <trkpt lat="46.26773" lon="6.85782">
        <ele>1636</ele>
        <time>2010-01-02T16:46:12Z</time>
      </trkpt>
      <trkpt lat="46.26773" lon="6.85781">
        <ele>1636</ele>
        <time>2010-01-02T16:46:13Z</time>
      </trkpt>
      <trkpt lat="46.26775" lon="6.8578">
        <ele>1636</ele>
        <time>2010-01-02T16:46:14Z</time>
      </trkpt>
      <trkpt lat="46.26776" lon="6.85778">
        <ele>1636</ele>
        <time>2010-01-02T16:46:14Z</time>
      </trkpt>
      <trkpt lat="46.26777" lon="6.85777">
        <ele>1636</ele>
        <time>2010-01-02T16:46:15Z</time>
      </trkpt>
      <trkpt lat="46.26778" lon="6.85776">
        <ele>1636</ele>
        <time>2010-01-02T16:46:15Z</time>
      </trkpt>
      <trkpt lat="46.2678" lon="6.85776">
        <ele>1636</ele>
        <time>2010-01-02T16:46:16Z</time>
      </trkpt>
      <trkpt lat="46.2678" lon="6.85775">
        <ele>1636</ele>
        <time>2010-01-02T16:46:16Z</time>
      </trkpt>
      <trkpt lat="46.26781" lon="6.85775">
        <ele>1636</ele>
        <time>2010-01-02T16:46:16Z</time>
      </trkpt>
      <trkpt lat="46.26782" lon="6.85776">
        <ele>1636</ele>
        <time>2010-01-02T16:46:17Z</time>
      </trkpt>
      <trkpt lat="46.26782" lon="6.85776">
        <ele>1636</ele>
        <time>2010-01-02T16:46:17Z</time>
      </trkpt>
      <trkpt lat="46.26782" lon="6.85777">
        <ele>1636</ele>
        <time>2010-01-02T16:46:17Z</time>
      </trkpt>
      <trkpt lat="46.26782" lon="6.85779">
        <ele>1636</ele>
        <time>2010-01-02T16:46:18Z</time>
      </trkpt>
      <trkpt lat="46.26782" lon="6.85781">
        <ele>1636</ele>
        <time>2010-01-02T16:46:18Z</time>
      </trkpt>
      <trkpt lat="46.26782" lon="6.85782">
        <ele>1636</ele>
        <time>2010-01-02T16:46:19Z</time>
      </trkpt>
      <trkpt lat="46.26781" lon="6.85783">
        <ele>1636</ele>
        <time>2010-01-02T16:46:19Z</time>
      </trkpt>
      <trkpt lat="46.2678" lon="6.85784">
        <ele>1637</ele>
        <time>2010-01-02T16:46:19Z</time>
      </trkpt>
      <trkpt lat="46.2678" lon="6.85785">
        <ele>1637</ele>
        <time>2010-01-02T16:46:20Z</time>
      </trkpt>
      <trkpt lat="46.26779" lon="6.85786">
        <ele>1637</ele>
        <time>2010-01-02T16:46:20Z</time>
      </trkpt>
      <trkpt lat="46.26778" lon="6.85786">
        <ele>1637</ele>
        <time>2010-01-02T16:46:20Z</time>
      </trkpt>
      <trkpt lat="46.26777" lon="6.85786">
        <ele>1637</ele>
        <time>2010-01-02T16:46:21Z</time>
      </trkpt>
      <trkpt lat="46.26775" lon="6.85786">
        <ele>1637</ele>
        <time>2010-01-02T16:46:22Z</time>
      </trkpt>
      <trkpt lat="46.26774" lon="6.85787">
        <ele>1637</ele>
        <time>2010-01-02T16:46:22Z</time>
      </trkpt>
      <trkpt lat="46.26773" lon="6.85787">
        <ele>1637</ele>
        <time>2010-01-02T16:46:23Z</time>
      </trkpt>
      <trkpt lat="46.26772" lon="6.85788">
        <ele>1637</ele>
        <time>2010-01-02T16:46:23Z</time>
      </trkpt>
      <trkpt lat="46.2677" lon="6.8579">
        <ele>1637</ele>
        <time>2010-01-02T16:46:24Z</time>
      </trkpt>
      <trkpt lat="46.26769" lon="6.85791">
        <ele>1637</ele>
        <time>2010-01-02T16:46:25Z</time>
      </trkpt>
      <trkpt lat="46.26768" lon="6.85792">
        <ele>1637</ele>
        <time>2010-01-02T16:46:25Z</time>
      </trkpt>
      <trkpt lat="46.26766" lon="6.85793">
        <ele>1637</ele>
        <time>2010-01-02T16:46:26Z</time>
      </trkpt>
      <trkpt lat="46.26763" lon="6.85795">
        <ele>1637</ele>
        <time>2010-01-02T16:46:27Z</time>
      </trkpt>
      <trkpt lat="46.26761" lon="6.85797">
        <ele>1637</ele>
        <time>2010-01-02T16:46:28Z</time>
      </trkpt>
      <trkpt lat="46.2676" lon="6.85798">
        <ele>1637</ele>
        <time>2010-01-02T16:46:29Z</time>
      </trkpt>
      <trkpt lat="46.26759" lon="6.85799">
        <ele>1637</ele>
        <time>2010-01-02T16:46:29Z</time>
      </trkpt>
      <trkpt lat="46.26756" lon="6.858">
        <ele>1637</ele>
        <time>2010-01-02T16:46:30Z</time>
      </trkpt>
      <trkpt lat="46.26755" lon="6.858">
        <ele>1637</ele>
        <time>2010-01-02T16:46:30Z</time>
      </trkpt>
      <trkpt lat="46.26755" lon="6.85801">
        <ele>1637</ele>
        <time>2010-01-02T16:46:31Z</time>
      </trkpt>
      <trkpt lat="46.26754" lon="6.85801">
        <ele>1637</ele>
        <time>2010-01-02T16:46:31Z</time>
      </trkpt>
      <trkpt lat="46.26753" lon="6.85801">
        <ele>1637</ele>
        <time>2010-01-02T16:46:32Z</time>
      </trkpt>
      <trkpt lat="46.26752" lon="6.85802">
        <ele>1637</ele>
        <time>2010-01-02T16:46:32Z</time>
      </trkpt>
      <trkpt lat="46.26751" lon="6.85803">
        <ele>1637</ele>
        <time>2010-01-02T16:46:32Z</time>
      </trkpt>
      <trkpt lat="46.2675" lon="6.85804">
        <ele>1633</ele>
        <time>2010-01-02T16:46:33Z</time>
      </trkpt>
      <trkpt lat="46.26748" lon="6.85806">
        <ele>1634</ele>
        <time>2010-01-02T16:46:34Z</time>
      </trkpt>
      <trkpt lat="46.26745" lon="6.85809">
        <ele>1634</ele>
        <time>2010-01-02T16:46:36Z</time>
      </trkpt>
      <trkpt lat="46.26742" lon="6.85812">
        <ele>1634</ele>
        <time>2010-01-02T16:46:37Z</time>
      </trkpt>
      <trkpt lat="46.26739" lon="6.85815">
        <ele>1634</ele>
        <time>2010-01-02T16:46:38Z</time>
      </trkpt>
      <trkpt lat="46.26736" lon="6.85818">
        <ele>1634</ele>
        <time>2010-01-02T16:46:40Z</time>
      </trkpt>
      <trkpt lat="46.26734" lon="6.8582">
        <ele>1634</ele>
        <time>2010-01-02T16:46:41Z</time>
      </trkpt>
      <trkpt lat="46.26732" lon="6.8582">
        <ele>1634</ele>
        <time>2010-01-02T16:46:41Z</time>
      </trkpt>
      <trkpt lat="46.26732" lon="6.85821">
        <ele>1634</ele>
        <time>2010-01-02T16:46:42Z</time>
      </trkpt>
      <trkpt lat="46.2673" lon="6.85822">
        <ele>1634</ele>
        <time>2010-01-02T16:46:42Z</time>
      </trkpt>
      <trkpt lat="46.26729" lon="6.85823">
        <ele>1634</ele>
        <time>2010-01-02T16:46:43Z</time>
      </trkpt>
      <trkpt lat="46.26728" lon="6.85824">
        <ele>1634</ele>
        <time>2010-01-02T16:46:43Z</time>
      </trkpt>
      <trkpt lat="46.26727" lon="6.85825">
        <ele>1634</ele>
        <time>2010-01-02T16:46:44Z</time>
      </trkpt>
      <trkpt lat="46.26726" lon="6.85825">
        <ele>1634</ele>
        <time>2010-01-02T16:46:44Z</time>
      </trkpt>
      <trkpt lat="46.26726" lon="6.85826">
        <ele>1634</ele>
        <time>2010-01-02T16:46:45Z</time>
      </trkpt>
      <trkpt lat="46.26725" lon="6.85828">
        <ele>1634</ele>
        <time>2010-01-02T16:46:45Z</time>
      </trkpt>
      <trkpt lat="46.26724" lon="6.85829">
        <ele>1634</ele>
        <time>2010-01-02T16:46:46Z</time>
      </trkpt>
      <trkpt lat="46.26723" lon="6.85831">
        <ele>1634</ele>
        <time>2010-01-02T16:46:46Z</time>
      </trkpt>
      <trkpt lat="46.26722" lon="6.85833">
        <ele>1634</ele>
        <time>2010-01-02T16:46:47Z</time>
      </trkpt>
      <trkpt lat="46.26721" lon="6.85835">
        <ele>1640</ele>
        <time>2010-01-02T16:46:48Z</time>
      </trkpt>
      <trkpt lat="46.26718" lon="6.85838">
        <ele>1640</ele>
        <time>2010-01-02T16:46:49Z</time>
      </trkpt>
      <trkpt lat="46.26715" lon="6.85842">
        <ele>1639</ele>
        <time>2010-01-02T16:46:51Z</time>
      </trkpt>
      <trkpt lat="46.26713" lon="6.85844">
        <ele>1639</ele>
        <time>2010-01-02T16:46:52Z</time>
      </trkpt>
      <trkpt lat="46.26712" lon="6.85846">
        <ele>1639</ele>
        <time>2010-01-02T16:46:52Z</time>
      </trkpt>
      <trkpt lat="46.26711" lon="6.85847">
        <ele>1639</ele>
        <time>2010-01-02T16:46:53Z</time>
      </trkpt>
      <trkpt lat="46.2671" lon="6.85849">
        <ele>1639</ele>
        <time>2010-01-02T16:46:53Z</time>
      </trkpt>
      <trkpt lat="46.26709" lon="6.85851">
        <ele>1639</ele>
        <time>2010-01-02T16:46:54Z</time>
      </trkpt>
      <trkpt lat="46.26709" lon="6.85852">
        <ele>1639</ele>
        <time>2010-01-02T16:46:54Z</time>
      </trkpt>
      <trkpt lat="46.26707" lon="6.85854">
        <ele>1639</ele>
        <time>2010-01-02T16:46:55Z</time>
      </trkpt>
      <trkpt lat="46.26706" lon="6.85855">
        <ele>1639</ele>
        <time>2010-01-02T16:46:56Z</time>
      </trkpt>
      <trkpt lat="46.26705" lon="6.85856">
        <ele>1639</ele>
        <time>2010-01-02T16:46:56Z</time>
      </trkpt>
      <trkpt lat="46.26705" lon="6.85857">
        <ele>1639</ele>
        <time>2010-01-02T16:46:56Z</time>
      </trkpt>
      <trkpt lat="46.26702" lon="6.85863">
        <ele>1640</ele>
        <time>2010-01-02T16:46:58Z</time>
      </trkpt>
      <trkpt lat="46.26698" lon="6.85869">
        <ele>1640</ele>
        <time>2010-01-02T16:47:01Z</time>
      </trkpt>
      <trkpt lat="46.26696" lon="6.85871">
        <ele>1640</ele>
        <time>2010-01-02T16:47:02Z</time>
      </trkpt>
      <trkpt lat="46.26692" lon="6.85877">
        <ele>1640</ele>
        <time>2010-01-02T16:47:04Z</time>
      </trkpt>
      <trkpt lat="46.26689" lon="6.85882">
        <ele>1640</ele>
        <time>2010-01-02T16:47:06Z</time>
      </trkpt>
      <trkpt lat="46.26687" lon="6.85884">
        <ele>1640</ele>
        <time>2010-01-02T16:47:07Z</time>
      </trkpt>
      <trkpt lat="46.26685" lon="6.85887">
        <ele>1641</ele>
        <time>2010-01-02T16:47:08Z</time>
      </trkpt>
      <trkpt lat="46.26685" lon="6.85887">
        <ele>1641</ele>
        <time>2010-01-02T16:47:08Z</time>
      </trkpt>
      <trkpt lat="46.26684" lon="6.85889">
        <ele>1641</ele>
        <time>2010-01-02T16:47:09Z</time>
      </trkpt>
      <trkpt lat="46.26684" lon="6.85889">
        <ele>1641</ele>
        <time>2010-01-02T16:47:09Z</time>
      </trkpt>
      <trkpt lat="46.26683" lon="6.8589">
        <ele>1641</ele>
        <time>2010-01-02T16:47:09Z</time>
      </trkpt>
      <trkpt lat="46.26683" lon="6.8589">
        <ele>1641</ele>
        <time>2010-01-02T16:47:09Z</time>
      </trkpt>
      <trkpt lat="46.26679" lon="6.85895">
        <ele>1641</ele>
        <time>2010-01-02T16:47:12Z</time>
      </trkpt>
      <trkpt lat="46.26673" lon="6.85905">
        <ele>1641</ele>
        <time>2010-01-02T16:47:15Z</time>
      </trkpt>
      <trkpt lat="46.2667" lon="6.85908">
        <ele>1642</ele>
        <time>2010-01-02T16:47:17Z</time>
      </trkpt>
      <trkpt lat="46.26667" lon="6.8591">
        <ele>1642</ele>
        <time>2010-01-02T16:47:18Z</time>
      </trkpt>
      <trkpt lat="46.26661" lon="6.85919">
        <ele>1643</ele>
        <time>2010-01-02T16:47:21Z</time>
      </trkpt>
      <trkpt lat="46.26652" lon="6.85928">
        <ele>1644</ele>
        <time>2010-01-02T16:47:26Z</time>
      </trkpt>
      <trkpt lat="46.26645" lon="6.85932">
        <ele>1645</ele>
        <time>2010-01-02T16:47:29Z</time>
      </trkpt>
      <trkpt lat="46.26637" lon="6.85938">
        <ele>1646</ele>
        <time>2010-01-02T16:47:32Z</time>
      </trkpt>
      <trkpt lat="46.26632" lon="6.85941">
        <ele>1646</ele>
        <time>2010-01-02T16:47:34Z</time>
      </trkpt>
      <trkpt lat="46.26628" lon="6.85945">
        <ele>1646</ele>
        <time>2010-01-02T16:47:37Z</time>
      </trkpt>
      <trkpt lat="46.26623" lon="6.85948">
        <ele>1646</ele>
        <time>2010-01-02T16:47:39Z</time>
      </trkpt>
      <trkpt lat="46.26617" lon="6.85953">
        <ele>1646</ele>
        <time>2010-01-02T16:47:42Z</time>
      </trkpt>
      <trkpt lat="46.26595" lon="6.85974">
        <ele>1648</ele>
        <time>2010-01-02T16:47:52Z</time>
      </trkpt>
      <trkpt lat="46.26584" lon="6.85987">
        <ele>1649</ele>
        <time>2010-01-02T16:47:58Z</time>
      </trkpt>
      <trkpt lat="46.26555" lon="6.86023">
        <ele>1657</ele>
        <time>2010-01-02T16:48:13Z</time>
      </trkpt>
      <trkpt lat="46.26528" lon="6.86048">
        <ele>1659</ele>
        <time>2010-01-02T16:48:26Z</time>
      </trkpt>
      <trkpt lat="46.26496" lon="6.86072">
        <ele>1665</ele>
        <time>2010-01-02T16:48:40Z</time>
      </trkpt>
      <trkpt lat="46.26488" lon="6.86081">
        <ele>1665</ele>
        <time>2010-01-02T16:48:44Z</time>
      </trkpt>
      <trkpt lat="46.26479" lon="6.86091">
        <ele>1671</ele>
        <time>2010-01-02T16:48:49Z</time>
      </trkpt>
      <trkpt lat="46.26479" lon="6.86092">
        <ele>1671</ele>
        <time>2010-01-02T16:48:49Z</time>
      </trkpt>
      <trkpt lat="46.26473" lon="6.86111">
        <ele>1673</ele>
        <time>2010-01-02T16:48:55Z</time>
      </trkpt>
      <trkpt lat="46.26464" lon="6.86138">
        <ele>1675</ele>
        <time>2010-01-02T16:49:03Z</time>
      </trkpt>
      <trkpt lat="46.26464" lon="6.86149">
        <ele>1676</ele>
        <time>2010-01-02T16:49:06Z</time>
      </trkpt>
      <trkpt lat="46.26466" lon="6.86158">
        <ele>1676</ele>
        <time>2010-01-02T16:49:09Z</time>
      </trkpt>
      <trkpt lat="46.26472" lon="6.86171">
        <ele>1679</ele>
        <time>2010-01-02T16:49:13Z</time>
      </trkpt>
      <trkpt lat="46.26476" lon="6.86177">
        <ele>1679</ele>
        <time>2010-01-02T16:49:15Z</time>
      </trkpt>
      <trkpt lat="46.26483" lon="6.86178">
        <ele>1678</ele>
        <time>2010-01-02T16:49:18Z</time>
      </trkpt>
      <trkpt lat="46.26496" lon="6.86183">
        <ele>1678</ele>
        <time>2010-01-02T16:49:24Z</time>
      </trkpt>
      <trkpt lat="46.26504" lon="6.86182">
        <ele>1677</ele>
        <time>2010-01-02T16:49:27Z</time>
      </trkpt>
      <trkpt lat="46.26515" lon="6.86183">
        <ele>1678</ele>
        <time>2010-01-02T16:49:31Z</time>
      </trkpt>
      <trkpt lat="46.26523" lon="6.86185">
        <ele>1679</ele>
        <time>2010-01-02T16:49:34Z</time>
      </trkpt>
      <trkpt lat="46.26537" lon="6.86186">
        <ele>1680</ele>
        <time>2010-01-02T16:49:40Z</time>
      </trkpt>
      <trkpt lat="46.26545" lon="6.86186">
        <ele>1680</ele>
        <time>2010-01-02T16:49:43Z</time>
      </trkpt>
      <trkpt lat="46.26554" lon="6.86186">
        <ele>1680</ele>
        <time>2010-01-02T16:49:47Z</time>
      </trkpt>
      <trkpt lat="46.26566" lon="6.8619">
        <ele>1681</ele>
        <time>2010-01-02T16:49:52Z</time>
      </trkpt>
      <trkpt lat="46.26574" lon="6.86193">
        <ele>1681</ele>
        <time>2010-01-02T16:49:55Z</time>
      </trkpt>
      <trkpt lat="46.26595" lon="6.86217">
        <ele>1685</ele>
        <time>2010-01-02T16:50:06Z</time>
      </trkpt>
      <trkpt lat="46.26603" lon="6.8623">
        <ele>1686</ele>
        <time>2010-01-02T16:50:11Z</time>
      </trkpt>
      <trkpt lat="46.26603" lon="6.86246">
        <ele>1686</ele>
        <time>2010-01-02T16:50:15Z</time>
      </trkpt>
      <trkpt lat="46.26598" lon="6.86263">
        <ele>1690</ele>
        <time>2010-01-02T16:50:20Z</time>
      </trkpt>
      <trkpt lat="46.26588" lon="6.86288">
        <ele>1692</ele>
        <time>2010-01-02T16:50:28Z</time>
      </trkpt>
      <trkpt lat="46.26582" lon="6.86298">
        <ele>1687</ele>
        <time>2010-01-02T16:50:31Z</time>
      </trkpt>
      <trkpt lat="46.26582" lon="6.86298">
        <ele>1687</ele>
        <time>2010-01-02T16:50:32Z</time>
      </trkpt>
      <trkpt lat="46.26567" lon="6.86322">
        <ele>1688</ele>
        <time>2010-01-02T16:50:40Z</time>
      </trkpt>
      <trkpt lat="46.26562" lon="6.86331">
        <ele>1688</ele>
        <time>2010-01-02T16:50:44Z</time>
      </trkpt>
      <trkpt lat="46.26559" lon="6.86337">
        <ele>1690</ele>
        <time>2010-01-02T16:50:46Z</time>
      </trkpt>
      <trkpt lat="46.26555" lon="6.86343">
        <ele>1689</ele>
        <time>2010-01-02T16:50:48Z</time>
      </trkpt>
      <trkpt lat="46.26555" lon="6.86344">
        <ele>1689</ele>
        <time>2010-01-02T16:50:48Z</time>
      </trkpt>
      <trkpt lat="46.26555" lon="6.86346">
        <ele>1689</ele>
        <time>2010-01-02T16:50:49Z</time>
      </trkpt>
      <trkpt lat="46.26555" lon="6.86346">
        <ele>1689</ele>
        <time>2010-01-02T16:50:49Z</time>
      </trkpt>
      <trkpt lat="46.26555" lon="6.86347">
        <ele>1689</ele>
        <time>2010-01-02T16:50:49Z</time>
      </trkpt>
      <trkpt lat="46.26553" lon="6.86358">
        <ele>1689</ele>
        <time>2010-01-02T16:50:52Z</time>
      </trkpt>
      <trkpt lat="46.26553" lon="6.86358">
        <ele>1689</ele>
        <time>2010-01-02T16:50:52Z</time>
      </trkpt>
      <trkpt lat="46.2655" lon="6.86374">
        <ele>1689</ele>
        <time>2010-01-02T16:50:57Z</time>
      </trkpt>
      <trkpt lat="46.26542" lon="6.86423">
        <ele>1691</ele>
        <time>2010-01-02T16:51:11Z</time>
      </trkpt>
      <trkpt lat="46.26542" lon="6.86444">
        <ele>1691</ele>
        <time>2010-01-02T16:51:17Z</time>
      </trkpt>
      <trkpt lat="46.26544" lon="6.8646">
        <ele>1691</ele>
        <time>2010-01-02T16:51:21Z</time>
      </trkpt>
      <trkpt lat="46.26543" lon="6.86496">
        <ele>1691</ele>
        <time>2010-01-02T16:51:31Z</time>
      </trkpt>
      <trkpt lat="46.26541" lon="6.86517">
        <ele>1693</ele>
        <time>2010-01-02T16:51:37Z</time>
      </trkpt>
      <trkpt lat="46.26536" lon="6.86535">
        <ele>1693</ele>
        <time>2010-01-02T16:51:42Z</time>
      </trkpt>
      <trkpt lat="46.26539" lon="6.86548">
        <ele>1693</ele>
        <time>2010-01-02T16:51:46Z</time>
      </trkpt>
      <trkpt lat="46.26539" lon="6.86549">
        <ele>1693</ele>
        <time>2010-01-02T16:51:46Z</time>
      </trkpt>
      <trkpt lat="46.26545" lon="6.86562">
        <ele>1693</ele>
        <time>2010-01-02T16:51:51Z</time>
      </trkpt>
      <trkpt lat="46.26552" lon="6.86573">
        <ele>1692</ele>
        <time>2010-01-02T16:51:55Z</time>
      </trkpt>
      <trkpt lat="46.26553" lon="6.86576">
        <ele>1692</ele>
        <time>2010-01-02T16:51:56Z</time>
      </trkpt>
      <trkpt lat="46.26559" lon="6.86615">
        <ele>1692</ele>
        <time>2010-01-02T16:52:07Z</time>
      </trkpt>
      <trkpt lat="46.26559" lon="6.86632">
        <ele>1692</ele>
        <time>2010-01-02T16:52:12Z</time>
      </trkpt>
      <trkpt lat="46.26558" lon="6.86648">
        <ele>1691</ele>
        <time>2010-01-02T16:52:16Z</time>
      </trkpt>
      <trkpt lat="46.26553" lon="6.86663">
        <ele>1691</ele>
        <time>2010-01-02T16:52:21Z</time>
      </trkpt>
      <trkpt lat="46.26545" lon="6.86684">
        <ele>1690</ele>
        <time>2010-01-02T16:52:27Z</time>
      </trkpt>
      <trkpt lat="46.26534" lon="6.8671">
        <ele>1690</ele>
        <time>2010-01-02T16:52:36Z</time>
      </trkpt>
      <trkpt lat="46.26525" lon="6.86736">
        <ele>1690</ele>
        <time>2010-01-02T16:52:44Z</time>
      </trkpt>
      <trkpt lat="46.26522" lon="6.86751">
        <ele>1683</ele>
        <time>2010-01-02T16:52:48Z</time>
      </trkpt>
      <trkpt lat="46.26521" lon="6.86763">
        <ele>1681</ele>
        <time>2010-01-02T16:52:51Z</time>
      </trkpt>
      <trkpt lat="46.26518" lon="6.86765">
        <ele>1682</ele>
        <time>2010-01-02T16:52:53Z</time>
      </trkpt>
      <trkpt lat="46.26514" lon="6.86774">
        <ele>1681</ele>
        <time>2010-01-02T16:52:56Z</time>
      </trkpt>
      <trkpt lat="46.26514" lon="6.86775">
        <ele>1680</ele>
        <time>2010-01-02T16:52:56Z</time>
      </trkpt>
      <trkpt lat="46.26506" lon="6.8678">
        <ele>1680</ele>
        <time>2010-01-02T16:52:59Z</time>
      </trkpt>
      <trkpt lat="46.26493" lon="6.86789">
        <ele>1690</ele>
        <time>2010-01-02T16:53:05Z</time>
      </trkpt>
      <trkpt lat="46.26475" lon="6.86803">
        <ele>1689</ele>
        <time>2010-01-02T16:53:13Z</time>
      </trkpt>
      <trkpt lat="46.26471" lon="6.86805">
        <ele>1689</ele>
        <time>2010-01-02T16:53:15Z</time>
      </trkpt>
      <trkpt lat="46.26463" lon="6.8681">
        <ele>1690</ele>
        <time>2010-01-02T16:53:18Z</time>
      </trkpt>
      <trkpt lat="46.26458" lon="6.86815">
        <ele>1690</ele>
        <time>2010-01-02T16:53:21Z</time>
      </trkpt>
      <trkpt lat="46.26448" lon="6.86825">
        <ele>1690</ele>
        <time>2010-01-02T16:53:25Z</time>
      </trkpt>
      <trkpt lat="46.26444" lon="6.86827">
        <ele>1690</ele>
        <time>2010-01-02T16:53:27Z</time>
      </trkpt>
      <trkpt lat="46.26437" lon="6.86832">
        <ele>1691</ele>
        <time>2010-01-02T16:53:30Z</time>
      </trkpt>
      <trkpt lat="46.26429" lon="6.86838">
        <ele>1682</ele>
        <time>2010-01-02T16:53:34Z</time>
      </trkpt>
      <trkpt lat="46.26413" lon="6.8685">
        <ele>1687</ele>
        <time>2010-01-02T16:53:41Z</time>
      </trkpt>
      <trkpt lat="46.264" lon="6.86859">
        <ele>1686</ele>
        <time>2010-01-02T16:53:47Z</time>
      </trkpt>
      <trkpt lat="46.26386" lon="6.86866">
        <ele>1685</ele>
        <time>2010-01-02T16:53:53Z</time>
      </trkpt>
      <trkpt lat="46.26372" lon="6.86878">
        <ele>1685</ele>
        <time>2010-01-02T16:54:00Z</time>
      </trkpt>
      <trkpt lat="46.26361" lon="6.86887">
        <ele>1685</ele>
        <time>2010-01-02T16:54:04Z</time>
      </trkpt>
      <trkpt lat="46.26343" lon="6.86896">
        <ele>1684</ele>
        <time>2010-01-02T16:54:12Z</time>
      </trkpt>
      <trkpt lat="46.26324" lon="6.86903">
        <ele>1690</ele>
        <time>2010-01-02T16:54:20Z</time>
      </trkpt>
      <trkpt lat="46.26318" lon="6.86906">
        <ele>1690</ele>
        <time>2010-01-02T16:54:23Z</time>
      </trkpt>
      <trkpt lat="46.26305" lon="6.86912">
        <ele>1693</ele>
        <time>2010-01-02T16:54:28Z</time>
      </trkpt>
      <trkpt lat="46.26301" lon="6.86917">
        <ele>1693</ele>
        <time>2010-01-02T16:54:30Z</time>
      </trkpt>
      <trkpt lat="46.26291" lon="6.86928">
        <ele>1689</ele>
        <time>2010-01-02T16:54:35Z</time>
      </trkpt>
      <trkpt lat="46.26283" lon="6.86937">
        <ele>1690</ele>
        <time>2010-01-02T16:54:39Z</time>
      </trkpt>
      <trkpt lat="46.26276" lon="6.86943">
        <ele>1690</ele>
        <time>2010-01-02T16:54:42Z</time>
      </trkpt>
      <trkpt lat="46.2627" lon="6.86951">
        <ele>1690</ele>
        <time>2010-01-02T16:54:46Z</time>
      </trkpt>
      <trkpt lat="46.2626" lon="6.8698">
        <ele>1690</ele>
        <time>2010-01-02T16:54:54Z</time>
      </trkpt>
      <trkpt lat="46.26254" lon="6.87014">
        <ele>1691</ele>
        <time>2010-01-02T16:55:04Z</time>
      </trkpt>
      <trkpt lat="46.2625" lon="6.87043">
        <ele>1691</ele>
        <time>2010-01-02T16:55:12Z</time>
      </trkpt>
      <trkpt lat="46.26246" lon="6.8707">
        <ele>1701</ele>
        <time>2010-01-02T16:55:20Z</time>
      </trkpt>
      <trkpt lat="46.26245" lon="6.87084">
        <ele>1699</ele>
        <time>2010-01-02T16:55:24Z</time>
      </trkpt>
      <trkpt lat="46.26247" lon="6.871">
        <ele>1701</ele>
        <time>2010-01-02T16:55:28Z</time>
      </trkpt>
      <trkpt lat="46.26247" lon="6.8711">
        <ele>1703</ele>
        <time>2010-01-02T16:55:31Z</time>
      </trkpt>
      <trkpt lat="46.26244" lon="6.87114">
        <ele>1703</ele>
        <time>2010-01-02T16:55:33Z</time>
      </trkpt>
      <trkpt lat="46.26237" lon="6.87113">
        <ele>1704</ele>
        <time>2010-01-02T16:55:36Z</time>
      </trkpt>
      <trkpt lat="46.26221" lon="6.87098">
        <ele>1705</ele>
        <time>2010-01-02T16:55:43Z</time>
      </trkpt>
      <trkpt lat="46.26206" lon="6.87084">
        <ele>1707</ele>
        <time>2010-01-02T16:55:50Z</time>
      </trkpt>
      <trkpt lat="46.26197" lon="6.8707">
        <ele>1708</ele>
        <time>2010-01-02T16:55:56Z</time>
      </trkpt>
      <trkpt lat="46.26194" lon="6.87058">
        <ele>1708</ele>
        <time>2010-01-02T16:55:59Z</time>
      </trkpt>
      <trkpt lat="46.26193" lon="6.87041">
        <ele>1708</ele>
        <time>2010-01-02T16:56:04Z</time>
      </trkpt>
      <trkpt lat="46.26196" lon="6.87027">
        <ele>1708</ele>
        <time>2010-01-02T16:56:08Z</time>
      </trkpt>
      <trkpt lat="46.26198" lon="6.87005">
        <ele>1709</ele>
        <time>2010-01-02T16:56:14Z</time>
      </trkpt>
      <trkpt lat="46.26196" lon="6.86987">
        <ele>1711</ele>
        <time>2010-01-02T16:56:19Z</time>
      </trkpt>
      <trkpt lat="46.26196" lon="6.86979">
        <ele>1711</ele>
        <time>2010-01-02T16:56:21Z</time>
      </trkpt>
      <trkpt lat="46.26196" lon="6.86971">
        <ele>1711</ele>
        <time>2010-01-02T16:56:24Z</time>
      </trkpt>
      <trkpt lat="46.26195" lon="6.86956">
        <ele>1712</ele>
        <time>2010-01-02T16:56:28Z</time>
      </trkpt>
      <trkpt lat="46.26194" lon="6.86947">
        <ele>1712</ele>
        <time>2010-01-02T16:56:30Z</time>
      </trkpt>
      <trkpt lat="46.26191" lon="6.8693">
        <ele>1715</ele>
        <time>2010-01-02T16:56:35Z</time>
      </trkpt>
      <trkpt lat="46.26189" lon="6.86915">
        <ele>1720</ele>
        <time>2010-01-02T16:56:39Z</time>
      </trkpt>
      <trkpt lat="46.26188" lon="6.869">
        <ele>1720</ele>
        <time>2010-01-02T16:56:44Z</time>
      </trkpt>
      <trkpt lat="46.26187" lon="6.86891">
        <ele>1720</ele>
        <time>2010-01-02T16:56:46Z</time>
      </trkpt>
      <trkpt lat="46.26186" lon="6.86877">
        <ele>1720</ele>
        <time>2010-01-02T16:56:50Z</time>
      </trkpt>
      <trkpt lat="46.26185" lon="6.86871">
        <ele>1721</ele>
        <time>2010-01-02T16:56:52Z</time>
      </trkpt>
      <trkpt lat="46.26183" lon="6.86864">
        <ele>1721</ele>
        <time>2010-01-02T16:56:54Z</time>
      </trkpt>
      <trkpt lat="46.26183" lon="6.86861">
        <ele>1722</ele>
        <time>2010-01-02T16:56:55Z</time>
      </trkpt>
      <trkpt lat="46.2618" lon="6.86844">
        <ele>1725</ele>
        <time>2010-01-02T16:56:59Z</time>
      </trkpt>
      <trkpt lat="46.2618" lon="6.86832">
        <ele>1730</ele>
        <time>2010-01-02T16:57:03Z</time>
      </trkpt>
      <trkpt lat="46.26183" lon="6.86817">
        <ele>1729</ele>
        <time>2010-01-02T16:57:07Z</time>
      </trkpt>
      <trkpt lat="46.26187" lon="6.86809">
        <ele>1729</ele>
        <time>2010-01-02T16:57:10Z</time>
      </trkpt>
      <trkpt lat="46.26195" lon="6.86802">
        <ele>1729</ele>
        <time>2010-01-02T16:57:13Z</time>
      </trkpt>
      <trkpt lat="46.26196" lon="6.86799">
        <ele>1729</ele>
        <time>2010-01-02T16:57:14Z</time>
      </trkpt>
      <trkpt lat="46.26197" lon="6.86795">
        <ele>1729</ele>
        <time>2010-01-02T16:57:15Z</time>
      </trkpt>
      <trkpt lat="46.26197" lon="6.86792">
        <ele>1729</ele>
        <time>2010-01-02T16:57:16Z</time>
      </trkpt>
      <trkpt lat="46.26195" lon="6.86788">
        <ele>1730</ele>
        <time>2010-01-02T16:57:18Z</time>
      </trkpt>
      <trkpt lat="46.26192" lon="6.86787">
        <ele>1730</ele>
        <time>2010-01-02T16:57:19Z</time>
      </trkpt>
      <trkpt lat="46.26184" lon="6.86791">
        <ele>1730</ele>
        <time>2010-01-02T16:57:23Z</time>
      </trkpt>
      <trkpt lat="46.26176" lon="6.86796">
        <ele>1730</ele>
        <time>2010-01-02T16:57:26Z</time>
      </trkpt>
      <trkpt lat="46.26176" lon="6.86797">
        <ele>1730</ele>
        <time>2010-01-02T16:57:26Z</time>
      </trkpt>
      <trkpt lat="46.26167" lon="6.86813">
        <ele>1730</ele>
        <time>2010-01-02T16:57:32Z</time>
      </trkpt>
      <trkpt lat="46.26161" lon="6.86838">
        <ele>1737</ele>
        <time>2010-01-02T16:57:39Z</time>
      </trkpt>
      <trkpt lat="46.26155" lon="6.86863">
        <ele>1744</ele>
        <time>2010-01-02T16:57:47Z</time>
      </trkpt>
      <trkpt lat="46.26151" lon="6.86883">
        <ele>1744</ele>
        <time>2010-01-02T16:57:52Z</time>
      </trkpt>
      <trkpt lat="46.26146" lon="6.86914">
        <ele>1741</ele>
        <time>2010-01-02T16:58:01Z</time>
      </trkpt>
      <trkpt lat="46.26143" lon="6.86926">
        <ele>1738</ele>
        <time>2010-01-02T16:58:05Z</time>
      </trkpt>
      <trkpt lat="46.26141" lon="6.86931">
        <ele>1738</ele>
        <time>2010-01-02T16:58:06Z</time>
      </trkpt>
      <trkpt lat="46.26137" lon="6.86941">
        <ele>1740</ele>
        <time>2010-01-02T16:58:10Z</time>
      </trkpt>
      <trkpt lat="46.26132" lon="6.86948">
        <ele>1740</ele>
        <time>2010-01-02T16:58:12Z</time>
      </trkpt>
      <trkpt lat="46.26122" lon="6.86963">
        <ele>1741</ele>
        <time>2010-01-02T16:58:18Z</time>
      </trkpt>
      <trkpt lat="46.26109" lon="6.86982">
        <ele>1743</ele>
        <time>2010-01-02T16:58:25Z</time>
      </trkpt>
      <trkpt lat="46.26104" lon="6.8699">
        <ele>1744</ele>
        <time>2010-01-02T16:58:28Z</time>
      </trkpt>
      <trkpt lat="46.26096" lon="6.87001">
        <ele>1742</ele>
        <time>2010-01-02T16:58:33Z</time>
      </trkpt>
      <trkpt lat="46.26088" lon="6.87012">
        <ele>1742</ele>
        <time>2010-01-02T16:58:37Z</time>
      </trkpt>
      <trkpt lat="46.2608" lon="6.87025">
        <ele>1752</ele>
        <time>2010-01-02T16:58:42Z</time>
      </trkpt>
      <trkpt lat="46.26075" lon="6.87031">
        <ele>1752</ele>
        <time>2010-01-02T16:58:45Z</time>
      </trkpt>
      <trkpt lat="46.26072" lon="6.87036">
        <ele>1752</ele>
        <time>2010-01-02T16:58:46Z</time>
      </trkpt>
      <trkpt lat="46.26068" lon="6.87042">
        <ele>1752</ele>
        <time>2010-01-02T16:58:49Z</time>
      </trkpt>
      <trkpt lat="46.26064" lon="6.87047">
        <ele>1752</ele>
        <time>2010-01-02T16:58:51Z</time>
      </trkpt>
      <trkpt lat="46.2606" lon="6.87051">
        <ele>1752</ele>
        <time>2010-01-02T16:58:53Z</time>
      </trkpt>
      <trkpt lat="46.26052" lon="6.87059">
        <ele>1752</ele>
        <time>2010-01-02T16:58:57Z</time>
      </trkpt>
      <trkpt lat="46.26045" lon="6.87066">
        <ele>1753</ele>
        <time>2010-01-02T16:59:00Z</time>
      </trkpt>
      <trkpt lat="46.26036" lon="6.87073">
        <ele>1754</ele>
        <time>2010-01-02T16:59:04Z</time>
      </trkpt>
      <trkpt lat="46.26028" lon="6.87078">
        <ele>1756</ele>
        <time>2010-01-02T16:59:08Z</time>
      </trkpt>
      <trkpt lat="46.26019" lon="6.87081">
        <ele>1757</ele>
        <time>2010-01-02T16:59:11Z</time>
      </trkpt>
      <trkpt lat="46.26008" lon="6.87083">
        <ele>1759</ele>
        <time>2010-01-02T16:59:16Z</time>
      </trkpt>
      <trkpt lat="46.25998" lon="6.87082">
        <ele>1761</ele>
        <time>2010-01-02T16:59:20Z</time>
      </trkpt>
      <trkpt lat="46.25991" lon="6.87078">
        <ele>1765</ele>
        <time>2010-01-02T16:59:23Z</time>
      </trkpt>
      <trkpt lat="46.25982" lon="6.8707">
        <ele>1768</ele>
        <time>2010-01-02T16:59:27Z</time>
      </trkpt>
      <trkpt lat="46.25971" lon="6.87064">
        <ele>1770</ele>
        <time>2010-01-02T16:59:32Z</time>
      </trkpt>
      <trkpt lat="46.25961" lon="6.87065">
        <ele>1771</ele>
        <time>2010-01-02T16:59:36Z</time>
      </trkpt>
      <trkpt lat="46.25956" lon="6.87067">
        <ele>1771</ele>
        <time>2010-01-02T16:59:38Z</time>
      </trkpt>
      <trkpt lat="46.25949" lon="6.87072">
        <ele>1772</ele>
        <time>2010-01-02T16:59:41Z</time>
      </trkpt>
      <trkpt lat="46.25945" lon="6.87078">
        <ele>1772</ele>
        <time>2010-01-02T16:59:43Z</time>
      </trkpt>
      <trkpt lat="46.25943" lon="6.87084">
        <ele>1767</ele>
        <time>2010-01-02T16:59:45Z</time>
      </trkpt>
      <trkpt lat="46.25943" lon="6.8709">
        <ele>1767</ele>
        <time>2010-01-02T16:59:47Z</time>
      </trkpt>
      <trkpt lat="46.25943" lon="6.87095">
        <ele>1767</ele>
        <time>2010-01-02T16:59:48Z</time>
      </trkpt>
      <trkpt lat="46.25946" lon="6.87101">
        <ele>1766</ele>
        <time>2010-01-02T16:59:50Z</time>
      </trkpt>
      <trkpt lat="46.2595" lon="6.87108">
        <ele>1766</ele>
        <time>2010-01-02T16:59:53Z</time>
      </trkpt>
      <trkpt lat="46.2595" lon="6.87109">
        <ele>1766</ele>
        <time>2010-01-02T16:59:53Z</time>
      </trkpt>
      <trkpt lat="46.25957" lon="6.87123">
        <ele>1765</ele>
        <time>2010-01-02T16:59:58Z</time>
      </trkpt>
      <trkpt lat="46.25962" lon="6.87135">
        <ele>1764</ele>
        <time>2010-01-02T17:00:01Z</time>
      </trkpt>
      <trkpt lat="46.25963" lon="6.87146">
        <ele>1764</ele>
        <time>2010-01-02T17:00:05Z</time>
      </trkpt>
      <trkpt lat="46.25961" lon="6.8715">
        <ele>1764</ele>
        <time>2010-01-02T17:00:06Z</time>
      </trkpt>
      <trkpt lat="46.25958" lon="6.87154">
        <ele>1764</ele>
        <time>2010-01-02T17:00:08Z</time>
      </trkpt>
      <trkpt lat="46.25954" lon="6.87156">
        <ele>1765</ele>
        <time>2010-01-02T17:00:09Z</time>
      </trkpt>
      <trkpt lat="46.2595" lon="6.87158">
        <ele>1765</ele>
        <time>2010-01-02T17:00:11Z</time>
      </trkpt>
      <trkpt lat="46.25945" lon="6.87161">
        <ele>1766</ele>
        <time>2010-01-02T17:00:13Z</time>
      </trkpt>
      <trkpt lat="46.25942" lon="6.87162">
        <ele>1766</ele>
        <time>2010-01-02T17:00:14Z</time>
      </trkpt>
      <trkpt lat="46.25938" lon="6.87164">
        <ele>1767</ele>
        <time>2010-01-02T17:00:16Z</time>
      </trkpt>
      <trkpt lat="46.25936" lon="6.87165">
        <ele>1767</ele>
        <time>2010-01-02T17:00:17Z</time>
      </trkpt>
      <trkpt lat="46.25924" lon="6.87168">
        <ele>1769</ele>
        <time>2010-01-02T17:00:22Z</time>
      </trkpt>
      <trkpt lat="46.25915" lon="6.8717">
        <ele>1773</ele>
        <time>2010-01-02T17:00:26Z</time>
      </trkpt>
      <trkpt lat="46.25908" lon="6.87169">
        <ele>1774</ele>
        <time>2010-01-02T17:00:28Z</time>
      </trkpt>
      <trkpt lat="46.25899" lon="6.87167">
        <ele>1777</ele>
        <time>2010-01-02T17:00:32Z</time>
      </trkpt>
      <trkpt lat="46.25889" lon="6.87167">
        <ele>1780</ele>
        <time>2010-01-02T17:00:36Z</time>
      </trkpt>
      <trkpt lat="46.25879" lon="6.87169">
        <ele>1781</ele>
        <time>2010-01-02T17:00:40Z</time>
      </trkpt>
      <trkpt lat="46.25873" lon="6.87173">
        <ele>1782</ele>
        <time>2010-01-02T17:00:42Z</time>
      </trkpt>
      <trkpt lat="46.2587" lon="6.87179">
        <ele>1783</ele>
        <time>2010-01-02T17:00:45Z</time>
      </trkpt>
      <trkpt lat="46.25869" lon="6.87179">
        <ele>1783</ele>
        <time>2010-01-02T17:00:45Z</time>
      </trkpt>
      <trkpt lat="46.25867" lon="6.87193">
        <ele>1783</ele>
        <time>2010-01-02T17:00:49Z</time>
      </trkpt>
      <trkpt lat="46.25866" lon="6.8721">
        <ele>1783</ele>
        <time>2010-01-02T17:00:53Z</time>
      </trkpt>
      <trkpt lat="46.25866" lon="6.8721">
        <ele>1783</ele>
        <time>2010-01-02T17:00:53Z</time>
      </trkpt>
      <trkpt lat="46.25861" lon="6.87234">
        <ele>1784</ele>
        <time>2010-01-02T17:01:00Z</time>
      </trkpt>
      <trkpt lat="46.25851" lon="6.87258">
        <ele>1786</ele>
        <time>2010-01-02T17:01:08Z</time>
      </trkpt>
      <trkpt lat="46.25841" lon="6.87283">
        <ele>1785</ele>
        <time>2010-01-02T17:01:16Z</time>
      </trkpt>
      <trkpt lat="46.25835" lon="6.87296">
        <ele>1786</ele>
        <time>2010-01-02T17:01:20Z</time>
      </trkpt>
      <trkpt lat="46.25829" lon="6.87305">
        <ele>1787</ele>
        <time>2010-01-02T17:01:24Z</time>
      </trkpt>
      <trkpt lat="46.25823" lon="6.87315">
        <ele>1787</ele>
        <time>2010-01-02T17:01:28Z</time>
      </trkpt>
      <trkpt lat="46.25818" lon="6.87304">
        <ele>1787</ele>
        <time>2010-01-02T17:01:31Z</time>
      </trkpt>
      <trkpt lat="46.25813" lon="6.87301">
        <ele>1787</ele>
        <time>2010-01-02T17:01:34Z</time>
      </trkpt>
      <trkpt lat="46.25809" lon="6.87298">
        <ele>1787</ele>
        <time>2010-01-02T17:01:35Z</time>
      </trkpt>
      <trkpt lat="46.25804" lon="6.873">
        <ele>1787</ele>
        <time>2010-01-02T17:01:37Z</time>
      </trkpt>
      <trkpt lat="46.25796" lon="6.87305">
        <ele>1786</ele>
        <time>2010-01-02T17:01:41Z</time>
      </trkpt>
      <trkpt lat="46.25788" lon="6.87311">
        <ele>1785</ele>
        <time>2010-01-02T17:01:44Z</time>
      </trkpt>
      <trkpt lat="46.25788" lon="6.87311">
        <ele>1785</ele>
        <time>2010-01-02T17:01:45Z</time>
      </trkpt>
      <trkpt lat="46.25778" lon="6.87317">
        <ele>1784</ele>
        <time>2010-01-02T17:01:49Z</time>
      </trkpt>
      <trkpt lat="46.25766" lon="6.87322">
        <ele>1782</ele>
        <time>2010-01-02T17:01:54Z</time>
      </trkpt>
      <trkpt lat="46.25758" lon="6.87322">
        <ele>1781</ele>
        <time>2010-01-02T17:01:57Z</time>
      </trkpt>
      <trkpt lat="46.25755" lon="6.87325">
        <ele>1780</ele>
        <time>2010-01-02T17:01:59Z</time>
      </trkpt>
      <trkpt lat="46.25754" lon="6.87325">
        <ele>1780</ele>
        <time>2010-01-02T17:01:59Z</time>
      </trkpt>
      <trkpt lat="46.25749" lon="6.87328">
        <ele>1777</ele>
        <time>2010-01-02T17:02:01Z</time>
      </trkpt>
      <trkpt lat="46.25745" lon="6.87331">
        <ele>1777</ele>
        <time>2010-01-02T17:02:03Z</time>
      </trkpt>
      <trkpt lat="46.25743" lon="6.87332">
        <ele>1777</ele>
        <time>2010-01-02T17:02:04Z</time>
      </trkpt>
      <trkpt lat="46.25741" lon="6.87332">
        <ele>1777</ele>
        <time>2010-01-02T17:02:05Z</time>
      </trkpt>
      <trkpt lat="46.25738" lon="6.87335">
        <ele>1772</ele>
        <time>2010-01-02T17:02:06Z</time>
      </trkpt>
      <trkpt lat="46.25734" lon="6.87339">
        <ele>1771</ele>
        <time>2010-01-02T17:02:08Z</time>
      </trkpt>
      <trkpt lat="46.25726" lon="6.87339">
        <ele>1769</ele>
        <time>2010-01-02T17:02:11Z</time>
      </trkpt>
      <trkpt lat="46.2572" lon="6.87338">
        <ele>1768</ele>
        <time>2010-01-02T17:02:14Z</time>
      </trkpt>
      <trkpt lat="46.25715" lon="6.8733">
        <ele>1774</ele>
        <time>2010-01-02T17:02:16Z</time>
      </trkpt>
      <trkpt lat="46.25712" lon="6.87326">
        <ele>1774</ele>
        <time>2010-01-02T17:02:18Z</time>
      </trkpt>
      <trkpt lat="46.25709" lon="6.87324">
        <ele>1774</ele>
        <time>2010-01-02T17:02:19Z</time>
      </trkpt>
      <trkpt lat="46.25704" lon="6.87322">
        <ele>1773</ele>
        <time>2010-01-02T17:02:22Z</time>
      </trkpt>
      <trkpt lat="46.257" lon="6.8732">
        <ele>1773</ele>
        <time>2010-01-02T17:02:23Z</time>
      </trkpt>
      <trkpt lat="46.25694" lon="6.87317">
        <ele>1772</ele>
        <time>2010-01-02T17:02:26Z</time>
      </trkpt>
      <trkpt lat="46.25686" lon="6.87315">
        <ele>1771</ele>
        <time>2010-01-02T17:02:29Z</time>
      </trkpt>
      <trkpt lat="46.2568" lon="6.87313">
        <ele>1770</ele>
        <time>2010-01-02T17:02:32Z</time>
      </trkpt>
      <trkpt lat="46.2567" lon="6.87309">
        <ele>1770</ele>
        <time>2010-01-02T17:02:35Z</time>
      </trkpt>
      <trkpt lat="46.25664" lon="6.8731">
        <ele>1763</ele>
        <time>2010-01-02T17:02:38Z</time>
      </trkpt>
      <trkpt lat="46.25655" lon="6.8731">
        <ele>1763</ele>
        <time>2010-01-02T17:02:42Z</time>
      </trkpt>
      <trkpt lat="46.25648" lon="6.87313">
        <ele>1762</ele>
        <time>2010-01-02T17:02:44Z</time>
      </trkpt>
      <trkpt lat="46.25643" lon="6.87313">
        <ele>1762</ele>
        <time>2010-01-02T17:02:46Z</time>
      </trkpt>
      <trkpt lat="46.25637" lon="6.87313">
        <ele>1762</ele>
        <time>2010-01-02T17:02:49Z</time>
      </trkpt>
      <trkpt lat="46.2563" lon="6.87312">
        <ele>1762</ele>
        <time>2010-01-02T17:02:52Z</time>
      </trkpt>
      <trkpt lat="46.25625" lon="6.87312">
        <ele>1761</ele>
        <time>2010-01-02T17:02:54Z</time>
      </trkpt>
      <trkpt lat="46.25618" lon="6.87316">
        <ele>1760</ele>
        <time>2010-01-02T17:02:57Z</time>
      </trkpt>
      <trkpt lat="46.25612" lon="6.87317">
        <ele>1760</ele>
        <time>2010-01-02T17:02:59Z</time>
      </trkpt>
      <trkpt lat="46.25604" lon="6.87318">
        <ele>1759</ele>
        <time>2010-01-02T17:03:02Z</time>
      </trkpt>
      <trkpt lat="46.25589" lon="6.87312">
        <ele>1758</ele>
        <time>2010-01-02T17:03:09Z</time>
      </trkpt>
      <trkpt lat="46.25583" lon="6.87308">
        <ele>1754</ele>
        <time>2010-01-02T17:03:11Z</time>
      </trkpt>
      <trkpt lat="46.25579" lon="6.87307">
        <ele>1754</ele>
        <time>2010-01-02T17:03:13Z</time>
      </trkpt>
      <trkpt lat="46.25564" lon="6.87306">
        <ele>1753</ele>
        <time>2010-01-02T17:03:19Z</time>
      </trkpt>
      <trkpt lat="46.25559" lon="6.87306">
        <ele>1753</ele>
        <time>2010-01-02T17:03:21Z</time>
      </trkpt>
      <trkpt lat="46.25553" lon="6.87305">
        <ele>1753</ele>
        <time>2010-01-02T17:03:23Z</time>
      </trkpt>
      <trkpt lat="46.25544" lon="6.87303">
        <ele>1753</ele>
        <time>2010-01-02T17:03:27Z</time>
      </trkpt>
      <trkpt lat="46.25538" lon="6.873">
        <ele>1752</ele>
        <time>2010-01-02T17:03:30Z</time>
      </trkpt>
      <trkpt lat="46.25531" lon="6.873">
        <ele>1752</ele>
        <time>2010-01-02T17:03:32Z</time>
      </trkpt>
      <trkpt lat="46.25524" lon="6.873">
        <ele>1752</ele>
        <time>2010-01-02T17:03:35Z</time>
      </trkpt>
      <trkpt lat="46.25517" lon="6.87299">
        <ele>1751</ele>
        <time>2010-01-02T17:03:38Z</time>
      </trkpt>
      <trkpt lat="46.25508" lon="6.87303">
        <ele>1750</ele>
        <time>2010-01-02T17:03:42Z</time>
      </trkpt>
      <trkpt lat="46.25503" lon="6.87304">
        <ele>1750</ele>
        <time>2010-01-02T17:03:44Z</time>
      </trkpt>
      <trkpt lat="46.25498" lon="6.87306">
        <ele>1746</ele>
        <time>2010-01-02T17:03:46Z</time>
      </trkpt>
      <trkpt lat="46.25493" lon="6.87306">
        <ele>1746</ele>
        <time>2010-01-02T17:03:48Z</time>
      </trkpt>
      <trkpt lat="46.25483" lon="6.87308">
        <ele>1746</ele>
        <time>2010-01-02T17:03:52Z</time>
      </trkpt>
      <trkpt lat="46.25472" lon="6.87311">
        <ele>1746</ele>
        <time>2010-01-02T17:03:56Z</time>
      </trkpt>
      <trkpt lat="46.25466" lon="6.87312">
        <ele>1746</ele>
        <time>2010-01-02T17:03:58Z</time>
      </trkpt>
      <trkpt lat="46.25458" lon="6.87315">
        <ele>1746</ele>
        <time>2010-01-02T17:04:02Z</time>
      </trkpt>
      <trkpt lat="46.25444" lon="6.87316">
        <ele>1745</ele>
        <time>2010-01-02T17:04:08Z</time>
      </trkpt>
      <trkpt lat="46.25436" lon="6.87318">
        <ele>1744</ele>
        <time>2010-01-02T17:04:11Z</time>
      </trkpt>
      <trkpt lat="46.25415" lon="6.87327">
        <ele>1739</ele>
        <time>2010-01-02T17:04:20Z</time>
      </trkpt>
      <trkpt lat="46.25405" lon="6.87329">
        <ele>1740</ele>
        <time>2010-01-02T17:04:24Z</time>
      </trkpt>
      <trkpt lat="46.25395" lon="6.87331">
        <ele>1740</ele>
        <time>2010-01-02T17:04:28Z</time>
      </trkpt>
      <trkpt lat="46.25388" lon="6.87327">
        <ele>1740</ele>
        <time>2010-01-02T17:04:31Z</time>
      </trkpt>
      <trkpt lat="46.2538" lon="6.87329">
        <ele>1740</ele>
        <time>2010-01-02T17:04:34Z</time>
      </trkpt>
      <trkpt lat="46.25374" lon="6.87326">
        <ele>1740</ele>
        <time>2010-01-02T17:04:37Z</time>
      </trkpt>
      <trkpt lat="46.25368" lon="6.87326">
        <ele>1740</ele>
        <time>2010-01-02T17:04:39Z</time>
      </trkpt>
      <trkpt lat="46.25358" lon="6.87324">
        <ele>1739</ele>
        <time>2010-01-02T17:04:43Z</time>
      </trkpt>
      <trkpt lat="46.25351" lon="6.87324">
        <ele>1738</ele>
        <time>2010-01-02T17:04:46Z</time>
      </trkpt>
      <trkpt lat="46.25347" lon="6.87323">
        <ele>1738</ele>
        <time>2010-01-02T17:04:48Z</time>
      </trkpt>
      <trkpt lat="46.25339" lon="6.87322">
        <ele>1737</ele>
        <time>2010-01-02T17:04:51Z</time>
      </trkpt>
      <trkpt lat="46.25333" lon="6.8732">
        <ele>1737</ele>
        <time>2010-01-02T17:04:53Z</time>
      </trkpt>
      <trkpt lat="46.25323" lon="6.87311">
        <ele>1733</ele>
        <time>2010-01-02T17:04:58Z</time>
      </trkpt>
      <trkpt lat="46.25316" lon="6.87311">
        <ele>1733</ele>
        <time>2010-01-02T17:05:01Z</time>
      </trkpt>
      <trkpt lat="46.25307" lon="6.87307">
        <ele>1732</ele>
        <time>2010-01-02T17:05:04Z</time>
      </trkpt>
      <trkpt lat="46.25299" lon="6.87307">
        <ele>1732</ele>
        <time>2010-01-02T17:05:08Z</time>
      </trkpt>
      <trkpt lat="46.25294" lon="6.87306">
        <ele>1731</ele>
        <time>2010-01-02T17:05:09Z</time>
      </trkpt>
      <trkpt lat="46.2528" lon="6.873">
        <ele>1730</ele>
        <time>2010-01-02T17:05:15Z</time>
      </trkpt>
      <trkpt lat="46.2527" lon="6.87297">
        <ele>1730</ele>
        <time>2010-01-02T17:05:19Z</time>
      </trkpt>
      <trkpt lat="46.25261" lon="6.87294">
        <ele>1729</ele>
        <time>2010-01-02T17:05:23Z</time>
      </trkpt>
      <trkpt lat="46.25252" lon="6.8729">
        <ele>1729</ele>
        <time>2010-01-02T17:05:27Z</time>
      </trkpt>
      <trkpt lat="46.25244" lon="6.87289">
        <ele>1722</ele>
        <time>2010-01-02T17:05:30Z</time>
      </trkpt>
      <trkpt lat="46.25234" lon="6.87292">
        <ele>1721</ele>
        <time>2010-01-02T17:05:34Z</time>
      </trkpt>
      <trkpt lat="46.25226" lon="6.87298">
        <ele>1721</ele>
        <time>2010-01-02T17:05:38Z</time>
      </trkpt>
      <trkpt lat="46.25217" lon="6.87304">
        <ele>1721</ele>
        <time>2010-01-02T17:05:42Z</time>
      </trkpt>
      <trkpt lat="46.25208" lon="6.87313">
        <ele>1720</ele>
        <time>2010-01-02T17:05:46Z</time>
      </trkpt>
      <trkpt lat="46.25198" lon="6.87321">
        <ele>1720</ele>
        <time>2010-01-02T17:05:51Z</time>
      </trkpt>
      <trkpt lat="46.25193" lon="6.87324">
        <ele>1719</ele>
        <time>2010-01-02T17:05:53Z</time>
      </trkpt>
      <trkpt lat="46.25188" lon="6.87325">
        <ele>1719</ele>
        <time>2010-01-02T17:05:55Z</time>
      </trkpt>
      <trkpt lat="46.25179" lon="6.87328">
        <ele>1718</ele>
        <time>2010-01-02T17:05:59Z</time>
      </trkpt>
      <trkpt lat="46.25171" lon="6.87328">
        <ele>1717</ele>
        <time>2010-01-02T17:06:02Z</time>
      </trkpt>
      <trkpt lat="46.2516" lon="6.87325">
        <ele>1712</ele>
        <time>2010-01-02T17:06:06Z</time>
      </trkpt>
      <trkpt lat="46.2515" lon="6.8732">
        <ele>1710</ele>
        <time>2010-01-02T17:06:11Z</time>
      </trkpt>
      <trkpt lat="46.2514" lon="6.87318">
        <ele>1709</ele>
        <time>2010-01-02T17:06:15Z</time>
      </trkpt>
      <trkpt lat="46.25132" lon="6.87314">
        <ele>1707</ele>
        <time>2010-01-02T17:06:18Z</time>
      </trkpt>
      <trkpt lat="46.25124" lon="6.87311">
        <ele>1706</ele>
        <time>2010-01-02T17:06:21Z</time>
      </trkpt>
      <trkpt lat="46.2512" lon="6.87304">
        <ele>1706</ele>
        <time>2010-01-02T17:06:24Z</time>
      </trkpt>
      <trkpt lat="46.2511" lon="6.87281">
        <ele>1704</ele>
        <time>2010-01-02T17:06:31Z</time>
      </trkpt>
      <trkpt lat="46.25103" lon="6.87253">
        <ele>1702</ele>
        <time>2010-01-02T17:06:40Z</time>
      </trkpt>
      <trkpt lat="46.25102" lon="6.87238">
        <ele>1698</ele>
        <time>2010-01-02T17:06:44Z</time>
      </trkpt>
      <trkpt lat="46.25101" lon="6.87226">
        <ele>1697</ele>
        <time>2010-01-02T17:06:47Z</time>
      </trkpt>
      <trkpt lat="46.25098" lon="6.87221">
        <ele>1697</ele>
        <time>2010-01-02T17:06:49Z</time>
      </trkpt>
      <trkpt lat="46.25096" lon="6.87215">
        <ele>1696</ele>
        <time>2010-01-02T17:06:51Z</time>
      </trkpt>
      <trkpt lat="46.25092" lon="6.87212">
        <ele>1696</ele>
        <time>2010-01-02T17:06:52Z</time>
      </trkpt>
      <trkpt lat="46.25089" lon="6.87207">
        <ele>1695</ele>
        <time>2010-01-02T17:06:54Z</time>
      </trkpt>
      <trkpt lat="46.25087" lon="6.87201">
        <ele>1695</ele>
        <time>2010-01-02T17:06:56Z</time>
      </trkpt>
      <trkpt lat="46.25088" lon="6.87193">
        <ele>1693</ele>
        <time>2010-01-02T17:06:58Z</time>
      </trkpt>
      <trkpt lat="46.25088" lon="6.87193">
        <ele>1693</ele>
        <time>2010-01-02T17:06:58Z</time>
      </trkpt>
      <trkpt lat="46.25088" lon="6.87186">
        <ele>1692</ele>
        <time>2010-01-02T17:07:00Z</time>
      </trkpt>
      <trkpt lat="46.25087" lon="6.87185">
        <ele>1692</ele>
        <time>2010-01-02T17:07:00Z</time>
      </trkpt>
      <trkpt lat="46.25088" lon="6.87179">
        <ele>1690</ele>
        <time>2010-01-02T17:07:02Z</time>
      </trkpt>
      <trkpt lat="46.25088" lon="6.87178">
        <ele>1690</ele>
        <time>2010-01-02T17:07:02Z</time>
      </trkpt>
      <trkpt lat="46.25089" lon="6.87177">
        <ele>1690</ele>
        <time>2010-01-02T17:07:03Z</time>
      </trkpt>
      <trkpt lat="46.2509" lon="6.87176">
        <ele>1690</ele>
        <time>2010-01-02T17:07:03Z</time>
      </trkpt>
      <trkpt lat="46.25094" lon="6.87169">
        <ele>1690</ele>
        <time>2010-01-02T17:07:06Z</time>
      </trkpt>
      <trkpt lat="46.25104" lon="6.87157">
        <ele>1687</ele>
        <time>2010-01-02T17:07:11Z</time>
      </trkpt>
      <trkpt lat="46.2511" lon="6.87153">
        <ele>1688</ele>
        <time>2010-01-02T17:07:14Z</time>
      </trkpt>
      <trkpt lat="46.25115" lon="6.87148">
        <ele>1688</ele>
        <time>2010-01-02T17:07:16Z</time>
      </trkpt>
      <trkpt lat="46.2512" lon="6.87144">
        <ele>1689</ele>
        <time>2010-01-02T17:07:18Z</time>
      </trkpt>
      <trkpt lat="46.25125" lon="6.87139">
        <ele>1689</ele>
        <time>2010-01-02T17:07:21Z</time>
      </trkpt>
      <trkpt lat="46.25123" lon="6.87127">
        <ele>1688</ele>
        <time>2010-01-02T17:07:24Z</time>
      </trkpt>
      <trkpt lat="46.25117" lon="6.8712">
        <ele>1687</ele>
        <time>2010-01-02T17:07:27Z</time>
      </trkpt>
      <trkpt lat="46.25108" lon="6.87106">
        <ele>1686</ele>
        <time>2010-01-02T17:07:32Z</time>
      </trkpt>
      <trkpt lat="46.25098" lon="6.87101">
        <ele>1684</ele>
        <time>2010-01-02T17:07:37Z</time>
      </trkpt>
      <trkpt lat="46.25083" lon="6.87096">
        <ele>1681</ele>
        <time>2010-01-02T17:07:43Z</time>
      </trkpt>
      <trkpt lat="46.2508" lon="6.87089">
        <ele>1676</ele>
        <time>2010-01-02T17:07:45Z</time>
      </trkpt>
      <trkpt lat="46.25073" lon="6.87083">
        <ele>1676</ele>
        <time>2010-01-02T17:07:48Z</time>
      </trkpt>
      <trkpt lat="46.25069" lon="6.87077">
        <ele>1676</ele>
        <time>2010-01-02T17:07:51Z</time>
      </trkpt>
      <trkpt lat="46.2506" lon="6.8707">
        <ele>1675</ele>
        <time>2010-01-02T17:07:55Z</time>
      </trkpt>
      <trkpt lat="46.2505" lon="6.87065">
        <ele>1674</ele>
        <time>2010-01-02T17:07:59Z</time>
      </trkpt>
      <trkpt lat="46.25034" lon="6.87051">
        <ele>1674</ele>
        <time>2010-01-02T17:08:06Z</time>
      </trkpt>
      <trkpt lat="46.25024" lon="6.87034">
        <ele>1674</ele>
        <time>2010-01-02T17:08:13Z</time>
      </trkpt>
      <trkpt lat="46.25005" lon="6.87008">
        <ele>1674</ele>
        <time>2010-01-02T17:08:23Z</time>
      </trkpt>
      <trkpt lat="46.24977" lon="6.86963">
        <ele>1673</ele>
        <time>2010-01-02T17:08:40Z</time>
      </trkpt>
      <trkpt lat="46.24962" lon="6.86938">
        <ele>1674</ele>
        <time>2010-01-02T17:08:49Z</time>
      </trkpt>
      <trkpt lat="46.2495" lon="6.8692">
        <ele>1672</ele>
        <time>2010-01-02T17:08:56Z</time>
      </trkpt>
      <trkpt lat="46.24943" lon="6.86904">
        <ele>1680</ele>
        <time>2010-01-02T17:09:01Z</time>
      </trkpt>
      <trkpt lat="46.24923" lon="6.8689">
        <ele>1678</ele>
        <time>2010-01-02T17:09:10Z</time>
      </trkpt>
      <trkpt lat="46.24901" lon="6.86877">
        <ele>1669</ele>
        <time>2010-01-02T17:09:19Z</time>
      </trkpt>
      <trkpt lat="46.2489" lon="6.86871">
        <ele>1669</ele>
        <time>2010-01-02T17:09:24Z</time>
      </trkpt>
      <trkpt lat="46.24884" lon="6.86862">
        <ele>1670</ele>
        <time>2010-01-02T17:09:28Z</time>
      </trkpt>
      <trkpt lat="46.24876" lon="6.86852">
        <ele>1670</ele>
        <time>2010-01-02T17:09:32Z</time>
      </trkpt>
      <trkpt lat="46.2487" lon="6.86853">
        <ele>1670</ele>
        <time>2010-01-02T17:09:34Z</time>
      </trkpt>
      <trkpt lat="46.24859" lon="6.86852">
        <ele>1670</ele>
        <time>2010-01-02T17:09:39Z</time>
      </trkpt>
      <trkpt lat="46.24849" lon="6.86853">
        <ele>1670</ele>
        <time>2010-01-02T17:09:43Z</time>
      </trkpt>
      <trkpt lat="46.24836" lon="6.86851">
        <ele>1671</ele>
        <time>2010-01-02T17:09:48Z</time>
      </trkpt>
      <trkpt lat="46.24808" lon="6.86838">
        <ele>1669</ele>
        <time>2010-01-02T17:10:00Z</time>
      </trkpt>
      <trkpt lat="46.24795" lon="6.86844">
        <ele>1669</ele>
        <time>2010-01-02T17:10:05Z</time>
      </trkpt>
      <trkpt lat="46.24782" lon="6.86842">
        <ele>1669</ele>
        <time>2010-01-02T17:10:11Z</time>
      </trkpt>
      <trkpt lat="46.24767" lon="6.86857">
        <ele>1669</ele>
        <time>2010-01-02T17:10:18Z</time>
      </trkpt>
      <trkpt lat="46.24755" lon="6.86863">
        <ele>1668</ele>
        <time>2010-01-02T17:10:23Z</time>
      </trkpt>
      <trkpt lat="46.24737" lon="6.86874">
        <ele>1663</ele>
        <time>2010-01-02T17:10:30Z</time>
      </trkpt>
      <trkpt lat="46.24728" lon="6.8688">
        <ele>1661</ele>
        <time>2010-01-02T17:10:35Z</time>
      </trkpt>
      <trkpt lat="46.24722" lon="6.86883">
        <ele>1661</ele>
        <time>2010-01-02T17:10:37Z</time>
      </trkpt>
      <trkpt lat="46.24711" lon="6.86881">
        <ele>1660</ele>
        <time>2010-01-02T17:10:41Z</time>
      </trkpt>
      <trkpt lat="46.24699" lon="6.8688">
        <ele>1660</ele>
        <time>2010-01-02T17:10:46Z</time>
      </trkpt>
      <trkpt lat="46.24688" lon="6.86868">
        <ele>1661</ele>
        <time>2010-01-02T17:10:52Z</time>
      </trkpt>
      <trkpt lat="46.24681" lon="6.86852">
        <ele>1662</ele>
        <time>2010-01-02T17:10:57Z</time>
      </trkpt>
      <trkpt lat="46.2467" lon="6.8683">
        <ele>1666</ele>
        <time>2010-01-02T17:11:05Z</time>
      </trkpt>
      <trkpt lat="46.24661" lon="6.86817">
        <ele>1654</ele>
        <time>2010-01-02T17:11:10Z</time>
      </trkpt>
      <trkpt lat="46.24648" lon="6.86791">
        <ele>1650</ele>
        <time>2010-01-02T17:11:18Z</time>
      </trkpt>
      <trkpt lat="46.24639" lon="6.8674">
        <ele>1651</ele>
        <time>2010-01-02T17:11:33Z</time>
      </trkpt>
      <trkpt lat="46.24637" lon="6.8673">
        <ele>1649</ele>
        <time>2010-01-02T17:11:36Z</time>
      </trkpt>
      <trkpt lat="46.24637" lon="6.86718">
        <ele>1648</ele>
        <time>2010-01-02T17:11:39Z</time>
      </trkpt>
      <trkpt lat="46.24637" lon="6.86674">
        <ele>1649</ele>
        <time>2010-01-02T17:11:52Z</time>
      </trkpt>
      <trkpt lat="46.24639" lon="6.86659">
        <ele>1649</ele>
        <time>2010-01-02T17:11:56Z</time>
      </trkpt>
      <trkpt lat="46.2464" lon="6.86642">
        <ele>1648</ele>
        <time>2010-01-02T17:12:01Z</time>
      </trkpt>
      <trkpt lat="46.24633" lon="6.86615">
        <ele>1645</ele>
        <time>2010-01-02T17:12:08Z</time>
      </trkpt>
      <trkpt lat="46.24631" lon="6.86601">
        <ele>1645</ele>
        <time>2010-01-02T17:12:13Z</time>
      </trkpt>
      <trkpt lat="46.24613" lon="6.86567">
        <ele>1642</ele>
        <time>2010-01-02T17:12:24Z</time>
      </trkpt>
      <trkpt lat="46.24604" lon="6.86555">
        <ele>1641</ele>
        <time>2010-01-02T17:12:29Z</time>
      </trkpt>
      <trkpt lat="46.24593" lon="6.8653">
        <ele>1641</ele>
        <time>2010-01-02T17:12:37Z</time>
      </trkpt>
      <trkpt lat="46.24576" lon="6.86497">
        <ele>1627</ele>
        <time>2010-01-02T17:12:49Z</time>
      </trkpt>
      <trkpt lat="46.24574" lon="6.86477">
        <ele>1622</ele>
        <time>2010-01-02T17:12:54Z</time>
      </trkpt>
      <trkpt lat="46.24575" lon="6.86468">
        <ele>1621</ele>
        <time>2010-01-02T17:12:57Z</time>
      </trkpt>
      <trkpt lat="46.24576" lon="6.86467">
        <ele>1621</ele>
        <time>2010-01-02T17:12:57Z</time>
      </trkpt>
      <trkpt lat="46.2458" lon="6.86455">
        <ele>1621</ele>
        <time>2010-01-02T17:13:01Z</time>
      </trkpt>
      <trkpt lat="46.24583" lon="6.86436">
        <ele>1625</ele>
        <time>2010-01-02T17:13:06Z</time>
      </trkpt>
      <trkpt lat="46.24583" lon="6.86419">
        <ele>1637</ele>
        <time>2010-01-02T17:13:11Z</time>
      </trkpt>
      <trkpt lat="46.24581" lon="6.86402">
        <ele>1628</ele>
        <time>2010-01-02T17:13:16Z</time>
      </trkpt>
      <trkpt lat="46.24582" lon="6.86387">
        <ele>1626</ele>
        <time>2010-01-02T17:13:20Z</time>
      </trkpt>
      <trkpt lat="46.24582" lon="6.86386">
        <ele>1625</ele>
        <time>2010-01-02T17:13:20Z</time>
      </trkpt>
      <trkpt lat="46.24586" lon="6.86375">
        <ele>1650</ele>
        <time>2010-01-02T17:13:24Z</time>
      </trkpt>
      <trkpt lat="46.2459" lon="6.86355">
        <ele>1650</ele>
        <time>2010-01-02T17:13:30Z</time>
      </trkpt>
      <trkpt lat="46.24592" lon="6.86347">
        <ele>1648</ele>
        <time>2010-01-02T17:13:32Z</time>
      </trkpt>
      <trkpt lat="46.24591" lon="6.86324">
        <ele>1649</ele>
        <time>2010-01-02T17:13:38Z</time>
      </trkpt>
      <trkpt lat="46.2459" lon="6.8631">
        <ele>1653</ele>
        <time>2010-01-02T17:13:42Z</time>
      </trkpt>
      <trkpt lat="46.2459" lon="6.86309">
        <ele>1653</ele>
        <time>2010-01-02T17:13:43Z</time>
      </trkpt>
      <trkpt lat="46.24591" lon="6.86297">
        <ele>1655</ele>
        <time>2010-01-02T17:13:46Z</time>
      </trkpt>
      <trkpt lat="46.24591" lon="6.86286">
        <ele>1655</ele>
        <time>2010-01-02T17:13:49Z</time>
      </trkpt>
      <trkpt lat="46.24591" lon="6.86285">
        <ele>1655</ele>
        <time>2010-01-02T17:13:49Z</time>
      </trkpt>
      <trkpt lat="46.2459" lon="6.86269">
        <ele>1653</ele>
        <time>2010-01-02T17:13:54Z</time>
      </trkpt>
      <trkpt lat="46.24589" lon="6.86237">
        <ele>1652</ele>
        <time>2010-01-02T17:14:03Z</time>
      </trkpt>
      <trkpt lat="46.2459" lon="6.86223">
        <ele>1655</ele>
        <time>2010-01-02T17:14:06Z</time>
      </trkpt>
      <trkpt lat="46.24591" lon="6.86203">
        <ele>1656</ele>
        <time>2010-01-02T17:14:12Z</time>
      </trkpt>
      <trkpt lat="46.24596" lon="6.86189">
        <ele>1656</ele>
        <time>2010-01-02T17:14:16Z</time>
      </trkpt>
      <trkpt lat="46.246" lon="6.86179">
        <ele>1655</ele>
        <time>2010-01-02T17:14:20Z</time>
      </trkpt>
      <trkpt lat="46.24602" lon="6.8617">
        <ele>1654</ele>
        <time>2010-01-02T17:14:22Z</time>
      </trkpt>
      <trkpt lat="46.24605" lon="6.86162">
        <ele>1655</ele>
        <time>2010-01-02T17:14:25Z</time>
      </trkpt>
      <trkpt lat="46.24608" lon="6.86157">
        <ele>1656</ele>
        <time>2010-01-02T17:14:26Z</time>
      </trkpt>
      <trkpt lat="46.24608" lon="6.86144">
        <ele>1657</ele>
        <time>2010-01-02T17:14:30Z</time>
      </trkpt>
      <trkpt lat="46.24608" lon="6.86143">
        <ele>1657</ele>
        <time>2010-01-02T17:14:30Z</time>
      </trkpt>
      <trkpt lat="46.24611" lon="6.86127">
        <ele>1658</ele>
        <time>2010-01-02T17:14:35Z</time>
      </trkpt>
      <trkpt lat="46.24616" lon="6.86119">
        <ele>1659</ele>
        <time>2010-01-02T17:14:38Z</time>
      </trkpt>
      <trkpt lat="46.24618" lon="6.86115">
        <ele>1659</ele>
        <time>2010-01-02T17:14:39Z</time>
      </trkpt>
      <trkpt lat="46.24615" lon="6.8611">
        <ele>1658</ele>
        <time>2010-01-02T17:14:41Z</time>
      </trkpt>
      <trkpt lat="46.2461" lon="6.86104">
        <ele>1656</ele>
        <time>2010-01-02T17:14:43Z</time>
      </trkpt>
      <trkpt lat="46.2461" lon="6.86085">
        <ele>1655</ele>
        <time>2010-01-02T17:14:49Z</time>
      </trkpt>
      <trkpt lat="46.2461" lon="6.8607">
        <ele>1653</ele>
        <time>2010-01-02T17:14:53Z</time>
      </trkpt>
      <trkpt lat="46.24611" lon="6.86061">
        <ele>1654</ele>
        <time>2010-01-02T17:14:55Z</time>
      </trkpt>
      <trkpt lat="46.24605" lon="6.8603">
        <ele>1653</ele>
        <time>2010-01-02T17:15:04Z</time>
      </trkpt>
      <trkpt lat="46.24602" lon="6.86012">
        <ele>1650</ele>
        <time>2010-01-02T17:15:09Z</time>
      </trkpt>
      <trkpt lat="46.24601" lon="6.85993">
        <ele>1645</ele>
        <time>2010-01-02T17:15:15Z</time>
      </trkpt>
      <trkpt lat="46.24601" lon="6.85974">
        <ele>1646</ele>
        <time>2010-01-02T17:15:20Z</time>
      </trkpt>
      <trkpt lat="46.24605" lon="6.85958">
        <ele>1646</ele>
        <time>2010-01-02T17:15:25Z</time>
      </trkpt>
      <trkpt lat="46.24619" lon="6.85938">
        <ele>1646</ele>
        <time>2010-01-02T17:15:33Z</time>
      </trkpt>
      <trkpt lat="46.24627" lon="6.85926">
        <ele>1648</ele>
        <time>2010-01-02T17:15:37Z</time>
      </trkpt>
      <trkpt lat="46.24634" lon="6.85915">
        <ele>1642</ele>
        <time>2010-01-02T17:15:41Z</time>
      </trkpt>
      <trkpt lat="46.24646" lon="6.85896">
        <ele>1643</ele>
        <time>2010-01-02T17:15:48Z</time>
      </trkpt>
      <trkpt lat="46.24653" lon="6.85868">
        <ele>1641</ele>
        <time>2010-01-02T17:15:57Z</time>
      </trkpt>
      <trkpt lat="46.24659" lon="6.85852">
        <ele>1642</ele>
        <time>2010-01-02T17:16:01Z</time>
      </trkpt>
      <trkpt lat="46.24667" lon="6.8584">
        <ele>1650</ele>
        <time>2010-01-02T17:16:06Z</time>
      </trkpt>
      <trkpt lat="46.24674" lon="6.85834">
        <ele>1651</ele>
        <time>2010-01-02T17:16:09Z</time>
      </trkpt>
      <trkpt lat="46.2468" lon="6.85827">
        <ele>1646</ele>
        <time>2010-01-02T17:16:13Z</time>
      </trkpt>
      <trkpt lat="46.24686" lon="6.85814">
        <ele>1646</ele>
        <time>2010-01-02T17:16:17Z</time>
      </trkpt>
      <trkpt lat="46.24687" lon="6.85812">
        <ele>1645</ele>
        <time>2010-01-02T17:16:17Z</time>
      </trkpt>
      <trkpt lat="46.24691" lon="6.85795">
        <ele>1644</ele>
        <time>2010-01-02T17:16:22Z</time>
      </trkpt>
      <trkpt lat="46.24691" lon="6.85794">
        <ele>1643</ele>
        <time>2010-01-02T17:16:23Z</time>
      </trkpt>
      <trkpt lat="46.24692" lon="6.85779">
        <ele>1641</ele>
        <time>2010-01-02T17:16:27Z</time>
      </trkpt>
      <trkpt lat="46.24694" lon="6.85763">
        <ele>1639</ele>
        <time>2010-01-02T17:16:32Z</time>
      </trkpt>
      <trkpt lat="46.24694" lon="6.85762">
        <ele>1638</ele>
        <time>2010-01-02T17:16:32Z</time>
      </trkpt>
      <trkpt lat="46.24702" lon="6.8575">
        <ele>1639</ele>
        <time>2010-01-02T17:16:36Z</time>
      </trkpt>
      <trkpt lat="46.24716" lon="6.85739">
        <ele>1625</ele>
        <time>2010-01-02T17:16:43Z</time>
      </trkpt>
      <trkpt lat="46.24735" lon="6.8574">
        <ele>1631</ele>
        <time>2010-01-02T17:16:50Z</time>
      </trkpt>
      <trkpt lat="46.24756" lon="6.85745">
        <ele>1642</ele>
        <time>2010-01-02T17:16:59Z</time>
      </trkpt>
      <trkpt lat="46.24776" lon="6.85739">
        <ele>1642</ele>
        <time>2010-01-02T17:17:07Z</time>
      </trkpt>
      <trkpt lat="46.24786" lon="6.85729">
        <ele>1642</ele>
        <time>2010-01-02T17:17:12Z</time>
      </trkpt>
      <trkpt lat="46.24796" lon="6.8572">
        <ele>1642</ele>
        <time>2010-01-02T17:17:16Z</time>
      </trkpt>
      <trkpt lat="46.24796" lon="6.8572">
        <ele>1642</ele>
        <time>2010-01-02T17:17:16Z</time>
      </trkpt>
      <trkpt lat="46.24818" lon="6.85691">
        <ele>1639</ele>
        <time>2010-01-02T17:17:28Z</time>
      </trkpt>
      <trkpt lat="46.24822" lon="6.85674">
        <ele>1637</ele>
        <time>2010-01-02T17:17:33Z</time>
      </trkpt>
      <trkpt lat="46.24829" lon="6.85656">
        <ele>1628</ele>
        <time>2010-01-02T17:17:39Z</time>
      </trkpt>
      <trkpt lat="46.24836" lon="6.85637">
        <ele>1639</ele>
        <time>2010-01-02T17:17:45Z</time>
      </trkpt>
      <trkpt lat="46.24835" lon="6.85624">
        <ele>1637</ele>
        <time>2010-01-02T17:17:49Z</time>
      </trkpt>
      <trkpt lat="46.24842" lon="6.85598">
        <ele>1631</ele>
        <time>2010-01-02T17:17:56Z</time>
      </trkpt>
      <trkpt lat="46.24844" lon="6.8558">
        <ele>1620</ele>
        <time>2010-01-02T17:18:01Z</time>
      </trkpt>
      <trkpt lat="46.24847" lon="6.85561">
        <ele>1619</ele>
        <time>2010-01-02T17:18:07Z</time>
      </trkpt>
      <trkpt lat="46.24852" lon="6.85542">
        <ele>1617</ele>
        <time>2010-01-02T17:18:12Z</time>
      </trkpt>
      <trkpt lat="46.24856" lon="6.85529">
        <ele>1616</ele>
        <time>2010-01-02T17:18:16Z</time>
      </trkpt>
      <trkpt lat="46.24862" lon="6.85522">
        <ele>1615</ele>
        <time>2010-01-02T17:18:19Z</time>
      </trkpt>
      <trkpt lat="46.24873" lon="6.85515">
        <ele>1616</ele>
        <time>2010-01-02T17:18:24Z</time>
      </trkpt>
      <trkpt lat="46.24879" lon="6.85512">
        <ele>1616</ele>
        <time>2010-01-02T17:18:26Z</time>
      </trkpt>
      <trkpt lat="46.24883" lon="6.85501">
        <ele>1615</ele>
        <time>2010-01-02T17:18:30Z</time>
      </trkpt>
      <trkpt lat="46.24896" lon="6.85494">
        <ele>1602</ele>
        <time>2010-01-02T17:18:35Z</time>
      </trkpt>
      <trkpt lat="46.2491" lon="6.85486">
        <ele>1603</ele>
        <time>2010-01-02T17:18:41Z</time>
      </trkpt>
      <trkpt lat="46.24925" lon="6.85485">
        <ele>1607</ele>
        <time>2010-01-02T17:18:48Z</time>
      </trkpt>
      <trkpt lat="46.24944" lon="6.85488">
        <ele>1606</ele>
        <time>2010-01-02T17:18:55Z</time>
      </trkpt>
      <trkpt lat="46.24958" lon="6.85491">
        <ele>1607</ele>
        <time>2010-01-02T17:19:01Z</time>
      </trkpt>
      <trkpt lat="46.24975" lon="6.85493">
        <ele>1608</ele>
        <time>2010-01-02T17:19:07Z</time>
      </trkpt>
      <trkpt lat="46.24981" lon="6.85492">
        <ele>1609</ele>
        <time>2010-01-02T17:19:10Z</time>
      </trkpt>
      <trkpt lat="46.24991" lon="6.85489">
        <ele>1611</ele>
        <time>2010-01-02T17:19:14Z</time>
      </trkpt>
      <trkpt lat="46.24995" lon="6.85475">
        <ele>1607</ele>
        <time>2010-01-02T17:19:18Z</time>
      </trkpt>
      <trkpt lat="46.25" lon="6.85468">
        <ele>1610</ele>
        <time>2010-01-02T17:19:21Z</time>
      </trkpt>
      <trkpt lat="46.25002" lon="6.85453">
        <ele>1607</ele>
        <time>2010-01-02T17:19:25Z</time>
      </trkpt>
      <trkpt lat="46.2501" lon="6.85433">
        <ele>1602</ele>
        <time>2010-01-02T17:19:32Z</time>
      </trkpt>
      <trkpt lat="46.25019" lon="6.85414">
        <ele>1591</ele>
        <time>2010-01-02T17:19:38Z</time>
      </trkpt>
      <trkpt lat="46.25026" lon="6.85401">
        <ele>1590</ele>
        <time>2010-01-02T17:19:43Z</time>
      </trkpt>
      <trkpt lat="46.25046" lon="6.85385">
        <ele>1590</ele>
        <time>2010-01-02T17:19:52Z</time>
      </trkpt>
      <trkpt lat="46.25056" lon="6.85378">
        <ele>1590</ele>
        <time>2010-01-02T17:19:56Z</time>
      </trkpt>
      <trkpt lat="46.25068" lon="6.85376">
        <ele>1590</ele>
        <time>2010-01-02T17:20:01Z</time>
      </trkpt>
      <trkpt lat="46.2508" lon="6.85381">
        <ele>1591</ele>
        <time>2010-01-02T17:20:06Z</time>
      </trkpt>
      <trkpt lat="46.25081" lon="6.85381">
        <ele>1591</ele>
        <time>2010-01-02T17:20:07Z</time>
      </trkpt>
      <trkpt lat="46.25097" lon="6.85389">
        <ele>1596</ele>
        <time>2010-01-02T17:20:13Z</time>
      </trkpt>
      <trkpt lat="46.25101" lon="6.85391">
        <ele>1596</ele>
        <time>2010-01-02T17:20:15Z</time>
      </trkpt>
      <trkpt lat="46.25107" lon="6.85394">
        <ele>1596</ele>
        <time>2010-01-02T17:20:18Z</time>
      </trkpt>
      <trkpt lat="46.25112" lon="6.8539">
        <ele>1596</ele>
        <time>2010-01-02T17:20:20Z</time>
      </trkpt>
      <trkpt lat="46.25123" lon="6.85393">
        <ele>1596</ele>
        <time>2010-01-02T17:20:24Z</time>
      </trkpt>
      <trkpt lat="46.25132" lon="6.85392">
        <ele>1596</ele>
        <time>2010-01-02T17:20:28Z</time>
      </trkpt>
      <trkpt lat="46.25139" lon="6.85385">
        <ele>1596</ele>
        <time>2010-01-02T17:20:31Z</time>
      </trkpt>
      <trkpt lat="46.25141" lon="6.85374">
        <ele>1594</ele>
        <time>2010-01-02T17:20:34Z</time>
      </trkpt>
      <trkpt lat="46.25138" lon="6.85352">
        <ele>1591</ele>
        <time>2010-01-02T17:20:41Z</time>
      </trkpt>
      <trkpt lat="46.25128" lon="6.85335">
        <ele>1591</ele>
        <time>2010-01-02T17:20:47Z</time>
      </trkpt>
      <trkpt lat="46.25122" lon="6.85321">
        <ele>1580</ele>
        <time>2010-01-02T17:20:51Z</time>
      </trkpt>
      <trkpt lat="46.25111" lon="6.85305">
        <ele>1579</ele>
        <time>2010-01-02T17:20:58Z</time>
      </trkpt>
      <trkpt lat="46.25102" lon="6.85294">
        <ele>1579</ele>
        <time>2010-01-02T17:21:02Z</time>
      </trkpt>
      <trkpt lat="46.25091" lon="6.85281">
        <ele>1577</ele>
        <time>2010-01-02T17:21:08Z</time>
      </trkpt>
      <trkpt lat="46.25069" lon="6.8527">
        <ele>1573</ele>
        <time>2010-01-02T17:21:17Z</time>
      </trkpt>
      <trkpt lat="46.25052" lon="6.8527">
        <ele>1572</ele>
        <time>2010-01-02T17:21:24Z</time>
      </trkpt>
      <trkpt lat="46.2504" lon="6.85265">
        <ele>1570</ele>
        <time>2010-01-02T17:21:29Z</time>
      </trkpt>
      <trkpt lat="46.25024" lon="6.85264">
        <ele>1568</ele>
        <time>2010-01-02T17:21:35Z</time>
      </trkpt>
      <trkpt lat="46.25006" lon="6.85273">
        <ele>1567</ele>
        <time>2010-01-02T17:21:43Z</time>
      </trkpt>
      <trkpt lat="46.24977" lon="6.85303">
        <ele>1559</ele>
        <time>2010-01-02T17:21:57Z</time>
      </trkpt>
      <trkpt lat="46.24957" lon="6.85324">
        <ele>1559</ele>
        <time>2010-01-02T17:22:07Z</time>
      </trkpt>
      <trkpt lat="46.24947" lon="6.85345">
        <ele>1572</ele>
        <time>2010-01-02T17:22:14Z</time>
      </trkpt>
      <trkpt lat="46.24937" lon="6.85363">
        <ele>1574</ele>
        <time>2010-01-02T17:22:21Z</time>
      </trkpt>
      <trkpt lat="46.24922" lon="6.85371">
        <ele>1575</ele>
        <time>2010-01-02T17:22:27Z</time>
      </trkpt>
      <trkpt lat="46.24909" lon="6.8536">
        <ele>1563</ele>
        <time>2010-01-02T17:22:33Z</time>
      </trkpt>
      <trkpt lat="46.24892" lon="6.85346">
        <ele>1560</ele>
        <time>2010-01-02T17:22:41Z</time>
      </trkpt>
      <trkpt lat="46.24869" lon="6.85347">
        <ele>1558</ele>
        <time>2010-01-02T17:22:50Z</time>
      </trkpt>
      <trkpt lat="46.24839" lon="6.85359">
        <ele>1555</ele>
        <time>2010-01-02T17:23:03Z</time>
      </trkpt>
      <trkpt lat="46.24812" lon="6.85375">
        <ele>1547</ele>
        <time>2010-01-02T17:23:14Z</time>
      </trkpt>
      <trkpt lat="46.24791" lon="6.85402">
        <ele>1548</ele>
        <time>2010-01-02T17:23:26Z</time>
      </trkpt>
      <trkpt lat="46.24773" lon="6.85438">
        <ele>1564</ele>
        <time>2010-01-02T17:23:38Z</time>
      </trkpt>
      <trkpt lat="46.24769" lon="6.85464">
        <ele>1568</ele>
        <time>2010-01-02T17:23:45Z</time>
      </trkpt>
      <trkpt lat="46.24758" lon="6.85474">
        <ele>1567</ele>
        <time>2010-01-02T17:23:50Z</time>
      </trkpt>
      <trkpt lat="46.24746" lon="6.85485">
        <ele>1555</ele>
        <time>2010-01-02T17:23:56Z</time>
      </trkpt>
      <trkpt lat="46.24745" lon="6.85486">
        <ele>1555</ele>
        <time>2010-01-02T17:23:57Z</time>
      </trkpt>
      <trkpt lat="46.24727" lon="6.85498">
        <ele>1552</ele>
        <time>2010-01-02T17:24:05Z</time>
      </trkpt>
      <trkpt lat="46.24714" lon="6.85496">
        <ele>1548</ele>
        <time>2010-01-02T17:24:10Z</time>
      </trkpt>
      <trkpt lat="46.247" lon="6.85504">
        <ele>1555</ele>
        <time>2010-01-02T17:24:16Z</time>
      </trkpt>
      <trkpt lat="46.24699" lon="6.85504">
        <ele>1555</ele>
        <time>2010-01-02T17:24:16Z</time>
      </trkpt>
      <trkpt lat="46.24687" lon="6.85512">
        <ele>1552</ele>
        <time>2010-01-02T17:24:22Z</time>
      </trkpt>
      <trkpt lat="46.24677" lon="6.85525">
        <ele>1553</ele>
        <time>2010-01-02T17:24:27Z</time>
      </trkpt>
      <trkpt lat="46.24676" lon="6.85527">
        <ele>1553</ele>
        <time>2010-01-02T17:24:28Z</time>
      </trkpt>
      <trkpt lat="46.24667" lon="6.85549">
        <ele>1558</ele>
        <time>2010-01-02T17:24:35Z</time>
      </trkpt>
      <trkpt lat="46.24646" lon="6.85575">
        <ele>1545</ele>
        <time>2010-01-02T17:24:46Z</time>
      </trkpt>
      <trkpt lat="46.24631" lon="6.85584">
        <ele>1556</ele>
        <time>2010-01-02T17:24:52Z</time>
      </trkpt>
      <trkpt lat="46.2462" lon="6.85589">
        <ele>1553</ele>
        <time>2010-01-02T17:24:57Z</time>
      </trkpt>
      <trkpt lat="46.24601" lon="6.85591">
        <ele>1545</ele>
        <time>2010-01-02T17:25:05Z</time>
      </trkpt>
      <trkpt lat="46.24589" lon="6.85611">
        <ele>1550</ele>
        <time>2010-01-02T17:25:12Z</time>
      </trkpt>
      <trkpt lat="46.24584" lon="6.85624">
        <ele>1554</ele>
        <time>2010-01-02T17:25:16Z</time>
      </trkpt>
      <trkpt lat="46.2457" lon="6.85637">
        <ele>1537</ele>
        <time>2010-01-02T17:25:22Z</time>
      </trkpt>
      <trkpt lat="46.24558" lon="6.85654">
        <ele>1538</ele>
        <time>2010-01-02T17:25:29Z</time>
      </trkpt>
      <trkpt lat="46.24549" lon="6.85671">
        <ele>1556</ele>
        <time>2010-01-02T17:25:35Z</time>
      </trkpt>
      <trkpt lat="46.24535" lon="6.85683">
        <ele>1554</ele>
        <time>2010-01-02T17:25:42Z</time>
      </trkpt>
      <trkpt lat="46.24518" lon="6.85695">
        <ele>1552</ele>
        <time>2010-01-02T17:25:50Z</time>
      </trkpt>
      <trkpt lat="46.24501" lon="6.85703">
        <ele>1552</ele>
        <time>2010-01-02T17:25:56Z</time>
      </trkpt>
      <trkpt lat="46.24483" lon="6.85737">
        <ele>1537</ele>
        <time>2010-01-02T17:26:09Z</time>
      </trkpt>
      <trkpt lat="46.24482" lon="6.85741">
        <ele>1537</ele>
        <time>2010-01-02T17:26:10Z</time>
      </trkpt>
      <trkpt lat="46.24464" lon="6.85781">
        <ele>1540</ele>
        <time>2010-01-02T17:26:23Z</time>
      </trkpt>
      <trkpt lat="46.24449" lon="6.85828">
        <ele>1537</ele>
        <time>2010-01-02T17:26:37Z</time>
      </trkpt>
      <trkpt lat="46.24443" lon="6.85868">
        <ele>1546</ele>
        <time>2010-01-02T17:26:48Z</time>
      </trkpt>
      <trkpt lat="46.24435" lon="6.85888">
        <ele>1547</ele>
        <time>2010-01-02T17:26:55Z</time>
      </trkpt>
      <trkpt lat="46.24422" lon="6.85892">
        <ele>1544</ele>
        <time>2010-01-02T17:27:00Z</time>
      </trkpt>
      <trkpt lat="46.24404" lon="6.85896">
        <ele>1523</ele>
        <time>2010-01-02T17:27:07Z</time>
      </trkpt>
      <trkpt lat="46.24381" lon="6.85911">
        <ele>1518</ele>
        <time>2010-01-02T17:27:18Z</time>
      </trkpt>
      <trkpt lat="46.2437" lon="6.8593">
        <ele>1521</ele>
        <time>2010-01-02T17:27:24Z</time>
      </trkpt>
      <trkpt lat="46.24367" lon="6.85958">
        <ele>1522</ele>
        <time>2010-01-02T17:27:32Z</time>
      </trkpt>
      <trkpt lat="46.24361" lon="6.85975">
        <ele>1521</ele>
        <time>2010-01-02T17:27:37Z</time>
      </trkpt>
      <trkpt lat="46.24356" lon="6.8596">
        <ele>1520</ele>
        <time>2010-01-02T17:27:42Z</time>
      </trkpt>
      <trkpt lat="46.2435" lon="6.8593">
        <ele>1515</ele>
        <time>2010-01-02T17:27:51Z</time>
      </trkpt>
      <trkpt lat="46.2435" lon="6.85925">
        <ele>1514</ele>
        <time>2010-01-02T17:27:52Z</time>
      </trkpt>
      <trkpt lat="46.24356" lon="6.85889">
        <ele>1511</ele>
        <time>2010-01-02T17:28:02Z</time>
      </trkpt>
      <trkpt lat="46.24361" lon="6.85846">
        <ele>1508</ele>
        <time>2010-01-02T17:28:15Z</time>
      </trkpt>
      <trkpt lat="46.24362" lon="6.85845">
        <ele>1508</ele>
        <time>2010-01-02T17:28:15Z</time>
      </trkpt>
      <trkpt lat="46.24369" lon="6.85835">
        <ele>1509</ele>
        <time>2010-01-02T17:28:19Z</time>
      </trkpt>
      <trkpt lat="46.24375" lon="6.85826">
        <ele>1503</ele>
        <time>2010-01-02T17:28:22Z</time>
      </trkpt>
      <trkpt lat="46.2438" lon="6.85822">
        <ele>1503</ele>
        <time>2010-01-02T17:28:25Z</time>
      </trkpt>
      <trkpt lat="46.24381" lon="6.85811">
        <ele>1503</ele>
        <time>2010-01-02T17:28:28Z</time>
      </trkpt>
      <trkpt lat="46.24376" lon="6.85805">
        <ele>1501</ele>
        <time>2010-01-02T17:28:30Z</time>
      </trkpt>
      <trkpt lat="46.24368" lon="6.85815">
        <ele>1500</ele>
        <time>2010-01-02T17:28:34Z</time>
      </trkpt>
      <trkpt lat="46.2435" lon="6.85826">
        <ele>1497</ele>
        <time>2010-01-02T17:28:42Z</time>
      </trkpt>
      <trkpt lat="46.24334" lon="6.85826">
        <ele>1494</ele>
        <time>2010-01-02T17:28:49Z</time>
      </trkpt>
      <trkpt lat="46.24324" lon="6.85852">
        <ele>1488</ele>
        <time>2010-01-02T17:28:57Z</time>
      </trkpt>
      <trkpt lat="46.24311" lon="6.85882">
        <ele>1488</ele>
        <time>2010-01-02T17:29:07Z</time>
      </trkpt>
      <trkpt lat="46.24293" lon="6.85909">
        <ele>1486</ele>
        <time>2010-01-02T17:29:17Z</time>
      </trkpt>
      <trkpt lat="46.24285" lon="6.85903">
        <ele>1484</ele>
        <time>2010-01-02T17:29:21Z</time>
      </trkpt>
      <trkpt lat="46.24292" lon="6.8587">
        <ele>1484</ele>
        <time>2010-01-02T17:29:30Z</time>
      </trkpt>
      <trkpt lat="46.24299" lon="6.85849">
        <ele>1484</ele>
        <time>2010-01-02T17:29:37Z</time>
      </trkpt>
      <trkpt lat="46.243" lon="6.8583">
        <ele>1478</ele>
        <time>2010-01-02T17:29:42Z</time>
      </trkpt>
      <trkpt lat="46.24296" lon="6.85805">
        <ele>1476</ele>
        <time>2010-01-02T17:29:49Z</time>
      </trkpt>
      <trkpt lat="46.24294" lon="6.85795">
        <ele>1475</ele>
        <time>2010-01-02T17:29:52Z</time>
      </trkpt>
      <trkpt lat="46.24295" lon="6.85786">
        <ele>1474</ele>
        <time>2010-01-02T17:29:54Z</time>
      </trkpt>
      <trkpt lat="46.24307" lon="6.85779">
        <ele>1475</ele>
        <time>2010-01-02T17:29:59Z</time>
      </trkpt>
      <trkpt lat="46.24317" lon="6.85776">
        <ele>1476</ele>
        <time>2010-01-02T17:30:04Z</time>
      </trkpt>
      <trkpt lat="46.24328" lon="6.85772">
        <ele>1477</ele>
        <time>2010-01-02T17:30:08Z</time>
      </trkpt>
      <trkpt lat="46.24338" lon="6.85761">
        <ele>1487</ele>
        <time>2010-01-02T17:30:13Z</time>
      </trkpt>
      <trkpt lat="46.24348" lon="6.85747">
        <ele>1483</ele>
        <time>2010-01-02T17:30:19Z</time>
      </trkpt>
      <trkpt lat="46.24358" lon="6.85732">
        <ele>1485</ele>
        <time>2010-01-02T17:30:24Z</time>
      </trkpt>
      <trkpt lat="46.24364" lon="6.85722">
        <ele>1486</ele>
        <time>2010-01-02T17:30:28Z</time>
      </trkpt>
      <trkpt lat="46.24369" lon="6.85699">
        <ele>1484</ele>
        <time>2010-01-02T17:30:35Z</time>
      </trkpt>
      <trkpt lat="46.24378" lon="6.85688">
        <ele>1485</ele>
        <time>2010-01-02T17:30:39Z</time>
      </trkpt>
      <trkpt lat="46.24392" lon="6.85671">
        <ele>1488</ele>
        <time>2010-01-02T17:30:47Z</time>
      </trkpt>
      <trkpt lat="46.24403" lon="6.85643">
        <ele>1475</ele>
        <time>2010-01-02T17:30:56Z</time>
      </trkpt>
      <trkpt lat="46.2441" lon="6.85627">
        <ele>1472</ele>
        <time>2010-01-02T17:31:01Z</time>
      </trkpt>
      <trkpt lat="46.24418" lon="6.85613">
        <ele>1487</ele>
        <time>2010-01-02T17:31:06Z</time>
      </trkpt>
      <trkpt lat="46.24431" lon="6.85592">
        <ele>1482</ele>
        <time>2010-01-02T17:31:14Z</time>
      </trkpt>
      <trkpt lat="46.24431" lon="6.85592">
        <ele>1482</ele>
        <time>2010-01-02T17:31:14Z</time>
      </trkpt>
      <trkpt lat="46.24447" lon="6.85566">
        <ele>1472</ele>
        <time>2010-01-02T17:31:24Z</time>
      </trkpt>
      <trkpt lat="46.24457" lon="6.85551">
        <ele>1473</ele>
        <time>2010-01-02T17:31:29Z</time>
      </trkpt>
      <trkpt lat="46.24466" lon="6.85519">
        <ele>1471</ele>
        <time>2010-01-02T17:31:39Z</time>
      </trkpt>
      <trkpt lat="46.2447" lon="6.855">
        <ele>1461</ele>
        <time>2010-01-02T17:31:44Z</time>
      </trkpt>
      <trkpt lat="46.24474" lon="6.85486">
        <ele>1461</ele>
        <time>2010-01-02T17:31:49Z</time>
      </trkpt>
      <trkpt lat="46.24478" lon="6.85479">
        <ele>1461</ele>
        <time>2010-01-02T17:31:51Z</time>
      </trkpt>
      <trkpt lat="46.24479" lon="6.85477">
        <ele>1461</ele>
        <time>2010-01-02T17:31:52Z</time>
      </trkpt>
      <trkpt lat="46.24489" lon="6.85468">
        <ele>1461</ele>
        <time>2010-01-02T17:31:56Z</time>
      </trkpt>
      <trkpt lat="46.24498" lon="6.85446">
        <ele>1459</ele>
        <time>2010-01-02T17:32:03Z</time>
      </trkpt>
      <trkpt lat="46.245" lon="6.85428">
        <ele>1472</ele>
        <time>2010-01-02T17:32:08Z</time>
      </trkpt>
      <trkpt lat="46.24501" lon="6.85409">
        <ele>1466</ele>
        <time>2010-01-02T17:32:14Z</time>
      </trkpt>
      <trkpt lat="46.24502" lon="6.85383">
        <ele>1468</ele>
        <time>2010-01-02T17:32:21Z</time>
      </trkpt>
      <trkpt lat="46.24507" lon="6.85358">
        <ele>1463</ele>
        <time>2010-01-02T17:32:28Z</time>
      </trkpt>
      <trkpt lat="46.24509" lon="6.85339">
        <ele>1456</ele>
        <time>2010-01-02T17:32:33Z</time>
      </trkpt>
      <trkpt lat="46.24509" lon="6.85338">
        <ele>1455</ele>
        <time>2010-01-02T17:32:34Z</time>
      </trkpt>
      <trkpt lat="46.24521" lon="6.85308">
        <ele>1452</ele>
        <time>2010-01-02T17:32:43Z</time>
      </trkpt>
      <trkpt lat="46.24534" lon="6.85277">
        <ele>1450</ele>
        <time>2010-01-02T17:32:54Z</time>
      </trkpt>
      <trkpt lat="46.24551" lon="6.85262">
        <ele>1452</ele>
        <time>2010-01-02T17:33:01Z</time>
      </trkpt>
      <trkpt lat="46.24562" lon="6.85238">
        <ele>1441</ele>
        <time>2010-01-02T17:33:09Z</time>
      </trkpt>
      <trkpt lat="46.24568" lon="6.85225">
        <ele>1440</ele>
        <time>2010-01-02T17:33:14Z</time>
      </trkpt>
      <trkpt lat="46.24573" lon="6.85207">
        <ele>1436</ele>
        <time>2010-01-02T17:33:19Z</time>
      </trkpt>
      <trkpt lat="46.24575" lon="6.85205">
        <ele>1436</ele>
        <time>2010-01-02T17:33:20Z</time>
      </trkpt>
      <trkpt lat="46.24575" lon="6.85204">
        <ele>1436</ele>
        <time>2010-01-02T17:33:20Z</time>
      </trkpt>
      <trkpt lat="46.24606" lon="6.85166">
        <ele>1432</ele>
        <time>2010-01-02T17:33:36Z</time>
      </trkpt>
      <trkpt lat="46.24617" lon="6.85153">
        <ele>1431</ele>
        <time>2010-01-02T17:33:42Z</time>
      </trkpt>
      <trkpt lat="46.24618" lon="6.85151">
        <ele>1431</ele>
        <time>2010-01-02T17:33:43Z</time>
      </trkpt>
      <trkpt lat="46.24639" lon="6.85131">
        <ele>1430</ele>
        <time>2010-01-02T17:33:53Z</time>
      </trkpt>
      <trkpt lat="46.2464" lon="6.85131">
        <ele>1430</ele>
        <time>2010-01-02T17:33:53Z</time>
      </trkpt>
      <trkpt lat="46.24654" lon="6.85127">
        <ele>1431</ele>
        <time>2010-01-02T17:33:59Z</time>
      </trkpt>
      <trkpt lat="46.24656" lon="6.85126">
        <ele>1430</ele>
        <time>2010-01-02T17:34:00Z</time>
      </trkpt>
      <trkpt lat="46.24677" lon="6.85117">
        <ele>1439</ele>
        <time>2010-01-02T17:34:09Z</time>
      </trkpt>
      <trkpt lat="46.24677" lon="6.85117">
        <ele>1439</ele>
        <time>2010-01-02T17:34:09Z</time>
      </trkpt>
      <trkpt lat="46.24697" lon="6.85113">
        <ele>1440</ele>
        <time>2010-01-02T17:34:17Z</time>
      </trkpt>
      <trkpt lat="46.24701" lon="6.85111">
        <ele>1440</ele>
        <time>2010-01-02T17:34:18Z</time>
      </trkpt>
      <trkpt lat="46.24718" lon="6.85105">
        <ele>1441</ele>
        <time>2010-01-02T17:34:26Z</time>
      </trkpt>
      <trkpt lat="46.24719" lon="6.85104">
        <ele>1441</ele>
        <time>2010-01-02T17:34:26Z</time>
      </trkpt>
      <trkpt lat="46.2473" lon="6.85098">
        <ele>1441</ele>
        <time>2010-01-02T17:34:30Z</time>
      </trkpt>
      <trkpt lat="46.24742" lon="6.85085">
        <ele>1439</ele>
        <time>2010-01-02T17:34:36Z</time>
      </trkpt>
      <trkpt lat="46.24753" lon="6.85063">
        <ele>1438</ele>
        <time>2010-01-02T17:34:44Z</time>
      </trkpt>
      <trkpt lat="46.24757" lon="6.85015">
        <ele>1428</ele>
        <time>2010-01-02T17:34:57Z</time>
      </trkpt>
      <trkpt lat="46.24761" lon="6.84985">
        <ele>1417</ele>
        <time>2010-01-02T17:35:06Z</time>
      </trkpt>
      <trkpt lat="46.24761" lon="6.84983">
        <ele>1417</ele>
        <time>2010-01-02T17:35:06Z</time>
      </trkpt>
      <trkpt lat="46.24772" lon="6.84959">
        <ele>1416</ele>
        <time>2010-01-02T17:35:14Z</time>
      </trkpt>
      <trkpt lat="46.24773" lon="6.84955">
        <ele>1415</ele>
        <time>2010-01-02T17:35:16Z</time>
      </trkpt>
      <trkpt lat="46.24774" lon="6.84953">
        <ele>1415</ele>
        <time>2010-01-02T17:35:16Z</time>
      </trkpt>
      <trkpt lat="46.24786" lon="6.84934">
        <ele>1414</ele>
        <time>2010-01-02T17:35:23Z</time>
      </trkpt>
      <trkpt lat="46.24796" lon="6.84914">
        <ele>1403</ele>
        <time>2010-01-02T17:35:30Z</time>
      </trkpt>
      <trkpt lat="46.24818" lon="6.84874">
        <ele>1401</ele>
        <time>2010-01-02T17:35:44Z</time>
      </trkpt>
      <trkpt lat="46.24832" lon="6.8484">
        <ele>1398</ele>
        <time>2010-01-02T17:35:55Z</time>
      </trkpt>
      <trkpt lat="46.2485" lon="6.84825">
        <ele>1393</ele>
        <time>2010-01-02T17:36:03Z</time>
      </trkpt>
      <trkpt lat="46.2487" lon="6.84821">
        <ele>1392</ele>
        <time>2010-01-02T17:36:12Z</time>
      </trkpt>
      <trkpt lat="46.24888" lon="6.84818">
        <ele>1392</ele>
        <time>2010-01-02T17:36:19Z</time>
      </trkpt>
      <trkpt lat="46.24889" lon="6.84818">
        <ele>1392</ele>
        <time>2010-01-02T17:36:19Z</time>
      </trkpt>
      <trkpt lat="46.24908" lon="6.84811">
        <ele>1393</ele>
        <time>2010-01-02T17:36:27Z</time>
      </trkpt>
      <trkpt lat="46.24912" lon="6.84809">
        <ele>1393</ele>
        <time>2010-01-02T17:36:29Z</time>
      </trkpt>
      <trkpt lat="46.24913" lon="6.84809">
        <ele>1393</ele>
        <time>2010-01-02T17:36:29Z</time>
      </trkpt>
      <trkpt lat="46.24927" lon="6.84798">
        <ele>1396</ele>
        <time>2010-01-02T17:36:36Z</time>
      </trkpt>
      <trkpt lat="46.24946" lon="6.8478">
        <ele>1395</ele>
        <time>2010-01-02T17:36:45Z</time>
      </trkpt>
      <trkpt lat="46.24946" lon="6.84779">
        <ele>1394</ele>
        <time>2010-01-02T17:36:45Z</time>
      </trkpt>
      <trkpt lat="46.24954" lon="6.84765">
        <ele>1394</ele>
        <time>2010-01-02T17:36:50Z</time>
      </trkpt>
      <trkpt lat="46.24961" lon="6.84748">
        <ele>1385</ele>
        <time>2010-01-02T17:36:55Z</time>
      </trkpt>
      <trkpt lat="46.24974" lon="6.84735">
        <ele>1386</ele>
        <time>2010-01-02T17:37:02Z</time>
      </trkpt>
      <trkpt lat="46.24986" lon="6.84722">
        <ele>1386</ele>
        <time>2010-01-02T17:37:08Z</time>
      </trkpt>
      <trkpt lat="46.24982" lon="6.84709">
        <ele>1384</ele>
        <time>2010-01-02T17:37:12Z</time>
      </trkpt>
      <trkpt lat="46.24974" lon="6.84707">
        <ele>1384</ele>
        <time>2010-01-02T17:37:15Z</time>
      </trkpt>
      <trkpt lat="46.24969" lon="6.8471">
        <ele>1384</ele>
        <time>2010-01-02T17:37:17Z</time>
      </trkpt>
      <trkpt lat="46.24955" lon="6.84729">
        <ele>1384</ele>
        <time>2010-01-02T17:37:25Z</time>
      </trkpt>
      <trkpt lat="46.24944" lon="6.84742">
        <ele>1383</ele>
        <time>2010-01-02T17:37:31Z</time>
      </trkpt>
      <trkpt lat="46.24925" lon="6.84748">
        <ele>1382</ele>
        <time>2010-01-02T17:37:38Z</time>
      </trkpt>
      <trkpt lat="46.24918" lon="6.84752">
        <ele>1382</ele>
        <time>2010-01-02T17:37:41Z</time>
      </trkpt>
      <trkpt lat="46.24926" lon="6.84728">
        <ele>1382</ele>
        <time>2010-01-02T17:37:48Z</time>
      </trkpt>
      <trkpt lat="46.24932" lon="6.84702">
        <ele>1381</ele>
        <time>2010-01-02T17:37:56Z</time>
      </trkpt>
      <trkpt lat="46.24933" lon="6.84701">
        <ele>1381</ele>
        <time>2010-01-02T17:37:57Z</time>
      </trkpt>
      <trkpt lat="46.24945" lon="6.84679">
        <ele>1381</ele>
        <time>2010-01-02T17:38:04Z</time>
      </trkpt>
      <trkpt lat="46.2495" lon="6.8465">
        <ele>1382</ele>
        <time>2010-01-02T17:38:13Z</time>
      </trkpt>
      <trkpt lat="46.24956" lon="6.84628">
        <ele>1384</ele>
        <time>2010-01-02T17:38:19Z</time>
      </trkpt>
      <trkpt lat="46.24959" lon="6.84613">
        <ele>1385</ele>
        <time>2010-01-02T17:38:24Z</time>
      </trkpt>
      <trkpt lat="46.24951" lon="6.84597">
        <ele>1386</ele>
        <time>2010-01-02T17:38:29Z</time>
      </trkpt>
      <trkpt lat="46.24945" lon="6.8459">
        <ele>1387</ele>
        <time>2010-01-02T17:38:32Z</time>
      </trkpt>
      <trkpt lat="46.24929" lon="6.84596">
        <ele>1389</ele>
        <time>2010-01-02T17:38:39Z</time>
      </trkpt>
      <trkpt lat="46.24912" lon="6.84604">
        <ele>1391</ele>
        <time>2010-01-02T17:38:46Z</time>
      </trkpt>
      <trkpt lat="46.24822" lon="6.84633">
        <ele>1390</ele>
        <time>2010-01-02T17:39:23Z</time>
      </trkpt>
      <trkpt lat="46.24783" lon="6.84648">
        <ele>1387</ele>
        <time>2010-01-02T17:39:39Z</time>
      </trkpt>
      <trkpt lat="46.24759" lon="6.84649">
        <ele>1384</ele>
        <time>2010-01-02T17:39:49Z</time>
      </trkpt>
      <trkpt lat="46.24734" lon="6.84652">
        <ele>1388</ele>
        <time>2010-01-02T17:39:59Z</time>
      </trkpt>
      <trkpt lat="46.24706" lon="6.8466">
        <ele>1393</ele>
        <time>2010-01-02T17:40:10Z</time>
      </trkpt>
      <trkpt lat="46.24677" lon="6.84674">
        <ele>1385</ele>
        <time>2010-01-02T17:40:22Z</time>
      </trkpt>
      <trkpt lat="46.24646" lon="6.84677">
        <ele>1385</ele>
        <time>2010-01-02T17:40:35Z</time>
      </trkpt>
      <trkpt lat="46.24627" lon="6.84686">
        <ele>1384</ele>
        <time>2010-01-02T17:40:43Z</time>
      </trkpt>
      <trkpt lat="46.24607" lon="6.84701">
        <ele>1382</ele>
        <time>2010-01-02T17:40:52Z</time>
      </trkpt>
      <trkpt lat="46.2458" lon="6.84715">
        <ele>1383</ele>
        <time>2010-01-02T17:41:03Z</time>
      </trkpt>
      <trkpt lat="46.24567" lon="6.84727">
        <ele>1380</ele>
        <time>2010-01-02T17:41:09Z</time>
      </trkpt>
      <trkpt lat="46.24547" lon="6.84727">
        <ele>1383</ele>
        <time>2010-01-02T17:41:18Z</time>
      </trkpt>
      <trkpt lat="46.24515" lon="6.84734">
        <ele>1381</ele>
        <time>2010-01-02T17:41:30Z</time>
      </trkpt>
      <trkpt lat="46.24501" lon="6.8474">
        <ele>1378</ele>
        <time>2010-01-02T17:41:36Z</time>
      </trkpt>
      <trkpt lat="46.24481" lon="6.84751">
        <ele>1375</ele>
        <time>2010-01-02T17:41:45Z</time>
      </trkpt>
      <trkpt lat="46.24458" lon="6.8477">
        <ele>1377</ele>
        <time>2010-01-02T17:41:55Z</time>
      </trkpt>
      <trkpt lat="46.24443" lon="6.84788">
        <ele>1378</ele>
        <time>2010-01-02T17:42:03Z</time>
      </trkpt>
      <trkpt lat="46.24428" lon="6.8481">
        <ele>1379</ele>
        <time>2010-01-02T17:42:12Z</time>
      </trkpt>
      <trkpt lat="46.24417" lon="6.84833">
        <ele>1382</ele>
        <time>2010-01-02T17:42:20Z</time>
      </trkpt>
      <trkpt lat="46.24418" lon="6.84852">
        <ele>1378</ele>
        <time>2010-01-02T17:42:25Z</time>
      </trkpt>
      <trkpt lat="46.24419" lon="6.84874">
        <ele>1376</ele>
        <time>2010-01-02T17:42:31Z</time>
      </trkpt>
      <trkpt lat="46.24421" lon="6.84889">
        <ele>1376</ele>
        <time>2010-01-02T17:42:35Z</time>
      </trkpt>
      <trkpt lat="46.24416" lon="6.8491">
        <ele>1380</ele>
        <time>2010-01-02T17:42:41Z</time>
      </trkpt>
      <trkpt lat="46.24395" lon="6.84939">
        <ele>1384</ele>
        <time>2010-01-02T17:42:53Z</time>
      </trkpt>
      <trkpt lat="46.24371" lon="6.84968">
        <ele>1387</ele>
        <time>2010-01-02T17:43:06Z</time>
      </trkpt>
      <trkpt lat="46.24355" lon="6.84986">
        <ele>1388</ele>
        <time>2010-01-02T17:43:13Z</time>
      </trkpt>
      <trkpt lat="46.24342" lon="6.85018">
        <ele>1384</ele>
        <time>2010-01-02T17:43:24Z</time>
      </trkpt>
      <trkpt lat="46.24328" lon="6.85032">
        <ele>1389</ele>
        <time>2010-01-02T17:43:31Z</time>
      </trkpt>
      <trkpt lat="46.24309" lon="6.85047">
        <ele>1389</ele>
        <time>2010-01-02T17:43:39Z</time>
      </trkpt>
      <trkpt lat="46.24291" lon="6.85053">
        <ele>1390</ele>
        <time>2010-01-02T17:43:47Z</time>
      </trkpt>
      <trkpt lat="46.24262" lon="6.85076">
        <ele>1389</ele>
        <time>2010-01-02T17:44:00Z</time>
      </trkpt>
      <trkpt lat="46.24244" lon="6.85081">
        <ele>1389</ele>
        <time>2010-01-02T17:44:07Z</time>
      </trkpt>
      <trkpt lat="46.2423" lon="6.85086">
        <ele>1377</ele>
        <time>2010-01-02T17:44:13Z</time>
      </trkpt>
      <trkpt lat="46.24217" lon="6.85091">
        <ele>1374</ele>
        <time>2010-01-02T17:44:19Z</time>
      </trkpt>
      <trkpt lat="46.24203" lon="6.85095">
        <ele>1372</ele>
        <time>2010-01-02T17:44:24Z</time>
      </trkpt>
      <trkpt lat="46.24192" lon="6.85095">
        <ele>1371</ele>
        <time>2010-01-02T17:44:29Z</time>
      </trkpt>
      <trkpt lat="46.24175" lon="6.85088">
        <ele>1372</ele>
        <time>2010-01-02T17:44:36Z</time>
      </trkpt>
      <trkpt lat="46.24152" lon="6.85098">
        <ele>1367</ele>
        <time>2010-01-02T17:44:45Z</time>
      </trkpt>
      <trkpt lat="46.24133" lon="6.85095">
        <ele>1365</ele>
        <time>2010-01-02T17:44:53Z</time>
      </trkpt>
      <trkpt lat="46.24113" lon="6.85092">
        <ele>1364</ele>
        <time>2010-01-02T17:45:01Z</time>
      </trkpt>
      <trkpt lat="46.241" lon="6.85095">
        <ele>1365</ele>
        <time>2010-01-02T17:45:06Z</time>
      </trkpt>
      <trkpt lat="46.24085" lon="6.85103">
        <ele>1364</ele>
        <time>2010-01-02T17:45:13Z</time>
      </trkpt>
      <trkpt lat="46.24076" lon="6.85099">
        <ele>1363</ele>
        <time>2010-01-02T17:45:16Z</time>
      </trkpt>
      <trkpt lat="46.24061" lon="6.85103">
        <ele>1362</ele>
        <time>2010-01-02T17:45:22Z</time>
      </trkpt>
      <trkpt lat="46.24041" lon="6.8511">
        <ele>1361</ele>
        <time>2010-01-02T17:45:30Z</time>
      </trkpt>
      <trkpt lat="46.24031" lon="6.85112">
        <ele>1361</ele>
        <time>2010-01-02T17:45:35Z</time>
      </trkpt>
      <trkpt lat="46.24015" lon="6.85116">
        <ele>1361</ele>
        <time>2010-01-02T17:45:41Z</time>
      </trkpt>
      <trkpt lat="46.23992" lon="6.85119">
        <ele>1359</ele>
        <time>2010-01-02T17:45:50Z</time>
      </trkpt>
      <trkpt lat="46.23971" lon="6.85115">
        <ele>1358</ele>
        <time>2010-01-02T17:45:59Z</time>
      </trkpt>
      <trkpt lat="46.23957" lon="6.85107">
        <ele>1358</ele>
        <time>2010-01-02T17:46:05Z</time>
      </trkpt>
      <trkpt lat="46.23934" lon="6.85098">
        <ele>1359</ele>
        <time>2010-01-02T17:46:14Z</time>
      </trkpt>
      <trkpt lat="46.23907" lon="6.85094">
        <ele>1357</ele>
        <time>2010-01-02T17:46:25Z</time>
      </trkpt>
      <trkpt lat="46.23888" lon="6.85095">
        <ele>1356</ele>
        <time>2010-01-02T17:46:33Z</time>
      </trkpt>
      <trkpt lat="46.23873" lon="6.85106">
        <ele>1355</ele>
        <time>2010-01-02T17:46:40Z</time>
      </trkpt>
      <trkpt lat="46.23857" lon="6.8511">
        <ele>1354</ele>
        <time>2010-01-02T17:46:46Z</time>
      </trkpt>
      <trkpt lat="46.23842" lon="6.85115">
        <ele>1354</ele>
        <time>2010-01-02T17:46:52Z</time>
      </trkpt>
      <trkpt lat="46.23839" lon="6.85127">
        <ele>1353</ele>
        <time>2010-01-02T17:46:56Z</time>
      </trkpt>
      <trkpt lat="46.23827" lon="6.85137">
        <ele>1352</ele>
        <time>2010-01-02T17:47:01Z</time>
      </trkpt>
      <trkpt lat="46.23811" lon="6.85145">
        <ele>1352</ele>
        <time>2010-01-02T17:47:08Z</time>
      </trkpt>
      <trkpt lat="46.23788" lon="6.85155">
        <ele>1352</ele>
        <time>2010-01-02T17:47:18Z</time>
      </trkpt>
      <trkpt lat="46.23754" lon="6.85174">
        <ele>1349</ele>
        <time>2010-01-02T17:47:32Z</time>
      </trkpt>
      <trkpt lat="46.23742" lon="6.85188">
        <ele>1347</ele>
        <time>2010-01-02T17:47:39Z</time>
      </trkpt>
      <trkpt lat="46.23727" lon="6.852">
        <ele>1346</ele>
        <time>2010-01-02T17:47:45Z</time>
      </trkpt>
      <trkpt lat="46.23708" lon="6.85235">
        <ele>1344</ele>
        <time>2010-01-02T17:47:58Z</time>
      </trkpt>
      <trkpt lat="46.23688" lon="6.85258">
        <ele>1340</ele>
        <time>2010-01-02T17:48:08Z</time>
      </trkpt>
      <trkpt lat="46.23675" lon="6.8528">
        <ele>1339</ele>
        <time>2010-01-02T17:48:16Z</time>
      </trkpt>
      <trkpt lat="46.23656" lon="6.85297">
        <ele>1338</ele>
        <time>2010-01-02T17:48:25Z</time>
      </trkpt>
      <trkpt lat="46.23632" lon="6.85308">
        <ele>1338</ele>
        <time>2010-01-02T17:48:35Z</time>
      </trkpt>
      <trkpt lat="46.2362" lon="6.85345">
        <ele>1337</ele>
        <time>2010-01-02T17:48:46Z</time>
      </trkpt>
      <trkpt lat="46.23618" lon="6.8537">
        <ele>1337</ele>
        <time>2010-01-02T17:48:53Z</time>
      </trkpt>
      <trkpt lat="46.23627" lon="6.85385">
        <ele>1337</ele>
        <time>2010-01-02T17:48:59Z</time>
      </trkpt>
      <trkpt lat="46.2365" lon="6.85394">
        <ele>1335</ele>
        <time>2010-01-02T17:49:08Z</time>
      </trkpt>
      <trkpt lat="46.23671" lon="6.85418">
        <ele>1330</ele>
        <time>2010-01-02T17:49:19Z</time>
      </trkpt>
      <trkpt lat="46.23682" lon="6.85432">
        <ele>1328</ele>
        <time>2010-01-02T17:49:25Z</time>
      </trkpt>
      <trkpt lat="46.23692" lon="6.85457">
        <ele>1327</ele>
        <time>2010-01-02T17:49:33Z</time>
      </trkpt>
      <trkpt lat="46.23697" lon="6.85525">
        <ele>1322</ele>
        <time>2010-01-02T17:49:52Z</time>
      </trkpt>
      <trkpt lat="46.23695" lon="6.85578">
        <ele>1320</ele>
        <time>2010-01-02T17:50:07Z</time>
      </trkpt>
      <trkpt lat="46.23707" lon="6.85637">
        <ele>1317</ele>
        <time>2010-01-02T17:50:23Z</time>
      </trkpt>
      <trkpt lat="46.23707" lon="6.85707">
        <ele>1316</ele>
        <time>2010-01-02T17:50:43Z</time>
      </trkpt>
      <trkpt lat="46.23706" lon="6.85764">
        <ele>1315</ele>
        <time>2010-01-02T17:50:59Z</time>
      </trkpt>
      <trkpt lat="46.23692" lon="6.85805">
        <ele>1316</ele>
        <time>2010-01-02T17:51:11Z</time>
      </trkpt>
      <trkpt lat="46.2367" lon="6.85812">
        <ele>1316</ele>
        <time>2010-01-02T17:51:20Z</time>
      </trkpt>
      <trkpt lat="46.2365" lon="6.85822">
        <ele>1324</ele>
        <time>2010-01-02T17:51:29Z</time>
      </trkpt>
      <trkpt lat="46.2363" lon="6.85832">
        <ele>1327</ele>
        <time>2010-01-02T17:51:37Z</time>
      </trkpt>
      <trkpt lat="46.23606" lon="6.85831">
        <ele>1332</ele>
        <time>2010-01-02T17:51:47Z</time>
      </trkpt>
      <trkpt lat="46.23585" lon="6.85841">
        <ele>1336</ele>
        <time>2010-01-02T17:51:56Z</time>
      </trkpt>
      <trkpt lat="46.23562" lon="6.85853">
        <ele>1358</ele>
        <time>2010-01-02T17:52:06Z</time>
      </trkpt>
      <trkpt lat="46.23514" lon="6.85861">
        <ele>1374</ele>
        <time>2010-01-02T17:52:25Z</time>
      </trkpt>
      <trkpt lat="46.2347" lon="6.85861">
        <ele>1415</ele>
        <time>2010-01-02T17:52:42Z</time>
      </trkpt>
      <trkpt lat="46.23446" lon="6.85881">
        <ele>1424</ele>
        <time>2010-01-02T17:52:54Z</time>
      </trkpt>
      <trkpt lat="46.23404" lon="6.85885">
        <ele>1467</ele>
        <time>2010-01-02T17:53:10Z</time>
      </trkpt>
      <trkpt lat="46.23317" lon="6.85913">
        <ele>1518</ele>
        <time>2010-01-02T17:53:46Z</time>
      </trkpt>
      <trkpt lat="46.23281" lon="6.85922">
        <ele>1536</ele>
        <time>2010-01-02T17:54:01Z</time>
      </trkpt>
      <trkpt lat="46.23258" lon="6.85927">
        <ele>1544</ele>
        <time>2010-01-02T17:54:10Z</time>
      </trkpt>
      <trkpt lat="46.23244" lon="6.8593">
        <ele>1560</ele>
        <time>2010-01-02T17:54:16Z</time>
      </trkpt>
      <trkpt lat="46.2322" lon="6.85937">
        <ele>1567</ele>
        <time>2010-01-02T17:54:26Z</time>
      </trkpt>
      <trkpt lat="46.23192" lon="6.85945">
        <ele>1574</ele>
        <time>2010-01-02T17:54:37Z</time>
      </trkpt>
      <trkpt lat="46.23168" lon="6.85954">
        <ele>1577</ele>
        <time>2010-01-02T17:54:47Z</time>
      </trkpt>
      <trkpt lat="46.23108" lon="6.8597">
        <ele>1601</ele>
        <time>2010-01-02T17:55:11Z</time>
      </trkpt>
      <trkpt lat="46.2307" lon="6.85975">
        <ele>1623</ele>
        <time>2010-01-02T17:55:26Z</time>
      </trkpt>
      <trkpt lat="46.23048" lon="6.8598">
        <ele>1628</ele>
        <time>2010-01-02T17:55:35Z</time>
      </trkpt>
      <trkpt lat="46.23037" lon="6.85986">
        <ele>1631</ele>
        <time>2010-01-02T17:55:40Z</time>
      </trkpt>
      <trkpt lat="46.23021" lon="6.85991">
        <ele>1635</ele>
        <time>2010-01-02T17:55:47Z</time>
      </trkpt>
      <trkpt lat="46.22962" lon="6.86009">
        <ele>1653</ele>
        <time>2010-01-02T17:56:11Z</time>
      </trkpt>
      <trkpt lat="46.229" lon="6.86026">
        <ele>1677</ele>
        <time>2010-01-02T17:56:36Z</time>
      </trkpt>
      <trkpt lat="46.22784" lon="6.86057">
        <ele>1705</ele>
        <time>2010-01-02T17:57:23Z</time>
      </trkpt>
      <trkpt lat="46.22713" lon="6.86073">
        <ele>1734</ele>
        <time>2010-01-02T17:57:52Z</time>
      </trkpt>
      <trkpt lat="46.22655" lon="6.86089">
        <ele>1764</ele>
        <time>2010-01-02T17:58:16Z</time>
      </trkpt>
      <trkpt lat="46.22601" lon="6.86106">
        <ele>1777</ele>
        <time>2010-01-02T17:58:38Z</time>
      </trkpt>
      <trkpt lat="46.22547" lon="6.86121">
        <ele>1798</ele>
        <time>2010-01-02T17:59:00Z</time>
      </trkpt>
      <trkpt lat="46.2252" lon="6.86128">
        <ele>1802</ele>
        <time>2010-01-02T17:59:11Z</time>
      </trkpt>
      <trkpt lat="46.22509" lon="6.86133">
        <ele>1803</ele>
        <time>2010-01-02T17:59:15Z</time>
      </trkpt>
      <trkpt lat="46.22501" lon="6.86134">
        <ele>1803</ele>
        <time>2010-01-02T17:59:19Z</time>
      </trkpt>
      <trkpt lat="46.22499" lon="6.86133">
        <ele>1810</ele>
        <time>2010-01-02T17:59:20Z</time>
      </trkpt>
      <trkpt lat="46.22497" lon="6.8613">
        <ele>1810</ele>
        <time>2010-01-02T17:59:20Z</time>
      </trkpt>
      <trkpt lat="46.22494" lon="6.86131">
        <ele>1810</ele>
        <time>2010-01-02T17:59:22Z</time>
      </trkpt>
      <trkpt lat="46.22484" lon="6.86134">
        <ele>1810</ele>
        <time>2010-01-02T17:59:26Z</time>
      </trkpt>
      <trkpt lat="46.22458" lon="6.86153">
        <ele>1809</ele>
        <time>2010-01-02T17:59:38Z</time>
      </trkpt>
      <trkpt lat="46.22432" lon="6.86168">
        <ele>1803</ele>
        <time>2010-01-02T17:59:49Z</time>
      </trkpt>
      <trkpt lat="46.22413" lon="6.86179">
        <ele>1798</ele>
        <time>2010-01-02T17:59:57Z</time>
      </trkpt>
      <trkpt lat="46.22404" lon="6.86183">
        <ele>1796</ele>
        <time>2010-01-02T18:00:01Z</time>
      </trkpt>
      <trkpt lat="46.22394" lon="6.86184">
        <ele>1794</ele>
        <time>2010-01-02T18:00:05Z</time>
      </trkpt>
      <trkpt lat="46.22368" lon="6.86182">
        <ele>1790</ele>
        <time>2010-01-02T18:00:15Z</time>
      </trkpt>
      <trkpt lat="46.22354" lon="6.86179">
        <ele>1789</ele>
        <time>2010-01-02T18:00:21Z</time>
      </trkpt>
      <trkpt lat="46.22338" lon="6.86172">
        <ele>1789</ele>
        <time>2010-01-02T18:00:28Z</time>
      </trkpt>
      <trkpt lat="46.2233" lon="6.86168">
        <ele>1786</ele>
        <time>2010-01-02T18:00:31Z</time>
      </trkpt>
      <trkpt lat="46.22325" lon="6.86168">
        <ele>1784</ele>
        <time>2010-01-02T18:00:33Z</time>
      </trkpt>
      <trkpt lat="46.22322" lon="6.86168">
        <ele>1782</ele>
        <time>2010-01-02T18:00:34Z</time>
      </trkpt>
      <trkpt lat="46.22317" lon="6.86168">
        <ele>1780</ele>
        <time>2010-01-02T18:00:36Z</time>
      </trkpt>
      <trkpt lat="46.22312" lon="6.86169">
        <ele>1778</ele>
        <time>2010-01-02T18:00:38Z</time>
      </trkpt>
      <trkpt lat="46.22307" lon="6.86167">
        <ele>1777</ele>
        <time>2010-01-02T18:00:40Z</time>
      </trkpt>
      <trkpt lat="46.22302" lon="6.86168">
        <ele>1776</ele>
        <time>2010-01-02T18:00:42Z</time>
      </trkpt>
      <trkpt lat="46.22292" lon="6.86173">
        <ele>1774</ele>
        <time>2010-01-02T18:00:46Z</time>
      </trkpt>
      <trkpt lat="46.22287" lon="6.86174">
        <ele>1773</ele>
        <time>2010-01-02T18:00:48Z</time>
      </trkpt>
      <trkpt lat="46.22279" lon="6.86182">
        <ele>1772</ele>
        <time>2010-01-02T18:00:52Z</time>
      </trkpt>
      <trkpt lat="46.22274" lon="6.86184">
        <ele>1771</ele>
        <time>2010-01-02T18:00:54Z</time>
      </trkpt>
      <trkpt lat="46.22262" lon="6.86192">
        <ele>1770</ele>
        <time>2010-01-02T18:01:00Z</time>
      </trkpt>
      <trkpt lat="46.22253" lon="6.86194">
        <ele>1769</ele>
        <time>2010-01-02T18:01:03Z</time>
      </trkpt>
      <trkpt lat="46.22238" lon="6.86192">
        <ele>1758</ele>
        <time>2010-01-02T18:01:09Z</time>
      </trkpt>
      <trkpt lat="46.22232" lon="6.86189">
        <ele>1758</ele>
        <time>2010-01-02T18:01:12Z</time>
      </trkpt>
      <trkpt lat="46.22226" lon="6.86189">
        <ele>1757</ele>
        <time>2010-01-02T18:01:14Z</time>
      </trkpt>
      <trkpt lat="46.2222" lon="6.86188">
        <ele>1756</ele>
        <time>2010-01-02T18:01:17Z</time>
      </trkpt>
      <trkpt lat="46.22201" lon="6.86188">
        <ele>1753</ele>
        <time>2010-01-02T18:01:24Z</time>
      </trkpt>
      <trkpt lat="46.22195" lon="6.8619">
        <ele>1752</ele>
        <time>2010-01-02T18:01:27Z</time>
      </trkpt>
      <trkpt lat="46.22188" lon="6.86194">
        <ele>1751</ele>
        <time>2010-01-02T18:01:30Z</time>
      </trkpt>
      <trkpt lat="46.22178" lon="6.86198">
        <ele>1750</ele>
        <time>2010-01-02T18:01:34Z</time>
      </trkpt>
      <trkpt lat="46.22171" lon="6.86205">
        <ele>1749</ele>
        <time>2010-01-02T18:01:37Z</time>
      </trkpt>
      <trkpt lat="46.22164" lon="6.8621">
        <ele>1736</ele>
        <time>2010-01-02T18:01:41Z</time>
      </trkpt>
      <trkpt lat="46.22156" lon="6.86218">
        <ele>1735</ele>
        <time>2010-01-02T18:01:44Z</time>
      </trkpt>
      <trkpt lat="46.22144" lon="6.8623">
        <ele>1734</ele>
        <time>2010-01-02T18:01:50Z</time>
      </trkpt>
      <trkpt lat="46.22138" lon="6.86228">
        <ele>1733</ele>
        <time>2010-01-02T18:01:53Z</time>
      </trkpt>
      <trkpt lat="46.22134" lon="6.86224">
        <ele>1733</ele>
        <time>2010-01-02T18:01:55Z</time>
      </trkpt>
      <trkpt lat="46.22132" lon="6.86217">
        <ele>1733</ele>
        <time>2010-01-02T18:01:57Z</time>
      </trkpt>
      <trkpt lat="46.22132" lon="6.86216">
        <ele>1733</ele>
        <time>2010-01-02T18:01:57Z</time>
      </trkpt>
      <trkpt lat="46.2213" lon="6.86207">
        <ele>1734</ele>
        <time>2010-01-02T18:02:00Z</time>
      </trkpt>
      <trkpt lat="46.22119" lon="6.86188">
        <ele>1734</ele>
        <time>2010-01-02T18:02:06Z</time>
      </trkpt>
      <trkpt lat="46.22114" lon="6.86182">
        <ele>1733</ele>
        <time>2010-01-02T18:02:09Z</time>
      </trkpt>
      <trkpt lat="46.22106" lon="6.86179">
        <ele>1732</ele>
        <time>2010-01-02T18:02:12Z</time>
      </trkpt>
      <trkpt lat="46.22092" lon="6.86177">
        <ele>1730</ele>
        <time>2010-01-02T18:02:18Z</time>
      </trkpt>
      <trkpt lat="46.22083" lon="6.86172">
        <ele>1725</ele>
        <time>2010-01-02T18:02:22Z</time>
      </trkpt>
      <trkpt lat="46.22075" lon="6.86169">
        <ele>1724</ele>
        <time>2010-01-02T18:02:25Z</time>
      </trkpt>
      <trkpt lat="46.22074" lon="6.86158">
        <ele>1726</ele>
        <time>2010-01-02T18:02:28Z</time>
      </trkpt>
      <trkpt lat="46.22072" lon="6.8612">
        <ele>1727</ele>
        <time>2010-01-02T18:02:39Z</time>
      </trkpt>
      <trkpt lat="46.2207" lon="6.86089">
        <ele>1731</ele>
        <time>2010-01-02T18:02:47Z</time>
      </trkpt>
      <trkpt lat="46.22064" lon="6.86072">
        <ele>1735</ele>
        <time>2010-01-02T18:02:52Z</time>
      </trkpt>
      <trkpt lat="46.22053" lon="6.86056">
        <ele>1735</ele>
        <time>2010-01-02T18:02:59Z</time>
      </trkpt>
      <trkpt lat="46.22034" lon="6.86029">
        <ele>1736</ele>
        <time>2010-01-02T18:03:09Z</time>
      </trkpt>
      <trkpt lat="46.22024" lon="6.86015">
        <ele>1735</ele>
        <time>2010-01-02T18:03:15Z</time>
      </trkpt>
      <trkpt lat="46.22016" lon="6.85992">
        <ele>1741</ele>
        <time>2010-01-02T18:03:22Z</time>
      </trkpt>
      <trkpt lat="46.22011" lon="6.85973">
        <ele>1743</ele>
        <time>2010-01-02T18:03:28Z</time>
      </trkpt>
      <trkpt lat="46.22009" lon="6.85965">
        <ele>1744</ele>
        <time>2010-01-02T18:03:30Z</time>
      </trkpt>
      <trkpt lat="46.21984" lon="6.85949">
        <ele>1736</ele>
        <time>2010-01-02T18:03:41Z</time>
      </trkpt>
      <trkpt lat="46.21951" lon="6.8593">
        <ele>1736</ele>
        <time>2010-01-02T18:03:55Z</time>
      </trkpt>
      <trkpt lat="46.21944" lon="6.85925">
        <ele>1736</ele>
        <time>2010-01-02T18:03:58Z</time>
      </trkpt>
      <trkpt lat="46.21937" lon="6.85927">
        <ele>1736</ele>
        <time>2010-01-02T18:04:01Z</time>
      </trkpt>
      <trkpt lat="46.21927" lon="6.85933">
        <ele>1736</ele>
        <time>2010-01-02T18:04:05Z</time>
      </trkpt>
      <trkpt lat="46.2191" lon="6.8594">
        <ele>1735</ele>
        <time>2010-01-02T18:04:13Z</time>
      </trkpt>
      <trkpt lat="46.21898" lon="6.85942">
        <ele>1735</ele>
        <time>2010-01-02T18:04:17Z</time>
      </trkpt>
      <trkpt lat="46.2187" lon="6.85946">
        <ele>1735</ele>
        <time>2010-01-02T18:04:29Z</time>
      </trkpt>
      <trkpt lat="46.21841" lon="6.85949">
        <ele>1736</ele>
        <time>2010-01-02T18:04:40Z</time>
      </trkpt>
      <trkpt lat="46.2183" lon="6.85955">
        <ele>1740</ele>
        <time>2010-01-02T18:04:45Z</time>
      </trkpt>
      <trkpt lat="46.21809" lon="6.85963">
        <ele>1740</ele>
        <time>2010-01-02T18:04:54Z</time>
      </trkpt>
      <trkpt lat="46.21799" lon="6.85971">
        <ele>1741</ele>
        <time>2010-01-02T18:04:58Z</time>
      </trkpt>
      <trkpt lat="46.21782" lon="6.85992">
        <ele>1741</ele>
        <time>2010-01-02T18:05:07Z</time>
      </trkpt>
      <trkpt lat="46.21778" lon="6.86008">
        <ele>1735</ele>
        <time>2010-01-02T18:05:12Z</time>
      </trkpt>
      <trkpt lat="46.21773" lon="6.86025">
        <ele>1734</ele>
        <time>2010-01-02T18:05:17Z</time>
      </trkpt>
      <trkpt lat="46.21769" lon="6.86038">
        <ele>1733</ele>
        <time>2010-01-02T18:05:21Z</time>
      </trkpt>
      <trkpt lat="46.2176" lon="6.8605">
        <ele>1733</ele>
        <time>2010-01-02T18:05:26Z</time>
      </trkpt>
      <trkpt lat="46.21753" lon="6.86056">
        <ele>1733</ele>
        <time>2010-01-02T18:05:29Z</time>
      </trkpt>
      <trkpt lat="46.21744" lon="6.86068">
        <ele>1738</ele>
        <time>2010-01-02T18:05:34Z</time>
      </trkpt>
      <trkpt lat="46.21721" lon="6.86105">
        <ele>1731</ele>
        <time>2010-01-02T18:05:48Z</time>
      </trkpt>
      <trkpt lat="46.2171" lon="6.86119">
        <ele>1731</ele>
        <time>2010-01-02T18:05:54Z</time>
      </trkpt>
      <trkpt lat="46.21704" lon="6.86126">
        <ele>1730</ele>
        <time>2010-01-02T18:05:57Z</time>
      </trkpt>
      <trkpt lat="46.21701" lon="6.86124">
        <ele>1730</ele>
        <time>2010-01-02T18:05:58Z</time>
      </trkpt>
      <trkpt lat="46.21696" lon="6.8612">
        <ele>1731</ele>
        <time>2010-01-02T18:06:00Z</time>
      </trkpt>
      <trkpt lat="46.21672" lon="6.86093">
        <ele>1735</ele>
        <time>2010-01-02T18:06:13Z</time>
      </trkpt>
      <trkpt lat="46.2166" lon="6.86084">
        <ele>1734</ele>
        <time>2010-01-02T18:06:18Z</time>
      </trkpt>
      <trkpt lat="46.21637" lon="6.86057">
        <ele>1738</ele>
        <time>2010-01-02T18:06:30Z</time>
      </trkpt>
      <trkpt lat="46.21612" lon="6.86019">
        <ele>1739</ele>
        <time>2010-01-02T18:06:44Z</time>
      </trkpt>
      <trkpt lat="46.21601" lon="6.85999">
        <ele>1748</ele>
        <time>2010-01-02T18:06:51Z</time>
      </trkpt>
      <trkpt lat="46.21587" lon="6.85976">
        <ele>1750</ele>
        <time>2010-01-02T18:07:00Z</time>
      </trkpt>
      <trkpt lat="46.21576" lon="6.85959">
        <ele>1741</ele>
        <time>2010-01-02T18:07:06Z</time>
      </trkpt>
      <trkpt lat="46.2156" lon="6.85937">
        <ele>1743</ele>
        <time>2010-01-02T18:07:15Z</time>
      </trkpt>
      <trkpt lat="46.21553" lon="6.85927">
        <ele>1743</ele>
        <time>2010-01-02T18:07:19Z</time>
      </trkpt>
      <trkpt lat="46.21549" lon="6.85919">
        <ele>1742</ele>
        <time>2010-01-02T18:07:22Z</time>
      </trkpt>
      <trkpt lat="46.21535" lon="6.85866">
        <ele>1754</ele>
        <time>2010-01-02T18:07:38Z</time>
      </trkpt>
      <trkpt lat="46.21515" lon="6.85824">
        <ele>1759</ele>
        <time>2010-01-02T18:07:52Z</time>
      </trkpt>
      <trkpt lat="46.21483" lon="6.8578">
        <ele>1750</ele>
        <time>2010-01-02T18:08:10Z</time>
      </trkpt>
      <trkpt lat="46.21432" lon="6.85704">
        <ele>1757</ele>
        <time>2010-01-02T18:08:39Z</time>
      </trkpt>
      <trkpt lat="46.21413" lon="6.85679">
        <ele>1750</ele>
        <time>2010-01-02T18:08:49Z</time>
      </trkpt>
      <trkpt lat="46.214" lon="6.85667">
        <ele>1749</ele>
        <time>2010-01-02T18:08:55Z</time>
      </trkpt>
      <trkpt lat="46.21393" lon="6.85659">
        <ele>1756</ele>
        <time>2010-01-02T18:08:59Z</time>
      </trkpt>
      <trkpt lat="46.21387" lon="6.85656">
        <ele>1755</ele>
        <time>2010-01-02T18:09:01Z</time>
      </trkpt>
      <trkpt lat="46.21366" lon="6.85641">
        <ele>1753</ele>
        <time>2010-01-02T18:09:11Z</time>
      </trkpt>
      <trkpt lat="46.21355" lon="6.8563">
        <ele>1753</ele>
        <time>2010-01-02T18:09:16Z</time>
      </trkpt>
      <trkpt lat="46.21344" lon="6.85613">
        <ele>1754</ele>
        <time>2010-01-02T18:09:23Z</time>
      </trkpt>
      <trkpt lat="46.21336" lon="6.85598">
        <ele>1754</ele>
        <time>2010-01-02T18:09:28Z</time>
      </trkpt>
      <trkpt lat="46.2133" lon="6.85586">
        <ele>1751</ele>
        <time>2010-01-02T18:09:32Z</time>
      </trkpt>
      <trkpt lat="46.21327" lon="6.85581">
        <ele>1753</ele>
        <time>2010-01-02T18:09:34Z</time>
      </trkpt>
      <trkpt lat="46.21297" lon="6.85559">
        <ele>1750</ele>
        <time>2010-01-02T18:09:47Z</time>
      </trkpt>
      <trkpt lat="46.21276" lon="6.85537">
        <ele>1750</ele>
        <time>2010-01-02T18:09:58Z</time>
      </trkpt>
      <trkpt lat="46.21272" lon="6.8553">
        <ele>1750</ele>
        <time>2010-01-02T18:10:00Z</time>
      </trkpt>
      <trkpt lat="46.21267" lon="6.8552">
        <ele>1750</ele>
        <time>2010-01-02T18:10:04Z</time>
      </trkpt>
      <trkpt lat="46.21245" lon="6.85483">
        <ele>1749</ele>
        <time>2010-01-02T18:10:17Z</time>
      </trkpt>
      <trkpt lat="46.21235" lon="6.8547">
        <ele>1749</ele>
        <time>2010-01-02T18:10:22Z</time>
      </trkpt>
      <trkpt lat="46.2122" lon="6.85453">
        <ele>1749</ele>
        <time>2010-01-02T18:10:30Z</time>
      </trkpt>
      <trkpt lat="46.21208" lon="6.85443">
        <ele>1749</ele>
        <time>2010-01-02T18:10:36Z</time>
      </trkpt>
      <trkpt lat="46.21201" lon="6.85434">
        <ele>1748</ele>
        <time>2010-01-02T18:10:39Z</time>
      </trkpt>
      <trkpt lat="46.21196" lon="6.85428">
        <ele>1748</ele>
        <time>2010-01-02T18:10:42Z</time>
      </trkpt>
      <trkpt lat="46.21191" lon="6.85423">
        <ele>1748</ele>
        <time>2010-01-02T18:10:44Z</time>
      </trkpt>
      <trkpt lat="46.21184" lon="6.85422">
        <ele>1747</ele>
        <time>2010-01-02T18:10:47Z</time>
      </trkpt>
      <trkpt lat="46.21178" lon="6.8542">
        <ele>1746</ele>
        <time>2010-01-02T18:10:50Z</time>
      </trkpt>
      <trkpt lat="46.21168" lon="6.85414">
        <ele>1747</ele>
        <time>2010-01-02T18:10:54Z</time>
      </trkpt>
      <trkpt lat="46.21162" lon="6.85407">
        <ele>1743</ele>
        <time>2010-01-02T18:10:57Z</time>
      </trkpt>
      <trkpt lat="46.21156" lon="6.85399">
        <ele>1742</ele>
        <time>2010-01-02T18:11:00Z</time>
      </trkpt>
      <trkpt lat="46.21149" lon="6.85386">
        <ele>1742</ele>
        <time>2010-01-02T18:11:05Z</time>
      </trkpt>
      <trkpt lat="46.21143" lon="6.85379">
        <ele>1742</ele>
        <time>2010-01-02T18:11:08Z</time>
      </trkpt>
      <trkpt lat="46.21136" lon="6.85372">
        <ele>1742</ele>
        <time>2010-01-02T18:11:11Z</time>
      </trkpt>
      <trkpt lat="46.21132" lon="6.85368">
        <ele>1741</ele>
        <time>2010-01-02T18:11:13Z</time>
      </trkpt>
      <trkpt lat="46.21122" lon="6.85353">
        <ele>1741</ele>
        <time>2010-01-02T18:11:19Z</time>
      </trkpt>
      <trkpt lat="46.21119" lon="6.85342">
        <ele>1741</ele>
        <time>2010-01-02T18:11:22Z</time>
      </trkpt>
      <trkpt lat="46.21117" lon="6.85335">
        <ele>1740</ele>
        <time>2010-01-02T18:11:24Z</time>
      </trkpt>
      <trkpt lat="46.21112" lon="6.85333">
        <ele>1750</ele>
        <time>2010-01-02T18:11:26Z</time>
      </trkpt>
      <trkpt lat="46.21109" lon="6.85335">
        <ele>1739</ele>
        <time>2010-01-02T18:11:28Z</time>
      </trkpt>
      <trkpt lat="46.21109" lon="6.85336">
        <ele>1739</ele>
        <time>2010-01-02T18:11:28Z</time>
      </trkpt>
      <trkpt lat="46.2111" lon="6.85345">
        <ele>1739</ele>
        <time>2010-01-02T18:11:30Z</time>
      </trkpt>
      <trkpt lat="46.2111" lon="6.85345">
        <ele>1739</ele>
        <time>2010-01-02T18:11:30Z</time>
      </trkpt>
      <trkpt lat="46.21114" lon="6.85356">
        <ele>1739</ele>
        <time>2010-01-02T18:11:34Z</time>
      </trkpt>
      <trkpt lat="46.21114" lon="6.85357">
        <ele>1739</ele>
        <time>2010-01-02T18:11:34Z</time>
      </trkpt>
      <trkpt lat="46.21114" lon="6.85359">
        <ele>1739</ele>
        <time>2010-01-02T18:11:35Z</time>
      </trkpt>
      <trkpt lat="46.21121" lon="6.85383">
        <ele>1738</ele>
        <time>2010-01-02T18:11:42Z</time>
      </trkpt>
      <trkpt lat="46.21125" lon="6.85397">
        <ele>1738</ele>
        <time>2010-01-02T18:11:46Z</time>
      </trkpt>
      <trkpt lat="46.21126" lon="6.85398">
        <ele>1738</ele>
        <time>2010-01-02T18:11:46Z</time>
      </trkpt>
      <trkpt lat="46.21129" lon="6.85412">
        <ele>1738</ele>
        <time>2010-01-02T18:11:50Z</time>
      </trkpt>
      <trkpt lat="46.21133" lon="6.85423">
        <ele>1730</ele>
        <time>2010-01-02T18:11:54Z</time>
      </trkpt>
      <trkpt lat="46.21136" lon="6.85432">
        <ele>1730</ele>
        <time>2010-01-02T18:11:57Z</time>
      </trkpt>
      <trkpt lat="46.21137" lon="6.85433">
        <ele>1730</ele>
        <time>2010-01-02T18:11:57Z</time>
      </trkpt>
      <trkpt lat="46.21137" lon="6.85447">
        <ele>1729</ele>
        <time>2010-01-02T18:12:01Z</time>
      </trkpt>
      <trkpt lat="46.21133" lon="6.85465">
        <ele>1727</ele>
        <time>2010-01-02T18:12:06Z</time>
      </trkpt>
      <trkpt lat="46.21122" lon="6.8547">
        <ele>1725</ele>
        <time>2010-01-02T18:12:11Z</time>
      </trkpt>
      <trkpt lat="46.21109" lon="6.85482">
        <ele>1722</ele>
        <time>2010-01-02T18:12:17Z</time>
      </trkpt>
      <trkpt lat="46.21082" lon="6.85508">
        <ele>1712</ele>
        <time>2010-01-02T18:12:30Z</time>
      </trkpt>
      <trkpt lat="46.21055" lon="6.85533">
        <ele>1709</ele>
        <time>2010-01-02T18:12:43Z</time>
      </trkpt>
      <trkpt lat="46.20985" lon="6.85598">
        <ele>1703</ele>
        <time>2010-01-02T18:13:16Z</time>
      </trkpt>
      <trkpt lat="46.2097" lon="6.85621">
        <ele>1702</ele>
        <time>2010-01-02T18:13:25Z</time>
      </trkpt>
      <trkpt lat="46.20957" lon="6.85642">
        <ele>1701</ele>
        <time>2010-01-02T18:13:32Z</time>
      </trkpt>
      <trkpt lat="46.20948" lon="6.85651">
        <ele>1700</ele>
        <time>2010-01-02T18:13:37Z</time>
      </trkpt>
      <trkpt lat="46.20923" lon="6.8567">
        <ele>1697</ele>
        <time>2010-01-02T18:13:48Z</time>
      </trkpt>
      <trkpt lat="46.20906" lon="6.85675">
        <ele>1697</ele>
        <time>2010-01-02T18:13:55Z</time>
      </trkpt>
      <trkpt lat="46.20885" lon="6.85671">
        <ele>1697</ele>
        <time>2010-01-02T18:14:04Z</time>
      </trkpt>
      <trkpt lat="46.20869" lon="6.85646">
        <ele>1697</ele>
        <time>2010-01-02T18:14:13Z</time>
      </trkpt>
      <trkpt lat="46.20862" lon="6.85637">
        <ele>1697</ele>
        <time>2010-01-02T18:14:17Z</time>
      </trkpt>
      <trkpt lat="46.20849" lon="6.85632">
        <ele>1697</ele>
        <time>2010-01-02T18:14:22Z</time>
      </trkpt>
      <trkpt lat="46.20848" lon="6.85633">
        <ele>1697</ele>
        <time>2010-01-02T18:14:23Z</time>
      </trkpt>
      <trkpt lat="46.20833" lon="6.85641">
        <ele>1705</ele>
        <time>2010-01-02T18:14:29Z</time>
      </trkpt>
      <trkpt lat="46.20819" lon="6.85665">
        <ele>1703</ele>
        <time>2010-01-02T18:14:38Z</time>
      </trkpt>
      <trkpt lat="46.20769" lon="6.85737">
        <ele>1704</ele>
        <time>2010-01-02T18:15:06Z</time>
      </trkpt>
      <trkpt lat="46.20752" lon="6.85753">
        <ele>1704</ele>
        <time>2010-01-02T18:15:14Z</time>
      </trkpt>
      <trkpt lat="46.20728" lon="6.85762">
        <ele>1705</ele>
        <time>2010-01-02T18:15:24Z</time>
      </trkpt>
      <trkpt lat="46.20713" lon="6.85764">
        <ele>1705</ele>
        <time>2010-01-02T18:15:30Z</time>
      </trkpt>
      <trkpt lat="46.20685" lon="6.85783">
        <ele>1706</ele>
        <time>2010-01-02T18:15:42Z</time>
      </trkpt>
      <trkpt lat="46.20668" lon="6.85804">
        <ele>1704</ele>
        <time>2010-01-02T18:15:51Z</time>
      </trkpt>
      <trkpt lat="46.20667" lon="6.85806">
        <ele>1704</ele>
        <time>2010-01-02T18:15:52Z</time>
      </trkpt>
      <trkpt lat="46.20657" lon="6.85828">
        <ele>1705</ele>
        <time>2010-01-02T18:15:59Z</time>
      </trkpt>
      <trkpt lat="46.20645" lon="6.85844">
        <ele>1697</ele>
        <time>2010-01-02T18:16:06Z</time>
      </trkpt>
      <trkpt lat="46.20632" lon="6.85846">
        <ele>1696</ele>
        <time>2010-01-02T18:16:11Z</time>
      </trkpt>
      <trkpt lat="46.20616" lon="6.85844">
        <ele>1697</ele>
        <time>2010-01-02T18:16:17Z</time>
      </trkpt>
      <trkpt lat="46.20605" lon="6.85844">
        <ele>1698</ele>
        <time>2010-01-02T18:16:22Z</time>
      </trkpt>
      <trkpt lat="46.20581" lon="6.85833">
        <ele>1704</ele>
        <time>2010-01-02T18:16:32Z</time>
      </trkpt>
      <trkpt lat="46.2057" lon="6.85832">
        <ele>1707</ele>
        <time>2010-01-02T18:16:36Z</time>
      </trkpt>
      <trkpt lat="46.20556" lon="6.85827">
        <ele>1708</ele>
        <time>2010-01-02T18:16:42Z</time>
      </trkpt>
      <trkpt lat="46.20547" lon="6.85829">
        <ele>1708</ele>
        <time>2010-01-02T18:16:46Z</time>
      </trkpt>
      <trkpt lat="46.20534" lon="6.85832">
        <ele>1707</ele>
        <time>2010-01-02T18:16:51Z</time>
      </trkpt>
      <trkpt lat="46.20523" lon="6.85837">
        <ele>1694</ele>
        <time>2010-01-02T18:16:56Z</time>
      </trkpt>
      <trkpt lat="46.20517" lon="6.85837">
        <ele>1694</ele>
        <time>2010-01-02T18:16:58Z</time>
      </trkpt>
      <trkpt lat="46.20513" lon="6.85833">
        <ele>1703</ele>
        <time>2010-01-02T18:17:00Z</time>
      </trkpt>
      <trkpt lat="46.20509" lon="6.8583">
        <ele>1702</ele>
        <time>2010-01-02T18:17:02Z</time>
      </trkpt>
      <trkpt lat="46.20503" lon="6.85824">
        <ele>1702</ele>
        <time>2010-01-02T18:17:05Z</time>
      </trkpt>
      <trkpt lat="46.20503" lon="6.85833">
        <ele>1699</ele>
        <time>2010-01-02T18:17:07Z</time>
      </trkpt>
      <trkpt lat="46.20503" lon="6.85843">
        <ele>1695</ele>
        <time>2010-01-02T18:17:10Z</time>
      </trkpt>
      <trkpt lat="46.20506" lon="6.85852">
        <ele>1693</ele>
        <time>2010-01-02T18:17:13Z</time>
      </trkpt>
      <trkpt lat="46.20514" lon="6.85859">
        <ele>1692</ele>
        <time>2010-01-02T18:17:17Z</time>
      </trkpt>
      <trkpt lat="46.20521" lon="6.85864">
        <ele>1691</ele>
        <time>2010-01-02T18:17:20Z</time>
      </trkpt>
      <trkpt lat="46.20533" lon="6.85864">
        <ele>1691</ele>
        <time>2010-01-02T18:17:25Z</time>
      </trkpt>
      <trkpt lat="46.20543" lon="6.85863">
        <ele>1692</ele>
        <time>2010-01-02T18:17:29Z</time>
      </trkpt>
      <trkpt lat="46.20551" lon="6.85868">
        <ele>1692</ele>
        <time>2010-01-02T18:17:32Z</time>
      </trkpt>
      <trkpt lat="46.20565" lon="6.85871">
        <ele>1692</ele>
        <time>2010-01-02T18:17:38Z</time>
      </trkpt>
      <trkpt lat="46.20581" lon="6.85881">
        <ele>1691</ele>
        <time>2010-01-02T18:17:45Z</time>
      </trkpt>
      <trkpt lat="46.20592" lon="6.85899">
        <ele>1689</ele>
        <time>2010-01-02T18:17:51Z</time>
      </trkpt>
      <trkpt lat="46.20592" lon="6.85898">
        <ele>1689</ele>
        <time>2010-01-02T18:17:52Z</time>
      </trkpt>
      <trkpt lat="46.20607" lon="6.85906">
        <ele>1690</ele>
        <time>2010-01-02T18:17:58Z</time>
      </trkpt>
      <trkpt lat="46.20622" lon="6.85912">
        <ele>1690</ele>
        <time>2010-01-02T18:18:04Z</time>
      </trkpt>
      <trkpt lat="46.20624" lon="6.85914">
        <ele>1689</ele>
        <time>2010-01-02T18:18:05Z</time>
      </trkpt>
      <trkpt lat="46.20652" lon="6.85928">
        <ele>1678</ele>
        <time>2010-01-02T18:18:17Z</time>
      </trkpt>
      <trkpt lat="46.20694" lon="6.85937">
        <ele>1675</ele>
        <time>2010-01-02T18:18:34Z</time>
      </trkpt>
      <trkpt lat="46.20731" lon="6.85952">
        <ele>1673</ele>
        <time>2010-01-02T18:18:49Z</time>
      </trkpt>
      <trkpt lat="46.20745" lon="6.85965">
        <ele>1671</ele>
        <time>2010-01-02T18:18:56Z</time>
      </trkpt>
      <trkpt lat="46.20746" lon="6.85975">
        <ele>1669</ele>
        <time>2010-01-02T18:18:59Z</time>
      </trkpt>
      <trkpt lat="46.20742" lon="6.85985">
        <ele>1667</ele>
        <time>2010-01-02T18:19:02Z</time>
      </trkpt>
      <trkpt lat="46.20727" lon="6.86004">
        <ele>1659</ele>
        <time>2010-01-02T18:19:10Z</time>
      </trkpt>
      <trkpt lat="46.20705" lon="6.86021">
        <ele>1658</ele>
        <time>2010-01-02T18:19:20Z</time>
      </trkpt>
      <trkpt lat="46.2069" lon="6.86012">
        <ele>1659</ele>
        <time>2010-01-02T18:19:26Z</time>
      </trkpt>
      <trkpt lat="46.20679" lon="6.85998">
        <ele>1668</ele>
        <time>2010-01-02T18:19:32Z</time>
      </trkpt>
      <trkpt lat="46.20676" lon="6.85984">
        <ele>1669</ele>
        <time>2010-01-02T18:19:36Z</time>
      </trkpt>
      <trkpt lat="46.20676" lon="6.85999">
        <ele>1667</ele>
        <time>2010-01-02T18:19:40Z</time>
      </trkpt>
      <trkpt lat="46.20668" lon="6.86">
        <ele>1665</ele>
        <time>2010-01-02T18:19:44Z</time>
      </trkpt>
      <trkpt lat="46.20665" lon="6.85992">
        <ele>1668</ele>
        <time>2010-01-02T18:19:46Z</time>
      </trkpt>
      <trkpt lat="46.20648" lon="6.85891">
        <ele>1690</ele>
        <time>2010-01-02T18:20:15Z</time>
      </trkpt>
      <trkpt lat="46.20653" lon="6.85892">
        <ele>1690</ele>
        <time>2010-01-02T18:20:17Z</time>
      </trkpt>
      <trkpt lat="46.20642" lon="6.85852">
        <ele>1696</ele>
        <time>2010-01-02T18:20:29Z</time>
      </trkpt>
      <trkpt lat="46.20638" lon="6.85824">
        <ele>1707</ele>
        <time>2010-01-02T18:20:36Z</time>
      </trkpt>
      <trkpt lat="46.20631" lon="6.85791">
        <ele>1710</ele>
        <time>2010-01-02T18:20:46Z</time>
      </trkpt>
      <trkpt lat="46.20625" lon="6.85753">
        <ele>1712</ele>
        <time>2010-01-02T18:20:57Z</time>
      </trkpt>
      <trkpt lat="46.20616" lon="6.85704">
        <ele>1728</ele>
        <time>2010-01-02T18:21:11Z</time>
      </trkpt>
      <trkpt lat="46.20612" lon="6.85678">
        <ele>1732</ele>
        <time>2010-01-02T18:21:18Z</time>
      </trkpt>
      <trkpt lat="46.20595" lon="6.85577">
        <ele>1777</ele>
        <time>2010-01-02T18:21:47Z</time>
      </trkpt>
      <trkpt lat="46.20583" lon="6.85509">
        <ele>1802</ele>
        <time>2010-01-02T18:22:07Z</time>
      </trkpt>
      <trkpt lat="46.2058" lon="6.85491">
        <ele>1810</ele>
        <time>2010-01-02T18:22:12Z</time>
      </trkpt>
      <trkpt lat="46.20577" lon="6.85473">
        <ele>1816</ele>
        <time>2010-01-02T18:22:17Z</time>
      </trkpt>
      <trkpt lat="46.20575" lon="6.85454">
        <ele>1820</ele>
        <time>2010-01-02T18:22:22Z</time>
      </trkpt>
      <trkpt lat="46.20573" lon="6.8544">
        <ele>1822</ele>
        <time>2010-01-02T18:22:26Z</time>
      </trkpt>
      <trkpt lat="46.20569" lon="6.85423">
        <ele>1823</ele>
        <time>2010-01-02T18:22:31Z</time>
      </trkpt>
      <trkpt lat="46.20568" lon="6.85414">
        <ele>1832</ele>
        <time>2010-01-02T18:22:33Z</time>
      </trkpt>
      <trkpt lat="46.20565" lon="6.85394">
        <ele>1835</ele>
        <time>2010-01-02T18:22:39Z</time>
      </trkpt>
      <trkpt lat="46.20563" lon="6.85381">
        <ele>1838</ele>
        <time>2010-01-02T18:22:43Z</time>
      </trkpt>
      <trkpt lat="46.20563" lon="6.85381">
        <ele>1838</ele>
        <time>2010-01-02T18:22:43Z</time>
      </trkpt>
      <trkpt lat="46.20561" lon="6.85366">
        <ele>1840</ele>
        <time>2010-01-02T18:22:47Z</time>
      </trkpt>
      <trkpt lat="46.20559" lon="6.85358">
        <ele>1841</ele>
        <time>2010-01-02T18:22:49Z</time>
      </trkpt>
      <trkpt lat="46.20557" lon="6.85349">
        <ele>1842</ele>
        <time>2010-01-02T18:22:52Z</time>
      </trkpt>
      <trkpt lat="46.20554" lon="6.85334">
        <ele>1843</ele>
        <time>2010-01-02T18:22:56Z</time>
      </trkpt>
      <trkpt lat="46.2055" lon="6.85318">
        <ele>1857</ele>
        <time>2010-01-02T18:23:01Z</time>
      </trkpt>
      <trkpt lat="46.20545" lon="6.85291">
        <ele>1862</ele>
        <time>2010-01-02T18:23:09Z</time>
      </trkpt>
      <trkpt lat="46.20538" lon="6.85246">
        <ele>1886</ele>
        <time>2010-01-02T18:23:22Z</time>
      </trkpt>
      <trkpt lat="46.20524" lon="6.85163">
        <ele>1922</ele>
        <time>2010-01-02T18:23:45Z</time>
      </trkpt>
      <trkpt lat="46.20506" lon="6.85055">
        <ele>1958</ele>
        <time>2010-01-02T18:24:16Z</time>
      </trkpt>
      <trkpt lat="46.2048" lon="6.84891">
        <ele>1996</ele>
        <time>2010-01-02T18:25:03Z</time>
      </trkpt>
      <trkpt lat="46.20466" lon="6.84808">
        <ele>2004</ele>
        <time>2010-01-02T18:25:26Z</time>
      </trkpt>
      <trkpt lat="46.20433" lon="6.84707">
        <ele>2007</ele>
        <time>2010-01-02T18:25:57Z</time>
      </trkpt>
      <trkpt lat="46.20364" lon="6.84621">
        <ele>2014</ele>
        <time>2010-01-02T18:26:34Z</time>
      </trkpt>
      <trkpt lat="46.20251" lon="6.84524">
        <ele>2008</ele>
        <time>2010-01-02T18:27:26Z</time>
      </trkpt>
      <trkpt lat="46.20227" lon="6.84499">
        <ele>2011</ele>
        <time>2010-01-02T18:27:38Z</time>
      </trkpt>
      <trkpt lat="46.20207" lon="6.84481">
        <ele>2011</ele>
        <time>2010-01-02T18:27:47Z</time>
      </trkpt>
      <trkpt lat="46.20189" lon="6.84467">
        <ele>2013</ele>
        <time>2010-01-02T18:27:56Z</time>
      </trkpt>
      <trkpt lat="46.20177" lon="6.84455">
        <ele>2014</ele>
        <time>2010-01-02T18:28:02Z</time>
      </trkpt>
      <trkpt lat="46.20167" lon="6.84441">
        <ele>2018</ele>
        <time>2010-01-02T18:28:07Z</time>
      </trkpt>
      <trkpt lat="46.20167" lon="6.8444">
        <ele>2021</ele>
        <time>2010-01-02T18:28:08Z</time>
      </trkpt>
      <trkpt lat="46.20159" lon="6.84431">
        <ele>2023</ele>
        <time>2010-01-02T18:28:12Z</time>
      </trkpt>
      <trkpt lat="46.20158" lon="6.8443">
        <ele>2023</ele>
        <time>2010-01-02T18:28:12Z</time>
      </trkpt>
      <trkpt lat="46.20146" lon="6.84423">
        <ele>2022</ele>
        <time>2010-01-02T18:28:17Z</time>
      </trkpt>
      <trkpt lat="46.20125" lon="6.84419">
        <ele>2021</ele>
        <time>2010-01-02T18:28:25Z</time>
      </trkpt>
      <trkpt lat="46.20105" lon="6.84414">
        <ele>2033</ele>
        <time>2010-01-02T18:28:34Z</time>
      </trkpt>
      <trkpt lat="46.20095" lon="6.8441">
        <ele>2033</ele>
        <time>2010-01-02T18:28:38Z</time>
      </trkpt>
      <trkpt lat="46.20084" lon="6.84403">
        <ele>2034</ele>
        <time>2010-01-02T18:28:43Z</time>
      </trkpt>
      <trkpt lat="46.20075" lon="6.84396">
        <ele>2039</ele>
        <time>2010-01-02T18:28:47Z</time>
      </trkpt>
      <trkpt lat="46.20058" lon="6.84385">
        <ele>2042</ele>
        <time>2010-01-02T18:28:54Z</time>
      </trkpt>
      <trkpt lat="46.20054" lon="6.84381">
        <ele>2043</ele>
        <time>2010-01-02T18:28:56Z</time>
      </trkpt>
      <trkpt lat="46.20049" lon="6.84385">
        <ele>2043</ele>
        <time>2010-01-02T18:28:58Z</time>
      </trkpt>
      <trkpt lat="46.20047" lon="6.84391">
        <ele>2042</ele>
        <time>2010-01-02T18:29:00Z</time>
      </trkpt>
      <trkpt lat="46.20043" lon="6.84393">
        <ele>2041</ele>
        <time>2010-01-02T18:29:02Z</time>
      </trkpt>
      <trkpt lat="46.20038" lon="6.84396">
        <ele>2041</ele>
        <time>2010-01-02T18:29:04Z</time>
      </trkpt>
      <trkpt lat="46.2003" lon="6.84397">
        <ele>2040</ele>
        <time>2010-01-02T18:29:07Z</time>
      </trkpt>
      <trkpt lat="46.20025" lon="6.84397">
        <ele>2040</ele>
        <time>2010-01-02T18:29:09Z</time>
      </trkpt>
      <trkpt lat="46.20019" lon="6.84397">
        <ele>2039</ele>
        <time>2010-01-02T18:29:11Z</time>
      </trkpt>
      <trkpt lat="46.20012" lon="6.84398">
        <ele>2038</ele>
        <time>2010-01-02T18:29:14Z</time>
      </trkpt>
      <trkpt lat="46.2" lon="6.84396">
        <ele>2038</ele>
        <time>2010-01-02T18:29:19Z</time>
      </trkpt>
      <trkpt lat="46.19992" lon="6.84392">
        <ele>2034</ele>
        <time>2010-01-02T18:29:23Z</time>
      </trkpt>
      <trkpt lat="46.19991" lon="6.84392">
        <ele>2034</ele>
        <time>2010-01-02T18:29:23Z</time>
      </trkpt>
      <trkpt lat="46.19983" lon="6.8438">
        <ele>2036</ele>
        <time>2010-01-02T18:29:27Z</time>
      </trkpt>
      <trkpt lat="46.19975" lon="6.84372">
        <ele>2038</ele>
        <time>2010-01-02T18:29:31Z</time>
      </trkpt>
      <trkpt lat="46.19956" lon="6.84356">
        <ele>2038</ele>
        <time>2010-01-02T18:29:40Z</time>
      </trkpt>
      <trkpt lat="46.19927" lon="6.84339">
        <ele>2040</ele>
        <time>2010-01-02T18:29:53Z</time>
      </trkpt>
      <trkpt lat="46.19921" lon="6.84326">
        <ele>2049</ele>
        <time>2010-01-02T18:29:57Z</time>
      </trkpt>
      <trkpt lat="46.19913" lon="6.84314">
        <ele>2044</ele>
        <time>2010-01-02T18:30:02Z</time>
      </trkpt>
      <trkpt lat="46.19908" lon="6.843">
        <ele>2046</ele>
        <time>2010-01-02T18:30:06Z</time>
      </trkpt>
      <trkpt lat="46.19904" lon="6.84292">
        <ele>2047</ele>
        <time>2010-01-02T18:30:09Z</time>
      </trkpt>
      <trkpt lat="46.19901" lon="6.84284">
        <ele>2049</ele>
        <time>2010-01-02T18:30:11Z</time>
      </trkpt>
      <trkpt lat="46.19858" lon="6.84259">
        <ele>2047</ele>
        <time>2010-01-02T18:30:30Z</time>
      </trkpt>
      <trkpt lat="46.19833" lon="6.84245">
        <ele>2052</ele>
        <time>2010-01-02T18:30:40Z</time>
      </trkpt>
      <trkpt lat="46.19821" lon="6.84247">
        <ele>2053</ele>
        <time>2010-01-02T18:30:45Z</time>
      </trkpt>
      <trkpt lat="46.19793" lon="6.84231">
        <ele>2054</ele>
        <time>2010-01-02T18:30:57Z</time>
      </trkpt>
      <trkpt lat="46.19767" lon="6.84234">
        <ele>2048</ele>
        <time>2010-01-02T18:31:08Z</time>
      </trkpt>
      <trkpt lat="46.1974" lon="6.84242">
        <ele>2034</ele>
        <time>2010-01-02T18:31:19Z</time>
      </trkpt>
      <trkpt lat="46.19719" lon="6.8424">
        <ele>2032</ele>
        <time>2010-01-02T18:31:27Z</time>
      </trkpt>
      <trkpt lat="46.19711" lon="6.84234">
        <ele>2031</ele>
        <time>2010-01-02T18:31:31Z</time>
      </trkpt>
      <trkpt lat="46.19709" lon="6.84224">
        <ele>2032</ele>
        <time>2010-01-02T18:31:34Z</time>
      </trkpt>
      <trkpt lat="46.19708" lon="6.84206">
        <ele>2034</ele>
        <time>2010-01-02T18:31:39Z</time>
      </trkpt>
      <trkpt lat="46.19688" lon="6.84199">
        <ele>2031</ele>
        <time>2010-01-02T18:31:47Z</time>
      </trkpt>
      <trkpt lat="46.19675" lon="6.84194">
        <ele>2030</ele>
        <time>2010-01-02T18:31:52Z</time>
      </trkpt>
      <trkpt lat="46.19662" lon="6.84209">
        <ele>2013</ele>
        <time>2010-01-02T18:31:59Z</time>
      </trkpt>
      <trkpt lat="46.19645" lon="6.84227">
        <ele>2011</ele>
        <time>2010-01-02T18:32:08Z</time>
      </trkpt>
      <trkpt lat="46.1963" lon="6.84238">
        <ele>2008</ele>
        <time>2010-01-02T18:32:14Z</time>
      </trkpt>
      <trkpt lat="46.19619" lon="6.84246">
        <ele>2006</ele>
        <time>2010-01-02T18:32:19Z</time>
      </trkpt>
      <trkpt lat="46.19618" lon="6.84246">
        <ele>2006</ele>
        <time>2010-01-02T18:32:20Z</time>
      </trkpt>
      <trkpt lat="46.19602" lon="6.84247">
        <ele>2002</ele>
        <time>2010-01-02T18:32:26Z</time>
      </trkpt>
      <trkpt lat="46.19593" lon="6.84242">
        <ele>2000</ele>
        <time>2010-01-02T18:32:30Z</time>
      </trkpt>
      <trkpt lat="46.19585" lon="6.8422">
        <ele>2003</ele>
        <time>2010-01-02T18:32:37Z</time>
      </trkpt>
      <trkpt lat="46.19578" lon="6.84194">
        <ele>1986</ele>
        <time>2010-01-02T18:32:45Z</time>
      </trkpt>
      <trkpt lat="46.19575" lon="6.84174">
        <ele>1991</ele>
        <time>2010-01-02T18:32:50Z</time>
      </trkpt>
      <trkpt lat="46.19572" lon="6.84159">
        <ele>1992</ele>
        <time>2010-01-02T18:32:55Z</time>
      </trkpt>
      <trkpt lat="46.19562" lon="6.84117">
        <ele>1987</ele>
        <time>2010-01-02T18:33:07Z</time>
      </trkpt>
      <trkpt lat="46.19551" lon="6.84064">
        <ele>1987</ele>
        <time>2010-01-02T18:33:23Z</time>
      </trkpt>
      <trkpt lat="46.19549" lon="6.84059">
        <ele>1987</ele>
        <time>2010-01-02T18:33:24Z</time>
      </trkpt>
      <trkpt lat="46.1954" lon="6.83985">
        <ele>1985</ele>
        <time>2010-01-02T18:33:45Z</time>
      </trkpt>
      <trkpt lat="46.19528" lon="6.83928">
        <ele>1980</ele>
        <time>2010-01-02T18:34:01Z</time>
      </trkpt>
      <trkpt lat="46.1953" lon="6.83902">
        <ele>1980</ele>
        <time>2010-01-02T18:34:08Z</time>
      </trkpt>
      <trkpt lat="46.19525" lon="6.83864">
        <ele>1979</ele>
        <time>2010-01-02T18:34:19Z</time>
      </trkpt>
      <trkpt lat="46.19522" lon="6.83847">
        <ele>1977</ele>
        <time>2010-01-02T18:34:24Z</time>
      </trkpt>
      <trkpt lat="46.19518" lon="6.83845">
        <ele>1975</ele>
        <time>2010-01-02T18:34:26Z</time>
      </trkpt>
      <trkpt lat="46.19509" lon="6.83867">
        <ele>1976</ele>
        <time>2010-01-02T18:34:33Z</time>
      </trkpt>
      <trkpt lat="46.19501" lon="6.83886">
        <ele>1975</ele>
        <time>2010-01-02T18:34:39Z</time>
      </trkpt>
      <trkpt lat="46.19493" lon="6.83895">
        <ele>1955</ele>
        <time>2010-01-02T18:34:43Z</time>
      </trkpt>
      <trkpt lat="46.19479" lon="6.83903">
        <ele>1953</ele>
        <time>2010-01-02T18:34:49Z</time>
      </trkpt>
      <trkpt lat="46.19472" lon="6.83913">
        <ele>1952</ele>
        <time>2010-01-02T18:34:53Z</time>
      </trkpt>
      <trkpt lat="46.19466" lon="6.83932">
        <ele>1951</ele>
        <time>2010-01-02T18:34:59Z</time>
      </trkpt>
      <trkpt lat="46.1946" lon="6.83959">
        <ele>1950</ele>
        <time>2010-01-02T18:35:07Z</time>
      </trkpt>
      <trkpt lat="46.19449" lon="6.83977">
        <ele>1948</ele>
        <time>2010-01-02T18:35:14Z</time>
      </trkpt>
      <trkpt lat="46.19435" lon="6.83976">
        <ele>1946</ele>
        <time>2010-01-02T18:35:19Z</time>
      </trkpt>
      <trkpt lat="46.19424" lon="6.83961">
        <ele>1946</ele>
        <time>2010-01-02T18:35:25Z</time>
      </trkpt>
      <trkpt lat="46.19388" lon="6.83876">
        <ele>1925</ele>
        <time>2010-01-02T18:35:53Z</time>
      </trkpt>
      <trkpt lat="46.19372" lon="6.83847">
        <ele>1922</ele>
        <time>2010-01-02T18:36:03Z</time>
      </trkpt>
      <trkpt lat="46.19355" lon="6.83815">
        <ele>1916</ele>
        <time>2010-01-02T18:36:14Z</time>
      </trkpt>
      <trkpt lat="46.19349" lon="6.83779">
        <ele>1914</ele>
        <time>2010-01-02T18:36:24Z</time>
      </trkpt>
      <trkpt lat="46.1937" lon="6.83732">
        <ele>1911</ele>
        <time>2010-01-02T18:36:40Z</time>
      </trkpt>
      <trkpt lat="46.19384" lon="6.83705">
        <ele>1912</ele>
        <time>2010-01-02T18:36:49Z</time>
      </trkpt>
      <trkpt lat="46.19384" lon="6.83685">
        <ele>1912</ele>
        <time>2010-01-02T18:36:55Z</time>
      </trkpt>
      <trkpt lat="46.19376" lon="6.83675">
        <ele>1910</ele>
        <time>2010-01-02T18:36:59Z</time>
      </trkpt>
      <trkpt lat="46.19352" lon="6.83694">
        <ele>1907</ele>
        <time>2010-01-02T18:37:10Z</time>
      </trkpt>
      <trkpt lat="46.19326" lon="6.83716">
        <ele>1892</ele>
        <time>2010-01-02T18:37:22Z</time>
      </trkpt>
      <trkpt lat="46.19297" lon="6.83733">
        <ele>1889</ele>
        <time>2010-01-02T18:37:35Z</time>
      </trkpt>
      <trkpt lat="46.19293" lon="6.83746">
        <ele>1889</ele>
        <time>2010-01-02T18:37:39Z</time>
      </trkpt>
      <trkpt lat="46.19292" lon="6.83749">
        <ele>1889</ele>
        <time>2010-01-02T18:37:40Z</time>
      </trkpt>
      <trkpt lat="46.19285" lon="6.83779">
        <ele>1891</ele>
        <time>2010-01-02T18:37:48Z</time>
      </trkpt>
      <trkpt lat="46.19284" lon="6.83783">
        <ele>1891</ele>
        <time>2010-01-02T18:37:50Z</time>
      </trkpt>
      <trkpt lat="46.1928" lon="6.83811">
        <ele>1890</ele>
        <time>2010-01-02T18:37:57Z</time>
      </trkpt>
      <trkpt lat="46.19264" lon="6.83828">
        <ele>1885</ele>
        <time>2010-01-02T18:38:05Z</time>
      </trkpt>
      <trkpt lat="46.19246" lon="6.83825">
        <ele>1874</ele>
        <time>2010-01-02T18:38:13Z</time>
      </trkpt>
      <trkpt lat="46.19246" lon="6.83824">
        <ele>1873</ele>
        <time>2010-01-02T18:38:13Z</time>
      </trkpt>
      <trkpt lat="46.19224" lon="6.83803">
        <ele>1866</ele>
        <time>2010-01-02T18:38:23Z</time>
      </trkpt>
      <trkpt lat="46.19222" lon="6.83776">
        <ele>1865</ele>
        <time>2010-01-02T18:38:31Z</time>
      </trkpt>
      <trkpt lat="46.19223" lon="6.83706">
        <ele>1862</ele>
        <time>2010-01-02T18:38:50Z</time>
      </trkpt>
      <trkpt lat="46.19229" lon="6.836">
        <ele>1857</ele>
        <time>2010-01-02T18:39:20Z</time>
      </trkpt>
      <trkpt lat="46.19233" lon="6.83568">
        <ele>1854</ele>
        <time>2010-01-02T18:39:29Z</time>
      </trkpt>
      <trkpt lat="46.19229" lon="6.83555">
        <ele>1852</ele>
        <time>2010-01-02T18:39:33Z</time>
      </trkpt>
      <trkpt lat="46.1921" lon="6.83563">
        <ele>1850</ele>
        <time>2010-01-02T18:39:40Z</time>
      </trkpt>
      <trkpt lat="46.19193" lon="6.83564">
        <ele>1848</ele>
        <time>2010-01-02T18:39:47Z</time>
      </trkpt>
      <trkpt lat="46.19173" lon="6.83566">
        <ele>1846</ele>
        <time>2010-01-02T18:39:55Z</time>
      </trkpt>
      <trkpt lat="46.19148" lon="6.83565">
        <ele>1839</ele>
        <time>2010-01-02T18:40:05Z</time>
      </trkpt>
      <trkpt lat="46.19124" lon="6.83563">
        <ele>1837</ele>
        <time>2010-01-02T18:40:15Z</time>
      </trkpt>
      <trkpt lat="46.19108" lon="6.83573">
        <ele>1835</ele>
        <time>2010-01-02T18:40:22Z</time>
      </trkpt>
      <trkpt lat="46.19086" lon="6.8361">
        <ele>1831</ele>
        <time>2010-01-02T18:40:36Z</time>
      </trkpt>
      <trkpt lat="46.19064" lon="6.83645">
        <ele>1818</ele>
        <time>2010-01-02T18:40:49Z</time>
      </trkpt>
      <trkpt lat="46.19049" lon="6.8366">
        <ele>1816</ele>
        <time>2010-01-02T18:40:56Z</time>
      </trkpt>
      <trkpt lat="46.19033" lon="6.83643">
        <ele>1815</ele>
        <time>2010-01-02T18:41:04Z</time>
      </trkpt>
      <trkpt lat="46.19015" lon="6.83621">
        <ele>1815</ele>
        <time>2010-01-02T18:41:14Z</time>
      </trkpt>
      <trkpt lat="46.18998" lon="6.83611">
        <ele>1804</ele>
        <time>2010-01-02T18:41:21Z</time>
      </trkpt>
      <trkpt lat="46.18978" lon="6.83599">
        <ele>1803</ele>
        <time>2010-01-02T18:41:30Z</time>
      </trkpt>
      <trkpt lat="46.18976" lon="6.83596">
        <ele>1803</ele>
        <time>2010-01-02T18:41:31Z</time>
      </trkpt>
      <trkpt lat="46.18967" lon="6.83528">
        <ele>1811</ele>
        <time>2010-01-02T18:41:50Z</time>
      </trkpt>
      <trkpt lat="46.18959" lon="6.83492">
        <ele>1819</ele>
        <time>2010-01-02T18:42:00Z</time>
      </trkpt>
      <trkpt lat="46.18945" lon="6.83466">
        <ele>1818</ele>
        <time>2010-01-02T18:42:10Z</time>
      </trkpt>
      <trkpt lat="46.18924" lon="6.8345">
        <ele>1818</ele>
        <time>2010-01-02T18:42:19Z</time>
      </trkpt>
      <trkpt lat="46.18908" lon="6.83434">
        <ele>1806</ele>
        <time>2010-01-02T18:42:27Z</time>
      </trkpt>
      <trkpt lat="46.18891" lon="6.83415">
        <ele>1813</ele>
        <time>2010-01-02T18:42:35Z</time>
      </trkpt>
      <trkpt lat="46.18864" lon="6.83391">
        <ele>1808</ele>
        <time>2010-01-02T18:42:48Z</time>
      </trkpt>
      <trkpt lat="46.18855" lon="6.83375">
        <ele>1808</ele>
        <time>2010-01-02T18:42:54Z</time>
      </trkpt>
      <trkpt lat="46.18841" lon="6.83329">
        <ele>1810</ele>
        <time>2010-01-02T18:43:08Z</time>
      </trkpt>
      <trkpt lat="46.18817" lon="6.83247">
        <ele>1813</ele>
        <time>2010-01-02T18:43:32Z</time>
      </trkpt>
      <trkpt lat="46.18794" lon="6.83227">
        <ele>1809</ele>
        <time>2010-01-02T18:43:43Z</time>
      </trkpt>
      <trkpt lat="46.18774" lon="6.83216">
        <ele>1807</ele>
        <time>2010-01-02T18:43:52Z</time>
      </trkpt>
      <trkpt lat="46.1876" lon="6.83163">
        <ele>1812</ele>
        <time>2010-01-02T18:44:07Z</time>
      </trkpt>
      <trkpt lat="46.18758" lon="6.8316">
        <ele>1811</ele>
        <time>2010-01-02T18:44:08Z</time>
      </trkpt>
      <trkpt lat="46.18741" lon="6.83138">
        <ele>1800</ele>
        <time>2010-01-02T18:44:18Z</time>
      </trkpt>
      <trkpt lat="46.18733" lon="6.83092">
        <ele>1805</ele>
        <time>2010-01-02T18:44:31Z</time>
      </trkpt>
      <trkpt lat="46.18731" lon="6.8304">
        <ele>1810</ele>
        <time>2010-01-02T18:44:45Z</time>
      </trkpt>
      <trkpt lat="46.18731" lon="6.83021">
        <ele>1813</ele>
        <time>2010-01-02T18:44:50Z</time>
      </trkpt>
      <trkpt lat="46.1872" lon="6.82993">
        <ele>1817</ele>
        <time>2010-01-02T18:45:00Z</time>
      </trkpt>
      <trkpt lat="46.18712" lon="6.82927">
        <ele>1818</ele>
        <time>2010-01-02T18:45:18Z</time>
      </trkpt>
      <trkpt lat="46.18714" lon="6.82875">
        <ele>1823</ele>
        <time>2010-01-02T18:45:32Z</time>
      </trkpt>
      <trkpt lat="46.18711" lon="6.8282">
        <ele>1825</ele>
        <time>2010-01-02T18:45:48Z</time>
      </trkpt>
      <trkpt lat="46.1871" lon="6.82748">
        <ele>1830</ele>
        <time>2010-01-02T18:46:07Z</time>
      </trkpt>
      <trkpt lat="46.18708" lon="6.82685">
        <ele>1832</ele>
        <time>2010-01-02T18:46:25Z</time>
      </trkpt>
      <trkpt lat="46.18703" lon="6.82641">
        <ele>1839</ele>
        <time>2010-01-02T18:46:38Z</time>
      </trkpt>
      <trkpt lat="46.18692" lon="6.8261">
        <ele>1840</ele>
        <time>2010-01-02T18:46:47Z</time>
      </trkpt>
      <trkpt lat="46.18669" lon="6.82592">
        <ele>1835</ele>
        <time>2010-01-02T18:46:58Z</time>
      </trkpt>
      <trkpt lat="46.18638" lon="6.8256">
        <ele>1838</ele>
        <time>2010-01-02T18:47:13Z</time>
      </trkpt>
      <trkpt lat="46.18595" lon="6.82538">
        <ele>1839</ele>
        <time>2010-01-02T18:47:31Z</time>
      </trkpt>
      <trkpt lat="46.18498" lon="6.82496">
        <ele>1836</ele>
        <time>2010-01-02T18:48:12Z</time>
      </trkpt>
      <trkpt lat="46.18472" lon="6.82469">
        <ele>1843</ele>
        <time>2010-01-02T18:48:24Z</time>
      </trkpt>
      <trkpt lat="46.18458" lon="6.82446">
        <ele>1845</ele>
        <time>2010-01-02T18:48:33Z</time>
      </trkpt>
      <trkpt lat="46.18449" lon="6.82424">
        <ele>1846</ele>
        <time>2010-01-02T18:48:40Z</time>
      </trkpt>
      <trkpt lat="46.18434" lon="6.82421">
        <ele>1846</ele>
        <time>2010-01-02T18:48:46Z</time>
      </trkpt>
      <trkpt lat="46.18424" lon="6.82438">
        <ele>1844</ele>
        <time>2010-01-02T18:48:52Z</time>
      </trkpt>
      <trkpt lat="46.18415" lon="6.8247">
        <ele>1836</ele>
        <time>2010-01-02T18:49:01Z</time>
      </trkpt>
      <trkpt lat="46.18395" lon="6.82472">
        <ele>1836</ele>
        <time>2010-01-02T18:49:09Z</time>
      </trkpt>
      <trkpt lat="46.1839" lon="6.8247">
        <ele>1837</ele>
        <time>2010-01-02T18:49:12Z</time>
      </trkpt>
      <trkpt lat="46.18404" lon="6.82473">
        <ele>1836</ele>
        <time>2010-01-02T18:49:18Z</time>
      </trkpt>
      <trkpt lat="46.18376" lon="6.82468">
        <ele>1837</ele>
        <time>2010-01-02T18:49:29Z</time>
      </trkpt>
      <trkpt lat="46.18361" lon="6.82451">
        <ele>1839</ele>
        <time>2010-01-02T18:49:37Z</time>
      </trkpt>
      <trkpt lat="46.18337" lon="6.82426">
        <ele>1842</ele>
        <time>2010-01-02T18:49:48Z</time>
      </trkpt>
      <trkpt lat="46.18309" lon="6.82405">
        <ele>1846</ele>
        <time>2010-01-02T18:50:01Z</time>
      </trkpt>
      <trkpt lat="46.18268" lon="6.82379">
        <ele>1847</ele>
        <time>2010-01-02T18:50:19Z</time>
      </trkpt>
      <trkpt lat="46.18245" lon="6.82373">
        <ele>1846</ele>
        <time>2010-01-02T18:50:28Z</time>
      </trkpt>
      <trkpt lat="46.18228" lon="6.82344">
        <ele>1848</ele>
        <time>2010-01-02T18:50:39Z</time>
      </trkpt>
      <trkpt lat="46.18218" lon="6.82326">
        <ele>1857</ele>
        <time>2010-01-02T18:50:45Z</time>
      </trkpt>
      <trkpt lat="46.18204" lon="6.8232">
        <ele>1857</ele>
        <time>2010-01-02T18:50:51Z</time>
      </trkpt>
      <trkpt lat="46.18187" lon="6.8234">
        <ele>1848</ele>
        <time>2010-01-02T18:50:59Z</time>
      </trkpt>
      <trkpt lat="46.1818" lon="6.82359">
        <ele>1846</ele>
        <time>2010-01-02T18:51:05Z</time>
      </trkpt>
      <trkpt lat="46.18166" lon="6.82371">
        <ele>1845</ele>
        <time>2010-01-02T18:51:12Z</time>
      </trkpt>
      <trkpt lat="46.18153" lon="6.82395">
        <ele>1841</ele>
        <time>2010-01-02T18:51:20Z</time>
      </trkpt>
      <trkpt lat="46.18147" lon="6.82417">
        <ele>1833</ele>
        <time>2010-01-02T18:51:27Z</time>
      </trkpt>
      <trkpt lat="46.18128" lon="6.82431">
        <ele>1832</ele>
        <time>2010-01-02T18:51:35Z</time>
      </trkpt>
      <trkpt lat="46.1811" lon="6.82432">
        <ele>1832</ele>
        <time>2010-01-02T18:51:43Z</time>
      </trkpt>
      <trkpt lat="46.1809" lon="6.82437">
        <ele>1833</ele>
        <time>2010-01-02T18:51:51Z</time>
      </trkpt>
      <trkpt lat="46.18065" lon="6.8245">
        <ele>1834</ele>
        <time>2010-01-02T18:52:01Z</time>
      </trkpt>
      <trkpt lat="46.18041" lon="6.8245">
        <ele>1835</ele>
        <time>2010-01-02T18:52:11Z</time>
      </trkpt>
      <trkpt lat="46.18006" lon="6.82475">
        <ele>1833</ele>
        <time>2010-01-02T18:52:27Z</time>
      </trkpt>
      <trkpt lat="46.17979" lon="6.82492">
        <ele>1835</ele>
        <time>2010-01-02T18:52:38Z</time>
      </trkpt>
      <trkpt lat="46.17966" lon="6.82504">
        <ele>1832</ele>
        <time>2010-01-02T18:52:45Z</time>
      </trkpt>
      <trkpt lat="46.17961" lon="6.8253">
        <ele>1831</ele>
        <time>2010-01-02T18:52:52Z</time>
      </trkpt>
      <trkpt lat="46.1795" lon="6.82548">
        <ele>1831</ele>
        <time>2010-01-02T18:52:59Z</time>
      </trkpt>
      <trkpt lat="46.1793" lon="6.82563">
        <ele>1831</ele>
        <time>2010-01-02T18:53:08Z</time>
      </trkpt>
      <trkpt lat="46.17919" lon="6.82558">
        <ele>1831</ele>
        <time>2010-01-02T18:53:12Z</time>
      </trkpt>
      <trkpt lat="46.17911" lon="6.82543">
        <ele>1826</ele>
        <time>2010-01-02T18:53:17Z</time>
      </trkpt>
      <trkpt lat="46.17899" lon="6.82528">
        <ele>1826</ele>
        <time>2010-01-02T18:53:24Z</time>
      </trkpt>
      <trkpt lat="46.17893" lon="6.82507">
        <ele>1826</ele>
        <time>2010-01-02T18:53:30Z</time>
      </trkpt>
      <trkpt lat="46.17893" lon="6.8247">
        <ele>1829</ele>
        <time>2010-01-02T18:53:40Z</time>
      </trkpt>
      <trkpt lat="46.17882" lon="6.82414">
        <ele>1834</ele>
        <time>2010-01-02T18:53:56Z</time>
      </trkpt>
      <trkpt lat="46.1788" lon="6.82392">
        <ele>1834</ele>
        <time>2010-01-02T18:54:03Z</time>
      </trkpt>
      <trkpt lat="46.17877" lon="6.82373">
        <ele>1835</ele>
        <time>2010-01-02T18:54:08Z</time>
      </trkpt>
      <trkpt lat="46.1788" lon="6.82343">
        <ele>1837</ele>
        <time>2010-01-02T18:54:16Z</time>
      </trkpt>
      <trkpt lat="46.17878" lon="6.82311">
        <ele>1845</ele>
        <time>2010-01-02T18:54:25Z</time>
      </trkpt>
      <trkpt lat="46.17864" lon="6.82252">
        <ele>1845</ele>
        <time>2010-01-02T18:54:43Z</time>
      </trkpt>
      <trkpt lat="46.17851" lon="6.82188">
        <ele>1854</ele>
        <time>2010-01-02T18:55:01Z</time>
      </trkpt>
      <trkpt lat="46.17837" lon="6.82153">
        <ele>1855</ele>
        <time>2010-01-02T18:55:12Z</time>
      </trkpt>
      <trkpt lat="46.17828" lon="6.82124">
        <ele>1841</ele>
        <time>2010-01-02T18:55:21Z</time>
      </trkpt>
      <trkpt lat="46.17813" lon="6.82088">
        <ele>1844</ele>
        <time>2010-01-02T18:55:33Z</time>
      </trkpt>
      <trkpt lat="46.17799" lon="6.82067">
        <ele>1845</ele>
        <time>2010-01-02T18:55:41Z</time>
      </trkpt>
      <trkpt lat="46.17795" lon="6.82053">
        <ele>1844</ele>
        <time>2010-01-02T18:55:45Z</time>
      </trkpt>
      <trkpt lat="46.17795" lon="6.82043">
        <ele>1844</ele>
        <time>2010-01-02T18:55:48Z</time>
      </trkpt>
      <trkpt lat="46.17797" lon="6.82029">
        <ele>1845</ele>
        <time>2010-01-02T18:55:52Z</time>
      </trkpt>
      <trkpt lat="46.17796" lon="6.82006">
        <ele>1846</ele>
        <time>2010-01-02T18:55:58Z</time>
      </trkpt>
      <trkpt lat="46.17794" lon="6.81989">
        <ele>1849</ele>
        <time>2010-01-02T18:56:03Z</time>
      </trkpt>
      <trkpt lat="46.17784" lon="6.81953">
        <ele>1847</ele>
        <time>2010-01-02T18:56:14Z</time>
      </trkpt>
      <trkpt lat="46.1778" lon="6.81927">
        <ele>1846</ele>
        <time>2010-01-02T18:56:21Z</time>
      </trkpt>
      <trkpt lat="46.17785" lon="6.81892">
        <ele>1851</ele>
        <time>2010-01-02T18:56:31Z</time>
      </trkpt>
      <trkpt lat="46.17786" lon="6.81871">
        <ele>1852</ele>
        <time>2010-01-02T18:56:37Z</time>
      </trkpt>
      <trkpt lat="46.17778" lon="6.81843">
        <ele>1849</ele>
        <time>2010-01-02T18:56:45Z</time>
      </trkpt>
      <trkpt lat="46.17777" lon="6.81827">
        <ele>1853</ele>
        <time>2010-01-02T18:56:50Z</time>
      </trkpt>
      <trkpt lat="46.17785" lon="6.81799">
        <ele>1858</ele>
        <time>2010-01-02T18:56:58Z</time>
      </trkpt>
      <trkpt lat="46.17788" lon="6.81785">
        <ele>1860</ele>
        <time>2010-01-02T18:57:02Z</time>
      </trkpt>
      <trkpt lat="46.17779" lon="6.81758">
        <ele>1857</ele>
        <time>2010-01-02T18:57:10Z</time>
      </trkpt>
      <trkpt lat="46.17765" lon="6.81729">
        <ele>1859</ele>
        <time>2010-01-02T18:57:20Z</time>
      </trkpt>
      <trkpt lat="46.17746" lon="6.81699">
        <ele>1840</ele>
        <time>2010-01-02T18:57:31Z</time>
      </trkpt>
      <trkpt lat="46.17732" lon="6.81674">
        <ele>1842</ele>
        <time>2010-01-02T18:57:40Z</time>
      </trkpt>
      <trkpt lat="46.17728" lon="6.81646">
        <ele>1843</ele>
        <time>2010-01-02T18:57:48Z</time>
      </trkpt>
      <trkpt lat="46.17735" lon="6.81601">
        <ele>1844</ele>
        <time>2010-01-02T18:58:01Z</time>
      </trkpt>
      <trkpt lat="46.17741" lon="6.81569">
        <ele>1845</ele>
        <time>2010-01-02T18:58:10Z</time>
      </trkpt>
      <trkpt lat="46.17748" lon="6.81513">
        <ele>1845</ele>
        <time>2010-01-02T18:58:26Z</time>
      </trkpt>
      <trkpt lat="46.17751" lon="6.81477">
        <ele>1859</ele>
        <time>2010-01-02T18:58:36Z</time>
      </trkpt>
      <trkpt lat="46.17754" lon="6.81457">
        <ele>1862</ele>
        <time>2010-01-02T18:58:42Z</time>
      </trkpt>
      <trkpt lat="46.17744" lon="6.81434">
        <ele>1848</ele>
        <time>2010-01-02T18:58:49Z</time>
      </trkpt>
      <trkpt lat="46.17733" lon="6.81411">
        <ele>1854</ele>
        <time>2010-01-02T18:58:57Z</time>
      </trkpt>
      <trkpt lat="46.1771" lon="6.81396">
        <ele>1852</ele>
        <time>2010-01-02T18:59:07Z</time>
      </trkpt>
      <trkpt lat="46.17668" lon="6.81371">
        <ele>1850</ele>
        <time>2010-01-02T18:59:25Z</time>
      </trkpt>
      <trkpt lat="46.17635" lon="6.81347">
        <ele>1846</ele>
        <time>2010-01-02T18:59:40Z</time>
      </trkpt>
      <trkpt lat="46.17617" lon="6.81322">
        <ele>1856</ele>
        <time>2010-01-02T18:59:50Z</time>
      </trkpt>
      <trkpt lat="46.17599" lon="6.81315">
        <ele>1855</ele>
        <time>2010-01-02T18:59:58Z</time>
      </trkpt>
      <trkpt lat="46.17576" lon="6.81304">
        <ele>1853</ele>
        <time>2010-01-02T19:00:07Z</time>
      </trkpt>
      <trkpt lat="46.17553" lon="6.81294">
        <ele>1854</ele>
        <time>2010-01-02T19:00:17Z</time>
      </trkpt>
      <trkpt lat="46.17527" lon="6.81293">
        <ele>1853</ele>
        <time>2010-01-02T19:00:27Z</time>
      </trkpt>
      <trkpt lat="46.17504" lon="6.81307">
        <ele>1851</ele>
        <time>2010-01-02T19:00:37Z</time>
      </trkpt>
      <trkpt lat="46.17484" lon="6.81323">
        <ele>1848</ele>
        <time>2010-01-02T19:00:46Z</time>
      </trkpt>
      <trkpt lat="46.1747" lon="6.81348">
        <ele>1842</ele>
        <time>2010-01-02T19:00:55Z</time>
      </trkpt>
      <trkpt lat="46.1745" lon="6.81377">
        <ele>1840</ele>
        <time>2010-01-02T19:01:07Z</time>
      </trkpt>
      <trkpt lat="46.17434" lon="6.81403">
        <ele>1839</ele>
        <time>2010-01-02T19:01:16Z</time>
      </trkpt>
      <trkpt lat="46.17419" lon="6.8143">
        <ele>1834</ele>
        <time>2010-01-02T19:01:26Z</time>
      </trkpt>
      <trkpt lat="46.17402" lon="6.81467">
        <ele>1832</ele>
        <time>2010-01-02T19:01:38Z</time>
      </trkpt>
      <trkpt lat="46.17382" lon="6.81485">
        <ele>1832</ele>
        <time>2010-01-02T19:01:47Z</time>
      </trkpt>
      <trkpt lat="46.17348" lon="6.81511">
        <ele>1828</ele>
        <time>2010-01-02T19:02:03Z</time>
      </trkpt>
      <trkpt lat="46.17327" lon="6.8154">
        <ele>1828</ele>
        <time>2010-01-02T19:02:14Z</time>
      </trkpt>
      <trkpt lat="46.17319" lon="6.81566">
        <ele>1826</ele>
        <time>2010-01-02T19:02:23Z</time>
      </trkpt>
      <trkpt lat="46.17311" lon="6.81589">
        <ele>1820</ele>
        <time>2010-01-02T19:02:30Z</time>
      </trkpt>
      <trkpt lat="46.17295" lon="6.81597">
        <ele>1819</ele>
        <time>2010-01-02T19:02:36Z</time>
      </trkpt>
      <trkpt lat="46.17279" lon="6.81586">
        <ele>1820</ele>
        <time>2010-01-02T19:02:43Z</time>
      </trkpt>
      <trkpt lat="46.17256" lon="6.81585">
        <ele>1824</ele>
        <time>2010-01-02T19:02:53Z</time>
      </trkpt>
      <trkpt lat="46.1723" lon="6.81592">
        <ele>1823</ele>
        <time>2010-01-02T19:03:03Z</time>
      </trkpt>
      <trkpt lat="46.17207" lon="6.81584">
        <ele>1824</ele>
        <time>2010-01-02T19:03:13Z</time>
      </trkpt>
      <trkpt lat="46.17178" lon="6.81576">
        <ele>1830</ele>
        <time>2010-01-02T19:03:25Z</time>
      </trkpt>
      <trkpt lat="46.17162" lon="6.81584">
        <ele>1828</ele>
        <time>2010-01-02T19:03:31Z</time>
      </trkpt>
      <trkpt lat="46.1716" lon="6.81618">
        <ele>1825</ele>
        <time>2010-01-02T19:03:41Z</time>
      </trkpt>
      <trkpt lat="46.17147" lon="6.81636">
        <ele>1824</ele>
        <time>2010-01-02T19:03:48Z</time>
      </trkpt>
      <trkpt lat="46.17134" lon="6.81645">
        <ele>1824</ele>
        <time>2010-01-02T19:03:54Z</time>
      </trkpt>
      <trkpt lat="46.17094" lon="6.81661">
        <ele>1823</ele>
        <time>2010-01-02T19:04:11Z</time>
      </trkpt>
      <trkpt lat="46.17058" lon="6.81675">
        <ele>1818</ele>
        <time>2010-01-02T19:04:25Z</time>
      </trkpt>
      <trkpt lat="46.17033" lon="6.81674">
        <ele>1817</ele>
        <time>2010-01-02T19:04:35Z</time>
      </trkpt>
      <trkpt lat="46.17016" lon="6.8167">
        <ele>1818</ele>
        <time>2010-01-02T19:04:42Z</time>
      </trkpt>
      <trkpt lat="46.17004" lon="6.8165">
        <ele>1823</ele>
        <time>2010-01-02T19:04:50Z</time>
      </trkpt>
      <trkpt lat="46.16981" lon="6.81617">
        <ele>1817</ele>
        <time>2010-01-02T19:05:03Z</time>
      </trkpt>
      <trkpt lat="46.16969" lon="6.81592">
        <ele>1817</ele>
        <time>2010-01-02T19:05:11Z</time>
      </trkpt>
      <trkpt lat="46.16963" lon="6.81566">
        <ele>1821</ele>
        <time>2010-01-02T19:05:19Z</time>
      </trkpt>
      <trkpt lat="46.16968" lon="6.81538">
        <ele>1822</ele>
        <time>2010-01-02T19:05:27Z</time>
      </trkpt>
      <trkpt lat="46.16966" lon="6.81518">
        <ele>1823</ele>
        <time>2010-01-02T19:05:32Z</time>
      </trkpt>
      <trkpt lat="46.16945" lon="6.81467">
        <ele>1828</ele>
        <time>2010-01-02T19:05:49Z</time>
      </trkpt>
      <trkpt lat="46.16913" lon="6.81417">
        <ele>1817</ele>
        <time>2010-01-02T19:06:08Z</time>
      </trkpt>
      <trkpt lat="46.16899" lon="6.81396">
        <ele>1816</ele>
        <time>2010-01-02T19:06:16Z</time>
      </trkpt>
      <trkpt lat="46.16888" lon="6.81372">
        <ele>1815</ele>
        <time>2010-01-02T19:06:24Z</time>
      </trkpt>
      <trkpt lat="46.16883" lon="6.81351">
        <ele>1816</ele>
        <time>2010-01-02T19:06:30Z</time>
      </trkpt>
      <trkpt lat="46.16872" lon="6.81336">
        <ele>1814</ele>
        <time>2010-01-02T19:06:36Z</time>
      </trkpt>
      <trkpt lat="46.16842" lon="6.8129">
        <ele>1819</ele>
        <time>2010-01-02T19:06:53Z</time>
      </trkpt>
      <trkpt lat="46.16826" lon="6.81252">
        <ele>1809</ele>
        <time>2010-01-02T19:07:05Z</time>
      </trkpt>
      <trkpt lat="46.16817" lon="6.81234">
        <ele>1811</ele>
        <time>2010-01-02T19:07:12Z</time>
      </trkpt>
      <trkpt lat="46.16801" lon="6.81232">
        <ele>1809</ele>
        <time>2010-01-02T19:07:18Z</time>
      </trkpt>
      <trkpt lat="46.16786" lon="6.81222">
        <ele>1807</ele>
        <time>2010-01-02T19:07:25Z</time>
      </trkpt>
      <trkpt lat="46.16775" lon="6.81202">
        <ele>1808</ele>
        <time>2010-01-02T19:07:32Z</time>
      </trkpt>
      <trkpt lat="46.16746" lon="6.81181">
        <ele>1796</ele>
        <time>2010-01-02T19:07:45Z</time>
      </trkpt>
      <trkpt lat="46.16725" lon="6.81164">
        <ele>1800</ele>
        <time>2010-01-02T19:07:54Z</time>
      </trkpt>
      <trkpt lat="46.1671" lon="6.81142">
        <ele>1798</ele>
        <time>2010-01-02T19:08:03Z</time>
      </trkpt>
      <trkpt lat="46.16704" lon="6.81125">
        <ele>1798</ele>
        <time>2010-01-02T19:08:08Z</time>
      </trkpt>
      <trkpt lat="46.1669" lon="6.81092">
        <ele>1797</ele>
        <time>2010-01-02T19:08:19Z</time>
      </trkpt>
      <trkpt lat="46.16677" lon="6.81074">
        <ele>1798</ele>
        <time>2010-01-02T19:08:26Z</time>
      </trkpt>
      <trkpt lat="46.16664" lon="6.81061">
        <ele>1788</ele>
        <time>2010-01-02T19:08:33Z</time>
      </trkpt>
      <trkpt lat="46.16653" lon="6.81057">
        <ele>1787</ele>
        <time>2010-01-02T19:08:37Z</time>
      </trkpt>
      <trkpt lat="46.16654" lon="6.81072">
        <ele>1788</ele>
        <time>2010-01-02T19:08:41Z</time>
      </trkpt>
      <trkpt lat="46.16666" lon="6.81079">
        <ele>1790</ele>
        <time>2010-01-02T19:08:46Z</time>
      </trkpt>
      <trkpt lat="46.16678" lon="6.81101">
        <ele>1795</ele>
        <time>2010-01-02T19:08:54Z</time>
      </trkpt>
      <trkpt lat="46.16684" lon="6.81136">
        <ele>1794</ele>
        <time>2010-01-02T19:09:04Z</time>
      </trkpt>
      <trkpt lat="46.1669" lon="6.81179">
        <ele>1785</ele>
        <time>2010-01-02T19:09:16Z</time>
      </trkpt>
      <trkpt lat="46.1669" lon="6.81206">
        <ele>1783</ele>
        <time>2010-01-02T19:09:24Z</time>
      </trkpt>
      <trkpt lat="46.16696" lon="6.81234">
        <ele>1781</ele>
        <time>2010-01-02T19:09:32Z</time>
      </trkpt>
      <trkpt lat="46.16703" lon="6.81255">
        <ele>1774</ele>
        <time>2010-01-02T19:09:38Z</time>
      </trkpt>
      <trkpt lat="46.1671" lon="6.81268">
        <ele>1775</ele>
        <time>2010-01-02T19:09:43Z</time>
      </trkpt>
      <trkpt lat="46.16705" lon="6.81288">
        <ele>1773</ele>
        <time>2010-01-02T19:09:49Z</time>
      </trkpt>
      <trkpt lat="46.16706" lon="6.81309">
        <ele>1772</ele>
        <time>2010-01-02T19:09:55Z</time>
      </trkpt>
      <trkpt lat="46.1672" lon="6.81332">
        <ele>1774</ele>
        <time>2010-01-02T19:10:03Z</time>
      </trkpt>
      <trkpt lat="46.16721" lon="6.81349">
        <ele>1770</ele>
        <time>2010-01-02T19:10:08Z</time>
      </trkpt>
      <trkpt lat="46.16711" lon="6.8138">
        <ele>1768</ele>
        <time>2010-01-02T19:10:17Z</time>
      </trkpt>
      <trkpt lat="46.1671" lon="6.81417">
        <ele>1766</ele>
        <time>2010-01-02T19:10:28Z</time>
      </trkpt>
      <trkpt lat="46.16713" lon="6.81443">
        <ele>1766</ele>
        <time>2010-01-02T19:10:35Z</time>
      </trkpt>
      <trkpt lat="46.16709" lon="6.81464">
        <ele>1764</ele>
        <time>2010-01-02T19:10:41Z</time>
      </trkpt>
      <trkpt lat="46.16708" lon="6.81488">
        <ele>1764</ele>
        <time>2010-01-02T19:10:48Z</time>
      </trkpt>
      <trkpt lat="46.16705" lon="6.81504">
        <ele>1760</ele>
        <time>2010-01-02T19:10:52Z</time>
      </trkpt>
      <trkpt lat="46.16704" lon="6.81523">
        <ele>1760</ele>
        <time>2010-01-02T19:10:57Z</time>
      </trkpt>
      <trkpt lat="46.16699" lon="6.81538">
        <ele>1759</ele>
        <time>2010-01-02T19:11:02Z</time>
      </trkpt>
      <trkpt lat="46.16688" lon="6.8158">
        <ele>1755</ele>
        <time>2010-01-02T19:11:14Z</time>
      </trkpt>
      <trkpt lat="46.16672" lon="6.81587">
        <ele>1750</ele>
        <time>2010-01-02T19:11:21Z</time>
      </trkpt>
      <trkpt lat="46.16658" lon="6.81594">
        <ele>1744</ele>
        <time>2010-01-02T19:11:27Z</time>
      </trkpt>
      <trkpt lat="46.16638" lon="6.81589">
        <ele>1741</ele>
        <time>2010-01-02T19:11:35Z</time>
      </trkpt>
      <trkpt lat="46.16629" lon="6.8158">
        <ele>1743</ele>
        <time>2010-01-02T19:11:40Z</time>
      </trkpt>
      <trkpt lat="46.16621" lon="6.81567">
        <ele>1742</ele>
        <time>2010-01-02T19:11:45Z</time>
      </trkpt>
      <trkpt lat="46.16622" lon="6.81553">
        <ele>1743</ele>
        <time>2010-01-02T19:11:48Z</time>
      </trkpt>
      <trkpt lat="46.16627" lon="6.81549">
        <ele>1744</ele>
        <time>2010-01-02T19:11:51Z</time>
      </trkpt>
      <trkpt lat="46.16628" lon="6.81548">
        <ele>1744</ele>
        <time>2010-01-02T19:11:51Z</time>
      </trkpt>
      <trkpt lat="46.1663" lon="6.81546">
        <ele>1744</ele>
        <time>2010-01-02T19:11:52Z</time>
      </trkpt>
      <trkpt lat="46.16631" lon="6.81543">
        <ele>1744</ele>
        <time>2010-01-02T19:11:53Z</time>
      </trkpt>
      <trkpt lat="46.16631" lon="6.8154">
        <ele>1744</ele>
        <time>2010-01-02T19:11:54Z</time>
      </trkpt>
      <trkpt lat="46.16632" lon="6.81537">
        <ele>1744</ele>
        <time>2010-01-02T19:11:55Z</time>
      </trkpt>
      <trkpt lat="46.16631" lon="6.81534">
        <ele>1744</ele>
        <time>2010-01-02T19:11:56Z</time>
      </trkpt>
      <trkpt lat="46.16629" lon="6.81531">
        <ele>1744</ele>
        <time>2010-01-02T19:11:57Z</time>
      </trkpt>
      <trkpt lat="46.16628" lon="6.81529">
        <ele>1744</ele>
        <time>2010-01-02T19:11:57Z</time>
      </trkpt>
      <trkpt lat="46.16628" lon="6.81527">
        <ele>1744</ele>
        <time>2010-01-02T19:11:58Z</time>
      </trkpt>
      <trkpt lat="46.16617" lon="6.81518">
        <ele>1743</ele>
        <time>2010-01-02T19:12:03Z</time>
      </trkpt>
      <trkpt lat="46.16611" lon="6.81513">
        <ele>1742</ele>
        <time>2010-01-02T19:12:06Z</time>
      </trkpt>
      <trkpt lat="46.16609" lon="6.81511">
        <ele>1742</ele>
        <time>2010-01-02T19:12:07Z</time>
      </trkpt>
      <trkpt lat="46.16608" lon="6.81509">
        <ele>1742</ele>
        <time>2010-01-02T19:12:07Z</time>
      </trkpt>
      <trkpt lat="46.16607" lon="6.81506">
        <ele>1742</ele>
        <time>2010-01-02T19:12:08Z</time>
      </trkpt>
      <trkpt lat="46.16607" lon="6.81503">
        <ele>1742</ele>
        <time>2010-01-02T19:12:09Z</time>
      </trkpt>
      <trkpt lat="46.16607" lon="6.81501">
        <ele>1742</ele>
        <time>2010-01-02T19:12:10Z</time>
      </trkpt>
      <trkpt lat="46.16606" lon="6.81497">
        <ele>1743</ele>
        <time>2010-01-02T19:12:11Z</time>
      </trkpt>
      <trkpt lat="46.16605" lon="6.81494">
        <ele>1743</ele>
        <time>2010-01-02T19:12:12Z</time>
      </trkpt>
      <trkpt lat="46.16605" lon="6.81492">
        <ele>1743</ele>
        <time>2010-01-02T19:12:12Z</time>
      </trkpt>
      <trkpt lat="46.16604" lon="6.81489">
        <ele>1743</ele>
        <time>2010-01-02T19:12:13Z</time>
      </trkpt>
      <trkpt lat="46.16604" lon="6.81488">
        <ele>1743</ele>
        <time>2010-01-02T19:12:13Z</time>
      </trkpt>
      <trkpt lat="46.16604" lon="6.8148">
        <ele>1743</ele>
        <time>2010-01-02T19:12:16Z</time>
      </trkpt>
      <trkpt lat="46.16605" lon="6.81472">
        <ele>1744</ele>
        <time>2010-01-02T19:12:18Z</time>
      </trkpt>
      <trkpt lat="46.16609" lon="6.81464">
        <ele>1744</ele>
        <time>2010-01-02T19:12:21Z</time>
      </trkpt>
      <trkpt lat="46.16611" lon="6.81462">
        <ele>1744</ele>
        <time>2010-01-02T19:12:22Z</time>
      </trkpt>
      <trkpt lat="46.16613" lon="6.8146">
        <ele>1745</ele>
        <time>2010-01-02T19:12:23Z</time>
      </trkpt>
      <trkpt lat="46.16614" lon="6.81457">
        <ele>1745</ele>
        <time>2010-01-02T19:12:23Z</time>
      </trkpt>
      <trkpt lat="46.16615" lon="6.81455">
        <ele>1745</ele>
        <time>2010-01-02T19:12:24Z</time>
      </trkpt>
      <trkpt lat="46.16616" lon="6.81454">
        <ele>1745</ele>
        <time>2010-01-02T19:12:25Z</time>
      </trkpt>
      <trkpt lat="46.16616" lon="6.81451">
        <ele>1745</ele>
        <time>2010-01-02T19:12:26Z</time>
      </trkpt>
      <trkpt lat="46.16616" lon="6.8145">
        <ele>1745</ele>
        <time>2010-01-02T19:12:26Z</time>
      </trkpt>
      <trkpt lat="46.16615" lon="6.81445">
        <ele>1745</ele>
        <time>2010-01-02T19:12:27Z</time>
      </trkpt>
      <trkpt lat="46.166" lon="6.81441">
        <ele>1743</ele>
        <time>2010-01-02T19:12:33Z</time>
      </trkpt>
      <trkpt lat="46.16591" lon="6.81436">
        <ele>1742</ele>
        <time>2010-01-02T19:12:37Z</time>
      </trkpt>
      <trkpt lat="46.1659" lon="6.81417">
        <ele>1740</ele>
        <time>2010-01-02T19:12:42Z</time>
      </trkpt>
      <trkpt lat="46.16595" lon="6.81404">
        <ele>1741</ele>
        <time>2010-01-02T19:12:46Z</time>
      </trkpt>
      <trkpt lat="46.16601" lon="6.81382">
        <ele>1743</ele>
        <time>2010-01-02T19:12:53Z</time>
      </trkpt>
      <trkpt lat="46.16596" lon="6.81356">
        <ele>1741</ele>
        <time>2010-01-02T19:13:01Z</time>
      </trkpt>
      <trkpt lat="46.16596" lon="6.81336">
        <ele>1739</ele>
        <time>2010-01-02T19:13:06Z</time>
      </trkpt>
      <trkpt lat="46.166" lon="6.81324">
        <ele>1742</ele>
        <time>2010-01-02T19:13:10Z</time>
      </trkpt>
      <trkpt lat="46.16606" lon="6.81317">
        <ele>1744</ele>
        <time>2010-01-02T19:13:13Z</time>
      </trkpt>
      <trkpt lat="46.16608" lon="6.81308">
        <ele>1745</ele>
        <time>2010-01-02T19:13:16Z</time>
      </trkpt>
      <trkpt lat="46.16608" lon="6.81305">
        <ele>1746</ele>
        <time>2010-01-02T19:13:17Z</time>
      </trkpt>
      <trkpt lat="46.16607" lon="6.81302">
        <ele>1746</ele>
        <time>2010-01-02T19:13:18Z</time>
      </trkpt>
      <trkpt lat="46.16605" lon="6.81301">
        <ele>1746</ele>
        <time>2010-01-02T19:13:18Z</time>
      </trkpt>
      <trkpt lat="46.16603" lon="6.81299">
        <ele>1745</ele>
        <time>2010-01-02T19:13:19Z</time>
      </trkpt>
      <trkpt lat="46.166" lon="6.81298">
        <ele>1745</ele>
        <time>2010-01-02T19:13:21Z</time>
      </trkpt>
      <trkpt lat="46.16586" lon="6.81287">
        <ele>1745</ele>
        <time>2010-01-02T19:13:27Z</time>
      </trkpt>
      <trkpt lat="46.16571" lon="6.81268">
        <ele>1732</ele>
        <time>2010-01-02T19:13:35Z</time>
      </trkpt>
      <trkpt lat="46.16565" lon="6.81257">
        <ele>1733</ele>
        <time>2010-01-02T19:13:39Z</time>
      </trkpt>
      <trkpt lat="46.16563" lon="6.81255">
        <ele>1733</ele>
        <time>2010-01-02T19:13:40Z</time>
      </trkpt>
      <trkpt lat="46.16562" lon="6.81253">
        <ele>1732</ele>
        <time>2010-01-02T19:13:41Z</time>
      </trkpt>
      <trkpt lat="46.1656" lon="6.8125">
        <ele>1737</ele>
        <time>2010-01-02T19:13:42Z</time>
      </trkpt>
      <trkpt lat="46.16559" lon="6.81247">
        <ele>1737</ele>
        <time>2010-01-02T19:13:43Z</time>
      </trkpt>
      <trkpt lat="46.16559" lon="6.81244">
        <ele>1737</ele>
        <time>2010-01-02T19:13:43Z</time>
      </trkpt>
      <trkpt lat="46.1656" lon="6.8124">
        <ele>1737</ele>
        <time>2010-01-02T19:13:45Z</time>
      </trkpt>
      <trkpt lat="46.16559" lon="6.81237">
        <ele>1737</ele>
        <time>2010-01-02T19:13:45Z</time>
      </trkpt>
      <trkpt lat="46.16558" lon="6.81235">
        <ele>1737</ele>
        <time>2010-01-02T19:13:46Z</time>
      </trkpt>
      <trkpt lat="46.16557" lon="6.81234">
        <ele>1737</ele>
        <time>2010-01-02T19:13:47Z</time>
      </trkpt>
      <trkpt lat="46.16552" lon="6.81218">
        <ele>1737</ele>
        <time>2010-01-02T19:13:51Z</time>
      </trkpt>
      <trkpt lat="46.16532" lon="6.81206">
        <ele>1735</ele>
        <time>2010-01-02T19:14:00Z</time>
      </trkpt>
      <trkpt lat="46.16512" lon="6.81217">
        <ele>1732</ele>
        <time>2010-01-02T19:14:09Z</time>
      </trkpt>
      <trkpt lat="46.16487" lon="6.81205">
        <ele>1721</ele>
        <time>2010-01-02T19:14:19Z</time>
      </trkpt>
      <trkpt lat="46.1646" lon="6.81188">
        <ele>1719</ele>
        <time>2010-01-02T19:14:31Z</time>
      </trkpt>
      <trkpt lat="46.16435" lon="6.81164">
        <ele>1720</ele>
        <time>2010-01-02T19:14:43Z</time>
      </trkpt>
      <trkpt lat="46.16423" lon="6.81133">
        <ele>1722</ele>
        <time>2010-01-02T19:14:53Z</time>
      </trkpt>
      <trkpt lat="46.16421" lon="6.81111">
        <ele>1722</ele>
        <time>2010-01-02T19:14:59Z</time>
      </trkpt>
      <trkpt lat="46.16433" lon="6.81084">
        <ele>1721</ele>
        <time>2010-01-02T19:15:08Z</time>
      </trkpt>
      <trkpt lat="46.16433" lon="6.8107">
        <ele>1725</ele>
        <time>2010-01-02T19:15:11Z</time>
      </trkpt>
      <trkpt lat="46.16433" lon="6.8106">
        <ele>1726</ele>
        <time>2010-01-02T19:15:14Z</time>
      </trkpt>
      <trkpt lat="46.1643" lon="6.8103">
        <ele>1727</ele>
        <time>2010-01-02T19:15:23Z</time>
      </trkpt>
      <trkpt lat="46.16427" lon="6.81012">
        <ele>1723</ele>
        <time>2010-01-02T19:15:28Z</time>
      </trkpt>
      <trkpt lat="46.16422" lon="6.81002">
        <ele>1718</ele>
        <time>2010-01-02T19:15:31Z</time>
      </trkpt>
      <trkpt lat="46.1642" lon="6.81001">
        <ele>1717</ele>
        <time>2010-01-02T19:15:32Z</time>
      </trkpt>
      <trkpt lat="46.16418" lon="6.80998">
        <ele>1717</ele>
        <time>2010-01-02T19:15:33Z</time>
      </trkpt>
      <trkpt lat="46.16416" lon="6.80997">
        <ele>1713</ele>
        <time>2010-01-02T19:15:34Z</time>
      </trkpt>
      <trkpt lat="46.16415" lon="6.80995">
        <ele>1712</ele>
        <time>2010-01-02T19:15:35Z</time>
      </trkpt>
      <trkpt lat="46.16412" lon="6.8098">
        <ele>1707</ele>
        <time>2010-01-02T19:15:39Z</time>
      </trkpt>
      <trkpt lat="46.16409" lon="6.80948">
        <ele>1705</ele>
        <time>2010-01-02T19:15:48Z</time>
      </trkpt>
      <trkpt lat="46.16409" lon="6.80927">
        <ele>1709</ele>
        <time>2010-01-02T19:15:54Z</time>
      </trkpt>
      <trkpt lat="46.16395" lon="6.80892">
        <ele>1701</ele>
        <time>2010-01-02T19:16:05Z</time>
      </trkpt>
      <trkpt lat="46.16395" lon="6.80861">
        <ele>1700</ele>
        <time>2010-01-02T19:16:14Z</time>
      </trkpt>
      <trkpt lat="46.16394" lon="6.80827">
        <ele>1697</ele>
        <time>2010-01-02T19:16:23Z</time>
      </trkpt>
      <trkpt lat="46.16402" lon="6.80815">
        <ele>1697</ele>
        <time>2010-01-02T19:16:28Z</time>
      </trkpt>
      <trkpt lat="46.16417" lon="6.80801">
        <ele>1716</ele>
        <time>2010-01-02T19:16:35Z</time>
      </trkpt>
      <trkpt lat="46.16421" lon="6.80789">
        <ele>1716</ele>
        <time>2010-01-02T19:16:38Z</time>
      </trkpt>
      <trkpt lat="46.16408" lon="6.80768">
        <ele>1696</ele>
        <time>2010-01-02T19:16:46Z</time>
      </trkpt>
      <trkpt lat="46.16401" lon="6.80745">
        <ele>1694</ele>
        <time>2010-01-02T19:16:53Z</time>
      </trkpt>
      <trkpt lat="46.16401" lon="6.80721">
        <ele>1691</ele>
        <time>2010-01-02T19:17:00Z</time>
      </trkpt>
      <trkpt lat="46.16413" lon="6.807">
        <ele>1692</ele>
        <time>2010-01-02T19:17:07Z</time>
      </trkpt>
      <trkpt lat="46.16399" lon="6.80649">
        <ele>1689</ele>
        <time>2010-01-02T19:17:23Z</time>
      </trkpt>
      <trkpt lat="46.16402" lon="6.80619">
        <ele>1688</ele>
        <time>2010-01-02T19:17:31Z</time>
      </trkpt>
      <trkpt lat="46.16404" lon="6.8058">
        <ele>1692</ele>
        <time>2010-01-02T19:17:42Z</time>
      </trkpt>
      <trkpt lat="46.16391" lon="6.80553">
        <ele>1685</ele>
        <time>2010-01-02T19:17:51Z</time>
      </trkpt>
      <trkpt lat="46.16384" lon="6.80529">
        <ele>1684</ele>
        <time>2010-01-02T19:17:58Z</time>
      </trkpt>
      <trkpt lat="46.16375" lon="6.80499">
        <ele>1684</ele>
        <time>2010-01-02T19:18:07Z</time>
      </trkpt>
      <trkpt lat="46.16364" lon="6.80473">
        <ele>1682</ele>
        <time>2010-01-02T19:18:16Z</time>
      </trkpt>
      <trkpt lat="46.16356" lon="6.80423">
        <ele>1682</ele>
        <time>2010-01-02T19:18:30Z</time>
      </trkpt>
      <trkpt lat="46.16337" lon="6.80411">
        <ele>1680</ele>
        <time>2010-01-02T19:18:38Z</time>
      </trkpt>
      <trkpt lat="46.16325" lon="6.80377">
        <ele>1675</ele>
        <time>2010-01-02T19:18:49Z</time>
      </trkpt>
      <trkpt lat="46.16314" lon="6.80365">
        <ele>1676</ele>
        <time>2010-01-02T19:18:54Z</time>
      </trkpt>
      <trkpt lat="46.16296" lon="6.80351">
        <ele>1675</ele>
        <time>2010-01-02T19:19:02Z</time>
      </trkpt>
      <trkpt lat="46.16268" lon="6.80315">
        <ele>1682</ele>
        <time>2010-01-02T19:19:18Z</time>
      </trkpt>
      <trkpt lat="46.16244" lon="6.80272">
        <ele>1676</ele>
        <time>2010-01-02T19:19:33Z</time>
      </trkpt>
      <trkpt lat="46.16224" lon="6.80251">
        <ele>1675</ele>
        <time>2010-01-02T19:19:43Z</time>
      </trkpt>
      <trkpt lat="46.16202" lon="6.80239">
        <ele>1682</ele>
        <time>2010-01-02T19:19:52Z</time>
      </trkpt>
      <trkpt lat="46.16177" lon="6.80208">
        <ele>1684</ele>
        <time>2010-01-02T19:20:05Z</time>
      </trkpt>
      <trkpt lat="46.16159" lon="6.80197">
        <ele>1678</ele>
        <time>2010-01-02T19:20:13Z</time>
      </trkpt>
      <trkpt lat="46.16135" lon="6.80189">
        <ele>1679</ele>
        <time>2010-01-02T19:20:23Z</time>
      </trkpt>
      <trkpt lat="46.16099" lon="6.80189">
        <ele>1680</ele>
        <time>2010-01-02T19:20:38Z</time>
      </trkpt>
      <trkpt lat="46.16036" lon="6.80235">
        <ele>1674</ele>
        <time>2010-01-02T19:21:06Z</time>
      </trkpt>
      <trkpt lat="46.16023" lon="6.80252">
        <ele>1661</ele>
        <time>2010-01-02T19:21:13Z</time>
      </trkpt>
      <trkpt lat="46.16013" lon="6.80249">
        <ele>1673</ele>
        <time>2010-01-02T19:21:17Z</time>
      </trkpt>
      <trkpt lat="46.16001" lon="6.80245">
        <ele>1672</ele>
        <time>2010-01-02T19:21:22Z</time>
      </trkpt>
      <trkpt lat="46.15999" lon="6.80241">
        <ele>1671</ele>
        <time>2010-01-02T19:21:23Z</time>
      </trkpt>
      <trkpt lat="46.15997" lon="6.80238">
        <ele>1671</ele>
        <time>2010-01-02T19:21:24Z</time>
      </trkpt>
      <trkpt lat="46.15995" lon="6.80236">
        <ele>1671</ele>
        <time>2010-01-02T19:21:25Z</time>
      </trkpt>
      <trkpt lat="46.15994" lon="6.80235">
        <ele>1671</ele>
        <time>2010-01-02T19:21:26Z</time>
      </trkpt>
      <trkpt lat="46.15991" lon="6.80234">
        <ele>1671</ele>
        <time>2010-01-02T19:21:27Z</time>
      </trkpt>
      <trkpt lat="46.15991" lon="6.80234">
        <ele>1671</ele>
        <time>2010-01-02T19:21:27Z</time>
      </trkpt>
      <trkpt lat="46.15981" lon="6.80236">
        <ele>1670</ele>
        <time>2010-01-02T19:21:31Z</time>
      </trkpt>
      <trkpt lat="46.15955" lon="6.80227">
        <ele>1668</ele>
        <time>2010-01-02T19:21:42Z</time>
      </trkpt>
      <trkpt lat="46.15949" lon="6.80219">
        <ele>1668</ele>
        <time>2010-01-02T19:21:45Z</time>
      </trkpt>
      <trkpt lat="46.15943" lon="6.80215">
        <ele>1668</ele>
        <time>2010-01-02T19:21:48Z</time>
      </trkpt>
      <trkpt lat="46.15941" lon="6.80221">
        <ele>1667</ele>
        <time>2010-01-02T19:21:49Z</time>
      </trkpt>
      <trkpt lat="46.15939" lon="6.80219">
        <ele>1667</ele>
        <time>2010-01-02T19:21:50Z</time>
      </trkpt>
      <trkpt lat="46.15937" lon="6.80218">
        <ele>1667</ele>
        <time>2010-01-02T19:21:51Z</time>
      </trkpt>
      <trkpt lat="46.15935" lon="6.80215">
        <ele>1667</ele>
        <time>2010-01-02T19:21:53Z</time>
      </trkpt>
      <trkpt lat="46.15933" lon="6.80214">
        <ele>1667</ele>
        <time>2010-01-02T19:21:53Z</time>
      </trkpt>
      <trkpt lat="46.15919" lon="6.80218">
        <ele>1665</ele>
        <time>2010-01-02T19:21:59Z</time>
      </trkpt>
      <trkpt lat="46.159" lon="6.80218">
        <ele>1650</ele>
        <time>2010-01-02T19:22:07Z</time>
      </trkpt>
      <trkpt lat="46.15889" lon="6.802">
        <ele>1650</ele>
        <time>2010-01-02T19:22:13Z</time>
      </trkpt>
      <trkpt lat="46.15867" lon="6.80163">
        <ele>1656</ele>
        <time>2010-01-02T19:22:27Z</time>
      </trkpt>
      <trkpt lat="46.15847" lon="6.80133">
        <ele>1657</ele>
        <time>2010-01-02T19:22:38Z</time>
      </trkpt>
      <trkpt lat="46.15831" lon="6.80109">
        <ele>1649</ele>
        <time>2010-01-02T19:22:48Z</time>
      </trkpt>
      <trkpt lat="46.15816" lon="6.80097">
        <ele>1650</ele>
        <time>2010-01-02T19:22:54Z</time>
      </trkpt>
      <trkpt lat="46.1581" lon="6.80103">
        <ele>1648</ele>
        <time>2010-01-02T19:22:57Z</time>
      </trkpt>
      <trkpt lat="46.1582" lon="6.80143">
        <ele>1643</ele>
        <time>2010-01-02T19:23:09Z</time>
      </trkpt>
      <trkpt lat="46.15831" lon="6.80205">
        <ele>1631</ele>
        <time>2010-01-02T19:23:27Z</time>
      </trkpt>
      <trkpt lat="46.15835" lon="6.80275">
        <ele>1630</ele>
        <time>2010-01-02T19:23:46Z</time>
      </trkpt>
      <trkpt lat="46.1583" lon="6.80331">
        <ele>1613</ele>
        <time>2010-01-02T19:24:02Z</time>
      </trkpt>
      <trkpt lat="46.15841" lon="6.80366">
        <ele>1612</ele>
        <time>2010-01-02T19:24:13Z</time>
      </trkpt>
      <trkpt lat="46.15858" lon="6.80384">
        <ele>1611</ele>
        <time>2010-01-02T19:24:21Z</time>
      </trkpt>
      <trkpt lat="46.15893" lon="6.80437">
        <ele>1594</ele>
        <time>2010-01-02T19:24:42Z</time>
      </trkpt>
      <trkpt lat="46.15913" lon="6.80456">
        <ele>1591</ele>
        <time>2010-01-02T19:24:51Z</time>
      </trkpt>
      <trkpt lat="46.15928" lon="6.80485">
        <ele>1596</ele>
        <time>2010-01-02T19:25:01Z</time>
      </trkpt>
      <trkpt lat="46.15969" lon="6.8051">
        <ele>1584</ele>
        <time>2010-01-02T19:25:19Z</time>
      </trkpt>
      <trkpt lat="46.15973" lon="6.80518">
        <ele>1583</ele>
        <time>2010-01-02T19:25:22Z</time>
      </trkpt>
      <trkpt lat="46.15985" lon="6.80534">
        <ele>1580</ele>
        <time>2010-01-02T19:25:28Z</time>
      </trkpt>
      <trkpt lat="46.15972" lon="6.80534">
        <ele>1579</ele>
        <time>2010-01-02T19:25:33Z</time>
      </trkpt>
      <trkpt lat="46.15953" lon="6.80529">
        <ele>1578</ele>
        <time>2010-01-02T19:25:41Z</time>
      </trkpt>
      <trkpt lat="46.15943" lon="6.80539">
        <ele>1575</ele>
        <time>2010-01-02T19:25:46Z</time>
      </trkpt>
      <trkpt lat="46.15927" lon="6.80539">
        <ele>1574</ele>
        <time>2010-01-02T19:25:52Z</time>
      </trkpt>
      <trkpt lat="46.15905" lon="6.80523">
        <ele>1565</ele>
        <time>2010-01-02T19:26:02Z</time>
      </trkpt>
      <trkpt lat="46.15895" lon="6.80514">
        <ele>1564</ele>
        <time>2010-01-02T19:26:07Z</time>
      </trkpt>
      <trkpt lat="46.15893" lon="6.80513">
        <ele>1564</ele>
        <time>2010-01-02T19:26:08Z</time>
      </trkpt>
      <trkpt lat="46.15891" lon="6.80513">
        <ele>1563</ele>
        <time>2010-01-02T19:26:09Z</time>
      </trkpt>
      <trkpt lat="46.15888" lon="6.80512">
        <ele>1562</ele>
        <time>2010-01-02T19:26:10Z</time>
      </trkpt>
      <trkpt lat="46.15887" lon="6.80511">
        <ele>1562</ele>
        <time>2010-01-02T19:26:10Z</time>
      </trkpt>
      <trkpt lat="46.15886" lon="6.80509">
        <ele>1562</ele>
        <time>2010-01-02T19:26:11Z</time>
      </trkpt>
      <trkpt lat="46.15883" lon="6.80508">
        <ele>1561</ele>
        <time>2010-01-02T19:26:12Z</time>
      </trkpt>
      <trkpt lat="46.15881" lon="6.80506">
        <ele>1561</ele>
        <time>2010-01-02T19:26:13Z</time>
      </trkpt>
      <trkpt lat="46.15879" lon="6.80504">
        <ele>1560</ele>
        <time>2010-01-02T19:26:14Z</time>
      </trkpt>
      <trkpt lat="46.15877" lon="6.80502">
        <ele>1560</ele>
        <time>2010-01-02T19:26:15Z</time>
      </trkpt>
      <trkpt lat="46.15875" lon="6.80502">
        <ele>1559</ele>
        <time>2010-01-02T19:26:16Z</time>
      </trkpt>
      <trkpt lat="46.15874" lon="6.80501">
        <ele>1559</ele>
        <time>2010-01-02T19:26:16Z</time>
      </trkpt>
      <trkpt lat="46.15858" lon="6.80496">
        <ele>1573</ele>
        <time>2010-01-02T19:26:23Z</time>
      </trkpt>
      <trkpt lat="46.15848" lon="6.80494">
        <ele>1568</ele>
        <time>2010-01-02T19:26:27Z</time>
      </trkpt>
      <trkpt lat="46.15843" lon="6.8049">
        <ele>1566</ele>
        <time>2010-01-02T19:26:29Z</time>
      </trkpt>
      <trkpt lat="46.15842" lon="6.8049">
        <ele>1566</ele>
        <time>2010-01-02T19:26:30Z</time>
      </trkpt>
      <trkpt lat="46.15839" lon="6.80489">
        <ele>1565</ele>
        <time>2010-01-02T19:26:31Z</time>
      </trkpt>
      <trkpt lat="46.15837" lon="6.80488">
        <ele>1565</ele>
        <time>2010-01-02T19:26:32Z</time>
      </trkpt>
      <trkpt lat="46.15835" lon="6.80488">
        <ele>1565</ele>
        <time>2010-01-02T19:26:33Z</time>
      </trkpt>
      <trkpt lat="46.15831" lon="6.80489">
        <ele>1560</ele>
        <time>2010-01-02T19:26:34Z</time>
      </trkpt>
      <trkpt lat="46.15829" lon="6.80489">
        <ele>1561</ele>
        <time>2010-01-02T19:26:35Z</time>
      </trkpt>
      <trkpt lat="46.15828" lon="6.8049">
        <ele>1560</ele>
        <time>2010-01-02T19:26:36Z</time>
      </trkpt>
      <trkpt lat="46.15828" lon="6.80493">
        <ele>1559</ele>
        <time>2010-01-02T19:26:36Z</time>
      </trkpt>
      <trkpt lat="46.15829" lon="6.80495">
        <ele>1557</ele>
        <time>2010-01-02T19:26:37Z</time>
      </trkpt>
      <trkpt lat="46.15833" lon="6.80501">
        <ele>1552</ele>
        <time>2010-01-02T19:26:39Z</time>
      </trkpt>
      <trkpt lat="46.15841" lon="6.8051">
        <ele>1553</ele>
        <time>2010-01-02T19:26:43Z</time>
      </trkpt>
      <trkpt lat="46.15857" lon="6.80522">
        <ele>1554</ele>
        <time>2010-01-02T19:26:51Z</time>
      </trkpt>
      <trkpt lat="46.15865" lon="6.80539">
        <ele>1553</ele>
        <time>2010-01-02T19:26:56Z</time>
      </trkpt>
      <trkpt lat="46.15875" lon="6.8058">
        <ele>1549</ele>
        <time>2010-01-02T19:27:08Z</time>
      </trkpt>
      <trkpt lat="46.15893" lon="6.80629">
        <ele>1530</ele>
        <time>2010-01-02T19:27:24Z</time>
      </trkpt>
      <trkpt lat="46.159" lon="6.80648">
        <ele>1528</ele>
        <time>2010-01-02T19:27:30Z</time>
      </trkpt>
      <trkpt lat="46.15903" lon="6.80673">
        <ele>1517</ele>
        <time>2010-01-02T19:27:37Z</time>
      </trkpt>
      <trkpt lat="46.15919" lon="6.80697">
        <ele>1523</ele>
        <time>2010-01-02T19:27:46Z</time>
      </trkpt>
      <trkpt lat="46.15931" lon="6.80717">
        <ele>1521</ele>
        <time>2010-01-02T19:27:53Z</time>
      </trkpt>
      <trkpt lat="46.15948" lon="6.80727">
        <ele>1522</ele>
        <time>2010-01-02T19:28:01Z</time>
      </trkpt>
      <trkpt lat="46.15959" lon="6.8074">
        <ele>1524</ele>
        <time>2010-01-02T19:28:06Z</time>
      </trkpt>
      <trkpt lat="46.15958" lon="6.80926">
        <ele>1499</ele>
        <time>2010-01-02T19:28:58Z</time>
      </trkpt>
      <trkpt lat="46.15959" lon="6.80997">
        <ele>1497</ele>
        <time>2010-01-02T19:29:17Z</time>
      </trkpt>
      <trkpt lat="46.15967" lon="6.81052">
        <ele>1493</ele>
        <time>2010-01-02T19:29:33Z</time>
      </trkpt>
      <trkpt lat="46.1597" lon="6.81077">
        <ele>1493</ele>
        <time>2010-01-02T19:29:40Z</time>
      </trkpt>
      <trkpt lat="46.15972" lon="6.81082">
        <ele>1493</ele>
        <time>2010-01-02T19:29:42Z</time>
      </trkpt>
      <trkpt lat="46.15975" lon="6.81086">
        <ele>1488</ele>
        <time>2010-01-02T19:29:43Z</time>
      </trkpt>
      <trkpt lat="46.15976" lon="6.81089">
        <ele>1488</ele>
        <time>2010-01-02T19:29:44Z</time>
      </trkpt>
      <trkpt lat="46.15975" lon="6.81096">
        <ele>1487</ele>
        <time>2010-01-02T19:29:46Z</time>
      </trkpt>
      <trkpt lat="46.15975" lon="6.81097">
        <ele>1487</ele>
        <time>2010-01-02T19:29:46Z</time>
      </trkpt>
      <trkpt lat="46.15976" lon="6.81101">
        <ele>1487</ele>
        <time>2010-01-02T19:29:47Z</time>
      </trkpt>
      <trkpt lat="46.15976" lon="6.81107">
        <ele>1486</ele>
        <time>2010-01-02T19:29:49Z</time>
      </trkpt>
      <trkpt lat="46.15976" lon="6.81183">
        <ele>1475</ele>
        <time>2010-01-02T19:30:10Z</time>
      </trkpt>
      <trkpt lat="46.15983" lon="6.81251">
        <ele>1468</ele>
        <time>2010-01-02T19:30:29Z</time>
      </trkpt>
      <trkpt lat="46.15976" lon="6.81317">
        <ele>1461</ele>
        <time>2010-01-02T19:30:48Z</time>
      </trkpt>
      <trkpt lat="46.15969" lon="6.81391">
        <ele>1454</ele>
        <time>2010-01-02T19:31:09Z</time>
      </trkpt>
      <trkpt lat="46.15963" lon="6.81419">
        <ele>1449</ele>
        <time>2010-01-02T19:31:17Z</time>
      </trkpt>
      <trkpt lat="46.15963" lon="6.81432">
        <ele>1449</ele>
        <time>2010-01-02T19:31:20Z</time>
      </trkpt>
      <trkpt lat="46.15963" lon="6.81437">
        <ele>1449</ele>
        <time>2010-01-02T19:31:22Z</time>
      </trkpt>
      <trkpt lat="46.15963" lon="6.81444">
        <ele>1448</ele>
        <time>2010-01-02T19:31:24Z</time>
      </trkpt>
      <trkpt lat="46.15962" lon="6.81448">
        <ele>1448</ele>
        <time>2010-01-02T19:31:25Z</time>
      </trkpt>
      <trkpt lat="46.15962" lon="6.8145">
        <ele>1448</ele>
        <time>2010-01-02T19:31:25Z</time>
      </trkpt>
      <trkpt lat="46.15961" lon="6.81455">
        <ele>1448</ele>
        <time>2010-01-02T19:31:27Z</time>
      </trkpt>
      <trkpt lat="46.15958" lon="6.81459">
        <ele>1447</ele>
        <time>2010-01-02T19:31:29Z</time>
      </trkpt>
      <trkpt lat="46.15955" lon="6.81463">
        <ele>1447</ele>
        <time>2010-01-02T19:31:30Z</time>
      </trkpt>
      <trkpt lat="46.15955" lon="6.81466">
        <ele>1446</ele>
        <time>2010-01-02T19:31:31Z</time>
      </trkpt>
      <trkpt lat="46.15954" lon="6.81471">
        <ele>1446</ele>
        <time>2010-01-02T19:31:32Z</time>
      </trkpt>
      <trkpt lat="46.15953" lon="6.81474">
        <ele>1446</ele>
        <time>2010-01-02T19:31:33Z</time>
      </trkpt>
      <trkpt lat="46.15953" lon="6.81478">
        <ele>1446</ele>
        <time>2010-01-02T19:31:34Z</time>
      </trkpt>
      <trkpt lat="46.15954" lon="6.81482">
        <ele>1446</ele>
        <time>2010-01-02T19:31:36Z</time>
      </trkpt>
      <trkpt lat="46.15955" lon="6.81488">
        <ele>1446</ele>
        <time>2010-01-02T19:31:37Z</time>
      </trkpt>
      <trkpt lat="46.15956" lon="6.81494">
        <ele>1446</ele>
        <time>2010-01-02T19:31:39Z</time>
      </trkpt>
      <trkpt lat="46.15956" lon="6.81499">
        <ele>1445</ele>
        <time>2010-01-02T19:31:40Z</time>
      </trkpt>
      <trkpt lat="46.15957" lon="6.81504">
        <ele>1440</ele>
        <time>2010-01-02T19:31:42Z</time>
      </trkpt>
      <trkpt lat="46.15956" lon="6.81508">
        <ele>1439</ele>
        <time>2010-01-02T19:31:43Z</time>
      </trkpt>
      <trkpt lat="46.15956" lon="6.81512">
        <ele>1439</ele>
        <time>2010-01-02T19:31:44Z</time>
      </trkpt>
      <trkpt lat="46.15956" lon="6.81516">
        <ele>1439</ele>
        <time>2010-01-02T19:31:45Z</time>
      </trkpt>
      <trkpt lat="46.15955" lon="6.81522">
        <ele>1439</ele>
        <time>2010-01-02T19:31:47Z</time>
      </trkpt>
      <trkpt lat="46.15955" lon="6.81527">
        <ele>1438</ele>
        <time>2010-01-02T19:31:48Z</time>
      </trkpt>
      <trkpt lat="46.15954" lon="6.81532">
        <ele>1438</ele>
        <time>2010-01-02T19:31:49Z</time>
      </trkpt>
      <trkpt lat="46.15954" lon="6.81535">
        <ele>1438</ele>
        <time>2010-01-02T19:31:50Z</time>
      </trkpt>
      <trkpt lat="46.15954" lon="6.81538">
        <ele>1437</ele>
        <time>2010-01-02T19:31:51Z</time>
      </trkpt>
      <trkpt lat="46.15954" lon="6.81543">
        <ele>1437</ele>
        <time>2010-01-02T19:31:53Z</time>
      </trkpt>
      <trkpt lat="46.15954" lon="6.81547">
        <ele>1437</ele>
        <time>2010-01-02T19:31:54Z</time>
      </trkpt>
      <trkpt lat="46.15954" lon="6.81551">
        <ele>1436</ele>
        <time>2010-01-02T19:31:55Z</time>
      </trkpt>
      <trkpt lat="46.15954" lon="6.81557">
        <ele>1436</ele>
        <time>2010-01-02T19:31:56Z</time>
      </trkpt>
      <trkpt lat="46.15953" lon="6.81581">
        <ele>1434</ele>
        <time>2010-01-02T19:32:03Z</time>
      </trkpt>
      <trkpt lat="46.15959" lon="6.81658">
        <ele>1430</ele>
        <time>2010-01-02T19:32:25Z</time>
      </trkpt>
      <trkpt lat="46.15969" lon="6.81758">
        <ele>1421</ele>
        <time>2010-01-02T19:32:53Z</time>
      </trkpt>
      <trkpt lat="46.15974" lon="6.81801">
        <ele>1419</ele>
        <time>2010-01-02T19:33:05Z</time>
      </trkpt>
      <trkpt lat="46.15967" lon="6.81848">
        <ele>1414</ele>
        <time>2010-01-02T19:33:18Z</time>
      </trkpt>
      <trkpt lat="46.15965" lon="6.81867">
        <ele>1413</ele>
        <time>2010-01-02T19:33:23Z</time>
      </trkpt>
      <trkpt lat="46.15964" lon="6.81873">
        <ele>1413</ele>
        <time>2010-01-02T19:33:25Z</time>
      </trkpt>
      <trkpt lat="46.15965" lon="6.81877">
        <ele>1413</ele>
        <time>2010-01-02T19:33:26Z</time>
      </trkpt>
      <trkpt lat="46.15965" lon="6.81879">
        <ele>1413</ele>
        <time>2010-01-02T19:33:27Z</time>
      </trkpt>
      <trkpt lat="46.15964" lon="6.81886">
        <ele>1413</ele>
        <time>2010-01-02T19:33:29Z</time>
      </trkpt>
      <trkpt lat="46.15964" lon="6.81891">
        <ele>1412</ele>
        <time>2010-01-02T19:33:30Z</time>
      </trkpt>
      <trkpt lat="46.15964" lon="6.81895">
        <ele>1412</ele>
        <time>2010-01-02T19:33:31Z</time>
      </trkpt>
      <trkpt lat="46.15964" lon="6.81899">
        <ele>1412</ele>
        <time>2010-01-02T19:33:32Z</time>
      </trkpt>
      <trkpt lat="46.15966" lon="6.81904">
        <ele>1412</ele>
        <time>2010-01-02T19:33:34Z</time>
      </trkpt>
      <trkpt lat="46.15967" lon="6.8191">
        <ele>1412</ele>
        <time>2010-01-02T19:33:35Z</time>
      </trkpt>
      <trkpt lat="46.15967" lon="6.81919">
        <ele>1409</ele>
        <time>2010-01-02T19:33:38Z</time>
      </trkpt>
      <trkpt lat="46.15968" lon="6.81925">
        <ele>1409</ele>
        <time>2010-01-02T19:33:40Z</time>
      </trkpt>
      <trkpt lat="46.15969" lon="6.81928">
        <ele>1409</ele>
        <time>2010-01-02T19:33:41Z</time>
      </trkpt>
      <trkpt lat="46.1597" lon="6.81931">
        <ele>1409</ele>
        <time>2010-01-02T19:33:41Z</time>
      </trkpt>
      <trkpt lat="46.15971" lon="6.81936">
        <ele>1409</ele>
        <time>2010-01-02T19:33:43Z</time>
      </trkpt>
      <trkpt lat="46.15971" lon="6.81939">
        <ele>1409</ele>
        <time>2010-01-02T19:33:44Z</time>
      </trkpt>
      <trkpt lat="46.15973" lon="6.81946">
        <ele>1409</ele>
        <time>2010-01-02T19:33:46Z</time>
      </trkpt>
      <trkpt lat="46.15973" lon="6.81951">
        <ele>1409</ele>
        <time>2010-01-02T19:33:47Z</time>
      </trkpt>
      <trkpt lat="46.15974" lon="6.81957">
        <ele>1409</ele>
        <time>2010-01-02T19:33:49Z</time>
      </trkpt>
      <trkpt lat="46.15975" lon="6.81959">
        <ele>1408</ele>
        <time>2010-01-02T19:33:50Z</time>
      </trkpt>
      <trkpt lat="46.15975" lon="6.81966">
        <ele>1408</ele>
        <time>2010-01-02T19:33:51Z</time>
      </trkpt>
      <trkpt lat="46.15976" lon="6.81973">
        <ele>1408</ele>
        <time>2010-01-02T19:33:53Z</time>
      </trkpt>
      <trkpt lat="46.15976" lon="6.81977">
        <ele>1408</ele>
        <time>2010-01-02T19:33:55Z</time>
      </trkpt>
      <trkpt lat="46.15975" lon="6.81986">
        <ele>1407</ele>
        <time>2010-01-02T19:33:57Z</time>
      </trkpt>
      <trkpt lat="46.15975" lon="6.81989">
        <ele>1407</ele>
        <time>2010-01-02T19:33:58Z</time>
      </trkpt>
      <trkpt lat="46.15975" lon="6.81993">
        <ele>1407</ele>
        <time>2010-01-02T19:33:59Z</time>
      </trkpt>
      <trkpt lat="46.15976" lon="6.82015">
        <ele>1403</ele>
        <time>2010-01-02T19:34:05Z</time>
      </trkpt>
      <trkpt lat="46.15988" lon="6.82096">
        <ele>1394</ele>
        <time>2010-01-02T19:34:28Z</time>
      </trkpt>
      <trkpt lat="46.1599" lon="6.82119">
        <ele>1392</ele>
        <time>2010-01-02T19:34:35Z</time>
      </trkpt>
      <trkpt lat="46.15991" lon="6.82126">
        <ele>1391</ele>
        <time>2010-01-02T19:34:36Z</time>
      </trkpt>
      <trkpt lat="46.15992" lon="6.82132">
        <ele>1390</ele>
        <time>2010-01-02T19:34:38Z</time>
      </trkpt>
      <trkpt lat="46.15992" lon="6.82134">
        <ele>1390</ele>
        <time>2010-01-02T19:34:39Z</time>
      </trkpt>
      <trkpt lat="46.15993" lon="6.82142">
        <ele>1389</ele>
        <time>2010-01-02T19:34:41Z</time>
      </trkpt>
      <trkpt lat="46.15994" lon="6.82147">
        <ele>1389</ele>
        <time>2010-01-02T19:34:43Z</time>
      </trkpt>
      <trkpt lat="46.15994" lon="6.82149">
        <ele>1389</ele>
        <time>2010-01-02T19:34:43Z</time>
      </trkpt>
      <trkpt lat="46.15995" lon="6.82155">
        <ele>1388</ele>
        <time>2010-01-02T19:34:45Z</time>
      </trkpt>
      <trkpt lat="46.15996" lon="6.8216">
        <ele>1387</ele>
        <time>2010-01-02T19:34:46Z</time>
      </trkpt>
      <trkpt lat="46.15997" lon="6.82165">
        <ele>1387</ele>
        <time>2010-01-02T19:34:48Z</time>
      </trkpt>
      <trkpt lat="46.15998" lon="6.8217">
        <ele>1385</ele>
        <time>2010-01-02T19:34:49Z</time>
      </trkpt>
      <trkpt lat="46.15999" lon="6.82175">
        <ele>1385</ele>
        <time>2010-01-02T19:34:51Z</time>
      </trkpt>
      <trkpt lat="46.15999" lon="6.82179">
        <ele>1384</ele>
        <time>2010-01-02T19:34:52Z</time>
      </trkpt>
      <trkpt lat="46.16" lon="6.82185">
        <ele>1394</ele>
        <time>2010-01-02T19:34:54Z</time>
      </trkpt>
      <trkpt lat="46.16001" lon="6.82189">
        <ele>1395</ele>
        <time>2010-01-02T19:34:55Z</time>
      </trkpt>
      <trkpt lat="46.16001" lon="6.8219">
        <ele>1395</ele>
        <time>2010-01-02T19:34:55Z</time>
      </trkpt>
      <trkpt lat="46.16001" lon="6.82197">
        <ele>1396</ele>
        <time>2010-01-02T19:34:57Z</time>
      </trkpt>
      <trkpt lat="46.16001" lon="6.82204">
        <ele>1396</ele>
        <time>2010-01-02T19:34:59Z</time>
      </trkpt>
      <trkpt lat="46.16001" lon="6.8221">
        <ele>1396</ele>
        <time>2010-01-02T19:35:01Z</time>
      </trkpt>
      <trkpt lat="46.16001" lon="6.82217">
        <ele>1395</ele>
        <time>2010-01-02T19:35:02Z</time>
      </trkpt>
      <trkpt lat="46.16001" lon="6.82221">
        <ele>1394</ele>
        <time>2010-01-02T19:35:03Z</time>
      </trkpt>
      <trkpt lat="46.16" lon="6.82226">
        <ele>1393</ele>
        <time>2010-01-02T19:35:05Z</time>
      </trkpt>
      <trkpt lat="46.16001" lon="6.82236">
        <ele>1390</ele>
        <time>2010-01-02T19:35:08Z</time>
      </trkpt>
      <trkpt lat="46.15991" lon="6.82268">
        <ele>1377</ele>
        <time>2010-01-02T19:35:17Z</time>
      </trkpt>
      <trkpt lat="46.15991" lon="6.8237">
        <ele>1370</ele>
        <time>2010-01-02T19:35:46Z</time>
      </trkpt>
      <trkpt lat="46.15995" lon="6.82507">
        <ele>1361</ele>
        <time>2010-01-02T19:36:24Z</time>
      </trkpt>
      <trkpt lat="46.16031" lon="6.82575">
        <ele>1365</ele>
        <time>2010-01-02T19:36:47Z</time>
      </trkpt>
      <trkpt lat="46.16064" lon="6.8263">
        <ele>1361</ele>
        <time>2010-01-02T19:37:08Z</time>
      </trkpt>
      <trkpt lat="46.1609" lon="6.82692">
        <ele>1372</ele>
        <time>2010-01-02T19:37:28Z</time>
      </trkpt>
      <trkpt lat="46.16095" lon="6.82788">
        <ele>1363</ele>
        <time>2010-01-02T19:37:55Z</time>
      </trkpt>
      <trkpt lat="46.16092" lon="6.82897">
        <ele>1361</ele>
        <time>2010-01-02T19:38:25Z</time>
      </trkpt>
      <trkpt lat="46.16078" lon="6.82991">
        <ele>1348</ele>
        <time>2010-01-02T19:38:51Z</time>
      </trkpt>
      <trkpt lat="46.16083" lon="6.83076">
        <ele>1338</ele>
        <time>2010-01-02T19:39:15Z</time>
      </trkpt>
      <trkpt lat="46.16136" lon="6.83204">
        <ele>1339</ele>
        <time>2010-01-02T19:39:56Z</time>
      </trkpt>
      <trkpt lat="46.16171" lon="6.83297">
        <ele>1348</ele>
        <time>2010-01-02T19:40:26Z</time>
      </trkpt>
      <trkpt lat="46.16228" lon="6.83398">
        <ele>1339</ele>
        <time>2010-01-02T19:41:02Z</time>
      </trkpt>
      <trkpt lat="46.16271" lon="6.83457">
        <ele>1348</ele>
        <time>2010-01-02T19:41:25Z</time>
      </trkpt>
      <trkpt lat="46.16317" lon="6.83532">
        <ele>1336</ele>
        <time>2010-01-02T19:41:53Z</time>
      </trkpt>
      <trkpt lat="46.16362" lon="6.83564">
        <ele>1355</ele>
        <time>2010-01-02T19:42:14Z</time>
      </trkpt>
      <trkpt lat="46.16389" lon="6.83573">
        <ele>1361</ele>
        <time>2010-01-02T19:42:24Z</time>
      </trkpt>
      <trkpt lat="46.16399" lon="6.8359">
        <ele>1356</ele>
        <time>2010-01-02T19:42:31Z</time>
      </trkpt>
      <trkpt lat="46.16399" lon="6.83602">
        <ele>1355</ele>
        <time>2010-01-02T19:42:34Z</time>
      </trkpt>
      <trkpt lat="46.16398" lon="6.83606">
        <ele>1354</ele>
        <time>2010-01-02T19:42:35Z</time>
      </trkpt>
      <trkpt lat="46.16396" lon="6.83609">
        <ele>1354</ele>
        <time>2010-01-02T19:42:36Z</time>
      </trkpt>
      <trkpt lat="46.16396" lon="6.83611">
        <ele>1354</ele>
        <time>2010-01-02T19:42:37Z</time>
      </trkpt>
      <trkpt lat="46.16393" lon="6.83613">
        <ele>1353</ele>
        <time>2010-01-02T19:42:38Z</time>
      </trkpt>
      <trkpt lat="46.16389" lon="6.83616">
        <ele>1353</ele>
        <time>2010-01-02T19:42:40Z</time>
      </trkpt>
      <trkpt lat="46.16388" lon="6.83618">
        <ele>1352</ele>
        <time>2010-01-02T19:42:41Z</time>
      </trkpt>
      <trkpt lat="46.16381" lon="6.83615">
        <ele>1351</ele>
        <time>2010-01-02T19:42:44Z</time>
      </trkpt>
      <trkpt lat="46.1633" lon="6.8364">
        <ele>1329</ele>
        <time>2010-01-02T19:43:05Z</time>
      </trkpt>
      <trkpt lat="46.16316" lon="6.83762">
        <ele>1348</ele>
        <time>2010-01-02T19:43:39Z</time>
      </trkpt>
      <trkpt lat="46.16298" lon="6.83866">
        <ele>1351</ele>
        <time>2010-01-02T19:44:09Z</time>
      </trkpt>
      <trkpt lat="46.16284" lon="6.83928">
        <ele>1354</ele>
        <time>2010-01-02T19:44:27Z</time>
      </trkpt>
      <trkpt lat="46.16267" lon="6.83961">
        <ele>1352</ele>
        <time>2010-01-02T19:44:39Z</time>
      </trkpt>
      <trkpt lat="46.16243" lon="6.84077">
        <ele>1338</ele>
        <time>2010-01-02T19:45:12Z</time>
      </trkpt>
      <trkpt lat="46.16241" lon="6.84101">
        <ele>1336</ele>
        <time>2010-01-02T19:45:19Z</time>
      </trkpt>
      <trkpt lat="46.1624" lon="6.84106">
        <ele>1335</ele>
        <time>2010-01-02T19:45:20Z</time>
      </trkpt>
      <trkpt lat="46.16239" lon="6.8411">
        <ele>1334</ele>
        <time>2010-01-02T19:45:21Z</time>
      </trkpt>
      <trkpt lat="46.16236" lon="6.84116">
        <ele>1333</ele>
        <time>2010-01-02T19:45:23Z</time>
      </trkpt>
      <trkpt lat="46.16234" lon="6.84122">
        <ele>1333</ele>
        <time>2010-01-02T19:45:25Z</time>
      </trkpt>
      <trkpt lat="46.16232" lon="6.84129">
        <ele>1333</ele>
        <time>2010-01-02T19:45:27Z</time>
      </trkpt>
      <trkpt lat="46.16231" lon="6.84133">
        <ele>1333</ele>
        <time>2010-01-02T19:45:29Z</time>
      </trkpt>
      <trkpt lat="46.1623" lon="6.84139">
        <ele>1333</ele>
        <time>2010-01-02T19:45:30Z</time>
      </trkpt>
      <trkpt lat="46.1623" lon="6.84148">
        <ele>1335</ele>
        <time>2010-01-02T19:45:33Z</time>
      </trkpt>
      <trkpt lat="46.1623" lon="6.84152">
        <ele>1336</ele>
        <time>2010-01-02T19:45:34Z</time>
      </trkpt>
      <trkpt lat="46.16231" lon="6.84158">
        <ele>1337</ele>
        <time>2010-01-02T19:45:36Z</time>
      </trkpt>
      <trkpt lat="46.16231" lon="6.84163">
        <ele>1338</ele>
        <time>2010-01-02T19:45:37Z</time>
      </trkpt>
      <trkpt lat="46.16231" lon="6.84167">
        <ele>1338</ele>
        <time>2010-01-02T19:45:38Z</time>
      </trkpt>
      <trkpt lat="46.1623" lon="6.84172">
        <ele>1339</ele>
        <time>2010-01-02T19:45:39Z</time>
      </trkpt>
      <trkpt lat="46.16229" lon="6.84179">
        <ele>1338</ele>
        <time>2010-01-02T19:45:41Z</time>
      </trkpt>
      <trkpt lat="46.16228" lon="6.84187">
        <ele>1336</ele>
        <time>2010-01-02T19:45:44Z</time>
      </trkpt>
      <trkpt lat="46.16227" lon="6.8419">
        <ele>1336</ele>
        <time>2010-01-02T19:45:45Z</time>
      </trkpt>
      <trkpt lat="46.16226" lon="6.84194">
        <ele>1335</ele>
        <time>2010-01-02T19:45:46Z</time>
      </trkpt>
      <trkpt lat="46.16226" lon="6.84199">
        <ele>1335</ele>
        <time>2010-01-02T19:45:47Z</time>
      </trkpt>
      <trkpt lat="46.16226" lon="6.84206">
        <ele>1334</ele>
        <time>2010-01-02T19:45:49Z</time>
      </trkpt>
      <trkpt lat="46.16228" lon="6.8421">
        <ele>1335</ele>
        <time>2010-01-02T19:45:51Z</time>
      </trkpt>
      <trkpt lat="46.1623" lon="6.84213">
        <ele>1335</ele>
        <time>2010-01-02T19:45:52Z</time>
      </trkpt>
      <trkpt lat="46.16233" lon="6.8422">
        <ele>1336</ele>
        <time>2010-01-02T19:45:54Z</time>
      </trkpt>
      <trkpt lat="46.16234" lon="6.84222">
        <ele>1337</ele>
        <time>2010-01-02T19:45:55Z</time>
      </trkpt>
      <trkpt lat="46.16237" lon="6.84227">
        <ele>1338</ele>
        <time>2010-01-02T19:45:56Z</time>
      </trkpt>
      <trkpt lat="46.16238" lon="6.8423">
        <ele>1339</ele>
        <time>2010-01-02T19:45:58Z</time>
      </trkpt>
      <trkpt lat="46.16239" lon="6.84235">
        <ele>1341</ele>
        <time>2010-01-02T19:45:59Z</time>
      </trkpt>
      <trkpt lat="46.1624" lon="6.84236">
        <ele>1341</ele>
        <time>2010-01-02T19:45:59Z</time>
      </trkpt>
      <trkpt lat="46.16242" lon="6.84242">
        <ele>1344</ele>
        <time>2010-01-02T19:46:01Z</time>
      </trkpt>
      <trkpt lat="46.16243" lon="6.84245">
        <ele>1345</ele>
        <time>2010-01-02T19:46:02Z</time>
      </trkpt>
      <trkpt lat="46.16242" lon="6.84256">
        <ele>1344</ele>
        <time>2010-01-02T19:46:05Z</time>
      </trkpt>
      <trkpt lat="46.16236" lon="6.84264">
        <ele>1339</ele>
        <time>2010-01-02T19:46:08Z</time>
      </trkpt>
      <trkpt lat="46.16234" lon="6.84264">
        <ele>1338</ele>
        <time>2010-01-02T19:46:09Z</time>
      </trkpt>
      <trkpt lat="46.1623" lon="6.84267">
        <ele>1336</ele>
        <time>2010-01-02T19:46:11Z</time>
      </trkpt>
      <trkpt lat="46.16228" lon="6.84267">
        <ele>1336</ele>
        <time>2010-01-02T19:46:12Z</time>
      </trkpt>
      <trkpt lat="46.16225" lon="6.84268">
        <ele>1334</ele>
        <time>2010-01-02T19:46:13Z</time>
      </trkpt>
      <trkpt lat="46.16221" lon="6.8427">
        <ele>1333</ele>
        <time>2010-01-02T19:46:14Z</time>
      </trkpt>
      <trkpt lat="46.16219" lon="6.84271">
        <ele>1332</ele>
        <time>2010-01-02T19:46:15Z</time>
      </trkpt>
      <trkpt lat="46.16212" lon="6.84283">
        <ele>1330</ele>
        <time>2010-01-02T19:46:20Z</time>
      </trkpt>
      <trkpt lat="46.16211" lon="6.84347">
        <ele>1328</ele>
        <time>2010-01-02T19:46:38Z</time>
      </trkpt>
      <trkpt lat="46.16208" lon="6.84384">
        <ele>1327</ele>
        <time>2010-01-02T19:46:48Z</time>
      </trkpt>
      <trkpt lat="46.16208" lon="6.84386">
        <ele>1327</ele>
        <time>2010-01-02T19:46:48Z</time>
      </trkpt>
      <trkpt lat="46.1621" lon="6.84392">
        <ele>1327</ele>
        <time>2010-01-02T19:46:50Z</time>
      </trkpt>
      <trkpt lat="46.16211" lon="6.84403">
        <ele>1328</ele>
        <time>2010-01-02T19:46:53Z</time>
      </trkpt>
      <trkpt lat="46.16212" lon="6.84408">
        <ele>1328</ele>
        <time>2010-01-02T19:46:55Z</time>
      </trkpt>
      <trkpt lat="46.16211" lon="6.84413">
        <ele>1328</ele>
        <time>2010-01-02T19:46:56Z</time>
      </trkpt>
      <trkpt lat="46.16212" lon="6.84417">
        <ele>1328</ele>
        <time>2010-01-02T19:46:57Z</time>
      </trkpt>
      <trkpt lat="46.16212" lon="6.84426">
        <ele>1329</ele>
        <time>2010-01-02T19:47:00Z</time>
      </trkpt>
      <trkpt lat="46.16213" lon="6.84434">
        <ele>1329</ele>
        <time>2010-01-02T19:47:02Z</time>
      </trkpt>
      <trkpt lat="46.16212" lon="6.84442">
        <ele>1329</ele>
        <time>2010-01-02T19:47:04Z</time>
      </trkpt>
      <trkpt lat="46.16211" lon="6.84445">
        <ele>1329</ele>
        <time>2010-01-02T19:47:05Z</time>
      </trkpt>
      <trkpt lat="46.16211" lon="6.84455">
        <ele>1329</ele>
        <time>2010-01-02T19:47:08Z</time>
      </trkpt>
      <trkpt lat="46.1621" lon="6.84457">
        <ele>1329</ele>
        <time>2010-01-02T19:47:08Z</time>
      </trkpt>
      <trkpt lat="46.16209" lon="6.84467">
        <ele>1329</ele>
        <time>2010-01-02T19:47:11Z</time>
      </trkpt>
      <trkpt lat="46.16209" lon="6.84471">
        <ele>1328</ele>
        <time>2010-01-02T19:47:12Z</time>
      </trkpt>
      <trkpt lat="46.16208" lon="6.84478">
        <ele>1328</ele>
        <time>2010-01-02T19:47:15Z</time>
      </trkpt>
      <trkpt lat="46.16208" lon="6.84481">
        <ele>1328</ele>
        <time>2010-01-02T19:47:15Z</time>
      </trkpt>
      <trkpt lat="46.16208" lon="6.84519">
        <ele>1329</ele>
        <time>2010-01-02T19:47:26Z</time>
      </trkpt>
      <trkpt lat="46.16217" lon="6.8471">
        <ele>1321</ele>
        <time>2010-01-02T19:48:19Z</time>
      </trkpt>
      <trkpt lat="46.16245" lon="6.84891">
        <ele>1294</ele>
        <time>2010-01-02T19:49:10Z</time>
      </trkpt>
      <trkpt lat="46.16256" lon="6.8495">
        <ele>1310</ele>
        <time>2010-01-02T19:49:27Z</time>
      </trkpt>
      <trkpt lat="46.16257" lon="6.84955">
        <ele>1309</ele>
        <time>2010-01-02T19:49:29Z</time>
      </trkpt>
      <trkpt lat="46.16264" lon="6.84999">
        <ele>1294</ele>
        <time>2010-01-02T19:49:41Z</time>
      </trkpt>
      <trkpt lat="46.16298" lon="6.85071">
        <ele>1294</ele>
        <time>2010-01-02T19:50:05Z</time>
      </trkpt>
      <trkpt lat="46.16326" lon="6.85135">
        <ele>1275</ele>
        <time>2010-01-02T19:50:26Z</time>
      </trkpt>
      <trkpt lat="46.16348" lon="6.85192">
        <ele>1277</ele>
        <time>2010-01-02T19:50:44Z</time>
      </trkpt>
      <trkpt lat="46.1637" lon="6.85214">
        <ele>1278</ele>
        <time>2010-01-02T19:50:55Z</time>
      </trkpt>
      <trkpt lat="46.164" lon="6.8526">
        <ele>1266</ele>
        <time>2010-01-02T19:51:13Z</time>
      </trkpt>
      <trkpt lat="46.16426" lon="6.85303">
        <ele>1276</ele>
        <time>2010-01-02T19:51:29Z</time>
      </trkpt>
      <trkpt lat="46.16452" lon="6.85357">
        <ele>1259</ele>
        <time>2010-01-02T19:51:47Z</time>
      </trkpt>
      <trkpt lat="46.16488" lon="6.85418">
        <ele>1250</ele>
        <time>2010-01-02T19:52:09Z</time>
      </trkpt>
      <trkpt lat="46.16538" lon="6.85501">
        <ele>1234</ele>
        <time>2010-01-02T19:52:40Z</time>
      </trkpt>
      <trkpt lat="46.16585" lon="6.85546">
        <ele>1247</ele>
        <time>2010-01-02T19:53:02Z</time>
      </trkpt>
      <trkpt lat="46.16606" lon="6.85563">
        <ele>1246</ele>
        <time>2010-01-02T19:53:12Z</time>
      </trkpt>
      <trkpt lat="46.16604" lon="6.85596">
        <ele>1226</ele>
        <time>2010-01-02T19:53:21Z</time>
      </trkpt>
      <trkpt lat="46.16649" lon="6.85667">
        <ele>1225</ele>
        <time>2010-01-02T19:53:48Z</time>
      </trkpt>
      <trkpt lat="46.16664" lon="6.85714">
        <ele>1200</ele>
        <time>2010-01-02T19:54:02Z</time>
      </trkpt>
      <trkpt lat="46.16697" lon="6.8574">
        <ele>1222</ele>
        <time>2010-01-02T19:54:17Z</time>
      </trkpt>
      <trkpt lat="46.16755" lon="6.85823">
        <ele>1204</ele>
        <time>2010-01-02T19:54:50Z</time>
      </trkpt>
      <trkpt lat="46.16785" lon="6.85878">
        <ele>1187</ele>
        <time>2010-01-02T19:55:09Z</time>
      </trkpt>
      <trkpt lat="46.1683" lon="6.85914">
        <ele>1185</ele>
        <time>2010-01-02T19:55:30Z</time>
      </trkpt>
      <trkpt lat="46.16844" lon="6.85913">
        <ele>1193</ele>
        <time>2010-01-02T19:55:36Z</time>
      </trkpt>
      <trkpt lat="46.16844" lon="6.85977">
        <ele>1177</ele>
        <time>2010-01-02T19:55:53Z</time>
      </trkpt>
      <trkpt lat="46.16882" lon="6.86028">
        <ele>1163</ele>
        <time>2010-01-02T19:56:14Z</time>
      </trkpt>
      <trkpt lat="46.16946" lon="6.8607">
        <ele>1165</ele>
        <time>2010-01-02T19:56:42Z</time>
      </trkpt>
      <trkpt lat="46.16987" lon="6.86095">
        <ele>1151</ele>
        <time>2010-01-02T19:57:00Z</time>
      </trkpt>
      <trkpt lat="46.17021" lon="6.86111">
        <ele>1154</ele>
        <time>2010-01-02T19:57:14Z</time>
      </trkpt>
      <trkpt lat="46.17098" lon="6.86201">
        <ele>1137</ele>
        <time>2010-01-02T19:57:54Z</time>
      </trkpt>
      <trkpt lat="46.17149" lon="6.86283">
        <ele>1111</ele>
        <time>2010-01-02T19:58:24Z</time>
      </trkpt>
      <trkpt lat="46.1721" lon="6.86291">
        <ele>1116</ele>
        <time>2010-01-02T19:58:49Z</time>
      </trkpt>
      <trkpt lat="46.17249" lon="6.86279">
        <ele>1121</ele>
        <time>2010-01-02T19:59:05Z</time>
      </trkpt>
      <trkpt lat="46.17253" lon="6.86283">
        <ele>1126</ele>
        <time>2010-01-02T19:59:07Z</time>
      </trkpt>
      <trkpt lat="46.17298" lon="6.86338">
        <ele>1106</ele>
        <time>2010-01-02T19:59:30Z</time>
      </trkpt>
      <trkpt lat="46.17317" lon="6.86401">
        <ele>1100</ele>
        <time>2010-01-02T19:59:49Z</time>
      </trkpt>
      <trkpt lat="46.17356" lon="6.86425">
        <ele>1101</ele>
        <time>2010-01-02T20:00:07Z</time>
      </trkpt>
      <trkpt lat="46.17372" lon="6.86515">
        <ele>1086</ele>
        <time>2010-01-02T20:00:32Z</time>
      </trkpt>
      <trkpt lat="46.17396" lon="6.86584">
        <ele>1074</ele>
        <time>2010-01-02T20:00:54Z</time>
      </trkpt>
      <trkpt lat="46.17397" lon="6.866">
        <ele>1073</ele>
        <time>2010-01-02T20:00:58Z</time>
      </trkpt>
      <trkpt lat="46.17407" lon="6.86608">
        <ele>1073</ele>
        <time>2010-01-02T20:01:03Z</time>
      </trkpt>
      <trkpt lat="46.17426" lon="6.8662">
        <ele>1076</ele>
        <time>2010-01-02T20:01:11Z</time>
      </trkpt>
      <trkpt lat="46.17442" lon="6.86629">
        <ele>1076</ele>
        <time>2010-01-02T20:01:18Z</time>
      </trkpt>
      <trkpt lat="46.1746" lon="6.86636">
        <ele>1076</ele>
        <time>2010-01-02T20:01:25Z</time>
      </trkpt>
      <trkpt lat="46.17481" lon="6.86644">
        <ele>1075</ele>
        <time>2010-01-02T20:01:34Z</time>
      </trkpt>
      <trkpt lat="46.17503" lon="6.86651">
        <ele>1077</ele>
        <time>2010-01-02T20:01:43Z</time>
      </trkpt>
      <trkpt lat="46.17505" lon="6.86652">
        <ele>1077</ele>
        <time>2010-01-02T20:01:44Z</time>
      </trkpt>
      <trkpt lat="46.17519" lon="6.86659">
        <ele>1078</ele>
        <time>2010-01-02T20:01:50Z</time>
      </trkpt>
      <trkpt lat="46.17527" lon="6.86671">
        <ele>1068</ele>
        <time>2010-01-02T20:01:54Z</time>
      </trkpt>
      <trkpt lat="46.1752" lon="6.86679">
        <ele>1068</ele>
        <time>2010-01-02T20:01:58Z</time>
      </trkpt>
      <trkpt lat="46.17513" lon="6.86695">
        <ele>1067</ele>
        <time>2010-01-02T20:02:03Z</time>
      </trkpt>
      <trkpt lat="46.17483" lon="6.86726">
        <ele>1061</ele>
        <time>2010-01-02T20:02:18Z</time>
      </trkpt>
      <trkpt lat="46.17438" lon="6.86766">
        <ele>1055</ele>
        <time>2010-01-02T20:02:39Z</time>
      </trkpt>
      <trkpt lat="46.17434" lon="6.8678">
        <ele>1055</ele>
        <time>2010-01-02T20:02:43Z</time>
      </trkpt>
      <trkpt lat="46.17472" lon="6.86855">
        <ele>1047</ele>
        <time>2010-01-02T20:03:09Z</time>
      </trkpt>
      <trkpt lat="46.175" lon="6.86899">
        <ele>1045</ele>
        <time>2010-01-02T20:03:26Z</time>
      </trkpt>
      <trkpt lat="46.17523" lon="6.86932">
        <ele>1042</ele>
        <time>2010-01-02T20:03:39Z</time>
      </trkpt>
      <trkpt lat="46.17529" lon="6.8696">
        <ele>1041</ele>
        <time>2010-01-02T20:03:47Z</time>
      </trkpt>
      <trkpt lat="46.17515" lon="6.87021">
        <ele>1037</ele>
        <time>2010-01-02T20:04:05Z</time>
      </trkpt>
      <trkpt lat="46.17507" lon="6.87048">
        <ele>1036</ele>
        <time>2010-01-02T20:04:13Z</time>
      </trkpt>
      <trkpt lat="46.17507" lon="6.87105">
        <ele>1033</ele>
        <time>2010-01-02T20:04:29Z</time>
      </trkpt>
      <trkpt lat="46.17501" lon="6.87144">
        <ele>1032</ele>
        <time>2010-01-02T20:04:40Z</time>
      </trkpt>
      <trkpt lat="46.17481" lon="6.87111">
        <ele>1031</ele>
        <time>2010-01-02T20:04:52Z</time>
      </trkpt>
      <trkpt lat="46.17493" lon="6.8709">
        <ele>1033</ele>
        <time>2010-01-02T20:05:00Z</time>
      </trkpt>
      <trkpt lat="46.175" lon="6.87086">
        <ele>1034</ele>
        <time>2010-01-02T20:05:03Z</time>
      </trkpt>
      <trkpt lat="46.1749" lon="6.87065">
        <ele>1036</ele>
        <time>2010-01-02T20:05:10Z</time>
      </trkpt>
      <trkpt lat="46.17486" lon="6.8681">
        <ele>1053</ele>
        <time>2010-01-02T20:06:21Z</time>
      </trkpt>
      <trkpt lat="46.17481" lon="6.86446">
        <ele>1129</ele>
        <time>2010-01-02T20:08:01Z</time>
      </trkpt>
      <trkpt lat="46.17478" lon="6.86232">
        <ele>1202</ele>
        <time>2010-01-02T20:09:01Z</time>
      </trkpt>
      <trkpt lat="46.17478" lon="6.86123">
        <ele>1230</ele>
        <time>2010-01-02T20:09:31Z</time>
      </trkpt>
      <trkpt lat="46.17492" lon="6.86061">
        <ele>1259</ele>
        <time>2010-01-02T20:09:49Z</time>
      </trkpt>
      <trkpt lat="46.17494" lon="6.86037">
        <ele>1265</ele>
        <time>2010-01-02T20:09:56Z</time>
      </trkpt>
      <trkpt lat="46.17495" lon="6.86002">
        <ele>1283</ele>
        <time>2010-01-02T20:10:05Z</time>
      </trkpt>
      <trkpt lat="46.17496" lon="6.8598">
        <ele>1291</ele>
        <time>2010-01-02T20:10:12Z</time>
      </trkpt>
      <trkpt lat="46.17498" lon="6.85932">
        <ele>1306</ele>
        <time>2010-01-02T20:10:25Z</time>
      </trkpt>
      <trkpt lat="46.175" lon="6.85823">
        <ele>1347</ele>
        <time>2010-01-02T20:10:55Z</time>
      </trkpt>
      <trkpt lat="46.17512" lon="6.85483">
        <ele>1491</ele>
        <time>2010-01-02T20:12:30Z</time>
      </trkpt>
      <trkpt lat="46.17514" lon="6.8522">
        <ele>1559</ele>
        <time>2010-01-02T20:13:42Z</time>
      </trkpt>
      <trkpt lat="46.17509" lon="6.84825">
        <ele>1764</ele>
        <time>2010-01-02T20:15:32Z</time>
      </trkpt>
      <trkpt lat="46.17508" lon="6.84784">
        <ele>1788</ele>
        <time>2010-01-02T20:15:43Z</time>
      </trkpt>
      <trkpt lat="46.17508" lon="6.84695">
        <ele>1861</ele>
        <time>2010-01-02T20:16:08Z</time>
      </trkpt>
      <trkpt lat="46.17505" lon="6.84673">
        <ele>1884</ele>
        <time>2010-01-02T20:16:14Z</time>
      </trkpt>
      <trkpt lat="46.17506" lon="6.84658">
        <ele>1901</ele>
        <time>2010-01-02T20:16:18Z</time>
      </trkpt>
      <trkpt lat="46.17507" lon="6.84623">
        <ele>1910</ele>
        <time>2010-01-02T20:16:28Z</time>
      </trkpt>
      <trkpt lat="46.17509" lon="6.84617">
        <ele>1912</ele>
        <time>2010-01-02T20:16:30Z</time>
      </trkpt>
      <trkpt lat="46.17512" lon="6.84614">
        <ele>1913</ele>
        <time>2010-01-02T20:16:31Z</time>
      </trkpt>
      <trkpt lat="46.17514" lon="6.84612">
        <ele>1913</ele>
        <time>2010-01-02T20:16:32Z</time>
      </trkpt>
      <trkpt lat="46.17514" lon="6.84611">
        <ele>1914</ele>
        <time>2010-01-02T20:16:32Z</time>
      </trkpt>
      <trkpt lat="46.17514" lon="6.84605">
        <ele>1916</ele>
        <time>2010-01-02T20:16:34Z</time>
      </trkpt>
      <trkpt lat="46.17509" lon="6.84598">
        <ele>1919</ele>
        <time>2010-01-02T20:16:37Z</time>
      </trkpt>
      <trkpt lat="46.17502" lon="6.84581">
        <ele>1929</ele>
        <time>2010-01-02T20:16:42Z</time>
      </trkpt>
      <trkpt lat="46.17513" lon="6.84566">
        <ele>1929</ele>
        <time>2010-01-02T20:16:49Z</time>
      </trkpt>
      <trkpt lat="46.17515" lon="6.84533">
        <ele>1928</ele>
        <time>2010-01-02T20:16:58Z</time>
      </trkpt>
      <trkpt lat="46.17518" lon="6.84524">
        <ele>1928</ele>
        <time>2010-01-02T20:17:00Z</time>
      </trkpt>
      <trkpt lat="46.17518" lon="6.84524">
        <ele>1928</ele>
        <time>2010-01-02T20:17:00Z</time>
      </trkpt>
      <trkpt lat="46.17518" lon="6.84523">
        <ele>1927</ele>
        <time>2010-01-02T20:17:01Z</time>
      </trkpt>
      <trkpt lat="46.17522" lon="6.84511">
        <ele>1927</ele>
        <time>2010-01-02T20:17:04Z</time>
      </trkpt>
      <trkpt lat="46.17522" lon="6.84508">
        <ele>1927</ele>
        <time>2010-01-02T20:17:05Z</time>
      </trkpt>
      <trkpt lat="46.17523" lon="6.84507">
        <ele>1927</ele>
        <time>2010-01-02T20:17:05Z</time>
      </trkpt>
      <trkpt lat="46.17528" lon="6.84494">
        <ele>1921</ele>
        <time>2010-01-02T20:17:10Z</time>
      </trkpt>
      <trkpt lat="46.17529" lon="6.84492">
        <ele>1921</ele>
        <time>2010-01-02T20:17:10Z</time>
      </trkpt>
      <trkpt lat="46.17542" lon="6.84469">
        <ele>1919</ele>
        <time>2010-01-02T20:17:19Z</time>
      </trkpt>
      <trkpt lat="46.17542" lon="6.84469">
        <ele>1919</ele>
        <time>2010-01-02T20:17:19Z</time>
      </trkpt>
      <trkpt lat="46.17551" lon="6.84462">
        <ele>1919</ele>
        <time>2010-01-02T20:17:23Z</time>
      </trkpt>
      <trkpt lat="46.17559" lon="6.84451">
        <ele>1918</ele>
        <time>2010-01-02T20:17:27Z</time>
      </trkpt>
      <trkpt lat="46.17565" lon="6.84448">
        <ele>1918</ele>
        <time>2010-01-02T20:17:30Z</time>
      </trkpt>
      <trkpt lat="46.17568" lon="6.84448">
        <ele>1918</ele>
        <time>2010-01-02T20:17:31Z</time>
      </trkpt>
      <trkpt lat="46.17569" lon="6.84448">
        <ele>1918</ele>
        <time>2010-01-02T20:17:31Z</time>
      </trkpt>
      <trkpt lat="46.17572" lon="6.84441">
        <ele>1917</ele>
        <time>2010-01-02T20:17:33Z</time>
      </trkpt>
      <trkpt lat="46.17572" lon="6.84431">
        <ele>1916</ele>
        <time>2010-01-02T20:17:36Z</time>
      </trkpt>
      <trkpt lat="46.17573" lon="6.84428">
        <ele>1916</ele>
        <time>2010-01-02T20:17:37Z</time>
      </trkpt>
      <trkpt lat="46.17574" lon="6.84413">
        <ele>1911</ele>
        <time>2010-01-02T20:17:41Z</time>
      </trkpt>
      <trkpt lat="46.17574" lon="6.84413">
        <ele>1910</ele>
        <time>2010-01-02T20:17:41Z</time>
      </trkpt>
      <trkpt lat="46.17571" lon="6.84407">
        <ele>1909</ele>
        <time>2010-01-02T20:17:43Z</time>
      </trkpt>
      <trkpt lat="46.17571" lon="6.84404">
        <ele>1909</ele>
        <time>2010-01-02T20:17:44Z</time>
      </trkpt>
      <trkpt lat="46.17574" lon="6.8437">
        <ele>1904</ele>
        <time>2010-01-02T20:17:54Z</time>
      </trkpt>
      <trkpt lat="46.17575" lon="6.84347">
        <ele>1903</ele>
        <time>2010-01-02T20:18:00Z</time>
      </trkpt>
      <trkpt lat="46.1758" lon="6.84305">
        <ele>1899</ele>
        <time>2010-01-02T20:18:12Z</time>
      </trkpt>
      <trkpt lat="46.17572" lon="6.84284">
        <ele>1898</ele>
        <time>2010-01-02T20:18:19Z</time>
      </trkpt>
      <trkpt lat="46.1757" lon="6.84264">
        <ele>1899</ele>
        <time>2010-01-02T20:18:24Z</time>
      </trkpt>
      <trkpt lat="46.17565" lon="6.84244">
        <ele>1897</ele>
        <time>2010-01-02T20:18:30Z</time>
      </trkpt>
      <trkpt lat="46.17569" lon="6.84194">
        <ele>1895</ele>
        <time>2010-01-02T20:18:44Z</time>
      </trkpt>
      <trkpt lat="46.17577" lon="6.84162">
        <ele>1897</ele>
        <time>2010-01-02T20:18:53Z</time>
      </trkpt>
      <trkpt lat="46.17583" lon="6.84138">
        <ele>1891</ele>
        <time>2010-01-02T20:19:00Z</time>
      </trkpt>
      <trkpt lat="46.17588" lon="6.84109">
        <ele>1900</ele>
        <time>2010-01-02T20:19:08Z</time>
      </trkpt>
      <trkpt lat="46.17588" lon="6.84088">
        <ele>1897</ele>
        <time>2010-01-02T20:19:14Z</time>
      </trkpt>
      <trkpt lat="46.1761" lon="6.84003">
        <ele>1897</ele>
        <time>2010-01-02T20:19:39Z</time>
      </trkpt>
      <trkpt lat="46.17624" lon="6.83911">
        <ele>1882</ele>
        <time>2010-01-02T20:20:05Z</time>
      </trkpt>
      <trkpt lat="46.17634" lon="6.83854">
        <ele>1879</ele>
        <time>2010-01-02T20:20:22Z</time>
      </trkpt>
      <trkpt lat="46.17645" lon="6.8383">
        <ele>1872</ele>
        <time>2010-01-02T20:20:30Z</time>
      </trkpt>
      <trkpt lat="46.17671" lon="6.83777">
        <ele>1872</ele>
        <time>2010-01-02T20:20:48Z</time>
      </trkpt>
      <trkpt lat="46.17687" lon="6.83758">
        <ele>1870</ele>
        <time>2010-01-02T20:20:56Z</time>
      </trkpt>
      <trkpt lat="46.17702" lon="6.83752">
        <ele>1870</ele>
        <time>2010-01-02T20:21:02Z</time>
      </trkpt>
      <trkpt lat="46.1772" lon="6.8374">
        <ele>1858</ele>
        <time>2010-01-02T20:21:10Z</time>
      </trkpt>
      <trkpt lat="46.17739" lon="6.8374">
        <ele>1860</ele>
        <time>2010-01-02T20:21:18Z</time>
      </trkpt>
      <trkpt lat="46.17754" lon="6.83725">
        <ele>1856</ele>
        <time>2010-01-02T20:21:25Z</time>
      </trkpt>
      <trkpt lat="46.17765" lon="6.8371">
        <ele>1853</ele>
        <time>2010-01-02T20:21:31Z</time>
      </trkpt>
      <trkpt lat="46.17768" lon="6.83688">
        <ele>1851</ele>
        <time>2010-01-02T20:21:37Z</time>
      </trkpt>
      <trkpt lat="46.17768" lon="6.83686">
        <ele>1851</ele>
        <time>2010-01-02T20:21:38Z</time>
      </trkpt>
      <trkpt lat="46.17768" lon="6.83672">
        <ele>1850</ele>
        <time>2010-01-02T20:21:42Z</time>
      </trkpt>
      <trkpt lat="46.17754" lon="6.83653">
        <ele>1845</ele>
        <time>2010-01-02T20:21:50Z</time>
      </trkpt>
      <trkpt lat="46.17744" lon="6.83632">
        <ele>1842</ele>
        <time>2010-01-02T20:21:57Z</time>
      </trkpt>
      <trkpt lat="46.1774" lon="6.83609">
        <ele>1840</ele>
        <time>2010-01-02T20:22:03Z</time>
      </trkpt>
      <trkpt lat="46.1775" lon="6.83569">
        <ele>1833</ele>
        <time>2010-01-02T20:22:15Z</time>
      </trkpt>
      <trkpt lat="46.17759" lon="6.83538">
        <ele>1829</ele>
        <time>2010-01-02T20:22:25Z</time>
      </trkpt>
      <trkpt lat="46.17769" lon="6.83504">
        <ele>1828</ele>
        <time>2010-01-02T20:22:35Z</time>
      </trkpt>
      <trkpt lat="46.17772" lon="6.83484">
        <ele>1823</ele>
        <time>2010-01-02T20:22:41Z</time>
      </trkpt>
      <trkpt lat="46.17775" lon="6.83464">
        <ele>1821</ele>
        <time>2010-01-02T20:22:46Z</time>
      </trkpt>
      <trkpt lat="46.17778" lon="6.83437">
        <ele>1820</ele>
        <time>2010-01-02T20:22:54Z</time>
      </trkpt>
      <trkpt lat="46.17778" lon="6.83435">
        <ele>1820</ele>
        <time>2010-01-02T20:22:54Z</time>
      </trkpt>
      <trkpt lat="46.17772" lon="6.83412">
        <ele>1816</ele>
        <time>2010-01-02T20:23:01Z</time>
      </trkpt>
      <trkpt lat="46.17767" lon="6.83396">
        <ele>1816</ele>
        <time>2010-01-02T20:23:06Z</time>
      </trkpt>
      <trkpt lat="46.17757" lon="6.83371">
        <ele>1813</ele>
        <time>2010-01-02T20:23:14Z</time>
      </trkpt>
      <trkpt lat="46.17749" lon="6.83356">
        <ele>1809</ele>
        <time>2010-01-02T20:23:19Z</time>
      </trkpt>
      <trkpt lat="46.17755" lon="6.83347">
        <ele>1811</ele>
        <time>2010-01-02T20:23:22Z</time>
      </trkpt>
      <trkpt lat="46.17761" lon="6.83336">
        <ele>1811</ele>
        <time>2010-01-02T20:23:26Z</time>
      </trkpt>
      <trkpt lat="46.17769" lon="6.83316">
        <ele>1808</ele>
        <time>2010-01-02T20:23:33Z</time>
      </trkpt>
      <trkpt lat="46.17785" lon="6.83269">
        <ele>1807</ele>
        <time>2010-01-02T20:23:47Z</time>
      </trkpt>
      <trkpt lat="46.17805" lon="6.83222">
        <ele>1806</ele>
        <time>2010-01-02T20:24:02Z</time>
      </trkpt>
      <trkpt lat="46.17805" lon="6.83205">
        <ele>1806</ele>
        <time>2010-01-02T20:24:07Z</time>
      </trkpt>
      <trkpt lat="46.17821" lon="6.83135">
        <ele>1805</ele>
        <time>2010-01-02T20:24:28Z</time>
      </trkpt>
      <trkpt lat="46.17842" lon="6.83057">
        <ele>1805</ele>
        <time>2010-01-02T20:24:51Z</time>
      </trkpt>
      <trkpt lat="46.17846" lon="6.83046">
        <ele>1805</ele>
        <time>2010-01-02T20:24:54Z</time>
      </trkpt>
      <trkpt lat="46.17851" lon="6.83049">
        <ele>1804</ele>
        <time>2010-01-02T20:24:57Z</time>
      </trkpt>
      <trkpt lat="46.1786" lon="6.83049">
        <ele>1804</ele>
        <time>2010-01-02T20:25:00Z</time>
      </trkpt>
      <trkpt lat="46.1787" lon="6.83039">
        <ele>1803</ele>
        <time>2010-01-02T20:25:05Z</time>
      </trkpt>
      <trkpt lat="46.17883" lon="6.83015">
        <ele>1802</ele>
        <time>2010-01-02T20:25:13Z</time>
      </trkpt>
      <trkpt lat="46.17891" lon="6.82982">
        <ele>1804</ele>
        <time>2010-01-02T20:25:23Z</time>
      </trkpt>
      <trkpt lat="46.17896" lon="6.82958">
        <ele>1805</ele>
        <time>2010-01-02T20:25:30Z</time>
      </trkpt>
      <trkpt lat="46.17901" lon="6.8295">
        <ele>1805</ele>
        <time>2010-01-02T20:25:33Z</time>
      </trkpt>
      <trkpt lat="46.17907" lon="6.82949">
        <ele>1805</ele>
        <time>2010-01-02T20:25:36Z</time>
      </trkpt>
      <trkpt lat="46.17911" lon="6.82957">
        <ele>1805</ele>
        <time>2010-01-02T20:25:38Z</time>
      </trkpt>
      <trkpt lat="46.17915" lon="6.82976">
        <ele>1803</ele>
        <time>2010-01-02T20:25:44Z</time>
      </trkpt>
      <trkpt lat="46.17918" lon="6.82989">
        <ele>1793</ele>
        <time>2010-01-02T20:25:47Z</time>
      </trkpt>
      <trkpt lat="46.17925" lon="6.83">
        <ele>1794</ele>
        <time>2010-01-02T20:25:51Z</time>
      </trkpt>
      <trkpt lat="46.17928" lon="6.83025">
        <ele>1788</ele>
        <time>2010-01-02T20:25:58Z</time>
      </trkpt>
      <trkpt lat="46.17928" lon="6.83049">
        <ele>1787</ele>
        <time>2010-01-02T20:26:05Z</time>
      </trkpt>
      <trkpt lat="46.17928" lon="6.83068">
        <ele>1788</ele>
        <time>2010-01-02T20:26:11Z</time>
      </trkpt>
      <trkpt lat="46.17929" lon="6.83082">
        <ele>1790</ele>
        <time>2010-01-02T20:26:14Z</time>
      </trkpt>
      <trkpt lat="46.1793" lon="6.83094">
        <ele>1790</ele>
        <time>2010-01-02T20:26:18Z</time>
      </trkpt>
      <trkpt lat="46.17935" lon="6.83104">
        <ele>1788</ele>
        <time>2010-01-02T20:26:21Z</time>
      </trkpt>
      <trkpt lat="46.17939" lon="6.83104">
        <ele>1788</ele>
        <time>2010-01-02T20:26:23Z</time>
      </trkpt>
      <trkpt lat="46.1794" lon="6.83101">
        <ele>1788</ele>
        <time>2010-01-02T20:26:23Z</time>
      </trkpt>
      <trkpt lat="46.17942" lon="6.83086">
        <ele>1788</ele>
        <time>2010-01-02T20:26:28Z</time>
      </trkpt>
      <trkpt lat="46.17942" lon="6.83085">
        <ele>1788</ele>
        <time>2010-01-02T20:26:28Z</time>
      </trkpt>
      <trkpt lat="46.17942" lon="6.83084">
        <ele>1788</ele>
        <time>2010-01-02T20:26:28Z</time>
      </trkpt>
      <trkpt lat="46.17952" lon="6.83042">
        <ele>1784</ele>
        <time>2010-01-02T20:26:40Z</time>
      </trkpt>
      <trkpt lat="46.17952" lon="6.83041">
        <ele>1783</ele>
        <time>2010-01-02T20:26:41Z</time>
      </trkpt>
      <trkpt lat="46.17953" lon="6.83039">
        <ele>1783</ele>
        <time>2010-01-02T20:26:41Z</time>
      </trkpt>
      <trkpt lat="46.17962" lon="6.83006">
        <ele>1781</ele>
        <time>2010-01-02T20:26:51Z</time>
      </trkpt>
      <trkpt lat="46.17963" lon="6.83003">
        <ele>1781</ele>
        <time>2010-01-02T20:26:52Z</time>
      </trkpt>
      <trkpt lat="46.17967" lon="6.82971">
        <ele>1784</ele>
        <time>2010-01-02T20:27:01Z</time>
      </trkpt>
      <trkpt lat="46.17967" lon="6.8297">
        <ele>1784</ele>
        <time>2010-01-02T20:27:02Z</time>
      </trkpt>
      <trkpt lat="46.1797" lon="6.82948">
        <ele>1785</ele>
        <time>2010-01-02T20:27:08Z</time>
      </trkpt>
      <trkpt lat="46.17972" lon="6.82946">
        <ele>1785</ele>
        <time>2010-01-02T20:27:09Z</time>
      </trkpt>
      <trkpt lat="46.17988" lon="6.82931">
        <ele>1783</ele>
        <time>2010-01-02T20:27:16Z</time>
      </trkpt>
      <trkpt lat="46.17989" lon="6.8293">
        <ele>1783</ele>
        <time>2010-01-02T20:27:17Z</time>
      </trkpt>
      <trkpt lat="46.18017" lon="6.82929">
        <ele>1771</ele>
        <time>2010-01-02T20:27:28Z</time>
      </trkpt>
      <trkpt lat="46.18047" lon="6.82923">
        <ele>1767</ele>
        <time>2010-01-02T20:27:40Z</time>
      </trkpt>
      <trkpt lat="46.18065" lon="6.82906">
        <ele>1773</ele>
        <time>2010-01-02T20:27:49Z</time>
      </trkpt>
      <trkpt lat="46.18085" lon="6.82896">
        <ele>1764</ele>
        <time>2010-01-02T20:27:57Z</time>
      </trkpt>
      <trkpt lat="46.18101" lon="6.82898">
        <ele>1763</ele>
        <time>2010-01-02T20:28:04Z</time>
      </trkpt>
      <trkpt lat="46.1812" lon="6.82887">
        <ele>1763</ele>
        <time>2010-01-02T20:28:12Z</time>
      </trkpt>
      <trkpt lat="46.18133" lon="6.82881">
        <ele>1762</ele>
        <time>2010-01-02T20:28:17Z</time>
      </trkpt>
      <trkpt lat="46.18142" lon="6.82884">
        <ele>1761</ele>
        <time>2010-01-02T20:28:21Z</time>
      </trkpt>
      <trkpt lat="46.18143" lon="6.82904">
        <ele>1758</ele>
        <time>2010-01-02T20:28:26Z</time>
      </trkpt>
      <trkpt lat="46.18124" lon="6.82935">
        <ele>1750</ele>
        <time>2010-01-02T20:28:38Z</time>
      </trkpt>
      <trkpt lat="46.18115" lon="6.82951">
        <ele>1750</ele>
        <time>2010-01-02T20:28:44Z</time>
      </trkpt>
      <trkpt lat="46.18087" lon="6.82999">
        <ele>1749</ele>
        <time>2010-01-02T20:29:01Z</time>
      </trkpt>
      <trkpt lat="46.18077" lon="6.83031">
        <ele>1753</ele>
        <time>2010-01-02T20:29:11Z</time>
      </trkpt>
      <trkpt lat="46.18076" lon="6.83049">
        <ele>1752</ele>
        <time>2010-01-02T20:29:16Z</time>
      </trkpt>
      <trkpt lat="46.18085" lon="6.83064">
        <ele>1738</ele>
        <time>2010-01-02T20:29:22Z</time>
      </trkpt>
      <trkpt lat="46.18093" lon="6.83087">
        <ele>1737</ele>
        <time>2010-01-02T20:29:29Z</time>
      </trkpt>
      <trkpt lat="46.18098" lon="6.83103">
        <ele>1735</ele>
        <time>2010-01-02T20:29:34Z</time>
      </trkpt>
      <trkpt lat="46.18107" lon="6.83124">
        <ele>1733</ele>
        <time>2010-01-02T20:29:40Z</time>
      </trkpt>
      <trkpt lat="46.1812" lon="6.83139">
        <ele>1732</ele>
        <time>2010-01-02T20:29:47Z</time>
      </trkpt>
      <trkpt lat="46.18138" lon="6.83155">
        <ele>1728</ele>
        <time>2010-01-02T20:29:56Z</time>
      </trkpt>
      <trkpt lat="46.18147" lon="6.83171">
        <ele>1727</ele>
        <time>2010-01-02T20:30:01Z</time>
      </trkpt>
      <trkpt lat="46.18153" lon="6.83176">
        <ele>1726</ele>
        <time>2010-01-02T20:30:04Z</time>
      </trkpt>
      <trkpt lat="46.18161" lon="6.83188">
        <ele>1727</ele>
        <time>2010-01-02T20:30:09Z</time>
      </trkpt>
      <trkpt lat="46.18167" lon="6.83194">
        <ele>1716</ele>
        <time>2010-01-02T20:30:12Z</time>
      </trkpt>
      <trkpt lat="46.18176" lon="6.83195">
        <ele>1715</ele>
        <time>2010-01-02T20:30:15Z</time>
      </trkpt>
      <trkpt lat="46.18177" lon="6.83195">
        <ele>1715</ele>
        <time>2010-01-02T20:30:16Z</time>
      </trkpt>
      <trkpt lat="46.18186" lon="6.83196">
        <ele>1714</ele>
        <time>2010-01-02T20:30:19Z</time>
      </trkpt>
      <trkpt lat="46.18193" lon="6.83203">
        <ele>1714</ele>
        <time>2010-01-02T20:30:23Z</time>
      </trkpt>
      <trkpt lat="46.182" lon="6.83213">
        <ele>1713</ele>
        <time>2010-01-02T20:30:27Z</time>
      </trkpt>
      <trkpt lat="46.18208" lon="6.8322">
        <ele>1713</ele>
        <time>2010-01-02T20:30:30Z</time>
      </trkpt>
      <trkpt lat="46.18214" lon="6.83212">
        <ele>1712</ele>
        <time>2010-01-02T20:30:33Z</time>
      </trkpt>
      <trkpt lat="46.18214" lon="6.83202">
        <ele>1711</ele>
        <time>2010-01-02T20:30:36Z</time>
      </trkpt>
      <trkpt lat="46.18208" lon="6.83177">
        <ele>1712</ele>
        <time>2010-01-02T20:30:44Z</time>
      </trkpt>
      <trkpt lat="46.18205" lon="6.83169">
        <ele>1712</ele>
        <time>2010-01-02T20:30:46Z</time>
      </trkpt>
      <trkpt lat="46.18205" lon="6.83168">
        <ele>1712</ele>
        <time>2010-01-02T20:30:47Z</time>
      </trkpt>
      <trkpt lat="46.18206" lon="6.83157">
        <ele>1712</ele>
        <time>2010-01-02T20:30:50Z</time>
      </trkpt>
      <trkpt lat="46.18208" lon="6.83155">
        <ele>1711</ele>
        <time>2010-01-02T20:30:51Z</time>
      </trkpt>
      <trkpt lat="46.18242" lon="6.83131">
        <ele>1709</ele>
        <time>2010-01-02T20:31:06Z</time>
      </trkpt>
      <trkpt lat="46.18267" lon="6.83124">
        <ele>1705</ele>
        <time>2010-01-02T20:31:16Z</time>
      </trkpt>
      <trkpt lat="46.18261" lon="6.83161">
        <ele>1703</ele>
        <time>2010-01-02T20:31:26Z</time>
      </trkpt>
      <trkpt lat="46.18263" lon="6.83177">
        <ele>1700</ele>
        <time>2010-01-02T20:31:31Z</time>
      </trkpt>
      <trkpt lat="46.18267" lon="6.83196">
        <ele>1699</ele>
        <time>2010-01-02T20:31:36Z</time>
      </trkpt>
      <trkpt lat="46.18276" lon="6.83213">
        <ele>1699</ele>
        <time>2010-01-02T20:31:42Z</time>
      </trkpt>
      <trkpt lat="46.18283" lon="6.83225">
        <ele>1698</ele>
        <time>2010-01-02T20:31:46Z</time>
      </trkpt>
      <trkpt lat="46.18287" lon="6.8324">
        <ele>1698</ele>
        <time>2010-01-02T20:31:51Z</time>
      </trkpt>
      <trkpt lat="46.18294" lon="6.83258">
        <ele>1695</ele>
        <time>2010-01-02T20:31:57Z</time>
      </trkpt>
      <trkpt lat="46.18307" lon="6.83277">
        <ele>1693</ele>
        <time>2010-01-02T20:32:04Z</time>
      </trkpt>
      <trkpt lat="46.18312" lon="6.83292">
        <ele>1693</ele>
        <time>2010-01-02T20:32:09Z</time>
      </trkpt>
      <trkpt lat="46.18322" lon="6.83307">
        <ele>1691</ele>
        <time>2010-01-02T20:32:14Z</time>
      </trkpt>
      <trkpt lat="46.18334" lon="6.83324">
        <ele>1686</ele>
        <time>2010-01-02T20:32:21Z</time>
      </trkpt>
      <trkpt lat="46.18341" lon="6.83331">
        <ele>1686</ele>
        <time>2010-01-02T20:32:24Z</time>
      </trkpt>
      <trkpt lat="46.1834" lon="6.83348">
        <ele>1685</ele>
        <time>2010-01-02T20:32:29Z</time>
      </trkpt>
      <trkpt lat="46.18339" lon="6.83373">
        <ele>1684</ele>
        <time>2010-01-02T20:32:36Z</time>
      </trkpt>
      <trkpt lat="46.1834" lon="6.83392">
        <ele>1684</ele>
        <time>2010-01-02T20:32:41Z</time>
      </trkpt>
      <trkpt lat="46.18348" lon="6.83403">
        <ele>1684</ele>
        <time>2010-01-02T20:32:46Z</time>
      </trkpt>
      <trkpt lat="46.18357" lon="6.83417">
        <ele>1683</ele>
        <time>2010-01-02T20:32:51Z</time>
      </trkpt>
      <trkpt lat="46.18363" lon="6.83422">
        <ele>1683</ele>
        <time>2010-01-02T20:32:54Z</time>
      </trkpt>
      <trkpt lat="46.18369" lon="6.83426">
        <ele>1683</ele>
        <time>2010-01-02T20:32:57Z</time>
      </trkpt>
      <trkpt lat="46.18377" lon="6.83421">
        <ele>1683</ele>
        <time>2010-01-02T20:33:00Z</time>
      </trkpt>
      <trkpt lat="46.18383" lon="6.83418">
        <ele>1683</ele>
        <time>2010-01-02T20:33:02Z</time>
      </trkpt>
      <trkpt lat="46.18505" lon="6.83132">
        <ele>1727</ele>
        <time>2010-01-02T20:34:36Z</time>
      </trkpt>
      <trkpt lat="46.18619" lon="6.8287">
        <ele>1781</ele>
        <time>2010-01-02T20:36:01Z</time>
      </trkpt>
      <trkpt lat="46.18721" lon="6.82639">
        <ele>1844</ele>
        <time>2010-01-02T20:37:17Z</time>
      </trkpt>
      <trkpt lat="46.18819" lon="6.82427">
        <ele>1928</ele>
        <time>2010-01-02T20:38:28Z</time>
      </trkpt>
      <trkpt lat="46.19054" lon="6.81894">
        <ele>2128</ele>
        <time>2010-01-02T20:41:23Z</time>
      </trkpt>
      <trkpt lat="46.19195" lon="6.81587">
        <ele>2230</ele>
        <time>2010-01-02T20:43:05Z</time>
      </trkpt>
      <trkpt lat="46.19195" lon="6.81529">
        <ele>2237</ele>
        <time>2010-01-02T20:43:21Z</time>
      </trkpt>
      <trkpt lat="46.19157" lon="6.81476">
        <ele>2235</ele>
        <time>2010-01-02T20:43:42Z</time>
      </trkpt>
      <trkpt lat="46.19127" lon="6.81471">
        <ele>2230</ele>
        <time>2010-01-02T20:43:54Z</time>
      </trkpt>
      <trkpt lat="46.19093" lon="6.81477">
        <ele>2228</ele>
        <time>2010-01-02T20:44:08Z</time>
      </trkpt>
      <trkpt lat="46.19086" lon="6.81479">
        <ele>2229</ele>
        <time>2010-01-02T20:44:11Z</time>
      </trkpt>
      <trkpt lat="46.19067" lon="6.81498">
        <ele>2213</ele>
        <time>2010-01-02T20:44:20Z</time>
      </trkpt>
      <trkpt lat="46.19048" lon="6.81528">
        <ele>2217</ele>
        <time>2010-01-02T20:44:32Z</time>
      </trkpt>
      <trkpt lat="46.19037" lon="6.81554">
        <ele>2217</ele>
        <time>2010-01-02T20:44:40Z</time>
      </trkpt>
      <trkpt lat="46.19032" lon="6.81566">
        <ele>2216</ele>
        <time>2010-01-02T20:44:44Z</time>
      </trkpt>
      <trkpt lat="46.19029" lon="6.81572">
        <ele>2216</ele>
        <time>2010-01-02T20:44:46Z</time>
      </trkpt>
      <trkpt lat="46.18994" lon="6.8162">
        <ele>2199</ele>
        <time>2010-01-02T20:45:06Z</time>
      </trkpt>
      <trkpt lat="46.18994" lon="6.81621">
        <ele>2199</ele>
        <time>2010-01-02T20:45:06Z</time>
      </trkpt>
      <trkpt lat="46.18964" lon="6.81655">
        <ele>2196</ele>
        <time>2010-01-02T20:45:21Z</time>
      </trkpt>
      <trkpt lat="46.18932" lon="6.81678">
        <ele>2188</ele>
        <time>2010-01-02T20:45:35Z</time>
      </trkpt>
      <trkpt lat="46.18903" lon="6.81694">
        <ele>2174</ele>
        <time>2010-01-02T20:45:48Z</time>
      </trkpt>
      <trkpt lat="46.18887" lon="6.81698">
        <ele>2172</ele>
        <time>2010-01-02T20:45:54Z</time>
      </trkpt>
      <trkpt lat="46.18875" lon="6.81699">
        <ele>2171</ele>
        <time>2010-01-02T20:45:59Z</time>
      </trkpt>
      <trkpt lat="46.18875" lon="6.81699">
        <ele>2171</ele>
        <time>2010-01-02T20:45:59Z</time>
      </trkpt>
      <trkpt lat="46.18866" lon="6.81698">
        <ele>2170</ele>
        <time>2010-01-02T20:46:03Z</time>
      </trkpt>
      <trkpt lat="46.18856" lon="6.81701">
        <ele>2169</ele>
        <time>2010-01-02T20:46:07Z</time>
      </trkpt>
      <trkpt lat="46.18852" lon="6.8171">
        <ele>2169</ele>
        <time>2010-01-02T20:46:10Z</time>
      </trkpt>
      <trkpt lat="46.18853" lon="6.81715">
        <ele>2169</ele>
        <time>2010-01-02T20:46:11Z</time>
      </trkpt>
      <trkpt lat="46.18857" lon="6.81717">
        <ele>2169</ele>
        <time>2010-01-02T20:46:13Z</time>
      </trkpt>
      <trkpt lat="46.18866" lon="6.81716">
        <ele>2170</ele>
        <time>2010-01-02T20:46:16Z</time>
      </trkpt>
      <trkpt lat="46.18872" lon="6.81715">
        <ele>2170</ele>
        <time>2010-01-02T20:46:19Z</time>
      </trkpt>
      <trkpt lat="46.18882" lon="6.81712">
        <ele>2171</ele>
        <time>2010-01-02T20:46:23Z</time>
      </trkpt>
      <trkpt lat="46.18893" lon="6.81716">
        <ele>2171</ele>
        <time>2010-01-02T20:46:28Z</time>
      </trkpt>
      <trkpt lat="46.18903" lon="6.81721">
        <ele>2171</ele>
        <time>2010-01-02T20:46:32Z</time>
      </trkpt>
      <trkpt lat="46.18909" lon="6.81729">
        <ele>2170</ele>
        <time>2010-01-02T20:46:35Z</time>
      </trkpt>
      <trkpt lat="46.18914" lon="6.81735">
        <ele>2170</ele>
        <time>2010-01-02T20:46:37Z</time>
      </trkpt>
      <trkpt lat="46.18925" lon="6.81733">
        <ele>2179</ele>
        <time>2010-01-02T20:46:42Z</time>
      </trkpt>
      <trkpt lat="46.18935" lon="6.81733">
        <ele>2181</ele>
        <time>2010-01-02T20:46:46Z</time>
      </trkpt>
      <trkpt lat="46.18939" lon="6.81737">
        <ele>2181</ele>
        <time>2010-01-02T20:46:48Z</time>
      </trkpt>
      <trkpt lat="46.18945" lon="6.81746">
        <ele>2182</ele>
        <time>2010-01-02T20:46:51Z</time>
      </trkpt>
      <trkpt lat="46.18949" lon="6.81755">
        <ele>2161</ele>
        <time>2010-01-02T20:46:54Z</time>
      </trkpt>
      <trkpt lat="46.18953" lon="6.81765">
        <ele>2160</ele>
        <time>2010-01-02T20:46:58Z</time>
      </trkpt>
      <trkpt lat="46.1896" lon="6.8177">
        <ele>2160</ele>
        <time>2010-01-02T20:47:01Z</time>
      </trkpt>
      <trkpt lat="46.18968" lon="6.81767">
        <ele>2162</ele>
        <time>2010-01-02T20:47:04Z</time>
      </trkpt>
      <trkpt lat="46.18979" lon="6.81762">
        <ele>2167</ele>
        <time>2010-01-02T20:47:09Z</time>
      </trkpt>
      <trkpt lat="46.18989" lon="6.81764">
        <ele>2171</ele>
        <time>2010-01-02T20:47:13Z</time>
      </trkpt>
      <trkpt lat="46.18997" lon="6.81768">
        <ele>2170</ele>
        <time>2010-01-02T20:47:16Z</time>
      </trkpt>
      <trkpt lat="46.19002" lon="6.81775">
        <ele>2175</ele>
        <time>2010-01-02T20:47:19Z</time>
      </trkpt>
      <trkpt lat="46.19007" lon="6.8178">
        <ele>2173</ele>
        <time>2010-01-02T20:47:21Z</time>
      </trkpt>
      <trkpt lat="46.19011" lon="6.81792">
        <ele>2169</ele>
        <time>2010-01-02T20:47:25Z</time>
      </trkpt>
      <trkpt lat="46.19014" lon="6.81804">
        <ele>2165</ele>
        <time>2010-01-02T20:47:28Z</time>
      </trkpt>
      <trkpt lat="46.19018" lon="6.81813">
        <ele>2163</ele>
        <time>2010-01-02T20:47:31Z</time>
      </trkpt>
      <trkpt lat="46.19029" lon="6.81817">
        <ele>2163</ele>
        <time>2010-01-02T20:47:36Z</time>
      </trkpt>
      <trkpt lat="46.19037" lon="6.81807">
        <ele>2167</ele>
        <time>2010-01-02T20:47:40Z</time>
      </trkpt>
      <trkpt lat="46.19046" lon="6.81804">
        <ele>2168</ele>
        <time>2010-01-02T20:47:44Z</time>
      </trkpt>
      <trkpt lat="46.19056" lon="6.81812">
        <ele>2166</ele>
        <time>2010-01-02T20:47:48Z</time>
      </trkpt>
      <trkpt lat="46.19068" lon="6.81825">
        <ele>2163</ele>
        <time>2010-01-02T20:47:54Z</time>
      </trkpt>
      <trkpt lat="46.19073" lon="6.81835">
        <ele>2148</ele>
        <time>2010-01-02T20:47:57Z</time>
      </trkpt>
      <trkpt lat="46.19075" lon="6.81846">
        <ele>2145</ele>
        <time>2010-01-02T20:48:01Z</time>
      </trkpt>
      <trkpt lat="46.19079" lon="6.81857">
        <ele>2141</ele>
        <time>2010-01-02T20:48:04Z</time>
      </trkpt>
      <trkpt lat="46.19084" lon="6.81868">
        <ele>2139</ele>
        <time>2010-01-02T20:48:08Z</time>
      </trkpt>
      <trkpt lat="46.19092" lon="6.81881">
        <ele>2136</ele>
        <time>2010-01-02T20:48:13Z</time>
      </trkpt>
      <trkpt lat="46.19102" lon="6.81897">
        <ele>2132</ele>
        <time>2010-01-02T20:48:19Z</time>
      </trkpt>
      <trkpt lat="46.19113" lon="6.81909">
        <ele>2131</ele>
        <time>2010-01-02T20:48:24Z</time>
      </trkpt>
      <trkpt lat="46.19124" lon="6.8192">
        <ele>2117</ele>
        <time>2010-01-02T20:48:30Z</time>
      </trkpt>
      <trkpt lat="46.19135" lon="6.8193">
        <ele>2117</ele>
        <time>2010-01-02T20:48:35Z</time>
      </trkpt>
      <trkpt lat="46.19146" lon="6.81935">
        <ele>2117</ele>
        <time>2010-01-02T20:48:39Z</time>
      </trkpt>
      <trkpt lat="46.19151" lon="6.8194">
        <ele>2117</ele>
        <time>2010-01-02T20:48:42Z</time>
      </trkpt>
      <trkpt lat="46.19158" lon="6.81946">
        <ele>2117</ele>
        <time>2010-01-02T20:48:45Z</time>
      </trkpt>
      <trkpt lat="46.19164" lon="6.81966">
        <ele>2116</ele>
        <time>2010-01-02T20:48:51Z</time>
      </trkpt>
      <trkpt lat="46.19164" lon="6.8198">
        <ele>2115</ele>
        <time>2010-01-02T20:48:55Z</time>
      </trkpt>
      <trkpt lat="46.19163" lon="6.81988">
        <ele>2116</ele>
        <time>2010-01-02T20:48:57Z</time>
      </trkpt>
      <trkpt lat="46.19169" lon="6.81988">
        <ele>2110</ele>
        <time>2010-01-02T20:48:59Z</time>
      </trkpt>
      <trkpt lat="46.19179" lon="6.81977">
        <ele>2104</ele>
        <time>2010-01-02T20:49:04Z</time>
      </trkpt>
      <trkpt lat="46.19184" lon="6.81967">
        <ele>2102</ele>
        <time>2010-01-02T20:49:08Z</time>
      </trkpt>
      <trkpt lat="46.19192" lon="6.81955">
        <ele>2101</ele>
        <time>2010-01-02T20:49:12Z</time>
      </trkpt>
      <trkpt lat="46.19197" lon="6.81953">
        <ele>2099</ele>
        <time>2010-01-02T20:49:14Z</time>
      </trkpt>
      <trkpt lat="46.19194" lon="6.81969">
        <ele>2100</ele>
        <time>2010-01-02T20:49:19Z</time>
      </trkpt>
      <trkpt lat="46.19189" lon="6.81982">
        <ele>2102</ele>
        <time>2010-01-02T20:49:23Z</time>
      </trkpt>
      <trkpt lat="46.19181" lon="6.82009">
        <ele>2102</ele>
        <time>2010-01-02T20:49:31Z</time>
      </trkpt>
      <trkpt lat="46.19176" lon="6.82018">
        <ele>2100</ele>
        <time>2010-01-02T20:49:34Z</time>
      </trkpt>
      <trkpt lat="46.19172" lon="6.82024">
        <ele>2099</ele>
        <time>2010-01-02T20:49:37Z</time>
      </trkpt>
      <trkpt lat="46.19172" lon="6.82033">
        <ele>2096</ele>
        <time>2010-01-02T20:49:39Z</time>
      </trkpt>
      <trkpt lat="46.19178" lon="6.8207">
        <ele>2091</ele>
        <time>2010-01-02T20:49:50Z</time>
      </trkpt>
      <trkpt lat="46.1918" lon="6.82073">
        <ele>2091</ele>
        <time>2010-01-02T20:49:51Z</time>
      </trkpt>
      <trkpt lat="46.19181" lon="6.82074">
        <ele>2091</ele>
        <time>2010-01-02T20:49:51Z</time>
      </trkpt>
      <trkpt lat="46.19186" lon="6.82083">
        <ele>2090</ele>
        <time>2010-01-02T20:49:54Z</time>
      </trkpt>
      <trkpt lat="46.19187" lon="6.82092">
        <ele>2088</ele>
        <time>2010-01-02T20:49:57Z</time>
      </trkpt>
      <trkpt lat="46.19189" lon="6.82105">
        <ele>2086</ele>
        <time>2010-01-02T20:50:01Z</time>
      </trkpt>
      <trkpt lat="46.1919" lon="6.82115">
        <ele>2086</ele>
        <time>2010-01-02T20:50:03Z</time>
      </trkpt>
      <trkpt lat="46.19196" lon="6.82117">
        <ele>2085</ele>
        <time>2010-01-02T20:50:06Z</time>
      </trkpt>
      <trkpt lat="46.19201" lon="6.82118">
        <ele>2085</ele>
        <time>2010-01-02T20:50:08Z</time>
      </trkpt>
      <trkpt lat="46.19213" lon="6.82122">
        <ele>2084</ele>
        <time>2010-01-02T20:50:13Z</time>
      </trkpt>
      <trkpt lat="46.19219" lon="6.82126">
        <ele>2084</ele>
        <time>2010-01-02T20:50:16Z</time>
      </trkpt>
      <trkpt lat="46.19225" lon="6.82124">
        <ele>2084</ele>
        <time>2010-01-02T20:50:18Z</time>
      </trkpt>
      <trkpt lat="46.19228" lon="6.8212">
        <ele>2083</ele>
        <time>2010-01-02T20:50:20Z</time>
      </trkpt>
      <trkpt lat="46.19227" lon="6.8211">
        <ele>2082</ele>
        <time>2010-01-02T20:50:22Z</time>
      </trkpt>
      <trkpt lat="46.19225" lon="6.82091">
        <ele>2080</ele>
        <time>2010-01-02T20:50:28Z</time>
      </trkpt>
      <trkpt lat="46.19225" lon="6.82077">
        <ele>2080</ele>
        <time>2010-01-02T20:50:32Z</time>
      </trkpt>
      <trkpt lat="46.19225" lon="6.82076">
        <ele>2080</ele>
        <time>2010-01-02T20:50:32Z</time>
      </trkpt>
      <trkpt lat="46.19225" lon="6.82065">
        <ele>2081</ele>
        <time>2010-01-02T20:50:35Z</time>
      </trkpt>
      <trkpt lat="46.19227" lon="6.82057">
        <ele>2081</ele>
        <time>2010-01-02T20:50:37Z</time>
      </trkpt>
      <trkpt lat="46.19231" lon="6.82059">
        <ele>2080</ele>
        <time>2010-01-02T20:50:39Z</time>
      </trkpt>
      <trkpt lat="46.19236" lon="6.82068">
        <ele>2078</ele>
        <time>2010-01-02T20:50:42Z</time>
      </trkpt>
      <trkpt lat="46.19238" lon="6.82074">
        <ele>2076</ele>
        <time>2010-01-02T20:50:44Z</time>
      </trkpt>
      <trkpt lat="46.19239" lon="6.82074">
        <ele>2076</ele>
        <time>2010-01-02T20:50:44Z</time>
      </trkpt>
      <trkpt lat="46.1924" lon="6.82075">
        <ele>2075</ele>
        <time>2010-01-02T20:50:45Z</time>
      </trkpt>
      <trkpt lat="46.1924" lon="6.82076">
        <ele>2075</ele>
        <time>2010-01-02T20:50:45Z</time>
      </trkpt>
      <trkpt lat="46.19241" lon="6.82077">
        <ele>2074</ele>
        <time>2010-01-02T20:50:46Z</time>
      </trkpt>
      <trkpt lat="46.19242" lon="6.82078">
        <ele>2073</ele>
        <time>2010-01-02T20:50:46Z</time>
      </trkpt>
      <trkpt lat="46.19242" lon="6.82079">
        <ele>2073</ele>
        <time>2010-01-02T20:50:46Z</time>
      </trkpt>
      <trkpt lat="46.19243" lon="6.8208">
        <ele>2073</ele>
        <time>2010-01-02T20:50:47Z</time>
      </trkpt>
      <trkpt lat="46.19244" lon="6.82082">
        <ele>2072</ele>
        <time>2010-01-02T20:50:47Z</time>
      </trkpt>
      <trkpt lat="46.19245" lon="6.82083">
        <ele>2071</ele>
        <time>2010-01-02T20:50:48Z</time>
      </trkpt>
      <trkpt lat="46.19245" lon="6.82084">
        <ele>2071</ele>
        <time>2010-01-02T20:50:48Z</time>
      </trkpt>
      <trkpt lat="46.19246" lon="6.82085">
        <ele>2071</ele>
        <time>2010-01-02T20:50:49Z</time>
      </trkpt>
      <trkpt lat="46.19247" lon="6.82085">
        <ele>2070</ele>
        <time>2010-01-02T20:50:49Z</time>
      </trkpt>
      <trkpt lat="46.19247" lon="6.82085">
        <ele>2070</ele>
        <time>2010-01-02T20:50:49Z</time>
      </trkpt>
      <trkpt lat="46.1926" lon="6.821">
        <ele>2073</ele>
        <time>2010-01-02T20:50:56Z</time>
      </trkpt>
      <trkpt lat="46.19278" lon="6.82108">
        <ele>2075</ele>
        <time>2010-01-02T20:51:03Z</time>
      </trkpt>
      <trkpt lat="46.1929" lon="6.82106">
        <ele>2074</ele>
        <time>2010-01-02T20:51:08Z</time>
      </trkpt>
      <trkpt lat="46.19309" lon="6.82094">
        <ele>2070</ele>
        <time>2010-01-02T20:51:16Z</time>
      </trkpt>
      <trkpt lat="46.19329" lon="6.82093">
        <ele>2064</ele>
        <time>2010-01-02T20:51:24Z</time>
      </trkpt>
      <trkpt lat="46.19349" lon="6.82092">
        <ele>2063</ele>
        <time>2010-01-02T20:51:32Z</time>
      </trkpt>
      <trkpt lat="46.19373" lon="6.82079">
        <ele>2046</ele>
        <time>2010-01-02T20:51:43Z</time>
      </trkpt>
      <trkpt lat="46.19376" lon="6.82077">
        <ele>2046</ele>
        <time>2010-01-02T20:51:44Z</time>
      </trkpt>
      <trkpt lat="46.19376" lon="6.82076">
        <ele>2046</ele>
        <time>2010-01-02T20:51:44Z</time>
      </trkpt>
      <trkpt lat="46.19377" lon="6.82075">
        <ele>2046</ele>
        <time>2010-01-02T20:51:45Z</time>
      </trkpt>
      <trkpt lat="46.19378" lon="6.82075">
        <ele>2045</ele>
        <time>2010-01-02T20:51:45Z</time>
      </trkpt>
      <trkpt lat="46.19379" lon="6.82074">
        <ele>2045</ele>
        <time>2010-01-02T20:51:45Z</time>
      </trkpt>
      <trkpt lat="46.1938" lon="6.82074">
        <ele>2045</ele>
        <time>2010-01-02T20:51:46Z</time>
      </trkpt>
      <trkpt lat="46.1938" lon="6.82073">
        <ele>2045</ele>
        <time>2010-01-02T20:51:46Z</time>
      </trkpt>
      <trkpt lat="46.19381" lon="6.82073">
        <ele>2045</ele>
        <time>2010-01-02T20:51:47Z</time>
      </trkpt>
      <trkpt lat="46.19382" lon="6.82072">
        <ele>2045</ele>
        <time>2010-01-02T20:51:47Z</time>
      </trkpt>
      <trkpt lat="46.19383" lon="6.82071">
        <ele>2045</ele>
        <time>2010-01-02T20:51:47Z</time>
      </trkpt>
      <trkpt lat="46.19385" lon="6.8207">
        <ele>2045</ele>
        <time>2010-01-02T20:51:48Z</time>
      </trkpt>
      <trkpt lat="46.19387" lon="6.82069">
        <ele>2045</ele>
        <time>2010-01-02T20:51:49Z</time>
      </trkpt>
      <trkpt lat="46.19389" lon="6.82068">
        <ele>2044</ele>
        <time>2010-01-02T20:51:50Z</time>
      </trkpt>
      <trkpt lat="46.1939" lon="6.82068">
        <ele>2044</ele>
        <time>2010-01-02T20:51:50Z</time>
      </trkpt>
      <trkpt lat="46.19391" lon="6.82067">
        <ele>2044</ele>
        <time>2010-01-02T20:51:51Z</time>
      </trkpt>
      <trkpt lat="46.19393" lon="6.82067">
        <ele>2044</ele>
        <time>2010-01-02T20:51:52Z</time>
      </trkpt>
      <trkpt lat="46.19394" lon="6.82066">
        <ele>2044</ele>
        <time>2010-01-02T20:51:52Z</time>
      </trkpt>
      <trkpt lat="46.19394" lon="6.82066">
        <ele>2044</ele>
        <time>2010-01-02T20:51:52Z</time>
      </trkpt>
      <trkpt lat="46.19396" lon="6.82066">
        <ele>2044</ele>
        <time>2010-01-02T20:51:53Z</time>
      </trkpt>
      <trkpt lat="46.19398" lon="6.82065">
        <ele>2044</ele>
        <time>2010-01-02T20:51:54Z</time>
      </trkpt>
      <trkpt lat="46.19401" lon="6.82063">
        <ele>2044</ele>
        <time>2010-01-02T20:51:55Z</time>
      </trkpt>
      <trkpt lat="46.19401" lon="6.82063">
        <ele>2044</ele>
        <time>2010-01-02T20:51:55Z</time>
      </trkpt>
      <trkpt lat="46.19403" lon="6.82063">
        <ele>2044</ele>
        <time>2010-01-02T20:51:56Z</time>
      </trkpt>
      <trkpt lat="46.19404" lon="6.82062">
        <ele>2044</ele>
        <time>2010-01-02T20:51:56Z</time>
      </trkpt>
      <trkpt lat="46.19405" lon="6.82061">
        <ele>2044</ele>
        <time>2010-01-02T20:51:57Z</time>
      </trkpt>
      <trkpt lat="46.19406" lon="6.82061">
        <ele>2044</ele>
        <time>2010-01-02T20:51:57Z</time>
      </trkpt>
      <trkpt lat="46.19407" lon="6.82061">
        <ele>2044</ele>
        <time>2010-01-02T20:51:58Z</time>
      </trkpt>
      <trkpt lat="46.19409" lon="6.8206">
        <ele>2043</ele>
        <time>2010-01-02T20:51:58Z</time>
      </trkpt>
      <trkpt lat="46.19411" lon="6.82059">
        <ele>2043</ele>
        <time>2010-01-02T20:51:59Z</time>
      </trkpt>
      <trkpt lat="46.19413" lon="6.82058">
        <ele>2043</ele>
        <time>2010-01-02T20:52:00Z</time>
      </trkpt>
      <trkpt lat="46.19414" lon="6.82057">
        <ele>2043</ele>
        <time>2010-01-02T20:52:00Z</time>
      </trkpt>
      <trkpt lat="46.19415" lon="6.82057">
        <ele>2043</ele>
        <time>2010-01-02T20:52:01Z</time>
      </trkpt>
      <trkpt lat="46.19416" lon="6.82056">
        <ele>2043</ele>
        <time>2010-01-02T20:52:01Z</time>
      </trkpt>
      <trkpt lat="46.19417" lon="6.82056">
        <ele>2043</ele>
        <time>2010-01-02T20:52:01Z</time>
      </trkpt>
      <trkpt lat="46.19417" lon="6.82056">
        <ele>2037</ele>
        <time>2010-01-02T20:52:02Z</time>
      </trkpt>
      <trkpt lat="46.19419" lon="6.82055">
        <ele>2036</ele>
        <time>2010-01-02T20:52:02Z</time>
      </trkpt>
      <trkpt lat="46.1942" lon="6.82055">
        <ele>2036</ele>
        <time>2010-01-02T20:52:03Z</time>
      </trkpt>
      <trkpt lat="46.1942" lon="6.82055">
        <ele>2036</ele>
        <time>2010-01-02T20:52:03Z</time>
      </trkpt>
      <trkpt lat="46.19421" lon="6.82055">
        <ele>2036</ele>
        <time>2010-01-02T20:52:03Z</time>
      </trkpt>
      <trkpt lat="46.19423" lon="6.82055">
        <ele>2036</ele>
        <time>2010-01-02T20:52:04Z</time>
      </trkpt>
      <trkpt lat="46.19424" lon="6.82055">
        <ele>2036</ele>
        <time>2010-01-02T20:52:04Z</time>
      </trkpt>
      <trkpt lat="46.19426" lon="6.82056">
        <ele>2036</ele>
        <time>2010-01-02T20:52:05Z</time>
      </trkpt>
      <trkpt lat="46.19426" lon="6.82056">
        <ele>2036</ele>
        <time>2010-01-02T20:52:05Z</time>
      </trkpt>
      <trkpt lat="46.19428" lon="6.82056">
        <ele>2036</ele>
        <time>2010-01-02T20:52:06Z</time>
      </trkpt>
      <trkpt lat="46.1943" lon="6.82057">
        <ele>2036</ele>
        <time>2010-01-02T20:52:07Z</time>
      </trkpt>
      <trkpt lat="46.19431" lon="6.82057">
        <ele>2036</ele>
        <time>2010-01-02T20:52:08Z</time>
      </trkpt>
      <trkpt lat="46.19433" lon="6.82057">
        <ele>2036</ele>
        <time>2010-01-02T20:52:08Z</time>
      </trkpt>
      <trkpt lat="46.19434" lon="6.82057">
        <ele>2036</ele>
        <time>2010-01-02T20:52:09Z</time>
      </trkpt>
      <trkpt lat="46.19436" lon="6.82057">
        <ele>2036</ele>
        <time>2010-01-02T20:52:09Z</time>
      </trkpt>
      <trkpt lat="46.19438" lon="6.82058">
        <ele>2036</ele>
        <time>2010-01-02T20:52:10Z</time>
      </trkpt>
      <trkpt lat="46.19438" lon="6.82058">
        <ele>2036</ele>
        <time>2010-01-02T20:52:10Z</time>
      </trkpt>
      <trkpt lat="46.1944" lon="6.82058">
        <ele>2036</ele>
        <time>2010-01-02T20:52:11Z</time>
      </trkpt>
      <trkpt lat="46.19442" lon="6.82057">
        <ele>2035</ele>
        <time>2010-01-02T20:52:12Z</time>
      </trkpt>
      <trkpt lat="46.19443" lon="6.82058">
        <ele>2035</ele>
        <time>2010-01-02T20:52:12Z</time>
      </trkpt>
      <trkpt lat="46.19443" lon="6.82058">
        <ele>2035</ele>
        <time>2010-01-02T20:52:12Z</time>
      </trkpt>
      <trkpt lat="46.19451" lon="6.82055">
        <ele>2034</ele>
        <time>2010-01-02T20:52:16Z</time>
      </trkpt>
      <trkpt lat="46.19474" lon="6.82051">
        <ele>2032</ele>
        <time>2010-01-02T20:52:25Z</time>
      </trkpt>
      <trkpt lat="46.19489" lon="6.8204">
        <ele>2030</ele>
        <time>2010-01-02T20:52:31Z</time>
      </trkpt>
      <trkpt lat="46.19504" lon="6.82033">
        <ele>2027</ele>
        <time>2010-01-02T20:52:38Z</time>
      </trkpt>
      <trkpt lat="46.19544" lon="6.82008">
        <ele>2025</ele>
        <time>2010-01-02T20:52:55Z</time>
      </trkpt>
      <trkpt lat="46.19607" lon="6.81961">
        <ele>2012</ele>
        <time>2010-01-02T20:53:24Z</time>
      </trkpt>
      <trkpt lat="46.19639" lon="6.81918">
        <ele>2010</ele>
        <time>2010-01-02T20:53:41Z</time>
      </trkpt>
      <trkpt lat="46.19643" lon="6.81903">
        <ele>1998</ele>
        <time>2010-01-02T20:53:46Z</time>
      </trkpt>
      <trkpt lat="46.1965" lon="6.81883">
        <ele>1996</ele>
        <time>2010-01-02T20:53:52Z</time>
      </trkpt>
      <trkpt lat="46.19673" lon="6.81825">
        <ele>1998</ele>
        <time>2010-01-02T20:54:10Z</time>
      </trkpt>
      <trkpt lat="46.1969" lon="6.8179">
        <ele>2001</ele>
        <time>2010-01-02T20:54:22Z</time>
      </trkpt>
      <trkpt lat="46.19699" lon="6.81752">
        <ele>1998</ele>
        <time>2010-01-02T20:54:33Z</time>
      </trkpt>
      <trkpt lat="46.19699" lon="6.81748">
        <ele>1990</ele>
        <time>2010-01-02T20:54:34Z</time>
      </trkpt>
      <trkpt lat="46.19708" lon="6.81699">
        <ele>1989</ele>
        <time>2010-01-02T20:54:48Z</time>
      </trkpt>
      <trkpt lat="46.19708" lon="6.81697">
        <ele>1989</ele>
        <time>2010-01-02T20:54:49Z</time>
      </trkpt>
      <trkpt lat="46.19705" lon="6.81665">
        <ele>1982</ele>
        <time>2010-01-02T20:54:58Z</time>
      </trkpt>
      <trkpt lat="46.1971" lon="6.81606">
        <ele>1981</ele>
        <time>2010-01-02T20:55:14Z</time>
      </trkpt>
      <trkpt lat="46.19712" lon="6.81581">
        <ele>1978</ele>
        <time>2010-01-02T20:55:21Z</time>
      </trkpt>
      <trkpt lat="46.19716" lon="6.81557">
        <ele>1978</ele>
        <time>2010-01-02T20:55:28Z</time>
      </trkpt>
      <trkpt lat="46.19711" lon="6.81546">
        <ele>1978</ele>
        <time>2010-01-02T20:55:32Z</time>
      </trkpt>
      <trkpt lat="46.19702" lon="6.8154">
        <ele>1978</ele>
        <time>2010-01-02T20:55:36Z</time>
      </trkpt>
      <trkpt lat="46.19695" lon="6.81526">
        <ele>1978</ele>
        <time>2010-01-02T20:55:40Z</time>
      </trkpt>
      <trkpt lat="46.19695" lon="6.81509">
        <ele>1978</ele>
        <time>2010-01-02T20:55:45Z</time>
      </trkpt>
      <trkpt lat="46.19693" lon="6.81495">
        <ele>1979</ele>
        <time>2010-01-02T20:55:49Z</time>
      </trkpt>
      <trkpt lat="46.19691" lon="6.81486">
        <ele>1979</ele>
        <time>2010-01-02T20:55:52Z</time>
      </trkpt>
      <trkpt lat="46.19682" lon="6.81469">
        <ele>1979</ele>
        <time>2010-01-02T20:55:57Z</time>
      </trkpt>
      <trkpt lat="46.19679" lon="6.81463">
        <ele>1979</ele>
        <time>2010-01-02T20:56:00Z</time>
      </trkpt>
      <trkpt lat="46.19676" lon="6.81459">
        <ele>1979</ele>
        <time>2010-01-02T20:56:01Z</time>
      </trkpt>
      <trkpt lat="46.1968" lon="6.81442">
        <ele>1980</ele>
        <time>2010-01-02T20:56:06Z</time>
      </trkpt>
      <trkpt lat="46.19683" lon="6.8143">
        <ele>1980</ele>
        <time>2010-01-02T20:56:10Z</time>
      </trkpt>
      <trkpt lat="46.1968" lon="6.81401">
        <ele>1980</ele>
        <time>2010-01-02T20:56:18Z</time>
      </trkpt>
      <trkpt lat="46.19671" lon="6.81379">
        <ele>1980</ele>
        <time>2010-01-02T20:56:25Z</time>
      </trkpt>
      <trkpt lat="46.19662" lon="6.81351">
        <ele>1984</ele>
        <time>2010-01-02T20:56:34Z</time>
      </trkpt>
      <trkpt lat="46.19656" lon="6.81327">
        <ele>1985</ele>
        <time>2010-01-02T20:56:40Z</time>
      </trkpt>
      <trkpt lat="46.19654" lon="6.81314">
        <ele>1985</ele>
        <time>2010-01-02T20:56:44Z</time>
      </trkpt>
      <trkpt lat="46.19661" lon="6.81306">
        <ele>1985</ele>
        <time>2010-01-02T20:56:48Z</time>
      </trkpt>
      <trkpt lat="46.19668" lon="6.81301">
        <ele>1977</ele>
        <time>2010-01-02T20:56:51Z</time>
      </trkpt>
      <trkpt lat="46.19677" lon="6.8129">
        <ele>1976</ele>
        <time>2010-01-02T20:56:56Z</time>
      </trkpt>
      <trkpt lat="46.19691" lon="6.81294">
        <ele>1976</ele>
        <time>2010-01-02T20:57:01Z</time>
      </trkpt>
      <trkpt lat="46.19743" lon="6.81286">
        <ele>1974</ele>
        <time>2010-01-02T20:57:22Z</time>
      </trkpt>
      <trkpt lat="46.19753" lon="6.81283">
        <ele>1967</ele>
        <time>2010-01-02T20:57:26Z</time>
      </trkpt>
      <trkpt lat="46.19769" lon="6.81259">
        <ele>1967</ele>
        <time>2010-01-02T20:57:35Z</time>
      </trkpt>
      <trkpt lat="46.19783" lon="6.81241">
        <ele>1965</ele>
        <time>2010-01-02T20:57:43Z</time>
      </trkpt>
      <trkpt lat="46.19783" lon="6.8124">
        <ele>1965</ele>
        <time>2010-01-02T20:57:43Z</time>
      </trkpt>
      <trkpt lat="46.19784" lon="6.81237">
        <ele>1965</ele>
        <time>2010-01-02T20:57:44Z</time>
      </trkpt>
      <trkpt lat="46.19813" lon="6.81189">
        <ele>1964</ele>
        <time>2010-01-02T20:58:02Z</time>
      </trkpt>
      <trkpt lat="46.19818" lon="6.81176">
        <ele>1964</ele>
        <time>2010-01-02T20:58:06Z</time>
      </trkpt>
      <trkpt lat="46.1982" lon="6.81163">
        <ele>1965</ele>
        <time>2010-01-02T20:58:10Z</time>
      </trkpt>
      <trkpt lat="46.19808" lon="6.81147">
        <ele>1966</ele>
        <time>2010-01-02T20:58:16Z</time>
      </trkpt>
      <trkpt lat="46.19799" lon="6.81133">
        <ele>1967</ele>
        <time>2010-01-02T20:58:22Z</time>
      </trkpt>
      <trkpt lat="46.19798" lon="6.81131">
        <ele>1967</ele>
        <time>2010-01-02T20:58:22Z</time>
      </trkpt>
      <trkpt lat="46.19792" lon="6.81122">
        <ele>1967</ele>
        <time>2010-01-02T20:58:26Z</time>
      </trkpt>
      <trkpt lat="46.19789" lon="6.8111">
        <ele>1968</ele>
        <time>2010-01-02T20:58:29Z</time>
      </trkpt>
      <trkpt lat="46.19789" lon="6.81099">
        <ele>1968</ele>
        <time>2010-01-02T20:58:32Z</time>
      </trkpt>
      <trkpt lat="46.19782" lon="6.81088">
        <ele>1968</ele>
        <time>2010-01-02T20:58:37Z</time>
      </trkpt>
      <trkpt lat="46.19773" lon="6.81078">
        <ele>1969</ele>
        <time>2010-01-02T20:58:41Z</time>
      </trkpt>
      <trkpt lat="46.19774" lon="6.81059">
        <ele>1969</ele>
        <time>2010-01-02T20:58:46Z</time>
      </trkpt>
      <trkpt lat="46.19778" lon="6.81048">
        <ele>1969</ele>
        <time>2010-01-02T20:58:50Z</time>
      </trkpt>
      <trkpt lat="46.19781" lon="6.8103">
        <ele>1968</ele>
        <time>2010-01-02T20:58:55Z</time>
      </trkpt>
      <trkpt lat="46.19795" lon="6.81013">
        <ele>1968</ele>
        <time>2010-01-02T20:59:02Z</time>
      </trkpt>
      <trkpt lat="46.19803" lon="6.80997">
        <ele>1969</ele>
        <time>2010-01-02T20:59:08Z</time>
      </trkpt>
      <trkpt lat="46.19803" lon="6.80979">
        <ele>1970</ele>
        <time>2010-01-02T20:59:13Z</time>
      </trkpt>
      <trkpt lat="46.19802" lon="6.80977">
        <ele>1970</ele>
        <time>2010-01-02T20:59:14Z</time>
      </trkpt>
      <trkpt lat="46.19796" lon="6.80962">
        <ele>1971</ele>
        <time>2010-01-02T20:59:18Z</time>
      </trkpt>
      <trkpt lat="46.19792" lon="6.80944">
        <ele>1971</ele>
        <time>2010-01-02T20:59:23Z</time>
      </trkpt>
      <trkpt lat="46.19784" lon="6.8093">
        <ele>1972</ele>
        <time>2010-01-02T20:59:28Z</time>
      </trkpt>
      <trkpt lat="46.19779" lon="6.80916">
        <ele>1976</ele>
        <time>2010-01-02T20:59:33Z</time>
      </trkpt>
      <trkpt lat="46.19774" lon="6.80905">
        <ele>1976</ele>
        <time>2010-01-02T20:59:36Z</time>
      </trkpt>
      <trkpt lat="46.19778" lon="6.80898">
        <ele>1976</ele>
        <time>2010-01-02T20:59:39Z</time>
      </trkpt>
      <trkpt lat="46.19782" lon="6.80886">
        <ele>1976</ele>
        <time>2010-01-02T20:59:42Z</time>
      </trkpt>
      <trkpt lat="46.19784" lon="6.80878">
        <ele>1977</ele>
        <time>2010-01-02T20:59:45Z</time>
      </trkpt>
      <trkpt lat="46.19787" lon="6.80864">
        <ele>1977</ele>
        <time>2010-01-02T20:59:49Z</time>
      </trkpt>
      <trkpt lat="46.19784" lon="6.80857">
        <ele>1977</ele>
        <time>2010-01-02T20:59:51Z</time>
      </trkpt>
      <trkpt lat="46.19783" lon="6.80848">
        <ele>1978</ele>
        <time>2010-01-02T20:59:54Z</time>
      </trkpt>
      <trkpt lat="46.19777" lon="6.80843">
        <ele>1978</ele>
        <time>2010-01-02T20:59:56Z</time>
      </trkpt>
      <trkpt lat="46.19769" lon="6.8084">
        <ele>1978</ele>
        <time>2010-01-02T21:00:00Z</time>
      </trkpt>
      <trkpt lat="46.19762" lon="6.80835">
        <ele>1978</ele>
        <time>2010-01-02T21:00:03Z</time>
      </trkpt>
      <trkpt lat="46.19758" lon="6.80826">
        <ele>1981</ele>
        <time>2010-01-02T21:00:06Z</time>
      </trkpt>
      <trkpt lat="46.19758" lon="6.80825">
        <ele>1982</ele>
        <time>2010-01-02T21:00:06Z</time>
      </trkpt>
      <trkpt lat="46.19759" lon="6.8081">
        <ele>1984</ele>
        <time>2010-01-02T21:00:10Z</time>
      </trkpt>
      <trkpt lat="46.1976" lon="6.80798">
        <ele>1985</ele>
        <time>2010-01-02T21:00:13Z</time>
      </trkpt>
      <trkpt lat="46.19758" lon="6.80792">
        <ele>1986</ele>
        <time>2010-01-02T21:00:15Z</time>
      </trkpt>
      <trkpt lat="46.19756" lon="6.80786">
        <ele>1986</ele>
        <time>2010-01-02T21:00:17Z</time>
      </trkpt>
      <trkpt lat="46.19748" lon="6.80772">
        <ele>1988</ele>
        <time>2010-01-02T21:00:22Z</time>
      </trkpt>
      <trkpt lat="46.19745" lon="6.80765">
        <ele>1989</ele>
        <time>2010-01-02T21:00:24Z</time>
      </trkpt>
      <trkpt lat="46.19742" lon="6.80759">
        <ele>1989</ele>
        <time>2010-01-02T21:00:26Z</time>
      </trkpt>
      <trkpt lat="46.19738" lon="6.80743">
        <ele>1993</ele>
        <time>2010-01-02T21:00:31Z</time>
      </trkpt>
      <trkpt lat="46.19737" lon="6.80739">
        <ele>1993</ele>
        <time>2010-01-02T21:00:32Z</time>
      </trkpt>
      <trkpt lat="46.19735" lon="6.80735">
        <ele>1994</ele>
        <time>2010-01-02T21:00:34Z</time>
      </trkpt>
      <trkpt lat="46.19732" lon="6.80726">
        <ele>1995</ele>
        <time>2010-01-02T21:00:36Z</time>
      </trkpt>
      <trkpt lat="46.19727" lon="6.80719">
        <ele>1995</ele>
        <time>2010-01-02T21:00:39Z</time>
      </trkpt>
      <trkpt lat="46.19718" lon="6.80712">
        <ele>1996</ele>
        <time>2010-01-02T21:00:43Z</time>
      </trkpt>
      <trkpt lat="46.19712" lon="6.80706">
        <ele>1996</ele>
        <time>2010-01-02T21:00:46Z</time>
      </trkpt>
      <trkpt lat="46.19706" lon="6.80697">
        <ele>1996</ele>
        <time>2010-01-02T21:00:50Z</time>
      </trkpt>
      <trkpt lat="46.19702" lon="6.80692">
        <ele>1997</ele>
        <time>2010-01-02T21:00:52Z</time>
      </trkpt>
      <trkpt lat="46.19701" lon="6.80677">
        <ele>1997</ele>
        <time>2010-01-02T21:00:56Z</time>
      </trkpt>
      <trkpt lat="46.19702" lon="6.80662">
        <ele>2000</ele>
        <time>2010-01-02T21:01:00Z</time>
      </trkpt>
      <trkpt lat="46.19703" lon="6.8065">
        <ele>2000</ele>
        <time>2010-01-02T21:01:04Z</time>
      </trkpt>
      <trkpt lat="46.197" lon="6.80638">
        <ele>2000</ele>
        <time>2010-01-02T21:01:07Z</time>
      </trkpt>
      <trkpt lat="46.19697" lon="6.8063">
        <ele>2000</ele>
        <time>2010-01-02T21:01:10Z</time>
      </trkpt>
      <trkpt lat="46.19697" lon="6.80619">
        <ele>2000</ele>
        <time>2010-01-02T21:01:12Z</time>
      </trkpt>
      <trkpt lat="46.19696" lon="6.80616">
        <ele>2000</ele>
        <time>2010-01-02T21:01:13Z</time>
      </trkpt>
      <trkpt lat="46.19692" lon="6.80601">
        <ele>2000</ele>
        <time>2010-01-02T21:01:18Z</time>
      </trkpt>
      <trkpt lat="46.19693" lon="6.80579">
        <ele>1999</ele>
        <time>2010-01-02T21:01:24Z</time>
      </trkpt>
      <trkpt lat="46.1969" lon="6.80561">
        <ele>1999</ele>
        <time>2010-01-02T21:01:29Z</time>
      </trkpt>
      <trkpt lat="46.19692" lon="6.80541">
        <ele>1999</ele>
        <time>2010-01-02T21:01:35Z</time>
      </trkpt>
      <trkpt lat="46.19699" lon="6.8053">
        <ele>1999</ele>
        <time>2010-01-02T21:01:39Z</time>
      </trkpt>
      <trkpt lat="46.197" lon="6.80509">
        <ele>1999</ele>
        <time>2010-01-02T21:01:45Z</time>
      </trkpt>
      <trkpt lat="46.19702" lon="6.80493">
        <ele>1994</ele>
        <time>2010-01-02T21:01:49Z</time>
      </trkpt>
      <trkpt lat="46.19707" lon="6.80478">
        <ele>1994</ele>
        <time>2010-01-02T21:01:54Z</time>
      </trkpt>
      <trkpt lat="46.19718" lon="6.80464">
        <ele>1994</ele>
        <time>2010-01-02T21:02:00Z</time>
      </trkpt>
      <trkpt lat="46.19737" lon="6.80438">
        <ele>1994</ele>
        <time>2010-01-02T21:02:10Z</time>
      </trkpt>
      <trkpt lat="46.19754" lon="6.80415">
        <ele>1998</ele>
        <time>2010-01-02T21:02:19Z</time>
      </trkpt>
      <trkpt lat="46.1976" lon="6.80401">
        <ele>1998</ele>
        <time>2010-01-02T21:02:24Z</time>
      </trkpt>
      <trkpt lat="46.19771" lon="6.80374">
        <ele>1997</ele>
        <time>2010-01-02T21:02:33Z</time>
      </trkpt>
      <trkpt lat="46.19789" lon="6.80339">
        <ele>1997</ele>
        <time>2010-01-02T21:02:45Z</time>
      </trkpt>
      <trkpt lat="46.19801" lon="6.80314">
        <ele>1988</ele>
        <time>2010-01-02T21:02:53Z</time>
      </trkpt>
      <trkpt lat="46.19808" lon="6.80289">
        <ele>1986</ele>
        <time>2010-01-02T21:03:01Z</time>
      </trkpt>
      <trkpt lat="46.19809" lon="6.80273">
        <ele>1985</ele>
        <time>2010-01-02T21:03:05Z</time>
      </trkpt>
      <trkpt lat="46.19814" lon="6.8026">
        <ele>1985</ele>
        <time>2010-01-02T21:03:09Z</time>
      </trkpt>
      <trkpt lat="46.19819" lon="6.80249">
        <ele>1980</ele>
        <time>2010-01-02T21:03:13Z</time>
      </trkpt>
      <trkpt lat="46.19822" lon="6.80237">
        <ele>1979</ele>
        <time>2010-01-02T21:03:16Z</time>
      </trkpt>
      <trkpt lat="46.19824" lon="6.80218">
        <ele>1975</ele>
        <time>2010-01-02T21:03:22Z</time>
      </trkpt>
      <trkpt lat="46.19829" lon="6.80203">
        <ele>1974</ele>
        <time>2010-01-02T21:03:26Z</time>
      </trkpt>
      <trkpt lat="46.19829" lon="6.80186">
        <ele>1974</ele>
        <time>2010-01-02T21:03:31Z</time>
      </trkpt>
      <trkpt lat="46.19833" lon="6.80176">
        <ele>1975</ele>
        <time>2010-01-02T21:03:34Z</time>
      </trkpt>
      <trkpt lat="46.19834" lon="6.80162">
        <ele>1977</ele>
        <time>2010-01-02T21:03:38Z</time>
      </trkpt>
      <trkpt lat="46.19836" lon="6.80146">
        <ele>1978</ele>
        <time>2010-01-02T21:03:43Z</time>
      </trkpt>
      <trkpt lat="46.19844" lon="6.8012">
        <ele>1976</ele>
        <time>2010-01-02T21:03:51Z</time>
      </trkpt>
      <trkpt lat="46.1985" lon="6.80097">
        <ele>1974</ele>
        <time>2010-01-02T21:03:57Z</time>
      </trkpt>
      <trkpt lat="46.19857" lon="6.80081">
        <ele>1967</ele>
        <time>2010-01-02T21:04:03Z</time>
      </trkpt>
      <trkpt lat="46.19869" lon="6.80056">
        <ele>1967</ele>
        <time>2010-01-02T21:04:11Z</time>
      </trkpt>
      <trkpt lat="46.19881" lon="6.80042">
        <ele>1967</ele>
        <time>2010-01-02T21:04:17Z</time>
      </trkpt>
      <trkpt lat="46.1989" lon="6.80023">
        <ele>1966</ele>
        <time>2010-01-02T21:04:24Z</time>
      </trkpt>
      <trkpt lat="46.19901" lon="6.80005">
        <ele>1965</ele>
        <time>2010-01-02T21:04:30Z</time>
      </trkpt>
      <trkpt lat="46.1991" lon="6.79982">
        <ele>1958</ele>
        <time>2010-01-02T21:04:37Z</time>
      </trkpt>
      <trkpt lat="46.19919" lon="6.79955">
        <ele>1955</ele>
        <time>2010-01-02T21:04:46Z</time>
      </trkpt>
      <trkpt lat="46.19925" lon="6.79946">
        <ele>1954</ele>
        <time>2010-01-02T21:04:49Z</time>
      </trkpt>
      <trkpt lat="46.1993" lon="6.7994">
        <ele>1953</ele>
        <time>2010-01-02T21:04:52Z</time>
      </trkpt>
      <trkpt lat="46.1993" lon="6.79939">
        <ele>1953</ele>
        <time>2010-01-02T21:04:52Z</time>
      </trkpt>
      <trkpt lat="46.1994" lon="6.79933">
        <ele>1953</ele>
        <time>2010-01-02T21:04:57Z</time>
      </trkpt>
      <trkpt lat="46.19948" lon="6.79921">
        <ele>1952</ele>
        <time>2010-01-02T21:05:01Z</time>
      </trkpt>
      <trkpt lat="46.19958" lon="6.79915">
        <ele>1944</ele>
        <time>2010-01-02T21:05:06Z</time>
      </trkpt>
      <trkpt lat="46.19972" lon="6.79907">
        <ele>1944</ele>
        <time>2010-01-02T21:05:11Z</time>
      </trkpt>
      <trkpt lat="46.19983" lon="6.79899">
        <ele>1945</ele>
        <time>2010-01-02T21:05:17Z</time>
      </trkpt>
      <trkpt lat="46.20005" lon="6.79879">
        <ele>1947</ele>
        <time>2010-01-02T21:05:27Z</time>
      </trkpt>
      <trkpt lat="46.20017" lon="6.79863">
        <ele>1946</ele>
        <time>2010-01-02T21:05:34Z</time>
      </trkpt>
      <trkpt lat="46.20024" lon="6.79857">
        <ele>1946</ele>
        <time>2010-01-02T21:05:37Z</time>
      </trkpt>
      <trkpt lat="46.20028" lon="6.79853">
        <ele>1946</ele>
        <time>2010-01-02T21:05:39Z</time>
      </trkpt>
      <trkpt lat="46.20034" lon="6.79844">
        <ele>1946</ele>
        <time>2010-01-02T21:05:42Z</time>
      </trkpt>
      <trkpt lat="46.20034" lon="6.79841">
        <ele>1946</ele>
        <time>2010-01-02T21:05:43Z</time>
      </trkpt>
      <trkpt lat="46.20035" lon="6.79834">
        <ele>1945</ele>
        <time>2010-01-02T21:05:45Z</time>
      </trkpt>
      <trkpt lat="46.20038" lon="6.79823">
        <ele>1938</ele>
        <time>2010-01-02T21:05:48Z</time>
      </trkpt>
      <trkpt lat="46.2004" lon="6.79818">
        <ele>1938</ele>
        <time>2010-01-02T21:05:50Z</time>
      </trkpt>
      <trkpt lat="46.20044" lon="6.79809">
        <ele>1938</ele>
        <time>2010-01-02T21:05:53Z</time>
      </trkpt>
      <trkpt lat="46.20048" lon="6.798">
        <ele>1938</ele>
        <time>2010-01-02T21:05:56Z</time>
      </trkpt>
      <trkpt lat="46.2005" lon="6.79793">
        <ele>1937</ele>
        <time>2010-01-02T21:05:58Z</time>
      </trkpt>
      <trkpt lat="46.20051" lon="6.79789">
        <ele>1937</ele>
        <time>2010-01-02T21:05:59Z</time>
      </trkpt>
      <trkpt lat="46.20057" lon="6.79782">
        <ele>1937</ele>
        <time>2010-01-02T21:06:02Z</time>
      </trkpt>
      <trkpt lat="46.20059" lon="6.79777">
        <ele>1937</ele>
        <time>2010-01-02T21:06:04Z</time>
      </trkpt>
      <trkpt lat="46.2006" lon="6.79776">
        <ele>1937</ele>
        <time>2010-01-02T21:06:04Z</time>
      </trkpt>
      <trkpt lat="46.20061" lon="6.79775">
        <ele>1937</ele>
        <time>2010-01-02T21:06:05Z</time>
      </trkpt>
      <trkpt lat="46.20063" lon="6.79774">
        <ele>1937</ele>
        <time>2010-01-02T21:06:05Z</time>
      </trkpt>
      <trkpt lat="46.20063" lon="6.79773">
        <ele>1937</ele>
        <time>2010-01-02T21:06:06Z</time>
      </trkpt>
      <trkpt lat="46.20069" lon="6.79771">
        <ele>1937</ele>
        <time>2010-01-02T21:06:08Z</time>
      </trkpt>
      <trkpt lat="46.20083" lon="6.79769">
        <ele>1937</ele>
        <time>2010-01-02T21:06:14Z</time>
      </trkpt>
      <trkpt lat="46.20093" lon="6.79764">
        <ele>1945</ele>
        <time>2010-01-02T21:06:18Z</time>
      </trkpt>
      <trkpt lat="46.20101" lon="6.79755">
        <ele>1946</ele>
        <time>2010-01-02T21:06:22Z</time>
      </trkpt>
      <trkpt lat="46.20104" lon="6.7974">
        <ele>1935</ele>
        <time>2010-01-02T21:06:26Z</time>
      </trkpt>
      <trkpt lat="46.20104" lon="6.79728">
        <ele>1933</ele>
        <time>2010-01-02T21:06:30Z</time>
      </trkpt>
      <trkpt lat="46.20106" lon="6.79725">
        <ele>1933</ele>
        <time>2010-01-02T21:06:31Z</time>
      </trkpt>
      <trkpt lat="46.20108" lon="6.79723">
        <ele>1933</ele>
        <time>2010-01-02T21:06:32Z</time>
      </trkpt>
      <trkpt lat="46.20109" lon="6.79716">
        <ele>1932</ele>
        <time>2010-01-02T21:06:34Z</time>
      </trkpt>
      <trkpt lat="46.20102" lon="6.79712">
        <ele>1931</ele>
        <time>2010-01-02T21:06:37Z</time>
      </trkpt>
      <trkpt lat="46.20099" lon="6.79706">
        <ele>1930</ele>
        <time>2010-01-02T21:06:39Z</time>
      </trkpt>
      <trkpt lat="46.20091" lon="6.79699">
        <ele>1928</ele>
        <time>2010-01-02T21:06:42Z</time>
      </trkpt>
      <trkpt lat="46.20085" lon="6.79694">
        <ele>1926</ele>
        <time>2010-01-02T21:06:45Z</time>
      </trkpt>
      <trkpt lat="46.20083" lon="6.79687">
        <ele>1919</ele>
        <time>2010-01-02T21:06:48Z</time>
      </trkpt>
      <trkpt lat="46.20087" lon="6.79683">
        <ele>1922</ele>
        <time>2010-01-02T21:06:49Z</time>
      </trkpt>
      <trkpt lat="46.20091" lon="6.79684">
        <ele>1923</ele>
        <time>2010-01-02T21:06:51Z</time>
      </trkpt>
      <trkpt lat="46.20095" lon="6.79685">
        <ele>1924</ele>
        <time>2010-01-02T21:06:53Z</time>
      </trkpt>
      <trkpt lat="46.20096" lon="6.79686">
        <ele>1925</ele>
        <time>2010-01-02T21:06:53Z</time>
      </trkpt>
      <trkpt lat="46.20097" lon="6.79686">
        <ele>1925</ele>
        <time>2010-01-02T21:06:54Z</time>
      </trkpt>
      <trkpt lat="46.20098" lon="6.79686">
        <ele>1925</ele>
        <time>2010-01-02T21:06:54Z</time>
      </trkpt>
      <trkpt lat="46.20099" lon="6.79686">
        <ele>1925</ele>
        <time>2010-01-02T21:06:55Z</time>
      </trkpt>
      <trkpt lat="46.201" lon="6.79685">
        <ele>1925</ele>
        <time>2010-01-02T21:06:55Z</time>
      </trkpt>
      <trkpt lat="46.20101" lon="6.79685">
        <ele>1925</ele>
        <time>2010-01-02T21:06:55Z</time>
      </trkpt>
      <trkpt lat="46.20101" lon="6.79685">
        <ele>1925</ele>
        <time>2010-01-02T21:06:55Z</time>
      </trkpt>
      <trkpt lat="46.20103" lon="6.79683">
        <ele>1925</ele>
        <time>2010-01-02T21:06:56Z</time>
      </trkpt>
      <trkpt lat="46.20103" lon="6.79682">
        <ele>1925</ele>
        <time>2010-01-02T21:06:56Z</time>
      </trkpt>
      <trkpt lat="46.20103" lon="6.79681">
        <ele>1925</ele>
        <time>2010-01-02T21:06:57Z</time>
      </trkpt>
      <trkpt lat="46.20104" lon="6.7968">
        <ele>1925</ele>
        <time>2010-01-02T21:06:57Z</time>
      </trkpt>
      <trkpt lat="46.20105" lon="6.79679">
        <ele>1925</ele>
        <time>2010-01-02T21:06:58Z</time>
      </trkpt>
      <trkpt lat="46.20106" lon="6.79678">
        <ele>1925</ele>
        <time>2010-01-02T21:06:58Z</time>
      </trkpt>
      <trkpt lat="46.20106" lon="6.79677">
        <ele>1925</ele>
        <time>2010-01-02T21:06:58Z</time>
      </trkpt>
      <trkpt lat="46.20107" lon="6.79676">
        <ele>1925</ele>
        <time>2010-01-02T21:06:59Z</time>
      </trkpt>
      <trkpt lat="46.20107" lon="6.79676">
        <ele>1925</ele>
        <time>2010-01-02T21:06:59Z</time>
      </trkpt>
      <trkpt lat="46.20108" lon="6.79675">
        <ele>1925</ele>
        <time>2010-01-02T21:07:00Z</time>
      </trkpt>
      <trkpt lat="46.20109" lon="6.79674">
        <ele>1925</ele>
        <time>2010-01-02T21:07:00Z</time>
      </trkpt>
      <trkpt lat="46.20109" lon="6.79673">
        <ele>1925</ele>
        <time>2010-01-02T21:07:00Z</time>
      </trkpt>
      <trkpt lat="46.2011" lon="6.79671">
        <ele>1925</ele>
        <time>2010-01-02T21:07:01Z</time>
      </trkpt>
      <trkpt lat="46.2011" lon="6.7967">
        <ele>1925</ele>
        <time>2010-01-02T21:07:01Z</time>
      </trkpt>
      <trkpt lat="46.2011" lon="6.79669">
        <ele>1925</ele>
        <time>2010-01-02T21:07:01Z</time>
      </trkpt>
      <trkpt lat="46.2011" lon="6.79668">
        <ele>1925</ele>
        <time>2010-01-02T21:07:02Z</time>
      </trkpt>
      <trkpt lat="46.2011" lon="6.79667">
        <ele>1909</ele>
        <time>2010-01-02T21:07:02Z</time>
      </trkpt>
      <trkpt lat="46.20111" lon="6.79666">
        <ele>1909</ele>
        <time>2010-01-02T21:07:02Z</time>
      </trkpt>
      <trkpt lat="46.20111" lon="6.79664">
        <ele>1909</ele>
        <time>2010-01-02T21:07:03Z</time>
      </trkpt>
      <trkpt lat="46.20111" lon="6.79663">
        <ele>1909</ele>
        <time>2010-01-02T21:07:03Z</time>
      </trkpt>
      <trkpt lat="46.20111" lon="6.79662">
        <ele>1909</ele>
        <time>2010-01-02T21:07:03Z</time>
      </trkpt>
      <trkpt lat="46.20111" lon="6.79661">
        <ele>1909</ele>
        <time>2010-01-02T21:07:04Z</time>
      </trkpt>
      <trkpt lat="46.20111" lon="6.79659">
        <ele>1909</ele>
        <time>2010-01-02T21:07:04Z</time>
      </trkpt>
      <trkpt lat="46.20111" lon="6.79658">
        <ele>1909</ele>
        <time>2010-01-02T21:07:04Z</time>
      </trkpt>
      <trkpt lat="46.20111" lon="6.79657">
        <ele>1908</ele>
        <time>2010-01-02T21:07:05Z</time>
      </trkpt>
      <trkpt lat="46.20111" lon="6.79655">
        <ele>1908</ele>
        <time>2010-01-02T21:07:05Z</time>
      </trkpt>
      <trkpt lat="46.20111" lon="6.79655">
        <ele>1908</ele>
        <time>2010-01-02T21:07:05Z</time>
      </trkpt>
      <trkpt lat="46.20111" lon="6.79653">
        <ele>1908</ele>
        <time>2010-01-02T21:07:06Z</time>
      </trkpt>
      <trkpt lat="46.20111" lon="6.79651">
        <ele>1908</ele>
        <time>2010-01-02T21:07:06Z</time>
      </trkpt>
      <trkpt lat="46.20112" lon="6.7965">
        <ele>1908</ele>
        <time>2010-01-02T21:07:07Z</time>
      </trkpt>
      <trkpt lat="46.20112" lon="6.79649">
        <ele>1908</ele>
        <time>2010-01-02T21:07:07Z</time>
      </trkpt>
      <trkpt lat="46.20112" lon="6.79647">
        <ele>1907</ele>
        <time>2010-01-02T21:07:07Z</time>
      </trkpt>
      <trkpt lat="46.20112" lon="6.79646">
        <ele>1907</ele>
        <time>2010-01-02T21:07:08Z</time>
      </trkpt>
      <trkpt lat="46.20113" lon="6.79646">
        <ele>1907</ele>
        <time>2010-01-02T21:07:08Z</time>
      </trkpt>
      <trkpt lat="46.20114" lon="6.79644">
        <ele>1907</ele>
        <time>2010-01-02T21:07:09Z</time>
      </trkpt>
      <trkpt lat="46.20114" lon="6.79644">
        <ele>1907</ele>
        <time>2010-01-02T21:07:09Z</time>
      </trkpt>
      <trkpt lat="46.20115" lon="6.79642">
        <ele>1907</ele>
        <time>2010-01-02T21:07:09Z</time>
      </trkpt>
      <trkpt lat="46.20116" lon="6.79641">
        <ele>1907</ele>
        <time>2010-01-02T21:07:10Z</time>
      </trkpt>
      <trkpt lat="46.20116" lon="6.79641">
        <ele>1907</ele>
        <time>2010-01-02T21:07:10Z</time>
      </trkpt>
      <trkpt lat="46.20117" lon="6.7964">
        <ele>1907</ele>
        <time>2010-01-02T21:07:10Z</time>
      </trkpt>
      <trkpt lat="46.20118" lon="6.7964">
        <ele>1907</ele>
        <time>2010-01-02T21:07:11Z</time>
      </trkpt>
      <trkpt lat="46.20119" lon="6.79639">
        <ele>1907</ele>
        <time>2010-01-02T21:07:11Z</time>
      </trkpt>
      <trkpt lat="46.2012" lon="6.79638">
        <ele>1907</ele>
        <time>2010-01-02T21:07:11Z</time>
      </trkpt>
      <trkpt lat="46.20121" lon="6.79638">
        <ele>1907</ele>
        <time>2010-01-02T21:07:12Z</time>
      </trkpt>
      <trkpt lat="46.20122" lon="6.79637">
        <ele>1907</ele>
        <time>2010-01-02T21:07:13Z</time>
      </trkpt>
      <trkpt lat="46.20124" lon="6.79636">
        <ele>1907</ele>
        <time>2010-01-02T21:07:13Z</time>
      </trkpt>
      <trkpt lat="46.20124" lon="6.79635">
        <ele>1906</ele>
        <time>2010-01-02T21:07:13Z</time>
      </trkpt>
      <trkpt lat="46.20124" lon="6.79634">
        <ele>1906</ele>
        <time>2010-01-02T21:07:14Z</time>
      </trkpt>
      <trkpt lat="46.20124" lon="6.79633">
        <ele>1906</ele>
        <time>2010-01-02T21:07:14Z</time>
      </trkpt>
      <trkpt lat="46.20124" lon="6.79633">
        <ele>1906</ele>
        <time>2010-01-02T21:07:14Z</time>
      </trkpt>
      <trkpt lat="46.20127" lon="6.7963">
        <ele>1906</ele>
        <time>2010-01-02T21:07:15Z</time>
      </trkpt>
      <trkpt lat="46.2014" lon="6.79605">
        <ele>1904</ele>
        <time>2010-01-02T21:07:24Z</time>
      </trkpt>
      <trkpt lat="46.20142" lon="6.79585">
        <ele>1902</ele>
        <time>2010-01-02T21:07:30Z</time>
      </trkpt>
      <trkpt lat="46.20157" lon="6.79564">
        <ele>1891</ele>
        <time>2010-01-02T21:07:38Z</time>
      </trkpt>
      <trkpt lat="46.20165" lon="6.79537">
        <ele>1885</ele>
        <time>2010-01-02T21:07:46Z</time>
      </trkpt>
      <trkpt lat="46.20176" lon="6.79518">
        <ele>1897</ele>
        <time>2010-01-02T21:07:53Z</time>
      </trkpt>
      <trkpt lat="46.2019" lon="6.79501">
        <ele>1898</ele>
        <time>2010-01-02T21:08:01Z</time>
      </trkpt>
      <trkpt lat="46.20206" lon="6.79476">
        <ele>1884</ele>
        <time>2010-01-02T21:08:10Z</time>
      </trkpt>
      <trkpt lat="46.2022" lon="6.79462">
        <ele>1884</ele>
        <time>2010-01-02T21:08:17Z</time>
      </trkpt>
      <trkpt lat="46.20229" lon="6.7945">
        <ele>1883</ele>
        <time>2010-01-02T21:08:22Z</time>
      </trkpt>
      <trkpt lat="46.20242" lon="6.79437">
        <ele>1882</ele>
        <time>2010-01-02T21:08:28Z</time>
      </trkpt>
      <trkpt lat="46.2025" lon="6.79419">
        <ele>1882</ele>
        <time>2010-01-02T21:08:34Z</time>
      </trkpt>
      <trkpt lat="46.20264" lon="6.794">
        <ele>1880</ele>
        <time>2010-01-02T21:08:42Z</time>
      </trkpt>
      <trkpt lat="46.20281" lon="6.79379">
        <ele>1879</ele>
        <time>2010-01-02T21:08:50Z</time>
      </trkpt>
      <trkpt lat="46.20296" lon="6.79348">
        <ele>1876</ele>
        <time>2010-01-02T21:09:01Z</time>
      </trkpt>
      <trkpt lat="46.2031" lon="6.79325">
        <ele>1862</ele>
        <time>2010-01-02T21:09:10Z</time>
      </trkpt>
      <trkpt lat="46.20324" lon="6.79311">
        <ele>1862</ele>
        <time>2010-01-02T21:09:16Z</time>
      </trkpt>
      <trkpt lat="46.20334" lon="6.79285">
        <ele>1869</ele>
        <time>2010-01-02T21:09:24Z</time>
      </trkpt>
      <trkpt lat="46.20344" lon="6.79265">
        <ele>1864</ele>
        <time>2010-01-02T21:09:31Z</time>
      </trkpt>
      <trkpt lat="46.20353" lon="6.79261">
        <ele>1865</ele>
        <time>2010-01-02T21:09:35Z</time>
      </trkpt>
      <trkpt lat="46.2037" lon="6.79259">
        <ele>1868</ele>
        <time>2010-01-02T21:09:42Z</time>
      </trkpt>
      <trkpt lat="46.20391" lon="6.79254">
        <ele>1869</ele>
        <time>2010-01-02T21:09:50Z</time>
      </trkpt>
      <trkpt lat="46.20411" lon="6.79247">
        <ele>1861</ele>
        <time>2010-01-02T21:09:59Z</time>
      </trkpt>
      <trkpt lat="46.2043" lon="6.79231">
        <ele>1859</ele>
        <time>2010-01-02T21:10:08Z</time>
      </trkpt>
      <trkpt lat="46.20444" lon="6.79225">
        <ele>1857</ele>
        <time>2010-01-02T21:10:13Z</time>
      </trkpt>
      <trkpt lat="46.20457" lon="6.79222">
        <ele>1857</ele>
        <time>2010-01-02T21:10:18Z</time>
      </trkpt>
      <trkpt lat="46.20475" lon="6.79205">
        <ele>1855</ele>
        <time>2010-01-02T21:10:27Z</time>
      </trkpt>
      <trkpt lat="46.20496" lon="6.79196">
        <ele>1852</ele>
        <time>2010-01-02T21:10:36Z</time>
      </trkpt>
      <trkpt lat="46.2051" lon="6.79189">
        <ele>1853</ele>
        <time>2010-01-02T21:10:42Z</time>
      </trkpt>
      <trkpt lat="46.20522" lon="6.79181">
        <ele>1853</ele>
        <time>2010-01-02T21:10:47Z</time>
      </trkpt>
      <trkpt lat="46.2054" lon="6.79155">
        <ele>1841</ele>
        <time>2010-01-02T21:10:57Z</time>
      </trkpt>
      <trkpt lat="46.20556" lon="6.79139">
        <ele>1841</ele>
        <time>2010-01-02T21:11:05Z</time>
      </trkpt>
      <trkpt lat="46.20573" lon="6.7913">
        <ele>1841</ele>
        <time>2010-01-02T21:11:13Z</time>
      </trkpt>
      <trkpt lat="46.20586" lon="6.79114">
        <ele>1842</ele>
        <time>2010-01-02T21:11:19Z</time>
      </trkpt>
      <trkpt lat="46.20599" lon="6.79099">
        <ele>1841</ele>
        <time>2010-01-02T21:11:26Z</time>
      </trkpt>
      <trkpt lat="46.20608" lon="6.79081">
        <ele>1833</ele>
        <time>2010-01-02T21:11:32Z</time>
      </trkpt>
      <trkpt lat="46.20617" lon="6.79064">
        <ele>1832</ele>
        <time>2010-01-02T21:11:38Z</time>
      </trkpt>
      <trkpt lat="46.20636" lon="6.7904">
        <ele>1831</ele>
        <time>2010-01-02T21:11:48Z</time>
      </trkpt>
      <trkpt lat="46.20652" lon="6.79025">
        <ele>1830</ele>
        <time>2010-01-02T21:11:56Z</time>
      </trkpt>
      <trkpt lat="46.20662" lon="6.79019">
        <ele>1829</ele>
        <time>2010-01-02T21:12:00Z</time>
      </trkpt>
      <trkpt lat="46.20666" lon="6.79012">
        <ele>1828</ele>
        <time>2010-01-02T21:12:03Z</time>
      </trkpt>
      <trkpt lat="46.20669" lon="6.78996">
        <ele>1826</ele>
        <time>2010-01-02T21:12:07Z</time>
      </trkpt>
      <trkpt lat="46.20681" lon="6.78983">
        <ele>1825</ele>
        <time>2010-01-02T21:12:13Z</time>
      </trkpt>
      <trkpt lat="46.20688" lon="6.78977">
        <ele>1824</ele>
        <time>2010-01-02T21:12:16Z</time>
      </trkpt>
      <trkpt lat="46.20695" lon="6.78973">
        <ele>1824</ele>
        <time>2010-01-02T21:12:19Z</time>
      </trkpt>
      <trkpt lat="46.20698" lon="6.78963">
        <ele>1823</ele>
        <time>2010-01-02T21:12:23Z</time>
      </trkpt>
      <trkpt lat="46.20699" lon="6.7895">
        <ele>1822</ele>
        <time>2010-01-02T21:12:26Z</time>
      </trkpt>
      <trkpt lat="46.20703" lon="6.78928">
        <ele>1820</ele>
        <time>2010-01-02T21:12:33Z</time>
      </trkpt>
      <trkpt lat="46.20709" lon="6.78913">
        <ele>1812</ele>
        <time>2010-01-02T21:12:37Z</time>
      </trkpt>
      <trkpt lat="46.20715" lon="6.78896">
        <ele>1812</ele>
        <time>2010-01-02T21:12:43Z</time>
      </trkpt>
      <trkpt lat="46.20716" lon="6.78895">
        <ele>1812</ele>
        <time>2010-01-02T21:12:43Z</time>
      </trkpt>
      <trkpt lat="46.20724" lon="6.78874">
        <ele>1811</ele>
        <time>2010-01-02T21:12:50Z</time>
      </trkpt>
      <trkpt lat="46.20733" lon="6.78857">
        <ele>1810</ele>
        <time>2010-01-02T21:12:56Z</time>
      </trkpt>
      <trkpt lat="46.20741" lon="6.78848">
        <ele>1810</ele>
        <time>2010-01-02T21:13:00Z</time>
      </trkpt>
      <trkpt lat="46.20745" lon="6.78844">
        <ele>1809</ele>
        <time>2010-01-02T21:13:02Z</time>
      </trkpt>
      <trkpt lat="46.20743" lon="6.78837">
        <ele>1809</ele>
        <time>2010-01-02T21:13:04Z</time>
      </trkpt>
      <trkpt lat="46.20746" lon="6.78826">
        <ele>1806</ele>
        <time>2010-01-02T21:13:07Z</time>
      </trkpt>
      <trkpt lat="46.20749" lon="6.78818">
        <ele>1804</ele>
        <time>2010-01-02T21:13:09Z</time>
      </trkpt>
      <trkpt lat="46.20752" lon="6.78799">
        <ele>1805</ele>
        <time>2010-01-02T21:13:15Z</time>
      </trkpt>
      <trkpt lat="46.20752" lon="6.78791">
        <ele>1804</ele>
        <time>2010-01-02T21:13:17Z</time>
      </trkpt>
      <trkpt lat="46.20755" lon="6.7878">
        <ele>1803</ele>
        <time>2010-01-02T21:13:20Z</time>
      </trkpt>
      <trkpt lat="46.20767" lon="6.7877">
        <ele>1802</ele>
        <time>2010-01-02T21:13:26Z</time>
      </trkpt>
      <trkpt lat="46.20779" lon="6.78762">
        <ele>1802</ele>
        <time>2010-01-02T21:13:31Z</time>
      </trkpt>
      <trkpt lat="46.20787" lon="6.78756">
        <ele>1802</ele>
        <time>2010-01-02T21:13:35Z</time>
      </trkpt>
      <trkpt lat="46.20808" lon="6.78749">
        <ele>1788</ele>
        <time>2010-01-02T21:13:44Z</time>
      </trkpt>
      <trkpt lat="46.20845" lon="6.78729">
        <ele>1787</ele>
        <time>2010-01-02T21:14:00Z</time>
      </trkpt>
      <trkpt lat="46.20881" lon="6.7871">
        <ele>1783</ele>
        <time>2010-01-02T21:14:15Z</time>
      </trkpt>
      <trkpt lat="46.20896" lon="6.78697">
        <ele>1780</ele>
        <time>2010-01-02T21:14:22Z</time>
      </trkpt>
      <trkpt lat="46.20908" lon="6.78689">
        <ele>1778</ele>
        <time>2010-01-02T21:14:27Z</time>
      </trkpt>
      <trkpt lat="46.20915" lon="6.78685">
        <ele>1777</ele>
        <time>2010-01-02T21:14:30Z</time>
      </trkpt>
      <trkpt lat="46.20927" lon="6.78678">
        <ele>1780</ele>
        <time>2010-01-02T21:14:35Z</time>
      </trkpt>
      <trkpt lat="46.20937" lon="6.78683">
        <ele>1783</ele>
        <time>2010-01-02T21:14:40Z</time>
      </trkpt>
      <trkpt lat="46.2094" lon="6.78672">
        <ele>1782</ele>
        <time>2010-01-02T21:14:43Z</time>
      </trkpt>
      <trkpt lat="46.20943" lon="6.78645">
        <ele>1768</ele>
        <time>2010-01-02T21:14:50Z</time>
      </trkpt>
      <trkpt lat="46.20958" lon="6.78605">
        <ele>1764</ele>
        <time>2010-01-02T21:15:03Z</time>
      </trkpt>
      <trkpt lat="46.20976" lon="6.78587">
        <ele>1764</ele>
        <time>2010-01-02T21:15:12Z</time>
      </trkpt>
      <trkpt lat="46.21" lon="6.78577">
        <ele>1759</ele>
        <time>2010-01-02T21:15:22Z</time>
      </trkpt>
      <trkpt lat="46.2102" lon="6.7857">
        <ele>1763</ele>
        <time>2010-01-02T21:15:30Z</time>
      </trkpt>
      <trkpt lat="46.21051" lon="6.78511">
        <ele>1760</ele>
        <time>2010-01-02T21:15:51Z</time>
      </trkpt>
      <trkpt lat="46.21065" lon="6.78485">
        <ele>1747</ele>
        <time>2010-01-02T21:16:00Z</time>
      </trkpt>
      <trkpt lat="46.21074" lon="6.78453">
        <ele>1742</ele>
        <time>2010-01-02T21:16:09Z</time>
      </trkpt>
      <trkpt lat="46.21079" lon="6.78413">
        <ele>1741</ele>
        <time>2010-01-02T21:16:21Z</time>
      </trkpt>
      <trkpt lat="46.21086" lon="6.78387">
        <ele>1750</ele>
        <time>2010-01-02T21:16:28Z</time>
      </trkpt>
      <trkpt lat="46.21093" lon="6.78365">
        <ele>1747</ele>
        <time>2010-01-02T21:16:35Z</time>
      </trkpt>
      <trkpt lat="46.21096" lon="6.78346">
        <ele>1741</ele>
        <time>2010-01-02T21:16:41Z</time>
      </trkpt>
      <trkpt lat="46.21096" lon="6.78328">
        <ele>1729</ele>
        <time>2010-01-02T21:16:45Z</time>
      </trkpt>
      <trkpt lat="46.211" lon="6.78306">
        <ele>1730</ele>
        <time>2010-01-02T21:16:52Z</time>
      </trkpt>
      <trkpt lat="46.21119" lon="6.78251">
        <ele>1727</ele>
        <time>2010-01-02T21:17:09Z</time>
      </trkpt>
      <trkpt lat="46.2112" lon="6.78222">
        <ele>1714</ele>
        <time>2010-01-02T21:17:17Z</time>
      </trkpt>
      <trkpt lat="46.21121" lon="6.78216">
        <ele>1714</ele>
        <time>2010-01-02T21:17:18Z</time>
      </trkpt>
      <trkpt lat="46.21127" lon="6.78181">
        <ele>1712</ele>
        <time>2010-01-02T21:17:28Z</time>
      </trkpt>
      <trkpt lat="46.21134" lon="6.78148">
        <ele>1700</ele>
        <time>2010-01-02T21:17:38Z</time>
      </trkpt>
      <trkpt lat="46.21142" lon="6.78115">
        <ele>1697</ele>
        <time>2010-01-02T21:17:48Z</time>
      </trkpt>
      <trkpt lat="46.21145" lon="6.78085">
        <ele>1697</ele>
        <time>2010-01-02T21:17:56Z</time>
      </trkpt>
      <trkpt lat="46.21157" lon="6.7804">
        <ele>1679</ele>
        <time>2010-01-02T21:18:10Z</time>
      </trkpt>
      <trkpt lat="46.21167" lon="6.77993">
        <ele>1681</ele>
        <time>2010-01-02T21:18:23Z</time>
      </trkpt>
      <trkpt lat="46.21181" lon="6.77948">
        <ele>1676</ele>
        <time>2010-01-02T21:18:37Z</time>
      </trkpt>
      <trkpt lat="46.2119" lon="6.77907">
        <ele>1657</ele>
        <time>2010-01-02T21:18:49Z</time>
      </trkpt>
      <trkpt lat="46.21219" lon="6.77866">
        <ele>1656</ele>
        <time>2010-01-02T21:19:05Z</time>
      </trkpt>
      <trkpt lat="46.21248" lon="6.77816">
        <ele>1643</ele>
        <time>2010-01-02T21:19:23Z</time>
      </trkpt>
      <trkpt lat="46.21269" lon="6.77771">
        <ele>1649</ele>
        <time>2010-01-02T21:19:38Z</time>
      </trkpt>
      <trkpt lat="46.21273" lon="6.77754">
        <ele>1647</ele>
        <time>2010-01-02T21:19:43Z</time>
      </trkpt>
      <trkpt lat="46.21264" lon="6.77752">
        <ele>1642</ele>
        <time>2010-01-02T21:19:47Z</time>
      </trkpt>
      <trkpt lat="46.21248" lon="6.77752">
        <ele>1630</ele>
        <time>2010-01-02T21:19:53Z</time>
      </trkpt>
      <trkpt lat="46.21195" lon="6.77781">
        <ele>1627</ele>
        <time>2010-01-02T21:20:16Z</time>
      </trkpt>
      <trkpt lat="46.21121" lon="6.77828">
        <ele>1606</ele>
        <time>2010-01-02T21:20:48Z</time>
      </trkpt>
      <trkpt lat="46.21095" lon="6.77851">
        <ele>1613</ele>
        <time>2010-01-02T21:21:00Z</time>
      </trkpt>
      <trkpt lat="46.2107" lon="6.77863">
        <ele>1598</ele>
        <time>2010-01-02T21:21:11Z</time>
      </trkpt>
      <trkpt lat="46.21069" lon="6.77863">
        <ele>1598</ele>
        <time>2010-01-02T21:21:11Z</time>
      </trkpt>
      <trkpt lat="46.2105" lon="6.77872">
        <ele>1596</ele>
        <time>2010-01-02T21:21:19Z</time>
      </trkpt>
      <trkpt lat="46.21049" lon="6.77871">
        <ele>1596</ele>
        <time>2010-01-02T21:21:20Z</time>
      </trkpt>
      <trkpt lat="46.21047" lon="6.77873">
        <ele>1596</ele>
        <time>2010-01-02T21:21:20Z</time>
      </trkpt>
      <trkpt lat="46.2102" lon="6.77907">
        <ele>1592</ele>
        <time>2010-01-02T21:21:35Z</time>
      </trkpt>
      <trkpt lat="46.20941" lon="6.77998">
        <ele>1573</ele>
        <time>2010-01-02T21:22:16Z</time>
      </trkpt>
      <trkpt lat="46.20893" lon="6.78029">
        <ele>1562</ele>
        <time>2010-01-02T21:22:36Z</time>
      </trkpt>
      <trkpt lat="46.20835" lon="6.78053">
        <ele>1557</ele>
        <time>2010-01-02T21:23:00Z</time>
      </trkpt>
      <trkpt lat="46.20815" lon="6.78054">
        <ele>1544</ele>
        <time>2010-01-02T21:23:09Z</time>
      </trkpt>
      <trkpt lat="46.20785" lon="6.78052">
        <ele>1541</ele>
        <time>2010-01-02T21:23:21Z</time>
      </trkpt>
      <trkpt lat="46.20766" lon="6.78049">
        <ele>1539</ele>
        <time>2010-01-02T21:23:28Z</time>
      </trkpt>
      <trkpt lat="46.20747" lon="6.7805">
        <ele>1530</ele>
        <time>2010-01-02T21:23:36Z</time>
      </trkpt>
      <trkpt lat="46.20731" lon="6.78045">
        <ele>1529</ele>
        <time>2010-01-02T21:23:43Z</time>
      </trkpt>
      <trkpt lat="46.20728" lon="6.78011">
        <ele>1526</ele>
        <time>2010-01-02T21:23:52Z</time>
      </trkpt>
      <trkpt lat="46.20733" lon="6.77979">
        <ele>1519</ele>
        <time>2010-01-02T21:24:01Z</time>
      </trkpt>
      <trkpt lat="46.20742" lon="6.77935">
        <ele>1515</ele>
        <time>2010-01-02T21:24:14Z</time>
      </trkpt>
      <trkpt lat="46.20748" lon="6.77902">
        <ele>1511</ele>
        <time>2010-01-02T21:24:23Z</time>
      </trkpt>
      <trkpt lat="46.20746" lon="6.77887">
        <ele>1509</ele>
        <time>2010-01-02T21:24:27Z</time>
      </trkpt>
      <trkpt lat="46.20734" lon="6.77833">
        <ele>1504</ele>
        <time>2010-01-02T21:24:43Z</time>
      </trkpt>
      <trkpt lat="46.20714" lon="6.77791">
        <ele>1502</ele>
        <time>2010-01-02T21:24:57Z</time>
      </trkpt>
      <trkpt lat="46.20702" lon="6.77785">
        <ele>1502</ele>
        <time>2010-01-02T21:25:02Z</time>
      </trkpt>
      <trkpt lat="46.207" lon="6.77778">
        <ele>1502</ele>
        <time>2010-01-02T21:25:04Z</time>
      </trkpt>
      <trkpt lat="46.20698" lon="6.77764">
        <ele>1501</ele>
        <time>2010-01-02T21:25:08Z</time>
      </trkpt>
      <trkpt lat="46.207" lon="6.77745">
        <ele>1500</ele>
        <time>2010-01-02T21:25:14Z</time>
      </trkpt>
      <trkpt lat="46.20711" lon="6.7773">
        <ele>1500</ele>
        <time>2010-01-02T21:25:20Z</time>
      </trkpt>
      <trkpt lat="46.20717" lon="6.7772">
        <ele>1500</ele>
        <time>2010-01-02T21:25:23Z</time>
      </trkpt>
      <trkpt lat="46.20719" lon="6.77716">
        <ele>1500</ele>
        <time>2010-01-02T21:25:25Z</time>
      </trkpt>
      <trkpt lat="46.20722" lon="6.77713">
        <ele>1500</ele>
        <time>2010-01-02T21:25:26Z</time>
      </trkpt>
      <trkpt lat="46.20726" lon="6.7771">
        <ele>1500</ele>
        <time>2010-01-02T21:25:28Z</time>
      </trkpt>
      <trkpt lat="46.20734" lon="6.77705">
        <ele>1500</ele>
        <time>2010-01-02T21:25:32Z</time>
      </trkpt>
      <trkpt lat="46.20747" lon="6.77693">
        <ele>1500</ele>
        <time>2010-01-02T21:25:38Z</time>
      </trkpt>
      <trkpt lat="46.20761" lon="6.77679">
        <ele>1502</ele>
        <time>2010-01-02T21:25:44Z</time>
      </trkpt>
      <trkpt lat="46.20777" lon="6.77638">
        <ele>1502</ele>
        <time>2010-01-02T21:25:58Z</time>
      </trkpt>
      <trkpt lat="46.20798" lon="6.77616">
        <ele>1503</ele>
        <time>2010-01-02T21:26:08Z</time>
      </trkpt>
      <trkpt lat="46.20819" lon="6.776">
        <ele>1502</ele>
        <time>2010-01-02T21:26:18Z</time>
      </trkpt>
      <trkpt lat="46.20827" lon="6.77594">
        <ele>1501</ele>
        <time>2010-01-02T21:26:21Z</time>
      </trkpt>
      <trkpt lat="46.20843" lon="6.77591">
        <ele>1504</ele>
        <time>2010-01-02T21:26:27Z</time>
      </trkpt>
      <trkpt lat="46.20849" lon="6.77577">
        <ele>1503</ele>
        <time>2010-01-02T21:26:32Z</time>
      </trkpt>
      <trkpt lat="46.20855" lon="6.77566">
        <ele>1504</ele>
        <time>2010-01-02T21:26:36Z</time>
      </trkpt>
      <trkpt lat="46.20861" lon="6.77559">
        <ele>1505</ele>
        <time>2010-01-02T21:26:39Z</time>
      </trkpt>
      <trkpt lat="46.20868" lon="6.77553">
        <ele>1505</ele>
        <time>2010-01-02T21:26:42Z</time>
      </trkpt>
      <trkpt lat="46.20873" lon="6.77548">
        <ele>1505</ele>
        <time>2010-01-02T21:26:45Z</time>
      </trkpt>
      <trkpt lat="46.2088" lon="6.77546">
        <ele>1505</ele>
        <time>2010-01-02T21:26:47Z</time>
      </trkpt>
      <trkpt lat="46.20887" lon="6.77541">
        <ele>1505</ele>
        <time>2010-01-02T21:26:50Z</time>
      </trkpt>
      <trkpt lat="46.20894" lon="6.77534">
        <ele>1504</ele>
        <time>2010-01-02T21:26:54Z</time>
      </trkpt>
      <trkpt lat="46.20904" lon="6.77524">
        <ele>1503</ele>
        <time>2010-01-02T21:26:59Z</time>
      </trkpt>
      <trkpt lat="46.2091" lon="6.77509">
        <ele>1500</ele>
        <time>2010-01-02T21:27:03Z</time>
      </trkpt>
      <trkpt lat="46.20912" lon="6.77496">
        <ele>1498</ele>
        <time>2010-01-02T21:27:07Z</time>
      </trkpt>
      <trkpt lat="46.20913" lon="6.77485">
        <ele>1500</ele>
        <time>2010-01-02T21:27:10Z</time>
      </trkpt>
      <trkpt lat="46.20918" lon="6.77483">
        <ele>1494</ele>
        <time>2010-01-02T21:27:12Z</time>
      </trkpt>
      <trkpt lat="46.20925" lon="6.7748">
        <ele>1494</ele>
        <time>2010-01-02T21:27:15Z</time>
      </trkpt>
      <trkpt lat="46.20932" lon="6.77472">
        <ele>1493</ele>
        <time>2010-01-02T21:27:19Z</time>
      </trkpt>
      <trkpt lat="46.20938" lon="6.77463">
        <ele>1492</ele>
        <time>2010-01-02T21:27:22Z</time>
      </trkpt>
      <trkpt lat="46.20951" lon="6.77441">
        <ele>1490</ele>
        <time>2010-01-02T21:27:30Z</time>
      </trkpt>
      <trkpt lat="46.20961" lon="6.77435">
        <ele>1489</ele>
        <time>2010-01-02T21:27:35Z</time>
      </trkpt>
      <trkpt lat="46.20976" lon="6.77441">
        <ele>1488</ele>
        <time>2010-01-02T21:27:41Z</time>
      </trkpt>
      <trkpt lat="46.20989" lon="6.77442">
        <ele>1488</ele>
        <time>2010-01-02T21:27:46Z</time>
      </trkpt>
      <trkpt lat="46.20996" lon="6.77442">
        <ele>1487</ele>
        <time>2010-01-02T21:27:49Z</time>
      </trkpt>
      <trkpt lat="46.21004" lon="6.77441">
        <ele>1488</ele>
        <time>2010-01-02T21:27:52Z</time>
      </trkpt>
      <trkpt lat="46.21013" lon="6.77438">
        <ele>1488</ele>
        <time>2010-01-02T21:27:55Z</time>
      </trkpt>
      <trkpt lat="46.21023" lon="6.77437">
        <ele>1489</ele>
        <time>2010-01-02T21:27:59Z</time>
      </trkpt>
      <trkpt lat="46.21033" lon="6.77434">
        <ele>1490</ele>
        <time>2010-01-02T21:28:04Z</time>
      </trkpt>
      <trkpt lat="46.21042" lon="6.77432">
        <ele>1490</ele>
        <time>2010-01-02T21:28:07Z</time>
      </trkpt>
      <trkpt lat="46.21048" lon="6.77425">
        <ele>1489</ele>
        <time>2010-01-02T21:28:10Z</time>
      </trkpt>
      <trkpt lat="46.21059" lon="6.77419">
        <ele>1487</ele>
        <time>2010-01-02T21:28:15Z</time>
      </trkpt>
      <trkpt lat="46.2107" lon="6.77416">
        <ele>1477</ele>
        <time>2010-01-02T21:28:20Z</time>
      </trkpt>
      <trkpt lat="46.21078" lon="6.77411">
        <ele>1477</ele>
        <time>2010-01-02T21:28:23Z</time>
      </trkpt>
      <trkpt lat="46.21086" lon="6.77405">
        <ele>1480</ele>
        <time>2010-01-02T21:28:27Z</time>
      </trkpt>
      <trkpt lat="46.21092" lon="6.77396">
        <ele>1481</ele>
        <time>2010-01-02T21:28:30Z</time>
      </trkpt>
      <trkpt lat="46.21099" lon="6.77384">
        <ele>1481</ele>
        <time>2010-01-02T21:28:35Z</time>
      </trkpt>
      <trkpt lat="46.211" lon="6.77368">
        <ele>1479</ele>
        <time>2010-01-02T21:28:39Z</time>
      </trkpt>
      <trkpt lat="46.21093" lon="6.77355">
        <ele>1476</ele>
        <time>2010-01-02T21:28:44Z</time>
      </trkpt>
      <trkpt lat="46.2108" lon="6.77354">
        <ele>1471</ele>
        <time>2010-01-02T21:28:49Z</time>
      </trkpt>
      <trkpt lat="46.21062" lon="6.77355">
        <ele>1471</ele>
        <time>2010-01-02T21:28:56Z</time>
      </trkpt>
      <trkpt lat="46.21046" lon="6.77357">
        <ele>1471</ele>
        <time>2010-01-02T21:29:02Z</time>
      </trkpt>
      <trkpt lat="46.21035" lon="6.77356">
        <ele>1471</ele>
        <time>2010-01-02T21:29:07Z</time>
      </trkpt>
      <trkpt lat="46.21021" lon="6.77347">
        <ele>1470</ele>
        <time>2010-01-02T21:29:13Z</time>
      </trkpt>
      <trkpt lat="46.21007" lon="6.77332">
        <ele>1464</ele>
        <time>2010-01-02T21:29:20Z</time>
      </trkpt>
      <trkpt lat="46.21008" lon="6.77316">
        <ele>1462</ele>
        <time>2010-01-02T21:29:24Z</time>
      </trkpt>
      <trkpt lat="46.2102" lon="6.7731">
        <ele>1461</ele>
        <time>2010-01-02T21:29:29Z</time>
      </trkpt>
      <trkpt lat="46.21021" lon="6.77308">
        <ele>1461</ele>
        <time>2010-01-02T21:29:30Z</time>
      </trkpt>
      <trkpt lat="46.21033" lon="6.77302">
        <ele>1460</ele>
        <time>2010-01-02T21:29:35Z</time>
      </trkpt>
      <trkpt lat="46.21046" lon="6.77296">
        <ele>1460</ele>
        <time>2010-01-02T21:29:40Z</time>
      </trkpt>
      <trkpt lat="46.21063" lon="6.77295">
        <ele>1460</ele>
        <time>2010-01-02T21:29:47Z</time>
      </trkpt>
      <trkpt lat="46.21077" lon="6.77299">
        <ele>1461</ele>
        <time>2010-01-02T21:29:53Z</time>
      </trkpt>
      <trkpt lat="46.21089" lon="6.77301">
        <ele>1463</ele>
        <time>2010-01-02T21:29:58Z</time>
      </trkpt>
      <trkpt lat="46.21106" lon="6.7729">
        <ele>1462</ele>
        <time>2010-01-02T21:30:05Z</time>
      </trkpt>
      <trkpt lat="46.21122" lon="6.77269">
        <ele>1460</ele>
        <time>2010-01-02T21:30:14Z</time>
      </trkpt>
      <trkpt lat="46.2114" lon="6.77251">
        <ele>1458</ele>
        <time>2010-01-02T21:30:23Z</time>
      </trkpt>
      <trkpt lat="46.21157" lon="6.7723">
        <ele>1444</ele>
        <time>2010-01-02T21:30:32Z</time>
      </trkpt>
      <trkpt lat="46.2117" lon="6.77214">
        <ele>1444</ele>
        <time>2010-01-02T21:30:38Z</time>
      </trkpt>
      <trkpt lat="46.21185" lon="6.77202">
        <ele>1441</ele>
        <time>2010-01-02T21:30:45Z</time>
      </trkpt>
      <trkpt lat="46.21199" lon="6.77192">
        <ele>1441</ele>
        <time>2010-01-02T21:30:51Z</time>
      </trkpt>
      <trkpt lat="46.21215" lon="6.77182">
        <ele>1440</ele>
        <time>2010-01-02T21:30:58Z</time>
      </trkpt>
      <trkpt lat="46.21232" lon="6.77175">
        <ele>1439</ele>
        <time>2010-01-02T21:31:05Z</time>
      </trkpt>
      <trkpt lat="46.21253" lon="6.77165">
        <ele>1431</ele>
        <time>2010-01-02T21:31:14Z</time>
      </trkpt>
      <trkpt lat="46.21274" lon="6.77163">
        <ele>1424</ele>
        <time>2010-01-02T21:31:23Z</time>
      </trkpt>
      <trkpt lat="46.21291" lon="6.77161">
        <ele>1424</ele>
        <time>2010-01-02T21:31:29Z</time>
      </trkpt>
      <trkpt lat="46.21313" lon="6.77154">
        <ele>1426</ele>
        <time>2010-01-02T21:31:38Z</time>
      </trkpt>
      <trkpt lat="46.21327" lon="6.77151">
        <ele>1428</ele>
        <time>2010-01-02T21:31:44Z</time>
      </trkpt>
      <trkpt lat="46.21353" lon="6.77143">
        <ele>1430</ele>
        <time>2010-01-02T21:31:55Z</time>
      </trkpt>
      <trkpt lat="46.21372" lon="6.77125">
        <ele>1427</ele>
        <time>2010-01-02T21:32:04Z</time>
      </trkpt>
      <trkpt lat="46.21383" lon="6.77111">
        <ele>1424</ele>
        <time>2010-01-02T21:32:10Z</time>
      </trkpt>
      <trkpt lat="46.21418" lon="6.77088">
        <ele>1421</ele>
        <time>2010-01-02T21:32:25Z</time>
      </trkpt>
      <trkpt lat="46.21436" lon="6.77076">
        <ele>1418</ele>
        <time>2010-01-02T21:32:33Z</time>
      </trkpt>
      <trkpt lat="46.21448" lon="6.77066">
        <ele>1421</ele>
        <time>2010-01-02T21:32:39Z</time>
      </trkpt>
      <trkpt lat="46.21453" lon="6.77059">
        <ele>1422</ele>
        <time>2010-01-02T21:32:42Z</time>
      </trkpt>
      <trkpt lat="46.21453" lon="6.77059">
        <ele>1422</ele>
        <time>2010-01-02T21:32:42Z</time>
      </trkpt>
      <trkpt lat="46.21453" lon="6.77053">
        <ele>1421</ele>
        <time>2010-01-02T21:32:43Z</time>
      </trkpt>
      <trkpt lat="46.21454" lon="6.77044">
        <ele>1420</ele>
        <time>2010-01-02T21:32:46Z</time>
      </trkpt>
      <trkpt lat="46.21453" lon="6.77043">
        <ele>1420</ele>
        <time>2010-01-02T21:32:46Z</time>
      </trkpt>
      <trkpt lat="46.21455" lon="6.7705">
        <ele>1421</ele>
        <time>2010-01-02T21:32:48Z</time>
      </trkpt>
      <trkpt lat="46.21454" lon="6.77042">
        <ele>1420</ele>
        <time>2010-01-02T21:32:50Z</time>
      </trkpt>
      <trkpt lat="46.21442" lon="6.77042">
        <ele>1417</ele>
        <time>2010-01-02T21:32:55Z</time>
      </trkpt>
      <trkpt lat="46.21406" lon="6.77066">
        <ele>1402</ele>
        <time>2010-01-02T21:33:11Z</time>
      </trkpt>
      <trkpt lat="46.21375" lon="6.77072">
        <ele>1397</ele>
        <time>2010-01-02T21:33:24Z</time>
      </trkpt>
      <trkpt lat="46.21351" lon="6.77088">
        <ele>1412</ele>
        <time>2010-01-02T21:33:34Z</time>
      </trkpt>
      <trkpt lat="46.21337" lon="6.77102">
        <ele>1413</ele>
        <time>2010-01-02T21:33:41Z</time>
      </trkpt>
      <trkpt lat="46.2133" lon="6.77102">
        <ele>1408</ele>
        <time>2010-01-02T21:33:44Z</time>
      </trkpt>
      <trkpt lat="46.21332" lon="6.77086">
        <ele>1400</ele>
        <time>2010-01-02T21:33:48Z</time>
      </trkpt>
      <trkpt lat="46.21353" lon="6.77058">
        <ele>1394</ele>
        <time>2010-01-02T21:34:00Z</time>
      </trkpt>
      <trkpt lat="46.21377" lon="6.77042">
        <ele>1393</ele>
        <time>2010-01-02T21:34:10Z</time>
      </trkpt>
      <trkpt lat="46.21395" lon="6.77028">
        <ele>1393</ele>
        <time>2010-01-02T21:34:19Z</time>
      </trkpt>
      <trkpt lat="46.21407" lon="6.77008">
        <ele>1391</ele>
        <time>2010-01-02T21:34:26Z</time>
      </trkpt>
      <trkpt lat="46.21414" lon="6.7699">
        <ele>1384</ele>
        <time>2010-01-02T21:34:32Z</time>
      </trkpt>
      <trkpt lat="46.21418" lon="6.76969">
        <ele>1394</ele>
        <time>2010-01-02T21:34:38Z</time>
      </trkpt>
      <trkpt lat="46.21424" lon="6.76959">
        <ele>1394</ele>
        <time>2010-01-02T21:34:41Z</time>
      </trkpt>
      <trkpt lat="46.21434" lon="6.7694">
        <ele>1392</ele>
        <time>2010-01-02T21:34:48Z</time>
      </trkpt>
      <trkpt lat="46.21444" lon="6.76922">
        <ele>1393</ele>
        <time>2010-01-02T21:34:54Z</time>
      </trkpt>
      <trkpt lat="46.21451" lon="6.76908">
        <ele>1384</ele>
        <time>2010-01-02T21:34:59Z</time>
      </trkpt>
      <trkpt lat="46.2146" lon="6.76899">
        <ele>1386</ele>
        <time>2010-01-02T21:35:04Z</time>
      </trkpt>
      <trkpt lat="46.21463" lon="6.769">
        <ele>1388</ele>
        <time>2010-01-02T21:35:05Z</time>
      </trkpt>
      <trkpt lat="46.21472" lon="6.76888">
        <ele>1389</ele>
        <time>2010-01-02T21:35:10Z</time>
      </trkpt>
      <trkpt lat="46.21469" lon="6.76875">
        <ele>1385</ele>
        <time>2010-01-02T21:35:13Z</time>
      </trkpt>
      <trkpt lat="46.21457" lon="6.76877">
        <ele>1382</ele>
        <time>2010-01-02T21:35:18Z</time>
      </trkpt>
      <trkpt lat="46.21437" lon="6.76892">
        <ele>1379</ele>
        <time>2010-01-02T21:35:27Z</time>
      </trkpt>
      <trkpt lat="46.21404" lon="6.76917">
        <ele>1372</ele>
        <time>2010-01-02T21:35:42Z</time>
      </trkpt>
      <trkpt lat="46.21388" lon="6.76933">
        <ele>1372</ele>
        <time>2010-01-02T21:35:50Z</time>
      </trkpt>
      <trkpt lat="46.21387" lon="6.76933">
        <ele>1372</ele>
        <time>2010-01-02T21:35:50Z</time>
      </trkpt>
      <trkpt lat="46.2137" lon="6.76945">
        <ele>1372</ele>
        <time>2010-01-02T21:35:58Z</time>
      </trkpt>
      <trkpt lat="46.21366" lon="6.76939">
        <ele>1371</ele>
        <time>2010-01-02T21:36:00Z</time>
      </trkpt>
      <trkpt lat="46.21375" lon="6.7692">
        <ele>1370</ele>
        <time>2010-01-02T21:36:07Z</time>
      </trkpt>
      <trkpt lat="46.21389" lon="6.76899">
        <ele>1359</ele>
        <time>2010-01-02T21:36:15Z</time>
      </trkpt>
      <trkpt lat="46.214" lon="6.76876">
        <ele>1356</ele>
        <time>2010-01-02T21:36:23Z</time>
      </trkpt>
      <trkpt lat="46.21414" lon="6.76834">
        <ele>1349</ele>
        <time>2010-01-02T21:36:36Z</time>
      </trkpt>
      <trkpt lat="46.21434" lon="6.76791">
        <ele>1357</ele>
        <time>2010-01-02T21:36:50Z</time>
      </trkpt>
      <trkpt lat="46.21442" lon="6.7677">
        <ele>1356</ele>
        <time>2010-01-02T21:36:57Z</time>
      </trkpt>
      <trkpt lat="46.21462" lon="6.76752">
        <ele>1359</ele>
        <time>2010-01-02T21:37:06Z</time>
      </trkpt>
      <trkpt lat="46.21477" lon="6.76742">
        <ele>1355</ele>
        <time>2010-01-02T21:37:13Z</time>
      </trkpt>
      <trkpt lat="46.21494" lon="6.76729">
        <ele>1356</ele>
        <time>2010-01-02T21:37:20Z</time>
      </trkpt>
      <trkpt lat="46.21495" lon="6.76713">
        <ele>1353</ele>
        <time>2010-01-02T21:37:25Z</time>
      </trkpt>
      <trkpt lat="46.21495" lon="6.76712">
        <ele>1353</ele>
        <time>2010-01-02T21:37:25Z</time>
      </trkpt>
      <trkpt lat="46.21482" lon="6.76702">
        <ele>1352</ele>
        <time>2010-01-02T21:37:31Z</time>
      </trkpt>
      <trkpt lat="46.21459" lon="6.76684">
        <ele>1348</ele>
        <time>2010-01-02T21:37:41Z</time>
      </trkpt>
      <trkpt lat="46.21455" lon="6.76671">
        <ele>1347</ele>
        <time>2010-01-02T21:37:45Z</time>
      </trkpt>
      <trkpt lat="46.21458" lon="6.76654">
        <ele>1336</ele>
        <time>2010-01-02T21:37:50Z</time>
      </trkpt>
      <trkpt lat="46.21467" lon="6.76622">
        <ele>1333</ele>
        <time>2010-01-02T21:38:00Z</time>
      </trkpt>
      <trkpt lat="46.2148" lon="6.76593">
        <ele>1330</ele>
        <time>2010-01-02T21:38:09Z</time>
      </trkpt>
      <trkpt lat="46.21468" lon="6.76571">
        <ele>1312</ele>
        <time>2010-01-02T21:38:17Z</time>
      </trkpt>
      <trkpt lat="46.21466" lon="6.76557">
        <ele>1309</ele>
        <time>2010-01-02T21:38:21Z</time>
      </trkpt>
      <trkpt lat="46.21473" lon="6.76552">
        <ele>1310</ele>
        <time>2010-01-02T21:38:24Z</time>
      </trkpt>
      <trkpt lat="46.21487" lon="6.76566">
        <ele>1316</ele>
        <time>2010-01-02T21:38:31Z</time>
      </trkpt>
      <trkpt lat="46.21502" lon="6.76584">
        <ele>1333</ele>
        <time>2010-01-02T21:38:39Z</time>
      </trkpt>
      <trkpt lat="46.21512" lon="6.76589">
        <ele>1346</ele>
        <time>2010-01-02T21:38:43Z</time>
      </trkpt>
      <trkpt lat="46.21515" lon="6.76574">
        <ele>1339</ele>
        <time>2010-01-02T21:38:47Z</time>
      </trkpt>
      <trkpt lat="46.21508" lon="6.76558">
        <ele>1339</ele>
        <time>2010-01-02T21:38:52Z</time>
      </trkpt>
      <trkpt lat="46.21507" lon="6.76557">
        <ele>1339</ele>
        <time>2010-01-02T21:38:53Z</time>
      </trkpt>
      <trkpt lat="46.21499" lon="6.76544">
        <ele>1312</ele>
        <time>2010-01-02T21:38:58Z</time>
      </trkpt>
      <trkpt lat="46.2151" lon="6.76528">
        <ele>1335</ele>
        <time>2010-01-02T21:39:04Z</time>
      </trkpt>
      <trkpt lat="46.21528" lon="6.76517">
        <ele>1339</ele>
        <time>2010-01-02T21:39:12Z</time>
      </trkpt>
      <trkpt lat="46.21545" lon="6.76478">
        <ele>1326</ele>
        <time>2010-01-02T21:39:25Z</time>
      </trkpt>
      <trkpt lat="46.21565" lon="6.76429">
        <ele>1325</ele>
        <time>2010-01-02T21:39:41Z</time>
      </trkpt>
      <trkpt lat="46.21576" lon="6.76389">
        <ele>1305</ele>
        <time>2010-01-02T21:39:53Z</time>
      </trkpt>
      <trkpt lat="46.21583" lon="6.76357">
        <ele>1299</ele>
        <time>2010-01-02T21:40:02Z</time>
      </trkpt>
      <trkpt lat="46.21575" lon="6.76353">
        <ele>1298</ele>
        <time>2010-01-02T21:40:05Z</time>
      </trkpt>
      <trkpt lat="46.21564" lon="6.76373">
        <ele>1298</ele>
        <time>2010-01-02T21:40:12Z</time>
      </trkpt>
      <trkpt lat="46.21556" lon="6.76401">
        <ele>1302</ele>
        <time>2010-01-02T21:40:21Z</time>
      </trkpt>
      <trkpt lat="46.2153" lon="6.76435">
        <ele>1313</ele>
        <time>2010-01-02T21:40:35Z</time>
      </trkpt>
      <trkpt lat="46.21514" lon="6.76452">
        <ele>1312</ele>
        <time>2010-01-02T21:40:43Z</time>
      </trkpt>
      <trkpt lat="46.21482" lon="6.76466">
        <ele>1284</ele>
        <time>2010-01-02T21:40:56Z</time>
      </trkpt>
      <trkpt lat="46.2145" lon="6.76492">
        <ele>1280</ele>
        <time>2010-01-02T21:41:11Z</time>
      </trkpt>
      <trkpt lat="46.21414" lon="6.76524">
        <ele>1276</ele>
        <time>2010-01-02T21:41:28Z</time>
      </trkpt>
      <trkpt lat="46.2141" lon="6.7653">
        <ele>1277</ele>
        <time>2010-01-02T21:41:30Z</time>
      </trkpt>
      <trkpt lat="46.21387" lon="6.7656">
        <ele>1282</ele>
        <time>2010-01-02T21:41:42Z</time>
      </trkpt>
      <trkpt lat="46.21365" lon="6.76579">
        <ele>1278</ele>
        <time>2010-01-02T21:41:53Z</time>
      </trkpt>
      <trkpt lat="46.21349" lon="6.76585">
        <ele>1285</ele>
        <time>2010-01-02T21:41:59Z</time>
      </trkpt>
      <trkpt lat="46.21357" lon="6.76561">
        <ele>1275</ele>
        <time>2010-01-02T21:42:07Z</time>
      </trkpt>
      <trkpt lat="46.21405" lon="6.76505">
        <ele>1273</ele>
        <time>2010-01-02T21:42:32Z</time>
      </trkpt>
      <trkpt lat="46.21407" lon="6.76503">
        <ele>1273</ele>
        <time>2010-01-02T21:42:32Z</time>
      </trkpt>
      <trkpt lat="46.21456" lon="6.76423">
        <ele>1272</ele>
        <time>2010-01-02T21:43:02Z</time>
      </trkpt>
      <trkpt lat="46.21486" lon="6.76357">
        <ele>1257</ele>
        <time>2010-01-02T21:43:24Z</time>
      </trkpt>
      <trkpt lat="46.21511" lon="6.7632">
        <ele>1263</ele>
        <time>2010-01-02T21:43:38Z</time>
      </trkpt>
      <trkpt lat="46.21525" lon="6.76254">
        <ele>1260</ele>
        <time>2010-01-02T21:43:57Z</time>
      </trkpt>
      <trkpt lat="46.2153" lon="6.76205">
        <ele>1248</ele>
        <time>2010-01-02T21:44:11Z</time>
      </trkpt>
      <trkpt lat="46.21553" lon="6.76148">
        <ele>1241</ele>
        <time>2010-01-02T21:44:29Z</time>
      </trkpt>
      <trkpt lat="46.21562" lon="6.76106">
        <ele>1239</ele>
        <time>2010-01-02T21:44:42Z</time>
      </trkpt>
      <trkpt lat="46.21556" lon="6.7607">
        <ele>1232</ele>
        <time>2010-01-02T21:44:52Z</time>
      </trkpt>
      <trkpt lat="46.21574" lon="6.7603">
        <ele>1232</ele>
        <time>2010-01-02T21:45:05Z</time>
      </trkpt>
      <trkpt lat="46.21583" lon="6.75968">
        <ele>1226</ele>
        <time>2010-01-02T21:45:22Z</time>
      </trkpt>
      <trkpt lat="46.21573" lon="6.75907">
        <ele>1221</ele>
        <time>2010-01-02T21:45:40Z</time>
      </trkpt>
      <trkpt lat="46.21534" lon="6.75769">
        <ele>1210</ele>
        <time>2010-01-02T21:46:21Z</time>
      </trkpt>
      <trkpt lat="46.21522" lon="6.75737">
        <ele>1209</ele>
        <time>2010-01-02T21:46:31Z</time>
      </trkpt>
      <trkpt lat="46.21512" lon="6.75704">
        <ele>1210</ele>
        <time>2010-01-02T21:46:41Z</time>
      </trkpt>
      <trkpt lat="46.21512" lon="6.75703">
        <ele>1210</ele>
        <time>2010-01-02T21:46:41Z</time>
      </trkpt>
      <trkpt lat="46.21501" lon="6.75656">
        <ele>1208</ele>
        <time>2010-01-02T21:46:55Z</time>
      </trkpt>
      <trkpt lat="46.21497" lon="6.75626">
        <ele>1212</ele>
        <time>2010-01-02T21:47:04Z</time>
      </trkpt>
      <trkpt lat="46.2149" lon="6.75581">
        <ele>1208</ele>
        <time>2010-01-02T21:47:16Z</time>
      </trkpt>
      <trkpt lat="46.21493" lon="6.75532">
        <ele>1205</ele>
        <time>2010-01-02T21:47:30Z</time>
      </trkpt>
      <trkpt lat="46.21501" lon="6.75488">
        <ele>1206</ele>
        <time>2010-01-02T21:47:43Z</time>
      </trkpt>
      <trkpt lat="46.21518" lon="6.75437">
        <ele>1205</ele>
        <time>2010-01-02T21:47:58Z</time>
      </trkpt>
      <trkpt lat="46.21519" lon="6.75387">
        <ele>1202</ele>
        <time>2010-01-02T21:48:12Z</time>
      </trkpt>
      <trkpt lat="46.21526" lon="6.75331">
        <ele>1199</ele>
        <time>2010-01-02T21:48:28Z</time>
      </trkpt>
      <trkpt lat="46.21537" lon="6.75281">
        <ele>1204</ele>
        <time>2010-01-02T21:48:42Z</time>
      </trkpt>
      <trkpt lat="46.21508" lon="6.75122">
        <ele>1203</ele>
        <time>2010-01-02T21:49:28Z</time>
      </trkpt>
      <trkpt lat="46.21486" lon="6.75059">
        <ele>1184</ele>
        <time>2010-01-02T21:49:48Z</time>
      </trkpt>
      <trkpt lat="46.21463" lon="6.74996">
        <ele>1188</ele>
        <time>2010-01-02T21:50:07Z</time>
      </trkpt>
      <trkpt lat="46.21429" lon="6.7491">
        <ele>1185</ele>
        <time>2010-01-02T21:50:35Z</time>
      </trkpt>
      <trkpt lat="46.21399" lon="6.74845">
        <ele>1171</ele>
        <time>2010-01-02T21:50:57Z</time>
      </trkpt>
      <trkpt lat="46.21332" lon="6.74736">
        <ele>1151</ele>
        <time>2010-01-02T21:51:37Z</time>
      </trkpt>
      <trkpt lat="46.21279" lon="6.74618">
        <ele>1153</ele>
        <time>2010-01-02T21:52:16Z</time>
      </trkpt>
      <trkpt lat="46.21262" lon="6.74557">
        <ele>1155</ele>
        <time>2010-01-02T21:52:34Z</time>
      </trkpt>
      <trkpt lat="46.21259" lon="6.74508">
        <ele>1150</ele>
        <time>2010-01-02T21:52:48Z</time>
      </trkpt>
      <trkpt lat="46.21217" lon="6.7434">
        <ele>1129</ele>
        <time>2010-01-02T21:53:37Z</time>
      </trkpt>
      <trkpt lat="46.21193" lon="6.74243">
        <ele>1129</ele>
        <time>2010-01-02T21:54:05Z</time>
      </trkpt>
      <trkpt lat="46.21163" lon="6.74166">
        <ele>1119</ele>
        <time>2010-01-02T21:54:30Z</time>
      </trkpt>
      <trkpt lat="46.21152" lon="6.74069">
        <ele>1112</ele>
        <time>2010-01-02T21:54:57Z</time>
      </trkpt>
      <trkpt lat="46.21122" lon="6.73951">
        <ele>1106</ele>
        <time>2010-01-02T21:55:32Z</time>
      </trkpt>
      <trkpt lat="46.21111" lon="6.73814">
        <ele>1107</ele>
        <time>2010-01-02T21:56:10Z</time>
      </trkpt>
      <trkpt lat="46.21109" lon="6.73736">
        <ele>1108</ele>
        <time>2010-01-02T21:56:32Z</time>
      </trkpt>
      <trkpt lat="46.21098" lon="6.73588">
        <ele>1105</ele>
        <time>2010-01-02T21:57:13Z</time>
      </trkpt>
      <trkpt lat="46.21088" lon="6.73516">
        <ele>1107</ele>
        <time>2010-01-02T21:57:34Z</time>
      </trkpt>
      <trkpt lat="46.21081" lon="6.7348">
        <ele>1088</ele>
        <time>2010-01-02T21:57:44Z</time>
      </trkpt>
      <trkpt lat="46.21072" lon="6.7345">
        <ele>1087</ele>
        <time>2010-01-02T21:57:53Z</time>
      </trkpt>
      <trkpt lat="46.21051" lon="6.73556">
        <ele>1081</ele>
        <time>2010-01-02T21:58:23Z</time>
      </trkpt>
      <trkpt lat="46.21032" lon="6.7365">
        <ele>1079</ele>
        <time>2010-01-02T21:58:51Z</time>
      </trkpt>
      <trkpt lat="46.20991" lon="6.73691">
        <ele>1079</ele>
        <time>2010-01-02T21:59:11Z</time>
      </trkpt>
      <trkpt lat="46.20946" lon="6.73701">
        <ele>1083</ele>
        <time>2010-01-02T21:59:29Z</time>
      </trkpt>
      <trkpt lat="46.20891" lon="6.73669">
        <ele>1094</ele>
        <time>2010-01-02T21:59:53Z</time>
      </trkpt>
      <trkpt lat="46.20872" lon="6.736">
        <ele>1084</ele>
        <time>2010-01-02T22:00:13Z</time>
      </trkpt>
      <trkpt lat="46.20856" lon="6.7357">
        <ele>1080</ele>
        <time>2010-01-02T22:00:24Z</time>
      </trkpt>
      <trkpt lat="46.2082" lon="6.73543">
        <ele>1099</ele>
        <time>2010-01-02T22:00:40Z</time>
      </trkpt>
      <trkpt lat="46.20812" lon="6.73475">
        <ele>1094</ele>
        <time>2010-01-02T22:00:59Z</time>
      </trkpt>
      <trkpt lat="46.20804" lon="6.73424">
        <ele>1094</ele>
        <time>2010-01-02T22:01:14Z</time>
      </trkpt>
      <trkpt lat="46.20814" lon="6.73354">
        <ele>1084</ele>
        <time>2010-01-02T22:01:33Z</time>
      </trkpt>
      <trkpt lat="46.20789" lon="6.73229">
        <ele>1083</ele>
        <time>2010-01-02T22:02:09Z</time>
      </trkpt>
      <trkpt lat="46.20764" lon="6.73177">
        <ele>1088</ele>
        <time>2010-01-02T22:02:27Z</time>
      </trkpt>
      <trkpt lat="46.2075" lon="6.73106">
        <ele>1115</ele>
        <time>2010-01-02T22:02:47Z</time>
      </trkpt>
      <trkpt lat="46.20762" lon="6.73047">
        <ele>1089</ele>
        <time>2010-01-02T22:03:04Z</time>
      </trkpt>
      <trkpt lat="46.20759" lon="6.72957">
        <ele>1084</ele>
        <time>2010-01-02T22:03:29Z</time>
      </trkpt>
      <trkpt lat="46.2075" lon="6.72843">
        <ele>1095</ele>
        <time>2010-01-02T22:04:01Z</time>
      </trkpt>
      <trkpt lat="46.2075" lon="6.72712">
        <ele>1108</ele>
        <time>2010-01-02T22:04:38Z</time>
      </trkpt>
      <trkpt lat="46.20747" lon="6.72628">
        <ele>1105</ele>
        <time>2010-01-02T22:05:01Z</time>
      </trkpt>
      <trkpt lat="46.20745" lon="6.72563">
        <ele>1104</ele>
        <time>2010-01-02T22:05:19Z</time>
      </trkpt>
      <trkpt lat="46.20741" lon="6.72521">
        <ele>1108</ele>
        <time>2010-01-02T22:05:30Z</time>
      </trkpt>
      <trkpt lat="46.20748" lon="6.72455">
        <ele>1113</ele>
        <time>2010-01-02T22:05:49Z</time>
      </trkpt>
      <trkpt lat="46.20763" lon="6.72415">
        <ele>1092</ele>
        <time>2010-01-02T22:06:02Z</time>
      </trkpt>
      <trkpt lat="46.20763" lon="6.72356">
        <ele>1083</ele>
        <time>2010-01-02T22:06:18Z</time>
      </trkpt>
      <trkpt lat="46.20763" lon="6.72354">
        <ele>1083</ele>
        <time>2010-01-02T22:06:19Z</time>
      </trkpt>
      <trkpt lat="46.20748" lon="6.72207">
        <ele>1092</ele>
        <time>2010-01-02T22:07:00Z</time>
      </trkpt>
      <trkpt lat="46.20744" lon="6.7213">
        <ele>1093</ele>
        <time>2010-01-02T22:07:21Z</time>
      </trkpt>
      <trkpt lat="46.20745" lon="6.72083">
        <ele>1088</ele>
        <time>2010-01-02T22:07:34Z</time>
      </trkpt>
      <trkpt lat="46.20792" lon="6.72051">
        <ele>1082</ele>
        <time>2010-01-02T22:07:55Z</time>
      </trkpt>
      <trkpt lat="46.20823" lon="6.72037">
        <ele>1081</ele>
        <time>2010-01-02T22:08:08Z</time>
      </trkpt>
      <trkpt lat="46.20841" lon="6.72013">
        <ele>1081</ele>
        <time>2010-01-02T22:08:18Z</time>
      </trkpt>
      <trkpt lat="46.20869" lon="6.71968">
        <ele>1090</ele>
        <time>2010-01-02T22:08:35Z</time>
      </trkpt>
      <trkpt lat="46.20883" lon="6.71944">
        <ele>1092</ele>
        <time>2010-01-02T22:08:43Z</time>
      </trkpt>
      <trkpt lat="46.20881" lon="6.71908">
        <ele>1097</ele>
        <time>2010-01-02T22:08:53Z</time>
      </trkpt>
      <trkpt lat="46.20862" lon="6.71822">
        <ele>1094</ele>
        <time>2010-01-02T22:09:18Z</time>
      </trkpt>
      <trkpt lat="46.2085" lon="6.7177">
        <ele>1091</ele>
        <time>2010-01-02T22:09:33Z</time>
      </trkpt>
      <trkpt lat="46.20846" lon="6.71716">
        <ele>1091</ele>
        <time>2010-01-02T22:09:48Z</time>
      </trkpt>
      <trkpt lat="46.2082" lon="6.71624">
        <ele>1070</ele>
        <time>2010-01-02T22:10:16Z</time>
      </trkpt>
      <trkpt lat="46.20781" lon="6.71587">
        <ele>1065</ele>
        <time>2010-01-02T22:10:34Z</time>
      </trkpt>
      <trkpt lat="46.20742" lon="6.71583">
        <ele>1055</ele>
        <time>2010-01-02T22:10:50Z</time>
      </trkpt>
      <trkpt lat="46.20723" lon="6.71558">
        <ele>1054</ele>
        <time>2010-01-02T22:11:00Z</time>
      </trkpt>
      <trkpt lat="46.20711" lon="6.71512">
        <ele>1051</ele>
        <time>2010-01-02T22:11:14Z</time>
      </trkpt>
      <trkpt lat="46.20693" lon="6.7143">
        <ele>1035</ele>
        <time>2010-01-02T22:11:38Z</time>
      </trkpt>
      <trkpt lat="46.20684" lon="6.71355">
        <ele>1023</ele>
        <time>2010-01-02T22:11:59Z</time>
      </trkpt>
      <trkpt lat="46.20679" lon="6.71295">
        <ele>1015</ele>
        <time>2010-01-02T22:12:16Z</time>
      </trkpt>
      <trkpt lat="46.20681" lon="6.71238">
        <ele>1007</ele>
        <time>2010-01-02T22:12:32Z</time>
      </trkpt>
      <trkpt lat="46.20672" lon="6.71172">
        <ele>1000</ele>
        <time>2010-01-02T22:12:50Z</time>
      </trkpt>
      <trkpt lat="46.20659" lon="6.71101">
        <ele>996</ele>
        <time>2010-01-02T22:13:11Z</time>
      </trkpt>
      <trkpt lat="46.20639" lon="6.71097">
        <ele>996</ele>
        <time>2010-01-02T22:13:18Z</time>
      </trkpt>
      <trkpt lat="46.20609" lon="6.7109">
        <ele>996</ele>
        <time>2010-01-02T22:13:31Z</time>
      </trkpt>
      <trkpt lat="46.20583" lon="6.71059">
        <ele>997</ele>
        <time>2010-01-02T22:13:44Z</time>
      </trkpt>
      <trkpt lat="46.20551" lon="6.71005">
        <ele>997</ele>
        <time>2010-01-02T22:14:04Z</time>
      </trkpt>
      <trkpt lat="46.20527" lon="6.70942">
        <ele>994</ele>
        <time>2010-01-02T22:14:24Z</time>
      </trkpt>
      <trkpt lat="46.20498" lon="6.70871">
        <ele>996</ele>
        <time>2010-01-02T22:14:47Z</time>
      </trkpt>
      <trkpt lat="46.20476" lon="6.70835">
        <ele>995</ele>
        <time>2010-01-02T22:15:00Z</time>
      </trkpt>
      <trkpt lat="46.2045" lon="6.70787">
        <ele>990</ele>
        <time>2010-01-02T22:15:17Z</time>
      </trkpt>
      <trkpt lat="46.20433" lon="6.70733">
        <ele>984</ele>
        <time>2010-01-02T22:15:33Z</time>
      </trkpt>
      <trkpt lat="46.2042" lon="6.70691">
        <ele>980</ele>
        <time>2010-01-02T22:15:46Z</time>
      </trkpt>
      <trkpt lat="46.20402" lon="6.70611">
        <ele>985</ele>
        <time>2010-01-02T22:16:09Z</time>
      </trkpt>
      <trkpt lat="46.20395" lon="6.70561">
        <ele>976</ele>
        <time>2010-01-02T22:16:24Z</time>
      </trkpt>
      <trkpt lat="46.20389" lon="6.7052">
        <ele>974</ele>
        <time>2010-01-02T22:16:35Z</time>
      </trkpt>
      <trkpt lat="46.20367" lon="6.70459">
        <ele>969</ele>
        <time>2010-01-02T22:16:54Z</time>
      </trkpt>
      <trkpt lat="46.20349" lon="6.70417">
        <ele>967</ele>
        <time>2010-01-02T22:17:08Z</time>
      </trkpt>
      <trkpt lat="46.20338" lon="6.70364">
        <ele>961</ele>
        <time>2010-01-02T22:17:23Z</time>
      </trkpt>
      <trkpt lat="46.20319" lon="6.70291">
        <ele>957</ele>
        <time>2010-01-02T22:17:45Z</time>
      </trkpt>
      <trkpt lat="46.20317" lon="6.70245">
        <ele>949</ele>
        <time>2010-01-02T22:17:58Z</time>
      </trkpt>
      <trkpt lat="46.20327" lon="6.70208">
        <ele>950</ele>
        <time>2010-01-02T22:18:09Z</time>
      </trkpt>
      <trkpt lat="46.20322" lon="6.70169">
        <ele>947</ele>
        <time>2010-01-02T22:18:20Z</time>
      </trkpt>
      <trkpt lat="46.20307" lon="6.70137">
        <ele>950</ele>
        <time>2010-01-02T22:18:31Z</time>
      </trkpt>
      <trkpt lat="46.2028" lon="6.70096">
        <ele>951</ele>
        <time>2010-01-02T22:18:46Z</time>
      </trkpt>
      <trkpt lat="46.2027" lon="6.70052">
        <ele>952</ele>
        <time>2010-01-02T22:18:59Z</time>
      </trkpt>
      <trkpt lat="46.20264" lon="6.70017">
        <ele>950</ele>
        <time>2010-01-02T22:19:09Z</time>
      </trkpt>
      <trkpt lat="46.20254" lon="6.69973">
        <ele>951</ele>
        <time>2010-01-02T22:19:22Z</time>
      </trkpt>
      <trkpt lat="46.20234" lon="6.69906">
        <ele>945</ele>
        <time>2010-01-02T22:19:42Z</time>
      </trkpt>
      <trkpt lat="46.20221" lon="6.69845">
        <ele>944</ele>
        <time>2010-01-02T22:20:00Z</time>
      </trkpt>
      <trkpt lat="46.20217" lon="6.69814">
        <ele>940</ele>
        <time>2010-01-02T22:20:09Z</time>
      </trkpt>
      <trkpt lat="46.20229" lon="6.69777">
        <ele>939</ele>
        <time>2010-01-02T22:20:20Z</time>
      </trkpt>
      <trkpt lat="46.20229" lon="6.69774">
        <ele>939</ele>
        <time>2010-01-02T22:20:21Z</time>
      </trkpt>
      <trkpt lat="46.20213" lon="6.69731">
        <ele>937</ele>
        <time>2010-01-02T22:20:34Z</time>
      </trkpt>
      <trkpt lat="46.20195" lon="6.69671">
        <ele>936</ele>
        <time>2010-01-02T22:20:52Z</time>
      </trkpt>
      <trkpt lat="46.20181" lon="6.69607">
        <ele>936</ele>
        <time>2010-01-02T22:21:11Z</time>
      </trkpt>
      <trkpt lat="46.20165" lon="6.69543">
        <ele>931</ele>
        <time>2010-01-02T22:21:30Z</time>
      </trkpt>
      <trkpt lat="46.20161" lon="6.69472">
        <ele>925</ele>
        <time>2010-01-02T22:21:49Z</time>
      </trkpt>
      <trkpt lat="46.20153" lon="6.69432">
        <ele>926</ele>
        <time>2010-01-02T22:22:01Z</time>
      </trkpt>
      <trkpt lat="46.20129" lon="6.69397">
        <ele>925</ele>
        <time>2010-01-02T22:22:15Z</time>
      </trkpt>
      <trkpt lat="46.20098" lon="6.69369">
        <ele>923</ele>
        <time>2010-01-02T22:22:29Z</time>
      </trkpt>
      <trkpt lat="46.20077" lon="6.69328">
        <ele>920</ele>
        <time>2010-01-02T22:22:44Z</time>
      </trkpt>
      <trkpt lat="46.20063" lon="6.69284">
        <ele>921</ele>
        <time>2010-01-02T22:22:57Z</time>
      </trkpt>
      <trkpt lat="46.20039" lon="6.6919">
        <ele>917</ele>
        <time>2010-01-02T22:23:25Z</time>
      </trkpt>
      <trkpt lat="46.20034" lon="6.69104">
        <ele>911</ele>
        <time>2010-01-02T22:23:49Z</time>
      </trkpt>
      <trkpt lat="46.20025" lon="6.69054">
        <ele>908</ele>
        <time>2010-01-02T22:24:03Z</time>
      </trkpt>
      <trkpt lat="46.20011" lon="6.68979">
        <ele>904</ele>
        <time>2010-01-02T22:24:24Z</time>
      </trkpt>
      <trkpt lat="46.20002" lon="6.68939">
        <ele>902</ele>
        <time>2010-01-02T22:24:36Z</time>
      </trkpt>
      <trkpt lat="46.2002" lon="6.68898">
        <ele>900</ele>
        <time>2010-01-02T22:24:49Z</time>
      </trkpt>
      <trkpt lat="46.20016" lon="6.68875">
        <ele>900</ele>
        <time>2010-01-02T22:24:56Z</time>
      </trkpt>
      <trkpt lat="46.19995" lon="6.68872">
        <ele>896</ele>
        <time>2010-01-02T22:25:04Z</time>
      </trkpt>
      <trkpt lat="46.19968" lon="6.68897">
        <ele>896</ele>
        <time>2010-01-02T22:25:17Z</time>
      </trkpt>
      <trkpt lat="46.19935" lon="6.68913">
        <ele>897</ele>
        <time>2010-01-02T22:25:31Z</time>
      </trkpt>
      <trkpt lat="46.19912" lon="6.68902">
        <ele>897</ele>
        <time>2010-01-02T22:25:41Z</time>
      </trkpt>
      <trkpt lat="46.19903" lon="6.68858">
        <ele>897</ele>
        <time>2010-01-02T22:25:54Z</time>
      </trkpt>
      <trkpt lat="46.19887" lon="6.68833">
        <ele>896</ele>
        <time>2010-01-02T22:26:03Z</time>
      </trkpt>
      <trkpt lat="46.19856" lon="6.68822">
        <ele>897</ele>
        <time>2010-01-02T22:26:16Z</time>
      </trkpt>
      <trkpt lat="46.19832" lon="6.68817">
        <ele>898</ele>
        <time>2010-01-02T22:26:26Z</time>
      </trkpt>
      <trkpt lat="46.19822" lon="6.68795">
        <ele>899</ele>
        <time>2010-01-02T22:26:33Z</time>
      </trkpt>
      <trkpt lat="46.19807" lon="6.68802">
        <ele>900</ele>
        <time>2010-01-02T22:26:39Z</time>
      </trkpt>
      <trkpt lat="46.19782" lon="6.68829">
        <ele>900</ele>
        <time>2010-01-02T22:26:52Z</time>
      </trkpt>
      <trkpt lat="46.1969" lon="6.68913">
        <ele>903</ele>
        <time>2010-01-02T22:27:35Z</time>
      </trkpt>
      <trkpt lat="46.19658" lon="6.68945">
        <ele>905</ele>
        <time>2010-01-02T22:27:51Z</time>
      </trkpt>
      <trkpt lat="46.19623" lon="6.68973">
        <ele>906</ele>
        <time>2010-01-02T22:28:07Z</time>
      </trkpt>
      <trkpt lat="46.19597" lon="6.68999">
        <ele>905</ele>
        <time>2010-01-02T22:28:20Z</time>
      </trkpt>
      <trkpt lat="46.19552" lon="6.69032">
        <ele>914</ele>
        <time>2010-01-02T22:28:40Z</time>
      </trkpt>
      <trkpt lat="46.19532" lon="6.69045">
        <ele>915</ele>
        <time>2010-01-02T22:28:49Z</time>
      </trkpt>
      <trkpt lat="46.19507" lon="6.69049">
        <ele>916</ele>
        <time>2010-01-02T22:28:59Z</time>
      </trkpt>
      <trkpt lat="46.19489" lon="6.69058">
        <ele>925</ele>
        <time>2010-01-02T22:29:06Z</time>
      </trkpt>
      <trkpt lat="46.19478" lon="6.69069">
        <ele>925</ele>
        <time>2010-01-02T22:29:12Z</time>
      </trkpt>
      <trkpt lat="46.19481" lon="6.6911">
        <ele>917</ele>
        <time>2010-01-02T22:29:23Z</time>
      </trkpt>
      <trkpt lat="46.19482" lon="6.69159">
        <ele>915</ele>
        <time>2010-01-02T22:29:37Z</time>
      </trkpt>
      <trkpt lat="46.19452" lon="6.69194">
        <ele>914</ele>
        <time>2010-01-02T22:29:52Z</time>
      </trkpt>
      <trkpt lat="46.19418" lon="6.69226">
        <ele>914</ele>
        <time>2010-01-02T22:30:08Z</time>
      </trkpt>
      <trkpt lat="46.19397" lon="6.69236">
        <ele>921</ele>
        <time>2010-01-02T22:30:17Z</time>
      </trkpt>
      <trkpt lat="46.19374" lon="6.69253">
        <ele>920</ele>
        <time>2010-01-02T22:30:27Z</time>
      </trkpt>
      <trkpt lat="46.19373" lon="6.69254">
        <ele>920</ele>
        <time>2010-01-02T22:30:28Z</time>
      </trkpt>
      <trkpt lat="46.19357" lon="6.69297">
        <ele>920</ele>
        <time>2010-01-02T22:30:41Z</time>
      </trkpt>
      <trkpt lat="46.19351" lon="6.69327">
        <ele>920</ele>
        <time>2010-01-02T22:30:50Z</time>
      </trkpt>
      <trkpt lat="46.19353" lon="6.69352">
        <ele>917</ele>
        <time>2010-01-02T22:30:57Z</time>
      </trkpt>
      <trkpt lat="46.19346" lon="6.6939">
        <ele>916</ele>
        <time>2010-01-02T22:31:08Z</time>
      </trkpt>
      <trkpt lat="46.19337" lon="6.69418">
        <ele>915</ele>
        <time>2010-01-02T22:31:16Z</time>
      </trkpt>
      <trkpt lat="46.19314" lon="6.69452">
        <ele>917</ele>
        <time>2010-01-02T22:31:30Z</time>
      </trkpt>
      <trkpt lat="46.19287" lon="6.69482">
        <ele>917</ele>
        <time>2010-01-02T22:31:43Z</time>
      </trkpt>
      <trkpt lat="46.19255" lon="6.69505">
        <ele>918</ele>
        <time>2010-01-02T22:31:57Z</time>
      </trkpt>
      <trkpt lat="46.19218" lon="6.69526">
        <ele>921</ele>
        <time>2010-01-02T22:32:13Z</time>
      </trkpt>
      <trkpt lat="46.19202" lon="6.69529">
        <ele>921</ele>
        <time>2010-01-02T22:32:20Z</time>
      </trkpt>
      <trkpt lat="46.1919" lon="6.69534">
        <ele>922</ele>
        <time>2010-01-02T22:32:25Z</time>
      </trkpt>
      <trkpt lat="46.19175" lon="6.69539">
        <ele>922</ele>
        <time>2010-01-02T22:32:31Z</time>
      </trkpt>
      <trkpt lat="46.19159" lon="6.69543">
        <ele>927</ele>
        <time>2010-01-02T22:32:38Z</time>
      </trkpt>
      <trkpt lat="46.19143" lon="6.6955">
        <ele>927</ele>
        <time>2010-01-02T22:32:44Z</time>
      </trkpt>
      <trkpt lat="46.19133" lon="6.69562">
        <ele>927</ele>
        <time>2010-01-02T22:32:49Z</time>
      </trkpt>
      <trkpt lat="46.19118" lon="6.6959">
        <ele>925</ele>
        <time>2010-01-02T22:32:59Z</time>
      </trkpt>
      <trkpt lat="46.19102" lon="6.69613">
        <ele>926</ele>
        <time>2010-01-02T22:33:08Z</time>
      </trkpt>
      <trkpt lat="46.191" lon="6.69616">
        <ele>926</ele>
        <time>2010-01-02T22:33:10Z</time>
      </trkpt>
      <trkpt lat="46.19081" lon="6.69638">
        <ele>929</ele>
        <time>2010-01-02T22:33:19Z</time>
      </trkpt>
      <trkpt lat="46.19052" lon="6.69647">
        <ele>929</ele>
        <time>2010-01-02T22:33:31Z</time>
      </trkpt>
      <trkpt lat="46.1902" lon="6.69647">
        <ele>929</ele>
        <time>2010-01-02T22:33:44Z</time>
      </trkpt>
      <trkpt lat="46.18993" lon="6.69657">
        <ele>931</ele>
        <time>2010-01-02T22:33:55Z</time>
      </trkpt>
      <trkpt lat="46.1897" lon="6.69682">
        <ele>931</ele>
        <time>2010-01-02T22:34:07Z</time>
      </trkpt>
      <trkpt lat="46.18947" lon="6.69709">
        <ele>932</ele>
        <time>2010-01-02T22:34:18Z</time>
      </trkpt>
      <trkpt lat="46.18924" lon="6.69745">
        <ele>929</ele>
        <time>2010-01-02T22:34:32Z</time>
      </trkpt>
      <trkpt lat="46.18907" lon="6.6977">
        <ele>931</ele>
        <time>2010-01-02T22:34:42Z</time>
      </trkpt>
      <trkpt lat="46.18886" lon="6.69784">
        <ele>932</ele>
        <time>2010-01-02T22:34:51Z</time>
      </trkpt>
      <trkpt lat="46.18855" lon="6.69798">
        <ele>932</ele>
        <time>2010-01-02T22:35:04Z</time>
      </trkpt>
      <trkpt lat="46.18854" lon="6.69799">
        <ele>932</ele>
        <time>2010-01-02T22:35:04Z</time>
      </trkpt>
      <trkpt lat="46.18811" lon="6.69815">
        <ele>936</ele>
        <time>2010-01-02T22:35:22Z</time>
      </trkpt>
      <trkpt lat="46.18785" lon="6.69834">
        <ele>933</ele>
        <time>2010-01-02T22:35:34Z</time>
      </trkpt>
      <trkpt lat="46.18783" lon="6.69836">
        <ele>933</ele>
        <time>2010-01-02T22:35:35Z</time>
      </trkpt>
      <trkpt lat="46.18758" lon="6.69866">
        <ele>934</ele>
        <time>2010-01-02T22:35:48Z</time>
      </trkpt>
      <trkpt lat="46.18757" lon="6.69868">
        <ele>933</ele>
        <time>2010-01-02T22:35:49Z</time>
      </trkpt>
      <trkpt lat="46.18742" lon="6.69895">
        <ele>938</ele>
        <time>2010-01-02T22:35:58Z</time>
      </trkpt>
      <trkpt lat="46.18741" lon="6.69896">
        <ele>938</ele>
        <time>2010-01-02T22:35:59Z</time>
      </trkpt>
      <trkpt lat="46.18738" lon="6.69935">
        <ele>935</ele>
        <time>2010-01-02T22:36:10Z</time>
      </trkpt>
      <trkpt lat="46.18738" lon="6.69985">
        <ele>936</ele>
        <time>2010-01-02T22:36:24Z</time>
      </trkpt>
      <trkpt lat="46.18718" lon="6.70027">
        <ele>938</ele>
        <time>2010-01-02T22:36:38Z</time>
      </trkpt>
      <trkpt lat="46.18717" lon="6.70031">
        <ele>939</ele>
        <time>2010-01-02T22:36:39Z</time>
      </trkpt>
      <trkpt lat="46.18706" lon="6.70066">
        <ele>940</ele>
        <time>2010-01-02T22:36:49Z</time>
      </trkpt>
      <trkpt lat="46.18706" lon="6.70068">
        <ele>940</ele>
        <time>2010-01-02T22:36:50Z</time>
      </trkpt>
      <trkpt lat="46.18692" lon="6.70105">
        <ele>944</ele>
        <time>2010-01-02T22:37:02Z</time>
      </trkpt>
      <trkpt lat="46.18673" lon="6.70134">
        <ele>944</ele>
        <time>2010-01-02T22:37:13Z</time>
      </trkpt>
      <trkpt lat="46.18645" lon="6.70167">
        <ele>944</ele>
        <time>2010-01-02T22:37:27Z</time>
      </trkpt>
      <trkpt lat="46.18594" lon="6.70202">
        <ele>945</ele>
        <time>2010-01-02T22:37:50Z</time>
      </trkpt>
      <trkpt lat="46.18552" lon="6.70247">
        <ele>945</ele>
        <time>2010-01-02T22:38:11Z</time>
      </trkpt>
      <trkpt lat="46.18547" lon="6.70253">
        <ele>945</ele>
        <time>2010-01-02T22:38:13Z</time>
      </trkpt>
      <trkpt lat="46.18511" lon="6.70293">
        <ele>944</ele>
        <time>2010-01-02T22:38:32Z</time>
      </trkpt>
      <trkpt lat="46.18492" lon="6.7032">
        <ele>945</ele>
        <time>2010-01-02T22:38:42Z</time>
      </trkpt>
      <trkpt lat="46.18469" lon="6.70353">
        <ele>946</ele>
        <time>2010-01-02T22:38:55Z</time>
      </trkpt>
      <trkpt lat="46.18439" lon="6.70394">
        <ele>947</ele>
        <time>2010-01-02T22:39:12Z</time>
      </trkpt>
      <trkpt lat="46.18436" lon="6.70397">
        <ele>946</ele>
        <time>2010-01-02T22:39:13Z</time>
      </trkpt>
      <trkpt lat="46.18402" lon="6.70435">
        <ele>947</ele>
        <time>2010-01-02T22:39:30Z</time>
      </trkpt>
      <trkpt lat="46.1837" lon="6.70473">
        <ele>949</ele>
        <time>2010-01-02T22:39:47Z</time>
      </trkpt>
      <trkpt lat="46.18353" lon="6.70499">
        <ele>949</ele>
        <time>2010-01-02T22:39:57Z</time>
      </trkpt>
      <trkpt lat="46.1834" lon="6.70526">
        <ele>953</ele>
        <time>2010-01-02T22:40:06Z</time>
      </trkpt>
      <trkpt lat="46.18339" lon="6.70527">
        <ele>953</ele>
        <time>2010-01-02T22:40:07Z</time>
      </trkpt>
      <trkpt lat="46.18316" lon="6.70555">
        <ele>951</ele>
        <time>2010-01-02T22:40:19Z</time>
      </trkpt>
      <trkpt lat="46.18314" lon="6.70558">
        <ele>951</ele>
        <time>2010-01-02T22:40:20Z</time>
      </trkpt>
      <trkpt lat="46.18288" lon="6.70581">
        <ele>951</ele>
        <time>2010-01-02T22:40:32Z</time>
      </trkpt>
      <trkpt lat="46.18262" lon="6.70604">
        <ele>957</ele>
        <time>2010-01-02T22:40:44Z</time>
      </trkpt>
      <trkpt lat="46.18261" lon="6.70605">
        <ele>957</ele>
        <time>2010-01-02T22:40:45Z</time>
      </trkpt>
      <trkpt lat="46.18195" lon="6.70642">
        <ele>955</ele>
        <time>2010-01-02T22:41:13Z</time>
      </trkpt>
      <trkpt lat="46.18146" lon="6.70687">
        <ele>955</ele>
        <time>2010-01-02T22:41:36Z</time>
      </trkpt>
      <trkpt lat="46.18118" lon="6.70721">
        <ele>956</ele>
        <time>2010-01-02T22:41:51Z</time>
      </trkpt>
      <trkpt lat="46.18085" lon="6.70751">
        <ele>954</ele>
        <time>2010-01-02T22:42:07Z</time>
      </trkpt>
      <trkpt lat="46.18019" lon="6.70794">
        <ele>959</ele>
        <time>2010-01-02T22:42:35Z</time>
      </trkpt>
      <trkpt lat="46.17987" lon="6.70822">
        <ele>961</ele>
        <time>2010-01-02T22:42:51Z</time>
      </trkpt>
      <trkpt lat="46.1796" lon="6.7085">
        <ele>964</ele>
        <time>2010-01-02T22:43:04Z</time>
      </trkpt>
      <trkpt lat="46.17946" lon="6.70864">
        <ele>964</ele>
        <time>2010-01-02T22:43:11Z</time>
      </trkpt>
      <trkpt lat="46.1789" lon="6.70865">
        <ele>966</ele>
        <time>2010-01-02T22:43:33Z</time>
      </trkpt>
      <trkpt lat="46.17873" lon="6.70881">
        <ele>967</ele>
        <time>2010-01-02T22:43:41Z</time>
      </trkpt>
      <trkpt lat="46.17849" lon="6.70898">
        <ele>967</ele>
        <time>2010-01-02T22:43:52Z</time>
      </trkpt>
      <trkpt lat="46.17778" lon="6.70909">
        <ele>970</ele>
        <time>2010-01-02T22:44:21Z</time>
      </trkpt>
      <trkpt lat="46.17739" lon="6.70898">
        <ele>971</ele>
        <time>2010-01-02T22:44:36Z</time>
      </trkpt>
      <trkpt lat="46.17712" lon="6.70882">
        <ele>973</ele>
        <time>2010-01-02T22:44:48Z</time>
      </trkpt>
      <trkpt lat="46.1768" lon="6.70902">
        <ele>972</ele>
        <time>2010-01-02T22:45:02Z</time>
      </trkpt>
      <trkpt lat="46.17668" lon="6.70934">
        <ele>971</ele>
        <time>2010-01-02T22:45:12Z</time>
      </trkpt>
      <trkpt lat="46.17658" lon="6.70959">
        <ele>975</ele>
        <time>2010-01-02T22:45:20Z</time>
      </trkpt>
      <trkpt lat="46.17638" lon="6.70994">
        <ele>976</ele>
        <time>2010-01-02T22:45:33Z</time>
      </trkpt>
      <trkpt lat="46.17624" lon="6.71016">
        <ele>982</ele>
        <time>2010-01-02T22:45:41Z</time>
      </trkpt>
      <trkpt lat="46.1761" lon="6.71026">
        <ele>982</ele>
        <time>2010-01-02T22:45:47Z</time>
      </trkpt>
      <trkpt lat="46.17589" lon="6.71025">
        <ele>981</ele>
        <time>2010-01-02T22:45:56Z</time>
      </trkpt>
      <trkpt lat="46.17578" lon="6.71009">
        <ele>978</ele>
        <time>2010-01-02T22:46:02Z</time>
      </trkpt>
      <trkpt lat="46.1757" lon="6.70988">
        <ele>981</ele>
        <time>2010-01-02T22:46:09Z</time>
      </trkpt>
      <trkpt lat="46.17568" lon="6.70941">
        <ele>985</ele>
        <time>2010-01-02T22:46:21Z</time>
      </trkpt>
      <trkpt lat="46.17572" lon="6.70912">
        <ele>988</ele>
        <time>2010-01-02T22:46:30Z</time>
      </trkpt>
      <trkpt lat="46.17584" lon="6.70891">
        <ele>983</ele>
        <time>2010-01-02T22:46:37Z</time>
      </trkpt>
      <trkpt lat="46.17593" lon="6.70881">
        <ele>983</ele>
        <time>2010-01-02T22:46:42Z</time>
      </trkpt>
      <trkpt lat="46.17604" lon="6.70864">
        <ele>985</ele>
        <time>2010-01-02T22:46:48Z</time>
      </trkpt>
      <trkpt lat="46.17659" lon="6.70811">
        <ele>988</ele>
        <time>2010-01-02T22:47:15Z</time>
      </trkpt>
      <trkpt lat="46.17683" lon="6.70788">
        <ele>985</ele>
        <time>2010-01-02T22:47:26Z</time>
      </trkpt>
      <trkpt lat="46.17696" lon="6.70763">
        <ele>987</ele>
        <time>2010-01-02T22:47:35Z</time>
      </trkpt>
      <trkpt lat="46.17731" lon="6.70708">
        <ele>989</ele>
        <time>2010-01-02T22:47:56Z</time>
      </trkpt>
      <trkpt lat="46.17738" lon="6.70692">
        <ele>989</ele>
        <time>2010-01-02T22:48:01Z</time>
      </trkpt>
      <trkpt lat="46.17742" lon="6.70682">
        <ele>988</ele>
        <time>2010-01-02T22:48:04Z</time>
      </trkpt>
      <trkpt lat="46.17742" lon="6.70676">
        <ele>988</ele>
        <time>2010-01-02T22:48:06Z</time>
      </trkpt>
      <trkpt lat="46.17746" lon="6.70665">
        <ele>988</ele>
        <time>2010-01-02T22:48:09Z</time>
      </trkpt>
      <trkpt lat="46.17753" lon="6.70662">
        <ele>987</ele>
        <time>2010-01-02T22:48:12Z</time>
      </trkpt>
      <trkpt lat="46.17758" lon="6.70667">
        <ele>987</ele>
        <time>2010-01-02T22:48:15Z</time>
      </trkpt>
      <trkpt lat="46.17762" lon="6.70665">
        <ele>986</ele>
        <time>2010-01-02T22:48:16Z</time>
      </trkpt>
      <trkpt lat="46.17826" lon="6.7056">
        <ele>986</ele>
        <time>2010-01-02T22:48:55Z</time>
      </trkpt>
      <trkpt lat="46.17843" lon="6.70531">
        <ele>984</ele>
        <time>2010-01-02T22:49:06Z</time>
      </trkpt>
      <trkpt lat="46.17931" lon="6.70401">
        <ele>984</ele>
        <time>2010-01-02T22:49:56Z</time>
      </trkpt>
      <trkpt lat="46.17993" lon="6.70303">
        <ele>984</ele>
        <time>2010-01-02T22:50:33Z</time>
      </trkpt>
      <trkpt lat="46.18039" lon="6.7023">
        <ele>980</ele>
        <time>2010-01-02T22:51:00Z</time>
      </trkpt>
      <trkpt lat="46.18044" lon="6.70219">
        <ele>980</ele>
        <time>2010-01-02T22:51:04Z</time>
      </trkpt>
      <trkpt lat="46.18032" lon="6.70203">
        <ele>981</ele>
        <time>2010-01-02T22:51:10Z</time>
      </trkpt>
      <trkpt lat="46.18016" lon="6.70178">
        <ele>982</ele>
        <time>2010-01-02T22:51:20Z</time>
      </trkpt>
      <trkpt lat="46.18004" lon="6.70169">
        <ele>983</ele>
        <time>2010-01-02T22:51:25Z</time>
      </trkpt>
      <trkpt lat="46.18003" lon="6.70169">
        <ele>984</ele>
        <time>2010-01-02T22:51:26Z</time>
      </trkpt>
      <trkpt lat="46.17987" lon="6.70154">
        <ele>988</ele>
        <time>2010-01-02T22:51:33Z</time>
      </trkpt>
      <trkpt lat="46.17974" lon="6.70136">
        <ele>991</ele>
        <time>2010-01-02T22:51:41Z</time>
      </trkpt>
      <trkpt lat="46.17962" lon="6.70134">
        <ele>992</ele>
        <time>2010-01-02T22:51:45Z</time>
      </trkpt>
      <trkpt lat="46.17852" lon="6.70031">
        <ele>1033</ele>
        <time>2010-01-02T22:52:38Z</time>
      </trkpt>
      <trkpt lat="46.17805" lon="6.70021">
        <ele>1062</ele>
        <time>2010-01-02T22:52:57Z</time>
      </trkpt>
      <trkpt lat="46.17709" lon="6.69911">
        <ele>1130</ele>
        <time>2010-01-02T22:53:46Z</time>
      </trkpt>
      <trkpt lat="46.17648" lon="6.69888">
        <ele>1167</ele>
        <time>2010-01-02T22:54:11Z</time>
      </trkpt>
      <trkpt lat="46.17582" lon="6.69757">
        <ele>1220</ele>
        <time>2010-01-02T22:54:56Z</time>
      </trkpt>
      <trkpt lat="46.17539" lon="6.69753">
        <ele>1222</ele>
        <time>2010-01-02T22:55:13Z</time>
      </trkpt>
      <trkpt lat="46.17422" lon="6.69627">
        <ele>1274</ele>
        <time>2010-01-02T22:56:12Z</time>
      </trkpt>
      <trkpt lat="46.17325" lon="6.69539">
        <ele>1315</ele>
        <time>2010-01-02T22:56:58Z</time>
      </trkpt>
      <trkpt lat="46.17218" lon="6.69447">
        <ele>1358</ele>
        <time>2010-01-02T22:57:47Z</time>
      </trkpt>
      <trkpt lat="46.17088" lon="6.69343">
        <ele>1428</ele>
        <time>2010-01-02T22:58:47Z</time>
      </trkpt>
      <trkpt lat="46.16968" lon="6.69204">
        <ele>1496</ele>
        <time>2010-01-02T22:59:49Z</time>
      </trkpt>
      <trkpt lat="46.1697" lon="6.69193">
        <ele>1496</ele>
        <time>2010-01-02T22:59:52Z</time>
      </trkpt>
      <trkpt lat="46.17002" lon="6.69169">
        <ele>1493</ele>
        <time>2010-01-02T23:00:06Z</time>
      </trkpt>
      <trkpt lat="46.17048" lon="6.69125">
        <ele>1483</ele>
        <time>2010-01-02T23:00:28Z</time>
      </trkpt>
      <trkpt lat="46.17078" lon="6.69093">
        <ele>1481</ele>
        <time>2010-01-02T23:00:43Z</time>
      </trkpt>
      <trkpt lat="46.17097" lon="6.69087">
        <ele>1476</ele>
        <time>2010-01-02T23:00:51Z</time>
      </trkpt>
      <trkpt lat="46.17123" lon="6.6912">
        <ele>1472</ele>
        <time>2010-01-02T23:01:05Z</time>
      </trkpt>
      <trkpt lat="46.17133" lon="6.69136">
        <ele>1470</ele>
        <time>2010-01-02T23:01:11Z</time>
      </trkpt>
      <trkpt lat="46.17144" lon="6.69137">
        <ele>1469</ele>
        <time>2010-01-02T23:01:15Z</time>
      </trkpt>
      <trkpt lat="46.17156" lon="6.69133">
        <ele>1469</ele>
        <time>2010-01-02T23:01:20Z</time>
      </trkpt>
      <trkpt lat="46.17165" lon="6.69124">
        <ele>1470</ele>
        <time>2010-01-02T23:01:25Z</time>
      </trkpt>
      <trkpt lat="46.17211" lon="6.69091">
        <ele>1458</ele>
        <time>2010-01-02T23:01:45Z</time>
      </trkpt>
      <trkpt lat="46.17217" lon="6.6907">
        <ele>1457</ele>
        <time>2010-01-02T23:01:51Z</time>
      </trkpt>
      <trkpt lat="46.17211" lon="6.69">
        <ele>1449</ele>
        <time>2010-01-02T23:02:11Z</time>
      </trkpt>
      <trkpt lat="46.17213" lon="6.68982">
        <ele>1448</ele>
        <time>2010-01-02T23:02:16Z</time>
      </trkpt>
      <trkpt lat="46.17225" lon="6.68953">
        <ele>1446</ele>
        <time>2010-01-02T23:02:25Z</time>
      </trkpt>
      <trkpt lat="46.17226" lon="6.68932">
        <ele>1444</ele>
        <time>2010-01-02T23:02:31Z</time>
      </trkpt>
      <trkpt lat="46.17217" lon="6.68917">
        <ele>1445</ele>
        <time>2010-01-02T23:02:37Z</time>
      </trkpt>
      <trkpt lat="46.17187" lon="6.68875">
        <ele>1441</ele>
        <time>2010-01-02T23:02:53Z</time>
      </trkpt>
      <trkpt lat="46.17181" lon="6.6885">
        <ele>1441</ele>
        <time>2010-01-02T23:03:01Z</time>
      </trkpt>
      <trkpt lat="46.1718" lon="6.68824">
        <ele>1437</ele>
        <time>2010-01-02T23:03:08Z</time>
      </trkpt>
      <trkpt lat="46.17174" lon="6.68781">
        <ele>1431</ele>
        <time>2010-01-02T23:03:20Z</time>
      </trkpt>
      <trkpt lat="46.1716" lon="6.68768">
        <ele>1439</ele>
        <time>2010-01-02T23:03:27Z</time>
      </trkpt>
      <trkpt lat="46.17131" lon="6.68744">
        <ele>1433</ele>
        <time>2010-01-02T23:03:40Z</time>
      </trkpt>
      <trkpt lat="46.1709" lon="6.68726">
        <ele>1436</ele>
        <time>2010-01-02T23:03:57Z</time>
      </trkpt>
      <trkpt lat="46.17041" lon="6.68714">
        <ele>1446</ele>
        <time>2010-01-02T23:04:17Z</time>
      </trkpt>
      <trkpt lat="46.17012" lon="6.68714">
        <ele>1448</ele>
        <time>2010-01-02T23:04:29Z</time>
      </trkpt>
      <trkpt lat="46.16985" lon="6.68701">
        <ele>1453</ele>
        <time>2010-01-02T23:04:40Z</time>
      </trkpt>
      <trkpt lat="46.16976" lon="6.68679">
        <ele>1451</ele>
        <time>2010-01-02T23:04:47Z</time>
      </trkpt>
      <trkpt lat="46.16955" lon="6.68662">
        <ele>1444</ele>
        <time>2010-01-02T23:04:57Z</time>
      </trkpt>
      <trkpt lat="46.16926" lon="6.68647">
        <ele>1445</ele>
        <time>2010-01-02T23:05:09Z</time>
      </trkpt>
      <trkpt lat="46.1688" lon="6.68621">
        <ele>1444</ele>
        <time>2010-01-02T23:05:29Z</time>
      </trkpt>
      <trkpt lat="46.16846" lon="6.68582">
        <ele>1434</ele>
        <time>2010-01-02T23:05:46Z</time>
      </trkpt>
      <trkpt lat="46.16839" lon="6.68581">
        <ele>1435</ele>
        <time>2010-01-02T23:05:49Z</time>
      </trkpt>
      <trkpt lat="46.16832" lon="6.6858">
        <ele>1436</ele>
        <time>2010-01-02T23:05:52Z</time>
      </trkpt>
      <trkpt lat="46.16806" lon="6.6859">
        <ele>1444</ele>
        <time>2010-01-02T23:06:03Z</time>
      </trkpt>
      <trkpt lat="46.16787" lon="6.6859">
        <ele>1445</ele>
        <time>2010-01-02T23:06:11Z</time>
      </trkpt>
      <trkpt lat="46.1677" lon="6.68588">
        <ele>1445</ele>
        <time>2010-01-02T23:06:17Z</time>
      </trkpt>
      <trkpt lat="46.16768" lon="6.68588">
        <ele>1445</ele>
        <time>2010-01-02T23:06:18Z</time>
      </trkpt>
      <trkpt lat="46.16737" lon="6.68577">
        <ele>1438</ele>
        <time>2010-01-02T23:06:31Z</time>
      </trkpt>
      <trkpt lat="46.16737" lon="6.68576">
        <ele>1437</ele>
        <time>2010-01-02T23:06:31Z</time>
      </trkpt>
      <trkpt lat="46.16711" lon="6.68563">
        <ele>1434</ele>
        <time>2010-01-02T23:06:42Z</time>
      </trkpt>
      <trkpt lat="46.16679" lon="6.68553">
        <ele>1433</ele>
        <time>2010-01-02T23:06:55Z</time>
      </trkpt>
      <trkpt lat="46.16654" lon="6.68547">
        <ele>1428</ele>
        <time>2010-01-02T23:07:05Z</time>
      </trkpt>
      <trkpt lat="46.1662" lon="6.6855">
        <ele>1427</ele>
        <time>2010-01-02T23:07:19Z</time>
      </trkpt>
      <trkpt lat="46.16614" lon="6.6855">
        <ele>1427</ele>
        <time>2010-01-02T23:07:21Z</time>
      </trkpt>
      <trkpt lat="46.1661" lon="6.68551">
        <ele>1427</ele>
        <time>2010-01-02T23:07:23Z</time>
      </trkpt>
      <trkpt lat="46.16585" lon="6.6855">
        <ele>1426</ele>
        <time>2010-01-02T23:07:33Z</time>
      </trkpt>
      <trkpt lat="46.16581" lon="6.6855">
        <ele>1426</ele>
        <time>2010-01-02T23:07:34Z</time>
      </trkpt>
      <trkpt lat="46.16554" lon="6.68538">
        <ele>1425</ele>
        <time>2010-01-02T23:07:46Z</time>
      </trkpt>
      <trkpt lat="46.16538" lon="6.68531">
        <ele>1425</ele>
        <time>2010-01-02T23:07:53Z</time>
      </trkpt>
      <trkpt lat="46.16526" lon="6.68532">
        <ele>1425</ele>
        <time>2010-01-02T23:07:57Z</time>
      </trkpt>
      <trkpt lat="46.16515" lon="6.68531">
        <ele>1425</ele>
        <time>2010-01-02T23:08:02Z</time>
      </trkpt>
      <trkpt lat="46.16468" lon="6.68492">
        <ele>1414</ele>
        <time>2010-01-02T23:08:23Z</time>
      </trkpt>
      <trkpt lat="46.16438" lon="6.68466">
        <ele>1414</ele>
        <time>2010-01-02T23:08:38Z</time>
      </trkpt>
      <trkpt lat="46.16429" lon="6.68457">
        <ele>1413</ele>
        <time>2010-01-02T23:08:42Z</time>
      </trkpt>
      <trkpt lat="46.16423" lon="6.68448">
        <ele>1412</ele>
        <time>2010-01-02T23:08:45Z</time>
      </trkpt>
      <trkpt lat="46.16414" lon="6.6844">
        <ele>1415</ele>
        <time>2010-01-02T23:08:50Z</time>
      </trkpt>
      <trkpt lat="46.16413" lon="6.68439">
        <ele>1415</ele>
        <time>2010-01-02T23:08:50Z</time>
      </trkpt>
      <trkpt lat="46.1641" lon="6.68439">
        <ele>1415</ele>
        <time>2010-01-02T23:08:51Z</time>
      </trkpt>
      <trkpt lat="46.1635" lon="6.68407">
        <ele>1407</ele>
        <time>2010-01-02T23:09:17Z</time>
      </trkpt>
      <trkpt lat="46.16317" lon="6.68378">
        <ele>1402</ele>
        <time>2010-01-02T23:09:32Z</time>
      </trkpt>
      <trkpt lat="46.16267" lon="6.68385">
        <ele>1402</ele>
        <time>2010-01-02T23:09:52Z</time>
      </trkpt>
      <trkpt lat="46.16222" lon="6.684">
        <ele>1397</ele>
        <time>2010-01-02T23:10:11Z</time>
      </trkpt>
      <trkpt lat="46.1614" lon="6.68437">
        <ele>1400</ele>
        <time>2010-01-02T23:10:45Z</time>
      </trkpt>
      <trkpt lat="46.16094" lon="6.68467">
        <ele>1401</ele>
        <time>2010-01-02T23:11:05Z</time>
      </trkpt>
      <trkpt lat="46.16037" lon="6.68515">
        <ele>1404</ele>
        <time>2010-01-02T23:11:32Z</time>
      </trkpt>
      <trkpt lat="46.16012" lon="6.68501">
        <ele>1397</ele>
        <time>2010-01-02T23:11:42Z</time>
      </trkpt>
      <trkpt lat="46.15994" lon="6.68494">
        <ele>1386</ele>
        <time>2010-01-02T23:11:50Z</time>
      </trkpt>
      <trkpt lat="46.15961" lon="6.68497">
        <ele>1380</ele>
        <time>2010-01-02T23:12:03Z</time>
      </trkpt>
      <trkpt lat="46.15938" lon="6.68488">
        <ele>1379</ele>
        <time>2010-01-02T23:12:13Z</time>
      </trkpt>
      <trkpt lat="46.15913" lon="6.68461">
        <ele>1376</ele>
        <time>2010-01-02T23:12:25Z</time>
      </trkpt>
      <trkpt lat="46.15885" lon="6.68439">
        <ele>1374</ele>
        <time>2010-01-02T23:12:38Z</time>
      </trkpt>
      <trkpt lat="46.15842" lon="6.68427">
        <ele>1372</ele>
        <time>2010-01-02T23:12:55Z</time>
      </trkpt>
      <trkpt lat="46.1583" lon="6.68385">
        <ele>1365</ele>
        <time>2010-01-02T23:13:08Z</time>
      </trkpt>
      <trkpt lat="46.15816" lon="6.68337">
        <ele>1360</ele>
        <time>2010-01-02T23:13:23Z</time>
      </trkpt>
      <trkpt lat="46.15773" lon="6.68274">
        <ele>1345</ele>
        <time>2010-01-02T23:13:47Z</time>
      </trkpt>
      <trkpt lat="46.15616" lon="6.68099">
        <ele>1324</ele>
        <time>2010-01-02T23:15:06Z</time>
      </trkpt>
      <trkpt lat="46.15601" lon="6.6805">
        <ele>1316</ele>
        <time>2010-01-02T23:15:21Z</time>
      </trkpt>
      <trkpt lat="46.15592" lon="6.68003">
        <ele>1315</ele>
        <time>2010-01-02T23:15:35Z</time>
      </trkpt>
      <trkpt lat="46.15585" lon="6.67896">
        <ele>1298</ele>
        <time>2010-01-02T23:16:05Z</time>
      </trkpt>
      <trkpt lat="46.15562" lon="6.67827">
        <ele>1294</ele>
        <time>2010-01-02T23:16:26Z</time>
      </trkpt>
      <trkpt lat="46.15536" lon="6.6777">
        <ele>1292</ele>
        <time>2010-01-02T23:16:45Z</time>
      </trkpt>
      <trkpt lat="46.15504" lon="6.6774">
        <ele>1286</ele>
        <time>2010-01-02T23:17:00Z</time>
      </trkpt>
      <trkpt lat="46.15471" lon="6.67708">
        <ele>1285</ele>
        <time>2010-01-02T23:17:16Z</time>
      </trkpt>
      <trkpt lat="46.15454" lon="6.67686">
        <ele>1284</ele>
        <time>2010-01-02T23:17:25Z</time>
      </trkpt>
      <trkpt lat="46.15441" lon="6.67667">
        <ele>1275</ele>
        <time>2010-01-02T23:17:33Z</time>
      </trkpt>
      <trkpt lat="46.15414" lon="6.6765">
        <ele>1277</ele>
        <time>2010-01-02T23:17:44Z</time>
      </trkpt>
      <trkpt lat="46.15407" lon="6.67625">
        <ele>1275</ele>
        <time>2010-01-02T23:17:52Z</time>
      </trkpt>
      <trkpt lat="46.15416" lon="6.67603">
        <ele>1272</ele>
        <time>2010-01-02T23:17:59Z</time>
      </trkpt>
      <trkpt lat="46.15409" lon="6.67579">
        <ele>1266</ele>
        <time>2010-01-02T23:18:06Z</time>
      </trkpt>
      <trkpt lat="46.1538" lon="6.67545">
        <ele>1265</ele>
        <time>2010-01-02T23:18:21Z</time>
      </trkpt>
      <trkpt lat="46.15362" lon="6.67513">
        <ele>1265</ele>
        <time>2010-01-02T23:18:33Z</time>
      </trkpt>
      <trkpt lat="46.15361" lon="6.67483">
        <ele>1258</ele>
        <time>2010-01-02T23:18:41Z</time>
      </trkpt>
      <trkpt lat="46.15404" lon="6.67423">
        <ele>1250</ele>
        <time>2010-01-02T23:19:05Z</time>
      </trkpt>
      <trkpt lat="46.15413" lon="6.67395">
        <ele>1247</ele>
        <time>2010-01-02T23:19:13Z</time>
      </trkpt>
      <trkpt lat="46.15421" lon="6.67376">
        <ele>1243</ele>
        <time>2010-01-02T23:19:19Z</time>
      </trkpt>
      <trkpt lat="46.15446" lon="6.67358">
        <ele>1242</ele>
        <time>2010-01-02T23:19:31Z</time>
      </trkpt>
      <trkpt lat="46.15461" lon="6.67344">
        <ele>1242</ele>
        <time>2010-01-02T23:19:38Z</time>
      </trkpt>
      <trkpt lat="46.15525" lon="6.67187">
        <ele>1237</ele>
        <time>2010-01-02T23:20:28Z</time>
      </trkpt>
      <trkpt lat="46.1559" lon="6.67124">
        <ele>1223</ele>
        <time>2010-01-02T23:21:00Z</time>
      </trkpt>
      <trkpt lat="46.15616" lon="6.67099">
        <ele>1221</ele>
        <time>2010-01-02T23:21:12Z</time>
      </trkpt>
      <trkpt lat="46.15614" lon="6.6708">
        <ele>1214</ele>
        <time>2010-01-02T23:21:17Z</time>
      </trkpt>
      <trkpt lat="46.15613" lon="6.6707">
        <ele>1213</ele>
        <time>2010-01-02T23:21:20Z</time>
      </trkpt>
      <trkpt lat="46.15637" lon="6.67069">
        <ele>1211</ele>
        <time>2010-01-02T23:21:30Z</time>
      </trkpt>
      <trkpt lat="46.15631" lon="6.67058">
        <ele>1210</ele>
        <time>2010-01-02T23:21:34Z</time>
      </trkpt>
      <trkpt lat="46.15628" lon="6.67045">
        <ele>1209</ele>
        <time>2010-01-02T23:21:38Z</time>
      </trkpt>
      <trkpt lat="46.15635" lon="6.67042">
        <ele>1208</ele>
        <time>2010-01-02T23:21:40Z</time>
      </trkpt>
      <trkpt lat="46.15644" lon="6.67047">
        <ele>1208</ele>
        <time>2010-01-02T23:21:44Z</time>
      </trkpt>
      <trkpt lat="46.15649" lon="6.67037">
        <ele>1206</ele>
        <time>2010-01-02T23:21:48Z</time>
      </trkpt>
      <trkpt lat="46.15644" lon="6.67028">
        <ele>1206</ele>
        <time>2010-01-02T23:21:51Z</time>
      </trkpt>
      <trkpt lat="46.15634" lon="6.67018">
        <ele>1206</ele>
        <time>2010-01-02T23:21:56Z</time>
      </trkpt>
      <trkpt lat="46.15635" lon="6.67005">
        <ele>1204</ele>
        <time>2010-01-02T23:22:00Z</time>
      </trkpt>
      <trkpt lat="46.15636" lon="6.67002">
        <ele>1204</ele>
        <time>2010-01-02T23:22:01Z</time>
      </trkpt>
      <trkpt lat="46.15646" lon="6.67007">
        <ele>1202</ele>
        <time>2010-01-02T23:22:04Z</time>
      </trkpt>
      <trkpt lat="46.15649" lon="6.6701">
        <ele>1201</ele>
        <time>2010-01-02T23:22:06Z</time>
      </trkpt>
      <trkpt lat="46.15666" lon="6.67019">
        <ele>1201</ele>
        <time>2010-01-02T23:22:13Z</time>
      </trkpt>
      <trkpt lat="46.15673" lon="6.67019">
        <ele>1192</ele>
        <time>2010-01-02T23:22:16Z</time>
      </trkpt>
      <trkpt lat="46.15674" lon="6.67012">
        <ele>1191</ele>
        <time>2010-01-02T23:22:18Z</time>
      </trkpt>
      <trkpt lat="46.15666" lon="6.66999">
        <ele>1191</ele>
        <time>2010-01-02T23:22:23Z</time>
      </trkpt>
      <trkpt lat="46.1566" lon="6.66989">
        <ele>1191</ele>
        <time>2010-01-02T23:22:27Z</time>
      </trkpt>
      <trkpt lat="46.15661" lon="6.6698">
        <ele>1191</ele>
        <time>2010-01-02T23:22:29Z</time>
      </trkpt>
      <trkpt lat="46.1567" lon="6.6698">
        <ele>1184</ele>
        <time>2010-01-02T23:22:33Z</time>
      </trkpt>
      <trkpt lat="46.15675" lon="6.66979">
        <ele>1183</ele>
        <time>2010-01-02T23:22:35Z</time>
      </trkpt>
      <trkpt lat="46.15671" lon="6.66966">
        <ele>1181</ele>
        <time>2010-01-02T23:22:39Z</time>
      </trkpt>
      <trkpt lat="46.15669" lon="6.6695">
        <ele>1179</ele>
        <time>2010-01-02T23:22:44Z</time>
      </trkpt>
      <trkpt lat="46.15664" lon="6.66937">
        <ele>1185</ele>
        <time>2010-01-02T23:22:48Z</time>
      </trkpt>
      <trkpt lat="46.15658" lon="6.66917">
        <ele>1181</ele>
        <time>2010-01-02T23:22:54Z</time>
      </trkpt>
      <trkpt lat="46.15651" lon="6.66893">
        <ele>1178</ele>
        <time>2010-01-02T23:23:01Z</time>
      </trkpt>
      <trkpt lat="46.1565" lon="6.66873">
        <ele>1178</ele>
        <time>2010-01-02T23:23:07Z</time>
      </trkpt>
      <trkpt lat="46.15651" lon="6.66872">
        <ele>1178</ele>
        <time>2010-01-02T23:23:07Z</time>
      </trkpt>
      <trkpt lat="46.15645" lon="6.66851">
        <ele>1177</ele>
        <time>2010-01-02T23:23:13Z</time>
      </trkpt>
      <trkpt lat="46.15646" lon="6.66829">
        <ele>1174</ele>
        <time>2010-01-02T23:23:19Z</time>
      </trkpt>
      <trkpt lat="46.15646" lon="6.66825">
        <ele>1174</ele>
        <time>2010-01-02T23:23:20Z</time>
      </trkpt>
      <trkpt lat="46.15653" lon="6.66812">
        <ele>1173</ele>
        <time>2010-01-02T23:23:25Z</time>
      </trkpt>
      <trkpt lat="46.15654" lon="6.66812">
        <ele>1173</ele>
        <time>2010-01-02T23:23:25Z</time>
      </trkpt>
      <trkpt lat="46.15675" lon="6.6681">
        <ele>1169</ele>
        <time>2010-01-02T23:23:34Z</time>
      </trkpt>
      <trkpt lat="46.1569" lon="6.66816">
        <ele>1168</ele>
        <time>2010-01-02T23:23:40Z</time>
      </trkpt>
      <trkpt lat="46.15679" lon="6.66824">
        <ele>1169</ele>
        <time>2010-01-02T23:23:45Z</time>
      </trkpt>
      <trkpt lat="46.15679" lon="6.66826">
        <ele>1169</ele>
        <time>2010-01-02T23:23:45Z</time>
      </trkpt>
      <trkpt lat="46.15673" lon="6.66838">
        <ele>1171</ele>
        <time>2010-01-02T23:23:49Z</time>
      </trkpt>
      <trkpt lat="46.15668" lon="6.66851">
        <ele>1171</ele>
        <time>2010-01-02T23:23:53Z</time>
      </trkpt>
      <trkpt lat="46.15599" lon="6.66972">
        <ele>1196</ele>
        <time>2010-01-02T23:24:37Z</time>
      </trkpt>
      <trkpt lat="46.15537" lon="6.67123">
        <ele>1232</ele>
        <time>2010-01-02T23:25:25Z</time>
      </trkpt>
      <trkpt lat="46.15403" lon="6.67485">
        <ele>1255</ele>
        <time>2010-01-02T23:27:19Z</time>
      </trkpt>
      <trkpt lat="46.15184" lon="6.67911">
        <ele>1343</ele>
        <time>2010-01-02T23:29:46Z</time>
      </trkpt>
      <trkpt lat="46.15119" lon="6.68089">
        <ele>1400</ele>
        <time>2010-01-02T23:30:42Z</time>
      </trkpt>
      <trkpt lat="46.15003" lon="6.68379">
        <ele>1461</ele>
        <time>2010-01-02T23:32:15Z</time>
      </trkpt>
      <trkpt lat="46.1487" lon="6.68704">
        <ele>1509</ele>
        <time>2010-01-02T23:34:00Z</time>
      </trkpt>
      <trkpt lat="46.14627" lon="6.69145">
        <ele>1577</ele>
        <time>2010-01-02T23:36:36Z</time>
      </trkpt>
      <trkpt lat="46.14513" lon="6.69396">
        <ele>1610</ele>
        <time>2010-01-02T23:37:59Z</time>
      </trkpt>
      <trkpt lat="46.14528" lon="6.69438">
        <ele>1606</ele>
        <time>2010-01-02T23:38:12Z</time>
      </trkpt>
      <trkpt lat="46.14568" lon="6.69422">
        <ele>1605</ele>
        <time>2010-01-02T23:38:29Z</time>
      </trkpt>
      <trkpt lat="46.14593" lon="6.69389">
        <ele>1603</ele>
        <time>2010-01-02T23:38:43Z</time>
      </trkpt>
      <trkpt lat="46.14622" lon="6.69343">
        <ele>1602</ele>
        <time>2010-01-02T23:39:00Z</time>
      </trkpt>
      <trkpt lat="46.14654" lon="6.69318">
        <ele>1599</ele>
        <time>2010-01-02T23:39:14Z</time>
      </trkpt>
      <trkpt lat="46.14685" lon="6.69318">
        <ele>1596</ele>
        <time>2010-01-02T23:39:27Z</time>
      </trkpt>
      <trkpt lat="46.14721" lon="6.69315">
        <ele>1593</ele>
        <time>2010-01-02T23:39:41Z</time>
      </trkpt>
      <trkpt lat="46.14752" lon="6.69313">
        <ele>1587</ele>
        <time>2010-01-02T23:39:54Z</time>
      </trkpt>
      <trkpt lat="46.14786" lon="6.6931">
        <ele>1584</ele>
        <time>2010-01-02T23:40:07Z</time>
      </trkpt>
      <trkpt lat="46.14793" lon="6.69307">
        <ele>1583</ele>
        <time>2010-01-02T23:40:10Z</time>
      </trkpt>
      <trkpt lat="46.14828" lon="6.69296">
        <ele>1581</ele>
        <time>2010-01-02T23:40:25Z</time>
      </trkpt>
      <trkpt lat="46.14843" lon="6.69305">
        <ele>1573</ele>
        <time>2010-01-02T23:40:31Z</time>
      </trkpt>
      <trkpt lat="46.14868" lon="6.69324">
        <ele>1572</ele>
        <time>2010-01-02T23:40:42Z</time>
      </trkpt>
      <trkpt lat="46.1489" lon="6.6934">
        <ele>1567</ele>
        <time>2010-01-02T23:40:52Z</time>
      </trkpt>
      <trkpt lat="46.14922" lon="6.69376">
        <ele>1560</ele>
        <time>2010-01-02T23:41:09Z</time>
      </trkpt>
      <trkpt lat="46.14942" lon="6.69395">
        <ele>1559</ele>
        <time>2010-01-02T23:41:18Z</time>
      </trkpt>
      <trkpt lat="46.1498" lon="6.69423">
        <ele>1555</ele>
        <time>2010-01-02T23:41:35Z</time>
      </trkpt>
      <trkpt lat="46.15004" lon="6.69439">
        <ele>1553</ele>
        <time>2010-01-02T23:41:46Z</time>
      </trkpt>
      <trkpt lat="46.15026" lon="6.69452">
        <ele>1551</ele>
        <time>2010-01-02T23:41:55Z</time>
      </trkpt>
      <trkpt lat="46.15044" lon="6.69457">
        <ele>1550</ele>
        <time>2010-01-02T23:42:03Z</time>
      </trkpt>
      <trkpt lat="46.15073" lon="6.69459">
        <ele>1550</ele>
        <time>2010-01-02T23:42:14Z</time>
      </trkpt>
      <trkpt lat="46.15097" lon="6.69456">
        <ele>1546</ele>
        <time>2010-01-02T23:42:24Z</time>
      </trkpt>
      <trkpt lat="46.15113" lon="6.69444">
        <ele>1545</ele>
        <time>2010-01-02T23:42:31Z</time>
      </trkpt>
      <trkpt lat="46.15125" lon="6.69433">
        <ele>1545</ele>
        <time>2010-01-02T23:42:37Z</time>
      </trkpt>
      <trkpt lat="46.15134" lon="6.69417">
        <ele>1544</ele>
        <time>2010-01-02T23:42:42Z</time>
      </trkpt>
      <trkpt lat="46.15146" lon="6.69405">
        <ele>1540</ele>
        <time>2010-01-02T23:42:48Z</time>
      </trkpt>
      <trkpt lat="46.15162" lon="6.69395">
        <ele>1540</ele>
        <time>2010-01-02T23:42:55Z</time>
      </trkpt>
      <trkpt lat="46.15164" lon="6.69394">
        <ele>1540</ele>
        <time>2010-01-02T23:42:56Z</time>
      </trkpt>
      <trkpt lat="46.15183" lon="6.69382">
        <ele>1531</ele>
        <time>2010-01-02T23:43:04Z</time>
      </trkpt>
      <trkpt lat="46.15189" lon="6.6938">
        <ele>1530</ele>
        <time>2010-01-02T23:43:07Z</time>
      </trkpt>
      <trkpt lat="46.15205" lon="6.69377">
        <ele>1529</ele>
        <time>2010-01-02T23:43:13Z</time>
      </trkpt>
      <trkpt lat="46.15205" lon="6.69376">
        <ele>1529</ele>
        <time>2010-01-02T23:43:14Z</time>
      </trkpt>
      <trkpt lat="46.15218" lon="6.69378">
        <ele>1528</ele>
        <time>2010-01-02T23:43:19Z</time>
      </trkpt>
      <trkpt lat="46.1522" lon="6.69379">
        <ele>1528</ele>
        <time>2010-01-02T23:43:19Z</time>
      </trkpt>
      <trkpt lat="46.15233" lon="6.69388">
        <ele>1527</ele>
        <time>2010-01-02T23:43:25Z</time>
      </trkpt>
      <trkpt lat="46.15235" lon="6.69389">
        <ele>1527</ele>
        <time>2010-01-02T23:43:26Z</time>
      </trkpt>
      <trkpt lat="46.15248" lon="6.69401">
        <ele>1526</ele>
        <time>2010-01-02T23:43:32Z</time>
      </trkpt>
      <trkpt lat="46.15262" lon="6.6941">
        <ele>1523</ele>
        <time>2010-01-02T23:43:38Z</time>
      </trkpt>
      <trkpt lat="46.15281" lon="6.69415">
        <ele>1521</ele>
        <time>2010-01-02T23:43:46Z</time>
      </trkpt>
      <trkpt lat="46.15282" lon="6.69414">
        <ele>1521</ele>
        <time>2010-01-02T23:43:47Z</time>
      </trkpt>
      <trkpt lat="46.153" lon="6.69414">
        <ele>1520</ele>
        <time>2010-01-02T23:43:54Z</time>
      </trkpt>
      <trkpt lat="46.15361" lon="6.69431">
        <ele>1518</ele>
        <time>2010-01-02T23:44:19Z</time>
      </trkpt>
      <trkpt lat="46.15362" lon="6.6943">
        <ele>1518</ele>
        <time>2010-01-02T23:44:19Z</time>
      </trkpt>
      <trkpt lat="46.1541" lon="6.69434">
        <ele>1522</ele>
        <time>2010-01-02T23:44:38Z</time>
      </trkpt>
      <trkpt lat="46.15427" lon="6.69424">
        <ele>1525</ele>
        <time>2010-01-02T23:44:46Z</time>
      </trkpt>
      <trkpt lat="46.1543" lon="6.69424">
        <ele>1524</ele>
        <time>2010-01-02T23:44:47Z</time>
      </trkpt>
      <trkpt lat="46.15433" lon="6.69424">
        <ele>1524</ele>
        <time>2010-01-02T23:44:48Z</time>
      </trkpt>
      <trkpt lat="46.15459" lon="6.69417">
        <ele>1526</ele>
        <time>2010-01-02T23:44:59Z</time>
      </trkpt>
      <trkpt lat="46.15462" lon="6.69416">
        <ele>1526</ele>
        <time>2010-01-02T23:45:00Z</time>
      </trkpt>
      <trkpt lat="46.15475" lon="6.69417">
        <ele>1522</ele>
        <time>2010-01-02T23:45:05Z</time>
      </trkpt>
      <trkpt lat="46.15477" lon="6.69418">
        <ele>1522</ele>
        <time>2010-01-02T23:45:06Z</time>
      </trkpt>
      <trkpt lat="46.15525" lon="6.69414">
        <ele>1525</ele>
        <time>2010-01-02T23:45:25Z</time>
      </trkpt>
      <trkpt lat="46.15526" lon="6.6941">
        <ele>1525</ele>
        <time>2010-01-02T23:45:26Z</time>
      </trkpt>
      <trkpt lat="46.15558" lon="6.69391">
        <ele>1524</ele>
        <time>2010-01-02T23:45:40Z</time>
      </trkpt>
      <trkpt lat="46.15558" lon="6.69391">
        <ele>1524</ele>
        <time>2010-01-02T23:45:40Z</time>
      </trkpt>
      <trkpt lat="46.15562" lon="6.69389">
        <ele>1524</ele>
        <time>2010-01-02T23:45:42Z</time>
      </trkpt>
      <trkpt lat="46.15593" lon="6.6938">
        <ele>1521</ele>
        <time>2010-01-02T23:45:54Z</time>
      </trkpt>
      <trkpt lat="46.15596" lon="6.69377">
        <ele>1521</ele>
        <time>2010-01-02T23:45:56Z</time>
      </trkpt>
      <trkpt lat="46.15598" lon="6.69376">
        <ele>1521</ele>
        <time>2010-01-02T23:45:57Z</time>
      </trkpt>
      <trkpt lat="46.15598" lon="6.69375">
        <ele>1521</ele>
        <time>2010-01-02T23:45:57Z</time>
      </trkpt>
      <trkpt lat="46.156" lon="6.69371">
        <ele>1521</ele>
        <time>2010-01-02T23:45:58Z</time>
      </trkpt>
      <trkpt lat="46.1561" lon="6.69363">
        <ele>1522</ele>
        <time>2010-01-02T23:46:03Z</time>
      </trkpt>
      <trkpt lat="46.1561" lon="6.69361">
        <ele>1522</ele>
        <time>2010-01-02T23:46:03Z</time>
      </trkpt>
      <trkpt lat="46.15658" lon="6.69333">
        <ele>1526</ele>
        <time>2010-01-02T23:46:24Z</time>
      </trkpt>
      <trkpt lat="46.15694" lon="6.69326">
        <ele>1517</ele>
        <time>2010-01-02T23:46:39Z</time>
      </trkpt>
      <trkpt lat="46.15721" lon="6.69296">
        <ele>1512</ele>
        <time>2010-01-02T23:46:52Z</time>
      </trkpt>
      <trkpt lat="46.15766" lon="6.6928">
        <ele>1501</ele>
        <time>2010-01-02T23:47:11Z</time>
      </trkpt>
      <trkpt lat="46.15816" lon="6.69262">
        <ele>1499</ele>
        <time>2010-01-02T23:47:32Z</time>
      </trkpt>
      <trkpt lat="46.15892" lon="6.69273">
        <ele>1497</ele>
        <time>2010-01-02T23:48:02Z</time>
      </trkpt>
      <trkpt lat="46.15941" lon="6.69326">
        <ele>1500</ele>
        <time>2010-01-02T23:48:27Z</time>
      </trkpt>
      <trkpt lat="46.15961" lon="6.6935">
        <ele>1498</ele>
        <time>2010-01-02T23:48:37Z</time>
      </trkpt>
      <trkpt lat="46.16014" lon="6.69366">
        <ele>1511</ele>
        <time>2010-01-02T23:48:59Z</time>
      </trkpt>
      <trkpt lat="46.16063" lon="6.69408">
        <ele>1520</ele>
        <time>2010-01-02T23:49:22Z</time>
      </trkpt>
      <trkpt lat="46.16097" lon="6.69454">
        <ele>1530</ele>
        <time>2010-01-02T23:49:40Z</time>
      </trkpt>
      <trkpt lat="46.16206" lon="6.69488">
        <ele>1538</ele>
        <time>2010-01-02T23:50:25Z</time>
      </trkpt>
      <trkpt lat="46.16247" lon="6.69473">
        <ele>1538</ele>
        <time>2010-01-02T23:50:42Z</time>
      </trkpt>
      <trkpt lat="46.16305" lon="6.69362">
        <ele>1540</ele>
        <time>2010-01-02T23:51:21Z</time>
      </trkpt>
      <trkpt lat="46.1641" lon="6.69316">
        <ele>1532</ele>
        <time>2010-01-02T23:52:04Z</time>
      </trkpt>
      <trkpt lat="46.16427" lon="6.69314">
        <ele>1529</ele>
        <time>2010-01-02T23:52:11Z</time>
      </trkpt>
      <trkpt lat="46.16486" lon="6.69301">
        <ele>1527</ele>
        <time>2010-01-02T23:52:35Z</time>
      </trkpt>
      <trkpt lat="46.16556" lon="6.69284">
        <ele>1527</ele>
        <time>2010-01-02T23:53:04Z</time>
      </trkpt>
      <trkpt lat="46.16623" lon="6.69288">
        <ele>1524</ele>
        <time>2010-01-02T23:53:31Z</time>
      </trkpt>
      <trkpt lat="46.16631" lon="6.69288">
        <ele>1524</ele>
        <time>2010-01-02T23:53:33Z</time>
      </trkpt>
      <trkpt lat="46.16714" lon="6.69259">
        <ele>1521</ele>
        <time>2010-01-02T23:54:08Z</time>
      </trkpt>
      <trkpt lat="46.16769" lon="6.6924">
        <ele>1519</ele>
        <time>2010-01-02T23:54:30Z</time>
      </trkpt>
      <trkpt lat="46.16856" lon="6.69218">
        <ele>1509</ele>
        <time>2010-01-02T23:55:06Z</time>
      </trkpt>
      <trkpt lat="46.16881" lon="6.69216">
        <ele>1507</ele>
        <time>2010-01-02T23:55:16Z</time>
      </trkpt>
      <trkpt lat="46.16905" lon="6.69214">
        <ele>1506</ele>
        <time>2010-01-02T23:55:26Z</time>
      </trkpt>
      <trkpt lat="46.16975" lon="6.69214">
        <ele>1495</ele>
        <time>2010-01-02T23:55:54Z</time>
      </trkpt>
      <trkpt lat="46.16824" lon="6.69224">
        <ele>1515</ele>
        <time>2010-01-02T23:56:54Z</time>
      </trkpt>
      <trkpt lat="46.16725" lon="6.69271">
        <ele>1519</ele>
        <time>2010-01-02T23:57:36Z</time>
      </trkpt>
      <trkpt lat="46.16664" lon="6.6928">
        <ele>1525</ele>
        <time>2010-01-02T23:58:00Z</time>
      </trkpt>
      <trkpt lat="46.16617" lon="6.69301">
        <ele>1523</ele>
        <time>2010-01-02T23:58:20Z</time>
      </trkpt>
      <trkpt lat="46.16561" lon="6.69306">
        <ele>1525</ele>
        <time>2010-01-02T23:58:43Z</time>
      </trkpt>
      <trkpt lat="46.16512" lon="6.69307">
        <ele>1525</ele>
        <time>2010-01-02T23:59:02Z</time>
      </trkpt>
      <trkpt lat="46.16472" lon="6.69308">
        <ele>1527</ele>
        <time>2010-01-02T23:59:18Z</time>
      </trkpt>
      <trkpt lat="46.16418" lon="6.69324">
        <ele>1530</ele>
        <time>2010-01-02T23:59:40Z</time>
      </trkpt>
      <trkpt lat="46.16459" lon="6.69328">
        <ele>1528</ele>
        <time>2010-01-02T23:59:57Z</time>
      </trkpt>
      <trkpt lat="46.16513" lon="6.69334">
        <ele>1516</ele>
        <time>2010-01-03T00:00:19Z</time>
      </trkpt>
      <trkpt lat="46.16548" lon="6.69348">
        <ele>1510</ele>
        <time>2010-01-03T00:00:33Z</time>
      </trkpt>
      <trkpt lat="46.16614" lon="6.69354">
        <ele>1502</ele>
        <time>2010-01-03T00:01:00Z</time>
      </trkpt>
      <trkpt lat="46.16679" lon="6.69355">
        <ele>1494</ele>
        <time>2010-01-03T00:01:26Z</time>
      </trkpt>
      <trkpt lat="46.16743" lon="6.69358">
        <ele>1490</ele>
        <time>2010-01-03T00:01:51Z</time>
      </trkpt>
      <trkpt lat="46.16851" lon="6.69377">
        <ele>1474</ele>
        <time>2010-01-03T00:02:35Z</time>
      </trkpt>
      <trkpt lat="46.16911" lon="6.69391">
        <ele>1468</ele>
        <time>2010-01-03T00:02:59Z</time>
      </trkpt>
      <trkpt lat="46.16959" lon="6.69401">
        <ele>1459</ele>
        <time>2010-01-03T00:03:19Z</time>
      </trkpt>
      <trkpt lat="46.17" lon="6.69412">
        <ele>1444</ele>
        <time>2010-01-03T00:03:36Z</time>
      </trkpt>
      <trkpt lat="46.16983" lon="6.69418">
        <ele>1441</ele>
        <time>2010-01-03T00:03:43Z</time>
      </trkpt>
      <trkpt lat="46.16961" lon="6.6944">
        <ele>1439</ele>
        <time>2010-01-03T00:03:54Z</time>
      </trkpt>
      <trkpt lat="46.16938" lon="6.69449">
        <ele>1439</ele>
        <time>2010-01-03T00:04:03Z</time>
      </trkpt>
      <trkpt lat="46.16909" lon="6.6946">
        <ele>1438</ele>
        <time>2010-01-03T00:04:15Z</time>
      </trkpt>
      <trkpt lat="46.1684" lon="6.69476">
        <ele>1431</ele>
        <time>2010-01-03T00:04:43Z</time>
      </trkpt>
      <trkpt lat="46.16748" lon="6.69513">
        <ele>1418</ele>
        <time>2010-01-03T00:05:21Z</time>
      </trkpt>
      <trkpt lat="46.16666" lon="6.69555">
        <ele>1416</ele>
        <time>2010-01-03T00:05:56Z</time>
      </trkpt>
      <trkpt lat="46.16613" lon="6.69574">
        <ele>1415</ele>
        <time>2010-01-03T00:06:18Z</time>
      </trkpt>
      <trkpt lat="46.166" lon="6.69575">
        <ele>1413</ele>
        <time>2010-01-03T00:06:23Z</time>
      </trkpt>
      <trkpt lat="46.16594" lon="6.69576">
        <ele>1412</ele>
        <time>2010-01-03T00:06:25Z</time>
      </trkpt>
      <trkpt lat="46.16596" lon="6.69584">
        <ele>1399</ele>
        <time>2010-01-03T00:06:28Z</time>
      </trkpt>
      <trkpt lat="46.1661" lon="6.69596">
        <ele>1394</ele>
        <time>2010-01-03T00:06:34Z</time>
      </trkpt>
      <trkpt lat="46.16645" lon="6.69611">
        <ele>1391</ele>
        <time>2010-01-03T00:06:49Z</time>
      </trkpt>
      <trkpt lat="46.16671" lon="6.69626">
        <ele>1384</ele>
        <time>2010-01-03T00:07:00Z</time>
      </trkpt>
      <trkpt lat="46.16705" lon="6.69636">
        <ele>1381</ele>
        <time>2010-01-03T00:07:14Z</time>
      </trkpt>
      <trkpt lat="46.16721" lon="6.69636">
        <ele>1380</ele>
        <time>2010-01-03T00:07:20Z</time>
      </trkpt>
      <trkpt lat="46.16742" lon="6.69641">
        <ele>1377</ele>
        <time>2010-01-03T00:07:29Z</time>
      </trkpt>
      <trkpt lat="46.16749" lon="6.69644">
        <ele>1375</ele>
        <time>2010-01-03T00:07:32Z</time>
      </trkpt>
      <trkpt lat="46.16764" lon="6.6965">
        <ele>1369</ele>
        <time>2010-01-03T00:07:38Z</time>
      </trkpt>
      <trkpt lat="46.16782" lon="6.69648">
        <ele>1369</ele>
        <time>2010-01-03T00:07:45Z</time>
      </trkpt>
      <trkpt lat="46.16801" lon="6.69644">
        <ele>1367</ele>
        <time>2010-01-03T00:07:53Z</time>
      </trkpt>
      <trkpt lat="46.16814" lon="6.69649">
        <ele>1364</ele>
        <time>2010-01-03T00:07:58Z</time>
      </trkpt>
      <trkpt lat="46.16836" lon="6.69676">
        <ele>1346</ele>
        <time>2010-01-03T00:08:10Z</time>
      </trkpt>
      <trkpt lat="46.16841" lon="6.69679">
        <ele>1345</ele>
        <time>2010-01-03T00:08:12Z</time>
      </trkpt>
      <trkpt lat="46.16859" lon="6.69702">
        <ele>1341</ele>
        <time>2010-01-03T00:08:22Z</time>
      </trkpt>
      <trkpt lat="46.16867" lon="6.69715">
        <ele>1340</ele>
        <time>2010-01-03T00:08:27Z</time>
      </trkpt>
      <trkpt lat="46.16867" lon="6.69715">
        <ele>1340</ele>
        <time>2010-01-03T00:08:27Z</time>
      </trkpt>
      <trkpt lat="46.16895" lon="6.69728">
        <ele>1338</ele>
        <time>2010-01-03T00:08:39Z</time>
      </trkpt>
      <trkpt lat="46.16898" lon="6.69729">
        <ele>1338</ele>
        <time>2010-01-03T00:08:40Z</time>
      </trkpt>
      <trkpt lat="46.16972" lon="6.69766">
        <ele>1322</ele>
        <time>2010-01-03T00:09:11Z</time>
      </trkpt>
      <trkpt lat="46.17028" lon="6.6979">
        <ele>1314</ele>
        <time>2010-01-03T00:09:35Z</time>
      </trkpt>
      <trkpt lat="46.17059" lon="6.69798">
        <ele>1311</ele>
        <time>2010-01-03T00:09:47Z</time>
      </trkpt>
      <trkpt lat="46.1709" lon="6.69797">
        <ele>1303</ele>
        <time>2010-01-03T00:09:59Z</time>
      </trkpt>
      <trkpt lat="46.17117" lon="6.69786">
        <ele>1303</ele>
        <time>2010-01-03T00:10:11Z</time>
      </trkpt>
      <trkpt lat="46.17153" lon="6.69773">
        <ele>1301</ele>
        <time>2010-01-03T00:10:26Z</time>
      </trkpt>
      <trkpt lat="46.17184" lon="6.69745">
        <ele>1306</ele>
        <time>2010-01-03T00:10:40Z</time>
      </trkpt>
      <trkpt lat="46.17215" lon="6.69725">
        <ele>1307</ele>
        <time>2010-01-03T00:10:54Z</time>
      </trkpt>
      <trkpt lat="46.17223" lon="6.69723">
        <ele>1307</ele>
        <time>2010-01-03T00:10:57Z</time>
      </trkpt>
      <trkpt lat="46.17264" lon="6.69679">
        <ele>1305</ele>
        <time>2010-01-03T00:11:18Z</time>
      </trkpt>
      <trkpt lat="46.17289" lon="6.69644">
        <ele>1308</ele>
        <time>2010-01-03T00:11:31Z</time>
      </trkpt>
      <trkpt lat="46.17306" lon="6.69602">
        <ele>1308</ele>
        <time>2010-01-03T00:11:45Z</time>
      </trkpt>
      <trkpt lat="46.1732" lon="6.69569">
        <ele>1311</ele>
        <time>2010-01-03T00:11:56Z</time>
      </trkpt>
      <trkpt lat="46.17336" lon="6.69545">
        <ele>1302</ele>
        <time>2010-01-03T00:12:05Z</time>
      </trkpt>
      <trkpt lat="46.17356" lon="6.69521">
        <ele>1302</ele>
        <time>2010-01-03T00:12:15Z</time>
      </trkpt>
      <trkpt lat="46.17357" lon="6.6952">
        <ele>1302</ele>
        <time>2010-01-03T00:12:16Z</time>
      </trkpt>
      <trkpt lat="46.17379" lon="6.69497">
        <ele>1305</ele>
        <time>2010-01-03T00:12:27Z</time>
      </trkpt>
      <trkpt lat="46.17394" lon="6.69478">
        <ele>1304</ele>
        <time>2010-01-03T00:12:35Z</time>
      </trkpt>
      <trkpt lat="46.17408" lon="6.69459">
        <ele>1305</ele>
        <time>2010-01-03T00:12:42Z</time>
      </trkpt>
      <trkpt lat="46.17412" lon="6.69449">
        <ele>1305</ele>
        <time>2010-01-03T00:12:46Z</time>
      </trkpt>
      <trkpt lat="46.17418" lon="6.69431">
        <ele>1299</ele>
        <time>2010-01-03T00:12:51Z</time>
      </trkpt>
      <trkpt lat="46.1743" lon="6.6941">
        <ele>1305</ele>
        <time>2010-01-03T00:12:59Z</time>
      </trkpt>
      <trkpt lat="46.17443" lon="6.69385">
        <ele>1307</ele>
        <time>2010-01-03T00:13:07Z</time>
      </trkpt>
      <trkpt lat="46.17459" lon="6.69359">
        <ele>1309</ele>
        <time>2010-01-03T00:13:17Z</time>
      </trkpt>
      <trkpt lat="46.17506" lon="6.69364">
        <ele>1303</ele>
        <time>2010-01-03T00:13:36Z</time>
      </trkpt>
      <trkpt lat="46.17547" lon="6.69371">
        <ele>1298</ele>
        <time>2010-01-03T00:13:52Z</time>
      </trkpt>
      <trkpt lat="46.17576" lon="6.69366">
        <ele>1297</ele>
        <time>2010-01-03T00:14:04Z</time>
      </trkpt>
      <trkpt lat="46.17602" lon="6.69352">
        <ele>1289</ele>
        <time>2010-01-03T00:14:15Z</time>
      </trkpt>
      <trkpt lat="46.17649" lon="6.69292">
        <ele>1292</ele>
        <time>2010-01-03T00:14:40Z</time>
      </trkpt>
      <trkpt lat="46.1766" lon="6.69247">
        <ele>1292</ele>
        <time>2010-01-03T00:14:54Z</time>
      </trkpt>
      <trkpt lat="46.17682" lon="6.69223">
        <ele>1287</ele>
        <time>2010-01-03T00:15:05Z</time>
      </trkpt>
      <trkpt lat="46.17692" lon="6.69217">
        <ele>1287</ele>
        <time>2010-01-03T00:15:09Z</time>
      </trkpt>
      <trkpt lat="46.17725" lon="6.69188">
        <ele>1285</ele>
        <time>2010-01-03T00:15:24Z</time>
      </trkpt>
      <trkpt lat="46.17761" lon="6.69157">
        <ele>1279</ele>
        <time>2010-01-03T00:15:41Z</time>
      </trkpt>
      <trkpt lat="46.17768" lon="6.69128">
        <ele>1278</ele>
        <time>2010-01-03T00:15:50Z</time>
      </trkpt>
      <trkpt lat="46.17787" lon="6.69118">
        <ele>1276</ele>
        <time>2010-01-03T00:15:58Z</time>
      </trkpt>
      <trkpt lat="46.17815" lon="6.69097">
        <ele>1271</ele>
        <time>2010-01-03T00:16:11Z</time>
      </trkpt>
      <trkpt lat="46.1785" lon="6.69079">
        <ele>1259</ele>
        <time>2010-01-03T00:16:25Z</time>
      </trkpt>
      <trkpt lat="46.17893" lon="6.69067">
        <ele>1252</ele>
        <time>2010-01-03T00:16:43Z</time>
      </trkpt>
      <trkpt lat="46.17925" lon="6.69056">
        <ele>1240</ele>
        <time>2010-01-03T00:16:56Z</time>
      </trkpt>
      <trkpt lat="46.17951" lon="6.6905">
        <ele>1236</ele>
        <time>2010-01-03T00:17:06Z</time>
      </trkpt>
      <trkpt lat="46.1799" lon="6.69074">
        <ele>1230</ele>
        <time>2010-01-03T00:17:24Z</time>
      </trkpt>
      <trkpt lat="46.18018" lon="6.69075">
        <ele>1222</ele>
        <time>2010-01-03T00:17:35Z</time>
      </trkpt>
      <trkpt lat="46.18035" lon="6.69059">
        <ele>1220</ele>
        <time>2010-01-03T00:17:43Z</time>
      </trkpt>
      <trkpt lat="46.18076" lon="6.69028">
        <ele>1218</ele>
        <time>2010-01-03T00:18:01Z</time>
      </trkpt>
      <trkpt lat="46.18114" lon="6.68981">
        <ele>1210</ele>
        <time>2010-01-03T00:18:21Z</time>
      </trkpt>
      <trkpt lat="46.18117" lon="6.68969">
        <ele>1209</ele>
        <time>2010-01-03T00:18:25Z</time>
      </trkpt>
      <trkpt lat="46.18148" lon="6.6893">
        <ele>1205</ele>
        <time>2010-01-03T00:18:41Z</time>
      </trkpt>
      <trkpt lat="46.18194" lon="6.68892">
        <ele>1188</ele>
        <time>2010-01-03T00:19:02Z</time>
      </trkpt>
      <trkpt lat="46.18243" lon="6.68852">
        <ele>1180</ele>
        <time>2010-01-03T00:19:25Z</time>
      </trkpt>
      <trkpt lat="46.18328" lon="6.68857">
        <ele>1173</ele>
        <time>2010-01-03T00:19:59Z</time>
      </trkpt>
      <trkpt lat="46.18411" lon="6.68873">
        <ele>1162</ele>
        <time>2010-01-03T00:20:32Z</time>
      </trkpt>
      <trkpt lat="46.18476" lon="6.68926">
        <ele>1146</ele>
        <time>2010-01-03T00:21:03Z</time>
      </trkpt>
      <trkpt lat="46.18522" lon="6.68989">
        <ele>1131</ele>
        <time>2010-01-03T00:21:28Z</time>
      </trkpt>
      <trkpt lat="46.18547" lon="6.69062">
        <ele>1114</ele>
        <time>2010-01-03T00:21:50Z</time>
      </trkpt>
      <trkpt lat="46.18541" lon="6.69143">
        <ele>1101</ele>
        <time>2010-01-03T00:22:13Z</time>
      </trkpt>
      <trkpt lat="46.18459" lon="6.69268">
        <ele>1079</ele>
        <time>2010-01-03T00:23:01Z</time>
      </trkpt>
      <trkpt lat="46.18356" lon="6.69342">
        <ele>1075</ele>
        <time>2010-01-03T00:23:47Z</time>
      </trkpt>
      <trkpt lat="46.18297" lon="6.69436">
        <ele>1058</ele>
        <time>2010-01-03T00:24:22Z</time>
      </trkpt>
      <trkpt lat="46.18216" lon="6.69582">
        <ele>1045</ele>
        <time>2010-01-03T00:25:14Z</time>
      </trkpt>
      <trkpt lat="46.18168" lon="6.69636">
        <ele>1028</ele>
        <time>2010-01-03T00:25:38Z</time>
      </trkpt>
      <trkpt lat="46.18137" lon="6.69687">
        <ele>1034</ele>
        <time>2010-01-03T00:25:57Z</time>
      </trkpt>
      <trkpt lat="46.18125" lon="6.69753">
        <ele>1016</ele>
        <time>2010-01-03T00:26:16Z</time>
      </trkpt>
      <trkpt lat="46.18085" lon="6.69798">
        <ele>1015</ele>
        <time>2010-01-03T00:26:36Z</time>
      </trkpt>
      <trkpt lat="46.18085" lon="6.69873">
        <ele>998</ele>
        <time>2010-01-03T00:26:57Z</time>
      </trkpt>
      <trkpt lat="46.18099" lon="6.69947">
        <ele>988</ele>
        <time>2010-01-03T00:27:18Z</time>
      </trkpt>
      <trkpt lat="46.18209" lon="6.70091">
        <ele>975</ele>
        <time>2010-01-03T00:28:18Z</time>
      </trkpt>
      <trkpt lat="46.1832" lon="6.70255">
        <ele>971</ele>
        <time>2010-01-03T00:29:21Z</time>
      </trkpt>
      <trkpt lat="46.18361" lon="6.70376">
        <ele>955</ele>
        <time>2010-01-03T00:29:59Z</time>
      </trkpt>
      <trkpt lat="46.18394" lon="6.70423">
        <ele>947</ele>
        <time>2010-01-03T00:30:17Z</time>
      </trkpt>
      <trkpt lat="46.18421" lon="6.70506">
        <ele>956</ele>
        <time>2010-01-03T00:30:43Z</time>
      </trkpt>
      <trkpt lat="46.18436" lon="6.70509">
        <ele>962</ele>
        <time>2010-01-03T00:30:49Z</time>
      </trkpt>
      <trkpt lat="46.18466" lon="6.70545">
        <ele>970</ele>
        <time>2010-01-03T00:31:04Z</time>
      </trkpt>
      <trkpt lat="46.18473" lon="6.70572">
        <ele>974</ele>
        <time>2010-01-03T00:31:12Z</time>
      </trkpt>
      <trkpt lat="46.18535" lon="6.70729">
        <ele>1031</ele>
        <time>2010-01-03T00:32:03Z</time>
      </trkpt>
      <trkpt lat="46.18659" lon="6.70836">
        <ele>1122</ele>
        <time>2010-01-03T00:33:00Z</time>
      </trkpt>
      <trkpt lat="46.18706" lon="6.70973">
        <ele>1181</ele>
        <time>2010-01-03T00:33:43Z</time>
      </trkpt>
      <trkpt lat="46.18814" lon="6.71177">
        <ele>1283</ele>
        <time>2010-01-03T00:34:54Z</time>
      </trkpt>
      <trkpt lat="46.1888" lon="6.71327">
        <ele>1331</ele>
        <time>2010-01-03T00:35:43Z</time>
      </trkpt>
      <trkpt lat="46.18955" lon="6.71477">
        <ele>1378</ele>
        <time>2010-01-03T00:36:34Z</time>
      </trkpt>
      <trkpt lat="46.19057" lon="6.71655">
        <ele>1426</ele>
        <time>2010-01-03T00:37:38Z</time>
      </trkpt>
      <trkpt lat="46.1911" lon="6.71769">
        <ele>1458</ele>
        <time>2010-01-03T00:38:16Z</time>
      </trkpt>
      <trkpt lat="46.19117" lon="6.71791">
        <ele>1460</ele>
        <time>2010-01-03T00:38:23Z</time>
      </trkpt>
      <trkpt lat="46.19117" lon="6.71812">
        <ele>1461</ele>
        <time>2010-01-03T00:38:29Z</time>
      </trkpt>
      <trkpt lat="46.19113" lon="6.71821">
        <ele>1461</ele>
        <time>2010-01-03T00:38:32Z</time>
      </trkpt>
      <trkpt lat="46.19106" lon="6.71822">
        <ele>1461</ele>
        <time>2010-01-03T00:38:34Z</time>
      </trkpt>
      <trkpt lat="46.19093" lon="6.71801">
        <ele>1460</ele>
        <time>2010-01-03T00:38:43Z</time>
      </trkpt>
      <trkpt lat="46.19092" lon="6.718">
        <ele>1460</ele>
        <time>2010-01-03T00:38:43Z</time>
      </trkpt>
      <trkpt lat="46.19075" lon="6.718">
        <ele>1454</ele>
        <time>2010-01-03T00:38:49Z</time>
      </trkpt>
      <trkpt lat="46.19062" lon="6.71799">
        <ele>1454</ele>
        <time>2010-01-03T00:38:55Z</time>
      </trkpt>
      <trkpt lat="46.1906" lon="6.71798">
        <ele>1453</ele>
        <time>2010-01-03T00:38:56Z</time>
      </trkpt>
      <trkpt lat="46.19052" lon="6.71794">
        <ele>1453</ele>
        <time>2010-01-03T00:38:59Z</time>
      </trkpt>
      <trkpt lat="46.19051" lon="6.71794">
        <ele>1453</ele>
        <time>2010-01-03T00:38:59Z</time>
      </trkpt>
      <trkpt lat="46.19043" lon="6.71787">
        <ele>1452</ele>
        <time>2010-01-03T00:39:03Z</time>
      </trkpt>
      <trkpt lat="46.1904" lon="6.71785">
        <ele>1451</ele>
        <time>2010-01-03T00:39:05Z</time>
      </trkpt>
      <trkpt lat="46.19038" lon="6.71785">
        <ele>1451</ele>
        <time>2010-01-03T00:39:05Z</time>
      </trkpt>
      <trkpt lat="46.19028" lon="6.71784">
        <ele>1451</ele>
        <time>2010-01-03T00:39:09Z</time>
      </trkpt>
      <trkpt lat="46.19027" lon="6.71794">
        <ele>1451</ele>
        <time>2010-01-03T00:39:12Z</time>
      </trkpt>
      <trkpt lat="46.19074" lon="6.7191">
        <ele>1471</ele>
        <time>2010-01-03T00:39:49Z</time>
      </trkpt>
      <trkpt lat="46.19145" lon="6.72053">
        <ele>1506</ele>
        <time>2010-01-03T00:40:38Z</time>
      </trkpt>
      <trkpt lat="46.19632" lon="6.73213">
        <ele>1741</ele>
        <time>2010-01-03T00:46:54Z</time>
      </trkpt>
      <trkpt lat="46.19629" lon="6.73293">
        <ele>1742</ele>
        <time>2010-01-03T00:47:16Z</time>
      </trkpt>
      <trkpt lat="46.19621" lon="6.73314">
        <ele>1742</ele>
        <time>2010-01-03T00:47:23Z</time>
      </trkpt>
      <trkpt lat="46.19609" lon="6.7335">
        <ele>1740</ele>
        <time>2010-01-03T00:47:34Z</time>
      </trkpt>
      <trkpt lat="46.19603" lon="6.7341">
        <ele>1740</ele>
        <time>2010-01-03T00:47:51Z</time>
      </trkpt>
      <trkpt lat="46.19621" lon="6.7348">
        <ele>1738</ele>
        <time>2010-01-03T00:48:11Z</time>
      </trkpt>
      <trkpt lat="46.19627" lon="6.73532">
        <ele>1737</ele>
        <time>2010-01-03T00:48:26Z</time>
      </trkpt>
      <trkpt lat="46.19657" lon="6.73591">
        <ele>1740</ele>
        <time>2010-01-03T00:48:46Z</time>
      </trkpt>
      <trkpt lat="46.19678" lon="6.73624">
        <ele>1738</ele>
        <time>2010-01-03T00:48:59Z</time>
      </trkpt>
      <trkpt lat="46.19719" lon="6.73677">
        <ele>1740</ele>
        <time>2010-01-03T00:49:21Z</time>
      </trkpt>
      <trkpt lat="46.19801" lon="6.73799">
        <ele>1750</ele>
        <time>2010-01-03T00:50:08Z</time>
      </trkpt>
      <trkpt lat="46.19873" lon="6.73958">
        <ele>1755</ele>
        <time>2010-01-03T00:51:00Z</time>
      </trkpt>
      <trkpt lat="46.19908" lon="6.74006">
        <ele>1754</ele>
        <time>2010-01-03T00:51:19Z</time>
      </trkpt>
      <trkpt lat="46.19932" lon="6.74043">
        <ele>1752</ele>
        <time>2010-01-03T00:51:34Z</time>
      </trkpt>
      <trkpt lat="46.1999" lon="6.74108">
        <ele>1756</ele>
        <time>2010-01-03T00:52:03Z</time>
      </trkpt>
      <trkpt lat="46.20023" lon="6.74197">
        <ele>1755</ele>
        <time>2010-01-03T00:52:31Z</time>
      </trkpt>
      <trkpt lat="46.20043" lon="6.74249">
        <ele>1754</ele>
        <time>2010-01-03T00:52:47Z</time>
      </trkpt>
      <trkpt lat="46.20046" lon="6.74277">
        <ele>1755</ele>
        <time>2010-01-03T00:52:55Z</time>
      </trkpt>
      <trkpt lat="46.2004" lon="6.74307">
        <ele>1755</ele>
        <time>2010-01-03T00:53:04Z</time>
      </trkpt>
      <trkpt lat="46.20036" lon="6.74364">
        <ele>1751</ele>
        <time>2010-01-03T00:53:20Z</time>
      </trkpt>
      <trkpt lat="46.20043" lon="6.74393">
        <ele>1750</ele>
        <time>2010-01-03T00:53:28Z</time>
      </trkpt>
      <trkpt lat="46.2005" lon="6.74449">
        <ele>1745</ele>
        <time>2010-01-03T00:53:44Z</time>
      </trkpt>
      <trkpt lat="46.20055" lon="6.74492">
        <ele>1745</ele>
        <time>2010-01-03T00:53:56Z</time>
      </trkpt>
      <trkpt lat="46.20056" lon="6.74526">
        <ele>1740</ele>
        <time>2010-01-03T00:54:06Z</time>
      </trkpt>
      <trkpt lat="46.20059" lon="6.74553">
        <ele>1739</ele>
        <time>2010-01-03T00:54:13Z</time>
      </trkpt>
      <trkpt lat="46.2006" lon="6.74555">
        <ele>1739</ele>
        <time>2010-01-03T00:54:14Z</time>
      </trkpt>
      <trkpt lat="46.20071" lon="6.74578">
        <ele>1740</ele>
        <time>2010-01-03T00:54:21Z</time>
      </trkpt>
      <trkpt lat="46.20073" lon="6.74604">
        <ele>1738</ele>
        <time>2010-01-03T00:54:29Z</time>
      </trkpt>
      <trkpt lat="46.20073" lon="6.74616">
        <ele>1737</ele>
        <time>2010-01-03T00:54:32Z</time>
      </trkpt>
      <trkpt lat="46.20072" lon="6.74645">
        <ele>1738</ele>
        <time>2010-01-03T00:54:40Z</time>
      </trkpt>
      <trkpt lat="46.20072" lon="6.74646">
        <ele>1738</ele>
        <time>2010-01-03T00:54:41Z</time>
      </trkpt>
      <trkpt lat="46.20078" lon="6.74707">
        <ele>1736</ele>
        <time>2010-01-03T00:54:57Z</time>
      </trkpt>
      <trkpt lat="46.20083" lon="6.74747">
        <ele>1742</ele>
        <time>2010-01-03T00:55:09Z</time>
      </trkpt>
      <trkpt lat="46.20093" lon="6.74841">
        <ele>1740</ele>
        <time>2010-01-03T00:55:35Z</time>
      </trkpt>
      <trkpt lat="46.20093" lon="6.74885">
        <ele>1738</ele>
        <time>2010-01-03T00:55:47Z</time>
      </trkpt>
      <trkpt lat="46.20107" lon="6.74982">
        <ele>1743</ele>
        <time>2010-01-03T00:56:15Z</time>
      </trkpt>
      <trkpt lat="46.20125" lon="6.75107">
        <ele>1750</ele>
        <time>2010-01-03T00:56:50Z</time>
      </trkpt>
      <trkpt lat="46.20133" lon="6.75199">
        <ele>1752</ele>
        <time>2010-01-03T00:57:16Z</time>
      </trkpt>
      <trkpt lat="46.20131" lon="6.75297">
        <ele>1755</ele>
        <time>2010-01-03T00:57:43Z</time>
      </trkpt>
      <trkpt lat="46.20121" lon="6.75378">
        <ele>1758</ele>
        <time>2010-01-03T00:58:06Z</time>
      </trkpt>
      <trkpt lat="46.20113" lon="6.75437">
        <ele>1759</ele>
        <time>2010-01-03T00:58:23Z</time>
      </trkpt>
      <trkpt lat="46.20108" lon="6.75467">
        <ele>1760</ele>
        <time>2010-01-03T00:58:31Z</time>
      </trkpt>
      <trkpt lat="46.20105" lon="6.75577">
        <ele>1761</ele>
        <time>2010-01-03T00:59:02Z</time>
      </trkpt>
      <trkpt lat="46.201" lon="6.75671">
        <ele>1763</ele>
        <time>2010-01-03T00:59:28Z</time>
      </trkpt>
      <trkpt lat="46.20097" lon="6.75695">
        <ele>1765</ele>
        <time>2010-01-03T00:59:34Z</time>
      </trkpt>
      <trkpt lat="46.20097" lon="6.75696">
        <ele>1765</ele>
        <time>2010-01-03T00:59:35Z</time>
      </trkpt>
      <trkpt lat="46.20084" lon="6.75723">
        <ele>1765</ele>
        <time>2010-01-03T00:59:44Z</time>
      </trkpt>
      <trkpt lat="46.20072" lon="6.75754">
        <ele>1761</ele>
        <time>2010-01-03T00:59:54Z</time>
      </trkpt>
      <trkpt lat="46.20069" lon="6.75758">
        <ele>1760</ele>
        <time>2010-01-03T00:59:55Z</time>
      </trkpt>
      <trkpt lat="46.20062" lon="6.75768">
        <ele>1759</ele>
        <time>2010-01-03T00:59:59Z</time>
      </trkpt>
      <trkpt lat="46.20056" lon="6.75785">
        <ele>1758</ele>
        <time>2010-01-03T01:00:04Z</time>
      </trkpt>
      <trkpt lat="46.20054" lon="6.75792">
        <ele>1758</ele>
        <time>2010-01-03T01:00:07Z</time>
      </trkpt>
      <trkpt lat="46.20054" lon="6.75812">
        <ele>1759</ele>
        <time>2010-01-03T01:00:12Z</time>
      </trkpt>
      <trkpt lat="46.20053" lon="6.7583">
        <ele>1759</ele>
        <time>2010-01-03T01:00:17Z</time>
      </trkpt>
      <trkpt lat="46.20054" lon="6.75847">
        <ele>1758</ele>
        <time>2010-01-03T01:00:22Z</time>
      </trkpt>
      <trkpt lat="46.20051" lon="6.75865">
        <ele>1756</ele>
        <time>2010-01-03T01:00:27Z</time>
      </trkpt>
      <trkpt lat="46.20042" lon="6.75879">
        <ele>1756</ele>
        <time>2010-01-03T01:00:32Z</time>
      </trkpt>
      <trkpt lat="46.20032" lon="6.75895">
        <ele>1756</ele>
        <time>2010-01-03T01:00:38Z</time>
      </trkpt>
      <trkpt lat="46.20025" lon="6.75907">
        <ele>1756</ele>
        <time>2010-01-03T01:00:42Z</time>
      </trkpt>
      <trkpt lat="46.20016" lon="6.7592">
        <ele>1753</ele>
        <time>2010-01-03T01:00:48Z</time>
      </trkpt>
      <trkpt lat="46.2002" lon="6.75928">
        <ele>1752</ele>
        <time>2010-01-03T01:00:51Z</time>
      </trkpt>
      <trkpt lat="46.2002" lon="6.75928">
        <ele>1752</ele>
        <time>2010-01-03T01:00:51Z</time>
      </trkpt>
      <trkpt lat="46.20032" lon="6.75924">
        <ele>1750</ele>
        <time>2010-01-03T01:00:55Z</time>
      </trkpt>
      <trkpt lat="46.20038" lon="6.75921">
        <ele>1750</ele>
        <time>2010-01-03T01:00:58Z</time>
      </trkpt>
      <trkpt lat="46.20038" lon="6.75942">
        <ele>1749</ele>
        <time>2010-01-03T01:01:04Z</time>
      </trkpt>
      <trkpt lat="46.20032" lon="6.75959">
        <ele>1748</ele>
        <time>2010-01-03T01:01:09Z</time>
      </trkpt>
      <trkpt lat="46.2003" lon="6.7596">
        <ele>1748</ele>
        <time>2010-01-03T01:01:10Z</time>
      </trkpt>
      <trkpt lat="46.20023" lon="6.75968">
        <ele>1749</ele>
        <time>2010-01-03T01:01:14Z</time>
      </trkpt>
      <trkpt lat="46.20019" lon="6.75978">
        <ele>1749</ele>
        <time>2010-01-03T01:01:17Z</time>
      </trkpt>
      <trkpt lat="46.20016" lon="6.75992">
        <ele>1750</ele>
        <time>2010-01-03T01:01:21Z</time>
      </trkpt>
      <trkpt lat="46.20016" lon="6.75992">
        <ele>1750</ele>
        <time>2010-01-03T01:01:21Z</time>
      </trkpt>
      <trkpt lat="46.20018" lon="6.76002">
        <ele>1745</ele>
        <time>2010-01-03T01:01:24Z</time>
      </trkpt>
      <trkpt lat="46.20029" lon="6.76">
        <ele>1747</ele>
        <time>2010-01-03T01:01:28Z</time>
      </trkpt>
      <trkpt lat="46.20029" lon="6.76">
        <ele>1747</ele>
        <time>2010-01-03T01:01:28Z</time>
      </trkpt>
      <trkpt lat="46.20033" lon="6.75997">
        <ele>1747</ele>
        <time>2010-01-03T01:01:30Z</time>
      </trkpt>
      <trkpt lat="46.20037" lon="6.75993">
        <ele>1746</ele>
        <time>2010-01-03T01:01:32Z</time>
      </trkpt>
      <trkpt lat="46.20039" lon="6.75997">
        <ele>1745</ele>
        <time>2010-01-03T01:01:34Z</time>
      </trkpt>
      <trkpt lat="46.20039" lon="6.75997">
        <ele>1745</ele>
        <time>2010-01-03T01:01:34Z</time>
      </trkpt>
      <trkpt lat="46.2004" lon="6.76008">
        <ele>1739</ele>
        <time>2010-01-03T01:01:37Z</time>
      </trkpt>
      <trkpt lat="46.20037" lon="6.76018">
        <ele>1739</ele>
        <time>2010-01-03T01:01:40Z</time>
      </trkpt>
      <trkpt lat="46.20039" lon="6.76028">
        <ele>1738</ele>
        <time>2010-01-03T01:01:43Z</time>
      </trkpt>
      <trkpt lat="46.2004" lon="6.76028">
        <ele>1738</ele>
        <time>2010-01-03T01:01:43Z</time>
      </trkpt>
      <trkpt lat="46.2006" lon="6.76056">
        <ele>1733</ele>
        <time>2010-01-03T01:01:54Z</time>
      </trkpt>
      <trkpt lat="46.20064" lon="6.76069">
        <ele>1729</ele>
        <time>2010-01-03T01:01:58Z</time>
      </trkpt>
      <trkpt lat="46.20065" lon="6.7608">
        <ele>1727</ele>
        <time>2010-01-03T01:02:01Z</time>
      </trkpt>
      <trkpt lat="46.20061" lon="6.76091">
        <ele>1725</ele>
        <time>2010-01-03T01:02:05Z</time>
      </trkpt>
      <trkpt lat="46.20065" lon="6.76119">
        <ele>1725</ele>
        <time>2010-01-03T01:02:12Z</time>
      </trkpt>
      <trkpt lat="46.20064" lon="6.76132">
        <ele>1724</ele>
        <time>2010-01-03T01:02:16Z</time>
      </trkpt>
      <trkpt lat="46.20061" lon="6.76143">
        <ele>1723</ele>
        <time>2010-01-03T01:02:19Z</time>
      </trkpt>
      <trkpt lat="46.2006" lon="6.76146">
        <ele>1723</ele>
        <time>2010-01-03T01:02:20Z</time>
      </trkpt>
      <trkpt lat="46.2006" lon="6.76146">
        <ele>1723</ele>
        <time>2010-01-03T01:02:20Z</time>
      </trkpt>
      <trkpt lat="46.20054" lon="6.76156">
        <ele>1724</ele>
        <time>2010-01-03T01:02:24Z</time>
      </trkpt>
      <trkpt lat="46.20053" lon="6.76158">
        <ele>1724</ele>
        <time>2010-01-03T01:02:24Z</time>
      </trkpt>
      <trkpt lat="46.20048" lon="6.76168">
        <ele>1721</ele>
        <time>2010-01-03T01:02:28Z</time>
      </trkpt>
      <trkpt lat="46.20048" lon="6.7617">
        <ele>1721</ele>
        <time>2010-01-03T01:02:29Z</time>
      </trkpt>
      <trkpt lat="46.20048" lon="6.76171">
        <ele>1721</ele>
        <time>2010-01-03T01:02:29Z</time>
      </trkpt>
      <trkpt lat="46.20045" lon="6.76183">
        <ele>1722</ele>
        <time>2010-01-03T01:02:32Z</time>
      </trkpt>
      <trkpt lat="46.20044" lon="6.76185">
        <ele>1722</ele>
        <time>2010-01-03T01:02:33Z</time>
      </trkpt>
      <trkpt lat="46.2004" lon="6.762">
        <ele>1722</ele>
        <time>2010-01-03T01:02:37Z</time>
      </trkpt>
      <trkpt lat="46.2004" lon="6.76203">
        <ele>1722</ele>
        <time>2010-01-03T01:02:38Z</time>
      </trkpt>
      <trkpt lat="46.20038" lon="6.76221">
        <ele>1722</ele>
        <time>2010-01-03T01:02:43Z</time>
      </trkpt>
      <trkpt lat="46.20039" lon="6.76222">
        <ele>1721</ele>
        <time>2010-01-03T01:02:44Z</time>
      </trkpt>
      <trkpt lat="46.20043" lon="6.76235">
        <ele>1719</ele>
        <time>2010-01-03T01:02:48Z</time>
      </trkpt>
      <trkpt lat="46.20043" lon="6.76235">
        <ele>1719</ele>
        <time>2010-01-03T01:02:48Z</time>
      </trkpt>
      <trkpt lat="46.20047" lon="6.76283">
        <ele>1713</ele>
        <time>2010-01-03T01:03:01Z</time>
      </trkpt>
      <trkpt lat="46.20045" lon="6.7631">
        <ele>1712</ele>
        <time>2010-01-03T01:03:09Z</time>
      </trkpt>
      <trkpt lat="46.20048" lon="6.76337">
        <ele>1710</ele>
        <time>2010-01-03T01:03:16Z</time>
      </trkpt>
      <trkpt lat="46.20049" lon="6.76338">
        <ele>1709</ele>
        <time>2010-01-03T01:03:17Z</time>
      </trkpt>
      <trkpt lat="46.2005" lon="6.76362">
        <ele>1710</ele>
        <time>2010-01-03T01:03:23Z</time>
      </trkpt>
      <trkpt lat="46.20057" lon="6.76398">
        <ele>1707</ele>
        <time>2010-01-03T01:03:34Z</time>
      </trkpt>
      <trkpt lat="46.20065" lon="6.76419">
        <ele>1703</ele>
        <time>2010-01-03T01:03:40Z</time>
      </trkpt>
      <trkpt lat="46.20072" lon="6.76445">
        <ele>1705</ele>
        <time>2010-01-03T01:03:48Z</time>
      </trkpt>
      <trkpt lat="46.20073" lon="6.7646">
        <ele>1707</ele>
        <time>2010-01-03T01:03:52Z</time>
      </trkpt>
      <trkpt lat="46.20073" lon="6.76461">
        <ele>1707</ele>
        <time>2010-01-03T01:03:53Z</time>
      </trkpt>
      <trkpt lat="46.2007" lon="6.7648">
        <ele>1705</ele>
        <time>2010-01-03T01:03:58Z</time>
      </trkpt>
      <trkpt lat="46.20076" lon="6.76484">
        <ele>1703</ele>
        <time>2010-01-03T01:04:01Z</time>
      </trkpt>
      <trkpt lat="46.20077" lon="6.76483">
        <ele>1703</ele>
        <time>2010-01-03T01:04:01Z</time>
      </trkpt>
      <trkpt lat="46.20078" lon="6.76482">
        <ele>1703</ele>
        <time>2010-01-03T01:04:02Z</time>
      </trkpt>
      <trkpt lat="46.20085" lon="6.76483">
        <ele>1686</ele>
        <time>2010-01-03T01:04:05Z</time>
      </trkpt>
      <trkpt lat="46.20092" lon="6.76487">
        <ele>1686</ele>
        <time>2010-01-03T01:04:07Z</time>
      </trkpt>
      <trkpt lat="46.20095" lon="6.76494">
        <ele>1686</ele>
        <time>2010-01-03T01:04:10Z</time>
      </trkpt>
      <trkpt lat="46.20095" lon="6.76495">
        <ele>1687</ele>
        <time>2010-01-03T01:04:10Z</time>
      </trkpt>
      <trkpt lat="46.20086" lon="6.76508">
        <ele>1689</ele>
        <time>2010-01-03T01:04:15Z</time>
      </trkpt>
      <trkpt lat="46.20105" lon="6.76537">
        <ele>1683</ele>
        <time>2010-01-03T01:04:27Z</time>
      </trkpt>
      <trkpt lat="46.20121" lon="6.76568">
        <ele>1682</ele>
        <time>2010-01-03T01:04:37Z</time>
      </trkpt>
      <trkpt lat="46.20126" lon="6.76589">
        <ele>1678</ele>
        <time>2010-01-03T01:04:44Z</time>
      </trkpt>
      <trkpt lat="46.20118" lon="6.76636">
        <ele>1676</ele>
        <time>2010-01-03T01:04:57Z</time>
      </trkpt>
      <trkpt lat="46.20112" lon="6.7666">
        <ele>1676</ele>
        <time>2010-01-03T01:05:04Z</time>
      </trkpt>
      <trkpt lat="46.20112" lon="6.76685">
        <ele>1669</ele>
        <time>2010-01-03T01:05:11Z</time>
      </trkpt>
      <trkpt lat="46.20112" lon="6.76685">
        <ele>1669</ele>
        <time>2010-01-03T01:05:11Z</time>
      </trkpt>
      <trkpt lat="46.20108" lon="6.76699">
        <ele>1668</ele>
        <time>2010-01-03T01:05:15Z</time>
      </trkpt>
      <trkpt lat="46.20107" lon="6.767">
        <ele>1668</ele>
        <time>2010-01-03T01:05:16Z</time>
      </trkpt>
      <trkpt lat="46.20097" lon="6.76723">
        <ele>1668</ele>
        <time>2010-01-03T01:05:23Z</time>
      </trkpt>
      <trkpt lat="46.20098" lon="6.76745">
        <ele>1669</ele>
        <time>2010-01-03T01:05:29Z</time>
      </trkpt>
      <trkpt lat="46.20098" lon="6.76745">
        <ele>1669</ele>
        <time>2010-01-03T01:05:29Z</time>
      </trkpt>
      <trkpt lat="46.20097" lon="6.76764">
        <ele>1665</ele>
        <time>2010-01-03T01:05:34Z</time>
      </trkpt>
      <trkpt lat="46.20097" lon="6.76767">
        <ele>1665</ele>
        <time>2010-01-03T01:05:35Z</time>
      </trkpt>
      <trkpt lat="46.20097" lon="6.76767">
        <ele>1665</ele>
        <time>2010-01-03T01:05:35Z</time>
      </trkpt>
      <trkpt lat="46.20099" lon="6.76786">
        <ele>1663</ele>
        <time>2010-01-03T01:05:41Z</time>
      </trkpt>
      <trkpt lat="46.20099" lon="6.76787">
        <ele>1663</ele>
        <time>2010-01-03T01:05:41Z</time>
      </trkpt>
      <trkpt lat="46.20101" lon="6.76805">
        <ele>1662</ele>
        <time>2010-01-03T01:05:46Z</time>
      </trkpt>
      <trkpt lat="46.20101" lon="6.76815">
        <ele>1663</ele>
        <time>2010-01-03T01:05:49Z</time>
      </trkpt>
      <trkpt lat="46.20124" lon="6.76822">
        <ele>1660</ele>
        <time>2010-01-03T01:05:58Z</time>
      </trkpt>
      <trkpt lat="46.20134" lon="6.7683">
        <ele>1659</ele>
        <time>2010-01-03T01:06:03Z</time>
      </trkpt>
      <trkpt lat="46.20139" lon="6.76842">
        <ele>1662</ele>
        <time>2010-01-03T01:06:07Z</time>
      </trkpt>
      <trkpt lat="46.20142" lon="6.76855">
        <ele>1663</ele>
        <time>2010-01-03T01:06:10Z</time>
      </trkpt>
      <trkpt lat="46.20143" lon="6.76857">
        <ele>1663</ele>
        <time>2010-01-03T01:06:11Z</time>
      </trkpt>
      <trkpt lat="46.20149" lon="6.76865">
        <ele>1664</ele>
        <time>2010-01-03T01:06:14Z</time>
      </trkpt>
      <trkpt lat="46.20151" lon="6.76866">
        <ele>1664</ele>
        <time>2010-01-03T01:06:15Z</time>
      </trkpt>
      <trkpt lat="46.20189" lon="6.76873">
        <ele>1656</ele>
        <time>2010-01-03T01:06:30Z</time>
      </trkpt>
      <trkpt lat="46.20203" lon="6.76879">
        <ele>1656</ele>
        <time>2010-01-03T01:06:36Z</time>
      </trkpt>
      <trkpt lat="46.20203" lon="6.76879">
        <ele>1656</ele>
        <time>2010-01-03T01:06:36Z</time>
      </trkpt>
      <trkpt lat="46.20216" lon="6.76882">
        <ele>1655</ele>
        <time>2010-01-03T01:06:42Z</time>
      </trkpt>
      <trkpt lat="46.20217" lon="6.76882">
        <ele>1655</ele>
        <time>2010-01-03T01:06:42Z</time>
      </trkpt>
      <trkpt lat="46.20227" lon="6.76886">
        <ele>1656</ele>
        <time>2010-01-03T01:06:46Z</time>
      </trkpt>
      <trkpt lat="46.20232" lon="6.76887">
        <ele>1656</ele>
        <time>2010-01-03T01:06:48Z</time>
      </trkpt>
      <trkpt lat="46.20294" lon="6.76883">
        <ele>1651</ele>
        <time>2010-01-03T01:07:13Z</time>
      </trkpt>
      <trkpt lat="46.20312" lon="6.76883">
        <ele>1652</ele>
        <time>2010-01-03T01:07:20Z</time>
      </trkpt>
      <trkpt lat="46.2032" lon="6.7688">
        <ele>1651</ele>
        <time>2010-01-03T01:07:24Z</time>
      </trkpt>
      <trkpt lat="46.20321" lon="6.7688">
        <ele>1651</ele>
        <time>2010-01-03T01:07:24Z</time>
      </trkpt>
      <trkpt lat="46.20333" lon="6.76877">
        <ele>1651</ele>
        <time>2010-01-03T01:07:29Z</time>
      </trkpt>
      <trkpt lat="46.20333" lon="6.76876">
        <ele>1651</ele>
        <time>2010-01-03T01:07:29Z</time>
      </trkpt>
      <trkpt lat="46.20348" lon="6.76874">
        <ele>1650</ele>
        <time>2010-01-03T01:07:35Z</time>
      </trkpt>
      <trkpt lat="46.20349" lon="6.76873">
        <ele>1650</ele>
        <time>2010-01-03T01:07:36Z</time>
      </trkpt>
      <trkpt lat="46.2039" lon="6.76862">
        <ele>1648</ele>
        <time>2010-01-03T01:07:52Z</time>
      </trkpt>
      <trkpt lat="46.20413" lon="6.76851">
        <ele>1646</ele>
        <time>2010-01-03T01:08:02Z</time>
      </trkpt>
      <trkpt lat="46.20426" lon="6.7684">
        <ele>1643</ele>
        <time>2010-01-03T01:08:08Z</time>
      </trkpt>
      <trkpt lat="46.20439" lon="6.76834">
        <ele>1642</ele>
        <time>2010-01-03T01:08:14Z</time>
      </trkpt>
      <trkpt lat="46.20448" lon="6.76839">
        <ele>1642</ele>
        <time>2010-01-03T01:08:17Z</time>
      </trkpt>
      <trkpt lat="46.20449" lon="6.76839">
        <ele>1642</ele>
        <time>2010-01-03T01:08:18Z</time>
      </trkpt>
      <trkpt lat="46.20457" lon="6.76851">
        <ele>1642</ele>
        <time>2010-01-03T01:08:22Z</time>
      </trkpt>
      <trkpt lat="46.20477" lon="6.7686">
        <ele>1641</ele>
        <time>2010-01-03T01:08:31Z</time>
      </trkpt>
      <trkpt lat="46.20485" lon="6.76861">
        <ele>1641</ele>
        <time>2010-01-03T01:08:34Z</time>
      </trkpt>
      <trkpt lat="46.20497" lon="6.76879">
        <ele>1641</ele>
        <time>2010-01-03T01:08:41Z</time>
      </trkpt>
      <trkpt lat="46.20497" lon="6.76915">
        <ele>1638</ele>
        <time>2010-01-03T01:08:51Z</time>
      </trkpt>
      <trkpt lat="46.20499" lon="6.76934">
        <ele>1642</ele>
        <time>2010-01-03T01:08:56Z</time>
      </trkpt>
      <trkpt lat="46.20499" lon="6.76937">
        <ele>1642</ele>
        <time>2010-01-03T01:08:57Z</time>
      </trkpt>
      <trkpt lat="46.20499" lon="6.76941">
        <ele>1643</ele>
        <time>2010-01-03T01:08:58Z</time>
      </trkpt>
      <trkpt lat="46.20498" lon="6.76972">
        <ele>1643</ele>
        <time>2010-01-03T01:09:07Z</time>
      </trkpt>
      <trkpt lat="46.20496" lon="6.76987">
        <ele>1641</ele>
        <time>2010-01-03T01:09:11Z</time>
      </trkpt>
      <trkpt lat="46.20499" lon="6.77067">
        <ele>1638</ele>
        <time>2010-01-03T01:09:33Z</time>
      </trkpt>
      <trkpt lat="46.20499" lon="6.77094">
        <ele>1634</ele>
        <time>2010-01-03T01:09:41Z</time>
      </trkpt>
      <trkpt lat="46.20496" lon="6.77108">
        <ele>1637</ele>
        <time>2010-01-03T01:09:45Z</time>
      </trkpt>
      <trkpt lat="46.20494" lon="6.77132">
        <ele>1636</ele>
        <time>2010-01-03T01:09:52Z</time>
      </trkpt>
      <trkpt lat="46.20494" lon="6.77135">
        <ele>1636</ele>
        <time>2010-01-03T01:09:52Z</time>
      </trkpt>
      <trkpt lat="46.20492" lon="6.77154">
        <ele>1633</ele>
        <time>2010-01-03T01:09:58Z</time>
      </trkpt>
      <trkpt lat="46.20492" lon="6.77156">
        <ele>1632</ele>
        <time>2010-01-03T01:09:58Z</time>
      </trkpt>
      <trkpt lat="46.20491" lon="6.77172">
        <ele>1630</ele>
        <time>2010-01-03T01:10:03Z</time>
      </trkpt>
      <trkpt lat="46.20491" lon="6.77173">
        <ele>1630</ele>
        <time>2010-01-03T01:10:03Z</time>
      </trkpt>
      <trkpt lat="46.2049" lon="6.77185">
        <ele>1632</ele>
        <time>2010-01-03T01:10:06Z</time>
      </trkpt>
      <trkpt lat="46.20484" lon="6.77218">
        <ele>1633</ele>
        <time>2010-01-03T01:10:16Z</time>
      </trkpt>
      <trkpt lat="46.20487" lon="6.77235">
        <ele>1631</ele>
        <time>2010-01-03T01:10:20Z</time>
      </trkpt>
      <trkpt lat="46.20488" lon="6.77237">
        <ele>1630</ele>
        <time>2010-01-03T01:10:21Z</time>
      </trkpt>
      <trkpt lat="46.20487" lon="6.77257">
        <ele>1626</ele>
        <time>2010-01-03T01:10:27Z</time>
      </trkpt>
      <trkpt lat="46.20487" lon="6.77259">
        <ele>1626</ele>
        <time>2010-01-03T01:10:27Z</time>
      </trkpt>
      <trkpt lat="46.20465" lon="6.7732">
        <ele>1625</ele>
        <time>2010-01-03T01:10:46Z</time>
      </trkpt>
      <trkpt lat="46.20457" lon="6.77343">
        <ele>1614</ele>
        <time>2010-01-03T01:10:54Z</time>
      </trkpt>
      <trkpt lat="46.20449" lon="6.77357">
        <ele>1614</ele>
        <time>2010-01-03T01:10:58Z</time>
      </trkpt>
      <trkpt lat="46.20441" lon="6.77368">
        <ele>1614</ele>
        <time>2010-01-03T01:11:03Z</time>
      </trkpt>
      <trkpt lat="46.2044" lon="6.77371">
        <ele>1613</ele>
        <time>2010-01-03T01:11:04Z</time>
      </trkpt>
      <trkpt lat="46.20427" lon="6.77391">
        <ele>1612</ele>
        <time>2010-01-03T01:11:11Z</time>
      </trkpt>
      <trkpt lat="46.20426" lon="6.77392">
        <ele>1612</ele>
        <time>2010-01-03T01:11:12Z</time>
      </trkpt>
      <trkpt lat="46.20415" lon="6.77407">
        <ele>1619</ele>
        <time>2010-01-03T01:11:18Z</time>
      </trkpt>
      <trkpt lat="46.20414" lon="6.77409">
        <ele>1618</ele>
        <time>2010-01-03T01:11:19Z</time>
      </trkpt>
      <trkpt lat="46.204" lon="6.77427">
        <ele>1615</ele>
        <time>2010-01-03T01:11:26Z</time>
      </trkpt>
      <trkpt lat="46.20399" lon="6.77431">
        <ele>1615</ele>
        <time>2010-01-03T01:11:27Z</time>
      </trkpt>
      <trkpt lat="46.20386" lon="6.77448">
        <ele>1616</ele>
        <time>2010-01-03T01:11:34Z</time>
      </trkpt>
      <trkpt lat="46.20384" lon="6.77453">
        <ele>1616</ele>
        <time>2010-01-03T01:11:36Z</time>
      </trkpt>
      <trkpt lat="46.20371" lon="6.77472">
        <ele>1617</ele>
        <time>2010-01-03T01:11:43Z</time>
      </trkpt>
      <trkpt lat="46.20363" lon="6.77488">
        <ele>1618</ele>
        <time>2010-01-03T01:11:49Z</time>
      </trkpt>
      <trkpt lat="46.20361" lon="6.77492">
        <ele>1618</ele>
        <time>2010-01-03T01:11:50Z</time>
      </trkpt>
      <trkpt lat="46.2036" lon="6.77505">
        <ele>1612</ele>
        <time>2010-01-03T01:11:54Z</time>
      </trkpt>
      <trkpt lat="46.2036" lon="6.77505">
        <ele>1612</ele>
        <time>2010-01-03T01:11:54Z</time>
      </trkpt>
      <trkpt lat="46.2036" lon="6.77511">
        <ele>1611</ele>
        <time>2010-01-03T01:11:55Z</time>
      </trkpt>
      <trkpt lat="46.20362" lon="6.77523">
        <ele>1609</ele>
        <time>2010-01-03T01:11:59Z</time>
      </trkpt>
      <trkpt lat="46.20363" lon="6.77546">
        <ele>1607</ele>
        <time>2010-01-03T01:12:05Z</time>
      </trkpt>
      <trkpt lat="46.20357" lon="6.77573">
        <ele>1609</ele>
        <time>2010-01-03T01:12:13Z</time>
      </trkpt>
      <trkpt lat="46.20358" lon="6.77592">
        <ele>1607</ele>
        <time>2010-01-03T01:12:18Z</time>
      </trkpt>
      <trkpt lat="46.20362" lon="6.77605">
        <ele>1605</ele>
        <time>2010-01-03T01:12:22Z</time>
      </trkpt>
      <trkpt lat="46.20366" lon="6.77621">
        <ele>1603</ele>
        <time>2010-01-03T01:12:27Z</time>
      </trkpt>
      <trkpt lat="46.20367" lon="6.77622">
        <ele>1603</ele>
        <time>2010-01-03T01:12:27Z</time>
      </trkpt>
      <trkpt lat="46.20372" lon="6.77638">
        <ele>1602</ele>
        <time>2010-01-03T01:12:32Z</time>
      </trkpt>
      <trkpt lat="46.20391" lon="6.77667">
        <ele>1598</ele>
        <time>2010-01-03T01:12:43Z</time>
      </trkpt>
      <trkpt lat="46.20388" lon="6.77687">
        <ele>1597</ele>
        <time>2010-01-03T01:12:49Z</time>
      </trkpt>
      <trkpt lat="46.20379" lon="6.77698">
        <ele>1599</ele>
        <time>2010-01-03T01:12:54Z</time>
      </trkpt>
      <trkpt lat="46.20374" lon="6.77711">
        <ele>1599</ele>
        <time>2010-01-03T01:12:58Z</time>
      </trkpt>
      <trkpt lat="46.20372" lon="6.77714">
        <ele>1599</ele>
        <time>2010-01-03T01:12:59Z</time>
      </trkpt>
      <trkpt lat="46.20359" lon="6.77736">
        <ele>1601</ele>
        <time>2010-01-03T01:13:07Z</time>
      </trkpt>
      <trkpt lat="46.20351" lon="6.77748">
        <ele>1603</ele>
        <time>2010-01-03T01:13:12Z</time>
      </trkpt>
      <trkpt lat="46.20338" lon="6.77776">
        <ele>1601</ele>
        <time>2010-01-03T01:13:21Z</time>
      </trkpt>
      <trkpt lat="46.20333" lon="6.77801">
        <ele>1600</ele>
        <time>2010-01-03T01:13:28Z</time>
      </trkpt>
      <trkpt lat="46.20333" lon="6.77817">
        <ele>1602</ele>
        <time>2010-01-03T01:13:33Z</time>
      </trkpt>
      <trkpt lat="46.20333" lon="6.77818">
        <ele>1615</ele>
        <time>2010-01-03T01:13:33Z</time>
      </trkpt>
      <trkpt lat="46.20338" lon="6.77839">
        <ele>1605</ele>
        <time>2010-01-03T01:13:39Z</time>
      </trkpt>
      <trkpt lat="46.20338" lon="6.7784">
        <ele>1604</ele>
        <time>2010-01-03T01:13:40Z</time>
      </trkpt>
      <trkpt lat="46.20342" lon="6.77856">
        <ele>1601</ele>
        <time>2010-01-03T01:13:44Z</time>
      </trkpt>
      <trkpt lat="46.20342" lon="6.77857">
        <ele>1600</ele>
        <time>2010-01-03T01:13:44Z</time>
      </trkpt>
      <trkpt lat="46.20344" lon="6.77871">
        <ele>1599</ele>
        <time>2010-01-03T01:13:48Z</time>
      </trkpt>
      <trkpt lat="46.20345" lon="6.77874">
        <ele>1599</ele>
        <time>2010-01-03T01:13:49Z</time>
      </trkpt>
      <trkpt lat="46.20345" lon="6.77878">
        <ele>1599</ele>
        <time>2010-01-03T01:13:50Z</time>
      </trkpt>
      <trkpt lat="46.20346" lon="6.779">
        <ele>1601</ele>
        <time>2010-01-03T01:13:57Z</time>
      </trkpt>
      <trkpt lat="46.20346" lon="6.77904">
        <ele>1602</ele>
        <time>2010-01-03T01:13:58Z</time>
      </trkpt>
      <trkpt lat="46.20342" lon="6.77914">
        <ele>1604</ele>
        <time>2010-01-03T01:14:01Z</time>
      </trkpt>
      <trkpt lat="46.20341" lon="6.77917">
        <ele>1605</ele>
        <time>2010-01-03T01:14:02Z</time>
      </trkpt>
      <trkpt lat="46.2034" lon="6.77919">
        <ele>1605</ele>
        <time>2010-01-03T01:14:02Z</time>
      </trkpt>
      <trkpt lat="46.20333" lon="6.77928">
        <ele>1609</ele>
        <time>2010-01-03T01:14:06Z</time>
      </trkpt>
      <trkpt lat="46.20332" lon="6.77928">
        <ele>1609</ele>
        <time>2010-01-03T01:14:06Z</time>
      </trkpt>
      <trkpt lat="46.2033" lon="6.77929">
        <ele>1609</ele>
        <time>2010-01-03T01:14:08Z</time>
      </trkpt>
      <trkpt lat="46.20328" lon="6.7793">
        <ele>1609</ele>
        <time>2010-01-03T01:14:08Z</time>
      </trkpt>
      <trkpt lat="46.20324" lon="6.77932">
        <ele>1609</ele>
        <time>2010-01-03T01:14:10Z</time>
      </trkpt>
      <trkpt lat="46.20323" lon="6.77933">
        <ele>1609</ele>
        <time>2010-01-03T01:14:10Z</time>
      </trkpt>
      <trkpt lat="46.20321" lon="6.77936">
        <ele>1609</ele>
        <time>2010-01-03T01:14:11Z</time>
      </trkpt>
      <trkpt lat="46.20319" lon="6.7794">
        <ele>1609</ele>
        <time>2010-01-03T01:14:13Z</time>
      </trkpt>
      <trkpt lat="46.20318" lon="6.77941">
        <ele>1609</ele>
        <time>2010-01-03T01:14:13Z</time>
      </trkpt>
      <trkpt lat="46.20303" lon="6.77949">
        <ele>1610</ele>
        <time>2010-01-03T01:14:20Z</time>
      </trkpt>
      <trkpt lat="46.20298" lon="6.77958">
        <ele>1610</ele>
        <time>2010-01-03T01:14:23Z</time>
      </trkpt>
      <trkpt lat="46.20298" lon="6.7796">
        <ele>1610</ele>
        <time>2010-01-03T01:14:24Z</time>
      </trkpt>
      <trkpt lat="46.20294" lon="6.77974">
        <ele>1609</ele>
        <time>2010-01-03T01:14:28Z</time>
      </trkpt>
      <trkpt lat="46.20293" lon="6.77977">
        <ele>1609</ele>
        <time>2010-01-03T01:14:29Z</time>
      </trkpt>
      <trkpt lat="46.20288" lon="6.77995">
        <ele>1608</ele>
        <time>2010-01-03T01:14:34Z</time>
      </trkpt>
      <trkpt lat="46.20289" lon="6.78011">
        <ele>1601</ele>
        <time>2010-01-03T01:14:39Z</time>
      </trkpt>
      <trkpt lat="46.20285" lon="6.78036">
        <ele>1600</ele>
        <time>2010-01-03T01:14:46Z</time>
      </trkpt>
      <trkpt lat="46.20269" lon="6.78048">
        <ele>1600</ele>
        <time>2010-01-03T01:14:53Z</time>
      </trkpt>
      <trkpt lat="46.20264" lon="6.78055">
        <ele>1600</ele>
        <time>2010-01-03T01:14:56Z</time>
      </trkpt>
      <trkpt lat="46.20247" lon="6.78075">
        <ele>1604</ele>
        <time>2010-01-03T01:15:04Z</time>
      </trkpt>
      <trkpt lat="46.20236" lon="6.7809">
        <ele>1603</ele>
        <time>2010-01-03T01:15:10Z</time>
      </trkpt>
      <trkpt lat="46.20232" lon="6.781">
        <ele>1605</ele>
        <time>2010-01-03T01:15:14Z</time>
      </trkpt>
      <trkpt lat="46.20228" lon="6.78115">
        <ele>1606</ele>
        <time>2010-01-03T01:15:18Z</time>
      </trkpt>
      <trkpt lat="46.20227" lon="6.78124">
        <ele>1606</ele>
        <time>2010-01-03T01:15:21Z</time>
      </trkpt>
      <trkpt lat="46.20226" lon="6.78125">
        <ele>1606</ele>
        <time>2010-01-03T01:15:21Z</time>
      </trkpt>
      <trkpt lat="46.20219" lon="6.78148">
        <ele>1605</ele>
        <time>2010-01-03T01:15:28Z</time>
      </trkpt>
      <trkpt lat="46.20216" lon="6.78154">
        <ele>1605</ele>
        <time>2010-01-03T01:15:30Z</time>
      </trkpt>
      <trkpt lat="46.20205" lon="6.78184">
        <ele>1600</ele>
        <time>2010-01-03T01:15:39Z</time>
      </trkpt>
      <trkpt lat="46.20204" lon="6.78189">
        <ele>1600</ele>
        <time>2010-01-03T01:15:41Z</time>
      </trkpt>
      <trkpt lat="46.20203" lon="6.78191">
        <ele>1600</ele>
        <time>2010-01-03T01:15:41Z</time>
      </trkpt>
      <trkpt lat="46.20202" lon="6.78192">
        <ele>1600</ele>
        <time>2010-01-03T01:15:42Z</time>
      </trkpt>
      <trkpt lat="46.20145" lon="6.78273">
        <ele>1608</ele>
        <time>2010-01-03T01:16:14Z</time>
      </trkpt>
      <trkpt lat="46.20131" lon="6.7828">
        <ele>1610</ele>
        <time>2010-01-03T01:16:20Z</time>
      </trkpt>
      <trkpt lat="46.20121" lon="6.78291">
        <ele>1610</ele>
        <time>2010-01-03T01:16:25Z</time>
      </trkpt>
      <trkpt lat="46.20116" lon="6.78309">
        <ele>1609</ele>
        <time>2010-01-03T01:16:30Z</time>
      </trkpt>
      <trkpt lat="46.20112" lon="6.78319">
        <ele>1609</ele>
        <time>2010-01-03T01:16:33Z</time>
      </trkpt>
      <trkpt lat="46.20111" lon="6.78334">
        <ele>1598</ele>
        <time>2010-01-03T01:16:38Z</time>
      </trkpt>
      <trkpt lat="46.20108" lon="6.78341">
        <ele>1599</ele>
        <time>2010-01-03T01:16:40Z</time>
      </trkpt>
      <trkpt lat="46.20091" lon="6.78372">
        <ele>1597</ele>
        <time>2010-01-03T01:16:51Z</time>
      </trkpt>
      <trkpt lat="46.20082" lon="6.78396">
        <ele>1610</ele>
        <time>2010-01-03T01:16:58Z</time>
      </trkpt>
      <trkpt lat="46.20078" lon="6.78417">
        <ele>1601</ele>
        <time>2010-01-03T01:17:04Z</time>
      </trkpt>
      <trkpt lat="46.20068" lon="6.78441">
        <ele>1604</ele>
        <time>2010-01-03T01:17:12Z</time>
      </trkpt>
      <trkpt lat="46.20064" lon="6.78463">
        <ele>1603</ele>
        <time>2010-01-03T01:17:18Z</time>
      </trkpt>
      <trkpt lat="46.20056" lon="6.78478">
        <ele>1603</ele>
        <time>2010-01-03T01:17:24Z</time>
      </trkpt>
      <trkpt lat="46.20049" lon="6.78505">
        <ele>1595</ele>
        <time>2010-01-03T01:17:32Z</time>
      </trkpt>
      <trkpt lat="46.20044" lon="6.78513">
        <ele>1595</ele>
        <time>2010-01-03T01:17:35Z</time>
      </trkpt>
      <trkpt lat="46.2004" lon="6.78524">
        <ele>1595</ele>
        <time>2010-01-03T01:17:38Z</time>
      </trkpt>
      <trkpt lat="46.20038" lon="6.78536">
        <ele>1595</ele>
        <time>2010-01-03T01:17:42Z</time>
      </trkpt>
      <trkpt lat="46.20034" lon="6.78552">
        <ele>1594</ele>
        <time>2010-01-03T01:17:46Z</time>
      </trkpt>
      <trkpt lat="46.2003" lon="6.78561">
        <ele>1594</ele>
        <time>2010-01-03T01:17:49Z</time>
      </trkpt>
      <trkpt lat="46.20027" lon="6.7857">
        <ele>1593</ele>
        <time>2010-01-03T01:17:52Z</time>
      </trkpt>
      <trkpt lat="46.20024" lon="6.78578">
        <ele>1593</ele>
        <time>2010-01-03T01:17:54Z</time>
      </trkpt>
      <trkpt lat="46.2002" lon="6.78584">
        <ele>1590</ele>
        <time>2010-01-03T01:17:57Z</time>
      </trkpt>
      <trkpt lat="46.20017" lon="6.78588">
        <ele>1590</ele>
        <time>2010-01-03T01:17:58Z</time>
      </trkpt>
      <trkpt lat="46.20013" lon="6.78589">
        <ele>1591</ele>
        <time>2010-01-03T01:18:00Z</time>
      </trkpt>
      <trkpt lat="46.20005" lon="6.78591">
        <ele>1592</ele>
        <time>2010-01-03T01:18:03Z</time>
      </trkpt>
      <trkpt lat="46.19992" lon="6.78582">
        <ele>1598</ele>
        <time>2010-01-03T01:18:09Z</time>
      </trkpt>
      <trkpt lat="46.19984" lon="6.78579">
        <ele>1600</ele>
        <time>2010-01-03T01:18:12Z</time>
      </trkpt>
      <trkpt lat="46.19954" lon="6.78582">
        <ele>1603</ele>
        <time>2010-01-03T01:18:24Z</time>
      </trkpt>
      <trkpt lat="46.19943" lon="6.78582">
        <ele>1602</ele>
        <time>2010-01-03T01:18:29Z</time>
      </trkpt>
      <trkpt lat="46.19931" lon="6.78586">
        <ele>1596</ele>
        <time>2010-01-03T01:18:33Z</time>
      </trkpt>
      <trkpt lat="46.19921" lon="6.78586">
        <ele>1597</ele>
        <time>2010-01-03T01:18:37Z</time>
      </trkpt>
      <trkpt lat="46.19908" lon="6.78596">
        <ele>1598</ele>
        <time>2010-01-03T01:18:43Z</time>
      </trkpt>
      <trkpt lat="46.19905" lon="6.78609">
        <ele>1597</ele>
        <time>2010-01-03T01:18:47Z</time>
      </trkpt>
      <trkpt lat="46.19897" lon="6.78634">
        <ele>1595</ele>
        <time>2010-01-03T01:18:55Z</time>
      </trkpt>
      <trkpt lat="46.19894" lon="6.78651">
        <ele>1593</ele>
        <time>2010-01-03T01:19:00Z</time>
      </trkpt>
      <trkpt lat="46.19891" lon="6.78664">
        <ele>1592</ele>
        <time>2010-01-03T01:19:03Z</time>
      </trkpt>
      <trkpt lat="46.19887" lon="6.78673">
        <ele>1588</ele>
        <time>2010-01-03T01:19:06Z</time>
      </trkpt>
      <trkpt lat="46.19885" lon="6.78686">
        <ele>1588</ele>
        <time>2010-01-03T01:19:10Z</time>
      </trkpt>
      <trkpt lat="46.19876" lon="6.787">
        <ele>1589</ele>
        <time>2010-01-03T01:19:15Z</time>
      </trkpt>
      <trkpt lat="46.19876" lon="6.78702">
        <ele>1589</ele>
        <time>2010-01-03T01:19:16Z</time>
      </trkpt>
      <trkpt lat="46.19879" lon="6.78735">
        <ele>1588</ele>
        <time>2010-01-03T01:19:25Z</time>
      </trkpt>
      <trkpt lat="46.19882" lon="6.78755">
        <ele>1589</ele>
        <time>2010-01-03T01:19:31Z</time>
      </trkpt>
      <trkpt lat="46.19901" lon="6.7876">
        <ele>1588</ele>
        <time>2010-01-03T01:19:39Z</time>
      </trkpt>
      <trkpt lat="46.19919" lon="6.78761">
        <ele>1588</ele>
        <time>2010-01-03T01:19:46Z</time>
      </trkpt>
      <trkpt lat="46.1992" lon="6.78761">
        <ele>1588</ele>
        <time>2010-01-03T01:19:46Z</time>
      </trkpt>
      <trkpt lat="46.19937" lon="6.78765">
        <ele>1591</ele>
        <time>2010-01-03T01:19:53Z</time>
      </trkpt>
      <trkpt lat="46.19952" lon="6.78759">
        <ele>1592</ele>
        <time>2010-01-03T01:19:59Z</time>
      </trkpt>
      <trkpt lat="46.19963" lon="6.78756">
        <ele>1593</ele>
        <time>2010-01-03T01:20:04Z</time>
      </trkpt>
      <trkpt lat="46.19965" lon="6.78755">
        <ele>1593</ele>
        <time>2010-01-03T01:20:04Z</time>
      </trkpt>
      <trkpt lat="46.19986" lon="6.7875">
        <ele>1590</ele>
        <time>2010-01-03T01:20:13Z</time>
      </trkpt>
      <trkpt lat="46.19997" lon="6.78739">
        <ele>1591</ele>
        <time>2010-01-03T01:20:18Z</time>
      </trkpt>
      <trkpt lat="46.19999" lon="6.78736">
        <ele>1590</ele>
        <time>2010-01-03T01:20:20Z</time>
      </trkpt>
      <trkpt lat="46.20013" lon="6.78724">
        <ele>1591</ele>
        <time>2010-01-03T01:20:26Z</time>
      </trkpt>
      <trkpt lat="46.20015" lon="6.78723">
        <ele>1591</ele>
        <time>2010-01-03T01:20:27Z</time>
      </trkpt>
      <trkpt lat="46.20056" lon="6.7872">
        <ele>1591</ele>
        <time>2010-01-03T01:20:43Z</time>
      </trkpt>
      <trkpt lat="46.20076" lon="6.78723">
        <ele>1592</ele>
        <time>2010-01-03T01:20:52Z</time>
      </trkpt>
      <trkpt lat="46.20103" lon="6.78723">
        <ele>1592</ele>
        <time>2010-01-03T01:21:02Z</time>
      </trkpt>
      <trkpt lat="46.20107" lon="6.78727">
        <ele>1592</ele>
        <time>2010-01-03T01:21:04Z</time>
      </trkpt>
      <trkpt lat="46.2012" lon="6.78735">
        <ele>1591</ele>
        <time>2010-01-03T01:21:10Z</time>
      </trkpt>
      <trkpt lat="46.20134" lon="6.78739">
        <ele>1591</ele>
        <time>2010-01-03T01:21:16Z</time>
      </trkpt>
      <trkpt lat="46.20135" lon="6.78739">
        <ele>1591</ele>
        <time>2010-01-03T01:21:16Z</time>
      </trkpt>
      <trkpt lat="46.2015" lon="6.78733">
        <ele>1590</ele>
        <time>2010-01-03T01:21:22Z</time>
      </trkpt>
      <trkpt lat="46.20166" lon="6.78736">
        <ele>1591</ele>
        <time>2010-01-03T01:21:29Z</time>
      </trkpt>
      <trkpt lat="46.20177" lon="6.78735">
        <ele>1588</ele>
        <time>2010-01-03T01:21:33Z</time>
      </trkpt>
      <trkpt lat="46.20205" lon="6.78744">
        <ele>1586</ele>
        <time>2010-01-03T01:21:44Z</time>
      </trkpt>
      <trkpt lat="46.20228" lon="6.78742">
        <ele>1585</ele>
        <time>2010-01-03T01:21:54Z</time>
      </trkpt>
      <trkpt lat="46.20249" lon="6.78733">
        <ele>1585</ele>
        <time>2010-01-03T01:22:02Z</time>
      </trkpt>
      <trkpt lat="46.20265" lon="6.78715">
        <ele>1582</ele>
        <time>2010-01-03T01:22:11Z</time>
      </trkpt>
      <trkpt lat="46.20325" lon="6.78663">
        <ele>1575</ele>
        <time>2010-01-03T01:22:38Z</time>
      </trkpt>
      <trkpt lat="46.20356" lon="6.78636">
        <ele>1579</ele>
        <time>2010-01-03T01:22:53Z</time>
      </trkpt>
      <trkpt lat="46.20379" lon="6.78602">
        <ele>1579</ele>
        <time>2010-01-03T01:23:06Z</time>
      </trkpt>
      <trkpt lat="46.20396" lon="6.7857">
        <ele>1571</ele>
        <time>2010-01-03T01:23:18Z</time>
      </trkpt>
      <trkpt lat="46.2045" lon="6.7853">
        <ele>1579</ele>
        <time>2010-01-03T01:23:42Z</time>
      </trkpt>
      <trkpt lat="46.20466" lon="6.785">
        <ele>1578</ele>
        <time>2010-01-03T01:23:52Z</time>
      </trkpt>
      <trkpt lat="46.20486" lon="6.78477">
        <ele>1568</ele>
        <time>2010-01-03T01:24:03Z</time>
      </trkpt>
      <trkpt lat="46.20515" lon="6.78445">
        <ele>1575</ele>
        <time>2010-01-03T01:24:17Z</time>
      </trkpt>
      <trkpt lat="46.20535" lon="6.78407">
        <ele>1564</ele>
        <time>2010-01-03T01:24:30Z</time>
      </trkpt>
      <trkpt lat="46.20533" lon="6.78383">
        <ele>1563</ele>
        <time>2010-01-03T01:24:37Z</time>
      </trkpt>
      <trkpt lat="46.20534" lon="6.78367">
        <ele>1562</ele>
        <time>2010-01-03T01:24:42Z</time>
      </trkpt>
      <trkpt lat="46.20536" lon="6.78348">
        <ele>1561</ele>
        <time>2010-01-03T01:24:47Z</time>
      </trkpt>
      <trkpt lat="46.2054" lon="6.78329">
        <ele>1555</ele>
        <time>2010-01-03T01:24:52Z</time>
      </trkpt>
      <trkpt lat="46.20549" lon="6.78307">
        <ele>1555</ele>
        <time>2010-01-03T01:24:59Z</time>
      </trkpt>
      <trkpt lat="46.20551" lon="6.78304">
        <ele>1555</ele>
        <time>2010-01-03T01:25:00Z</time>
      </trkpt>
      <trkpt lat="46.20565" lon="6.78276">
        <ele>1553</ele>
        <time>2010-01-03T01:25:10Z</time>
      </trkpt>
      <trkpt lat="46.20568" lon="6.78271">
        <ele>1553</ele>
        <time>2010-01-03T01:25:12Z</time>
      </trkpt>
      <trkpt lat="46.206" lon="6.78219">
        <ele>1547</ele>
        <time>2010-01-03T01:25:31Z</time>
      </trkpt>
      <trkpt lat="46.20601" lon="6.78219">
        <ele>1547</ele>
        <time>2010-01-03T01:25:32Z</time>
      </trkpt>
      <trkpt lat="46.20652" lon="6.78133">
        <ele>1535</ele>
        <time>2010-01-03T01:26:03Z</time>
      </trkpt>
      <trkpt lat="46.20678" lon="6.78096">
        <ele>1533</ele>
        <time>2010-01-03T01:26:18Z</time>
      </trkpt>
      <trkpt lat="46.20703" lon="6.78049">
        <ele>1527</ele>
        <time>2010-01-03T01:26:34Z</time>
      </trkpt>
      <trkpt lat="46.2072" lon="6.78016">
        <ele>1526</ele>
        <time>2010-01-03T01:26:45Z</time>
      </trkpt>
      <trkpt lat="46.20731" lon="6.77989">
        <ele>1520</ele>
        <time>2010-01-03T01:26:54Z</time>
      </trkpt>
      <trkpt lat="46.20736" lon="6.77966">
        <ele>1518</ele>
        <time>2010-01-03T01:27:01Z</time>
      </trkpt>
      <trkpt lat="46.20746" lon="6.77937">
        <ele>1516</ele>
        <time>2010-01-03T01:27:10Z</time>
      </trkpt>
      <trkpt lat="46.20701" lon="6.77803">
        <ele>1502</ele>
        <time>2010-01-03T01:27:51Z</time>
      </trkpt>
      <trkpt lat="46.20754" lon="6.77942">
        <ele>1523</ele>
        <time>2010-01-03T01:28:35Z</time>
      </trkpt>
      <trkpt lat="46.20825" lon="6.78131">
        <ele>1558</ele>
        <time>2010-01-03T01:29:35Z</time>
      </trkpt>
      <trkpt lat="46.20891" lon="6.78305">
        <ele>1619</ele>
        <time>2010-01-03T01:30:29Z</time>
      </trkpt>
      <trkpt lat="46.20926" lon="6.78411">
        <ele>1675</ele>
        <time>2010-01-03T01:31:02Z</time>
      </trkpt>
      <trkpt lat="46.20951" lon="6.78431">
        <ele>1699</ele>
        <time>2010-01-03T01:31:13Z</time>
      </trkpt>
      <trkpt lat="46.21016" lon="6.78604">
        <ele>1778</ele>
        <time>2010-01-03T01:32:08Z</time>
      </trkpt>
      <trkpt lat="46.2104" lon="6.78683">
        <ele>1803</ele>
        <time>2010-01-03T01:32:32Z</time>
      </trkpt>
      <trkpt lat="46.21103" lon="6.78849">
        <ele>1855</ele>
        <time>2010-01-03T01:33:24Z</time>
      </trkpt>
      <trkpt lat="46.2117" lon="6.79029">
        <ele>1905</ele>
        <time>2010-01-03T01:34:21Z</time>
      </trkpt>
      <trkpt lat="46.21175" lon="6.7903">
        <ele>1905</ele>
        <time>2010-01-03T01:34:23Z</time>
      </trkpt>
      <trkpt lat="46.21181" lon="6.79038">
        <ele>1906</ele>
        <time>2010-01-03T01:34:26Z</time>
      </trkpt>
      <trkpt lat="46.21195" lon="6.79032">
        <ele>1905</ele>
        <time>2010-01-03T01:34:32Z</time>
      </trkpt>
      <trkpt lat="46.21213" lon="6.79024">
        <ele>1904</ele>
        <time>2010-01-03T01:34:40Z</time>
      </trkpt>
      <trkpt lat="46.2122" lon="6.79021">
        <ele>1904</ele>
        <time>2010-01-03T01:34:42Z</time>
      </trkpt>
      <trkpt lat="46.21255" lon="6.78992">
        <ele>1901</ele>
        <time>2010-01-03T01:34:59Z</time>
      </trkpt>
      <trkpt lat="46.21257" lon="6.7899">
        <ele>1900</ele>
        <time>2010-01-03T01:35:00Z</time>
      </trkpt>
      <trkpt lat="46.2126" lon="6.78979">
        <ele>1897</ele>
        <time>2010-01-03T01:35:03Z</time>
      </trkpt>
      <trkpt lat="46.21277" lon="6.78947">
        <ele>1894</ele>
        <time>2010-01-03T01:35:14Z</time>
      </trkpt>
      <trkpt lat="46.21293" lon="6.78917">
        <ele>1893</ele>
        <time>2010-01-03T01:35:24Z</time>
      </trkpt>
      <trkpt lat="46.21293" lon="6.78917">
        <ele>1895</ele>
        <time>2010-01-03T01:35:25Z</time>
      </trkpt>
      <trkpt lat="46.213" lon="6.78891">
        <ele>1895</ele>
        <time>2010-01-03T01:35:32Z</time>
      </trkpt>
      <trkpt lat="46.213" lon="6.78891">
        <ele>1895</ele>
        <time>2010-01-03T01:35:32Z</time>
      </trkpt>
      <trkpt lat="46.21316" lon="6.78859">
        <ele>1896</ele>
        <time>2010-01-03T01:35:43Z</time>
      </trkpt>
      <trkpt lat="46.21325" lon="6.78846">
        <ele>1898</ele>
        <time>2010-01-03T01:35:48Z</time>
      </trkpt>
      <trkpt lat="46.21326" lon="6.78845">
        <ele>1898</ele>
        <time>2010-01-03T01:35:49Z</time>
      </trkpt>
      <trkpt lat="46.21346" lon="6.78817">
        <ele>1894</ele>
        <time>2010-01-03T01:36:00Z</time>
      </trkpt>
      <trkpt lat="46.21368" lon="6.78782">
        <ele>1889</ele>
        <time>2010-01-03T01:36:13Z</time>
      </trkpt>
      <trkpt lat="46.21375" lon="6.78756">
        <ele>1889</ele>
        <time>2010-01-03T01:36:21Z</time>
      </trkpt>
      <trkpt lat="46.21386" lon="6.78735">
        <ele>1889</ele>
        <time>2010-01-03T01:36:28Z</time>
      </trkpt>
      <trkpt lat="46.21397" lon="6.78706">
        <ele>1889</ele>
        <time>2010-01-03T01:36:37Z</time>
      </trkpt>
      <trkpt lat="46.21413" lon="6.78682">
        <ele>1891</ele>
        <time>2010-01-03T01:36:46Z</time>
      </trkpt>
      <trkpt lat="46.21443" lon="6.78653">
        <ele>1884</ele>
        <time>2010-01-03T01:37:01Z</time>
      </trkpt>
      <trkpt lat="46.2146" lon="6.78629">
        <ele>1882</ele>
        <time>2010-01-03T01:37:10Z</time>
      </trkpt>
      <trkpt lat="46.21489" lon="6.78593">
        <ele>1884</ele>
        <time>2010-01-03T01:37:26Z</time>
      </trkpt>
      <trkpt lat="46.21508" lon="6.7858">
        <ele>1884</ele>
        <time>2010-01-03T01:37:34Z</time>
      </trkpt>
      <trkpt lat="46.21527" lon="6.78574">
        <ele>1880</ele>
        <time>2010-01-03T01:37:42Z</time>
      </trkpt>
      <trkpt lat="46.21549" lon="6.78553">
        <ele>1877</ele>
        <time>2010-01-03T01:37:52Z</time>
      </trkpt>
      <trkpt lat="46.21558" lon="6.78538">
        <ele>1878</ele>
        <time>2010-01-03T01:37:58Z</time>
      </trkpt>
      <trkpt lat="46.21567" lon="6.78524">
        <ele>1881</ele>
        <time>2010-01-03T01:38:03Z</time>
      </trkpt>
      <trkpt lat="46.21572" lon="6.78509">
        <ele>1883</ele>
        <time>2010-01-03T01:38:08Z</time>
      </trkpt>
      <trkpt lat="46.21577" lon="6.78494">
        <ele>1886</ele>
        <time>2010-01-03T01:38:12Z</time>
      </trkpt>
      <trkpt lat="46.21587" lon="6.7847">
        <ele>1883</ele>
        <time>2010-01-03T01:38:20Z</time>
      </trkpt>
      <trkpt lat="46.21596" lon="6.78455">
        <ele>1883</ele>
        <time>2010-01-03T01:38:26Z</time>
      </trkpt>
      <trkpt lat="46.21597" lon="6.78454">
        <ele>1883</ele>
        <time>2010-01-03T01:38:26Z</time>
      </trkpt>
      <trkpt lat="46.21604" lon="6.78444">
        <ele>1883</ele>
        <time>2010-01-03T01:38:30Z</time>
      </trkpt>
      <trkpt lat="46.21617" lon="6.78416">
        <ele>1891</ele>
        <time>2010-01-03T01:38:39Z</time>
      </trkpt>
      <trkpt lat="46.21618" lon="6.78415">
        <ele>1891</ele>
        <time>2010-01-03T01:38:40Z</time>
      </trkpt>
      <trkpt lat="46.21618" lon="6.78414">
        <ele>1891</ele>
        <time>2010-01-03T01:38:40Z</time>
      </trkpt>
      <trkpt lat="46.21621" lon="6.78401">
        <ele>1892</ele>
        <time>2010-01-03T01:38:44Z</time>
      </trkpt>
      <trkpt lat="46.21621" lon="6.78399">
        <ele>1892</ele>
        <time>2010-01-03T01:38:45Z</time>
      </trkpt>
      <trkpt lat="46.21629" lon="6.78365">
        <ele>1893</ele>
        <time>2010-01-03T01:38:54Z</time>
      </trkpt>
      <trkpt lat="46.21636" lon="6.78319">
        <ele>1896</ele>
        <time>2010-01-03T01:39:07Z</time>
      </trkpt>
      <trkpt lat="46.21637" lon="6.78254">
        <ele>1897</ele>
        <time>2010-01-03T01:39:25Z</time>
      </trkpt>
      <trkpt lat="46.21637" lon="6.78228">
        <ele>1894</ele>
        <time>2010-01-03T01:39:33Z</time>
      </trkpt>
      <trkpt lat="46.21638" lon="6.78202">
        <ele>1893</ele>
        <time>2010-01-03T01:39:40Z</time>
      </trkpt>
      <trkpt lat="46.21638" lon="6.78169">
        <ele>1894</ele>
        <time>2010-01-03T01:39:49Z</time>
      </trkpt>
      <trkpt lat="46.21638" lon="6.78147">
        <ele>1888</ele>
        <time>2010-01-03T01:39:55Z</time>
      </trkpt>
      <trkpt lat="46.21644" lon="6.78129">
        <ele>1887</ele>
        <time>2010-01-03T01:40:01Z</time>
      </trkpt>
      <trkpt lat="46.21658" lon="6.78084">
        <ele>1893</ele>
        <time>2010-01-03T01:40:14Z</time>
      </trkpt>
      <trkpt lat="46.21673" lon="6.78049">
        <ele>1896</ele>
        <time>2010-01-03T01:40:26Z</time>
      </trkpt>
      <trkpt lat="46.21695" lon="6.78013">
        <ele>1893</ele>
        <time>2010-01-03T01:40:39Z</time>
      </trkpt>
      <trkpt lat="46.21705" lon="6.78">
        <ele>1879</ele>
        <time>2010-01-03T01:40:45Z</time>
      </trkpt>
      <trkpt lat="46.21723" lon="6.77983">
        <ele>1883</ele>
        <time>2010-01-03T01:40:53Z</time>
      </trkpt>
      <trkpt lat="46.21756" lon="6.77948">
        <ele>1892</ele>
        <time>2010-01-03T01:41:09Z</time>
      </trkpt>
      <trkpt lat="46.21798" lon="6.77907">
        <ele>1875</ele>
        <time>2010-01-03T01:41:30Z</time>
      </trkpt>
      <trkpt lat="46.21829" lon="6.77878">
        <ele>1874</ele>
        <time>2010-01-03T01:41:45Z</time>
      </trkpt>
      <trkpt lat="46.21848" lon="6.77861">
        <ele>1875</ele>
        <time>2010-01-03T01:41:54Z</time>
      </trkpt>
      <trkpt lat="46.21863" lon="6.77841">
        <ele>1873</ele>
        <time>2010-01-03T01:42:02Z</time>
      </trkpt>
      <trkpt lat="46.21864" lon="6.77841">
        <ele>1873</ele>
        <time>2010-01-03T01:42:02Z</time>
      </trkpt>
      <trkpt lat="46.21879" lon="6.7783">
        <ele>1862</ele>
        <time>2010-01-03T01:42:09Z</time>
      </trkpt>
      <trkpt lat="46.21882" lon="6.77827">
        <ele>1862</ele>
        <time>2010-01-03T01:42:10Z</time>
      </trkpt>
      <trkpt lat="46.21889" lon="6.77824">
        <ele>1862</ele>
        <time>2010-01-03T01:42:13Z</time>
      </trkpt>
      <trkpt lat="46.21898" lon="6.77816">
        <ele>1862</ele>
        <time>2010-01-03T01:42:17Z</time>
      </trkpt>
      <trkpt lat="46.21912" lon="6.77799">
        <ele>1862</ele>
        <time>2010-01-03T01:42:25Z</time>
      </trkpt>
      <trkpt lat="46.21917" lon="6.77792">
        <ele>1853</ele>
        <time>2010-01-03T01:42:27Z</time>
      </trkpt>
      <trkpt lat="46.2192" lon="6.77796">
        <ele>1853</ele>
        <time>2010-01-03T01:42:29Z</time>
      </trkpt>
      <trkpt lat="46.21915" lon="6.77809">
        <ele>1862</ele>
        <time>2010-01-03T01:42:33Z</time>
      </trkpt>
      <trkpt lat="46.21915" lon="6.77819">
        <ele>1863</ele>
        <time>2010-01-03T01:42:36Z</time>
      </trkpt>
      <trkpt lat="46.21917" lon="6.77828">
        <ele>1861</ele>
        <time>2010-01-03T01:42:38Z</time>
      </trkpt>
      <trkpt lat="46.21918" lon="6.77836">
        <ele>1863</ele>
        <time>2010-01-03T01:42:41Z</time>
      </trkpt>
      <trkpt lat="46.21921" lon="6.77848">
        <ele>1859</ele>
        <time>2010-01-03T01:42:44Z</time>
      </trkpt>
      <trkpt lat="46.21923" lon="6.77857">
        <ele>1858</ele>
        <time>2010-01-03T01:42:47Z</time>
      </trkpt>
      <trkpt lat="46.21925" lon="6.77865">
        <ele>1857</ele>
        <time>2010-01-03T01:42:49Z</time>
      </trkpt>
      <trkpt lat="46.21927" lon="6.77876">
        <ele>1858</ele>
        <time>2010-01-03T01:42:52Z</time>
      </trkpt>
      <trkpt lat="46.21929" lon="6.77881">
        <ele>1858</ele>
        <time>2010-01-03T01:42:54Z</time>
      </trkpt>
      <trkpt lat="46.21932" lon="6.77887">
        <ele>1859</ele>
        <time>2010-01-03T01:42:56Z</time>
      </trkpt>
      <trkpt lat="46.21934" lon="6.77891">
        <ele>1859</ele>
        <time>2010-01-03T01:42:57Z</time>
      </trkpt>
      <trkpt lat="46.21938" lon="6.77894">
        <ele>1859</ele>
        <time>2010-01-03T01:42:59Z</time>
      </trkpt>
      <trkpt lat="46.21937" lon="6.77889">
        <ele>1858</ele>
        <time>2010-01-03T01:43:01Z</time>
      </trkpt>
      <trkpt lat="46.21937" lon="6.7788">
        <ele>1857</ele>
        <time>2010-01-03T01:43:03Z</time>
      </trkpt>
      <trkpt lat="46.21934" lon="6.7787">
        <ele>1856</ele>
        <time>2010-01-03T01:43:06Z</time>
      </trkpt>
      <trkpt lat="46.21936" lon="6.77865">
        <ele>1855</ele>
        <time>2010-01-03T01:43:08Z</time>
      </trkpt>
      <trkpt lat="46.21938" lon="6.77865">
        <ele>1855</ele>
        <time>2010-01-03T01:43:08Z</time>
      </trkpt>
      <trkpt lat="46.21946" lon="6.77881">
        <ele>1854</ele>
        <time>2010-01-03T01:43:14Z</time>
      </trkpt>
      <trkpt lat="46.21953" lon="6.7789">
        <ele>1853</ele>
        <time>2010-01-03T01:43:18Z</time>
      </trkpt>
      <trkpt lat="46.21964" lon="6.77907">
        <ele>1850</ele>
        <time>2010-01-03T01:43:24Z</time>
      </trkpt>
      <trkpt lat="46.21968" lon="6.77916">
        <ele>1849</ele>
        <time>2010-01-03T01:43:27Z</time>
      </trkpt>
      <trkpt lat="46.21972" lon="6.77926">
        <ele>1852</ele>
        <time>2010-01-03T01:43:30Z</time>
      </trkpt>
      <trkpt lat="46.21972" lon="6.77927">
        <ele>1852</ele>
        <time>2010-01-03T01:43:31Z</time>
      </trkpt>
      <trkpt lat="46.21978" lon="6.77946">
        <ele>1852</ele>
        <time>2010-01-03T01:43:36Z</time>
      </trkpt>
      <trkpt lat="46.21986" lon="6.77973">
        <ele>1851</ele>
        <time>2010-01-03T01:43:44Z</time>
      </trkpt>
      <trkpt lat="46.21988" lon="6.77979">
        <ele>1849</ele>
        <time>2010-01-03T01:43:46Z</time>
      </trkpt>
      <trkpt lat="46.21991" lon="6.77986">
        <ele>1846</ele>
        <time>2010-01-03T01:43:49Z</time>
      </trkpt>
      <trkpt lat="46.21994" lon="6.77984">
        <ele>1846</ele>
        <time>2010-01-03T01:43:50Z</time>
      </trkpt>
      <trkpt lat="46.21993" lon="6.77975">
        <ele>1849</ele>
        <time>2010-01-03T01:43:53Z</time>
      </trkpt>
      <trkpt lat="46.21992" lon="6.77962">
        <ele>1850</ele>
        <time>2010-01-03T01:43:56Z</time>
      </trkpt>
      <trkpt lat="46.21994" lon="6.77944">
        <ele>1848</ele>
        <time>2010-01-03T01:44:01Z</time>
      </trkpt>
      <trkpt lat="46.21991" lon="6.77929">
        <ele>1844</ele>
        <time>2010-01-03T01:44:06Z</time>
      </trkpt>
      <trkpt lat="46.21987" lon="6.77911">
        <ele>1841</ele>
        <time>2010-01-03T01:44:11Z</time>
      </trkpt>
      <trkpt lat="46.21981" lon="6.77892">
        <ele>1845</ele>
        <time>2010-01-03T01:44:16Z</time>
      </trkpt>
      <trkpt lat="46.2198" lon="6.7788">
        <ele>1845</ele>
        <time>2010-01-03T01:44:20Z</time>
      </trkpt>
      <trkpt lat="46.21982" lon="6.77873">
        <ele>1844</ele>
        <time>2010-01-03T01:44:22Z</time>
      </trkpt>
      <trkpt lat="46.21987" lon="6.77882">
        <ele>1844</ele>
        <time>2010-01-03T01:44:25Z</time>
      </trkpt>
      <trkpt lat="46.21993" lon="6.7789">
        <ele>1843</ele>
        <time>2010-01-03T01:44:28Z</time>
      </trkpt>
      <trkpt lat="46.21997" lon="6.77891">
        <ele>1842</ele>
        <time>2010-01-03T01:44:30Z</time>
      </trkpt>
      <trkpt lat="46.22" lon="6.77888">
        <ele>1842</ele>
        <time>2010-01-03T01:44:31Z</time>
      </trkpt>
      <trkpt lat="46.22002" lon="6.77883">
        <ele>1817</ele>
        <time>2010-01-03T01:44:33Z</time>
      </trkpt>
      <trkpt lat="46.21996" lon="6.77867">
        <ele>1841</ele>
        <time>2010-01-03T01:44:38Z</time>
      </trkpt>
      <trkpt lat="46.21995" lon="6.77865">
        <ele>1841</ele>
        <time>2010-01-03T01:44:39Z</time>
      </trkpt>
      <trkpt lat="46.21989" lon="6.77854">
        <ele>1839</ele>
        <time>2010-01-03T01:44:42Z</time>
      </trkpt>
      <trkpt lat="46.21988" lon="6.77842">
        <ele>1836</ele>
        <time>2010-01-03T01:44:46Z</time>
      </trkpt>
      <trkpt lat="46.21991" lon="6.7784">
        <ele>1833</ele>
        <time>2010-01-03T01:44:47Z</time>
      </trkpt>
      <trkpt lat="46.22" lon="6.77851">
        <ele>1836</ele>
        <time>2010-01-03T01:44:51Z</time>
      </trkpt>
      <trkpt lat="46.22006" lon="6.77856">
        <ele>1816</ele>
        <time>2010-01-03T01:44:54Z</time>
      </trkpt>
      <trkpt lat="46.22013" lon="6.77863">
        <ele>1814</ele>
        <time>2010-01-03T01:44:58Z</time>
      </trkpt>
      <trkpt lat="46.22017" lon="6.77862">
        <ele>1814</ele>
        <time>2010-01-03T01:45:00Z</time>
      </trkpt>
      <trkpt lat="46.22023" lon="6.77873">
        <ele>1813</ele>
        <time>2010-01-03T01:45:03Z</time>
      </trkpt>
      <trkpt lat="46.22029" lon="6.77895">
        <ele>1813</ele>
        <time>2010-01-03T01:45:10Z</time>
      </trkpt>
      <trkpt lat="46.22035" lon="6.7791">
        <ele>1812</ele>
        <time>2010-01-03T01:45:15Z</time>
      </trkpt>
      <trkpt lat="46.22054" lon="6.77932">
        <ele>1807</ele>
        <time>2010-01-03T01:45:24Z</time>
      </trkpt>
      <trkpt lat="46.22059" lon="6.77944">
        <ele>1806</ele>
        <time>2010-01-03T01:45:28Z</time>
      </trkpt>
      <trkpt lat="46.22061" lon="6.77954">
        <ele>1806</ele>
        <time>2010-01-03T01:45:31Z</time>
      </trkpt>
      <trkpt lat="46.22061" lon="6.77966">
        <ele>1805</ele>
        <time>2010-01-03T01:45:34Z</time>
      </trkpt>
      <trkpt lat="46.22057" lon="6.77977">
        <ele>1805</ele>
        <time>2010-01-03T01:45:38Z</time>
      </trkpt>
      <trkpt lat="46.2205" lon="6.77985">
        <ele>1807</ele>
        <time>2010-01-03T01:45:41Z</time>
      </trkpt>
      <trkpt lat="46.22042" lon="6.77994">
        <ele>1810</ele>
        <time>2010-01-03T01:45:45Z</time>
      </trkpt>
      <trkpt lat="46.22032" lon="6.77999">
        <ele>1814</ele>
        <time>2010-01-03T01:45:50Z</time>
      </trkpt>
      <trkpt lat="46.22026" lon="6.78017">
        <ele>1812</ele>
        <time>2010-01-03T01:45:55Z</time>
      </trkpt>
      <trkpt lat="46.22023" lon="6.78031">
        <ele>1811</ele>
        <time>2010-01-03T01:45:59Z</time>
      </trkpt>
      <trkpt lat="46.22019" lon="6.78044">
        <ele>1810</ele>
        <time>2010-01-03T01:46:03Z</time>
      </trkpt>
      <trkpt lat="46.22019" lon="6.7805">
        <ele>1810</ele>
        <time>2010-01-03T01:46:05Z</time>
      </trkpt>
      <trkpt lat="46.22018" lon="6.78059">
        <ele>1811</ele>
        <time>2010-01-03T01:46:07Z</time>
      </trkpt>
      <trkpt lat="46.22018" lon="6.78083">
        <ele>1813</ele>
        <time>2010-01-03T01:46:14Z</time>
      </trkpt>
      <trkpt lat="46.2202" lon="6.78096">
        <ele>1808</ele>
        <time>2010-01-03T01:46:18Z</time>
      </trkpt>
      <trkpt lat="46.22024" lon="6.78113">
        <ele>1804</ele>
        <time>2010-01-03T01:46:23Z</time>
      </trkpt>
      <trkpt lat="46.22037" lon="6.7816">
        <ele>1799</ele>
        <time>2010-01-03T01:46:37Z</time>
      </trkpt>
      <trkpt lat="46.2204" lon="6.78173">
        <ele>1796</ele>
        <time>2010-01-03T01:46:41Z</time>
      </trkpt>
      <trkpt lat="46.2204" lon="6.78182">
        <ele>1795</ele>
        <time>2010-01-03T01:46:43Z</time>
      </trkpt>
      <trkpt lat="46.2204" lon="6.78201">
        <ele>1795</ele>
        <time>2010-01-03T01:46:48Z</time>
      </trkpt>
      <trkpt lat="46.22033" lon="6.78255">
        <ele>1791</ele>
        <time>2010-01-03T01:47:03Z</time>
      </trkpt>
      <trkpt lat="46.22031" lon="6.78273">
        <ele>1790</ele>
        <time>2010-01-03T01:47:08Z</time>
      </trkpt>
      <trkpt lat="46.22027" lon="6.78292">
        <ele>1787</ele>
        <time>2010-01-03T01:47:14Z</time>
      </trkpt>
      <trkpt lat="46.22018" lon="6.78308">
        <ele>1787</ele>
        <time>2010-01-03T01:47:20Z</time>
      </trkpt>
      <trkpt lat="46.22006" lon="6.78321">
        <ele>1789</ele>
        <time>2010-01-03T01:47:26Z</time>
      </trkpt>
      <trkpt lat="46.21992" lon="6.78331">
        <ele>1800</ele>
        <time>2010-01-03T01:47:32Z</time>
      </trkpt>
      <trkpt lat="46.21982" lon="6.78333">
        <ele>1794</ele>
        <time>2010-01-03T01:47:36Z</time>
      </trkpt>
      <trkpt lat="46.2197" lon="6.78346">
        <ele>1795</ele>
        <time>2010-01-03T01:47:42Z</time>
      </trkpt>
      <trkpt lat="46.21964" lon="6.7836">
        <ele>1795</ele>
        <time>2010-01-03T01:47:47Z</time>
      </trkpt>
      <trkpt lat="46.21964" lon="6.78361">
        <ele>1795</ele>
        <time>2010-01-03T01:47:47Z</time>
      </trkpt>
      <trkpt lat="46.21958" lon="6.78374">
        <ele>1794</ele>
        <time>2010-01-03T01:47:51Z</time>
      </trkpt>
      <trkpt lat="46.2195" lon="6.78387">
        <ele>1793</ele>
        <time>2010-01-03T01:47:56Z</time>
      </trkpt>
      <trkpt lat="46.21949" lon="6.78395">
        <ele>1792</ele>
        <time>2010-01-03T01:47:58Z</time>
      </trkpt>
      <trkpt lat="46.21949" lon="6.78399">
        <ele>1792</ele>
        <time>2010-01-03T01:47:59Z</time>
      </trkpt>
      <trkpt lat="46.21951" lon="6.784">
        <ele>1791</ele>
        <time>2010-01-03T01:48:00Z</time>
      </trkpt>
      <trkpt lat="46.21956" lon="6.78397">
        <ele>1791</ele>
        <time>2010-01-03T01:48:02Z</time>
      </trkpt>
      <trkpt lat="46.21965" lon="6.78391">
        <ele>1790</ele>
        <time>2010-01-03T01:48:06Z</time>
      </trkpt>
      <trkpt lat="46.21977" lon="6.78386">
        <ele>1789</ele>
        <time>2010-01-03T01:48:11Z</time>
      </trkpt>
      <trkpt lat="46.21984" lon="6.78385">
        <ele>1787</ele>
        <time>2010-01-03T01:48:14Z</time>
      </trkpt>
      <trkpt lat="46.21989" lon="6.78379">
        <ele>1788</ele>
        <time>2010-01-03T01:48:17Z</time>
      </trkpt>
      <trkpt lat="46.21994" lon="6.78368">
        <ele>1790</ele>
        <time>2010-01-03T01:48:20Z</time>
      </trkpt>
      <trkpt lat="46.22004" lon="6.78366">
        <ele>1770</ele>
        <time>2010-01-03T01:48:25Z</time>
      </trkpt>
      <trkpt lat="46.2202" lon="6.78362">
        <ele>1769</ele>
        <time>2010-01-03T01:48:31Z</time>
      </trkpt>
      <trkpt lat="46.22028" lon="6.78362">
        <ele>1767</ele>
        <time>2010-01-03T01:48:34Z</time>
      </trkpt>
      <trkpt lat="46.22041" lon="6.78347">
        <ele>1765</ele>
        <time>2010-01-03T01:48:41Z</time>
      </trkpt>
      <trkpt lat="46.22046" lon="6.78329">
        <ele>1780</ele>
        <time>2010-01-03T01:48:46Z</time>
      </trkpt>
      <trkpt lat="46.22049" lon="6.78341">
        <ele>1764</ele>
        <time>2010-01-03T01:48:50Z</time>
      </trkpt>
      <trkpt lat="46.22051" lon="6.78353">
        <ele>1762</ele>
        <time>2010-01-03T01:48:53Z</time>
      </trkpt>
      <trkpt lat="46.22054" lon="6.78356">
        <ele>1761</ele>
        <time>2010-01-03T01:48:55Z</time>
      </trkpt>
      <trkpt lat="46.22056" lon="6.78351">
        <ele>1761</ele>
        <time>2010-01-03T01:48:56Z</time>
      </trkpt>
      <trkpt lat="46.22057" lon="6.78341">
        <ele>1762</ele>
        <time>2010-01-03T01:48:59Z</time>
      </trkpt>
      <trkpt lat="46.22062" lon="6.78326">
        <ele>1774</ele>
        <time>2010-01-03T01:49:04Z</time>
      </trkpt>
      <trkpt lat="46.22065" lon="6.78315">
        <ele>1775</ele>
        <time>2010-01-03T01:49:07Z</time>
      </trkpt>
      <trkpt lat="46.2207" lon="6.78316">
        <ele>1773</ele>
        <time>2010-01-03T01:49:09Z</time>
      </trkpt>
      <trkpt lat="46.22067" lon="6.78327">
        <ele>1771</ele>
        <time>2010-01-03T01:49:12Z</time>
      </trkpt>
      <trkpt lat="46.22067" lon="6.78351">
        <ele>1760</ele>
        <time>2010-01-03T01:49:18Z</time>
      </trkpt>
      <trkpt lat="46.22063" lon="6.78368">
        <ele>1758</ele>
        <time>2010-01-03T01:49:24Z</time>
      </trkpt>
      <trkpt lat="46.22055" lon="6.78385">
        <ele>1756</ele>
        <time>2010-01-03T01:49:29Z</time>
      </trkpt>
      <trkpt lat="46.22048" lon="6.78397">
        <ele>1756</ele>
        <time>2010-01-03T01:49:34Z</time>
      </trkpt>
      <trkpt lat="46.22039" lon="6.78413">
        <ele>1757</ele>
        <time>2010-01-03T01:49:39Z</time>
      </trkpt>
      <trkpt lat="46.2203" lon="6.78427">
        <ele>1741</ele>
        <time>2010-01-03T01:49:45Z</time>
      </trkpt>
      <trkpt lat="46.22023" lon="6.78443">
        <ele>1740</ele>
        <time>2010-01-03T01:49:50Z</time>
      </trkpt>
      <trkpt lat="46.22022" lon="6.78455">
        <ele>1737</ele>
        <time>2010-01-03T01:49:53Z</time>
      </trkpt>
      <trkpt lat="46.22016" lon="6.78481">
        <ele>1733</ele>
        <time>2010-01-03T01:50:01Z</time>
      </trkpt>
      <trkpt lat="46.22005" lon="6.78494">
        <ele>1733</ele>
        <time>2010-01-03T01:50:06Z</time>
      </trkpt>
      <trkpt lat="46.21997" lon="6.78504">
        <ele>1733</ele>
        <time>2010-01-03T01:50:11Z</time>
      </trkpt>
      <trkpt lat="46.21986" lon="6.78508">
        <ele>1733</ele>
        <time>2010-01-03T01:50:15Z</time>
      </trkpt>
      <trkpt lat="46.2198" lon="6.78508">
        <ele>1733</ele>
        <time>2010-01-03T01:50:18Z</time>
      </trkpt>
      <trkpt lat="46.21976" lon="6.78509">
        <ele>1733</ele>
        <time>2010-01-03T01:50:19Z</time>
      </trkpt>
      <trkpt lat="46.21968" lon="6.78514">
        <ele>1733</ele>
        <time>2010-01-03T01:50:23Z</time>
      </trkpt>
      <trkpt lat="46.21963" lon="6.78522">
        <ele>1733</ele>
        <time>2010-01-03T01:50:26Z</time>
      </trkpt>
      <trkpt lat="46.21959" lon="6.78526">
        <ele>1733</ele>
        <time>2010-01-03T01:50:28Z</time>
      </trkpt>
      <trkpt lat="46.21948" lon="6.78531">
        <ele>1734</ele>
        <time>2010-01-03T01:50:32Z</time>
      </trkpt>
      <trkpt lat="46.21939" lon="6.78538">
        <ele>1733</ele>
        <time>2010-01-03T01:50:36Z</time>
      </trkpt>
      <trkpt lat="46.21913" lon="6.78543">
        <ele>1751</ele>
        <time>2010-01-03T01:50:47Z</time>
      </trkpt>
      <trkpt lat="46.21898" lon="6.78548">
        <ele>1752</ele>
        <time>2010-01-03T01:50:53Z</time>
      </trkpt>
      <trkpt lat="46.21881" lon="6.78561">
        <ele>1753</ele>
        <time>2010-01-03T01:51:00Z</time>
      </trkpt>
      <trkpt lat="46.21877" lon="6.78572">
        <ele>1752</ele>
        <time>2010-01-03T01:51:04Z</time>
      </trkpt>
      <trkpt lat="46.21873" lon="6.78581">
        <ele>1752</ele>
        <time>2010-01-03T01:51:07Z</time>
      </trkpt>
      <trkpt lat="46.21868" lon="6.78595">
        <ele>1733</ele>
        <time>2010-01-03T01:51:11Z</time>
      </trkpt>
      <trkpt lat="46.21854" lon="6.78605">
        <ele>1735</ele>
        <time>2010-01-03T01:51:18Z</time>
      </trkpt>
      <trkpt lat="46.21844" lon="6.78612">
        <ele>1735</ele>
        <time>2010-01-03T01:51:22Z</time>
      </trkpt>
      <trkpt lat="46.21837" lon="6.7862">
        <ele>1733</ele>
        <time>2010-01-03T01:51:26Z</time>
      </trkpt>
      <trkpt lat="46.21834" lon="6.78628">
        <ele>1731</ele>
        <time>2010-01-03T01:51:28Z</time>
      </trkpt>
      <trkpt lat="46.21839" lon="6.78642">
        <ele>1728</ele>
        <time>2010-01-03T01:51:32Z</time>
      </trkpt>
      <trkpt lat="46.21838" lon="6.78652">
        <ele>1726</ele>
        <time>2010-01-03T01:51:35Z</time>
      </trkpt>
      <trkpt lat="46.2183" lon="6.78664">
        <ele>1731</ele>
        <time>2010-01-03T01:51:39Z</time>
      </trkpt>
      <trkpt lat="46.21824" lon="6.78676">
        <ele>1727</ele>
        <time>2010-01-03T01:51:44Z</time>
      </trkpt>
      <trkpt lat="46.21817" lon="6.78685">
        <ele>1728</ele>
        <time>2010-01-03T01:51:47Z</time>
      </trkpt>
      <trkpt lat="46.21811" lon="6.787">
        <ele>1727</ele>
        <time>2010-01-03T01:51:52Z</time>
      </trkpt>
      <trkpt lat="46.21809" lon="6.78713">
        <ele>1726</ele>
        <time>2010-01-03T01:51:56Z</time>
      </trkpt>
      <trkpt lat="46.21802" lon="6.78719">
        <ele>1726</ele>
        <time>2010-01-03T01:51:59Z</time>
      </trkpt>
      <trkpt lat="46.21792" lon="6.78726">
        <ele>1727</ele>
        <time>2010-01-03T01:52:03Z</time>
      </trkpt>
      <trkpt lat="46.21786" lon="6.78731">
        <ele>1727</ele>
        <time>2010-01-03T01:52:06Z</time>
      </trkpt>
      <trkpt lat="46.21782" lon="6.78743">
        <ele>1727</ele>
        <time>2010-01-03T01:52:10Z</time>
      </trkpt>
      <trkpt lat="46.21778" lon="6.78762">
        <ele>1715</ele>
        <time>2010-01-03T01:52:16Z</time>
      </trkpt>
      <trkpt lat="46.21773" lon="6.78777">
        <ele>1713</ele>
        <time>2010-01-03T01:52:20Z</time>
      </trkpt>
      <trkpt lat="46.21764" lon="6.78785">
        <ele>1714</ele>
        <time>2010-01-03T01:52:25Z</time>
      </trkpt>
      <trkpt lat="46.21757" lon="6.78788">
        <ele>1714</ele>
        <time>2010-01-03T01:52:28Z</time>
      </trkpt>
      <trkpt lat="46.21747" lon="6.78793">
        <ele>1732</ele>
        <time>2010-01-03T01:52:31Z</time>
      </trkpt>
      <trkpt lat="46.21743" lon="6.78804">
        <ele>1730</ele>
        <time>2010-01-03T01:52:35Z</time>
      </trkpt>
      <trkpt lat="46.21744" lon="6.7881">
        <ele>1728</ele>
        <time>2010-01-03T01:52:37Z</time>
      </trkpt>
      <trkpt lat="46.21743" lon="6.78819">
        <ele>1725</ele>
        <time>2010-01-03T01:52:39Z</time>
      </trkpt>
      <trkpt lat="46.21742" lon="6.78829">
        <ele>1720</ele>
        <time>2010-01-03T01:52:42Z</time>
      </trkpt>
      <trkpt lat="46.21742" lon="6.78841">
        <ele>1717</ele>
        <time>2010-01-03T01:52:45Z</time>
      </trkpt>
      <trkpt lat="46.21741" lon="6.78853">
        <ele>1718</ele>
        <time>2010-01-03T01:52:49Z</time>
      </trkpt>
      <trkpt lat="46.21738" lon="6.78865">
        <ele>1719</ele>
        <time>2010-01-03T01:52:52Z</time>
      </trkpt>
      <trkpt lat="46.2173" lon="6.78872">
        <ele>1720</ele>
        <time>2010-01-03T01:52:56Z</time>
      </trkpt>
      <trkpt lat="46.2173" lon="6.78873">
        <ele>1720</ele>
        <time>2010-01-03T01:52:56Z</time>
      </trkpt>
      <trkpt lat="46.21725" lon="6.78878">
        <ele>1720</ele>
        <time>2010-01-03T01:52:59Z</time>
      </trkpt>
      <trkpt lat="46.21722" lon="6.78886">
        <ele>1720</ele>
        <time>2010-01-03T01:53:01Z</time>
      </trkpt>
      <trkpt lat="46.21719" lon="6.78914">
        <ele>1718</ele>
        <time>2010-01-03T01:53:09Z</time>
      </trkpt>
      <trkpt lat="46.21729" lon="6.78928">
        <ele>1710</ele>
        <time>2010-01-03T01:53:14Z</time>
      </trkpt>
      <trkpt lat="46.21737" lon="6.78936">
        <ele>1709</ele>
        <time>2010-01-03T01:53:18Z</time>
      </trkpt>
      <trkpt lat="46.21746" lon="6.78949">
        <ele>1708</ele>
        <time>2010-01-03T01:53:23Z</time>
      </trkpt>
      <trkpt lat="46.21755" lon="6.78962">
        <ele>1692</ele>
        <time>2010-01-03T01:53:29Z</time>
      </trkpt>
      <trkpt lat="46.21762" lon="6.78964">
        <ele>1692</ele>
        <time>2010-01-03T01:53:32Z</time>
      </trkpt>
      <trkpt lat="46.21769" lon="6.78973">
        <ele>1691</ele>
        <time>2010-01-03T01:53:35Z</time>
      </trkpt>
      <trkpt lat="46.21775" lon="6.78986">
        <ele>1690</ele>
        <time>2010-01-03T01:53:40Z</time>
      </trkpt>
      <trkpt lat="46.21777" lon="6.78998">
        <ele>1690</ele>
        <time>2010-01-03T01:53:43Z</time>
      </trkpt>
      <trkpt lat="46.21772" lon="6.79007">
        <ele>1687</ele>
        <time>2010-01-03T01:53:46Z</time>
      </trkpt>
      <trkpt lat="46.21768" lon="6.79013">
        <ele>1687</ele>
        <time>2010-01-03T01:53:49Z</time>
      </trkpt>
      <trkpt lat="46.21768" lon="6.79013">
        <ele>1687</ele>
        <time>2010-01-03T01:53:49Z</time>
      </trkpt>
      <trkpt lat="46.21764" lon="6.79017">
        <ele>1687</ele>
        <time>2010-01-03T01:53:50Z</time>
      </trkpt>
      <trkpt lat="46.21764" lon="6.79018">
        <ele>1687</ele>
        <time>2010-01-03T01:53:51Z</time>
      </trkpt>
      <trkpt lat="46.21761" lon="6.79025">
        <ele>1686</ele>
        <time>2010-01-03T01:53:53Z</time>
      </trkpt>
      <trkpt lat="46.21761" lon="6.79035">
        <ele>1685</ele>
        <time>2010-01-03T01:53:56Z</time>
      </trkpt>
      <trkpt lat="46.21756" lon="6.79052">
        <ele>1684</ele>
        <time>2010-01-03T01:54:01Z</time>
      </trkpt>
      <trkpt lat="46.21747" lon="6.79075">
        <ele>1691</ele>
        <time>2010-01-03T01:54:08Z</time>
      </trkpt>
      <trkpt lat="46.21729" lon="6.79076">
        <ele>1695</ele>
        <time>2010-01-03T01:54:15Z</time>
      </trkpt>
      <trkpt lat="46.21724" lon="6.7908">
        <ele>1696</ele>
        <time>2010-01-03T01:54:18Z</time>
      </trkpt>
      <trkpt lat="46.21708" lon="6.79124">
        <ele>1685</ele>
        <time>2010-01-03T01:54:31Z</time>
      </trkpt>
      <trkpt lat="46.21705" lon="6.79145">
        <ele>1683</ele>
        <time>2010-01-03T01:54:37Z</time>
      </trkpt>
      <trkpt lat="46.21689" lon="6.79179">
        <ele>1671</ele>
        <time>2010-01-03T01:54:49Z</time>
      </trkpt>
      <trkpt lat="46.21679" lon="6.79213">
        <ele>1666</ele>
        <time>2010-01-03T01:54:59Z</time>
      </trkpt>
      <trkpt lat="46.21677" lon="6.79216">
        <ele>1666</ele>
        <time>2010-01-03T01:55:00Z</time>
      </trkpt>
      <trkpt lat="46.21662" lon="6.79247">
        <ele>1670</ele>
        <time>2010-01-03T01:55:11Z</time>
      </trkpt>
      <trkpt lat="46.21656" lon="6.79273">
        <ele>1670</ele>
        <time>2010-01-03T01:55:18Z</time>
      </trkpt>
      <trkpt lat="46.21658" lon="6.79312">
        <ele>1665</ele>
        <time>2010-01-03T01:55:29Z</time>
      </trkpt>
      <trkpt lat="46.2167" lon="6.79323">
        <ele>1652</ele>
        <time>2010-01-03T01:55:35Z</time>
      </trkpt>
      <trkpt lat="46.21683" lon="6.79331">
        <ele>1652</ele>
        <time>2010-01-03T01:55:41Z</time>
      </trkpt>
      <trkpt lat="46.21695" lon="6.79337">
        <ele>1649</ele>
        <time>2010-01-03T01:55:46Z</time>
      </trkpt>
      <trkpt lat="46.21703" lon="6.79338">
        <ele>1649</ele>
        <time>2010-01-03T01:55:49Z</time>
      </trkpt>
      <trkpt lat="46.21712" lon="6.79327">
        <ele>1650</ele>
        <time>2010-01-03T01:55:53Z</time>
      </trkpt>
      <trkpt lat="46.21727" lon="6.79309">
        <ele>1649</ele>
        <time>2010-01-03T01:56:01Z</time>
      </trkpt>
      <trkpt lat="46.21744" lon="6.79304">
        <ele>1649</ele>
        <time>2010-01-03T01:56:08Z</time>
      </trkpt>
      <trkpt lat="46.21759" lon="6.79301">
        <ele>1643</ele>
        <time>2010-01-03T01:56:15Z</time>
      </trkpt>
      <trkpt lat="46.21782" lon="6.793">
        <ele>1642</ele>
        <time>2010-01-03T01:56:24Z</time>
      </trkpt>
      <trkpt lat="46.21795" lon="6.79338">
        <ele>1639</ele>
        <time>2010-01-03T01:56:35Z</time>
      </trkpt>
      <trkpt lat="46.21818" lon="6.79389">
        <ele>1637</ele>
        <time>2010-01-03T01:56:52Z</time>
      </trkpt>
      <trkpt lat="46.21825" lon="6.79444">
        <ele>1639</ele>
        <time>2010-01-03T01:57:08Z</time>
      </trkpt>
      <trkpt lat="46.21836" lon="6.79522">
        <ele>1634</ele>
        <time>2010-01-03T01:57:30Z</time>
      </trkpt>
      <trkpt lat="46.21845" lon="6.79569">
        <ele>1641</ele>
        <time>2010-01-03T01:57:43Z</time>
      </trkpt>
      <trkpt lat="46.2188" lon="6.79604">
        <ele>1653</ele>
        <time>2010-01-03T01:58:00Z</time>
      </trkpt>
      <trkpt lat="46.21925" lon="6.79637">
        <ele>1649</ele>
        <time>2010-01-03T01:58:21Z</time>
      </trkpt>
      <trkpt lat="46.21964" lon="6.79661">
        <ele>1650</ele>
        <time>2010-01-03T01:58:37Z</time>
      </trkpt>
      <trkpt lat="46.21997" lon="6.79668">
        <ele>1661</ele>
        <time>2010-01-03T01:58:51Z</time>
      </trkpt>
      <trkpt lat="46.22047" lon="6.79668">
        <ele>1672</ele>
        <time>2010-01-03T01:59:11Z</time>
      </trkpt>
      <trkpt lat="46.22093" lon="6.79675">
        <ele>1673</ele>
        <time>2010-01-03T01:59:29Z</time>
      </trkpt>
      <trkpt lat="46.22174" lon="6.79678">
        <ele>1685</ele>
        <time>2010-01-03T02:00:02Z</time>
      </trkpt>
      <trkpt lat="46.22218" lon="6.79676">
        <ele>1688</ele>
        <time>2010-01-03T02:00:19Z</time>
      </trkpt>
      <trkpt lat="46.22256" lon="6.79695">
        <ele>1688</ele>
        <time>2010-01-03T02:00:35Z</time>
      </trkpt>
      <trkpt lat="46.22288" lon="6.79703">
        <ele>1690</ele>
        <time>2010-01-03T02:00:48Z</time>
      </trkpt>
      <trkpt lat="46.22314" lon="6.79704">
        <ele>1688</ele>
        <time>2010-01-03T02:00:59Z</time>
      </trkpt>
      <trkpt lat="46.22354" lon="6.79722">
        <ele>1687</ele>
        <time>2010-01-03T02:01:16Z</time>
      </trkpt>
      <trkpt lat="46.22406" lon="6.7973">
        <ele>1690</ele>
        <time>2010-01-03T02:01:37Z</time>
      </trkpt>
      <trkpt lat="46.22419" lon="6.79732">
        <ele>1692</ele>
        <time>2010-01-03T02:01:42Z</time>
      </trkpt>
      <trkpt lat="46.22441" lon="6.79754">
        <ele>1707</ele>
        <time>2010-01-03T02:01:52Z</time>
      </trkpt>
      <trkpt lat="46.22466" lon="6.79749">
        <ele>1693</ele>
        <time>2010-01-03T02:02:02Z</time>
      </trkpt>
      <trkpt lat="46.22487" lon="6.79737">
        <ele>1695</ele>
        <time>2010-01-03T02:02:12Z</time>
      </trkpt>
      <trkpt lat="46.2251" lon="6.79751">
        <ele>1702</ele>
        <time>2010-01-03T02:02:22Z</time>
      </trkpt>
      <trkpt lat="46.22521" lon="6.79785">
        <ele>1702</ele>
        <time>2010-01-03T02:02:32Z</time>
      </trkpt>
      <trkpt lat="46.22544" lon="6.79808">
        <ele>1700</ele>
        <time>2010-01-03T02:02:43Z</time>
      </trkpt>
      <trkpt lat="46.22585" lon="6.79844">
        <ele>1691</ele>
        <time>2010-01-03T02:03:02Z</time>
      </trkpt>
      <trkpt lat="46.2263" lon="6.79871">
        <ele>1690</ele>
        <time>2010-01-03T02:03:22Z</time>
      </trkpt>
      <trkpt lat="46.22652" lon="6.7989">
        <ele>1690</ele>
        <time>2010-01-03T02:03:32Z</time>
      </trkpt>
      <trkpt lat="46.22669" lon="6.79883">
        <ele>1678</ele>
        <time>2010-01-03T02:03:39Z</time>
      </trkpt>
      <trkpt lat="46.22671" lon="6.79866">
        <ele>1676</ele>
        <time>2010-01-03T02:03:44Z</time>
      </trkpt>
      <trkpt lat="46.22674" lon="6.79843">
        <ele>1675</ele>
        <time>2010-01-03T02:03:50Z</time>
      </trkpt>
      <trkpt lat="46.22693" lon="6.79888">
        <ele>1676</ele>
        <time>2010-01-03T02:04:05Z</time>
      </trkpt>
      <trkpt lat="46.22718" lon="6.79898">
        <ele>1673</ele>
        <time>2010-01-03T02:04:15Z</time>
      </trkpt>
      <trkpt lat="46.22748" lon="6.79892">
        <ele>1670</ele>
        <time>2010-01-03T02:04:27Z</time>
      </trkpt>
      <trkpt lat="46.22797" lon="6.79877">
        <ele>1658</ele>
        <time>2010-01-03T02:04:47Z</time>
      </trkpt>
      <trkpt lat="46.22844" lon="6.79869">
        <ele>1651</ele>
        <time>2010-01-03T02:05:06Z</time>
      </trkpt>
      <trkpt lat="46.22906" lon="6.79888">
        <ele>1651</ele>
        <time>2010-01-03T02:05:32Z</time>
      </trkpt>
      <trkpt lat="46.22925" lon="6.79878">
        <ele>1654</ele>
        <time>2010-01-03T02:05:39Z</time>
      </trkpt>
      <trkpt lat="46.22971" lon="6.7985">
        <ele>1655</ele>
        <time>2010-01-03T02:05:59Z</time>
      </trkpt>
      <trkpt lat="46.23022" lon="6.79811">
        <ele>1650</ele>
        <time>2010-01-03T02:06:23Z</time>
      </trkpt>
      <trkpt lat="46.23089" lon="6.79821">
        <ele>1651</ele>
        <time>2010-01-03T02:06:49Z</time>
      </trkpt>
      <trkpt lat="46.23151" lon="6.79864">
        <ele>1653</ele>
        <time>2010-01-03T02:07:17Z</time>
      </trkpt>
      <trkpt lat="46.23196" lon="6.79903">
        <ele>1647</ele>
        <time>2010-01-03T02:07:38Z</time>
      </trkpt>
      <trkpt lat="46.23242" lon="6.79955">
        <ele>1649</ele>
        <time>2010-01-03T02:08:02Z</time>
      </trkpt>
      <trkpt lat="46.23267" lon="6.80005">
        <ele>1647</ele>
        <time>2010-01-03T02:08:19Z</time>
      </trkpt>
      <trkpt lat="46.23267" lon="6.80022">
        <ele>1647</ele>
        <time>2010-01-03T02:08:23Z</time>
      </trkpt>
      <trkpt lat="46.23279" lon="6.80049">
        <ele>1647</ele>
        <time>2010-01-03T02:08:32Z</time>
      </trkpt>
      <trkpt lat="46.23302" lon="6.80047">
        <ele>1646</ele>
        <time>2010-01-03T02:08:41Z</time>
      </trkpt>
      <trkpt lat="46.23316" lon="6.80048">
        <ele>1645</ele>
        <time>2010-01-03T02:08:47Z</time>
      </trkpt>
      <trkpt lat="46.23341" lon="6.80049">
        <ele>1641</ele>
        <time>2010-01-03T02:08:57Z</time>
      </trkpt>
      <trkpt lat="46.23345" lon="6.80064">
        <ele>1643</ele>
        <time>2010-01-03T02:09:02Z</time>
      </trkpt>
      <trkpt lat="46.23378" lon="6.80071">
        <ele>1642</ele>
        <time>2010-01-03T02:09:15Z</time>
      </trkpt>
      <trkpt lat="46.23407" lon="6.80073">
        <ele>1644</ele>
        <time>2010-01-03T02:09:27Z</time>
      </trkpt>
      <trkpt lat="46.23445" lon="6.80079">
        <ele>1641</ele>
        <time>2010-01-03T02:09:42Z</time>
      </trkpt>
      <trkpt lat="46.23474" lon="6.80094">
        <ele>1654</ele>
        <time>2010-01-03T02:09:54Z</time>
      </trkpt>
      <trkpt lat="46.23503" lon="6.80078">
        <ele>1642</ele>
        <time>2010-01-03T02:10:07Z</time>
      </trkpt>
      <trkpt lat="46.23532" lon="6.8006">
        <ele>1629</ele>
        <time>2010-01-03T02:10:19Z</time>
      </trkpt>
      <trkpt lat="46.23569" lon="6.80059">
        <ele>1626</ele>
        <time>2010-01-03T02:10:34Z</time>
      </trkpt>
      <trkpt lat="46.23601" lon="6.8007">
        <ele>1611</ele>
        <time>2010-01-03T02:10:47Z</time>
      </trkpt>
      <trkpt lat="46.23624" lon="6.80089">
        <ele>1623</ele>
        <time>2010-01-03T02:10:58Z</time>
      </trkpt>
      <trkpt lat="46.23635" lon="6.80137">
        <ele>1627</ele>
        <time>2010-01-03T02:11:12Z</time>
      </trkpt>
      <trkpt lat="46.23655" lon="6.8021">
        <ele>1652</ele>
        <time>2010-01-03T02:11:34Z</time>
      </trkpt>
      <trkpt lat="46.23671" lon="6.80278">
        <ele>1634</ele>
        <time>2010-01-03T02:11:54Z</time>
      </trkpt>
      <trkpt lat="46.23671" lon="6.80315">
        <ele>1642</ele>
        <time>2010-01-03T02:12:04Z</time>
      </trkpt>
      <trkpt lat="46.23677" lon="6.80368">
        <ele>1634</ele>
        <time>2010-01-03T02:12:19Z</time>
      </trkpt>
      <trkpt lat="46.23689" lon="6.80437">
        <ele>1624</ele>
        <time>2010-01-03T02:12:38Z</time>
      </trkpt>
      <trkpt lat="46.23693" lon="6.80481">
        <ele>1619</ele>
        <time>2010-01-03T02:12:51Z</time>
      </trkpt>
      <trkpt lat="46.23739" lon="6.80617">
        <ele>1606</ele>
        <time>2010-01-03T02:13:33Z</time>
      </trkpt>
      <trkpt lat="46.23779" lon="6.80668">
        <ele>1587</ele>
        <time>2010-01-03T02:13:54Z</time>
      </trkpt>
      <trkpt lat="46.23823" lon="6.80707">
        <ele>1583</ele>
        <time>2010-01-03T02:14:15Z</time>
      </trkpt>
      <trkpt lat="46.23866" lon="6.80726">
        <ele>1570</ele>
        <time>2010-01-03T02:14:33Z</time>
      </trkpt>
      <trkpt lat="46.23909" lon="6.80756">
        <ele>1572</ele>
        <time>2010-01-03T02:14:52Z</time>
      </trkpt>
      <trkpt lat="46.23951" lon="6.8079">
        <ele>1565</ele>
        <time>2010-01-03T02:15:11Z</time>
      </trkpt>
      <trkpt lat="46.23993" lon="6.8085">
        <ele>1577</ele>
        <time>2010-01-03T02:15:35Z</time>
      </trkpt>
      <trkpt lat="46.24019" lon="6.80883">
        <ele>1573</ele>
        <time>2010-01-03T02:15:49Z</time>
      </trkpt>
      <trkpt lat="46.2402" lon="6.80922">
        <ele>1586</ele>
        <time>2010-01-03T02:15:59Z</time>
      </trkpt>
      <trkpt lat="46.24073" lon="6.80955">
        <ele>1584</ele>
        <time>2010-01-03T02:16:22Z</time>
      </trkpt>
      <trkpt lat="46.24173" lon="6.81034">
        <ele>1582</ele>
        <time>2010-01-03T02:17:08Z</time>
      </trkpt>
      <trkpt lat="46.24406" lon="6.81213">
        <ele>1577</ele>
        <time>2010-01-03T02:18:53Z</time>
      </trkpt>
      <trkpt lat="46.24442" lon="6.81236">
        <ele>1543</ele>
        <time>2010-01-03T02:19:09Z</time>
      </trkpt>
      <trkpt lat="46.24491" lon="6.8126">
        <ele>1532</ele>
        <time>2010-01-03T02:19:30Z</time>
      </trkpt>
      <trkpt lat="46.2452" lon="6.81298">
        <ele>1504</ele>
        <time>2010-01-03T02:19:46Z</time>
      </trkpt>
      <trkpt lat="46.24544" lon="6.81325">
        <ele>1498</ele>
        <time>2010-01-03T02:19:58Z</time>
      </trkpt>
      <trkpt lat="46.24563" lon="6.81373">
        <ele>1504</ele>
        <time>2010-01-03T02:20:13Z</time>
      </trkpt>
      <trkpt lat="46.24551" lon="6.81453">
        <ele>1505</ele>
        <time>2010-01-03T02:20:36Z</time>
      </trkpt>
      <trkpt lat="46.24496" lon="6.81527">
        <ele>1528</ele>
        <time>2010-01-03T02:21:06Z</time>
      </trkpt>
      <trkpt lat="46.24465" lon="6.81588">
        <ele>1504</ele>
        <time>2010-01-03T02:21:27Z</time>
      </trkpt>
      <trkpt lat="46.24452" lon="6.81624">
        <ele>1504</ele>
        <time>2010-01-03T02:21:38Z</time>
      </trkpt>
      <trkpt lat="46.24442" lon="6.81684">
        <ele>1494</ele>
        <time>2010-01-03T02:21:55Z</time>
      </trkpt>
      <trkpt lat="46.24536" lon="6.81761">
        <ele>1481</ele>
        <time>2010-01-03T02:22:38Z</time>
      </trkpt>
      <trkpt lat="46.24595" lon="6.81788">
        <ele>1467</ele>
        <time>2010-01-03T02:23:03Z</time>
      </trkpt>
      <trkpt lat="46.24674" lon="6.81847">
        <ele>1443</ele>
        <time>2010-01-03T02:23:39Z</time>
      </trkpt>
      <trkpt lat="46.24771" lon="6.8205">
        <ele>1400</ele>
        <time>2010-01-03T02:24:47Z</time>
      </trkpt>
      <trkpt lat="46.24769" lon="6.82228">
        <ele>1394</ele>
        <time>2010-01-03T02:25:36Z</time>
      </trkpt>
      <trkpt lat="46.24753" lon="6.8231">
        <ele>1386</ele>
        <time>2010-01-03T02:26:00Z</time>
      </trkpt>
      <trkpt lat="46.2468" lon="6.82473">
        <ele>1388</ele>
        <time>2010-01-03T02:26:54Z</time>
      </trkpt>
      <trkpt lat="46.24774" lon="6.82582">
        <ele>1383</ele>
        <time>2010-01-03T02:27:42Z</time>
      </trkpt>
      <trkpt lat="46.24894" lon="6.82598">
        <ele>1380</ele>
        <time>2010-01-03T02:28:30Z</time>
      </trkpt>
      <trkpt lat="46.24977" lon="6.82609">
        <ele>1360</ele>
        <time>2010-01-03T02:29:03Z</time>
      </trkpt>
      <trkpt lat="46.2505" lon="6.82693">
        <ele>1346</ele>
        <time>2010-01-03T02:29:41Z</time>
      </trkpt>
      <trkpt lat="46.2512" lon="6.82774">
        <ele>1326</ele>
        <time>2010-01-03T02:30:17Z</time>
      </trkpt>
      <trkpt lat="46.25153" lon="6.82858">
        <ele>1329</ele>
        <time>2010-01-03T02:30:43Z</time>
      </trkpt>
      <trkpt lat="46.25185" lon="6.82962">
        <ele>1299</ele>
        <time>2010-01-03T02:31:15Z</time>
      </trkpt>
      <trkpt lat="46.25222" lon="6.8312">
        <ele>1304</ele>
        <time>2010-01-03T02:32:01Z</time>
      </trkpt>
      <trkpt lat="46.25248" lon="6.83153">
        <ele>1297</ele>
        <time>2010-01-03T02:32:15Z</time>
      </trkpt>
      <trkpt lat="46.25243" lon="6.83173">
        <ele>1299</ele>
        <time>2010-01-03T02:32:15Z</time>
      </trkpt>
      <trkpt lat="46.25247" lon="6.83157">
        <ele>1296</ele>
        <time>2010-01-03T02:32:19Z</time>
      </trkpt>
      <trkpt lat="46.25254" lon="6.83193">
        <ele>1283</ele>
        <time>2010-01-03T02:32:29Z</time>
      </trkpt>
      <trkpt lat="46.2527" lon="6.83211">
        <ele>1282</ele>
        <time>2010-01-03T02:32:38Z</time>
      </trkpt>
      <trkpt lat="46.25286" lon="6.83238">
        <ele>1281</ele>
        <time>2010-01-03T02:32:48Z</time>
      </trkpt>
      <trkpt lat="46.25305" lon="6.83242">
        <ele>1275</ele>
        <time>2010-01-03T02:32:55Z</time>
      </trkpt>
      <trkpt lat="46.25318" lon="6.83241">
        <ele>1271</ele>
        <time>2010-01-03T02:33:01Z</time>
      </trkpt>
      <trkpt lat="46.25338" lon="6.83299">
        <ele>1263</ele>
        <time>2010-01-03T02:33:18Z</time>
      </trkpt>
      <trkpt lat="46.25344" lon="6.83324">
        <ele>1269</ele>
        <time>2010-01-03T02:33:26Z</time>
      </trkpt>
      <trkpt lat="46.25369" lon="6.8337">
        <ele>1273</ele>
        <time>2010-01-03T02:33:42Z</time>
      </trkpt>
      <trkpt lat="46.25388" lon="6.83399">
        <ele>1271</ele>
        <time>2010-01-03T02:33:53Z</time>
      </trkpt>
      <trkpt lat="46.25409" lon="6.83433">
        <ele>1275</ele>
        <time>2010-01-03T02:34:06Z</time>
      </trkpt>
      <trkpt lat="46.2543" lon="6.83478">
        <ele>1261</ele>
        <time>2010-01-03T02:34:20Z</time>
      </trkpt>
      <trkpt lat="46.25432" lon="6.83483">
        <ele>1261</ele>
        <time>2010-01-03T02:34:22Z</time>
      </trkpt>
      <trkpt lat="46.25443" lon="6.83501">
        <ele>1265</ele>
        <time>2010-01-03T02:34:29Z</time>
      </trkpt>
      <trkpt lat="46.25459" lon="6.8354">
        <ele>1262</ele>
        <time>2010-01-03T02:34:41Z</time>
      </trkpt>
      <trkpt lat="46.25477" lon="6.83586">
        <ele>1265</ele>
        <time>2010-01-03T02:34:56Z</time>
      </trkpt>
      <trkpt lat="46.25509" lon="6.83655">
        <ele>1254</ele>
        <time>2010-01-03T02:35:19Z</time>
      </trkpt>
      <trkpt lat="46.25531" lon="6.837">
        <ele>1261</ele>
        <time>2010-01-03T02:35:34Z</time>
      </trkpt>
      <trkpt lat="46.25547" lon="6.83731">
        <ele>1262</ele>
        <time>2010-01-03T02:35:45Z</time>
      </trkpt>
      <trkpt lat="46.25564" lon="6.83753">
        <ele>1268</ele>
        <time>2010-01-03T02:35:54Z</time>
      </trkpt>
      <trkpt lat="46.25592" lon="6.83797">
        <ele>1253</ele>
        <time>2010-01-03T02:36:11Z</time>
      </trkpt>
      <trkpt lat="46.25592" lon="6.83789">
        <ele>1252</ele>
        <time>2010-01-03T02:36:13Z</time>
      </trkpt>
      <trkpt lat="46.25613" lon="6.83823">
        <ele>1253</ele>
        <time>2010-01-03T02:36:26Z</time>
      </trkpt>
      <trkpt lat="46.25632" lon="6.83869">
        <ele>1257</ele>
        <time>2010-01-03T02:36:41Z</time>
      </trkpt>
      <trkpt lat="46.25642" lon="6.83894">
        <ele>1256</ele>
        <time>2010-01-03T02:36:49Z</time>
      </trkpt>
      <trkpt lat="46.25656" lon="6.83926">
        <ele>1253</ele>
        <time>2010-01-03T02:36:59Z</time>
      </trkpt>
      <trkpt lat="46.25669" lon="6.8394">
        <ele>1245</ele>
        <time>2010-01-03T02:37:05Z</time>
      </trkpt>
      <trkpt lat="46.25684" lon="6.83953">
        <ele>1244</ele>
        <time>2010-01-03T02:37:12Z</time>
      </trkpt>
      <trkpt lat="46.25714" lon="6.83991">
        <ele>1244</ele>
        <time>2010-01-03T02:37:29Z</time>
      </trkpt>
      <trkpt lat="46.25732" lon="6.84017">
        <ele>1246</ele>
        <time>2010-01-03T02:37:39Z</time>
      </trkpt>
      <trkpt lat="46.25743" lon="6.8404">
        <ele>1246</ele>
        <time>2010-01-03T02:37:47Z</time>
      </trkpt>
      <trkpt lat="46.25752" lon="6.84044">
        <ele>1241</ele>
        <time>2010-01-03T02:37:50Z</time>
      </trkpt>
      <trkpt lat="46.25762" lon="6.84066">
        <ele>1242</ele>
        <time>2010-01-03T02:37:57Z</time>
      </trkpt>
      <trkpt lat="46.25771" lon="6.84043">
        <ele>1241</ele>
        <time>2010-01-03T02:38:05Z</time>
      </trkpt>
      <trkpt lat="46.25793" lon="6.84043">
        <ele>1240</ele>
        <time>2010-01-03T02:38:14Z</time>
      </trkpt>
      <trkpt lat="46.25823" lon="6.84054">
        <ele>1240</ele>
        <time>2010-01-03T02:38:26Z</time>
      </trkpt>
      <trkpt lat="46.25885" lon="6.84072">
        <ele>1237</ele>
        <time>2010-01-03T02:38:51Z</time>
      </trkpt>
      <trkpt lat="46.25932" lon="6.84082">
        <ele>1235</ele>
        <time>2010-01-03T02:39:10Z</time>
      </trkpt>
      <trkpt lat="46.25959" lon="6.84086">
        <ele>1240</ele>
        <time>2010-01-03T02:39:21Z</time>
      </trkpt>
      <trkpt lat="46.25995" lon="6.84088">
        <ele>1237</ele>
        <time>2010-01-03T02:39:36Z</time>
      </trkpt>
      <trkpt lat="46.26019" lon="6.84083">
        <ele>1230</ele>
        <time>2010-01-03T02:39:45Z</time>
      </trkpt>
      <trkpt lat="46.26055" lon="6.84077">
        <ele>1226</ele>
        <time>2010-01-03T02:40:00Z</time>
      </trkpt>
      <trkpt lat="46.26089" lon="6.84072">
        <ele>1224</ele>
        <time>2010-01-03T02:40:14Z</time>
      </trkpt>
      <trkpt lat="46.26116" lon="6.84071">
        <ele>1220</ele>
        <time>2010-01-03T02:40:24Z</time>
      </trkpt>
      <trkpt lat="46.26151" lon="6.84073">
        <ele>1219</ele>
        <time>2010-01-03T02:40:38Z</time>
      </trkpt>
      <trkpt lat="46.26181" lon="6.84081">
        <ele>1217</ele>
        <time>2010-01-03T02:40:51Z</time>
      </trkpt>
      <trkpt lat="46.26202" lon="6.84084">
        <ele>1223</ele>
        <time>2010-01-03T02:40:59Z</time>
      </trkpt>
      <trkpt lat="46.26222" lon="6.8409">
        <ele>1222</ele>
        <time>2010-01-03T02:41:07Z</time>
      </trkpt>
      <trkpt lat="46.26258" lon="6.84103">
        <ele>1215</ele>
        <time>2010-01-03T02:41:22Z</time>
      </trkpt>
      <trkpt lat="46.2629" lon="6.84115">
        <ele>1215</ele>
        <time>2010-01-03T02:41:35Z</time>
      </trkpt>
      <trkpt lat="46.26314" lon="6.84126">
        <ele>1215</ele>
        <time>2010-01-03T02:41:46Z</time>
      </trkpt>
      <trkpt lat="46.26334" lon="6.84131">
        <ele>1209</ele>
        <time>2010-01-03T02:41:53Z</time>
      </trkpt>
      <trkpt lat="46.26368" lon="6.84144">
        <ele>1208</ele>
        <time>2010-01-03T02:42:08Z</time>
      </trkpt>
      <trkpt lat="46.26404" lon="6.84152">
        <ele>1207</ele>
        <time>2010-01-03T02:42:22Z</time>
      </trkpt>
      <trkpt lat="46.26462" lon="6.84173">
        <ele>1212</ele>
        <time>2010-01-03T02:42:46Z</time>
      </trkpt>
      <trkpt lat="46.26493" lon="6.84178">
        <ele>1208</ele>
        <time>2010-01-03T02:42:59Z</time>
      </trkpt>
      <trkpt lat="46.26516" lon="6.84176">
        <ele>1207</ele>
        <time>2010-01-03T02:43:08Z</time>
      </trkpt>
      <trkpt lat="46.26552" lon="6.8417">
        <ele>1208</ele>
        <time>2010-01-03T02:43:23Z</time>
      </trkpt>
      <trkpt lat="46.26599" lon="6.84158">
        <ele>1198</ele>
        <time>2010-01-03T02:43:41Z</time>
      </trkpt>
      <trkpt lat="46.26638" lon="6.84142">
        <ele>1196</ele>
        <time>2010-01-03T02:43:58Z</time>
      </trkpt>
      <trkpt lat="46.2666" lon="6.84139">
        <ele>1196</ele>
        <time>2010-01-03T02:44:07Z</time>
      </trkpt>
      <trkpt lat="46.26678" lon="6.84143">
        <ele>1195</ele>
        <time>2010-01-03T02:44:14Z</time>
      </trkpt>
      <trkpt lat="46.26701" lon="6.84147">
        <ele>1194</ele>
        <time>2010-01-03T02:44:23Z</time>
      </trkpt>
      <trkpt lat="46.26726" lon="6.84168">
        <ele>1202</ele>
        <time>2010-01-03T02:44:35Z</time>
      </trkpt>
      <trkpt lat="46.26726" lon="6.84178">
        <ele>1203</ele>
        <time>2010-01-03T02:44:38Z</time>
      </trkpt>
      <trkpt lat="46.26712" lon="6.84187">
        <ele>1204</ele>
        <time>2010-01-03T02:44:44Z</time>
      </trkpt>
      <trkpt lat="46.26696" lon="6.84195">
        <ele>1205</ele>
        <time>2010-01-03T02:44:50Z</time>
      </trkpt>
      <trkpt lat="46.26681" lon="6.84202">
        <ele>1206</ele>
        <time>2010-01-03T02:44:57Z</time>
      </trkpt>
      <trkpt lat="46.26675" lon="6.84209">
        <ele>1207</ele>
        <time>2010-01-03T02:45:00Z</time>
      </trkpt>
      <trkpt lat="46.26661" lon="6.84216">
        <ele>1209</ele>
        <time>2010-01-03T02:45:06Z</time>
      </trkpt>
      <trkpt lat="46.26661" lon="6.84229">
        <ele>1211</ele>
        <time>2010-01-03T02:45:09Z</time>
      </trkpt>
      <trkpt lat="46.26659" lon="6.84237">
        <ele>1212</ele>
        <time>2010-01-03T02:45:12Z</time>
      </trkpt>
      <trkpt lat="46.26665" lon="6.84259">
        <ele>1220</ele>
        <time>2010-01-03T02:45:18Z</time>
      </trkpt>
      <trkpt lat="46.26669" lon="6.84265">
        <ele>1220</ele>
        <time>2010-01-03T02:45:21Z</time>
      </trkpt>
      <trkpt lat="46.26669" lon="6.84245">
        <ele>1214</ele>
        <time>2010-01-03T02:45:26Z</time>
      </trkpt>
      <trkpt lat="46.26676" lon="6.84242">
        <ele>1212</ele>
        <time>2010-01-03T02:45:29Z</time>
      </trkpt>
      <trkpt lat="46.26684" lon="6.84253">
        <ele>1219</ele>
        <time>2010-01-03T02:45:33Z</time>
      </trkpt>
      <trkpt lat="46.26683" lon="6.84269">
        <ele>1221</ele>
        <time>2010-01-03T02:45:38Z</time>
      </trkpt>
      <trkpt lat="46.2668" lon="6.84311">
        <ele>1227</ele>
        <time>2010-01-03T02:45:50Z</time>
      </trkpt>
      <trkpt lat="46.26679" lon="6.84343">
        <ele>1243</ele>
        <time>2010-01-03T02:45:58Z</time>
      </trkpt>
      <trkpt lat="46.26695" lon="6.84653">
        <ele>1395</ele>
        <time>2010-01-03T02:47:24Z</time>
      </trkpt>
      <trkpt lat="46.26702" lon="6.84793">
        <ele>1472</ele>
        <time>2010-01-03T02:48:03Z</time>
      </trkpt>
      <trkpt lat="46.26726" lon="6.84999">
        <ele>1505</ele>
        <time>2010-01-03T02:49:01Z</time>
      </trkpt>
      <trkpt lat="46.2674" lon="6.85268">
        <ele>1516</ele>
        <time>2010-01-03T02:50:16Z</time>
      </trkpt>
      <trkpt lat="46.26751" lon="6.85438">
        <ele>1556</ele>
        <time>2010-01-03T02:51:03Z</time>
      </trkpt>
      <trkpt lat="46.26753" lon="6.85531">
        <ele>1581</ele>
        <time>2010-01-03T02:51:29Z</time>
      </trkpt>
      <trkpt lat="46.26758" lon="6.8562">
        <ele>1602</ele>
        <time>2010-01-03T02:51:53Z</time>
      </trkpt>
      <trkpt lat="46.26767" lon="6.85687">
        <ele>1619</ele>
        <time>2010-01-03T02:52:12Z</time>
      </trkpt>
      <trkpt lat="46.26769" lon="6.8573">
        <ele>1625</ele>
        <time>2010-01-03T02:52:24Z</time>
      </trkpt>
      <trkpt lat="46.26769" lon="6.8574">
        <ele>1626</ele>
        <time>2010-01-03T02:52:27Z</time>
      </trkpt>
      <trkpt lat="46.26771" lon="6.85749">
        <ele>1627</ele>
        <time>2010-01-03T02:52:30Z</time>
      </trkpt>
      <trkpt lat="46.26773" lon="6.85756">
        <ele>1634</ele>
        <time>2010-01-03T02:52:32Z</time>
      </trkpt>
      <trkpt lat="46.26773" lon="6.8576">
        <ele>1635</ele>
        <time>2010-01-03T02:52:33Z</time>
      </trkpt>
      <trkpt lat="46.26772" lon="6.85764">
        <ele>1635</ele>
        <time>2010-01-03T02:52:34Z</time>
      </trkpt>
      <trkpt lat="46.26771" lon="6.8577">
        <ele>1635</ele>
        <time>2010-01-03T02:52:36Z</time>
      </trkpt>
      <trkpt lat="46.26771" lon="6.85773">
        <ele>1635</ele>
        <time>2010-01-03T02:52:36Z</time>
      </trkpt>
      <trkpt lat="46.26771" lon="6.85775">
        <ele>1636</ele>
        <time>2010-01-03T02:52:37Z</time>
      </trkpt>
      <trkpt lat="46.26772" lon="6.85782">
        <ele>1636</ele>
        <time>2010-01-03T02:52:39Z</time>
      </trkpt>
      <trkpt lat="46.26772" lon="6.85783">
        <ele>1636</ele>
        <time>2010-01-03T02:52:39Z</time>
      </trkpt>
      <trkpt lat="46.26773" lon="6.85782">
        <ele>1636</ele>
        <time>2010-01-03T02:52:40Z</time>
      </trkpt>
      <trkpt lat="46.26773" lon="6.85781">
        <ele>1636</ele>
        <time>2010-01-03T02:52:40Z</time>
      </trkpt>
      <trkpt lat="46.26775" lon="6.8578">
        <ele>1636</ele>
        <time>2010-01-03T02:52:41Z</time>
      </trkpt>
      <trkpt lat="46.26776" lon="6.85778">
        <ele>1636</ele>
        <time>2010-01-03T02:52:41Z</time>
      </trkpt>
      <trkpt lat="46.26777" lon="6.85777">
        <ele>1636</ele>
        <time>2010-01-03T02:52:42Z</time>
      </trkpt>
      <trkpt lat="46.26778" lon="6.85776">
        <ele>1636</ele>
        <time>2010-01-03T02:52:42Z</time>
      </trkpt>
      <trkpt lat="46.2678" lon="6.85776">
        <ele>1636</ele>
        <time>2010-01-03T02:52:43Z</time>
      </trkpt>
      <trkpt lat="46.2678" lon="6.85775">
        <ele>1636</ele>
        <time>2010-01-03T02:52:43Z</time>
      </trkpt>
      <trkpt lat="46.26781" lon="6.85775">
        <ele>1636</ele>
        <time>2010-01-03T02:52:43Z</time>
      </trkpt>
      <trkpt lat="46.26782" lon="6.85776">
        <ele>1636</ele>
        <time>2010-01-03T02:52:44Z</time>
      </trkpt>
      <trkpt lat="46.26782" lon="6.85776">
        <ele>1636</ele>
        <time>2010-01-03T02:52:44Z</time>
      </trkpt>
      <trkpt lat="46.26782" lon="6.85777">
        <ele>1636</ele>
        <time>2010-01-03T02:52:44Z</time>
      </trkpt>
      <trkpt lat="46.26782" lon="6.85779">
        <ele>1636</ele>
        <time>2010-01-03T02:52:45Z</time>
      </trkpt>
      <trkpt lat="46.26782" lon="6.85781">
        <ele>1636</ele>
        <time>2010-01-03T02:52:45Z</time>
      </trkpt>
      <trkpt lat="46.26782" lon="6.85782">
        <ele>1636</ele>
        <time>2010-01-03T02:52:46Z</time>
      </trkpt>
      <trkpt lat="46.26781" lon="6.85783">
        <ele>1636</ele>
        <time>2010-01-03T02:52:46Z</time>
      </trkpt>
      <trkpt lat="46.2678" lon="6.85784">
        <ele>1637</ele>
        <time>2010-01-03T02:52:46Z</time>
      </trkpt>
      <trkpt lat="46.2678" lon="6.85785">
        <ele>1637</ele>
        <time>2010-01-03T02:52:47Z</time>
      </trkpt>
      <trkpt lat="46.26779" lon="6.85786">
        <ele>1637</ele>
        <time>2010-01-03T02:52:47Z</time>
      </trkpt>
      <trkpt lat="46.26778" lon="6.85786">
        <ele>1637</ele>
        <time>2010-01-03T02:52:48Z</time>
      </trkpt>
      <trkpt lat="46.26777" lon="6.85786">
        <ele>1637</ele>
        <time>2010-01-03T02:52:48Z</time>
      </trkpt>
      <trkpt lat="46.26775" lon="6.85786">
        <ele>1637</ele>
        <time>2010-01-03T02:52:49Z</time>
      </trkpt>
      <trkpt lat="46.26774" lon="6.85787">
        <ele>1637</ele>
        <time>2010-01-03T02:52:49Z</time>
      </trkpt>
      <trkpt lat="46.26773" lon="6.85787">
        <ele>1637</ele>
        <time>2010-01-03T02:52:50Z</time>
      </trkpt>
      <trkpt lat="46.26772" lon="6.85788">
        <ele>1637</ele>
        <time>2010-01-03T02:52:50Z</time>
      </trkpt>
      <trkpt lat="46.2677" lon="6.8579">
        <ele>1637</ele>
        <time>2010-01-03T02:52:51Z</time>
      </trkpt>
      <trkpt lat="46.26769" lon="6.85791">
        <ele>1637</ele>
        <time>2010-01-03T02:52:52Z</time>
      </trkpt>
      <trkpt lat="46.26768" lon="6.85792">
        <ele>1637</ele>
        <time>2010-01-03T02:52:52Z</time>
      </trkpt>
      <trkpt lat="46.26766" lon="6.85793">
        <ele>1637</ele>
        <time>2010-01-03T02:52:53Z</time>
      </trkpt>
      <trkpt lat="46.26763" lon="6.85795">
        <ele>1637</ele>
        <time>2010-01-03T02:52:54Z</time>
      </trkpt>
      <trkpt lat="46.26761" lon="6.85797">
        <ele>1637</ele>
        <time>2010-01-03T02:52:55Z</time>
      </trkpt>
      <trkpt lat="46.2676" lon="6.85798">
        <ele>1637</ele>
        <time>2010-01-03T02:52:56Z</time>
      </trkpt>
      <trkpt lat="46.26759" lon="6.85799">
        <ele>1637</ele>
        <time>2010-01-03T02:52:56Z</time>
      </trkpt>
      <trkpt lat="46.26756" lon="6.858">
        <ele>1637</ele>
        <time>2010-01-03T02:52:57Z</time>
      </trkpt>
      <trkpt lat="46.26755" lon="6.858">
        <ele>1637</ele>
        <time>2010-01-03T02:52:58Z</time>
      </trkpt>
      <trkpt lat="46.26755" lon="6.85801">
        <ele>1637</ele>
        <time>2010-01-03T02:52:58Z</time>
      </trkpt>
      <trkpt lat="46.26754" lon="6.85801">
        <ele>1637</ele>
        <time>2010-01-03T02:52:58Z</time>
      </trkpt>
      <trkpt lat="46.26753" lon="6.85801">
        <ele>1637</ele>
        <time>2010-01-03T02:52:59Z</time>
      </trkpt>
      <trkpt lat="46.26752" lon="6.85802">
        <ele>1637</ele>
        <time>2010-01-03T02:52:59Z</time>
      </trkpt>
      <trkpt lat="46.26751" lon="6.85803">
        <ele>1637</ele>
        <time>2010-01-03T02:53:00Z</time>
      </trkpt>
      <trkpt lat="46.2675" lon="6.85804">
        <ele>1633</ele>
        <time>2010-01-03T02:53:00Z</time>
      </trkpt>
      <trkpt lat="46.26748" lon="6.85806">
        <ele>1634</ele>
        <time>2010-01-03T02:53:01Z</time>
      </trkpt>
      <trkpt lat="46.26745" lon="6.85809">
        <ele>1634</ele>
        <time>2010-01-03T02:53:03Z</time>
      </trkpt>
      <trkpt lat="46.26742" lon="6.85812">
        <ele>1634</ele>
        <time>2010-01-03T02:53:04Z</time>
      </trkpt>
      <trkpt lat="46.26739" lon="6.85815">
        <ele>1634</ele>
        <time>2010-01-03T02:53:06Z</time>
      </trkpt>
      <trkpt lat="46.26736" lon="6.85818">
        <ele>1634</ele>
        <time>2010-01-03T02:53:07Z</time>
      </trkpt>
      <trkpt lat="46.26734" lon="6.8582">
        <ele>1634</ele>
        <time>2010-01-03T02:53:08Z</time>
      </trkpt>
      <trkpt lat="46.26732" lon="6.8582">
        <ele>1634</ele>
        <time>2010-01-03T02:53:08Z</time>
      </trkpt>
      <trkpt lat="46.26732" lon="6.85821">
        <ele>1634</ele>
        <time>2010-01-03T02:53:09Z</time>
      </trkpt>
      <trkpt lat="46.2673" lon="6.85822">
        <ele>1634</ele>
        <time>2010-01-03T02:53:10Z</time>
      </trkpt>
      <trkpt lat="46.26729" lon="6.85823">
        <ele>1634</ele>
        <time>2010-01-03T02:53:10Z</time>
      </trkpt>
      <trkpt lat="46.26728" lon="6.85824">
        <ele>1634</ele>
        <time>2010-01-03T02:53:10Z</time>
      </trkpt>
      <trkpt lat="46.26727" lon="6.85825">
        <ele>1634</ele>
        <time>2010-01-03T02:53:11Z</time>
      </trkpt>
      <trkpt lat="46.26726" lon="6.85825">
        <ele>1634</ele>
        <time>2010-01-03T02:53:11Z</time>
      </trkpt>
      <trkpt lat="46.26726" lon="6.85826">
        <ele>1634</ele>
        <time>2010-01-03T02:53:12Z</time>
      </trkpt>
      <trkpt lat="46.26725" lon="6.85828">
        <ele>1634</ele>
        <time>2010-01-03T02:53:12Z</time>
      </trkpt>
      <trkpt lat="46.26724" lon="6.85829">
        <ele>1634</ele>
        <time>2010-01-03T02:53:13Z</time>
      </trkpt>
      <trkpt lat="46.26723" lon="6.85831">
        <ele>1634</ele>
        <time>2010-01-03T02:53:13Z</time>
      </trkpt>
      <trkpt lat="46.26722" lon="6.85833">
        <ele>1634</ele>
        <time>2010-01-03T02:53:14Z</time>
      </trkpt>
      <trkpt lat="46.26721" lon="6.85835">
        <ele>1640</ele>
        <time>2010-01-03T02:53:15Z</time>
      </trkpt>
      <trkpt lat="46.26718" lon="6.85838">
        <ele>1640</ele>
        <time>2010-01-03T02:53:16Z</time>
      </trkpt>
      <trkpt lat="46.26715" lon="6.85842">
        <ele>1639</ele>
        <time>2010-01-03T02:53:18Z</time>
      </trkpt>
      <trkpt lat="46.26713" lon="6.85844">
        <ele>1639</ele>
        <time>2010-01-03T02:53:19Z</time>
      </trkpt>
      <trkpt lat="46.26712" lon="6.85846">
        <ele>1639</ele>
        <time>2010-01-03T02:53:19Z</time>
      </trkpt>
      <trkpt lat="46.26711" lon="6.85847">
        <ele>1639</ele>
        <time>2010-01-03T02:53:20Z</time>
      </trkpt>
      <trkpt lat="46.2671" lon="6.85849">
        <ele>1639</ele>
        <time>2010-01-03T02:53:20Z</time>
      </trkpt>
      <trkpt lat="46.26709" lon="6.85851">
        <ele>1639</ele>
        <time>2010-01-03T02:53:21Z</time>
      </trkpt>
      <trkpt lat="46.26709" lon="6.85852">
        <ele>1639</ele>
        <time>2010-01-03T02:53:21Z</time>
      </trkpt>
      <trkpt lat="46.26707" lon="6.85854">
        <ele>1639</ele>
        <time>2010-01-03T02:53:22Z</time>
      </trkpt>
      <trkpt lat="46.26706" lon="6.85855">
        <ele>1639</ele>
        <time>2010-01-03T02:53:23Z</time>
      </trkpt>
      <trkpt lat="46.26705" lon="6.85856">
        <ele>1639</ele>
        <time>2010-01-03T02:53:23Z</time>
      </trkpt>
      <trkpt lat="46.26705" lon="6.85857">
        <ele>1639</ele>
        <time>2010-01-03T02:53:24Z</time>
      </trkpt>
      <trkpt lat="46.26702" lon="6.85863">
        <ele>1640</ele>
        <time>2010-01-03T02:53:25Z</time>
      </trkpt>
      <trkpt lat="46.26698" lon="6.85869">
        <ele>1640</ele>
        <time>2010-01-03T02:53:28Z</time>
      </trkpt>
      <trkpt lat="46.26696" lon="6.85871">
        <ele>1640</ele>
        <time>2010-01-03T02:53:29Z</time>
      </trkpt>
      <trkpt lat="46.26692" lon="6.85877">
        <ele>1640</ele>
        <time>2010-01-03T02:53:31Z</time>
      </trkpt>
      <trkpt lat="46.26689" lon="6.85882">
        <ele>1640</ele>
        <time>2010-01-03T02:53:33Z</time>
      </trkpt>
      <trkpt lat="46.26687" lon="6.85884">
        <ele>1640</ele>
        <time>2010-01-03T02:53:34Z</time>
      </trkpt>
      <trkpt lat="46.26685" lon="6.85887">
        <ele>1641</ele>
        <time>2010-01-03T02:53:35Z</time>
      </trkpt>
      <trkpt lat="46.26685" lon="6.85887">
        <ele>1641</ele>
        <time>2010-01-03T02:53:35Z</time>
      </trkpt>
      <trkpt lat="46.26684" lon="6.85889">
        <ele>1641</ele>
        <time>2010-01-03T02:53:36Z</time>
      </trkpt>
      <trkpt lat="46.26684" lon="6.85889">
        <ele>1641</ele>
        <time>2010-01-03T02:53:36Z</time>
      </trkpt>
      <trkpt lat="46.26683" lon="6.8589">
        <ele>1641</ele>
        <time>2010-01-03T02:53:36Z</time>
      </trkpt>
      <trkpt lat="46.26683" lon="6.8589">
        <ele>1641</ele>
        <time>2010-01-03T02:53:37Z</time>
      </trkpt>
      <trkpt lat="46.26679" lon="6.85895">
        <ele>1641</ele>
        <time>2010-01-03T02:53:39Z</time>
      </trkpt>
      <trkpt lat="46.26673" lon="6.85905">
        <ele>1641</ele>
        <time>2010-01-03T02:53:42Z</time>
      </trkpt>
      <trkpt lat="46.2667" lon="6.85908">
        <ele>1642</ele>
        <time>2010-01-03T02:53:44Z</time>
      </trkpt>
      <trkpt lat="46.26667" lon="6.8591">
        <ele>1642</ele>
        <time>2010-01-03T02:53:45Z</time>
      </trkpt>
      <trkpt lat="46.26661" lon="6.85919">
        <ele>1643</ele>
        <time>2010-01-03T02:53:48Z</time>
      </trkpt>
      <trkpt lat="46.26652" lon="6.85928">
        <ele>1644</ele>
        <time>2010-01-03T02:53:53Z</time>
      </trkpt>
      <trkpt lat="46.26645" lon="6.85932">
        <ele>1645</ele>
        <time>2010-01-03T02:53:56Z</time>
      </trkpt>
      <trkpt lat="46.26637" lon="6.85938">
        <ele>1646</ele>
        <time>2010-01-03T02:53:59Z</time>
      </trkpt>
      <trkpt lat="46.26632" lon="6.85941">
        <ele>1646</ele>
        <time>2010-01-03T02:54:02Z</time>
      </trkpt>
      <trkpt lat="46.26628" lon="6.85945">
        <ele>1646</ele>
        <time>2010-01-03T02:54:04Z</time>
      </trkpt>
      <trkpt lat="46.26623" lon="6.85948">
        <ele>1646</ele>
        <time>2010-01-03T02:54:06Z</time>
      </trkpt>
      <trkpt lat="46.26617" lon="6.85953">
        <ele>1646</ele>
        <time>2010-01-03T02:54:09Z</time>
      </trkpt>
      <trkpt lat="46.26595" lon="6.85974">
        <ele>1648</ele>
        <time>2010-01-03T02:54:19Z</time>
      </trkpt>
      <trkpt lat="46.26584" lon="6.85987">
        <ele>1649</ele>
        <time>2010-01-03T02:54:25Z</time>
      </trkpt>
      <trkpt lat="46.26555" lon="6.86023">
        <ele>1657</ele>
        <time>2010-01-03T02:54:40Z</time>
      </trkpt>
      <trkpt lat="46.26528" lon="6.86048">
        <ele>1659</ele>
        <time>2010-01-03T02:54:53Z</time>
      </trkpt>
      <trkpt lat="46.26496" lon="6.86072">
        <ele>1665</ele>
        <time>2010-01-03T02:55:07Z</time>
      </trkpt>
      <trkpt lat="46.26488" lon="6.86081">
        <ele>1665</ele>
        <time>2010-01-03T02:55:11Z</time>
      </trkpt>
      <trkpt lat="46.26479" lon="6.86091">
        <ele>1671</ele>
        <time>2010-01-03T02:55:16Z</time>
      </trkpt>
      <trkpt lat="46.26479" lon="6.86092">
        <ele>1671</ele>
        <time>2010-01-03T02:55:16Z</time>
      </trkpt>
      <trkpt lat="46.26473" lon="6.86111">
        <ele>1673</ele>
        <time>2010-01-03T02:55:22Z</time>
      </trkpt>
      <trkpt lat="46.26464" lon="6.86138">
        <ele>1675</ele>
        <time>2010-01-03T02:55:30Z</time>
      </trkpt>
      <trkpt lat="46.26464" lon="6.86149">
        <ele>1676</ele>
        <time>2010-01-03T02:55:33Z</time>
      </trkpt>
      <trkpt lat="46.26466" lon="6.86158">
        <ele>1676</ele>
        <time>2010-01-03T02:55:36Z</time>
      </trkpt>
      <trkpt lat="46.26472" lon="6.86171">
        <ele>1679</ele>
        <time>2010-01-03T02:55:40Z</time>
      </trkpt>
      <trkpt lat="46.26476" lon="6.86177">
        <ele>1679</ele>
        <time>2010-01-03T02:55:42Z</time>
      </trkpt>
      <trkpt lat="46.26483" lon="6.86178">
        <ele>1678</ele>
        <time>2010-01-03T02:55:45Z</time>
      </trkpt>
      <trkpt lat="46.26496" lon="6.86183">
        <ele>1678</ele>
        <time>2010-01-03T02:55:51Z</time>
      </trkpt>
      <trkpt lat="46.26504" lon="6.86182">
        <ele>1677</ele>
        <time>2010-01-03T02:55:54Z</time>
      </trkpt>
      <trkpt lat="46.26515" lon="6.86183">
        <ele>1678</ele>
        <time>2010-01-03T02:55:58Z</time>
      </trkpt>
      <trkpt lat="46.26523" lon="6.86185">
        <ele>1679</ele>
        <time>2010-01-03T02:56:01Z</time>
      </trkpt>
      <trkpt lat="46.26537" lon="6.86186">
        <ele>1680</ele>
        <time>2010-01-03T02:56:07Z</time>
      </trkpt>
      <trkpt lat="46.26545" lon="6.86186">
        <ele>1680</ele>
        <time>2010-01-03T02:56:10Z</time>
      </trkpt>
      <trkpt lat="46.26554" lon="6.86186">
        <ele>1680</ele>
        <time>2010-01-03T02:56:14Z</time>
      </trkpt>
      <trkpt lat="46.26566" lon="6.8619">
        <ele>1681</ele>
        <time>2010-01-03T02:56:19Z</time>
      </trkpt>
      <trkpt lat="46.26574" lon="6.86193">
        <ele>1681</ele>
        <time>2010-01-03T02:56:22Z</time>
      </trkpt>
      <trkpt lat="46.26595" lon="6.86217">
        <ele>1685</ele>
        <time>2010-01-03T02:56:33Z</time>
      </trkpt>
      <trkpt lat="46.26603" lon="6.8623">
        <ele>1686</ele>
        <time>2010-01-03T02:56:38Z</time>
      </trkpt>
      <trkpt lat="46.26603" lon="6.86246">
        <ele>1686</ele>
        <time>2010-01-03T02:56:42Z</time>
      </trkpt>
      <trkpt lat="46.26598" lon="6.86263">
        <ele>1690</ele>
        <time>2010-01-03T02:56:47Z</time>
      </trkpt>
      <trkpt lat="46.26588" lon="6.86288">
        <ele>1692</ele>
        <time>2010-01-03T02:56:55Z</time>
      </trkpt>
      <trkpt lat="46.26582" lon="6.86298">
        <ele>1687</ele>
        <time>2010-01-03T02:56:59Z</time>
      </trkpt>
      <trkpt lat="46.26582" lon="6.86298">
        <ele>1687</ele>
        <time>2010-01-03T02:56:59Z</time>
      </trkpt>
      <trkpt lat="46.26567" lon="6.86322">
        <ele>1688</ele>
        <time>2010-01-03T02:57:08Z</time>
      </trkpt>
      <trkpt lat="46.26562" lon="6.86331">
        <ele>1688</ele>
        <time>2010-01-03T02:57:11Z</time>
      </trkpt>
      <trkpt lat="46.26559" lon="6.86337">
        <ele>1690</ele>
        <time>2010-01-03T02:57:13Z</time>
      </trkpt>
      <trkpt lat="46.26555" lon="6.86343">
        <ele>1689</ele>
        <time>2010-01-03T02:57:15Z</time>
      </trkpt>
      <trkpt lat="46.26555" lon="6.86344">
        <ele>1689</ele>
        <time>2010-01-03T02:57:15Z</time>
      </trkpt>
      <trkpt lat="46.26555" lon="6.86346">
        <ele>1689</ele>
        <time>2010-01-03T02:57:16Z</time>
      </trkpt>
      <trkpt lat="46.26555" lon="6.86346">
        <ele>1689</ele>
        <time>2010-01-03T02:57:16Z</time>
      </trkpt>
      <trkpt lat="46.26555" lon="6.86347">
        <ele>1689</ele>
        <time>2010-01-03T02:57:16Z</time>
      </trkpt>
      <trkpt lat="46.26553" lon="6.86358">
        <ele>1689</ele>
        <time>2010-01-03T02:57:19Z</time>
      </trkpt>
      <trkpt lat="46.26553" lon="6.86358">
        <ele>1689</ele>
        <time>2010-01-03T02:57:20Z</time>
      </trkpt>
      <trkpt lat="46.2655" lon="6.86374">
        <ele>1689</ele>
        <time>2010-01-03T02:57:24Z</time>
      </trkpt>
      <trkpt lat="46.26542" lon="6.86423">
        <ele>1691</ele>
        <time>2010-01-03T02:57:38Z</time>
      </trkpt>
      <trkpt lat="46.26542" lon="6.86444">
        <ele>1691</ele>
        <time>2010-01-03T02:57:44Z</time>
      </trkpt>
      <trkpt lat="46.26544" lon="6.8646">
        <ele>1691</ele>
        <time>2010-01-03T02:57:48Z</time>
      </trkpt>
      <trkpt lat="46.26543" lon="6.86496">
        <ele>1691</ele>
        <time>2010-01-03T02:57:58Z</time>
      </trkpt>
      <trkpt lat="46.26541" lon="6.86517">
        <ele>1693</ele>
        <time>2010-01-03T02:58:04Z</time>
      </trkpt>
      <trkpt lat="46.26536" lon="6.86535">
        <ele>1693</ele>
        <time>2010-01-03T02:58:10Z</time>
      </trkpt>
      <trkpt lat="46.26539" lon="6.86548">
        <ele>1693</ele>
        <time>2010-01-03T02:58:13Z</time>
      </trkpt>
      <trkpt lat="46.26539" lon="6.86549">
        <ele>1693</ele>
        <time>2010-01-03T02:58:14Z</time>
      </trkpt>
      <trkpt lat="46.26545" lon="6.86562">
        <ele>1693</ele>
        <time>2010-01-03T02:58:18Z</time>
      </trkpt>
      <trkpt lat="46.26552" lon="6.86573">
        <ele>1692</ele>
        <time>2010-01-03T02:58:22Z</time>
      </trkpt>
      <trkpt lat="46.26553" lon="6.86576">
        <ele>1692</ele>
        <time>2010-01-03T02:58:23Z</time>
      </trkpt>
      <trkpt lat="46.26559" lon="6.86615">
        <ele>1692</ele>
        <time>2010-01-03T02:58:34Z</time>
      </trkpt>
      <trkpt lat="46.26559" lon="6.86632">
        <ele>1692</ele>
        <time>2010-01-03T02:58:39Z</time>
      </trkpt>
      <trkpt lat="46.26558" lon="6.86648">
        <ele>1691</ele>
        <time>2010-01-03T02:58:43Z</time>
      </trkpt>
      <trkpt lat="46.26553" lon="6.86663">
        <ele>1691</ele>
        <time>2010-01-03T02:58:48Z</time>
      </trkpt>
      <trkpt lat="46.26545" lon="6.86684">
        <ele>1690</ele>
        <time>2010-01-03T02:58:54Z</time>
      </trkpt>
      <trkpt lat="46.26534" lon="6.8671">
        <ele>1690</ele>
        <time>2010-01-03T02:59:03Z</time>
      </trkpt>
      <trkpt lat="46.26525" lon="6.86736">
        <ele>1690</ele>
        <time>2010-01-03T02:59:11Z</time>
      </trkpt>
      <trkpt lat="46.26522" lon="6.86751">
        <ele>1683</ele>
        <time>2010-01-03T02:59:15Z</time>
      </trkpt>
      <trkpt lat="46.26521" lon="6.86763">
        <ele>1681</ele>
        <time>2010-01-03T02:59:18Z</time>
      </trkpt>
      <trkpt lat="46.26518" lon="6.86765">
        <ele>1682</ele>
        <time>2010-01-03T02:59:20Z</time>
      </trkpt>
      <trkpt lat="46.26514" lon="6.86774">
        <ele>1681</ele>
        <time>2010-01-03T02:59:23Z</time>
      </trkpt>
      <trkpt lat="46.26514" lon="6.86775">
        <ele>1680</ele>
        <time>2010-01-03T02:59:23Z</time>
      </trkpt>
      <trkpt lat="46.26506" lon="6.8678">
        <ele>1680</ele>
        <time>2010-01-03T02:59:26Z</time>
      </trkpt>
      <trkpt lat="46.26493" lon="6.86789">
        <ele>1690</ele>
        <time>2010-01-03T02:59:32Z</time>
      </trkpt>
      <trkpt lat="46.26475" lon="6.86803">
        <ele>1689</ele>
        <time>2010-01-03T02:59:40Z</time>
      </trkpt>
      <trkpt lat="46.26471" lon="6.86805">
        <ele>1689</ele>
        <time>2010-01-03T02:59:42Z</time>
      </trkpt>
      <trkpt lat="46.26463" lon="6.8681">
        <ele>1690</ele>
        <time>2010-01-03T02:59:45Z</time>
      </trkpt>
      <trkpt lat="46.26458" lon="6.86815">
        <ele>1690</ele>
        <time>2010-01-03T02:59:48Z</time>
      </trkpt>
      <trkpt lat="46.26448" lon="6.86825">
        <ele>1690</ele>
        <time>2010-01-03T02:59:52Z</time>
      </trkpt>
      <trkpt lat="46.26444" lon="6.86827">
        <ele>1690</ele>
        <time>2010-01-03T02:59:55Z</time>
      </trkpt>
      <trkpt lat="46.26437" lon="6.86832">
        <ele>1691</ele>
        <time>2010-01-03T02:59:58Z</time>
      </trkpt>
      <trkpt lat="46.26429" lon="6.86838">
        <ele>1682</ele>
        <time>2010-01-03T03:00:01Z</time>
      </trkpt>
      <trkpt lat="46.26413" lon="6.8685">
        <ele>1687</ele>
        <time>2010-01-03T03:00:08Z</time>
      </trkpt>
      <trkpt lat="46.264" lon="6.86859">
        <ele>1686</ele>
        <time>2010-01-03T03:00:14Z</time>
      </trkpt>
      <trkpt lat="46.26386" lon="6.86866">
        <ele>1685</ele>
        <time>2010-01-03T03:00:20Z</time>
      </trkpt>
      <trkpt lat="46.26372" lon="6.86878">
        <ele>1685</ele>
        <time>2010-01-03T03:00:27Z</time>
      </trkpt>
      <trkpt lat="46.26361" lon="6.86887">
        <ele>1685</ele>
        <time>2010-01-03T03:00:31Z</time>
      </trkpt>
      <trkpt lat="46.26343" lon="6.86896">
        <ele>1684</ele>
        <time>2010-01-03T03:00:39Z</time>
      </trkpt>
      <trkpt lat="46.26324" lon="6.86903">
        <ele>1690</ele>
        <time>2010-01-03T03:00:47Z</time>
      </trkpt>
      <trkpt lat="46.26318" lon="6.86906">
        <ele>1690</ele>
        <time>2010-01-03T03:00:50Z</time>
      </trkpt>
      <trkpt lat="46.26305" lon="6.86912">
        <ele>1693</ele>
        <time>2010-01-03T03:00:55Z</time>
      </trkpt>
      <trkpt lat="46.26301" lon="6.86917">
        <ele>1693</ele>
        <time>2010-01-03T03:00:57Z</time>
      </trkpt>
      <trkpt lat="46.26291" lon="6.86928">
        <ele>1689</ele>
        <time>2010-01-03T03:01:02Z</time>
      </trkpt>
      <trkpt lat="46.26283" lon="6.86937">
        <ele>1690</ele>
        <time>2010-01-03T03:01:06Z</time>
      </trkpt>
      <trkpt lat="46.26276" lon="6.86943">
        <ele>1690</ele>
        <time>2010-01-03T03:01:10Z</time>
      </trkpt>
      <trkpt lat="46.2627" lon="6.86951">
        <ele>1690</ele>
        <time>2010-01-03T03:01:13Z</time>
      </trkpt>
      <trkpt lat="46.2626" lon="6.8698">
        <ele>1690</ele>
        <time>2010-01-03T03:01:22Z</time>
      </trkpt>
      <trkpt lat="46.26254" lon="6.87014">
        <ele>1691</ele>
        <time>2010-01-03T03:01:31Z</time>
      </trkpt>
      <trkpt lat="46.2625" lon="6.87043">
        <ele>1691</ele>
        <time>2010-01-03T03:01:40Z</time>
      </trkpt>
      <trkpt lat="46.26246" lon="6.8707">
        <ele>1701</ele>
        <time>2010-01-03T03:01:47Z</time>
      </trkpt>
      <trkpt lat="46.26245" lon="6.87084">
        <ele>1699</ele>
        <time>2010-01-03T03:01:51Z</time>
      </trkpt>
      <trkpt lat="46.26247" lon="6.871">
        <ele>1701</ele>
        <time>2010-01-03T03:01:56Z</time>
      </trkpt>
      <trkpt lat="46.26247" lon="6.8711">
        <ele>1703</ele>
        <time>2010-01-03T03:01:58Z</time>
      </trkpt>
      <trkpt lat="46.26244" lon="6.87114">
        <ele>1703</ele>
        <time>2010-01-03T03:02:00Z</time>
      </trkpt>
      <trkpt lat="46.26237" lon="6.87113">
        <ele>1704</ele>
        <time>2010-01-03T03:02:03Z</time>
      </trkpt>
      <trkpt lat="46.26221" lon="6.87098">
        <ele>1705</ele>
        <time>2010-01-03T03:02:10Z</time>
      </trkpt>
      <trkpt lat="46.26206" lon="6.87084">
        <ele>1707</ele>
        <time>2010-01-03T03:02:17Z</time>
      </trkpt>
      <trkpt lat="46.26197" lon="6.8707">
        <ele>1708</ele>
        <time>2010-01-03T03:02:23Z</time>
      </trkpt>
      <trkpt lat="46.26194" lon="6.87058">
        <ele>1708</ele>
        <time>2010-01-03T03:02:26Z</time>
      </trkpt>
      <trkpt lat="46.26193" lon="6.87041">
        <ele>1708</ele>
        <time>2010-01-03T03:02:31Z</time>
      </trkpt>
      <trkpt lat="46.26196" lon="6.87027">
        <ele>1708</ele>
        <time>2010-01-03T03:02:35Z</time>
      </trkpt>
      <trkpt lat="46.26198" lon="6.87005">
        <ele>1709</ele>
        <time>2010-01-03T03:02:41Z</time>
      </trkpt>
      <trkpt lat="46.26196" lon="6.86987">
        <ele>1711</ele>
        <time>2010-01-03T03:02:46Z</time>
      </trkpt>
      <trkpt lat="46.26196" lon="6.86979">
        <ele>1711</ele>
        <time>2010-01-03T03:02:48Z</time>
      </trkpt>
      <trkpt lat="46.26196" lon="6.86971">
        <ele>1711</ele>
        <time>2010-01-03T03:02:51Z</time>
      </trkpt>
      <trkpt lat="46.26195" lon="6.86956">
        <ele>1712</ele>
        <time>2010-01-03T03:02:55Z</time>
      </trkpt>
      <trkpt lat="46.26194" lon="6.86947">
        <ele>1712</ele>
        <time>2010-01-03T03:02:57Z</time>
      </trkpt>
      <trkpt lat="46.26191" lon="6.8693">
        <ele>1715</ele>
        <time>2010-01-03T03:03:02Z</time>
      </trkpt>
      <trkpt lat="46.26189" lon="6.86915">
        <ele>1720</ele>
        <time>2010-01-03T03:03:06Z</time>
      </trkpt>
      <trkpt lat="46.26188" lon="6.869">
        <ele>1720</ele>
        <time>2010-01-03T03:03:11Z</time>
      </trkpt>
      <trkpt lat="46.26187" lon="6.86891">
        <ele>1720</ele>
        <time>2010-01-03T03:03:13Z</time>
      </trkpt>
      <trkpt lat="46.26186" lon="6.86877">
        <ele>1720</ele>
        <time>2010-01-03T03:03:17Z</time>
      </trkpt>
      <trkpt lat="46.26185" lon="6.86871">
        <ele>1721</ele>
        <time>2010-01-03T03:03:19Z</time>
      </trkpt>
      <trkpt lat="46.26183" lon="6.86864">
        <ele>1721</ele>
        <time>2010-01-03T03:03:21Z</time>
      </trkpt>
      <trkpt lat="46.26183" lon="6.86861">
        <ele>1722</ele>
        <time>2010-01-03T03:03:22Z</time>
      </trkpt>
      <trkpt lat="46.2618" lon="6.86844">
        <ele>1725</ele>
        <time>2010-01-03T03:03:26Z</time>
      </trkpt>
      <trkpt lat="46.2618" lon="6.86832">
        <ele>1730</ele>
        <time>2010-01-03T03:03:30Z</time>
      </trkpt>
      <trkpt lat="46.26183" lon="6.86817">
        <ele>1729</ele>
        <time>2010-01-03T03:03:34Z</time>
      </trkpt>
      <trkpt lat="46.26187" lon="6.86809">
        <ele>1729</ele>
        <time>2010-01-03T03:03:37Z</time>
      </trkpt>
      <trkpt lat="46.26195" lon="6.86802">
        <ele>1729</ele>
        <time>2010-01-03T03:03:40Z</time>
      </trkpt>
      <trkpt lat="46.26196" lon="6.86799">
        <ele>1729</ele>
        <time>2010-01-03T03:03:41Z</time>
      </trkpt>
      <trkpt lat="46.26197" lon="6.86795">
        <ele>1729</ele>
        <time>2010-01-03T03:03:43Z</time>
      </trkpt>
      <trkpt lat="46.26197" lon="6.86792">
        <ele>1729</ele>
        <time>2010-01-03T03:03:43Z</time>
      </trkpt>
      <trkpt lat="46.26195" lon="6.86788">
        <ele>1730</ele>
        <time>2010-01-03T03:03:45Z</time>
      </trkpt>
      <trkpt lat="46.26192" lon="6.86787">
        <ele>1730</ele>
        <time>2010-01-03T03:03:46Z</time>
      </trkpt>
      <trkpt lat="46.26184" lon="6.86791">
        <ele>1730</ele>
        <time>2010-01-03T03:03:50Z</time>
      </trkpt>
      <trkpt lat="46.26176" lon="6.86796">
        <ele>1730</ele>
        <time>2010-01-03T03:03:53Z</time>
      </trkpt>
      <trkpt lat="46.26176" lon="6.86797">
        <ele>1730</ele>
        <time>2010-01-03T03:03:53Z</time>
      </trkpt>
      <trkpt lat="46.26167" lon="6.86813">
        <ele>1730</ele>
        <time>2010-01-03T03:03:59Z</time>
      </trkpt>
      <trkpt lat="46.26161" lon="6.86838">
        <ele>1737</ele>
        <time>2010-01-03T03:04:06Z</time>
      </trkpt>
      <trkpt lat="46.26155" lon="6.86863">
        <ele>1744</ele>
        <time>2010-01-03T03:04:14Z</time>
      </trkpt>
      <trkpt lat="46.26151" lon="6.86883">
        <ele>1744</ele>
        <time>2010-01-03T03:04:19Z</time>
      </trkpt>
      <trkpt lat="46.26146" lon="6.86914">
        <ele>1741</ele>
        <time>2010-01-03T03:04:28Z</time>
      </trkpt>
      <trkpt lat="46.26143" lon="6.86926">
        <ele>1738</ele>
        <time>2010-01-03T03:04:32Z</time>
      </trkpt>
      <trkpt lat="46.26141" lon="6.86931">
        <ele>1738</ele>
        <time>2010-01-03T03:04:33Z</time>
      </trkpt>
      <trkpt lat="46.26137" lon="6.86941">
        <ele>1740</ele>
        <time>2010-01-03T03:04:37Z</time>
      </trkpt>
      <trkpt lat="46.26132" lon="6.86948">
        <ele>1740</ele>
        <time>2010-01-03T03:04:39Z</time>
      </trkpt>
      <trkpt lat="46.26122" lon="6.86963">
        <ele>1741</ele>
        <time>2010-01-03T03:04:45Z</time>
      </trkpt>
      <trkpt lat="46.26109" lon="6.86982">
        <ele>1743</ele>
        <time>2010-01-03T03:04:52Z</time>
      </trkpt>
      <trkpt lat="46.26104" lon="6.8699">
        <ele>1744</ele>
        <time>2010-01-03T03:04:55Z</time>
      </trkpt>
      <trkpt lat="46.26096" lon="6.87001">
        <ele>1742</ele>
        <time>2010-01-03T03:05:00Z</time>
      </trkpt>
      <trkpt lat="46.26088" lon="6.87012">
        <ele>1742</ele>
        <time>2010-01-03T03:05:04Z</time>
      </trkpt>
      <trkpt lat="46.2608" lon="6.87025">
        <ele>1752</ele>
        <time>2010-01-03T03:05:09Z</time>
      </trkpt>
      <trkpt lat="46.26075" lon="6.87031">
        <ele>1752</ele>
        <time>2010-01-03T03:05:12Z</time>
      </trkpt>
      <trkpt lat="46.26072" lon="6.87036">
        <ele>1752</ele>
        <time>2010-01-03T03:05:13Z</time>
      </trkpt>
      <trkpt lat="46.26068" lon="6.87042">
        <ele>1752</ele>
        <time>2010-01-03T03:05:16Z</time>
      </trkpt>
      <trkpt lat="46.26064" lon="6.87047">
        <ele>1752</ele>
        <time>2010-01-03T03:05:18Z</time>
      </trkpt>
      <trkpt lat="46.2606" lon="6.87051">
        <ele>1752</ele>
        <time>2010-01-03T03:05:20Z</time>
      </trkpt>
      <trkpt lat="46.26052" lon="6.87059">
        <ele>1752</ele>
        <time>2010-01-03T03:05:24Z</time>
      </trkpt>
      <trkpt lat="46.26045" lon="6.87066">
        <ele>1753</ele>
        <time>2010-01-03T03:05:27Z</time>
      </trkpt>
      <trkpt lat="46.26036" lon="6.87073">
        <ele>1754</ele>
        <time>2010-01-03T03:05:31Z</time>
      </trkpt>
      <trkpt lat="46.26028" lon="6.87078">
        <ele>1756</ele>
        <time>2010-01-03T03:05:35Z</time>
      </trkpt>
      <trkpt lat="46.26019" lon="6.87081">
        <ele>1757</ele>
        <time>2010-01-03T03:05:38Z</time>
      </trkpt>
      <trkpt lat="46.26008" lon="6.87083">
        <ele>1759</ele>
        <time>2010-01-03T03:05:43Z</time>
      </trkpt>
      <trkpt lat="46.25998" lon="6.87082">
        <ele>1761</ele>
        <time>2010-01-03T03:05:47Z</time>
      </trkpt>
      <trkpt lat="46.25991" lon="6.87078">
        <ele>1765</ele>
        <time>2010-01-03T03:05:50Z</time>
      </trkpt>
      <trkpt lat="46.25982" lon="6.8707">
        <ele>1768</ele>
        <time>2010-01-03T03:05:54Z</time>
      </trkpt>
      <trkpt lat="46.25971" lon="6.87064">
        <ele>1770</ele>
        <time>2010-01-03T03:05:59Z</time>
      </trkpt>
      <trkpt lat="46.25961" lon="6.87065">
        <ele>1771</ele>
        <time>2010-01-03T03:06:03Z</time>
      </trkpt>
      <trkpt lat="46.25956" lon="6.87067">
        <ele>1771</ele>
        <time>2010-01-03T03:06:05Z</time>
      </trkpt>
      <trkpt lat="46.25949" lon="6.87072">
        <ele>1772</ele>
        <time>2010-01-03T03:06:08Z</time>
      </trkpt>
      <trkpt lat="46.25945" lon="6.87078">
        <ele>1772</ele>
        <time>2010-01-03T03:06:10Z</time>
      </trkpt>
      <trkpt lat="46.25943" lon="6.87084">
        <ele>1767</ele>
        <time>2010-01-03T03:06:12Z</time>
      </trkpt>
      <trkpt lat="46.25943" lon="6.8709">
        <ele>1767</ele>
        <time>2010-01-03T03:06:14Z</time>
      </trkpt>
      <trkpt lat="46.25943" lon="6.87095">
        <ele>1767</ele>
        <time>2010-01-03T03:06:15Z</time>
      </trkpt>
      <trkpt lat="46.25946" lon="6.87101">
        <ele>1766</ele>
        <time>2010-01-03T03:06:17Z</time>
      </trkpt>
      <trkpt lat="46.2595" lon="6.87108">
        <ele>1766</ele>
        <time>2010-01-03T03:06:20Z</time>
      </trkpt>
      <trkpt lat="46.2595" lon="6.87109">
        <ele>1766</ele>
        <time>2010-01-03T03:06:20Z</time>
      </trkpt>
      <trkpt lat="46.25957" lon="6.87123">
        <ele>1765</ele>
        <time>2010-01-03T03:06:25Z</time>
      </trkpt>
      <trkpt lat="46.25962" lon="6.87135">
        <ele>1764</ele>
        <time>2010-01-03T03:06:28Z</time>
      </trkpt>
      <trkpt lat="46.25963" lon="6.87146">
        <ele>1764</ele>
        <time>2010-01-03T03:06:32Z</time>
      </trkpt>
      <trkpt lat="46.25961" lon="6.8715">
        <ele>1764</ele>
        <time>2010-01-03T03:06:33Z</time>
      </trkpt>
      <trkpt lat="46.25958" lon="6.87154">
        <ele>1764</ele>
        <time>2010-01-03T03:06:35Z</time>
      </trkpt>
      <trkpt lat="46.25954" lon="6.87156">
        <ele>1765</ele>
        <time>2010-01-03T03:06:36Z</time>
      </trkpt>
      <trkpt lat="46.2595" lon="6.87158">
        <ele>1765</ele>
        <time>2010-01-03T03:06:38Z</time>
      </trkpt>
      <trkpt lat="46.25945" lon="6.87161">
        <ele>1766</ele>
        <time>2010-01-03T03:06:40Z</time>
      </trkpt>
      <trkpt lat="46.25942" lon="6.87162">
        <ele>1766</ele>
        <time>2010-01-03T03:06:41Z</time>
      </trkpt>
      <trkpt lat="46.25938" lon="6.87164">
        <ele>1767</ele>
        <time>2010-01-03T03:06:43Z</time>
      </trkpt>
      <trkpt lat="46.25936" lon="6.87165">
        <ele>1767</ele>
        <time>2010-01-03T03:06:44Z</time>
      </trkpt>
      <trkpt lat="46.25924" lon="6.87168">
        <ele>1769</ele>
        <time>2010-01-03T03:06:49Z</time>
      </trkpt>
      <trkpt lat="46.25915" lon="6.8717">
        <ele>1773</ele>
        <time>2010-01-03T03:06:53Z</time>
      </trkpt>
      <trkpt lat="46.25908" lon="6.87169">
        <ele>1774</ele>
        <time>2010-01-03T03:06:55Z</time>
      </trkpt>
      <trkpt lat="46.25899" lon="6.87167">
        <ele>1777</ele>
        <time>2010-01-03T03:06:59Z</time>
      </trkpt>
      <trkpt lat="46.25889" lon="6.87167">
        <ele>1780</ele>
        <time>2010-01-03T03:07:03Z</time>
      </trkpt>
      <trkpt lat="46.25879" lon="6.87169">
        <ele>1781</ele>
        <time>2010-01-03T03:07:07Z</time>
      </trkpt>
      <trkpt lat="46.25873" lon="6.87173">
        <ele>1782</ele>
        <time>2010-01-03T03:07:09Z</time>
      </trkpt>
      <trkpt lat="46.2587" lon="6.87179">
        <ele>1783</ele>
        <time>2010-01-03T03:07:12Z</time>
      </trkpt>
      <trkpt lat="46.25869" lon="6.87179">
        <ele>1783</ele>
        <time>2010-01-03T03:07:12Z</time>
      </trkpt>
      <trkpt lat="46.25867" lon="6.87193">
        <ele>1783</ele>
        <time>2010-01-03T03:07:16Z</time>
      </trkpt>
      <trkpt lat="46.25866" lon="6.8721">
        <ele>1783</ele>
        <time>2010-01-03T03:07:20Z</time>
      </trkpt>
      <trkpt lat="46.25866" lon="6.8721">
        <ele>1783</ele>
        <time>2010-01-03T03:07:21Z</time>
      </trkpt>
      <trkpt lat="46.25861" lon="6.87234">
        <ele>1784</ele>
        <time>2010-01-03T03:07:27Z</time>
      </trkpt>
      <trkpt lat="46.25851" lon="6.87258">
        <ele>1786</ele>
        <time>2010-01-03T03:07:35Z</time>
      </trkpt>
      <trkpt lat="46.25841" lon="6.87283">
        <ele>1785</ele>
        <time>2010-01-03T03:07:43Z</time>
      </trkpt>
      <trkpt lat="46.25835" lon="6.87296">
        <ele>1786</ele>
        <time>2010-01-03T03:07:48Z</time>
      </trkpt>
      <trkpt lat="46.25829" lon="6.87305">
        <ele>1787</ele>
        <time>2010-01-03T03:07:51Z</time>
      </trkpt>
      <trkpt lat="46.25823" lon="6.87315">
        <ele>1787</ele>
        <time>2010-01-03T03:07:55Z</time>
      </trkpt>
      <trkpt lat="46.25818" lon="6.87304">
        <ele>1787</ele>
        <time>2010-01-03T03:07:58Z</time>
      </trkpt>
      <trkpt lat="46.25813" lon="6.87301">
        <ele>1787</ele>
        <time>2010-01-03T03:08:01Z</time>
      </trkpt>
      <trkpt lat="46.25809" lon="6.87298">
        <ele>1787</ele>
        <time>2010-01-03T03:08:02Z</time>
      </trkpt>
      <trkpt lat="46.25804" lon="6.873">
        <ele>1787</ele>
        <time>2010-01-03T03:08:04Z</time>
      </trkpt>
      <trkpt lat="46.25796" lon="6.87305">
        <ele>1786</ele>
        <time>2010-01-03T03:08:08Z</time>
      </trkpt>
      <trkpt lat="46.25788" lon="6.87311">
        <ele>1785</ele>
        <time>2010-01-03T03:08:12Z</time>
      </trkpt>
      <trkpt lat="46.25788" lon="6.87311">
        <ele>1785</ele>
        <time>2010-01-03T03:08:12Z</time>
      </trkpt>
      <trkpt lat="46.25778" lon="6.87317">
        <ele>1784</ele>
        <time>2010-01-03T03:08:16Z</time>
      </trkpt>
      <trkpt lat="46.25766" lon="6.87322">
        <ele>1782</ele>
        <time>2010-01-03T03:08:21Z</time>
      </trkpt>
      <trkpt lat="46.25758" lon="6.87322">
        <ele>1781</ele>
        <time>2010-01-03T03:08:24Z</time>
      </trkpt>
      <trkpt lat="46.25755" lon="6.87325">
        <ele>1780</ele>
        <time>2010-01-03T03:08:26Z</time>
      </trkpt>
      <trkpt lat="46.25754" lon="6.87325">
        <ele>1780</ele>
        <time>2010-01-03T03:08:26Z</time>
      </trkpt>
      <trkpt lat="46.25749" lon="6.87328">
        <ele>1777</ele>
        <time>2010-01-03T03:08:28Z</time>
      </trkpt>
      <trkpt lat="46.25745" lon="6.87331">
        <ele>1777</ele>
        <time>2010-01-03T03:08:30Z</time>
      </trkpt>
      <trkpt lat="46.25743" lon="6.87332">
        <ele>1777</ele>
        <time>2010-01-03T03:08:31Z</time>
      </trkpt>
      <trkpt lat="46.25741" lon="6.87332">
        <ele>1777</ele>
        <time>2010-01-03T03:08:32Z</time>
      </trkpt>
      <trkpt lat="46.25738" lon="6.87335">
        <ele>1772</ele>
        <time>2010-01-03T03:08:33Z</time>
      </trkpt>
      <trkpt lat="46.25734" lon="6.87339">
        <ele>1771</ele>
        <time>2010-01-03T03:08:35Z</time>
      </trkpt>
      <trkpt lat="46.25726" lon="6.87339">
        <ele>1769</ele>
        <time>2010-01-03T03:08:38Z</time>
      </trkpt>
      <trkpt lat="46.2572" lon="6.87338">
        <ele>1768</ele>
        <time>2010-01-03T03:08:41Z</time>
      </trkpt>
      <trkpt lat="46.25715" lon="6.8733">
        <ele>1774</ele>
        <time>2010-01-03T03:08:43Z</time>
      </trkpt>
      <trkpt lat="46.25712" lon="6.87326">
        <ele>1774</ele>
        <time>2010-01-03T03:08:45Z</time>
      </trkpt>
      <trkpt lat="46.25709" lon="6.87324">
        <ele>1774</ele>
        <time>2010-01-03T03:08:47Z</time>
      </trkpt>
      <trkpt lat="46.25704" lon="6.87322">
        <ele>1773</ele>
        <time>2010-01-03T03:08:49Z</time>
      </trkpt>
      <trkpt lat="46.257" lon="6.8732">
        <ele>1773</ele>
        <time>2010-01-03T03:08:50Z</time>
      </trkpt>
      <trkpt lat="46.25694" lon="6.87317">
        <ele>1772</ele>
        <time>2010-01-03T03:08:53Z</time>
      </trkpt>
      <trkpt lat="46.25686" lon="6.87315">
        <ele>1771</ele>
        <time>2010-01-03T03:08:56Z</time>
      </trkpt>
      <trkpt lat="46.2568" lon="6.87313">
        <ele>1770</ele>
        <time>2010-01-03T03:08:59Z</time>
      </trkpt>
      <trkpt lat="46.2567" lon="6.87309">
        <ele>1770</ele>
        <time>2010-01-03T03:09:03Z</time>
      </trkpt>
      <trkpt lat="46.25664" lon="6.8731">
        <ele>1763</ele>
        <time>2010-01-03T03:09:05Z</time>
      </trkpt>
      <trkpt lat="46.25655" lon="6.8731">
        <ele>1763</ele>
        <time>2010-01-03T03:09:09Z</time>
      </trkpt>
      <trkpt lat="46.25648" lon="6.87313">
        <ele>1762</ele>
        <time>2010-01-03T03:09:11Z</time>
      </trkpt>
      <trkpt lat="46.25643" lon="6.87313">
        <ele>1762</ele>
        <time>2010-01-03T03:09:13Z</time>
      </trkpt>
      <trkpt lat="46.25637" lon="6.87313">
        <ele>1762</ele>
        <time>2010-01-03T03:09:16Z</time>
      </trkpt>
      <trkpt lat="46.2563" lon="6.87312">
        <ele>1762</ele>
        <time>2010-01-03T03:09:19Z</time>
      </trkpt>
      <trkpt lat="46.25625" lon="6.87312">
        <ele>1761</ele>
        <time>2010-01-03T03:09:21Z</time>
      </trkpt>
      <trkpt lat="46.25618" lon="6.87316">
        <ele>1760</ele>
        <time>2010-01-03T03:09:24Z</time>
      </trkpt>
      <trkpt lat="46.25612" lon="6.87317">
        <ele>1760</ele>
        <time>2010-01-03T03:09:26Z</time>
      </trkpt>
      <trkpt lat="46.25604" lon="6.87318">
        <ele>1759</ele>
        <time>2010-01-03T03:09:29Z</time>
      </trkpt>
      <trkpt lat="46.25589" lon="6.87312">
        <ele>1758</ele>
        <time>2010-01-03T03:09:36Z</time>
      </trkpt>
      <trkpt lat="46.25583" lon="6.87308">
        <ele>1754</ele>
        <time>2010-01-03T03:09:38Z</time>
      </trkpt>
      <trkpt lat="46.25579" lon="6.87307">
        <ele>1754</ele>
        <time>2010-01-03T03:09:40Z</time>
      </trkpt>
      <trkpt lat="46.25564" lon="6.87306">
        <ele>1753</ele>
        <time>2010-01-03T03:09:46Z</time>
      </trkpt>
      <trkpt lat="46.25559" lon="6.87306">
        <ele>1753</ele>
        <time>2010-01-03T03:09:48Z</time>
      </trkpt>
      <trkpt lat="46.25553" lon="6.87305">
        <ele>1753</ele>
        <time>2010-01-03T03:09:50Z</time>
      </trkpt>
      <trkpt lat="46.25544" lon="6.87303">
        <ele>1753</ele>
        <time>2010-01-03T03:09:54Z</time>
      </trkpt>
      <trkpt lat="46.25538" lon="6.873">
        <ele>1752</ele>
        <time>2010-01-03T03:09:57Z</time>
      </trkpt>
      <trkpt lat="46.25531" lon="6.873">
        <ele>1752</ele>
        <time>2010-01-03T03:09:59Z</time>
      </trkpt>
      <trkpt lat="46.25524" lon="6.873">
        <ele>1752</ele>
        <time>2010-01-03T03:10:02Z</time>
      </trkpt>
      <trkpt lat="46.25517" lon="6.87299">
        <ele>1751</ele>
        <time>2010-01-03T03:10:05Z</time>
      </trkpt>
      <trkpt lat="46.25508" lon="6.87303">
        <ele>1750</ele>
        <time>2010-01-03T03:10:09Z</time>
      </trkpt>
      <trkpt lat="46.25503" lon="6.87304">
        <ele>1750</ele>
        <time>2010-01-03T03:10:11Z</time>
      </trkpt>
      <trkpt lat="46.25498" lon="6.87306">
        <ele>1746</ele>
        <time>2010-01-03T03:10:13Z</time>
      </trkpt>
      <trkpt lat="46.25493" lon="6.87306">
        <ele>1746</ele>
        <time>2010-01-03T03:10:15Z</time>
      </trkpt>
      <trkpt lat="46.25483" lon="6.87308">
        <ele>1746</ele>
        <time>2010-01-03T03:10:19Z</time>
      </trkpt>
      <trkpt lat="46.25472" lon="6.87311">
        <ele>1746</ele>
        <time>2010-01-03T03:10:23Z</time>
      </trkpt>
      <trkpt lat="46.25466" lon="6.87312">
        <ele>1746</ele>
        <time>2010-01-03T03:10:26Z</time>
      </trkpt>
      <trkpt lat="46.25458" lon="6.87315">
        <ele>1746</ele>
        <time>2010-01-03T03:10:29Z</time>
      </trkpt>
      <trkpt lat="46.25444" lon="6.87316">
        <ele>1745</ele>
        <time>2010-01-03T03:10:35Z</time>
      </trkpt>
      <trkpt lat="46.25436" lon="6.87318">
        <ele>1744</ele>
        <time>2010-01-03T03:10:38Z</time>
      </trkpt>
      <trkpt lat="46.25415" lon="6.87327">
        <ele>1739</ele>
        <time>2010-01-03T03:10:47Z</time>
      </trkpt>
      <trkpt lat="46.25405" lon="6.87329">
        <ele>1740</ele>
        <time>2010-01-03T03:10:51Z</time>
      </trkpt>
      <trkpt lat="46.25395" lon="6.87331">
        <ele>1740</ele>
        <time>2010-01-03T03:10:55Z</time>
      </trkpt>
      <trkpt lat="46.25388" lon="6.87327">
        <ele>1740</ele>
        <time>2010-01-03T03:10:58Z</time>
      </trkpt>
      <trkpt lat="46.2538" lon="6.87329">
        <ele>1740</ele>
        <time>2010-01-03T03:11:01Z</time>
      </trkpt>
      <trkpt lat="46.25374" lon="6.87326">
        <ele>1740</ele>
        <time>2010-01-03T03:11:04Z</time>
      </trkpt>
      <trkpt lat="46.25368" lon="6.87326">
        <ele>1740</ele>
        <time>2010-01-03T03:11:06Z</time>
      </trkpt>
      <trkpt lat="46.25358" lon="6.87324">
        <ele>1739</ele>
        <time>2010-01-03T03:11:10Z</time>
      </trkpt>
      <trkpt lat="46.25351" lon="6.87324">
        <ele>1738</ele>
        <time>2010-01-03T03:11:13Z</time>
      </trkpt>
      <trkpt lat="46.25347" lon="6.87323">
        <ele>1738</ele>
        <time>2010-01-03T03:11:15Z</time>
      </trkpt>
      <trkpt lat="46.25339" lon="6.87322">
        <ele>1737</ele>
        <time>2010-01-03T03:11:18Z</time>
      </trkpt>
      <trkpt lat="46.25333" lon="6.8732">
        <ele>1737</ele>
        <time>2010-01-03T03:11:20Z</time>
      </trkpt>
      <trkpt lat="46.25323" lon="6.87311">
        <ele>1733</ele>
        <time>2010-01-03T03:11:25Z</time>
      </trkpt>
      <trkpt lat="46.25316" lon="6.87311">
        <ele>1733</ele>
        <time>2010-01-03T03:11:28Z</time>
      </trkpt>
      <trkpt lat="46.25307" lon="6.87307">
        <ele>1732</ele>
        <time>2010-01-03T03:11:31Z</time>
      </trkpt>
      <trkpt lat="46.25299" lon="6.87307">
        <ele>1732</ele>
        <time>2010-01-03T03:11:35Z</time>
      </trkpt>
      <trkpt lat="46.25294" lon="6.87306">
        <ele>1731</ele>
        <time>2010-01-03T03:11:37Z</time>
      </trkpt>
      <trkpt lat="46.2528" lon="6.873">
        <ele>1730</ele>
        <time>2010-01-03T03:11:42Z</time>
      </trkpt>
      <trkpt lat="46.2527" lon="6.87297">
        <ele>1730</ele>
        <time>2010-01-03T03:11:46Z</time>
      </trkpt>
      <trkpt lat="46.25261" lon="6.87294">
        <ele>1729</ele>
        <time>2010-01-03T03:11:50Z</time>
      </trkpt>
      <trkpt lat="46.25252" lon="6.8729">
        <ele>1729</ele>
        <time>2010-01-03T03:11:54Z</time>
      </trkpt>
      <trkpt lat="46.25244" lon="6.87289">
        <ele>1722</ele>
        <time>2010-01-03T03:11:57Z</time>
      </trkpt>
      <trkpt lat="46.25234" lon="6.87292">
        <ele>1721</ele>
        <time>2010-01-03T03:12:01Z</time>
      </trkpt>
      <trkpt lat="46.25226" lon="6.87298">
        <ele>1721</ele>
        <time>2010-01-03T03:12:05Z</time>
      </trkpt>
      <trkpt lat="46.25217" lon="6.87304">
        <ele>1721</ele>
        <time>2010-01-03T03:12:09Z</time>
      </trkpt>
      <trkpt lat="46.25208" lon="6.87313">
        <ele>1720</ele>
        <time>2010-01-03T03:12:13Z</time>
      </trkpt>
      <trkpt lat="46.25198" lon="6.87321">
        <ele>1720</ele>
        <time>2010-01-03T03:12:18Z</time>
      </trkpt>
      <trkpt lat="46.25193" lon="6.87324">
        <ele>1719</ele>
        <time>2010-01-03T03:12:20Z</time>
      </trkpt>
      <trkpt lat="46.25188" lon="6.87325">
        <ele>1719</ele>
        <time>2010-01-03T03:12:22Z</time>
      </trkpt>
      <trkpt lat="46.25179" lon="6.87328">
        <ele>1718</ele>
        <time>2010-01-03T03:12:26Z</time>
      </trkpt>
      <trkpt lat="46.25171" lon="6.87328">
        <ele>1717</ele>
        <time>2010-01-03T03:12:29Z</time>
      </trkpt>
      <trkpt lat="46.2516" lon="6.87325">
        <ele>1712</ele>
        <time>2010-01-03T03:12:33Z</time>
      </trkpt>
      <trkpt lat="46.2515" lon="6.8732">
        <ele>1710</ele>
        <time>2010-01-03T03:12:38Z</time>
      </trkpt>
      <trkpt lat="46.2514" lon="6.87318">
        <ele>1709</ele>
        <time>2010-01-03T03:12:42Z</time>
      </trkpt>
      <trkpt lat="46.25132" lon="6.87314">
        <ele>1707</ele>
        <time>2010-01-03T03:12:45Z</time>
      </trkpt>
      <trkpt lat="46.25124" lon="6.87311">
        <ele>1706</ele>
        <time>2010-01-03T03:12:48Z</time>
      </trkpt>
      <trkpt lat="46.2512" lon="6.87304">
        <ele>1706</ele>
        <time>2010-01-03T03:12:51Z</time>
      </trkpt>
      <trkpt lat="46.2511" lon="6.87281">
        <ele>1704</ele>
        <time>2010-01-03T03:12:58Z</time>
      </trkpt>
      <trkpt lat="46.25103" lon="6.87253">
        <ele>1702</ele>
        <time>2010-01-03T03:13:07Z</time>
      </trkpt>
      <trkpt lat="46.25102" lon="6.87238">
        <ele>1698</ele>
        <time>2010-01-03T03:13:11Z</time>
      </trkpt>
      <trkpt lat="46.25101" lon="6.87226">
        <ele>1697</ele>
        <time>2010-01-03T03:13:14Z</time>
      </trkpt>
      <trkpt lat="46.25098" lon="6.87221">
        <ele>1697</ele>
        <time>2010-01-03T03:13:16Z</time>
      </trkpt>
      <trkpt lat="46.25096" lon="6.87215">
        <ele>1696</ele>
        <time>2010-01-03T03:13:18Z</time>
      </trkpt>
      <trkpt lat="46.25092" lon="6.87212">
        <ele>1696</ele>
        <time>2010-01-03T03:13:20Z</time>
      </trkpt>
      <trkpt lat="46.25089" lon="6.87207">
        <ele>1695</ele>
        <time>2010-01-03T03:13:21Z</time>
      </trkpt>
      <trkpt lat="46.25087" lon="6.87201">
        <ele>1695</ele>
        <time>2010-01-03T03:13:23Z</time>
      </trkpt>
      <trkpt lat="46.25088" lon="6.87193">
        <ele>1693</ele>
        <time>2010-01-03T03:13:25Z</time>
      </trkpt>
      <trkpt lat="46.25088" lon="6.87193">
        <ele>1693</ele>
        <time>2010-01-03T03:13:25Z</time>
      </trkpt>
      <trkpt lat="46.25088" lon="6.87186">
        <ele>1692</ele>
        <time>2010-01-03T03:13:27Z</time>
      </trkpt>
      <trkpt lat="46.25087" lon="6.87185">
        <ele>1692</ele>
        <time>2010-01-03T03:13:27Z</time>
      </trkpt>
      <trkpt lat="46.25088" lon="6.87179">
        <ele>1690</ele>
        <time>2010-01-03T03:13:29Z</time>
      </trkpt>
      <trkpt lat="46.25088" lon="6.87178">
        <ele>1690</ele>
        <time>2010-01-03T03:13:29Z</time>
      </trkpt>
      <trkpt lat="46.25089" lon="6.87177">
        <ele>1690</ele>
        <time>2010-01-03T03:13:30Z</time>
      </trkpt>
      <trkpt lat="46.2509" lon="6.87176">
        <ele>1690</ele>
        <time>2010-01-03T03:13:30Z</time>
      </trkpt>
      <trkpt lat="46.25094" lon="6.87169">
        <ele>1690</ele>
        <time>2010-01-03T03:13:33Z</time>
      </trkpt>
      <trkpt lat="46.25104" lon="6.87157">
        <ele>1687</ele>
        <time>2010-01-03T03:13:38Z</time>
      </trkpt>
      <trkpt lat="46.2511" lon="6.87153">
        <ele>1688</ele>
        <time>2010-01-03T03:13:41Z</time>
      </trkpt>
      <trkpt lat="46.25115" lon="6.87148">
        <ele>1688</ele>
        <time>2010-01-03T03:13:43Z</time>
      </trkpt>
      <trkpt lat="46.2512" lon="6.87144">
        <ele>1689</ele>
        <time>2010-01-03T03:13:46Z</time>
      </trkpt>
      <trkpt lat="46.25125" lon="6.87139">
        <ele>1689</ele>
        <time>2010-01-03T03:13:48Z</time>
      </trkpt>
      <trkpt lat="46.25123" lon="6.87127">
        <ele>1688</ele>
        <time>2010-01-03T03:13:51Z</time>
      </trkpt>
      <trkpt lat="46.25117" lon="6.8712">
        <ele>1687</ele>
        <time>2010-01-03T03:13:54Z</time>
      </trkpt>
      <trkpt lat="46.25108" lon="6.87106">
        <ele>1686</ele>
        <time>2010-01-03T03:13:59Z</time>
      </trkpt>
      <trkpt lat="46.25098" lon="6.87101">
        <ele>1684</ele>
        <time>2010-01-03T03:14:04Z</time>
      </trkpt>
      <trkpt lat="46.25083" lon="6.87096">
        <ele>1681</ele>
        <time>2010-01-03T03:14:10Z</time>
      </trkpt>
      <trkpt lat="46.2508" lon="6.87089">
        <ele>1676</ele>
        <time>2010-01-03T03:14:12Z</time>
      </trkpt>
      <trkpt lat="46.25073" lon="6.87083">
        <ele>1676</ele>
        <time>2010-01-03T03:14:15Z</time>
      </trkpt>
      <trkpt lat="46.25069" lon="6.87077">
        <ele>1676</ele>
        <time>2010-01-03T03:14:18Z</time>
      </trkpt>
      <trkpt lat="46.2506" lon="6.8707">
        <ele>1675</ele>
        <time>2010-01-03T03:14:22Z</time>
      </trkpt>
      <trkpt lat="46.2505" lon="6.87065">
        <ele>1674</ele>
        <time>2010-01-03T03:14:26Z</time>
      </trkpt>
      <trkpt lat="46.25034" lon="6.87051">
        <ele>1674</ele>
        <time>2010-01-03T03:14:34Z</time>
      </trkpt>
      <trkpt lat="46.25024" lon="6.87034">
        <ele>1674</ele>
        <time>2010-01-03T03:14:40Z</time>
      </trkpt>
      <trkpt lat="46.25005" lon="6.87008">
        <ele>1674</ele>
        <time>2010-01-03T03:14:50Z</time>
      </trkpt>
      <trkpt lat="46.24977" lon="6.86963">
        <ele>1673</ele>
        <time>2010-01-03T03:15:07Z</time>
      </trkpt>
      <trkpt lat="46.24962" lon="6.86938">
        <ele>1674</ele>
        <time>2010-01-03T03:15:16Z</time>
      </trkpt>
      <trkpt lat="46.2495" lon="6.8692">
        <ele>1672</ele>
        <time>2010-01-03T03:15:23Z</time>
      </trkpt>
      <trkpt lat="46.24943" lon="6.86904">
        <ele>1680</ele>
        <time>2010-01-03T03:15:28Z</time>
      </trkpt>
      <trkpt lat="46.24923" lon="6.8689">
        <ele>1678</ele>
        <time>2010-01-03T03:15:37Z</time>
      </trkpt>
      <trkpt lat="46.24901" lon="6.86877">
        <ele>1669</ele>
        <time>2010-01-03T03:15:47Z</time>
      </trkpt>
      <trkpt lat="46.2489" lon="6.86871">
        <ele>1669</ele>
        <time>2010-01-03T03:15:51Z</time>
      </trkpt>
      <trkpt lat="46.24884" lon="6.86862">
        <ele>1670</ele>
        <time>2010-01-03T03:15:55Z</time>
      </trkpt>
      <trkpt lat="46.24876" lon="6.86852">
        <ele>1670</ele>
        <time>2010-01-03T03:15:59Z</time>
      </trkpt>
      <trkpt lat="46.2487" lon="6.86853">
        <ele>1670</ele>
        <time>2010-01-03T03:16:02Z</time>
      </trkpt>
      <trkpt lat="46.24859" lon="6.86852">
        <ele>1670</ele>
        <time>2010-01-03T03:16:06Z</time>
      </trkpt>
      <trkpt lat="46.24849" lon="6.86853">
        <ele>1670</ele>
        <time>2010-01-03T03:16:10Z</time>
      </trkpt>
      <trkpt lat="46.24836" lon="6.86851">
        <ele>1671</ele>
        <time>2010-01-03T03:16:15Z</time>
      </trkpt>
      <trkpt lat="46.24808" lon="6.86838">
        <ele>1669</ele>
        <time>2010-01-03T03:16:27Z</time>
      </trkpt>
      <trkpt lat="46.24795" lon="6.86844">
        <ele>1669</ele>
        <time>2010-01-03T03:16:32Z</time>
      </trkpt>
      <trkpt lat="46.24782" lon="6.86842">
        <ele>1669</ele>
        <time>2010-01-03T03:16:38Z</time>
      </trkpt>
      <trkpt lat="46.24767" lon="6.86857">
        <ele>1669</ele>
        <time>2010-01-03T03:16:45Z</time>
      </trkpt>
      <trkpt lat="46.24755" lon="6.86863">
        <ele>1668</ele>
        <time>2010-01-03T03:16:50Z</time>
      </trkpt>
      <trkpt lat="46.24737" lon="6.86874">
        <ele>1663</ele>
        <time>2010-01-03T03:16:57Z</time>
      </trkpt>
      <trkpt lat="46.24728" lon="6.8688">
        <ele>1661</ele>
        <time>2010-01-03T03:17:02Z</time>
      </trkpt>
      <trkpt lat="46.24722" lon="6.86883">
        <ele>1661</ele>
        <time>2010-01-03T03:17:04Z</time>
      </trkpt>
      <trkpt lat="46.24711" lon="6.86881">
        <ele>1660</ele>
        <time>2010-01-03T03:17:08Z</time>
      </trkpt>
      <trkpt lat="46.24699" lon="6.8688">
        <ele>1660</ele>
        <time>2010-01-03T03:17:13Z</time>
      </trkpt>
      <trkpt lat="46.24688" lon="6.86868">
        <ele>1661</ele>
        <time>2010-01-03T03:17:19Z</time>
      </trkpt>
      <trkpt lat="46.24681" lon="6.86852">
        <ele>1662</ele>
        <time>2010-01-03T03:17:24Z</time>
      </trkpt>
      <trkpt lat="46.2467" lon="6.8683">
        <ele>1666</ele>
        <time>2010-01-03T03:17:32Z</time>
      </trkpt>
      <trkpt lat="46.24661" lon="6.86817">
        <ele>1654</ele>
        <time>2010-01-03T03:17:37Z</time>
      </trkpt>
      <trkpt lat="46.24648" lon="6.86791">
        <ele>1650</ele>
        <time>2010-01-03T03:17:45Z</time>
      </trkpt>
      <trkpt lat="46.24639" lon="6.8674">
        <ele>1651</ele>
        <time>2010-01-03T03:18:00Z</time>
      </trkpt>
      <trkpt lat="46.24637" lon="6.8673">
        <ele>1649</ele>
        <time>2010-01-03T03:18:03Z</time>
      </trkpt>
      <trkpt lat="46.24637" lon="6.86718">
        <ele>1648</ele>
        <time>2010-01-03T03:18:07Z</time>
      </trkpt>
      <trkpt lat="46.24637" lon="6.86674">
        <ele>1649</ele>
        <time>2010-01-03T03:18:19Z</time>
      </trkpt>
      <trkpt lat="46.24639" lon="6.86659">
        <ele>1649</ele>
        <time>2010-01-03T03:18:23Z</time>
      </trkpt>
      <trkpt lat="46.2464" lon="6.86642">
        <ele>1648</ele>
        <time>2010-01-03T03:18:28Z</time>
      </trkpt>
      <trkpt lat="46.24633" lon="6.86615">
        <ele>1645</ele>
        <time>2010-01-03T03:18:36Z</time>
      </trkpt>
      <trkpt lat="46.24631" lon="6.86601">
        <ele>1645</ele>
        <time>2010-01-03T03:18:40Z</time>
      </trkpt>
      <trkpt lat="46.24613" lon="6.86567">
        <ele>1642</ele>
        <time>2010-01-03T03:18:51Z</time>
      </trkpt>
      <trkpt lat="46.24604" lon="6.86555">
        <ele>1641</ele>
        <time>2010-01-03T03:18:56Z</time>
      </trkpt>
      <trkpt lat="46.24593" lon="6.8653">
        <ele>1641</ele>
        <time>2010-01-03T03:19:05Z</time>
      </trkpt>
      <trkpt lat="46.24576" lon="6.86497">
        <ele>1627</ele>
        <time>2010-01-03T03:19:16Z</time>
      </trkpt>
      <trkpt lat="46.24574" lon="6.86477">
        <ele>1622</ele>
        <time>2010-01-03T03:19:21Z</time>
      </trkpt>
      <trkpt lat="46.24575" lon="6.86468">
        <ele>1621</ele>
        <time>2010-01-03T03:19:24Z</time>
      </trkpt>
      <trkpt lat="46.24576" lon="6.86467">
        <ele>1621</ele>
        <time>2010-01-03T03:19:24Z</time>
      </trkpt>
      <trkpt lat="46.2458" lon="6.86455">
        <ele>1621</ele>
        <time>2010-01-03T03:19:28Z</time>
      </trkpt>
      <trkpt lat="46.24583" lon="6.86436">
        <ele>1625</ele>
        <time>2010-01-03T03:19:34Z</time>
      </trkpt>
      <trkpt lat="46.24583" lon="6.86419">
        <ele>1637</ele>
        <time>2010-01-03T03:19:38Z</time>
      </trkpt>
      <trkpt lat="46.24581" lon="6.86402">
        <ele>1628</ele>
        <time>2010-01-03T03:19:43Z</time>
      </trkpt>
      <trkpt lat="46.24582" lon="6.86387">
        <ele>1626</ele>
        <time>2010-01-03T03:19:47Z</time>
      </trkpt>
      <trkpt lat="46.24582" lon="6.86386">
        <ele>1625</ele>
        <time>2010-01-03T03:19:47Z</time>
      </trkpt>
      <trkpt lat="46.24586" lon="6.86375">
        <ele>1650</ele>
        <time>2010-01-03T03:19:51Z</time>
      </trkpt>
      <trkpt lat="46.2459" lon="6.86355">
        <ele>1650</ele>
        <time>2010-01-03T03:19:57Z</time>
      </trkpt>
      <trkpt lat="46.24592" lon="6.86347">
        <ele>1648</ele>
        <time>2010-01-03T03:19:59Z</time>
      </trkpt>
      <trkpt lat="46.24591" lon="6.86324">
        <ele>1649</ele>
        <time>2010-01-03T03:20:05Z</time>
      </trkpt>
      <trkpt lat="46.2459" lon="6.8631">
        <ele>1653</ele>
        <time>2010-01-03T03:20:09Z</time>
      </trkpt>
      <trkpt lat="46.2459" lon="6.86309">
        <ele>1653</ele>
        <time>2010-01-03T03:20:10Z</time>
      </trkpt>
      <trkpt lat="46.24591" lon="6.86297">
        <ele>1655</ele>
        <time>2010-01-03T03:20:13Z</time>
      </trkpt>
      <trkpt lat="46.24591" lon="6.86286">
        <ele>1655</ele>
        <time>2010-01-03T03:20:16Z</time>
      </trkpt>
      <trkpt lat="46.24591" lon="6.86285">
        <ele>1655</ele>
        <time>2010-01-03T03:20:16Z</time>
      </trkpt>
      <trkpt lat="46.2459" lon="6.86269">
        <ele>1653</ele>
        <time>2010-01-03T03:20:21Z</time>
      </trkpt>
      <trkpt lat="46.24589" lon="6.86237">
        <ele>1652</ele>
        <time>2010-01-03T03:20:30Z</time>
      </trkpt>
      <trkpt lat="46.2459" lon="6.86223">
        <ele>1655</ele>
        <time>2010-01-03T03:20:33Z</time>
      </trkpt>
      <trkpt lat="46.24591" lon="6.86203">
        <ele>1656</ele>
        <time>2010-01-03T03:20:39Z</time>
      </trkpt>
      <trkpt lat="46.24596" lon="6.86189">
        <ele>1656</ele>
        <time>2010-01-03T03:20:43Z</time>
      </trkpt>
      <trkpt lat="46.246" lon="6.86179">
        <ele>1655</ele>
        <time>2010-01-03T03:20:47Z</time>
      </trkpt>
      <trkpt lat="46.24602" lon="6.8617">
        <ele>1654</ele>
        <time>2010-01-03T03:20:49Z</time>
      </trkpt>
      <trkpt lat="46.24605" lon="6.86162">
        <ele>1655</ele>
        <time>2010-01-03T03:20:52Z</time>
      </trkpt>
      <trkpt lat="46.24608" lon="6.86157">
        <ele>1656</ele>
        <time>2010-01-03T03:20:54Z</time>
      </trkpt>
      <trkpt lat="46.24608" lon="6.86144">
        <ele>1657</ele>
        <time>2010-01-03T03:20:57Z</time>
      </trkpt>
      <trkpt lat="46.24608" lon="6.86143">
        <ele>1657</ele>
        <time>2010-01-03T03:20:58Z</time>
      </trkpt>
      <trkpt lat="46.24611" lon="6.86127">
        <ele>1658</ele>
        <time>2010-01-03T03:21:02Z</time>
      </trkpt>
      <trkpt lat="46.24616" lon="6.86119">
        <ele>1659</ele>
        <time>2010-01-03T03:21:05Z</time>
      </trkpt>
      <trkpt lat="46.24618" lon="6.86115">
        <ele>1659</ele>
        <time>2010-01-03T03:21:06Z</time>
      </trkpt>
      <trkpt lat="46.24615" lon="6.8611">
        <ele>1658</ele>
        <time>2010-01-03T03:21:08Z</time>
      </trkpt>
      <trkpt lat="46.2461" lon="6.86104">
        <ele>1656</ele>
        <time>2010-01-03T03:21:11Z</time>
      </trkpt>
      <trkpt lat="46.2461" lon="6.86085">
        <ele>1655</ele>
        <time>2010-01-03T03:21:16Z</time>
      </trkpt>
      <trkpt lat="46.2461" lon="6.8607">
        <ele>1653</ele>
        <time>2010-01-03T03:21:20Z</time>
      </trkpt>
      <trkpt lat="46.24611" lon="6.86061">
        <ele>1654</ele>
        <time>2010-01-03T03:21:23Z</time>
      </trkpt>
      <trkpt lat="46.24605" lon="6.8603">
        <ele>1653</ele>
        <time>2010-01-03T03:21:31Z</time>
      </trkpt>
      <trkpt lat="46.24602" lon="6.86012">
        <ele>1650</ele>
        <time>2010-01-03T03:21:36Z</time>
      </trkpt>
      <trkpt lat="46.24601" lon="6.85993">
        <ele>1645</ele>
        <time>2010-01-03T03:21:42Z</time>
      </trkpt>
      <trkpt lat="46.24601" lon="6.85974">
        <ele>1646</ele>
        <time>2010-01-03T03:21:47Z</time>
      </trkpt>
      <trkpt lat="46.24605" lon="6.85958">
        <ele>1646</ele>
        <time>2010-01-03T03:21:52Z</time>
      </trkpt>
      <trkpt lat="46.24619" lon="6.85938">
        <ele>1646</ele>
        <time>2010-01-03T03:22:00Z</time>
      </trkpt>
      <trkpt lat="46.24627" lon="6.85926">
        <ele>1648</ele>
        <time>2010-01-03T03:22:04Z</time>
      </trkpt>
      <trkpt lat="46.24634" lon="6.85915">
        <ele>1642</ele>
        <time>2010-01-03T03:22:08Z</time>
      </trkpt>
      <trkpt lat="46.24646" lon="6.85896">
        <ele>1643</ele>
        <time>2010-01-03T03:22:15Z</time>
      </trkpt>
      <trkpt lat="46.24653" lon="6.85868">
        <ele>1641</ele>
        <time>2010-01-03T03:22:24Z</time>
      </trkpt>
      <trkpt lat="46.24659" lon="6.85852">
        <ele>1642</ele>
        <time>2010-01-03T03:22:29Z</time>
      </trkpt>
      <trkpt lat="46.24667" lon="6.8584">
        <ele>1650</ele>
        <time>2010-01-03T03:22:33Z</time>
      </trkpt>
      <trkpt lat="46.24674" lon="6.85834">
        <ele>1651</ele>
        <time>2010-01-03T03:22:37Z</time>
      </trkpt>
      <trkpt lat="46.2468" lon="6.85827">
        <ele>1646</ele>
        <time>2010-01-03T03:22:40Z</time>
      </trkpt>
      <trkpt lat="46.24686" lon="6.85814">
        <ele>1646</ele>
        <time>2010-01-03T03:22:44Z</time>
      </trkpt>
      <trkpt lat="46.24687" lon="6.85812">
        <ele>1645</ele>
        <time>2010-01-03T03:22:45Z</time>
      </trkpt>
      <trkpt lat="46.24691" lon="6.85795">
        <ele>1644</ele>
        <time>2010-01-03T03:22:50Z</time>
      </trkpt>
      <trkpt lat="46.24691" lon="6.85794">
        <ele>1643</ele>
        <time>2010-01-03T03:22:50Z</time>
      </trkpt>
      <trkpt lat="46.24692" lon="6.85779">
        <ele>1641</ele>
        <time>2010-01-03T03:22:54Z</time>
      </trkpt>
      <trkpt lat="46.24694" lon="6.85763">
        <ele>1639</ele>
        <time>2010-01-03T03:22:59Z</time>
      </trkpt>
      <trkpt lat="46.24694" lon="6.85762">
        <ele>1638</ele>
        <time>2010-01-03T03:22:59Z</time>
      </trkpt>
      <trkpt lat="46.24702" lon="6.8575">
        <ele>1639</ele>
        <time>2010-01-03T03:23:03Z</time>
      </trkpt>
      <trkpt lat="46.24716" lon="6.85739">
        <ele>1625</ele>
        <time>2010-01-03T03:23:10Z</time>
      </trkpt>
      <trkpt lat="46.24735" lon="6.8574">
        <ele>1631</ele>
        <time>2010-01-03T03:23:17Z</time>
      </trkpt>
      <trkpt lat="46.24756" lon="6.85745">
        <ele>1642</ele>
        <time>2010-01-03T03:23:26Z</time>
      </trkpt>
      <trkpt lat="46.24776" lon="6.85739">
        <ele>1642</ele>
        <time>2010-01-03T03:23:34Z</time>
      </trkpt>
      <trkpt lat="46.24786" lon="6.85729">
        <ele>1642</ele>
        <time>2010-01-03T03:23:39Z</time>
      </trkpt>
      <trkpt lat="46.24796" lon="6.8572">
        <ele>1642</ele>
        <time>2010-01-03T03:23:43Z</time>
      </trkpt>
      <trkpt lat="46.24796" lon="6.8572">
        <ele>1642</ele>
        <time>2010-01-03T03:23:43Z</time>
      </trkpt>
      <trkpt lat="46.24818" lon="6.85691">
        <ele>1639</ele>
        <time>2010-01-03T03:23:55Z</time>
      </trkpt>
      <trkpt lat="46.24822" lon="6.85674">
        <ele>1637</ele>
        <time>2010-01-03T03:24:00Z</time>
      </trkpt>
      <trkpt lat="46.24829" lon="6.85656">
        <ele>1628</ele>
        <time>2010-01-03T03:24:06Z</time>
      </trkpt>
      <trkpt lat="46.24836" lon="6.85637">
        <ele>1639</ele>
        <time>2010-01-03T03:24:12Z</time>
      </trkpt>
      <trkpt lat="46.24835" lon="6.85624">
        <ele>1637</ele>
        <time>2010-01-03T03:24:16Z</time>
      </trkpt>
      <trkpt lat="46.24842" lon="6.85598">
        <ele>1631</ele>
        <time>2010-01-03T03:24:23Z</time>
      </trkpt>
      <trkpt lat="46.24844" lon="6.8558">
        <ele>1620</ele>
        <time>2010-01-03T03:24:28Z</time>
      </trkpt>
      <trkpt lat="46.24847" lon="6.85561">
        <ele>1619</ele>
        <time>2010-01-03T03:24:34Z</time>
      </trkpt>
      <trkpt lat="46.24852" lon="6.85542">
        <ele>1617</ele>
        <time>2010-01-03T03:24:40Z</time>
      </trkpt>
      <trkpt lat="46.24856" lon="6.85529">
        <ele>1616</ele>
        <time>2010-01-03T03:24:44Z</time>
      </trkpt>
      <trkpt lat="46.24862" lon="6.85522">
        <ele>1615</ele>
        <time>2010-01-03T03:24:46Z</time>
      </trkpt>
      <trkpt lat="46.24873" lon="6.85515">
        <ele>1616</ele>
        <time>2010-01-03T03:24:51Z</time>
      </trkpt>
      <trkpt lat="46.24879" lon="6.85512">
        <ele>1616</ele>
        <time>2010-01-03T03:24:54Z</time>
      </trkpt>
      <trkpt lat="46.24883" lon="6.85501">
        <ele>1615</ele>
        <time>2010-01-03T03:24:57Z</time>
      </trkpt>
      <trkpt lat="46.24896" lon="6.85494">
        <ele>1602</ele>
        <time>2010-01-03T03:25:03Z</time>
      </trkpt>
      <trkpt lat="46.2491" lon="6.85486">
        <ele>1603</ele>
        <time>2010-01-03T03:25:08Z</time>
      </trkpt>
      <trkpt lat="46.24925" lon="6.85485">
        <ele>1607</ele>
        <time>2010-01-03T03:25:15Z</time>
      </trkpt>
      <trkpt lat="46.24944" lon="6.85488">
        <ele>1606</ele>
        <time>2010-01-03T03:25:22Z</time>
      </trkpt>
      <trkpt lat="46.24958" lon="6.85491">
        <ele>1607</ele>
        <time>2010-01-03T03:25:28Z</time>
      </trkpt>
      <trkpt lat="46.24975" lon="6.85493">
        <ele>1608</ele>
        <time>2010-01-03T03:25:35Z</time>
      </trkpt>
      <trkpt lat="46.24981" lon="6.85492">
        <ele>1609</ele>
        <time>2010-01-03T03:25:37Z</time>
      </trkpt>
      <trkpt lat="46.24991" lon="6.85489">
        <ele>1611</ele>
        <time>2010-01-03T03:25:41Z</time>
      </trkpt>
      <trkpt lat="46.24995" lon="6.85475">
        <ele>1607</ele>
        <time>2010-01-03T03:25:45Z</time>
      </trkpt>
      <trkpt lat="46.25" lon="6.85468">
        <ele>1610</ele>
        <time>2010-01-03T03:25:48Z</time>
      </trkpt>
      <trkpt lat="46.25002" lon="6.85453">
        <ele>1607</ele>
        <time>2010-01-03T03:25:52Z</time>
      </trkpt>
      <trkpt lat="46.2501" lon="6.85433">
        <ele>1602</ele>
        <time>2010-01-03T03:25:59Z</time>
      </trkpt>
      <trkpt lat="46.25019" lon="6.85414">
        <ele>1591</ele>
        <time>2010-01-03T03:26:05Z</time>
      </trkpt>
      <trkpt lat="46.25026" lon="6.85401">
        <ele>1590</ele>
        <time>2010-01-03T03:26:10Z</time>
      </trkpt>
      <trkpt lat="46.25046" lon="6.85385">
        <ele>1590</ele>
        <time>2010-01-03T03:26:19Z</time>
      </trkpt>
      <trkpt lat="46.25056" lon="6.85378">
        <ele>1590</ele>
        <time>2010-01-03T03:26:24Z</time>
      </trkpt>
      <trkpt lat="46.25068" lon="6.85376">
        <ele>1590</ele>
        <time>2010-01-03T03:26:28Z</time>
      </trkpt>
      <trkpt lat="46.2508" lon="6.85381">
        <ele>1591</ele>
        <time>2010-01-03T03:26:33Z</time>
      </trkpt>
      <trkpt lat="46.25081" lon="6.85381">
        <ele>1591</ele>
        <time>2010-01-03T03:26:34Z</time>
      </trkpt>
      <trkpt lat="46.25097" lon="6.85389">
        <ele>1596</ele>
        <time>2010-01-03T03:26:40Z</time>
      </trkpt>
      <trkpt lat="46.25101" lon="6.85391">
        <ele>1596</ele>
        <time>2010-01-03T03:26:42Z</time>
      </trkpt>
      <trkpt lat="46.25107" lon="6.85394">
        <ele>1596</ele>
        <time>2010-01-03T03:26:45Z</time>
      </trkpt>
      <trkpt lat="46.25112" lon="6.8539">
        <ele>1596</ele>
        <time>2010-01-03T03:26:47Z</time>
      </trkpt>
      <trkpt lat="46.25123" lon="6.85393">
        <ele>1596</ele>
        <time>2010-01-03T03:26:51Z</time>
      </trkpt>
      <trkpt lat="46.25132" lon="6.85392">
        <ele>1596</ele>
        <time>2010-01-03T03:26:55Z</time>
      </trkpt>
      <trkpt lat="46.25139" lon="6.85385">
        <ele>1596</ele>
        <time>2010-01-03T03:26:58Z</time>
      </trkpt>
      <trkpt lat="46.25141" lon="6.85374">
        <ele>1594</ele>
        <time>2010-01-03T03:27:02Z</time>
      </trkpt>
      <trkpt lat="46.25138" lon="6.85352">
        <ele>1591</ele>
        <time>2010-01-03T03:27:08Z</time>
      </trkpt>
      <trkpt lat="46.25128" lon="6.85335">
        <ele>1591</ele>
        <time>2010-01-03T03:27:14Z</time>
      </trkpt>
      <trkpt lat="46.25122" lon="6.85321">
        <ele>1580</ele>
        <time>2010-01-03T03:27:18Z</time>
      </trkpt>
      <trkpt lat="46.25111" lon="6.85305">
        <ele>1579</ele>
        <time>2010-01-03T03:27:25Z</time>
      </trkpt>
      <trkpt lat="46.25102" lon="6.85294">
        <ele>1579</ele>
        <time>2010-01-03T03:27:29Z</time>
      </trkpt>
      <trkpt lat="46.25091" lon="6.85281">
        <ele>1577</ele>
        <time>2010-01-03T03:27:35Z</time>
      </trkpt>
      <trkpt lat="46.25069" lon="6.8527">
        <ele>1573</ele>
        <time>2010-01-03T03:27:44Z</time>
      </trkpt>
      <trkpt lat="46.25052" lon="6.8527">
        <ele>1572</ele>
        <time>2010-01-03T03:27:51Z</time>
      </trkpt>
      <trkpt lat="46.2504" lon="6.85265">
        <ele>1570</ele>
        <time>2010-01-03T03:27:56Z</time>
      </trkpt>
      <trkpt lat="46.25024" lon="6.85264">
        <ele>1568</ele>
        <time>2010-01-03T03:28:02Z</time>
      </trkpt>
      <trkpt lat="46.25006" lon="6.85273">
        <ele>1567</ele>
        <time>2010-01-03T03:28:10Z</time>
      </trkpt>
      <trkpt lat="46.24977" lon="6.85303">
        <ele>1559</ele>
        <time>2010-01-03T03:28:24Z</time>
      </trkpt>
      <trkpt lat="46.24957" lon="6.85324">
        <ele>1559</ele>
        <time>2010-01-03T03:28:34Z</time>
      </trkpt>
      <trkpt lat="46.24947" lon="6.85345">
        <ele>1572</ele>
        <time>2010-01-03T03:28:41Z</time>
      </trkpt>
      <trkpt lat="46.24937" lon="6.85363">
        <ele>1574</ele>
        <time>2010-01-03T03:28:48Z</time>
      </trkpt>
      <trkpt lat="46.24922" lon="6.85371">
        <ele>1575</ele>
        <time>2010-01-03T03:28:54Z</time>
      </trkpt>
      <trkpt lat="46.24909" lon="6.8536">
        <ele>1563</ele>
        <time>2010-01-03T03:29:00Z</time>
      </trkpt>
      <trkpt lat="46.24892" lon="6.85346">
        <ele>1560</ele>
        <time>2010-01-03T03:29:08Z</time>
      </trkpt>
      <trkpt lat="46.24869" lon="6.85347">
        <ele>1558</ele>
        <time>2010-01-03T03:29:17Z</time>
      </trkpt>
      <trkpt lat="46.24839" lon="6.85359">
        <ele>1555</ele>
        <time>2010-01-03T03:29:30Z</time>
      </trkpt>
      <trkpt lat="46.24812" lon="6.85375">
        <ele>1547</ele>
        <time>2010-01-03T03:29:41Z</time>
      </trkpt>
      <trkpt lat="46.24791" lon="6.85402">
        <ele>1548</ele>
        <time>2010-01-03T03:29:53Z</time>
      </trkpt>
      <trkpt lat="46.24773" lon="6.85438">
        <ele>1564</ele>
        <time>2010-01-03T03:30:05Z</time>
      </trkpt>
      <trkpt lat="46.24769" lon="6.85464">
        <ele>1568</ele>
        <time>2010-01-03T03:30:12Z</time>
      </trkpt>
      <trkpt lat="46.24758" lon="6.85474">
        <ele>1567</ele>
        <time>2010-01-03T03:30:17Z</time>
      </trkpt>
      <trkpt lat="46.24746" lon="6.85485">
        <ele>1555</ele>
        <time>2010-01-03T03:30:23Z</time>
      </trkpt>
      <trkpt lat="46.24745" lon="6.85486">
        <ele>1555</ele>
        <time>2010-01-03T03:30:24Z</time>
      </trkpt>
      <trkpt lat="46.24727" lon="6.85498">
        <ele>1552</ele>
        <time>2010-01-03T03:30:32Z</time>
      </trkpt>
      <trkpt lat="46.24714" lon="6.85496">
        <ele>1548</ele>
        <time>2010-01-03T03:30:37Z</time>
      </trkpt>
      <trkpt lat="46.247" lon="6.85504">
        <ele>1555</ele>
        <time>2010-01-03T03:30:43Z</time>
      </trkpt>
      <trkpt lat="46.24699" lon="6.85504">
        <ele>1555</ele>
        <time>2010-01-03T03:30:43Z</time>
      </trkpt>
      <trkpt lat="46.24687" lon="6.85512">
        <ele>1552</ele>
        <time>2010-01-03T03:30:49Z</time>
      </trkpt>
      <trkpt lat="46.24677" lon="6.85525">
        <ele>1553</ele>
        <time>2010-01-03T03:30:54Z</time>
      </trkpt>
      <trkpt lat="46.24676" lon="6.85527">
        <ele>1553</ele>
        <time>2010-01-03T03:30:55Z</time>
      </trkpt>
      <trkpt lat="46.24667" lon="6.85549">
        <ele>1558</ele>
        <time>2010-01-03T03:31:02Z</time>
      </trkpt>
      <trkpt lat="46.24646" lon="6.85575">
        <ele>1545</ele>
        <time>2010-01-03T03:31:13Z</time>
      </trkpt>
      <trkpt lat="46.24631" lon="6.85584">
        <ele>1556</ele>
        <time>2010-01-03T03:31:19Z</time>
      </trkpt>
      <trkpt lat="46.2462" lon="6.85589">
        <ele>1553</ele>
        <time>2010-01-03T03:31:24Z</time>
      </trkpt>
      <trkpt lat="46.24601" lon="6.85591">
        <ele>1545</ele>
        <time>2010-01-03T03:31:32Z</time>
      </trkpt>
      <trkpt lat="46.24589" lon="6.85611">
        <ele>1550</ele>
        <time>2010-01-03T03:31:39Z</time>
      </trkpt>
      <trkpt lat="46.24584" lon="6.85624">
        <ele>1554</ele>
        <time>2010-01-03T03:31:43Z</time>
      </trkpt>
      <trkpt lat="46.2457" lon="6.85637">
        <ele>1537</ele>
        <time>2010-01-03T03:31:50Z</time>
      </trkpt>
      <trkpt lat="46.24558" lon="6.85654">
        <ele>1538</ele>
        <time>2010-01-03T03:31:56Z</time>
      </trkpt>
      <trkpt lat="46.24549" lon="6.85671">
        <ele>1556</ele>
        <time>2010-01-03T03:32:02Z</time>
      </trkpt>
      <trkpt lat="46.24535" lon="6.85683">
        <ele>1554</ele>
        <time>2010-01-03T03:32:09Z</time>
      </trkpt>
      <trkpt lat="46.24518" lon="6.85695">
        <ele>1552</ele>
        <time>2010-01-03T03:32:17Z</time>
      </trkpt>
      <trkpt lat="46.24501" lon="6.85703">
        <ele>1552</ele>
        <time>2010-01-03T03:32:24Z</time>
      </trkpt>
      <trkpt lat="46.24483" lon="6.85737">
        <ele>1537</ele>
        <time>2010-01-03T03:32:36Z</time>
      </trkpt>
      <trkpt lat="46.24482" lon="6.85741">
        <ele>1537</ele>
        <time>2010-01-03T03:32:37Z</time>
      </trkpt>
      <trkpt lat="46.24464" lon="6.85781">
        <ele>1540</ele>
        <time>2010-01-03T03:32:50Z</time>
      </trkpt>
      <trkpt lat="46.24449" lon="6.85828">
        <ele>1537</ele>
        <time>2010-01-03T03:33:04Z</time>
      </trkpt>
      <trkpt lat="46.24443" lon="6.85868">
        <ele>1546</ele>
        <time>2010-01-03T03:33:15Z</time>
      </trkpt>
      <trkpt lat="46.24435" lon="6.85888">
        <ele>1547</ele>
        <time>2010-01-03T03:33:22Z</time>
      </trkpt>
      <trkpt lat="46.24422" lon="6.85892">
        <ele>1544</ele>
        <time>2010-01-03T03:33:27Z</time>
      </trkpt>
      <trkpt lat="46.24404" lon="6.85896">
        <ele>1523</ele>
        <time>2010-01-03T03:33:34Z</time>
      </trkpt>
      <trkpt lat="46.24381" lon="6.85911">
        <ele>1518</ele>
        <time>2010-01-03T03:33:45Z</time>
      </trkpt>
      <trkpt lat="46.2437" lon="6.8593">
        <ele>1521</ele>
        <time>2010-01-03T03:33:51Z</time>
      </trkpt>
      <trkpt lat="46.24367" lon="6.85958">
        <ele>1522</ele>
        <time>2010-01-03T03:33:59Z</time>
      </trkpt>
      <trkpt lat="46.24361" lon="6.85975">
        <ele>1521</ele>
        <time>2010-01-03T03:34:05Z</time>
      </trkpt>
      <trkpt lat="46.24356" lon="6.8596">
        <ele>1520</ele>
        <time>2010-01-03T03:34:09Z</time>
      </trkpt>
      <trkpt lat="46.2435" lon="6.8593">
        <ele>1515</ele>
        <time>2010-01-03T03:34:18Z</time>
      </trkpt>
      <trkpt lat="46.2435" lon="6.85925">
        <ele>1514</ele>
        <time>2010-01-03T03:34:19Z</time>
      </trkpt>
      <trkpt lat="46.24356" lon="6.85889">
        <ele>1511</ele>
        <time>2010-01-03T03:34:29Z</time>
      </trkpt>
      <trkpt lat="46.24361" lon="6.85846">
        <ele>1508</ele>
        <time>2010-01-03T03:34:42Z</time>
      </trkpt>
      <trkpt lat="46.24362" lon="6.85845">
        <ele>1508</ele>
        <time>2010-01-03T03:34:42Z</time>
      </trkpt>
      <trkpt lat="46.24369" lon="6.85835">
        <ele>1509</ele>
        <time>2010-01-03T03:34:46Z</time>
      </trkpt>
      <trkpt lat="46.24375" lon="6.85826">
        <ele>1503</ele>
        <time>2010-01-03T03:34:49Z</time>
      </trkpt>
      <trkpt lat="46.2438" lon="6.85822">
        <ele>1503</ele>
        <time>2010-01-03T03:34:52Z</time>
      </trkpt>
      <trkpt lat="46.24381" lon="6.85811">
        <ele>1503</ele>
        <time>2010-01-03T03:34:55Z</time>
      </trkpt>
      <trkpt lat="46.24376" lon="6.85805">
        <ele>1501</ele>
        <time>2010-01-03T03:34:57Z</time>
      </trkpt>
      <trkpt lat="46.24368" lon="6.85815">
        <ele>1500</ele>
        <time>2010-01-03T03:35:01Z</time>
      </trkpt>
      <trkpt lat="46.2435" lon="6.85826">
        <ele>1497</ele>
        <time>2010-01-03T03:35:09Z</time>
      </trkpt>
      <trkpt lat="46.24334" lon="6.85826">
        <ele>1494</ele>
        <time>2010-01-03T03:35:16Z</time>
      </trkpt>
      <trkpt lat="46.24324" lon="6.85852">
        <ele>1488</ele>
        <time>2010-01-03T03:35:24Z</time>
      </trkpt>
      <trkpt lat="46.24311" lon="6.85882">
        <ele>1488</ele>
        <time>2010-01-03T03:35:34Z</time>
      </trkpt>
      <trkpt lat="46.24293" lon="6.85909">
        <ele>1486</ele>
        <time>2010-01-03T03:35:44Z</time>
      </trkpt>
      <trkpt lat="46.24285" lon="6.85903">
        <ele>1484</ele>
        <time>2010-01-03T03:35:48Z</time>
      </trkpt>
      <trkpt lat="46.24292" lon="6.8587">
        <ele>1484</ele>
        <time>2010-01-03T03:35:57Z</time>
      </trkpt>
      <trkpt lat="46.24299" lon="6.85849">
        <ele>1484</ele>
        <time>2010-01-03T03:36:04Z</time>
      </trkpt>
      <trkpt lat="46.243" lon="6.8583">
        <ele>1478</ele>
        <time>2010-01-03T03:36:09Z</time>
      </trkpt>
      <trkpt lat="46.24296" lon="6.85805">
        <ele>1476</ele>
        <time>2010-01-03T03:36:16Z</time>
      </trkpt>
      <trkpt lat="46.24294" lon="6.85795">
        <ele>1475</ele>
        <time>2010-01-03T03:36:19Z</time>
      </trkpt>
      <trkpt lat="46.24295" lon="6.85786">
        <ele>1474</ele>
        <time>2010-01-03T03:36:21Z</time>
      </trkpt>
      <trkpt lat="46.24307" lon="6.85779">
        <ele>1475</ele>
        <time>2010-01-03T03:36:26Z</time>
      </trkpt>
      <trkpt lat="46.24317" lon="6.85776">
        <ele>1476</ele>
        <time>2010-01-03T03:36:31Z</time>
      </trkpt>
      <trkpt lat="46.24328" lon="6.85772">
        <ele>1477</ele>
        <time>2010-01-03T03:36:35Z</time>
      </trkpt>
      <trkpt lat="46.24338" lon="6.85761">
        <ele>1487</ele>
        <time>2010-01-03T03:36:40Z</time>
      </trkpt>
      <trkpt lat="46.24348" lon="6.85747">
        <ele>1483</ele>
        <time>2010-01-03T03:36:46Z</time>
      </trkpt>
      <trkpt lat="46.24358" lon="6.85732">
        <ele>1485</ele>
        <time>2010-01-03T03:36:51Z</time>
      </trkpt>
      <trkpt lat="46.24364" lon="6.85722">
        <ele>1486</ele>
        <time>2010-01-03T03:36:55Z</time>
      </trkpt>
      <trkpt lat="46.24369" lon="6.85699">
        <ele>1484</ele>
        <time>2010-01-03T03:37:02Z</time>
      </trkpt>
      <trkpt lat="46.24378" lon="6.85688">
        <ele>1485</ele>
        <time>2010-01-03T03:37:06Z</time>
      </trkpt>
      <trkpt lat="46.24392" lon="6.85671">
        <ele>1488</ele>
        <time>2010-01-03T03:37:14Z</time>
      </trkpt>
      <trkpt lat="46.24403" lon="6.85643">
        <ele>1475</ele>
        <time>2010-01-03T03:37:23Z</time>
      </trkpt>
      <trkpt lat="46.2441" lon="6.85627">
        <ele>1472</ele>
        <time>2010-01-03T03:37:28Z</time>
      </trkpt>
      <trkpt lat="46.24418" lon="6.85613">
        <ele>1487</ele>
        <time>2010-01-03T03:37:33Z</time>
      </trkpt>
      <trkpt lat="46.24431" lon="6.85592">
        <ele>1482</ele>
        <time>2010-01-03T03:37:41Z</time>
      </trkpt>
      <trkpt lat="46.24431" lon="6.85592">
        <ele>1482</ele>
        <time>2010-01-03T03:37:41Z</time>
      </trkpt>
      <trkpt lat="46.24447" lon="6.85566">
        <ele>1472</ele>
        <time>2010-01-03T03:37:51Z</time>
      </trkpt>
      <trkpt lat="46.24457" lon="6.85551">
        <ele>1473</ele>
        <time>2010-01-03T03:37:56Z</time>
      </trkpt>
      <trkpt lat="46.24466" lon="6.85519">
        <ele>1471</ele>
        <time>2010-01-03T03:38:06Z</time>
      </trkpt>
      <trkpt lat="46.2447" lon="6.855">
        <ele>1461</ele>
        <time>2010-01-03T03:38:11Z</time>
      </trkpt>
      <trkpt lat="46.24474" lon="6.85486">
        <ele>1461</ele>
        <time>2010-01-03T03:38:16Z</time>
      </trkpt>
      <trkpt lat="46.24478" lon="6.85479">
        <ele>1461</ele>
        <time>2010-01-03T03:38:18Z</time>
      </trkpt>
      <trkpt lat="46.24479" lon="6.85477">
        <ele>1461</ele>
        <time>2010-01-03T03:38:19Z</time>
      </trkpt>
      <trkpt lat="46.24489" lon="6.85468">
        <ele>1461</ele>
        <time>2010-01-03T03:38:23Z</time>
      </trkpt>
      <trkpt lat="46.24498" lon="6.85446">
        <ele>1459</ele>
        <time>2010-01-03T03:38:30Z</time>
      </trkpt>
      <trkpt lat="46.245" lon="6.85428">
        <ele>1472</ele>
        <time>2010-01-03T03:38:35Z</time>
      </trkpt>
      <trkpt lat="46.24501" lon="6.85409">
        <ele>1466</ele>
        <time>2010-01-03T03:38:41Z</time>
      </trkpt>
      <trkpt lat="46.24502" lon="6.85383">
        <ele>1468</ele>
        <time>2010-01-03T03:38:48Z</time>
      </trkpt>
      <trkpt lat="46.24507" lon="6.85358">
        <ele>1463</ele>
        <time>2010-01-03T03:38:55Z</time>
      </trkpt>
      <trkpt lat="46.24509" lon="6.85339">
        <ele>1456</ele>
        <time>2010-01-03T03:39:00Z</time>
      </trkpt>
      <trkpt lat="46.24509" lon="6.85338">
        <ele>1455</ele>
        <time>2010-01-03T03:39:01Z</time>
      </trkpt>
      <trkpt lat="46.24521" lon="6.85308">
        <ele>1452</ele>
        <time>2010-01-03T03:39:10Z</time>
      </trkpt>
      <trkpt lat="46.24534" lon="6.85277">
        <ele>1450</ele>
        <time>2010-01-03T03:39:21Z</time>
      </trkpt>
      <trkpt lat="46.24551" lon="6.85262">
        <ele>1452</ele>
        <time>2010-01-03T03:39:28Z</time>
      </trkpt>
      <trkpt lat="46.24562" lon="6.85238">
        <ele>1441</ele>
        <time>2010-01-03T03:39:36Z</time>
      </trkpt>
      <trkpt lat="46.24568" lon="6.85225">
        <ele>1440</ele>
        <time>2010-01-03T03:39:41Z</time>
      </trkpt>
      <trkpt lat="46.24573" lon="6.85207">
        <ele>1436</ele>
        <time>2010-01-03T03:39:46Z</time>
      </trkpt>
      <trkpt lat="46.24575" lon="6.85205">
        <ele>1436</ele>
        <time>2010-01-03T03:39:47Z</time>
      </trkpt>
      <trkpt lat="46.24575" lon="6.85204">
        <ele>1436</ele>
        <time>2010-01-03T03:39:47Z</time>
      </trkpt>
      <trkpt lat="46.24606" lon="6.85166">
        <ele>1432</ele>
        <time>2010-01-03T03:40:03Z</time>
      </trkpt>
      <trkpt lat="46.24617" lon="6.85153">
        <ele>1431</ele>
        <time>2010-01-03T03:40:09Z</time>
      </trkpt>
      <trkpt lat="46.24618" lon="6.85151">
        <ele>1431</ele>
        <time>2010-01-03T03:40:10Z</time>
      </trkpt>
      <trkpt lat="46.24639" lon="6.85131">
        <ele>1430</ele>
        <time>2010-01-03T03:40:20Z</time>
      </trkpt>
      <trkpt lat="46.2464" lon="6.85131">
        <ele>1430</ele>
        <time>2010-01-03T03:40:20Z</time>
      </trkpt>
      <trkpt lat="46.24654" lon="6.85127">
        <ele>1431</ele>
        <time>2010-01-03T03:40:26Z</time>
      </trkpt>
      <trkpt lat="46.24656" lon="6.85126">
        <ele>1430</ele>
        <time>2010-01-03T03:40:27Z</time>
      </trkpt>
      <trkpt lat="46.24677" lon="6.85117">
        <ele>1439</ele>
        <time>2010-01-03T03:40:36Z</time>
      </trkpt>
      <trkpt lat="46.24677" lon="6.85117">
        <ele>1439</ele>
        <time>2010-01-03T03:40:36Z</time>
      </trkpt>
      <trkpt lat="46.24697" lon="6.85113">
        <ele>1440</ele>
        <time>2010-01-03T03:40:44Z</time>
      </trkpt>
      <trkpt lat="46.24701" lon="6.85111">
        <ele>1440</ele>
        <time>2010-01-03T03:40:45Z</time>
      </trkpt>
      <trkpt lat="46.24718" lon="6.85105">
        <ele>1441</ele>
        <time>2010-01-03T03:40:53Z</time>
      </trkpt>
      <trkpt lat="46.24719" lon="6.85104">
        <ele>1441</ele>
        <time>2010-01-03T03:40:53Z</time>
      </trkpt>
      <trkpt lat="46.2473" lon="6.85098">
        <ele>1441</ele>
        <time>2010-01-03T03:40:58Z</time>
      </trkpt>
      <trkpt lat="46.24742" lon="6.85085">
        <ele>1439</ele>
        <time>2010-01-03T03:41:03Z</time>
      </trkpt>
      <trkpt lat="46.24753" lon="6.85063">
        <ele>1438</ele>
        <time>2010-01-03T03:41:11Z</time>
      </trkpt>
      <trkpt lat="46.24757" lon="6.85015">
        <ele>1428</ele>
        <time>2010-01-03T03:41:25Z</time>
      </trkpt>
      <trkpt lat="46.24761" lon="6.84985">
        <ele>1417</ele>
        <time>2010-01-03T03:41:33Z</time>
      </trkpt>
      <trkpt lat="46.24761" lon="6.84983">
        <ele>1417</ele>
        <time>2010-01-03T03:41:33Z</time>
      </trkpt>
      <trkpt lat="46.24772" lon="6.84959">
        <ele>1416</ele>
        <time>2010-01-03T03:41:42Z</time>
      </trkpt>
      <trkpt lat="46.24773" lon="6.84955">
        <ele>1415</ele>
        <time>2010-01-03T03:41:43Z</time>
      </trkpt>
      <trkpt lat="46.24774" lon="6.84953">
        <ele>1415</ele>
        <time>2010-01-03T03:41:43Z</time>
      </trkpt>
      <trkpt lat="46.24786" lon="6.84934">
        <ele>1414</ele>
        <time>2010-01-03T03:41:50Z</time>
      </trkpt>
      <trkpt lat="46.24796" lon="6.84914">
        <ele>1403</ele>
        <time>2010-01-03T03:41:57Z</time>
      </trkpt>
      <trkpt lat="46.24818" lon="6.84874">
        <ele>1401</ele>
        <time>2010-01-03T03:42:11Z</time>
      </trkpt>
      <trkpt lat="46.24832" lon="6.8484">
        <ele>1398</ele>
        <time>2010-01-03T03:42:22Z</time>
      </trkpt>
      <trkpt lat="46.2485" lon="6.84825">
        <ele>1393</ele>
        <time>2010-01-03T03:42:30Z</time>
      </trkpt>
      <trkpt lat="46.2487" lon="6.84821">
        <ele>1392</ele>
        <time>2010-01-03T03:42:39Z</time>
      </trkpt>
      <trkpt lat="46.24888" lon="6.84818">
        <ele>1392</ele>
        <time>2010-01-03T03:42:46Z</time>
      </trkpt>
      <trkpt lat="46.24889" lon="6.84818">
        <ele>1392</ele>
        <time>2010-01-03T03:42:46Z</time>
      </trkpt>
      <trkpt lat="46.24908" lon="6.84811">
        <ele>1393</ele>
        <time>2010-01-03T03:42:54Z</time>
      </trkpt>
      <trkpt lat="46.24912" lon="6.84809">
        <ele>1393</ele>
        <time>2010-01-03T03:42:56Z</time>
      </trkpt>
      <trkpt lat="46.24913" lon="6.84809">
        <ele>1393</ele>
        <time>2010-01-03T03:42:56Z</time>
      </trkpt>
      <trkpt lat="46.24927" lon="6.84798">
        <ele>1396</ele>
        <time>2010-01-03T03:43:03Z</time>
      </trkpt>
      <trkpt lat="46.24946" lon="6.8478">
        <ele>1395</ele>
        <time>2010-01-03T03:43:12Z</time>
      </trkpt>
      <trkpt lat="46.24946" lon="6.84779">
        <ele>1394</ele>
        <time>2010-01-03T03:43:12Z</time>
      </trkpt>
      <trkpt lat="46.24954" lon="6.84765">
        <ele>1394</ele>
        <time>2010-01-03T03:43:17Z</time>
      </trkpt>
      <trkpt lat="46.24961" lon="6.84748">
        <ele>1385</ele>
        <time>2010-01-03T03:43:22Z</time>
      </trkpt>
      <trkpt lat="46.24974" lon="6.84735">
        <ele>1386</ele>
        <time>2010-01-03T03:43:29Z</time>
      </trkpt>
      <trkpt lat="46.24986" lon="6.84722">
        <ele>1386</ele>
        <time>2010-01-03T03:43:35Z</time>
      </trkpt>
      <trkpt lat="46.24982" lon="6.84709">
        <ele>1384</ele>
        <time>2010-01-03T03:43:39Z</time>
      </trkpt>
      <trkpt lat="46.24974" lon="6.84707">
        <ele>1384</ele>
        <time>2010-01-03T03:43:42Z</time>
      </trkpt>
      <trkpt lat="46.24969" lon="6.8471">
        <ele>1384</ele>
        <time>2010-01-03T03:43:44Z</time>
      </trkpt>
      <trkpt lat="46.24955" lon="6.84729">
        <ele>1384</ele>
        <time>2010-01-03T03:43:52Z</time>
      </trkpt>
      <trkpt lat="46.24944" lon="6.84742">
        <ele>1383</ele>
        <time>2010-01-03T03:43:58Z</time>
      </trkpt>
      <trkpt lat="46.24925" lon="6.84748">
        <ele>1382</ele>
        <time>2010-01-03T03:44:05Z</time>
      </trkpt>
      <trkpt lat="46.24918" lon="6.84752">
        <ele>1382</ele>
        <time>2010-01-03T03:44:08Z</time>
      </trkpt>
      <trkpt lat="46.24926" lon="6.84728">
        <ele>1382</ele>
        <time>2010-01-03T03:44:16Z</time>
      </trkpt>
      <trkpt lat="46.24932" lon="6.84702">
        <ele>1381</ele>
        <time>2010-01-03T03:44:23Z</time>
      </trkpt>
      <trkpt lat="46.24933" lon="6.84701">
        <ele>1381</ele>
        <time>2010-01-03T03:44:24Z</time>
      </trkpt>
      <trkpt lat="46.24945" lon="6.84679">
        <ele>1381</ele>
        <time>2010-01-03T03:44:31Z</time>
      </trkpt>
      <trkpt lat="46.2495" lon="6.8465">
        <ele>1382</ele>
        <time>2010-01-03T03:44:40Z</time>
      </trkpt>
      <trkpt lat="46.24956" lon="6.84628">
        <ele>1384</ele>
        <time>2010-01-03T03:44:46Z</time>
      </trkpt>
      <trkpt lat="46.24959" lon="6.84613">
        <ele>1385</ele>
        <time>2010-01-03T03:44:51Z</time>
      </trkpt>
      <trkpt lat="46.24951" lon="6.84597">
        <ele>1386</ele>
        <time>2010-01-03T03:44:56Z</time>
      </trkpt>
      <trkpt lat="46.24945" lon="6.8459">
        <ele>1387</ele>
        <time>2010-01-03T03:44:59Z</time>
      </trkpt>
      <trkpt lat="46.24929" lon="6.84596">
        <ele>1389</ele>
        <time>2010-01-03T03:45:06Z</time>
      </trkpt>
      <trkpt lat="46.24912" lon="6.84604">
        <ele>1391</ele>
        <time>2010-01-03T03:45:13Z</time>
      </trkpt>
      <trkpt lat="46.24822" lon="6.84633">
        <ele>1390</ele>
        <time>2010-01-03T03:45:50Z</time>
      </trkpt>
      <trkpt lat="46.24783" lon="6.84648">
        <ele>1387</ele>
        <time>2010-01-03T03:46:06Z</time>
      </trkpt>
      <trkpt lat="46.24759" lon="6.84649">
        <ele>1384</ele>
        <time>2010-01-03T03:46:16Z</time>
      </trkpt>
      <trkpt lat="46.24734" lon="6.84652">
        <ele>1388</ele>
        <time>2010-01-03T03:46:26Z</time>
      </trkpt>
      <trkpt lat="46.24706" lon="6.8466">
        <ele>1393</ele>
        <time>2010-01-03T03:46:37Z</time>
      </trkpt>
      <trkpt lat="46.24677" lon="6.84674">
        <ele>1385</ele>
        <time>2010-01-03T03:46:49Z</time>
      </trkpt>
      <trkpt lat="46.24646" lon="6.84677">
        <ele>1385</ele>
        <time>2010-01-03T03:47:02Z</time>
      </trkpt>
      <trkpt lat="46.24627" lon="6.84686">
        <ele>1384</ele>
        <time>2010-01-03T03:47:10Z</time>
      </trkpt>
      <trkpt lat="46.24607" lon="6.84701">
        <ele>1382</ele>
        <time>2010-01-03T03:47:19Z</time>
      </trkpt>
      <trkpt lat="46.2458" lon="6.84715">
        <ele>1383</ele>
        <time>2010-01-03T03:47:30Z</time>
      </trkpt>
      <trkpt lat="46.24567" lon="6.84727">
        <ele>1380</ele>
        <time>2010-01-03T03:47:36Z</time>
      </trkpt>
      <trkpt lat="46.24547" lon="6.84727">
        <ele>1383</ele>
        <time>2010-01-03T03:47:45Z</time>
      </trkpt>
      <trkpt lat="46.24515" lon="6.84734">
        <ele>1381</ele>
        <time>2010-01-03T03:47:57Z</time>
      </trkpt>
      <trkpt lat="46.24501" lon="6.8474">
        <ele>1378</ele>
        <time>2010-01-03T03:48:03Z</time>
      </trkpt>
      <trkpt lat="46.24481" lon="6.84751">
        <ele>1375</ele>
        <time>2010-01-03T03:48:12Z</time>
      </trkpt>
      <trkpt lat="46.24458" lon="6.8477">
        <ele>1377</ele>
        <time>2010-01-03T03:48:22Z</time>
      </trkpt>
      <trkpt lat="46.24443" lon="6.84788">
        <ele>1378</ele>
        <time>2010-01-03T03:48:30Z</time>
      </trkpt>
      <trkpt lat="46.24428" lon="6.8481">
        <ele>1379</ele>
        <time>2010-01-03T03:48:39Z</time>
      </trkpt>
      <trkpt lat="46.24417" lon="6.84833">
        <ele>1382</ele>
        <time>2010-01-03T03:48:47Z</time>
      </trkpt>
      <trkpt lat="46.24418" lon="6.84852">
        <ele>1378</ele>
        <time>2010-01-03T03:48:52Z</time>
      </trkpt>
      <trkpt lat="46.24419" lon="6.84874">
        <ele>1376</ele>
        <time>2010-01-03T03:48:58Z</time>
      </trkpt>
      <trkpt lat="46.24421" lon="6.84889">
        <ele>1376</ele>
        <time>2010-01-03T03:49:02Z</time>
      </trkpt>
      <trkpt lat="46.24416" lon="6.8491">
        <ele>1380</ele>
        <time>2010-01-03T03:49:08Z</time>
      </trkpt>
      <trkpt lat="46.24395" lon="6.84939">
        <ele>1384</ele>
        <time>2010-01-03T03:49:20Z</time>
      </trkpt>
      <trkpt lat="46.24371" lon="6.84968">
        <ele>1387</ele>
        <time>2010-01-03T03:49:33Z</time>
      </trkpt>
      <trkpt lat="46.24355" lon="6.84986">
        <ele>1388</ele>
        <time>2010-01-03T03:49:40Z</time>
      </trkpt>
      <trkpt lat="46.24342" lon="6.85018">
        <ele>1384</ele>
        <time>2010-01-03T03:49:51Z</time>
      </trkpt>
      <trkpt lat="46.24328" lon="6.85032">
        <ele>1389</ele>
        <time>2010-01-03T03:49:58Z</time>
      </trkpt>
      <trkpt lat="46.24309" lon="6.85047">
        <ele>1389</ele>
        <time>2010-01-03T03:50:06Z</time>
      </trkpt>
      <trkpt lat="46.24291" lon="6.85053">
        <ele>1390</ele>
        <time>2010-01-03T03:50:14Z</time>
      </trkpt>
      <trkpt lat="46.24262" lon="6.85076">
        <ele>1389</ele>
        <time>2010-01-03T03:50:27Z</time>
      </trkpt>
      <trkpt lat="46.24244" lon="6.85081">
        <ele>1389</ele>
        <time>2010-01-03T03:50:35Z</time>
      </trkpt>
      <trkpt lat="46.2423" lon="6.85086">
        <ele>1377</ele>
        <time>2010-01-03T03:50:40Z</time>
      </trkpt>
      <trkpt lat="46.24217" lon="6.85091">
        <ele>1374</ele>
        <time>2010-01-03T03:50:46Z</time>
      </trkpt>
      <trkpt lat="46.24203" lon="6.85095">
        <ele>1372</ele>
        <time>2010-01-03T03:50:51Z</time>
      </trkpt>
      <trkpt lat="46.24192" lon="6.85095">
        <ele>1371</ele>
        <time>2010-01-03T03:50:56Z</time>
      </trkpt>
      <trkpt lat="46.24175" lon="6.85088">
        <ele>1372</ele>
        <time>2010-01-03T03:51:03Z</time>
      </trkpt>
      <trkpt lat="46.24152" lon="6.85098">
        <ele>1367</ele>
        <time>2010-01-03T03:51:12Z</time>
      </trkpt>
      <trkpt lat="46.24133" lon="6.85095">
        <ele>1365</ele>
        <time>2010-01-03T03:51:20Z</time>
      </trkpt>
      <trkpt lat="46.24113" lon="6.85092">
        <ele>1364</ele>
        <time>2010-01-03T03:51:28Z</time>
      </trkpt>
      <trkpt lat="46.241" lon="6.85095">
        <ele>1365</ele>
        <time>2010-01-03T03:51:33Z</time>
      </trkpt>
      <trkpt lat="46.24085" lon="6.85103">
        <ele>1364</ele>
        <time>2010-01-03T03:51:40Z</time>
      </trkpt>
      <trkpt lat="46.24076" lon="6.85099">
        <ele>1363</ele>
        <time>2010-01-03T03:51:43Z</time>
      </trkpt>
      <trkpt lat="46.24061" lon="6.85103">
        <ele>1362</ele>
        <time>2010-01-03T03:51:49Z</time>
      </trkpt>
      <trkpt lat="46.24041" lon="6.8511">
        <ele>1361</ele>
        <time>2010-01-03T03:51:57Z</time>
      </trkpt>
      <trkpt lat="46.24031" lon="6.85112">
        <ele>1361</ele>
        <time>2010-01-03T03:52:02Z</time>
      </trkpt>
      <trkpt lat="46.24015" lon="6.85116">
        <ele>1361</ele>
        <time>2010-01-03T03:52:08Z</time>
      </trkpt>
      <trkpt lat="46.23992" lon="6.85119">
        <ele>1359</ele>
        <time>2010-01-03T03:52:17Z</time>
      </trkpt>
      <trkpt lat="46.23971" lon="6.85115">
        <ele>1358</ele>
        <time>2010-01-03T03:52:26Z</time>
      </trkpt>
      <trkpt lat="46.23957" lon="6.85107">
        <ele>1358</ele>
        <time>2010-01-03T03:52:32Z</time>
      </trkpt>
      <trkpt lat="46.23934" lon="6.85098">
        <ele>1359</ele>
        <time>2010-01-03T03:52:42Z</time>
      </trkpt>
      <trkpt lat="46.23907" lon="6.85094">
        <ele>1357</ele>
        <time>2010-01-03T03:52:52Z</time>
      </trkpt>
      <trkpt lat="46.23888" lon="6.85095">
        <ele>1356</ele>
        <time>2010-01-03T03:53:00Z</time>
      </trkpt>
      <trkpt lat="46.23873" lon="6.85106">
        <ele>1355</ele>
        <time>2010-01-03T03:53:07Z</time>
      </trkpt>
      <trkpt lat="46.23857" lon="6.8511">
        <ele>1354</ele>
        <time>2010-01-03T03:53:13Z</time>
      </trkpt>
      <trkpt lat="46.23842" lon="6.85115">
        <ele>1354</ele>
        <time>2010-01-03T03:53:20Z</time>
      </trkpt>
      <trkpt lat="46.23839" lon="6.85127">
        <ele>1353</ele>
        <time>2010-01-03T03:53:23Z</time>
      </trkpt>
      <trkpt lat="46.23827" lon="6.85137">
        <ele>1352</ele>
        <time>2010-01-03T03:53:28Z</time>
      </trkpt>
      <trkpt lat="46.23811" lon="6.85145">
        <ele>1352</ele>
        <time>2010-01-03T03:53:35Z</time>
      </trkpt>
      <trkpt lat="46.23788" lon="6.85155">
        <ele>1352</ele>
        <time>2010-01-03T03:53:45Z</time>
      </trkpt>
      <trkpt lat="46.23754" lon="6.85174">
        <ele>1349</ele>
        <time>2010-01-03T03:53:59Z</time>
      </trkpt>
      <trkpt lat="46.23742" lon="6.85188">
        <ele>1347</ele>
        <time>2010-01-03T03:54:06Z</time>
      </trkpt>
      <trkpt lat="46.23727" lon="6.852">
        <ele>1346</ele>
        <time>2010-01-03T03:54:12Z</time>
      </trkpt>
      <trkpt lat="46.23708" lon="6.85235">
        <ele>1344</ele>
        <time>2010-01-03T03:54:25Z</time>
      </trkpt>
      <trkpt lat="46.23688" lon="6.85258">
        <ele>1340</ele>
        <time>2010-01-03T03:54:35Z</time>
      </trkpt>
      <trkpt lat="46.23675" lon="6.8528">
        <ele>1339</ele>
        <time>2010-01-03T03:54:43Z</time>
      </trkpt>
      <trkpt lat="46.23656" lon="6.85297">
        <ele>1338</ele>
        <time>2010-01-03T03:54:52Z</time>
      </trkpt>
      <trkpt lat="46.23632" lon="6.85308">
        <ele>1338</ele>
        <time>2010-01-03T03:55:02Z</time>
      </trkpt>
      <trkpt lat="46.2362" lon="6.85345">
        <ele>1337</ele>
        <time>2010-01-03T03:55:13Z</time>
      </trkpt>
      <trkpt lat="46.23618" lon="6.8537">
        <ele>1337</ele>
        <time>2010-01-03T03:55:20Z</time>
      </trkpt>
      <trkpt lat="46.23627" lon="6.85385">
        <ele>1337</ele>
        <time>2010-01-03T03:55:26Z</time>
      </trkpt>
      <trkpt lat="46.2365" lon="6.85394">
        <ele>1335</ele>
        <time>2010-01-03T03:55:35Z</time>
      </trkpt>
      <trkpt lat="46.23671" lon="6.85418">
        <ele>1330</ele>
        <time>2010-01-03T03:55:46Z</time>
      </trkpt>
      <trkpt lat="46.23682" lon="6.85432">
        <ele>1328</ele>
        <time>2010-01-03T03:55:52Z</time>
      </trkpt>
      <trkpt lat="46.23692" lon="6.85457">
        <ele>1327</ele>
        <time>2010-01-03T03:56:00Z</time>
      </trkpt>
      <trkpt lat="46.23697" lon="6.85525">
        <ele>1322</ele>
        <time>2010-01-03T03:56:19Z</time>
      </trkpt>
      <trkpt lat="46.23695" lon="6.85578">
        <ele>1320</ele>
        <time>2010-01-03T03:56:34Z</time>
      </trkpt>
      <trkpt lat="46.23707" lon="6.85637">
        <ele>1317</ele>
        <time>2010-01-03T03:56:50Z</time>
      </trkpt>
      <trkpt lat="46.23707" lon="6.85707">
        <ele>1316</ele>
        <time>2010-01-03T03:57:10Z</time>
      </trkpt>
      <trkpt lat="46.23706" lon="6.85764">
        <ele>1315</ele>
        <time>2010-01-03T03:57:26Z</time>
      </trkpt>
      <trkpt lat="46.23692" lon="6.85805">
        <ele>1316</ele>
        <time>2010-01-03T03:57:38Z</time>
      </trkpt>
      <trkpt lat="46.2367" lon="6.85812">
        <ele>1316</ele>
        <time>2010-01-03T03:57:47Z</time>
      </trkpt>
      <trkpt lat="46.2365" lon="6.85822">
        <ele>1324</ele>
        <time>2010-01-03T03:57:56Z</time>
      </trkpt>
      <trkpt lat="46.2363" lon="6.85832">
        <ele>1327</ele>
        <time>2010-01-03T03:58:04Z</time>
      </trkpt>
      <trkpt lat="46.23606" lon="6.85831">
        <ele>1332</ele>
        <time>2010-01-03T03:58:14Z</time>
      </trkpt>
      <trkpt lat="46.23585" lon="6.85841">
        <ele>1336</ele>
        <time>2010-01-03T03:58:23Z</time>
      </trkpt>
      <trkpt lat="46.23562" lon="6.85853">
        <ele>1358</ele>
        <time>2010-01-03T03:58:33Z</time>
      </trkpt>
      <trkpt lat="46.23514" lon="6.85861">
        <ele>1374</ele>
        <time>2010-01-03T03:58:52Z</time>
      </trkpt>
      <trkpt lat="46.2347" lon="6.85861">
        <ele>1415</ele>
        <time>2010-01-03T03:59:10Z</time>
      </trkpt>
      <trkpt lat="46.23446" lon="6.85881">
        <ele>1424</ele>
        <time>2010-01-03T03:59:21Z</time>
      </trkpt>
      <trkpt lat="46.23404" lon="6.85885">
        <ele>1467</ele>
        <time>2010-01-03T03:59:38Z</time>
      </trkpt>
      <trkpt lat="46.23317" lon="6.85913">
        <ele>1518</ele>
        <time>2010-01-03T04:00:13Z</time>
      </trkpt>
      <trkpt lat="46.23281" lon="6.85922">
        <ele>1536</ele>
        <time>2010-01-03T04:00:28Z</time>
      </trkpt>
      <trkpt lat="46.23258" lon="6.85927">
        <ele>1544</ele>
        <time>2010-01-03T04:00:37Z</time>
      </trkpt>
      <trkpt lat="46.23244" lon="6.8593">
        <ele>1560</ele>
        <time>2010-01-03T04:00:43Z</time>
      </trkpt>
      <trkpt lat="46.2322" lon="6.85937">
        <ele>1567</ele>
        <time>2010-01-03T04:00:53Z</time>
      </trkpt>
      <trkpt lat="46.23192" lon="6.85945">
        <ele>1574</ele>
        <time>2010-01-03T04:01:04Z</time>
      </trkpt>
      <trkpt lat="46.23168" lon="6.85954">
        <ele>1577</ele>
        <time>2010-01-03T04:01:14Z</time>
      </trkpt>
      <trkpt lat="46.23108" lon="6.8597">
        <ele>1601</ele>
        <time>2010-01-03T04:01:38Z</time>
      </trkpt>
      <trkpt lat="46.2307" lon="6.85975">
        <ele>1623</ele>
        <time>2010-01-03T04:01:53Z</time>
      </trkpt>
      <trkpt lat="46.23048" lon="6.8598">
        <ele>1628</ele>
        <time>2010-01-03T04:02:02Z</time>
      </trkpt>
      <trkpt lat="46.23037" lon="6.85986">
        <ele>1631</ele>
        <time>2010-01-03T04:02:07Z</time>
      </trkpt>
      <trkpt lat="46.23021" lon="6.85991">
        <ele>1635</ele>
        <time>2010-01-03T04:02:14Z</time>
      </trkpt>
      <trkpt lat="46.22962" lon="6.86009">
        <ele>1653</ele>
        <time>2010-01-03T04:02:38Z</time>
      </trkpt>
      <trkpt lat="46.229" lon="6.86026">
        <ele>1677</ele>
        <time>2010-01-03T04:03:03Z</time>
      </trkpt>
      <trkpt lat="46.22784" lon="6.86057">
        <ele>1705</ele>
        <time>2010-01-03T04:03:50Z</time>
      </trkpt>
      <trkpt lat="46.22713" lon="6.86073">
        <ele>1734</ele>
        <time>2010-01-03T04:04:19Z</time>
      </trkpt>
      <trkpt lat="46.22655" lon="6.86089">
        <ele>1764</ele>
        <time>2010-01-03T04:04:43Z</time>
      </trkpt>
      <trkpt lat="46.22601" lon="6.86106">
        <ele>1777</ele>
        <time>2010-01-03T04:05:05Z</time>
      </trkpt>
      <trkpt lat="46.22547" lon="6.86121">
        <ele>1798</ele>
        <time>2010-01-03T04:05:27Z</time>
      </trkpt>
      <trkpt lat="46.2252" lon="6.86128">
        <ele>1802</ele>
        <time>2010-01-03T04:05:38Z</time>
      </trkpt>
      <trkpt lat="46.22509" lon="6.86133">
        <ele>1803</ele>
        <time>2010-01-03T04:05:43Z</time>
      </trkpt>
      <trkpt lat="46.22501" lon="6.86134">
        <ele>1803</ele>
        <time>2010-01-03T04:05:46Z</time>
      </trkpt>
      <trkpt lat="46.22499" lon="6.86133">
        <ele>1810</ele>
        <time>2010-01-03T04:05:47Z</time>
      </trkpt>
      <trkpt lat="46.22497" lon="6.8613">
        <ele>1810</ele>
        <time>2010-01-03T04:05:48Z</time>
      </trkpt>
      <trkpt lat="46.22494" lon="6.86131">
        <ele>1810</ele>
        <time>2010-01-03T04:05:49Z</time>
      </trkpt>
      <trkpt lat="46.22484" lon="6.86134">
        <ele>1810</ele>
        <time>2010-01-03T04:05:53Z</time>
      </trkpt>
      <trkpt lat="46.22458" lon="6.86153">
        <ele>1809</ele>
        <time>2010-01-03T04:06:05Z</time>
      </trkpt>
      <trkpt lat="46.22432" lon="6.86168">
        <ele>1803</ele>
        <time>2010-01-03T04:06:16Z</time>
      </trkpt>
      <trkpt lat="46.22413" lon="6.86179">
        <ele>1798</ele>
        <time>2010-01-03T04:06:24Z</time>
      </trkpt>
      <trkpt lat="46.22404" lon="6.86183">
        <ele>1796</ele>
        <time>2010-01-03T04:06:28Z</time>
      </trkpt>
      <trkpt lat="46.22394" lon="6.86184">
        <ele>1794</ele>
        <time>2010-01-03T04:06:32Z</time>
      </trkpt>
      <trkpt lat="46.22368" lon="6.86182">
        <ele>1790</ele>
        <time>2010-01-03T04:06:42Z</time>
      </trkpt>
      <trkpt lat="46.22354" lon="6.86179">
        <ele>1789</ele>
        <time>2010-01-03T04:06:48Z</time>
      </trkpt>
      <trkpt lat="46.22338" lon="6.86172">
        <ele>1789</ele>
        <time>2010-01-03T04:06:55Z</time>
      </trkpt>
      <trkpt lat="46.2233" lon="6.86168">
        <ele>1786</ele>
        <time>2010-01-03T04:06:58Z</time>
      </trkpt>
      <trkpt lat="46.22325" lon="6.86168">
        <ele>1784</ele>
        <time>2010-01-03T04:07:00Z</time>
      </trkpt>
      <trkpt lat="46.22322" lon="6.86168">
        <ele>1782</ele>
        <time>2010-01-03T04:07:01Z</time>
      </trkpt>
      <trkpt lat="46.22317" lon="6.86168">
        <ele>1780</ele>
        <time>2010-01-03T04:07:03Z</time>
      </trkpt>
      <trkpt lat="46.22312" lon="6.86169">
        <ele>1778</ele>
        <time>2010-01-03T04:07:05Z</time>
      </trkpt>
      <trkpt lat="46.22307" lon="6.86167">
        <ele>1777</ele>
        <time>2010-01-03T04:07:07Z</time>
      </trkpt>
      <trkpt lat="46.22302" lon="6.86168">
        <ele>1776</ele>
        <time>2010-01-03T04:07:09Z</time>
      </trkpt>
      <trkpt lat="46.22292" lon="6.86173">
        <ele>1774</ele>
        <time>2010-01-03T04:07:14Z</time>
      </trkpt>
      <trkpt lat="46.22287" lon="6.86174">
        <ele>1773</ele>
        <time>2010-01-03T04:07:16Z</time>
      </trkpt>
      <trkpt lat="46.22279" lon="6.86182">
        <ele>1772</ele>
        <time>2010-01-03T04:07:19Z</time>
      </trkpt>
      <trkpt lat="46.22274" lon="6.86184">
        <ele>1771</ele>
        <time>2010-01-03T04:07:21Z</time>
      </trkpt>
      <trkpt lat="46.22262" lon="6.86192">
        <ele>1770</ele>
        <time>2010-01-03T04:07:27Z</time>
      </trkpt>
      <trkpt lat="46.22253" lon="6.86194">
        <ele>1769</ele>
        <time>2010-01-03T04:07:30Z</time>
      </trkpt>
      <trkpt lat="46.22238" lon="6.86192">
        <ele>1758</ele>
        <time>2010-01-03T04:07:36Z</time>
      </trkpt>
      <trkpt lat="46.22232" lon="6.86189">
        <ele>1758</ele>
        <time>2010-01-03T04:07:39Z</time>
      </trkpt>
      <trkpt lat="46.22226" lon="6.86189">
        <ele>1757</ele>
        <time>2010-01-03T04:07:41Z</time>
      </trkpt>
      <trkpt lat="46.2222" lon="6.86188">
        <ele>1756</ele>
        <time>2010-01-03T04:07:44Z</time>
      </trkpt>
      <trkpt lat="46.22201" lon="6.86188">
        <ele>1753</ele>
        <time>2010-01-03T04:07:51Z</time>
      </trkpt>
      <trkpt lat="46.22195" lon="6.8619">
        <ele>1752</ele>
        <time>2010-01-03T04:07:54Z</time>
      </trkpt>
      <trkpt lat="46.22188" lon="6.86194">
        <ele>1751</ele>
        <time>2010-01-03T04:07:57Z</time>
      </trkpt>
      <trkpt lat="46.22178" lon="6.86198">
        <ele>1750</ele>
        <time>2010-01-03T04:08:01Z</time>
      </trkpt>
      <trkpt lat="46.22171" lon="6.86205">
        <ele>1749</ele>
        <time>2010-01-03T04:08:05Z</time>
      </trkpt>
      <trkpt lat="46.22164" lon="6.8621">
        <ele>1736</ele>
        <time>2010-01-03T04:08:08Z</time>
      </trkpt>
      <trkpt lat="46.22156" lon="6.86218">
        <ele>1735</ele>
        <time>2010-01-03T04:08:11Z</time>
      </trkpt>
      <trkpt lat="46.22144" lon="6.8623">
        <ele>1734</ele>
        <time>2010-01-03T04:08:17Z</time>
      </trkpt>
      <trkpt lat="46.22138" lon="6.86228">
        <ele>1733</ele>
        <time>2010-01-03T04:08:20Z</time>
      </trkpt>
      <trkpt lat="46.22134" lon="6.86224">
        <ele>1733</ele>
        <time>2010-01-03T04:08:22Z</time>
      </trkpt>
      <trkpt lat="46.22132" lon="6.86217">
        <ele>1733</ele>
        <time>2010-01-03T04:08:24Z</time>
      </trkpt>
      <trkpt lat="46.22132" lon="6.86216">
        <ele>1733</ele>
        <time>2010-01-03T04:08:24Z</time>
      </trkpt>
      <trkpt lat="46.2213" lon="6.86207">
        <ele>1734</ele>
        <time>2010-01-03T04:08:27Z</time>
      </trkpt>
      <trkpt lat="46.22119" lon="6.86188">
        <ele>1734</ele>
        <time>2010-01-03T04:08:33Z</time>
      </trkpt>
      <trkpt lat="46.22114" lon="6.86182">
        <ele>1733</ele>
        <time>2010-01-03T04:08:36Z</time>
      </trkpt>
      <trkpt lat="46.22106" lon="6.86179">
        <ele>1732</ele>
        <time>2010-01-03T04:08:39Z</time>
      </trkpt>
      <trkpt lat="46.22092" lon="6.86177">
        <ele>1730</ele>
        <time>2010-01-03T04:08:45Z</time>
      </trkpt>
      <trkpt lat="46.22083" lon="6.86172">
        <ele>1725</ele>
        <time>2010-01-03T04:08:49Z</time>
      </trkpt>
      <trkpt lat="46.22075" lon="6.86169">
        <ele>1724</ele>
        <time>2010-01-03T04:08:52Z</time>
      </trkpt>
      <trkpt lat="46.22074" lon="6.86158">
        <ele>1726</ele>
        <time>2010-01-03T04:08:55Z</time>
      </trkpt>
      <trkpt lat="46.22072" lon="6.8612">
        <ele>1727</ele>
        <time>2010-01-03T04:09:06Z</time>
      </trkpt>
      <trkpt lat="46.2207" lon="6.86089">
        <ele>1731</ele>
        <time>2010-01-03T04:09:14Z</time>
      </trkpt>
      <trkpt lat="46.22064" lon="6.86072">
        <ele>1735</ele>
        <time>2010-01-03T04:09:19Z</time>
      </trkpt>
      <trkpt lat="46.22053" lon="6.86056">
        <ele>1735</ele>
        <time>2010-01-03T04:09:26Z</time>
      </trkpt>
      <trkpt lat="46.22034" lon="6.86029">
        <ele>1736</ele>
        <time>2010-01-03T04:09:37Z</time>
      </trkpt>
      <trkpt lat="46.22024" lon="6.86015">
        <ele>1735</ele>
        <time>2010-01-03T04:09:42Z</time>
      </trkpt>
      <trkpt lat="46.22016" lon="6.85992">
        <ele>1741</ele>
        <time>2010-01-03T04:09:49Z</time>
      </trkpt>
      <trkpt lat="46.22011" lon="6.85973">
        <ele>1743</ele>
        <time>2010-01-03T04:09:55Z</time>
      </trkpt>
      <trkpt lat="46.22009" lon="6.85965">
        <ele>1744</ele>
        <time>2010-01-03T04:09:57Z</time>
      </trkpt>
      <trkpt lat="46.21984" lon="6.85949">
        <ele>1736</ele>
        <time>2010-01-03T04:10:08Z</time>
      </trkpt>
      <trkpt lat="46.21951" lon="6.8593">
        <ele>1736</ele>
        <time>2010-01-03T04:10:22Z</time>
      </trkpt>
      <trkpt lat="46.21944" lon="6.85925">
        <ele>1736</ele>
        <time>2010-01-03T04:10:25Z</time>
      </trkpt>
      <trkpt lat="46.21937" lon="6.85927">
        <ele>1736</ele>
        <time>2010-01-03T04:10:28Z</time>
      </trkpt>
      <trkpt lat="46.21927" lon="6.85933">
        <ele>1736</ele>
        <time>2010-01-03T04:10:32Z</time>
      </trkpt>
      <trkpt lat="46.2191" lon="6.8594">
        <ele>1735</ele>
        <time>2010-01-03T04:10:40Z</time>
      </trkpt>
      <trkpt lat="46.21898" lon="6.85942">
        <ele>1735</ele>
        <time>2010-01-03T04:10:44Z</time>
      </trkpt>
      <trkpt lat="46.2187" lon="6.85946">
        <ele>1735</ele>
        <time>2010-01-03T04:10:56Z</time>
      </trkpt>
      <trkpt lat="46.21841" lon="6.85949">
        <ele>1736</ele>
        <time>2010-01-03T04:11:08Z</time>
      </trkpt>
      <trkpt lat="46.2183" lon="6.85955">
        <ele>1740</ele>
        <time>2010-01-03T04:11:12Z</time>
      </trkpt>
      <trkpt lat="46.21809" lon="6.85963">
        <ele>1740</ele>
        <time>2010-01-03T04:11:21Z</time>
      </trkpt>
      <trkpt lat="46.21799" lon="6.85971">
        <ele>1741</ele>
        <time>2010-01-03T04:11:25Z</time>
      </trkpt>
      <trkpt lat="46.21782" lon="6.85992">
        <ele>1741</ele>
        <time>2010-01-03T04:11:34Z</time>
      </trkpt>
      <trkpt lat="46.21778" lon="6.86008">
        <ele>1735</ele>
        <time>2010-01-03T04:11:39Z</time>
      </trkpt>
      <trkpt lat="46.21773" lon="6.86025">
        <ele>1734</ele>
        <time>2010-01-03T04:11:44Z</time>
      </trkpt>
      <trkpt lat="46.21769" lon="6.86038">
        <ele>1733</ele>
        <time>2010-01-03T04:11:48Z</time>
      </trkpt>
      <trkpt lat="46.2176" lon="6.8605">
        <ele>1733</ele>
        <time>2010-01-03T04:11:53Z</time>
      </trkpt>
      <trkpt lat="46.21753" lon="6.86056">
        <ele>1733</ele>
        <time>2010-01-03T04:11:56Z</time>
      </trkpt>
      <trkpt lat="46.21744" lon="6.86068">
        <ele>1738</ele>
        <time>2010-01-03T04:12:01Z</time>
      </trkpt>
      <trkpt lat="46.21721" lon="6.86105">
        <ele>1731</ele>
        <time>2010-01-03T04:12:15Z</time>
      </trkpt>
      <trkpt lat="46.2171" lon="6.86119">
        <ele>1731</ele>
        <time>2010-01-03T04:12:21Z</time>
      </trkpt>
      <trkpt lat="46.21704" lon="6.86126">
        <ele>1730</ele>
        <time>2010-01-03T04:12:24Z</time>
      </trkpt>
      <trkpt lat="46.21701" lon="6.86124">
        <ele>1730</ele>
        <time>2010-01-03T04:12:25Z</time>
      </trkpt>
      <trkpt lat="46.21696" lon="6.8612">
        <ele>1731</ele>
        <time>2010-01-03T04:12:27Z</time>
      </trkpt>
      <trkpt lat="46.21672" lon="6.86093">
        <ele>1735</ele>
        <time>2010-01-03T04:12:40Z</time>
      </trkpt>
      <trkpt lat="46.2166" lon="6.86084">
        <ele>1734</ele>
        <time>2010-01-03T04:12:45Z</time>
      </trkpt>
      <trkpt lat="46.21637" lon="6.86057">
        <ele>1738</ele>
        <time>2010-01-03T04:12:57Z</time>
      </trkpt>
      <trkpt lat="46.21612" lon="6.86019">
        <ele>1739</ele>
        <time>2010-01-03T04:13:11Z</time>
      </trkpt>
      <trkpt lat="46.21601" lon="6.85999">
        <ele>1748</ele>
        <time>2010-01-03T04:13:18Z</time>
      </trkpt>
      <trkpt lat="46.21587" lon="6.85976">
        <ele>1750</ele>
        <time>2010-01-03T04:13:27Z</time>
      </trkpt>
      <trkpt lat="46.21576" lon="6.85959">
        <ele>1741</ele>
        <time>2010-01-03T04:13:33Z</time>
      </trkpt>
      <trkpt lat="46.2156" lon="6.85937">
        <ele>1743</ele>
        <time>2010-01-03T04:13:42Z</time>
      </trkpt>
      <trkpt lat="46.21553" lon="6.85927">
        <ele>1743</ele>
        <time>2010-01-03T04:13:46Z</time>
      </trkpt>
      <trkpt lat="46.21549" lon="6.85919">
        <ele>1742</ele>
        <time>2010-01-03T04:13:49Z</time>
      </trkpt>
      <trkpt lat="46.21535" lon="6.85866">
        <ele>1754</ele>
        <time>2010-01-03T04:14:05Z</time>
      </trkpt>
      <trkpt lat="46.21515" lon="6.85824">
        <ele>1759</ele>
        <time>2010-01-03T04:14:19Z</time>
      </trkpt>
      <trkpt lat="46.21483" lon="6.8578">
        <ele>1750</ele>
        <time>2010-01-03T04:14:37Z</time>
      </trkpt>
      <trkpt lat="46.21432" lon="6.85704">
        <ele>1757</ele>
        <time>2010-01-03T04:15:06Z</time>
      </trkpt>
      <trkpt lat="46.21413" lon="6.85679">
        <ele>1750</ele>
        <time>2010-01-03T04:15:16Z</time>
      </trkpt>
      <trkpt lat="46.214" lon="6.85667">
        <ele>1749</ele>
        <time>2010-01-03T04:15:22Z</time>
      </trkpt>
      <trkpt lat="46.21393" lon="6.85659">
        <ele>1756</ele>
        <time>2010-01-03T04:15:26Z</time>
      </trkpt>
      <trkpt lat="46.21387" lon="6.85656">
        <ele>1755</ele>
        <time>2010-01-03T04:15:28Z</time>
      </trkpt>
      <trkpt lat="46.21366" lon="6.85641">
        <ele>1753</ele>
        <time>2010-01-03T04:15:38Z</time>
      </trkpt>
      <trkpt lat="46.21355" lon="6.8563">
        <ele>1753</ele>
        <time>2010-01-03T04:15:43Z</time>
      </trkpt>
      <trkpt lat="46.21344" lon="6.85613">
        <ele>1754</ele>
        <time>2010-01-03T04:15:50Z</time>
      </trkpt>
      <trkpt lat="46.21336" lon="6.85598">
        <ele>1754</ele>
        <time>2010-01-03T04:15:55Z</time>
      </trkpt>
      <trkpt lat="46.2133" lon="6.85586">
        <ele>1751</ele>
        <time>2010-01-03T04:15:59Z</time>
      </trkpt>
      <trkpt lat="46.21327" lon="6.85581">
        <ele>1753</ele>
        <time>2010-01-03T04:16:01Z</time>
      </trkpt>
      <trkpt lat="46.21297" lon="6.85559">
        <ele>1750</ele>
        <time>2010-01-03T04:16:14Z</time>
      </trkpt>
      <trkpt lat="46.21276" lon="6.85537">
        <ele>1750</ele>
        <time>2010-01-03T04:16:25Z</time>
      </trkpt>
      <trkpt lat="46.21272" lon="6.8553">
        <ele>1750</ele>
        <time>2010-01-03T04:16:27Z</time>
      </trkpt>
      <trkpt lat="46.21267" lon="6.8552">
        <ele>1750</ele>
        <time>2010-01-03T04:16:31Z</time>
      </trkpt>
      <trkpt lat="46.21245" lon="6.85483">
        <ele>1749</ele>
        <time>2010-01-03T04:16:44Z</time>
      </trkpt>
      <trkpt lat="46.21235" lon="6.8547">
        <ele>1749</ele>
        <time>2010-01-03T04:16:50Z</time>
      </trkpt>
      <trkpt lat="46.2122" lon="6.85453">
        <ele>1749</ele>
        <time>2010-01-03T04:16:57Z</time>
      </trkpt>
      <trkpt lat="46.21208" lon="6.85443">
        <ele>1749</ele>
        <time>2010-01-03T04:17:03Z</time>
      </trkpt>
      <trkpt lat="46.21201" lon="6.85434">
        <ele>1748</ele>
        <time>2010-01-03T04:17:06Z</time>
      </trkpt>
      <trkpt lat="46.21196" lon="6.85428">
        <ele>1748</ele>
        <time>2010-01-03T04:17:09Z</time>
      </trkpt>
      <trkpt lat="46.21191" lon="6.85423">
        <ele>1748</ele>
        <time>2010-01-03T04:17:11Z</time>
      </trkpt>
      <trkpt lat="46.21184" lon="6.85422">
        <ele>1747</ele>
        <time>2010-01-03T04:17:14Z</time>
      </trkpt>
      <trkpt lat="46.21178" lon="6.8542">
        <ele>1746</ele>
        <time>2010-01-03T04:17:17Z</time>
      </trkpt>
      <trkpt lat="46.21168" lon="6.85414">
        <ele>1747</ele>
        <time>2010-01-03T04:17:21Z</time>
      </trkpt>
      <trkpt lat="46.21162" lon="6.85407">
        <ele>1743</ele>
        <time>2010-01-03T04:17:24Z</time>
      </trkpt>
      <trkpt lat="46.21156" lon="6.85399">
        <ele>1742</ele>
        <time>2010-01-03T04:17:28Z</time>
      </trkpt>
      <trkpt lat="46.21149" lon="6.85386">
        <ele>1742</ele>
        <time>2010-01-03T04:17:32Z</time>
      </trkpt>
      <trkpt lat="46.21143" lon="6.85379">
        <ele>1742</ele>
        <time>2010-01-03T04:17:35Z</time>
      </trkpt>
      <trkpt lat="46.21136" lon="6.85372">
        <ele>1742</ele>
        <time>2010-01-03T04:17:38Z</time>
      </trkpt>
      <trkpt lat="46.21132" lon="6.85368">
        <ele>1741</ele>
        <time>2010-01-03T04:17:40Z</time>
      </trkpt>
      <trkpt lat="46.21122" lon="6.85353">
        <ele>1741</ele>
        <time>2010-01-03T04:17:46Z</time>
      </trkpt>
      <trkpt lat="46.21119" lon="6.85342">
        <ele>1741</ele>
        <time>2010-01-03T04:17:49Z</time>
      </trkpt>
      <trkpt lat="46.21117" lon="6.85335">
        <ele>1740</ele>
        <time>2010-01-03T04:17:52Z</time>
      </trkpt>
      <trkpt lat="46.21112" lon="6.85333">
        <ele>1750</ele>
        <time>2010-01-03T04:17:53Z</time>
      </trkpt>
      <trkpt lat="46.21109" lon="6.85335">
        <ele>1739</ele>
        <time>2010-01-03T04:17:55Z</time>
      </trkpt>
      <trkpt lat="46.21109" lon="6.85336">
        <ele>1739</ele>
        <time>2010-01-03T04:17:55Z</time>
      </trkpt>
      <trkpt lat="46.2111" lon="6.85345">
        <ele>1739</ele>
        <time>2010-01-03T04:17:57Z</time>
      </trkpt>
      <trkpt lat="46.2111" lon="6.85345">
        <ele>1739</ele>
        <time>2010-01-03T04:17:57Z</time>
      </trkpt>
      <trkpt lat="46.21114" lon="6.85356">
        <ele>1739</ele>
        <time>2010-01-03T04:18:01Z</time>
      </trkpt>
      <trkpt lat="46.21114" lon="6.85357">
        <ele>1739</ele>
        <time>2010-01-03T04:18:01Z</time>
      </trkpt>
      <trkpt lat="46.21114" lon="6.85359">
        <ele>1739</ele>
        <time>2010-01-03T04:18:02Z</time>
      </trkpt>
      <trkpt lat="46.21121" lon="6.85383">
        <ele>1738</ele>
        <time>2010-01-03T04:18:09Z</time>
      </trkpt>
      <trkpt lat="46.21125" lon="6.85397">
        <ele>1738</ele>
        <time>2010-01-03T04:18:13Z</time>
      </trkpt>
      <trkpt lat="46.21126" lon="6.85398">
        <ele>1738</ele>
        <time>2010-01-03T04:18:13Z</time>
      </trkpt>
      <trkpt lat="46.21129" lon="6.85412">
        <ele>1738</ele>
        <time>2010-01-03T04:18:17Z</time>
      </trkpt>
      <trkpt lat="46.21133" lon="6.85423">
        <ele>1730</ele>
        <time>2010-01-03T04:18:21Z</time>
      </trkpt>
      <trkpt lat="46.21136" lon="6.85432">
        <ele>1730</ele>
        <time>2010-01-03T04:18:24Z</time>
      </trkpt>
      <trkpt lat="46.21137" lon="6.85433">
        <ele>1730</ele>
        <time>2010-01-03T04:18:24Z</time>
      </trkpt>
      <trkpt lat="46.21137" lon="6.85447">
        <ele>1729</ele>
        <time>2010-01-03T04:18:28Z</time>
      </trkpt>
      <trkpt lat="46.21133" lon="6.85465">
        <ele>1727</ele>
        <time>2010-01-03T04:18:33Z</time>
      </trkpt>
      <trkpt lat="46.21122" lon="6.8547">
        <ele>1725</ele>
        <time>2010-01-03T04:18:38Z</time>
      </trkpt>
      <trkpt lat="46.21109" lon="6.85482">
        <ele>1722</ele>
        <time>2010-01-03T04:18:44Z</time>
      </trkpt>
      <trkpt lat="46.21082" lon="6.85508">
        <ele>1712</ele>
        <time>2010-01-03T04:18:57Z</time>
      </trkpt>
      <trkpt lat="46.21055" lon="6.85533">
        <ele>1709</ele>
        <time>2010-01-03T04:19:10Z</time>
      </trkpt>
      <trkpt lat="46.20985" lon="6.85598">
        <ele>1703</ele>
        <time>2010-01-03T04:19:43Z</time>
      </trkpt>
      <trkpt lat="46.2097" lon="6.85621">
        <ele>1702</ele>
        <time>2010-01-03T04:19:52Z</time>
      </trkpt>
      <trkpt lat="46.20957" lon="6.85642">
        <ele>1701</ele>
        <time>2010-01-03T04:19:59Z</time>
      </trkpt>
      <trkpt lat="46.20948" lon="6.85651">
        <ele>1700</ele>
        <time>2010-01-03T04:20:04Z</time>
      </trkpt>
      <trkpt lat="46.20923" lon="6.8567">
        <ele>1697</ele>
        <time>2010-01-03T04:20:15Z</time>
      </trkpt>
      <trkpt lat="46.20906" lon="6.85675">
        <ele>1697</ele>
        <time>2010-01-03T04:20:22Z</time>
      </trkpt>
      <trkpt lat="46.20885" lon="6.85671">
        <ele>1697</ele>
        <time>2010-01-03T04:20:31Z</time>
      </trkpt>
      <trkpt lat="46.20869" lon="6.85646">
        <ele>1697</ele>
        <time>2010-01-03T04:20:40Z</time>
      </trkpt>
      <trkpt lat="46.20862" lon="6.85637">
        <ele>1697</ele>
        <time>2010-01-03T04:20:44Z</time>
      </trkpt>
      <trkpt lat="46.20849" lon="6.85632">
        <ele>1697</ele>
        <time>2010-01-03T04:20:49Z</time>
      </trkpt>
      <trkpt lat="46.20848" lon="6.85633">
        <ele>1697</ele>
        <time>2010-01-03T04:20:50Z</time>
      </trkpt>
      <trkpt lat="46.20833" lon="6.85641">
        <ele>1705</ele>
        <time>2010-01-03T04:20:56Z</time>
      </trkpt>
      <trkpt lat="46.20819" lon="6.85665">
        <ele>1703</ele>
        <time>2010-01-03T04:21:05Z</time>
      </trkpt>
      <trkpt lat="46.20769" lon="6.85737">
        <ele>1704</ele>
        <time>2010-01-03T04:21:33Z</time>
      </trkpt>
      <trkpt lat="46.20752" lon="6.85753">
        <ele>1704</ele>
        <time>2010-01-03T04:21:41Z</time>
      </trkpt>
      <trkpt lat="46.20728" lon="6.85762">
        <ele>1705</ele>
        <time>2010-01-03T04:21:51Z</time>
      </trkpt>
      <trkpt lat="46.20713" lon="6.85764">
        <ele>1705</ele>
        <time>2010-01-03T04:21:57Z</time>
      </trkpt>
      <trkpt lat="46.20685" lon="6.85783">
        <ele>1706</ele>
        <time>2010-01-03T04:22:09Z</time>
      </trkpt>
      <trkpt lat="46.20668" lon="6.85804">
        <ele>1704</ele>
        <time>2010-01-03T04:22:18Z</time>
      </trkpt>
      <trkpt lat="46.20667" lon="6.85806">
        <ele>1704</ele>
        <time>2010-01-03T04:22:19Z</time>
      </trkpt>
      <trkpt lat="46.20657" lon="6.85828">
        <ele>1705</ele>
        <time>2010-01-03T04:22:26Z</time>
      </trkpt>
      <trkpt lat="46.20645" lon="6.85844">
        <ele>1697</ele>
        <time>2010-01-03T04:22:33Z</time>
      </trkpt>
      <trkpt lat="46.20632" lon="6.85846">
        <ele>1696</ele>
        <time>2010-01-03T04:22:38Z</time>
      </trkpt>
      <trkpt lat="46.20616" lon="6.85844">
        <ele>1697</ele>
        <time>2010-01-03T04:22:44Z</time>
      </trkpt>
      <trkpt lat="46.20605" lon="6.85844">
        <ele>1698</ele>
        <time>2010-01-03T04:22:49Z</time>
      </trkpt>
      <trkpt lat="46.20581" lon="6.85833">
        <ele>1704</ele>
        <time>2010-01-03T04:22:59Z</time>
      </trkpt>
      <trkpt lat="46.2057" lon="6.85832">
        <ele>1707</ele>
        <time>2010-01-03T04:23:03Z</time>
      </trkpt>
      <trkpt lat="46.20556" lon="6.85827">
        <ele>1708</ele>
        <time>2010-01-03T04:23:09Z</time>
      </trkpt>
      <trkpt lat="46.20547" lon="6.85829">
        <ele>1708</ele>
        <time>2010-01-03T04:23:13Z</time>
      </trkpt>
      <trkpt lat="46.20534" lon="6.85832">
        <ele>1707</ele>
        <time>2010-01-03T04:23:18Z</time>
      </trkpt>
      <trkpt lat="46.20523" lon="6.85837">
        <ele>1694</ele>
        <time>2010-01-03T04:23:23Z</time>
      </trkpt>
      <trkpt lat="46.20517" lon="6.85837">
        <ele>1694</ele>
        <time>2010-01-03T04:23:25Z</time>
      </trkpt>
      <trkpt lat="46.20513" lon="6.85833">
        <ele>1703</ele>
        <time>2010-01-03T04:23:27Z</time>
      </trkpt>
      <trkpt lat="46.20509" lon="6.8583">
        <ele>1702</ele>
        <time>2010-01-03T04:23:29Z</time>
      </trkpt>
      <trkpt lat="46.20503" lon="6.85824">
        <ele>1702</ele>
        <time>2010-01-03T04:23:32Z</time>
      </trkpt>
      <trkpt lat="46.20503" lon="6.85833">
        <ele>1699</ele>
        <time>2010-01-03T04:23:35Z</time>
      </trkpt>
      <trkpt lat="46.20503" lon="6.85843">
        <ele>1695</ele>
        <time>2010-01-03T04:23:37Z</time>
      </trkpt>
      <trkpt lat="46.20506" lon="6.85852">
        <ele>1693</ele>
        <time>2010-01-03T04:23:40Z</time>
      </trkpt>
      <trkpt lat="46.20514" lon="6.85859">
        <ele>1692</ele>
        <time>2010-01-03T04:23:44Z</time>
      </trkpt>
      <trkpt lat="46.20521" lon="6.85864">
        <ele>1691</ele>
        <time>2010-01-03T04:23:47Z</time>
      </trkpt>
      <trkpt lat="46.20533" lon="6.85864">
        <ele>1691</ele>
        <time>2010-01-03T04:23:52Z</time>
      </trkpt>
      <trkpt lat="46.20543" lon="6.85863">
        <ele>1692</ele>
        <time>2010-01-03T04:23:56Z</time>
      </trkpt>
      <trkpt lat="46.20551" lon="6.85868">
        <ele>1692</ele>
        <time>2010-01-03T04:23:59Z</time>
      </trkpt>
      <trkpt lat="46.20565" lon="6.85871">
        <ele>1692</ele>
        <time>2010-01-03T04:24:05Z</time>
      </trkpt>
      <trkpt lat="46.20581" lon="6.85881">
        <ele>1691</ele>
        <time>2010-01-03T04:24:12Z</time>
      </trkpt>
      <trkpt lat="46.20592" lon="6.85899">
        <ele>1689</ele>
        <time>2010-01-03T04:24:19Z</time>
      </trkpt>
      <trkpt lat="46.20592" lon="6.85898">
        <ele>1689</ele>
        <time>2010-01-03T04:24:19Z</time>
      </trkpt>
      <trkpt lat="46.20607" lon="6.85906">
        <ele>1690</ele>
        <time>2010-01-03T04:24:25Z</time>
      </trkpt>
      <trkpt lat="46.20622" lon="6.85912">
        <ele>1690</ele>
        <time>2010-01-03T04:24:31Z</time>
      </trkpt>
      <trkpt lat="46.20624" lon="6.85914">
        <ele>1689</ele>
        <time>2010-01-03T04:24:32Z</time>
      </trkpt>
      <trkpt lat="46.20652" lon="6.85928">
        <ele>1678</ele>
        <time>2010-01-03T04:24:44Z</time>
      </trkpt>
      <trkpt lat="46.20694" lon="6.85937">
        <ele>1675</ele>
        <time>2010-01-03T04:25:01Z</time>
      </trkpt>
      <trkpt lat="46.20731" lon="6.85952">
        <ele>1673</ele>
        <time>2010-01-03T04:25:16Z</time>
      </trkpt>
      <trkpt lat="46.20745" lon="6.85965">
        <ele>1671</ele>
        <time>2010-01-03T04:25:23Z</time>
      </trkpt>
      <trkpt lat="46.20746" lon="6.85975">
        <ele>1669</ele>
        <time>2010-01-03T04:25:26Z</time>
      </trkpt>
      <trkpt lat="46.20742" lon="6.85985">
        <ele>1667</ele>
        <time>2010-01-03T04:25:29Z</time>
      </trkpt>
      <trkpt lat="46.20727" lon="6.86004">
        <ele>1659</ele>
        <time>2010-01-03T04:25:37Z</time>
      </trkpt>
      <trkpt lat="46.20705" lon="6.86021">
        <ele>1658</ele>
        <time>2010-01-03T04:25:47Z</time>
      </trkpt>
      <trkpt lat="46.2069" lon="6.86012">
        <ele>1659</ele>
        <time>2010-01-03T04:25:54Z</time>
      </trkpt>
      <trkpt lat="46.20679" lon="6.85998">
        <ele>1668</ele>
        <time>2010-01-03T04:25:59Z</time>
      </trkpt>
      <trkpt lat="46.20676" lon="6.85984">
        <ele>1669</ele>
        <time>2010-01-03T04:26:03Z</time>
      </trkpt>
      <trkpt lat="46.20676" lon="6.85999">
        <ele>1667</ele>
        <time>2010-01-03T04:26:08Z</time>
      </trkpt>
      <trkpt lat="46.20668" lon="6.86">
        <ele>1665</ele>
        <time>2010-01-03T04:26:11Z</time>
      </trkpt>
      <trkpt lat="46.20665" lon="6.85992">
        <ele>1668</ele>
        <time>2010-01-03T04:26:13Z</time>
      </trkpt>
      <trkpt lat="46.20648" lon="6.85891">
        <ele>1690</ele>
        <time>2010-01-03T04:26:42Z</time>
      </trkpt>
      <trkpt lat="46.20653" lon="6.85892">
        <ele>1690</ele>
        <time>2010-01-03T04:26:44Z</time>
      </trkpt>
      <trkpt lat="46.20642" lon="6.85852">
        <ele>1696</ele>
        <time>2010-01-03T04:26:56Z</time>
      </trkpt>
      <trkpt lat="46.20638" lon="6.85824">
        <ele>1707</ele>
        <time>2010-01-03T04:27:04Z</time>
      </trkpt>
      <trkpt lat="46.20631" lon="6.85791">
        <ele>1710</ele>
        <time>2010-01-03T04:27:13Z</time>
      </trkpt>
      <trkpt lat="46.20625" lon="6.85753">
        <ele>1712</ele>
        <time>2010-01-03T04:27:24Z</time>
      </trkpt>
      <trkpt lat="46.20616" lon="6.85704">
        <ele>1728</ele>
        <time>2010-01-03T04:27:38Z</time>
      </trkpt>
      <trkpt lat="46.20612" lon="6.85678">
        <ele>1732</ele>
        <time>2010-01-03T04:27:45Z</time>
      </trkpt>
      <trkpt lat="46.20595" lon="6.85577">
        <ele>1777</ele>
        <time>2010-01-03T04:28:14Z</time>
      </trkpt>
      <trkpt lat="46.20583" lon="6.85509">
        <ele>1802</ele>
        <time>2010-01-03T04:28:34Z</time>
      </trkpt>
      <trkpt lat="46.2058" lon="6.85491">
        <ele>1810</ele>
        <time>2010-01-03T04:28:39Z</time>
      </trkpt>
      <trkpt lat="46.20577" lon="6.85473">
        <ele>1816</ele>
        <time>2010-01-03T04:28:44Z</time>
      </trkpt>
      <trkpt lat="46.20575" lon="6.85454">
        <ele>1820</ele>
        <time>2010-01-03T04:28:49Z</time>
      </trkpt>
      <trkpt lat="46.20573" lon="6.8544">
        <ele>1822</ele>
        <time>2010-01-03T04:28:53Z</time>
      </trkpt>
      <trkpt lat="46.20569" lon="6.85423">
        <ele>1823</ele>
        <time>2010-01-03T04:28:58Z</time>
      </trkpt>
      <trkpt lat="46.20568" lon="6.85414">
        <ele>1832</ele>
        <time>2010-01-03T04:29:01Z</time>
      </trkpt>
      <trkpt lat="46.20565" lon="6.85394">
        <ele>1835</ele>
        <time>2010-01-03T04:29:06Z</time>
      </trkpt>
      <trkpt lat="46.20563" lon="6.85381">
        <ele>1838</ele>
        <time>2010-01-03T04:29:10Z</time>
      </trkpt>
      <trkpt lat="46.20563" lon="6.85381">
        <ele>1838</ele>
        <time>2010-01-03T04:29:10Z</time>
      </trkpt>
      <trkpt lat="46.20561" lon="6.85366">
        <ele>1840</ele>
        <time>2010-01-03T04:29:14Z</time>
      </trkpt>
      <trkpt lat="46.20559" lon="6.85358">
        <ele>1841</ele>
        <time>2010-01-03T04:29:16Z</time>
      </trkpt>
      <trkpt lat="46.20557" lon="6.85349">
        <ele>1842</ele>
        <time>2010-01-03T04:29:19Z</time>
      </trkpt>
      <trkpt lat="46.20554" lon="6.85334">
        <ele>1843</ele>
        <time>2010-01-03T04:29:23Z</time>
      </trkpt>
      <trkpt lat="46.2055" lon="6.85318">
        <ele>1857</ele>
        <time>2010-01-03T04:29:28Z</time>
      </trkpt>
      <trkpt lat="46.20545" lon="6.85291">
        <ele>1862</ele>
        <time>2010-01-03T04:29:36Z</time>
      </trkpt>
      <trkpt lat="46.20538" lon="6.85246">
        <ele>1886</ele>
        <time>2010-01-03T04:29:49Z</time>
      </trkpt>
      <trkpt lat="46.20524" lon="6.85163">
        <ele>1922</ele>
        <time>2010-01-03T04:30:12Z</time>
      </trkpt>
      <trkpt lat="46.20506" lon="6.85055">
        <ele>1958</ele>
        <time>2010-01-03T04:30:43Z</time>
      </trkpt>
      <trkpt lat="46.2048" lon="6.84891">
        <ele>1996</ele>
        <time>2010-01-03T04:31:30Z</time>
      </trkpt>
      <trkpt lat="46.20466" lon="6.84808">
        <ele>2004</ele>
        <time>2010-01-03T04:31:53Z</time>
      </trkpt>
      <trkpt lat="46.20433" lon="6.84707">
        <ele>2007</ele>
        <time>2010-01-03T04:32:24Z</time>
      </trkpt>
      <trkpt lat="46.20364" lon="6.84621">
        <ele>2014</ele>
        <time>2010-01-03T04:33:01Z</time>
      </trkpt>
      <trkpt lat="46.20251" lon="6.84524">
        <ele>2008</ele>
        <time>2010-01-03T04:33:53Z</time>
      </trkpt>
      <trkpt lat="46.20227" lon="6.84499">
        <ele>2011</ele>
        <time>2010-01-03T04:34:05Z</time>
      </trkpt>
      <trkpt lat="46.20207" lon="6.84481">
        <ele>2011</ele>
        <time>2010-01-03T04:34:15Z</time>
      </trkpt>
      <trkpt lat="46.20189" lon="6.84467">
        <ele>2013</ele>
        <time>2010-01-03T04:34:23Z</time>
      </trkpt>
      <trkpt lat="46.20177" lon="6.84455">
        <ele>2014</ele>
        <time>2010-01-03T04:34:29Z</time>
      </trkpt>
      <trkpt lat="46.20167" lon="6.84441">
        <ele>2018</ele>
        <time>2010-01-03T04:34:34Z</time>
      </trkpt>
      <trkpt lat="46.20167" lon="6.8444">
        <ele>2021</ele>
        <time>2010-01-03T04:34:35Z</time>
      </trkpt>
      <trkpt lat="46.20159" lon="6.84431">
        <ele>2023</ele>
        <time>2010-01-03T04:34:39Z</time>
      </trkpt>
      <trkpt lat="46.20158" lon="6.8443">
        <ele>2023</ele>
        <time>2010-01-03T04:34:39Z</time>
      </trkpt>
      <trkpt lat="46.20146" lon="6.84423">
        <ele>2022</ele>
        <time>2010-01-03T04:34:44Z</time>
      </trkpt>
      <trkpt lat="46.20125" lon="6.84419">
        <ele>2021</ele>
        <time>2010-01-03T04:34:53Z</time>
      </trkpt>
      <trkpt lat="46.20105" lon="6.84414">
        <ele>2033</ele>
        <time>2010-01-03T04:35:01Z</time>
      </trkpt>
      <trkpt lat="46.20095" lon="6.8441">
        <ele>2033</ele>
        <time>2010-01-03T04:35:05Z</time>
      </trkpt>
      <trkpt lat="46.20084" lon="6.84403">
        <ele>2034</ele>
        <time>2010-01-03T04:35:10Z</time>
      </trkpt>
      <trkpt lat="46.20075" lon="6.84396">
        <ele>2039</ele>
        <time>2010-01-03T04:35:14Z</time>
      </trkpt>
      <trkpt lat="46.20058" lon="6.84385">
        <ele>2042</ele>
        <time>2010-01-03T04:35:21Z</time>
      </trkpt>
      <trkpt lat="46.20054" lon="6.84381">
        <ele>2043</ele>
        <time>2010-01-03T04:35:23Z</time>
      </trkpt>
      <trkpt lat="46.20049" lon="6.84385">
        <ele>2043</ele>
        <time>2010-01-03T04:35:25Z</time>
      </trkpt>
      <trkpt lat="46.20047" lon="6.84391">
        <ele>2042</ele>
        <time>2010-01-03T04:35:27Z</time>
      </trkpt>
      <trkpt lat="46.20043" lon="6.84393">
        <ele>2041</ele>
        <time>2010-01-03T04:35:29Z</time>
      </trkpt>
      <trkpt lat="46.20038" lon="6.84396">
        <ele>2041</ele>
        <time>2010-01-03T04:35:31Z</time>
      </trkpt>
      <trkpt lat="46.2003" lon="6.84397">
        <ele>2040</ele>
        <time>2010-01-03T04:35:34Z</time>
      </trkpt>
      <trkpt lat="46.20025" lon="6.84397">
        <ele>2040</ele>
        <time>2010-01-03T04:35:36Z</time>
      </trkpt>
      <trkpt lat="46.20019" lon="6.84397">
        <ele>2039</ele>
        <time>2010-01-03T04:35:39Z</time>
      </trkpt>
      <trkpt lat="46.20012" lon="6.84398">
        <ele>2038</ele>
        <time>2010-01-03T04:35:41Z</time>
      </trkpt>
      <trkpt lat="46.2" lon="6.84396">
        <ele>2038</ele>
        <time>2010-01-03T04:35:46Z</time>
      </trkpt>
      <trkpt lat="46.19992" lon="6.84392">
        <ele>2034</ele>
        <time>2010-01-03T04:35:50Z</time>
      </trkpt>
      <trkpt lat="46.19991" lon="6.84392">
        <ele>2034</ele>
        <time>2010-01-03T04:35:50Z</time>
      </trkpt>
      <trkpt lat="46.19983" lon="6.8438">
        <ele>2036</ele>
        <time>2010-01-03T04:35:55Z</time>
      </trkpt>
      <trkpt lat="46.19975" lon="6.84372">
        <ele>2038</ele>
        <time>2010-01-03T04:35:58Z</time>
      </trkpt>
      <trkpt lat="46.19956" lon="6.84356">
        <ele>2038</ele>
        <time>2010-01-03T04:36:07Z</time>
      </trkpt>
      <trkpt lat="46.19927" lon="6.84339">
        <ele>2040</ele>
        <time>2010-01-03T04:36:20Z</time>
      </trkpt>
      <trkpt lat="46.19921" lon="6.84326">
        <ele>2049</ele>
        <time>2010-01-03T04:36:24Z</time>
      </trkpt>
      <trkpt lat="46.19913" lon="6.84314">
        <ele>2044</ele>
        <time>2010-01-03T04:36:29Z</time>
      </trkpt>
      <trkpt lat="46.19908" lon="6.843">
        <ele>2046</ele>
        <time>2010-01-03T04:36:33Z</time>
      </trkpt>
      <trkpt lat="46.19904" lon="6.84292">
        <ele>2047</ele>
        <time>2010-01-03T04:36:36Z</time>
      </trkpt>
      <trkpt lat="46.19901" lon="6.84284">
        <ele>2049</ele>
        <time>2010-01-03T04:36:38Z</time>
      </trkpt>
      <trkpt lat="46.19858" lon="6.84259">
        <ele>2047</ele>
        <time>2010-01-03T04:36:57Z</time>
      </trkpt>
      <trkpt lat="46.19833" lon="6.84245">
        <ele>2052</ele>
        <time>2010-01-03T04:37:08Z</time>
      </trkpt>
      <trkpt lat="46.19821" lon="6.84247">
        <ele>2053</ele>
        <time>2010-01-03T04:37:12Z</time>
      </trkpt>
      <trkpt lat="46.19793" lon="6.84231">
        <ele>2054</ele>
        <time>2010-01-03T04:37:24Z</time>
      </trkpt>
      <trkpt lat="46.19767" lon="6.84234">
        <ele>2048</ele>
        <time>2010-01-03T04:37:35Z</time>
      </trkpt>
      <trkpt lat="46.1974" lon="6.84242">
        <ele>2034</ele>
        <time>2010-01-03T04:37:46Z</time>
      </trkpt>
      <trkpt lat="46.19719" lon="6.8424">
        <ele>2032</ele>
        <time>2010-01-03T04:37:54Z</time>
      </trkpt>
      <trkpt lat="46.19711" lon="6.84234">
        <ele>2031</ele>
        <time>2010-01-03T04:37:58Z</time>
      </trkpt>
      <trkpt lat="46.19709" lon="6.84224">
        <ele>2032</ele>
        <time>2010-01-03T04:38:01Z</time>
      </trkpt>
      <trkpt lat="46.19708" lon="6.84206">
        <ele>2034</ele>
        <time>2010-01-03T04:38:06Z</time>
      </trkpt>
      <trkpt lat="46.19688" lon="6.84199">
        <ele>2031</ele>
        <time>2010-01-03T04:38:14Z</time>
      </trkpt>
      <trkpt lat="46.19675" lon="6.84194">
        <ele>2030</ele>
        <time>2010-01-03T04:38:19Z</time>
      </trkpt>
      <trkpt lat="46.19662" lon="6.84209">
        <ele>2013</ele>
        <time>2010-01-03T04:38:26Z</time>
      </trkpt>
      <trkpt lat="46.19645" lon="6.84227">
        <ele>2011</ele>
        <time>2010-01-03T04:38:35Z</time>
      </trkpt>
      <trkpt lat="46.1963" lon="6.84238">
        <ele>2008</ele>
        <time>2010-01-03T04:38:41Z</time>
      </trkpt>
      <trkpt lat="46.19619" lon="6.84246">
        <ele>2006</ele>
        <time>2010-01-03T04:38:46Z</time>
      </trkpt>
      <trkpt lat="46.19618" lon="6.84246">
        <ele>2006</ele>
        <time>2010-01-03T04:38:47Z</time>
      </trkpt>
      <trkpt lat="46.19602" lon="6.84247">
        <ele>2002</ele>
        <time>2010-01-03T04:38:53Z</time>
      </trkpt>
      <trkpt lat="46.19593" lon="6.84242">
        <ele>2000</ele>
        <time>2010-01-03T04:38:57Z</time>
      </trkpt>
      <trkpt lat="46.19585" lon="6.8422">
        <ele>2003</ele>
        <time>2010-01-03T04:39:04Z</time>
      </trkpt>
      <trkpt lat="46.19578" lon="6.84194">
        <ele>1986</ele>
        <time>2010-01-03T04:39:12Z</time>
      </trkpt>
      <trkpt lat="46.19575" lon="6.84174">
        <ele>1991</ele>
        <time>2010-01-03T04:39:17Z</time>
      </trkpt>
      <trkpt lat="46.19572" lon="6.84159">
        <ele>1992</ele>
        <time>2010-01-03T04:39:22Z</time>
      </trkpt>
      <trkpt lat="46.19562" lon="6.84117">
        <ele>1987</ele>
        <time>2010-01-03T04:39:34Z</time>
      </trkpt>
      <trkpt lat="46.19551" lon="6.84064">
        <ele>1987</ele>
        <time>2010-01-03T04:39:50Z</time>
      </trkpt>
      <trkpt lat="46.19549" lon="6.84059">
        <ele>1987</ele>
        <time>2010-01-03T04:39:51Z</time>
      </trkpt>
      <trkpt lat="46.1954" lon="6.83985">
        <ele>1985</ele>
        <time>2010-01-03T04:40:12Z</time>
      </trkpt>
      <trkpt lat="46.19528" lon="6.83928">
        <ele>1980</ele>
        <time>2010-01-03T04:40:28Z</time>
      </trkpt>
      <trkpt lat="46.1953" lon="6.83902">
        <ele>1980</ele>
        <time>2010-01-03T04:40:35Z</time>
      </trkpt>
      <trkpt lat="46.19525" lon="6.83864">
        <ele>1979</ele>
        <time>2010-01-03T04:40:46Z</time>
      </trkpt>
      <trkpt lat="46.19522" lon="6.83847">
        <ele>1977</ele>
        <time>2010-01-03T04:40:51Z</time>
      </trkpt>
      <trkpt lat="46.19518" lon="6.83845">
        <ele>1975</ele>
        <time>2010-01-03T04:40:53Z</time>
      </trkpt>
      <trkpt lat="46.19509" lon="6.83867">
        <ele>1976</ele>
        <time>2010-01-03T04:41:00Z</time>
      </trkpt>
      <trkpt lat="46.19501" lon="6.83886">
        <ele>1975</ele>
        <time>2010-01-03T04:41:06Z</time>
      </trkpt>
      <trkpt lat="46.19493" lon="6.83895">
        <ele>1955</ele>
        <time>2010-01-03T04:41:10Z</time>
      </trkpt>
      <trkpt lat="46.19479" lon="6.83903">
        <ele>1953</ele>
        <time>2010-01-03T04:41:16Z</time>
      </trkpt>
      <trkpt lat="46.19472" lon="6.83913">
        <ele>1952</ele>
        <time>2010-01-03T04:41:20Z</time>
      </trkpt>
      <trkpt lat="46.19466" lon="6.83932">
        <ele>1951</ele>
        <time>2010-01-03T04:41:26Z</time>
      </trkpt>
      <trkpt lat="46.1946" lon="6.83959">
        <ele>1950</ele>
        <time>2010-01-03T04:41:34Z</time>
      </trkpt>
      <trkpt lat="46.19449" lon="6.83977">
        <ele>1948</ele>
        <time>2010-01-03T04:41:41Z</time>
      </trkpt>
      <trkpt lat="46.19435" lon="6.83976">
        <ele>1946</ele>
        <time>2010-01-03T04:41:46Z</time>
      </trkpt>
      <trkpt lat="46.19424" lon="6.83961">
        <ele>1946</ele>
        <time>2010-01-03T04:41:52Z</time>
      </trkpt>
      <trkpt lat="46.19388" lon="6.83876">
        <ele>1925</ele>
        <time>2010-01-03T04:42:20Z</time>
      </trkpt>
      <trkpt lat="46.19372" lon="6.83847">
        <ele>1922</ele>
        <time>2010-01-03T04:42:30Z</time>
      </trkpt>
      <trkpt lat="46.19355" lon="6.83815">
        <ele>1916</ele>
        <time>2010-01-03T04:42:41Z</time>
      </trkpt>
      <trkpt lat="46.19349" lon="6.83779">
        <ele>1914</ele>
        <time>2010-01-03T04:42:51Z</time>
      </trkpt>
      <trkpt lat="46.1937" lon="6.83732">
        <ele>1911</ele>
        <time>2010-01-03T04:43:07Z</time>
      </trkpt>
      <trkpt lat="46.19384" lon="6.83705">
        <ele>1912</ele>
        <time>2010-01-03T04:43:17Z</time>
      </trkpt>
      <trkpt lat="46.19384" lon="6.83685">
        <ele>1912</ele>
        <time>2010-01-03T04:43:22Z</time>
      </trkpt>
      <trkpt lat="46.19376" lon="6.83675">
        <ele>1910</ele>
        <time>2010-01-03T04:43:26Z</time>
      </trkpt>
      <trkpt lat="46.19352" lon="6.83694">
        <ele>1907</ele>
        <time>2010-01-03T04:43:37Z</time>
      </trkpt>
      <trkpt lat="46.19326" lon="6.83716">
        <ele>1892</ele>
        <time>2010-01-03T04:43:49Z</time>
      </trkpt>
      <trkpt lat="46.19297" lon="6.83733">
        <ele>1889</ele>
        <time>2010-01-03T04:44:02Z</time>
      </trkpt>
      <trkpt lat="46.19293" lon="6.83746">
        <ele>1889</ele>
        <time>2010-01-03T04:44:06Z</time>
      </trkpt>
      <trkpt lat="46.19292" lon="6.83749">
        <ele>1889</ele>
        <time>2010-01-03T04:44:07Z</time>
      </trkpt>
      <trkpt lat="46.19285" lon="6.83779">
        <ele>1891</ele>
        <time>2010-01-03T04:44:15Z</time>
      </trkpt>
      <trkpt lat="46.19284" lon="6.83783">
        <ele>1891</ele>
        <time>2010-01-03T04:44:17Z</time>
      </trkpt>
      <trkpt lat="46.1928" lon="6.83811">
        <ele>1890</ele>
        <time>2010-01-03T04:44:25Z</time>
      </trkpt>
      <trkpt lat="46.19264" lon="6.83828">
        <ele>1885</ele>
        <time>2010-01-03T04:44:33Z</time>
      </trkpt>
      <trkpt lat="46.19246" lon="6.83825">
        <ele>1874</ele>
        <time>2010-01-03T04:44:40Z</time>
      </trkpt>
      <trkpt lat="46.19246" lon="6.83824">
        <ele>1873</ele>
        <time>2010-01-03T04:44:40Z</time>
      </trkpt>
      <trkpt lat="46.19224" lon="6.83803">
        <ele>1866</ele>
        <time>2010-01-03T04:44:50Z</time>
      </trkpt>
      <trkpt lat="46.19222" lon="6.83776">
        <ele>1865</ele>
        <time>2010-01-03T04:44:58Z</time>
      </trkpt>
      <trkpt lat="46.19223" lon="6.83706">
        <ele>1862</ele>
        <time>2010-01-03T04:45:17Z</time>
      </trkpt>
      <trkpt lat="46.19229" lon="6.836">
        <ele>1857</ele>
        <time>2010-01-03T04:45:47Z</time>
      </trkpt>
      <trkpt lat="46.19233" lon="6.83568">
        <ele>1854</ele>
        <time>2010-01-03T04:45:56Z</time>
      </trkpt>
      <trkpt lat="46.19229" lon="6.83555">
        <ele>1852</ele>
        <time>2010-01-03T04:46:00Z</time>
      </trkpt>
      <trkpt lat="46.1921" lon="6.83563">
        <ele>1850</ele>
        <time>2010-01-03T04:46:08Z</time>
      </trkpt>
      <trkpt lat="46.19193" lon="6.83564">
        <ele>1848</ele>
        <time>2010-01-03T04:46:15Z</time>
      </trkpt>
      <trkpt lat="46.19173" lon="6.83566">
        <ele>1846</ele>
        <time>2010-01-03T04:46:23Z</time>
      </trkpt>
      <trkpt lat="46.19148" lon="6.83565">
        <ele>1839</ele>
        <time>2010-01-03T04:46:32Z</time>
      </trkpt>
      <trkpt lat="46.19124" lon="6.83563">
        <ele>1837</ele>
        <time>2010-01-03T04:46:42Z</time>
      </trkpt>
      <trkpt lat="46.19108" lon="6.83573">
        <ele>1835</ele>
        <time>2010-01-03T04:46:49Z</time>
      </trkpt>
      <trkpt lat="46.19086" lon="6.8361">
        <ele>1831</ele>
        <time>2010-01-03T04:47:03Z</time>
      </trkpt>
      <trkpt lat="46.19064" lon="6.83645">
        <ele>1818</ele>
        <time>2010-01-03T04:47:16Z</time>
      </trkpt>
      <trkpt lat="46.19049" lon="6.8366">
        <ele>1816</ele>
        <time>2010-01-03T04:47:23Z</time>
      </trkpt>
      <trkpt lat="46.19033" lon="6.83643">
        <ele>1815</ele>
        <time>2010-01-03T04:47:31Z</time>
      </trkpt>
      <trkpt lat="46.19015" lon="6.83621">
        <ele>1815</ele>
        <time>2010-01-03T04:47:41Z</time>
      </trkpt>
      <trkpt lat="46.18998" lon="6.83611">
        <ele>1804</ele>
        <time>2010-01-03T04:47:48Z</time>
      </trkpt>
      <trkpt lat="46.18978" lon="6.83599">
        <ele>1803</ele>
        <time>2010-01-03T04:47:57Z</time>
      </trkpt>
      <trkpt lat="46.18976" lon="6.83596">
        <ele>1803</ele>
        <time>2010-01-03T04:47:58Z</time>
      </trkpt>
      <trkpt lat="46.18967" lon="6.83528">
        <ele>1811</ele>
        <time>2010-01-03T04:48:17Z</time>
      </trkpt>
      <trkpt lat="46.18959" lon="6.83492">
        <ele>1819</ele>
        <time>2010-01-03T04:48:28Z</time>
      </trkpt>
      <trkpt lat="46.18945" lon="6.83466">
        <ele>1818</ele>
        <time>2010-01-03T04:48:37Z</time>
      </trkpt>
      <trkpt lat="46.18924" lon="6.8345">
        <ele>1818</ele>
        <time>2010-01-03T04:48:46Z</time>
      </trkpt>
      <trkpt lat="46.18908" lon="6.83434">
        <ele>1806</ele>
        <time>2010-01-03T04:48:54Z</time>
      </trkpt>
      <trkpt lat="46.18891" lon="6.83415">
        <ele>1813</ele>
        <time>2010-01-03T04:49:02Z</time>
      </trkpt>
      <trkpt lat="46.18864" lon="6.83391">
        <ele>1808</ele>
        <time>2010-01-03T04:49:15Z</time>
      </trkpt>
      <trkpt lat="46.18855" lon="6.83375">
        <ele>1808</ele>
        <time>2010-01-03T04:49:21Z</time>
      </trkpt>
      <trkpt lat="46.18841" lon="6.83329">
        <ele>1810</ele>
        <time>2010-01-03T04:49:35Z</time>
      </trkpt>
      <trkpt lat="46.18817" lon="6.83247">
        <ele>1813</ele>
        <time>2010-01-03T04:49:59Z</time>
      </trkpt>
      <trkpt lat="46.18794" lon="6.83227">
        <ele>1809</ele>
        <time>2010-01-03T04:50:10Z</time>
      </trkpt>
      <trkpt lat="46.18774" lon="6.83216">
        <ele>1807</ele>
        <time>2010-01-03T04:50:19Z</time>
      </trkpt>
      <trkpt lat="46.1876" lon="6.83163">
        <ele>1812</ele>
        <time>2010-01-03T04:50:34Z</time>
      </trkpt>
      <trkpt lat="46.18758" lon="6.8316">
        <ele>1811</ele>
        <time>2010-01-03T04:50:35Z</time>
      </trkpt>
      <trkpt lat="46.18741" lon="6.83138">
        <ele>1800</ele>
        <time>2010-01-03T04:50:45Z</time>
      </trkpt>
      <trkpt lat="46.18733" lon="6.83092">
        <ele>1805</ele>
        <time>2010-01-03T04:50:58Z</time>
      </trkpt>
      <trkpt lat="46.18731" lon="6.8304">
        <ele>1810</ele>
        <time>2010-01-03T04:51:12Z</time>
      </trkpt>
      <trkpt lat="46.18731" lon="6.83021">
        <ele>1813</ele>
        <time>2010-01-03T04:51:17Z</time>
      </trkpt>
      <trkpt lat="46.1872" lon="6.82993">
        <ele>1817</ele>
        <time>2010-01-03T04:51:27Z</time>
      </trkpt>
      <trkpt lat="46.18712" lon="6.82927">
        <ele>1818</ele>
        <time>2010-01-03T04:51:45Z</time>
      </trkpt>
      <trkpt lat="46.18714" lon="6.82875">
        <ele>1823</ele>
        <time>2010-01-03T04:51:59Z</time>
      </trkpt>
      <trkpt lat="46.18711" lon="6.8282">
        <ele>1825</ele>
        <time>2010-01-03T04:52:15Z</time>
      </trkpt>
      <trkpt lat="46.1871" lon="6.82748">
        <ele>1830</ele>
        <time>2010-01-03T04:52:35Z</time>
      </trkpt>
      <trkpt lat="46.18708" lon="6.82685">
        <ele>1832</ele>
        <time>2010-01-03T04:52:52Z</time>
      </trkpt>
      <trkpt lat="46.18703" lon="6.82641">
        <ele>1839</ele>
        <time>2010-01-03T04:53:05Z</time>
      </trkpt>
      <trkpt lat="46.18692" lon="6.8261">
        <ele>1840</ele>
        <time>2010-01-03T04:53:14Z</time>
      </trkpt>
      <trkpt lat="46.18669" lon="6.82592">
        <ele>1835</ele>
        <time>2010-01-03T04:53:25Z</time>
      </trkpt>
      <trkpt lat="46.18638" lon="6.8256">
        <ele>1838</ele>
        <time>2010-01-03T04:53:40Z</time>
      </trkpt>
      <trkpt lat="46.18595" lon="6.82538">
        <ele>1839</ele>
        <time>2010-01-03T04:53:58Z</time>
      </trkpt>
      <trkpt lat="46.18498" lon="6.82496">
        <ele>1836</ele>
        <time>2010-01-03T04:54:39Z</time>
      </trkpt>
      <trkpt lat="46.18472" lon="6.82469">
        <ele>1843</ele>
        <time>2010-01-03T04:54:51Z</time>
      </trkpt>
      <trkpt lat="46.18458" lon="6.82446">
        <ele>1845</ele>
        <time>2010-01-03T04:55:00Z</time>
      </trkpt>
      <trkpt lat="46.18441" lon="6.82422">
        <ele>1846</ele>
        <time>2010-01-03T04:55:09Z</time>
      </trkpt>
      <trkpt lat="46.18424" lon="6.82434">
        <ele>1845</ele>
        <time>2010-01-03T04:55:17Z</time>
      </trkpt>
      <trkpt lat="46.18419" lon="6.82455">
        <ele>1842</ele>
        <time>2010-01-03T04:55:23Z</time>
      </trkpt>
      <trkpt lat="46.18405" lon="6.82465">
        <ele>1837</ele>
        <time>2010-01-03T04:55:29Z</time>
      </trkpt>
      <trkpt lat="46.18404" lon="6.82466">
        <ele>1837</ele>
        <time>2010-01-03T04:55:30Z</time>
      </trkpt>
      <trkpt lat="46.18377" lon="6.82455">
        <ele>1838</ele>
        <time>2010-01-03T04:55:41Z</time>
      </trkpt>
      <trkpt lat="46.18376" lon="6.82454">
        <ele>1838</ele>
        <time>2010-01-03T04:55:42Z</time>
      </trkpt>
      <trkpt lat="46.18356" lon="6.82454">
        <ele>1838</ele>
        <time>2010-01-03T04:55:50Z</time>
      </trkpt>
      <trkpt lat="46.18337" lon="6.82426">
        <ele>1842</ele>
        <time>2010-01-03T04:56:01Z</time>
      </trkpt>
      <trkpt lat="46.18301" lon="6.82404">
        <ele>1846</ele>
        <time>2010-01-03T04:56:16Z</time>
      </trkpt>
      <trkpt lat="46.18268" lon="6.82379">
        <ele>1847</ele>
        <time>2010-01-03T04:56:31Z</time>
      </trkpt>
      <trkpt lat="46.18245" lon="6.82365">
        <ele>1847</ele>
        <time>2010-01-03T04:56:41Z</time>
      </trkpt>
      <trkpt lat="46.18227" lon="6.82347">
        <ele>1848</ele>
        <time>2010-01-03T04:56:50Z</time>
      </trkpt>
      <trkpt lat="46.18212" lon="6.82325">
        <ele>1857</ele>
        <time>2010-01-03T04:56:58Z</time>
      </trkpt>
      <trkpt lat="46.18192" lon="6.82324">
        <ele>1856</ele>
        <time>2010-01-03T04:57:07Z</time>
      </trkpt>
      <trkpt lat="46.18187" lon="6.8234">
        <ele>1848</ele>
        <time>2010-01-03T04:57:11Z</time>
      </trkpt>
      <trkpt lat="46.1818" lon="6.82359">
        <ele>1846</ele>
        <time>2010-01-03T04:57:17Z</time>
      </trkpt>
      <trkpt lat="46.18166" lon="6.82371">
        <ele>1845</ele>
        <time>2010-01-03T04:57:24Z</time>
      </trkpt>
      <trkpt lat="46.18151" lon="6.82392">
        <ele>1842</ele>
        <time>2010-01-03T04:57:32Z</time>
      </trkpt>
      <trkpt lat="46.18142" lon="6.82421">
        <ele>1832</ele>
        <time>2010-01-03T04:57:41Z</time>
      </trkpt>
      <trkpt lat="46.18131" lon="6.82438">
        <ele>1831</ele>
        <time>2010-01-03T04:57:47Z</time>
      </trkpt>
      <trkpt lat="46.1811" lon="6.82432">
        <ele>1832</ele>
        <time>2010-01-03T04:57:56Z</time>
      </trkpt>
      <trkpt lat="46.18084" lon="6.82446">
        <ele>1832</ele>
        <time>2010-01-03T04:58:07Z</time>
      </trkpt>
      <trkpt lat="46.18058" lon="6.82449">
        <ele>1834</ele>
        <time>2010-01-03T04:58:17Z</time>
      </trkpt>
      <trkpt lat="46.18035" lon="6.82464">
        <ele>1834</ele>
        <time>2010-01-03T04:58:28Z</time>
      </trkpt>
      <trkpt lat="46.18006" lon="6.82475">
        <ele>1833</ele>
        <time>2010-01-03T04:58:40Z</time>
      </trkpt>
      <trkpt lat="46.17979" lon="6.82492">
        <ele>1835</ele>
        <time>2010-01-03T04:58:51Z</time>
      </trkpt>
      <trkpt lat="46.17966" lon="6.82504">
        <ele>1832</ele>
        <time>2010-01-03T04:58:57Z</time>
      </trkpt>
      <trkpt lat="46.17961" lon="6.8253">
        <ele>1831</ele>
        <time>2010-01-03T04:59:05Z</time>
      </trkpt>
      <trkpt lat="46.1795" lon="6.82548">
        <ele>1831</ele>
        <time>2010-01-03T04:59:12Z</time>
      </trkpt>
      <trkpt lat="46.1793" lon="6.82563">
        <ele>1831</ele>
        <time>2010-01-03T04:59:21Z</time>
      </trkpt>
      <trkpt lat="46.17918" lon="6.82568">
        <ele>1831</ele>
        <time>2010-01-03T04:59:26Z</time>
      </trkpt>
      <trkpt lat="46.17911" lon="6.82558">
        <ele>1826</ele>
        <time>2010-01-03T04:59:30Z</time>
      </trkpt>
      <trkpt lat="46.17901" lon="6.82537">
        <ele>1825</ele>
        <time>2010-01-03T04:59:37Z</time>
      </trkpt>
      <trkpt lat="46.1789" lon="6.82517">
        <ele>1825</ele>
        <time>2010-01-03T04:59:44Z</time>
      </trkpt>
      <trkpt lat="46.17893" lon="6.8247">
        <ele>1829</ele>
        <time>2010-01-03T04:59:57Z</time>
      </trkpt>
      <trkpt lat="46.1788" lon="6.8242">
        <ele>1829</ele>
        <time>2010-01-03T05:00:11Z</time>
      </trkpt>
      <trkpt lat="46.17879" lon="6.82396">
        <ele>1834</ele>
        <time>2010-01-03T05:00:18Z</time>
      </trkpt>
      <trkpt lat="46.17876" lon="6.82358">
        <ele>1835</ele>
        <time>2010-01-03T05:00:29Z</time>
      </trkpt>
      <trkpt lat="46.17877" lon="6.82321">
        <ele>1844</ele>
        <time>2010-01-03T05:00:39Z</time>
      </trkpt>
      <trkpt lat="46.17872" lon="6.82284">
        <ele>1845</ele>
        <time>2010-01-03T05:00:49Z</time>
      </trkpt>
      <trkpt lat="46.17864" lon="6.82252">
        <ele>1845</ele>
        <time>2010-01-03T05:00:59Z</time>
      </trkpt>
      <trkpt lat="46.17852" lon="6.82197">
        <ele>1854</ele>
        <time>2010-01-03T05:01:15Z</time>
      </trkpt>
      <trkpt lat="46.17837" lon="6.82153">
        <ele>1855</ele>
        <time>2010-01-03T05:01:28Z</time>
      </trkpt>
      <trkpt lat="46.17828" lon="6.82124">
        <ele>1841</ele>
        <time>2010-01-03T05:01:37Z</time>
      </trkpt>
      <trkpt lat="46.17813" lon="6.82088">
        <ele>1844</ele>
        <time>2010-01-03T05:01:49Z</time>
      </trkpt>
      <trkpt lat="46.17799" lon="6.82067">
        <ele>1845</ele>
        <time>2010-01-03T05:01:57Z</time>
      </trkpt>
      <trkpt lat="46.17795" lon="6.82027">
        <ele>1845</ele>
        <time>2010-01-03T05:02:08Z</time>
      </trkpt>
      <trkpt lat="46.17794" lon="6.81988">
        <ele>1849</ele>
        <time>2010-01-03T05:02:19Z</time>
      </trkpt>
      <trkpt lat="46.17784" lon="6.81953">
        <ele>1847</ele>
        <time>2010-01-03T05:02:29Z</time>
      </trkpt>
      <trkpt lat="46.17779" lon="6.81924">
        <ele>1845</ele>
        <time>2010-01-03T05:02:38Z</time>
      </trkpt>
      <trkpt lat="46.17785" lon="6.81892">
        <ele>1851</ele>
        <time>2010-01-03T05:02:47Z</time>
      </trkpt>
      <trkpt lat="46.17786" lon="6.81871">
        <ele>1852</ele>
        <time>2010-01-03T05:02:53Z</time>
      </trkpt>
      <trkpt lat="46.17778" lon="6.81843">
        <ele>1849</ele>
        <time>2010-01-03T05:03:01Z</time>
      </trkpt>
      <trkpt lat="46.17777" lon="6.81827">
        <ele>1853</ele>
        <time>2010-01-03T05:03:06Z</time>
      </trkpt>
      <trkpt lat="46.17785" lon="6.81799">
        <ele>1858</ele>
        <time>2010-01-03T05:03:14Z</time>
      </trkpt>
      <trkpt lat="46.17788" lon="6.81785">
        <ele>1860</ele>
        <time>2010-01-03T05:03:18Z</time>
      </trkpt>
      <trkpt lat="46.17779" lon="6.81758">
        <ele>1857</ele>
        <time>2010-01-03T05:03:26Z</time>
      </trkpt>
      <trkpt lat="46.17765" lon="6.81729">
        <ele>1859</ele>
        <time>2010-01-03T05:03:36Z</time>
      </trkpt>
      <trkpt lat="46.17746" lon="6.81699">
        <ele>1840</ele>
        <time>2010-01-03T05:03:47Z</time>
      </trkpt>
      <trkpt lat="46.17732" lon="6.81674">
        <ele>1842</ele>
        <time>2010-01-03T05:03:56Z</time>
      </trkpt>
      <trkpt lat="46.17728" lon="6.81646">
        <ele>1843</ele>
        <time>2010-01-03T05:04:04Z</time>
      </trkpt>
      <trkpt lat="46.17735" lon="6.81601">
        <ele>1844</ele>
        <time>2010-01-03T05:04:17Z</time>
      </trkpt>
      <trkpt lat="46.17741" lon="6.81569">
        <ele>1845</ele>
        <time>2010-01-03T05:04:26Z</time>
      </trkpt>
      <trkpt lat="46.17748" lon="6.81513">
        <ele>1845</ele>
        <time>2010-01-03T05:04:42Z</time>
      </trkpt>
      <trkpt lat="46.17751" lon="6.81477">
        <ele>1859</ele>
        <time>2010-01-03T05:04:52Z</time>
      </trkpt>
      <trkpt lat="46.17754" lon="6.81457">
        <ele>1862</ele>
        <time>2010-01-03T05:04:58Z</time>
      </trkpt>
      <trkpt lat="46.17744" lon="6.81434">
        <ele>1848</ele>
        <time>2010-01-03T05:05:05Z</time>
      </trkpt>
      <trkpt lat="46.17733" lon="6.81411">
        <ele>1854</ele>
        <time>2010-01-03T05:05:13Z</time>
      </trkpt>
      <trkpt lat="46.1771" lon="6.81396">
        <ele>1852</ele>
        <time>2010-01-03T05:05:23Z</time>
      </trkpt>
      <trkpt lat="46.17668" lon="6.81371">
        <ele>1850</ele>
        <time>2010-01-03T05:05:41Z</time>
      </trkpt>
      <trkpt lat="46.17635" lon="6.81347">
        <ele>1846</ele>
        <time>2010-01-03T05:05:56Z</time>
      </trkpt>
      <trkpt lat="46.17617" lon="6.81322">
        <ele>1856</ele>
        <time>2010-01-03T05:06:06Z</time>
      </trkpt>
      <trkpt lat="46.17599" lon="6.81315">
        <ele>1855</ele>
        <time>2010-01-03T05:06:14Z</time>
      </trkpt>
      <trkpt lat="46.17576" lon="6.81304">
        <ele>1853</ele>
        <time>2010-01-03T05:06:23Z</time>
      </trkpt>
      <trkpt lat="46.17553" lon="6.81294">
        <ele>1854</ele>
        <time>2010-01-03T05:06:33Z</time>
      </trkpt>
      <trkpt lat="46.17527" lon="6.81293">
        <ele>1853</ele>
        <time>2010-01-03T05:06:43Z</time>
      </trkpt>
      <trkpt lat="46.17504" lon="6.81307">
        <ele>1851</ele>
        <time>2010-01-03T05:06:53Z</time>
      </trkpt>
      <trkpt lat="46.17484" lon="6.81323">
        <ele>1848</ele>
        <time>2010-01-03T05:07:02Z</time>
      </trkpt>
      <trkpt lat="46.1747" lon="6.81348">
        <ele>1842</ele>
        <time>2010-01-03T05:07:11Z</time>
      </trkpt>
      <trkpt lat="46.1745" lon="6.81377">
        <ele>1840</ele>
        <time>2010-01-03T05:07:23Z</time>
      </trkpt>
      <trkpt lat="46.17434" lon="6.81403">
        <ele>1839</ele>
        <time>2010-01-03T05:07:32Z</time>
      </trkpt>
      <trkpt lat="46.17419" lon="6.8143">
        <ele>1834</ele>
        <time>2010-01-03T05:07:42Z</time>
      </trkpt>
      <trkpt lat="46.17402" lon="6.81467">
        <ele>1832</ele>
        <time>2010-01-03T05:07:54Z</time>
      </trkpt>
      <trkpt lat="46.17382" lon="6.81485">
        <ele>1832</ele>
        <time>2010-01-03T05:08:03Z</time>
      </trkpt>
      <trkpt lat="46.17348" lon="6.81511">
        <ele>1828</ele>
        <time>2010-01-03T05:08:19Z</time>
      </trkpt>
      <trkpt lat="46.17327" lon="6.8154">
        <ele>1828</ele>
        <time>2010-01-03T05:08:30Z</time>
      </trkpt>
      <trkpt lat="46.17319" lon="6.81566">
        <ele>1826</ele>
        <time>2010-01-03T05:08:39Z</time>
      </trkpt>
      <trkpt lat="46.17311" lon="6.81589">
        <ele>1820</ele>
        <time>2010-01-03T05:08:46Z</time>
      </trkpt>
      <trkpt lat="46.17295" lon="6.81597">
        <ele>1819</ele>
        <time>2010-01-03T05:08:53Z</time>
      </trkpt>
      <trkpt lat="46.17275" lon="6.81593">
        <ele>1821</ele>
        <time>2010-01-03T05:09:01Z</time>
      </trkpt>
      <trkpt lat="46.17257" lon="6.81595">
        <ele>1822</ele>
        <time>2010-01-03T05:09:08Z</time>
      </trkpt>
      <trkpt lat="46.1723" lon="6.81592">
        <ele>1823</ele>
        <time>2010-01-03T05:09:19Z</time>
      </trkpt>
      <trkpt lat="46.17207" lon="6.81584">
        <ele>1824</ele>
        <time>2010-01-03T05:09:28Z</time>
      </trkpt>
      <trkpt lat="46.17178" lon="6.81576">
        <ele>1830</ele>
        <time>2010-01-03T05:09:40Z</time>
      </trkpt>
      <trkpt lat="46.17162" lon="6.81584">
        <ele>1828</ele>
        <time>2010-01-03T05:09:47Z</time>
      </trkpt>
      <trkpt lat="46.17159" lon="6.81615">
        <ele>1826</ele>
        <time>2010-01-03T05:09:55Z</time>
      </trkpt>
      <trkpt lat="46.17153" lon="6.8164">
        <ele>1824</ele>
        <time>2010-01-03T05:10:02Z</time>
      </trkpt>
      <trkpt lat="46.17134" lon="6.81645">
        <ele>1824</ele>
        <time>2010-01-03T05:10:10Z</time>
      </trkpt>
      <trkpt lat="46.17094" lon="6.81661">
        <ele>1823</ele>
        <time>2010-01-03T05:10:27Z</time>
      </trkpt>
      <trkpt lat="46.17058" lon="6.81675">
        <ele>1818</ele>
        <time>2010-01-03T05:10:42Z</time>
      </trkpt>
      <trkpt lat="46.17033" lon="6.81674">
        <ele>1817</ele>
        <time>2010-01-03T05:10:52Z</time>
      </trkpt>
      <trkpt lat="46.17016" lon="6.8167">
        <ele>1818</ele>
        <time>2010-01-03T05:10:59Z</time>
      </trkpt>
      <trkpt lat="46.17002" lon="6.81654">
        <ele>1822</ele>
        <time>2010-01-03T05:11:06Z</time>
      </trkpt>
      <trkpt lat="46.16979" lon="6.81624">
        <ele>1816</ele>
        <time>2010-01-03T05:11:18Z</time>
      </trkpt>
      <trkpt lat="46.16966" lon="6.81594">
        <ele>1816</ele>
        <time>2010-01-03T05:11:28Z</time>
      </trkpt>
      <trkpt lat="46.16963" lon="6.81566">
        <ele>1821</ele>
        <time>2010-01-03T05:11:36Z</time>
      </trkpt>
      <trkpt lat="46.16968" lon="6.81538">
        <ele>1822</ele>
        <time>2010-01-03T05:11:44Z</time>
      </trkpt>
      <trkpt lat="46.16966" lon="6.81518">
        <ele>1823</ele>
        <time>2010-01-03T05:11:49Z</time>
      </trkpt>
      <trkpt lat="46.16944" lon="6.8147">
        <ele>1828</ele>
        <time>2010-01-03T05:12:05Z</time>
      </trkpt>
      <trkpt lat="46.16913" lon="6.81417">
        <ele>1817</ele>
        <time>2010-01-03T05:12:25Z</time>
      </trkpt>
      <trkpt lat="46.16899" lon="6.81396">
        <ele>1816</ele>
        <time>2010-01-03T05:12:33Z</time>
      </trkpt>
      <trkpt lat="46.16885" lon="6.81375">
        <ele>1815</ele>
        <time>2010-01-03T05:12:41Z</time>
      </trkpt>
      <trkpt lat="46.16883" lon="6.81351">
        <ele>1816</ele>
        <time>2010-01-03T05:12:47Z</time>
      </trkpt>
      <trkpt lat="46.16872" lon="6.81336">
        <ele>1814</ele>
        <time>2010-01-03T05:12:53Z</time>
      </trkpt>
      <trkpt lat="46.16842" lon="6.8129">
        <ele>1819</ele>
        <time>2010-01-03T05:13:11Z</time>
      </trkpt>
      <trkpt lat="46.16822" lon="6.81248">
        <ele>1811</ele>
        <time>2010-01-03T05:13:25Z</time>
      </trkpt>
      <trkpt lat="46.16806" lon="6.81225">
        <ele>1810</ele>
        <time>2010-01-03T05:13:34Z</time>
      </trkpt>
      <trkpt lat="46.16796" lon="6.81229">
        <ele>1808</ele>
        <time>2010-01-03T05:13:38Z</time>
      </trkpt>
      <trkpt lat="46.16785" lon="6.81215">
        <ele>1808</ele>
        <time>2010-01-03T05:13:44Z</time>
      </trkpt>
      <trkpt lat="46.16751" lon="6.81189">
        <ele>1807</ele>
        <time>2010-01-03T05:14:00Z</time>
      </trkpt>
      <trkpt lat="46.16718" lon="6.81162">
        <ele>1799</ele>
        <time>2010-01-03T05:14:15Z</time>
      </trkpt>
      <trkpt lat="46.16701" lon="6.81135">
        <ele>1797</ele>
        <time>2010-01-03T05:14:25Z</time>
      </trkpt>
      <trkpt lat="46.1669" lon="6.81101">
        <ele>1797</ele>
        <time>2010-01-03T05:14:35Z</time>
      </trkpt>
      <trkpt lat="46.16677" lon="6.81074">
        <ele>1798</ele>
        <time>2010-01-03T05:14:44Z</time>
      </trkpt>
      <trkpt lat="46.16664" lon="6.81061">
        <ele>1788</ele>
        <time>2010-01-03T05:14:51Z</time>
      </trkpt>
      <trkpt lat="46.16651" lon="6.81054">
        <ele>1787</ele>
        <time>2010-01-03T05:14:57Z</time>
      </trkpt>
      <trkpt lat="46.1665" lon="6.81069">
        <ele>1787</ele>
        <time>2010-01-03T05:15:01Z</time>
      </trkpt>
      <trkpt lat="46.16669" lon="6.81089">
        <ele>1793</ele>
        <time>2010-01-03T05:15:10Z</time>
      </trkpt>
      <trkpt lat="46.16671" lon="6.81097">
        <ele>1794</ele>
        <time>2010-01-03T05:15:12Z</time>
      </trkpt>
      <trkpt lat="46.16684" lon="6.81136">
        <ele>1794</ele>
        <time>2010-01-03T05:15:24Z</time>
      </trkpt>
      <trkpt lat="46.16686" lon="6.81185">
        <ele>1784</ele>
        <time>2010-01-03T05:15:38Z</time>
      </trkpt>
      <trkpt lat="46.1669" lon="6.81206">
        <ele>1783</ele>
        <time>2010-01-03T05:15:44Z</time>
      </trkpt>
      <trkpt lat="46.16696" lon="6.81234">
        <ele>1781</ele>
        <time>2010-01-03T05:15:52Z</time>
      </trkpt>
      <trkpt lat="46.16703" lon="6.81255">
        <ele>1774</ele>
        <time>2010-01-03T05:15:59Z</time>
      </trkpt>
      <trkpt lat="46.1671" lon="6.81268">
        <ele>1775</ele>
        <time>2010-01-03T05:16:03Z</time>
      </trkpt>
      <trkpt lat="46.16704" lon="6.81307">
        <ele>1772</ele>
        <time>2010-01-03T05:16:14Z</time>
      </trkpt>
      <trkpt lat="46.16709" lon="6.81329">
        <ele>1772</ele>
        <time>2010-01-03T05:16:21Z</time>
      </trkpt>
      <trkpt lat="46.16719" lon="6.81336">
        <ele>1770</ele>
        <time>2010-01-03T05:16:25Z</time>
      </trkpt>
      <trkpt lat="46.16722" lon="6.81349">
        <ele>1771</ele>
        <time>2010-01-03T05:16:29Z</time>
      </trkpt>
      <trkpt lat="46.16711" lon="6.8138">
        <ele>1768</ele>
        <time>2010-01-03T05:16:39Z</time>
      </trkpt>
      <trkpt lat="46.16706" lon="6.81411">
        <ele>1767</ele>
        <time>2010-01-03T05:16:47Z</time>
      </trkpt>
      <trkpt lat="46.1671" lon="6.81463">
        <ele>1765</ele>
        <time>2010-01-03T05:17:02Z</time>
      </trkpt>
      <trkpt lat="46.16699" lon="6.8152">
        <ele>1759</ele>
        <time>2010-01-03T05:17:18Z</time>
      </trkpt>
      <trkpt lat="46.16691" lon="6.81583">
        <ele>1756</ele>
        <time>2010-01-03T05:17:36Z</time>
      </trkpt>
      <trkpt lat="46.1668" lon="6.81604">
        <ele>1753</ele>
        <time>2010-01-03T05:17:43Z</time>
      </trkpt>
      <trkpt lat="46.16663" lon="6.81604">
        <ele>1743</ele>
        <time>2010-01-03T05:17:50Z</time>
      </trkpt>
      <trkpt lat="46.16635" lon="6.81594">
        <ele>1740</ele>
        <time>2010-01-03T05:18:02Z</time>
      </trkpt>
      <trkpt lat="46.16625" lon="6.81581">
        <ele>1743</ele>
        <time>2010-01-03T05:18:07Z</time>
      </trkpt>
      <trkpt lat="46.1662" lon="6.8156">
        <ele>1743</ele>
        <time>2010-01-03T05:18:13Z</time>
      </trkpt>
      <trkpt lat="46.16625" lon="6.81542">
        <ele>1744</ele>
        <time>2010-01-03T05:18:19Z</time>
      </trkpt>
      <trkpt lat="46.16628" lon="6.81527">
        <ele>1744</ele>
        <time>2010-01-03T05:18:23Z</time>
      </trkpt>
      <trkpt lat="46.1661" lon="6.81515">
        <ele>1742</ele>
        <time>2010-01-03T05:18:31Z</time>
      </trkpt>
      <trkpt lat="46.16599" lon="6.81487">
        <ele>1742</ele>
        <time>2010-01-03T05:18:40Z</time>
      </trkpt>
      <trkpt lat="46.16611" lon="6.8146">
        <ele>1744</ele>
        <time>2010-01-03T05:18:49Z</time>
      </trkpt>
      <trkpt lat="46.16614" lon="6.81449">
        <ele>1745</ele>
        <time>2010-01-03T05:18:52Z</time>
      </trkpt>
      <trkpt lat="46.16601" lon="6.81436">
        <ele>1743</ele>
        <time>2010-01-03T05:18:58Z</time>
      </trkpt>
      <trkpt lat="46.16595" lon="6.8144">
        <ele>1743</ele>
        <time>2010-01-03T05:19:01Z</time>
      </trkpt>
      <trkpt lat="46.16587" lon="6.81412">
        <ele>1739</ele>
        <time>2010-01-03T05:19:09Z</time>
      </trkpt>
      <trkpt lat="46.16595" lon="6.81404">
        <ele>1741</ele>
        <time>2010-01-03T05:19:13Z</time>
      </trkpt>
      <trkpt lat="46.16601" lon="6.81382">
        <ele>1743</ele>
        <time>2010-01-03T05:19:20Z</time>
      </trkpt>
      <trkpt lat="46.16596" lon="6.81356">
        <ele>1741</ele>
        <time>2010-01-03T05:19:28Z</time>
      </trkpt>
      <trkpt lat="46.16596" lon="6.81336">
        <ele>1739</ele>
        <time>2010-01-03T05:19:33Z</time>
      </trkpt>
      <trkpt lat="46.16606" lon="6.81327">
        <ele>1743</ele>
        <time>2010-01-03T05:19:38Z</time>
      </trkpt>
      <trkpt lat="46.16612" lon="6.81309">
        <ele>1746</ele>
        <time>2010-01-03T05:19:43Z</time>
      </trkpt>
      <trkpt lat="46.166" lon="6.81298">
        <ele>1745</ele>
        <time>2010-01-03T05:19:49Z</time>
      </trkpt>
      <trkpt lat="46.16586" lon="6.81287">
        <ele>1745</ele>
        <time>2010-01-03T05:19:55Z</time>
      </trkpt>
      <trkpt lat="46.16564" lon="6.81269">
        <ele>1731</ele>
        <time>2010-01-03T05:20:06Z</time>
      </trkpt>
      <trkpt lat="46.16552" lon="6.81235">
        <ele>1736</ele>
        <time>2010-01-03T05:20:16Z</time>
      </trkpt>
      <trkpt lat="46.16535" lon="6.81222">
        <ele>1734</ele>
        <time>2010-01-03T05:20:24Z</time>
      </trkpt>
      <trkpt lat="46.16512" lon="6.81217">
        <ele>1732</ele>
        <time>2010-01-03T05:20:33Z</time>
      </trkpt>
      <trkpt lat="46.16487" lon="6.81205">
        <ele>1721</ele>
        <time>2010-01-03T05:20:43Z</time>
      </trkpt>
      <trkpt lat="46.1646" lon="6.81188">
        <ele>1719</ele>
        <time>2010-01-03T05:20:55Z</time>
      </trkpt>
      <trkpt lat="46.16435" lon="6.81164">
        <ele>1720</ele>
        <time>2010-01-03T05:21:07Z</time>
      </trkpt>
      <trkpt lat="46.16423" lon="6.81133">
        <ele>1722</ele>
        <time>2010-01-03T05:21:17Z</time>
      </trkpt>
      <trkpt lat="46.16421" lon="6.811">
        <ele>1720</ele>
        <time>2010-01-03T05:21:26Z</time>
      </trkpt>
      <trkpt lat="46.1643" lon="6.81083">
        <ele>1722</ele>
        <time>2010-01-03T05:21:32Z</time>
      </trkpt>
      <trkpt lat="46.16433" lon="6.8106">
        <ele>1726</ele>
        <time>2010-01-03T05:21:38Z</time>
      </trkpt>
      <trkpt lat="46.1643" lon="6.8103">
        <ele>1727</ele>
        <time>2010-01-03T05:21:47Z</time>
      </trkpt>
      <trkpt lat="46.16427" lon="6.81005">
        <ele>1721</ele>
        <time>2010-01-03T05:21:54Z</time>
      </trkpt>
      <trkpt lat="46.16412" lon="6.8098">
        <ele>1707</ele>
        <time>2010-01-03T05:22:03Z</time>
      </trkpt>
      <trkpt lat="46.16406" lon="6.80946">
        <ele>1705</ele>
        <time>2010-01-03T05:22:13Z</time>
      </trkpt>
      <trkpt lat="46.16407" lon="6.80925">
        <ele>1709</ele>
        <time>2010-01-03T05:22:18Z</time>
      </trkpt>
      <trkpt lat="46.16395" lon="6.80892">
        <ele>1701</ele>
        <time>2010-01-03T05:22:29Z</time>
      </trkpt>
      <trkpt lat="46.16395" lon="6.80861">
        <ele>1700</ele>
        <time>2010-01-03T05:22:38Z</time>
      </trkpt>
      <trkpt lat="46.16394" lon="6.80827">
        <ele>1697</ele>
        <time>2010-01-03T05:22:47Z</time>
      </trkpt>
      <trkpt lat="46.16402" lon="6.80815">
        <ele>1697</ele>
        <time>2010-01-03T05:22:52Z</time>
      </trkpt>
      <trkpt lat="46.16417" lon="6.80801">
        <ele>1716</ele>
        <time>2010-01-03T05:22:59Z</time>
      </trkpt>
      <trkpt lat="46.16421" lon="6.80789">
        <ele>1716</ele>
        <time>2010-01-03T05:23:02Z</time>
      </trkpt>
      <trkpt lat="46.1641" lon="6.80767">
        <ele>1696</ele>
        <time>2010-01-03T05:23:10Z</time>
      </trkpt>
      <trkpt lat="46.16401" lon="6.80745">
        <ele>1694</ele>
        <time>2010-01-03T05:23:17Z</time>
      </trkpt>
      <trkpt lat="46.16406" lon="6.80716">
        <ele>1691</ele>
        <time>2010-01-03T05:23:25Z</time>
      </trkpt>
      <trkpt lat="46.16413" lon="6.807">
        <ele>1692</ele>
        <time>2010-01-03T05:23:30Z</time>
      </trkpt>
      <trkpt lat="46.16399" lon="6.80649">
        <ele>1689</ele>
        <time>2010-01-03T05:23:46Z</time>
      </trkpt>
      <trkpt lat="46.16402" lon="6.80619">
        <ele>1688</ele>
        <time>2010-01-03T05:23:54Z</time>
      </trkpt>
      <trkpt lat="46.16404" lon="6.8058">
        <ele>1692</ele>
        <time>2010-01-03T05:24:05Z</time>
      </trkpt>
      <trkpt lat="46.16396" lon="6.80555">
        <ele>1686</ele>
        <time>2010-01-03T05:24:13Z</time>
      </trkpt>
      <trkpt lat="46.16384" lon="6.80529">
        <ele>1684</ele>
        <time>2010-01-03T05:24:21Z</time>
      </trkpt>
      <trkpt lat="46.16375" lon="6.80499">
        <ele>1684</ele>
        <time>2010-01-03T05:24:30Z</time>
      </trkpt>
      <trkpt lat="46.16364" lon="6.80473">
        <ele>1682</ele>
        <time>2010-01-03T05:24:39Z</time>
      </trkpt>
      <trkpt lat="46.16356" lon="6.80423">
        <ele>1682</ele>
        <time>2010-01-03T05:24:53Z</time>
      </trkpt>
      <trkpt lat="46.16337" lon="6.80411">
        <ele>1680</ele>
        <time>2010-01-03T05:25:01Z</time>
      </trkpt>
      <trkpt lat="46.16325" lon="6.80377">
        <ele>1675</ele>
        <time>2010-01-03T05:25:12Z</time>
      </trkpt>
      <trkpt lat="46.16314" lon="6.80365">
        <ele>1676</ele>
        <time>2010-01-03T05:25:17Z</time>
      </trkpt>
      <trkpt lat="46.16296" lon="6.80351">
        <ele>1675</ele>
        <time>2010-01-03T05:25:25Z</time>
      </trkpt>
      <trkpt lat="46.16268" lon="6.80315">
        <ele>1682</ele>
        <time>2010-01-03T05:25:41Z</time>
      </trkpt>
      <trkpt lat="46.16244" lon="6.80272">
        <ele>1676</ele>
        <time>2010-01-03T05:25:56Z</time>
      </trkpt>
      <trkpt lat="46.16224" lon="6.80251">
        <ele>1675</ele>
        <time>2010-01-03T05:26:06Z</time>
      </trkpt>
      <trkpt lat="46.16202" lon="6.80239">
        <ele>1682</ele>
        <time>2010-01-03T05:26:15Z</time>
      </trkpt>
      <trkpt lat="46.16177" lon="6.80208">
        <ele>1684</ele>
        <time>2010-01-03T05:26:28Z</time>
      </trkpt>
      <trkpt lat="46.16156" lon="6.80185">
        <ele>1681</ele>
        <time>2010-01-03T05:26:39Z</time>
      </trkpt>
      <trkpt lat="46.16135" lon="6.80189">
        <ele>1679</ele>
        <time>2010-01-03T05:26:47Z</time>
      </trkpt>
      <trkpt lat="46.16099" lon="6.80189">
        <ele>1680</ele>
        <time>2010-01-03T05:27:02Z</time>
      </trkpt>
      <trkpt lat="46.16057" lon="6.80214">
        <ele>1675</ele>
        <time>2010-01-03T05:27:20Z</time>
      </trkpt>
      <trkpt lat="46.16031" lon="6.80239">
        <ele>1674</ele>
        <time>2010-01-03T05:27:32Z</time>
      </trkpt>
      <trkpt lat="46.16016" lon="6.80264">
        <ele>1661</ele>
        <time>2010-01-03T05:27:42Z</time>
      </trkpt>
      <trkpt lat="46.15981" lon="6.80236">
        <ele>1670</ele>
        <time>2010-01-03T05:27:57Z</time>
      </trkpt>
      <trkpt lat="46.15955" lon="6.80226">
        <ele>1668</ele>
        <time>2010-01-03T05:28:08Z</time>
      </trkpt>
      <trkpt lat="46.15919" lon="6.80218">
        <ele>1665</ele>
        <time>2010-01-03T05:28:23Z</time>
      </trkpt>
      <trkpt lat="46.159" lon="6.80224">
        <ele>1650</ele>
        <time>2010-01-03T05:28:31Z</time>
      </trkpt>
      <trkpt lat="46.15888" lon="6.80208">
        <ele>1649</ele>
        <time>2010-01-03T05:28:37Z</time>
      </trkpt>
      <trkpt lat="46.15869" lon="6.80173">
        <ele>1648</ele>
        <time>2010-01-03T05:28:49Z</time>
      </trkpt>
      <trkpt lat="46.15847" lon="6.8014">
        <ele>1655</ele>
        <time>2010-01-03T05:29:02Z</time>
      </trkpt>
      <trkpt lat="46.15831" lon="6.80109">
        <ele>1649</ele>
        <time>2010-01-03T05:29:13Z</time>
      </trkpt>
      <trkpt lat="46.15816" lon="6.80097">
        <ele>1650</ele>
        <time>2010-01-03T05:29:20Z</time>
      </trkpt>
      <trkpt lat="46.1581" lon="6.80103">
        <ele>1648</ele>
        <time>2010-01-03T05:29:23Z</time>
      </trkpt>
      <trkpt lat="46.1582" lon="6.80143">
        <ele>1643</ele>
        <time>2010-01-03T05:29:35Z</time>
      </trkpt>
      <trkpt lat="46.15831" lon="6.80205">
        <ele>1631</ele>
        <time>2010-01-03T05:29:52Z</time>
      </trkpt>
      <trkpt lat="46.15831" lon="6.80269">
        <ele>1621</ele>
        <time>2010-01-03T05:30:10Z</time>
      </trkpt>
      <trkpt lat="46.1583" lon="6.80331">
        <ele>1613</ele>
        <time>2010-01-03T05:30:27Z</time>
      </trkpt>
      <trkpt lat="46.15834" lon="6.80378">
        <ele>1609</ele>
        <time>2010-01-03T05:30:40Z</time>
      </trkpt>
      <trkpt lat="46.15858" lon="6.80384">
        <ele>1611</ele>
        <time>2010-01-03T05:30:50Z</time>
      </trkpt>
      <trkpt lat="46.159" lon="6.8046">
        <ele>1589</ele>
        <time>2010-01-03T05:31:17Z</time>
      </trkpt>
      <trkpt lat="46.15938" lon="6.8048">
        <ele>1601</ele>
        <time>2010-01-03T05:31:33Z</time>
      </trkpt>
      <trkpt lat="46.15964" lon="6.80507">
        <ele>1583</ele>
        <time>2010-01-03T05:31:46Z</time>
      </trkpt>
      <trkpt lat="46.15969" lon="6.8051">
        <ele>1584</ele>
        <time>2010-01-03T05:31:48Z</time>
      </trkpt>
      <trkpt lat="46.15973" lon="6.80518">
        <ele>1583</ele>
        <time>2010-01-03T05:31:51Z</time>
      </trkpt>
      <trkpt lat="46.15985" lon="6.80534">
        <ele>1580</ele>
        <time>2010-01-03T05:31:58Z</time>
      </trkpt>
      <trkpt lat="46.15971" lon="6.80545">
        <ele>1576</ele>
        <time>2010-01-03T05:32:04Z</time>
      </trkpt>
      <trkpt lat="46.15944" lon="6.80533">
        <ele>1577</ele>
        <time>2010-01-03T05:32:15Z</time>
      </trkpt>
      <trkpt lat="46.15934" lon="6.80535">
        <ele>1576</ele>
        <time>2010-01-03T05:32:19Z</time>
      </trkpt>
      <trkpt lat="46.1592" lon="6.80535">
        <ele>1575</ele>
        <time>2010-01-03T05:32:25Z</time>
      </trkpt>
      <trkpt lat="46.15892" lon="6.80517">
        <ele>1563</ele>
        <time>2010-01-03T05:32:37Z</time>
      </trkpt>
      <trkpt lat="46.15868" lon="6.805">
        <ele>1557</ele>
        <time>2010-01-03T05:32:48Z</time>
      </trkpt>
      <trkpt lat="46.1585" lon="6.80499">
        <ele>1568</ele>
        <time>2010-01-03T05:32:55Z</time>
      </trkpt>
      <trkpt lat="46.15835" lon="6.80499">
        <ele>1554</ele>
        <time>2010-01-03T05:33:01Z</time>
      </trkpt>
      <trkpt lat="46.15831" lon="6.80513">
        <ele>1550</ele>
        <time>2010-01-03T05:33:05Z</time>
      </trkpt>
      <trkpt lat="46.15852" lon="6.8053">
        <ele>1552</ele>
        <time>2010-01-03T05:33:15Z</time>
      </trkpt>
      <trkpt lat="46.15865" lon="6.80539">
        <ele>1553</ele>
        <time>2010-01-03T05:33:21Z</time>
      </trkpt>
      <trkpt lat="46.15875" lon="6.8058">
        <ele>1549</ele>
        <time>2010-01-03T05:33:33Z</time>
      </trkpt>
      <trkpt lat="46.15887" lon="6.80628">
        <ele>1530</ele>
        <time>2010-01-03T05:33:47Z</time>
      </trkpt>
      <trkpt lat="46.15896" lon="6.80653">
        <ele>1527</ele>
        <time>2010-01-03T05:33:55Z</time>
      </trkpt>
      <trkpt lat="46.15903" lon="6.80683">
        <ele>1514</ele>
        <time>2010-01-03T05:34:04Z</time>
      </trkpt>
      <trkpt lat="46.15923" lon="6.80719">
        <ele>1519</ele>
        <time>2010-01-03T05:34:17Z</time>
      </trkpt>
      <trkpt lat="46.15927" lon="6.80725">
        <ele>1518</ele>
        <time>2010-01-03T05:34:19Z</time>
      </trkpt>
      <trkpt lat="46.15948" lon="6.80727">
        <ele>1522</ele>
        <time>2010-01-03T05:34:27Z</time>
      </trkpt>
      <trkpt lat="46.15959" lon="6.8074">
        <ele>1524</ele>
        <time>2010-01-03T05:34:33Z</time>
      </trkpt>
      <trkpt lat="46.15958" lon="6.80926">
        <ele>1499</ele>
        <time>2010-01-03T05:35:24Z</time>
      </trkpt>
      <trkpt lat="46.15959" lon="6.80997">
        <ele>1497</ele>
        <time>2010-01-03T05:35:44Z</time>
      </trkpt>
      <trkpt lat="46.15976" lon="6.81069">
        <ele>1493</ele>
        <time>2010-01-03T05:36:05Z</time>
      </trkpt>
      <trkpt lat="46.15976" lon="6.81183">
        <ele>1475</ele>
        <time>2010-01-03T05:36:37Z</time>
      </trkpt>
      <trkpt lat="46.15983" lon="6.81251">
        <ele>1468</ele>
        <time>2010-01-03T05:36:56Z</time>
      </trkpt>
      <trkpt lat="46.15976" lon="6.81317">
        <ele>1461</ele>
        <time>2010-01-03T05:37:14Z</time>
      </trkpt>
      <trkpt lat="46.15969" lon="6.81391">
        <ele>1454</ele>
        <time>2010-01-03T05:37:35Z</time>
      </trkpt>
      <trkpt lat="46.15955" lon="6.81466">
        <ele>1446</ele>
        <time>2010-01-03T05:37:57Z</time>
      </trkpt>
      <trkpt lat="46.15946" lon="6.81547">
        <ele>1436</ele>
        <time>2010-01-03T05:38:19Z</time>
      </trkpt>
      <trkpt lat="46.15959" lon="6.81658">
        <ele>1430</ele>
        <time>2010-01-03T05:38:51Z</time>
      </trkpt>
      <trkpt lat="46.15969" lon="6.81758">
        <ele>1421</ele>
        <time>2010-01-03T05:39:19Z</time>
      </trkpt>
      <trkpt lat="46.15974" lon="6.81801">
        <ele>1419</ele>
        <time>2010-01-03T05:39:31Z</time>
      </trkpt>
      <trkpt lat="46.15965" lon="6.81908">
        <ele>1412</ele>
        <time>2010-01-03T05:40:00Z</time>
      </trkpt>
      <trkpt lat="46.15976" lon="6.82015">
        <ele>1403</ele>
        <time>2010-01-03T05:40:30Z</time>
      </trkpt>
      <trkpt lat="46.15998" lon="6.82144">
        <ele>1389</ele>
        <time>2010-01-03T05:41:07Z</time>
      </trkpt>
      <trkpt lat="46.15997" lon="6.82268">
        <ele>1377</ele>
        <time>2010-01-03T05:41:42Z</time>
      </trkpt>
      <trkpt lat="46.15991" lon="6.8237">
        <ele>1370</ele>
        <time>2010-01-03T05:42:10Z</time>
      </trkpt>
      <trkpt lat="46.15995" lon="6.82507">
        <ele>1361</ele>
        <time>2010-01-03T05:42:48Z</time>
      </trkpt>
      <trkpt lat="46.16021" lon="6.82576">
        <ele>1362</ele>
        <time>2010-01-03T05:43:10Z</time>
      </trkpt>
      <trkpt lat="46.16064" lon="6.8263">
        <ele>1361</ele>
        <time>2010-01-03T05:43:33Z</time>
      </trkpt>
      <trkpt lat="46.1609" lon="6.82692">
        <ele>1372</ele>
        <time>2010-01-03T05:43:53Z</time>
      </trkpt>
      <trkpt lat="46.16095" lon="6.82788">
        <ele>1363</ele>
        <time>2010-01-03T05:44:20Z</time>
      </trkpt>
      <trkpt lat="46.16092" lon="6.82897">
        <ele>1361</ele>
        <time>2010-01-03T05:44:50Z</time>
      </trkpt>
      <trkpt lat="46.16078" lon="6.82991">
        <ele>1348</ele>
        <time>2010-01-03T05:45:16Z</time>
      </trkpt>
      <trkpt lat="46.16083" lon="6.83076">
        <ele>1338</ele>
        <time>2010-01-03T05:45:40Z</time>
      </trkpt>
      <trkpt lat="46.16136" lon="6.83204">
        <ele>1339</ele>
        <time>2010-01-03T05:46:21Z</time>
      </trkpt>
      <trkpt lat="46.16171" lon="6.83297">
        <ele>1348</ele>
        <time>2010-01-03T05:46:51Z</time>
      </trkpt>
      <trkpt lat="46.16223" lon="6.834">
        <ele>1338</ele>
        <time>2010-01-03T05:47:26Z</time>
      </trkpt>
      <trkpt lat="46.16262" lon="6.8345">
        <ele>1347</ele>
        <time>2010-01-03T05:47:47Z</time>
      </trkpt>
      <trkpt lat="46.16317" lon="6.83532">
        <ele>1336</ele>
        <time>2010-01-03T05:48:19Z</time>
      </trkpt>
      <trkpt lat="46.16362" lon="6.83564">
        <ele>1355</ele>
        <time>2010-01-03T05:48:39Z</time>
      </trkpt>
      <trkpt lat="46.16389" lon="6.83573">
        <ele>1361</ele>
        <time>2010-01-03T05:48:50Z</time>
      </trkpt>
      <trkpt lat="46.16409" lon="6.83609">
        <ele>1356</ele>
        <time>2010-01-03T05:49:03Z</time>
      </trkpt>
      <trkpt lat="46.16381" lon="6.83615">
        <ele>1351</ele>
        <time>2010-01-03T05:49:14Z</time>
      </trkpt>
      <trkpt lat="46.1633" lon="6.8364">
        <ele>1329</ele>
        <time>2010-01-03T05:49:35Z</time>
      </trkpt>
      <trkpt lat="46.16316" lon="6.83762">
        <ele>1348</ele>
        <time>2010-01-03T05:50:10Z</time>
      </trkpt>
      <trkpt lat="46.16298" lon="6.83866">
        <ele>1351</ele>
        <time>2010-01-03T05:50:39Z</time>
      </trkpt>
      <trkpt lat="46.16284" lon="6.83928">
        <ele>1354</ele>
        <time>2010-01-03T05:50:57Z</time>
      </trkpt>
      <trkpt lat="46.16267" lon="6.83961">
        <ele>1352</ele>
        <time>2010-01-03T05:51:09Z</time>
      </trkpt>
      <trkpt lat="46.1625" lon="6.84073">
        <ele>1338</ele>
        <time>2010-01-03T05:51:41Z</time>
      </trkpt>
      <trkpt lat="46.16229" lon="6.84241">
        <ele>1338</ele>
        <time>2010-01-03T05:52:28Z</time>
      </trkpt>
      <trkpt lat="46.16245" lon="6.84272">
        <ele>1339</ele>
        <time>2010-01-03T05:52:39Z</time>
      </trkpt>
      <trkpt lat="46.16222" lon="6.84338">
        <ele>1333</ele>
        <time>2010-01-03T05:52:59Z</time>
      </trkpt>
      <trkpt lat="46.16208" lon="6.84519">
        <ele>1329</ele>
        <time>2010-01-03T05:53:50Z</time>
      </trkpt>
      <trkpt lat="46.16217" lon="6.8471">
        <ele>1321</ele>
        <time>2010-01-03T05:54:43Z</time>
      </trkpt>
      <trkpt lat="46.16233" lon="6.84901">
        <ele>1292</ele>
        <time>2010-01-03T05:55:36Z</time>
      </trkpt>
      <trkpt lat="46.16256" lon="6.8495">
        <ele>1310</ele>
        <time>2010-01-03T05:55:52Z</time>
      </trkpt>
      <trkpt lat="46.16257" lon="6.84955">
        <ele>1309</ele>
        <time>2010-01-03T05:55:54Z</time>
      </trkpt>
      <trkpt lat="46.16264" lon="6.84999">
        <ele>1294</ele>
        <time>2010-01-03T05:56:07Z</time>
      </trkpt>
      <trkpt lat="46.16298" lon="6.85071">
        <ele>1294</ele>
        <time>2010-01-03T05:56:31Z</time>
      </trkpt>
      <trkpt lat="46.16326" lon="6.85135">
        <ele>1275</ele>
        <time>2010-01-03T05:56:52Z</time>
      </trkpt>
      <trkpt lat="46.16348" lon="6.85192">
        <ele>1277</ele>
        <time>2010-01-03T05:57:10Z</time>
      </trkpt>
      <trkpt lat="46.1637" lon="6.85214">
        <ele>1278</ele>
        <time>2010-01-03T05:57:21Z</time>
      </trkpt>
      <trkpt lat="46.164" lon="6.8526">
        <ele>1266</ele>
        <time>2010-01-03T05:57:38Z</time>
      </trkpt>
      <trkpt lat="46.16426" lon="6.85303">
        <ele>1276</ele>
        <time>2010-01-03T05:57:54Z</time>
      </trkpt>
      <trkpt lat="46.16452" lon="6.85357">
        <ele>1259</ele>
        <time>2010-01-03T05:58:12Z</time>
      </trkpt>
      <trkpt lat="46.165" lon="6.8542">
        <ele>1258</ele>
        <time>2010-01-03T05:58:38Z</time>
      </trkpt>
      <trkpt lat="46.16538" lon="6.85501">
        <ele>1234</ele>
        <time>2010-01-03T05:59:05Z</time>
      </trkpt>
      <trkpt lat="46.16585" lon="6.85546">
        <ele>1247</ele>
        <time>2010-01-03T05:59:28Z</time>
      </trkpt>
      <trkpt lat="46.16606" lon="6.85563">
        <ele>1246</ele>
        <time>2010-01-03T05:59:37Z</time>
      </trkpt>
      <trkpt lat="46.16604" lon="6.85596">
        <ele>1226</ele>
        <time>2010-01-03T05:59:47Z</time>
      </trkpt>
      <trkpt lat="46.16649" lon="6.85667">
        <ele>1225</ele>
        <time>2010-01-03T06:00:13Z</time>
      </trkpt>
      <trkpt lat="46.16664" lon="6.85714">
        <ele>1200</ele>
        <time>2010-01-03T06:00:28Z</time>
      </trkpt>
      <trkpt lat="46.16697" lon="6.8574">
        <ele>1222</ele>
        <time>2010-01-03T06:00:43Z</time>
      </trkpt>
      <trkpt lat="46.16755" lon="6.85823">
        <ele>1204</ele>
        <time>2010-01-03T06:01:15Z</time>
      </trkpt>
      <trkpt lat="46.16785" lon="6.85878">
        <ele>1187</ele>
        <time>2010-01-03T06:01:35Z</time>
      </trkpt>
      <trkpt lat="46.1683" lon="6.85914">
        <ele>1185</ele>
        <time>2010-01-03T06:01:56Z</time>
      </trkpt>
      <trkpt lat="46.16844" lon="6.85913">
        <ele>1193</ele>
        <time>2010-01-03T06:02:01Z</time>
      </trkpt>
      <trkpt lat="46.16844" lon="6.85977">
        <ele>1177</ele>
        <time>2010-01-03T06:02:19Z</time>
      </trkpt>
      <trkpt lat="46.16882" lon="6.86028">
        <ele>1163</ele>
        <time>2010-01-03T06:02:39Z</time>
      </trkpt>
      <trkpt lat="46.16946" lon="6.8607">
        <ele>1165</ele>
        <time>2010-01-03T06:03:08Z</time>
      </trkpt>
      <trkpt lat="46.16987" lon="6.86095">
        <ele>1151</ele>
        <time>2010-01-03T06:03:26Z</time>
      </trkpt>
      <trkpt lat="46.17021" lon="6.86111">
        <ele>1154</ele>
        <time>2010-01-03T06:03:40Z</time>
      </trkpt>
      <trkpt lat="46.17098" lon="6.86201">
        <ele>1137</ele>
        <time>2010-01-03T06:04:20Z</time>
      </trkpt>
      <trkpt lat="46.17149" lon="6.86283">
        <ele>1111</ele>
        <time>2010-01-03T06:04:50Z</time>
      </trkpt>
      <trkpt lat="46.1721" lon="6.86291">
        <ele>1116</ele>
        <time>2010-01-03T06:05:14Z</time>
      </trkpt>
      <trkpt lat="46.17249" lon="6.86279">
        <ele>1121</ele>
        <time>2010-01-03T06:05:30Z</time>
      </trkpt>
      <trkpt lat="46.17253" lon="6.86283">
        <ele>1126</ele>
        <time>2010-01-03T06:05:32Z</time>
      </trkpt>
      <trkpt lat="46.17298" lon="6.86338">
        <ele>1106</ele>
        <time>2010-01-03T06:05:56Z</time>
      </trkpt>
      <trkpt lat="46.17317" lon="6.86401">
        <ele>1100</ele>
        <time>2010-01-03T06:06:15Z</time>
      </trkpt>
      <trkpt lat="46.17356" lon="6.86425">
        <ele>1101</ele>
        <time>2010-01-03T06:06:32Z</time>
      </trkpt>
      <trkpt lat="46.17372" lon="6.86515">
        <ele>1086</ele>
        <time>2010-01-03T06:06:58Z</time>
      </trkpt>
      <trkpt lat="46.17396" lon="6.86584">
        <ele>1074</ele>
        <time>2010-01-03T06:07:19Z</time>
      </trkpt>
      <trkpt lat="46.17397" lon="6.866">
        <ele>1073</ele>
        <time>2010-01-03T06:07:24Z</time>
      </trkpt>
      <trkpt lat="46.17407" lon="6.86608">
        <ele>1073</ele>
        <time>2010-01-03T06:07:28Z</time>
      </trkpt>
      <trkpt lat="46.17426" lon="6.8662">
        <ele>1076</ele>
        <time>2010-01-03T06:07:36Z</time>
      </trkpt>
      <trkpt lat="46.17442" lon="6.86629">
        <ele>1076</ele>
        <time>2010-01-03T06:07:43Z</time>
      </trkpt>
      <trkpt lat="46.1746" lon="6.86636">
        <ele>1076</ele>
        <time>2010-01-03T06:07:51Z</time>
      </trkpt>
      <trkpt lat="46.17481" lon="6.86644">
        <ele>1075</ele>
        <time>2010-01-03T06:08:00Z</time>
      </trkpt>
      <trkpt lat="46.17503" lon="6.86651">
        <ele>1077</ele>
        <time>2010-01-03T06:08:09Z</time>
      </trkpt>
      <trkpt lat="46.17505" lon="6.86652">
        <ele>1077</ele>
        <time>2010-01-03T06:08:10Z</time>
      </trkpt>
      <trkpt lat="46.17519" lon="6.86659">
        <ele>1078</ele>
        <time>2010-01-03T06:08:15Z</time>
      </trkpt>
      <trkpt lat="46.17527" lon="6.86671">
        <ele>1068</ele>
        <time>2010-01-03T06:08:20Z</time>
      </trkpt>
      <trkpt lat="46.1752" lon="6.86679">
        <ele>1068</ele>
        <time>2010-01-03T06:08:24Z</time>
      </trkpt>
      <trkpt lat="46.17513" lon="6.86695">
        <ele>1067</ele>
        <time>2010-01-03T06:08:29Z</time>
      </trkpt>
      <trkpt lat="46.17483" lon="6.86726">
        <ele>1061</ele>
        <time>2010-01-03T06:08:44Z</time>
      </trkpt>
      <trkpt lat="46.17438" lon="6.86766">
        <ele>1055</ele>
        <time>2010-01-03T06:09:05Z</time>
      </trkpt>
      <trkpt lat="46.17434" lon="6.8678">
        <ele>1055</ele>
        <time>2010-01-03T06:09:09Z</time>
      </trkpt>
      <trkpt lat="46.17472" lon="6.86855">
        <ele>1047</ele>
        <time>2010-01-03T06:09:35Z</time>
      </trkpt>
      <trkpt lat="46.175" lon="6.86899">
        <ele>1045</ele>
        <time>2010-01-03T06:09:51Z</time>
      </trkpt>
      <trkpt lat="46.17523" lon="6.86932">
        <ele>1042</ele>
        <time>2010-01-03T06:10:04Z</time>
      </trkpt>
      <trkpt lat="46.17529" lon="6.8696">
        <ele>1041</ele>
        <time>2010-01-03T06:10:13Z</time>
      </trkpt>
      <trkpt lat="46.17515" lon="6.87021">
        <ele>1037</ele>
        <time>2010-01-03T06:10:30Z</time>
      </trkpt>
      <trkpt lat="46.17507" lon="6.87048">
        <ele>1036</ele>
        <time>2010-01-03T06:10:38Z</time>
      </trkpt>
      <trkpt lat="46.17507" lon="6.87105">
        <ele>1033</ele>
        <time>2010-01-03T06:10:54Z</time>
      </trkpt>
      <trkpt lat="46.17501" lon="6.87144">
        <ele>1032</ele>
        <time>2010-01-03T06:11:05Z</time>
      </trkpt>
      <trkpt lat="46.17481" lon="6.87111">
        <ele>1031</ele>
        <time>2010-01-03T06:11:18Z</time>
      </trkpt>
      <trkpt lat="46.17493" lon="6.8709">
        <ele>1033</ele>
        <time>2010-01-03T06:11:25Z</time>
      </trkpt>
      <trkpt lat="46.175" lon="6.87086">
        <ele>1034</ele>
        <time>2010-01-03T06:11:28Z</time>
      </trkpt>
      <trkpt lat="46.1749" lon="6.87065">
        <ele>1036</ele>
        <time>2010-01-03T06:11:35Z</time>
      </trkpt>
      <trkpt lat="46.17486" lon="6.8681">
        <ele>1053</ele>
        <time>2010-01-03T06:12:46Z</time>
      </trkpt>
      <trkpt lat="46.17481" lon="6.86446">
        <ele>1129</ele>
        <time>2010-01-03T06:14:27Z</time>
      </trkpt>
      <trkpt lat="46.17478" lon="6.86232">
        <ele>1202</ele>
        <time>2010-01-03T06:15:26Z</time>
      </trkpt>
      <trkpt lat="46.17478" lon="6.86123">
        <ele>1230</ele>
        <time>2010-01-03T06:15:56Z</time>
      </trkpt>
      <trkpt lat="46.17492" lon="6.86061">
        <ele>1259</ele>
        <time>2010-01-03T06:16:15Z</time>
      </trkpt>
      <trkpt lat="46.17494" lon="6.86037">
        <ele>1265</ele>
        <time>2010-01-03T06:16:21Z</time>
      </trkpt>
      <trkpt lat="46.17495" lon="6.86002">
        <ele>1283</ele>
        <time>2010-01-03T06:16:31Z</time>
      </trkpt>
      <trkpt lat="46.17496" lon="6.8598">
        <ele>1291</ele>
        <time>2010-01-03T06:16:37Z</time>
      </trkpt>
      <trkpt lat="46.17498" lon="6.85932">
        <ele>1306</ele>
        <time>2010-01-03T06:16:50Z</time>
      </trkpt>
      <trkpt lat="46.175" lon="6.85823">
        <ele>1347</ele>
        <time>2010-01-03T06:17:21Z</time>
      </trkpt>
      <trkpt lat="46.17512" lon="6.85483">
        <ele>1491</ele>
        <time>2010-01-03T06:18:55Z</time>
      </trkpt>
      <trkpt lat="46.17514" lon="6.8522">
        <ele>1559</ele>
        <time>2010-01-03T06:20:08Z</time>
      </trkpt>
      <trkpt lat="46.17509" lon="6.84825">
        <ele>1764</ele>
        <time>2010-01-03T06:21:57Z</time>
      </trkpt>
      <trkpt lat="46.17508" lon="6.84784">
        <ele>1788</ele>
        <time>2010-01-03T06:22:09Z</time>
      </trkpt>
      <trkpt lat="46.17508" lon="6.84695">
        <ele>1861</ele>
        <time>2010-01-03T06:22:33Z</time>
      </trkpt>
      <trkpt lat="46.17505" lon="6.84673">
        <ele>1884</ele>
        <time>2010-01-03T06:22:40Z</time>
      </trkpt>
      <trkpt lat="46.17506" lon="6.84658">
        <ele>1901</ele>
        <time>2010-01-03T06:22:44Z</time>
      </trkpt>
      <trkpt lat="46.17507" lon="6.84623">
        <ele>1910</ele>
        <time>2010-01-03T06:22:53Z</time>
      </trkpt>
      <trkpt lat="46.17509" lon="6.84617">
        <ele>1912</ele>
        <time>2010-01-03T06:22:55Z</time>
      </trkpt>
      <trkpt lat="46.17512" lon="6.84614">
        <ele>1913</ele>
        <time>2010-01-03T06:22:57Z</time>
      </trkpt>
      <trkpt lat="46.17514" lon="6.84612">
        <ele>1913</ele>
        <time>2010-01-03T06:22:58Z</time>
      </trkpt>
      <trkpt lat="46.17514" lon="6.84611">
        <ele>1914</ele>
        <time>2010-01-03T06:22:58Z</time>
      </trkpt>
      <trkpt lat="46.17514" lon="6.84605">
        <ele>1916</ele>
        <time>2010-01-03T06:23:00Z</time>
      </trkpt>
      <trkpt lat="46.17509" lon="6.84598">
        <ele>1919</ele>
        <time>2010-01-03T06:23:02Z</time>
      </trkpt>
      <trkpt lat="46.17502" lon="6.84581">
        <ele>1929</ele>
        <time>2010-01-03T06:23:08Z</time>
      </trkpt>
      <trkpt lat="46.17513" lon="6.84566">
        <ele>1929</ele>
        <time>2010-01-03T06:23:14Z</time>
      </trkpt>
      <trkpt lat="46.17515" lon="6.84533">
        <ele>1928</ele>
        <time>2010-01-03T06:23:23Z</time>
      </trkpt>
      <trkpt lat="46.17518" lon="6.84524">
        <ele>1928</ele>
        <time>2010-01-03T06:23:26Z</time>
      </trkpt>
      <trkpt lat="46.17518" lon="6.84524">
        <ele>1928</ele>
        <time>2010-01-03T06:23:26Z</time>
      </trkpt>
      <trkpt lat="46.17518" lon="6.84523">
        <ele>1927</ele>
        <time>2010-01-03T06:23:26Z</time>
      </trkpt>
      <trkpt lat="46.17522" lon="6.84511">
        <ele>1927</ele>
        <time>2010-01-03T06:23:30Z</time>
      </trkpt>
      <trkpt lat="46.17522" lon="6.84508">
        <ele>1927</ele>
        <time>2010-01-03T06:23:31Z</time>
      </trkpt>
      <trkpt lat="46.17523" lon="6.84507">
        <ele>1927</ele>
        <time>2010-01-03T06:23:31Z</time>
      </trkpt>
      <trkpt lat="46.17528" lon="6.84494">
        <ele>1921</ele>
        <time>2010-01-03T06:23:35Z</time>
      </trkpt>
      <trkpt lat="46.17529" lon="6.84492">
        <ele>1921</ele>
        <time>2010-01-03T06:23:36Z</time>
      </trkpt>
      <trkpt lat="46.17542" lon="6.84469">
        <ele>1919</ele>
        <time>2010-01-03T06:23:44Z</time>
      </trkpt>
      <trkpt lat="46.17542" lon="6.84469">
        <ele>1919</ele>
        <time>2010-01-03T06:23:44Z</time>
      </trkpt>
      <trkpt lat="46.17551" lon="6.84462">
        <ele>1919</ele>
        <time>2010-01-03T06:23:48Z</time>
      </trkpt>
      <trkpt lat="46.17559" lon="6.84451">
        <ele>1918</ele>
        <time>2010-01-03T06:23:53Z</time>
      </trkpt>
      <trkpt lat="46.17565" lon="6.84448">
        <ele>1918</ele>
        <time>2010-01-03T06:23:55Z</time>
      </trkpt>
      <trkpt lat="46.17568" lon="6.84448">
        <ele>1918</ele>
        <time>2010-01-03T06:23:56Z</time>
      </trkpt>
      <trkpt lat="46.17569" lon="6.84448">
        <ele>1918</ele>
        <time>2010-01-03T06:23:57Z</time>
      </trkpt>
      <trkpt lat="46.17572" lon="6.84441">
        <ele>1917</ele>
        <time>2010-01-03T06:23:59Z</time>
      </trkpt>
      <trkpt lat="46.17572" lon="6.84431">
        <ele>1916</ele>
        <time>2010-01-03T06:24:02Z</time>
      </trkpt>
      <trkpt lat="46.17573" lon="6.84428">
        <ele>1916</ele>
        <time>2010-01-03T06:24:03Z</time>
      </trkpt>
      <trkpt lat="46.17574" lon="6.84413">
        <ele>1911</ele>
        <time>2010-01-03T06:24:07Z</time>
      </trkpt>
      <trkpt lat="46.17574" lon="6.84413">
        <ele>1910</ele>
        <time>2010-01-03T06:24:07Z</time>
      </trkpt>
      <trkpt lat="46.17571" lon="6.84407">
        <ele>1909</ele>
        <time>2010-01-03T06:24:09Z</time>
      </trkpt>
      <trkpt lat="46.17571" lon="6.84404">
        <ele>1909</ele>
        <time>2010-01-03T06:24:10Z</time>
      </trkpt>
      <trkpt lat="46.17574" lon="6.8437">
        <ele>1904</ele>
        <time>2010-01-03T06:24:19Z</time>
      </trkpt>
      <trkpt lat="46.17575" lon="6.84347">
        <ele>1903</ele>
        <time>2010-01-03T06:24:26Z</time>
      </trkpt>
      <trkpt lat="46.1758" lon="6.84305">
        <ele>1899</ele>
        <time>2010-01-03T06:24:37Z</time>
      </trkpt>
      <trkpt lat="46.17572" lon="6.84284">
        <ele>1898</ele>
        <time>2010-01-03T06:24:44Z</time>
      </trkpt>
      <trkpt lat="46.1757" lon="6.84264">
        <ele>1899</ele>
        <time>2010-01-03T06:24:50Z</time>
      </trkpt>
      <trkpt lat="46.17565" lon="6.84244">
        <ele>1897</ele>
        <time>2010-01-03T06:24:55Z</time>
      </trkpt>
      <trkpt lat="46.17569" lon="6.84194">
        <ele>1895</ele>
        <time>2010-01-03T06:25:09Z</time>
      </trkpt>
      <trkpt lat="46.17577" lon="6.84162">
        <ele>1897</ele>
        <time>2010-01-03T06:25:19Z</time>
      </trkpt>
      <trkpt lat="46.17583" lon="6.84138">
        <ele>1891</ele>
        <time>2010-01-03T06:25:26Z</time>
      </trkpt>
      <trkpt lat="46.17588" lon="6.84109">
        <ele>1900</ele>
        <time>2010-01-03T06:25:34Z</time>
      </trkpt>
      <trkpt lat="46.17588" lon="6.84088">
        <ele>1897</ele>
        <time>2010-01-03T06:25:40Z</time>
      </trkpt>
      <trkpt lat="46.1761" lon="6.84003">
        <ele>1897</ele>
        <time>2010-01-03T06:26:05Z</time>
      </trkpt>
      <trkpt lat="46.17624" lon="6.83911">
        <ele>1882</ele>
        <time>2010-01-03T06:26:31Z</time>
      </trkpt>
      <trkpt lat="46.17634" lon="6.83854">
        <ele>1879</ele>
        <time>2010-01-03T06:26:47Z</time>
      </trkpt>
      <trkpt lat="46.17645" lon="6.8383">
        <ele>1872</ele>
        <time>2010-01-03T06:26:55Z</time>
      </trkpt>
      <trkpt lat="46.17671" lon="6.83777">
        <ele>1872</ele>
        <time>2010-01-03T06:27:13Z</time>
      </trkpt>
      <trkpt lat="46.17687" lon="6.83758">
        <ele>1870</ele>
        <time>2010-01-03T06:27:22Z</time>
      </trkpt>
      <trkpt lat="46.17702" lon="6.83752">
        <ele>1870</ele>
        <time>2010-01-03T06:27:28Z</time>
      </trkpt>
      <trkpt lat="46.1772" lon="6.8374">
        <ele>1858</ele>
        <time>2010-01-03T06:27:36Z</time>
      </trkpt>
      <trkpt lat="46.17739" lon="6.8374">
        <ele>1860</ele>
        <time>2010-01-03T06:27:44Z</time>
      </trkpt>
      <trkpt lat="46.17754" lon="6.83725">
        <ele>1856</ele>
        <time>2010-01-03T06:27:51Z</time>
      </trkpt>
      <trkpt lat="46.17765" lon="6.8371">
        <ele>1853</ele>
        <time>2010-01-03T06:27:57Z</time>
      </trkpt>
      <trkpt lat="46.17768" lon="6.83688">
        <ele>1851</ele>
        <time>2010-01-03T06:28:03Z</time>
      </trkpt>
      <trkpt lat="46.17768" lon="6.83686">
        <ele>1851</ele>
        <time>2010-01-03T06:28:04Z</time>
      </trkpt>
      <trkpt lat="46.17768" lon="6.83672">
        <ele>1850</ele>
        <time>2010-01-03T06:28:08Z</time>
      </trkpt>
      <trkpt lat="46.17754" lon="6.83653">
        <ele>1845</ele>
        <time>2010-01-03T06:28:15Z</time>
      </trkpt>
      <trkpt lat="46.17744" lon="6.83632">
        <ele>1842</ele>
        <time>2010-01-03T06:28:22Z</time>
      </trkpt>
      <trkpt lat="46.1774" lon="6.83609">
        <ele>1840</ele>
        <time>2010-01-03T06:28:29Z</time>
      </trkpt>
      <trkpt lat="46.1775" lon="6.83569">
        <ele>1833</ele>
        <time>2010-01-03T06:28:41Z</time>
      </trkpt>
      <trkpt lat="46.17759" lon="6.83538">
        <ele>1829</ele>
        <time>2010-01-03T06:28:50Z</time>
      </trkpt>
      <trkpt lat="46.17769" lon="6.83504">
        <ele>1828</ele>
        <time>2010-01-03T06:29:00Z</time>
      </trkpt>
      <trkpt lat="46.17772" lon="6.83484">
        <ele>1823</ele>
        <time>2010-01-03T06:29:06Z</time>
      </trkpt>
      <trkpt lat="46.17775" lon="6.83464">
        <ele>1821</ele>
        <time>2010-01-03T06:29:12Z</time>
      </trkpt>
      <trkpt lat="46.17778" lon="6.83437">
        <ele>1820</ele>
        <time>2010-01-03T06:29:19Z</time>
      </trkpt>
      <trkpt lat="46.17778" lon="6.83435">
        <ele>1820</ele>
        <time>2010-01-03T06:29:20Z</time>
      </trkpt>
      <trkpt lat="46.17772" lon="6.83412">
        <ele>1816</ele>
        <time>2010-01-03T06:29:27Z</time>
      </trkpt>
      <trkpt lat="46.17767" lon="6.83396">
        <ele>1816</ele>
        <time>2010-01-03T06:29:31Z</time>
      </trkpt>
      <trkpt lat="46.17757" lon="6.83371">
        <ele>1813</ele>
        <time>2010-01-03T06:29:40Z</time>
      </trkpt>
      <trkpt lat="46.17749" lon="6.83356">
        <ele>1809</ele>
        <time>2010-01-03T06:29:45Z</time>
      </trkpt>
      <trkpt lat="46.17755" lon="6.83347">
        <ele>1811</ele>
        <time>2010-01-03T06:29:48Z</time>
      </trkpt>
      <trkpt lat="46.17761" lon="6.83336">
        <ele>1811</ele>
        <time>2010-01-03T06:29:52Z</time>
      </trkpt>
      <trkpt lat="46.17769" lon="6.83316">
        <ele>1808</ele>
        <time>2010-01-03T06:29:58Z</time>
      </trkpt>
      <trkpt lat="46.17785" lon="6.83269">
        <ele>1807</ele>
        <time>2010-01-03T06:30:13Z</time>
      </trkpt>
      <trkpt lat="46.17805" lon="6.83222">
        <ele>1806</ele>
        <time>2010-01-03T06:30:28Z</time>
      </trkpt>
      <trkpt lat="46.17805" lon="6.83205">
        <ele>1806</ele>
        <time>2010-01-03T06:30:33Z</time>
      </trkpt>
      <trkpt lat="46.17821" lon="6.83135">
        <ele>1805</ele>
        <time>2010-01-03T06:30:53Z</time>
      </trkpt>
      <trkpt lat="46.17842" lon="6.83057">
        <ele>1805</ele>
        <time>2010-01-03T06:31:16Z</time>
      </trkpt>
      <trkpt lat="46.17846" lon="6.83046">
        <ele>1805</ele>
        <time>2010-01-03T06:31:20Z</time>
      </trkpt>
      <trkpt lat="46.17851" lon="6.83049">
        <ele>1804</ele>
        <time>2010-01-03T06:31:22Z</time>
      </trkpt>
      <trkpt lat="46.1786" lon="6.83049">
        <ele>1804</ele>
        <time>2010-01-03T06:31:26Z</time>
      </trkpt>
      <trkpt lat="46.1787" lon="6.83039">
        <ele>1803</ele>
        <time>2010-01-03T06:31:30Z</time>
      </trkpt>
      <trkpt lat="46.17883" lon="6.83015">
        <ele>1802</ele>
        <time>2010-01-03T06:31:39Z</time>
      </trkpt>
      <trkpt lat="46.17891" lon="6.82982">
        <ele>1804</ele>
        <time>2010-01-03T06:31:49Z</time>
      </trkpt>
      <trkpt lat="46.17896" lon="6.82958">
        <ele>1805</ele>
        <time>2010-01-03T06:31:55Z</time>
      </trkpt>
      <trkpt lat="46.17901" lon="6.8295">
        <ele>1805</ele>
        <time>2010-01-03T06:31:59Z</time>
      </trkpt>
      <trkpt lat="46.17907" lon="6.82949">
        <ele>1805</ele>
        <time>2010-01-03T06:32:01Z</time>
      </trkpt>
      <trkpt lat="46.17911" lon="6.82957">
        <ele>1805</ele>
        <time>2010-01-03T06:32:04Z</time>
      </trkpt>
      <trkpt lat="46.17915" lon="6.82976">
        <ele>1803</ele>
        <time>2010-01-03T06:32:09Z</time>
      </trkpt>
      <trkpt lat="46.17918" lon="6.82989">
        <ele>1793</ele>
        <time>2010-01-03T06:32:13Z</time>
      </trkpt>
      <trkpt lat="46.17925" lon="6.83">
        <ele>1794</ele>
        <time>2010-01-03T06:32:17Z</time>
      </trkpt>
      <trkpt lat="46.17928" lon="6.83025">
        <ele>1788</ele>
        <time>2010-01-03T06:32:24Z</time>
      </trkpt>
      <trkpt lat="46.17928" lon="6.83049">
        <ele>1787</ele>
        <time>2010-01-03T06:32:31Z</time>
      </trkpt>
      <trkpt lat="46.17928" lon="6.83068">
        <ele>1788</ele>
        <time>2010-01-03T06:32:36Z</time>
      </trkpt>
      <trkpt lat="46.17929" lon="6.83082">
        <ele>1790</ele>
        <time>2010-01-03T06:32:40Z</time>
      </trkpt>
      <trkpt lat="46.1793" lon="6.83094">
        <ele>1790</ele>
        <time>2010-01-03T06:32:43Z</time>
      </trkpt>
      <trkpt lat="46.17935" lon="6.83104">
        <ele>1788</ele>
        <time>2010-01-03T06:32:47Z</time>
      </trkpt>
      <trkpt lat="46.17939" lon="6.83104">
        <ele>1788</ele>
        <time>2010-01-03T06:32:48Z</time>
      </trkpt>
      <trkpt lat="46.1794" lon="6.83101">
        <ele>1788</ele>
        <time>2010-01-03T06:32:49Z</time>
      </trkpt>
      <trkpt lat="46.17942" lon="6.83086">
        <ele>1788</ele>
        <time>2010-01-03T06:32:53Z</time>
      </trkpt>
      <trkpt lat="46.17942" lon="6.83085">
        <ele>1788</ele>
        <time>2010-01-03T06:32:54Z</time>
      </trkpt>
      <trkpt lat="46.17942" lon="6.83084">
        <ele>1788</ele>
        <time>2010-01-03T06:32:54Z</time>
      </trkpt>
      <trkpt lat="46.17952" lon="6.83042">
        <ele>1784</ele>
        <time>2010-01-03T06:33:06Z</time>
      </trkpt>
      <trkpt lat="46.17952" lon="6.83041">
        <ele>1783</ele>
        <time>2010-01-03T06:33:06Z</time>
      </trkpt>
      <trkpt lat="46.17953" lon="6.83039">
        <ele>1783</ele>
        <time>2010-01-03T06:33:07Z</time>
      </trkpt>
      <trkpt lat="46.17962" lon="6.83006">
        <ele>1781</ele>
        <time>2010-01-03T06:33:17Z</time>
      </trkpt>
      <trkpt lat="46.17963" lon="6.83003">
        <ele>1781</ele>
        <time>2010-01-03T06:33:18Z</time>
      </trkpt>
      <trkpt lat="46.17967" lon="6.82971">
        <ele>1784</ele>
        <time>2010-01-03T06:33:27Z</time>
      </trkpt>
      <trkpt lat="46.17967" lon="6.8297">
        <ele>1784</ele>
        <time>2010-01-03T06:33:27Z</time>
      </trkpt>
      <trkpt lat="46.1797" lon="6.82948">
        <ele>1785</ele>
        <time>2010-01-03T06:33:33Z</time>
      </trkpt>
      <trkpt lat="46.17972" lon="6.82946">
        <ele>1785</ele>
        <time>2010-01-03T06:33:34Z</time>
      </trkpt>
      <trkpt lat="46.17988" lon="6.82931">
        <ele>1783</ele>
        <time>2010-01-03T06:33:42Z</time>
      </trkpt>
      <trkpt lat="46.17989" lon="6.8293">
        <ele>1783</ele>
        <time>2010-01-03T06:33:42Z</time>
      </trkpt>
      <trkpt lat="46.18017" lon="6.82929">
        <ele>1771</ele>
        <time>2010-01-03T06:33:54Z</time>
      </trkpt>
      <trkpt lat="46.18047" lon="6.82923">
        <ele>1767</ele>
        <time>2010-01-03T06:34:06Z</time>
      </trkpt>
      <trkpt lat="46.18065" lon="6.82906">
        <ele>1773</ele>
        <time>2010-01-03T06:34:14Z</time>
      </trkpt>
      <trkpt lat="46.18085" lon="6.82896">
        <ele>1764</ele>
        <time>2010-01-03T06:34:23Z</time>
      </trkpt>
      <trkpt lat="46.18101" lon="6.82898">
        <ele>1763</ele>
        <time>2010-01-03T06:34:29Z</time>
      </trkpt>
      <trkpt lat="46.1812" lon="6.82887">
        <ele>1763</ele>
        <time>2010-01-03T06:34:38Z</time>
      </trkpt>
      <trkpt lat="46.18133" lon="6.82881">
        <ele>1762</ele>
        <time>2010-01-03T06:34:43Z</time>
      </trkpt>
      <trkpt lat="46.18142" lon="6.82884">
        <ele>1761</ele>
        <time>2010-01-03T06:34:46Z</time>
      </trkpt>
      <trkpt lat="46.18143" lon="6.82904">
        <ele>1758</ele>
        <time>2010-01-03T06:34:52Z</time>
      </trkpt>
      <trkpt lat="46.18124" lon="6.82935">
        <ele>1750</ele>
        <time>2010-01-03T06:35:04Z</time>
      </trkpt>
      <trkpt lat="46.18115" lon="6.82951">
        <ele>1750</ele>
        <time>2010-01-03T06:35:09Z</time>
      </trkpt>
      <trkpt lat="46.18087" lon="6.82999">
        <ele>1749</ele>
        <time>2010-01-03T06:35:27Z</time>
      </trkpt>
      <trkpt lat="46.18077" lon="6.83031">
        <ele>1753</ele>
        <time>2010-01-03T06:35:36Z</time>
      </trkpt>
      <trkpt lat="46.18076" lon="6.83049">
        <ele>1752</ele>
        <time>2010-01-03T06:35:42Z</time>
      </trkpt>
      <trkpt lat="46.18085" lon="6.83064">
        <ele>1738</ele>
        <time>2010-01-03T06:35:47Z</time>
      </trkpt>
      <trkpt lat="46.18093" lon="6.83087">
        <ele>1737</ele>
        <time>2010-01-03T06:35:54Z</time>
      </trkpt>
      <trkpt lat="46.18098" lon="6.83103">
        <ele>1735</ele>
        <time>2010-01-03T06:35:59Z</time>
      </trkpt>
      <trkpt lat="46.18107" lon="6.83124">
        <ele>1733</ele>
        <time>2010-01-03T06:36:06Z</time>
      </trkpt>
      <trkpt lat="46.1812" lon="6.83139">
        <ele>1732</ele>
        <time>2010-01-03T06:36:13Z</time>
      </trkpt>
      <trkpt lat="46.18138" lon="6.83155">
        <ele>1728</ele>
        <time>2010-01-03T06:36:21Z</time>
      </trkpt>
      <trkpt lat="46.18147" lon="6.83171">
        <ele>1727</ele>
        <time>2010-01-03T06:36:27Z</time>
      </trkpt>
      <trkpt lat="46.18153" lon="6.83176">
        <ele>1726</ele>
        <time>2010-01-03T06:36:30Z</time>
      </trkpt>
      <trkpt lat="46.18161" lon="6.83188">
        <ele>1727</ele>
        <time>2010-01-03T06:36:34Z</time>
      </trkpt>
      <trkpt lat="46.18167" lon="6.83194">
        <ele>1716</ele>
        <time>2010-01-03T06:36:37Z</time>
      </trkpt>
      <trkpt lat="46.18176" lon="6.83195">
        <ele>1715</ele>
        <time>2010-01-03T06:36:41Z</time>
      </trkpt>
      <trkpt lat="46.18177" lon="6.83195">
        <ele>1715</ele>
        <time>2010-01-03T06:36:41Z</time>
      </trkpt>
      <trkpt lat="46.18186" lon="6.83196">
        <ele>1714</ele>
        <time>2010-01-03T06:36:45Z</time>
      </trkpt>
      <trkpt lat="46.18193" lon="6.83203">
        <ele>1714</ele>
        <time>2010-01-03T06:36:48Z</time>
      </trkpt>
      <trkpt lat="46.182" lon="6.83213">
        <ele>1713</ele>
        <time>2010-01-03T06:36:52Z</time>
      </trkpt>
      <trkpt lat="46.18208" lon="6.8322">
        <ele>1713</ele>
        <time>2010-01-03T06:36:56Z</time>
      </trkpt>
      <trkpt lat="46.18214" lon="6.83212">
        <ele>1712</ele>
        <time>2010-01-03T06:36:59Z</time>
      </trkpt>
      <trkpt lat="46.18214" lon="6.83202">
        <ele>1711</ele>
        <time>2010-01-03T06:37:02Z</time>
      </trkpt>
      <trkpt lat="46.18208" lon="6.83177">
        <ele>1712</ele>
        <time>2010-01-03T06:37:09Z</time>
      </trkpt>
      <trkpt lat="46.18205" lon="6.83169">
        <ele>1712</ele>
        <time>2010-01-03T06:37:12Z</time>
      </trkpt>
      <trkpt lat="46.18205" lon="6.83168">
        <ele>1712</ele>
        <time>2010-01-03T06:37:12Z</time>
      </trkpt>
      <trkpt lat="46.18206" lon="6.83157">
        <ele>1712</ele>
        <time>2010-01-03T06:37:15Z</time>
      </trkpt>
      <trkpt lat="46.18208" lon="6.83155">
        <ele>1711</ele>
        <time>2010-01-03T06:37:16Z</time>
      </trkpt>
      <trkpt lat="46.18242" lon="6.83131">
        <ele>1709</ele>
        <time>2010-01-03T06:37:31Z</time>
      </trkpt>
      <trkpt lat="46.18267" lon="6.83124">
        <ele>1705</ele>
        <time>2010-01-03T06:37:41Z</time>
      </trkpt>
      <trkpt lat="46.18261" lon="6.83161">
        <ele>1703</ele>
        <time>2010-01-03T06:37:52Z</time>
      </trkpt>
      <trkpt lat="46.18263" lon="6.83177">
        <ele>1700</ele>
        <time>2010-01-03T06:37:56Z</time>
      </trkpt>
      <trkpt lat="46.18267" lon="6.83196">
        <ele>1699</ele>
        <time>2010-01-03T06:38:02Z</time>
      </trkpt>
      <trkpt lat="46.18276" lon="6.83213">
        <ele>1699</ele>
        <time>2010-01-03T06:38:08Z</time>
      </trkpt>
      <trkpt lat="46.18283" lon="6.83225">
        <ele>1698</ele>
        <time>2010-01-03T06:38:12Z</time>
      </trkpt>
      <trkpt lat="46.18287" lon="6.8324">
        <ele>1698</ele>
        <time>2010-01-03T06:38:17Z</time>
      </trkpt>
      <trkpt lat="46.18294" lon="6.83258">
        <ele>1695</ele>
        <time>2010-01-03T06:38:22Z</time>
      </trkpt>
      <trkpt lat="46.18307" lon="6.83277">
        <ele>1693</ele>
        <time>2010-01-03T06:38:30Z</time>
      </trkpt>
      <trkpt lat="46.18312" lon="6.83292">
        <ele>1693</ele>
        <time>2010-01-03T06:38:34Z</time>
      </trkpt>
      <trkpt lat="46.18322" lon="6.83307">
        <ele>1691</ele>
        <time>2010-01-03T06:38:40Z</time>
      </trkpt>
      <trkpt lat="46.18334" lon="6.83324">
        <ele>1686</ele>
        <time>2010-01-03T06:38:47Z</time>
      </trkpt>
      <trkpt lat="46.18341" lon="6.83331">
        <ele>1686</ele>
        <time>2010-01-03T06:38:50Z</time>
      </trkpt>
      <trkpt lat="46.1834" lon="6.83348">
        <ele>1685</ele>
        <time>2010-01-03T06:38:55Z</time>
      </trkpt>
      <trkpt lat="46.18339" lon="6.83373">
        <ele>1684</ele>
        <time>2010-01-03T06:39:02Z</time>
      </trkpt>
      <trkpt lat="46.1834" lon="6.83392">
        <ele>1684</ele>
        <time>2010-01-03T06:39:07Z</time>
      </trkpt>
      <trkpt lat="46.18348" lon="6.83403">
        <ele>1684</ele>
        <time>2010-01-03T06:39:12Z</time>
      </trkpt>
      <trkpt lat="46.18357" lon="6.83417">
        <ele>1683</ele>
        <time>2010-01-03T06:39:17Z</time>
      </trkpt>
      <trkpt lat="46.18363" lon="6.83422">
        <ele>1683</ele>
        <time>2010-01-03T06:39:20Z</time>
      </trkpt>
      <trkpt lat="46.18369" lon="6.83426">
        <ele>1683</ele>
        <time>2010-01-03T06:39:22Z</time>
      </trkpt>
      <trkpt lat="46.18377" lon="6.83421">
        <ele>1683</ele>
        <time>2010-01-03T06:39:26Z</time>
      </trkpt>
      <trkpt lat="46.18383" lon="6.83418">
        <ele>1683</ele>
        <time>2010-01-03T06:39:28Z</time>
      </trkpt>
      <trkpt lat="46.18505" lon="6.83132">
        <ele>1727</ele>
        <time>2010-01-03T06:41:01Z</time>
      </trkpt>
      <trkpt lat="46.18619" lon="6.8287">
        <ele>1781</ele>
        <time>2010-01-03T06:42:27Z</time>
      </trkpt>
      <trkpt lat="46.18721" lon="6.82639">
        <ele>1844</ele>
        <time>2010-01-03T06:43:43Z</time>
      </trkpt>
      <trkpt lat="46.18819" lon="6.82427">
        <ele>1928</ele>
        <time>2010-01-03T06:44:53Z</time>
      </trkpt>
      <trkpt lat="46.19054" lon="6.81894">
        <ele>2128</ele>
        <time>2010-01-03T06:47:49Z</time>
      </trkpt>
      <trkpt lat="46.19195" lon="6.81587">
        <ele>2230</ele>
        <time>2010-01-03T06:49:31Z</time>
      </trkpt>
      <trkpt lat="46.19195" lon="6.81529">
        <ele>2237</ele>
        <time>2010-01-03T06:49:47Z</time>
      </trkpt>
      <trkpt lat="46.19176" lon="6.81495">
        <ele>2241</ele>
        <time>2010-01-03T06:49:59Z</time>
      </trkpt>
      <trkpt lat="46.19134" lon="6.81453">
        <ele>2228</ele>
        <time>2010-01-03T06:50:19Z</time>
      </trkpt>
      <trkpt lat="46.19093" lon="6.81477">
        <ele>2228</ele>
        <time>2010-01-03T06:50:37Z</time>
      </trkpt>
      <trkpt lat="46.19067" lon="6.81482">
        <ele>2207</ele>
        <time>2010-01-03T06:50:48Z</time>
      </trkpt>
      <trkpt lat="46.19021" lon="6.81571">
        <ele>2214</ele>
        <time>2010-01-03T06:51:18Z</time>
      </trkpt>
      <trkpt lat="46.18968" lon="6.8165">
        <ele>2197</ele>
        <time>2010-01-03T06:51:49Z</time>
      </trkpt>
      <trkpt lat="46.18927" lon="6.8169">
        <ele>2187</ele>
        <time>2010-01-03T06:52:09Z</time>
      </trkpt>
      <trkpt lat="46.18903" lon="6.81694">
        <ele>2174</ele>
        <time>2010-01-03T06:52:19Z</time>
      </trkpt>
      <trkpt lat="46.18887" lon="6.81698">
        <ele>2172</ele>
        <time>2010-01-03T06:52:25Z</time>
      </trkpt>
      <trkpt lat="46.18875" lon="6.81699">
        <ele>2171</ele>
        <time>2010-01-03T06:52:30Z</time>
      </trkpt>
      <trkpt lat="46.18875" lon="6.81699">
        <ele>2171</ele>
        <time>2010-01-03T06:52:30Z</time>
      </trkpt>
      <trkpt lat="46.18866" lon="6.81698">
        <ele>2170</ele>
        <time>2010-01-03T06:52:34Z</time>
      </trkpt>
      <trkpt lat="46.18856" lon="6.81701">
        <ele>2169</ele>
        <time>2010-01-03T06:52:38Z</time>
      </trkpt>
      <trkpt lat="46.18852" lon="6.8171">
        <ele>2169</ele>
        <time>2010-01-03T06:52:40Z</time>
      </trkpt>
      <trkpt lat="46.18853" lon="6.81715">
        <ele>2169</ele>
        <time>2010-01-03T06:52:42Z</time>
      </trkpt>
      <trkpt lat="46.18857" lon="6.81717">
        <ele>2169</ele>
        <time>2010-01-03T06:52:43Z</time>
      </trkpt>
      <trkpt lat="46.18866" lon="6.81716">
        <ele>2170</ele>
        <time>2010-01-03T06:52:47Z</time>
      </trkpt>
      <trkpt lat="46.18872" lon="6.81715">
        <ele>2170</ele>
        <time>2010-01-03T06:52:49Z</time>
      </trkpt>
      <trkpt lat="46.18882" lon="6.81712">
        <ele>2171</ele>
        <time>2010-01-03T06:52:53Z</time>
      </trkpt>
      <trkpt lat="46.18893" lon="6.81716">
        <ele>2171</ele>
        <time>2010-01-03T06:52:58Z</time>
      </trkpt>
      <trkpt lat="46.18903" lon="6.81721">
        <ele>2171</ele>
        <time>2010-01-03T06:53:02Z</time>
      </trkpt>
      <trkpt lat="46.18909" lon="6.81729">
        <ele>2170</ele>
        <time>2010-01-03T06:53:06Z</time>
      </trkpt>
      <trkpt lat="46.18914" lon="6.81735">
        <ele>2170</ele>
        <time>2010-01-03T06:53:08Z</time>
      </trkpt>
      <trkpt lat="46.18925" lon="6.81733">
        <ele>2179</ele>
        <time>2010-01-03T06:53:13Z</time>
      </trkpt>
      <trkpt lat="46.18935" lon="6.81733">
        <ele>2181</ele>
        <time>2010-01-03T06:53:17Z</time>
      </trkpt>
      <trkpt lat="46.18939" lon="6.81737">
        <ele>2181</ele>
        <time>2010-01-03T06:53:19Z</time>
      </trkpt>
      <trkpt lat="46.18945" lon="6.81746">
        <ele>2182</ele>
        <time>2010-01-03T06:53:22Z</time>
      </trkpt>
      <trkpt lat="46.18949" lon="6.81755">
        <ele>2161</ele>
        <time>2010-01-03T06:53:25Z</time>
      </trkpt>
      <trkpt lat="46.18953" lon="6.81765">
        <ele>2160</ele>
        <time>2010-01-03T06:53:28Z</time>
      </trkpt>
      <trkpt lat="46.1896" lon="6.8177">
        <ele>2160</ele>
        <time>2010-01-03T06:53:32Z</time>
      </trkpt>
      <trkpt lat="46.18968" lon="6.81767">
        <ele>2162</ele>
        <time>2010-01-03T06:53:35Z</time>
      </trkpt>
      <trkpt lat="46.18977" lon="6.81766">
        <ele>2165</ele>
        <time>2010-01-03T06:53:38Z</time>
      </trkpt>
      <trkpt lat="46.18987" lon="6.81766">
        <ele>2169</ele>
        <time>2010-01-03T06:53:43Z</time>
      </trkpt>
      <trkpt lat="46.18995" lon="6.8177">
        <ele>2168</ele>
        <time>2010-01-03T06:53:46Z</time>
      </trkpt>
      <trkpt lat="46.19002" lon="6.81775">
        <ele>2175</ele>
        <time>2010-01-03T06:53:49Z</time>
      </trkpt>
      <trkpt lat="46.19007" lon="6.8178">
        <ele>2173</ele>
        <time>2010-01-03T06:53:51Z</time>
      </trkpt>
      <trkpt lat="46.19011" lon="6.81792">
        <ele>2169</ele>
        <time>2010-01-03T06:53:55Z</time>
      </trkpt>
      <trkpt lat="46.19014" lon="6.81804">
        <ele>2165</ele>
        <time>2010-01-03T06:53:59Z</time>
      </trkpt>
      <trkpt lat="46.19018" lon="6.81813">
        <ele>2163</ele>
        <time>2010-01-03T06:54:02Z</time>
      </trkpt>
      <trkpt lat="46.19029" lon="6.81817">
        <ele>2163</ele>
        <time>2010-01-03T06:54:06Z</time>
      </trkpt>
      <trkpt lat="46.19038" lon="6.81811">
        <ele>2166</ele>
        <time>2010-01-03T06:54:10Z</time>
      </trkpt>
      <trkpt lat="46.19048" lon="6.81808">
        <ele>2167</ele>
        <time>2010-01-03T06:54:14Z</time>
      </trkpt>
      <trkpt lat="46.19056" lon="6.81812">
        <ele>2166</ele>
        <time>2010-01-03T06:54:17Z</time>
      </trkpt>
      <trkpt lat="46.19068" lon="6.81825">
        <ele>2163</ele>
        <time>2010-01-03T06:54:23Z</time>
      </trkpt>
      <trkpt lat="46.19073" lon="6.81835">
        <ele>2148</ele>
        <time>2010-01-03T06:54:27Z</time>
      </trkpt>
      <trkpt lat="46.19075" lon="6.81846">
        <ele>2145</ele>
        <time>2010-01-03T06:54:30Z</time>
      </trkpt>
      <trkpt lat="46.19079" lon="6.81857">
        <ele>2141</ele>
        <time>2010-01-03T06:54:33Z</time>
      </trkpt>
      <trkpt lat="46.19084" lon="6.81868">
        <ele>2139</ele>
        <time>2010-01-03T06:54:37Z</time>
      </trkpt>
      <trkpt lat="46.19092" lon="6.81881">
        <ele>2136</ele>
        <time>2010-01-03T06:54:42Z</time>
      </trkpt>
      <trkpt lat="46.19102" lon="6.81897">
        <ele>2132</ele>
        <time>2010-01-03T06:54:48Z</time>
      </trkpt>
      <trkpt lat="46.19113" lon="6.81909">
        <ele>2131</ele>
        <time>2010-01-03T06:54:53Z</time>
      </trkpt>
      <trkpt lat="46.19124" lon="6.8192">
        <ele>2117</ele>
        <time>2010-01-03T06:54:59Z</time>
      </trkpt>
      <trkpt lat="46.19135" lon="6.8193">
        <ele>2117</ele>
        <time>2010-01-03T06:55:04Z</time>
      </trkpt>
      <trkpt lat="46.19146" lon="6.81935">
        <ele>2117</ele>
        <time>2010-01-03T06:55:08Z</time>
      </trkpt>
      <trkpt lat="46.19151" lon="6.8194">
        <ele>2117</ele>
        <time>2010-01-03T06:55:11Z</time>
      </trkpt>
      <trkpt lat="46.19158" lon="6.81946">
        <ele>2117</ele>
        <time>2010-01-03T06:55:14Z</time>
      </trkpt>
      <trkpt lat="46.19164" lon="6.81966">
        <ele>2116</ele>
        <time>2010-01-03T06:55:20Z</time>
      </trkpt>
      <trkpt lat="46.19164" lon="6.8198">
        <ele>2115</ele>
        <time>2010-01-03T06:55:24Z</time>
      </trkpt>
      <trkpt lat="46.19163" lon="6.81988">
        <ele>2116</ele>
        <time>2010-01-03T06:55:26Z</time>
      </trkpt>
      <trkpt lat="46.19169" lon="6.81988">
        <ele>2110</ele>
        <time>2010-01-03T06:55:28Z</time>
      </trkpt>
      <trkpt lat="46.19179" lon="6.81977">
        <ele>2104</ele>
        <time>2010-01-03T06:55:33Z</time>
      </trkpt>
      <trkpt lat="46.19184" lon="6.81967">
        <ele>2102</ele>
        <time>2010-01-03T06:55:37Z</time>
      </trkpt>
      <trkpt lat="46.19192" lon="6.81955">
        <ele>2101</ele>
        <time>2010-01-03T06:55:42Z</time>
      </trkpt>
      <trkpt lat="46.19197" lon="6.81953">
        <ele>2099</ele>
        <time>2010-01-03T06:55:43Z</time>
      </trkpt>
      <trkpt lat="46.19194" lon="6.81969">
        <ele>2100</ele>
        <time>2010-01-03T06:55:48Z</time>
      </trkpt>
      <trkpt lat="46.19189" lon="6.81982">
        <ele>2102</ele>
        <time>2010-01-03T06:55:52Z</time>
      </trkpt>
      <trkpt lat="46.19181" lon="6.82009">
        <ele>2102</ele>
        <time>2010-01-03T06:56:00Z</time>
      </trkpt>
      <trkpt lat="46.19176" lon="6.82018">
        <ele>2100</ele>
        <time>2010-01-03T06:56:03Z</time>
      </trkpt>
      <trkpt lat="46.19172" lon="6.82024">
        <ele>2099</ele>
        <time>2010-01-03T06:56:06Z</time>
      </trkpt>
      <trkpt lat="46.19172" lon="6.82033">
        <ele>2096</ele>
        <time>2010-01-03T06:56:08Z</time>
      </trkpt>
      <trkpt lat="46.19178" lon="6.8207">
        <ele>2091</ele>
        <time>2010-01-03T06:56:19Z</time>
      </trkpt>
      <trkpt lat="46.1918" lon="6.82073">
        <ele>2091</ele>
        <time>2010-01-03T06:56:20Z</time>
      </trkpt>
      <trkpt lat="46.19181" lon="6.82074">
        <ele>2091</ele>
        <time>2010-01-03T06:56:20Z</time>
      </trkpt>
      <trkpt lat="46.19186" lon="6.82083">
        <ele>2090</ele>
        <time>2010-01-03T06:56:23Z</time>
      </trkpt>
      <trkpt lat="46.19187" lon="6.82092">
        <ele>2088</ele>
        <time>2010-01-03T06:56:26Z</time>
      </trkpt>
      <trkpt lat="46.19189" lon="6.82105">
        <ele>2086</ele>
        <time>2010-01-03T06:56:30Z</time>
      </trkpt>
      <trkpt lat="46.1919" lon="6.82115">
        <ele>2086</ele>
        <time>2010-01-03T06:56:33Z</time>
      </trkpt>
      <trkpt lat="46.19196" lon="6.82117">
        <ele>2085</ele>
        <time>2010-01-03T06:56:35Z</time>
      </trkpt>
      <trkpt lat="46.19201" lon="6.82118">
        <ele>2085</ele>
        <time>2010-01-03T06:56:37Z</time>
      </trkpt>
      <trkpt lat="46.19213" lon="6.82122">
        <ele>2084</ele>
        <time>2010-01-03T06:56:42Z</time>
      </trkpt>
      <trkpt lat="46.19219" lon="6.82126">
        <ele>2084</ele>
        <time>2010-01-03T06:56:45Z</time>
      </trkpt>
      <trkpt lat="46.19225" lon="6.82124">
        <ele>2084</ele>
        <time>2010-01-03T06:56:47Z</time>
      </trkpt>
      <trkpt lat="46.19228" lon="6.8212">
        <ele>2083</ele>
        <time>2010-01-03T06:56:49Z</time>
      </trkpt>
      <trkpt lat="46.19227" lon="6.8211">
        <ele>2082</ele>
        <time>2010-01-03T06:56:51Z</time>
      </trkpt>
      <trkpt lat="46.19225" lon="6.82091">
        <ele>2080</ele>
        <time>2010-01-03T06:56:57Z</time>
      </trkpt>
      <trkpt lat="46.19225" lon="6.82077">
        <ele>2080</ele>
        <time>2010-01-03T06:57:01Z</time>
      </trkpt>
      <trkpt lat="46.19225" lon="6.82076">
        <ele>2080</ele>
        <time>2010-01-03T06:57:01Z</time>
      </trkpt>
      <trkpt lat="46.19225" lon="6.82065">
        <ele>2081</ele>
        <time>2010-01-03T06:57:04Z</time>
      </trkpt>
      <trkpt lat="46.19227" lon="6.82057">
        <ele>2081</ele>
        <time>2010-01-03T06:57:06Z</time>
      </trkpt>
      <trkpt lat="46.19231" lon="6.82059">
        <ele>2080</ele>
        <time>2010-01-03T06:57:08Z</time>
      </trkpt>
      <trkpt lat="46.19236" lon="6.82067">
        <ele>2078</ele>
        <time>2010-01-03T06:57:11Z</time>
      </trkpt>
      <trkpt lat="46.19248" lon="6.82084">
        <ele>2069</ele>
        <time>2010-01-03T06:57:18Z</time>
      </trkpt>
      <trkpt lat="46.19278" lon="6.82105">
        <ele>2074</ele>
        <time>2010-01-03T06:57:31Z</time>
      </trkpt>
      <trkpt lat="46.19292" lon="6.82099">
        <ele>2073</ele>
        <time>2010-01-03T06:57:37Z</time>
      </trkpt>
      <trkpt lat="46.19309" lon="6.82094">
        <ele>2070</ele>
        <time>2010-01-03T06:57:44Z</time>
      </trkpt>
      <trkpt lat="46.19329" lon="6.82093">
        <ele>2064</ele>
        <time>2010-01-03T06:57:52Z</time>
      </trkpt>
      <trkpt lat="46.19349" lon="6.82092">
        <ele>2063</ele>
        <time>2010-01-03T06:58:00Z</time>
      </trkpt>
      <trkpt lat="46.19373" lon="6.82079">
        <ele>2046</ele>
        <time>2010-01-03T06:58:11Z</time>
      </trkpt>
      <trkpt lat="46.19451" lon="6.82055">
        <ele>2034</ele>
        <time>2010-01-03T06:58:42Z</time>
      </trkpt>
      <trkpt lat="46.19474" lon="6.82048">
        <ele>2032</ele>
        <time>2010-01-03T06:58:52Z</time>
      </trkpt>
      <trkpt lat="46.19504" lon="6.82033">
        <ele>2027</ele>
        <time>2010-01-03T06:59:04Z</time>
      </trkpt>
      <trkpt lat="46.19544" lon="6.82008">
        <ele>2025</ele>
        <time>2010-01-03T06:59:22Z</time>
      </trkpt>
      <trkpt lat="46.19607" lon="6.81961">
        <ele>2012</ele>
        <time>2010-01-03T06:59:50Z</time>
      </trkpt>
      <trkpt lat="46.19639" lon="6.81918">
        <ele>2010</ele>
        <time>2010-01-03T07:00:08Z</time>
      </trkpt>
      <trkpt lat="46.19643" lon="6.81903">
        <ele>1998</ele>
        <time>2010-01-03T07:00:12Z</time>
      </trkpt>
      <trkpt lat="46.1965" lon="6.81883">
        <ele>1996</ele>
        <time>2010-01-03T07:00:18Z</time>
      </trkpt>
      <trkpt lat="46.19673" lon="6.81825">
        <ele>1998</ele>
        <time>2010-01-03T07:00:37Z</time>
      </trkpt>
      <trkpt lat="46.1969" lon="6.8179">
        <ele>2001</ele>
        <time>2010-01-03T07:00:49Z</time>
      </trkpt>
      <trkpt lat="46.19699" lon="6.81752">
        <ele>1998</ele>
        <time>2010-01-03T07:01:00Z</time>
      </trkpt>
      <trkpt lat="46.19699" lon="6.81748">
        <ele>1990</ele>
        <time>2010-01-03T07:01:01Z</time>
      </trkpt>
      <trkpt lat="46.19708" lon="6.81699">
        <ele>1989</ele>
        <time>2010-01-03T07:01:15Z</time>
      </trkpt>
      <trkpt lat="46.19708" lon="6.81697">
        <ele>1989</ele>
        <time>2010-01-03T07:01:16Z</time>
      </trkpt>
      <trkpt lat="46.19705" lon="6.81665">
        <ele>1982</ele>
        <time>2010-01-03T07:01:24Z</time>
      </trkpt>
      <trkpt lat="46.1971" lon="6.81606">
        <ele>1981</ele>
        <time>2010-01-03T07:01:41Z</time>
      </trkpt>
      <trkpt lat="46.19712" lon="6.81581">
        <ele>1978</ele>
        <time>2010-01-03T07:01:48Z</time>
      </trkpt>
      <trkpt lat="46.19716" lon="6.81557">
        <ele>1978</ele>
        <time>2010-01-03T07:01:55Z</time>
      </trkpt>
      <trkpt lat="46.19711" lon="6.81546">
        <ele>1978</ele>
        <time>2010-01-03T07:01:58Z</time>
      </trkpt>
      <trkpt lat="46.19702" lon="6.8154">
        <ele>1978</ele>
        <time>2010-01-03T07:02:02Z</time>
      </trkpt>
      <trkpt lat="46.19695" lon="6.81526">
        <ele>1978</ele>
        <time>2010-01-03T07:02:07Z</time>
      </trkpt>
      <trkpt lat="46.19695" lon="6.81509">
        <ele>1978</ele>
        <time>2010-01-03T07:02:12Z</time>
      </trkpt>
      <trkpt lat="46.19693" lon="6.81495">
        <ele>1979</ele>
        <time>2010-01-03T07:02:16Z</time>
      </trkpt>
      <trkpt lat="46.19691" lon="6.81486">
        <ele>1979</ele>
        <time>2010-01-03T07:02:18Z</time>
      </trkpt>
      <trkpt lat="46.19682" lon="6.81469">
        <ele>1979</ele>
        <time>2010-01-03T07:02:24Z</time>
      </trkpt>
      <trkpt lat="46.19679" lon="6.81463">
        <ele>1979</ele>
        <time>2010-01-03T07:02:26Z</time>
      </trkpt>
      <trkpt lat="46.19676" lon="6.81459">
        <ele>1979</ele>
        <time>2010-01-03T07:02:28Z</time>
      </trkpt>
      <trkpt lat="46.1968" lon="6.81442">
        <ele>1980</ele>
        <time>2010-01-03T07:02:33Z</time>
      </trkpt>
      <trkpt lat="46.19683" lon="6.8143">
        <ele>1980</ele>
        <time>2010-01-03T07:02:36Z</time>
      </trkpt>
      <trkpt lat="46.1968" lon="6.81401">
        <ele>1980</ele>
        <time>2010-01-03T07:02:45Z</time>
      </trkpt>
      <trkpt lat="46.19671" lon="6.81379">
        <ele>1980</ele>
        <time>2010-01-03T07:02:52Z</time>
      </trkpt>
      <trkpt lat="46.19662" lon="6.81351">
        <ele>1984</ele>
        <time>2010-01-03T07:03:00Z</time>
      </trkpt>
      <trkpt lat="46.19656" lon="6.81327">
        <ele>1985</ele>
        <time>2010-01-03T07:03:07Z</time>
      </trkpt>
      <trkpt lat="46.19654" lon="6.81314">
        <ele>1985</ele>
        <time>2010-01-03T07:03:11Z</time>
      </trkpt>
      <trkpt lat="46.19661" lon="6.81306">
        <ele>1985</ele>
        <time>2010-01-03T07:03:14Z</time>
      </trkpt>
      <trkpt lat="46.19668" lon="6.81301">
        <ele>1977</ele>
        <time>2010-01-03T07:03:18Z</time>
      </trkpt>
      <trkpt lat="46.19677" lon="6.8129">
        <ele>1976</ele>
        <time>2010-01-03T07:03:22Z</time>
      </trkpt>
      <trkpt lat="46.19691" lon="6.81294">
        <ele>1976</ele>
        <time>2010-01-03T07:03:28Z</time>
      </trkpt>
      <trkpt lat="46.19743" lon="6.81286">
        <ele>1974</ele>
        <time>2010-01-03T07:03:49Z</time>
      </trkpt>
      <trkpt lat="46.19753" lon="6.81283">
        <ele>1967</ele>
        <time>2010-01-03T07:03:53Z</time>
      </trkpt>
      <trkpt lat="46.19769" lon="6.81259">
        <ele>1967</ele>
        <time>2010-01-03T07:04:02Z</time>
      </trkpt>
      <trkpt lat="46.19783" lon="6.81241">
        <ele>1965</ele>
        <time>2010-01-03T07:04:10Z</time>
      </trkpt>
      <trkpt lat="46.19783" lon="6.8124">
        <ele>1965</ele>
        <time>2010-01-03T07:04:10Z</time>
      </trkpt>
      <trkpt lat="46.19784" lon="6.81237">
        <ele>1965</ele>
        <time>2010-01-03T07:04:11Z</time>
      </trkpt>
      <trkpt lat="46.19813" lon="6.81189">
        <ele>1964</ele>
        <time>2010-01-03T07:04:29Z</time>
      </trkpt>
      <trkpt lat="46.19818" lon="6.81176">
        <ele>1964</ele>
        <time>2010-01-03T07:04:32Z</time>
      </trkpt>
      <trkpt lat="46.1982" lon="6.81163">
        <ele>1965</ele>
        <time>2010-01-03T07:04:36Z</time>
      </trkpt>
      <trkpt lat="46.19808" lon="6.81147">
        <ele>1966</ele>
        <time>2010-01-03T07:04:43Z</time>
      </trkpt>
      <trkpt lat="46.19799" lon="6.81133">
        <ele>1967</ele>
        <time>2010-01-03T07:04:48Z</time>
      </trkpt>
      <trkpt lat="46.19798" lon="6.81131">
        <ele>1967</ele>
        <time>2010-01-03T07:04:49Z</time>
      </trkpt>
      <trkpt lat="46.19792" lon="6.81122">
        <ele>1967</ele>
        <time>2010-01-03T07:04:53Z</time>
      </trkpt>
      <trkpt lat="46.19789" lon="6.8111">
        <ele>1968</ele>
        <time>2010-01-03T07:04:56Z</time>
      </trkpt>
      <trkpt lat="46.19789" lon="6.81099">
        <ele>1968</ele>
        <time>2010-01-03T07:04:59Z</time>
      </trkpt>
      <trkpt lat="46.19782" lon="6.81088">
        <ele>1968</ele>
        <time>2010-01-03T07:05:03Z</time>
      </trkpt>
      <trkpt lat="46.19773" lon="6.81078">
        <ele>1969</ele>
        <time>2010-01-03T07:05:08Z</time>
      </trkpt>
      <trkpt lat="46.19774" lon="6.81059">
        <ele>1969</ele>
        <time>2010-01-03T07:05:13Z</time>
      </trkpt>
      <trkpt lat="46.19778" lon="6.81048">
        <ele>1969</ele>
        <time>2010-01-03T07:05:17Z</time>
      </trkpt>
      <trkpt lat="46.19781" lon="6.8103">
        <ele>1968</ele>
        <time>2010-01-03T07:05:22Z</time>
      </trkpt>
      <trkpt lat="46.19795" lon="6.81013">
        <ele>1968</ele>
        <time>2010-01-03T07:05:29Z</time>
      </trkpt>
      <trkpt lat="46.19803" lon="6.80997">
        <ele>1969</ele>
        <time>2010-01-03T07:05:34Z</time>
      </trkpt>
      <trkpt lat="46.19803" lon="6.80979">
        <ele>1970</ele>
        <time>2010-01-03T07:05:39Z</time>
      </trkpt>
      <trkpt lat="46.19802" lon="6.80977">
        <ele>1970</ele>
        <time>2010-01-03T07:05:40Z</time>
      </trkpt>
      <trkpt lat="46.19796" lon="6.80962">
        <ele>1971</ele>
        <time>2010-01-03T07:05:45Z</time>
      </trkpt>
      <trkpt lat="46.19792" lon="6.80944">
        <ele>1971</ele>
        <time>2010-01-03T07:05:50Z</time>
      </trkpt>
      <trkpt lat="46.19784" lon="6.8093">
        <ele>1972</ele>
        <time>2010-01-03T07:05:55Z</time>
      </trkpt>
      <trkpt lat="46.19779" lon="6.80916">
        <ele>1976</ele>
        <time>2010-01-03T07:06:00Z</time>
      </trkpt>
      <trkpt lat="46.19774" lon="6.80905">
        <ele>1976</ele>
        <time>2010-01-03T07:06:03Z</time>
      </trkpt>
      <trkpt lat="46.19778" lon="6.80898">
        <ele>1976</ele>
        <time>2010-01-03T07:06:06Z</time>
      </trkpt>
      <trkpt lat="46.19782" lon="6.80886">
        <ele>1976</ele>
        <time>2010-01-03T07:06:09Z</time>
      </trkpt>
      <trkpt lat="46.19784" lon="6.80878">
        <ele>1977</ele>
        <time>2010-01-03T07:06:12Z</time>
      </trkpt>
      <trkpt lat="46.19787" lon="6.80864">
        <ele>1977</ele>
        <time>2010-01-03T07:06:15Z</time>
      </trkpt>
      <trkpt lat="46.19784" lon="6.80857">
        <ele>1977</ele>
        <time>2010-01-03T07:06:18Z</time>
      </trkpt>
      <trkpt lat="46.19783" lon="6.80848">
        <ele>1978</ele>
        <time>2010-01-03T07:06:20Z</time>
      </trkpt>
      <trkpt lat="46.19777" lon="6.80843">
        <ele>1978</ele>
        <time>2010-01-03T07:06:23Z</time>
      </trkpt>
      <trkpt lat="46.19769" lon="6.8084">
        <ele>1978</ele>
        <time>2010-01-03T07:06:26Z</time>
      </trkpt>
      <trkpt lat="46.19762" lon="6.80835">
        <ele>1978</ele>
        <time>2010-01-03T07:06:29Z</time>
      </trkpt>
      <trkpt lat="46.19758" lon="6.80826">
        <ele>1981</ele>
        <time>2010-01-03T07:06:32Z</time>
      </trkpt>
      <trkpt lat="46.19758" lon="6.80825">
        <ele>1982</ele>
        <time>2010-01-03T07:06:33Z</time>
      </trkpt>
      <trkpt lat="46.19759" lon="6.8081">
        <ele>1984</ele>
        <time>2010-01-03T07:06:37Z</time>
      </trkpt>
      <trkpt lat="46.1976" lon="6.80798">
        <ele>1985</ele>
        <time>2010-01-03T07:06:40Z</time>
      </trkpt>
      <trkpt lat="46.19758" lon="6.80792">
        <ele>1986</ele>
        <time>2010-01-03T07:06:42Z</time>
      </trkpt>
      <trkpt lat="46.19756" lon="6.80786">
        <ele>1986</ele>
        <time>2010-01-03T07:06:44Z</time>
      </trkpt>
      <trkpt lat="46.19748" lon="6.80772">
        <ele>1988</ele>
        <time>2010-01-03T07:06:49Z</time>
      </trkpt>
      <trkpt lat="46.19745" lon="6.80765">
        <ele>1989</ele>
        <time>2010-01-03T07:06:51Z</time>
      </trkpt>
      <trkpt lat="46.19742" lon="6.80759">
        <ele>1989</ele>
        <time>2010-01-03T07:06:53Z</time>
      </trkpt>
      <trkpt lat="46.19738" lon="6.80743">
        <ele>1993</ele>
        <time>2010-01-03T07:06:58Z</time>
      </trkpt>
      <trkpt lat="46.19737" lon="6.80739">
        <ele>1993</ele>
        <time>2010-01-03T07:06:59Z</time>
      </trkpt>
      <trkpt lat="46.19735" lon="6.80735">
        <ele>1994</ele>
        <time>2010-01-03T07:07:01Z</time>
      </trkpt>
      <trkpt lat="46.19732" lon="6.80726">
        <ele>1995</ele>
        <time>2010-01-03T07:07:03Z</time>
      </trkpt>
      <trkpt lat="46.19727" lon="6.80719">
        <ele>1995</ele>
        <time>2010-01-03T07:07:06Z</time>
      </trkpt>
      <trkpt lat="46.19718" lon="6.80712">
        <ele>1996</ele>
        <time>2010-01-03T07:07:10Z</time>
      </trkpt>
      <trkpt lat="46.19712" lon="6.80706">
        <ele>1996</ele>
        <time>2010-01-03T07:07:13Z</time>
      </trkpt>
      <trkpt lat="46.19706" lon="6.80697">
        <ele>1996</ele>
        <time>2010-01-03T07:07:16Z</time>
      </trkpt>
      <trkpt lat="46.19702" lon="6.80692">
        <ele>1997</ele>
        <time>2010-01-03T07:07:19Z</time>
      </trkpt>
      <trkpt lat="46.19701" lon="6.80677">
        <ele>1997</ele>
        <time>2010-01-03T07:07:23Z</time>
      </trkpt>
      <trkpt lat="46.19702" lon="6.80662">
        <ele>2000</ele>
        <time>2010-01-03T07:07:27Z</time>
      </trkpt>
      <trkpt lat="46.19703" lon="6.8065">
        <ele>2000</ele>
        <time>2010-01-03T07:07:30Z</time>
      </trkpt>
      <trkpt lat="46.197" lon="6.80638">
        <ele>2000</ele>
        <time>2010-01-03T07:07:34Z</time>
      </trkpt>
      <trkpt lat="46.19697" lon="6.8063">
        <ele>2000</ele>
        <time>2010-01-03T07:07:36Z</time>
      </trkpt>
      <trkpt lat="46.19697" lon="6.80619">
        <ele>2000</ele>
        <time>2010-01-03T07:07:39Z</time>
      </trkpt>
      <trkpt lat="46.19696" lon="6.80616">
        <ele>2000</ele>
        <time>2010-01-03T07:07:40Z</time>
      </trkpt>
      <trkpt lat="46.19692" lon="6.80601">
        <ele>2000</ele>
        <time>2010-01-03T07:07:45Z</time>
      </trkpt>
      <trkpt lat="46.19693" lon="6.80579">
        <ele>1999</ele>
        <time>2010-01-03T07:07:51Z</time>
      </trkpt>
      <trkpt lat="46.1969" lon="6.80561">
        <ele>1999</ele>
        <time>2010-01-03T07:07:56Z</time>
      </trkpt>
      <trkpt lat="46.19692" lon="6.80541">
        <ele>1999</ele>
        <time>2010-01-03T07:08:02Z</time>
      </trkpt>
      <trkpt lat="46.19699" lon="6.8053">
        <ele>1999</ele>
        <time>2010-01-03T07:08:05Z</time>
      </trkpt>
      <trkpt lat="46.197" lon="6.80509">
        <ele>1999</ele>
        <time>2010-01-03T07:08:11Z</time>
      </trkpt>
      <trkpt lat="46.19702" lon="6.80493">
        <ele>1994</ele>
        <time>2010-01-03T07:08:16Z</time>
      </trkpt>
      <trkpt lat="46.19707" lon="6.80478">
        <ele>1994</ele>
        <time>2010-01-03T07:08:21Z</time>
      </trkpt>
      <trkpt lat="46.19718" lon="6.80464">
        <ele>1994</ele>
        <time>2010-01-03T07:08:26Z</time>
      </trkpt>
      <trkpt lat="46.19737" lon="6.80438">
        <ele>1994</ele>
        <time>2010-01-03T07:08:37Z</time>
      </trkpt>
      <trkpt lat="46.19752" lon="6.80416">
        <ele>1997</ele>
        <time>2010-01-03T07:08:45Z</time>
      </trkpt>
      <trkpt lat="46.19761" lon="6.80397">
        <ele>1998</ele>
        <time>2010-01-03T07:08:52Z</time>
      </trkpt>
      <trkpt lat="46.19769" lon="6.80373">
        <ele>1997</ele>
        <time>2010-01-03T07:08:59Z</time>
      </trkpt>
      <trkpt lat="46.19789" lon="6.80337">
        <ele>1997</ele>
        <time>2010-01-03T07:09:12Z</time>
      </trkpt>
      <trkpt lat="46.19804" lon="6.80302">
        <ele>1987</ele>
        <time>2010-01-03T07:09:23Z</time>
      </trkpt>
      <trkpt lat="46.19808" lon="6.80289">
        <ele>1986</ele>
        <time>2010-01-03T07:09:27Z</time>
      </trkpt>
      <trkpt lat="46.19809" lon="6.80273">
        <ele>1985</ele>
        <time>2010-01-03T07:09:32Z</time>
      </trkpt>
      <trkpt lat="46.19814" lon="6.8026">
        <ele>1985</ele>
        <time>2010-01-03T07:09:36Z</time>
      </trkpt>
      <trkpt lat="46.19819" lon="6.80249">
        <ele>1980</ele>
        <time>2010-01-03T07:09:39Z</time>
      </trkpt>
      <trkpt lat="46.19822" lon="6.80237">
        <ele>1979</ele>
        <time>2010-01-03T07:09:43Z</time>
      </trkpt>
      <trkpt lat="46.19824" lon="6.80218">
        <ele>1975</ele>
        <time>2010-01-03T07:09:48Z</time>
      </trkpt>
      <trkpt lat="46.19829" lon="6.80203">
        <ele>1974</ele>
        <time>2010-01-03T07:09:53Z</time>
      </trkpt>
      <trkpt lat="46.19829" lon="6.80186">
        <ele>1974</ele>
        <time>2010-01-03T07:09:57Z</time>
      </trkpt>
      <trkpt lat="46.19833" lon="6.80176">
        <ele>1975</ele>
        <time>2010-01-03T07:10:01Z</time>
      </trkpt>
      <trkpt lat="46.19834" lon="6.80162">
        <ele>1977</ele>
        <time>2010-01-03T07:10:05Z</time>
      </trkpt>
      <trkpt lat="46.19836" lon="6.80146">
        <ele>1978</ele>
        <time>2010-01-03T07:10:09Z</time>
      </trkpt>
      <trkpt lat="46.19847" lon="6.8012">
        <ele>1977</ele>
        <time>2010-01-03T07:10:18Z</time>
      </trkpt>
      <trkpt lat="46.19852" lon="6.80099">
        <ele>1974</ele>
        <time>2010-01-03T07:10:24Z</time>
      </trkpt>
      <trkpt lat="46.19857" lon="6.80081">
        <ele>1967</ele>
        <time>2010-01-03T07:10:29Z</time>
      </trkpt>
      <trkpt lat="46.19869" lon="6.80056">
        <ele>1967</ele>
        <time>2010-01-03T07:10:38Z</time>
      </trkpt>
      <trkpt lat="46.19881" lon="6.80042">
        <ele>1967</ele>
        <time>2010-01-03T07:10:44Z</time>
      </trkpt>
      <trkpt lat="46.1989" lon="6.80023">
        <ele>1966</ele>
        <time>2010-01-03T07:10:50Z</time>
      </trkpt>
      <trkpt lat="46.19901" lon="6.80005">
        <ele>1965</ele>
        <time>2010-01-03T07:10:57Z</time>
      </trkpt>
      <trkpt lat="46.1991" lon="6.79982">
        <ele>1958</ele>
        <time>2010-01-03T07:11:04Z</time>
      </trkpt>
      <trkpt lat="46.19919" lon="6.79955">
        <ele>1955</ele>
        <time>2010-01-03T07:11:12Z</time>
      </trkpt>
      <trkpt lat="46.19926" lon="6.79939">
        <ele>1952</ele>
        <time>2010-01-03T07:11:18Z</time>
      </trkpt>
      <trkpt lat="46.1993" lon="6.7994">
        <ele>1953</ele>
        <time>2010-01-03T07:11:19Z</time>
      </trkpt>
      <trkpt lat="46.1993" lon="6.79939">
        <ele>1953</ele>
        <time>2010-01-03T07:11:20Z</time>
      </trkpt>
      <trkpt lat="46.1994" lon="6.79933">
        <ele>1953</ele>
        <time>2010-01-03T07:11:24Z</time>
      </trkpt>
      <trkpt lat="46.19948" lon="6.79921">
        <ele>1952</ele>
        <time>2010-01-03T07:11:29Z</time>
      </trkpt>
      <trkpt lat="46.1996" lon="6.79917">
        <ele>1953</ele>
        <time>2010-01-03T07:11:34Z</time>
      </trkpt>
      <trkpt lat="46.19983" lon="6.79896">
        <ele>1944</ele>
        <time>2010-01-03T07:11:44Z</time>
      </trkpt>
      <trkpt lat="46.20004" lon="6.79882">
        <ele>1948</ele>
        <time>2010-01-03T07:11:54Z</time>
      </trkpt>
      <trkpt lat="46.20018" lon="6.79864">
        <ele>1946</ele>
        <time>2010-01-03T07:12:01Z</time>
      </trkpt>
      <trkpt lat="46.20024" lon="6.79852">
        <ele>1945</ele>
        <time>2010-01-03T07:12:05Z</time>
      </trkpt>
      <trkpt lat="46.20033" lon="6.79845">
        <ele>1946</ele>
        <time>2010-01-03T07:12:09Z</time>
      </trkpt>
      <trkpt lat="46.20039" lon="6.79823">
        <ele>1938</ele>
        <time>2010-01-03T07:12:16Z</time>
      </trkpt>
      <trkpt lat="46.20052" lon="6.79795">
        <ele>1938</ele>
        <time>2010-01-03T07:12:25Z</time>
      </trkpt>
      <trkpt lat="46.20058" lon="6.79783">
        <ele>1937</ele>
        <time>2010-01-03T07:12:29Z</time>
      </trkpt>
      <trkpt lat="46.20069" lon="6.79771">
        <ele>1937</ele>
        <time>2010-01-03T07:12:35Z</time>
      </trkpt>
      <trkpt lat="46.20083" lon="6.79769">
        <ele>1937</ele>
        <time>2010-01-03T07:12:40Z</time>
      </trkpt>
      <trkpt lat="46.20093" lon="6.79763">
        <ele>1945</ele>
        <time>2010-01-03T07:12:45Z</time>
      </trkpt>
      <trkpt lat="46.20101" lon="6.79755">
        <ele>1946</ele>
        <time>2010-01-03T07:12:48Z</time>
      </trkpt>
      <trkpt lat="46.20104" lon="6.7974">
        <ele>1935</ele>
        <time>2010-01-03T07:12:53Z</time>
      </trkpt>
      <trkpt lat="46.20104" lon="6.79728">
        <ele>1933</ele>
        <time>2010-01-03T07:12:56Z</time>
      </trkpt>
      <trkpt lat="46.201" lon="6.79721">
        <ele>1932</ele>
        <time>2010-01-03T07:12:59Z</time>
      </trkpt>
      <trkpt lat="46.20099" lon="6.79715">
        <ele>1931</ele>
        <time>2010-01-03T07:13:00Z</time>
      </trkpt>
      <trkpt lat="46.20107" lon="6.79709">
        <ele>1931</ele>
        <time>2010-01-03T07:13:04Z</time>
      </trkpt>
      <trkpt lat="46.20091" lon="6.79699">
        <ele>1927</ele>
        <time>2010-01-03T07:13:11Z</time>
      </trkpt>
      <trkpt lat="46.20088" lon="6.79684">
        <ele>1923</ele>
        <time>2010-01-03T07:13:15Z</time>
      </trkpt>
      <trkpt lat="46.201" lon="6.79682">
        <ele>1924</ele>
        <time>2010-01-03T07:13:20Z</time>
      </trkpt>
      <trkpt lat="46.20108" lon="6.79677">
        <ele>1925</ele>
        <time>2010-01-03T07:13:23Z</time>
      </trkpt>
      <trkpt lat="46.20113" lon="6.79664">
        <ele>1909</ele>
        <time>2010-01-03T07:13:27Z</time>
      </trkpt>
      <trkpt lat="46.20112" lon="6.79645">
        <ele>1907</ele>
        <time>2010-01-03T07:13:33Z</time>
      </trkpt>
      <trkpt lat="46.20128" lon="6.79632">
        <ele>1906</ele>
        <time>2010-01-03T07:13:40Z</time>
      </trkpt>
      <trkpt lat="46.2014" lon="6.79605">
        <ele>1904</ele>
        <time>2010-01-03T07:13:49Z</time>
      </trkpt>
      <trkpt lat="46.20142" lon="6.79585">
        <ele>1902</ele>
        <time>2010-01-03T07:13:54Z</time>
      </trkpt>
      <trkpt lat="46.20153" lon="6.79555">
        <ele>1888</ele>
        <time>2010-01-03T07:14:04Z</time>
      </trkpt>
      <trkpt lat="46.20161" lon="6.79529">
        <ele>1884</ele>
        <time>2010-01-03T07:14:12Z</time>
      </trkpt>
      <trkpt lat="46.20173" lon="6.79506">
        <ele>1891</ele>
        <time>2010-01-03T07:14:19Z</time>
      </trkpt>
      <trkpt lat="46.20187" lon="6.79489">
        <ele>1883</ele>
        <time>2010-01-03T07:14:27Z</time>
      </trkpt>
      <trkpt lat="46.20206" lon="6.79476">
        <ele>1884</ele>
        <time>2010-01-03T07:14:35Z</time>
      </trkpt>
      <trkpt lat="46.20223" lon="6.79466">
        <ele>1885</ele>
        <time>2010-01-03T07:14:43Z</time>
      </trkpt>
      <trkpt lat="46.20228" lon="6.79448">
        <ele>1883</ele>
        <time>2010-01-03T07:14:48Z</time>
      </trkpt>
      <trkpt lat="46.20236" lon="6.7944">
        <ele>1882</ele>
        <time>2010-01-03T07:14:52Z</time>
      </trkpt>
      <trkpt lat="46.20248" lon="6.79425">
        <ele>1882</ele>
        <time>2010-01-03T07:14:58Z</time>
      </trkpt>
      <trkpt lat="46.20264" lon="6.79404">
        <ele>1881</ele>
        <time>2010-01-03T07:15:07Z</time>
      </trkpt>
      <trkpt lat="46.20277" lon="6.7938">
        <ele>1878</ele>
        <time>2010-01-03T07:15:15Z</time>
      </trkpt>
      <trkpt lat="46.20285" lon="6.79365">
        <ele>1877</ele>
        <time>2010-01-03T07:15:21Z</time>
      </trkpt>
      <trkpt lat="46.20293" lon="6.79344">
        <ele>1875</ele>
        <time>2010-01-03T07:15:28Z</time>
      </trkpt>
      <trkpt lat="46.20312" lon="6.79326">
        <ele>1863</ele>
        <time>2010-01-03T07:15:37Z</time>
      </trkpt>
      <trkpt lat="46.20327" lon="6.79302">
        <ele>1860</ele>
        <time>2010-01-03T07:15:45Z</time>
      </trkpt>
      <trkpt lat="46.20334" lon="6.79279">
        <ele>1868</ele>
        <time>2010-01-03T07:15:53Z</time>
      </trkpt>
      <trkpt lat="46.20353" lon="6.79248">
        <ele>1853</ele>
        <time>2010-01-03T07:16:04Z</time>
      </trkpt>
      <trkpt lat="46.20372" lon="6.79244">
        <ele>1853</ele>
        <time>2010-01-03T07:16:12Z</time>
      </trkpt>
      <trkpt lat="46.20393" lon="6.79241">
        <ele>1856</ele>
        <time>2010-01-03T07:16:20Z</time>
      </trkpt>
      <trkpt lat="46.2041" lon="6.79237">
        <ele>1858</ele>
        <time>2010-01-03T07:16:27Z</time>
      </trkpt>
      <trkpt lat="46.20429" lon="6.79229">
        <ele>1859</ele>
        <time>2010-01-03T07:16:35Z</time>
      </trkpt>
      <trkpt lat="46.2044" lon="6.79229">
        <ele>1858</ele>
        <time>2010-01-03T07:16:39Z</time>
      </trkpt>
      <trkpt lat="46.20459" lon="6.79224">
        <ele>1857</ele>
        <time>2010-01-03T07:16:47Z</time>
      </trkpt>
      <trkpt lat="46.20475" lon="6.79209">
        <ele>1855</ele>
        <time>2010-01-03T07:16:54Z</time>
      </trkpt>
      <trkpt lat="46.20496" lon="6.79196">
        <ele>1852</ele>
        <time>2010-01-03T07:17:04Z</time>
      </trkpt>
      <trkpt lat="46.2051" lon="6.79189">
        <ele>1853</ele>
        <time>2010-01-03T07:17:09Z</time>
      </trkpt>
      <trkpt lat="46.20523" lon="6.79179">
        <ele>1853</ele>
        <time>2010-01-03T07:17:16Z</time>
      </trkpt>
      <trkpt lat="46.2054" lon="6.79155">
        <ele>1841</ele>
        <time>2010-01-03T07:17:25Z</time>
      </trkpt>
      <trkpt lat="46.20556" lon="6.79139">
        <ele>1841</ele>
        <time>2010-01-03T07:17:33Z</time>
      </trkpt>
      <trkpt lat="46.20571" lon="6.79128">
        <ele>1841</ele>
        <time>2010-01-03T07:17:40Z</time>
      </trkpt>
      <trkpt lat="46.20587" lon="6.79109">
        <ele>1841</ele>
        <time>2010-01-03T07:17:48Z</time>
      </trkpt>
      <trkpt lat="46.20606" lon="6.79084">
        <ele>1840</ele>
        <time>2010-01-03T07:17:58Z</time>
      </trkpt>
      <trkpt lat="46.20608" lon="6.79081">
        <ele>1833</ele>
        <time>2010-01-03T07:17:59Z</time>
      </trkpt>
      <trkpt lat="46.20622" lon="6.79064">
        <ele>1832</ele>
        <time>2010-01-03T07:18:07Z</time>
      </trkpt>
      <trkpt lat="46.20636" lon="6.7904">
        <ele>1831</ele>
        <time>2010-01-03T07:18:15Z</time>
      </trkpt>
      <trkpt lat="46.20652" lon="6.79024">
        <ele>1830</ele>
        <time>2010-01-03T07:18:23Z</time>
      </trkpt>
      <trkpt lat="46.20662" lon="6.79018">
        <ele>1829</ele>
        <time>2010-01-03T07:18:28Z</time>
      </trkpt>
      <trkpt lat="46.20667" lon="6.79012">
        <ele>1831</ele>
        <time>2010-01-03T07:18:30Z</time>
      </trkpt>
      <trkpt lat="46.20669" lon="6.79">
        <ele>1827</ele>
        <time>2010-01-03T07:18:34Z</time>
      </trkpt>
      <trkpt lat="46.20679" lon="6.78983">
        <ele>1825</ele>
        <time>2010-01-03T07:18:40Z</time>
      </trkpt>
      <trkpt lat="46.20688" lon="6.78977">
        <ele>1824</ele>
        <time>2010-01-03T07:18:44Z</time>
      </trkpt>
      <trkpt lat="46.20695" lon="6.78973">
        <ele>1824</ele>
        <time>2010-01-03T07:18:47Z</time>
      </trkpt>
      <trkpt lat="46.20701" lon="6.78965">
        <ele>1823</ele>
        <time>2010-01-03T07:18:50Z</time>
      </trkpt>
      <trkpt lat="46.20701" lon="6.7895">
        <ele>1822</ele>
        <time>2010-01-03T07:18:54Z</time>
      </trkpt>
      <trkpt lat="46.20703" lon="6.78928">
        <ele>1820</ele>
        <time>2010-01-03T07:19:00Z</time>
      </trkpt>
      <trkpt lat="46.20709" lon="6.78913">
        <ele>1812</ele>
        <time>2010-01-03T07:19:05Z</time>
      </trkpt>
      <trkpt lat="46.20715" lon="6.78896">
        <ele>1812</ele>
        <time>2010-01-03T07:19:11Z</time>
      </trkpt>
      <trkpt lat="46.20716" lon="6.78895">
        <ele>1812</ele>
        <time>2010-01-03T07:19:11Z</time>
      </trkpt>
      <trkpt lat="46.20724" lon="6.78874">
        <ele>1811</ele>
        <time>2010-01-03T07:19:18Z</time>
      </trkpt>
      <trkpt lat="46.20732" lon="6.78855">
        <ele>1810</ele>
        <time>2010-01-03T07:19:24Z</time>
      </trkpt>
      <trkpt lat="46.20739" lon="6.78847">
        <ele>1810</ele>
        <time>2010-01-03T07:19:27Z</time>
      </trkpt>
      <trkpt lat="46.20745" lon="6.78844">
        <ele>1809</ele>
        <time>2010-01-03T07:19:30Z</time>
      </trkpt>
      <trkpt lat="46.20745" lon="6.78835">
        <ele>1809</ele>
        <time>2010-01-03T07:19:32Z</time>
      </trkpt>
      <trkpt lat="46.20748" lon="6.7882">
        <ele>1805</ele>
        <time>2010-01-03T07:19:37Z</time>
      </trkpt>
      <trkpt lat="46.20749" lon="6.78818">
        <ele>1804</ele>
        <time>2010-01-03T07:19:37Z</time>
      </trkpt>
      <trkpt lat="46.20755" lon="6.78796">
        <ele>1804</ele>
        <time>2010-01-03T07:19:44Z</time>
      </trkpt>
      <trkpt lat="46.20756" lon="6.78785">
        <ele>1803</ele>
        <time>2010-01-03T07:19:47Z</time>
      </trkpt>
      <trkpt lat="46.2076" lon="6.78777">
        <ele>1802</ele>
        <time>2010-01-03T07:19:49Z</time>
      </trkpt>
      <trkpt lat="46.20769" lon="6.78766">
        <ele>1801</ele>
        <time>2010-01-03T07:19:54Z</time>
      </trkpt>
      <trkpt lat="46.20779" lon="6.78759">
        <ele>1802</ele>
        <time>2010-01-03T07:19:59Z</time>
      </trkpt>
      <trkpt lat="46.20787" lon="6.78754">
        <ele>1802</ele>
        <time>2010-01-03T07:20:02Z</time>
      </trkpt>
      <trkpt lat="46.20808" lon="6.78749">
        <ele>1788</ele>
        <time>2010-01-03T07:20:11Z</time>
      </trkpt>
      <trkpt lat="46.20845" lon="6.78729">
        <ele>1787</ele>
        <time>2010-01-03T07:20:27Z</time>
      </trkpt>
      <trkpt lat="46.20872" lon="6.78715">
        <ele>1783</ele>
        <time>2010-01-03T07:20:38Z</time>
      </trkpt>
      <trkpt lat="46.20893" lon="6.78701">
        <ele>1781</ele>
        <time>2010-01-03T07:20:47Z</time>
      </trkpt>
      <trkpt lat="46.20914" lon="6.78682">
        <ele>1776</ele>
        <time>2010-01-03T07:20:57Z</time>
      </trkpt>
      <trkpt lat="46.20914" lon="6.78681">
        <ele>1776</ele>
        <time>2010-01-03T07:20:57Z</time>
      </trkpt>
      <trkpt lat="46.20931" lon="6.78669">
        <ele>1779</ele>
        <time>2010-01-03T07:21:05Z</time>
      </trkpt>
      <trkpt lat="46.20937" lon="6.78676">
        <ele>1782</ele>
        <time>2010-01-03T07:21:08Z</time>
      </trkpt>
      <trkpt lat="46.20942" lon="6.78662">
        <ele>1769</ele>
        <time>2010-01-03T07:21:12Z</time>
      </trkpt>
      <trkpt lat="46.20948" lon="6.78638">
        <ele>1767</ele>
        <time>2010-01-03T07:21:19Z</time>
      </trkpt>
      <trkpt lat="46.20958" lon="6.78605">
        <ele>1764</ele>
        <time>2010-01-03T07:21:29Z</time>
      </trkpt>
      <trkpt lat="46.20977" lon="6.78583">
        <ele>1749</ele>
        <time>2010-01-03T07:21:39Z</time>
      </trkpt>
      <trkpt lat="46.21001" lon="6.7856">
        <ele>1761</ele>
        <time>2010-01-03T07:21:51Z</time>
      </trkpt>
      <trkpt lat="46.21018" lon="6.78567">
        <ele>1763</ele>
        <time>2010-01-03T07:21:58Z</time>
      </trkpt>
      <trkpt lat="46.21051" lon="6.78511">
        <ele>1760</ele>
        <time>2010-01-03T07:22:18Z</time>
      </trkpt>
      <trkpt lat="46.2106" lon="6.78489">
        <ele>1746</ele>
        <time>2010-01-03T07:22:25Z</time>
      </trkpt>
      <trkpt lat="46.21074" lon="6.78453">
        <ele>1742</ele>
        <time>2010-01-03T07:22:37Z</time>
      </trkpt>
      <trkpt lat="46.21079" lon="6.78413">
        <ele>1741</ele>
        <time>2010-01-03T07:22:48Z</time>
      </trkpt>
      <trkpt lat="46.21086" lon="6.78387">
        <ele>1750</ele>
        <time>2010-01-03T07:22:55Z</time>
      </trkpt>
      <trkpt lat="46.21093" lon="6.78365">
        <ele>1747</ele>
        <time>2010-01-03T07:23:02Z</time>
      </trkpt>
      <trkpt lat="46.21096" lon="6.78346">
        <ele>1741</ele>
        <time>2010-01-03T07:23:08Z</time>
      </trkpt>
      <trkpt lat="46.21096" lon="6.78328">
        <ele>1729</ele>
        <time>2010-01-03T07:23:12Z</time>
      </trkpt>
      <trkpt lat="46.211" lon="6.78306">
        <ele>1730</ele>
        <time>2010-01-03T07:23:19Z</time>
      </trkpt>
      <trkpt lat="46.21119" lon="6.78251">
        <ele>1727</ele>
        <time>2010-01-03T07:23:36Z</time>
      </trkpt>
      <trkpt lat="46.2112" lon="6.78222">
        <ele>1714</ele>
        <time>2010-01-03T07:23:44Z</time>
      </trkpt>
      <trkpt lat="46.21121" lon="6.78216">
        <ele>1714</ele>
        <time>2010-01-03T07:23:45Z</time>
      </trkpt>
      <trkpt lat="46.21127" lon="6.78181">
        <ele>1712</ele>
        <time>2010-01-03T07:23:55Z</time>
      </trkpt>
      <trkpt lat="46.21132" lon="6.78141">
        <ele>1699</ele>
        <time>2010-01-03T07:24:07Z</time>
      </trkpt>
      <trkpt lat="46.21142" lon="6.78115">
        <ele>1697</ele>
        <time>2010-01-03T07:24:15Z</time>
      </trkpt>
      <trkpt lat="46.21145" lon="6.78085">
        <ele>1697</ele>
        <time>2010-01-03T07:24:23Z</time>
      </trkpt>
      <trkpt lat="46.21157" lon="6.7804">
        <ele>1679</ele>
        <time>2010-01-03T07:24:37Z</time>
      </trkpt>
      <trkpt lat="46.21167" lon="6.77993">
        <ele>1681</ele>
        <time>2010-01-03T07:24:50Z</time>
      </trkpt>
      <trkpt lat="46.21181" lon="6.77948">
        <ele>1676</ele>
        <time>2010-01-03T07:25:04Z</time>
      </trkpt>
      <trkpt lat="46.2119" lon="6.77907">
        <ele>1657</ele>
        <time>2010-01-03T07:25:16Z</time>
      </trkpt>
      <trkpt lat="46.21219" lon="6.77866">
        <ele>1656</ele>
        <time>2010-01-03T07:25:32Z</time>
      </trkpt>
      <trkpt lat="46.21248" lon="6.77816">
        <ele>1643</ele>
        <time>2010-01-03T07:25:50Z</time>
      </trkpt>
      <trkpt lat="46.21269" lon="6.77771">
        <ele>1649</ele>
        <time>2010-01-03T07:26:05Z</time>
      </trkpt>
      <trkpt lat="46.21273" lon="6.77754">
        <ele>1647</ele>
        <time>2010-01-03T07:26:10Z</time>
      </trkpt>
      <trkpt lat="46.21266" lon="6.77742">
        <ele>1632</ele>
        <time>2010-01-03T07:26:15Z</time>
      </trkpt>
      <trkpt lat="46.21248" lon="6.77752">
        <ele>1630</ele>
        <time>2010-01-03T07:26:22Z</time>
      </trkpt>
      <trkpt lat="46.21195" lon="6.77781">
        <ele>1627</ele>
        <time>2010-01-03T07:26:45Z</time>
      </trkpt>
      <trkpt lat="46.21121" lon="6.77828">
        <ele>1606</ele>
        <time>2010-01-03T07:27:17Z</time>
      </trkpt>
      <trkpt lat="46.21095" lon="6.77851">
        <ele>1613</ele>
        <time>2010-01-03T07:27:30Z</time>
      </trkpt>
      <trkpt lat="46.2107" lon="6.77863">
        <ele>1598</ele>
        <time>2010-01-03T07:27:40Z</time>
      </trkpt>
      <trkpt lat="46.21069" lon="6.77863">
        <ele>1598</ele>
        <time>2010-01-03T07:27:41Z</time>
      </trkpt>
      <trkpt lat="46.2105" lon="6.77872">
        <ele>1596</ele>
        <time>2010-01-03T07:27:49Z</time>
      </trkpt>
      <trkpt lat="46.21049" lon="6.77871">
        <ele>1596</ele>
        <time>2010-01-03T07:27:49Z</time>
      </trkpt>
      <trkpt lat="46.21047" lon="6.77873">
        <ele>1596</ele>
        <time>2010-01-03T07:27:50Z</time>
      </trkpt>
      <trkpt lat="46.2102" lon="6.77907">
        <ele>1592</ele>
        <time>2010-01-03T07:28:04Z</time>
      </trkpt>
      <trkpt lat="46.20941" lon="6.77998">
        <ele>1573</ele>
        <time>2010-01-03T07:28:45Z</time>
      </trkpt>
      <trkpt lat="46.20893" lon="6.78029">
        <ele>1562</ele>
        <time>2010-01-03T07:29:06Z</time>
      </trkpt>
      <trkpt lat="46.20835" lon="6.78053">
        <ele>1557</ele>
        <time>2010-01-03T07:29:30Z</time>
      </trkpt>
      <trkpt lat="46.20815" lon="6.78054">
        <ele>1544</ele>
        <time>2010-01-03T07:29:38Z</time>
      </trkpt>
      <trkpt lat="46.20785" lon="6.78052">
        <ele>1541</ele>
        <time>2010-01-03T07:29:50Z</time>
      </trkpt>
      <trkpt lat="46.20766" lon="6.78049">
        <ele>1539</ele>
        <time>2010-01-03T07:29:58Z</time>
      </trkpt>
      <trkpt lat="46.20747" lon="6.7805">
        <ele>1530</ele>
        <time>2010-01-03T07:30:05Z</time>
      </trkpt>
      <trkpt lat="46.20726" lon="6.78035">
        <ele>1528</ele>
        <time>2010-01-03T07:30:15Z</time>
      </trkpt>
      <trkpt lat="46.20728" lon="6.78011">
        <ele>1526</ele>
        <time>2010-01-03T07:30:21Z</time>
      </trkpt>
      <trkpt lat="46.20733" lon="6.77979">
        <ele>1519</ele>
        <time>2010-01-03T07:30:31Z</time>
      </trkpt>
      <trkpt lat="46.20742" lon="6.77935">
        <ele>1515</ele>
        <time>2010-01-03T07:30:43Z</time>
      </trkpt>
      <trkpt lat="46.20748" lon="6.77902">
        <ele>1511</ele>
        <time>2010-01-03T07:30:53Z</time>
      </trkpt>
      <trkpt lat="46.20746" lon="6.77887">
        <ele>1509</ele>
        <time>2010-01-03T07:30:57Z</time>
      </trkpt>
      <trkpt lat="46.20734" lon="6.77833">
        <ele>1504</ele>
        <time>2010-01-03T07:31:13Z</time>
      </trkpt>
      <trkpt lat="46.20714" lon="6.77791">
        <ele>1502</ele>
        <time>2010-01-03T07:31:27Z</time>
      </trkpt>
      <trkpt lat="46.20702" lon="6.77785">
        <ele>1502</ele>
        <time>2010-01-03T07:31:32Z</time>
      </trkpt>
      <trkpt lat="46.207" lon="6.77778">
        <ele>1502</ele>
        <time>2010-01-03T07:31:34Z</time>
      </trkpt>
      <trkpt lat="46.20698" lon="6.77764">
        <ele>1501</ele>
        <time>2010-01-03T07:31:38Z</time>
      </trkpt>
      <trkpt lat="46.207" lon="6.77745">
        <ele>1500</ele>
        <time>2010-01-03T07:31:43Z</time>
      </trkpt>
      <trkpt lat="46.20711" lon="6.7773">
        <ele>1500</ele>
        <time>2010-01-03T07:31:49Z</time>
      </trkpt>
      <trkpt lat="46.20717" lon="6.7772">
        <ele>1500</ele>
        <time>2010-01-03T07:31:53Z</time>
      </trkpt>
      <trkpt lat="46.20719" lon="6.77716">
        <ele>1500</ele>
        <time>2010-01-03T07:31:54Z</time>
      </trkpt>
      <trkpt lat="46.20722" lon="6.77713">
        <ele>1500</ele>
        <time>2010-01-03T07:31:55Z</time>
      </trkpt>
      <trkpt lat="46.20726" lon="6.7771">
        <ele>1500</ele>
        <time>2010-01-03T07:31:58Z</time>
      </trkpt>
      <trkpt lat="46.20734" lon="6.77705">
        <ele>1500</ele>
        <time>2010-01-03T07:32:01Z</time>
      </trkpt>
      <trkpt lat="46.20747" lon="6.77693">
        <ele>1500</ele>
        <time>2010-01-03T07:32:07Z</time>
      </trkpt>
      <trkpt lat="46.20761" lon="6.77679">
        <ele>1502</ele>
        <time>2010-01-03T07:32:14Z</time>
      </trkpt>
      <trkpt lat="46.20777" lon="6.77638">
        <ele>1502</ele>
        <time>2010-01-03T07:32:27Z</time>
      </trkpt>
      <trkpt lat="46.20798" lon="6.77616">
        <ele>1503</ele>
        <time>2010-01-03T07:32:37Z</time>
      </trkpt>
      <trkpt lat="46.20819" lon="6.776">
        <ele>1502</ele>
        <time>2010-01-03T07:32:47Z</time>
      </trkpt>
      <trkpt lat="46.20827" lon="6.77594">
        <ele>1501</ele>
        <time>2010-01-03T07:32:51Z</time>
      </trkpt>
      <trkpt lat="46.20843" lon="6.77591">
        <ele>1504</ele>
        <time>2010-01-03T07:32:57Z</time>
      </trkpt>
      <trkpt lat="46.20849" lon="6.77577">
        <ele>1503</ele>
        <time>2010-01-03T07:33:01Z</time>
      </trkpt>
      <trkpt lat="46.20855" lon="6.77566">
        <ele>1504</ele>
        <time>2010-01-03T07:33:05Z</time>
      </trkpt>
      <trkpt lat="46.20861" lon="6.77559">
        <ele>1505</ele>
        <time>2010-01-03T07:33:08Z</time>
      </trkpt>
      <trkpt lat="46.20868" lon="6.77553">
        <ele>1505</ele>
        <time>2010-01-03T07:33:11Z</time>
      </trkpt>
      <trkpt lat="46.20873" lon="6.77548">
        <ele>1505</ele>
        <time>2010-01-03T07:33:14Z</time>
      </trkpt>
      <trkpt lat="46.2088" lon="6.77546">
        <ele>1505</ele>
        <time>2010-01-03T07:33:17Z</time>
      </trkpt>
      <trkpt lat="46.20887" lon="6.77541">
        <ele>1505</ele>
        <time>2010-01-03T07:33:20Z</time>
      </trkpt>
      <trkpt lat="46.20894" lon="6.77534">
        <ele>1504</ele>
        <time>2010-01-03T07:33:23Z</time>
      </trkpt>
      <trkpt lat="46.20904" lon="6.77524">
        <ele>1503</ele>
        <time>2010-01-03T07:33:28Z</time>
      </trkpt>
      <trkpt lat="46.2091" lon="6.77509">
        <ele>1500</ele>
        <time>2010-01-03T07:33:33Z</time>
      </trkpt>
      <trkpt lat="46.20912" lon="6.77496">
        <ele>1498</ele>
        <time>2010-01-03T07:33:37Z</time>
      </trkpt>
      <trkpt lat="46.20913" lon="6.77485">
        <ele>1500</ele>
        <time>2010-01-03T07:33:39Z</time>
      </trkpt>
      <trkpt lat="46.20918" lon="6.77483">
        <ele>1494</ele>
        <time>2010-01-03T07:33:41Z</time>
      </trkpt>
      <trkpt lat="46.20925" lon="6.7748">
        <ele>1494</ele>
        <time>2010-01-03T07:33:44Z</time>
      </trkpt>
      <trkpt lat="46.20932" lon="6.77472">
        <ele>1493</ele>
        <time>2010-01-03T07:33:48Z</time>
      </trkpt>
      <trkpt lat="46.20938" lon="6.77463">
        <ele>1492</ele>
        <time>2010-01-03T07:33:51Z</time>
      </trkpt>
      <trkpt lat="46.20951" lon="6.77441">
        <ele>1490</ele>
        <time>2010-01-03T07:34:00Z</time>
      </trkpt>
      <trkpt lat="46.20961" lon="6.77435">
        <ele>1489</ele>
        <time>2010-01-03T07:34:04Z</time>
      </trkpt>
      <trkpt lat="46.20976" lon="6.77441">
        <ele>1488</ele>
        <time>2010-01-03T07:34:10Z</time>
      </trkpt>
      <trkpt lat="46.20989" lon="6.77442">
        <ele>1488</ele>
        <time>2010-01-03T07:34:15Z</time>
      </trkpt>
      <trkpt lat="46.20996" lon="6.77442">
        <ele>1487</ele>
        <time>2010-01-03T07:34:18Z</time>
      </trkpt>
      <trkpt lat="46.21004" lon="6.77441">
        <ele>1488</ele>
        <time>2010-01-03T07:34:21Z</time>
      </trkpt>
      <trkpt lat="46.21013" lon="6.77438">
        <ele>1488</ele>
        <time>2010-01-03T07:34:25Z</time>
      </trkpt>
      <trkpt lat="46.21023" lon="6.77437">
        <ele>1489</ele>
        <time>2010-01-03T07:34:29Z</time>
      </trkpt>
      <trkpt lat="46.21033" lon="6.77434">
        <ele>1490</ele>
        <time>2010-01-03T07:34:33Z</time>
      </trkpt>
      <trkpt lat="46.21042" lon="6.77432">
        <ele>1490</ele>
        <time>2010-01-03T07:34:37Z</time>
      </trkpt>
      <trkpt lat="46.21048" lon="6.77425">
        <ele>1489</ele>
        <time>2010-01-03T07:34:40Z</time>
      </trkpt>
      <trkpt lat="46.21059" lon="6.77419">
        <ele>1487</ele>
        <time>2010-01-03T07:34:45Z</time>
      </trkpt>
      <trkpt lat="46.2107" lon="6.77416">
        <ele>1477</ele>
        <time>2010-01-03T07:34:49Z</time>
      </trkpt>
      <trkpt lat="46.21078" lon="6.77411">
        <ele>1477</ele>
        <time>2010-01-03T07:34:53Z</time>
      </trkpt>
      <trkpt lat="46.21086" lon="6.77405">
        <ele>1480</ele>
        <time>2010-01-03T07:34:56Z</time>
      </trkpt>
      <trkpt lat="46.21092" lon="6.77396">
        <ele>1481</ele>
        <time>2010-01-03T07:35:00Z</time>
      </trkpt>
      <trkpt lat="46.21099" lon="6.77384">
        <ele>1481</ele>
        <time>2010-01-03T07:35:04Z</time>
      </trkpt>
      <trkpt lat="46.211" lon="6.77368">
        <ele>1479</ele>
        <time>2010-01-03T07:35:08Z</time>
      </trkpt>
      <trkpt lat="46.21093" lon="6.77355">
        <ele>1476</ele>
        <time>2010-01-03T07:35:13Z</time>
      </trkpt>
      <trkpt lat="46.2108" lon="6.77354">
        <ele>1471</ele>
        <time>2010-01-03T07:35:18Z</time>
      </trkpt>
      <trkpt lat="46.21062" lon="6.77355">
        <ele>1471</ele>
        <time>2010-01-03T07:35:25Z</time>
      </trkpt>
      <trkpt lat="46.21046" lon="6.77357">
        <ele>1471</ele>
        <time>2010-01-03T07:35:32Z</time>
      </trkpt>
      <trkpt lat="46.21035" lon="6.77356">
        <ele>1471</ele>
        <time>2010-01-03T07:35:36Z</time>
      </trkpt>
      <trkpt lat="46.21021" lon="6.77347">
        <ele>1470</ele>
        <time>2010-01-03T07:35:42Z</time>
      </trkpt>
      <trkpt lat="46.21007" lon="6.77332">
        <ele>1464</ele>
        <time>2010-01-03T07:35:49Z</time>
      </trkpt>
      <trkpt lat="46.21008" lon="6.77316">
        <ele>1462</ele>
        <time>2010-01-03T07:35:54Z</time>
      </trkpt>
      <trkpt lat="46.2102" lon="6.7731">
        <ele>1461</ele>
        <time>2010-01-03T07:35:59Z</time>
      </trkpt>
      <trkpt lat="46.21021" lon="6.77308">
        <ele>1461</ele>
        <time>2010-01-03T07:35:59Z</time>
      </trkpt>
      <trkpt lat="46.21033" lon="6.77302">
        <ele>1460</ele>
        <time>2010-01-03T07:36:04Z</time>
      </trkpt>
      <trkpt lat="46.21046" lon="6.77296">
        <ele>1460</ele>
        <time>2010-01-03T07:36:10Z</time>
      </trkpt>
      <trkpt lat="46.21063" lon="6.77295">
        <ele>1460</ele>
        <time>2010-01-03T07:36:16Z</time>
      </trkpt>
      <trkpt lat="46.21077" lon="6.77299">
        <ele>1461</ele>
        <time>2010-01-03T07:36:22Z</time>
      </trkpt>
      <trkpt lat="46.21089" lon="6.77301">
        <ele>1463</ele>
        <time>2010-01-03T07:36:27Z</time>
      </trkpt>
      <trkpt lat="46.21106" lon="6.7729">
        <ele>1462</ele>
        <time>2010-01-03T07:36:35Z</time>
      </trkpt>
      <trkpt lat="46.21122" lon="6.77269">
        <ele>1460</ele>
        <time>2010-01-03T07:36:43Z</time>
      </trkpt>
      <trkpt lat="46.2114" lon="6.77251">
        <ele>1458</ele>
        <time>2010-01-03T07:36:52Z</time>
      </trkpt>
      <trkpt lat="46.21157" lon="6.7723">
        <ele>1444</ele>
        <time>2010-01-03T07:37:01Z</time>
      </trkpt>
      <trkpt lat="46.2117" lon="6.77214">
        <ele>1444</ele>
        <time>2010-01-03T07:37:08Z</time>
      </trkpt>
      <trkpt lat="46.21185" lon="6.77202">
        <ele>1441</ele>
        <time>2010-01-03T07:37:14Z</time>
      </trkpt>
      <trkpt lat="46.21199" lon="6.77192">
        <ele>1441</ele>
        <time>2010-01-03T07:37:21Z</time>
      </trkpt>
      <trkpt lat="46.21215" lon="6.77182">
        <ele>1440</ele>
        <time>2010-01-03T07:37:28Z</time>
      </trkpt>
      <trkpt lat="46.21232" lon="6.77175">
        <ele>1439</ele>
        <time>2010-01-03T07:37:35Z</time>
      </trkpt>
      <trkpt lat="46.21253" lon="6.77165">
        <ele>1431</ele>
        <time>2010-01-03T07:37:44Z</time>
      </trkpt>
      <trkpt lat="46.21274" lon="6.77163">
        <ele>1424</ele>
        <time>2010-01-03T07:37:52Z</time>
      </trkpt>
      <trkpt lat="46.21291" lon="6.77161">
        <ele>1424</ele>
        <time>2010-01-03T07:37:59Z</time>
      </trkpt>
      <trkpt lat="46.21313" lon="6.77154">
        <ele>1426</ele>
        <time>2010-01-03T07:38:08Z</time>
      </trkpt>
      <trkpt lat="46.21327" lon="6.77151">
        <ele>1428</ele>
        <time>2010-01-03T07:38:13Z</time>
      </trkpt>
      <trkpt lat="46.21353" lon="6.77143">
        <ele>1430</ele>
        <time>2010-01-03T07:38:24Z</time>
      </trkpt>
      <trkpt lat="46.21372" lon="6.77125">
        <ele>1427</ele>
        <time>2010-01-03T07:38:33Z</time>
      </trkpt>
      <trkpt lat="46.21383" lon="6.77111">
        <ele>1424</ele>
        <time>2010-01-03T07:38:39Z</time>
      </trkpt>
      <trkpt lat="46.21418" lon="6.77088">
        <ele>1421</ele>
        <time>2010-01-03T07:38:55Z</time>
      </trkpt>
      <trkpt lat="46.21436" lon="6.77076">
        <ele>1418</ele>
        <time>2010-01-03T07:39:02Z</time>
      </trkpt>
      <trkpt lat="46.21448" lon="6.77066">
        <ele>1421</ele>
        <time>2010-01-03T07:39:08Z</time>
      </trkpt>
      <trkpt lat="46.21453" lon="6.77059">
        <ele>1422</ele>
        <time>2010-01-03T07:39:11Z</time>
      </trkpt>
      <trkpt lat="46.21453" lon="6.77059">
        <ele>1422</ele>
        <time>2010-01-03T07:39:11Z</time>
      </trkpt>
      <trkpt lat="46.21453" lon="6.77053">
        <ele>1421</ele>
        <time>2010-01-03T07:39:13Z</time>
      </trkpt>
      <trkpt lat="46.21454" lon="6.77044">
        <ele>1420</ele>
        <time>2010-01-03T07:39:15Z</time>
      </trkpt>
      <trkpt lat="46.21453" lon="6.77043">
        <ele>1420</ele>
        <time>2010-01-03T07:39:16Z</time>
      </trkpt>
      <trkpt lat="46.21455" lon="6.7705">
        <ele>1421</ele>
        <time>2010-01-03T07:39:17Z</time>
      </trkpt>
      <trkpt lat="46.21454" lon="6.77042">
        <ele>1420</ele>
        <time>2010-01-03T07:39:20Z</time>
      </trkpt>
      <trkpt lat="46.21442" lon="6.77042">
        <ele>1417</ele>
        <time>2010-01-03T07:39:25Z</time>
      </trkpt>
      <trkpt lat="46.21406" lon="6.77066">
        <ele>1402</ele>
        <time>2010-01-03T07:39:41Z</time>
      </trkpt>
      <trkpt lat="46.21375" lon="6.77072">
        <ele>1397</ele>
        <time>2010-01-03T07:39:53Z</time>
      </trkpt>
      <trkpt lat="46.21351" lon="6.77088">
        <ele>1412</ele>
        <time>2010-01-03T07:40:04Z</time>
      </trkpt>
      <trkpt lat="46.21337" lon="6.77102">
        <ele>1413</ele>
        <time>2010-01-03T07:40:11Z</time>
      </trkpt>
      <trkpt lat="46.2133" lon="6.77102">
        <ele>1408</ele>
        <time>2010-01-03T07:40:13Z</time>
      </trkpt>
      <trkpt lat="46.21332" lon="6.77086">
        <ele>1400</ele>
        <time>2010-01-03T07:40:18Z</time>
      </trkpt>
      <trkpt lat="46.21353" lon="6.77058">
        <ele>1394</ele>
        <time>2010-01-03T07:40:29Z</time>
      </trkpt>
      <trkpt lat="46.21377" lon="6.77042">
        <ele>1393</ele>
        <time>2010-01-03T07:40:40Z</time>
      </trkpt>
      <trkpt lat="46.21395" lon="6.77028">
        <ele>1393</ele>
        <time>2010-01-03T07:40:48Z</time>
      </trkpt>
      <trkpt lat="46.21407" lon="6.77008">
        <ele>1391</ele>
        <time>2010-01-03T07:40:55Z</time>
      </trkpt>
      <trkpt lat="46.21414" lon="6.7699">
        <ele>1384</ele>
        <time>2010-01-03T07:41:01Z</time>
      </trkpt>
      <trkpt lat="46.21418" lon="6.76969">
        <ele>1394</ele>
        <time>2010-01-03T07:41:07Z</time>
      </trkpt>
      <trkpt lat="46.21424" lon="6.76959">
        <ele>1394</ele>
        <time>2010-01-03T07:41:11Z</time>
      </trkpt>
      <trkpt lat="46.21434" lon="6.7694">
        <ele>1392</ele>
        <time>2010-01-03T07:41:17Z</time>
      </trkpt>
      <trkpt lat="46.21444" lon="6.76922">
        <ele>1393</ele>
        <time>2010-01-03T07:41:24Z</time>
      </trkpt>
      <trkpt lat="46.21451" lon="6.76908">
        <ele>1384</ele>
        <time>2010-01-03T07:41:29Z</time>
      </trkpt>
      <trkpt lat="46.2146" lon="6.76899">
        <ele>1386</ele>
        <time>2010-01-03T07:41:33Z</time>
      </trkpt>
      <trkpt lat="46.21463" lon="6.769">
        <ele>1388</ele>
        <time>2010-01-03T07:41:34Z</time>
      </trkpt>
      <trkpt lat="46.21472" lon="6.76888">
        <ele>1389</ele>
        <time>2010-01-03T07:41:39Z</time>
      </trkpt>
      <trkpt lat="46.21469" lon="6.76875">
        <ele>1385</ele>
        <time>2010-01-03T07:41:43Z</time>
      </trkpt>
      <trkpt lat="46.21457" lon="6.76877">
        <ele>1382</ele>
        <time>2010-01-03T07:41:48Z</time>
      </trkpt>
      <trkpt lat="46.21437" lon="6.76892">
        <ele>1379</ele>
        <time>2010-01-03T07:41:57Z</time>
      </trkpt>
      <trkpt lat="46.21404" lon="6.76917">
        <ele>1372</ele>
        <time>2010-01-03T07:42:12Z</time>
      </trkpt>
      <trkpt lat="46.21388" lon="6.76933">
        <ele>1372</ele>
        <time>2010-01-03T07:42:19Z</time>
      </trkpt>
      <trkpt lat="46.21387" lon="6.76933">
        <ele>1372</ele>
        <time>2010-01-03T07:42:20Z</time>
      </trkpt>
      <trkpt lat="46.2137" lon="6.76945">
        <ele>1372</ele>
        <time>2010-01-03T07:42:27Z</time>
      </trkpt>
      <trkpt lat="46.21366" lon="6.76939">
        <ele>1371</ele>
        <time>2010-01-03T07:42:30Z</time>
      </trkpt>
      <trkpt lat="46.21375" lon="6.7692">
        <ele>1370</ele>
        <time>2010-01-03T07:42:36Z</time>
      </trkpt>
      <trkpt lat="46.21389" lon="6.76899">
        <ele>1359</ele>
        <time>2010-01-03T07:42:44Z</time>
      </trkpt>
      <trkpt lat="46.214" lon="6.76876">
        <ele>1356</ele>
        <time>2010-01-03T07:42:52Z</time>
      </trkpt>
      <trkpt lat="46.21414" lon="6.76834">
        <ele>1349</ele>
        <time>2010-01-03T07:43:05Z</time>
      </trkpt>
      <trkpt lat="46.21434" lon="6.76791">
        <ele>1357</ele>
        <time>2010-01-03T07:43:19Z</time>
      </trkpt>
      <trkpt lat="46.21442" lon="6.7677">
        <ele>1356</ele>
        <time>2010-01-03T07:43:26Z</time>
      </trkpt>
      <trkpt lat="46.21462" lon="6.76752">
        <ele>1359</ele>
        <time>2010-01-03T07:43:35Z</time>
      </trkpt>
      <trkpt lat="46.21477" lon="6.76742">
        <ele>1355</ele>
        <time>2010-01-03T07:43:42Z</time>
      </trkpt>
      <trkpt lat="46.21494" lon="6.76729">
        <ele>1356</ele>
        <time>2010-01-03T07:43:50Z</time>
      </trkpt>
      <trkpt lat="46.21495" lon="6.76713">
        <ele>1353</ele>
        <time>2010-01-03T07:43:54Z</time>
      </trkpt>
      <trkpt lat="46.21495" lon="6.76712">
        <ele>1353</ele>
        <time>2010-01-03T07:43:55Z</time>
      </trkpt>
      <trkpt lat="46.21482" lon="6.76702">
        <ele>1352</ele>
        <time>2010-01-03T07:44:00Z</time>
      </trkpt>
      <trkpt lat="46.21459" lon="6.76684">
        <ele>1348</ele>
        <time>2010-01-03T07:44:11Z</time>
      </trkpt>
      <trkpt lat="46.21455" lon="6.76671">
        <ele>1347</ele>
        <time>2010-01-03T07:44:15Z</time>
      </trkpt>
      <trkpt lat="46.21458" lon="6.76654">
        <ele>1336</ele>
        <time>2010-01-03T07:44:20Z</time>
      </trkpt>
      <trkpt lat="46.21467" lon="6.76622">
        <ele>1333</ele>
        <time>2010-01-03T07:44:29Z</time>
      </trkpt>
      <trkpt lat="46.2148" lon="6.76593">
        <ele>1330</ele>
        <time>2010-01-03T07:44:39Z</time>
      </trkpt>
      <trkpt lat="46.21468" lon="6.76571">
        <ele>1312</ele>
        <time>2010-01-03T07:44:46Z</time>
      </trkpt>
      <trkpt lat="46.21466" lon="6.76557">
        <ele>1309</ele>
        <time>2010-01-03T07:44:50Z</time>
      </trkpt>
      <trkpt lat="46.21473" lon="6.76552">
        <ele>1310</ele>
        <time>2010-01-03T07:44:54Z</time>
      </trkpt>
      <trkpt lat="46.21487" lon="6.76566">
        <ele>1316</ele>
        <time>2010-01-03T07:45:01Z</time>
      </trkpt>
      <trkpt lat="46.21502" lon="6.76584">
        <ele>1333</ele>
        <time>2010-01-03T07:45:08Z</time>
      </trkpt>
      <trkpt lat="46.21512" lon="6.76589">
        <ele>1346</ele>
        <time>2010-01-03T07:45:12Z</time>
      </trkpt>
      <trkpt lat="46.21515" lon="6.76574">
        <ele>1339</ele>
        <time>2010-01-03T07:45:17Z</time>
      </trkpt>
      <trkpt lat="46.21508" lon="6.76558">
        <ele>1339</ele>
        <time>2010-01-03T07:45:22Z</time>
      </trkpt>
      <trkpt lat="46.21507" lon="6.76557">
        <ele>1339</ele>
        <time>2010-01-03T07:45:23Z</time>
      </trkpt>
      <trkpt lat="46.21499" lon="6.76544">
        <ele>1312</ele>
        <time>2010-01-03T07:45:27Z</time>
      </trkpt>
      <trkpt lat="46.2151" lon="6.76528">
        <ele>1335</ele>
        <time>2010-01-03T07:45:34Z</time>
      </trkpt>
      <trkpt lat="46.21528" lon="6.76517">
        <ele>1339</ele>
        <time>2010-01-03T07:45:42Z</time>
      </trkpt>
      <trkpt lat="46.21545" lon="6.76478">
        <ele>1326</ele>
        <time>2010-01-03T07:45:54Z</time>
      </trkpt>
      <trkpt lat="46.21565" lon="6.76429">
        <ele>1325</ele>
        <time>2010-01-03T07:46:10Z</time>
      </trkpt>
      <trkpt lat="46.21576" lon="6.76389">
        <ele>1305</ele>
        <time>2010-01-03T07:46:22Z</time>
      </trkpt>
      <trkpt lat="46.21583" lon="6.76357">
        <ele>1299</ele>
        <time>2010-01-03T07:46:31Z</time>
      </trkpt>
      <trkpt lat="46.21575" lon="6.76353">
        <ele>1298</ele>
        <time>2010-01-03T07:46:35Z</time>
      </trkpt>
      <trkpt lat="46.21564" lon="6.76373">
        <ele>1298</ele>
        <time>2010-01-03T07:46:42Z</time>
      </trkpt>
      <trkpt lat="46.21556" lon="6.76401">
        <ele>1302</ele>
        <time>2010-01-03T07:46:50Z</time>
      </trkpt>
      <trkpt lat="46.2153" lon="6.76435">
        <ele>1313</ele>
        <time>2010-01-03T07:47:04Z</time>
      </trkpt>
      <trkpt lat="46.21514" lon="6.76452">
        <ele>1312</ele>
        <time>2010-01-03T07:47:12Z</time>
      </trkpt>
      <trkpt lat="46.21482" lon="6.76466">
        <ele>1284</ele>
        <time>2010-01-03T07:47:25Z</time>
      </trkpt>
      <trkpt lat="46.2145" lon="6.76492">
        <ele>1280</ele>
        <time>2010-01-03T07:47:40Z</time>
      </trkpt>
      <trkpt lat="46.21414" lon="6.76524">
        <ele>1276</ele>
        <time>2010-01-03T07:47:57Z</time>
      </trkpt>
      <trkpt lat="46.2141" lon="6.7653">
        <ele>1277</ele>
        <time>2010-01-03T07:47:59Z</time>
      </trkpt>
      <trkpt lat="46.21387" lon="6.7656">
        <ele>1282</ele>
        <time>2010-01-03T07:48:12Z</time>
      </trkpt>
      <trkpt lat="46.21365" lon="6.76579">
        <ele>1278</ele>
        <time>2010-01-03T07:48:22Z</time>
      </trkpt>
      <trkpt lat="46.21349" lon="6.76585">
        <ele>1285</ele>
        <time>2010-01-03T07:48:29Z</time>
      </trkpt>
      <trkpt lat="46.21357" lon="6.76561">
        <ele>1275</ele>
        <time>2010-01-03T07:48:36Z</time>
      </trkpt>
      <trkpt lat="46.21405" lon="6.76505">
        <ele>1273</ele>
        <time>2010-01-03T07:49:01Z</time>
      </trkpt>
      <trkpt lat="46.21407" lon="6.76503">
        <ele>1273</ele>
        <time>2010-01-03T07:49:02Z</time>
      </trkpt>
      <trkpt lat="46.21456" lon="6.76423">
        <ele>1272</ele>
        <time>2010-01-03T07:49:32Z</time>
      </trkpt>
      <trkpt lat="46.21486" lon="6.76357">
        <ele>1257</ele>
        <time>2010-01-03T07:49:53Z</time>
      </trkpt>
      <trkpt lat="46.21511" lon="6.7632">
        <ele>1263</ele>
        <time>2010-01-03T07:50:08Z</time>
      </trkpt>
      <trkpt lat="46.21525" lon="6.76254">
        <ele>1260</ele>
        <time>2010-01-03T07:50:27Z</time>
      </trkpt>
      <trkpt lat="46.2153" lon="6.76205">
        <ele>1248</ele>
        <time>2010-01-03T07:50:40Z</time>
      </trkpt>
      <trkpt lat="46.21553" lon="6.76148">
        <ele>1241</ele>
        <time>2010-01-03T07:50:59Z</time>
      </trkpt>
      <trkpt lat="46.21562" lon="6.76106">
        <ele>1239</ele>
        <time>2010-01-03T07:51:11Z</time>
      </trkpt>
      <trkpt lat="46.21556" lon="6.7607">
        <ele>1232</ele>
        <time>2010-01-03T07:51:21Z</time>
      </trkpt>
      <trkpt lat="46.21574" lon="6.7603">
        <ele>1232</ele>
        <time>2010-01-03T07:51:34Z</time>
      </trkpt>
      <trkpt lat="46.21583" lon="6.75968">
        <ele>1226</ele>
        <time>2010-01-03T07:51:52Z</time>
      </trkpt>
      <trkpt lat="46.21573" lon="6.75907">
        <ele>1221</ele>
        <time>2010-01-03T07:52:09Z</time>
      </trkpt>
      <trkpt lat="46.21534" lon="6.75769">
        <ele>1210</ele>
        <time>2010-01-03T07:52:50Z</time>
      </trkpt>
      <trkpt lat="46.21522" lon="6.75737">
        <ele>1209</ele>
        <time>2010-01-03T07:53:01Z</time>
      </trkpt>
      <trkpt lat="46.21512" lon="6.75704">
        <ele>1210</ele>
        <time>2010-01-03T07:53:10Z</time>
      </trkpt>
      <trkpt lat="46.21512" lon="6.75703">
        <ele>1210</ele>
        <time>2010-01-03T07:53:11Z</time>
      </trkpt>
      <trkpt lat="46.21501" lon="6.75656">
        <ele>1208</ele>
        <time>2010-01-03T07:53:25Z</time>
      </trkpt>
      <trkpt lat="46.21497" lon="6.75626">
        <ele>1212</ele>
        <time>2010-01-03T07:53:33Z</time>
      </trkpt>
      <trkpt lat="46.2149" lon="6.75581">
        <ele>1208</ele>
        <time>2010-01-03T07:53:46Z</time>
      </trkpt>
      <trkpt lat="46.21493" lon="6.75532">
        <ele>1205</ele>
        <time>2010-01-03T07:53:59Z</time>
      </trkpt>
      <trkpt lat="46.21501" lon="6.75488">
        <ele>1206</ele>
        <time>2010-01-03T07:54:12Z</time>
      </trkpt>
      <trkpt lat="46.21518" lon="6.75437">
        <ele>1205</ele>
        <time>2010-01-03T07:54:28Z</time>
      </trkpt>
      <trkpt lat="46.21519" lon="6.75387">
        <ele>1202</ele>
        <time>2010-01-03T07:54:41Z</time>
      </trkpt>
      <trkpt lat="46.21526" lon="6.75331">
        <ele>1199</ele>
        <time>2010-01-03T07:54:57Z</time>
      </trkpt>
      <trkpt lat="46.21537" lon="6.75281">
        <ele>1204</ele>
        <time>2010-01-03T07:55:12Z</time>
      </trkpt>
      <trkpt lat="46.21508" lon="6.75122">
        <ele>1203</ele>
        <time>2010-01-03T07:55:57Z</time>
      </trkpt>
      <trkpt lat="46.21486" lon="6.75059">
        <ele>1184</ele>
        <time>2010-01-03T07:56:17Z</time>
      </trkpt>
      <trkpt lat="46.21463" lon="6.74996">
        <ele>1188</ele>
        <time>2010-01-03T07:56:37Z</time>
      </trkpt>
      <trkpt lat="46.21429" lon="6.7491">
        <ele>1185</ele>
        <time>2010-01-03T07:57:04Z</time>
      </trkpt>
      <trkpt lat="46.21399" lon="6.74845">
        <ele>1171</ele>
        <time>2010-01-03T07:57:26Z</time>
      </trkpt>
      <trkpt lat="46.21332" lon="6.74736">
        <ele>1151</ele>
        <time>2010-01-03T07:58:06Z</time>
      </trkpt>
      <trkpt lat="46.21279" lon="6.74618">
        <ele>1153</ele>
        <time>2010-01-03T07:58:45Z</time>
      </trkpt>
      <trkpt lat="46.21262" lon="6.74557">
        <ele>1155</ele>
        <time>2010-01-03T07:59:03Z</time>
      </trkpt>
      <trkpt lat="46.21259" lon="6.74508">
        <ele>1150</ele>
        <time>2010-01-03T07:59:17Z</time>
      </trkpt>
      <trkpt lat="46.21217" lon="6.7434">
        <ele>1129</ele>
        <time>2010-01-03T08:00:06Z</time>
      </trkpt>
      <trkpt lat="46.21193" lon="6.74243">
        <ele>1129</ele>
        <time>2010-01-03T08:00:35Z</time>
      </trkpt>
      <trkpt lat="46.21163" lon="6.74166">
        <ele>1119</ele>
        <time>2010-01-03T08:00:59Z</time>
      </trkpt>
      <trkpt lat="46.21152" lon="6.74069">
        <ele>1112</ele>
        <time>2010-01-03T08:01:27Z</time>
      </trkpt>
      <trkpt lat="46.21122" lon="6.73951">
        <ele>1106</ele>
        <time>2010-01-03T08:02:01Z</time>
      </trkpt>
      <trkpt lat="46.21111" lon="6.73814">
        <ele>1107</ele>
        <time>2010-01-03T08:02:40Z</time>
      </trkpt>
      <trkpt lat="46.21109" lon="6.73736">
        <ele>1108</ele>
        <time>2010-01-03T08:03:01Z</time>
      </trkpt>
      <trkpt lat="46.21098" lon="6.73588">
        <ele>1105</ele>
        <time>2010-01-03T08:03:42Z</time>
      </trkpt>
      <trkpt lat="46.21088" lon="6.73516">
        <ele>1107</ele>
        <time>2010-01-03T08:04:03Z</time>
      </trkpt>
      <trkpt lat="46.21081" lon="6.7348">
        <ele>1088</ele>
        <time>2010-01-03T08:04:13Z</time>
      </trkpt>
      <trkpt lat="46.21072" lon="6.7345">
        <ele>1087</ele>
        <time>2010-01-03T08:04:22Z</time>
      </trkpt>
      <trkpt lat="46.21051" lon="6.73556">
        <ele>1081</ele>
        <time>2010-01-03T08:04:53Z</time>
      </trkpt>
      <trkpt lat="46.21032" lon="6.7365">
        <ele>1079</ele>
        <time>2010-01-03T08:05:20Z</time>
      </trkpt>
      <trkpt lat="46.20991" lon="6.73691">
        <ele>1079</ele>
        <time>2010-01-03T08:05:40Z</time>
      </trkpt>
      <trkpt lat="46.20946" lon="6.73701">
        <ele>1083</ele>
        <time>2010-01-03T08:05:58Z</time>
      </trkpt>
      <trkpt lat="46.20891" lon="6.73669">
        <ele>1094</ele>
        <time>2010-01-03T08:06:22Z</time>
      </trkpt>
      <trkpt lat="46.20872" lon="6.736">
        <ele>1084</ele>
        <time>2010-01-03T08:06:43Z</time>
      </trkpt>
      <trkpt lat="46.20856" lon="6.7357">
        <ele>1080</ele>
        <time>2010-01-03T08:06:53Z</time>
      </trkpt>
      <trkpt lat="46.2082" lon="6.73543">
        <ele>1099</ele>
        <time>2010-01-03T08:07:09Z</time>
      </trkpt>
      <trkpt lat="46.20812" lon="6.73475">
        <ele>1094</ele>
        <time>2010-01-03T08:07:28Z</time>
      </trkpt>
      <trkpt lat="46.20804" lon="6.73424">
        <ele>1094</ele>
        <time>2010-01-03T08:07:43Z</time>
      </trkpt>
      <trkpt lat="46.20814" lon="6.73354">
        <ele>1084</ele>
        <time>2010-01-03T08:08:03Z</time>
      </trkpt>
      <trkpt lat="46.20789" lon="6.73229">
        <ele>1083</ele>
        <time>2010-01-03T08:08:39Z</time>
      </trkpt>
      <trkpt lat="46.20764" lon="6.73177">
        <ele>1088</ele>
        <time>2010-01-03T08:08:56Z</time>
      </trkpt>
      <trkpt lat="46.2075" lon="6.73106">
        <ele>1115</ele>
        <time>2010-01-03T08:09:17Z</time>
      </trkpt>
      <trkpt lat="46.20762" lon="6.73047">
        <ele>1089</ele>
        <time>2010-01-03T08:09:34Z</time>
      </trkpt>
      <trkpt lat="46.20759" lon="6.72957">
        <ele>1084</ele>
        <time>2010-01-03T08:09:59Z</time>
      </trkpt>
      <trkpt lat="46.2075" lon="6.72843">
        <ele>1095</ele>
        <time>2010-01-03T08:10:31Z</time>
      </trkpt>
      <trkpt lat="46.2075" lon="6.72712">
        <ele>1108</ele>
        <time>2010-01-03T08:11:07Z</time>
      </trkpt>
      <trkpt lat="46.20747" lon="6.72628">
        <ele>1105</ele>
        <time>2010-01-03T08:11:30Z</time>
      </trkpt>
      <trkpt lat="46.20745" lon="6.72563">
        <ele>1104</ele>
        <time>2010-01-03T08:11:48Z</time>
      </trkpt>
      <trkpt lat="46.20741" lon="6.72521">
        <ele>1108</ele>
        <time>2010-01-03T08:12:00Z</time>
      </trkpt>
      <trkpt lat="46.20748" lon="6.72455">
        <ele>1113</ele>
        <time>2010-01-03T08:12:18Z</time>
      </trkpt>
      <trkpt lat="46.20763" lon="6.72415">
        <ele>1092</ele>
        <time>2010-01-03T08:12:31Z</time>
      </trkpt>
      <trkpt lat="46.20763" lon="6.72356">
        <ele>1083</ele>
        <time>2010-01-03T08:12:47Z</time>
      </trkpt>
      <trkpt lat="46.20763" lon="6.72354">
        <ele>1083</ele>
        <time>2010-01-03T08:12:48Z</time>
      </trkpt>
      <trkpt lat="46.20748" lon="6.72207">
        <ele>1092</ele>
        <time>2010-01-03T08:13:29Z</time>
      </trkpt>
      <trkpt lat="46.20744" lon="6.7213">
        <ele>1093</ele>
        <time>2010-01-03T08:13:51Z</time>
      </trkpt>
      <trkpt lat="46.20745" lon="6.72083">
        <ele>1088</ele>
        <time>2010-01-03T08:14:03Z</time>
      </trkpt>
      <trkpt lat="46.20792" lon="6.72051">
        <ele>1082</ele>
        <time>2010-01-03T08:14:24Z</time>
      </trkpt>
      <trkpt lat="46.20823" lon="6.72037">
        <ele>1081</ele>
        <time>2010-01-03T08:14:37Z</time>
      </trkpt>
      <trkpt lat="46.20841" lon="6.72013">
        <ele>1081</ele>
        <time>2010-01-03T08:14:47Z</time>
      </trkpt>
      <trkpt lat="46.20869" lon="6.71968">
        <ele>1090</ele>
        <time>2010-01-03T08:15:04Z</time>
      </trkpt>
      <trkpt lat="46.20883" lon="6.71944">
        <ele>1092</ele>
        <time>2010-01-03T08:15:12Z</time>
      </trkpt>
      <trkpt lat="46.20881" lon="6.71908">
        <ele>1097</ele>
        <time>2010-01-03T08:15:23Z</time>
      </trkpt>
      <trkpt lat="46.20862" lon="6.71822">
        <ele>1094</ele>
        <time>2010-01-03T08:15:48Z</time>
      </trkpt>
      <trkpt lat="46.2085" lon="6.7177">
        <ele>1091</ele>
        <time>2010-01-03T08:16:03Z</time>
      </trkpt>
      <trkpt lat="46.20846" lon="6.71716">
        <ele>1091</ele>
        <time>2010-01-03T08:16:18Z</time>
      </trkpt>
      <trkpt lat="46.2082" lon="6.71624">
        <ele>1070</ele>
        <time>2010-01-03T08:16:45Z</time>
      </trkpt>
      <trkpt lat="46.20781" lon="6.71587">
        <ele>1065</ele>
        <time>2010-01-03T08:17:04Z</time>
      </trkpt>
      <trkpt lat="46.20742" lon="6.71583">
        <ele>1055</ele>
        <time>2010-01-03T08:17:19Z</time>
      </trkpt>
      <trkpt lat="46.20723" lon="6.71558">
        <ele>1054</ele>
        <time>2010-01-03T08:17:30Z</time>
      </trkpt>
      <trkpt lat="46.20711" lon="6.71512">
        <ele>1051</ele>
        <time>2010-01-03T08:17:44Z</time>
      </trkpt>
      <trkpt lat="46.20693" lon="6.7143">
        <ele>1035</ele>
        <time>2010-01-03T08:18:07Z</time>
      </trkpt>
      <trkpt lat="46.20684" lon="6.71355">
        <ele>1023</ele>
        <time>2010-01-03T08:18:28Z</time>
      </trkpt>
      <trkpt lat="46.20679" lon="6.71295">
        <ele>1015</ele>
        <time>2010-01-03T08:18:45Z</time>
      </trkpt>
      <trkpt lat="46.20681" lon="6.71238">
        <ele>1007</ele>
        <time>2010-01-03T08:19:01Z</time>
      </trkpt>
      <trkpt lat="46.20672" lon="6.71172">
        <ele>1000</ele>
        <time>2010-01-03T08:19:20Z</time>
      </trkpt>
      <trkpt lat="46.20659" lon="6.71101">
        <ele>996</ele>
        <time>2010-01-03T08:19:40Z</time>
      </trkpt>
      <trkpt lat="46.20639" lon="6.71097">
        <ele>996</ele>
        <time>2010-01-03T08:19:48Z</time>
      </trkpt>
      <trkpt lat="46.20609" lon="6.7109">
        <ele>996</ele>
        <time>2010-01-03T08:20:00Z</time>
      </trkpt>
      <trkpt lat="46.20583" lon="6.71059">
        <ele>997</ele>
        <time>2010-01-03T08:20:14Z</time>
      </trkpt>
      <trkpt lat="46.20551" lon="6.71005">
        <ele>997</ele>
        <time>2010-01-03T08:20:33Z</time>
      </trkpt>
      <trkpt lat="46.20527" lon="6.70942">
        <ele>994</ele>
        <time>2010-01-03T08:20:53Z</time>
      </trkpt>
      <trkpt lat="46.20498" lon="6.70871">
        <ele>996</ele>
        <time>2010-01-03T08:21:16Z</time>
      </trkpt>
      <trkpt lat="46.20476" lon="6.70835">
        <ele>995</ele>
        <time>2010-01-03T08:21:29Z</time>
      </trkpt>
      <trkpt lat="46.2045" lon="6.70787">
        <ele>990</ele>
        <time>2010-01-03T08:21:46Z</time>
      </trkpt>
      <trkpt lat="46.20433" lon="6.70733">
        <ele>984</ele>
        <time>2010-01-03T08:22:03Z</time>
      </trkpt>
      <trkpt lat="46.2042" lon="6.70691">
        <ele>980</ele>
        <time>2010-01-03T08:22:16Z</time>
      </trkpt>
      <trkpt lat="46.20402" lon="6.70611">
        <ele>985</ele>
        <time>2010-01-03T08:22:39Z</time>
      </trkpt>
      <trkpt lat="46.20395" lon="6.70561">
        <ele>976</ele>
        <time>2010-01-03T08:22:53Z</time>
      </trkpt>
      <trkpt lat="46.20389" lon="6.7052">
        <ele>974</ele>
        <time>2010-01-03T08:23:05Z</time>
      </trkpt>
      <trkpt lat="46.20367" lon="6.70459">
        <ele>969</ele>
        <time>2010-01-03T08:23:24Z</time>
      </trkpt>
      <trkpt lat="46.20349" lon="6.70417">
        <ele>967</ele>
        <time>2010-01-03T08:23:38Z</time>
      </trkpt>
      <trkpt lat="46.20338" lon="6.70364">
        <ele>961</ele>
        <time>2010-01-03T08:23:53Z</time>
      </trkpt>
      <trkpt lat="46.20319" lon="6.70291">
        <ele>957</ele>
        <time>2010-01-03T08:24:14Z</time>
      </trkpt>
      <trkpt lat="46.20317" lon="6.70245">
        <ele>949</ele>
        <time>2010-01-03T08:24:27Z</time>
      </trkpt>
      <trkpt lat="46.20327" lon="6.70208">
        <ele>950</ele>
        <time>2010-01-03T08:24:38Z</time>
      </trkpt>
      <trkpt lat="46.20322" lon="6.70169">
        <ele>947</ele>
        <time>2010-01-03T08:24:49Z</time>
      </trkpt>
      <trkpt lat="46.20307" lon="6.70137">
        <ele>950</ele>
        <time>2010-01-03T08:25:00Z</time>
      </trkpt>
      <trkpt lat="46.2028" lon="6.70096">
        <ele>951</ele>
        <time>2010-01-03T08:25:16Z</time>
      </trkpt>
      <trkpt lat="46.2027" lon="6.70052">
        <ele>952</ele>
        <time>2010-01-03T08:25:28Z</time>
      </trkpt>
      <trkpt lat="46.20264" lon="6.70017">
        <ele>950</ele>
        <time>2010-01-03T08:25:38Z</time>
      </trkpt>
      <trkpt lat="46.20254" lon="6.69973">
        <ele>951</ele>
        <time>2010-01-03T08:25:51Z</time>
      </trkpt>
      <trkpt lat="46.20234" lon="6.69906">
        <ele>945</ele>
        <time>2010-01-03T08:26:12Z</time>
      </trkpt>
      <trkpt lat="46.20221" lon="6.69845">
        <ele>944</ele>
        <time>2010-01-03T08:26:29Z</time>
      </trkpt>
      <trkpt lat="46.20217" lon="6.69814">
        <ele>940</ele>
        <time>2010-01-03T08:26:38Z</time>
      </trkpt>
      <trkpt lat="46.20229" lon="6.69777">
        <ele>939</ele>
        <time>2010-01-03T08:26:49Z</time>
      </trkpt>
      <trkpt lat="46.20229" lon="6.69774">
        <ele>939</ele>
        <time>2010-01-03T08:26:50Z</time>
      </trkpt>
      <trkpt lat="46.20213" lon="6.69731">
        <ele>937</ele>
        <time>2010-01-03T08:27:04Z</time>
      </trkpt>
      <trkpt lat="46.20195" lon="6.69671">
        <ele>936</ele>
        <time>2010-01-03T08:27:22Z</time>
      </trkpt>
      <trkpt lat="46.20181" lon="6.69607">
        <ele>936</ele>
        <time>2010-01-03T08:27:40Z</time>
      </trkpt>
      <trkpt lat="46.20165" lon="6.69543">
        <ele>931</ele>
        <time>2010-01-03T08:27:59Z</time>
      </trkpt>
      <trkpt lat="46.20161" lon="6.69472">
        <ele>925</ele>
        <time>2010-01-03T08:28:19Z</time>
      </trkpt>
      <trkpt lat="46.20153" lon="6.69432">
        <ele>926</ele>
        <time>2010-01-03T08:28:30Z</time>
      </trkpt>
      <trkpt lat="46.20129" lon="6.69397">
        <ele>925</ele>
        <time>2010-01-03T08:28:44Z</time>
      </trkpt>
      <trkpt lat="46.20098" lon="6.69369">
        <ele>923</ele>
        <time>2010-01-03T08:28:59Z</time>
      </trkpt>
      <trkpt lat="46.20077" lon="6.69328">
        <ele>920</ele>
        <time>2010-01-03T08:29:13Z</time>
      </trkpt>
      <trkpt lat="46.20063" lon="6.69284">
        <ele>921</ele>
        <time>2010-01-03T08:29:26Z</time>
      </trkpt>
      <trkpt lat="46.20039" lon="6.6919">
        <ele>917</ele>
        <time>2010-01-03T08:29:54Z</time>
      </trkpt>
      <trkpt lat="46.20034" lon="6.69104">
        <ele>911</ele>
        <time>2010-01-03T08:30:18Z</time>
      </trkpt>
      <trkpt lat="46.20025" lon="6.69054">
        <ele>908</ele>
        <time>2010-01-03T08:30:32Z</time>
      </trkpt>
      <trkpt lat="46.20011" lon="6.68979">
        <ele>904</ele>
        <time>2010-01-03T08:30:54Z</time>
      </trkpt>
      <trkpt lat="46.20002" lon="6.68939">
        <ele>902</ele>
        <time>2010-01-03T08:31:05Z</time>
      </trkpt>
      <trkpt lat="46.2002" lon="6.68898">
        <ele>900</ele>
        <time>2010-01-03T08:31:19Z</time>
      </trkpt>
      <trkpt lat="46.20016" lon="6.68875">
        <ele>900</ele>
        <time>2010-01-03T08:31:25Z</time>
      </trkpt>
      <trkpt lat="46.19995" lon="6.68872">
        <ele>896</ele>
        <time>2010-01-03T08:31:34Z</time>
      </trkpt>
      <trkpt lat="46.19968" lon="6.68897">
        <ele>896</ele>
        <time>2010-01-03T08:31:47Z</time>
      </trkpt>
      <trkpt lat="46.19935" lon="6.68913">
        <ele>897</ele>
        <time>2010-01-03T08:32:00Z</time>
      </trkpt>
      <trkpt lat="46.19912" lon="6.68902">
        <ele>897</ele>
        <time>2010-01-03T08:32:10Z</time>
      </trkpt>
      <trkpt lat="46.19903" lon="6.68858">
        <ele>897</ele>
        <time>2010-01-03T08:32:23Z</time>
      </trkpt>
      <trkpt lat="46.19887" lon="6.68833">
        <ele>896</ele>
        <time>2010-01-03T08:32:33Z</time>
      </trkpt>
      <trkpt lat="46.19856" lon="6.68822">
        <ele>897</ele>
        <time>2010-01-03T08:32:45Z</time>
      </trkpt>
      <trkpt lat="46.19832" lon="6.68817">
        <ele>898</ele>
        <time>2010-01-03T08:32:55Z</time>
      </trkpt>
      <trkpt lat="46.19822" lon="6.68795">
        <ele>899</ele>
        <time>2010-01-03T08:33:02Z</time>
      </trkpt>
      <trkpt lat="46.19807" lon="6.68802">
        <ele>900</ele>
        <time>2010-01-03T08:33:09Z</time>
      </trkpt>
      <trkpt lat="46.19782" lon="6.68829">
        <ele>900</ele>
        <time>2010-01-03T08:33:21Z</time>
      </trkpt>
      <trkpt lat="46.1969" lon="6.68913">
        <ele>903</ele>
        <time>2010-01-03T08:34:05Z</time>
      </trkpt>
      <trkpt lat="46.19658" lon="6.68945">
        <ele>905</ele>
        <time>2010-01-03T08:34:20Z</time>
      </trkpt>
      <trkpt lat="46.19623" lon="6.68973">
        <ele>906</ele>
        <time>2010-01-03T08:34:36Z</time>
      </trkpt>
      <trkpt lat="46.19597" lon="6.68999">
        <ele>905</ele>
        <time>2010-01-03T08:34:49Z</time>
      </trkpt>
      <trkpt lat="46.19552" lon="6.69032">
        <ele>914</ele>
        <time>2010-01-03T08:35:09Z</time>
      </trkpt>
      <trkpt lat="46.19532" lon="6.69045">
        <ele>915</ele>
        <time>2010-01-03T08:35:18Z</time>
      </trkpt>
      <trkpt lat="46.19507" lon="6.69049">
        <ele>916</ele>
        <time>2010-01-03T08:35:28Z</time>
      </trkpt>
      <trkpt lat="46.19489" lon="6.69058">
        <ele>925</ele>
        <time>2010-01-03T08:35:36Z</time>
      </trkpt>
      <trkpt lat="46.19478" lon="6.69069">
        <ele>925</ele>
        <time>2010-01-03T08:35:41Z</time>
      </trkpt>
      <trkpt lat="46.19481" lon="6.6911">
        <ele>917</ele>
        <time>2010-01-03T08:35:52Z</time>
      </trkpt>
      <trkpt lat="46.19482" lon="6.69159">
        <ele>915</ele>
        <time>2010-01-03T08:36:06Z</time>
      </trkpt>
      <trkpt lat="46.19452" lon="6.69194">
        <ele>914</ele>
        <time>2010-01-03T08:36:21Z</time>
      </trkpt>
      <trkpt lat="46.19418" lon="6.69226">
        <ele>914</ele>
        <time>2010-01-03T08:36:38Z</time>
      </trkpt>
      <trkpt lat="46.19397" lon="6.69236">
        <ele>921</ele>
        <time>2010-01-03T08:36:46Z</time>
      </trkpt>
      <trkpt lat="46.19374" lon="6.69253">
        <ele>920</ele>
        <time>2010-01-03T08:36:57Z</time>
      </trkpt>
      <trkpt lat="46.19373" lon="6.69254">
        <ele>920</ele>
        <time>2010-01-03T08:36:57Z</time>
      </trkpt>
      <trkpt lat="46.19357" lon="6.69297">
        <ele>920</ele>
        <time>2010-01-03T08:37:11Z</time>
      </trkpt>
      <trkpt lat="46.19351" lon="6.69327">
        <ele>920</ele>
        <time>2010-01-03T08:37:19Z</time>
      </trkpt>
      <trkpt lat="46.19353" lon="6.69352">
        <ele>917</ele>
        <time>2010-01-03T08:37:26Z</time>
      </trkpt>
      <trkpt lat="46.19346" lon="6.6939">
        <ele>916</ele>
        <time>2010-01-03T08:37:37Z</time>
      </trkpt>
      <trkpt lat="46.19337" lon="6.69418">
        <ele>915</ele>
        <time>2010-01-03T08:37:46Z</time>
      </trkpt>
      <trkpt lat="46.19314" lon="6.69452">
        <ele>917</ele>
        <time>2010-01-03T08:37:59Z</time>
      </trkpt>
      <trkpt lat="46.19287" lon="6.69482">
        <ele>917</ele>
        <time>2010-01-03T08:38:13Z</time>
      </trkpt>
      <trkpt lat="46.19255" lon="6.69505">
        <ele>918</ele>
        <time>2010-01-03T08:38:27Z</time>
      </trkpt>
      <trkpt lat="46.19218" lon="6.69526">
        <ele>921</ele>
        <time>2010-01-03T08:38:43Z</time>
      </trkpt>
      <trkpt lat="46.19202" lon="6.69529">
        <ele>921</ele>
        <time>2010-01-03T08:38:49Z</time>
      </trkpt>
      <trkpt lat="46.1919" lon="6.69534">
        <ele>922</ele>
        <time>2010-01-03T08:38:55Z</time>
      </trkpt>
      <trkpt lat="46.19175" lon="6.69539">
        <ele>922</ele>
        <time>2010-01-03T08:39:00Z</time>
      </trkpt>
      <trkpt lat="46.19159" lon="6.69543">
        <ele>927</ele>
        <time>2010-01-03T08:39:07Z</time>
      </trkpt>
      <trkpt lat="46.19143" lon="6.6955">
        <ele>927</ele>
        <time>2010-01-03T08:39:14Z</time>
      </trkpt>
      <trkpt lat="46.19133" lon="6.69562">
        <ele>927</ele>
        <time>2010-01-03T08:39:19Z</time>
      </trkpt>
      <trkpt lat="46.19118" lon="6.6959">
        <ele>925</ele>
        <time>2010-01-03T08:39:29Z</time>
      </trkpt>
      <trkpt lat="46.19102" lon="6.69613">
        <ele>926</ele>
        <time>2010-01-03T08:39:38Z</time>
      </trkpt>
      <trkpt lat="46.191" lon="6.69616">
        <ele>926</ele>
        <time>2010-01-03T08:39:39Z</time>
      </trkpt>
      <trkpt lat="46.19081" lon="6.69638">
        <ele>929</ele>
        <time>2010-01-03T08:39:48Z</time>
      </trkpt>
      <trkpt lat="46.19052" lon="6.69647">
        <ele>929</ele>
        <time>2010-01-03T08:40:01Z</time>
      </trkpt>
      <trkpt lat="46.1902" lon="6.69647">
        <ele>929</ele>
        <time>2010-01-03T08:40:13Z</time>
      </trkpt>
      <trkpt lat="46.18993" lon="6.69657">
        <ele>931</ele>
        <time>2010-01-03T08:40:24Z</time>
      </trkpt>
      <trkpt lat="46.1897" lon="6.69682">
        <ele>931</ele>
        <time>2010-01-03T08:40:36Z</time>
      </trkpt>
      <trkpt lat="46.18947" lon="6.69709">
        <ele>932</ele>
        <time>2010-01-03T08:40:48Z</time>
      </trkpt>
      <trkpt lat="46.18924" lon="6.69745">
        <ele>929</ele>
        <time>2010-01-03T08:41:01Z</time>
      </trkpt>
      <trkpt lat="46.18907" lon="6.6977">
        <ele>931</ele>
        <time>2010-01-03T08:41:11Z</time>
      </trkpt>
      <trkpt lat="46.18886" lon="6.69784">
        <ele>932</ele>
        <time>2010-01-03T08:41:20Z</time>
      </trkpt>
      <trkpt lat="46.18855" lon="6.69798">
        <ele>932</ele>
        <time>2010-01-03T08:41:33Z</time>
      </trkpt>
      <trkpt lat="46.18854" lon="6.69799">
        <ele>932</ele>
        <time>2010-01-03T08:41:34Z</time>
      </trkpt>
      <trkpt lat="46.18811" lon="6.69815">
        <ele>936</ele>
        <time>2010-01-03T08:41:52Z</time>
      </trkpt>
      <trkpt lat="46.18785" lon="6.69834">
        <ele>933</ele>
        <time>2010-01-03T08:42:03Z</time>
      </trkpt>
      <trkpt lat="46.18783" lon="6.69836">
        <ele>933</ele>
        <time>2010-01-03T08:42:04Z</time>
      </trkpt>
      <trkpt lat="46.18758" lon="6.69866">
        <ele>934</ele>
        <time>2010-01-03T08:42:17Z</time>
      </trkpt>
      <trkpt lat="46.18757" lon="6.69868">
        <ele>933</ele>
        <time>2010-01-03T08:42:18Z</time>
      </trkpt>
      <trkpt lat="46.18742" lon="6.69895">
        <ele>938</ele>
        <time>2010-01-03T08:42:27Z</time>
      </trkpt>
      <trkpt lat="46.18741" lon="6.69896">
        <ele>938</ele>
        <time>2010-01-03T08:42:28Z</time>
      </trkpt>
      <trkpt lat="46.18738" lon="6.69935">
        <ele>935</ele>
        <time>2010-01-03T08:42:39Z</time>
      </trkpt>
      <trkpt lat="46.18738" lon="6.69985">
        <ele>936</ele>
        <time>2010-01-03T08:42:53Z</time>
      </trkpt>
      <trkpt lat="46.18718" lon="6.70027">
        <ele>938</ele>
        <time>2010-01-03T08:43:07Z</time>
      </trkpt>
      <trkpt lat="46.18717" lon="6.70031">
        <ele>939</ele>
        <time>2010-01-03T08:43:08Z</time>
      </trkpt>
      <trkpt lat="46.18706" lon="6.70066">
        <ele>940</ele>
        <time>2010-01-03T08:43:19Z</time>
      </trkpt>
      <trkpt lat="46.18706" lon="6.70068">
        <ele>940</ele>
        <time>2010-01-03T08:43:19Z</time>
      </trkpt>
      <trkpt lat="46.18692" lon="6.70105">
        <ele>944</ele>
        <time>2010-01-03T08:43:31Z</time>
      </trkpt>
      <trkpt lat="46.18673" lon="6.70134">
        <ele>944</ele>
        <time>2010-01-03T08:43:42Z</time>
      </trkpt>
      <trkpt lat="46.18645" lon="6.70167">
        <ele>944</ele>
        <time>2010-01-03T08:43:57Z</time>
      </trkpt>
      <trkpt lat="46.18594" lon="6.70202">
        <ele>945</ele>
        <time>2010-01-03T08:44:19Z</time>
      </trkpt>
      <trkpt lat="46.18552" lon="6.70247">
        <ele>945</ele>
        <time>2010-01-03T08:44:40Z</time>
      </trkpt>
      <trkpt lat="46.18547" lon="6.70253">
        <ele>945</ele>
        <time>2010-01-03T08:44:43Z</time>
      </trkpt>
      <trkpt lat="46.18511" lon="6.70293">
        <ele>944</ele>
        <time>2010-01-03T08:45:01Z</time>
      </trkpt>
      <trkpt lat="46.18492" lon="6.7032">
        <ele>945</ele>
        <time>2010-01-03T08:45:12Z</time>
      </trkpt>
      <trkpt lat="46.18469" lon="6.70353">
        <ele>946</ele>
        <time>2010-01-03T08:45:25Z</time>
      </trkpt>
      <trkpt lat="46.18439" lon="6.70394">
        <ele>947</ele>
        <time>2010-01-03T08:45:41Z</time>
      </trkpt>
      <trkpt lat="46.18436" lon="6.70397">
        <ele>946</ele>
        <time>2010-01-03T08:45:43Z</time>
      </trkpt>
      <trkpt lat="46.18402" lon="6.70435">
        <ele>947</ele>
        <time>2010-01-03T08:46:00Z</time>
      </trkpt>
      <trkpt lat="46.1837" lon="6.70473">
        <ele>949</ele>
        <time>2010-01-03T08:46:16Z</time>
      </trkpt>
      <trkpt lat="46.18353" lon="6.70499">
        <ele>949</ele>
        <time>2010-01-03T08:46:26Z</time>
      </trkpt>
      <trkpt lat="46.1834" lon="6.70526">
        <ele>953</ele>
        <time>2010-01-03T08:46:35Z</time>
      </trkpt>
      <trkpt lat="46.18339" lon="6.70527">
        <ele>953</ele>
        <time>2010-01-03T08:46:36Z</time>
      </trkpt>
      <trkpt lat="46.18316" lon="6.70555">
        <ele>951</ele>
        <time>2010-01-03T08:46:48Z</time>
      </trkpt>
      <trkpt lat="46.18314" lon="6.70558">
        <ele>951</ele>
        <time>2010-01-03T08:46:49Z</time>
      </trkpt>
      <trkpt lat="46.18288" lon="6.70581">
        <ele>951</ele>
        <time>2010-01-03T08:47:01Z</time>
      </trkpt>
      <trkpt lat="46.18262" lon="6.70604">
        <ele>957</ele>
        <time>2010-01-03T08:47:14Z</time>
      </trkpt>
      <trkpt lat="46.18261" lon="6.70605">
        <ele>957</ele>
        <time>2010-01-03T08:47:14Z</time>
      </trkpt>
      <trkpt lat="46.18195" lon="6.70642">
        <ele>955</ele>
        <time>2010-01-03T08:47:42Z</time>
      </trkpt>
      <trkpt lat="46.18146" lon="6.70687">
        <ele>955</ele>
        <time>2010-01-03T08:48:06Z</time>
      </trkpt>
      <trkpt lat="46.18118" lon="6.70721">
        <ele>956</ele>
        <time>2010-01-03T08:48:20Z</time>
      </trkpt>
      <trkpt lat="46.18085" lon="6.70751">
        <ele>954</ele>
        <time>2010-01-03T08:48:36Z</time>
      </trkpt>
      <trkpt lat="46.18019" lon="6.70794">
        <ele>959</ele>
        <time>2010-01-03T08:49:05Z</time>
      </trkpt>
      <trkpt lat="46.17987" lon="6.70822">
        <ele>961</ele>
        <time>2010-01-03T08:49:20Z</time>
      </trkpt>
      <trkpt lat="46.1796" lon="6.7085">
        <ele>964</ele>
        <time>2010-01-03T08:49:33Z</time>
      </trkpt>
      <trkpt lat="46.17946" lon="6.70864">
        <ele>964</ele>
        <time>2010-01-03T08:49:40Z</time>
      </trkpt>
      <trkpt lat="46.1789" lon="6.70865">
        <ele>966</ele>
        <time>2010-01-03T08:50:03Z</time>
      </trkpt>
      <trkpt lat="46.17873" lon="6.70881">
        <ele>967</ele>
        <time>2010-01-03T08:50:10Z</time>
      </trkpt>
      <trkpt lat="46.17849" lon="6.70898">
        <ele>967</ele>
        <time>2010-01-03T08:50:21Z</time>
      </trkpt>
      <trkpt lat="46.17778" lon="6.70909">
        <ele>970</ele>
        <time>2010-01-03T08:50:50Z</time>
      </trkpt>
      <trkpt lat="46.17739" lon="6.70898">
        <ele>971</ele>
        <time>2010-01-03T08:51:06Z</time>
      </trkpt>
      <trkpt lat="46.17712" lon="6.70882">
        <ele>973</ele>
        <time>2010-01-03T08:51:17Z</time>
      </trkpt>
      <trkpt lat="46.1768" lon="6.70902">
        <ele>972</ele>
        <time>2010-01-03T08:51:31Z</time>
      </trkpt>
      <trkpt lat="46.17668" lon="6.70934">
        <ele>971</ele>
        <time>2010-01-03T08:51:42Z</time>
      </trkpt>
      <trkpt lat="46.17658" lon="6.70959">
        <ele>975</ele>
        <time>2010-01-03T08:51:49Z</time>
      </trkpt>
      <trkpt lat="46.17638" lon="6.70994">
        <ele>976</ele>
        <time>2010-01-03T08:52:02Z</time>
      </trkpt>
      <trkpt lat="46.17624" lon="6.71016">
        <ele>982</ele>
        <time>2010-01-03T08:52:10Z</time>
      </trkpt>
      <trkpt lat="46.1761" lon="6.71026">
        <ele>982</ele>
        <time>2010-01-03T08:52:16Z</time>
      </trkpt>
      <trkpt lat="46.17589" lon="6.71025">
        <ele>981</ele>
        <time>2010-01-03T08:52:25Z</time>
      </trkpt>
      <trkpt lat="46.17578" lon="6.71009">
        <ele>978</ele>
        <time>2010-01-03T08:52:31Z</time>
      </trkpt>
      <trkpt lat="46.1757" lon="6.70988">
        <ele>981</ele>
        <time>2010-01-03T08:52:38Z</time>
      </trkpt>
      <trkpt lat="46.17568" lon="6.70941">
        <ele>985</ele>
        <time>2010-01-03T08:52:51Z</time>
      </trkpt>
      <trkpt lat="46.17572" lon="6.70912">
        <ele>988</ele>
        <time>2010-01-03T08:52:59Z</time>
      </trkpt>
      <trkpt lat="46.17584" lon="6.70891">
        <ele>983</ele>
        <time>2010-01-03T08:53:07Z</time>
      </trkpt>
      <trkpt lat="46.17593" lon="6.70881">
        <ele>983</ele>
        <time>2010-01-03T08:53:11Z</time>
      </trkpt>
      <trkpt lat="46.17604" lon="6.70864">
        <ele>985</ele>
        <time>2010-01-03T08:53:18Z</time>
      </trkpt>
      <trkpt lat="46.17659" lon="6.70811">
        <ele>988</ele>
        <time>2010-01-03T08:53:44Z</time>
      </trkpt>
      <trkpt lat="46.17683" lon="6.70788">
        <ele>985</ele>
        <time>2010-01-03T08:53:56Z</time>
      </trkpt>
      <trkpt lat="46.17696" lon="6.70763">
        <ele>987</ele>
        <time>2010-01-03T08:54:04Z</time>
      </trkpt>
      <trkpt lat="46.17731" lon="6.70708">
        <ele>989</ele>
        <time>2010-01-03T08:54:25Z</time>
      </trkpt>
      <trkpt lat="46.17738" lon="6.70692">
        <ele>989</ele>
        <time>2010-01-03T08:54:30Z</time>
      </trkpt>
      <trkpt lat="46.17742" lon="6.70682">
        <ele>988</ele>
        <time>2010-01-03T08:54:34Z</time>
      </trkpt>
      <trkpt lat="46.17742" lon="6.70676">
        <ele>988</ele>
        <time>2010-01-03T08:54:35Z</time>
      </trkpt>
      <trkpt lat="46.17746" lon="6.70665">
        <ele>988</ele>
        <time>2010-01-03T08:54:39Z</time>
      </trkpt>
      <trkpt lat="46.17753" lon="6.70662">
        <ele>987</ele>
        <time>2010-01-03T08:54:42Z</time>
      </trkpt>
      <trkpt lat="46.17758" lon="6.70667">
        <ele>987</ele>
        <time>2010-01-03T08:54:44Z</time>
      </trkpt>
      <trkpt lat="46.17762" lon="6.70665">
        <ele>986</ele>
        <time>2010-01-03T08:54:46Z</time>
      </trkpt>
      <trkpt lat="46.17826" lon="6.7056">
        <ele>986</ele>
        <time>2010-01-03T08:55:25Z</time>
      </trkpt>
      <trkpt lat="46.17843" lon="6.70531">
        <ele>984</ele>
        <time>2010-01-03T08:55:35Z</time>
      </trkpt>
      <trkpt lat="46.17931" lon="6.70401">
        <ele>984</ele>
        <time>2010-01-03T08:56:25Z</time>
      </trkpt>
      <trkpt lat="46.17993" lon="6.70303">
        <ele>984</ele>
        <time>2010-01-03T08:57:02Z</time>
      </trkpt>
      <trkpt lat="46.18039" lon="6.7023">
        <ele>980</ele>
        <time>2010-01-03T08:57:29Z</time>
      </trkpt>
      <trkpt lat="46.18044" lon="6.70219">
        <ele>980</ele>
        <time>2010-01-03T08:57:33Z</time>
      </trkpt>
      <trkpt lat="46.18032" lon="6.70203">
        <ele>981</ele>
        <time>2010-01-03T08:57:40Z</time>
      </trkpt>
      <trkpt lat="46.18016" lon="6.70178">
        <ele>982</ele>
        <time>2010-01-03T08:57:49Z</time>
      </trkpt>
      <trkpt lat="46.18004" lon="6.70169">
        <ele>983</ele>
        <time>2010-01-03T08:57:55Z</time>
      </trkpt>
      <trkpt lat="46.18003" lon="6.70169">
        <ele>984</ele>
        <time>2010-01-03T08:57:55Z</time>
      </trkpt>
      <trkpt lat="46.17987" lon="6.70154">
        <ele>988</ele>
        <time>2010-01-03T08:58:03Z</time>
      </trkpt>
      <trkpt lat="46.17974" lon="6.70136">
        <ele>991</ele>
        <time>2010-01-03T08:58:10Z</time>
      </trkpt>
      <trkpt lat="46.17962" lon="6.70134">
        <ele>992</ele>
        <time>2010-01-03T08:58:15Z</time>
      </trkpt>
      <trkpt lat="46.17852" lon="6.70031">
        <ele>1033</ele>
        <time>2010-01-03T08:59:07Z</time>
      </trkpt>
      <trkpt lat="46.17805" lon="6.70021">
        <ele>1062</ele>
        <time>2010-01-03T08:59:26Z</time>
      </trkpt>
      <trkpt lat="46.17709" lon="6.69911">
        <ele>1130</ele>
        <time>2010-01-03T09:00:15Z</time>
      </trkpt>
      <trkpt lat="46.17648" lon="6.69888">
        <ele>1167</ele>
        <time>2010-01-03T09:00:40Z</time>
      </trkpt>
      <trkpt lat="46.17582" lon="6.69757">
        <ele>1220</ele>
        <time>2010-01-03T09:01:25Z</time>
      </trkpt>
      <trkpt lat="46.17539" lon="6.69753">
        <ele>1222</ele>
        <time>2010-01-03T09:01:43Z</time>
      </trkpt>
      <trkpt lat="46.17422" lon="6.69627">
        <ele>1274</ele>
        <time>2010-01-03T09:02:41Z</time>
      </trkpt>
      <trkpt lat="46.17325" lon="6.69539">
        <ele>1315</ele>
        <time>2010-01-03T09:03:27Z</time>
      </trkpt>
      <trkpt lat="46.17218" lon="6.69447">
        <ele>1358</ele>
        <time>2010-01-03T09:04:17Z</time>
      </trkpt>
      <trkpt lat="46.17088" lon="6.69343">
        <ele>1428</ele>
        <time>2010-01-03T09:05:16Z</time>
      </trkpt>
      <trkpt lat="46.16968" lon="6.69204">
        <ele>1496</ele>
        <time>2010-01-03T09:06:18Z</time>
      </trkpt>
      <trkpt lat="46.1697" lon="6.69193">
        <ele>1496</ele>
        <time>2010-01-03T09:06:21Z</time>
      </trkpt>
      <trkpt lat="46.17002" lon="6.69169">
        <ele>1493</ele>
        <time>2010-01-03T09:06:35Z</time>
      </trkpt>
      <trkpt lat="46.17048" lon="6.69125">
        <ele>1483</ele>
        <time>2010-01-03T09:06:58Z</time>
      </trkpt>
      <trkpt lat="46.17078" lon="6.69093">
        <ele>1481</ele>
        <time>2010-01-03T09:07:12Z</time>
      </trkpt>
      <trkpt lat="46.17097" lon="6.69087">
        <ele>1476</ele>
        <time>2010-01-03T09:07:21Z</time>
      </trkpt>
      <trkpt lat="46.17123" lon="6.6912">
        <ele>1472</ele>
        <time>2010-01-03T09:07:34Z</time>
      </trkpt>
      <trkpt lat="46.17133" lon="6.69136">
        <ele>1470</ele>
        <time>2010-01-03T09:07:40Z</time>
      </trkpt>
      <trkpt lat="46.17144" lon="6.69137">
        <ele>1469</ele>
        <time>2010-01-03T09:07:45Z</time>
      </trkpt>
      <trkpt lat="46.17156" lon="6.69133">
        <ele>1469</ele>
        <time>2010-01-03T09:07:50Z</time>
      </trkpt>
      <trkpt lat="46.17165" lon="6.69124">
        <ele>1470</ele>
        <time>2010-01-03T09:07:54Z</time>
      </trkpt>
      <trkpt lat="46.17211" lon="6.69091">
        <ele>1458</ele>
        <time>2010-01-03T09:08:14Z</time>
      </trkpt>
      <trkpt lat="46.17217" lon="6.6907">
        <ele>1457</ele>
        <time>2010-01-03T09:08:21Z</time>
      </trkpt>
      <trkpt lat="46.17211" lon="6.69">
        <ele>1449</ele>
        <time>2010-01-03T09:08:40Z</time>
      </trkpt>
      <trkpt lat="46.17213" lon="6.68982">
        <ele>1448</ele>
        <time>2010-01-03T09:08:45Z</time>
      </trkpt>
      <trkpt lat="46.17225" lon="6.68953">
        <ele>1446</ele>
        <time>2010-01-03T09:08:55Z</time>
      </trkpt>
      <trkpt lat="46.17226" lon="6.68932">
        <ele>1444</ele>
        <time>2010-01-03T09:09:01Z</time>
      </trkpt>
      <trkpt lat="46.17217" lon="6.68917">
        <ele>1445</ele>
        <time>2010-01-03T09:09:06Z</time>
      </trkpt>
      <trkpt lat="46.17187" lon="6.68875">
        <ele>1441</ele>
        <time>2010-01-03T09:09:23Z</time>
      </trkpt>
      <trkpt lat="46.17181" lon="6.6885">
        <ele>1441</ele>
        <time>2010-01-03T09:09:30Z</time>
      </trkpt>
      <trkpt lat="46.1718" lon="6.68824">
        <ele>1437</ele>
        <time>2010-01-03T09:09:37Z</time>
      </trkpt>
      <trkpt lat="46.17174" lon="6.68781">
        <ele>1431</ele>
        <time>2010-01-03T09:09:49Z</time>
      </trkpt>
      <trkpt lat="46.1716" lon="6.68768">
        <ele>1439</ele>
        <time>2010-01-03T09:09:56Z</time>
      </trkpt>
      <trkpt lat="46.17131" lon="6.68744">
        <ele>1433</ele>
        <time>2010-01-03T09:10:09Z</time>
      </trkpt>
      <trkpt lat="46.1709" lon="6.68726">
        <ele>1436</ele>
        <time>2010-01-03T09:10:27Z</time>
      </trkpt>
      <trkpt lat="46.17041" lon="6.68714">
        <ele>1446</ele>
        <time>2010-01-03T09:10:46Z</time>
      </trkpt>
      <trkpt lat="46.17012" lon="6.68714">
        <ele>1448</ele>
        <time>2010-01-03T09:10:58Z</time>
      </trkpt>
      <trkpt lat="46.16985" lon="6.68701">
        <ele>1453</ele>
        <time>2010-01-03T09:11:10Z</time>
      </trkpt>
      <trkpt lat="46.16974" lon="6.68681">
        <ele>1452</ele>
        <time>2010-01-03T09:11:17Z</time>
      </trkpt>
      <trkpt lat="46.16955" lon="6.68662">
        <ele>1444</ele>
        <time>2010-01-03T09:11:26Z</time>
      </trkpt>
      <trkpt lat="46.16926" lon="6.68648">
        <ele>1445</ele>
        <time>2010-01-03T09:11:38Z</time>
      </trkpt>
      <trkpt lat="46.1688" lon="6.68621">
        <ele>1444</ele>
        <time>2010-01-03T09:11:58Z</time>
      </trkpt>
      <trkpt lat="46.16852" lon="6.6859">
        <ele>1441</ele>
        <time>2010-01-03T09:12:12Z</time>
      </trkpt>
      <trkpt lat="46.16834" lon="6.68579">
        <ele>1436</ele>
        <time>2010-01-03T09:12:20Z</time>
      </trkpt>
      <trkpt lat="46.16832" lon="6.6858">
        <ele>1436</ele>
        <time>2010-01-03T09:12:21Z</time>
      </trkpt>
      <trkpt lat="46.16804" lon="6.68588">
        <ele>1444</ele>
        <time>2010-01-03T09:12:32Z</time>
      </trkpt>
      <trkpt lat="46.16787" lon="6.6859">
        <ele>1445</ele>
        <time>2010-01-03T09:12:39Z</time>
      </trkpt>
      <trkpt lat="46.1677" lon="6.68588">
        <ele>1445</ele>
        <time>2010-01-03T09:12:46Z</time>
      </trkpt>
      <trkpt lat="46.16768" lon="6.68588">
        <ele>1445</ele>
        <time>2010-01-03T09:12:47Z</time>
      </trkpt>
      <trkpt lat="46.16737" lon="6.68577">
        <ele>1438</ele>
        <time>2010-01-03T09:12:59Z</time>
      </trkpt>
      <trkpt lat="46.16737" lon="6.68576">
        <ele>1437</ele>
        <time>2010-01-03T09:13:00Z</time>
      </trkpt>
      <trkpt lat="46.16711" lon="6.68563">
        <ele>1434</ele>
        <time>2010-01-03T09:13:11Z</time>
      </trkpt>
      <trkpt lat="46.16679" lon="6.68553">
        <ele>1433</ele>
        <time>2010-01-03T09:13:24Z</time>
      </trkpt>
      <trkpt lat="46.16654" lon="6.68547">
        <ele>1428</ele>
        <time>2010-01-03T09:13:34Z</time>
      </trkpt>
      <trkpt lat="46.1662" lon="6.6855">
        <ele>1427</ele>
        <time>2010-01-03T09:13:47Z</time>
      </trkpt>
      <trkpt lat="46.16614" lon="6.6855">
        <ele>1427</ele>
        <time>2010-01-03T09:13:50Z</time>
      </trkpt>
      <trkpt lat="46.1661" lon="6.68551">
        <ele>1427</ele>
        <time>2010-01-03T09:13:51Z</time>
      </trkpt>
      <trkpt lat="46.16585" lon="6.6855">
        <ele>1426</ele>
        <time>2010-01-03T09:14:02Z</time>
      </trkpt>
      <trkpt lat="46.16581" lon="6.6855">
        <ele>1426</ele>
        <time>2010-01-03T09:14:03Z</time>
      </trkpt>
      <trkpt lat="46.16553" lon="6.68543">
        <ele>1426</ele>
        <time>2010-01-03T09:14:14Z</time>
      </trkpt>
      <trkpt lat="46.16532" lon="6.68534">
        <ele>1425</ele>
        <time>2010-01-03T09:14:23Z</time>
      </trkpt>
      <trkpt lat="46.16531" lon="6.68533">
        <ele>1425</ele>
        <time>2010-01-03T09:14:24Z</time>
      </trkpt>
      <trkpt lat="46.16505" lon="6.68522">
        <ele>1423</ele>
        <time>2010-01-03T09:14:34Z</time>
      </trkpt>
      <trkpt lat="46.16468" lon="6.68492">
        <ele>1414</ele>
        <time>2010-01-03T09:14:52Z</time>
      </trkpt>
      <trkpt lat="46.16438" lon="6.68466">
        <ele>1414</ele>
        <time>2010-01-03T09:15:06Z</time>
      </trkpt>
      <trkpt lat="46.16429" lon="6.68457">
        <ele>1413</ele>
        <time>2010-01-03T09:15:10Z</time>
      </trkpt>
      <trkpt lat="46.16423" lon="6.68448">
        <ele>1412</ele>
        <time>2010-01-03T09:15:13Z</time>
      </trkpt>
      <trkpt lat="46.16414" lon="6.6844">
        <ele>1415</ele>
        <time>2010-01-03T09:15:18Z</time>
      </trkpt>
      <trkpt lat="46.16413" lon="6.68439">
        <ele>1415</ele>
        <time>2010-01-03T09:15:18Z</time>
      </trkpt>
      <trkpt lat="46.1641" lon="6.68439">
        <ele>1415</ele>
        <time>2010-01-03T09:15:19Z</time>
      </trkpt>
      <trkpt lat="46.1635" lon="6.68407">
        <ele>1407</ele>
        <time>2010-01-03T09:15:45Z</time>
      </trkpt>
      <trkpt lat="46.16317" lon="6.68378">
        <ele>1402</ele>
        <time>2010-01-03T09:16:00Z</time>
      </trkpt>
      <trkpt lat="46.16277" lon="6.68367">
        <ele>1399</ele>
        <time>2010-01-03T09:16:17Z</time>
      </trkpt>
      <trkpt lat="46.1624" lon="6.68374">
        <ele>1393</ele>
        <time>2010-01-03T09:16:32Z</time>
      </trkpt>
      <trkpt lat="46.16186" lon="6.68392">
        <ele>1393</ele>
        <time>2010-01-03T09:16:54Z</time>
      </trkpt>
      <trkpt lat="46.16101" lon="6.68419">
        <ele>1390</ele>
        <time>2010-01-03T09:17:29Z</time>
      </trkpt>
      <trkpt lat="46.16036" lon="6.68488">
        <ele>1389</ele>
        <time>2010-01-03T09:18:01Z</time>
      </trkpt>
      <trkpt lat="46.16012" lon="6.68501">
        <ele>1397</ele>
        <time>2010-01-03T09:18:11Z</time>
      </trkpt>
      <trkpt lat="46.15994" lon="6.68494">
        <ele>1386</ele>
        <time>2010-01-03T09:18:19Z</time>
      </trkpt>
      <trkpt lat="46.15961" lon="6.68497">
        <ele>1380</ele>
        <time>2010-01-03T09:18:32Z</time>
      </trkpt>
      <trkpt lat="46.15938" lon="6.68488">
        <ele>1379</ele>
        <time>2010-01-03T09:18:42Z</time>
      </trkpt>
      <trkpt lat="46.15913" lon="6.68461">
        <ele>1376</ele>
        <time>2010-01-03T09:18:54Z</time>
      </trkpt>
      <trkpt lat="46.15885" lon="6.68439">
        <ele>1374</ele>
        <time>2010-01-03T09:19:07Z</time>
      </trkpt>
      <trkpt lat="46.15832" lon="6.68417">
        <ele>1371</ele>
        <time>2010-01-03T09:19:29Z</time>
      </trkpt>
      <trkpt lat="46.15813" lon="6.68393">
        <ele>1366</ele>
        <time>2010-01-03T09:19:39Z</time>
      </trkpt>
      <trkpt lat="46.15808" lon="6.68346">
        <ele>1361</ele>
        <time>2010-01-03T09:19:52Z</time>
      </trkpt>
      <trkpt lat="46.15773" lon="6.68274">
        <ele>1345</ele>
        <time>2010-01-03T09:20:17Z</time>
      </trkpt>
      <trkpt lat="46.15669" lon="6.68144">
        <ele>1319</ele>
        <time>2010-01-03T09:21:12Z</time>
      </trkpt>
      <trkpt lat="46.15601" lon="6.6805">
        <ele>1316</ele>
        <time>2010-01-03T09:21:50Z</time>
      </trkpt>
      <trkpt lat="46.15592" lon="6.68003">
        <ele>1315</ele>
        <time>2010-01-03T09:22:03Z</time>
      </trkpt>
      <trkpt lat="46.15579" lon="6.67898">
        <ele>1307</ele>
        <time>2010-01-03T09:22:33Z</time>
      </trkpt>
      <trkpt lat="46.15562" lon="6.67827">
        <ele>1294</ele>
        <time>2010-01-03T09:22:54Z</time>
      </trkpt>
      <trkpt lat="46.15535" lon="6.67764">
        <ele>1291</ele>
        <time>2010-01-03T09:23:14Z</time>
      </trkpt>
      <trkpt lat="46.15504" lon="6.6774">
        <ele>1286</ele>
        <time>2010-01-03T09:23:28Z</time>
      </trkpt>
      <trkpt lat="46.15471" lon="6.67708">
        <ele>1285</ele>
        <time>2010-01-03T09:23:44Z</time>
      </trkpt>
      <trkpt lat="46.15454" lon="6.67686">
        <ele>1284</ele>
        <time>2010-01-03T09:23:53Z</time>
      </trkpt>
      <trkpt lat="46.15441" lon="6.67667">
        <ele>1275</ele>
        <time>2010-01-03T09:24:01Z</time>
      </trkpt>
      <trkpt lat="46.1543" lon="6.6765">
        <ele>1274</ele>
        <time>2010-01-03T09:24:07Z</time>
      </trkpt>
      <trkpt lat="46.1544" lon="6.67622">
        <ele>1271</ele>
        <time>2010-01-03T09:24:16Z</time>
      </trkpt>
      <trkpt lat="46.1543" lon="6.676">
        <ele>1269</ele>
        <time>2010-01-03T09:24:23Z</time>
      </trkpt>
      <trkpt lat="46.15409" lon="6.67579">
        <ele>1266</ele>
        <time>2010-01-03T09:24:33Z</time>
      </trkpt>
      <trkpt lat="46.1538" lon="6.67545">
        <ele>1265</ele>
        <time>2010-01-03T09:24:48Z</time>
      </trkpt>
      <trkpt lat="46.15362" lon="6.67513">
        <ele>1265</ele>
        <time>2010-01-03T09:25:00Z</time>
      </trkpt>
      <trkpt lat="46.15361" lon="6.67483">
        <ele>1258</ele>
        <time>2010-01-03T09:25:08Z</time>
      </trkpt>
      <trkpt lat="46.15404" lon="6.67423">
        <ele>1250</ele>
        <time>2010-01-03T09:25:32Z</time>
      </trkpt>
      <trkpt lat="46.15413" lon="6.67395">
        <ele>1247</ele>
        <time>2010-01-03T09:25:40Z</time>
      </trkpt>
      <trkpt lat="46.15421" lon="6.67376">
        <ele>1243</ele>
        <time>2010-01-03T09:25:47Z</time>
      </trkpt>
      <trkpt lat="46.15446" lon="6.67358">
        <ele>1242</ele>
        <time>2010-01-03T09:25:58Z</time>
      </trkpt>
      <trkpt lat="46.15461" lon="6.67344">
        <ele>1242</ele>
        <time>2010-01-03T09:26:05Z</time>
      </trkpt>
      <trkpt lat="46.15525" lon="6.67187">
        <ele>1237</ele>
        <time>2010-01-03T09:26:55Z</time>
      </trkpt>
      <trkpt lat="46.1559" lon="6.67124">
        <ele>1223</ele>
        <time>2010-01-03T09:27:27Z</time>
      </trkpt>
      <trkpt lat="46.15616" lon="6.67099">
        <ele>1221</ele>
        <time>2010-01-03T09:27:39Z</time>
      </trkpt>
      <trkpt lat="46.15614" lon="6.6708">
        <ele>1214</ele>
        <time>2010-01-03T09:27:44Z</time>
      </trkpt>
      <trkpt lat="46.15613" lon="6.6707">
        <ele>1213</ele>
        <time>2010-01-03T09:27:47Z</time>
      </trkpt>
      <trkpt lat="46.15637" lon="6.67069">
        <ele>1211</ele>
        <time>2010-01-03T09:27:57Z</time>
      </trkpt>
      <trkpt lat="46.15631" lon="6.67058">
        <ele>1210</ele>
        <time>2010-01-03T09:28:01Z</time>
      </trkpt>
      <trkpt lat="46.15628" lon="6.67045">
        <ele>1209</ele>
        <time>2010-01-03T09:28:05Z</time>
      </trkpt>
      <trkpt lat="46.15635" lon="6.67042">
        <ele>1208</ele>
        <time>2010-01-03T09:28:08Z</time>
      </trkpt>
      <trkpt lat="46.15644" lon="6.67047">
        <ele>1208</ele>
        <time>2010-01-03T09:28:11Z</time>
      </trkpt>
      <trkpt lat="46.15649" lon="6.67037">
        <ele>1206</ele>
        <time>2010-01-03T09:28:15Z</time>
      </trkpt>
      <trkpt lat="46.15644" lon="6.67028">
        <ele>1206</ele>
        <time>2010-01-03T09:28:18Z</time>
      </trkpt>
      <trkpt lat="46.15634" lon="6.67018">
        <ele>1206</ele>
        <time>2010-01-03T09:28:23Z</time>
      </trkpt>
      <trkpt lat="46.15635" lon="6.67005">
        <ele>1204</ele>
        <time>2010-01-03T09:28:27Z</time>
      </trkpt>
      <trkpt lat="46.15636" lon="6.67002">
        <ele>1204</ele>
        <time>2010-01-03T09:28:28Z</time>
      </trkpt>
      <trkpt lat="46.15646" lon="6.67007">
        <ele>1202</ele>
        <time>2010-01-03T09:28:32Z</time>
      </trkpt>
      <trkpt lat="46.15649" lon="6.6701">
        <ele>1201</ele>
        <time>2010-01-03T09:28:33Z</time>
      </trkpt>
      <trkpt lat="46.15666" lon="6.67019">
        <ele>1201</ele>
        <time>2010-01-03T09:28:41Z</time>
      </trkpt>
      <trkpt lat="46.15673" lon="6.67019">
        <ele>1192</ele>
        <time>2010-01-03T09:28:43Z</time>
      </trkpt>
      <trkpt lat="46.15674" lon="6.67012">
        <ele>1191</ele>
        <time>2010-01-03T09:28:45Z</time>
      </trkpt>
      <trkpt lat="46.15666" lon="6.66999">
        <ele>1191</ele>
        <time>2010-01-03T09:28:50Z</time>
      </trkpt>
      <trkpt lat="46.1566" lon="6.66989">
        <ele>1191</ele>
        <time>2010-01-03T09:28:54Z</time>
      </trkpt>
      <trkpt lat="46.15661" lon="6.6698">
        <ele>1191</ele>
        <time>2010-01-03T09:28:56Z</time>
      </trkpt>
      <trkpt lat="46.1567" lon="6.6698">
        <ele>1184</ele>
        <time>2010-01-03T09:29:00Z</time>
      </trkpt>
      <trkpt lat="46.15675" lon="6.66979">
        <ele>1183</ele>
        <time>2010-01-03T09:29:02Z</time>
      </trkpt>
      <trkpt lat="46.15671" lon="6.66966">
        <ele>1181</ele>
        <time>2010-01-03T09:29:06Z</time>
      </trkpt>
      <trkpt lat="46.15669" lon="6.6695">
        <ele>1179</ele>
        <time>2010-01-03T09:29:11Z</time>
      </trkpt>
      <trkpt lat="46.15664" lon="6.66937">
        <ele>1185</ele>
        <time>2010-01-03T09:29:15Z</time>
      </trkpt>
      <trkpt lat="46.15658" lon="6.66917">
        <ele>1181</ele>
        <time>2010-01-03T09:29:21Z</time>
      </trkpt>
      <trkpt lat="46.15651" lon="6.66893">
        <ele>1178</ele>
        <time>2010-01-03T09:29:28Z</time>
      </trkpt>
      <trkpt lat="46.1565" lon="6.66873">
        <ele>1178</ele>
        <time>2010-01-03T09:29:34Z</time>
      </trkpt>
      <trkpt lat="46.15651" lon="6.66872">
        <ele>1178</ele>
        <time>2010-01-03T09:29:34Z</time>
      </trkpt>
      <trkpt lat="46.15645" lon="6.66851">
        <ele>1177</ele>
        <time>2010-01-03T09:29:40Z</time>
      </trkpt>
      <trkpt lat="46.15646" lon="6.66829">
        <ele>1174</ele>
        <time>2010-01-03T09:29:46Z</time>
      </trkpt>
      <trkpt lat="46.15646" lon="6.66825">
        <ele>1174</ele>
        <time>2010-01-03T09:29:47Z</time>
      </trkpt>
      <trkpt lat="46.15653" lon="6.66812">
        <ele>1173</ele>
        <time>2010-01-03T09:29:52Z</time>
      </trkpt>
      <trkpt lat="46.15654" lon="6.66812">
        <ele>1173</ele>
        <time>2010-01-03T09:29:52Z</time>
      </trkpt>
      <trkpt lat="46.15675" lon="6.6681">
        <ele>1169</ele>
        <time>2010-01-03T09:30:01Z</time>
      </trkpt>
      <trkpt lat="46.1569" lon="6.66816">
        <ele>1168</ele>
        <time>2010-01-03T09:30:07Z</time>
      </trkpt>
      <trkpt lat="46.15679" lon="6.66824">
        <ele>1169</ele>
        <time>2010-01-03T09:30:12Z</time>
      </trkpt>
      <trkpt lat="46.15679" lon="6.66826">
        <ele>1169</ele>
        <time>2010-01-03T09:30:12Z</time>
      </trkpt>
      <trkpt lat="46.15673" lon="6.66838">
        <ele>1171</ele>
        <time>2010-01-03T09:30:16Z</time>
      </trkpt>
      <trkpt lat="46.15668" lon="6.66851">
        <ele>1171</ele>
        <time>2010-01-03T09:30:21Z</time>
      </trkpt>
      <trkpt lat="46.15599" lon="6.66972">
        <ele>1196</ele>
        <time>2010-01-03T09:31:04Z</time>
      </trkpt>
      <trkpt lat="46.15537" lon="6.67123">
        <ele>1232</ele>
        <time>2010-01-03T09:31:52Z</time>
      </trkpt>
      <trkpt lat="46.15403" lon="6.67485">
        <ele>1255</ele>
        <time>2010-01-03T09:33:47Z</time>
      </trkpt>
      <trkpt lat="46.15184" lon="6.67911">
        <ele>1343</ele>
        <time>2010-01-03T09:36:13Z</time>
      </trkpt>
      <trkpt lat="46.15119" lon="6.68089">
        <ele>1400</ele>
        <time>2010-01-03T09:37:09Z</time>
      </trkpt>
      <trkpt lat="46.15003" lon="6.68379">
        <ele>1461</ele>
        <time>2010-01-03T09:38:42Z</time>
      </trkpt>
      <trkpt lat="46.1487" lon="6.68704">
        <ele>1509</ele>
        <time>2010-01-03T09:40:27Z</time>
      </trkpt>
      <trkpt lat="46.14627" lon="6.69145">
        <ele>1577</ele>
        <time>2010-01-03T09:43:03Z</time>
      </trkpt>
      <trkpt lat="46.14513" lon="6.69396">
        <ele>1610</ele>
        <time>2010-01-03T09:44:26Z</time>
      </trkpt>
      <trkpt lat="46.14528" lon="6.69438">
        <ele>1606</ele>
        <time>2010-01-03T09:44:39Z</time>
      </trkpt>
      <trkpt lat="46.14568" lon="6.69422">
        <ele>1605</ele>
        <time>2010-01-03T09:44:56Z</time>
      </trkpt>
      <trkpt lat="46.14593" lon="6.69389">
        <ele>1603</ele>
        <time>2010-01-03T09:45:10Z</time>
      </trkpt>
      <trkpt lat="46.14622" lon="6.69343">
        <ele>1602</ele>
        <time>2010-01-03T09:45:27Z</time>
      </trkpt>
      <trkpt lat="46.14654" lon="6.69318">
        <ele>1599</ele>
        <time>2010-01-03T09:45:42Z</time>
      </trkpt>
      <trkpt lat="46.14685" lon="6.69318">
        <ele>1596</ele>
        <time>2010-01-03T09:45:54Z</time>
      </trkpt>
      <trkpt lat="46.14721" lon="6.69315">
        <ele>1593</ele>
        <time>2010-01-03T09:46:08Z</time>
      </trkpt>
      <trkpt lat="46.14752" lon="6.69313">
        <ele>1587</ele>
        <time>2010-01-03T09:46:21Z</time>
      </trkpt>
      <trkpt lat="46.14786" lon="6.6931">
        <ele>1584</ele>
        <time>2010-01-03T09:46:35Z</time>
      </trkpt>
      <trkpt lat="46.14793" lon="6.69307">
        <ele>1583</ele>
        <time>2010-01-03T09:46:37Z</time>
      </trkpt>
      <trkpt lat="46.14828" lon="6.69296">
        <ele>1581</ele>
        <time>2010-01-03T09:46:52Z</time>
      </trkpt>
      <trkpt lat="46.14843" lon="6.69305">
        <ele>1573</ele>
        <time>2010-01-03T09:46:58Z</time>
      </trkpt>
      <trkpt lat="46.14868" lon="6.69324">
        <ele>1572</ele>
        <time>2010-01-03T09:47:10Z</time>
      </trkpt>
      <trkpt lat="46.1489" lon="6.6934">
        <ele>1567</ele>
        <time>2010-01-03T09:47:20Z</time>
      </trkpt>
      <trkpt lat="46.14922" lon="6.69376">
        <ele>1560</ele>
        <time>2010-01-03T09:47:36Z</time>
      </trkpt>
      <trkpt lat="46.14942" lon="6.69395">
        <ele>1559</ele>
        <time>2010-01-03T09:47:45Z</time>
      </trkpt>
      <trkpt lat="46.1498" lon="6.69423">
        <ele>1555</ele>
        <time>2010-01-03T09:48:02Z</time>
      </trkpt>
      <trkpt lat="46.15004" lon="6.69439">
        <ele>1553</ele>
        <time>2010-01-03T09:48:13Z</time>
      </trkpt>
      <trkpt lat="46.15026" lon="6.69452">
        <ele>1551</ele>
        <time>2010-01-03T09:48:22Z</time>
      </trkpt>
      <trkpt lat="46.15044" lon="6.69457">
        <ele>1550</ele>
        <time>2010-01-03T09:48:30Z</time>
      </trkpt>
      <trkpt lat="46.15073" lon="6.69459">
        <ele>1550</ele>
        <time>2010-01-03T09:48:41Z</time>
      </trkpt>
      <trkpt lat="46.15097" lon="6.69456">
        <ele>1546</ele>
        <time>2010-01-03T09:48:51Z</time>
      </trkpt>
      <trkpt lat="46.15113" lon="6.69444">
        <ele>1545</ele>
        <time>2010-01-03T09:48:58Z</time>
      </trkpt>
      <trkpt lat="46.15125" lon="6.69433">
        <ele>1545</ele>
        <time>2010-01-03T09:49:04Z</time>
      </trkpt>
      <trkpt lat="46.15134" lon="6.69417">
        <ele>1544</ele>
        <time>2010-01-03T09:49:09Z</time>
      </trkpt>
      <trkpt lat="46.15146" lon="6.69405">
        <ele>1540</ele>
        <time>2010-01-03T09:49:15Z</time>
      </trkpt>
      <trkpt lat="46.15162" lon="6.69395">
        <ele>1540</ele>
        <time>2010-01-03T09:49:22Z</time>
      </trkpt>
      <trkpt lat="46.15164" lon="6.69394">
        <ele>1540</ele>
        <time>2010-01-03T09:49:23Z</time>
      </trkpt>
      <trkpt lat="46.15183" lon="6.69382">
        <ele>1531</ele>
        <time>2010-01-03T09:49:31Z</time>
      </trkpt>
      <trkpt lat="46.15189" lon="6.6938">
        <ele>1530</ele>
        <time>2010-01-03T09:49:34Z</time>
      </trkpt>
      <trkpt lat="46.15205" lon="6.69377">
        <ele>1529</ele>
        <time>2010-01-03T09:49:40Z</time>
      </trkpt>
      <trkpt lat="46.15205" lon="6.69376">
        <ele>1529</ele>
        <time>2010-01-03T09:49:41Z</time>
      </trkpt>
      <trkpt lat="46.15218" lon="6.69378">
        <ele>1528</ele>
        <time>2010-01-03T09:49:46Z</time>
      </trkpt>
      <trkpt lat="46.1522" lon="6.69379">
        <ele>1528</ele>
        <time>2010-01-03T09:49:47Z</time>
      </trkpt>
      <trkpt lat="46.15233" lon="6.69388">
        <ele>1527</ele>
        <time>2010-01-03T09:49:53Z</time>
      </trkpt>
      <trkpt lat="46.15235" lon="6.69389">
        <ele>1527</ele>
        <time>2010-01-03T09:49:53Z</time>
      </trkpt>
      <trkpt lat="46.15248" lon="6.69401">
        <ele>1526</ele>
        <time>2010-01-03T09:49:59Z</time>
      </trkpt>
      <trkpt lat="46.15262" lon="6.6941">
        <ele>1523</ele>
        <time>2010-01-03T09:50:06Z</time>
      </trkpt>
      <trkpt lat="46.15281" lon="6.69415">
        <ele>1521</ele>
        <time>2010-01-03T09:50:13Z</time>
      </trkpt>
      <trkpt lat="46.15282" lon="6.69414">
        <ele>1521</ele>
        <time>2010-01-03T09:50:14Z</time>
      </trkpt>
      <trkpt lat="46.153" lon="6.69414">
        <ele>1520</ele>
        <time>2010-01-03T09:50:21Z</time>
      </trkpt>
      <trkpt lat="46.15361" lon="6.69431">
        <ele>1518</ele>
        <time>2010-01-03T09:50:46Z</time>
      </trkpt>
      <trkpt lat="46.15362" lon="6.6943">
        <ele>1518</ele>
        <time>2010-01-03T09:50:46Z</time>
      </trkpt>
      <trkpt lat="46.1541" lon="6.69434">
        <ele>1522</ele>
        <time>2010-01-03T09:51:05Z</time>
      </trkpt>
      <trkpt lat="46.15427" lon="6.69424">
        <ele>1525</ele>
        <time>2010-01-03T09:51:13Z</time>
      </trkpt>
      <trkpt lat="46.1543" lon="6.69424">
        <ele>1524</ele>
        <time>2010-01-03T09:51:14Z</time>
      </trkpt>
      <trkpt lat="46.15433" lon="6.69424">
        <ele>1524</ele>
        <time>2010-01-03T09:51:15Z</time>
      </trkpt>
      <trkpt lat="46.15459" lon="6.69417">
        <ele>1526</ele>
        <time>2010-01-03T09:51:26Z</time>
      </trkpt>
      <trkpt lat="46.15462" lon="6.69416">
        <ele>1526</ele>
        <time>2010-01-03T09:51:27Z</time>
      </trkpt>
      <trkpt lat="46.15475" lon="6.69417">
        <ele>1522</ele>
        <time>2010-01-03T09:51:33Z</time>
      </trkpt>
      <trkpt lat="46.15477" lon="6.69418">
        <ele>1522</ele>
        <time>2010-01-03T09:51:33Z</time>
      </trkpt>
      <trkpt lat="46.15525" lon="6.69414">
        <ele>1525</ele>
        <time>2010-01-03T09:51:52Z</time>
      </trkpt>
      <trkpt lat="46.15526" lon="6.6941">
        <ele>1525</ele>
        <time>2010-01-03T09:51:53Z</time>
      </trkpt>
      <trkpt lat="46.15558" lon="6.69391">
        <ele>1524</ele>
        <time>2010-01-03T09:52:07Z</time>
      </trkpt>
      <trkpt lat="46.15558" lon="6.69391">
        <ele>1524</ele>
        <time>2010-01-03T09:52:07Z</time>
      </trkpt>
      <trkpt lat="46.15562" lon="6.69389">
        <ele>1524</ele>
        <time>2010-01-03T09:52:09Z</time>
      </trkpt>
      <trkpt lat="46.15593" lon="6.6938">
        <ele>1521</ele>
        <time>2010-01-03T09:52:22Z</time>
      </trkpt>
      <trkpt lat="46.15596" lon="6.69377">
        <ele>1521</ele>
        <time>2010-01-03T09:52:23Z</time>
      </trkpt>
      <trkpt lat="46.15598" lon="6.69376">
        <ele>1521</ele>
        <time>2010-01-03T09:52:24Z</time>
      </trkpt>
      <trkpt lat="46.15598" lon="6.69375">
        <ele>1521</ele>
        <time>2010-01-03T09:52:24Z</time>
      </trkpt>
      <trkpt lat="46.156" lon="6.69371">
        <ele>1521</ele>
        <time>2010-01-03T09:52:25Z</time>
      </trkpt>
      <trkpt lat="46.1561" lon="6.69363">
        <ele>1522</ele>
        <time>2010-01-03T09:52:30Z</time>
      </trkpt>
      <trkpt lat="46.1561" lon="6.69361">
        <ele>1522</ele>
        <time>2010-01-03T09:52:30Z</time>
      </trkpt>
      <trkpt lat="46.15658" lon="6.69333">
        <ele>1526</ele>
        <time>2010-01-03T09:52:51Z</time>
      </trkpt>
      <trkpt lat="46.15694" lon="6.69326">
        <ele>1517</ele>
        <time>2010-01-03T09:53:06Z</time>
      </trkpt>
      <trkpt lat="46.15721" lon="6.69296">
        <ele>1512</ele>
        <time>2010-01-03T09:53:19Z</time>
      </trkpt>
      <trkpt lat="46.15766" lon="6.6928">
        <ele>1501</ele>
        <time>2010-01-03T09:53:38Z</time>
      </trkpt>
      <trkpt lat="46.15816" lon="6.69262">
        <ele>1499</ele>
        <time>2010-01-03T09:53:59Z</time>
      </trkpt>
      <trkpt lat="46.15892" lon="6.69273">
        <ele>1497</ele>
        <time>2010-01-03T09:54:30Z</time>
      </trkpt>
      <trkpt lat="46.15941" lon="6.69326">
        <ele>1500</ele>
        <time>2010-01-03T09:54:54Z</time>
      </trkpt>
      <trkpt lat="46.15961" lon="6.6935">
        <ele>1498</ele>
        <time>2010-01-03T09:55:04Z</time>
      </trkpt>
      <trkpt lat="46.16014" lon="6.69366">
        <ele>1511</ele>
        <time>2010-01-03T09:55:26Z</time>
      </trkpt>
      <trkpt lat="46.16063" lon="6.69408">
        <ele>1520</ele>
        <time>2010-01-03T09:55:49Z</time>
      </trkpt>
      <trkpt lat="46.16097" lon="6.69454">
        <ele>1530</ele>
        <time>2010-01-03T09:56:07Z</time>
      </trkpt>
      <trkpt lat="46.16206" lon="6.69488">
        <ele>1538</ele>
        <time>2010-01-03T09:56:52Z</time>
      </trkpt>
      <trkpt lat="46.16247" lon="6.69473">
        <ele>1538</ele>
        <time>2010-01-03T09:57:09Z</time>
      </trkpt>
      <trkpt lat="46.16305" lon="6.69362">
        <ele>1540</ele>
        <time>2010-01-03T09:57:48Z</time>
      </trkpt>
      <trkpt lat="46.1641" lon="6.69316">
        <ele>1532</ele>
        <time>2010-01-03T09:58:31Z</time>
      </trkpt>
      <trkpt lat="46.16427" lon="6.69314">
        <ele>1529</ele>
        <time>2010-01-03T09:58:38Z</time>
      </trkpt>
      <trkpt lat="46.16486" lon="6.69301">
        <ele>1527</ele>
        <time>2010-01-03T09:59:02Z</time>
      </trkpt>
      <trkpt lat="46.16556" lon="6.69284">
        <ele>1527</ele>
        <time>2010-01-03T09:59:31Z</time>
      </trkpt>
      <trkpt lat="46.16623" lon="6.69288">
        <ele>1524</ele>
        <time>2010-01-03T09:59:58Z</time>
      </trkpt>
      <trkpt lat="46.16631" lon="6.69288">
        <ele>1524</ele>
        <time>2010-01-03T10:00:01Z</time>
      </trkpt>
      <trkpt lat="46.16714" lon="6.69259">
        <ele>1521</ele>
        <time>2010-01-03T10:00:35Z</time>
      </trkpt>
      <trkpt lat="46.16769" lon="6.6924">
        <ele>1519</ele>
        <time>2010-01-03T10:00:58Z</time>
      </trkpt>
      <trkpt lat="46.16856" lon="6.69218">
        <ele>1509</ele>
        <time>2010-01-03T10:01:33Z</time>
      </trkpt>
      <trkpt lat="46.16881" lon="6.69216">
        <ele>1507</ele>
        <time>2010-01-03T10:01:43Z</time>
      </trkpt>
      <trkpt lat="46.16905" lon="6.69214">
        <ele>1506</ele>
        <time>2010-01-03T10:01:53Z</time>
      </trkpt>
      <trkpt lat="46.16975" lon="6.69214">
        <ele>1495</ele>
        <time>2010-01-03T10:02:21Z</time>
      </trkpt>
      <trkpt lat="46.16824" lon="6.69224">
        <ele>1515</ele>
        <time>2010-01-03T10:03:21Z</time>
      </trkpt>
      <trkpt lat="46.16725" lon="6.69271">
        <ele>1519</ele>
        <time>2010-01-03T10:04:03Z</time>
      </trkpt>
      <trkpt lat="46.16664" lon="6.6928">
        <ele>1525</ele>
        <time>2010-01-03T10:04:27Z</time>
      </trkpt>
      <trkpt lat="46.16617" lon="6.69301">
        <ele>1523</ele>
        <time>2010-01-03T10:04:47Z</time>
      </trkpt>
      <trkpt lat="46.16561" lon="6.69306">
        <ele>1525</ele>
        <time>2010-01-03T10:05:10Z</time>
      </trkpt>
      <trkpt lat="46.16512" lon="6.69307">
        <ele>1525</ele>
        <time>2010-01-03T10:05:29Z</time>
      </trkpt>
      <trkpt lat="46.16472" lon="6.69308">
        <ele>1527</ele>
        <time>2010-01-03T10:05:45Z</time>
      </trkpt>
      <trkpt lat="46.16418" lon="6.69324">
        <ele>1530</ele>
        <time>2010-01-03T10:06:08Z</time>
      </trkpt>
      <trkpt lat="46.16459" lon="6.69328">
        <ele>1528</ele>
        <time>2010-01-03T10:06:24Z</time>
      </trkpt>
      <trkpt lat="46.16513" lon="6.69334">
        <ele>1516</ele>
        <time>2010-01-03T10:06:46Z</time>
      </trkpt>
      <trkpt lat="46.16548" lon="6.69348">
        <ele>1510</ele>
        <time>2010-01-03T10:07:00Z</time>
      </trkpt>
      <trkpt lat="46.16614" lon="6.69354">
        <ele>1502</ele>
        <time>2010-01-03T10:07:27Z</time>
      </trkpt>
      <trkpt lat="46.16679" lon="6.69355">
        <ele>1494</ele>
        <time>2010-01-03T10:07:53Z</time>
      </trkpt>
      <trkpt lat="46.16743" lon="6.69358">
        <ele>1490</ele>
        <time>2010-01-03T10:08:19Z</time>
      </trkpt>
      <trkpt lat="46.16851" lon="6.69377">
        <ele>1474</ele>
        <time>2010-01-03T10:09:02Z</time>
      </trkpt>
      <trkpt lat="46.16911" lon="6.69391">
        <ele>1468</ele>
        <time>2010-01-03T10:09:27Z</time>
      </trkpt>
      <trkpt lat="46.16959" lon="6.69401">
        <ele>1459</ele>
        <time>2010-01-03T10:09:46Z</time>
      </trkpt>
      <trkpt lat="46.17" lon="6.69412">
        <ele>1444</ele>
        <time>2010-01-03T10:10:03Z</time>
      </trkpt>
      <trkpt lat="46.16983" lon="6.69418">
        <ele>1441</ele>
        <time>2010-01-03T10:10:10Z</time>
      </trkpt>
      <trkpt lat="46.16961" lon="6.6944">
        <ele>1439</ele>
        <time>2010-01-03T10:10:21Z</time>
      </trkpt>
      <trkpt lat="46.16938" lon="6.69449">
        <ele>1439</ele>
        <time>2010-01-03T10:10:30Z</time>
      </trkpt>
      <trkpt lat="46.16909" lon="6.6946">
        <ele>1438</ele>
        <time>2010-01-03T10:10:42Z</time>
      </trkpt>
      <trkpt lat="46.1684" lon="6.69476">
        <ele>1431</ele>
        <time>2010-01-03T10:11:10Z</time>
      </trkpt>
      <trkpt lat="46.16748" lon="6.69513">
        <ele>1418</ele>
        <time>2010-01-03T10:11:48Z</time>
      </trkpt>
      <trkpt lat="46.16666" lon="6.69555">
        <ele>1416</ele>
        <time>2010-01-03T10:12:23Z</time>
      </trkpt>
      <trkpt lat="46.16613" lon="6.69574">
        <ele>1415</ele>
        <time>2010-01-03T10:12:45Z</time>
      </trkpt>
      <trkpt lat="46.166" lon="6.69575">
        <ele>1413</ele>
        <time>2010-01-03T10:12:50Z</time>
      </trkpt>
      <trkpt lat="46.16594" lon="6.69576">
        <ele>1412</ele>
        <time>2010-01-03T10:12:53Z</time>
      </trkpt>
      <trkpt lat="46.16596" lon="6.69584">
        <ele>1399</ele>
        <time>2010-01-03T10:12:55Z</time>
      </trkpt>
      <trkpt lat="46.1661" lon="6.69596">
        <ele>1394</ele>
        <time>2010-01-03T10:13:02Z</time>
      </trkpt>
      <trkpt lat="46.16645" lon="6.69611">
        <ele>1391</ele>
        <time>2010-01-03T10:13:16Z</time>
      </trkpt>
      <trkpt lat="46.16671" lon="6.69626">
        <ele>1384</ele>
        <time>2010-01-03T10:13:28Z</time>
      </trkpt>
      <trkpt lat="46.16705" lon="6.69636">
        <ele>1381</ele>
        <time>2010-01-03T10:13:41Z</time>
      </trkpt>
      <trkpt lat="46.16721" lon="6.69636">
        <ele>1380</ele>
        <time>2010-01-03T10:13:48Z</time>
      </trkpt>
      <trkpt lat="46.16742" lon="6.69641">
        <ele>1377</ele>
        <time>2010-01-03T10:13:56Z</time>
      </trkpt>
      <trkpt lat="46.16749" lon="6.69644">
        <ele>1375</ele>
        <time>2010-01-03T10:13:59Z</time>
      </trkpt>
      <trkpt lat="46.16764" lon="6.6965">
        <ele>1369</ele>
        <time>2010-01-03T10:14:05Z</time>
      </trkpt>
      <trkpt lat="46.16782" lon="6.69648">
        <ele>1369</ele>
        <time>2010-01-03T10:14:13Z</time>
      </trkpt>
      <trkpt lat="46.16801" lon="6.69644">
        <ele>1367</ele>
        <time>2010-01-03T10:14:20Z</time>
      </trkpt>
      <trkpt lat="46.16814" lon="6.69649">
        <ele>1364</ele>
        <time>2010-01-03T10:14:26Z</time>
      </trkpt>
      <trkpt lat="46.16836" lon="6.69676">
        <ele>1346</ele>
        <time>2010-01-03T10:14:37Z</time>
      </trkpt>
      <trkpt lat="46.16841" lon="6.69679">
        <ele>1345</ele>
        <time>2010-01-03T10:14:39Z</time>
      </trkpt>
      <trkpt lat="46.16859" lon="6.69702">
        <ele>1341</ele>
        <time>2010-01-03T10:14:49Z</time>
      </trkpt>
      <trkpt lat="46.16867" lon="6.69715">
        <ele>1340</ele>
        <time>2010-01-03T10:14:54Z</time>
      </trkpt>
      <trkpt lat="46.16867" lon="6.69715">
        <ele>1340</ele>
        <time>2010-01-03T10:14:54Z</time>
      </trkpt>
      <trkpt lat="46.16895" lon="6.69728">
        <ele>1338</ele>
        <time>2010-01-03T10:15:06Z</time>
      </trkpt>
      <trkpt lat="46.16898" lon="6.69729">
        <ele>1338</ele>
        <time>2010-01-03T10:15:07Z</time>
      </trkpt>
      <trkpt lat="46.16972" lon="6.69766">
        <ele>1322</ele>
        <time>2010-01-03T10:15:38Z</time>
      </trkpt>
      <trkpt lat="46.17028" lon="6.6979">
        <ele>1314</ele>
        <time>2010-01-03T10:16:02Z</time>
      </trkpt>
      <trkpt lat="46.17059" lon="6.69798">
        <ele>1311</ele>
        <time>2010-01-03T10:16:14Z</time>
      </trkpt>
      <trkpt lat="46.1709" lon="6.69797">
        <ele>1303</ele>
        <time>2010-01-03T10:16:27Z</time>
      </trkpt>
      <trkpt lat="46.17117" lon="6.69786">
        <ele>1303</ele>
        <time>2010-01-03T10:16:38Z</time>
      </trkpt>
      <trkpt lat="46.17153" lon="6.69773">
        <ele>1301</ele>
        <time>2010-01-03T10:16:53Z</time>
      </trkpt>
      <trkpt lat="46.17184" lon="6.69745">
        <ele>1306</ele>
        <time>2010-01-03T10:17:08Z</time>
      </trkpt>
      <trkpt lat="46.17215" lon="6.69725">
        <ele>1307</ele>
        <time>2010-01-03T10:17:21Z</time>
      </trkpt>
      <trkpt lat="46.17223" lon="6.69723">
        <ele>1307</ele>
        <time>2010-01-03T10:17:24Z</time>
      </trkpt>
      <trkpt lat="46.1727" lon="6.69679">
        <ele>1303</ele>
        <time>2010-01-03T10:17:47Z</time>
      </trkpt>
      <trkpt lat="46.17292" lon="6.69623">
        <ele>1309</ele>
        <time>2010-01-03T10:18:04Z</time>
      </trkpt>
      <trkpt lat="46.17306" lon="6.69602">
        <ele>1308</ele>
        <time>2010-01-03T10:18:13Z</time>
      </trkpt>
      <trkpt lat="46.17326" lon="6.69575">
        <ele>1309</ele>
        <time>2010-01-03T10:18:24Z</time>
      </trkpt>
      <trkpt lat="46.17336" lon="6.69545">
        <ele>1302</ele>
        <time>2010-01-03T10:18:33Z</time>
      </trkpt>
      <trkpt lat="46.17356" lon="6.69521">
        <ele>1302</ele>
        <time>2010-01-03T10:18:43Z</time>
      </trkpt>
      <trkpt lat="46.17357" lon="6.6952">
        <ele>1302</ele>
        <time>2010-01-03T10:18:44Z</time>
      </trkpt>
      <trkpt lat="46.17379" lon="6.69497">
        <ele>1305</ele>
        <time>2010-01-03T10:18:54Z</time>
      </trkpt>
      <trkpt lat="46.17394" lon="6.69478">
        <ele>1304</ele>
        <time>2010-01-03T10:19:02Z</time>
      </trkpt>
      <trkpt lat="46.17408" lon="6.69459">
        <ele>1305</ele>
        <time>2010-01-03T10:19:10Z</time>
      </trkpt>
      <trkpt lat="46.17412" lon="6.69449">
        <ele>1305</ele>
        <time>2010-01-03T10:19:13Z</time>
      </trkpt>
      <trkpt lat="46.17418" lon="6.69431">
        <ele>1299</ele>
        <time>2010-01-03T10:19:19Z</time>
      </trkpt>
      <trkpt lat="46.1743" lon="6.6941">
        <ele>1305</ele>
        <time>2010-01-03T10:19:27Z</time>
      </trkpt>
      <trkpt lat="46.17443" lon="6.69385">
        <ele>1307</ele>
        <time>2010-01-03T10:19:35Z</time>
      </trkpt>
      <trkpt lat="46.17448" lon="6.69376">
        <ele>1308</ele>
        <time>2010-01-03T10:19:38Z</time>
      </trkpt>
      <trkpt lat="46.17505" lon="6.69369">
        <ele>1302</ele>
        <time>2010-01-03T10:20:01Z</time>
      </trkpt>
      <trkpt lat="46.17547" lon="6.69371">
        <ele>1298</ele>
        <time>2010-01-03T10:20:18Z</time>
      </trkpt>
      <trkpt lat="46.17576" lon="6.69366">
        <ele>1297</ele>
        <time>2010-01-03T10:20:30Z</time>
      </trkpt>
      <trkpt lat="46.17602" lon="6.69352">
        <ele>1289</ele>
        <time>2010-01-03T10:20:41Z</time>
      </trkpt>
      <trkpt lat="46.17649" lon="6.69292">
        <ele>1292</ele>
        <time>2010-01-03T10:21:06Z</time>
      </trkpt>
      <trkpt lat="46.1766" lon="6.69247">
        <ele>1292</ele>
        <time>2010-01-03T10:21:19Z</time>
      </trkpt>
      <trkpt lat="46.17682" lon="6.69223">
        <ele>1287</ele>
        <time>2010-01-03T10:21:30Z</time>
      </trkpt>
      <trkpt lat="46.17692" lon="6.69217">
        <ele>1287</ele>
        <time>2010-01-03T10:21:35Z</time>
      </trkpt>
      <trkpt lat="46.17725" lon="6.69188">
        <ele>1285</ele>
        <time>2010-01-03T10:21:50Z</time>
      </trkpt>
      <trkpt lat="46.17761" lon="6.69157">
        <ele>1279</ele>
        <time>2010-01-03T10:22:07Z</time>
      </trkpt>
      <trkpt lat="46.17768" lon="6.69128">
        <ele>1278</ele>
        <time>2010-01-03T10:22:15Z</time>
      </trkpt>
      <trkpt lat="46.17787" lon="6.69118">
        <ele>1276</ele>
        <time>2010-01-03T10:22:23Z</time>
      </trkpt>
      <trkpt lat="46.17815" lon="6.69097">
        <ele>1271</ele>
        <time>2010-01-03T10:22:36Z</time>
      </trkpt>
      <trkpt lat="46.1785" lon="6.69079">
        <ele>1259</ele>
        <time>2010-01-03T10:22:51Z</time>
      </trkpt>
      <trkpt lat="46.17893" lon="6.69067">
        <ele>1252</ele>
        <time>2010-01-03T10:23:08Z</time>
      </trkpt>
      <trkpt lat="46.17925" lon="6.69056">
        <ele>1240</ele>
        <time>2010-01-03T10:23:22Z</time>
      </trkpt>
      <trkpt lat="46.17951" lon="6.6905">
        <ele>1236</ele>
        <time>2010-01-03T10:23:32Z</time>
      </trkpt>
      <trkpt lat="46.1799" lon="6.69074">
        <ele>1230</ele>
        <time>2010-01-03T10:23:49Z</time>
      </trkpt>
      <trkpt lat="46.18018" lon="6.69075">
        <ele>1222</ele>
        <time>2010-01-03T10:24:00Z</time>
      </trkpt>
      <trkpt lat="46.18035" lon="6.69059">
        <ele>1220</ele>
        <time>2010-01-03T10:24:09Z</time>
      </trkpt>
      <trkpt lat="46.18076" lon="6.69028">
        <ele>1218</ele>
        <time>2010-01-03T10:24:27Z</time>
      </trkpt>
      <trkpt lat="46.18114" lon="6.68981">
        <ele>1210</ele>
        <time>2010-01-03T10:24:47Z</time>
      </trkpt>
      <trkpt lat="46.18117" lon="6.68969">
        <ele>1209</ele>
        <time>2010-01-03T10:24:50Z</time>
      </trkpt>
      <trkpt lat="46.18148" lon="6.6893">
        <ele>1205</ele>
        <time>2010-01-03T10:25:07Z</time>
      </trkpt>
      <trkpt lat="46.18194" lon="6.68892">
        <ele>1188</ele>
        <time>2010-01-03T10:25:28Z</time>
      </trkpt>
      <trkpt lat="46.18243" lon="6.68852">
        <ele>1180</ele>
        <time>2010-01-03T10:25:51Z</time>
      </trkpt>
      <trkpt lat="46.18328" lon="6.68857">
        <ele>1173</ele>
        <time>2010-01-03T10:26:25Z</time>
      </trkpt>
      <trkpt lat="46.18411" lon="6.68873">
        <ele>1162</ele>
        <time>2010-01-03T10:26:58Z</time>
      </trkpt>
      <trkpt lat="46.18476" lon="6.68926">
        <ele>1146</ele>
        <time>2010-01-03T10:27:28Z</time>
      </trkpt>
      <trkpt lat="46.18522" lon="6.68989">
        <ele>1131</ele>
        <time>2010-01-03T10:27:54Z</time>
      </trkpt>
      <trkpt lat="46.18547" lon="6.69062">
        <ele>1114</ele>
        <time>2010-01-03T10:28:16Z</time>
      </trkpt>
      <trkpt lat="46.18541" lon="6.69143">
        <ele>1101</ele>
        <time>2010-01-03T10:28:39Z</time>
      </trkpt>
      <trkpt lat="46.18459" lon="6.69268">
        <ele>1079</ele>
        <time>2010-01-03T10:29:26Z</time>
      </trkpt>
      <trkpt lat="46.18356" lon="6.69342">
        <ele>1075</ele>
        <time>2010-01-03T10:30:13Z</time>
      </trkpt>
      <trkpt lat="46.18297" lon="6.69436">
        <ele>1058</ele>
        <time>2010-01-03T10:30:48Z</time>
      </trkpt>
      <trkpt lat="46.18216" lon="6.69582">
        <ele>1045</ele>
        <time>2010-01-03T10:31:39Z</time>
      </trkpt>
      <trkpt lat="46.18168" lon="6.69636">
        <ele>1028</ele>
        <time>2010-01-03T10:32:04Z</time>
      </trkpt>
      <trkpt lat="46.18137" lon="6.69687">
        <ele>1034</ele>
        <time>2010-01-03T10:32:23Z</time>
      </trkpt>
      <trkpt lat="46.18125" lon="6.69753">
        <ele>1016</ele>
        <time>2010-01-03T10:32:42Z</time>
      </trkpt>
      <trkpt lat="46.18085" lon="6.69798">
        <ele>1015</ele>
        <time>2010-01-03T10:33:02Z</time>
      </trkpt>
      <trkpt lat="46.18085" lon="6.69873">
        <ele>998</ele>
        <time>2010-01-03T10:33:23Z</time>
      </trkpt>
      <trkpt lat="46.18099" lon="6.69947">
        <ele>988</ele>
        <time>2010-01-03T10:33:44Z</time>
      </trkpt>
      <trkpt lat="46.18209" lon="6.70091">
        <ele>975</ele>
        <time>2010-01-03T10:34:44Z</time>
      </trkpt>
      <trkpt lat="46.1832" lon="6.70255">
        <ele>971</ele>
        <time>2010-01-03T10:35:47Z</time>
      </trkpt>
      <trkpt lat="46.18361" lon="6.70376">
        <ele>955</ele>
        <time>2010-01-03T10:36:24Z</time>
      </trkpt>
      <trkpt lat="46.18394" lon="6.70423">
        <ele>947</ele>
        <time>2010-01-03T10:36:43Z</time>
      </trkpt>
      <trkpt lat="46.18421" lon="6.70506">
        <ele>956</ele>
        <time>2010-01-03T10:37:08Z</time>
      </trkpt>
      <trkpt lat="46.18436" lon="6.70509">
        <ele>962</ele>
        <time>2010-01-03T10:37:14Z</time>
      </trkpt>
      <trkpt lat="46.18466" lon="6.70545">
        <ele>970</ele>
        <time>2010-01-03T10:37:30Z</time>
      </trkpt>
      <trkpt lat="46.18473" lon="6.70572">
        <ele>974</ele>
        <time>2010-01-03T10:37:38Z</time>
      </trkpt>
      <trkpt lat="46.18535" lon="6.70729">
        <ele>1031</ele>
        <time>2010-01-03T10:38:28Z</time>
      </trkpt>
      <trkpt lat="46.18659" lon="6.70836">
        <ele>1122</ele>
        <time>2010-01-03T10:39:26Z</time>
      </trkpt>
      <trkpt lat="46.18706" lon="6.70973">
        <ele>1181</ele>
        <time>2010-01-03T10:40:08Z</time>
      </trkpt>
      <trkpt lat="46.18814" lon="6.71177">
        <ele>1283</ele>
        <time>2010-01-03T10:41:19Z</time>
      </trkpt>
      <trkpt lat="46.1888" lon="6.71327">
        <ele>1331</ele>
        <time>2010-01-03T10:42:08Z</time>
      </trkpt>
      <trkpt lat="46.18955" lon="6.71477">
        <ele>1378</ele>
        <time>2010-01-03T10:43:00Z</time>
      </trkpt>
      <trkpt lat="46.19057" lon="6.71655">
        <ele>1426</ele>
        <time>2010-01-03T10:44:04Z</time>
      </trkpt>
      <trkpt lat="46.1911" lon="6.71769">
        <ele>1458</ele>
        <time>2010-01-03T10:44:42Z</time>
      </trkpt>
      <trkpt lat="46.19117" lon="6.71791">
        <ele>1460</ele>
        <time>2010-01-03T10:44:49Z</time>
      </trkpt>
      <trkpt lat="46.19117" lon="6.71812">
        <ele>1461</ele>
        <time>2010-01-03T10:44:55Z</time>
      </trkpt>
      <trkpt lat="46.19113" lon="6.71821">
        <ele>1461</ele>
        <time>2010-01-03T10:44:58Z</time>
      </trkpt>
      <trkpt lat="46.19106" lon="6.71822">
        <ele>1461</ele>
        <time>2010-01-03T10:45:00Z</time>
      </trkpt>
      <trkpt lat="46.19093" lon="6.71801">
        <ele>1460</ele>
        <time>2010-01-03T10:45:08Z</time>
      </trkpt>
      <trkpt lat="46.19092" lon="6.718">
        <ele>1460</ele>
        <time>2010-01-03T10:45:09Z</time>
      </trkpt>
      <trkpt lat="46.19075" lon="6.718">
        <ele>1454</ele>
        <time>2010-01-03T10:45:15Z</time>
      </trkpt>
      <trkpt lat="46.19062" lon="6.71799">
        <ele>1454</ele>
        <time>2010-01-03T10:45:20Z</time>
      </trkpt>
      <trkpt lat="46.1906" lon="6.71798">
        <ele>1453</ele>
        <time>2010-01-03T10:45:21Z</time>
      </trkpt>
      <trkpt lat="46.19052" lon="6.71794">
        <ele>1453</ele>
        <time>2010-01-03T10:45:25Z</time>
      </trkpt>
      <trkpt lat="46.19051" lon="6.71794">
        <ele>1453</ele>
        <time>2010-01-03T10:45:25Z</time>
      </trkpt>
      <trkpt lat="46.19043" lon="6.71787">
        <ele>1452</ele>
        <time>2010-01-03T10:45:29Z</time>
      </trkpt>
      <trkpt lat="46.1904" lon="6.71785">
        <ele>1451</ele>
        <time>2010-01-03T10:45:30Z</time>
      </trkpt>
      <trkpt lat="46.19038" lon="6.71785">
        <ele>1451</ele>
        <time>2010-01-03T10:45:31Z</time>
      </trkpt>
      <trkpt lat="46.19028" lon="6.71784">
        <ele>1451</ele>
        <time>2010-01-03T10:45:35Z</time>
      </trkpt>
      <trkpt lat="46.19027" lon="6.71794">
        <ele>1451</ele>
        <time>2010-01-03T10:45:38Z</time>
      </trkpt>
      <trkpt lat="46.19074" lon="6.7191">
        <ele>1471</ele>
        <time>2010-01-03T10:46:15Z</time>
      </trkpt>
      <trkpt lat="46.19145" lon="6.72053">
        <ele>1506</ele>
        <time>2010-01-03T10:47:04Z</time>
      </trkpt>
      <trkpt lat="46.19632" lon="6.73213">
        <ele>1741</ele>
        <time>2010-01-03T10:53:20Z</time>
      </trkpt>
      <trkpt lat="46.19629" lon="6.73293">
        <ele>1742</ele>
        <time>2010-01-03T10:53:42Z</time>
      </trkpt>
      <trkpt lat="46.19621" lon="6.73314">
        <ele>1742</ele>
        <time>2010-01-03T10:53:49Z</time>
      </trkpt>
      <trkpt lat="46.19609" lon="6.7335">
        <ele>1740</ele>
        <time>2010-01-03T10:54:00Z</time>
      </trkpt>
      <trkpt lat="46.19615" lon="6.73448">
        <ele>1738</ele>
        <time>2010-01-03T10:54:27Z</time>
      </trkpt>
      <trkpt lat="46.19616" lon="6.73488">
        <ele>1738</ele>
        <time>2010-01-03T10:54:38Z</time>
      </trkpt>
      <trkpt lat="46.1964" lon="6.73561">
        <ele>1739</ele>
        <time>2010-01-03T10:55:00Z</time>
      </trkpt>
      <trkpt lat="46.19657" lon="6.73591">
        <ele>1740</ele>
        <time>2010-01-03T10:55:11Z</time>
      </trkpt>
      <trkpt lat="46.19678" lon="6.73624">
        <ele>1738</ele>
        <time>2010-01-03T10:55:24Z</time>
      </trkpt>
      <trkpt lat="46.1972" lon="6.73674">
        <ele>1740</ele>
        <time>2010-01-03T10:55:45Z</time>
      </trkpt>
      <trkpt lat="46.19801" lon="6.73799">
        <ele>1750</ele>
        <time>2010-01-03T10:56:33Z</time>
      </trkpt>
      <trkpt lat="46.19873" lon="6.73958">
        <ele>1755</ele>
        <time>2010-01-03T10:57:25Z</time>
      </trkpt>
      <trkpt lat="46.19908" lon="6.74006">
        <ele>1754</ele>
        <time>2010-01-03T10:57:44Z</time>
      </trkpt>
      <trkpt lat="46.19932" lon="6.74043">
        <ele>1752</ele>
        <time>2010-01-03T10:57:59Z</time>
      </trkpt>
      <trkpt lat="46.19976" lon="6.74095">
        <ele>1755</ele>
        <time>2010-01-03T10:58:21Z</time>
      </trkpt>
      <trkpt lat="46.20023" lon="6.74197">
        <ele>1755</ele>
        <time>2010-01-03T10:58:55Z</time>
      </trkpt>
      <trkpt lat="46.20043" lon="6.74249">
        <ele>1754</ele>
        <time>2010-01-03T10:59:12Z</time>
      </trkpt>
      <trkpt lat="46.20046" lon="6.74277">
        <ele>1755</ele>
        <time>2010-01-03T10:59:20Z</time>
      </trkpt>
      <trkpt lat="46.2004" lon="6.74307">
        <ele>1755</ele>
        <time>2010-01-03T10:59:28Z</time>
      </trkpt>
      <trkpt lat="46.20036" lon="6.74364">
        <ele>1751</ele>
        <time>2010-01-03T10:59:44Z</time>
      </trkpt>
      <trkpt lat="46.20043" lon="6.74393">
        <ele>1750</ele>
        <time>2010-01-03T10:59:53Z</time>
      </trkpt>
      <trkpt lat="46.2005" lon="6.74449">
        <ele>1745</ele>
        <time>2010-01-03T11:00:08Z</time>
      </trkpt>
      <trkpt lat="46.20055" lon="6.74492">
        <ele>1745</ele>
        <time>2010-01-03T11:00:21Z</time>
      </trkpt>
      <trkpt lat="46.20056" lon="6.74526">
        <ele>1740</ele>
        <time>2010-01-03T11:00:30Z</time>
      </trkpt>
      <trkpt lat="46.20059" lon="6.74553">
        <ele>1739</ele>
        <time>2010-01-03T11:00:38Z</time>
      </trkpt>
      <trkpt lat="46.2006" lon="6.74555">
        <ele>1739</ele>
        <time>2010-01-03T11:00:38Z</time>
      </trkpt>
      <trkpt lat="46.20071" lon="6.74578">
        <ele>1740</ele>
        <time>2010-01-03T11:00:46Z</time>
      </trkpt>
      <trkpt lat="46.20073" lon="6.74604">
        <ele>1738</ele>
        <time>2010-01-03T11:00:53Z</time>
      </trkpt>
      <trkpt lat="46.20073" lon="6.74616">
        <ele>1737</ele>
        <time>2010-01-03T11:00:57Z</time>
      </trkpt>
      <trkpt lat="46.20072" lon="6.74645">
        <ele>1738</ele>
        <time>2010-01-03T11:01:05Z</time>
      </trkpt>
      <trkpt lat="46.20072" lon="6.74646">
        <ele>1738</ele>
        <time>2010-01-03T11:01:05Z</time>
      </trkpt>
      <trkpt lat="46.20078" lon="6.74707">
        <ele>1736</ele>
        <time>2010-01-03T11:01:22Z</time>
      </trkpt>
      <trkpt lat="46.20083" lon="6.74747">
        <ele>1742</ele>
        <time>2010-01-03T11:01:33Z</time>
      </trkpt>
      <trkpt lat="46.20093" lon="6.74841">
        <ele>1740</ele>
        <time>2010-01-03T11:02:00Z</time>
      </trkpt>
      <trkpt lat="46.20093" lon="6.74885">
        <ele>1738</ele>
        <time>2010-01-03T11:02:12Z</time>
      </trkpt>
      <trkpt lat="46.20107" lon="6.74982">
        <ele>1743</ele>
        <time>2010-01-03T11:02:39Z</time>
      </trkpt>
      <trkpt lat="46.20125" lon="6.75107">
        <ele>1750</ele>
        <time>2010-01-03T11:03:15Z</time>
      </trkpt>
      <trkpt lat="46.20133" lon="6.75199">
        <ele>1752</ele>
        <time>2010-01-03T11:03:40Z</time>
      </trkpt>
      <trkpt lat="46.20131" lon="6.75297">
        <ele>1755</ele>
        <time>2010-01-03T11:04:07Z</time>
      </trkpt>
      <trkpt lat="46.20121" lon="6.75378">
        <ele>1758</ele>
        <time>2010-01-03T11:04:30Z</time>
      </trkpt>
      <trkpt lat="46.20113" lon="6.75437">
        <ele>1759</ele>
        <time>2010-01-03T11:04:47Z</time>
      </trkpt>
      <trkpt lat="46.20108" lon="6.75467">
        <ele>1760</ele>
        <time>2010-01-03T11:04:56Z</time>
      </trkpt>
      <trkpt lat="46.20105" lon="6.75577">
        <ele>1761</ele>
        <time>2010-01-03T11:05:26Z</time>
      </trkpt>
      <trkpt lat="46.201" lon="6.75671">
        <ele>1763</ele>
        <time>2010-01-03T11:05:52Z</time>
      </trkpt>
      <trkpt lat="46.20097" lon="6.75695">
        <ele>1765</ele>
        <time>2010-01-03T11:05:59Z</time>
      </trkpt>
      <trkpt lat="46.20097" lon="6.75696">
        <ele>1765</ele>
        <time>2010-01-03T11:05:59Z</time>
      </trkpt>
      <trkpt lat="46.20084" lon="6.75723">
        <ele>1765</ele>
        <time>2010-01-03T11:06:08Z</time>
      </trkpt>
      <trkpt lat="46.20072" lon="6.75754">
        <ele>1761</ele>
        <time>2010-01-03T11:06:18Z</time>
      </trkpt>
      <trkpt lat="46.20069" lon="6.75758">
        <ele>1760</ele>
        <time>2010-01-03T11:06:20Z</time>
      </trkpt>
      <trkpt lat="46.20062" lon="6.75768">
        <ele>1759</ele>
        <time>2010-01-03T11:06:24Z</time>
      </trkpt>
      <trkpt lat="46.20056" lon="6.75785">
        <ele>1758</ele>
        <time>2010-01-03T11:06:29Z</time>
      </trkpt>
      <trkpt lat="46.20054" lon="6.75792">
        <ele>1758</ele>
        <time>2010-01-03T11:06:31Z</time>
      </trkpt>
      <trkpt lat="46.20054" lon="6.75812">
        <ele>1759</ele>
        <time>2010-01-03T11:06:36Z</time>
      </trkpt>
      <trkpt lat="46.20053" lon="6.7583">
        <ele>1759</ele>
        <time>2010-01-03T11:06:42Z</time>
      </trkpt>
      <trkpt lat="46.20054" lon="6.75847">
        <ele>1758</ele>
        <time>2010-01-03T11:06:46Z</time>
      </trkpt>
      <trkpt lat="46.20051" lon="6.75865">
        <ele>1756</ele>
        <time>2010-01-03T11:06:51Z</time>
      </trkpt>
      <trkpt lat="46.20042" lon="6.75879">
        <ele>1756</ele>
        <time>2010-01-03T11:06:57Z</time>
      </trkpt>
      <trkpt lat="46.20032" lon="6.75895">
        <ele>1756</ele>
        <time>2010-01-03T11:07:03Z</time>
      </trkpt>
      <trkpt lat="46.20025" lon="6.75907">
        <ele>1756</ele>
        <time>2010-01-03T11:07:07Z</time>
      </trkpt>
      <trkpt lat="46.20016" lon="6.7592">
        <ele>1753</ele>
        <time>2010-01-03T11:07:12Z</time>
      </trkpt>
      <trkpt lat="46.2002" lon="6.75928">
        <ele>1752</ele>
        <time>2010-01-03T11:07:15Z</time>
      </trkpt>
      <trkpt lat="46.2002" lon="6.75928">
        <ele>1752</ele>
        <time>2010-01-03T11:07:15Z</time>
      </trkpt>
      <trkpt lat="46.20032" lon="6.75924">
        <ele>1750</ele>
        <time>2010-01-03T11:07:20Z</time>
      </trkpt>
      <trkpt lat="46.20038" lon="6.75921">
        <ele>1750</ele>
        <time>2010-01-03T11:07:22Z</time>
      </trkpt>
      <trkpt lat="46.20038" lon="6.75942">
        <ele>1749</ele>
        <time>2010-01-03T11:07:28Z</time>
      </trkpt>
      <trkpt lat="46.20032" lon="6.75959">
        <ele>1748</ele>
        <time>2010-01-03T11:07:34Z</time>
      </trkpt>
      <trkpt lat="46.2003" lon="6.7596">
        <ele>1748</ele>
        <time>2010-01-03T11:07:34Z</time>
      </trkpt>
      <trkpt lat="46.20023" lon="6.75968">
        <ele>1749</ele>
        <time>2010-01-03T11:07:38Z</time>
      </trkpt>
      <trkpt lat="46.20019" lon="6.75978">
        <ele>1749</ele>
        <time>2010-01-03T11:07:41Z</time>
      </trkpt>
      <trkpt lat="46.20016" lon="6.75992">
        <ele>1750</ele>
        <time>2010-01-03T11:07:45Z</time>
      </trkpt>
      <trkpt lat="46.20016" lon="6.75992">
        <ele>1750</ele>
        <time>2010-01-03T11:07:45Z</time>
      </trkpt>
      <trkpt lat="46.20018" lon="6.76002">
        <ele>1745</ele>
        <time>2010-01-03T11:07:48Z</time>
      </trkpt>
      <trkpt lat="46.20029" lon="6.76">
        <ele>1747</ele>
        <time>2010-01-03T11:07:53Z</time>
      </trkpt>
      <trkpt lat="46.20029" lon="6.76">
        <ele>1747</ele>
        <time>2010-01-03T11:07:53Z</time>
      </trkpt>
      <trkpt lat="46.20033" lon="6.75997">
        <ele>1747</ele>
        <time>2010-01-03T11:07:54Z</time>
      </trkpt>
      <trkpt lat="46.20037" lon="6.75993">
        <ele>1746</ele>
        <time>2010-01-03T11:07:56Z</time>
      </trkpt>
      <trkpt lat="46.20039" lon="6.75997">
        <ele>1745</ele>
        <time>2010-01-03T11:07:58Z</time>
      </trkpt>
      <trkpt lat="46.20039" lon="6.75997">
        <ele>1745</ele>
        <time>2010-01-03T11:07:58Z</time>
      </trkpt>
      <trkpt lat="46.2004" lon="6.76008">
        <ele>1739</ele>
        <time>2010-01-03T11:08:01Z</time>
      </trkpt>
      <trkpt lat="46.20037" lon="6.76018">
        <ele>1739</ele>
        <time>2010-01-03T11:08:04Z</time>
      </trkpt>
      <trkpt lat="46.20039" lon="6.76028">
        <ele>1738</ele>
        <time>2010-01-03T11:08:07Z</time>
      </trkpt>
      <trkpt lat="46.2004" lon="6.76028">
        <ele>1738</ele>
        <time>2010-01-03T11:08:07Z</time>
      </trkpt>
      <trkpt lat="46.2006" lon="6.76056">
        <ele>1733</ele>
        <time>2010-01-03T11:08:18Z</time>
      </trkpt>
      <trkpt lat="46.20064" lon="6.76069">
        <ele>1729</ele>
        <time>2010-01-03T11:08:22Z</time>
      </trkpt>
      <trkpt lat="46.20065" lon="6.7608">
        <ele>1727</ele>
        <time>2010-01-03T11:08:25Z</time>
      </trkpt>
      <trkpt lat="46.20061" lon="6.76091">
        <ele>1725</ele>
        <time>2010-01-03T11:08:29Z</time>
      </trkpt>
      <trkpt lat="46.20065" lon="6.76119">
        <ele>1725</ele>
        <time>2010-01-03T11:08:37Z</time>
      </trkpt>
      <trkpt lat="46.20064" lon="6.76132">
        <ele>1724</ele>
        <time>2010-01-03T11:08:41Z</time>
      </trkpt>
      <trkpt lat="46.20061" lon="6.76143">
        <ele>1723</ele>
        <time>2010-01-03T11:08:44Z</time>
      </trkpt>
      <trkpt lat="46.2006" lon="6.76146">
        <ele>1723</ele>
        <time>2010-01-03T11:08:45Z</time>
      </trkpt>
      <trkpt lat="46.2006" lon="6.76146">
        <ele>1723</ele>
        <time>2010-01-03T11:08:45Z</time>
      </trkpt>
      <trkpt lat="46.20054" lon="6.76156">
        <ele>1724</ele>
        <time>2010-01-03T11:08:48Z</time>
      </trkpt>
      <trkpt lat="46.20053" lon="6.76158">
        <ele>1724</ele>
        <time>2010-01-03T11:08:49Z</time>
      </trkpt>
      <trkpt lat="46.20048" lon="6.76168">
        <ele>1721</ele>
        <time>2010-01-03T11:08:52Z</time>
      </trkpt>
      <trkpt lat="46.20048" lon="6.7617">
        <ele>1721</ele>
        <time>2010-01-03T11:08:53Z</time>
      </trkpt>
      <trkpt lat="46.20048" lon="6.76171">
        <ele>1721</ele>
        <time>2010-01-03T11:08:53Z</time>
      </trkpt>
      <trkpt lat="46.20045" lon="6.76183">
        <ele>1722</ele>
        <time>2010-01-03T11:08:57Z</time>
      </trkpt>
      <trkpt lat="46.20044" lon="6.76185">
        <ele>1722</ele>
        <time>2010-01-03T11:08:57Z</time>
      </trkpt>
      <trkpt lat="46.2004" lon="6.762">
        <ele>1722</ele>
        <time>2010-01-03T11:09:02Z</time>
      </trkpt>
      <trkpt lat="46.2004" lon="6.76203">
        <ele>1722</ele>
        <time>2010-01-03T11:09:03Z</time>
      </trkpt>
      <trkpt lat="46.20038" lon="6.76221">
        <ele>1722</ele>
        <time>2010-01-03T11:09:08Z</time>
      </trkpt>
      <trkpt lat="46.20039" lon="6.76222">
        <ele>1721</ele>
        <time>2010-01-03T11:09:08Z</time>
      </trkpt>
      <trkpt lat="46.20043" lon="6.76235">
        <ele>1719</ele>
        <time>2010-01-03T11:09:12Z</time>
      </trkpt>
      <trkpt lat="46.20043" lon="6.76235">
        <ele>1719</ele>
        <time>2010-01-03T11:09:12Z</time>
      </trkpt>
      <trkpt lat="46.20047" lon="6.76283">
        <ele>1713</ele>
        <time>2010-01-03T11:09:26Z</time>
      </trkpt>
      <trkpt lat="46.20045" lon="6.7631">
        <ele>1712</ele>
        <time>2010-01-03T11:09:33Z</time>
      </trkpt>
      <trkpt lat="46.20048" lon="6.76337">
        <ele>1710</ele>
        <time>2010-01-03T11:09:40Z</time>
      </trkpt>
      <trkpt lat="46.20049" lon="6.76338">
        <ele>1709</ele>
        <time>2010-01-03T11:09:41Z</time>
      </trkpt>
      <trkpt lat="46.2005" lon="6.76362">
        <ele>1710</ele>
        <time>2010-01-03T11:09:48Z</time>
      </trkpt>
      <trkpt lat="46.20057" lon="6.76398">
        <ele>1707</ele>
        <time>2010-01-03T11:09:58Z</time>
      </trkpt>
      <trkpt lat="46.20065" lon="6.76419">
        <ele>1703</ele>
        <time>2010-01-03T11:10:05Z</time>
      </trkpt>
      <trkpt lat="46.20072" lon="6.76445">
        <ele>1705</ele>
        <time>2010-01-03T11:10:12Z</time>
      </trkpt>
      <trkpt lat="46.20073" lon="6.7646">
        <ele>1707</ele>
        <time>2010-01-03T11:10:16Z</time>
      </trkpt>
      <trkpt lat="46.20073" lon="6.76461">
        <ele>1707</ele>
        <time>2010-01-03T11:10:17Z</time>
      </trkpt>
      <trkpt lat="46.2007" lon="6.7648">
        <ele>1705</ele>
        <time>2010-01-03T11:10:22Z</time>
      </trkpt>
      <trkpt lat="46.20076" lon="6.76484">
        <ele>1703</ele>
        <time>2010-01-03T11:10:25Z</time>
      </trkpt>
      <trkpt lat="46.20077" lon="6.76483">
        <ele>1703</ele>
        <time>2010-01-03T11:10:25Z</time>
      </trkpt>
      <trkpt lat="46.20078" lon="6.76482">
        <ele>1703</ele>
        <time>2010-01-03T11:10:26Z</time>
      </trkpt>
      <trkpt lat="46.20085" lon="6.76483">
        <ele>1686</ele>
        <time>2010-01-03T11:10:29Z</time>
      </trkpt>
      <trkpt lat="46.20092" lon="6.76487">
        <ele>1686</ele>
        <time>2010-01-03T11:10:32Z</time>
      </trkpt>
      <trkpt lat="46.20095" lon="6.76494">
        <ele>1686</ele>
        <time>2010-01-03T11:10:34Z</time>
      </trkpt>
      <trkpt lat="46.20095" lon="6.76495">
        <ele>1687</ele>
        <time>2010-01-03T11:10:35Z</time>
      </trkpt>
      <trkpt lat="46.20086" lon="6.76508">
        <ele>1689</ele>
        <time>2010-01-03T11:10:40Z</time>
      </trkpt>
      <trkpt lat="46.20105" lon="6.76537">
        <ele>1683</ele>
        <time>2010-01-03T11:10:51Z</time>
      </trkpt>
      <trkpt lat="46.20121" lon="6.76568">
        <ele>1682</ele>
        <time>2010-01-03T11:11:02Z</time>
      </trkpt>
      <trkpt lat="46.20126" lon="6.76589">
        <ele>1678</ele>
        <time>2010-01-03T11:11:08Z</time>
      </trkpt>
      <trkpt lat="46.20118" lon="6.76636">
        <ele>1676</ele>
        <time>2010-01-03T11:11:21Z</time>
      </trkpt>
      <trkpt lat="46.20112" lon="6.7666">
        <ele>1676</ele>
        <time>2010-01-03T11:11:28Z</time>
      </trkpt>
      <trkpt lat="46.20112" lon="6.76685">
        <ele>1669</ele>
        <time>2010-01-03T11:11:35Z</time>
      </trkpt>
      <trkpt lat="46.20112" lon="6.76685">
        <ele>1669</ele>
        <time>2010-01-03T11:11:35Z</time>
      </trkpt>
      <trkpt lat="46.20108" lon="6.76699">
        <ele>1668</ele>
        <time>2010-01-03T11:11:39Z</time>
      </trkpt>
      <trkpt lat="46.20107" lon="6.767">
        <ele>1668</ele>
        <time>2010-01-03T11:11:40Z</time>
      </trkpt>
      <trkpt lat="46.20097" lon="6.76723">
        <ele>1668</ele>
        <time>2010-01-03T11:11:48Z</time>
      </trkpt>
      <trkpt lat="46.20098" lon="6.76745">
        <ele>1669</ele>
        <time>2010-01-03T11:11:53Z</time>
      </trkpt>
      <trkpt lat="46.20098" lon="6.76745">
        <ele>1669</ele>
        <time>2010-01-03T11:11:54Z</time>
      </trkpt>
      <trkpt lat="46.20097" lon="6.76764">
        <ele>1665</ele>
        <time>2010-01-03T11:11:59Z</time>
      </trkpt>
      <trkpt lat="46.20097" lon="6.76767">
        <ele>1665</ele>
        <time>2010-01-03T11:11:59Z</time>
      </trkpt>
      <trkpt lat="46.20097" lon="6.76767">
        <ele>1665</ele>
        <time>2010-01-03T11:12:00Z</time>
      </trkpt>
      <trkpt lat="46.20099" lon="6.76786">
        <ele>1663</ele>
        <time>2010-01-03T11:12:05Z</time>
      </trkpt>
      <trkpt lat="46.20099" lon="6.76787">
        <ele>1663</ele>
        <time>2010-01-03T11:12:05Z</time>
      </trkpt>
      <trkpt lat="46.20101" lon="6.76805">
        <ele>1662</ele>
        <time>2010-01-03T11:12:10Z</time>
      </trkpt>
      <trkpt lat="46.20101" lon="6.76815">
        <ele>1663</ele>
        <time>2010-01-03T11:12:13Z</time>
      </trkpt>
      <trkpt lat="46.20124" lon="6.76822">
        <ele>1660</ele>
        <time>2010-01-03T11:12:22Z</time>
      </trkpt>
      <trkpt lat="46.20134" lon="6.7683">
        <ele>1659</ele>
        <time>2010-01-03T11:12:27Z</time>
      </trkpt>
      <trkpt lat="46.20139" lon="6.76842">
        <ele>1662</ele>
        <time>2010-01-03T11:12:31Z</time>
      </trkpt>
      <trkpt lat="46.20142" lon="6.76855">
        <ele>1663</ele>
        <time>2010-01-03T11:12:35Z</time>
      </trkpt>
      <trkpt lat="46.20143" lon="6.76857">
        <ele>1663</ele>
        <time>2010-01-03T11:12:35Z</time>
      </trkpt>
      <trkpt lat="46.20149" lon="6.76865">
        <ele>1664</ele>
        <time>2010-01-03T11:12:39Z</time>
      </trkpt>
      <trkpt lat="46.20151" lon="6.76866">
        <ele>1664</ele>
        <time>2010-01-03T11:12:39Z</time>
      </trkpt>
      <trkpt lat="46.20189" lon="6.76873">
        <ele>1656</ele>
        <time>2010-01-03T11:12:55Z</time>
      </trkpt>
      <trkpt lat="46.20203" lon="6.76879">
        <ele>1656</ele>
        <time>2010-01-03T11:13:01Z</time>
      </trkpt>
      <trkpt lat="46.20203" lon="6.76879">
        <ele>1656</ele>
        <time>2010-01-03T11:13:01Z</time>
      </trkpt>
      <trkpt lat="46.20216" lon="6.76882">
        <ele>1655</ele>
        <time>2010-01-03T11:13:06Z</time>
      </trkpt>
      <trkpt lat="46.20217" lon="6.76882">
        <ele>1655</ele>
        <time>2010-01-03T11:13:06Z</time>
      </trkpt>
      <trkpt lat="46.20227" lon="6.76886">
        <ele>1656</ele>
        <time>2010-01-03T11:13:11Z</time>
      </trkpt>
      <trkpt lat="46.20232" lon="6.76887">
        <ele>1656</ele>
        <time>2010-01-03T11:13:13Z</time>
      </trkpt>
      <trkpt lat="46.20294" lon="6.76883">
        <ele>1651</ele>
        <time>2010-01-03T11:13:37Z</time>
      </trkpt>
      <trkpt lat="46.20312" lon="6.76883">
        <ele>1652</ele>
        <time>2010-01-03T11:13:45Z</time>
      </trkpt>
      <trkpt lat="46.2032" lon="6.7688">
        <ele>1651</ele>
        <time>2010-01-03T11:13:48Z</time>
      </trkpt>
      <trkpt lat="46.20321" lon="6.7688">
        <ele>1651</ele>
        <time>2010-01-03T11:13:48Z</time>
      </trkpt>
      <trkpt lat="46.20333" lon="6.76877">
        <ele>1651</ele>
        <time>2010-01-03T11:13:53Z</time>
      </trkpt>
      <trkpt lat="46.20333" lon="6.76876">
        <ele>1651</ele>
        <time>2010-01-03T11:13:53Z</time>
      </trkpt>
      <trkpt lat="46.20348" lon="6.76874">
        <ele>1650</ele>
        <time>2010-01-03T11:13:59Z</time>
      </trkpt>
      <trkpt lat="46.20349" lon="6.76873">
        <ele>1650</ele>
        <time>2010-01-03T11:14:00Z</time>
      </trkpt>
      <trkpt lat="46.2039" lon="6.76862">
        <ele>1648</ele>
        <time>2010-01-03T11:14:16Z</time>
      </trkpt>
      <trkpt lat="46.20409" lon="6.76846">
        <ele>1645</ele>
        <time>2010-01-03T11:14:26Z</time>
      </trkpt>
      <trkpt lat="46.20426" lon="6.7684">
        <ele>1643</ele>
        <time>2010-01-03T11:14:32Z</time>
      </trkpt>
      <trkpt lat="46.20438" lon="6.76834">
        <ele>1642</ele>
        <time>2010-01-03T11:14:37Z</time>
      </trkpt>
      <trkpt lat="46.20448" lon="6.76839">
        <ele>1642</ele>
        <time>2010-01-03T11:14:42Z</time>
      </trkpt>
      <trkpt lat="46.20449" lon="6.76839">
        <ele>1642</ele>
        <time>2010-01-03T11:14:42Z</time>
      </trkpt>
      <trkpt lat="46.20457" lon="6.76851">
        <ele>1642</ele>
        <time>2010-01-03T11:14:47Z</time>
      </trkpt>
      <trkpt lat="46.20477" lon="6.7686">
        <ele>1641</ele>
        <time>2010-01-03T11:14:55Z</time>
      </trkpt>
      <trkpt lat="46.20485" lon="6.76861">
        <ele>1641</ele>
        <time>2010-01-03T11:14:58Z</time>
      </trkpt>
      <trkpt lat="46.20497" lon="6.76879">
        <ele>1641</ele>
        <time>2010-01-03T11:15:05Z</time>
      </trkpt>
      <trkpt lat="46.20497" lon="6.76915">
        <ele>1638</ele>
        <time>2010-01-03T11:15:15Z</time>
      </trkpt>
      <trkpt lat="46.20499" lon="6.76934">
        <ele>1642</ele>
        <time>2010-01-03T11:15:21Z</time>
      </trkpt>
      <trkpt lat="46.20499" lon="6.76937">
        <ele>1642</ele>
        <time>2010-01-03T11:15:22Z</time>
      </trkpt>
      <trkpt lat="46.20499" lon="6.76941">
        <ele>1643</ele>
        <time>2010-01-03T11:15:23Z</time>
      </trkpt>
      <trkpt lat="46.20498" lon="6.76972">
        <ele>1643</ele>
        <time>2010-01-03T11:15:31Z</time>
      </trkpt>
      <trkpt lat="46.20496" lon="6.76987">
        <ele>1641</ele>
        <time>2010-01-03T11:15:35Z</time>
      </trkpt>
      <trkpt lat="46.20499" lon="6.77067">
        <ele>1638</ele>
        <time>2010-01-03T11:15:58Z</time>
      </trkpt>
      <trkpt lat="46.20499" lon="6.77094">
        <ele>1634</ele>
        <time>2010-01-03T11:16:05Z</time>
      </trkpt>
      <trkpt lat="46.20496" lon="6.77108">
        <ele>1637</ele>
        <time>2010-01-03T11:16:09Z</time>
      </trkpt>
      <trkpt lat="46.20494" lon="6.77132">
        <ele>1636</ele>
        <time>2010-01-03T11:16:16Z</time>
      </trkpt>
      <trkpt lat="46.20494" lon="6.77135">
        <ele>1636</ele>
        <time>2010-01-03T11:16:17Z</time>
      </trkpt>
      <trkpt lat="46.20492" lon="6.77154">
        <ele>1633</ele>
        <time>2010-01-03T11:16:22Z</time>
      </trkpt>
      <trkpt lat="46.20492" lon="6.77156">
        <ele>1632</ele>
        <time>2010-01-03T11:16:23Z</time>
      </trkpt>
      <trkpt lat="46.20491" lon="6.77172">
        <ele>1630</ele>
        <time>2010-01-03T11:16:27Z</time>
      </trkpt>
      <trkpt lat="46.20491" lon="6.77173">
        <ele>1630</ele>
        <time>2010-01-03T11:16:27Z</time>
      </trkpt>
      <trkpt lat="46.2049" lon="6.77185">
        <ele>1632</ele>
        <time>2010-01-03T11:16:31Z</time>
      </trkpt>
      <trkpt lat="46.20484" lon="6.77218">
        <ele>1633</ele>
        <time>2010-01-03T11:16:40Z</time>
      </trkpt>
      <trkpt lat="46.20487" lon="6.77235">
        <ele>1631</ele>
        <time>2010-01-03T11:16:45Z</time>
      </trkpt>
      <trkpt lat="46.20488" lon="6.77237">
        <ele>1630</ele>
        <time>2010-01-03T11:16:46Z</time>
      </trkpt>
      <trkpt lat="46.20487" lon="6.77257">
        <ele>1626</ele>
        <time>2010-01-03T11:16:51Z</time>
      </trkpt>
      <trkpt lat="46.20487" lon="6.77259">
        <ele>1626</ele>
        <time>2010-01-03T11:16:52Z</time>
      </trkpt>
      <trkpt lat="46.20465" lon="6.7732">
        <ele>1625</ele>
        <time>2010-01-03T11:17:11Z</time>
      </trkpt>
      <trkpt lat="46.20457" lon="6.77343">
        <ele>1614</ele>
        <time>2010-01-03T11:17:18Z</time>
      </trkpt>
      <trkpt lat="46.20449" lon="6.77357">
        <ele>1614</ele>
        <time>2010-01-03T11:17:23Z</time>
      </trkpt>
      <trkpt lat="46.20441" lon="6.77368">
        <ele>1614</ele>
        <time>2010-01-03T11:17:27Z</time>
      </trkpt>
      <trkpt lat="46.2044" lon="6.77371">
        <ele>1613</ele>
        <time>2010-01-03T11:17:28Z</time>
      </trkpt>
      <trkpt lat="46.20427" lon="6.77391">
        <ele>1612</ele>
        <time>2010-01-03T11:17:36Z</time>
      </trkpt>
      <trkpt lat="46.20426" lon="6.77392">
        <ele>1612</ele>
        <time>2010-01-03T11:17:36Z</time>
      </trkpt>
      <trkpt lat="46.20415" lon="6.77407">
        <ele>1619</ele>
        <time>2010-01-03T11:17:42Z</time>
      </trkpt>
      <trkpt lat="46.20414" lon="6.77409">
        <ele>1618</ele>
        <time>2010-01-03T11:17:43Z</time>
      </trkpt>
      <trkpt lat="46.204" lon="6.77427">
        <ele>1615</ele>
        <time>2010-01-03T11:17:50Z</time>
      </trkpt>
      <trkpt lat="46.20399" lon="6.77431">
        <ele>1615</ele>
        <time>2010-01-03T11:17:52Z</time>
      </trkpt>
      <trkpt lat="46.20386" lon="6.77448">
        <ele>1616</ele>
        <time>2010-01-03T11:17:59Z</time>
      </trkpt>
      <trkpt lat="46.20384" lon="6.77453">
        <ele>1616</ele>
        <time>2010-01-03T11:18:00Z</time>
      </trkpt>
      <trkpt lat="46.20371" lon="6.77472">
        <ele>1617</ele>
        <time>2010-01-03T11:18:08Z</time>
      </trkpt>
      <trkpt lat="46.20363" lon="6.77488">
        <ele>1618</ele>
        <time>2010-01-03T11:18:13Z</time>
      </trkpt>
      <trkpt lat="46.20361" lon="6.77492">
        <ele>1618</ele>
        <time>2010-01-03T11:18:14Z</time>
      </trkpt>
      <trkpt lat="46.2036" lon="6.77505">
        <ele>1612</ele>
        <time>2010-01-03T11:18:18Z</time>
      </trkpt>
      <trkpt lat="46.2036" lon="6.77505">
        <ele>1612</ele>
        <time>2010-01-03T11:18:18Z</time>
      </trkpt>
      <trkpt lat="46.2036" lon="6.77511">
        <ele>1611</ele>
        <time>2010-01-03T11:18:20Z</time>
      </trkpt>
      <trkpt lat="46.20362" lon="6.77523">
        <ele>1609</ele>
        <time>2010-01-03T11:18:23Z</time>
      </trkpt>
      <trkpt lat="46.20363" lon="6.77546">
        <ele>1607</ele>
        <time>2010-01-03T11:18:30Z</time>
      </trkpt>
      <trkpt lat="46.20357" lon="6.77573">
        <ele>1609</ele>
        <time>2010-01-03T11:18:38Z</time>
      </trkpt>
      <trkpt lat="46.20358" lon="6.77592">
        <ele>1607</ele>
        <time>2010-01-03T11:18:43Z</time>
      </trkpt>
      <trkpt lat="46.20362" lon="6.77605">
        <ele>1605</ele>
        <time>2010-01-03T11:18:47Z</time>
      </trkpt>
      <trkpt lat="46.20366" lon="6.77621">
        <ele>1603</ele>
        <time>2010-01-03T11:18:51Z</time>
      </trkpt>
      <trkpt lat="46.20367" lon="6.77622">
        <ele>1603</ele>
        <time>2010-01-03T11:18:52Z</time>
      </trkpt>
      <trkpt lat="46.20372" lon="6.77638">
        <ele>1602</ele>
        <time>2010-01-03T11:18:57Z</time>
      </trkpt>
      <trkpt lat="46.20391" lon="6.77667">
        <ele>1598</ele>
        <time>2010-01-03T11:19:08Z</time>
      </trkpt>
      <trkpt lat="46.20388" lon="6.77687">
        <ele>1597</ele>
        <time>2010-01-03T11:19:13Z</time>
      </trkpt>
      <trkpt lat="46.20379" lon="6.77698">
        <ele>1599</ele>
        <time>2010-01-03T11:19:18Z</time>
      </trkpt>
      <trkpt lat="46.20374" lon="6.77711">
        <ele>1599</ele>
        <time>2010-01-03T11:19:22Z</time>
      </trkpt>
      <trkpt lat="46.20372" lon="6.77714">
        <ele>1599</ele>
        <time>2010-01-03T11:19:23Z</time>
      </trkpt>
      <trkpt lat="46.20359" lon="6.77736">
        <ele>1601</ele>
        <time>2010-01-03T11:19:31Z</time>
      </trkpt>
      <trkpt lat="46.20351" lon="6.77748">
        <ele>1603</ele>
        <time>2010-01-03T11:19:36Z</time>
      </trkpt>
      <trkpt lat="46.20338" lon="6.77776">
        <ele>1601</ele>
        <time>2010-01-03T11:19:46Z</time>
      </trkpt>
      <trkpt lat="46.20333" lon="6.77801">
        <ele>1600</ele>
        <time>2010-01-03T11:19:53Z</time>
      </trkpt>
      <trkpt lat="46.20333" lon="6.77817">
        <ele>1602</ele>
        <time>2010-01-03T11:19:57Z</time>
      </trkpt>
      <trkpt lat="46.20333" lon="6.77818">
        <ele>1615</ele>
        <time>2010-01-03T11:19:58Z</time>
      </trkpt>
      <trkpt lat="46.20338" lon="6.77839">
        <ele>1605</ele>
        <time>2010-01-03T11:20:03Z</time>
      </trkpt>
      <trkpt lat="46.20338" lon="6.7784">
        <ele>1604</ele>
        <time>2010-01-03T11:20:04Z</time>
      </trkpt>
      <trkpt lat="46.20342" lon="6.77856">
        <ele>1601</ele>
        <time>2010-01-03T11:20:09Z</time>
      </trkpt>
      <trkpt lat="46.20342" lon="6.77857">
        <ele>1600</ele>
        <time>2010-01-03T11:20:09Z</time>
      </trkpt>
      <trkpt lat="46.20344" lon="6.77871">
        <ele>1599</ele>
        <time>2010-01-03T11:20:13Z</time>
      </trkpt>
      <trkpt lat="46.20345" lon="6.77874">
        <ele>1599</ele>
        <time>2010-01-03T11:20:14Z</time>
      </trkpt>
      <trkpt lat="46.20345" lon="6.77878">
        <ele>1599</ele>
        <time>2010-01-03T11:20:15Z</time>
      </trkpt>
      <trkpt lat="46.20346" lon="6.779">
        <ele>1601</ele>
        <time>2010-01-03T11:20:21Z</time>
      </trkpt>
      <trkpt lat="46.20346" lon="6.77904">
        <ele>1602</ele>
        <time>2010-01-03T11:20:22Z</time>
      </trkpt>
      <trkpt lat="46.20342" lon="6.77914">
        <ele>1604</ele>
        <time>2010-01-03T11:20:25Z</time>
      </trkpt>
      <trkpt lat="46.20341" lon="6.77917">
        <ele>1605</ele>
        <time>2010-01-03T11:20:26Z</time>
      </trkpt>
      <trkpt lat="46.2034" lon="6.77919">
        <ele>1605</ele>
        <time>2010-01-03T11:20:27Z</time>
      </trkpt>
      <trkpt lat="46.20333" lon="6.77928">
        <ele>1609</ele>
        <time>2010-01-03T11:20:30Z</time>
      </trkpt>
      <trkpt lat="46.20332" lon="6.77928">
        <ele>1609</ele>
        <time>2010-01-03T11:20:31Z</time>
      </trkpt>
      <trkpt lat="46.2033" lon="6.77929">
        <ele>1609</ele>
        <time>2010-01-03T11:20:32Z</time>
      </trkpt>
      <trkpt lat="46.20328" lon="6.7793">
        <ele>1609</ele>
        <time>2010-01-03T11:20:32Z</time>
      </trkpt>
      <trkpt lat="46.20324" lon="6.77932">
        <ele>1609</ele>
        <time>2010-01-03T11:20:34Z</time>
      </trkpt>
      <trkpt lat="46.20323" lon="6.77933">
        <ele>1609</ele>
        <time>2010-01-03T11:20:35Z</time>
      </trkpt>
      <trkpt lat="46.20321" lon="6.77936">
        <ele>1609</ele>
        <time>2010-01-03T11:20:36Z</time>
      </trkpt>
      <trkpt lat="46.20319" lon="6.7794">
        <ele>1609</ele>
        <time>2010-01-03T11:20:37Z</time>
      </trkpt>
      <trkpt lat="46.20318" lon="6.77941">
        <ele>1609</ele>
        <time>2010-01-03T11:20:38Z</time>
      </trkpt>
      <trkpt lat="46.20303" lon="6.77949">
        <ele>1610</ele>
        <time>2010-01-03T11:20:44Z</time>
      </trkpt>
      <trkpt lat="46.20298" lon="6.77958">
        <ele>1610</ele>
        <time>2010-01-03T11:20:47Z</time>
      </trkpt>
      <trkpt lat="46.20298" lon="6.7796">
        <ele>1610</ele>
        <time>2010-01-03T11:20:48Z</time>
      </trkpt>
      <trkpt lat="46.20294" lon="6.77974">
        <ele>1609</ele>
        <time>2010-01-03T11:20:52Z</time>
      </trkpt>
      <trkpt lat="46.20293" lon="6.77977">
        <ele>1609</ele>
        <time>2010-01-03T11:20:53Z</time>
      </trkpt>
      <trkpt lat="46.20288" lon="6.77995">
        <ele>1608</ele>
        <time>2010-01-03T11:20:58Z</time>
      </trkpt>
      <trkpt lat="46.20289" lon="6.78011">
        <ele>1601</ele>
        <time>2010-01-03T11:21:03Z</time>
      </trkpt>
      <trkpt lat="46.20285" lon="6.78036">
        <ele>1600</ele>
        <time>2010-01-03T11:21:10Z</time>
      </trkpt>
      <trkpt lat="46.20276" lon="6.7805">
        <ele>1600</ele>
        <time>2010-01-03T11:21:15Z</time>
      </trkpt>
      <trkpt lat="46.20276" lon="6.78051">
        <ele>1600</ele>
        <time>2010-01-03T11:21:16Z</time>
      </trkpt>
      <trkpt lat="46.20249" lon="6.78077">
        <ele>1602</ele>
        <time>2010-01-03T11:21:29Z</time>
      </trkpt>
      <trkpt lat="46.20238" lon="6.78096">
        <ele>1603</ele>
        <time>2010-01-03T11:21:35Z</time>
      </trkpt>
      <trkpt lat="46.20237" lon="6.78097">
        <ele>1604</ele>
        <time>2010-01-03T11:21:36Z</time>
      </trkpt>
      <trkpt lat="46.20228" lon="6.78115">
        <ele>1606</ele>
        <time>2010-01-03T11:21:42Z</time>
      </trkpt>
      <trkpt lat="46.20227" lon="6.78124">
        <ele>1606</ele>
        <time>2010-01-03T11:21:44Z</time>
      </trkpt>
      <trkpt lat="46.20226" lon="6.78125">
        <ele>1606</ele>
        <time>2010-01-03T11:21:45Z</time>
      </trkpt>
      <trkpt lat="46.20219" lon="6.78148">
        <ele>1605</ele>
        <time>2010-01-03T11:21:52Z</time>
      </trkpt>
      <trkpt lat="46.20216" lon="6.78154">
        <ele>1605</ele>
        <time>2010-01-03T11:21:54Z</time>
      </trkpt>
      <trkpt lat="46.20205" lon="6.78184">
        <ele>1600</ele>
        <time>2010-01-03T11:22:03Z</time>
      </trkpt>
      <trkpt lat="46.20204" lon="6.78189">
        <ele>1600</ele>
        <time>2010-01-03T11:22:05Z</time>
      </trkpt>
      <trkpt lat="46.20203" lon="6.78191">
        <ele>1600</ele>
        <time>2010-01-03T11:22:05Z</time>
      </trkpt>
      <trkpt lat="46.20202" lon="6.78192">
        <ele>1600</ele>
        <time>2010-01-03T11:22:06Z</time>
      </trkpt>
      <trkpt lat="46.20145" lon="6.78273">
        <ele>1608</ele>
        <time>2010-01-03T11:22:38Z</time>
      </trkpt>
      <trkpt lat="46.20133" lon="6.78292">
        <ele>1608</ele>
        <time>2010-01-03T11:22:45Z</time>
      </trkpt>
      <trkpt lat="46.20132" lon="6.78294">
        <ele>1608</ele>
        <time>2010-01-03T11:22:46Z</time>
      </trkpt>
      <trkpt lat="46.20123" lon="6.78314">
        <ele>1607</ele>
        <time>2010-01-03T11:22:52Z</time>
      </trkpt>
      <trkpt lat="46.20122" lon="6.78319">
        <ele>1607</ele>
        <time>2010-01-03T11:22:54Z</time>
      </trkpt>
      <trkpt lat="46.20116" lon="6.78344">
        <ele>1596</ele>
        <time>2010-01-03T11:23:01Z</time>
      </trkpt>
      <trkpt lat="46.20116" lon="6.78345">
        <ele>1596</ele>
        <time>2010-01-03T11:23:01Z</time>
      </trkpt>
      <trkpt lat="46.20097" lon="6.78377">
        <ele>1596</ele>
        <time>2010-01-03T11:23:13Z</time>
      </trkpt>
      <trkpt lat="46.20089" lon="6.78396">
        <ele>1596</ele>
        <time>2010-01-03T11:23:19Z</time>
      </trkpt>
      <trkpt lat="46.20079" lon="6.78424">
        <ele>1602</ele>
        <time>2010-01-03T11:23:28Z</time>
      </trkpt>
      <trkpt lat="46.2007" lon="6.7845">
        <ele>1603</ele>
        <time>2010-01-03T11:23:36Z</time>
      </trkpt>
      <trkpt lat="46.20062" lon="6.78482">
        <ele>1601</ele>
        <time>2010-01-03T11:23:45Z</time>
      </trkpt>
      <trkpt lat="46.20061" lon="6.78483">
        <ele>1601</ele>
        <time>2010-01-03T11:23:46Z</time>
      </trkpt>
      <trkpt lat="46.20051" lon="6.7851">
        <ele>1594</ele>
        <time>2010-01-03T11:23:54Z</time>
      </trkpt>
      <trkpt lat="46.20048" lon="6.78515">
        <ele>1595</ele>
        <time>2010-01-03T11:23:56Z</time>
      </trkpt>
      <trkpt lat="46.20044" lon="6.78524">
        <ele>1595</ele>
        <time>2010-01-03T11:23:59Z</time>
      </trkpt>
      <trkpt lat="46.20043" lon="6.78527">
        <ele>1595</ele>
        <time>2010-01-03T11:24:00Z</time>
      </trkpt>
      <trkpt lat="46.20035" lon="6.78554">
        <ele>1593</ele>
        <time>2010-01-03T11:24:08Z</time>
      </trkpt>
      <trkpt lat="46.20035" lon="6.78556">
        <ele>1593</ele>
        <time>2010-01-03T11:24:09Z</time>
      </trkpt>
      <trkpt lat="46.2003" lon="6.78573">
        <ele>1593</ele>
        <time>2010-01-03T11:24:14Z</time>
      </trkpt>
      <trkpt lat="46.20028" lon="6.78577">
        <ele>1593</ele>
        <time>2010-01-03T11:24:15Z</time>
      </trkpt>
      <trkpt lat="46.2002" lon="6.78584">
        <ele>1590</ele>
        <time>2010-01-03T11:24:19Z</time>
      </trkpt>
      <trkpt lat="46.20019" lon="6.78584">
        <ele>1590</ele>
        <time>2010-01-03T11:24:19Z</time>
      </trkpt>
      <trkpt lat="46.20016" lon="6.78585">
        <ele>1591</ele>
        <time>2010-01-03T11:24:20Z</time>
      </trkpt>
      <trkpt lat="46.20005" lon="6.7859">
        <ele>1592</ele>
        <time>2010-01-03T11:24:25Z</time>
      </trkpt>
      <trkpt lat="46.19992" lon="6.78586">
        <ele>1594</ele>
        <time>2010-01-03T11:24:30Z</time>
      </trkpt>
      <trkpt lat="46.19977" lon="6.78581">
        <ele>1601</ele>
        <time>2010-01-03T11:24:37Z</time>
      </trkpt>
      <trkpt lat="46.19954" lon="6.78582">
        <ele>1603</ele>
        <time>2010-01-03T11:24:46Z</time>
      </trkpt>
      <trkpt lat="46.1995" lon="6.78584">
        <ele>1594</ele>
        <time>2010-01-03T11:24:48Z</time>
      </trkpt>
      <trkpt lat="46.19932" lon="6.78589">
        <ele>1595</ele>
        <time>2010-01-03T11:24:55Z</time>
      </trkpt>
      <trkpt lat="46.19926" lon="6.78592">
        <ele>1596</ele>
        <time>2010-01-03T11:24:57Z</time>
      </trkpt>
      <trkpt lat="46.19913" lon="6.78597">
        <ele>1598</ele>
        <time>2010-01-03T11:25:03Z</time>
      </trkpt>
      <trkpt lat="46.19906" lon="6.78609">
        <ele>1597</ele>
        <time>2010-01-03T11:25:07Z</time>
      </trkpt>
      <trkpt lat="46.19897" lon="6.78634">
        <ele>1595</ele>
        <time>2010-01-03T11:25:15Z</time>
      </trkpt>
      <trkpt lat="46.19897" lon="6.78636">
        <ele>1594</ele>
        <time>2010-01-03T11:25:15Z</time>
      </trkpt>
      <trkpt lat="46.19889" lon="6.78663">
        <ele>1593</ele>
        <time>2010-01-03T11:25:23Z</time>
      </trkpt>
      <trkpt lat="46.19888" lon="6.78667">
        <ele>1588</ele>
        <time>2010-01-03T11:25:25Z</time>
      </trkpt>
      <trkpt lat="46.19887" lon="6.78672">
        <ele>1588</ele>
        <time>2010-01-03T11:25:26Z</time>
      </trkpt>
      <trkpt lat="46.19876" lon="6.787">
        <ele>1589</ele>
        <time>2010-01-03T11:25:35Z</time>
      </trkpt>
      <trkpt lat="46.19876" lon="6.78702">
        <ele>1589</ele>
        <time>2010-01-03T11:25:36Z</time>
      </trkpt>
      <trkpt lat="46.19879" lon="6.78735">
        <ele>1588</ele>
        <time>2010-01-03T11:25:45Z</time>
      </trkpt>
      <trkpt lat="46.19882" lon="6.78755">
        <ele>1589</ele>
        <time>2010-01-03T11:25:51Z</time>
      </trkpt>
      <trkpt lat="46.19901" lon="6.7876">
        <ele>1588</ele>
        <time>2010-01-03T11:25:58Z</time>
      </trkpt>
      <trkpt lat="46.19919" lon="6.78761">
        <ele>1588</ele>
        <time>2010-01-03T11:26:06Z</time>
      </trkpt>
      <trkpt lat="46.1992" lon="6.78761">
        <ele>1588</ele>
        <time>2010-01-03T11:26:06Z</time>
      </trkpt>
      <trkpt lat="46.19937" lon="6.78765">
        <ele>1591</ele>
        <time>2010-01-03T11:26:13Z</time>
      </trkpt>
      <trkpt lat="46.19952" lon="6.78759">
        <ele>1592</ele>
        <time>2010-01-03T11:26:19Z</time>
      </trkpt>
      <trkpt lat="46.19963" lon="6.78756">
        <ele>1593</ele>
        <time>2010-01-03T11:26:23Z</time>
      </trkpt>
      <trkpt lat="46.19965" lon="6.78755">
        <ele>1593</ele>
        <time>2010-01-03T11:26:24Z</time>
      </trkpt>
      <trkpt lat="46.19986" lon="6.7875">
        <ele>1590</ele>
        <time>2010-01-03T11:26:33Z</time>
      </trkpt>
      <trkpt lat="46.19997" lon="6.78739">
        <ele>1591</ele>
        <time>2010-01-03T11:26:38Z</time>
      </trkpt>
      <trkpt lat="46.19999" lon="6.78736">
        <ele>1590</ele>
        <time>2010-01-03T11:26:40Z</time>
      </trkpt>
      <trkpt lat="46.20013" lon="6.78724">
        <ele>1591</ele>
        <time>2010-01-03T11:26:46Z</time>
      </trkpt>
      <trkpt lat="46.20015" lon="6.78723">
        <ele>1591</ele>
        <time>2010-01-03T11:26:47Z</time>
      </trkpt>
      <trkpt lat="46.20056" lon="6.7872">
        <ele>1591</ele>
        <time>2010-01-03T11:27:03Z</time>
      </trkpt>
      <trkpt lat="46.20076" lon="6.78723">
        <ele>1592</ele>
        <time>2010-01-03T11:27:11Z</time>
      </trkpt>
      <trkpt lat="46.20103" lon="6.78723">
        <ele>1592</ele>
        <time>2010-01-03T11:27:22Z</time>
      </trkpt>
      <trkpt lat="46.20107" lon="6.78727">
        <ele>1592</ele>
        <time>2010-01-03T11:27:24Z</time>
      </trkpt>
      <trkpt lat="46.2012" lon="6.78735">
        <ele>1591</ele>
        <time>2010-01-03T11:27:30Z</time>
      </trkpt>
      <trkpt lat="46.20134" lon="6.78739">
        <ele>1591</ele>
        <time>2010-01-03T11:27:35Z</time>
      </trkpt>
      <trkpt lat="46.20135" lon="6.78739">
        <ele>1591</ele>
        <time>2010-01-03T11:27:36Z</time>
      </trkpt>
      <trkpt lat="46.2015" lon="6.78733">
        <ele>1590</ele>
        <time>2010-01-03T11:27:42Z</time>
      </trkpt>
      <trkpt lat="46.20166" lon="6.78736">
        <ele>1591</ele>
        <time>2010-01-03T11:27:48Z</time>
      </trkpt>
      <trkpt lat="46.20167" lon="6.78736">
        <ele>1588</ele>
        <time>2010-01-03T11:27:49Z</time>
      </trkpt>
      <trkpt lat="46.20179" lon="6.78741">
        <ele>1588</ele>
        <time>2010-01-03T11:27:54Z</time>
      </trkpt>
      <trkpt lat="46.2023" lon="6.78741">
        <ele>1585</ele>
        <time>2010-01-03T11:28:14Z</time>
      </trkpt>
      <trkpt lat="46.20249" lon="6.78733">
        <ele>1585</ele>
        <time>2010-01-03T11:28:22Z</time>
      </trkpt>
      <trkpt lat="46.20265" lon="6.78709">
        <ele>1582</ele>
        <time>2010-01-03T11:28:31Z</time>
      </trkpt>
      <trkpt lat="46.20325" lon="6.78663">
        <ele>1575</ele>
        <time>2010-01-03T11:28:58Z</time>
      </trkpt>
      <trkpt lat="46.20372" lon="6.78612">
        <ele>1579</ele>
        <time>2010-01-03T11:29:22Z</time>
      </trkpt>
      <trkpt lat="46.20412" lon="6.78558">
        <ele>1571</ele>
        <time>2010-01-03T11:29:44Z</time>
      </trkpt>
      <trkpt lat="46.20438" lon="6.78532">
        <ele>1578</ele>
        <time>2010-01-03T11:29:57Z</time>
      </trkpt>
      <trkpt lat="46.20458" lon="6.78515">
        <ele>1578</ele>
        <time>2010-01-03T11:30:06Z</time>
      </trkpt>
      <trkpt lat="46.20471" lon="6.78492">
        <ele>1568</ele>
        <time>2010-01-03T11:30:14Z</time>
      </trkpt>
      <trkpt lat="46.20482" lon="6.78476">
        <ele>1568</ele>
        <time>2010-01-03T11:30:21Z</time>
      </trkpt>
      <trkpt lat="46.20515" lon="6.78445">
        <ele>1575</ele>
        <time>2010-01-03T11:30:36Z</time>
      </trkpt>
      <trkpt lat="46.20535" lon="6.78407">
        <ele>1564</ele>
        <time>2010-01-03T11:30:50Z</time>
      </trkpt>
      <trkpt lat="46.20533" lon="6.78383">
        <ele>1563</ele>
        <time>2010-01-03T11:30:56Z</time>
      </trkpt>
      <trkpt lat="46.2054" lon="6.78356">
        <ele>1562</ele>
        <time>2010-01-03T11:31:04Z</time>
      </trkpt>
      <trkpt lat="46.2054" lon="6.78354">
        <ele>1562</ele>
        <time>2010-01-03T11:31:05Z</time>
      </trkpt>
      <trkpt lat="46.2054" lon="6.78329">
        <ele>1555</ele>
        <time>2010-01-03T11:31:12Z</time>
      </trkpt>
      <trkpt lat="46.20549" lon="6.78307">
        <ele>1555</ele>
        <time>2010-01-03T11:31:19Z</time>
      </trkpt>
      <trkpt lat="46.20551" lon="6.78304">
        <ele>1555</ele>
        <time>2010-01-03T11:31:20Z</time>
      </trkpt>
      <trkpt lat="46.20565" lon="6.78276">
        <ele>1553</ele>
        <time>2010-01-03T11:31:30Z</time>
      </trkpt>
      <trkpt lat="46.20568" lon="6.78271">
        <ele>1553</ele>
        <time>2010-01-03T11:31:31Z</time>
      </trkpt>
      <trkpt lat="46.206" lon="6.78219">
        <ele>1547</ele>
        <time>2010-01-03T11:31:51Z</time>
      </trkpt>
      <trkpt lat="46.20601" lon="6.78219">
        <ele>1547</ele>
        <time>2010-01-03T11:31:51Z</time>
      </trkpt>
      <trkpt lat="46.20652" lon="6.78133">
        <ele>1535</ele>
        <time>2010-01-03T11:32:22Z</time>
      </trkpt>
      <trkpt lat="46.20678" lon="6.78096">
        <ele>1533</ele>
        <time>2010-01-03T11:32:37Z</time>
      </trkpt>
      <trkpt lat="46.20703" lon="6.78049">
        <ele>1527</ele>
        <time>2010-01-03T11:32:53Z</time>
      </trkpt>
      <trkpt lat="46.2072" lon="6.78016">
        <ele>1526</ele>
        <time>2010-01-03T11:33:05Z</time>
      </trkpt>
      <trkpt lat="46.20731" lon="6.77989">
        <ele>1520</ele>
        <time>2010-01-03T11:33:13Z</time>
      </trkpt>
      <trkpt lat="46.20736" lon="6.77966">
        <ele>1518</ele>
        <time>2010-01-03T11:33:20Z</time>
      </trkpt>
      <trkpt lat="46.20746" lon="6.77937">
        <ele>1516</ele>
        <time>2010-01-03T11:33:29Z</time>
      </trkpt>
      <trkpt lat="46.20701" lon="6.77803">
        <ele>1502</ele>
        <time>2010-01-03T11:34:10Z</time>
      </trkpt>
      <trkpt lat="46.20754" lon="6.77942">
        <ele>1523</ele>
        <time>2010-01-03T11:34:54Z</time>
      </trkpt>
      <trkpt lat="46.20825" lon="6.78131">
        <ele>1558</ele>
        <time>2010-01-03T11:35:54Z</time>
      </trkpt>
      <trkpt lat="46.20891" lon="6.78305">
        <ele>1619</ele>
        <time>2010-01-03T11:36:49Z</time>
      </trkpt>
      <trkpt lat="46.20926" lon="6.78411">
        <ele>1675</ele>
        <time>2010-01-03T11:37:21Z</time>
      </trkpt>
      <trkpt lat="46.20951" lon="6.78431">
        <ele>1699</ele>
        <time>2010-01-03T11:37:33Z</time>
      </trkpt>
      <trkpt lat="46.21016" lon="6.78604">
        <ele>1778</ele>
        <time>2010-01-03T11:38:27Z</time>
      </trkpt>
      <trkpt lat="46.2104" lon="6.78683">
        <ele>1803</ele>
        <time>2010-01-03T11:38:51Z</time>
      </trkpt>
      <trkpt lat="46.21103" lon="6.78849">
        <ele>1855</ele>
        <time>2010-01-03T11:39:44Z</time>
      </trkpt>
      <trkpt lat="46.2117" lon="6.79029">
        <ele>1905</ele>
        <time>2010-01-03T11:40:40Z</time>
      </trkpt>
      <trkpt lat="46.21175" lon="6.7903">
        <ele>1905</ele>
        <time>2010-01-03T11:40:42Z</time>
      </trkpt>
      <trkpt lat="46.21181" lon="6.79038">
        <ele>1906</ele>
        <time>2010-01-03T11:40:46Z</time>
      </trkpt>
      <trkpt lat="46.21195" lon="6.79032">
        <ele>1905</ele>
        <time>2010-01-03T11:40:52Z</time>
      </trkpt>
      <trkpt lat="46.21213" lon="6.79024">
        <ele>1904</ele>
        <time>2010-01-03T11:40:59Z</time>
      </trkpt>
      <trkpt lat="46.2122" lon="6.79021">
        <ele>1904</ele>
        <time>2010-01-03T11:41:02Z</time>
      </trkpt>
      <trkpt lat="46.21255" lon="6.78992">
        <ele>1901</ele>
        <time>2010-01-03T11:41:18Z</time>
      </trkpt>
      <trkpt lat="46.21257" lon="6.7899">
        <ele>1900</ele>
        <time>2010-01-03T11:41:19Z</time>
      </trkpt>
      <trkpt lat="46.2126" lon="6.78979">
        <ele>1897</ele>
        <time>2010-01-03T11:41:23Z</time>
      </trkpt>
      <trkpt lat="46.21277" lon="6.78947">
        <ele>1894</ele>
        <time>2010-01-03T11:41:33Z</time>
      </trkpt>
      <trkpt lat="46.21293" lon="6.78917">
        <ele>1893</ele>
        <time>2010-01-03T11:41:44Z</time>
      </trkpt>
      <trkpt lat="46.21293" lon="6.78917">
        <ele>1895</ele>
        <time>2010-01-03T11:41:44Z</time>
      </trkpt>
      <trkpt lat="46.213" lon="6.78891">
        <ele>1895</ele>
        <time>2010-01-03T11:41:52Z</time>
      </trkpt>
      <trkpt lat="46.213" lon="6.78891">
        <ele>1895</ele>
        <time>2010-01-03T11:41:52Z</time>
      </trkpt>
      <trkpt lat="46.21316" lon="6.78859">
        <ele>1896</ele>
        <time>2010-01-03T11:42:03Z</time>
      </trkpt>
      <trkpt lat="46.21325" lon="6.78846">
        <ele>1898</ele>
        <time>2010-01-03T11:42:08Z</time>
      </trkpt>
      <trkpt lat="46.21326" lon="6.78845">
        <ele>1898</ele>
        <time>2010-01-03T11:42:08Z</time>
      </trkpt>
      <trkpt lat="46.21346" lon="6.78817">
        <ele>1894</ele>
        <time>2010-01-03T11:42:19Z</time>
      </trkpt>
      <trkpt lat="46.21368" lon="6.78782">
        <ele>1889</ele>
        <time>2010-01-03T11:42:32Z</time>
      </trkpt>
      <trkpt lat="46.21375" lon="6.78756">
        <ele>1889</ele>
        <time>2010-01-03T11:42:40Z</time>
      </trkpt>
      <trkpt lat="46.21386" lon="6.78735">
        <ele>1889</ele>
        <time>2010-01-03T11:42:47Z</time>
      </trkpt>
      <trkpt lat="46.21397" lon="6.78706">
        <ele>1889</ele>
        <time>2010-01-03T11:42:57Z</time>
      </trkpt>
      <trkpt lat="46.21413" lon="6.78682">
        <ele>1891</ele>
        <time>2010-01-03T11:43:06Z</time>
      </trkpt>
      <trkpt lat="46.21443" lon="6.78653">
        <ele>1884</ele>
        <time>2010-01-03T11:43:20Z</time>
      </trkpt>
      <trkpt lat="46.2146" lon="6.78629">
        <ele>1882</ele>
        <time>2010-01-03T11:43:30Z</time>
      </trkpt>
      <trkpt lat="46.21489" lon="6.78593">
        <ele>1884</ele>
        <time>2010-01-03T11:43:45Z</time>
      </trkpt>
      <trkpt lat="46.21508" lon="6.7858">
        <ele>1884</ele>
        <time>2010-01-03T11:43:53Z</time>
      </trkpt>
      <trkpt lat="46.21527" lon="6.78574">
        <ele>1880</ele>
        <time>2010-01-03T11:44:01Z</time>
      </trkpt>
      <trkpt lat="46.21549" lon="6.78553">
        <ele>1877</ele>
        <time>2010-01-03T11:44:12Z</time>
      </trkpt>
      <trkpt lat="46.21558" lon="6.78538">
        <ele>1878</ele>
        <time>2010-01-03T11:44:17Z</time>
      </trkpt>
      <trkpt lat="46.21567" lon="6.78524">
        <ele>1881</ele>
        <time>2010-01-03T11:44:23Z</time>
      </trkpt>
      <trkpt lat="46.21572" lon="6.78509">
        <ele>1883</ele>
        <time>2010-01-03T11:44:27Z</time>
      </trkpt>
      <trkpt lat="46.21577" lon="6.78494">
        <ele>1886</ele>
        <time>2010-01-03T11:44:32Z</time>
      </trkpt>
      <trkpt lat="46.21587" lon="6.7847">
        <ele>1883</ele>
        <time>2010-01-03T11:44:40Z</time>
      </trkpt>
      <trkpt lat="46.21596" lon="6.78455">
        <ele>1883</ele>
        <time>2010-01-03T11:44:45Z</time>
      </trkpt>
      <trkpt lat="46.21597" lon="6.78454">
        <ele>1883</ele>
        <time>2010-01-03T11:44:45Z</time>
      </trkpt>
      <trkpt lat="46.21604" lon="6.78444">
        <ele>1883</ele>
        <time>2010-01-03T11:44:49Z</time>
      </trkpt>
      <trkpt lat="46.21617" lon="6.78416">
        <ele>1891</ele>
        <time>2010-01-03T11:44:59Z</time>
      </trkpt>
      <trkpt lat="46.21618" lon="6.78415">
        <ele>1891</ele>
        <time>2010-01-03T11:44:59Z</time>
      </trkpt>
      <trkpt lat="46.21618" lon="6.78414">
        <ele>1891</ele>
        <time>2010-01-03T11:45:00Z</time>
      </trkpt>
      <trkpt lat="46.21621" lon="6.78401">
        <ele>1892</ele>
        <time>2010-01-03T11:45:03Z</time>
      </trkpt>
      <trkpt lat="46.21621" lon="6.78399">
        <ele>1892</ele>
        <time>2010-01-03T11:45:04Z</time>
      </trkpt>
      <trkpt lat="46.21629" lon="6.78365">
        <ele>1893</ele>
        <time>2010-01-03T11:45:14Z</time>
      </trkpt>
      <trkpt lat="46.21636" lon="6.78319">
        <ele>1896</ele>
        <time>2010-01-03T11:45:27Z</time>
      </trkpt>
      <trkpt lat="46.21637" lon="6.78254">
        <ele>1897</ele>
        <time>2010-01-03T11:45:45Z</time>
      </trkpt>
      <trkpt lat="46.21637" lon="6.78228">
        <ele>1894</ele>
        <time>2010-01-03T11:45:52Z</time>
      </trkpt>
      <trkpt lat="46.21638" lon="6.78202">
        <ele>1893</ele>
        <time>2010-01-03T11:45:59Z</time>
      </trkpt>
      <trkpt lat="46.21638" lon="6.78169">
        <ele>1894</ele>
        <time>2010-01-03T11:46:08Z</time>
      </trkpt>
      <trkpt lat="46.21638" lon="6.78147">
        <ele>1888</ele>
        <time>2010-01-03T11:46:15Z</time>
      </trkpt>
      <trkpt lat="46.21644" lon="6.78129">
        <ele>1887</ele>
        <time>2010-01-03T11:46:20Z</time>
      </trkpt>
      <trkpt lat="46.21658" lon="6.78084">
        <ele>1893</ele>
        <time>2010-01-03T11:46:34Z</time>
      </trkpt>
      <trkpt lat="46.21673" lon="6.78049">
        <ele>1896</ele>
        <time>2010-01-03T11:46:45Z</time>
      </trkpt>
      <trkpt lat="46.21695" lon="6.78013">
        <ele>1893</ele>
        <time>2010-01-03T11:46:58Z</time>
      </trkpt>
      <trkpt lat="46.21705" lon="6.78">
        <ele>1879</ele>
        <time>2010-01-03T11:47:04Z</time>
      </trkpt>
      <trkpt lat="46.21723" lon="6.77983">
        <ele>1883</ele>
        <time>2010-01-03T11:47:12Z</time>
      </trkpt>
      <trkpt lat="46.21756" lon="6.77948">
        <ele>1892</ele>
        <time>2010-01-03T11:47:29Z</time>
      </trkpt>
      <trkpt lat="46.21798" lon="6.77907">
        <ele>1875</ele>
        <time>2010-01-03T11:47:49Z</time>
      </trkpt>
      <trkpt lat="46.21829" lon="6.77878">
        <ele>1874</ele>
        <time>2010-01-03T11:48:04Z</time>
      </trkpt>
      <trkpt lat="46.21848" lon="6.77861">
        <ele>1875</ele>
        <time>2010-01-03T11:48:13Z</time>
      </trkpt>
      <trkpt lat="46.21863" lon="6.77841">
        <ele>1873</ele>
        <time>2010-01-03T11:48:21Z</time>
      </trkpt>
      <trkpt lat="46.21864" lon="6.77841">
        <ele>1873</ele>
        <time>2010-01-03T11:48:21Z</time>
      </trkpt>
      <trkpt lat="46.21879" lon="6.7783">
        <ele>1862</ele>
        <time>2010-01-03T11:48:28Z</time>
      </trkpt>
      <trkpt lat="46.21882" lon="6.77827">
        <ele>1862</ele>
        <time>2010-01-03T11:48:30Z</time>
      </trkpt>
      <trkpt lat="46.21889" lon="6.77824">
        <ele>1862</ele>
        <time>2010-01-03T11:48:32Z</time>
      </trkpt>
      <trkpt lat="46.21898" lon="6.77816">
        <ele>1862</ele>
        <time>2010-01-03T11:48:37Z</time>
      </trkpt>
      <trkpt lat="46.21912" lon="6.77799">
        <ele>1862</ele>
        <time>2010-01-03T11:48:44Z</time>
      </trkpt>
      <trkpt lat="46.21917" lon="6.77792">
        <ele>1853</ele>
        <time>2010-01-03T11:48:47Z</time>
      </trkpt>
      <trkpt lat="46.2192" lon="6.77796">
        <ele>1853</ele>
        <time>2010-01-03T11:48:48Z</time>
      </trkpt>
      <trkpt lat="46.21915" lon="6.77809">
        <ele>1862</ele>
        <time>2010-01-03T11:48:52Z</time>
      </trkpt>
      <trkpt lat="46.21915" lon="6.77819">
        <ele>1863</ele>
        <time>2010-01-03T11:48:55Z</time>
      </trkpt>
      <trkpt lat="46.21917" lon="6.77828">
        <ele>1861</ele>
        <time>2010-01-03T11:48:58Z</time>
      </trkpt>
      <trkpt lat="46.21918" lon="6.77836">
        <ele>1863</ele>
        <time>2010-01-03T11:49:00Z</time>
      </trkpt>
      <trkpt lat="46.21921" lon="6.77848">
        <ele>1859</ele>
        <time>2010-01-03T11:49:03Z</time>
      </trkpt>
      <trkpt lat="46.21923" lon="6.77857">
        <ele>1858</ele>
        <time>2010-01-03T11:49:06Z</time>
      </trkpt>
      <trkpt lat="46.21925" lon="6.77865">
        <ele>1857</ele>
        <time>2010-01-03T11:49:08Z</time>
      </trkpt>
      <trkpt lat="46.21927" lon="6.77876">
        <ele>1858</ele>
        <time>2010-01-03T11:49:12Z</time>
      </trkpt>
      <trkpt lat="46.21929" lon="6.77881">
        <ele>1858</ele>
        <time>2010-01-03T11:49:14Z</time>
      </trkpt>
      <trkpt lat="46.21932" lon="6.77887">
        <ele>1859</ele>
        <time>2010-01-03T11:49:15Z</time>
      </trkpt>
      <trkpt lat="46.21934" lon="6.77891">
        <ele>1859</ele>
        <time>2010-01-03T11:49:17Z</time>
      </trkpt>
      <trkpt lat="46.21938" lon="6.77894">
        <ele>1859</ele>
        <time>2010-01-03T11:49:19Z</time>
      </trkpt>
      <trkpt lat="46.21937" lon="6.77889">
        <ele>1858</ele>
        <time>2010-01-03T11:49:20Z</time>
      </trkpt>
      <trkpt lat="46.21937" lon="6.7788">
        <ele>1857</ele>
        <time>2010-01-03T11:49:22Z</time>
      </trkpt>
      <trkpt lat="46.21934" lon="6.7787">
        <ele>1856</ele>
        <time>2010-01-03T11:49:26Z</time>
      </trkpt>
      <trkpt lat="46.21936" lon="6.77865">
        <ele>1855</ele>
        <time>2010-01-03T11:49:27Z</time>
      </trkpt>
      <trkpt lat="46.21938" lon="6.77865">
        <ele>1855</ele>
        <time>2010-01-03T11:49:28Z</time>
      </trkpt>
      <trkpt lat="46.21946" lon="6.77881">
        <ele>1854</ele>
        <time>2010-01-03T11:49:33Z</time>
      </trkpt>
      <trkpt lat="46.21953" lon="6.7789">
        <ele>1853</ele>
        <time>2010-01-03T11:49:37Z</time>
      </trkpt>
      <trkpt lat="46.21964" lon="6.77907">
        <ele>1850</ele>
        <time>2010-01-03T11:49:43Z</time>
      </trkpt>
      <trkpt lat="46.21968" lon="6.77916">
        <ele>1849</ele>
        <time>2010-01-03T11:49:46Z</time>
      </trkpt>
      <trkpt lat="46.21972" lon="6.77926">
        <ele>1852</ele>
        <time>2010-01-03T11:49:50Z</time>
      </trkpt>
      <trkpt lat="46.21972" lon="6.77927">
        <ele>1852</ele>
        <time>2010-01-03T11:49:50Z</time>
      </trkpt>
      <trkpt lat="46.21978" lon="6.77946">
        <ele>1852</ele>
        <time>2010-01-03T11:49:56Z</time>
      </trkpt>
      <trkpt lat="46.21986" lon="6.77973">
        <ele>1851</ele>
        <time>2010-01-03T11:50:04Z</time>
      </trkpt>
      <trkpt lat="46.21988" lon="6.77979">
        <ele>1849</ele>
        <time>2010-01-03T11:50:06Z</time>
      </trkpt>
      <trkpt lat="46.21991" lon="6.77986">
        <ele>1846</ele>
        <time>2010-01-03T11:50:08Z</time>
      </trkpt>
      <trkpt lat="46.21994" lon="6.77984">
        <ele>1846</ele>
        <time>2010-01-03T11:50:09Z</time>
      </trkpt>
      <trkpt lat="46.21993" lon="6.77975">
        <ele>1849</ele>
        <time>2010-01-03T11:50:12Z</time>
      </trkpt>
      <trkpt lat="46.21992" lon="6.77962">
        <ele>1850</ele>
        <time>2010-01-03T11:50:15Z</time>
      </trkpt>
      <trkpt lat="46.21994" lon="6.77944">
        <ele>1848</ele>
        <time>2010-01-03T11:50:21Z</time>
      </trkpt>
      <trkpt lat="46.21991" lon="6.77929">
        <ele>1844</ele>
        <time>2010-01-03T11:50:25Z</time>
      </trkpt>
      <trkpt lat="46.21987" lon="6.77911">
        <ele>1841</ele>
        <time>2010-01-03T11:50:30Z</time>
      </trkpt>
      <trkpt lat="46.21981" lon="6.77892">
        <ele>1845</ele>
        <time>2010-01-03T11:50:36Z</time>
      </trkpt>
      <trkpt lat="46.2198" lon="6.7788">
        <ele>1845</ele>
        <time>2010-01-03T11:50:39Z</time>
      </trkpt>
      <trkpt lat="46.21982" lon="6.77873">
        <ele>1844</ele>
        <time>2010-01-03T11:50:41Z</time>
      </trkpt>
      <trkpt lat="46.21987" lon="6.77882">
        <ele>1844</ele>
        <time>2010-01-03T11:50:44Z</time>
      </trkpt>
      <trkpt lat="46.21993" lon="6.7789">
        <ele>1843</ele>
        <time>2010-01-03T11:50:48Z</time>
      </trkpt>
      <trkpt lat="46.21997" lon="6.77891">
        <ele>1842</ele>
        <time>2010-01-03T11:50:49Z</time>
      </trkpt>
      <trkpt lat="46.22" lon="6.77888">
        <ele>1842</ele>
        <time>2010-01-03T11:50:51Z</time>
      </trkpt>
      <trkpt lat="46.22002" lon="6.77883">
        <ele>1817</ele>
        <time>2010-01-03T11:50:52Z</time>
      </trkpt>
      <trkpt lat="46.21996" lon="6.77867">
        <ele>1841</ele>
        <time>2010-01-03T11:50:57Z</time>
      </trkpt>
      <trkpt lat="46.21995" lon="6.77865">
        <ele>1841</ele>
        <time>2010-01-03T11:50:58Z</time>
      </trkpt>
      <trkpt lat="46.21989" lon="6.77854">
        <ele>1839</ele>
        <time>2010-01-03T11:51:02Z</time>
      </trkpt>
      <trkpt lat="46.21988" lon="6.77842">
        <ele>1836</ele>
        <time>2010-01-03T11:51:05Z</time>
      </trkpt>
      <trkpt lat="46.21991" lon="6.7784">
        <ele>1833</ele>
        <time>2010-01-03T11:51:06Z</time>
      </trkpt>
      <trkpt lat="46.22" lon="6.77851">
        <ele>1836</ele>
        <time>2010-01-03T11:51:11Z</time>
      </trkpt>
      <trkpt lat="46.22006" lon="6.77856">
        <ele>1816</ele>
        <time>2010-01-03T11:51:14Z</time>
      </trkpt>
      <trkpt lat="46.22013" lon="6.77863">
        <ele>1814</ele>
        <time>2010-01-03T11:51:17Z</time>
      </trkpt>
      <trkpt lat="46.22017" lon="6.77862">
        <ele>1814</ele>
        <time>2010-01-03T11:51:19Z</time>
      </trkpt>
      <trkpt lat="46.22023" lon="6.77873">
        <ele>1813</ele>
        <time>2010-01-03T11:51:23Z</time>
      </trkpt>
      <trkpt lat="46.22029" lon="6.77895">
        <ele>1813</ele>
        <time>2010-01-03T11:51:29Z</time>
      </trkpt>
      <trkpt lat="46.22035" lon="6.7791">
        <ele>1812</ele>
        <time>2010-01-03T11:51:34Z</time>
      </trkpt>
      <trkpt lat="46.22054" lon="6.77932">
        <ele>1807</ele>
        <time>2010-01-03T11:51:44Z</time>
      </trkpt>
      <trkpt lat="46.22059" lon="6.77944">
        <ele>1806</ele>
        <time>2010-01-03T11:51:48Z</time>
      </trkpt>
      <trkpt lat="46.22061" lon="6.77954">
        <ele>1806</ele>
        <time>2010-01-03T11:51:50Z</time>
      </trkpt>
      <trkpt lat="46.22061" lon="6.77966">
        <ele>1805</ele>
        <time>2010-01-03T11:51:54Z</time>
      </trkpt>
      <trkpt lat="46.22057" lon="6.77977">
        <ele>1805</ele>
        <time>2010-01-03T11:51:57Z</time>
      </trkpt>
      <trkpt lat="46.2205" lon="6.77985">
        <ele>1807</ele>
        <time>2010-01-03T11:52:01Z</time>
      </trkpt>
      <trkpt lat="46.22042" lon="6.77994">
        <ele>1810</ele>
        <time>2010-01-03T11:52:05Z</time>
      </trkpt>
      <trkpt lat="46.22032" lon="6.77999">
        <ele>1814</ele>
        <time>2010-01-03T11:52:09Z</time>
      </trkpt>
      <trkpt lat="46.22026" lon="6.78017">
        <ele>1812</ele>
        <time>2010-01-03T11:52:15Z</time>
      </trkpt>
      <trkpt lat="46.22023" lon="6.78031">
        <ele>1811</ele>
        <time>2010-01-03T11:52:19Z</time>
      </trkpt>
      <trkpt lat="46.22019" lon="6.78044">
        <ele>1810</ele>
        <time>2010-01-03T11:52:23Z</time>
      </trkpt>
      <trkpt lat="46.22019" lon="6.7805">
        <ele>1810</ele>
        <time>2010-01-03T11:52:24Z</time>
      </trkpt>
      <trkpt lat="46.22018" lon="6.78059">
        <ele>1811</ele>
        <time>2010-01-03T11:52:27Z</time>
      </trkpt>
      <trkpt lat="46.22018" lon="6.78083">
        <ele>1813</ele>
        <time>2010-01-03T11:52:33Z</time>
      </trkpt>
      <trkpt lat="46.2202" lon="6.78096">
        <ele>1808</ele>
        <time>2010-01-03T11:52:37Z</time>
      </trkpt>
      <trkpt lat="46.22024" lon="6.78113">
        <ele>1804</ele>
        <time>2010-01-03T11:52:42Z</time>
      </trkpt>
      <trkpt lat="46.22037" lon="6.7816">
        <ele>1799</ele>
        <time>2010-01-03T11:52:56Z</time>
      </trkpt>
      <trkpt lat="46.2204" lon="6.78173">
        <ele>1796</ele>
        <time>2010-01-03T11:53:00Z</time>
      </trkpt>
      <trkpt lat="46.2204" lon="6.78182">
        <ele>1795</ele>
        <time>2010-01-03T11:53:02Z</time>
      </trkpt>
      <trkpt lat="46.2204" lon="6.78201">
        <ele>1795</ele>
        <time>2010-01-03T11:53:08Z</time>
      </trkpt>
      <trkpt lat="46.22033" lon="6.78255">
        <ele>1791</ele>
        <time>2010-01-03T11:53:23Z</time>
      </trkpt>
      <trkpt lat="46.22031" lon="6.78273">
        <ele>1790</ele>
        <time>2010-01-03T11:53:28Z</time>
      </trkpt>
      <trkpt lat="46.22027" lon="6.78292">
        <ele>1787</ele>
        <time>2010-01-03T11:53:33Z</time>
      </trkpt>
      <trkpt lat="46.22018" lon="6.78308">
        <ele>1787</ele>
        <time>2010-01-03T11:53:39Z</time>
      </trkpt>
      <trkpt lat="46.22006" lon="6.78321">
        <ele>1789</ele>
        <time>2010-01-03T11:53:45Z</time>
      </trkpt>
      <trkpt lat="46.21992" lon="6.78331">
        <ele>1800</ele>
        <time>2010-01-03T11:53:51Z</time>
      </trkpt>
      <trkpt lat="46.21982" lon="6.78333">
        <ele>1794</ele>
        <time>2010-01-03T11:53:56Z</time>
      </trkpt>
      <trkpt lat="46.2197" lon="6.78346">
        <ele>1795</ele>
        <time>2010-01-03T11:54:01Z</time>
      </trkpt>
      <trkpt lat="46.21964" lon="6.7836">
        <ele>1795</ele>
        <time>2010-01-03T11:54:06Z</time>
      </trkpt>
      <trkpt lat="46.21964" lon="6.78361">
        <ele>1795</ele>
        <time>2010-01-03T11:54:06Z</time>
      </trkpt>
      <trkpt lat="46.21958" lon="6.78374">
        <ele>1794</ele>
        <time>2010-01-03T11:54:11Z</time>
      </trkpt>
      <trkpt lat="46.2195" lon="6.78387">
        <ele>1793</ele>
        <time>2010-01-03T11:54:16Z</time>
      </trkpt>
      <trkpt lat="46.21949" lon="6.78395">
        <ele>1792</ele>
        <time>2010-01-03T11:54:18Z</time>
      </trkpt>
      <trkpt lat="46.21949" lon="6.78399">
        <ele>1792</ele>
        <time>2010-01-03T11:54:19Z</time>
      </trkpt>
      <trkpt lat="46.21951" lon="6.784">
        <ele>1791</ele>
        <time>2010-01-03T11:54:20Z</time>
      </trkpt>
      <trkpt lat="46.21956" lon="6.78397">
        <ele>1791</ele>
        <time>2010-01-03T11:54:22Z</time>
      </trkpt>
      <trkpt lat="46.21965" lon="6.78391">
        <ele>1790</ele>
        <time>2010-01-03T11:54:26Z</time>
      </trkpt>
      <trkpt lat="46.21977" lon="6.78386">
        <ele>1789</ele>
        <time>2010-01-03T11:54:31Z</time>
      </trkpt>
      <trkpt lat="46.21984" lon="6.78385">
        <ele>1787</ele>
        <time>2010-01-03T11:54:34Z</time>
      </trkpt>
      <trkpt lat="46.21989" lon="6.78379">
        <ele>1788</ele>
        <time>2010-01-03T11:54:36Z</time>
      </trkpt>
      <trkpt lat="46.21994" lon="6.78368">
        <ele>1790</ele>
        <time>2010-01-03T11:54:40Z</time>
      </trkpt>
      <trkpt lat="46.22004" lon="6.78366">
        <ele>1770</ele>
        <time>2010-01-03T11:54:44Z</time>
      </trkpt>
      <trkpt lat="46.2202" lon="6.78362">
        <ele>1769</ele>
        <time>2010-01-03T11:54:50Z</time>
      </trkpt>
      <trkpt lat="46.22028" lon="6.78362">
        <ele>1767</ele>
        <time>2010-01-03T11:54:54Z</time>
      </trkpt>
      <trkpt lat="46.22041" lon="6.78347">
        <ele>1765</ele>
        <time>2010-01-03T11:55:00Z</time>
      </trkpt>
      <trkpt lat="46.22046" lon="6.78329">
        <ele>1780</ele>
        <time>2010-01-03T11:55:06Z</time>
      </trkpt>
      <trkpt lat="46.22049" lon="6.78341">
        <ele>1764</ele>
        <time>2010-01-03T11:55:09Z</time>
      </trkpt>
      <trkpt lat="46.22051" lon="6.78353">
        <ele>1762</ele>
        <time>2010-01-03T11:55:13Z</time>
      </trkpt>
      <trkpt lat="46.22054" lon="6.78356">
        <ele>1761</ele>
        <time>2010-01-03T11:55:14Z</time>
      </trkpt>
      <trkpt lat="46.22056" lon="6.78351">
        <ele>1761</ele>
        <time>2010-01-03T11:55:16Z</time>
      </trkpt>
      <trkpt lat="46.22057" lon="6.78341">
        <ele>1762</ele>
        <time>2010-01-03T11:55:18Z</time>
      </trkpt>
      <trkpt lat="46.22062" lon="6.78326">
        <ele>1774</ele>
        <time>2010-01-03T11:55:23Z</time>
      </trkpt>
      <trkpt lat="46.22065" lon="6.78315">
        <ele>1775</ele>
        <time>2010-01-03T11:55:26Z</time>
      </trkpt>
      <trkpt lat="46.2207" lon="6.78316">
        <ele>1773</ele>
        <time>2010-01-03T11:55:28Z</time>
      </trkpt>
      <trkpt lat="46.22067" lon="6.78327">
        <ele>1771</ele>
        <time>2010-01-03T11:55:31Z</time>
      </trkpt>
      <trkpt lat="46.22067" lon="6.78351">
        <ele>1760</ele>
        <time>2010-01-03T11:55:38Z</time>
      </trkpt>
      <trkpt lat="46.22063" lon="6.78368">
        <ele>1758</ele>
        <time>2010-01-03T11:55:43Z</time>
      </trkpt>
      <trkpt lat="46.22055" lon="6.78385">
        <ele>1756</ele>
        <time>2010-01-03T11:55:49Z</time>
      </trkpt>
      <trkpt lat="46.22048" lon="6.78397">
        <ele>1756</ele>
        <time>2010-01-03T11:55:53Z</time>
      </trkpt>
      <trkpt lat="46.22039" lon="6.78413">
        <ele>1757</ele>
        <time>2010-01-03T11:55:59Z</time>
      </trkpt>
      <trkpt lat="46.2203" lon="6.78427">
        <ele>1741</ele>
        <time>2010-01-03T11:56:04Z</time>
      </trkpt>
      <trkpt lat="46.22023" lon="6.78443">
        <ele>1740</ele>
        <time>2010-01-03T11:56:09Z</time>
      </trkpt>
      <trkpt lat="46.22022" lon="6.78455">
        <ele>1737</ele>
        <time>2010-01-03T11:56:13Z</time>
      </trkpt>
      <trkpt lat="46.22016" lon="6.78481">
        <ele>1733</ele>
        <time>2010-01-03T11:56:20Z</time>
      </trkpt>
      <trkpt lat="46.22005" lon="6.78494">
        <ele>1733</ele>
        <time>2010-01-03T11:56:26Z</time>
      </trkpt>
      <trkpt lat="46.21997" lon="6.78504">
        <ele>1733</ele>
        <time>2010-01-03T11:56:30Z</time>
      </trkpt>
      <trkpt lat="46.21986" lon="6.78508">
        <ele>1733</ele>
        <time>2010-01-03T11:56:34Z</time>
      </trkpt>
      <trkpt lat="46.2198" lon="6.78508">
        <ele>1733</ele>
        <time>2010-01-03T11:56:37Z</time>
      </trkpt>
      <trkpt lat="46.21976" lon="6.78509">
        <ele>1733</ele>
        <time>2010-01-03T11:56:39Z</time>
      </trkpt>
      <trkpt lat="46.21968" lon="6.78514">
        <ele>1733</ele>
        <time>2010-01-03T11:56:42Z</time>
      </trkpt>
      <trkpt lat="46.21963" lon="6.78522">
        <ele>1733</ele>
        <time>2010-01-03T11:56:45Z</time>
      </trkpt>
      <trkpt lat="46.21959" lon="6.78526">
        <ele>1733</ele>
        <time>2010-01-03T11:56:47Z</time>
      </trkpt>
      <trkpt lat="46.21948" lon="6.78531">
        <ele>1734</ele>
        <time>2010-01-03T11:56:51Z</time>
      </trkpt>
      <trkpt lat="46.21939" lon="6.78538">
        <ele>1733</ele>
        <time>2010-01-03T11:56:56Z</time>
      </trkpt>
      <trkpt lat="46.21913" lon="6.78543">
        <ele>1751</ele>
        <time>2010-01-03T11:57:06Z</time>
      </trkpt>
      <trkpt lat="46.21898" lon="6.78548">
        <ele>1752</ele>
        <time>2010-01-03T11:57:12Z</time>
      </trkpt>
      <trkpt lat="46.21881" lon="6.78561">
        <ele>1753</ele>
        <time>2010-01-03T11:57:20Z</time>
      </trkpt>
      <trkpt lat="46.21877" lon="6.78572">
        <ele>1752</ele>
        <time>2010-01-03T11:57:23Z</time>
      </trkpt>
      <trkpt lat="46.21873" lon="6.78581">
        <ele>1752</ele>
        <time>2010-01-03T11:57:26Z</time>
      </trkpt>
      <trkpt lat="46.21868" lon="6.78595">
        <ele>1733</ele>
        <time>2010-01-03T11:57:31Z</time>
      </trkpt>
      <trkpt lat="46.21854" lon="6.78605">
        <ele>1735</ele>
        <time>2010-01-03T11:57:37Z</time>
      </trkpt>
      <trkpt lat="46.21844" lon="6.78612">
        <ele>1735</ele>
        <time>2010-01-03T11:57:41Z</time>
      </trkpt>
      <trkpt lat="46.21837" lon="6.7862">
        <ele>1733</ele>
        <time>2010-01-03T11:57:45Z</time>
      </trkpt>
      <trkpt lat="46.21834" lon="6.78628">
        <ele>1731</ele>
        <time>2010-01-03T11:57:48Z</time>
      </trkpt>
      <trkpt lat="46.21839" lon="6.78642">
        <ele>1728</ele>
        <time>2010-01-03T11:57:52Z</time>
      </trkpt>
      <trkpt lat="46.21838" lon="6.78652">
        <ele>1726</ele>
        <time>2010-01-03T11:57:55Z</time>
      </trkpt>
      <trkpt lat="46.2183" lon="6.78664">
        <ele>1731</ele>
        <time>2010-01-03T11:57:59Z</time>
      </trkpt>
      <trkpt lat="46.21824" lon="6.78676">
        <ele>1727</ele>
        <time>2010-01-03T11:58:03Z</time>
      </trkpt>
      <trkpt lat="46.21817" lon="6.78685">
        <ele>1728</ele>
        <time>2010-01-03T11:58:07Z</time>
      </trkpt>
      <trkpt lat="46.21811" lon="6.787">
        <ele>1727</ele>
        <time>2010-01-03T11:58:12Z</time>
      </trkpt>
      <trkpt lat="46.21809" lon="6.78713">
        <ele>1726</ele>
        <time>2010-01-03T11:58:15Z</time>
      </trkpt>
      <trkpt lat="46.21802" lon="6.78719">
        <ele>1726</ele>
        <time>2010-01-03T11:58:19Z</time>
      </trkpt>
      <trkpt lat="46.21792" lon="6.78726">
        <ele>1727</ele>
        <time>2010-01-03T11:58:23Z</time>
      </trkpt>
      <trkpt lat="46.21786" lon="6.78731">
        <ele>1727</ele>
        <time>2010-01-03T11:58:26Z</time>
      </trkpt>
      <trkpt lat="46.21782" lon="6.78743">
        <ele>1727</ele>
        <time>2010-01-03T11:58:30Z</time>
      </trkpt>
      <trkpt lat="46.21778" lon="6.78762">
        <ele>1715</ele>
        <time>2010-01-03T11:58:35Z</time>
      </trkpt>
      <trkpt lat="46.21773" lon="6.78777">
        <ele>1713</ele>
        <time>2010-01-03T11:58:40Z</time>
      </trkpt>
      <trkpt lat="46.21764" lon="6.78785">
        <ele>1714</ele>
        <time>2010-01-03T11:58:44Z</time>
      </trkpt>
      <trkpt lat="46.21757" lon="6.78788">
        <ele>1714</ele>
        <time>2010-01-03T11:58:47Z</time>
      </trkpt>
      <trkpt lat="46.21747" lon="6.78793">
        <ele>1732</ele>
        <time>2010-01-03T11:58:51Z</time>
      </trkpt>
      <trkpt lat="46.21743" lon="6.78804">
        <ele>1730</ele>
        <time>2010-01-03T11:58:54Z</time>
      </trkpt>
      <trkpt lat="46.21744" lon="6.7881">
        <ele>1728</ele>
        <time>2010-01-03T11:58:56Z</time>
      </trkpt>
      <trkpt lat="46.21743" lon="6.78819">
        <ele>1725</ele>
        <time>2010-01-03T11:58:59Z</time>
      </trkpt>
      <trkpt lat="46.21742" lon="6.78829">
        <ele>1720</ele>
        <time>2010-01-03T11:59:01Z</time>
      </trkpt>
      <trkpt lat="46.21742" lon="6.78841">
        <ele>1717</ele>
        <time>2010-01-03T11:59:05Z</time>
      </trkpt>
      <trkpt lat="46.21741" lon="6.78853">
        <ele>1718</ele>
        <time>2010-01-03T11:59:08Z</time>
      </trkpt>
      <trkpt lat="46.21738" lon="6.78865">
        <ele>1719</ele>
        <time>2010-01-03T11:59:12Z</time>
      </trkpt>
      <trkpt lat="46.2173" lon="6.78872">
        <ele>1720</ele>
        <time>2010-01-03T11:59:15Z</time>
      </trkpt>
      <trkpt lat="46.2173" lon="6.78873">
        <ele>1720</ele>
        <time>2010-01-03T11:59:16Z</time>
      </trkpt>
      <trkpt lat="46.21725" lon="6.78878">
        <ele>1720</ele>
        <time>2010-01-03T11:59:18Z</time>
      </trkpt>
      <trkpt lat="46.21722" lon="6.78886">
        <ele>1720</ele>
        <time>2010-01-03T11:59:20Z</time>
      </trkpt>
      <trkpt lat="46.21719" lon="6.78914">
        <ele>1718</ele>
        <time>2010-01-03T11:59:28Z</time>
      </trkpt>
      <trkpt lat="46.21729" lon="6.78928">
        <ele>1710</ele>
        <time>2010-01-03T11:59:34Z</time>
      </trkpt>
      <trkpt lat="46.21737" lon="6.78936">
        <ele>1709</ele>
        <time>2010-01-03T11:59:38Z</time>
      </trkpt>
      <trkpt lat="46.21746" lon="6.78949">
        <ele>1708</ele>
        <time>2010-01-03T11:59:43Z</time>
      </trkpt>
      <trkpt lat="46.21755" lon="6.78962">
        <ele>1692</ele>
        <time>2010-01-03T11:59:48Z</time>
      </trkpt>
      <trkpt lat="46.21762" lon="6.78964">
        <ele>1692</ele>
        <time>2010-01-03T11:59:51Z</time>
      </trkpt>
      <trkpt lat="46.21769" lon="6.78973">
        <ele>1691</ele>
        <time>2010-01-03T11:59:55Z</time>
      </trkpt>
      <trkpt lat="46.21775" lon="6.78986">
        <ele>1690</ele>
        <time>2010-01-03T11:59:59Z</time>
      </trkpt>
      <trkpt lat="46.21777" lon="6.78998">
        <ele>1690</ele>
        <time>2010-01-03T12:00:02Z</time>
      </trkpt>
      <trkpt lat="46.21772" lon="6.79007">
        <ele>1687</ele>
        <time>2010-01-03T12:00:06Z</time>
      </trkpt>
      <trkpt lat="46.21768" lon="6.79013">
        <ele>1687</ele>
        <time>2010-01-03T12:00:08Z</time>
      </trkpt>
      <trkpt lat="46.21768" lon="6.79013">
        <ele>1687</ele>
        <time>2010-01-03T12:00:08Z</time>
      </trkpt>
      <trkpt lat="46.21764" lon="6.79017">
        <ele>1687</ele>
        <time>2010-01-03T12:00:10Z</time>
      </trkpt>
      <trkpt lat="46.21764" lon="6.79018">
        <ele>1687</ele>
        <time>2010-01-03T12:00:10Z</time>
      </trkpt>
      <trkpt lat="46.21761" lon="6.79025">
        <ele>1686</ele>
        <time>2010-01-03T12:00:13Z</time>
      </trkpt>
      <trkpt lat="46.21761" lon="6.79035">
        <ele>1685</ele>
        <time>2010-01-03T12:00:15Z</time>
      </trkpt>
      <trkpt lat="46.21756" lon="6.79052">
        <ele>1684</ele>
        <time>2010-01-03T12:00:20Z</time>
      </trkpt>
      <trkpt lat="46.21747" lon="6.79075">
        <ele>1691</ele>
        <time>2010-01-03T12:00:28Z</time>
      </trkpt>
      <trkpt lat="46.21729" lon="6.79076">
        <ele>1695</ele>
        <time>2010-01-03T12:00:35Z</time>
      </trkpt>
      <trkpt lat="46.21724" lon="6.7908">
        <ele>1696</ele>
        <time>2010-01-03T12:00:37Z</time>
      </trkpt>
      <trkpt lat="46.21708" lon="6.79124">
        <ele>1685</ele>
        <time>2010-01-03T12:00:51Z</time>
      </trkpt>
      <trkpt lat="46.21705" lon="6.79145">
        <ele>1683</ele>
        <time>2010-01-03T12:00:57Z</time>
      </trkpt>
      <trkpt lat="46.21689" lon="6.79179">
        <ele>1671</ele>
        <time>2010-01-03T12:01:08Z</time>
      </trkpt>
      <trkpt lat="46.21679" lon="6.79213">
        <ele>1666</ele>
        <time>2010-01-03T12:01:18Z</time>
      </trkpt>
      <trkpt lat="46.21677" lon="6.79216">
        <ele>1666</ele>
        <time>2010-01-03T12:01:20Z</time>
      </trkpt>
      <trkpt lat="46.21662" lon="6.79247">
        <ele>1670</ele>
        <time>2010-01-03T12:01:30Z</time>
      </trkpt>
      <trkpt lat="46.21656" lon="6.79273">
        <ele>1670</ele>
        <time>2010-01-03T12:01:38Z</time>
      </trkpt>
      <trkpt lat="46.21658" lon="6.79312">
        <ele>1665</ele>
        <time>2010-01-03T12:01:49Z</time>
      </trkpt>
      <trkpt lat="46.2167" lon="6.79323">
        <ele>1652</ele>
        <time>2010-01-03T12:01:54Z</time>
      </trkpt>
      <trkpt lat="46.21683" lon="6.79331">
        <ele>1652</ele>
        <time>2010-01-03T12:02:00Z</time>
      </trkpt>
      <trkpt lat="46.21695" lon="6.79337">
        <ele>1649</ele>
        <time>2010-01-03T12:02:05Z</time>
      </trkpt>
      <trkpt lat="46.21703" lon="6.79338">
        <ele>1649</ele>
        <time>2010-01-03T12:02:08Z</time>
      </trkpt>
      <trkpt lat="46.21712" lon="6.79327">
        <ele>1650</ele>
        <time>2010-01-03T12:02:13Z</time>
      </trkpt>
      <trkpt lat="46.21727" lon="6.79309">
        <ele>1649</ele>
        <time>2010-01-03T12:02:21Z</time>
      </trkpt>
      <trkpt lat="46.21744" lon="6.79304">
        <ele>1649</ele>
        <time>2010-01-03T12:02:28Z</time>
      </trkpt>
      <trkpt lat="46.21759" lon="6.79301">
        <ele>1643</ele>
        <time>2010-01-03T12:02:34Z</time>
      </trkpt>
      <trkpt lat="46.21782" lon="6.793">
        <ele>1642</ele>
        <time>2010-01-03T12:02:43Z</time>
      </trkpt>
      <trkpt lat="46.21795" lon="6.79338">
        <ele>1639</ele>
        <time>2010-01-03T12:02:55Z</time>
      </trkpt>
      <trkpt lat="46.21818" lon="6.79389">
        <ele>1637</ele>
        <time>2010-01-03T12:03:12Z</time>
      </trkpt>
      <trkpt lat="46.21825" lon="6.79444">
        <ele>1639</ele>
        <time>2010-01-03T12:03:27Z</time>
      </trkpt>
      <trkpt lat="46.21836" lon="6.79522">
        <ele>1634</ele>
        <time>2010-01-03T12:03:49Z</time>
      </trkpt>
      <trkpt lat="46.21845" lon="6.79569">
        <ele>1641</ele>
        <time>2010-01-03T12:04:03Z</time>
      </trkpt>
      <trkpt lat="46.2188" lon="6.79604">
        <ele>1653</ele>
        <time>2010-01-03T12:04:20Z</time>
      </trkpt>
      <trkpt lat="46.21925" lon="6.79637">
        <ele>1649</ele>
        <time>2010-01-03T12:04:40Z</time>
      </trkpt>
      <trkpt lat="46.21964" lon="6.79661">
        <ele>1650</ele>
        <time>2010-01-03T12:04:57Z</time>
      </trkpt>
      <trkpt lat="46.21997" lon="6.79668">
        <ele>1661</ele>
        <time>2010-01-03T12:05:10Z</time>
      </trkpt>
      <trkpt lat="46.22047" lon="6.79668">
        <ele>1672</ele>
        <time>2010-01-03T12:05:30Z</time>
      </trkpt>
      <trkpt lat="46.22093" lon="6.79675">
        <ele>1673</ele>
        <time>2010-01-03T12:05:49Z</time>
      </trkpt>
      <trkpt lat="46.22174" lon="6.79678">
        <ele>1685</ele>
        <time>2010-01-03T12:06:21Z</time>
      </trkpt>
      <trkpt lat="46.22218" lon="6.79676">
        <ele>1688</ele>
        <time>2010-01-03T12:06:39Z</time>
      </trkpt>
      <trkpt lat="46.22256" lon="6.79695">
        <ele>1688</ele>
        <time>2010-01-03T12:06:55Z</time>
      </trkpt>
      <trkpt lat="46.22288" lon="6.79703">
        <ele>1690</ele>
        <time>2010-01-03T12:07:08Z</time>
      </trkpt>
      <trkpt lat="46.22314" lon="6.79704">
        <ele>1688</ele>
        <time>2010-01-03T12:07:18Z</time>
      </trkpt>
      <trkpt lat="46.22354" lon="6.79722">
        <ele>1687</ele>
        <time>2010-01-03T12:07:35Z</time>
      </trkpt>
      <trkpt lat="46.22406" lon="6.7973">
        <ele>1690</ele>
        <time>2010-01-03T12:07:56Z</time>
      </trkpt>
      <trkpt lat="46.22419" lon="6.79732">
        <ele>1692</ele>
        <time>2010-01-03T12:08:01Z</time>
      </trkpt>
      <trkpt lat="46.22441" lon="6.79754">
        <ele>1707</ele>
        <time>2010-01-03T12:08:12Z</time>
      </trkpt>
      <trkpt lat="46.22466" lon="6.79749">
        <ele>1693</ele>
        <time>2010-01-03T12:08:22Z</time>
      </trkpt>
      <trkpt lat="46.22487" lon="6.79737">
        <ele>1695</ele>
        <time>2010-01-03T12:08:31Z</time>
      </trkpt>
      <trkpt lat="46.2251" lon="6.79751">
        <ele>1702</ele>
        <time>2010-01-03T12:08:41Z</time>
      </trkpt>
      <trkpt lat="46.22521" lon="6.79785">
        <ele>1702</ele>
        <time>2010-01-03T12:08:51Z</time>
      </trkpt>
      <trkpt lat="46.22544" lon="6.79808">
        <ele>1700</ele>
        <time>2010-01-03T12:09:02Z</time>
      </trkpt>
      <trkpt lat="46.22585" lon="6.79844">
        <ele>1691</ele>
        <time>2010-01-03T12:09:21Z</time>
      </trkpt>
      <trkpt lat="46.2263" lon="6.79871">
        <ele>1690</ele>
        <time>2010-01-03T12:09:41Z</time>
      </trkpt>
      <trkpt lat="46.22652" lon="6.7989">
        <ele>1690</ele>
        <time>2010-01-03T12:09:51Z</time>
      </trkpt>
      <trkpt lat="46.22669" lon="6.79883">
        <ele>1678</ele>
        <time>2010-01-03T12:09:58Z</time>
      </trkpt>
      <trkpt lat="46.22671" lon="6.79866">
        <ele>1676</ele>
        <time>2010-01-03T12:10:03Z</time>
      </trkpt>
      <trkpt lat="46.22674" lon="6.79843">
        <ele>1675</ele>
        <time>2010-01-03T12:10:09Z</time>
      </trkpt>
      <trkpt lat="46.22693" lon="6.79888">
        <ele>1676</ele>
        <time>2010-01-03T12:10:24Z</time>
      </trkpt>
      <trkpt lat="46.22718" lon="6.79898">
        <ele>1673</ele>
        <time>2010-01-03T12:10:35Z</time>
      </trkpt>
      <trkpt lat="46.22748" lon="6.79892">
        <ele>1670</ele>
        <time>2010-01-03T12:10:46Z</time>
      </trkpt>
      <trkpt lat="46.22797" lon="6.79877">
        <ele>1658</ele>
        <time>2010-01-03T12:11:07Z</time>
      </trkpt>
      <trkpt lat="46.22844" lon="6.79869">
        <ele>1651</ele>
        <time>2010-01-03T12:11:26Z</time>
      </trkpt>
      <trkpt lat="46.22906" lon="6.79888">
        <ele>1651</ele>
        <time>2010-01-03T12:11:51Z</time>
      </trkpt>
      <trkpt lat="46.22925" lon="6.79878">
        <ele>1654</ele>
        <time>2010-01-03T12:11:59Z</time>
      </trkpt>
      <trkpt lat="46.22971" lon="6.7985">
        <ele>1655</ele>
        <time>2010-01-03T12:12:19Z</time>
      </trkpt>
      <trkpt lat="46.23022" lon="6.79811">
        <ele>1650</ele>
        <time>2010-01-03T12:12:42Z</time>
      </trkpt>
      <trkpt lat="46.23089" lon="6.79821">
        <ele>1651</ele>
        <time>2010-01-03T12:13:09Z</time>
      </trkpt>
      <trkpt lat="46.23151" lon="6.79864">
        <ele>1653</ele>
        <time>2010-01-03T12:13:36Z</time>
      </trkpt>
      <trkpt lat="46.23196" lon="6.79903">
        <ele>1647</ele>
        <time>2010-01-03T12:13:58Z</time>
      </trkpt>
      <trkpt lat="46.23242" lon="6.79955">
        <ele>1649</ele>
        <time>2010-01-03T12:14:21Z</time>
      </trkpt>
      <trkpt lat="46.23267" lon="6.80005">
        <ele>1647</ele>
        <time>2010-01-03T12:14:38Z</time>
      </trkpt>
      <trkpt lat="46.23267" lon="6.80022">
        <ele>1647</ele>
        <time>2010-01-03T12:14:43Z</time>
      </trkpt>
      <trkpt lat="46.23279" lon="6.80049">
        <ele>1647</ele>
        <time>2010-01-03T12:14:52Z</time>
      </trkpt>
      <trkpt lat="46.23302" lon="6.80047">
        <ele>1646</ele>
        <time>2010-01-03T12:15:01Z</time>
      </trkpt>
      <trkpt lat="46.23316" lon="6.80048">
        <ele>1645</ele>
        <time>2010-01-03T12:15:07Z</time>
      </trkpt>
      <trkpt lat="46.23341" lon="6.80049">
        <ele>1641</ele>
        <time>2010-01-03T12:15:17Z</time>
      </trkpt>
      <trkpt lat="46.23345" lon="6.80064">
        <ele>1643</ele>
        <time>2010-01-03T12:15:21Z</time>
      </trkpt>
      <trkpt lat="46.23378" lon="6.80071">
        <ele>1642</ele>
        <time>2010-01-03T12:15:35Z</time>
      </trkpt>
      <trkpt lat="46.23407" lon="6.80073">
        <ele>1644</ele>
        <time>2010-01-03T12:15:46Z</time>
      </trkpt>
      <trkpt lat="46.23445" lon="6.80079">
        <ele>1641</ele>
        <time>2010-01-03T12:16:01Z</time>
      </trkpt>
      <trkpt lat="46.23474" lon="6.80094">
        <ele>1654</ele>
        <time>2010-01-03T12:16:14Z</time>
      </trkpt>
      <trkpt lat="46.23503" lon="6.80078">
        <ele>1642</ele>
        <time>2010-01-03T12:16:26Z</time>
      </trkpt>
      <trkpt lat="46.23532" lon="6.8006">
        <ele>1629</ele>
        <time>2010-01-03T12:16:39Z</time>
      </trkpt>
      <trkpt lat="46.23569" lon="6.80059">
        <ele>1626</ele>
        <time>2010-01-03T12:16:54Z</time>
      </trkpt>
      <trkpt lat="46.23601" lon="6.8007">
        <ele>1611</ele>
        <time>2010-01-03T12:17:07Z</time>
      </trkpt>
      <trkpt lat="46.23624" lon="6.80089">
        <ele>1623</ele>
        <time>2010-01-03T12:17:17Z</time>
      </trkpt>
      <trkpt lat="46.23635" lon="6.80137">
        <ele>1627</ele>
        <time>2010-01-03T12:17:32Z</time>
      </trkpt>
      <trkpt lat="46.23655" lon="6.8021">
        <ele>1652</ele>
        <time>2010-01-03T12:17:53Z</time>
      </trkpt>
      <trkpt lat="46.23671" lon="6.80278">
        <ele>1634</ele>
        <time>2010-01-03T12:18:13Z</time>
      </trkpt>
      <trkpt lat="46.23671" lon="6.80315">
        <ele>1642</ele>
        <time>2010-01-03T12:18:23Z</time>
      </trkpt>
      <trkpt lat="46.23677" lon="6.80368">
        <ele>1634</ele>
        <time>2010-01-03T12:18:38Z</time>
      </trkpt>
      <trkpt lat="46.23689" lon="6.80437">
        <ele>1624</ele>
        <time>2010-01-03T12:18:58Z</time>
      </trkpt>
      <trkpt lat="46.23693" lon="6.80481">
        <ele>1619</ele>
        <time>2010-01-03T12:19:10Z</time>
      </trkpt>
      <trkpt lat="46.23739" lon="6.80617">
        <ele>1606</ele>
        <time>2010-01-03T12:19:52Z</time>
      </trkpt>
      <trkpt lat="46.23779" lon="6.80668">
        <ele>1587</ele>
        <time>2010-01-03T12:20:13Z</time>
      </trkpt>
      <trkpt lat="46.23823" lon="6.80707">
        <ele>1583</ele>
        <time>2010-01-03T12:20:34Z</time>
      </trkpt>
      <trkpt lat="46.23866" lon="6.80726">
        <ele>1570</ele>
        <time>2010-01-03T12:20:52Z</time>
      </trkpt>
      <trkpt lat="46.23909" lon="6.80756">
        <ele>1572</ele>
        <time>2010-01-03T12:21:11Z</time>
      </trkpt>
      <trkpt lat="46.23951" lon="6.8079">
        <ele>1565</ele>
        <time>2010-01-03T12:21:31Z</time>
      </trkpt>
      <trkpt lat="46.23993" lon="6.8085">
        <ele>1577</ele>
        <time>2010-01-03T12:21:54Z</time>
      </trkpt>
      <trkpt lat="46.24019" lon="6.80883">
        <ele>1573</ele>
        <time>2010-01-03T12:22:08Z</time>
      </trkpt>
      <trkpt lat="46.2402" lon="6.80922">
        <ele>1586</ele>
        <time>2010-01-03T12:22:19Z</time>
      </trkpt>
      <trkpt lat="46.24073" lon="6.80955">
        <ele>1584</ele>
        <time>2010-01-03T12:22:42Z</time>
      </trkpt>
      <trkpt lat="46.24173" lon="6.81034">
        <ele>1582</ele>
        <time>2010-01-03T12:23:27Z</time>
      </trkpt>
      <trkpt lat="46.24406" lon="6.81213">
        <ele>1577</ele>
        <time>2010-01-03T12:25:13Z</time>
      </trkpt>
      <trkpt lat="46.24442" lon="6.81236">
        <ele>1543</ele>
        <time>2010-01-03T12:25:29Z</time>
      </trkpt>
      <trkpt lat="46.24491" lon="6.8126">
        <ele>1532</ele>
        <time>2010-01-03T12:25:50Z</time>
      </trkpt>
      <trkpt lat="46.2452" lon="6.81298">
        <ele>1504</ele>
        <time>2010-01-03T12:26:05Z</time>
      </trkpt>
      <trkpt lat="46.24544" lon="6.81325">
        <ele>1498</ele>
        <time>2010-01-03T12:26:17Z</time>
      </trkpt>
      <trkpt lat="46.24563" lon="6.81373">
        <ele>1504</ele>
        <time>2010-01-03T12:26:33Z</time>
      </trkpt>
      <trkpt lat="46.24551" lon="6.81453">
        <ele>1505</ele>
        <time>2010-01-03T12:26:55Z</time>
      </trkpt>
      <trkpt lat="46.24496" lon="6.81527">
        <ele>1528</ele>
        <time>2010-01-03T12:27:25Z</time>
      </trkpt>
      <trkpt lat="46.24465" lon="6.81588">
        <ele>1504</ele>
        <time>2010-01-03T12:27:46Z</time>
      </trkpt>
      <trkpt lat="46.24452" lon="6.81624">
        <ele>1504</ele>
        <time>2010-01-03T12:27:57Z</time>
      </trkpt>
      <trkpt lat="46.24442" lon="6.81684">
        <ele>1494</ele>
        <time>2010-01-03T12:28:15Z</time>
      </trkpt>
      <trkpt lat="46.24536" lon="6.81761">
        <ele>1481</ele>
        <time>2010-01-03T12:28:58Z</time>
      </trkpt>
      <trkpt lat="46.24595" lon="6.81788">
        <ele>1467</ele>
        <time>2010-01-03T12:29:23Z</time>
      </trkpt>
      <trkpt lat="46.24674" lon="6.81847">
        <ele>1443</ele>
        <time>2010-01-03T12:29:58Z</time>
      </trkpt>
      <trkpt lat="46.24771" lon="6.8205">
        <ele>1400</ele>
        <time>2010-01-03T12:31:07Z</time>
      </trkpt>
      <trkpt lat="46.24769" lon="6.82228">
        <ele>1394</ele>
        <time>2010-01-03T12:31:56Z</time>
      </trkpt>
      <trkpt lat="46.24753" lon="6.8231">
        <ele>1386</ele>
        <time>2010-01-03T12:32:19Z</time>
      </trkpt>
      <trkpt lat="46.2468" lon="6.82473">
        <ele>1388</ele>
        <time>2010-01-03T12:33:13Z</time>
      </trkpt>
      <trkpt lat="46.24774" lon="6.82582">
        <ele>1383</ele>
        <time>2010-01-03T12:34:01Z</time>
      </trkpt>
      <trkpt lat="46.24894" lon="6.82598">
        <ele>1380</ele>
        <time>2010-01-03T12:34:49Z</time>
      </trkpt>
      <trkpt lat="46.24977" lon="6.82609">
        <ele>1360</ele>
        <time>2010-01-03T12:35:23Z</time>
      </trkpt>
      <trkpt lat="46.2505" lon="6.82693">
        <ele>1346</ele>
        <time>2010-01-03T12:36:00Z</time>
      </trkpt>
      <trkpt lat="46.2512" lon="6.82774">
        <ele>1326</ele>
        <time>2010-01-03T12:36:36Z</time>
      </trkpt>
      <trkpt lat="46.25153" lon="6.82858">
        <ele>1329</ele>
        <time>2010-01-03T12:37:03Z</time>
      </trkpt>
      <trkpt lat="46.25185" lon="6.82962">
        <ele>1299</ele>
        <time>2010-01-03T12:37:34Z</time>
      </trkpt>
      <trkpt lat="46.25222" lon="6.8312">
        <ele>1304</ele>
        <time>2010-01-03T12:38:20Z</time>
      </trkpt>
      <trkpt lat="46.25248" lon="6.83153">
        <ele>1297</ele>
        <time>2010-01-03T12:38:34Z</time>
      </trkpt>
      <trkpt lat="46.25243" lon="6.83173">
        <ele>1299</ele>
        <time>2010-01-03T12:38:34Z</time>
      </trkpt>
      <trkpt lat="46.25247" lon="6.83157">
        <ele>1296</ele>
        <time>2010-01-03T12:38:39Z</time>
      </trkpt>
      <trkpt lat="46.25254" lon="6.83193">
        <ele>1283</ele>
        <time>2010-01-03T12:38:49Z</time>
      </trkpt>
      <trkpt lat="46.2527" lon="6.83211">
        <ele>1282</ele>
        <time>2010-01-03T12:38:57Z</time>
      </trkpt>
      <trkpt lat="46.25286" lon="6.83238">
        <ele>1281</ele>
        <time>2010-01-03T12:39:07Z</time>
      </trkpt>
      <trkpt lat="46.25305" lon="6.83242">
        <ele>1275</ele>
        <time>2010-01-03T12:39:15Z</time>
      </trkpt>
      <trkpt lat="46.25318" lon="6.83241">
        <ele>1271</ele>
        <time>2010-01-03T12:39:20Z</time>
      </trkpt>
      <trkpt lat="46.25338" lon="6.83299">
        <ele>1263</ele>
        <time>2010-01-03T12:39:38Z</time>
      </trkpt>
      <trkpt lat="46.25344" lon="6.83324">
        <ele>1269</ele>
        <time>2010-01-03T12:39:45Z</time>
      </trkpt>
      <trkpt lat="46.25369" lon="6.8337">
        <ele>1273</ele>
        <time>2010-01-03T12:40:01Z</time>
      </trkpt>
      <trkpt lat="46.25388" lon="6.83399">
        <ele>1271</ele>
        <time>2010-01-03T12:40:12Z</time>
      </trkpt>
      <trkpt lat="46.25409" lon="6.83433">
        <ele>1275</ele>
        <time>2010-01-03T12:40:25Z</time>
      </trkpt>
      <trkpt lat="46.2543" lon="6.83478">
        <ele>1261</ele>
        <time>2010-01-03T12:40:40Z</time>
      </trkpt>
      <trkpt lat="46.25432" lon="6.83483">
        <ele>1261</ele>
        <time>2010-01-03T12:40:41Z</time>
      </trkpt>
      <trkpt lat="46.25443" lon="6.83501">
        <ele>1265</ele>
        <time>2010-01-03T12:40:48Z</time>
      </trkpt>
      <trkpt lat="46.25459" lon="6.8354">
        <ele>1262</ele>
        <time>2010-01-03T12:41:01Z</time>
      </trkpt>
      <trkpt lat="46.25477" lon="6.83586">
        <ele>1265</ele>
        <time>2010-01-03T12:41:15Z</time>
      </trkpt>
      <trkpt lat="46.25509" lon="6.83655">
        <ele>1254</ele>
        <time>2010-01-03T12:41:38Z</time>
      </trkpt>
      <trkpt lat="46.25531" lon="6.837">
        <ele>1261</ele>
        <time>2010-01-03T12:41:54Z</time>
      </trkpt>
      <trkpt lat="46.25547" lon="6.83731">
        <ele>1262</ele>
        <time>2010-01-03T12:42:04Z</time>
      </trkpt>
      <trkpt lat="46.25564" lon="6.83753">
        <ele>1268</ele>
        <time>2010-01-03T12:42:14Z</time>
      </trkpt>
      <trkpt lat="46.25592" lon="6.83797">
        <ele>1253</ele>
        <time>2010-01-03T12:42:30Z</time>
      </trkpt>
      <trkpt lat="46.25592" lon="6.83789">
        <ele>1252</ele>
        <time>2010-01-03T12:42:33Z</time>
      </trkpt>
      <trkpt lat="46.25613" lon="6.83823">
        <ele>1253</ele>
        <time>2010-01-03T12:42:45Z</time>
      </trkpt>
      <trkpt lat="46.25632" lon="6.83869">
        <ele>1257</ele>
        <time>2010-01-03T12:43:00Z</time>
      </trkpt>
      <trkpt lat="46.25642" lon="6.83894">
        <ele>1256</ele>
        <time>2010-01-03T12:43:08Z</time>
      </trkpt>
      <trkpt lat="46.25656" lon="6.83926">
        <ele>1253</ele>
        <time>2010-01-03T12:43:19Z</time>
      </trkpt>
      <trkpt lat="46.25669" lon="6.8394">
        <ele>1245</ele>
        <time>2010-01-03T12:43:25Z</time>
      </trkpt>
      <trkpt lat="46.25684" lon="6.83953">
        <ele>1244</ele>
        <time>2010-01-03T12:43:32Z</time>
      </trkpt>
      <trkpt lat="46.25714" lon="6.83991">
        <ele>1244</ele>
        <time>2010-01-03T12:43:48Z</time>
      </trkpt>
      <trkpt lat="46.25732" lon="6.84017">
        <ele>1246</ele>
        <time>2010-01-03T12:43:58Z</time>
      </trkpt>
      <trkpt lat="46.25743" lon="6.8404">
        <ele>1246</ele>
        <time>2010-01-03T12:44:06Z</time>
      </trkpt>
      <trkpt lat="46.25752" lon="6.84044">
        <ele>1241</ele>
        <time>2010-01-03T12:44:10Z</time>
      </trkpt>
      <trkpt lat="46.25762" lon="6.84066">
        <ele>1242</ele>
        <time>2010-01-03T12:44:17Z</time>
      </trkpt>
      <trkpt lat="46.25771" lon="6.84043">
        <ele>1241</ele>
        <time>2010-01-03T12:44:24Z</time>
      </trkpt>
      <trkpt lat="46.25793" lon="6.84043">
        <ele>1240</ele>
        <time>2010-01-03T12:44:33Z</time>
      </trkpt>
      <trkpt lat="46.25823" lon="6.84054">
        <ele>1240</ele>
        <time>2010-01-03T12:44:46Z</time>
      </trkpt>
      <trkpt lat="46.25885" lon="6.84072">
        <ele>1237</ele>
        <time>2010-01-03T12:45:11Z</time>
      </trkpt>
      <trkpt lat="46.25932" lon="6.84082">
        <ele>1235</ele>
        <time>2010-01-03T12:45:30Z</time>
      </trkpt>
      <trkpt lat="46.25959" lon="6.84086">
        <ele>1240</ele>
        <time>2010-01-03T12:45:41Z</time>
      </trkpt>
      <trkpt lat="46.25995" lon="6.84088">
        <ele>1237</ele>
        <time>2010-01-03T12:45:55Z</time>
      </trkpt>
      <trkpt lat="46.26019" lon="6.84083">
        <ele>1230</ele>
        <time>2010-01-03T12:46:05Z</time>
      </trkpt>
      <trkpt lat="46.26055" lon="6.84077">
        <ele>1226</ele>
        <time>2010-01-03T12:46:19Z</time>
      </trkpt>
      <trkpt lat="46.26089" lon="6.84072">
        <ele>1224</ele>
        <time>2010-01-03T12:46:33Z</time>
      </trkpt>
      <trkpt lat="46.26116" lon="6.84071">
        <ele>1220</ele>
        <time>2010-01-03T12:46:44Z</time>
      </trkpt>
      <trkpt lat="46.26151" lon="6.84073">
        <ele>1219</ele>
        <time>2010-01-03T12:46:58Z</time>
      </trkpt>
      <trkpt lat="46.26181" lon="6.84081">
        <ele>1217</ele>
        <time>2010-01-03T12:47:10Z</time>
      </trkpt>
      <trkpt lat="46.26202" lon="6.84084">
        <ele>1223</ele>
        <time>2010-01-03T12:47:18Z</time>
      </trkpt>
      <trkpt lat="46.26222" lon="6.8409">
        <ele>1222</ele>
        <time>2010-01-03T12:47:27Z</time>
      </trkpt>
      <trkpt lat="46.26258" lon="6.84103">
        <ele>1215</ele>
        <time>2010-01-03T12:47:42Z</time>
      </trkpt>
      <trkpt lat="46.2629" lon="6.84115">
        <ele>1215</ele>
        <time>2010-01-03T12:47:55Z</time>
      </trkpt>
      <trkpt lat="46.26314" lon="6.84126">
        <ele>1215</ele>
        <time>2010-01-03T12:48:05Z</time>
      </trkpt>
      <trkpt lat="46.26334" lon="6.84131">
        <ele>1209</ele>
        <time>2010-01-03T12:48:13Z</time>
      </trkpt>
      <trkpt lat="46.26368" lon="6.84144">
        <ele>1208</ele>
        <time>2010-01-03T12:48:27Z</time>
      </trkpt>
      <trkpt lat="46.26404" lon="6.84152">
        <ele>1207</ele>
        <time>2010-01-03T12:48:42Z</time>
      </trkpt>
      <trkpt lat="46.26462" lon="6.84173">
        <ele>1212</ele>
        <time>2010-01-03T12:49:06Z</time>
      </trkpt>
      <trkpt lat="46.26493" lon="6.84178">
        <ele>1208</ele>
        <time>2010-01-03T12:49:18Z</time>
      </trkpt>
      <trkpt lat="46.26516" lon="6.84176">
        <ele>1207</ele>
        <time>2010-01-03T12:49:27Z</time>
      </trkpt>
      <trkpt lat="46.26552" lon="6.8417">
        <ele>1208</ele>
        <time>2010-01-03T12:49:42Z</time>
      </trkpt>
      <trkpt lat="46.26599" lon="6.84158">
        <ele>1198</ele>
        <time>2010-01-03T12:50:01Z</time>
      </trkpt>
      <trkpt lat="46.26638" lon="6.84142">
        <ele>1196</ele>
        <time>2010-01-03T12:50:17Z</time>
      </trkpt>
      <trkpt lat="46.2666" lon="6.84139">
        <ele>1196</ele>
        <time>2010-01-03T12:50:26Z</time>
      </trkpt>
      <trkpt lat="46.26678" lon="6.84143">
        <ele>1195</ele>
        <time>2010-01-03T12:50:33Z</time>
      </trkpt>
      <trkpt lat="46.26701" lon="6.84147">
        <ele>1194</ele>
        <time>2010-01-03T12:50:43Z</time>
      </trkpt>
      <trkpt lat="46.26726" lon="6.84168">
        <ele>1202</ele>
        <time>2010-01-03T12:50:54Z</time>
      </trkpt>
      <trkpt lat="46.26726" lon="6.84178">
        <ele>1203</ele>
        <time>2010-01-03T12:50:57Z</time>
      </trkpt>
      <trkpt lat="46.26712" lon="6.84187">
        <ele>1204</ele>
        <time>2010-01-03T12:51:03Z</time>
      </trkpt>
      <trkpt lat="46.26696" lon="6.84195">
        <ele>1205</ele>
        <time>2010-01-03T12:51:10Z</time>
      </trkpt>
      <trkpt lat="46.26681" lon="6.84202">
        <ele>1206</ele>
        <time>2010-01-03T12:51:16Z</time>
      </trkpt>
      <trkpt lat="46.26675" lon="6.84209">
        <ele>1207</ele>
        <time>2010-01-03T12:51:19Z</time>
      </trkpt>
      <trkpt lat="46.26661" lon="6.84216">
        <ele>1209</ele>
        <time>2010-01-03T12:51:25Z</time>
      </trkpt>
      <trkpt lat="46.26661" lon="6.84229">
        <ele>1211</ele>
        <time>2010-01-03T12:51:29Z</time>
      </trkpt>
      <trkpt lat="46.26659" lon="6.84237">
        <ele>1212</ele>
        <time>2010-01-03T12:51:31Z</time>
      </trkpt>
      <trkpt lat="46.26665" lon="6.84259">
        <ele>1220</ele>
        <time>2010-01-03T12:51:38Z</time>
      </trkpt>
      <trkpt lat="46.26669" lon="6.84265">
        <ele>1220</ele>
        <time>2010-01-03T12:51:40Z</time>
      </trkpt>
      <trkpt lat="46.26669" lon="6.84245">
        <ele>1214</ele>
        <time>2010-01-03T12:51:46Z</time>
      </trkpt>
      <trkpt lat="46.26676" lon="6.84242">
        <ele>1212</ele>
        <time>2010-01-03T12:51:48Z</time>
      </trkpt>
      <trkpt lat="46.26684" lon="6.84253">
        <ele>1219</ele>
        <time>2010-01-03T12:51:53Z</time>
      </trkpt>
      <trkpt lat="46.26683" lon="6.84269">
        <ele>1221</ele>
        <time>2010-01-03T12:51:57Z</time>
      </trkpt>
      <trkpt lat="46.2668" lon="6.84311">
        <ele>1227</ele>
        <time>2010-01-03T12:52:09Z</time>
      </trkpt>
      <trkpt lat="46.26679" lon="6.84343">
        <ele>1243</ele>
        <time>2010-01-03T12:52:18Z</time>
      </trkpt>
      <trkpt lat="46.26695" lon="6.84653">
        <ele>1395</ele>
        <time>2010-01-03T12:53:44Z</time>
      </trkpt>
      <trkpt lat="46.26702" lon="6.84793">
        <ele>1472</ele>
        <time>2010-01-03T12:54:23Z</time>
      </trkpt>
      <trkpt lat="46.26726" lon="6.84999">
        <ele>1505</ele>
        <time>2010-01-03T12:55:20Z</time>
      </trkpt>
      <trkpt lat="46.2674" lon="6.85268">
        <ele>1516</ele>
        <time>2010-01-03T12:56:35Z</time>
      </trkpt>
      <trkpt lat="46.26751" lon="6.85438">
        <ele>1556</ele>
        <time>2010-01-03T12:57:22Z</time>
      </trkpt>
      <trkpt lat="46.26753" lon="6.85531">
        <ele>1581</ele>
        <time>2010-01-03T12:57:48Z</time>
      </trkpt>
      <trkpt lat="46.26758" lon="6.8562">
        <ele>1602</ele>
        <time>2010-01-03T12:58:13Z</time>
      </trkpt>
      <trkpt lat="46.26767" lon="6.85687">
        <ele>1619</ele>
        <time>2010-01-03T12:58:32Z</time>
      </trkpt>
      <trkpt lat="46.26769" lon="6.8573">
        <ele>1625</ele>
        <time>2010-01-03T12:58:44Z</time>
      </trkpt>
      <trkpt lat="46.26769" lon="6.8574">
        <ele>1626</ele>
        <time>2010-01-03T12:58:46Z</time>
      </trkpt>
      <trkpt lat="46.26771" lon="6.85749">
        <ele>1627</ele>
        <time>2010-01-03T12:58:49Z</time>
      </trkpt>
      <trkpt lat="46.26773" lon="6.85756">
        <ele>1634</ele>
        <time>2010-01-03T12:58:51Z</time>
      </trkpt>
      <trkpt lat="46.26773" lon="6.8576">
        <ele>1635</ele>
        <time>2010-01-03T12:58:52Z</time>
      </trkpt>
      <trkpt lat="46.26772" lon="6.85764">
        <ele>1635</ele>
        <time>2010-01-03T12:58:53Z</time>
      </trkpt>
      <trkpt lat="46.26771" lon="6.8577">
        <ele>1635</ele>
        <time>2010-01-03T12:58:55Z</time>
      </trkpt>
      <trkpt lat="46.26771" lon="6.85773">
        <ele>1635</ele>
        <time>2010-01-03T12:58:56Z</time>
      </trkpt>
      <trkpt lat="46.26771" lon="6.85775">
        <ele>1636</ele>
        <time>2010-01-03T12:58:56Z</time>
      </trkpt>
      <trkpt lat="46.26772" lon="6.85782">
        <ele>1636</ele>
        <time>2010-01-03T12:58:59Z</time>
      </trkpt>
      <trkpt lat="46.26772" lon="6.85783">
        <ele>1636</ele>
        <time>2010-01-03T12:58:59Z</time>
      </trkpt>
      <trkpt lat="46.26773" lon="6.85782">
        <ele>1636</ele>
        <time>2010-01-03T12:58:59Z</time>
      </trkpt>
      <trkpt lat="46.26773" lon="6.85781">
        <ele>1636</ele>
        <time>2010-01-03T12:58:59Z</time>
      </trkpt>
      <trkpt lat="46.26775" lon="6.8578">
        <ele>1636</ele>
        <time>2010-01-03T12:59:00Z</time>
      </trkpt>
      <trkpt lat="46.26776" lon="6.85778">
        <ele>1636</ele>
        <time>2010-01-03T12:59:01Z</time>
      </trkpt>
      <trkpt lat="46.26777" lon="6.85777">
        <ele>1636</ele>
        <time>2010-01-03T12:59:01Z</time>
      </trkpt>
      <trkpt lat="46.26778" lon="6.85776">
        <ele>1636</ele>
        <time>2010-01-03T12:59:02Z</time>
      </trkpt>
      <trkpt lat="46.2678" lon="6.85776">
        <ele>1636</ele>
        <time>2010-01-03T12:59:02Z</time>
      </trkpt>
      <trkpt lat="46.2678" lon="6.85775">
        <ele>1636</ele>
        <time>2010-01-03T12:59:03Z</time>
      </trkpt>
      <trkpt lat="46.26781" lon="6.85775">
        <ele>1636</ele>
        <time>2010-01-03T12:59:03Z</time>
      </trkpt>
      <trkpt lat="46.26782" lon="6.85776">
        <ele>1636</ele>
        <time>2010-01-03T12:59:03Z</time>
      </trkpt>
      <trkpt lat="46.26782" lon="6.85776">
        <ele>1636</ele>
        <time>2010-01-03T12:59:03Z</time>
      </trkpt>
      <trkpt lat="46.26782" lon="6.85777">
        <ele>1636</ele>
        <time>2010-01-03T12:59:04Z</time>
      </trkpt>
      <trkpt lat="46.26782" lon="6.85779">
        <ele>1636</ele>
        <time>2010-01-03T12:59:04Z</time>
      </trkpt>
      <trkpt lat="46.26782" lon="6.85781">
        <ele>1636</ele>
        <time>2010-01-03T12:59:05Z</time>
      </trkpt>
      <trkpt lat="46.26782" lon="6.85782">
        <ele>1636</ele>
        <time>2010-01-03T12:59:05Z</time>
      </trkpt>
      <trkpt lat="46.26781" lon="6.85783">
        <ele>1636</ele>
        <time>2010-01-03T12:59:06Z</time>
      </trkpt>
      <trkpt lat="46.2678" lon="6.85784">
        <ele>1637</ele>
        <time>2010-01-03T12:59:06Z</time>
      </trkpt>
      <trkpt lat="46.2678" lon="6.85785">
        <ele>1637</ele>
        <time>2010-01-03T12:59:06Z</time>
      </trkpt>
      <trkpt lat="46.26779" lon="6.85786">
        <ele>1637</ele>
        <time>2010-01-03T12:59:07Z</time>
      </trkpt>
      <trkpt lat="46.26778" lon="6.85786">
        <ele>1637</ele>
        <time>2010-01-03T12:59:07Z</time>
      </trkpt>
      <trkpt lat="46.26777" lon="6.85786">
        <ele>1637</ele>
        <time>2010-01-03T12:59:08Z</time>
      </trkpt>
      <trkpt lat="46.26775" lon="6.85786">
        <ele>1637</ele>
        <time>2010-01-03T12:59:08Z</time>
      </trkpt>
      <trkpt lat="46.26774" lon="6.85787">
        <ele>1637</ele>
        <time>2010-01-03T12:59:09Z</time>
      </trkpt>
      <trkpt lat="46.26773" lon="6.85787">
        <ele>1637</ele>
        <time>2010-01-03T12:59:09Z</time>
      </trkpt>
      <trkpt lat="46.26772" lon="6.85788">
        <ele>1637</ele>
        <time>2010-01-03T12:59:10Z</time>
      </trkpt>
      <trkpt lat="46.2677" lon="6.8579">
        <ele>1637</ele>
        <time>2010-01-03T12:59:10Z</time>
      </trkpt>
      <trkpt lat="46.26769" lon="6.85791">
        <ele>1637</ele>
        <time>2010-01-03T12:59:11Z</time>
      </trkpt>
      <trkpt lat="46.26768" lon="6.85792">
        <ele>1637</ele>
        <time>2010-01-03T12:59:12Z</time>
      </trkpt>
      <trkpt lat="46.26766" lon="6.85793">
        <ele>1637</ele>
        <time>2010-01-03T12:59:12Z</time>
      </trkpt>
      <trkpt lat="46.26763" lon="6.85795">
        <ele>1637</ele>
        <time>2010-01-03T12:59:14Z</time>
      </trkpt>
      <trkpt lat="46.26761" lon="6.85797">
        <ele>1637</ele>
        <time>2010-01-03T12:59:15Z</time>
      </trkpt>
      <trkpt lat="46.2676" lon="6.85798">
        <ele>1637</ele>
        <time>2010-01-03T12:59:15Z</time>
      </trkpt>
      <trkpt lat="46.26759" lon="6.85799">
        <ele>1637</ele>
        <time>2010-01-03T12:59:16Z</time>
      </trkpt>
      <trkpt lat="46.26756" lon="6.858">
        <ele>1637</ele>
        <time>2010-01-03T12:59:17Z</time>
      </trkpt>
      <trkpt lat="46.26755" lon="6.858">
        <ele>1637</ele>
        <time>2010-01-03T12:59:17Z</time>
      </trkpt>
      <trkpt lat="46.26755" lon="6.85801">
        <ele>1637</ele>
        <time>2010-01-03T12:59:17Z</time>
      </trkpt>
      <trkpt lat="46.26754" lon="6.85801">
        <ele>1637</ele>
        <time>2010-01-03T12:59:18Z</time>
      </trkpt>
      <trkpt lat="46.26753" lon="6.85801">
        <ele>1637</ele>
        <time>2010-01-03T12:59:18Z</time>
      </trkpt>
      <trkpt lat="46.26752" lon="6.85802">
        <ele>1637</ele>
        <time>2010-01-03T12:59:19Z</time>
      </trkpt>
      <trkpt lat="46.26751" lon="6.85803">
        <ele>1637</ele>
        <time>2010-01-03T12:59:19Z</time>
      </trkpt>
      <trkpt lat="46.2675" lon="6.85804">
        <ele>1633</ele>
        <time>2010-01-03T12:59:20Z</time>
      </trkpt>
      <trkpt lat="46.26748" lon="6.85806">
        <ele>1634</ele>
        <time>2010-01-03T12:59:20Z</time>
      </trkpt>
      <trkpt lat="46.26745" lon="6.85809">
        <ele>1634</ele>
        <time>2010-01-03T12:59:22Z</time>
      </trkpt>
      <trkpt lat="46.26742" lon="6.85812">
        <ele>1634</ele>
        <time>2010-01-03T12:59:24Z</time>
      </trkpt>
      <trkpt lat="46.26739" lon="6.85815">
        <ele>1634</ele>
        <time>2010-01-03T12:59:25Z</time>
      </trkpt>
      <trkpt lat="46.26736" lon="6.85818">
        <ele>1634</ele>
        <time>2010-01-03T12:59:26Z</time>
      </trkpt>
      <trkpt lat="46.26734" lon="6.8582">
        <ele>1634</ele>
        <time>2010-01-03T12:59:27Z</time>
      </trkpt>
      <trkpt lat="46.26732" lon="6.8582">
        <ele>1634</ele>
        <time>2010-01-03T12:59:28Z</time>
      </trkpt>
      <trkpt lat="46.26732" lon="6.85821">
        <ele>1634</ele>
        <time>2010-01-03T12:59:28Z</time>
      </trkpt>
      <trkpt lat="46.2673" lon="6.85822">
        <ele>1634</ele>
        <time>2010-01-03T12:59:29Z</time>
      </trkpt>
      <trkpt lat="46.26729" lon="6.85823">
        <ele>1634</ele>
        <time>2010-01-03T12:59:29Z</time>
      </trkpt>
      <trkpt lat="46.26728" lon="6.85824">
        <ele>1634</ele>
        <time>2010-01-03T12:59:30Z</time>
      </trkpt>
      <trkpt lat="46.26727" lon="6.85825">
        <ele>1634</ele>
        <time>2010-01-03T12:59:30Z</time>
      </trkpt>
      <trkpt lat="46.26726" lon="6.85825">
        <ele>1634</ele>
        <time>2010-01-03T12:59:31Z</time>
      </trkpt>
      <trkpt lat="46.26726" lon="6.85826">
        <ele>1634</ele>
        <time>2010-01-03T12:59:31Z</time>
      </trkpt>
      <trkpt lat="46.26725" lon="6.85828">
        <ele>1634</ele>
        <time>2010-01-03T12:59:32Z</time>
      </trkpt>
      <trkpt lat="46.26724" lon="6.85829">
        <ele>1634</ele>
        <time>2010-01-03T12:59:32Z</time>
      </trkpt>
      <trkpt lat="46.26723" lon="6.85831">
        <ele>1634</ele>
        <time>2010-01-03T12:59:33Z</time>
      </trkpt>
      <trkpt lat="46.26722" lon="6.85833">
        <ele>1634</ele>
        <time>2010-01-03T12:59:34Z</time>
      </trkpt>
      <trkpt lat="46.26721" lon="6.85835">
        <ele>1640</ele>
        <time>2010-01-03T12:59:34Z</time>
      </trkpt>
      <trkpt lat="46.26718" lon="6.85838">
        <ele>1640</ele>
        <time>2010-01-03T12:59:35Z</time>
      </trkpt>
      <trkpt lat="46.26715" lon="6.85842">
        <ele>1639</ele>
        <time>2010-01-03T12:59:37Z</time>
      </trkpt>
      <trkpt lat="46.26713" lon="6.85844">
        <ele>1639</ele>
        <time>2010-01-03T12:59:38Z</time>
      </trkpt>
      <trkpt lat="46.26712" lon="6.85846">
        <ele>1639</ele>
        <time>2010-01-03T12:59:39Z</time>
      </trkpt>
      <trkpt lat="46.26711" lon="6.85847">
        <ele>1639</ele>
        <time>2010-01-03T12:59:39Z</time>
      </trkpt>
      <trkpt lat="46.2671" lon="6.85849">
        <ele>1639</ele>
        <time>2010-01-03T12:59:40Z</time>
      </trkpt>
      <trkpt lat="46.26709" lon="6.85851">
        <ele>1639</ele>
        <time>2010-01-03T12:59:41Z</time>
      </trkpt>
      <trkpt lat="46.26709" lon="6.85852">
        <ele>1639</ele>
        <time>2010-01-03T12:59:41Z</time>
      </trkpt>
      <trkpt lat="46.26707" lon="6.85854">
        <ele>1639</ele>
        <time>2010-01-03T12:59:42Z</time>
      </trkpt>
      <trkpt lat="46.26706" lon="6.85855">
        <ele>1639</ele>
        <time>2010-01-03T12:59:42Z</time>
      </trkpt>
      <trkpt lat="46.26705" lon="6.85856">
        <ele>1639</ele>
        <time>2010-01-03T12:59:43Z</time>
      </trkpt>
      <trkpt lat="46.26705" lon="6.85857">
        <ele>1639</ele>
        <time>2010-01-03T12:59:43Z</time>
      </trkpt>
      <trkpt lat="46.26702" lon="6.85863">
        <ele>1640</ele>
        <time>2010-01-03T12:59:45Z</time>
      </trkpt>
      <trkpt lat="46.26698" lon="6.85869">
        <ele>1640</ele>
        <time>2010-01-03T12:59:47Z</time>
      </trkpt>
      <trkpt lat="46.26696" lon="6.85871">
        <ele>1640</ele>
        <time>2010-01-03T12:59:48Z</time>
      </trkpt>
      <trkpt lat="46.26692" lon="6.85877">
        <ele>1640</ele>
        <time>2010-01-03T12:59:51Z</time>
      </trkpt>
      <trkpt lat="46.26689" lon="6.85882">
        <ele>1640</ele>
        <time>2010-01-03T12:59:53Z</time>
      </trkpt>
      <trkpt lat="46.26687" lon="6.85884">
        <ele>1640</ele>
        <time>2010-01-03T12:59:54Z</time>
      </trkpt>
      <trkpt lat="46.26685" lon="6.85887">
        <ele>1641</ele>
        <time>2010-01-03T12:59:54Z</time>
      </trkpt>
      <trkpt lat="46.26685" lon="6.85887">
        <ele>1641</ele>
        <time>2010-01-03T12:59:55Z</time>
      </trkpt>
      <trkpt lat="46.26684" lon="6.85889">
        <ele>1641</ele>
        <time>2010-01-03T12:59:55Z</time>
      </trkpt>
      <trkpt lat="46.26684" lon="6.85889">
        <ele>1641</ele>
        <time>2010-01-03T12:59:55Z</time>
      </trkpt>
      <trkpt lat="46.26683" lon="6.8589">
        <ele>1641</ele>
        <time>2010-01-03T12:59:56Z</time>
      </trkpt>
      <trkpt lat="46.26683" lon="6.8589">
        <ele>1641</ele>
        <time>2010-01-03T12:59:56Z</time>
      </trkpt>
      <trkpt lat="46.26679" lon="6.85895">
        <ele>1641</ele>
        <time>2010-01-03T12:59:58Z</time>
      </trkpt>
      <trkpt lat="46.26673" lon="6.85905">
        <ele>1641</ele>
        <time>2010-01-03T13:00:02Z</time>
      </trkpt>
      <trkpt lat="46.2667" lon="6.85908">
        <ele>1642</ele>
        <time>2010-01-03T13:00:03Z</time>
      </trkpt>
      <trkpt lat="46.26667" lon="6.8591">
        <ele>1642</ele>
        <time>2010-01-03T13:00:04Z</time>
      </trkpt>
      <trkpt lat="46.26661" lon="6.85919">
        <ele>1643</ele>
        <time>2010-01-03T13:00:08Z</time>
      </trkpt>
      <trkpt lat="46.26652" lon="6.85928">
        <ele>1644</ele>
        <time>2010-01-03T13:00:12Z</time>
      </trkpt>
      <trkpt lat="46.26645" lon="6.85932">
        <ele>1645</ele>
        <time>2010-01-03T13:00:15Z</time>
      </trkpt>
      <trkpt lat="46.26637" lon="6.85938">
        <ele>1646</ele>
        <time>2010-01-03T13:00:19Z</time>
      </trkpt>
      <trkpt lat="46.26632" lon="6.85941">
        <ele>1646</ele>
        <time>2010-01-03T13:00:21Z</time>
      </trkpt>
      <trkpt lat="46.26628" lon="6.85945">
        <ele>1646</ele>
        <time>2010-01-03T13:00:23Z</time>
      </trkpt>
      <trkpt lat="46.26623" lon="6.85948">
        <ele>1646</ele>
        <time>2010-01-03T13:00:25Z</time>
      </trkpt>
      <trkpt lat="46.26617" lon="6.85953">
        <ele>1646</ele>
        <time>2010-01-03T13:00:28Z</time>
      </trkpt>
      <trkpt lat="46.26595" lon="6.85974">
        <ele>1648</ele>
        <time>2010-01-03T13:00:38Z</time>
      </trkpt>
      <trkpt lat="46.26584" lon="6.85987">
        <ele>1649</ele>
        <time>2010-01-03T13:00:44Z</time>
      </trkpt>
      <trkpt lat="46.26555" lon="6.86023">
        <ele>1657</ele>
        <time>2010-01-03T13:00:59Z</time>
      </trkpt>
      <trkpt lat="46.26528" lon="6.86048">
        <ele>1659</ele>
        <time>2010-01-03T13:01:12Z</time>
      </trkpt>
      <trkpt lat="46.26496" lon="6.86072">
        <ele>1665</ele>
        <time>2010-01-03T13:01:27Z</time>
      </trkpt>
      <trkpt lat="46.26488" lon="6.86081">
        <ele>1665</ele>
        <time>2010-01-03T13:01:30Z</time>
      </trkpt>
      <trkpt lat="46.26479" lon="6.86091">
        <ele>1671</ele>
        <time>2010-01-03T13:01:35Z</time>
      </trkpt>
      <trkpt lat="46.26479" lon="6.86092">
        <ele>1671</ele>
        <time>2010-01-03T13:01:35Z</time>
      </trkpt>
      <trkpt lat="46.26473" lon="6.86111">
        <ele>1673</ele>
        <time>2010-01-03T13:01:41Z</time>
      </trkpt>
      <trkpt lat="46.26464" lon="6.86138">
        <ele>1675</ele>
        <time>2010-01-03T13:01:49Z</time>
      </trkpt>
      <trkpt lat="46.26464" lon="6.86149">
        <ele>1676</ele>
        <time>2010-01-03T13:01:53Z</time>
      </trkpt>
      <trkpt lat="46.26466" lon="6.86158">
        <ele>1676</ele>
        <time>2010-01-03T13:01:55Z</time>
      </trkpt>
      <trkpt lat="46.26472" lon="6.86171">
        <ele>1679</ele>
        <time>2010-01-03T13:02:00Z</time>
      </trkpt>
      <trkpt lat="46.26476" lon="6.86177">
        <ele>1679</ele>
        <time>2010-01-03T13:02:02Z</time>
      </trkpt>
      <trkpt lat="46.26483" lon="6.86178">
        <ele>1678</ele>
        <time>2010-01-03T13:02:05Z</time>
      </trkpt>
      <trkpt lat="46.26496" lon="6.86183">
        <ele>1678</ele>
        <time>2010-01-03T13:02:10Z</time>
      </trkpt>
      <trkpt lat="46.26504" lon="6.86182">
        <ele>1677</ele>
        <time>2010-01-03T13:02:13Z</time>
      </trkpt>
      <trkpt lat="46.26515" lon="6.86183">
        <ele>1678</ele>
        <time>2010-01-03T13:02:18Z</time>
      </trkpt>
      <trkpt lat="46.26523" lon="6.86185">
        <ele>1679</ele>
        <time>2010-01-03T13:02:21Z</time>
      </trkpt>
      <trkpt lat="46.26537" lon="6.86186">
        <ele>1680</ele>
        <time>2010-01-03T13:02:27Z</time>
      </trkpt>
      <trkpt lat="46.26545" lon="6.86186">
        <ele>1680</ele>
        <time>2010-01-03T13:02:30Z</time>
      </trkpt>
      <trkpt lat="46.26554" lon="6.86186">
        <ele>1680</ele>
        <time>2010-01-03T13:02:33Z</time>
      </trkpt>
      <trkpt lat="46.26566" lon="6.8619">
        <ele>1681</ele>
        <time>2010-01-03T13:02:38Z</time>
      </trkpt>
      <trkpt lat="46.26574" lon="6.86193">
        <ele>1681</ele>
        <time>2010-01-03T13:02:42Z</time>
      </trkpt>
      <trkpt lat="46.26595" lon="6.86217">
        <ele>1685</ele>
        <time>2010-01-03T13:02:52Z</time>
      </trkpt>
      <trkpt lat="46.26603" lon="6.8623">
        <ele>1686</ele>
        <time>2010-01-03T13:02:57Z</time>
      </trkpt>
      <trkpt lat="46.26603" lon="6.86246">
        <ele>1686</ele>
        <time>2010-01-03T13:03:01Z</time>
      </trkpt>
      <trkpt lat="46.26598" lon="6.86263">
        <ele>1690</ele>
        <time>2010-01-03T13:03:07Z</time>
      </trkpt>
      <trkpt lat="46.26588" lon="6.86288">
        <ele>1692</ele>
        <time>2010-01-03T13:03:14Z</time>
      </trkpt>
      <trkpt lat="46.26582" lon="6.86298">
        <ele>1687</ele>
        <time>2010-01-03T13:03:18Z</time>
      </trkpt>
      <trkpt lat="46.26582" lon="6.86298">
        <ele>1687</ele>
        <time>2010-01-03T13:03:18Z</time>
      </trkpt>
      <trkpt lat="46.26567" lon="6.86322">
        <ele>1688</ele>
        <time>2010-01-03T13:03:27Z</time>
      </trkpt>
      <trkpt lat="46.26562" lon="6.86331">
        <ele>1688</ele>
        <time>2010-01-03T13:03:30Z</time>
      </trkpt>
      <trkpt lat="46.26559" lon="6.86337">
        <ele>1690</ele>
        <time>2010-01-03T13:03:32Z</time>
      </trkpt>
      <trkpt lat="46.26555" lon="6.86343">
        <ele>1689</ele>
        <time>2010-01-03T13:03:35Z</time>
      </trkpt>
      <trkpt lat="46.26555" lon="6.86344">
        <ele>1689</ele>
        <time>2010-01-03T13:03:35Z</time>
      </trkpt>
      <trkpt lat="46.26555" lon="6.86346">
        <ele>1689</ele>
        <time>2010-01-03T13:03:35Z</time>
      </trkpt>
      <trkpt lat="46.26555" lon="6.86346">
        <ele>1689</ele>
        <time>2010-01-03T13:03:35Z</time>
      </trkpt>
      <trkpt lat="46.26555" lon="6.86347">
        <ele>1689</ele>
        <time>2010-01-03T13:03:36Z</time>
      </trkpt>
      <trkpt lat="46.26553" lon="6.86358">
        <ele>1689</ele>
        <time>2010-01-03T13:03:39Z</time>
      </trkpt>
      <trkpt lat="46.26553" lon="6.86358">
        <ele>1689</ele>
        <time>2010-01-03T13:03:39Z</time>
      </trkpt>
      <trkpt lat="46.2655" lon="6.86374">
        <ele>1689</ele>
        <time>2010-01-03T13:03:43Z</time>
      </trkpt>
      <trkpt lat="46.26542" lon="6.86423">
        <ele>1691</ele>
        <time>2010-01-03T13:03:57Z</time>
      </trkpt>
      <trkpt lat="46.26542" lon="6.86444">
        <ele>1691</ele>
        <time>2010-01-03T13:04:03Z</time>
      </trkpt>
      <trkpt lat="46.26544" lon="6.8646">
        <ele>1691</ele>
        <time>2010-01-03T13:04:08Z</time>
      </trkpt>
      <trkpt lat="46.26543" lon="6.86496">
        <ele>1691</ele>
        <time>2010-01-03T13:04:18Z</time>
      </trkpt>
      <trkpt lat="46.26541" lon="6.86517">
        <ele>1693</ele>
        <time>2010-01-03T13:04:23Z</time>
      </trkpt>
      <trkpt lat="46.26536" lon="6.86535">
        <ele>1693</ele>
        <time>2010-01-03T13:04:29Z</time>
      </trkpt>
      <trkpt lat="46.26539" lon="6.86548">
        <ele>1693</ele>
        <time>2010-01-03T13:04:32Z</time>
      </trkpt>
      <trkpt lat="46.26539" lon="6.86549">
        <ele>1693</ele>
        <time>2010-01-03T13:04:33Z</time>
      </trkpt>
      <trkpt lat="46.26545" lon="6.86562">
        <ele>1693</ele>
        <time>2010-01-03T13:04:37Z</time>
      </trkpt>
      <trkpt lat="46.26552" lon="6.86573">
        <ele>1692</ele>
        <time>2010-01-03T13:04:41Z</time>
      </trkpt>
      <trkpt lat="46.26553" lon="6.86576">
        <ele>1692</ele>
        <time>2010-01-03T13:04:42Z</time>
      </trkpt>
      <trkpt lat="46.26559" lon="6.86615">
        <ele>1692</ele>
        <time>2010-01-03T13:04:53Z</time>
      </trkpt>
      <trkpt lat="46.26559" lon="6.86632">
        <ele>1692</ele>
        <time>2010-01-03T13:04:58Z</time>
      </trkpt>
      <trkpt lat="46.26558" lon="6.86648">
        <ele>1691</ele>
        <time>2010-01-03T13:05:02Z</time>
      </trkpt>
      <trkpt lat="46.26553" lon="6.86663">
        <ele>1691</ele>
        <time>2010-01-03T13:05:07Z</time>
      </trkpt>
      <trkpt lat="46.26545" lon="6.86684">
        <ele>1690</ele>
        <time>2010-01-03T13:05:14Z</time>
      </trkpt>
      <trkpt lat="46.26534" lon="6.8671">
        <ele>1690</ele>
        <time>2010-01-03T13:05:22Z</time>
      </trkpt>
      <trkpt lat="46.26525" lon="6.86736">
        <ele>1690</ele>
        <time>2010-01-03T13:05:30Z</time>
      </trkpt>
      <trkpt lat="46.26522" lon="6.86751">
        <ele>1683</ele>
        <time>2010-01-03T13:05:35Z</time>
      </trkpt>
      <trkpt lat="46.26521" lon="6.86763">
        <ele>1681</ele>
        <time>2010-01-03T13:05:38Z</time>
      </trkpt>
      <trkpt lat="46.26518" lon="6.86765">
        <ele>1682</ele>
        <time>2010-01-03T13:05:39Z</time>
      </trkpt>
      <trkpt lat="46.26514" lon="6.86774">
        <ele>1681</ele>
        <time>2010-01-03T13:05:42Z</time>
      </trkpt>
      <trkpt lat="46.26514" lon="6.86775">
        <ele>1680</ele>
        <time>2010-01-03T13:05:42Z</time>
      </trkpt>
      <trkpt lat="46.26506" lon="6.8678">
        <ele>1680</ele>
        <time>2010-01-03T13:05:45Z</time>
      </trkpt>
      <trkpt lat="46.26493" lon="6.86789">
        <ele>1690</ele>
        <time>2010-01-03T13:05:52Z</time>
      </trkpt>
      <trkpt lat="46.26475" lon="6.86803">
        <ele>1689</ele>
        <time>2010-01-03T13:06:00Z</time>
      </trkpt>
      <trkpt lat="46.26471" lon="6.86805">
        <ele>1689</ele>
        <time>2010-01-03T13:06:01Z</time>
      </trkpt>
      <trkpt lat="46.26463" lon="6.8681">
        <ele>1690</ele>
        <time>2010-01-03T13:06:05Z</time>
      </trkpt>
      <trkpt lat="46.26458" lon="6.86815">
        <ele>1690</ele>
        <time>2010-01-03T13:06:07Z</time>
      </trkpt>
      <trkpt lat="46.26448" lon="6.86825">
        <ele>1690</ele>
        <time>2010-01-03T13:06:12Z</time>
      </trkpt>
      <trkpt lat="46.26444" lon="6.86827">
        <ele>1690</ele>
        <time>2010-01-03T13:06:14Z</time>
      </trkpt>
      <trkpt lat="46.26437" lon="6.86832">
        <ele>1691</ele>
        <time>2010-01-03T13:06:17Z</time>
      </trkpt>
      <trkpt lat="46.26429" lon="6.86838">
        <ele>1682</ele>
        <time>2010-01-03T13:06:20Z</time>
      </trkpt>
      <trkpt lat="46.26413" lon="6.8685">
        <ele>1687</ele>
        <time>2010-01-03T13:06:28Z</time>
      </trkpt>
      <trkpt lat="46.264" lon="6.86859">
        <ele>1686</ele>
        <time>2010-01-03T13:06:34Z</time>
      </trkpt>
      <trkpt lat="46.26386" lon="6.86866">
        <ele>1685</ele>
        <time>2010-01-03T13:06:39Z</time>
      </trkpt>
      <trkpt lat="46.26372" lon="6.86878">
        <ele>1685</ele>
        <time>2010-01-03T13:06:46Z</time>
      </trkpt>
      <trkpt lat="46.26361" lon="6.86887">
        <ele>1685</ele>
        <time>2010-01-03T13:06:51Z</time>
      </trkpt>
      <trkpt lat="46.26343" lon="6.86896">
        <ele>1684</ele>
        <time>2010-01-03T13:06:59Z</time>
      </trkpt>
      <trkpt lat="46.26324" lon="6.86903">
        <ele>1690</ele>
        <time>2010-01-03T13:07:06Z</time>
      </trkpt>
      <trkpt lat="46.26318" lon="6.86906">
        <ele>1690</ele>
        <time>2010-01-03T13:07:09Z</time>
      </trkpt>
      <trkpt lat="46.26305" lon="6.86912">
        <ele>1693</ele>
        <time>2010-01-03T13:07:14Z</time>
      </trkpt>
      <trkpt lat="46.26301" lon="6.86917">
        <ele>1693</ele>
        <time>2010-01-03T13:07:16Z</time>
      </trkpt>
      <trkpt lat="46.26291" lon="6.86928">
        <ele>1689</ele>
        <time>2010-01-03T13:07:22Z</time>
      </trkpt>
      <trkpt lat="46.26283" lon="6.86937">
        <ele>1690</ele>
        <time>2010-01-03T13:07:26Z</time>
      </trkpt>
      <trkpt lat="46.26276" lon="6.86943">
        <ele>1690</ele>
        <time>2010-01-03T13:07:29Z</time>
      </trkpt>
      <trkpt lat="46.2627" lon="6.86951">
        <ele>1690</ele>
        <time>2010-01-03T13:07:32Z</time>
      </trkpt>
      <trkpt lat="46.2626" lon="6.8698">
        <ele>1690</ele>
        <time>2010-01-03T13:07:41Z</time>
      </trkpt>
      <trkpt lat="46.26254" lon="6.87014">
        <ele>1691</ele>
        <time>2010-01-03T13:07:51Z</time>
      </trkpt>
      <trkpt lat="46.2625" lon="6.87043">
        <ele>1691</ele>
        <time>2010-01-03T13:07:59Z</time>
      </trkpt>
      <trkpt lat="46.26246" lon="6.8707">
        <ele>1701</ele>
        <time>2010-01-03T13:08:07Z</time>
      </trkpt>
      <trkpt lat="46.26245" lon="6.87084">
        <ele>1699</ele>
        <time>2010-01-03T13:08:11Z</time>
      </trkpt>
      <trkpt lat="46.26247" lon="6.871">
        <ele>1701</ele>
        <time>2010-01-03T13:08:15Z</time>
      </trkpt>
      <trkpt lat="46.26247" lon="6.8711">
        <ele>1703</ele>
        <time>2010-01-03T13:08:18Z</time>
      </trkpt>
      <trkpt lat="46.26244" lon="6.87114">
        <ele>1703</ele>
        <time>2010-01-03T13:08:19Z</time>
      </trkpt>
      <trkpt lat="46.26237" lon="6.87113">
        <ele>1704</ele>
        <time>2010-01-03T13:08:22Z</time>
      </trkpt>
      <trkpt lat="46.26221" lon="6.87098">
        <ele>1705</ele>
        <time>2010-01-03T13:08:30Z</time>
      </trkpt>
      <trkpt lat="46.26206" lon="6.87084">
        <ele>1707</ele>
        <time>2010-01-03T13:08:37Z</time>
      </trkpt>
      <trkpt lat="46.26197" lon="6.8707">
        <ele>1708</ele>
        <time>2010-01-03T13:08:42Z</time>
      </trkpt>
      <trkpt lat="46.26194" lon="6.87058">
        <ele>1708</ele>
        <time>2010-01-03T13:08:46Z</time>
      </trkpt>
      <trkpt lat="46.26193" lon="6.87041">
        <ele>1708</ele>
        <time>2010-01-03T13:08:51Z</time>
      </trkpt>
      <trkpt lat="46.26196" lon="6.87027">
        <ele>1708</ele>
        <time>2010-01-03T13:08:55Z</time>
      </trkpt>
      <trkpt lat="46.26198" lon="6.87005">
        <ele>1709</ele>
        <time>2010-01-03T13:09:01Z</time>
      </trkpt>
      <trkpt lat="46.26196" lon="6.86987">
        <ele>1711</ele>
        <time>2010-01-03T13:09:06Z</time>
      </trkpt>
      <trkpt lat="46.26196" lon="6.86979">
        <ele>1711</ele>
        <time>2010-01-03T13:09:08Z</time>
      </trkpt>
      <trkpt lat="46.26196" lon="6.86971">
        <ele>1711</ele>
        <time>2010-01-03T13:09:10Z</time>
      </trkpt>
      <trkpt lat="46.26195" lon="6.86956">
        <ele>1712</ele>
        <time>2010-01-03T13:09:14Z</time>
      </trkpt>
      <trkpt lat="46.26194" lon="6.86947">
        <ele>1712</ele>
        <time>2010-01-03T13:09:17Z</time>
      </trkpt>
      <trkpt lat="46.26191" lon="6.8693">
        <ele>1715</ele>
        <time>2010-01-03T13:09:22Z</time>
      </trkpt>
      <trkpt lat="46.26189" lon="6.86915">
        <ele>1720</ele>
        <time>2010-01-03T13:09:26Z</time>
      </trkpt>
      <trkpt lat="46.26188" lon="6.869">
        <ele>1720</ele>
        <time>2010-01-03T13:09:30Z</time>
      </trkpt>
      <trkpt lat="46.26187" lon="6.86891">
        <ele>1720</ele>
        <time>2010-01-03T13:09:33Z</time>
      </trkpt>
      <trkpt lat="46.26186" lon="6.86877">
        <ele>1720</ele>
        <time>2010-01-03T13:09:36Z</time>
      </trkpt>
      <trkpt lat="46.26185" lon="6.86871">
        <ele>1721</ele>
        <time>2010-01-03T13:09:38Z</time>
      </trkpt>
      <trkpt lat="46.26183" lon="6.86864">
        <ele>1721</ele>
        <time>2010-01-03T13:09:40Z</time>
      </trkpt>
      <trkpt lat="46.26183" lon="6.86861">
        <ele>1722</ele>
        <time>2010-01-03T13:09:41Z</time>
      </trkpt>
      <trkpt lat="46.2618" lon="6.86844">
        <ele>1725</ele>
        <time>2010-01-03T13:09:46Z</time>
      </trkpt>
      <trkpt lat="46.2618" lon="6.86832">
        <ele>1730</ele>
        <time>2010-01-03T13:09:49Z</time>
      </trkpt>
      <trkpt lat="46.26183" lon="6.86817">
        <ele>1729</ele>
        <time>2010-01-03T13:09:53Z</time>
      </trkpt>
      <trkpt lat="46.26187" lon="6.86809">
        <ele>1729</ele>
        <time>2010-01-03T13:09:56Z</time>
      </trkpt>
      <trkpt lat="46.26195" lon="6.86802">
        <ele>1729</ele>
        <time>2010-01-03T13:10:00Z</time>
      </trkpt>
      <trkpt lat="46.26196" lon="6.86799">
        <ele>1729</ele>
        <time>2010-01-03T13:10:01Z</time>
      </trkpt>
      <trkpt lat="46.26197" lon="6.86795">
        <ele>1729</ele>
        <time>2010-01-03T13:10:02Z</time>
      </trkpt>
      <trkpt lat="46.26197" lon="6.86792">
        <ele>1729</ele>
        <time>2010-01-03T13:10:03Z</time>
      </trkpt>
      <trkpt lat="46.26195" lon="6.86788">
        <ele>1730</ele>
        <time>2010-01-03T13:10:04Z</time>
      </trkpt>
      <trkpt lat="46.26192" lon="6.86787">
        <ele>1730</ele>
        <time>2010-01-03T13:10:06Z</time>
      </trkpt>
      <trkpt lat="46.26184" lon="6.86791">
        <ele>1730</ele>
        <time>2010-01-03T13:10:09Z</time>
      </trkpt>
      <trkpt lat="46.26176" lon="6.86796">
        <ele>1730</ele>
        <time>2010-01-03T13:10:13Z</time>
      </trkpt>
      <trkpt lat="46.26176" lon="6.86797">
        <ele>1730</ele>
        <time>2010-01-03T13:10:13Z</time>
      </trkpt>
      <trkpt lat="46.26167" lon="6.86813">
        <ele>1730</ele>
        <time>2010-01-03T13:10:18Z</time>
      </trkpt>
      <trkpt lat="46.26161" lon="6.86838">
        <ele>1737</ele>
        <time>2010-01-03T13:10:26Z</time>
      </trkpt>
      <trkpt lat="46.26155" lon="6.86863">
        <ele>1744</ele>
        <time>2010-01-03T13:10:33Z</time>
      </trkpt>
      <trkpt lat="46.26151" lon="6.86883">
        <ele>1744</ele>
        <time>2010-01-03T13:10:39Z</time>
      </trkpt>
      <trkpt lat="46.26146" lon="6.86914">
        <ele>1741</ele>
        <time>2010-01-03T13:10:48Z</time>
      </trkpt>
      <trkpt lat="46.26143" lon="6.86926">
        <ele>1738</ele>
        <time>2010-01-03T13:10:51Z</time>
      </trkpt>
      <trkpt lat="46.26141" lon="6.86931">
        <ele>1738</ele>
        <time>2010-01-03T13:10:53Z</time>
      </trkpt>
      <trkpt lat="46.26137" lon="6.86941">
        <ele>1740</ele>
        <time>2010-01-03T13:10:56Z</time>
      </trkpt>
      <trkpt lat="46.26132" lon="6.86948">
        <ele>1740</ele>
        <time>2010-01-03T13:10:59Z</time>
      </trkpt>
      <trkpt lat="46.26122" lon="6.86963">
        <ele>1741</ele>
        <time>2010-01-03T13:11:04Z</time>
      </trkpt>
      <trkpt lat="46.26109" lon="6.86982">
        <ele>1743</ele>
        <time>2010-01-03T13:11:12Z</time>
      </trkpt>
      <trkpt lat="46.26104" lon="6.8699">
        <ele>1744</ele>
        <time>2010-01-03T13:11:15Z</time>
      </trkpt>
      <trkpt lat="46.26096" lon="6.87001">
        <ele>1742</ele>
        <time>2010-01-03T13:11:19Z</time>
      </trkpt>
      <trkpt lat="46.26088" lon="6.87012">
        <ele>1742</ele>
        <time>2010-01-03T13:11:24Z</time>
      </trkpt>
      <trkpt lat="46.2608" lon="6.87025">
        <ele>1752</ele>
        <time>2010-01-03T13:11:29Z</time>
      </trkpt>
      <trkpt lat="46.26075" lon="6.87031">
        <ele>1752</ele>
        <time>2010-01-03T13:11:31Z</time>
      </trkpt>
      <trkpt lat="46.26072" lon="6.87036">
        <ele>1752</ele>
        <time>2010-01-03T13:11:33Z</time>
      </trkpt>
      <trkpt lat="46.26068" lon="6.87042">
        <ele>1752</ele>
        <time>2010-01-03T13:11:35Z</time>
      </trkpt>
      <trkpt lat="46.26064" lon="6.87047">
        <ele>1752</ele>
        <time>2010-01-03T13:11:37Z</time>
      </trkpt>
      <trkpt lat="46.2606" lon="6.87051">
        <ele>1752</ele>
        <time>2010-01-03T13:11:39Z</time>
      </trkpt>
      <trkpt lat="46.26052" lon="6.87059">
        <ele>1752</ele>
        <time>2010-01-03T13:11:43Z</time>
      </trkpt>
      <trkpt lat="46.26045" lon="6.87066">
        <ele>1753</ele>
        <time>2010-01-03T13:11:47Z</time>
      </trkpt>
      <trkpt lat="46.26036" lon="6.87073">
        <ele>1754</ele>
        <time>2010-01-03T13:11:51Z</time>
      </trkpt>
      <trkpt lat="46.26028" lon="6.87078">
        <ele>1756</ele>
        <time>2010-01-03T13:11:54Z</time>
      </trkpt>
      <trkpt lat="46.26019" lon="6.87081">
        <ele>1757</ele>
        <time>2010-01-03T13:11:58Z</time>
      </trkpt>
      <trkpt lat="46.26008" lon="6.87083">
        <ele>1759</ele>
        <time>2010-01-03T13:12:02Z</time>
      </trkpt>
      <trkpt lat="46.25998" lon="6.87082">
        <ele>1761</ele>
        <time>2010-01-03T13:12:06Z</time>
      </trkpt>
      <trkpt lat="46.25991" lon="6.87078">
        <ele>1765</ele>
        <time>2010-01-03T13:12:09Z</time>
      </trkpt>
      <trkpt lat="46.25982" lon="6.8707">
        <ele>1768</ele>
        <time>2010-01-03T13:12:14Z</time>
      </trkpt>
      <trkpt lat="46.25971" lon="6.87064">
        <ele>1770</ele>
        <time>2010-01-03T13:12:18Z</time>
      </trkpt>
      <trkpt lat="46.25961" lon="6.87065">
        <ele>1771</ele>
        <time>2010-01-03T13:12:22Z</time>
      </trkpt>
      <trkpt lat="46.25956" lon="6.87067">
        <ele>1771</ele>
        <time>2010-01-03T13:12:24Z</time>
      </trkpt>
      <trkpt lat="46.25949" lon="6.87072">
        <ele>1772</ele>
        <time>2010-01-03T13:12:28Z</time>
      </trkpt>
      <trkpt lat="46.25945" lon="6.87078">
        <ele>1772</ele>
        <time>2010-01-03T13:12:30Z</time>
      </trkpt>
      <trkpt lat="46.25943" lon="6.87084">
        <ele>1767</ele>
        <time>2010-01-03T13:12:31Z</time>
      </trkpt>
      <trkpt lat="46.25943" lon="6.8709">
        <ele>1767</ele>
        <time>2010-01-03T13:12:33Z</time>
      </trkpt>
      <trkpt lat="46.25943" lon="6.87095">
        <ele>1767</ele>
        <time>2010-01-03T13:12:35Z</time>
      </trkpt>
      <trkpt lat="46.25946" lon="6.87101">
        <ele>1766</ele>
        <time>2010-01-03T13:12:37Z</time>
      </trkpt>
      <trkpt lat="46.2595" lon="6.87108">
        <ele>1766</ele>
        <time>2010-01-03T13:12:39Z</time>
      </trkpt>
      <trkpt lat="46.2595" lon="6.87109">
        <ele>1766</ele>
        <time>2010-01-03T13:12:39Z</time>
      </trkpt>
      <trkpt lat="46.25957" lon="6.87123">
        <ele>1765</ele>
        <time>2010-01-03T13:12:44Z</time>
      </trkpt>
      <trkpt lat="46.25962" lon="6.87135">
        <ele>1764</ele>
        <time>2010-01-03T13:12:48Z</time>
      </trkpt>
      <trkpt lat="46.25963" lon="6.87146">
        <ele>1764</ele>
        <time>2010-01-03T13:12:51Z</time>
      </trkpt>
      <trkpt lat="46.25961" lon="6.8715">
        <ele>1764</ele>
        <time>2010-01-03T13:12:52Z</time>
      </trkpt>
      <trkpt lat="46.25958" lon="6.87154">
        <ele>1764</ele>
        <time>2010-01-03T13:12:54Z</time>
      </trkpt>
      <trkpt lat="46.25954" lon="6.87156">
        <ele>1765</ele>
        <time>2010-01-03T13:12:56Z</time>
      </trkpt>
      <trkpt lat="46.2595" lon="6.87158">
        <ele>1765</ele>
        <time>2010-01-03T13:12:58Z</time>
      </trkpt>
      <trkpt lat="46.25945" lon="6.87161">
        <ele>1766</ele>
        <time>2010-01-03T13:13:00Z</time>
      </trkpt>
      <trkpt lat="46.25942" lon="6.87162">
        <ele>1766</ele>
        <time>2010-01-03T13:13:01Z</time>
      </trkpt>
      <trkpt lat="46.25938" lon="6.87164">
        <ele>1767</ele>
        <time>2010-01-03T13:13:03Z</time>
      </trkpt>
      <trkpt lat="46.25936" lon="6.87165">
        <ele>1767</ele>
        <time>2010-01-03T13:13:03Z</time>
      </trkpt>
      <trkpt lat="46.25924" lon="6.87168">
        <ele>1769</ele>
        <time>2010-01-03T13:13:08Z</time>
      </trkpt>
      <trkpt lat="46.25915" lon="6.8717">
        <ele>1773</ele>
        <time>2010-01-03T13:13:12Z</time>
      </trkpt>
      <trkpt lat="46.25908" lon="6.87169">
        <ele>1774</ele>
        <time>2010-01-03T13:13:15Z</time>
      </trkpt>
      <trkpt lat="46.25899" lon="6.87167">
        <ele>1777</ele>
        <time>2010-01-03T13:13:18Z</time>
      </trkpt>
      <trkpt lat="46.25889" lon="6.87167">
        <ele>1780</ele>
        <time>2010-01-03T13:13:22Z</time>
      </trkpt>
      <trkpt lat="46.25879" lon="6.87169">
        <ele>1781</ele>
        <time>2010-01-03T13:13:26Z</time>
      </trkpt>
      <trkpt lat="46.25873" lon="6.87173">
        <ele>1782</ele>
        <time>2010-01-03T13:13:29Z</time>
      </trkpt>
      <trkpt lat="46.2587" lon="6.87179">
        <ele>1783</ele>
        <time>2010-01-03T13:13:31Z</time>
      </trkpt>
      <trkpt lat="46.25869" lon="6.87179">
        <ele>1783</ele>
        <time>2010-01-03T13:13:31Z</time>
      </trkpt>
      <trkpt lat="46.25867" lon="6.87193">
        <ele>1783</ele>
        <time>2010-01-03T13:13:35Z</time>
      </trkpt>
      <trkpt lat="46.25866" lon="6.8721">
        <ele>1783</ele>
        <time>2010-01-03T13:13:40Z</time>
      </trkpt>
      <trkpt lat="46.25866" lon="6.8721">
        <ele>1783</ele>
        <time>2010-01-03T13:13:40Z</time>
      </trkpt>
      <trkpt lat="46.25861" lon="6.87234">
        <ele>1784</ele>
        <time>2010-01-03T13:13:47Z</time>
      </trkpt>
      <trkpt lat="46.25851" lon="6.87258">
        <ele>1786</ele>
        <time>2010-01-03T13:13:55Z</time>
      </trkpt>
      <trkpt lat="46.25841" lon="6.87283">
        <ele>1785</ele>
        <time>2010-01-03T13:14:03Z</time>
      </trkpt>
      <trkpt lat="46.25835" lon="6.87296">
        <ele>1786</ele>
        <time>2010-01-03T13:14:07Z</time>
      </trkpt>
      <trkpt lat="46.25829" lon="6.87305">
        <ele>1787</ele>
        <time>2010-01-03T13:14:10Z</time>
      </trkpt>
      <trkpt lat="46.25823" lon="6.87315">
        <ele>1787</ele>
        <time>2010-01-03T13:14:14Z</time>
      </trkpt>
      <trkpt lat="46.25818" lon="6.87304">
        <ele>1787</ele>
        <time>2010-01-03T13:14:18Z</time>
      </trkpt>
      <trkpt lat="46.25813" lon="6.87301">
        <ele>1787</ele>
        <time>2010-01-03T13:14:20Z</time>
      </trkpt>
      <trkpt lat="46.25809" lon="6.87298">
        <ele>1787</ele>
        <time>2010-01-03T13:14:22Z</time>
      </trkpt>
      <trkpt lat="46.25804" lon="6.873">
        <ele>1787</ele>
        <time>2010-01-03T13:14:24Z</time>
      </trkpt>
      <trkpt lat="46.25796" lon="6.87305">
        <ele>1786</ele>
        <time>2010-01-03T13:14:28Z</time>
      </trkpt>
      <trkpt lat="46.25788" lon="6.87311">
        <ele>1785</ele>
        <time>2010-01-03T13:14:31Z</time>
      </trkpt>
      <trkpt lat="46.25788" lon="6.87311">
        <ele>1785</ele>
        <time>2010-01-03T13:14:31Z</time>
      </trkpt>
      <trkpt lat="46.25778" lon="6.87317">
        <ele>1784</ele>
        <time>2010-01-03T13:14:35Z</time>
      </trkpt>
      <trkpt lat="46.25766" lon="6.87322">
        <ele>1782</ele>
        <time>2010-01-03T13:14:40Z</time>
      </trkpt>
      <trkpt lat="46.25758" lon="6.87322">
        <ele>1781</ele>
        <time>2010-01-03T13:14:44Z</time>
      </trkpt>
      <trkpt lat="46.25755" lon="6.87325">
        <ele>1780</ele>
        <time>2010-01-03T13:14:45Z</time>
      </trkpt>
      <trkpt lat="46.25754" lon="6.87325">
        <ele>1780</ele>
        <time>2010-01-03T13:14:45Z</time>
      </trkpt>
      <trkpt lat="46.25749" lon="6.87328">
        <ele>1777</ele>
        <time>2010-01-03T13:14:48Z</time>
      </trkpt>
      <trkpt lat="46.25745" lon="6.87331">
        <ele>1777</ele>
        <time>2010-01-03T13:14:49Z</time>
      </trkpt>
      <trkpt lat="46.25743" lon="6.87332">
        <ele>1777</ele>
        <time>2010-01-03T13:14:50Z</time>
      </trkpt>
      <trkpt lat="46.25741" lon="6.87332">
        <ele>1777</ele>
        <time>2010-01-03T13:14:51Z</time>
      </trkpt>
      <trkpt lat="46.25738" lon="6.87335">
        <ele>1772</ele>
        <time>2010-01-03T13:14:53Z</time>
      </trkpt>
      <trkpt lat="46.25734" lon="6.87339">
        <ele>1771</ele>
        <time>2010-01-03T13:14:54Z</time>
      </trkpt>
      <trkpt lat="46.25726" lon="6.87339">
        <ele>1769</ele>
        <time>2010-01-03T13:14:58Z</time>
      </trkpt>
      <trkpt lat="46.2572" lon="6.87338">
        <ele>1768</ele>
        <time>2010-01-03T13:15:00Z</time>
      </trkpt>
      <trkpt lat="46.25715" lon="6.8733">
        <ele>1774</ele>
        <time>2010-01-03T13:15:03Z</time>
      </trkpt>
      <trkpt lat="46.25712" lon="6.87326">
        <ele>1774</ele>
        <time>2010-01-03T13:15:05Z</time>
      </trkpt>
      <trkpt lat="46.25709" lon="6.87324">
        <ele>1774</ele>
        <time>2010-01-03T13:15:06Z</time>
      </trkpt>
      <trkpt lat="46.25704" lon="6.87322">
        <ele>1773</ele>
        <time>2010-01-03T13:15:08Z</time>
      </trkpt>
      <trkpt lat="46.257" lon="6.8732">
        <ele>1773</ele>
        <time>2010-01-03T13:15:10Z</time>
      </trkpt>
      <trkpt lat="46.25694" lon="6.87317">
        <ele>1772</ele>
        <time>2010-01-03T13:15:12Z</time>
      </trkpt>
      <trkpt lat="46.25686" lon="6.87315">
        <ele>1771</ele>
        <time>2010-01-03T13:15:15Z</time>
      </trkpt>
      <trkpt lat="46.2568" lon="6.87313">
        <ele>1770</ele>
        <time>2010-01-03T13:15:18Z</time>
      </trkpt>
      <trkpt lat="46.2567" lon="6.87309">
        <ele>1770</ele>
        <time>2010-01-03T13:15:22Z</time>
      </trkpt>
      <trkpt lat="46.25664" lon="6.8731">
        <ele>1763</ele>
        <time>2010-01-03T13:15:24Z</time>
      </trkpt>
      <trkpt lat="46.25655" lon="6.8731">
        <ele>1763</ele>
        <time>2010-01-03T13:15:28Z</time>
      </trkpt>
      <trkpt lat="46.25648" lon="6.87313">
        <ele>1762</ele>
        <time>2010-01-03T13:15:31Z</time>
      </trkpt>
      <trkpt lat="46.25643" lon="6.87313">
        <ele>1762</ele>
        <time>2010-01-03T13:15:33Z</time>
      </trkpt>
      <trkpt lat="46.25637" lon="6.87313">
        <ele>1762</ele>
        <time>2010-01-03T13:15:35Z</time>
      </trkpt>
      <trkpt lat="46.2563" lon="6.87312">
        <ele>1762</ele>
        <time>2010-01-03T13:15:38Z</time>
      </trkpt>
      <trkpt lat="46.25625" lon="6.87312">
        <ele>1761</ele>
        <time>2010-01-03T13:15:40Z</time>
      </trkpt>
      <trkpt lat="46.25618" lon="6.87316">
        <ele>1760</ele>
        <time>2010-01-03T13:15:43Z</time>
      </trkpt>
      <trkpt lat="46.25612" lon="6.87317">
        <ele>1760</ele>
        <time>2010-01-03T13:15:46Z</time>
      </trkpt>
      <trkpt lat="46.25604" lon="6.87318">
        <ele>1759</ele>
        <time>2010-01-03T13:15:49Z</time>
      </trkpt>
      <trkpt lat="46.25589" lon="6.87312">
        <ele>1758</ele>
        <time>2010-01-03T13:15:55Z</time>
      </trkpt>
      <trkpt lat="46.25583" lon="6.87308">
        <ele>1754</ele>
        <time>2010-01-03T13:15:58Z</time>
      </trkpt>
      <trkpt lat="46.25579" lon="6.87307">
        <ele>1754</ele>
        <time>2010-01-03T13:15:59Z</time>
      </trkpt>
      <trkpt lat="46.25564" lon="6.87306">
        <ele>1753</ele>
        <time>2010-01-03T13:16:05Z</time>
      </trkpt>
      <trkpt lat="46.25559" lon="6.87306">
        <ele>1753</ele>
        <time>2010-01-03T13:16:07Z</time>
      </trkpt>
      <trkpt lat="46.25553" lon="6.87305">
        <ele>1753</ele>
        <time>2010-01-03T13:16:10Z</time>
      </trkpt>
      <trkpt lat="46.25544" lon="6.87303">
        <ele>1753</ele>
        <time>2010-01-03T13:16:13Z</time>
      </trkpt>
      <trkpt lat="46.25538" lon="6.873">
        <ele>1752</ele>
        <time>2010-01-03T13:16:16Z</time>
      </trkpt>
      <trkpt lat="46.25531" lon="6.873">
        <ele>1752</ele>
        <time>2010-01-03T13:16:19Z</time>
      </trkpt>
      <trkpt lat="46.25524" lon="6.873">
        <ele>1752</ele>
        <time>2010-01-03T13:16:21Z</time>
      </trkpt>
      <trkpt lat="46.25517" lon="6.87299">
        <ele>1751</ele>
        <time>2010-01-03T13:16:24Z</time>
      </trkpt>
      <trkpt lat="46.25508" lon="6.87303">
        <ele>1750</ele>
        <time>2010-01-03T13:16:28Z</time>
      </trkpt>
      <trkpt lat="46.25503" lon="6.87304">
        <ele>1750</ele>
        <time>2010-01-03T13:16:30Z</time>
      </trkpt>
      <trkpt lat="46.25498" lon="6.87306">
        <ele>1746</ele>
        <time>2010-01-03T13:16:32Z</time>
      </trkpt>
      <trkpt lat="46.25493" lon="6.87306">
        <ele>1746</ele>
        <time>2010-01-03T13:16:34Z</time>
      </trkpt>
      <trkpt lat="46.25483" lon="6.87308">
        <ele>1746</ele>
        <time>2010-01-03T13:16:38Z</time>
      </trkpt>
      <trkpt lat="46.25472" lon="6.87311">
        <ele>1746</ele>
        <time>2010-01-03T13:16:43Z</time>
      </trkpt>
      <trkpt lat="46.25466" lon="6.87312">
        <ele>1746</ele>
        <time>2010-01-03T13:16:45Z</time>
      </trkpt>
      <trkpt lat="46.25458" lon="6.87315">
        <ele>1746</ele>
        <time>2010-01-03T13:16:49Z</time>
      </trkpt>
      <trkpt lat="46.25444" lon="6.87316">
        <ele>1745</ele>
        <time>2010-01-03T13:16:54Z</time>
      </trkpt>
      <trkpt lat="46.25436" lon="6.87318">
        <ele>1744</ele>
        <time>2010-01-03T13:16:57Z</time>
      </trkpt>
      <trkpt lat="46.25415" lon="6.87327">
        <ele>1739</ele>
        <time>2010-01-03T13:17:06Z</time>
      </trkpt>
      <trkpt lat="46.25405" lon="6.87329">
        <ele>1740</ele>
        <time>2010-01-03T13:17:10Z</time>
      </trkpt>
      <trkpt lat="46.25395" lon="6.87331">
        <ele>1740</ele>
        <time>2010-01-03T13:17:14Z</time>
      </trkpt>
      <trkpt lat="46.25388" lon="6.87327">
        <ele>1740</ele>
        <time>2010-01-03T13:17:17Z</time>
      </trkpt>
      <trkpt lat="46.2538" lon="6.87329">
        <ele>1740</ele>
        <time>2010-01-03T13:17:20Z</time>
      </trkpt>
      <trkpt lat="46.25374" lon="6.87326">
        <ele>1740</ele>
        <time>2010-01-03T13:17:23Z</time>
      </trkpt>
      <trkpt lat="46.25368" lon="6.87326">
        <ele>1740</ele>
        <time>2010-01-03T13:17:26Z</time>
      </trkpt>
      <trkpt lat="46.25358" lon="6.87324">
        <ele>1739</ele>
        <time>2010-01-03T13:17:29Z</time>
      </trkpt>
      <trkpt lat="46.25351" lon="6.87324">
        <ele>1738</ele>
        <time>2010-01-03T13:17:32Z</time>
      </trkpt>
      <trkpt lat="46.25347" lon="6.87323">
        <ele>1738</ele>
        <time>2010-01-03T13:17:34Z</time>
      </trkpt>
      <trkpt lat="46.25339" lon="6.87322">
        <ele>1737</ele>
        <time>2010-01-03T13:17:37Z</time>
      </trkpt>
      <trkpt lat="46.25333" lon="6.8732">
        <ele>1737</ele>
        <time>2010-01-03T13:17:40Z</time>
      </trkpt>
      <trkpt lat="46.25323" lon="6.87311">
        <ele>1733</ele>
        <time>2010-01-03T13:17:44Z</time>
      </trkpt>
      <trkpt lat="46.25316" lon="6.87311">
        <ele>1733</ele>
        <time>2010-01-03T13:17:47Z</time>
      </trkpt>
      <trkpt lat="46.25307" lon="6.87307">
        <ele>1732</ele>
        <time>2010-01-03T13:17:51Z</time>
      </trkpt>
      <trkpt lat="46.25299" lon="6.87307">
        <ele>1732</ele>
        <time>2010-01-03T13:17:54Z</time>
      </trkpt>
      <trkpt lat="46.25294" lon="6.87306">
        <ele>1731</ele>
        <time>2010-01-03T13:17:56Z</time>
      </trkpt>
      <trkpt lat="46.2528" lon="6.873">
        <ele>1730</ele>
        <time>2010-01-03T13:18:02Z</time>
      </trkpt>
      <trkpt lat="46.2527" lon="6.87297">
        <ele>1730</ele>
        <time>2010-01-03T13:18:06Z</time>
      </trkpt>
      <trkpt lat="46.25261" lon="6.87294">
        <ele>1729</ele>
        <time>2010-01-03T13:18:10Z</time>
      </trkpt>
      <trkpt lat="46.25252" lon="6.8729">
        <ele>1729</ele>
        <time>2010-01-03T13:18:13Z</time>
      </trkpt>
      <trkpt lat="46.25244" lon="6.87289">
        <ele>1722</ele>
        <time>2010-01-03T13:18:17Z</time>
      </trkpt>
      <trkpt lat="46.25234" lon="6.87292">
        <ele>1721</ele>
        <time>2010-01-03T13:18:21Z</time>
      </trkpt>
      <trkpt lat="46.25226" lon="6.87298">
        <ele>1721</ele>
        <time>2010-01-03T13:18:24Z</time>
      </trkpt>
      <trkpt lat="46.25217" lon="6.87304">
        <ele>1721</ele>
        <time>2010-01-03T13:18:28Z</time>
      </trkpt>
      <trkpt lat="46.25208" lon="6.87313">
        <ele>1720</ele>
        <time>2010-01-03T13:18:33Z</time>
      </trkpt>
      <trkpt lat="46.25198" lon="6.87321">
        <ele>1720</ele>
        <time>2010-01-03T13:18:37Z</time>
      </trkpt>
      <trkpt lat="46.25193" lon="6.87324">
        <ele>1719</ele>
        <time>2010-01-03T13:18:39Z</time>
      </trkpt>
      <trkpt lat="46.25188" lon="6.87325">
        <ele>1719</ele>
        <time>2010-01-03T13:18:41Z</time>
      </trkpt>
      <trkpt lat="46.25179" lon="6.87328">
        <ele>1718</ele>
        <time>2010-01-03T13:18:45Z</time>
      </trkpt>
      <trkpt lat="46.25171" lon="6.87328">
        <ele>1717</ele>
        <time>2010-01-03T13:18:48Z</time>
      </trkpt>
      <trkpt lat="46.2516" lon="6.87325">
        <ele>1712</ele>
        <time>2010-01-03T13:18:53Z</time>
      </trkpt>
      <trkpt lat="46.2515" lon="6.8732">
        <ele>1710</ele>
        <time>2010-01-03T13:18:57Z</time>
      </trkpt>
      <trkpt lat="46.2514" lon="6.87318">
        <ele>1709</ele>
        <time>2010-01-03T13:19:01Z</time>
      </trkpt>
      <trkpt lat="46.25132" lon="6.87314">
        <ele>1707</ele>
        <time>2010-01-03T13:19:05Z</time>
      </trkpt>
      <trkpt lat="46.25124" lon="6.87311">
        <ele>1706</ele>
        <time>2010-01-03T13:19:08Z</time>
      </trkpt>
      <trkpt lat="46.2512" lon="6.87304">
        <ele>1706</ele>
        <time>2010-01-03T13:19:10Z</time>
      </trkpt>
      <trkpt lat="46.2511" lon="6.87281">
        <ele>1704</ele>
        <time>2010-01-03T13:19:18Z</time>
      </trkpt>
      <trkpt lat="46.25103" lon="6.87253">
        <ele>1702</ele>
        <time>2010-01-03T13:19:26Z</time>
      </trkpt>
      <trkpt lat="46.25102" lon="6.87238">
        <ele>1698</ele>
        <time>2010-01-03T13:19:30Z</time>
      </trkpt>
      <trkpt lat="46.25101" lon="6.87226">
        <ele>1697</ele>
        <time>2010-01-03T13:19:34Z</time>
      </trkpt>
      <trkpt lat="46.25098" lon="6.87221">
        <ele>1697</ele>
        <time>2010-01-03T13:19:35Z</time>
      </trkpt>
      <trkpt lat="46.25096" lon="6.87215">
        <ele>1696</ele>
        <time>2010-01-03T13:19:37Z</time>
      </trkpt>
      <trkpt lat="46.25092" lon="6.87212">
        <ele>1696</ele>
        <time>2010-01-03T13:19:39Z</time>
      </trkpt>
      <trkpt lat="46.25089" lon="6.87207">
        <ele>1695</ele>
        <time>2010-01-03T13:19:41Z</time>
      </trkpt>
      <trkpt lat="46.25087" lon="6.87201">
        <ele>1695</ele>
        <time>2010-01-03T13:19:42Z</time>
      </trkpt>
      <trkpt lat="46.25088" lon="6.87193">
        <ele>1693</ele>
        <time>2010-01-03T13:19:45Z</time>
      </trkpt>
      <trkpt lat="46.25088" lon="6.87193">
        <ele>1693</ele>
        <time>2010-01-03T13:19:45Z</time>
      </trkpt>
      <trkpt lat="46.25088" lon="6.87186">
        <ele>1692</ele>
        <time>2010-01-03T13:19:46Z</time>
      </trkpt>
      <trkpt lat="46.25087" lon="6.87185">
        <ele>1692</ele>
        <time>2010-01-03T13:19:47Z</time>
      </trkpt>
      <trkpt lat="46.25088" lon="6.87179">
        <ele>1690</ele>
        <time>2010-01-03T13:19:49Z</time>
      </trkpt>
      <trkpt lat="46.25088" lon="6.87178">
        <ele>1690</ele>
        <time>2010-01-03T13:19:49Z</time>
      </trkpt>
      <trkpt lat="46.25089" lon="6.87177">
        <ele>1690</ele>
        <time>2010-01-03T13:19:49Z</time>
      </trkpt>
      <trkpt lat="46.2509" lon="6.87176">
        <ele>1690</ele>
        <time>2010-01-03T13:19:50Z</time>
      </trkpt>
      <trkpt lat="46.25094" lon="6.87169">
        <ele>1690</ele>
        <time>2010-01-03T13:19:52Z</time>
      </trkpt>
      <trkpt lat="46.25104" lon="6.87157">
        <ele>1687</ele>
        <time>2010-01-03T13:19:57Z</time>
      </trkpt>
      <trkpt lat="46.2511" lon="6.87153">
        <ele>1688</ele>
        <time>2010-01-03T13:20:00Z</time>
      </trkpt>
      <trkpt lat="46.25115" lon="6.87148">
        <ele>1688</ele>
        <time>2010-01-03T13:20:03Z</time>
      </trkpt>
      <trkpt lat="46.2512" lon="6.87144">
        <ele>1689</ele>
        <time>2010-01-03T13:20:05Z</time>
      </trkpt>
      <trkpt lat="46.25125" lon="6.87139">
        <ele>1689</ele>
        <time>2010-01-03T13:20:07Z</time>
      </trkpt>
      <trkpt lat="46.25123" lon="6.87127">
        <ele>1688</ele>
        <time>2010-01-03T13:20:11Z</time>
      </trkpt>
      <trkpt lat="46.25117" lon="6.8712">
        <ele>1687</ele>
        <time>2010-01-03T13:20:14Z</time>
      </trkpt>
      <trkpt lat="46.25108" lon="6.87106">
        <ele>1686</ele>
        <time>2010-01-03T13:20:19Z</time>
      </trkpt>
      <trkpt lat="46.25098" lon="6.87101">
        <ele>1684</ele>
        <time>2010-01-03T13:20:23Z</time>
      </trkpt>
      <trkpt lat="46.25083" lon="6.87096">
        <ele>1681</ele>
        <time>2010-01-03T13:20:29Z</time>
      </trkpt>
      <trkpt lat="46.2508" lon="6.87089">
        <ele>1676</ele>
        <time>2010-01-03T13:20:32Z</time>
      </trkpt>
      <trkpt lat="46.25073" lon="6.87083">
        <ele>1676</ele>
        <time>2010-01-03T13:20:35Z</time>
      </trkpt>
      <trkpt lat="46.25069" lon="6.87077">
        <ele>1676</ele>
        <time>2010-01-03T13:20:37Z</time>
      </trkpt>
      <trkpt lat="46.2506" lon="6.8707">
        <ele>1675</ele>
        <time>2010-01-03T13:20:41Z</time>
      </trkpt>
      <trkpt lat="46.2505" lon="6.87065">
        <ele>1674</ele>
        <time>2010-01-03T13:20:45Z</time>
      </trkpt>
      <trkpt lat="46.25034" lon="6.87051">
        <ele>1674</ele>
        <time>2010-01-03T13:20:53Z</time>
      </trkpt>
      <trkpt lat="46.25024" lon="6.87034">
        <ele>1674</ele>
        <time>2010-01-03T13:20:59Z</time>
      </trkpt>
      <trkpt lat="46.25005" lon="6.87008">
        <ele>1674</ele>
        <time>2010-01-03T13:21:10Z</time>
      </trkpt>
      <trkpt lat="46.24977" lon="6.86963">
        <ele>1673</ele>
        <time>2010-01-03T13:21:26Z</time>
      </trkpt>
      <trkpt lat="46.24962" lon="6.86938">
        <ele>1674</ele>
        <time>2010-01-03T13:21:36Z</time>
      </trkpt>
      <trkpt lat="46.2495" lon="6.8692">
        <ele>1672</ele>
        <time>2010-01-03T13:21:42Z</time>
      </trkpt>
      <trkpt lat="46.24943" lon="6.86904">
        <ele>1680</ele>
        <time>2010-01-03T13:21:48Z</time>
      </trkpt>
      <trkpt lat="46.24923" lon="6.8689">
        <ele>1678</ele>
        <time>2010-01-03T13:21:57Z</time>
      </trkpt>
      <trkpt lat="46.24901" lon="6.86877">
        <ele>1669</ele>
        <time>2010-01-03T13:22:06Z</time>
      </trkpt>
      <trkpt lat="46.2489" lon="6.86871">
        <ele>1669</ele>
        <time>2010-01-03T13:22:11Z</time>
      </trkpt>
      <trkpt lat="46.24884" lon="6.86862">
        <ele>1670</ele>
        <time>2010-01-03T13:22:14Z</time>
      </trkpt>
      <trkpt lat="46.24876" lon="6.86852">
        <ele>1670</ele>
        <time>2010-01-03T13:22:18Z</time>
      </trkpt>
      <trkpt lat="46.2487" lon="6.86853">
        <ele>1670</ele>
        <time>2010-01-03T13:22:21Z</time>
      </trkpt>
      <trkpt lat="46.24859" lon="6.86852">
        <ele>1670</ele>
        <time>2010-01-03T13:22:25Z</time>
      </trkpt>
      <trkpt lat="46.24849" lon="6.86853">
        <ele>1670</ele>
        <time>2010-01-03T13:22:29Z</time>
      </trkpt>
      <trkpt lat="46.24836" lon="6.86851">
        <ele>1671</ele>
        <time>2010-01-03T13:22:35Z</time>
      </trkpt>
      <trkpt lat="46.24808" lon="6.86838">
        <ele>1669</ele>
        <time>2010-01-03T13:22:46Z</time>
      </trkpt>
      <trkpt lat="46.24795" lon="6.86844">
        <ele>1669</ele>
        <time>2010-01-03T13:22:52Z</time>
      </trkpt>
      <trkpt lat="46.24782" lon="6.86842">
        <ele>1669</ele>
        <time>2010-01-03T13:22:57Z</time>
      </trkpt>
      <trkpt lat="46.24767" lon="6.86857">
        <ele>1669</ele>
        <time>2010-01-03T13:23:04Z</time>
      </trkpt>
      <trkpt lat="46.24755" lon="6.86863">
        <ele>1668</ele>
        <time>2010-01-03T13:23:09Z</time>
      </trkpt>
      <trkpt lat="46.24737" lon="6.86874">
        <ele>1663</ele>
        <time>2010-01-03T13:23:17Z</time>
      </trkpt>
      <trkpt lat="46.24728" lon="6.8688">
        <ele>1661</ele>
        <time>2010-01-03T13:23:21Z</time>
      </trkpt>
      <trkpt lat="46.24722" lon="6.86883">
        <ele>1661</ele>
        <time>2010-01-03T13:23:24Z</time>
      </trkpt>
      <trkpt lat="46.24711" lon="6.86881">
        <ele>1660</ele>
        <time>2010-01-03T13:23:28Z</time>
      </trkpt>
      <trkpt lat="46.24699" lon="6.8688">
        <ele>1660</ele>
        <time>2010-01-03T13:23:33Z</time>
      </trkpt>
      <trkpt lat="46.24688" lon="6.86868">
        <ele>1661</ele>
        <time>2010-01-03T13:23:38Z</time>
      </trkpt>
      <trkpt lat="46.24681" lon="6.86852">
        <ele>1662</ele>
        <time>2010-01-03T13:23:44Z</time>
      </trkpt>
      <trkpt lat="46.2467" lon="6.8683">
        <ele>1666</ele>
        <time>2010-01-03T13:23:51Z</time>
      </trkpt>
      <trkpt lat="46.24661" lon="6.86817">
        <ele>1654</ele>
        <time>2010-01-03T13:23:56Z</time>
      </trkpt>
      <trkpt lat="46.24648" lon="6.86791">
        <ele>1650</ele>
        <time>2010-01-03T13:24:05Z</time>
      </trkpt>
      <trkpt lat="46.24639" lon="6.8674">
        <ele>1651</ele>
        <time>2010-01-03T13:24:20Z</time>
      </trkpt>
      <trkpt lat="46.24637" lon="6.8673">
        <ele>1649</ele>
        <time>2010-01-03T13:24:22Z</time>
      </trkpt>
      <trkpt lat="46.24637" lon="6.86718">
        <ele>1648</ele>
        <time>2010-01-03T13:24:26Z</time>
      </trkpt>
      <trkpt lat="46.24637" lon="6.86674">
        <ele>1649</ele>
        <time>2010-01-03T13:24:38Z</time>
      </trkpt>
      <trkpt lat="46.24639" lon="6.86659">
        <ele>1649</ele>
        <time>2010-01-03T13:24:42Z</time>
      </trkpt>
      <trkpt lat="46.2464" lon="6.86642">
        <ele>1648</ele>
        <time>2010-01-03T13:24:47Z</time>
      </trkpt>
      <trkpt lat="46.24633" lon="6.86615">
        <ele>1645</ele>
        <time>2010-01-03T13:24:55Z</time>
      </trkpt>
      <trkpt lat="46.24631" lon="6.86601">
        <ele>1645</ele>
        <time>2010-01-03T13:24:59Z</time>
      </trkpt>
      <trkpt lat="46.24613" lon="6.86567">
        <ele>1642</ele>
        <time>2010-01-03T13:25:11Z</time>
      </trkpt>
      <trkpt lat="46.24604" lon="6.86555">
        <ele>1641</ele>
        <time>2010-01-03T13:25:16Z</time>
      </trkpt>
      <trkpt lat="46.24593" lon="6.8653">
        <ele>1641</ele>
        <time>2010-01-03T13:25:24Z</time>
      </trkpt>
      <trkpt lat="46.24576" lon="6.86497">
        <ele>1627</ele>
        <time>2010-01-03T13:25:35Z</time>
      </trkpt>
      <trkpt lat="46.24574" lon="6.86477">
        <ele>1622</ele>
        <time>2010-01-03T13:25:41Z</time>
      </trkpt>
      <trkpt lat="46.24575" lon="6.86468">
        <ele>1621</ele>
        <time>2010-01-03T13:25:44Z</time>
      </trkpt>
      <trkpt lat="46.24576" lon="6.86467">
        <ele>1621</ele>
        <time>2010-01-03T13:25:44Z</time>
      </trkpt>
      <trkpt lat="46.2458" lon="6.86455">
        <ele>1621</ele>
        <time>2010-01-03T13:25:47Z</time>
      </trkpt>
      <trkpt lat="46.24583" lon="6.86436">
        <ele>1625</ele>
        <time>2010-01-03T13:25:53Z</time>
      </trkpt>
      <trkpt lat="46.24583" lon="6.86419">
        <ele>1637</ele>
        <time>2010-01-03T13:25:58Z</time>
      </trkpt>
      <trkpt lat="46.24581" lon="6.86402">
        <ele>1628</ele>
        <time>2010-01-03T13:26:03Z</time>
      </trkpt>
      <trkpt lat="46.24582" lon="6.86387">
        <ele>1626</ele>
        <time>2010-01-03T13:26:07Z</time>
      </trkpt>
      <trkpt lat="46.24582" lon="6.86386">
        <ele>1625</ele>
        <time>2010-01-03T13:26:07Z</time>
      </trkpt>
      <trkpt lat="46.24586" lon="6.86375">
        <ele>1650</ele>
        <time>2010-01-03T13:26:10Z</time>
      </trkpt>
      <trkpt lat="46.2459" lon="6.86355">
        <ele>1650</ele>
        <time>2010-01-03T13:26:16Z</time>
      </trkpt>
      <trkpt lat="46.24592" lon="6.86347">
        <ele>1648</ele>
        <time>2010-01-03T13:26:18Z</time>
      </trkpt>
      <trkpt lat="46.24591" lon="6.86324">
        <ele>1649</ele>
        <time>2010-01-03T13:26:25Z</time>
      </trkpt>
      <trkpt lat="46.2459" lon="6.8631">
        <ele>1653</ele>
        <time>2010-01-03T13:26:29Z</time>
      </trkpt>
      <trkpt lat="46.2459" lon="6.86309">
        <ele>1653</ele>
        <time>2010-01-03T13:26:29Z</time>
      </trkpt>
      <trkpt lat="46.24591" lon="6.86297">
        <ele>1655</ele>
        <time>2010-01-03T13:26:32Z</time>
      </trkpt>
      <trkpt lat="46.24591" lon="6.86286">
        <ele>1655</ele>
        <time>2010-01-03T13:26:35Z</time>
      </trkpt>
      <trkpt lat="46.24591" lon="6.86285">
        <ele>1655</ele>
        <time>2010-01-03T13:26:36Z</time>
      </trkpt>
      <trkpt lat="46.2459" lon="6.86269">
        <ele>1653</ele>
        <time>2010-01-03T13:26:40Z</time>
      </trkpt>
      <trkpt lat="46.24589" lon="6.86237">
        <ele>1652</ele>
        <time>2010-01-03T13:26:49Z</time>
      </trkpt>
      <trkpt lat="46.2459" lon="6.86223">
        <ele>1655</ele>
        <time>2010-01-03T13:26:53Z</time>
      </trkpt>
      <trkpt lat="46.24591" lon="6.86203">
        <ele>1656</ele>
        <time>2010-01-03T13:26:59Z</time>
      </trkpt>
      <trkpt lat="46.24596" lon="6.86189">
        <ele>1656</ele>
        <time>2010-01-03T13:27:03Z</time>
      </trkpt>
      <trkpt lat="46.246" lon="6.86179">
        <ele>1655</ele>
        <time>2010-01-03T13:27:06Z</time>
      </trkpt>
      <trkpt lat="46.24602" lon="6.8617">
        <ele>1654</ele>
        <time>2010-01-03T13:27:09Z</time>
      </trkpt>
      <trkpt lat="46.24605" lon="6.86162">
        <ele>1655</ele>
        <time>2010-01-03T13:27:11Z</time>
      </trkpt>
      <trkpt lat="46.24608" lon="6.86157">
        <ele>1656</ele>
        <time>2010-01-03T13:27:13Z</time>
      </trkpt>
      <trkpt lat="46.24608" lon="6.86144">
        <ele>1657</ele>
        <time>2010-01-03T13:27:17Z</time>
      </trkpt>
      <trkpt lat="46.24608" lon="6.86143">
        <ele>1657</ele>
        <time>2010-01-03T13:27:17Z</time>
      </trkpt>
      <trkpt lat="46.24611" lon="6.86127">
        <ele>1658</ele>
        <time>2010-01-03T13:27:21Z</time>
      </trkpt>
      <trkpt lat="46.24616" lon="6.86119">
        <ele>1659</ele>
        <time>2010-01-03T13:27:24Z</time>
      </trkpt>
      <trkpt lat="46.24618" lon="6.86115">
        <ele>1659</ele>
        <time>2010-01-03T13:27:26Z</time>
      </trkpt>
      <trkpt lat="46.24615" lon="6.8611">
        <ele>1658</ele>
        <time>2010-01-03T13:27:27Z</time>
      </trkpt>
      <trkpt lat="46.2461" lon="6.86104">
        <ele>1656</ele>
        <time>2010-01-03T13:27:30Z</time>
      </trkpt>
      <trkpt lat="46.2461" lon="6.86085">
        <ele>1655</ele>
        <time>2010-01-03T13:27:35Z</time>
      </trkpt>
      <trkpt lat="46.2461" lon="6.8607">
        <ele>1653</ele>
        <time>2010-01-03T13:27:39Z</time>
      </trkpt>
      <trkpt lat="46.24611" lon="6.86061">
        <ele>1654</ele>
        <time>2010-01-03T13:27:42Z</time>
      </trkpt>
      <trkpt lat="46.24605" lon="6.8603">
        <ele>1653</ele>
        <time>2010-01-03T13:27:51Z</time>
      </trkpt>
      <trkpt lat="46.24602" lon="6.86012">
        <ele>1650</ele>
        <time>2010-01-03T13:27:56Z</time>
      </trkpt>
      <trkpt lat="46.24601" lon="6.85993">
        <ele>1645</ele>
        <time>2010-01-03T13:28:01Z</time>
      </trkpt>
      <trkpt lat="46.24601" lon="6.85974">
        <ele>1646</ele>
        <time>2010-01-03T13:28:06Z</time>
      </trkpt>
      <trkpt lat="46.24605" lon="6.85958">
        <ele>1646</ele>
        <time>2010-01-03T13:28:11Z</time>
      </trkpt>
      <trkpt lat="46.24619" lon="6.85938">
        <ele>1646</ele>
        <time>2010-01-03T13:28:19Z</time>
      </trkpt>
      <trkpt lat="46.24627" lon="6.85926">
        <ele>1648</ele>
        <time>2010-01-03T13:28:24Z</time>
      </trkpt>
      <trkpt lat="46.24634" lon="6.85915">
        <ele>1642</ele>
        <time>2010-01-03T13:28:27Z</time>
      </trkpt>
      <trkpt lat="46.24646" lon="6.85896">
        <ele>1643</ele>
        <time>2010-01-03T13:28:35Z</time>
      </trkpt>
      <trkpt lat="46.24653" lon="6.85868">
        <ele>1641</ele>
        <time>2010-01-03T13:28:43Z</time>
      </trkpt>
      <trkpt lat="46.24659" lon="6.85852">
        <ele>1642</ele>
        <time>2010-01-03T13:28:48Z</time>
      </trkpt>
      <trkpt lat="46.24667" lon="6.8584">
        <ele>1650</ele>
        <time>2010-01-03T13:28:53Z</time>
      </trkpt>
      <trkpt lat="46.24674" lon="6.85834">
        <ele>1651</ele>
        <time>2010-01-03T13:28:56Z</time>
      </trkpt>
      <trkpt lat="46.2468" lon="6.85827">
        <ele>1646</ele>
        <time>2010-01-03T13:28:59Z</time>
      </trkpt>
      <trkpt lat="46.24686" lon="6.85814">
        <ele>1646</ele>
        <time>2010-01-03T13:29:03Z</time>
      </trkpt>
      <trkpt lat="46.24687" lon="6.85812">
        <ele>1645</ele>
        <time>2010-01-03T13:29:04Z</time>
      </trkpt>
      <trkpt lat="46.24691" lon="6.85795">
        <ele>1644</ele>
        <time>2010-01-03T13:29:09Z</time>
      </trkpt>
      <trkpt lat="46.24691" lon="6.85794">
        <ele>1643</ele>
        <time>2010-01-03T13:29:09Z</time>
      </trkpt>
      <trkpt lat="46.24692" lon="6.85779">
        <ele>1641</ele>
        <time>2010-01-03T13:29:14Z</time>
      </trkpt>
      <trkpt lat="46.24694" lon="6.85763">
        <ele>1639</ele>
        <time>2010-01-03T13:29:18Z</time>
      </trkpt>
      <trkpt lat="46.24694" lon="6.85762">
        <ele>1638</ele>
        <time>2010-01-03T13:29:18Z</time>
      </trkpt>
      <trkpt lat="46.24702" lon="6.8575">
        <ele>1639</ele>
        <time>2010-01-03T13:29:23Z</time>
      </trkpt>
      <trkpt lat="46.24716" lon="6.85739">
        <ele>1625</ele>
        <time>2010-01-03T13:29:29Z</time>
      </trkpt>
      <trkpt lat="46.24735" lon="6.8574">
        <ele>1631</ele>
        <time>2010-01-03T13:29:37Z</time>
      </trkpt>
      <trkpt lat="46.24756" lon="6.85745">
        <ele>1642</ele>
        <time>2010-01-03T13:29:45Z</time>
      </trkpt>
      <trkpt lat="46.24776" lon="6.85739">
        <ele>1642</ele>
        <time>2010-01-03T13:29:54Z</time>
      </trkpt>
      <trkpt lat="46.24786" lon="6.85729">
        <ele>1642</ele>
        <time>2010-01-03T13:29:58Z</time>
      </trkpt>
      <trkpt lat="46.24796" lon="6.8572">
        <ele>1642</ele>
        <time>2010-01-03T13:30:03Z</time>
      </trkpt>
      <trkpt lat="46.24796" lon="6.8572">
        <ele>1642</ele>
        <time>2010-01-03T13:30:03Z</time>
      </trkpt>
      <trkpt lat="46.24818" lon="6.85691">
        <ele>1639</ele>
        <time>2010-01-03T13:30:15Z</time>
      </trkpt>
      <trkpt lat="46.24822" lon="6.85674">
        <ele>1637</ele>
        <time>2010-01-03T13:30:20Z</time>
      </trkpt>
      <trkpt lat="46.24829" lon="6.85656">
        <ele>1628</ele>
        <time>2010-01-03T13:30:26Z</time>
      </trkpt>
      <trkpt lat="46.24836" lon="6.85637">
        <ele>1639</ele>
        <time>2010-01-03T13:30:31Z</time>
      </trkpt>
      <trkpt lat="46.24835" lon="6.85624">
        <ele>1637</ele>
        <time>2010-01-03T13:30:35Z</time>
      </trkpt>
      <trkpt lat="46.24842" lon="6.85598">
        <ele>1631</ele>
        <time>2010-01-03T13:30:43Z</time>
      </trkpt>
      <trkpt lat="46.24844" lon="6.8558">
        <ele>1620</ele>
        <time>2010-01-03T13:30:48Z</time>
      </trkpt>
      <trkpt lat="46.24847" lon="6.85561">
        <ele>1619</ele>
        <time>2010-01-03T13:30:53Z</time>
      </trkpt>
      <trkpt lat="46.24852" lon="6.85542">
        <ele>1617</ele>
        <time>2010-01-03T13:30:59Z</time>
      </trkpt>
      <trkpt lat="46.24856" lon="6.85529">
        <ele>1616</ele>
        <time>2010-01-03T13:31:03Z</time>
      </trkpt>
      <trkpt lat="46.24862" lon="6.85522">
        <ele>1615</ele>
        <time>2010-01-03T13:31:06Z</time>
      </trkpt>
      <trkpt lat="46.24873" lon="6.85515">
        <ele>1616</ele>
        <time>2010-01-03T13:31:11Z</time>
      </trkpt>
      <trkpt lat="46.24879" lon="6.85512">
        <ele>1616</ele>
        <time>2010-01-03T13:31:13Z</time>
      </trkpt>
      <trkpt lat="46.24883" lon="6.85501">
        <ele>1615</ele>
        <time>2010-01-03T13:31:16Z</time>
      </trkpt>
      <trkpt lat="46.24896" lon="6.85494">
        <ele>1602</ele>
        <time>2010-01-03T13:31:22Z</time>
      </trkpt>
      <trkpt lat="46.2491" lon="6.85486">
        <ele>1603</ele>
        <time>2010-01-03T13:31:28Z</time>
      </trkpt>
      <trkpt lat="46.24925" lon="6.85485">
        <ele>1607</ele>
        <time>2010-01-03T13:31:34Z</time>
      </trkpt>
      <trkpt lat="46.24944" lon="6.85488">
        <ele>1606</ele>
        <time>2010-01-03T13:31:42Z</time>
      </trkpt>
      <trkpt lat="46.24958" lon="6.85491">
        <ele>1607</ele>
        <time>2010-01-03T13:31:47Z</time>
      </trkpt>
      <trkpt lat="46.24975" lon="6.85493">
        <ele>1608</ele>
        <time>2010-01-03T13:31:54Z</time>
      </trkpt>
      <trkpt lat="46.24981" lon="6.85492">
        <ele>1609</ele>
        <time>2010-01-03T13:31:57Z</time>
      </trkpt>
      <trkpt lat="46.24991" lon="6.85489">
        <ele>1611</ele>
        <time>2010-01-03T13:32:00Z</time>
      </trkpt>
      <trkpt lat="46.24995" lon="6.85475">
        <ele>1607</ele>
        <time>2010-01-03T13:32:05Z</time>
      </trkpt>
      <trkpt lat="46.25" lon="6.85468">
        <ele>1610</ele>
        <time>2010-01-03T13:32:08Z</time>
      </trkpt>
      <trkpt lat="46.25002" lon="6.85453">
        <ele>1607</ele>
        <time>2010-01-03T13:32:12Z</time>
      </trkpt>
      <trkpt lat="46.2501" lon="6.85433">
        <ele>1602</ele>
        <time>2010-01-03T13:32:18Z</time>
      </trkpt>
      <trkpt lat="46.25019" lon="6.85414">
        <ele>1591</ele>
        <time>2010-01-03T13:32:25Z</time>
      </trkpt>
      <trkpt lat="46.25026" lon="6.85401">
        <ele>1590</ele>
        <time>2010-01-03T13:32:29Z</time>
      </trkpt>
      <trkpt lat="46.25046" lon="6.85385">
        <ele>1590</ele>
        <time>2010-01-03T13:32:38Z</time>
      </trkpt>
      <trkpt lat="46.25056" lon="6.85378">
        <ele>1590</ele>
        <time>2010-01-03T13:32:43Z</time>
      </trkpt>
      <trkpt lat="46.25068" lon="6.85376">
        <ele>1590</ele>
        <time>2010-01-03T13:32:48Z</time>
      </trkpt>
      <trkpt lat="46.2508" lon="6.85381">
        <ele>1591</ele>
        <time>2010-01-03T13:32:53Z</time>
      </trkpt>
      <trkpt lat="46.25081" lon="6.85381">
        <ele>1591</ele>
        <time>2010-01-03T13:32:53Z</time>
      </trkpt>
      <trkpt lat="46.25097" lon="6.85389">
        <ele>1596</ele>
        <time>2010-01-03T13:33:00Z</time>
      </trkpt>
      <trkpt lat="46.25101" lon="6.85391">
        <ele>1596</ele>
        <time>2010-01-03T13:33:02Z</time>
      </trkpt>
      <trkpt lat="46.25107" lon="6.85394">
        <ele>1596</ele>
        <time>2010-01-03T13:33:04Z</time>
      </trkpt>
      <trkpt lat="46.25112" lon="6.8539">
        <ele>1596</ele>
        <time>2010-01-03T13:33:06Z</time>
      </trkpt>
      <trkpt lat="46.25123" lon="6.85393">
        <ele>1596</ele>
        <time>2010-01-03T13:33:11Z</time>
      </trkpt>
      <trkpt lat="46.25132" lon="6.85392">
        <ele>1596</ele>
        <time>2010-01-03T13:33:15Z</time>
      </trkpt>
      <trkpt lat="46.25139" lon="6.85385">
        <ele>1596</ele>
        <time>2010-01-03T13:33:18Z</time>
      </trkpt>
      <trkpt lat="46.25141" lon="6.85374">
        <ele>1594</ele>
        <time>2010-01-03T13:33:21Z</time>
      </trkpt>
      <trkpt lat="46.25138" lon="6.85352">
        <ele>1591</ele>
        <time>2010-01-03T13:33:27Z</time>
      </trkpt>
      <trkpt lat="46.25128" lon="6.85335">
        <ele>1591</ele>
        <time>2010-01-03T13:33:33Z</time>
      </trkpt>
      <trkpt lat="46.25122" lon="6.85321">
        <ele>1580</ele>
        <time>2010-01-03T13:33:38Z</time>
      </trkpt>
      <trkpt lat="46.25111" lon="6.85305">
        <ele>1579</ele>
        <time>2010-01-03T13:33:44Z</time>
      </trkpt>
      <trkpt lat="46.25102" lon="6.85294">
        <ele>1579</ele>
        <time>2010-01-03T13:33:49Z</time>
      </trkpt>
      <trkpt lat="46.25091" lon="6.85281">
        <ele>1577</ele>
        <time>2010-01-03T13:33:55Z</time>
      </trkpt>
      <trkpt lat="46.25069" lon="6.8527">
        <ele>1573</ele>
        <time>2010-01-03T13:34:04Z</time>
      </trkpt>
      <trkpt lat="46.25052" lon="6.8527">
        <ele>1572</ele>
        <time>2010-01-03T13:34:11Z</time>
      </trkpt>
      <trkpt lat="46.2504" lon="6.85265">
        <ele>1570</ele>
        <time>2010-01-03T13:34:16Z</time>
      </trkpt>
      <trkpt lat="46.25024" lon="6.85264">
        <ele>1568</ele>
        <time>2010-01-03T13:34:22Z</time>
      </trkpt>
      <trkpt lat="46.25006" lon="6.85273">
        <ele>1567</ele>
        <time>2010-01-03T13:34:30Z</time>
      </trkpt>
      <trkpt lat="46.24977" lon="6.85303">
        <ele>1559</ele>
        <time>2010-01-03T13:34:44Z</time>
      </trkpt>
      <trkpt lat="46.24957" lon="6.85324">
        <ele>1559</ele>
        <time>2010-01-03T13:34:54Z</time>
      </trkpt>
      <trkpt lat="46.24947" lon="6.85345">
        <ele>1572</ele>
        <time>2010-01-03T13:35:01Z</time>
      </trkpt>
      <trkpt lat="46.24937" lon="6.85363">
        <ele>1574</ele>
        <time>2010-01-03T13:35:07Z</time>
      </trkpt>
      <trkpt lat="46.24922" lon="6.85371">
        <ele>1575</ele>
        <time>2010-01-03T13:35:13Z</time>
      </trkpt>
      <trkpt lat="46.24909" lon="6.8536">
        <ele>1563</ele>
        <time>2010-01-03T13:35:20Z</time>
      </trkpt>
      <trkpt lat="46.24892" lon="6.85346">
        <ele>1560</ele>
        <time>2010-01-03T13:35:27Z</time>
      </trkpt>
      <trkpt lat="46.24869" lon="6.85347">
        <ele>1558</ele>
        <time>2010-01-03T13:35:37Z</time>
      </trkpt>
      <trkpt lat="46.24839" lon="6.85359">
        <ele>1555</ele>
        <time>2010-01-03T13:35:49Z</time>
      </trkpt>
      <trkpt lat="46.24812" lon="6.85375">
        <ele>1547</ele>
        <time>2010-01-03T13:36:01Z</time>
      </trkpt>
      <trkpt lat="46.24791" lon="6.85402">
        <ele>1548</ele>
        <time>2010-01-03T13:36:12Z</time>
      </trkpt>
      <trkpt lat="46.24773" lon="6.85438">
        <ele>1564</ele>
        <time>2010-01-03T13:36:24Z</time>
      </trkpt>
      <trkpt lat="46.24769" lon="6.85464">
        <ele>1568</ele>
        <time>2010-01-03T13:36:32Z</time>
      </trkpt>
      <trkpt lat="46.24758" lon="6.85474">
        <ele>1567</ele>
        <time>2010-01-03T13:36:37Z</time>
      </trkpt>
      <trkpt lat="46.24746" lon="6.85485">
        <ele>1555</ele>
        <time>2010-01-03T13:36:43Z</time>
      </trkpt>
      <trkpt lat="46.24745" lon="6.85486">
        <ele>1555</ele>
        <time>2010-01-03T13:36:43Z</time>
      </trkpt>
      <trkpt lat="46.24727" lon="6.85498">
        <ele>1552</ele>
        <time>2010-01-03T13:36:51Z</time>
      </trkpt>
      <trkpt lat="46.24714" lon="6.85496">
        <ele>1548</ele>
        <time>2010-01-03T13:36:56Z</time>
      </trkpt>
      <trkpt lat="46.247" lon="6.85504">
        <ele>1555</ele>
        <time>2010-01-03T13:37:02Z</time>
      </trkpt>
      <trkpt lat="46.24699" lon="6.85504">
        <ele>1555</ele>
        <time>2010-01-03T13:37:03Z</time>
      </trkpt>
      <trkpt lat="46.24687" lon="6.85512">
        <ele>1552</ele>
        <time>2010-01-03T13:37:08Z</time>
      </trkpt>
      <trkpt lat="46.24677" lon="6.85525">
        <ele>1553</ele>
        <time>2010-01-03T13:37:13Z</time>
      </trkpt>
      <trkpt lat="46.24676" lon="6.85527">
        <ele>1553</ele>
        <time>2010-01-03T13:37:14Z</time>
      </trkpt>
      <trkpt lat="46.24667" lon="6.85549">
        <ele>1558</ele>
        <time>2010-01-03T13:37:21Z</time>
      </trkpt>
      <trkpt lat="46.24646" lon="6.85575">
        <ele>1545</ele>
        <time>2010-01-03T13:37:32Z</time>
      </trkpt>
      <trkpt lat="46.24631" lon="6.85584">
        <ele>1556</ele>
        <time>2010-01-03T13:37:39Z</time>
      </trkpt>
      <trkpt lat="46.2462" lon="6.85589">
        <ele>1553</ele>
        <time>2010-01-03T13:37:43Z</time>
      </trkpt>
      <trkpt lat="46.24601" lon="6.85591">
        <ele>1545</ele>
        <time>2010-01-03T13:37:51Z</time>
      </trkpt>
      <trkpt lat="46.24589" lon="6.85611">
        <ele>1550</ele>
        <time>2010-01-03T13:37:58Z</time>
      </trkpt>
      <trkpt lat="46.24584" lon="6.85624">
        <ele>1554</ele>
        <time>2010-01-03T13:38:02Z</time>
      </trkpt>
      <trkpt lat="46.2457" lon="6.85637">
        <ele>1537</ele>
        <time>2010-01-03T13:38:09Z</time>
      </trkpt>
      <trkpt lat="46.24558" lon="6.85654">
        <ele>1538</ele>
        <time>2010-01-03T13:38:16Z</time>
      </trkpt>
      <trkpt lat="46.24549" lon="6.85671">
        <ele>1556</ele>
        <time>2010-01-03T13:38:22Z</time>
      </trkpt>
      <trkpt lat="46.24535" lon="6.85683">
        <ele>1554</ele>
        <time>2010-01-03T13:38:28Z</time>
      </trkpt>
      <trkpt lat="46.24518" lon="6.85695">
        <ele>1552</ele>
        <time>2010-01-03T13:38:36Z</time>
      </trkpt>
      <trkpt lat="46.24501" lon="6.85703">
        <ele>1552</ele>
        <time>2010-01-03T13:38:43Z</time>
      </trkpt>
      <trkpt lat="46.24483" lon="6.85737">
        <ele>1537</ele>
        <time>2010-01-03T13:38:55Z</time>
      </trkpt>
      <trkpt lat="46.24482" lon="6.85741">
        <ele>1537</ele>
        <time>2010-01-03T13:38:56Z</time>
      </trkpt>
      <trkpt lat="46.24464" lon="6.85781">
        <ele>1540</ele>
        <time>2010-01-03T13:39:09Z</time>
      </trkpt>
      <trkpt lat="46.24449" lon="6.85828">
        <ele>1537</ele>
        <time>2010-01-03T13:39:24Z</time>
      </trkpt>
      <trkpt lat="46.24443" lon="6.85868">
        <ele>1546</ele>
        <time>2010-01-03T13:39:35Z</time>
      </trkpt>
      <trkpt lat="46.24435" lon="6.85888">
        <ele>1547</ele>
        <time>2010-01-03T13:39:41Z</time>
      </trkpt>
      <trkpt lat="46.24422" lon="6.85892">
        <ele>1544</ele>
        <time>2010-01-03T13:39:47Z</time>
      </trkpt>
      <trkpt lat="46.24404" lon="6.85896">
        <ele>1523</ele>
        <time>2010-01-03T13:39:54Z</time>
      </trkpt>
      <trkpt lat="46.24381" lon="6.85911">
        <ele>1518</ele>
        <time>2010-01-03T13:40:04Z</time>
      </trkpt>
      <trkpt lat="46.2437" lon="6.8593">
        <ele>1521</ele>
        <time>2010-01-03T13:40:11Z</time>
      </trkpt>
      <trkpt lat="46.24367" lon="6.85958">
        <ele>1522</ele>
        <time>2010-01-03T13:40:19Z</time>
      </trkpt>
      <trkpt lat="46.24361" lon="6.85975">
        <ele>1521</ele>
        <time>2010-01-03T13:40:24Z</time>
      </trkpt>
      <trkpt lat="46.24356" lon="6.8596">
        <ele>1520</ele>
        <time>2010-01-03T13:40:29Z</time>
      </trkpt>
      <trkpt lat="46.2435" lon="6.8593">
        <ele>1515</ele>
        <time>2010-01-03T13:40:37Z</time>
      </trkpt>
      <trkpt lat="46.2435" lon="6.85925">
        <ele>1514</ele>
        <time>2010-01-03T13:40:39Z</time>
      </trkpt>
      <trkpt lat="46.24356" lon="6.85889">
        <ele>1511</ele>
        <time>2010-01-03T13:40:49Z</time>
      </trkpt>
      <trkpt lat="46.24361" lon="6.85846">
        <ele>1508</ele>
        <time>2010-01-03T13:41:01Z</time>
      </trkpt>
      <trkpt lat="46.24362" lon="6.85845">
        <ele>1508</ele>
        <time>2010-01-03T13:41:01Z</time>
      </trkpt>
      <trkpt lat="46.24369" lon="6.85835">
        <ele>1509</ele>
        <time>2010-01-03T13:41:05Z</time>
      </trkpt>
      <trkpt lat="46.24375" lon="6.85826">
        <ele>1503</ele>
        <time>2010-01-03T13:41:09Z</time>
      </trkpt>
      <trkpt lat="46.2438" lon="6.85822">
        <ele>1503</ele>
        <time>2010-01-03T13:41:11Z</time>
      </trkpt>
      <trkpt lat="46.24381" lon="6.85811">
        <ele>1503</ele>
        <time>2010-01-03T13:41:14Z</time>
      </trkpt>
      <trkpt lat="46.24376" lon="6.85805">
        <ele>1501</ele>
        <time>2010-01-03T13:41:17Z</time>
      </trkpt>
      <trkpt lat="46.24368" lon="6.85815">
        <ele>1500</ele>
        <time>2010-01-03T13:41:21Z</time>
      </trkpt>
      <trkpt lat="46.2435" lon="6.85826">
        <ele>1497</ele>
        <time>2010-01-03T13:41:29Z</time>
      </trkpt>
      <trkpt lat="46.24334" lon="6.85826">
        <ele>1494</ele>
        <time>2010-01-03T13:41:35Z</time>
      </trkpt>
      <trkpt lat="46.24324" lon="6.85852">
        <ele>1488</ele>
        <time>2010-01-03T13:41:43Z</time>
      </trkpt>
      <trkpt lat="46.24311" lon="6.85882">
        <ele>1488</ele>
        <time>2010-01-03T13:41:53Z</time>
      </trkpt>
      <trkpt lat="46.24293" lon="6.85909">
        <ele>1486</ele>
        <time>2010-01-03T13:42:04Z</time>
      </trkpt>
      <trkpt lat="46.24285" lon="6.85903">
        <ele>1484</ele>
        <time>2010-01-03T13:42:07Z</time>
      </trkpt>
      <trkpt lat="46.24292" lon="6.8587">
        <ele>1484</ele>
        <time>2010-01-03T13:42:17Z</time>
      </trkpt>
      <trkpt lat="46.24299" lon="6.85849">
        <ele>1484</ele>
        <time>2010-01-03T13:42:23Z</time>
      </trkpt>
      <trkpt lat="46.243" lon="6.8583">
        <ele>1478</ele>
        <time>2010-01-03T13:42:28Z</time>
      </trkpt>
      <trkpt lat="46.24296" lon="6.85805">
        <ele>1476</ele>
        <time>2010-01-03T13:42:36Z</time>
      </trkpt>
      <trkpt lat="46.24294" lon="6.85795">
        <ele>1475</ele>
        <time>2010-01-03T13:42:38Z</time>
      </trkpt>
      <trkpt lat="46.24295" lon="6.85786">
        <ele>1474</ele>
        <time>2010-01-03T13:42:41Z</time>
      </trkpt>
      <trkpt lat="46.24307" lon="6.85779">
        <ele>1475</ele>
        <time>2010-01-03T13:42:46Z</time>
      </trkpt>
      <trkpt lat="46.24317" lon="6.85776">
        <ele>1476</ele>
        <time>2010-01-03T13:42:50Z</time>
      </trkpt>
      <trkpt lat="46.24328" lon="6.85772">
        <ele>1477</ele>
        <time>2010-01-03T13:42:55Z</time>
      </trkpt>
      <trkpt lat="46.24338" lon="6.85761">
        <ele>1487</ele>
        <time>2010-01-03T13:43:00Z</time>
      </trkpt>
      <trkpt lat="46.24348" lon="6.85747">
        <ele>1483</ele>
        <time>2010-01-03T13:43:05Z</time>
      </trkpt>
      <trkpt lat="46.24358" lon="6.85732">
        <ele>1485</ele>
        <time>2010-01-03T13:43:11Z</time>
      </trkpt>
      <trkpt lat="46.24364" lon="6.85722">
        <ele>1486</ele>
        <time>2010-01-03T13:43:15Z</time>
      </trkpt>
      <trkpt lat="46.24369" lon="6.85699">
        <ele>1484</ele>
        <time>2010-01-03T13:43:21Z</time>
      </trkpt>
      <trkpt lat="46.24378" lon="6.85688">
        <ele>1485</ele>
        <time>2010-01-03T13:43:26Z</time>
      </trkpt>
      <trkpt lat="46.24392" lon="6.85671">
        <ele>1488</ele>
        <time>2010-01-03T13:43:33Z</time>
      </trkpt>
      <trkpt lat="46.24403" lon="6.85643">
        <ele>1475</ele>
        <time>2010-01-03T13:43:42Z</time>
      </trkpt>
      <trkpt lat="46.2441" lon="6.85627">
        <ele>1472</ele>
        <time>2010-01-03T13:43:47Z</time>
      </trkpt>
      <trkpt lat="46.24418" lon="6.85613">
        <ele>1487</ele>
        <time>2010-01-03T13:43:53Z</time>
      </trkpt>
      <trkpt lat="46.24431" lon="6.85592">
        <ele>1482</ele>
        <time>2010-01-03T13:44:00Z</time>
      </trkpt>
      <trkpt lat="46.24431" lon="6.85592">
        <ele>1482</ele>
        <time>2010-01-03T13:44:00Z</time>
      </trkpt>
      <trkpt lat="46.24447" lon="6.85566">
        <ele>1472</ele>
        <time>2010-01-03T13:44:10Z</time>
      </trkpt>
      <trkpt lat="46.24457" lon="6.85551">
        <ele>1473</ele>
        <time>2010-01-03T13:44:16Z</time>
      </trkpt>
      <trkpt lat="46.24466" lon="6.85519">
        <ele>1471</ele>
        <time>2010-01-03T13:44:25Z</time>
      </trkpt>
      <trkpt lat="46.2447" lon="6.855">
        <ele>1461</ele>
        <time>2010-01-03T13:44:31Z</time>
      </trkpt>
      <trkpt lat="46.24474" lon="6.85486">
        <ele>1461</ele>
        <time>2010-01-03T13:44:35Z</time>
      </trkpt>
      <trkpt lat="46.24478" lon="6.85479">
        <ele>1461</ele>
        <time>2010-01-03T13:44:38Z</time>
      </trkpt>
      <trkpt lat="46.24479" lon="6.85477">
        <ele>1461</ele>
        <time>2010-01-03T13:44:38Z</time>
      </trkpt>
      <trkpt lat="46.24489" lon="6.85468">
        <ele>1461</ele>
        <time>2010-01-03T13:44:43Z</time>
      </trkpt>
      <trkpt lat="46.24498" lon="6.85446">
        <ele>1459</ele>
        <time>2010-01-03T13:44:50Z</time>
      </trkpt>
      <trkpt lat="46.245" lon="6.85428">
        <ele>1472</ele>
        <time>2010-01-03T13:44:55Z</time>
      </trkpt>
      <trkpt lat="46.24501" lon="6.85409">
        <ele>1466</ele>
        <time>2010-01-03T13:45:00Z</time>
      </trkpt>
      <trkpt lat="46.24502" lon="6.85383">
        <ele>1468</ele>
        <time>2010-01-03T13:45:07Z</time>
      </trkpt>
      <trkpt lat="46.24507" lon="6.85358">
        <ele>1463</ele>
        <time>2010-01-03T13:45:14Z</time>
      </trkpt>
      <trkpt lat="46.24509" lon="6.85339">
        <ele>1456</ele>
        <time>2010-01-03T13:45:20Z</time>
      </trkpt>
      <trkpt lat="46.24509" lon="6.85338">
        <ele>1455</ele>
        <time>2010-01-03T13:45:20Z</time>
      </trkpt>
      <trkpt lat="46.24521" lon="6.85308">
        <ele>1452</ele>
        <time>2010-01-03T13:45:30Z</time>
      </trkpt>
      <trkpt lat="46.24534" lon="6.85277">
        <ele>1450</ele>
        <time>2010-01-03T13:45:40Z</time>
      </trkpt>
      <trkpt lat="46.24551" lon="6.85262">
        <ele>1452</ele>
        <time>2010-01-03T13:45:48Z</time>
      </trkpt>
      <trkpt lat="46.24562" lon="6.85238">
        <ele>1441</ele>
        <time>2010-01-03T13:45:56Z</time>
      </trkpt>
      <trkpt lat="46.24568" lon="6.85225">
        <ele>1440</ele>
        <time>2010-01-03T13:46:00Z</time>
      </trkpt>
      <trkpt lat="46.24573" lon="6.85207">
        <ele>1436</ele>
        <time>2010-01-03T13:46:05Z</time>
      </trkpt>
      <trkpt lat="46.24575" lon="6.85205">
        <ele>1436</ele>
        <time>2010-01-03T13:46:06Z</time>
      </trkpt>
      <trkpt lat="46.24575" lon="6.85204">
        <ele>1436</ele>
        <time>2010-01-03T13:46:07Z</time>
      </trkpt>
      <trkpt lat="46.24606" lon="6.85166">
        <ele>1432</ele>
        <time>2010-01-03T13:46:23Z</time>
      </trkpt>
      <trkpt lat="46.24617" lon="6.85153">
        <ele>1431</ele>
        <time>2010-01-03T13:46:29Z</time>
      </trkpt>
      <trkpt lat="46.24618" lon="6.85151">
        <ele>1431</ele>
        <time>2010-01-03T13:46:29Z</time>
      </trkpt>
      <trkpt lat="46.24639" lon="6.85131">
        <ele>1430</ele>
        <time>2010-01-03T13:46:39Z</time>
      </trkpt>
      <trkpt lat="46.2464" lon="6.85131">
        <ele>1430</ele>
        <time>2010-01-03T13:46:40Z</time>
      </trkpt>
      <trkpt lat="46.24654" lon="6.85127">
        <ele>1431</ele>
        <time>2010-01-03T13:46:45Z</time>
      </trkpt>
      <trkpt lat="46.24656" lon="6.85126">
        <ele>1430</ele>
        <time>2010-01-03T13:46:46Z</time>
      </trkpt>
      <trkpt lat="46.24677" lon="6.85117">
        <ele>1439</ele>
        <time>2010-01-03T13:46:55Z</time>
      </trkpt>
      <trkpt lat="46.24677" lon="6.85117">
        <ele>1439</ele>
        <time>2010-01-03T13:46:55Z</time>
      </trkpt>
      <trkpt lat="46.24697" lon="6.85113">
        <ele>1440</ele>
        <time>2010-01-03T13:47:03Z</time>
      </trkpt>
      <trkpt lat="46.24701" lon="6.85111">
        <ele>1440</ele>
        <time>2010-01-03T13:47:05Z</time>
      </trkpt>
      <trkpt lat="46.24718" lon="6.85105">
        <ele>1441</ele>
        <time>2010-01-03T13:47:12Z</time>
      </trkpt>
      <trkpt lat="46.24719" lon="6.85104">
        <ele>1441</ele>
        <time>2010-01-03T13:47:12Z</time>
      </trkpt>
      <trkpt lat="46.2473" lon="6.85098">
        <ele>1441</ele>
        <time>2010-01-03T13:47:17Z</time>
      </trkpt>
      <trkpt lat="46.24742" lon="6.85085">
        <ele>1439</ele>
        <time>2010-01-03T13:47:23Z</time>
      </trkpt>
      <trkpt lat="46.24753" lon="6.85063">
        <ele>1438</ele>
        <time>2010-01-03T13:47:31Z</time>
      </trkpt>
      <trkpt lat="46.24757" lon="6.85015">
        <ele>1428</ele>
        <time>2010-01-03T13:47:44Z</time>
      </trkpt>
      <trkpt lat="46.24761" lon="6.84985">
        <ele>1417</ele>
        <time>2010-01-03T13:47:52Z</time>
      </trkpt>
      <trkpt lat="46.24761" lon="6.84983">
        <ele>1417</ele>
        <time>2010-01-03T13:47:53Z</time>
      </trkpt>
      <trkpt lat="46.24772" lon="6.84959">
        <ele>1416</ele>
        <time>2010-01-03T13:48:01Z</time>
      </trkpt>
      <trkpt lat="46.24773" lon="6.84955">
        <ele>1415</ele>
        <time>2010-01-03T13:48:02Z</time>
      </trkpt>
      <trkpt lat="46.24774" lon="6.84953">
        <ele>1415</ele>
        <time>2010-01-03T13:48:03Z</time>
      </trkpt>
      <trkpt lat="46.24786" lon="6.84934">
        <ele>1414</ele>
        <time>2010-01-03T13:48:10Z</time>
      </trkpt>
      <trkpt lat="46.24796" lon="6.84914">
        <ele>1403</ele>
        <time>2010-01-03T13:48:17Z</time>
      </trkpt>
      <trkpt lat="46.24818" lon="6.84874">
        <ele>1401</ele>
        <time>2010-01-03T13:48:31Z</time>
      </trkpt>
      <trkpt lat="46.24832" lon="6.8484">
        <ele>1398</ele>
        <time>2010-01-03T13:48:42Z</time>
      </trkpt>
      <trkpt lat="46.2485" lon="6.84825">
        <ele>1393</ele>
        <time>2010-01-03T13:48:50Z</time>
      </trkpt>
      <trkpt lat="46.2487" lon="6.84821">
        <ele>1392</ele>
        <time>2010-01-03T13:48:58Z</time>
      </trkpt>
      <trkpt lat="46.24888" lon="6.84818">
        <ele>1392</ele>
        <time>2010-01-03T13:49:05Z</time>
      </trkpt>
      <trkpt lat="46.24889" lon="6.84818">
        <ele>1392</ele>
        <time>2010-01-03T13:49:06Z</time>
      </trkpt>
      <trkpt lat="46.24908" lon="6.84811">
        <ele>1393</ele>
        <time>2010-01-03T13:49:14Z</time>
      </trkpt>
      <trkpt lat="46.24912" lon="6.84809">
        <ele>1393</ele>
        <time>2010-01-03T13:49:15Z</time>
      </trkpt>
      <trkpt lat="46.24913" lon="6.84809">
        <ele>1393</ele>
        <time>2010-01-03T13:49:16Z</time>
      </trkpt>
      <trkpt lat="46.24927" lon="6.84798">
        <ele>1396</ele>
        <time>2010-01-03T13:49:22Z</time>
      </trkpt>
      <trkpt lat="46.24946" lon="6.8478">
        <ele>1395</ele>
        <time>2010-01-03T13:49:31Z</time>
      </trkpt>
      <trkpt lat="46.24946" lon="6.84779">
        <ele>1394</ele>
        <time>2010-01-03T13:49:31Z</time>
      </trkpt>
      <trkpt lat="46.24954" lon="6.84765">
        <ele>1394</ele>
        <time>2010-01-03T13:49:36Z</time>
      </trkpt>
      <trkpt lat="46.24961" lon="6.84748">
        <ele>1385</ele>
        <time>2010-01-03T13:49:42Z</time>
      </trkpt>
      <trkpt lat="46.24974" lon="6.84735">
        <ele>1386</ele>
        <time>2010-01-03T13:49:48Z</time>
      </trkpt>
      <trkpt lat="46.24986" lon="6.84722">
        <ele>1386</ele>
        <time>2010-01-03T13:49:54Z</time>
      </trkpt>
      <trkpt lat="46.24982" lon="6.84709">
        <ele>1384</ele>
        <time>2010-01-03T13:49:58Z</time>
      </trkpt>
      <trkpt lat="46.24974" lon="6.84707">
        <ele>1384</ele>
        <time>2010-01-03T13:50:02Z</time>
      </trkpt>
      <trkpt lat="46.24969" lon="6.8471">
        <ele>1384</ele>
        <time>2010-01-03T13:50:04Z</time>
      </trkpt>
      <trkpt lat="46.24955" lon="6.84729">
        <ele>1384</ele>
        <time>2010-01-03T13:50:11Z</time>
      </trkpt>
      <trkpt lat="46.24944" lon="6.84742">
        <ele>1383</ele>
        <time>2010-01-03T13:50:17Z</time>
      </trkpt>
      <trkpt lat="46.24925" lon="6.84748">
        <ele>1382</ele>
        <time>2010-01-03T13:50:25Z</time>
      </trkpt>
      <trkpt lat="46.24918" lon="6.84752">
        <ele>1382</ele>
        <time>2010-01-03T13:50:28Z</time>
      </trkpt>
      <trkpt lat="46.24926" lon="6.84728">
        <ele>1382</ele>
        <time>2010-01-03T13:50:35Z</time>
      </trkpt>
      <trkpt lat="46.24932" lon="6.84702">
        <ele>1381</ele>
        <time>2010-01-03T13:50:42Z</time>
      </trkpt>
      <trkpt lat="46.24933" lon="6.84701">
        <ele>1381</ele>
        <time>2010-01-03T13:50:43Z</time>
      </trkpt>
      <trkpt lat="46.24945" lon="6.84679">
        <ele>1381</ele>
        <time>2010-01-03T13:50:51Z</time>
      </trkpt>
      <trkpt lat="46.2495" lon="6.8465">
        <ele>1382</ele>
        <time>2010-01-03T13:50:59Z</time>
      </trkpt>
      <trkpt lat="46.24956" lon="6.84628">
        <ele>1384</ele>
        <time>2010-01-03T13:51:06Z</time>
      </trkpt>
      <trkpt lat="46.24959" lon="6.84613">
        <ele>1385</ele>
        <time>2010-01-03T13:51:10Z</time>
      </trkpt>
      <trkpt lat="46.24951" lon="6.84597">
        <ele>1386</ele>
        <time>2010-01-03T13:51:15Z</time>
      </trkpt>
      <trkpt lat="46.24945" lon="6.8459">
        <ele>1387</ele>
        <time>2010-01-03T13:51:19Z</time>
      </trkpt>
      <trkpt lat="46.24929" lon="6.84596">
        <ele>1389</ele>
        <time>2010-01-03T13:51:25Z</time>
      </trkpt>
      <trkpt lat="46.24912" lon="6.84604">
        <ele>1391</ele>
        <time>2010-01-03T13:51:33Z</time>
      </trkpt>
      <trkpt lat="46.24822" lon="6.84633">
        <ele>1390</ele>
        <time>2010-01-03T13:52:09Z</time>
      </trkpt>
      <trkpt lat="46.24783" lon="6.84648">
        <ele>1387</ele>
        <time>2010-01-03T13:52:25Z</time>
      </trkpt>
      <trkpt lat="46.24759" lon="6.84649">
        <ele>1384</ele>
        <time>2010-01-03T13:52:35Z</time>
      </trkpt>
      <trkpt lat="46.24734" lon="6.84652">
        <ele>1388</ele>
        <time>2010-01-03T13:52:45Z</time>
      </trkpt>
      <trkpt lat="46.24706" lon="6.8466">
        <ele>1393</ele>
        <time>2010-01-03T13:52:56Z</time>
      </trkpt>
      <trkpt lat="46.24677" lon="6.84674">
        <ele>1385</ele>
        <time>2010-01-03T13:53:09Z</time>
      </trkpt>
      <trkpt lat="46.24646" lon="6.84677">
        <ele>1385</ele>
        <time>2010-01-03T13:53:21Z</time>
      </trkpt>
      <trkpt lat="46.24627" lon="6.84686">
        <ele>1384</ele>
        <time>2010-01-03T13:53:29Z</time>
      </trkpt>
      <trkpt lat="46.24607" lon="6.84701">
        <ele>1382</ele>
        <time>2010-01-03T13:53:38Z</time>
      </trkpt>
      <trkpt lat="46.2458" lon="6.84715">
        <ele>1383</ele>
        <time>2010-01-03T13:53:50Z</time>
      </trkpt>
      <trkpt lat="46.24567" lon="6.84727">
        <ele>1380</ele>
        <time>2010-01-03T13:53:56Z</time>
      </trkpt>
      <trkpt lat="46.24547" lon="6.84727">
        <ele>1383</ele>
        <time>2010-01-03T13:54:04Z</time>
      </trkpt>
      <trkpt lat="46.24515" lon="6.84734">
        <ele>1381</ele>
        <time>2010-01-03T13:54:17Z</time>
      </trkpt>
      <trkpt lat="46.24501" lon="6.8474">
        <ele>1378</ele>
        <time>2010-01-03T13:54:23Z</time>
      </trkpt>
      <trkpt lat="46.24481" lon="6.84751">
        <ele>1375</ele>
        <time>2010-01-03T13:54:31Z</time>
      </trkpt>
      <trkpt lat="46.24458" lon="6.8477">
        <ele>1377</ele>
        <time>2010-01-03T13:54:42Z</time>
      </trkpt>
      <trkpt lat="46.24443" lon="6.84788">
        <ele>1378</ele>
        <time>2010-01-03T13:54:50Z</time>
      </trkpt>
      <trkpt lat="46.24428" lon="6.8481">
        <ele>1379</ele>
        <time>2010-01-03T13:54:58Z</time>
      </trkpt>
      <trkpt lat="46.24417" lon="6.84833">
        <ele>1382</ele>
        <time>2010-01-03T13:55:06Z</time>
      </trkpt>
      <trkpt lat="46.24418" lon="6.84852">
        <ele>1378</ele>
        <time>2010-01-03T13:55:11Z</time>
      </trkpt>
      <trkpt lat="46.24419" lon="6.84874">
        <ele>1376</ele>
        <time>2010-01-03T13:55:18Z</time>
      </trkpt>
      <trkpt lat="46.24421" lon="6.84889">
        <ele>1376</ele>
        <time>2010-01-03T13:55:22Z</time>
      </trkpt>
      <trkpt lat="46.24416" lon="6.8491">
        <ele>1380</ele>
        <time>2010-01-03T13:55:28Z</time>
      </trkpt>
      <trkpt lat="46.24395" lon="6.84939">
        <ele>1384</ele>
        <time>2010-01-03T13:55:39Z</time>
      </trkpt>
      <trkpt lat="46.24371" lon="6.84968">
        <ele>1387</ele>
        <time>2010-01-03T13:55:52Z</time>
      </trkpt>
      <trkpt lat="46.24355" lon="6.84986">
        <ele>1388</ele>
        <time>2010-01-03T13:56:00Z</time>
      </trkpt>
      <trkpt lat="46.24342" lon="6.85018">
        <ele>1384</ele>
        <time>2010-01-03T13:56:10Z</time>
      </trkpt>
      <trkpt lat="46.24328" lon="6.85032">
        <ele>1389</ele>
        <time>2010-01-03T13:56:17Z</time>
      </trkpt>
      <trkpt lat="46.24309" lon="6.85047">
        <ele>1389</ele>
        <time>2010-01-03T13:56:26Z</time>
      </trkpt>
      <trkpt lat="46.24291" lon="6.85053">
        <ele>1390</ele>
        <time>2010-01-03T13:56:33Z</time>
      </trkpt>
      <trkpt lat="46.24262" lon="6.85076">
        <ele>1389</ele>
        <time>2010-01-03T13:56:46Z</time>
      </trkpt>
      <trkpt lat="46.24244" lon="6.85081">
        <ele>1389</ele>
        <time>2010-01-03T13:56:54Z</time>
      </trkpt>
      <trkpt lat="46.2423" lon="6.85086">
        <ele>1377</ele>
        <time>2010-01-03T13:56:59Z</time>
      </trkpt>
      <trkpt lat="46.24217" lon="6.85091">
        <ele>1374</ele>
        <time>2010-01-03T13:57:05Z</time>
      </trkpt>
      <trkpt lat="46.24203" lon="6.85095">
        <ele>1372</ele>
        <time>2010-01-03T13:57:10Z</time>
      </trkpt>
      <trkpt lat="46.24192" lon="6.85095">
        <ele>1371</ele>
        <time>2010-01-03T13:57:15Z</time>
      </trkpt>
      <trkpt lat="46.24175" lon="6.85088">
        <ele>1372</ele>
        <time>2010-01-03T13:57:22Z</time>
      </trkpt>
      <trkpt lat="46.24152" lon="6.85098">
        <ele>1367</ele>
        <time>2010-01-03T13:57:32Z</time>
      </trkpt>
      <trkpt lat="46.24133" lon="6.85095">
        <ele>1365</ele>
        <time>2010-01-03T13:57:39Z</time>
      </trkpt>
      <trkpt lat="46.24113" lon="6.85092">
        <ele>1364</ele>
        <time>2010-01-03T13:57:47Z</time>
      </trkpt>
      <trkpt lat="46.241" lon="6.85095">
        <ele>1365</ele>
        <time>2010-01-03T13:57:53Z</time>
      </trkpt>
      <trkpt lat="46.24085" lon="6.85103">
        <ele>1364</ele>
        <time>2010-01-03T13:57:59Z</time>
      </trkpt>
      <trkpt lat="46.24076" lon="6.85099">
        <ele>1363</ele>
        <time>2010-01-03T13:58:03Z</time>
      </trkpt>
      <trkpt lat="46.24061" lon="6.85103">
        <ele>1362</ele>
        <time>2010-01-03T13:58:09Z</time>
      </trkpt>
      <trkpt lat="46.24041" lon="6.8511">
        <ele>1361</ele>
        <time>2010-01-03T13:58:17Z</time>
      </trkpt>
      <trkpt lat="46.24031" lon="6.85112">
        <ele>1361</ele>
        <time>2010-01-03T13:58:21Z</time>
      </trkpt>
      <trkpt lat="46.24015" lon="6.85116">
        <ele>1361</ele>
        <time>2010-01-03T13:58:28Z</time>
      </trkpt>
      <trkpt lat="46.23992" lon="6.85119">
        <ele>1359</ele>
        <time>2010-01-03T13:58:37Z</time>
      </trkpt>
      <trkpt lat="46.23971" lon="6.85115">
        <ele>1358</ele>
        <time>2010-01-03T13:58:45Z</time>
      </trkpt>
      <trkpt lat="46.23957" lon="6.85107">
        <ele>1358</ele>
        <time>2010-01-03T13:58:51Z</time>
      </trkpt>
      <trkpt lat="46.23934" lon="6.85098">
        <ele>1359</ele>
        <time>2010-01-03T13:59:01Z</time>
      </trkpt>
      <trkpt lat="46.23907" lon="6.85094">
        <ele>1357</ele>
        <time>2010-01-03T13:59:12Z</time>
      </trkpt>
      <trkpt lat="46.23888" lon="6.85095">
        <ele>1356</ele>
        <time>2010-01-03T13:59:19Z</time>
      </trkpt>
      <trkpt lat="46.23873" lon="6.85106">
        <ele>1355</ele>
        <time>2010-01-03T13:59:26Z</time>
      </trkpt>
      <trkpt lat="46.23857" lon="6.8511">
        <ele>1354</ele>
        <time>2010-01-03T13:59:33Z</time>
      </trkpt>
      <trkpt lat="46.23842" lon="6.85115">
        <ele>1354</ele>
        <time>2010-01-03T13:59:39Z</time>
      </trkpt>
      <trkpt lat="46.23839" lon="6.85127">
        <ele>1353</ele>
        <time>2010-01-03T13:59:42Z</time>
      </trkpt>
      <trkpt lat="46.23827" lon="6.85137">
        <ele>1352</ele>
        <time>2010-01-03T13:59:48Z</time>
      </trkpt>
      <trkpt lat="46.23811" lon="6.85145">
        <ele>1352</ele>
        <time>2010-01-03T13:59:55Z</time>
      </trkpt>
      <trkpt lat="46.23788" lon="6.85155">
        <ele>1352</ele>
        <time>2010-01-03T14:00:04Z</time>
      </trkpt>
      <trkpt lat="46.23754" lon="6.85174">
        <ele>1349</ele>
        <time>2010-01-03T14:00:19Z</time>
      </trkpt>
      <trkpt lat="46.23742" lon="6.85188">
        <ele>1347</ele>
        <time>2010-01-03T14:00:25Z</time>
      </trkpt>
      <trkpt lat="46.23727" lon="6.852">
        <ele>1346</ele>
        <time>2010-01-03T14:00:32Z</time>
      </trkpt>
      <trkpt lat="46.23708" lon="6.85235">
        <ele>1344</ele>
        <time>2010-01-03T14:00:44Z</time>
      </trkpt>
      <trkpt lat="46.23688" lon="6.85258">
        <ele>1340</ele>
        <time>2010-01-03T14:00:54Z</time>
      </trkpt>
      <trkpt lat="46.23675" lon="6.8528">
        <ele>1339</ele>
        <time>2010-01-03T14:01:02Z</time>
      </trkpt>
      <trkpt lat="46.23656" lon="6.85297">
        <ele>1338</ele>
        <time>2010-01-03T14:01:11Z</time>
      </trkpt>
      <trkpt lat="46.23632" lon="6.85308">
        <ele>1338</ele>
        <time>2010-01-03T14:01:22Z</time>
      </trkpt>
      <trkpt lat="46.2362" lon="6.85345">
        <ele>1337</ele>
        <time>2010-01-03T14:01:33Z</time>
      </trkpt>
      <trkpt lat="46.23618" lon="6.8537">
        <ele>1337</ele>
        <time>2010-01-03T14:01:40Z</time>
      </trkpt>
      <trkpt lat="46.23627" lon="6.85385">
        <ele>1337</ele>
        <time>2010-01-03T14:01:45Z</time>
      </trkpt>
      <trkpt lat="46.2365" lon="6.85394">
        <ele>1335</ele>
        <time>2010-01-03T14:01:55Z</time>
      </trkpt>
      <trkpt lat="46.23671" lon="6.85418">
        <ele>1330</ele>
        <time>2010-01-03T14:02:05Z</time>
      </trkpt>
      <trkpt lat="46.23682" lon="6.85432">
        <ele>1328</ele>
        <time>2010-01-03T14:02:11Z</time>
      </trkpt>
      <trkpt lat="46.23692" lon="6.85457">
        <ele>1327</ele>
        <time>2010-01-03T14:02:19Z</time>
      </trkpt>
      <trkpt lat="46.23697" lon="6.85525">
        <ele>1322</ele>
        <time>2010-01-03T14:02:38Z</time>
      </trkpt>
      <trkpt lat="46.23695" lon="6.85578">
        <ele>1320</ele>
        <time>2010-01-03T14:02:53Z</time>
      </trkpt>
      <trkpt lat="46.23707" lon="6.85637">
        <ele>1317</ele>
        <time>2010-01-03T14:03:10Z</time>
      </trkpt>
      <trkpt lat="46.23707" lon="6.85707">
        <ele>1316</ele>
        <time>2010-01-03T14:03:29Z</time>
      </trkpt>
      <trkpt lat="46.23706" lon="6.85764">
        <ele>1315</ele>
        <time>2010-01-03T14:03:45Z</time>
      </trkpt>
      <trkpt lat="46.23692" lon="6.85805">
        <ele>1316</ele>
        <time>2010-01-03T14:03:58Z</time>
      </trkpt>
      <trkpt lat="46.2367" lon="6.85812">
        <ele>1316</ele>
        <time>2010-01-03T14:04:07Z</time>
      </trkpt>
      <trkpt lat="46.2365" lon="6.85822">
        <ele>1324</ele>
        <time>2010-01-03T14:04:15Z</time>
      </trkpt>
      <trkpt lat="46.2363" lon="6.85832">
        <ele>1327</ele>
        <time>2010-01-03T14:04:24Z</time>
      </trkpt>
      <trkpt lat="46.23606" lon="6.85831">
        <ele>1332</ele>
        <time>2010-01-03T14:04:34Z</time>
      </trkpt>
      <trkpt lat="46.23585" lon="6.85841">
        <ele>1336</ele>
        <time>2010-01-03T14:04:42Z</time>
      </trkpt>
      <trkpt lat="46.23562" lon="6.85853">
        <ele>1358</ele>
        <time>2010-01-03T14:04:52Z</time>
      </trkpt>
      <trkpt lat="46.23514" lon="6.85861">
        <ele>1374</ele>
        <time>2010-01-03T14:05:11Z</time>
      </trkpt>
      <trkpt lat="46.2347" lon="6.85861">
        <ele>1415</ele>
        <time>2010-01-03T14:05:29Z</time>
      </trkpt>
      <trkpt lat="46.23446" lon="6.85881">
        <ele>1424</ele>
        <time>2010-01-03T14:05:40Z</time>
      </trkpt>
      <trkpt lat="46.23404" lon="6.85885">
        <ele>1467</ele>
        <time>2010-01-03T14:05:57Z</time>
      </trkpt>
      <trkpt lat="46.23317" lon="6.85913">
        <ele>1518</ele>
        <time>2010-01-03T14:06:32Z</time>
      </trkpt>
      <trkpt lat="46.23281" lon="6.85922">
        <ele>1536</ele>
        <time>2010-01-03T14:06:47Z</time>
      </trkpt>
      <trkpt lat="46.23258" lon="6.85927">
        <ele>1544</ele>
        <time>2010-01-03T14:06:56Z</time>
      </trkpt>
      <trkpt lat="46.23244" lon="6.8593">
        <ele>1560</ele>
        <time>2010-01-03T14:07:02Z</time>
      </trkpt>
      <trkpt lat="46.2322" lon="6.85937">
        <ele>1567</ele>
        <time>2010-01-03T14:07:12Z</time>
      </trkpt>
      <trkpt lat="46.23192" lon="6.85945">
        <ele>1574</ele>
        <time>2010-01-03T14:07:23Z</time>
      </trkpt>
      <trkpt lat="46.23168" lon="6.85954">
        <ele>1577</ele>
        <time>2010-01-03T14:07:33Z</time>
      </trkpt>
      <trkpt lat="46.23108" lon="6.8597">
        <ele>1601</ele>
        <time>2010-01-03T14:07:58Z</time>
      </trkpt>
      <trkpt lat="46.2307" lon="6.85975">
        <ele>1623</ele>
        <time>2010-01-03T14:08:13Z</time>
      </trkpt>
      <trkpt lat="46.23048" lon="6.8598">
        <ele>1628</ele>
        <time>2010-01-03T14:08:22Z</time>
      </trkpt>
      <trkpt lat="46.23037" lon="6.85986">
        <ele>1631</ele>
        <time>2010-01-03T14:08:27Z</time>
      </trkpt>
      <trkpt lat="46.23021" lon="6.85991">
        <ele>1635</ele>
        <time>2010-01-03T14:08:33Z</time>
      </trkpt>
      <trkpt lat="46.22962" lon="6.86009">
        <ele>1653</ele>
        <time>2010-01-03T14:08:57Z</time>
      </trkpt>
      <trkpt lat="46.229" lon="6.86026">
        <ele>1677</ele>
        <time>2010-01-03T14:09:22Z</time>
      </trkpt>
      <trkpt lat="46.22784" lon="6.86057">
        <ele>1705</ele>
        <time>2010-01-03T14:10:10Z</time>
      </trkpt>
      <trkpt lat="46.22713" lon="6.86073">
        <ele>1734</ele>
        <time>2010-01-03T14:10:38Z</time>
      </trkpt>
      <trkpt lat="46.22655" lon="6.86089">
        <ele>1764</ele>
        <time>2010-01-03T14:11:02Z</time>
      </trkpt>
      <trkpt lat="46.22601" lon="6.86106">
        <ele>1777</ele>
        <time>2010-01-03T14:11:24Z</time>
      </trkpt>
      <trkpt lat="46.22547" lon="6.86121">
        <ele>1798</ele>
        <time>2010-01-03T14:11:46Z</time>
      </trkpt>
      <trkpt lat="46.2252" lon="6.86128">
        <ele>1802</ele>
        <time>2010-01-03T14:11:57Z</time>
      </trkpt>
      <trkpt lat="46.22509" lon="6.86133">
        <ele>1803</ele>
        <time>2010-01-03T14:12:02Z</time>
      </trkpt>
      <trkpt lat="46.22501" lon="6.86134">
        <ele>1803</ele>
        <time>2010-01-03T14:12:05Z</time>
      </trkpt>
      <trkpt lat="46.22499" lon="6.86133">
        <ele>1810</ele>
        <time>2010-01-03T14:12:06Z</time>
      </trkpt>
      <trkpt lat="46.22497" lon="6.8613">
        <ele>1810</ele>
        <time>2010-01-03T14:12:07Z</time>
      </trkpt>
      <trkpt lat="46.22494" lon="6.86131">
        <ele>1810</ele>
        <time>2010-01-03T14:12:08Z</time>
      </trkpt>
      <trkpt lat="46.22484" lon="6.86134">
        <ele>1810</ele>
        <time>2010-01-03T14:12:12Z</time>
      </trkpt>
      <trkpt lat="46.22458" lon="6.86153">
        <ele>1809</ele>
        <time>2010-01-03T14:12:24Z</time>
      </trkpt>
      <trkpt lat="46.22432" lon="6.86168">
        <ele>1803</ele>
        <time>2010-01-03T14:12:35Z</time>
      </trkpt>
      <trkpt lat="46.22413" lon="6.86179">
        <ele>1798</ele>
        <time>2010-01-03T14:12:43Z</time>
      </trkpt>
      <trkpt lat="46.22404" lon="6.86183">
        <ele>1796</ele>
        <time>2010-01-03T14:12:47Z</time>
      </trkpt>
      <trkpt lat="46.22394" lon="6.86184">
        <ele>1794</ele>
        <time>2010-01-03T14:12:51Z</time>
      </trkpt>
      <trkpt lat="46.22368" lon="6.86182">
        <ele>1790</ele>
        <time>2010-01-03T14:13:02Z</time>
      </trkpt>
      <trkpt lat="46.22354" lon="6.86179">
        <ele>1789</ele>
        <time>2010-01-03T14:13:07Z</time>
      </trkpt>
      <trkpt lat="46.22338" lon="6.86172">
        <ele>1789</ele>
        <time>2010-01-03T14:13:14Z</time>
      </trkpt>
      <trkpt lat="46.2233" lon="6.86168">
        <ele>1786</ele>
        <time>2010-01-03T14:13:18Z</time>
      </trkpt>
      <trkpt lat="46.22325" lon="6.86168">
        <ele>1784</ele>
        <time>2010-01-03T14:13:19Z</time>
      </trkpt>
      <trkpt lat="46.22322" lon="6.86168">
        <ele>1782</ele>
        <time>2010-01-03T14:13:21Z</time>
      </trkpt>
      <trkpt lat="46.22317" lon="6.86168">
        <ele>1780</ele>
        <time>2010-01-03T14:13:23Z</time>
      </trkpt>
      <trkpt lat="46.22312" lon="6.86169">
        <ele>1778</ele>
        <time>2010-01-03T14:13:25Z</time>
      </trkpt>
      <trkpt lat="46.22307" lon="6.86167">
        <ele>1777</ele>
        <time>2010-01-03T14:13:27Z</time>
      </trkpt>
      <trkpt lat="46.22302" lon="6.86168">
        <ele>1776</ele>
        <time>2010-01-03T14:13:29Z</time>
      </trkpt>
      <trkpt lat="46.22292" lon="6.86173">
        <ele>1774</ele>
        <time>2010-01-03T14:13:33Z</time>
      </trkpt>
      <trkpt lat="46.22287" lon="6.86174">
        <ele>1773</ele>
        <time>2010-01-03T14:13:35Z</time>
      </trkpt>
      <trkpt lat="46.22279" lon="6.86182">
        <ele>1772</ele>
        <time>2010-01-03T14:13:39Z</time>
      </trkpt>
      <trkpt lat="46.22274" lon="6.86184">
        <ele>1771</ele>
        <time>2010-01-03T14:13:41Z</time>
      </trkpt>
      <trkpt lat="46.22262" lon="6.86192">
        <ele>1770</ele>
        <time>2010-01-03T14:13:46Z</time>
      </trkpt>
      <trkpt lat="46.22253" lon="6.86194">
        <ele>1769</ele>
        <time>2010-01-03T14:13:50Z</time>
      </trkpt>
      <trkpt lat="46.22238" lon="6.86192">
        <ele>1758</ele>
        <time>2010-01-03T14:13:56Z</time>
      </trkpt>
      <trkpt lat="46.22232" lon="6.86189">
        <ele>1758</ele>
        <time>2010-01-03T14:13:59Z</time>
      </trkpt>
      <trkpt lat="46.22226" lon="6.86189">
        <ele>1757</ele>
        <time>2010-01-03T14:14:01Z</time>
      </trkpt>
      <trkpt lat="46.2222" lon="6.86188">
        <ele>1756</ele>
        <time>2010-01-03T14:14:03Z</time>
      </trkpt>
      <trkpt lat="46.22201" lon="6.86188">
        <ele>1753</ele>
        <time>2010-01-03T14:14:11Z</time>
      </trkpt>
      <trkpt lat="46.22195" lon="6.8619">
        <ele>1752</ele>
        <time>2010-01-03T14:14:13Z</time>
      </trkpt>
      <trkpt lat="46.22188" lon="6.86194">
        <ele>1751</ele>
        <time>2010-01-03T14:14:16Z</time>
      </trkpt>
      <trkpt lat="46.22178" lon="6.86198">
        <ele>1750</ele>
        <time>2010-01-03T14:14:21Z</time>
      </trkpt>
      <trkpt lat="46.22171" lon="6.86205">
        <ele>1749</ele>
        <time>2010-01-03T14:14:24Z</time>
      </trkpt>
      <trkpt lat="46.22164" lon="6.8621">
        <ele>1736</ele>
        <time>2010-01-03T14:14:27Z</time>
      </trkpt>
      <trkpt lat="46.22156" lon="6.86218">
        <ele>1735</ele>
        <time>2010-01-03T14:14:31Z</time>
      </trkpt>
      <trkpt lat="46.22144" lon="6.8623">
        <ele>1734</ele>
        <time>2010-01-03T14:14:37Z</time>
      </trkpt>
      <trkpt lat="46.22138" lon="6.86228">
        <ele>1733</ele>
        <time>2010-01-03T14:14:39Z</time>
      </trkpt>
      <trkpt lat="46.22134" lon="6.86224">
        <ele>1733</ele>
        <time>2010-01-03T14:14:41Z</time>
      </trkpt>
      <trkpt lat="46.22132" lon="6.86217">
        <ele>1733</ele>
        <time>2010-01-03T14:14:43Z</time>
      </trkpt>
      <trkpt lat="46.22132" lon="6.86216">
        <ele>1733</ele>
        <time>2010-01-03T14:14:43Z</time>
      </trkpt>
      <trkpt lat="46.2213" lon="6.86207">
        <ele>1734</ele>
        <time>2010-01-03T14:14:46Z</time>
      </trkpt>
      <trkpt lat="46.22119" lon="6.86188">
        <ele>1734</ele>
        <time>2010-01-03T14:14:53Z</time>
      </trkpt>
      <trkpt lat="46.22114" lon="6.86182">
        <ele>1733</ele>
        <time>2010-01-03T14:14:55Z</time>
      </trkpt>
      <trkpt lat="46.22106" lon="6.86179">
        <ele>1732</ele>
        <time>2010-01-03T14:14:59Z</time>
      </trkpt>
      <trkpt lat="46.22092" lon="6.86177">
        <ele>1730</ele>
        <time>2010-01-03T14:15:05Z</time>
      </trkpt>
      <trkpt lat="46.22083" lon="6.86172">
        <ele>1725</ele>
        <time>2010-01-03T14:15:08Z</time>
      </trkpt>
      <trkpt lat="46.22075" lon="6.86169">
        <ele>1724</ele>
        <time>2010-01-03T14:15:11Z</time>
      </trkpt>
      <trkpt lat="46.22074" lon="6.86158">
        <ele>1726</ele>
        <time>2010-01-03T14:15:15Z</time>
      </trkpt>
      <trkpt lat="46.22072" lon="6.8612">
        <ele>1727</ele>
        <time>2010-01-03T14:15:25Z</time>
      </trkpt>
      <trkpt lat="46.2207" lon="6.86089">
        <ele>1731</ele>
        <time>2010-01-03T14:15:34Z</time>
      </trkpt>
      <trkpt lat="46.22064" lon="6.86072">
        <ele>1735</ele>
        <time>2010-01-03T14:15:39Z</time>
      </trkpt>
      <trkpt lat="46.22053" lon="6.86056">
        <ele>1735</ele>
        <time>2010-01-03T14:15:45Z</time>
      </trkpt>
      <trkpt lat="46.22034" lon="6.86029">
        <ele>1736</ele>
        <time>2010-01-03T14:15:56Z</time>
      </trkpt>
      <trkpt lat="46.22024" lon="6.86015">
        <ele>1735</ele>
        <time>2010-01-03T14:16:01Z</time>
      </trkpt>
      <trkpt lat="46.22016" lon="6.85992">
        <ele>1741</ele>
        <time>2010-01-03T14:16:09Z</time>
      </trkpt>
      <trkpt lat="46.22011" lon="6.85973">
        <ele>1743</ele>
        <time>2010-01-03T14:16:14Z</time>
      </trkpt>
      <trkpt lat="46.22009" lon="6.85965">
        <ele>1744</ele>
        <time>2010-01-03T14:16:17Z</time>
      </trkpt>
      <trkpt lat="46.21984" lon="6.85949">
        <ele>1736</ele>
        <time>2010-01-03T14:16:28Z</time>
      </trkpt>
      <trkpt lat="46.21951" lon="6.8593">
        <ele>1736</ele>
        <time>2010-01-03T14:16:42Z</time>
      </trkpt>
      <trkpt lat="46.21944" lon="6.85925">
        <ele>1736</ele>
        <time>2010-01-03T14:16:45Z</time>
      </trkpt>
      <trkpt lat="46.21937" lon="6.85927">
        <ele>1736</ele>
        <time>2010-01-03T14:16:48Z</time>
      </trkpt>
      <trkpt lat="46.21927" lon="6.85933">
        <ele>1736</ele>
        <time>2010-01-03T14:16:52Z</time>
      </trkpt>
      <trkpt lat="46.2191" lon="6.8594">
        <ele>1735</ele>
        <time>2010-01-03T14:16:59Z</time>
      </trkpt>
      <trkpt lat="46.21898" lon="6.85942">
        <ele>1735</ele>
        <time>2010-01-03T14:17:04Z</time>
      </trkpt>
      <trkpt lat="46.2187" lon="6.85946">
        <ele>1735</ele>
        <time>2010-01-03T14:17:15Z</time>
      </trkpt>
      <trkpt lat="46.21841" lon="6.85949">
        <ele>1736</ele>
        <time>2010-01-03T14:17:27Z</time>
      </trkpt>
      <trkpt lat="46.2183" lon="6.85955">
        <ele>1740</ele>
        <time>2010-01-03T14:17:32Z</time>
      </trkpt>
      <trkpt lat="46.21809" lon="6.85963">
        <ele>1740</ele>
        <time>2010-01-03T14:17:40Z</time>
      </trkpt>
      <trkpt lat="46.21799" lon="6.85971">
        <ele>1741</ele>
        <time>2010-01-03T14:17:45Z</time>
      </trkpt>
      <trkpt lat="46.21782" lon="6.85992">
        <ele>1741</ele>
        <time>2010-01-03T14:17:54Z</time>
      </trkpt>
      <trkpt lat="46.21778" lon="6.86008">
        <ele>1735</ele>
        <time>2010-01-03T14:17:59Z</time>
      </trkpt>
      <trkpt lat="46.21773" lon="6.86025">
        <ele>1734</ele>
        <time>2010-01-03T14:18:04Z</time>
      </trkpt>
      <trkpt lat="46.21769" lon="6.86038">
        <ele>1733</ele>
        <time>2010-01-03T14:18:08Z</time>
      </trkpt>
      <trkpt lat="46.2176" lon="6.8605">
        <ele>1733</ele>
        <time>2010-01-03T14:18:12Z</time>
      </trkpt>
      <trkpt lat="46.21753" lon="6.86056">
        <ele>1733</ele>
        <time>2010-01-03T14:18:16Z</time>
      </trkpt>
      <trkpt lat="46.21744" lon="6.86068">
        <ele>1738</ele>
        <time>2010-01-03T14:18:20Z</time>
      </trkpt>
      <trkpt lat="46.21721" lon="6.86105">
        <ele>1731</ele>
        <time>2010-01-03T14:18:34Z</time>
      </trkpt>
      <trkpt lat="46.2171" lon="6.86119">
        <ele>1731</ele>
        <time>2010-01-03T14:18:40Z</time>
      </trkpt>
      <trkpt lat="46.21704" lon="6.86126">
        <ele>1730</ele>
        <time>2010-01-03T14:18:43Z</time>
      </trkpt>
      <trkpt lat="46.21701" lon="6.86124">
        <ele>1730</ele>
        <time>2010-01-03T14:18:45Z</time>
      </trkpt>
      <trkpt lat="46.21696" lon="6.8612">
        <ele>1731</ele>
        <time>2010-01-03T14:18:47Z</time>
      </trkpt>
      <trkpt lat="46.21672" lon="6.86093">
        <ele>1735</ele>
        <time>2010-01-03T14:18:59Z</time>
      </trkpt>
      <trkpt lat="46.2166" lon="6.86084">
        <ele>1734</ele>
        <time>2010-01-03T14:19:04Z</time>
      </trkpt>
      <trkpt lat="46.21637" lon="6.86057">
        <ele>1738</ele>
        <time>2010-01-03T14:19:16Z</time>
      </trkpt>
      <trkpt lat="46.21612" lon="6.86019">
        <ele>1739</ele>
        <time>2010-01-03T14:19:31Z</time>
      </trkpt>
      <trkpt lat="46.21601" lon="6.85999">
        <ele>1748</ele>
        <time>2010-01-03T14:19:38Z</time>
      </trkpt>
      <trkpt lat="46.21587" lon="6.85976">
        <ele>1750</ele>
        <time>2010-01-03T14:19:46Z</time>
      </trkpt>
      <trkpt lat="46.21576" lon="6.85959">
        <ele>1741</ele>
        <time>2010-01-03T14:19:53Z</time>
      </trkpt>
      <trkpt lat="46.2156" lon="6.85937">
        <ele>1743</ele>
        <time>2010-01-03T14:20:02Z</time>
      </trkpt>
      <trkpt lat="46.21553" lon="6.85927">
        <ele>1743</ele>
        <time>2010-01-03T14:20:06Z</time>
      </trkpt>
      <trkpt lat="46.21549" lon="6.85919">
        <ele>1742</ele>
        <time>2010-01-03T14:20:08Z</time>
      </trkpt>
      <trkpt lat="46.21535" lon="6.85866">
        <ele>1754</ele>
        <time>2010-01-03T14:20:24Z</time>
      </trkpt>
      <trkpt lat="46.21515" lon="6.85824">
        <ele>1759</ele>
        <time>2010-01-03T14:20:38Z</time>
      </trkpt>
      <trkpt lat="46.21483" lon="6.8578">
        <ele>1750</ele>
        <time>2010-01-03T14:20:56Z</time>
      </trkpt>
      <trkpt lat="46.21432" lon="6.85704">
        <ele>1757</ele>
        <time>2010-01-03T14:21:25Z</time>
      </trkpt>
      <trkpt lat="46.21413" lon="6.85679">
        <ele>1750</ele>
        <time>2010-01-03T14:21:36Z</time>
      </trkpt>
      <trkpt lat="46.214" lon="6.85667">
        <ele>1749</ele>
        <time>2010-01-03T14:21:42Z</time>
      </trkpt>
      <trkpt lat="46.21393" lon="6.85659">
        <ele>1756</ele>
        <time>2010-01-03T14:21:45Z</time>
      </trkpt>
      <trkpt lat="46.21387" lon="6.85656">
        <ele>1755</ele>
        <time>2010-01-03T14:21:48Z</time>
      </trkpt>
      <trkpt lat="46.21366" lon="6.85641">
        <ele>1753</ele>
        <time>2010-01-03T14:21:57Z</time>
      </trkpt>
      <trkpt lat="46.21355" lon="6.8563">
        <ele>1753</ele>
        <time>2010-01-03T14:22:03Z</time>
      </trkpt>
      <trkpt lat="46.21344" lon="6.85613">
        <ele>1754</ele>
        <time>2010-01-03T14:22:09Z</time>
      </trkpt>
      <trkpt lat="46.21336" lon="6.85598">
        <ele>1754</ele>
        <time>2010-01-03T14:22:14Z</time>
      </trkpt>
      <trkpt lat="46.2133" lon="6.85586">
        <ele>1751</ele>
        <time>2010-01-03T14:22:18Z</time>
      </trkpt>
      <trkpt lat="46.21327" lon="6.85581">
        <ele>1753</ele>
        <time>2010-01-03T14:22:20Z</time>
      </trkpt>
      <trkpt lat="46.21297" lon="6.85559">
        <ele>1750</ele>
        <time>2010-01-03T14:22:34Z</time>
      </trkpt>
      <trkpt lat="46.21276" lon="6.85537">
        <ele>1750</ele>
        <time>2010-01-03T14:22:44Z</time>
      </trkpt>
      <trkpt lat="46.21272" lon="6.8553">
        <ele>1750</ele>
        <time>2010-01-03T14:22:47Z</time>
      </trkpt>
      <trkpt lat="46.21267" lon="6.8552">
        <ele>1750</ele>
        <time>2010-01-03T14:22:50Z</time>
      </trkpt>
      <trkpt lat="46.21245" lon="6.85483">
        <ele>1749</ele>
        <time>2010-01-03T14:23:03Z</time>
      </trkpt>
      <trkpt lat="46.21235" lon="6.8547">
        <ele>1749</ele>
        <time>2010-01-03T14:23:09Z</time>
      </trkpt>
      <trkpt lat="46.2122" lon="6.85453">
        <ele>1749</ele>
        <time>2010-01-03T14:23:17Z</time>
      </trkpt>
      <trkpt lat="46.21208" lon="6.85443">
        <ele>1749</ele>
        <time>2010-01-03T14:23:22Z</time>
      </trkpt>
      <trkpt lat="46.21201" lon="6.85434">
        <ele>1748</ele>
        <time>2010-01-03T14:23:26Z</time>
      </trkpt>
      <trkpt lat="46.21196" lon="6.85428">
        <ele>1748</ele>
        <time>2010-01-03T14:23:28Z</time>
      </trkpt>
      <trkpt lat="46.21191" lon="6.85423">
        <ele>1748</ele>
        <time>2010-01-03T14:23:31Z</time>
      </trkpt>
      <trkpt lat="46.21184" lon="6.85422">
        <ele>1747</ele>
        <time>2010-01-03T14:23:34Z</time>
      </trkpt>
      <trkpt lat="46.21178" lon="6.8542">
        <ele>1746</ele>
        <time>2010-01-03T14:23:36Z</time>
      </trkpt>
      <trkpt lat="46.21168" lon="6.85414">
        <ele>1747</ele>
        <time>2010-01-03T14:23:40Z</time>
      </trkpt>
      <trkpt lat="46.21162" lon="6.85407">
        <ele>1743</ele>
        <time>2010-01-03T14:23:44Z</time>
      </trkpt>
      <trkpt lat="46.21156" lon="6.85399">
        <ele>1742</ele>
        <time>2010-01-03T14:23:47Z</time>
      </trkpt>
      <trkpt lat="46.21149" lon="6.85386">
        <ele>1742</ele>
        <time>2010-01-03T14:23:51Z</time>
      </trkpt>
      <trkpt lat="46.21143" lon="6.85379">
        <ele>1742</ele>
        <time>2010-01-03T14:23:54Z</time>
      </trkpt>
      <trkpt lat="46.21136" lon="6.85372">
        <ele>1742</ele>
        <time>2010-01-03T14:23:58Z</time>
      </trkpt>
      <trkpt lat="46.21132" lon="6.85368">
        <ele>1741</ele>
        <time>2010-01-03T14:24:00Z</time>
      </trkpt>
      <trkpt lat="46.21122" lon="6.85353">
        <ele>1741</ele>
        <time>2010-01-03T14:24:05Z</time>
      </trkpt>
      <trkpt lat="46.21119" lon="6.85342">
        <ele>1741</ele>
        <time>2010-01-03T14:24:09Z</time>
      </trkpt>
      <trkpt lat="46.21117" lon="6.85335">
        <ele>1740</ele>
        <time>2010-01-03T14:24:11Z</time>
      </trkpt>
      <trkpt lat="46.21112" lon="6.85333">
        <ele>1750</ele>
        <time>2010-01-03T14:24:13Z</time>
      </trkpt>
      <trkpt lat="46.21109" lon="6.85335">
        <ele>1739</ele>
        <time>2010-01-03T14:24:14Z</time>
      </trkpt>
      <trkpt lat="46.21109" lon="6.85336">
        <ele>1739</ele>
        <time>2010-01-03T14:24:14Z</time>
      </trkpt>
      <trkpt lat="46.2111" lon="6.85345">
        <ele>1739</ele>
        <time>2010-01-03T14:24:17Z</time>
      </trkpt>
      <trkpt lat="46.2111" lon="6.85345">
        <ele>1739</ele>
        <time>2010-01-03T14:24:17Z</time>
      </trkpt>
      <trkpt lat="46.21114" lon="6.85356">
        <ele>1739</ele>
        <time>2010-01-03T14:24:20Z</time>
      </trkpt>
      <trkpt lat="46.21114" lon="6.85357">
        <ele>1739</ele>
        <time>2010-01-03T14:24:21Z</time>
      </trkpt>
      <trkpt lat="46.21114" lon="6.85359">
        <ele>1739</ele>
        <time>2010-01-03T14:24:21Z</time>
      </trkpt>
      <trkpt lat="46.21121" lon="6.85383">
        <ele>1738</ele>
        <time>2010-01-03T14:24:28Z</time>
      </trkpt>
      <trkpt lat="46.21125" lon="6.85397">
        <ele>1738</ele>
        <time>2010-01-03T14:24:33Z</time>
      </trkpt>
      <trkpt lat="46.21126" lon="6.85398">
        <ele>1738</ele>
        <time>2010-01-03T14:24:33Z</time>
      </trkpt>
      <trkpt lat="46.21129" lon="6.85412">
        <ele>1738</ele>
        <time>2010-01-03T14:24:37Z</time>
      </trkpt>
      <trkpt lat="46.21133" lon="6.85423">
        <ele>1730</ele>
        <time>2010-01-03T14:24:40Z</time>
      </trkpt>
      <trkpt lat="46.21136" lon="6.85432">
        <ele>1730</ele>
        <time>2010-01-03T14:24:43Z</time>
      </trkpt>
      <trkpt lat="46.21137" lon="6.85433">
        <ele>1730</ele>
        <time>2010-01-03T14:24:44Z</time>
      </trkpt>
      <trkpt lat="46.21137" lon="6.85447">
        <ele>1729</ele>
        <time>2010-01-03T14:24:47Z</time>
      </trkpt>
      <trkpt lat="46.21133" lon="6.85465">
        <ele>1727</ele>
        <time>2010-01-03T14:24:53Z</time>
      </trkpt>
      <trkpt lat="46.21122" lon="6.8547">
        <ele>1725</ele>
        <time>2010-01-03T14:24:57Z</time>
      </trkpt>
      <trkpt lat="46.21109" lon="6.85482">
        <ele>1722</ele>
        <time>2010-01-03T14:25:03Z</time>
      </trkpt>
      <trkpt lat="46.21082" lon="6.85508">
        <ele>1712</ele>
        <time>2010-01-03T14:25:17Z</time>
      </trkpt>
      <trkpt lat="46.21055" lon="6.85533">
        <ele>1709</ele>
        <time>2010-01-03T14:25:29Z</time>
      </trkpt>
      <trkpt lat="46.20985" lon="6.85598">
        <ele>1703</ele>
        <time>2010-01-03T14:26:02Z</time>
      </trkpt>
      <trkpt lat="46.2097" lon="6.85621">
        <ele>1702</ele>
        <time>2010-01-03T14:26:11Z</time>
      </trkpt>
      <trkpt lat="46.20957" lon="6.85642">
        <ele>1701</ele>
        <time>2010-01-03T14:26:19Z</time>
      </trkpt>
      <trkpt lat="46.20948" lon="6.85651">
        <ele>1700</ele>
        <time>2010-01-03T14:26:23Z</time>
      </trkpt>
      <trkpt lat="46.20923" lon="6.8567">
        <ele>1697</ele>
        <time>2010-01-03T14:26:35Z</time>
      </trkpt>
      <trkpt lat="46.20906" lon="6.85675">
        <ele>1697</ele>
        <time>2010-01-03T14:26:41Z</time>
      </trkpt>
      <trkpt lat="46.20885" lon="6.85671">
        <ele>1697</ele>
        <time>2010-01-03T14:26:50Z</time>
      </trkpt>
      <trkpt lat="46.20869" lon="6.85646">
        <ele>1697</ele>
        <time>2010-01-03T14:27:00Z</time>
      </trkpt>
      <trkpt lat="46.20862" lon="6.85637">
        <ele>1697</ele>
        <time>2010-01-03T14:27:03Z</time>
      </trkpt>
      <trkpt lat="46.20849" lon="6.85632">
        <ele>1697</ele>
        <time>2010-01-03T14:27:09Z</time>
      </trkpt>
      <trkpt lat="46.20848" lon="6.85633">
        <ele>1697</ele>
        <time>2010-01-03T14:27:09Z</time>
      </trkpt>
      <trkpt lat="46.20833" lon="6.85641">
        <ele>1705</ele>
        <time>2010-01-03T14:27:16Z</time>
      </trkpt>
      <trkpt lat="46.20819" lon="6.85665">
        <ele>1703</ele>
        <time>2010-01-03T14:27:24Z</time>
      </trkpt>
      <trkpt lat="46.20769" lon="6.85737">
        <ele>1704</ele>
        <time>2010-01-03T14:27:52Z</time>
      </trkpt>
      <trkpt lat="46.20752" lon="6.85753">
        <ele>1704</ele>
        <time>2010-01-03T14:28:01Z</time>
      </trkpt>
      <trkpt lat="46.20728" lon="6.85762">
        <ele>1705</ele>
        <time>2010-01-03T14:28:10Z</time>
      </trkpt>
      <trkpt lat="46.20713" lon="6.85764">
        <ele>1705</ele>
        <time>2010-01-03T14:28:16Z</time>
      </trkpt>
      <trkpt lat="46.20685" lon="6.85783">
        <ele>1706</ele>
        <time>2010-01-03T14:28:29Z</time>
      </trkpt>
      <trkpt lat="46.20668" lon="6.85804">
        <ele>1704</ele>
        <time>2010-01-03T14:28:38Z</time>
      </trkpt>
      <trkpt lat="46.20667" lon="6.85806">
        <ele>1704</ele>
        <time>2010-01-03T14:28:38Z</time>
      </trkpt>
      <trkpt lat="46.20657" lon="6.85828">
        <ele>1705</ele>
        <time>2010-01-03T14:28:46Z</time>
      </trkpt>
      <trkpt lat="46.20645" lon="6.85844">
        <ele>1697</ele>
        <time>2010-01-03T14:28:52Z</time>
      </trkpt>
      <trkpt lat="46.20632" lon="6.85846">
        <ele>1696</ele>
        <time>2010-01-03T14:28:58Z</time>
      </trkpt>
      <trkpt lat="46.20616" lon="6.85844">
        <ele>1697</ele>
        <time>2010-01-03T14:29:04Z</time>
      </trkpt>
      <trkpt lat="46.20605" lon="6.85844">
        <ele>1698</ele>
        <time>2010-01-03T14:29:09Z</time>
      </trkpt>
      <trkpt lat="46.20581" lon="6.85833">
        <ele>1704</ele>
        <time>2010-01-03T14:29:19Z</time>
      </trkpt>
      <trkpt lat="46.2057" lon="6.85832">
        <ele>1707</ele>
        <time>2010-01-03T14:29:23Z</time>
      </trkpt>
      <trkpt lat="46.20556" lon="6.85827">
        <ele>1708</ele>
        <time>2010-01-03T14:29:29Z</time>
      </trkpt>
      <trkpt lat="46.20547" lon="6.85829">
        <ele>1708</ele>
        <time>2010-01-03T14:29:32Z</time>
      </trkpt>
      <trkpt lat="46.20534" lon="6.85832">
        <ele>1707</ele>
        <time>2010-01-03T14:29:38Z</time>
      </trkpt>
      <trkpt lat="46.20523" lon="6.85837">
        <ele>1694</ele>
        <time>2010-01-03T14:29:42Z</time>
      </trkpt>
      <trkpt lat="46.20517" lon="6.85837">
        <ele>1694</ele>
        <time>2010-01-03T14:29:45Z</time>
      </trkpt>
      <trkpt lat="46.20513" lon="6.85833">
        <ele>1703</ele>
        <time>2010-01-03T14:29:47Z</time>
      </trkpt>
      <trkpt lat="46.20509" lon="6.8583">
        <ele>1702</ele>
        <time>2010-01-03T14:29:48Z</time>
      </trkpt>
      <trkpt lat="46.20503" lon="6.85824">
        <ele>1702</ele>
        <time>2010-01-03T14:29:51Z</time>
      </trkpt>
      <trkpt lat="46.20503" lon="6.85833">
        <ele>1699</ele>
        <time>2010-01-03T14:29:54Z</time>
      </trkpt>
      <trkpt lat="46.20503" lon="6.85843">
        <ele>1695</ele>
        <time>2010-01-03T14:29:57Z</time>
      </trkpt>
      <trkpt lat="46.20506" lon="6.85852">
        <ele>1693</ele>
        <time>2010-01-03T14:29:59Z</time>
      </trkpt>
      <trkpt lat="46.20514" lon="6.85859">
        <ele>1692</ele>
        <time>2010-01-03T14:30:03Z</time>
      </trkpt>
      <trkpt lat="46.20521" lon="6.85864">
        <ele>1691</ele>
        <time>2010-01-03T14:30:06Z</time>
      </trkpt>
      <trkpt lat="46.20533" lon="6.85864">
        <ele>1691</ele>
        <time>2010-01-03T14:30:11Z</time>
      </trkpt>
      <trkpt lat="46.20543" lon="6.85863">
        <ele>1692</ele>
        <time>2010-01-03T14:30:15Z</time>
      </trkpt>
      <trkpt lat="46.20551" lon="6.85868">
        <ele>1692</ele>
        <time>2010-01-03T14:30:19Z</time>
      </trkpt>
      <trkpt lat="46.20565" lon="6.85871">
        <ele>1692</ele>
        <time>2010-01-03T14:30:25Z</time>
      </trkpt>
      <trkpt lat="46.20581" lon="6.85881">
        <ele>1691</ele>
        <time>2010-01-03T14:30:31Z</time>
      </trkpt>
      <trkpt lat="46.20592" lon="6.85899">
        <ele>1689</ele>
        <time>2010-01-03T14:30:38Z</time>
      </trkpt>
      <trkpt lat="46.20592" lon="6.85898">
        <ele>1689</ele>
        <time>2010-01-03T14:30:38Z</time>
      </trkpt>
      <trkpt lat="46.20607" lon="6.85906">
        <ele>1690</ele>
        <time>2010-01-03T14:30:44Z</time>
      </trkpt>
      <trkpt lat="46.20622" lon="6.85912">
        <ele>1690</ele>
        <time>2010-01-03T14:30:51Z</time>
      </trkpt>
      <trkpt lat="46.20624" lon="6.85914">
        <ele>1689</ele>
        <time>2010-01-03T14:30:52Z</time>
      </trkpt>
      <trkpt lat="46.20652" lon="6.85928">
        <ele>1678</ele>
        <time>2010-01-03T14:31:04Z</time>
      </trkpt>
      <trkpt lat="46.20694" lon="6.85937">
        <ele>1675</ele>
        <time>2010-01-03T14:31:20Z</time>
      </trkpt>
      <trkpt lat="46.20731" lon="6.85952">
        <ele>1673</ele>
        <time>2010-01-03T14:31:36Z</time>
      </trkpt>
      <trkpt lat="46.20745" lon="6.85965">
        <ele>1671</ele>
        <time>2010-01-03T14:31:42Z</time>
      </trkpt>
      <trkpt lat="46.20746" lon="6.85975">
        <ele>1669</ele>
        <time>2010-01-03T14:31:45Z</time>
      </trkpt>
      <trkpt lat="46.20742" lon="6.85985">
        <ele>1667</ele>
        <time>2010-01-03T14:31:48Z</time>
      </trkpt>
      <trkpt lat="46.20727" lon="6.86004">
        <ele>1659</ele>
        <time>2010-01-03T14:31:56Z</time>
      </trkpt>
      <trkpt lat="46.20705" lon="6.86021">
        <ele>1658</ele>
        <time>2010-01-03T14:32:06Z</time>
      </trkpt>
      <trkpt lat="46.2069" lon="6.86012">
        <ele>1659</ele>
        <time>2010-01-03T14:32:13Z</time>
      </trkpt>
      <trkpt lat="46.20679" lon="6.85998">
        <ele>1668</ele>
        <time>2010-01-03T14:32:19Z</time>
      </trkpt>
      <trkpt lat="46.20676" lon="6.85984">
        <ele>1669</ele>
        <time>2010-01-03T14:32:23Z</time>
      </trkpt>
      <trkpt lat="46.20676" lon="6.85999">
        <ele>1667</ele>
        <time>2010-01-03T14:32:27Z</time>
      </trkpt>
      <trkpt lat="46.20668" lon="6.86">
        <ele>1665</ele>
        <time>2010-01-03T14:32:30Z</time>
      </trkpt>
      <trkpt lat="46.20665" lon="6.85992">
        <ele>1668</ele>
        <time>2010-01-03T14:32:33Z</time>
      </trkpt>
      <trkpt lat="46.20648" lon="6.85891">
        <ele>1690</ele>
        <time>2010-01-03T14:33:01Z</time>
      </trkpt>
      <trkpt lat="46.20653" lon="6.85892">
        <ele>1690</ele>
        <time>2010-01-03T14:33:03Z</time>
      </trkpt>
      <trkpt lat="46.20642" lon="6.85852">
        <ele>1696</ele>
        <time>2010-01-03T14:33:15Z</time>
      </trkpt>
      <trkpt lat="46.20638" lon="6.85824">
        <ele>1707</ele>
        <time>2010-01-03T14:33:23Z</time>
      </trkpt>
      <trkpt lat="46.20631" lon="6.85791">
        <ele>1710</ele>
        <time>2010-01-03T14:33:32Z</time>
      </trkpt>
      <trkpt lat="46.20625" lon="6.85753">
        <ele>1712</ele>
        <time>2010-01-03T14:33:43Z</time>
      </trkpt>
      <trkpt lat="46.20616" lon="6.85704">
        <ele>1728</ele>
        <time>2010-01-03T14:33:57Z</time>
      </trkpt>
      <trkpt lat="46.20612" lon="6.85678">
        <ele>1732</ele>
        <time>2010-01-03T14:34:05Z</time>
      </trkpt>
      <trkpt lat="46.20595" lon="6.85577">
        <ele>1777</ele>
        <time>2010-01-03T14:34:33Z</time>
      </trkpt>
      <trkpt lat="46.20583" lon="6.85509">
        <ele>1802</ele>
        <time>2010-01-03T14:34:53Z</time>
      </trkpt>
      <trkpt lat="46.2058" lon="6.85491">
        <ele>1810</ele>
        <time>2010-01-03T14:34:58Z</time>
      </trkpt>
      <trkpt lat="46.20577" lon="6.85473">
        <ele>1816</ele>
        <time>2010-01-03T14:35:03Z</time>
      </trkpt>
      <trkpt lat="46.20575" lon="6.85454">
        <ele>1820</ele>
        <time>2010-01-03T14:35:09Z</time>
      </trkpt>
      <trkpt lat="46.20573" lon="6.8544">
        <ele>1822</ele>
        <time>2010-01-03T14:35:13Z</time>
      </trkpt>
      <trkpt lat="46.20569" lon="6.85423">
        <ele>1823</ele>
        <time>2010-01-03T14:35:17Z</time>
      </trkpt>
      <trkpt lat="46.20568" lon="6.85414">
        <ele>1832</ele>
        <time>2010-01-03T14:35:20Z</time>
      </trkpt>
      <trkpt lat="46.20565" lon="6.85394">
        <ele>1835</ele>
        <time>2010-01-03T14:35:26Z</time>
      </trkpt>
      <trkpt lat="46.20563" lon="6.85381">
        <ele>1838</ele>
        <time>2010-01-03T14:35:29Z</time>
      </trkpt>
      <trkpt lat="46.20563" lon="6.85381">
        <ele>1838</ele>
        <time>2010-01-03T14:35:29Z</time>
      </trkpt>
      <trkpt lat="46.20561" lon="6.85366">
        <ele>1840</ele>
        <time>2010-01-03T14:35:34Z</time>
      </trkpt>
      <trkpt lat="46.20559" lon="6.85358">
        <ele>1841</ele>
        <time>2010-01-03T14:35:36Z</time>
      </trkpt>
      <trkpt lat="46.20557" lon="6.85349">
        <ele>1842</ele>
        <time>2010-01-03T14:35:39Z</time>
      </trkpt>
      <trkpt lat="46.20554" lon="6.85334">
        <ele>1843</ele>
        <time>2010-01-03T14:35:43Z</time>
      </trkpt>
      <trkpt lat="46.2055" lon="6.85318">
        <ele>1857</ele>
        <time>2010-01-03T14:35:47Z</time>
      </trkpt>
      <trkpt lat="46.20545" lon="6.85291">
        <ele>1862</ele>
        <time>2010-01-03T14:35:55Z</time>
      </trkpt>
      <trkpt lat="46.20538" lon="6.85246">
        <ele>1886</ele>
        <time>2010-01-03T14:36:08Z</time>
      </trkpt>
      <trkpt lat="46.20524" lon="6.85163">
        <ele>1922</ele>
        <time>2010-01-03T14:36:32Z</time>
      </trkpt>
      <trkpt lat="46.20506" lon="6.85055">
        <ele>1958</ele>
        <time>2010-01-03T14:37:03Z</time>
      </trkpt>
      <trkpt lat="46.2048" lon="6.84891">
        <ele>1996</ele>
        <time>2010-01-03T14:37:49Z</time>
      </trkpt>
      <trkpt lat="46.20466" lon="6.84808">
        <ele>2004</ele>
        <time>2010-01-03T14:38:13Z</time>
      </trkpt>
      <trkpt lat="46.20433" lon="6.84707">
        <ele>2007</ele>
        <time>2010-01-03T14:38:44Z</time>
      </trkpt>
      <trkpt lat="46.20364" lon="6.84621">
        <ele>2014</ele>
        <time>2010-01-03T14:39:20Z</time>
      </trkpt>
      <trkpt lat="46.20251" lon="6.84524">
        <ele>2008</ele>
        <time>2010-01-03T14:40:13Z</time>
      </trkpt>
      <trkpt lat="46.20227" lon="6.84499">
        <ele>2011</ele>
        <time>2010-01-03T14:40:25Z</time>
      </trkpt>
      <trkpt lat="46.20207" lon="6.84481">
        <ele>2011</ele>
        <time>2010-01-03T14:40:34Z</time>
      </trkpt>
      <trkpt lat="46.20189" lon="6.84467">
        <ele>2013</ele>
        <time>2010-01-03T14:40:42Z</time>
      </trkpt>
      <trkpt lat="46.20177" lon="6.84455">
        <ele>2014</ele>
        <time>2010-01-03T14:40:48Z</time>
      </trkpt>
      <trkpt lat="46.20167" lon="6.84441">
        <ele>2018</ele>
        <time>2010-01-03T14:40:54Z</time>
      </trkpt>
      <trkpt lat="46.20167" lon="6.8444">
        <ele>2021</ele>
        <time>2010-01-03T14:40:54Z</time>
      </trkpt>
      <trkpt lat="46.20159" lon="6.84431">
        <ele>2023</ele>
        <time>2010-01-03T14:40:58Z</time>
      </trkpt>
      <trkpt lat="46.20158" lon="6.8443">
        <ele>2023</ele>
        <time>2010-01-03T14:40:58Z</time>
      </trkpt>
      <trkpt lat="46.20146" lon="6.84423">
        <ele>2022</ele>
        <time>2010-01-03T14:41:03Z</time>
      </trkpt>
      <trkpt lat="46.20125" lon="6.84419">
        <ele>2021</ele>
        <time>2010-01-03T14:41:12Z</time>
      </trkpt>
      <trkpt lat="46.20105" lon="6.84414">
        <ele>2033</ele>
        <time>2010-01-03T14:41:20Z</time>
      </trkpt>
      <trkpt lat="46.20095" lon="6.8441">
        <ele>2033</ele>
        <time>2010-01-03T14:41:24Z</time>
      </trkpt>
      <trkpt lat="46.20084" lon="6.84403">
        <ele>2034</ele>
        <time>2010-01-03T14:41:29Z</time>
      </trkpt>
      <trkpt lat="46.20075" lon="6.84396">
        <ele>2039</ele>
        <time>2010-01-03T14:41:33Z</time>
      </trkpt>
      <trkpt lat="46.20058" lon="6.84385">
        <ele>2042</ele>
        <time>2010-01-03T14:41:41Z</time>
      </trkpt>
      <trkpt lat="46.20054" lon="6.84381">
        <ele>2043</ele>
        <time>2010-01-03T14:41:43Z</time>
      </trkpt>
      <trkpt lat="46.20049" lon="6.84385">
        <ele>2043</ele>
        <time>2010-01-03T14:41:45Z</time>
      </trkpt>
      <trkpt lat="46.20047" lon="6.84391">
        <ele>2042</ele>
        <time>2010-01-03T14:41:47Z</time>
      </trkpt>
      <trkpt lat="46.20043" lon="6.84393">
        <ele>2041</ele>
        <time>2010-01-03T14:41:48Z</time>
      </trkpt>
      <trkpt lat="46.20038" lon="6.84396">
        <ele>2041</ele>
        <time>2010-01-03T14:41:50Z</time>
      </trkpt>
      <trkpt lat="46.2003" lon="6.84397">
        <ele>2040</ele>
        <time>2010-01-03T14:41:54Z</time>
      </trkpt>
      <trkpt lat="46.20025" lon="6.84397">
        <ele>2040</ele>
        <time>2010-01-03T14:41:56Z</time>
      </trkpt>
      <trkpt lat="46.20019" lon="6.84397">
        <ele>2039</ele>
        <time>2010-01-03T14:41:58Z</time>
      </trkpt>
      <trkpt lat="46.20012" lon="6.84398">
        <ele>2038</ele>
        <time>2010-01-03T14:42:01Z</time>
      </trkpt>
      <trkpt lat="46.2" lon="6.84396">
        <ele>2038</ele>
        <time>2010-01-03T14:42:06Z</time>
      </trkpt>
      <trkpt lat="46.19992" lon="6.84392">
        <ele>2034</ele>
        <time>2010-01-03T14:42:09Z</time>
      </trkpt>
      <trkpt lat="46.19991" lon="6.84392">
        <ele>2034</ele>
        <time>2010-01-03T14:42:10Z</time>
      </trkpt>
      <trkpt lat="46.19983" lon="6.8438">
        <ele>2036</ele>
        <time>2010-01-03T14:42:14Z</time>
      </trkpt>
      <trkpt lat="46.19975" lon="6.84372">
        <ele>2038</ele>
        <time>2010-01-03T14:42:18Z</time>
      </trkpt>
      <trkpt lat="46.19956" lon="6.84356">
        <ele>2038</ele>
        <time>2010-01-03T14:42:27Z</time>
      </trkpt>
      <trkpt lat="46.19927" lon="6.84339">
        <ele>2040</ele>
        <time>2010-01-03T14:42:39Z</time>
      </trkpt>
      <trkpt lat="46.19921" lon="6.84326">
        <ele>2049</ele>
        <time>2010-01-03T14:42:43Z</time>
      </trkpt>
      <trkpt lat="46.19913" lon="6.84314">
        <ele>2044</ele>
        <time>2010-01-03T14:42:48Z</time>
      </trkpt>
      <trkpt lat="46.19908" lon="6.843">
        <ele>2046</ele>
        <time>2010-01-03T14:42:52Z</time>
      </trkpt>
      <trkpt lat="46.19904" lon="6.84292">
        <ele>2047</ele>
        <time>2010-01-03T14:42:55Z</time>
      </trkpt>
      <trkpt lat="46.19901" lon="6.84284">
        <ele>2049</ele>
        <time>2010-01-03T14:42:58Z</time>
      </trkpt>
      <trkpt lat="46.19858" lon="6.84259">
        <ele>2047</ele>
        <time>2010-01-03T14:43:16Z</time>
      </trkpt>
      <trkpt lat="46.19833" lon="6.84245">
        <ele>2052</ele>
        <time>2010-01-03T14:43:27Z</time>
      </trkpt>
      <trkpt lat="46.19821" lon="6.84247">
        <ele>2053</ele>
        <time>2010-01-03T14:43:32Z</time>
      </trkpt>
      <trkpt lat="46.19793" lon="6.84231">
        <ele>2054</ele>
        <time>2010-01-03T14:43:44Z</time>
      </trkpt>
      <trkpt lat="46.19767" lon="6.84234">
        <ele>2048</ele>
        <time>2010-01-03T14:43:54Z</time>
      </trkpt>
      <trkpt lat="46.1974" lon="6.84242">
        <ele>2034</ele>
        <time>2010-01-03T14:44:05Z</time>
      </trkpt>
      <trkpt lat="46.19719" lon="6.8424">
        <ele>2032</ele>
        <time>2010-01-03T14:44:14Z</time>
      </trkpt>
      <trkpt lat="46.19711" lon="6.84234">
        <ele>2031</ele>
        <time>2010-01-03T14:44:17Z</time>
      </trkpt>
      <trkpt lat="46.19709" lon="6.84224">
        <ele>2032</ele>
        <time>2010-01-03T14:44:20Z</time>
      </trkpt>
      <trkpt lat="46.19708" lon="6.84206">
        <ele>2034</ele>
        <time>2010-01-03T14:44:25Z</time>
      </trkpt>
      <trkpt lat="46.19688" lon="6.84199">
        <ele>2031</ele>
        <time>2010-01-03T14:44:34Z</time>
      </trkpt>
      <trkpt lat="46.19675" lon="6.84194">
        <ele>2030</ele>
        <time>2010-01-03T14:44:39Z</time>
      </trkpt>
      <trkpt lat="46.19662" lon="6.84209">
        <ele>2013</ele>
        <time>2010-01-03T14:44:46Z</time>
      </trkpt>
      <trkpt lat="46.19645" lon="6.84227">
        <ele>2011</ele>
        <time>2010-01-03T14:44:54Z</time>
      </trkpt>
      <trkpt lat="46.1963" lon="6.84238">
        <ele>2008</ele>
        <time>2010-01-03T14:45:01Z</time>
      </trkpt>
      <trkpt lat="46.19619" lon="6.84246">
        <ele>2006</ele>
        <time>2010-01-03T14:45:06Z</time>
      </trkpt>
      <trkpt lat="46.19618" lon="6.84246">
        <ele>2006</ele>
        <time>2010-01-03T14:45:06Z</time>
      </trkpt>
      <trkpt lat="46.19602" lon="6.84247">
        <ele>2002</ele>
        <time>2010-01-03T14:45:13Z</time>
      </trkpt>
      <trkpt lat="46.19593" lon="6.84242">
        <ele>2000</ele>
        <time>2010-01-03T14:45:17Z</time>
      </trkpt>
      <trkpt lat="46.19585" lon="6.8422">
        <ele>2003</ele>
        <time>2010-01-03T14:45:24Z</time>
      </trkpt>
      <trkpt lat="46.19578" lon="6.84194">
        <ele>1986</ele>
        <time>2010-01-03T14:45:31Z</time>
      </trkpt>
      <trkpt lat="46.19575" lon="6.84174">
        <ele>1991</ele>
        <time>2010-01-03T14:45:37Z</time>
      </trkpt>
      <trkpt lat="46.19572" lon="6.84159">
        <ele>1992</ele>
        <time>2010-01-03T14:45:41Z</time>
      </trkpt>
      <trkpt lat="46.19562" lon="6.84117">
        <ele>1987</ele>
        <time>2010-01-03T14:45:54Z</time>
      </trkpt>
      <trkpt lat="46.19551" lon="6.84064">
        <ele>1987</ele>
        <time>2010-01-03T14:46:09Z</time>
      </trkpt>
      <trkpt lat="46.19549" lon="6.84059">
        <ele>1987</ele>
        <time>2010-01-03T14:46:10Z</time>
      </trkpt>
      <trkpt lat="46.1954" lon="6.83985">
        <ele>1985</ele>
        <time>2010-01-03T14:46:31Z</time>
      </trkpt>
      <trkpt lat="46.19528" lon="6.83928">
        <ele>1980</ele>
        <time>2010-01-03T14:46:48Z</time>
      </trkpt>
      <trkpt lat="46.1953" lon="6.83902">
        <ele>1980</ele>
        <time>2010-01-03T14:46:55Z</time>
      </trkpt>
      <trkpt lat="46.19525" lon="6.83864">
        <ele>1979</ele>
        <time>2010-01-03T14:47:06Z</time>
      </trkpt>
      <trkpt lat="46.19522" lon="6.83847">
        <ele>1977</ele>
        <time>2010-01-03T14:47:10Z</time>
      </trkpt>
      <trkpt lat="46.19518" lon="6.83845">
        <ele>1975</ele>
        <time>2010-01-03T14:47:12Z</time>
      </trkpt>
      <trkpt lat="46.19509" lon="6.83867">
        <ele>1976</ele>
        <time>2010-01-03T14:47:19Z</time>
      </trkpt>
      <trkpt lat="46.19501" lon="6.83886">
        <ele>1975</ele>
        <time>2010-01-03T14:47:25Z</time>
      </trkpt>
      <trkpt lat="46.19493" lon="6.83895">
        <ele>1955</ele>
        <time>2010-01-03T14:47:30Z</time>
      </trkpt>
      <trkpt lat="46.19479" lon="6.83903">
        <ele>1953</ele>
        <time>2010-01-03T14:47:36Z</time>
      </trkpt>
      <trkpt lat="46.19472" lon="6.83913">
        <ele>1952</ele>
        <time>2010-01-03T14:47:40Z</time>
      </trkpt>
      <trkpt lat="46.19466" lon="6.83932">
        <ele>1951</ele>
        <time>2010-01-03T14:47:45Z</time>
      </trkpt>
      <trkpt lat="46.1946" lon="6.83959">
        <ele>1950</ele>
        <time>2010-01-03T14:47:53Z</time>
      </trkpt>
      <trkpt lat="46.19449" lon="6.83977">
        <ele>1948</ele>
        <time>2010-01-03T14:48:00Z</time>
      </trkpt>
      <trkpt lat="46.19435" lon="6.83976">
        <ele>1946</ele>
        <time>2010-01-03T14:48:05Z</time>
      </trkpt>
      <trkpt lat="46.19424" lon="6.83961">
        <ele>1946</ele>
        <time>2010-01-03T14:48:12Z</time>
      </trkpt>
      <trkpt lat="46.19388" lon="6.83876">
        <ele>1925</ele>
        <time>2010-01-03T14:48:39Z</time>
      </trkpt>
      <trkpt lat="46.19372" lon="6.83847">
        <ele>1922</ele>
        <time>2010-01-03T14:48:49Z</time>
      </trkpt>
      <trkpt lat="46.19355" lon="6.83815">
        <ele>1916</ele>
        <time>2010-01-03T14:49:00Z</time>
      </trkpt>
      <trkpt lat="46.19349" lon="6.83779">
        <ele>1914</ele>
        <time>2010-01-03T14:49:11Z</time>
      </trkpt>
      <trkpt lat="46.1937" lon="6.83732">
        <ele>1911</ele>
        <time>2010-01-03T14:49:26Z</time>
      </trkpt>
      <trkpt lat="46.19384" lon="6.83705">
        <ele>1912</ele>
        <time>2010-01-03T14:49:36Z</time>
      </trkpt>
      <trkpt lat="46.19384" lon="6.83685">
        <ele>1912</ele>
        <time>2010-01-03T14:49:41Z</time>
      </trkpt>
      <trkpt lat="46.19376" lon="6.83675">
        <ele>1910</ele>
        <time>2010-01-03T14:49:46Z</time>
      </trkpt>
      <trkpt lat="46.19352" lon="6.83694">
        <ele>1907</ele>
        <time>2010-01-03T14:49:57Z</time>
      </trkpt>
      <trkpt lat="46.19326" lon="6.83716">
        <ele>1892</ele>
        <time>2010-01-03T14:50:09Z</time>
      </trkpt>
      <trkpt lat="46.19297" lon="6.83733">
        <ele>1889</ele>
        <time>2010-01-03T14:50:21Z</time>
      </trkpt>
      <trkpt lat="46.19293" lon="6.83746">
        <ele>1889</ele>
        <time>2010-01-03T14:50:25Z</time>
      </trkpt>
      <trkpt lat="46.19292" lon="6.83749">
        <ele>1889</ele>
        <time>2010-01-03T14:50:26Z</time>
      </trkpt>
      <trkpt lat="46.19285" lon="6.83779">
        <ele>1891</ele>
        <time>2010-01-03T14:50:35Z</time>
      </trkpt>
      <trkpt lat="46.19284" lon="6.83783">
        <ele>1891</ele>
        <time>2010-01-03T14:50:36Z</time>
      </trkpt>
      <trkpt lat="46.1928" lon="6.83811">
        <ele>1890</ele>
        <time>2010-01-03T14:50:44Z</time>
      </trkpt>
      <trkpt lat="46.19264" lon="6.83828">
        <ele>1885</ele>
        <time>2010-01-03T14:50:52Z</time>
      </trkpt>
      <trkpt lat="46.19246" lon="6.83825">
        <ele>1874</ele>
        <time>2010-01-03T14:50:59Z</time>
      </trkpt>
      <trkpt lat="46.19246" lon="6.83824">
        <ele>1873</ele>
        <time>2010-01-03T14:50:59Z</time>
      </trkpt>
      <trkpt lat="46.19224" lon="6.83803">
        <ele>1866</ele>
        <time>2010-01-03T14:51:10Z</time>
      </trkpt>
      <trkpt lat="46.19222" lon="6.83776">
        <ele>1865</ele>
        <time>2010-01-03T14:51:17Z</time>
      </trkpt>
      <trkpt lat="46.19223" lon="6.83706">
        <ele>1862</ele>
        <time>2010-01-03T14:51:37Z</time>
      </trkpt>
      <trkpt lat="46.19229" lon="6.836">
        <ele>1857</ele>
        <time>2010-01-03T14:52:06Z</time>
      </trkpt>
      <trkpt lat="46.19233" lon="6.83568">
        <ele>1854</ele>
        <time>2010-01-03T14:52:15Z</time>
      </trkpt>
      <trkpt lat="46.19229" lon="6.83555">
        <ele>1852</ele>
        <time>2010-01-03T14:52:19Z</time>
      </trkpt>
      <trkpt lat="46.1921" lon="6.83563">
        <ele>1850</ele>
        <time>2010-01-03T14:52:27Z</time>
      </trkpt>
      <trkpt lat="46.19193" lon="6.83564">
        <ele>1848</ele>
        <time>2010-01-03T14:52:34Z</time>
      </trkpt>
      <trkpt lat="46.19173" lon="6.83566">
        <ele>1846</ele>
        <time>2010-01-03T14:52:42Z</time>
      </trkpt>
      <trkpt lat="46.19148" lon="6.83565">
        <ele>1839</ele>
        <time>2010-01-03T14:52:52Z</time>
      </trkpt>
      <trkpt lat="46.19124" lon="6.83563">
        <ele>1837</ele>
        <time>2010-01-03T14:53:02Z</time>
      </trkpt>
      <trkpt lat="46.19108" lon="6.83573">
        <ele>1835</ele>
        <time>2010-01-03T14:53:09Z</time>
      </trkpt>
      <trkpt lat="46.19086" lon="6.8361">
        <ele>1831</ele>
        <time>2010-01-03T14:53:22Z</time>
      </trkpt>
      <trkpt lat="46.19064" lon="6.83645">
        <ele>1818</ele>
        <time>2010-01-03T14:53:35Z</time>
      </trkpt>
      <trkpt lat="46.19049" lon="6.8366">
        <ele>1816</ele>
        <time>2010-01-03T14:53:43Z</time>
      </trkpt>
      <trkpt lat="46.19033" lon="6.83643">
        <ele>1815</ele>
        <time>2010-01-03T14:53:51Z</time>
      </trkpt>
      <trkpt lat="46.19015" lon="6.83621">
        <ele>1815</ele>
        <time>2010-01-03T14:54:00Z</time>
      </trkpt>
      <trkpt lat="46.18998" lon="6.83611">
        <ele>1804</ele>
        <time>2010-01-03T14:54:07Z</time>
      </trkpt>
      <trkpt lat="46.18978" lon="6.83599">
        <ele>1803</ele>
        <time>2010-01-03T14:54:16Z</time>
      </trkpt>
      <trkpt lat="46.18976" lon="6.83596">
        <ele>1803</ele>
        <time>2010-01-03T14:54:17Z</time>
      </trkpt>
      <trkpt lat="46.18967" lon="6.83528">
        <ele>1811</ele>
        <time>2010-01-03T14:54:36Z</time>
      </trkpt>
      <trkpt lat="46.18959" lon="6.83492">
        <ele>1819</ele>
        <time>2010-01-03T14:54:47Z</time>
      </trkpt>
      <trkpt lat="46.18945" lon="6.83466">
        <ele>1818</ele>
        <time>2010-01-03T14:54:56Z</time>
      </trkpt>
      <trkpt lat="46.18924" lon="6.8345">
        <ele>1818</ele>
        <time>2010-01-03T14:55:05Z</time>
      </trkpt>
      <trkpt lat="46.18908" lon="6.83434">
        <ele>1806</ele>
        <time>2010-01-03T14:55:13Z</time>
      </trkpt>
      <trkpt lat="46.18891" lon="6.83415">
        <ele>1813</ele>
        <time>2010-01-03T14:55:22Z</time>
      </trkpt>
      <trkpt lat="46.18864" lon="6.83391">
        <ele>1808</ele>
        <time>2010-01-03T14:55:34Z</time>
      </trkpt>
      <trkpt lat="46.18855" lon="6.83375">
        <ele>1808</ele>
        <time>2010-01-03T14:55:40Z</time>
      </trkpt>
      <trkpt lat="46.18841" lon="6.83329">
        <ele>1810</ele>
        <time>2010-01-03T14:55:54Z</time>
      </trkpt>
      <trkpt lat="46.18817" lon="6.83247">
        <ele>1813</ele>
        <time>2010-01-03T14:56:19Z</time>
      </trkpt>
      <trkpt lat="46.18794" lon="6.83227">
        <ele>1809</ele>
        <time>2010-01-03T14:56:30Z</time>
      </trkpt>
      <trkpt lat="46.18774" lon="6.83216">
        <ele>1807</ele>
        <time>2010-01-03T14:56:38Z</time>
      </trkpt>
      <trkpt lat="46.1876" lon="6.83163">
        <ele>1812</ele>
        <time>2010-01-03T14:56:54Z</time>
      </trkpt>
      <trkpt lat="46.18758" lon="6.8316">
        <ele>1811</ele>
        <time>2010-01-03T14:56:55Z</time>
      </trkpt>
      <trkpt lat="46.18741" lon="6.83138">
        <ele>1800</ele>
        <time>2010-01-03T14:57:04Z</time>
      </trkpt>
      <trkpt lat="46.18733" lon="6.83092">
        <ele>1805</ele>
        <time>2010-01-03T14:57:17Z</time>
      </trkpt>
      <trkpt lat="46.18731" lon="6.8304">
        <ele>1810</ele>
        <time>2010-01-03T14:57:32Z</time>
      </trkpt>
      <trkpt lat="46.18731" lon="6.83021">
        <ele>1813</ele>
        <time>2010-01-03T14:57:37Z</time>
      </trkpt>
      <trkpt lat="46.1872" lon="6.82993">
        <ele>1817</ele>
        <time>2010-01-03T14:57:46Z</time>
      </trkpt>
      <trkpt lat="46.18712" lon="6.82927">
        <ele>1818</ele>
        <time>2010-01-03T14:58:04Z</time>
      </trkpt>
      <trkpt lat="46.18714" lon="6.82875">
        <ele>1823</ele>
        <time>2010-01-03T14:58:19Z</time>
      </trkpt>
      <trkpt lat="46.18711" lon="6.8282">
        <ele>1825</ele>
        <time>2010-01-03T14:58:34Z</time>
      </trkpt>
      <trkpt lat="46.1871" lon="6.82748">
        <ele>1830</ele>
        <time>2010-01-03T14:58:54Z</time>
      </trkpt>
      <trkpt lat="46.18708" lon="6.82685">
        <ele>1832</ele>
        <time>2010-01-03T14:59:12Z</time>
      </trkpt>
      <trkpt lat="46.18703" lon="6.82641">
        <ele>1839</ele>
        <time>2010-01-03T14:59:24Z</time>
      </trkpt>
      <trkpt lat="46.18692" lon="6.8261">
        <ele>1840</ele>
        <time>2010-01-03T14:59:34Z</time>
      </trkpt>
      <trkpt lat="46.18669" lon="6.82592">
        <ele>1835</ele>
        <time>2010-01-03T14:59:44Z</time>
      </trkpt>
      <trkpt lat="46.18638" lon="6.8256">
        <ele>1838</ele>
        <time>2010-01-03T14:59:59Z</time>
      </trkpt>
      <trkpt lat="46.18595" lon="6.82538">
        <ele>1839</ele>
        <time>2010-01-03T15:00:18Z</time>
      </trkpt>
      <trkpt lat="46.18498" lon="6.82496">
        <ele>1836</ele>
        <time>2010-01-03T15:00:58Z</time>
      </trkpt>
      <trkpt lat="46.18472" lon="6.82469">
        <ele>1843</ele>
        <time>2010-01-03T15:01:11Z</time>
      </trkpt>
      <trkpt lat="46.18458" lon="6.82446">
        <ele>1845</ele>
        <time>2010-01-03T15:01:19Z</time>
      </trkpt>
      <trkpt lat="46.18449" lon="6.82424">
        <ele>1846</ele>
        <time>2010-01-03T15:01:27Z</time>
      </trkpt>
      <trkpt lat="46.18434" lon="6.82421">
        <ele>1846</ele>
        <time>2010-01-03T15:01:32Z</time>
      </trkpt>
      <trkpt lat="46.18424" lon="6.82438">
        <ele>1844</ele>
        <time>2010-01-03T15:01:38Z</time>
      </trkpt>
      <trkpt lat="46.18415" lon="6.8247">
        <ele>1836</ele>
        <time>2010-01-03T15:01:48Z</time>
      </trkpt>
      <trkpt lat="46.18395" lon="6.82472">
        <ele>1836</ele>
        <time>2010-01-03T15:01:56Z</time>
      </trkpt>
      <trkpt lat="46.1839" lon="6.8247">
        <ele>1837</ele>
        <time>2010-01-03T15:01:58Z</time>
      </trkpt>
      <trkpt lat="46.18404" lon="6.82473">
        <ele>1836</ele>
        <time>2010-01-03T15:02:04Z</time>
      </trkpt>
      <trkpt lat="46.18376" lon="6.82468">
        <ele>1837</ele>
        <time>2010-01-03T15:02:15Z</time>
      </trkpt>
      <trkpt lat="46.18361" lon="6.82451">
        <ele>1839</ele>
        <time>2010-01-03T15:02:23Z</time>
      </trkpt>
      <trkpt lat="46.18337" lon="6.82426">
        <ele>1842</ele>
        <time>2010-01-03T15:02:35Z</time>
      </trkpt>
      <trkpt lat="46.18309" lon="6.82405">
        <ele>1846</ele>
        <time>2010-01-03T15:02:47Z</time>
      </trkpt>
      <trkpt lat="46.18268" lon="6.82379">
        <ele>1847</ele>
        <time>2010-01-03T15:03:05Z</time>
      </trkpt>
      <trkpt lat="46.18245" lon="6.82373">
        <ele>1846</ele>
        <time>2010-01-03T15:03:15Z</time>
      </trkpt>
      <trkpt lat="46.18228" lon="6.82344">
        <ele>1848</ele>
        <time>2010-01-03T15:03:25Z</time>
      </trkpt>
      <trkpt lat="46.18218" lon="6.82326">
        <ele>1857</ele>
        <time>2010-01-03T15:03:31Z</time>
      </trkpt>
      <trkpt lat="46.18204" lon="6.8232">
        <ele>1857</ele>
        <time>2010-01-03T15:03:37Z</time>
      </trkpt>
      <trkpt lat="46.18187" lon="6.8234">
        <ele>1848</ele>
        <time>2010-01-03T15:03:46Z</time>
      </trkpt>
      <trkpt lat="46.1818" lon="6.82359">
        <ele>1846</ele>
        <time>2010-01-03T15:03:52Z</time>
      </trkpt>
      <trkpt lat="46.18166" lon="6.82371">
        <ele>1845</ele>
        <time>2010-01-03T15:03:58Z</time>
      </trkpt>
      <trkpt lat="46.18153" lon="6.82395">
        <ele>1841</ele>
        <time>2010-01-03T15:04:07Z</time>
      </trkpt>
      <trkpt lat="46.18147" lon="6.82417">
        <ele>1833</ele>
        <time>2010-01-03T15:04:14Z</time>
      </trkpt>
      <trkpt lat="46.18128" lon="6.82431">
        <ele>1832</ele>
        <time>2010-01-03T15:04:22Z</time>
      </trkpt>
      <trkpt lat="46.1811" lon="6.82432">
        <ele>1832</ele>
        <time>2010-01-03T15:04:29Z</time>
      </trkpt>
      <trkpt lat="46.1809" lon="6.82437">
        <ele>1833</ele>
        <time>2010-01-03T15:04:37Z</time>
      </trkpt>
      <trkpt lat="46.18065" lon="6.8245">
        <ele>1834</ele>
        <time>2010-01-03T15:04:48Z</time>
      </trkpt>
      <trkpt lat="46.18041" lon="6.8245">
        <ele>1835</ele>
        <time>2010-01-03T15:04:58Z</time>
      </trkpt>
      <trkpt lat="46.18006" lon="6.82475">
        <ele>1833</ele>
        <time>2010-01-03T15:05:13Z</time>
      </trkpt>
      <trkpt lat="46.17979" lon="6.82492">
        <ele>1835</ele>
        <time>2010-01-03T15:05:25Z</time>
      </trkpt>
      <trkpt lat="46.17966" lon="6.82504">
        <ele>1832</ele>
        <time>2010-01-03T15:05:31Z</time>
      </trkpt>
      <trkpt lat="46.17961" lon="6.8253">
        <ele>1831</ele>
        <time>2010-01-03T15:05:39Z</time>
      </trkpt>
      <trkpt lat="46.1795" lon="6.82548">
        <ele>1831</ele>
        <time>2010-01-03T15:05:45Z</time>
      </trkpt>
      <trkpt lat="46.1793" lon="6.82563">
        <ele>1831</ele>
        <time>2010-01-03T15:05:54Z</time>
      </trkpt>
      <trkpt lat="46.17919" lon="6.82558">
        <ele>1831</ele>
        <time>2010-01-03T15:05:59Z</time>
      </trkpt>
      <trkpt lat="46.17911" lon="6.82543">
        <ele>1826</ele>
        <time>2010-01-03T15:06:04Z</time>
      </trkpt>
      <trkpt lat="46.17899" lon="6.82528">
        <ele>1826</ele>
        <time>2010-01-03T15:06:10Z</time>
      </trkpt>
      <trkpt lat="46.17893" lon="6.82507">
        <ele>1826</ele>
        <time>2010-01-03T15:06:17Z</time>
      </trkpt>
      <trkpt lat="46.17893" lon="6.8247">
        <ele>1829</ele>
        <time>2010-01-03T15:06:27Z</time>
      </trkpt>
      <trkpt lat="46.17882" lon="6.82414">
        <ele>1834</ele>
        <time>2010-01-03T15:06:43Z</time>
      </trkpt>
      <trkpt lat="46.1788" lon="6.82392">
        <ele>1834</ele>
        <time>2010-01-03T15:06:49Z</time>
      </trkpt>
      <trkpt lat="46.17877" lon="6.82373">
        <ele>1835</ele>
        <time>2010-01-03T15:06:55Z</time>
      </trkpt>
      <trkpt lat="46.1788" lon="6.82343">
        <ele>1837</ele>
        <time>2010-01-03T15:07:03Z</time>
      </trkpt>
      <trkpt lat="46.17878" lon="6.82311">
        <ele>1845</ele>
        <time>2010-01-03T15:07:12Z</time>
      </trkpt>
      <trkpt lat="46.17864" lon="6.82252">
        <ele>1845</ele>
        <time>2010-01-03T15:07:29Z</time>
      </trkpt>
      <trkpt lat="46.17851" lon="6.82188">
        <ele>1854</ele>
        <time>2010-01-03T15:07:48Z</time>
      </trkpt>
      <trkpt lat="46.17837" lon="6.82153">
        <ele>1855</ele>
        <time>2010-01-03T15:07:59Z</time>
      </trkpt>
      <trkpt lat="46.17828" lon="6.82124">
        <ele>1841</ele>
        <time>2010-01-03T15:08:08Z</time>
      </trkpt>
      <trkpt lat="46.17813" lon="6.82088">
        <ele>1844</ele>
        <time>2010-01-03T15:08:19Z</time>
      </trkpt>
      <trkpt lat="46.17799" lon="6.82067">
        <ele>1845</ele>
        <time>2010-01-03T15:08:27Z</time>
      </trkpt>
      <trkpt lat="46.17795" lon="6.82053">
        <ele>1844</ele>
        <time>2010-01-03T15:08:31Z</time>
      </trkpt>
      <trkpt lat="46.17795" lon="6.82043">
        <ele>1844</ele>
        <time>2010-01-03T15:08:34Z</time>
      </trkpt>
      <trkpt lat="46.17797" lon="6.82029">
        <ele>1845</ele>
        <time>2010-01-03T15:08:38Z</time>
      </trkpt>
      <trkpt lat="46.17796" lon="6.82006">
        <ele>1846</ele>
        <time>2010-01-03T15:08:45Z</time>
      </trkpt>
      <trkpt lat="46.17794" lon="6.81989">
        <ele>1849</ele>
        <time>2010-01-03T15:08:49Z</time>
      </trkpt>
      <trkpt lat="46.17784" lon="6.81953">
        <ele>1847</ele>
        <time>2010-01-03T15:09:00Z</time>
      </trkpt>
      <trkpt lat="46.1778" lon="6.81927">
        <ele>1846</ele>
        <time>2010-01-03T15:09:07Z</time>
      </trkpt>
      <trkpt lat="46.17785" lon="6.81892">
        <ele>1851</ele>
        <time>2010-01-03T15:09:17Z</time>
      </trkpt>
      <trkpt lat="46.17786" lon="6.81871">
        <ele>1852</ele>
        <time>2010-01-03T15:09:23Z</time>
      </trkpt>
      <trkpt lat="46.17778" lon="6.81843">
        <ele>1849</ele>
        <time>2010-01-03T15:09:32Z</time>
      </trkpt>
      <trkpt lat="46.17777" lon="6.81827">
        <ele>1853</ele>
        <time>2010-01-03T15:09:36Z</time>
      </trkpt>
      <trkpt lat="46.17785" lon="6.81799">
        <ele>1858</ele>
        <time>2010-01-03T15:09:44Z</time>
      </trkpt>
      <trkpt lat="46.17788" lon="6.81785">
        <ele>1860</ele>
        <time>2010-01-03T15:09:48Z</time>
      </trkpt>
      <trkpt lat="46.17779" lon="6.81758">
        <ele>1857</ele>
        <time>2010-01-03T15:09:57Z</time>
      </trkpt>
      <trkpt lat="46.17765" lon="6.81729">
        <ele>1859</ele>
        <time>2010-01-03T15:10:07Z</time>
      </trkpt>
      <trkpt lat="46.17746" lon="6.81699">
        <ele>1840</ele>
        <time>2010-01-03T15:10:18Z</time>
      </trkpt>
      <trkpt lat="46.17732" lon="6.81674">
        <ele>1842</ele>
        <time>2010-01-03T15:10:27Z</time>
      </trkpt>
      <trkpt lat="46.17728" lon="6.81646">
        <ele>1843</ele>
        <time>2010-01-03T15:10:35Z</time>
      </trkpt>
      <trkpt lat="46.17735" lon="6.81601">
        <ele>1844</ele>
        <time>2010-01-03T15:10:47Z</time>
      </trkpt>
      <trkpt lat="46.17741" lon="6.81569">
        <ele>1845</ele>
        <time>2010-01-03T15:10:57Z</time>
      </trkpt>
      <trkpt lat="46.17748" lon="6.81513">
        <ele>1845</ele>
        <time>2010-01-03T15:11:12Z</time>
      </trkpt>
      <trkpt lat="46.17751" lon="6.81477">
        <ele>1859</ele>
        <time>2010-01-03T15:11:23Z</time>
      </trkpt>
      <trkpt lat="46.17754" lon="6.81457">
        <ele>1862</ele>
        <time>2010-01-03T15:11:28Z</time>
      </trkpt>
      <trkpt lat="46.17744" lon="6.81434">
        <ele>1848</ele>
        <time>2010-01-03T15:11:36Z</time>
      </trkpt>
      <trkpt lat="46.17733" lon="6.81411">
        <ele>1854</ele>
        <time>2010-01-03T15:11:44Z</time>
      </trkpt>
      <trkpt lat="46.1771" lon="6.81396">
        <ele>1852</ele>
        <time>2010-01-03T15:11:54Z</time>
      </trkpt>
      <trkpt lat="46.17668" lon="6.81371">
        <ele>1850</ele>
        <time>2010-01-03T15:12:12Z</time>
      </trkpt>
      <trkpt lat="46.17635" lon="6.81347">
        <ele>1846</ele>
        <time>2010-01-03T15:12:27Z</time>
      </trkpt>
      <trkpt lat="46.17617" lon="6.81322">
        <ele>1856</ele>
        <time>2010-01-03T15:12:36Z</time>
      </trkpt>
      <trkpt lat="46.17599" lon="6.81315">
        <ele>1855</ele>
        <time>2010-01-03T15:12:44Z</time>
      </trkpt>
      <trkpt lat="46.17576" lon="6.81304">
        <ele>1853</ele>
        <time>2010-01-03T15:12:54Z</time>
      </trkpt>
      <trkpt lat="46.17553" lon="6.81294">
        <ele>1854</ele>
        <time>2010-01-03T15:13:03Z</time>
      </trkpt>
      <trkpt lat="46.17527" lon="6.81293">
        <ele>1853</ele>
        <time>2010-01-03T15:13:14Z</time>
      </trkpt>
      <trkpt lat="46.17504" lon="6.81307">
        <ele>1851</ele>
        <time>2010-01-03T15:13:23Z</time>
      </trkpt>
      <trkpt lat="46.17484" lon="6.81323">
        <ele>1848</ele>
        <time>2010-01-03T15:13:33Z</time>
      </trkpt>
      <trkpt lat="46.1747" lon="6.81348">
        <ele>1842</ele>
        <time>2010-01-03T15:13:42Z</time>
      </trkpt>
      <trkpt lat="46.1745" lon="6.81377">
        <ele>1840</ele>
        <time>2010-01-03T15:13:53Z</time>
      </trkpt>
      <trkpt lat="46.17434" lon="6.81403">
        <ele>1839</ele>
        <time>2010-01-03T15:14:03Z</time>
      </trkpt>
      <trkpt lat="46.17419" lon="6.8143">
        <ele>1834</ele>
        <time>2010-01-03T15:14:12Z</time>
      </trkpt>
      <trkpt lat="46.17402" lon="6.81467">
        <ele>1832</ele>
        <time>2010-01-03T15:14:25Z</time>
      </trkpt>
      <trkpt lat="46.17382" lon="6.81485">
        <ele>1832</ele>
        <time>2010-01-03T15:14:34Z</time>
      </trkpt>
      <trkpt lat="46.17348" lon="6.81511">
        <ele>1828</ele>
        <time>2010-01-03T15:14:49Z</time>
      </trkpt>
      <trkpt lat="46.17327" lon="6.8154">
        <ele>1828</ele>
        <time>2010-01-03T15:15:01Z</time>
      </trkpt>
      <trkpt lat="46.17319" lon="6.81566">
        <ele>1826</ele>
        <time>2010-01-03T15:15:09Z</time>
      </trkpt>
      <trkpt lat="46.17311" lon="6.81589">
        <ele>1820</ele>
        <time>2010-01-03T15:15:16Z</time>
      </trkpt>
      <trkpt lat="46.17295" lon="6.81597">
        <ele>1819</ele>
        <time>2010-01-03T15:15:23Z</time>
      </trkpt>
      <trkpt lat="46.17279" lon="6.81586">
        <ele>1820</ele>
        <time>2010-01-03T15:15:30Z</time>
      </trkpt>
      <trkpt lat="46.17256" lon="6.81585">
        <ele>1824</ele>
        <time>2010-01-03T15:15:39Z</time>
      </trkpt>
      <trkpt lat="46.1723" lon="6.81592">
        <ele>1823</ele>
        <time>2010-01-03T15:15:50Z</time>
      </trkpt>
      <trkpt lat="46.17207" lon="6.81584">
        <ele>1824</ele>
        <time>2010-01-03T15:15:59Z</time>
      </trkpt>
      <trkpt lat="46.17178" lon="6.81576">
        <ele>1830</ele>
        <time>2010-01-03T15:16:11Z</time>
      </trkpt>
      <trkpt lat="46.17162" lon="6.81584">
        <ele>1828</ele>
        <time>2010-01-03T15:16:18Z</time>
      </trkpt>
      <trkpt lat="46.1716" lon="6.81618">
        <ele>1825</ele>
        <time>2010-01-03T15:16:27Z</time>
      </trkpt>
      <trkpt lat="46.17147" lon="6.81636">
        <ele>1824</ele>
        <time>2010-01-03T15:16:35Z</time>
      </trkpt>
      <trkpt lat="46.17134" lon="6.81645">
        <ele>1824</ele>
        <time>2010-01-03T15:16:40Z</time>
      </trkpt>
      <trkpt lat="46.17094" lon="6.81661">
        <ele>1823</ele>
        <time>2010-01-03T15:16:57Z</time>
      </trkpt>
      <trkpt lat="46.17058" lon="6.81675">
        <ele>1818</ele>
        <time>2010-01-03T15:17:12Z</time>
      </trkpt>
      <trkpt lat="46.17033" lon="6.81674">
        <ele>1817</ele>
        <time>2010-01-03T15:17:22Z</time>
      </trkpt>
      <trkpt lat="46.17016" lon="6.8167">
        <ele>1818</ele>
        <time>2010-01-03T15:17:29Z</time>
      </trkpt>
      <trkpt lat="46.17004" lon="6.8165">
        <ele>1823</ele>
        <time>2010-01-03T15:17:36Z</time>
      </trkpt>
      <trkpt lat="46.16981" lon="6.81617">
        <ele>1817</ele>
        <time>2010-01-03T15:17:49Z</time>
      </trkpt>
      <trkpt lat="46.16969" lon="6.81592">
        <ele>1817</ele>
        <time>2010-01-03T15:17:58Z</time>
      </trkpt>
      <trkpt lat="46.16963" lon="6.81566">
        <ele>1821</ele>
        <time>2010-01-03T15:18:05Z</time>
      </trkpt>
      <trkpt lat="46.16968" lon="6.81538">
        <ele>1822</ele>
        <time>2010-01-03T15:18:13Z</time>
      </trkpt>
      <trkpt lat="46.16966" lon="6.81518">
        <ele>1823</ele>
        <time>2010-01-03T15:18:19Z</time>
      </trkpt>
      <trkpt lat="46.16945" lon="6.81467">
        <ele>1828</ele>
        <time>2010-01-03T15:18:35Z</time>
      </trkpt>
      <trkpt lat="46.16913" lon="6.81417">
        <ele>1817</ele>
        <time>2010-01-03T15:18:54Z</time>
      </trkpt>
      <trkpt lat="46.16899" lon="6.81396">
        <ele>1816</ele>
        <time>2010-01-03T15:19:02Z</time>
      </trkpt>
      <trkpt lat="46.16888" lon="6.81372">
        <ele>1815</ele>
        <time>2010-01-03T15:19:10Z</time>
      </trkpt>
      <trkpt lat="46.16883" lon="6.81351">
        <ele>1816</ele>
        <time>2010-01-03T15:19:16Z</time>
      </trkpt>
      <trkpt lat="46.16872" lon="6.81336">
        <ele>1814</ele>
        <time>2010-01-03T15:19:22Z</time>
      </trkpt>
      <trkpt lat="46.16842" lon="6.8129">
        <ele>1819</ele>
        <time>2010-01-03T15:19:40Z</time>
      </trkpt>
      <trkpt lat="46.16826" lon="6.81252">
        <ele>1809</ele>
        <time>2010-01-03T15:19:52Z</time>
      </trkpt>
      <trkpt lat="46.16817" lon="6.81234">
        <ele>1811</ele>
        <time>2010-01-03T15:19:58Z</time>
      </trkpt>
      <trkpt lat="46.16801" lon="6.81232">
        <ele>1809</ele>
        <time>2010-01-03T15:20:05Z</time>
      </trkpt>
      <trkpt lat="46.16786" lon="6.81222">
        <ele>1807</ele>
        <time>2010-01-03T15:20:11Z</time>
      </trkpt>
      <trkpt lat="46.16775" lon="6.81202">
        <ele>1808</ele>
        <time>2010-01-03T15:20:18Z</time>
      </trkpt>
      <trkpt lat="46.16746" lon="6.81181">
        <ele>1796</ele>
        <time>2010-01-03T15:20:31Z</time>
      </trkpt>
      <trkpt lat="46.16725" lon="6.81164">
        <ele>1800</ele>
        <time>2010-01-03T15:20:41Z</time>
      </trkpt>
      <trkpt lat="46.1671" lon="6.81142">
        <ele>1798</ele>
        <time>2010-01-03T15:20:50Z</time>
      </trkpt>
      <trkpt lat="46.16704" lon="6.81125">
        <ele>1798</ele>
        <time>2010-01-03T15:20:55Z</time>
      </trkpt>
      <trkpt lat="46.1669" lon="6.81092">
        <ele>1797</ele>
        <time>2010-01-03T15:21:06Z</time>
      </trkpt>
      <trkpt lat="46.16677" lon="6.81074">
        <ele>1798</ele>
        <time>2010-01-03T15:21:13Z</time>
      </trkpt>
      <trkpt lat="46.16664" lon="6.81061">
        <ele>1788</ele>
        <time>2010-01-03T15:21:19Z</time>
      </trkpt>
      <trkpt lat="46.16653" lon="6.81057">
        <ele>1787</ele>
        <time>2010-01-03T15:21:23Z</time>
      </trkpt>
      <trkpt lat="46.16654" lon="6.81072">
        <ele>1788</ele>
        <time>2010-01-03T15:21:28Z</time>
      </trkpt>
      <trkpt lat="46.16666" lon="6.81079">
        <ele>1790</ele>
        <time>2010-01-03T15:21:33Z</time>
      </trkpt>
      <trkpt lat="46.16678" lon="6.81101">
        <ele>1795</ele>
        <time>2010-01-03T15:21:40Z</time>
      </trkpt>
      <trkpt lat="46.16684" lon="6.81136">
        <ele>1794</ele>
        <time>2010-01-03T15:21:50Z</time>
      </trkpt>
      <trkpt lat="46.1669" lon="6.81179">
        <ele>1785</ele>
        <time>2010-01-03T15:22:03Z</time>
      </trkpt>
      <trkpt lat="46.1669" lon="6.81206">
        <ele>1783</ele>
        <time>2010-01-03T15:22:10Z</time>
      </trkpt>
      <trkpt lat="46.16696" lon="6.81234">
        <ele>1781</ele>
        <time>2010-01-03T15:22:18Z</time>
      </trkpt>
      <trkpt lat="46.16703" lon="6.81255">
        <ele>1774</ele>
        <time>2010-01-03T15:22:25Z</time>
      </trkpt>
      <trkpt lat="46.1671" lon="6.81268">
        <ele>1775</ele>
        <time>2010-01-03T15:22:29Z</time>
      </trkpt>
      <trkpt lat="46.16705" lon="6.81288">
        <ele>1773</ele>
        <time>2010-01-03T15:22:35Z</time>
      </trkpt>
      <trkpt lat="46.16706" lon="6.81309">
        <ele>1772</ele>
        <time>2010-01-03T15:22:41Z</time>
      </trkpt>
      <trkpt lat="46.1672" lon="6.81332">
        <ele>1774</ele>
        <time>2010-01-03T15:22:50Z</time>
      </trkpt>
      <trkpt lat="46.16721" lon="6.81349">
        <ele>1770</ele>
        <time>2010-01-03T15:22:54Z</time>
      </trkpt>
      <trkpt lat="46.16711" lon="6.8138">
        <ele>1768</ele>
        <time>2010-01-03T15:23:04Z</time>
      </trkpt>
      <trkpt lat="46.1671" lon="6.81417">
        <ele>1766</ele>
        <time>2010-01-03T15:23:14Z</time>
      </trkpt>
      <trkpt lat="46.16713" lon="6.81443">
        <ele>1766</ele>
        <time>2010-01-03T15:23:21Z</time>
      </trkpt>
      <trkpt lat="46.16709" lon="6.81464">
        <ele>1764</ele>
        <time>2010-01-03T15:23:27Z</time>
      </trkpt>
      <trkpt lat="46.16708" lon="6.81488">
        <ele>1764</ele>
        <time>2010-01-03T15:23:34Z</time>
      </trkpt>
      <trkpt lat="46.16705" lon="6.81504">
        <ele>1760</ele>
        <time>2010-01-03T15:23:38Z</time>
      </trkpt>
      <trkpt lat="46.16704" lon="6.81523">
        <ele>1760</ele>
        <time>2010-01-03T15:23:44Z</time>
      </trkpt>
      <trkpt lat="46.16699" lon="6.81538">
        <ele>1759</ele>
        <time>2010-01-03T15:23:49Z</time>
      </trkpt>
      <trkpt lat="46.16688" lon="6.8158">
        <ele>1755</ele>
        <time>2010-01-03T15:24:01Z</time>
      </trkpt>
      <trkpt lat="46.16672" lon="6.81587">
        <ele>1750</ele>
        <time>2010-01-03T15:24:08Z</time>
      </trkpt>
      <trkpt lat="46.16658" lon="6.81594">
        <ele>1744</ele>
        <time>2010-01-03T15:24:14Z</time>
      </trkpt>
      <trkpt lat="46.16638" lon="6.81589">
        <ele>1741</ele>
        <time>2010-01-03T15:24:22Z</time>
      </trkpt>
      <trkpt lat="46.16629" lon="6.8158">
        <ele>1743</ele>
        <time>2010-01-03T15:24:26Z</time>
      </trkpt>
      <trkpt lat="46.16621" lon="6.81567">
        <ele>1742</ele>
        <time>2010-01-03T15:24:31Z</time>
      </trkpt>
      <trkpt lat="46.16622" lon="6.81553">
        <ele>1743</ele>
        <time>2010-01-03T15:24:35Z</time>
      </trkpt>
      <trkpt lat="46.16627" lon="6.81549">
        <ele>1744</ele>
        <time>2010-01-03T15:24:37Z</time>
      </trkpt>
      <trkpt lat="46.16628" lon="6.81548">
        <ele>1744</ele>
        <time>2010-01-03T15:24:38Z</time>
      </trkpt>
      <trkpt lat="46.1663" lon="6.81546">
        <ele>1744</ele>
        <time>2010-01-03T15:24:39Z</time>
      </trkpt>
      <trkpt lat="46.16631" lon="6.81543">
        <ele>1744</ele>
        <time>2010-01-03T15:24:39Z</time>
      </trkpt>
      <trkpt lat="46.16631" lon="6.8154">
        <ele>1744</ele>
        <time>2010-01-03T15:24:40Z</time>
      </trkpt>
      <trkpt lat="46.16632" lon="6.81537">
        <ele>1744</ele>
        <time>2010-01-03T15:24:41Z</time>
      </trkpt>
      <trkpt lat="46.16631" lon="6.81534">
        <ele>1744</ele>
        <time>2010-01-03T15:24:42Z</time>
      </trkpt>
      <trkpt lat="46.16629" lon="6.81531">
        <ele>1744</ele>
        <time>2010-01-03T15:24:43Z</time>
      </trkpt>
      <trkpt lat="46.16628" lon="6.81529">
        <ele>1744</ele>
        <time>2010-01-03T15:24:44Z</time>
      </trkpt>
      <trkpt lat="46.16628" lon="6.81527">
        <ele>1744</ele>
        <time>2010-01-03T15:24:44Z</time>
      </trkpt>
      <trkpt lat="46.16617" lon="6.81518">
        <ele>1743</ele>
        <time>2010-01-03T15:24:49Z</time>
      </trkpt>
      <trkpt lat="46.16611" lon="6.81513">
        <ele>1742</ele>
        <time>2010-01-03T15:24:52Z</time>
      </trkpt>
      <trkpt lat="46.16609" lon="6.81511">
        <ele>1742</ele>
        <time>2010-01-03T15:24:53Z</time>
      </trkpt>
      <trkpt lat="46.16608" lon="6.81509">
        <ele>1742</ele>
        <time>2010-01-03T15:24:54Z</time>
      </trkpt>
      <trkpt lat="46.16607" lon="6.81506">
        <ele>1742</ele>
        <time>2010-01-03T15:24:55Z</time>
      </trkpt>
      <trkpt lat="46.16607" lon="6.81503">
        <ele>1742</ele>
        <time>2010-01-03T15:24:56Z</time>
      </trkpt>
      <trkpt lat="46.16607" lon="6.81501">
        <ele>1742</ele>
        <time>2010-01-03T15:24:56Z</time>
      </trkpt>
      <trkpt lat="46.16606" lon="6.81497">
        <ele>1743</ele>
        <time>2010-01-03T15:24:57Z</time>
      </trkpt>
      <trkpt lat="46.16605" lon="6.81494">
        <ele>1743</ele>
        <time>2010-01-03T15:24:58Z</time>
      </trkpt>
      <trkpt lat="46.16605" lon="6.81492">
        <ele>1743</ele>
        <time>2010-01-03T15:24:59Z</time>
      </trkpt>
      <trkpt lat="46.16604" lon="6.81489">
        <ele>1743</ele>
        <time>2010-01-03T15:25:00Z</time>
      </trkpt>
      <trkpt lat="46.16604" lon="6.81488">
        <ele>1743</ele>
        <time>2010-01-03T15:25:00Z</time>
      </trkpt>
      <trkpt lat="46.16604" lon="6.8148">
        <ele>1743</ele>
        <time>2010-01-03T15:25:02Z</time>
      </trkpt>
      <trkpt lat="46.16605" lon="6.81472">
        <ele>1744</ele>
        <time>2010-01-03T15:25:04Z</time>
      </trkpt>
      <trkpt lat="46.16609" lon="6.81464">
        <ele>1744</ele>
        <time>2010-01-03T15:25:07Z</time>
      </trkpt>
      <trkpt lat="46.16611" lon="6.81462">
        <ele>1744</ele>
        <time>2010-01-03T15:25:08Z</time>
      </trkpt>
      <trkpt lat="46.16613" lon="6.8146">
        <ele>1745</ele>
        <time>2010-01-03T15:25:09Z</time>
      </trkpt>
      <trkpt lat="46.16614" lon="6.81457">
        <ele>1745</ele>
        <time>2010-01-03T15:25:10Z</time>
      </trkpt>
      <trkpt lat="46.16615" lon="6.81455">
        <ele>1745</ele>
        <time>2010-01-03T15:25:11Z</time>
      </trkpt>
      <trkpt lat="46.16616" lon="6.81454">
        <ele>1745</ele>
        <time>2010-01-03T15:25:11Z</time>
      </trkpt>
      <trkpt lat="46.16616" lon="6.81451">
        <ele>1745</ele>
        <time>2010-01-03T15:25:12Z</time>
      </trkpt>
      <trkpt lat="46.16616" lon="6.8145">
        <ele>1745</ele>
        <time>2010-01-03T15:25:12Z</time>
      </trkpt>
      <trkpt lat="46.16615" lon="6.81445">
        <ele>1745</ele>
        <time>2010-01-03T15:25:14Z</time>
      </trkpt>
      <trkpt lat="46.166" lon="6.81441">
        <ele>1743</ele>
        <time>2010-01-03T15:25:20Z</time>
      </trkpt>
      <trkpt lat="46.16591" lon="6.81436">
        <ele>1742</ele>
        <time>2010-01-03T15:25:24Z</time>
      </trkpt>
      <trkpt lat="46.1659" lon="6.81417">
        <ele>1740</ele>
        <time>2010-01-03T15:25:29Z</time>
      </trkpt>
      <trkpt lat="46.16595" lon="6.81404">
        <ele>1741</ele>
        <time>2010-01-03T15:25:33Z</time>
      </trkpt>
      <trkpt lat="46.16601" lon="6.81382">
        <ele>1743</ele>
        <time>2010-01-03T15:25:40Z</time>
      </trkpt>
      <trkpt lat="46.16596" lon="6.81356">
        <ele>1741</ele>
        <time>2010-01-03T15:25:47Z</time>
      </trkpt>
      <trkpt lat="46.16596" lon="6.81336">
        <ele>1739</ele>
        <time>2010-01-03T15:25:53Z</time>
      </trkpt>
      <trkpt lat="46.166" lon="6.81324">
        <ele>1742</ele>
        <time>2010-01-03T15:25:57Z</time>
      </trkpt>
      <trkpt lat="46.16606" lon="6.81317">
        <ele>1744</ele>
        <time>2010-01-03T15:26:00Z</time>
      </trkpt>
      <trkpt lat="46.16608" lon="6.81308">
        <ele>1745</ele>
        <time>2010-01-03T15:26:02Z</time>
      </trkpt>
      <trkpt lat="46.16608" lon="6.81305">
        <ele>1746</ele>
        <time>2010-01-03T15:26:03Z</time>
      </trkpt>
      <trkpt lat="46.16607" lon="6.81302">
        <ele>1746</ele>
        <time>2010-01-03T15:26:04Z</time>
      </trkpt>
      <trkpt lat="46.16605" lon="6.81301">
        <ele>1746</ele>
        <time>2010-01-03T15:26:05Z</time>
      </trkpt>
      <trkpt lat="46.16603" lon="6.81299">
        <ele>1745</ele>
        <time>2010-01-03T15:26:06Z</time>
      </trkpt>
      <trkpt lat="46.166" lon="6.81298">
        <ele>1745</ele>
        <time>2010-01-03T15:26:07Z</time>
      </trkpt>
      <trkpt lat="46.16586" lon="6.81287">
        <ele>1745</ele>
        <time>2010-01-03T15:26:13Z</time>
      </trkpt>
      <trkpt lat="46.16571" lon="6.81268">
        <ele>1732</ele>
        <time>2010-01-03T15:26:22Z</time>
      </trkpt>
      <trkpt lat="46.16565" lon="6.81257">
        <ele>1733</ele>
        <time>2010-01-03T15:26:26Z</time>
      </trkpt>
      <trkpt lat="46.16563" lon="6.81255">
        <ele>1733</ele>
        <time>2010-01-03T15:26:26Z</time>
      </trkpt>
      <trkpt lat="46.16562" lon="6.81253">
        <ele>1732</ele>
        <time>2010-01-03T15:26:27Z</time>
      </trkpt>
      <trkpt lat="46.1656" lon="6.8125">
        <ele>1737</ele>
        <time>2010-01-03T15:26:28Z</time>
      </trkpt>
      <trkpt lat="46.16559" lon="6.81247">
        <ele>1737</ele>
        <time>2010-01-03T15:26:29Z</time>
      </trkpt>
      <trkpt lat="46.16559" lon="6.81244">
        <ele>1737</ele>
        <time>2010-01-03T15:26:30Z</time>
      </trkpt>
      <trkpt lat="46.1656" lon="6.8124">
        <ele>1737</ele>
        <time>2010-01-03T15:26:31Z</time>
      </trkpt>
      <trkpt lat="46.16559" lon="6.81237">
        <ele>1737</ele>
        <time>2010-01-03T15:26:32Z</time>
      </trkpt>
      <trkpt lat="46.16558" lon="6.81235">
        <ele>1737</ele>
        <time>2010-01-03T15:26:33Z</time>
      </trkpt>
      <trkpt lat="46.16557" lon="6.81234">
        <ele>1737</ele>
        <time>2010-01-03T15:26:33Z</time>
      </trkpt>
      <trkpt lat="46.16552" lon="6.81218">
        <ele>1737</ele>
        <time>2010-01-03T15:26:38Z</time>
      </trkpt>
      <trkpt lat="46.16532" lon="6.81206">
        <ele>1735</ele>
        <time>2010-01-03T15:26:47Z</time>
      </trkpt>
      <trkpt lat="46.16512" lon="6.81217">
        <ele>1732</ele>
        <time>2010-01-03T15:26:55Z</time>
      </trkpt>
      <trkpt lat="46.16487" lon="6.81205">
        <ele>1721</ele>
        <time>2010-01-03T15:27:06Z</time>
      </trkpt>
      <trkpt lat="46.1646" lon="6.81188">
        <ele>1719</ele>
        <time>2010-01-03T15:27:17Z</time>
      </trkpt>
      <trkpt lat="46.16435" lon="6.81164">
        <ele>1720</ele>
        <time>2010-01-03T15:27:30Z</time>
      </trkpt>
      <trkpt lat="46.16423" lon="6.81133">
        <ele>1722</ele>
        <time>2010-01-03T15:27:39Z</time>
      </trkpt>
      <trkpt lat="46.16421" lon="6.81111">
        <ele>1722</ele>
        <time>2010-01-03T15:27:45Z</time>
      </trkpt>
      <trkpt lat="46.16433" lon="6.81084">
        <ele>1721</ele>
        <time>2010-01-03T15:27:54Z</time>
      </trkpt>
      <trkpt lat="46.16433" lon="6.8107">
        <ele>1725</ele>
        <time>2010-01-03T15:27:58Z</time>
      </trkpt>
      <trkpt lat="46.16433" lon="6.8106">
        <ele>1726</ele>
        <time>2010-01-03T15:28:01Z</time>
      </trkpt>
      <trkpt lat="46.1643" lon="6.8103">
        <ele>1727</ele>
        <time>2010-01-03T15:28:09Z</time>
      </trkpt>
      <trkpt lat="46.16427" lon="6.81012">
        <ele>1723</ele>
        <time>2010-01-03T15:28:14Z</time>
      </trkpt>
      <trkpt lat="46.16422" lon="6.81002">
        <ele>1718</ele>
        <time>2010-01-03T15:28:18Z</time>
      </trkpt>
      <trkpt lat="46.1642" lon="6.81001">
        <ele>1717</ele>
        <time>2010-01-03T15:28:19Z</time>
      </trkpt>
      <trkpt lat="46.16418" lon="6.80998">
        <ele>1717</ele>
        <time>2010-01-03T15:28:20Z</time>
      </trkpt>
      <trkpt lat="46.16416" lon="6.80997">
        <ele>1713</ele>
        <time>2010-01-03T15:28:21Z</time>
      </trkpt>
      <trkpt lat="46.16415" lon="6.80995">
        <ele>1712</ele>
        <time>2010-01-03T15:28:21Z</time>
      </trkpt>
      <trkpt lat="46.16412" lon="6.8098">
        <ele>1707</ele>
        <time>2010-01-03T15:28:25Z</time>
      </trkpt>
      <trkpt lat="46.16409" lon="6.80948">
        <ele>1705</ele>
        <time>2010-01-03T15:28:35Z</time>
      </trkpt>
      <trkpt lat="46.16409" lon="6.80927">
        <ele>1709</ele>
        <time>2010-01-03T15:28:40Z</time>
      </trkpt>
      <trkpt lat="46.16395" lon="6.80892">
        <ele>1701</ele>
        <time>2010-01-03T15:28:52Z</time>
      </trkpt>
      <trkpt lat="46.16395" lon="6.80861">
        <ele>1700</ele>
        <time>2010-01-03T15:29:00Z</time>
      </trkpt>
      <trkpt lat="46.16394" lon="6.80827">
        <ele>1697</ele>
        <time>2010-01-03T15:29:10Z</time>
      </trkpt>
      <trkpt lat="46.16402" lon="6.80815">
        <ele>1697</ele>
        <time>2010-01-03T15:29:14Z</time>
      </trkpt>
      <trkpt lat="46.16417" lon="6.80801">
        <ele>1716</ele>
        <time>2010-01-03T15:29:21Z</time>
      </trkpt>
      <trkpt lat="46.16421" lon="6.80789">
        <ele>1716</ele>
        <time>2010-01-03T15:29:25Z</time>
      </trkpt>
      <trkpt lat="46.16408" lon="6.80768">
        <ele>1696</ele>
        <time>2010-01-03T15:29:33Z</time>
      </trkpt>
      <trkpt lat="46.16401" lon="6.80745">
        <ele>1694</ele>
        <time>2010-01-03T15:29:40Z</time>
      </trkpt>
      <trkpt lat="46.16401" lon="6.80721">
        <ele>1691</ele>
        <time>2010-01-03T15:29:46Z</time>
      </trkpt>
      <trkpt lat="46.16413" lon="6.807">
        <ele>1692</ele>
        <time>2010-01-03T15:29:54Z</time>
      </trkpt>
      <trkpt lat="46.16399" lon="6.80649">
        <ele>1689</ele>
        <time>2010-01-03T15:30:09Z</time>
      </trkpt>
      <trkpt lat="46.16402" lon="6.80619">
        <ele>1688</ele>
        <time>2010-01-03T15:30:18Z</time>
      </trkpt>
      <trkpt lat="46.16404" lon="6.8058">
        <ele>1692</ele>
        <time>2010-01-03T15:30:28Z</time>
      </trkpt>
      <trkpt lat="46.16391" lon="6.80553">
        <ele>1685</ele>
        <time>2010-01-03T15:30:37Z</time>
      </trkpt>
      <trkpt lat="46.16384" lon="6.80529">
        <ele>1684</ele>
        <time>2010-01-03T15:30:45Z</time>
      </trkpt>
      <trkpt lat="46.16375" lon="6.80499">
        <ele>1684</ele>
        <time>2010-01-03T15:30:54Z</time>
      </trkpt>
      <trkpt lat="46.16364" lon="6.80473">
        <ele>1682</ele>
        <time>2010-01-03T15:31:02Z</time>
      </trkpt>
      <trkpt lat="46.16356" lon="6.80423">
        <ele>1682</ele>
        <time>2010-01-03T15:31:17Z</time>
      </trkpt>
      <trkpt lat="46.16337" lon="6.80411">
        <ele>1680</ele>
        <time>2010-01-03T15:31:25Z</time>
      </trkpt>
      <trkpt lat="46.16325" lon="6.80377">
        <ele>1675</ele>
        <time>2010-01-03T15:31:35Z</time>
      </trkpt>
      <trkpt lat="46.16314" lon="6.80365">
        <ele>1676</ele>
        <time>2010-01-03T15:31:41Z</time>
      </trkpt>
      <trkpt lat="46.16296" lon="6.80351">
        <ele>1675</ele>
        <time>2010-01-03T15:31:49Z</time>
      </trkpt>
      <trkpt lat="46.16268" lon="6.80315">
        <ele>1682</ele>
        <time>2010-01-03T15:32:04Z</time>
      </trkpt>
      <trkpt lat="46.16244" lon="6.80272">
        <ele>1676</ele>
        <time>2010-01-03T15:32:19Z</time>
      </trkpt>
      <trkpt lat="46.16224" lon="6.80251">
        <ele>1675</ele>
        <time>2010-01-03T15:32:29Z</time>
      </trkpt>
      <trkpt lat="46.16202" lon="6.80239">
        <ele>1682</ele>
        <time>2010-01-03T15:32:39Z</time>
      </trkpt>
      <trkpt lat="46.16177" lon="6.80208">
        <ele>1684</ele>
        <time>2010-01-03T15:32:52Z</time>
      </trkpt>
      <trkpt lat="46.16159" lon="6.80197">
        <ele>1678</ele>
        <time>2010-01-03T15:33:00Z</time>
      </trkpt>
      <trkpt lat="46.16135" lon="6.80189">
        <ele>1679</ele>
        <time>2010-01-03T15:33:09Z</time>
      </trkpt>
      <trkpt lat="46.16099" lon="6.80189">
        <ele>1680</ele>
        <time>2010-01-03T15:33:24Z</time>
      </trkpt>
      <trkpt lat="46.16036" lon="6.80235">
        <ele>1674</ele>
        <time>2010-01-03T15:33:52Z</time>
      </trkpt>
      <trkpt lat="46.16023" lon="6.80252">
        <ele>1661</ele>
        <time>2010-01-03T15:33:59Z</time>
      </trkpt>
      <trkpt lat="46.16013" lon="6.80249">
        <ele>1673</ele>
        <time>2010-01-03T15:34:03Z</time>
      </trkpt>
      <trkpt lat="46.16001" lon="6.80245">
        <ele>1672</ele>
        <time>2010-01-03T15:34:08Z</time>
      </trkpt>
      <trkpt lat="46.15999" lon="6.80241">
        <ele>1671</ele>
        <time>2010-01-03T15:34:10Z</time>
      </trkpt>
      <trkpt lat="46.15997" lon="6.80238">
        <ele>1671</ele>
        <time>2010-01-03T15:34:11Z</time>
      </trkpt>
      <trkpt lat="46.15995" lon="6.80236">
        <ele>1671</ele>
        <time>2010-01-03T15:34:12Z</time>
      </trkpt>
      <trkpt lat="46.15994" lon="6.80235">
        <ele>1671</ele>
        <time>2010-01-03T15:34:12Z</time>
      </trkpt>
      <trkpt lat="46.15991" lon="6.80234">
        <ele>1671</ele>
        <time>2010-01-03T15:34:13Z</time>
      </trkpt>
      <trkpt lat="46.15991" lon="6.80234">
        <ele>1671</ele>
        <time>2010-01-03T15:34:14Z</time>
      </trkpt>
      <trkpt lat="46.15981" lon="6.80236">
        <ele>1670</ele>
        <time>2010-01-03T15:34:18Z</time>
      </trkpt>
      <trkpt lat="46.15955" lon="6.80227">
        <ele>1668</ele>
        <time>2010-01-03T15:34:28Z</time>
      </trkpt>
      <trkpt lat="46.15949" lon="6.80219">
        <ele>1668</ele>
        <time>2010-01-03T15:34:32Z</time>
      </trkpt>
      <trkpt lat="46.15943" lon="6.80215">
        <ele>1668</ele>
        <time>2010-01-03T15:34:34Z</time>
      </trkpt>
      <trkpt lat="46.15941" lon="6.80221">
        <ele>1667</ele>
        <time>2010-01-03T15:34:36Z</time>
      </trkpt>
      <trkpt lat="46.15939" lon="6.80219">
        <ele>1667</ele>
        <time>2010-01-03T15:34:37Z</time>
      </trkpt>
      <trkpt lat="46.15937" lon="6.80218">
        <ele>1667</ele>
        <time>2010-01-03T15:34:38Z</time>
      </trkpt>
      <trkpt lat="46.15935" lon="6.80215">
        <ele>1667</ele>
        <time>2010-01-03T15:34:39Z</time>
      </trkpt>
      <trkpt lat="46.15933" lon="6.80214">
        <ele>1667</ele>
        <time>2010-01-03T15:34:40Z</time>
      </trkpt>
      <trkpt lat="46.15919" lon="6.80218">
        <ele>1665</ele>
        <time>2010-01-03T15:34:45Z</time>
      </trkpt>
      <trkpt lat="46.159" lon="6.80218">
        <ele>1650</ele>
        <time>2010-01-03T15:34:53Z</time>
      </trkpt>
      <trkpt lat="46.15889" lon="6.802">
        <ele>1650</ele>
        <time>2010-01-03T15:35:00Z</time>
      </trkpt>
      <trkpt lat="46.15867" lon="6.80163">
        <ele>1656</ele>
        <time>2010-01-03T15:35:13Z</time>
      </trkpt>
      <trkpt lat="46.15847" lon="6.80133">
        <ele>1657</ele>
        <time>2010-01-03T15:35:25Z</time>
      </trkpt>
      <trkpt lat="46.15831" lon="6.80109">
        <ele>1649</ele>
        <time>2010-01-03T15:35:34Z</time>
      </trkpt>
      <trkpt lat="46.15816" lon="6.80097">
        <ele>1650</ele>
        <time>2010-01-03T15:35:41Z</time>
      </trkpt>
      <trkpt lat="46.1581" lon="6.80103">
        <ele>1648</ele>
        <time>2010-01-03T15:35:44Z</time>
      </trkpt>
      <trkpt lat="46.1582" lon="6.80143">
        <ele>1643</ele>
        <time>2010-01-03T15:35:56Z</time>
      </trkpt>
      <trkpt lat="46.15831" lon="6.80205">
        <ele>1631</ele>
        <time>2010-01-03T15:36:13Z</time>
      </trkpt>
      <trkpt lat="46.15835" lon="6.80275">
        <ele>1630</ele>
        <time>2010-01-03T15:36:33Z</time>
      </trkpt>
      <trkpt lat="46.1583" lon="6.80331">
        <ele>1613</ele>
        <time>2010-01-03T15:36:49Z</time>
      </trkpt>
      <trkpt lat="46.15841" lon="6.80366">
        <ele>1612</ele>
        <time>2010-01-03T15:36:59Z</time>
      </trkpt>
      <trkpt lat="46.15858" lon="6.80384">
        <ele>1611</ele>
        <time>2010-01-03T15:37:08Z</time>
      </trkpt>
      <trkpt lat="46.15893" lon="6.80437">
        <ele>1594</ele>
        <time>2010-01-03T15:37:28Z</time>
      </trkpt>
      <trkpt lat="46.15913" lon="6.80456">
        <ele>1591</ele>
        <time>2010-01-03T15:37:38Z</time>
      </trkpt>
      <trkpt lat="46.15928" lon="6.80485">
        <ele>1596</ele>
        <time>2010-01-03T15:37:48Z</time>
      </trkpt>
      <trkpt lat="46.15969" lon="6.8051">
        <ele>1584</ele>
        <time>2010-01-03T15:38:06Z</time>
      </trkpt>
      <trkpt lat="46.15973" lon="6.80518">
        <ele>1583</ele>
        <time>2010-01-03T15:38:08Z</time>
      </trkpt>
      <trkpt lat="46.15985" lon="6.80534">
        <ele>1580</ele>
        <time>2010-01-03T15:38:15Z</time>
      </trkpt>
      <trkpt lat="46.15972" lon="6.80534">
        <ele>1579</ele>
        <time>2010-01-03T15:38:20Z</time>
      </trkpt>
      <trkpt lat="46.15953" lon="6.80529">
        <ele>1578</ele>
        <time>2010-01-03T15:38:28Z</time>
      </trkpt>
      <trkpt lat="46.15943" lon="6.80539">
        <ele>1575</ele>
        <time>2010-01-03T15:38:32Z</time>
      </trkpt>
      <trkpt lat="46.15927" lon="6.80539">
        <ele>1574</ele>
        <time>2010-01-03T15:38:39Z</time>
      </trkpt>
      <trkpt lat="46.15905" lon="6.80523">
        <ele>1565</ele>
        <time>2010-01-03T15:38:49Z</time>
      </trkpt>
      <trkpt lat="46.15895" lon="6.80514">
        <ele>1564</ele>
        <time>2010-01-03T15:38:54Z</time>
      </trkpt>
      <trkpt lat="46.15893" lon="6.80513">
        <ele>1564</ele>
        <time>2010-01-03T15:38:54Z</time>
      </trkpt>
      <trkpt lat="46.15891" lon="6.80513">
        <ele>1563</ele>
        <time>2010-01-03T15:38:55Z</time>
      </trkpt>
      <trkpt lat="46.15888" lon="6.80512">
        <ele>1562</ele>
        <time>2010-01-03T15:38:56Z</time>
      </trkpt>
      <trkpt lat="46.15887" lon="6.80511">
        <ele>1562</ele>
        <time>2010-01-03T15:38:57Z</time>
      </trkpt>
      <trkpt lat="46.15886" lon="6.80509">
        <ele>1562</ele>
        <time>2010-01-03T15:38:58Z</time>
      </trkpt>
      <trkpt lat="46.15883" lon="6.80508">
        <ele>1561</ele>
        <time>2010-01-03T15:38:59Z</time>
      </trkpt>
      <trkpt lat="46.15881" lon="6.80506">
        <ele>1561</ele>
        <time>2010-01-03T15:39:00Z</time>
      </trkpt>
      <trkpt lat="46.15879" lon="6.80504">
        <ele>1560</ele>
        <time>2010-01-03T15:39:00Z</time>
      </trkpt>
      <trkpt lat="46.15877" lon="6.80502">
        <ele>1560</ele>
        <time>2010-01-03T15:39:02Z</time>
      </trkpt>
      <trkpt lat="46.15875" lon="6.80502">
        <ele>1559</ele>
        <time>2010-01-03T15:39:03Z</time>
      </trkpt>
      <trkpt lat="46.15874" lon="6.80501">
        <ele>1559</ele>
        <time>2010-01-03T15:39:03Z</time>
      </trkpt>
      <trkpt lat="46.15858" lon="6.80496">
        <ele>1573</ele>
        <time>2010-01-03T15:39:09Z</time>
      </trkpt>
      <trkpt lat="46.15848" lon="6.80494">
        <ele>1568</ele>
        <time>2010-01-03T15:39:13Z</time>
      </trkpt>
      <trkpt lat="46.15843" lon="6.8049">
        <ele>1566</ele>
        <time>2010-01-03T15:39:16Z</time>
      </trkpt>
      <trkpt lat="46.15842" lon="6.8049">
        <ele>1566</ele>
        <time>2010-01-03T15:39:16Z</time>
      </trkpt>
      <trkpt lat="46.15839" lon="6.80489">
        <ele>1565</ele>
        <time>2010-01-03T15:39:17Z</time>
      </trkpt>
      <trkpt lat="46.15837" lon="6.80488">
        <ele>1565</ele>
        <time>2010-01-03T15:39:18Z</time>
      </trkpt>
      <trkpt lat="46.15835" lon="6.80488">
        <ele>1565</ele>
        <time>2010-01-03T15:39:19Z</time>
      </trkpt>
      <trkpt lat="46.15831" lon="6.80489">
        <ele>1560</ele>
        <time>2010-01-03T15:39:20Z</time>
      </trkpt>
      <trkpt lat="46.15829" lon="6.80489">
        <ele>1561</ele>
        <time>2010-01-03T15:39:21Z</time>
      </trkpt>
      <trkpt lat="46.15828" lon="6.8049">
        <ele>1560</ele>
        <time>2010-01-03T15:39:22Z</time>
      </trkpt>
      <trkpt lat="46.15828" lon="6.80493">
        <ele>1559</ele>
        <time>2010-01-03T15:39:23Z</time>
      </trkpt>
      <trkpt lat="46.15829" lon="6.80495">
        <ele>1557</ele>
        <time>2010-01-03T15:39:23Z</time>
      </trkpt>
      <trkpt lat="46.15833" lon="6.80501">
        <ele>1552</ele>
        <time>2010-01-03T15:39:26Z</time>
      </trkpt>
      <trkpt lat="46.15841" lon="6.8051">
        <ele>1553</ele>
        <time>2010-01-03T15:39:30Z</time>
      </trkpt>
      <trkpt lat="46.15857" lon="6.80522">
        <ele>1554</ele>
        <time>2010-01-03T15:39:37Z</time>
      </trkpt>
      <trkpt lat="46.15865" lon="6.80539">
        <ele>1553</ele>
        <time>2010-01-03T15:39:43Z</time>
      </trkpt>
      <trkpt lat="46.15875" lon="6.8058">
        <ele>1549</ele>
        <time>2010-01-03T15:39:55Z</time>
      </trkpt>
      <trkpt lat="46.15893" lon="6.80629">
        <ele>1530</ele>
        <time>2010-01-03T15:40:10Z</time>
      </trkpt>
      <trkpt lat="46.159" lon="6.80648">
        <ele>1528</ele>
        <time>2010-01-03T15:40:16Z</time>
      </trkpt>
      <trkpt lat="46.15903" lon="6.80673">
        <ele>1517</ele>
        <time>2010-01-03T15:40:23Z</time>
      </trkpt>
      <trkpt lat="46.15919" lon="6.80697">
        <ele>1523</ele>
        <time>2010-01-03T15:40:32Z</time>
      </trkpt>
      <trkpt lat="46.15931" lon="6.80717">
        <ele>1521</ele>
        <time>2010-01-03T15:40:40Z</time>
      </trkpt>
      <trkpt lat="46.15948" lon="6.80727">
        <ele>1522</ele>
        <time>2010-01-03T15:40:47Z</time>
      </trkpt>
      <trkpt lat="46.15959" lon="6.8074">
        <ele>1524</ele>
        <time>2010-01-03T15:40:53Z</time>
      </trkpt>
      <trkpt lat="46.15958" lon="6.80926">
        <ele>1499</ele>
        <time>2010-01-03T15:41:44Z</time>
      </trkpt>
      <trkpt lat="46.15959" lon="6.80997">
        <ele>1497</ele>
        <time>2010-01-03T15:42:04Z</time>
      </trkpt>
      <trkpt lat="46.15967" lon="6.81052">
        <ele>1493</ele>
        <time>2010-01-03T15:42:20Z</time>
      </trkpt>
      <trkpt lat="46.1597" lon="6.81077">
        <ele>1493</ele>
        <time>2010-01-03T15:42:27Z</time>
      </trkpt>
      <trkpt lat="46.15972" lon="6.81082">
        <ele>1493</ele>
        <time>2010-01-03T15:42:28Z</time>
      </trkpt>
      <trkpt lat="46.15975" lon="6.81086">
        <ele>1488</ele>
        <time>2010-01-03T15:42:30Z</time>
      </trkpt>
      <trkpt lat="46.15976" lon="6.81089">
        <ele>1488</ele>
        <time>2010-01-03T15:42:31Z</time>
      </trkpt>
      <trkpt lat="46.15975" lon="6.81096">
        <ele>1487</ele>
        <time>2010-01-03T15:42:32Z</time>
      </trkpt>
      <trkpt lat="46.15975" lon="6.81097">
        <ele>1487</ele>
        <time>2010-01-03T15:42:33Z</time>
      </trkpt>
      <trkpt lat="46.15976" lon="6.81101">
        <ele>1487</ele>
        <time>2010-01-03T15:42:34Z</time>
      </trkpt>
      <trkpt lat="46.15976" lon="6.81107">
        <ele>1486</ele>
        <time>2010-01-03T15:42:36Z</time>
      </trkpt>
      <trkpt lat="46.15976" lon="6.81183">
        <ele>1475</ele>
        <time>2010-01-03T15:42:57Z</time>
      </trkpt>
      <trkpt lat="46.15983" lon="6.81251">
        <ele>1468</ele>
        <time>2010-01-03T15:43:16Z</time>
      </trkpt>
      <trkpt lat="46.15976" lon="6.81317">
        <ele>1461</ele>
        <time>2010-01-03T15:43:34Z</time>
      </trkpt>
      <trkpt lat="46.15969" lon="6.81391">
        <ele>1454</ele>
        <time>2010-01-03T15:43:55Z</time>
      </trkpt>
      <trkpt lat="46.15963" lon="6.81419">
        <ele>1449</ele>
        <time>2010-01-03T15:44:03Z</time>
      </trkpt>
      <trkpt lat="46.15963" lon="6.81432">
        <ele>1449</ele>
        <time>2010-01-03T15:44:07Z</time>
      </trkpt>
      <trkpt lat="46.15963" lon="6.81437">
        <ele>1449</ele>
        <time>2010-01-03T15:44:08Z</time>
      </trkpt>
      <trkpt lat="46.15963" lon="6.81444">
        <ele>1448</ele>
        <time>2010-01-03T15:44:10Z</time>
      </trkpt>
      <trkpt lat="46.15962" lon="6.81448">
        <ele>1448</ele>
        <time>2010-01-03T15:44:11Z</time>
      </trkpt>
      <trkpt lat="46.15962" lon="6.8145">
        <ele>1448</ele>
        <time>2010-01-03T15:44:12Z</time>
      </trkpt>
      <trkpt lat="46.15961" lon="6.81455">
        <ele>1448</ele>
        <time>2010-01-03T15:44:13Z</time>
      </trkpt>
      <trkpt lat="46.15958" lon="6.81459">
        <ele>1447</ele>
        <time>2010-01-03T15:44:15Z</time>
      </trkpt>
      <trkpt lat="46.15955" lon="6.81463">
        <ele>1447</ele>
        <time>2010-01-03T15:44:16Z</time>
      </trkpt>
      <trkpt lat="46.15955" lon="6.81466">
        <ele>1446</ele>
        <time>2010-01-03T15:44:17Z</time>
      </trkpt>
      <trkpt lat="46.15954" lon="6.81471">
        <ele>1446</ele>
        <time>2010-01-03T15:44:19Z</time>
      </trkpt>
      <trkpt lat="46.15953" lon="6.81474">
        <ele>1446</ele>
        <time>2010-01-03T15:44:20Z</time>
      </trkpt>
      <trkpt lat="46.15953" lon="6.81478">
        <ele>1446</ele>
        <time>2010-01-03T15:44:21Z</time>
      </trkpt>
      <trkpt lat="46.15954" lon="6.81482">
        <ele>1446</ele>
        <time>2010-01-03T15:44:22Z</time>
      </trkpt>
      <trkpt lat="46.15955" lon="6.81488">
        <ele>1446</ele>
        <time>2010-01-03T15:44:24Z</time>
      </trkpt>
      <trkpt lat="46.15956" lon="6.81494">
        <ele>1446</ele>
        <time>2010-01-03T15:44:25Z</time>
      </trkpt>
      <trkpt lat="46.15956" lon="6.81499">
        <ele>1445</ele>
        <time>2010-01-03T15:44:27Z</time>
      </trkpt>
      <trkpt lat="46.15957" lon="6.81504">
        <ele>1440</ele>
        <time>2010-01-03T15:44:28Z</time>
      </trkpt>
      <trkpt lat="46.15956" lon="6.81508">
        <ele>1439</ele>
        <time>2010-01-03T15:44:29Z</time>
      </trkpt>
      <trkpt lat="46.15956" lon="6.81512">
        <ele>1439</ele>
        <time>2010-01-03T15:44:30Z</time>
      </trkpt>
      <trkpt lat="46.15956" lon="6.81516">
        <ele>1439</ele>
        <time>2010-01-03T15:44:32Z</time>
      </trkpt>
      <trkpt lat="46.15955" lon="6.81522">
        <ele>1439</ele>
        <time>2010-01-03T15:44:33Z</time>
      </trkpt>
      <trkpt lat="46.15955" lon="6.81527">
        <ele>1438</ele>
        <time>2010-01-03T15:44:34Z</time>
      </trkpt>
      <trkpt lat="46.15954" lon="6.81532">
        <ele>1438</ele>
        <time>2010-01-03T15:44:36Z</time>
      </trkpt>
      <trkpt lat="46.15954" lon="6.81535">
        <ele>1438</ele>
        <time>2010-01-03T15:44:37Z</time>
      </trkpt>
      <trkpt lat="46.15954" lon="6.81538">
        <ele>1437</ele>
        <time>2010-01-03T15:44:38Z</time>
      </trkpt>
      <trkpt lat="46.15954" lon="6.81543">
        <ele>1437</ele>
        <time>2010-01-03T15:44:39Z</time>
      </trkpt>
      <trkpt lat="46.15954" lon="6.81547">
        <ele>1437</ele>
        <time>2010-01-03T15:44:40Z</time>
      </trkpt>
      <trkpt lat="46.15954" lon="6.81551">
        <ele>1436</ele>
        <time>2010-01-03T15:44:41Z</time>
      </trkpt>
      <trkpt lat="46.15954" lon="6.81557">
        <ele>1436</ele>
        <time>2010-01-03T15:44:43Z</time>
      </trkpt>
      <trkpt lat="46.15953" lon="6.81581">
        <ele>1434</ele>
        <time>2010-01-03T15:44:50Z</time>
      </trkpt>
      <trkpt lat="46.15959" lon="6.81658">
        <ele>1430</ele>
        <time>2010-01-03T15:45:11Z</time>
      </trkpt>
      <trkpt lat="46.15969" lon="6.81758">
        <ele>1421</ele>
        <time>2010-01-03T15:45:39Z</time>
      </trkpt>
      <trkpt lat="46.15974" lon="6.81801">
        <ele>1419</ele>
        <time>2010-01-03T15:45:51Z</time>
      </trkpt>
      <trkpt lat="46.15967" lon="6.81848">
        <ele>1414</ele>
        <time>2010-01-03T15:46:04Z</time>
      </trkpt>
      <trkpt lat="46.15965" lon="6.81867">
        <ele>1413</ele>
        <time>2010-01-03T15:46:10Z</time>
      </trkpt>
      <trkpt lat="46.15964" lon="6.81873">
        <ele>1413</ele>
        <time>2010-01-03T15:46:12Z</time>
      </trkpt>
      <trkpt lat="46.15965" lon="6.81877">
        <ele>1413</ele>
        <time>2010-01-03T15:46:13Z</time>
      </trkpt>
      <trkpt lat="46.15965" lon="6.81879">
        <ele>1413</ele>
        <time>2010-01-03T15:46:13Z</time>
      </trkpt>
      <trkpt lat="46.15964" lon="6.81886">
        <ele>1413</ele>
        <time>2010-01-03T15:46:15Z</time>
      </trkpt>
      <trkpt lat="46.15964" lon="6.81891">
        <ele>1412</ele>
        <time>2010-01-03T15:46:17Z</time>
      </trkpt>
      <trkpt lat="46.15964" lon="6.81895">
        <ele>1412</ele>
        <time>2010-01-03T15:46:18Z</time>
      </trkpt>
      <trkpt lat="46.15964" lon="6.81899">
        <ele>1412</ele>
        <time>2010-01-03T15:46:19Z</time>
      </trkpt>
      <trkpt lat="46.15966" lon="6.81904">
        <ele>1412</ele>
        <time>2010-01-03T15:46:20Z</time>
      </trkpt>
      <trkpt lat="46.15967" lon="6.8191">
        <ele>1412</ele>
        <time>2010-01-03T15:46:22Z</time>
      </trkpt>
      <trkpt lat="46.15967" lon="6.81919">
        <ele>1409</ele>
        <time>2010-01-03T15:46:25Z</time>
      </trkpt>
      <trkpt lat="46.15968" lon="6.81925">
        <ele>1409</ele>
        <time>2010-01-03T15:46:26Z</time>
      </trkpt>
      <trkpt lat="46.15969" lon="6.81928">
        <ele>1409</ele>
        <time>2010-01-03T15:46:27Z</time>
      </trkpt>
      <trkpt lat="46.1597" lon="6.81931">
        <ele>1409</ele>
        <time>2010-01-03T15:46:28Z</time>
      </trkpt>
      <trkpt lat="46.15971" lon="6.81936">
        <ele>1409</ele>
        <time>2010-01-03T15:46:29Z</time>
      </trkpt>
      <trkpt lat="46.15971" lon="6.81939">
        <ele>1409</ele>
        <time>2010-01-03T15:46:30Z</time>
      </trkpt>
      <trkpt lat="46.15973" lon="6.81946">
        <ele>1409</ele>
        <time>2010-01-03T15:46:32Z</time>
      </trkpt>
      <trkpt lat="46.15973" lon="6.81951">
        <ele>1409</ele>
        <time>2010-01-03T15:46:34Z</time>
      </trkpt>
      <trkpt lat="46.15974" lon="6.81957">
        <ele>1409</ele>
        <time>2010-01-03T15:46:35Z</time>
      </trkpt>
      <trkpt lat="46.15975" lon="6.81959">
        <ele>1408</ele>
        <time>2010-01-03T15:46:36Z</time>
      </trkpt>
      <trkpt lat="46.15975" lon="6.81966">
        <ele>1408</ele>
        <time>2010-01-03T15:46:38Z</time>
      </trkpt>
      <trkpt lat="46.15976" lon="6.81973">
        <ele>1408</ele>
        <time>2010-01-03T15:46:40Z</time>
      </trkpt>
      <trkpt lat="46.15976" lon="6.81977">
        <ele>1408</ele>
        <time>2010-01-03T15:46:41Z</time>
      </trkpt>
      <trkpt lat="46.15975" lon="6.81986">
        <ele>1407</ele>
        <time>2010-01-03T15:46:44Z</time>
      </trkpt>
      <trkpt lat="46.15975" lon="6.81989">
        <ele>1407</ele>
        <time>2010-01-03T15:46:44Z</time>
      </trkpt>
      <trkpt lat="46.15975" lon="6.81993">
        <ele>1407</ele>
        <time>2010-01-03T15:46:46Z</time>
      </trkpt>
      <trkpt lat="46.15976" lon="6.82015">
        <ele>1403</ele>
        <time>2010-01-03T15:46:52Z</time>
      </trkpt>
      <trkpt lat="46.15988" lon="6.82096">
        <ele>1394</ele>
        <time>2010-01-03T15:47:15Z</time>
      </trkpt>
      <trkpt lat="46.1599" lon="6.82119">
        <ele>1392</ele>
        <time>2010-01-03T15:47:21Z</time>
      </trkpt>
      <trkpt lat="46.15991" lon="6.82126">
        <ele>1391</ele>
        <time>2010-01-03T15:47:23Z</time>
      </trkpt>
      <trkpt lat="46.15992" lon="6.82132">
        <ele>1390</ele>
        <time>2010-01-03T15:47:25Z</time>
      </trkpt>
      <trkpt lat="46.15992" lon="6.82134">
        <ele>1390</ele>
        <time>2010-01-03T15:47:25Z</time>
      </trkpt>
      <trkpt lat="46.15993" lon="6.82142">
        <ele>1389</ele>
        <time>2010-01-03T15:47:28Z</time>
      </trkpt>
      <trkpt lat="46.15994" lon="6.82147">
        <ele>1389</ele>
        <time>2010-01-03T15:47:29Z</time>
      </trkpt>
      <trkpt lat="46.15994" lon="6.82149">
        <ele>1389</ele>
        <time>2010-01-03T15:47:30Z</time>
      </trkpt>
      <trkpt lat="46.15995" lon="6.82155">
        <ele>1388</ele>
        <time>2010-01-03T15:47:31Z</time>
      </trkpt>
      <trkpt lat="46.15996" lon="6.8216">
        <ele>1387</ele>
        <time>2010-01-03T15:47:33Z</time>
      </trkpt>
      <trkpt lat="46.15997" lon="6.82165">
        <ele>1387</ele>
        <time>2010-01-03T15:47:34Z</time>
      </trkpt>
      <trkpt lat="46.15998" lon="6.8217">
        <ele>1385</ele>
        <time>2010-01-03T15:47:36Z</time>
      </trkpt>
      <trkpt lat="46.15999" lon="6.82175">
        <ele>1385</ele>
        <time>2010-01-03T15:47:37Z</time>
      </trkpt>
      <trkpt lat="46.15999" lon="6.82179">
        <ele>1384</ele>
        <time>2010-01-03T15:47:38Z</time>
      </trkpt>
      <trkpt lat="46.16" lon="6.82185">
        <ele>1394</ele>
        <time>2010-01-03T15:47:40Z</time>
      </trkpt>
      <trkpt lat="46.16001" lon="6.82189">
        <ele>1395</ele>
        <time>2010-01-03T15:47:41Z</time>
      </trkpt>
      <trkpt lat="46.16001" lon="6.8219">
        <ele>1395</ele>
        <time>2010-01-03T15:47:42Z</time>
      </trkpt>
      <trkpt lat="46.16001" lon="6.82197">
        <ele>1396</ele>
        <time>2010-01-03T15:47:43Z</time>
      </trkpt>
      <trkpt lat="46.16001" lon="6.82204">
        <ele>1396</ele>
        <time>2010-01-03T15:47:45Z</time>
      </trkpt>
      <trkpt lat="46.16001" lon="6.8221">
        <ele>1396</ele>
        <time>2010-01-03T15:47:47Z</time>
      </trkpt>
      <trkpt lat="46.16001" lon="6.82217">
        <ele>1395</ele>
        <time>2010-01-03T15:47:49Z</time>
      </trkpt>
      <trkpt lat="46.16001" lon="6.82221">
        <ele>1394</ele>
        <time>2010-01-03T15:47:50Z</time>
      </trkpt>
      <trkpt lat="46.16" lon="6.82226">
        <ele>1393</ele>
        <time>2010-01-03T15:47:51Z</time>
      </trkpt>
      <trkpt lat="46.16001" lon="6.82236">
        <ele>1390</ele>
        <time>2010-01-03T15:47:54Z</time>
      </trkpt>
      <trkpt lat="46.15991" lon="6.82268">
        <ele>1377</ele>
        <time>2010-01-03T15:48:04Z</time>
      </trkpt>
      <trkpt lat="46.15991" lon="6.8237">
        <ele>1370</ele>
        <time>2010-01-03T15:48:32Z</time>
      </trkpt>
      <trkpt lat="46.15995" lon="6.82507">
        <ele>1361</ele>
        <time>2010-01-03T15:49:10Z</time>
      </trkpt>
      <trkpt lat="46.16031" lon="6.82575">
        <ele>1365</ele>
        <time>2010-01-03T15:49:34Z</time>
      </trkpt>
      <trkpt lat="46.16064" lon="6.8263">
        <ele>1361</ele>
        <time>2010-01-03T15:49:54Z</time>
      </trkpt>
      <trkpt lat="46.1609" lon="6.82692">
        <ele>1372</ele>
        <time>2010-01-03T15:50:14Z</time>
      </trkpt>
      <trkpt lat="46.16095" lon="6.82788">
        <ele>1363</ele>
        <time>2010-01-03T15:50:41Z</time>
      </trkpt>
      <trkpt lat="46.16092" lon="6.82897">
        <ele>1361</ele>
        <time>2010-01-03T15:51:11Z</time>
      </trkpt>
      <trkpt lat="46.16078" lon="6.82991">
        <ele>1348</ele>
        <time>2010-01-03T15:51:38Z</time>
      </trkpt>
      <trkpt lat="46.16083" lon="6.83076">
        <ele>1338</ele>
        <time>2010-01-03T15:52:02Z</time>
      </trkpt>
      <trkpt lat="46.16136" lon="6.83204">
        <ele>1339</ele>
        <time>2010-01-03T15:52:43Z</time>
      </trkpt>
      <trkpt lat="46.16171" lon="6.83297">
        <ele>1348</ele>
        <time>2010-01-03T15:53:12Z</time>
      </trkpt>
      <trkpt lat="46.16228" lon="6.83398">
        <ele>1339</ele>
        <time>2010-01-03T15:53:48Z</time>
      </trkpt>
      <trkpt lat="46.16271" lon="6.83457">
        <ele>1348</ele>
        <time>2010-01-03T15:54:12Z</time>
      </trkpt>
      <trkpt lat="46.16317" lon="6.83532">
        <ele>1336</ele>
        <time>2010-01-03T15:54:40Z</time>
      </trkpt>
      <trkpt lat="46.16362" lon="6.83564">
        <ele>1355</ele>
        <time>2010-01-03T15:55:00Z</time>
      </trkpt>
      <trkpt lat="46.16389" lon="6.83573">
        <ele>1361</ele>
        <time>2010-01-03T15:55:11Z</time>
      </trkpt>
      <trkpt lat="46.16399" lon="6.8359">
        <ele>1356</ele>
        <time>2010-01-03T15:55:17Z</time>
      </trkpt>
      <trkpt lat="46.16399" lon="6.83602">
        <ele>1355</ele>
        <time>2010-01-03T15:55:20Z</time>
      </trkpt>
      <trkpt lat="46.16398" lon="6.83606">
        <ele>1354</ele>
        <time>2010-01-03T15:55:22Z</time>
      </trkpt>
      <trkpt lat="46.16396" lon="6.83609">
        <ele>1354</ele>
        <time>2010-01-03T15:55:23Z</time>
      </trkpt>
      <trkpt lat="46.16396" lon="6.83611">
        <ele>1354</ele>
        <time>2010-01-03T15:55:23Z</time>
      </trkpt>
      <trkpt lat="46.16393" lon="6.83613">
        <ele>1353</ele>
        <time>2010-01-03T15:55:24Z</time>
      </trkpt>
      <trkpt lat="46.16389" lon="6.83616">
        <ele>1353</ele>
        <time>2010-01-03T15:55:26Z</time>
      </trkpt>
      <trkpt lat="46.16388" lon="6.83618">
        <ele>1352</ele>
        <time>2010-01-03T15:55:27Z</time>
      </trkpt>
      <trkpt lat="46.16381" lon="6.83615">
        <ele>1351</ele>
        <time>2010-01-03T15:55:30Z</time>
      </trkpt>
      <trkpt lat="46.1633" lon="6.8364">
        <ele>1329</ele>
        <time>2010-01-03T15:55:51Z</time>
      </trkpt>
      <trkpt lat="46.16316" lon="6.83762">
        <ele>1348</ele>
        <time>2010-01-03T15:56:26Z</time>
      </trkpt>
      <trkpt lat="46.16298" lon="6.83866">
        <ele>1351</ele>
        <time>2010-01-03T15:56:55Z</time>
      </trkpt>
      <trkpt lat="46.16284" lon="6.83928">
        <ele>1354</ele>
        <time>2010-01-03T15:57:13Z</time>
      </trkpt>
      <trkpt lat="46.16267" lon="6.83961">
        <ele>1352</ele>
        <time>2010-01-03T15:57:25Z</time>
      </trkpt>
      <trkpt lat="46.16243" lon="6.84077">
        <ele>1338</ele>
        <time>2010-01-03T15:57:58Z</time>
      </trkpt>
      <trkpt lat="46.16241" lon="6.84101">
        <ele>1336</ele>
        <time>2010-01-03T15:58:05Z</time>
      </trkpt>
      <trkpt lat="46.1624" lon="6.84106">
        <ele>1335</ele>
        <time>2010-01-03T15:58:07Z</time>
      </trkpt>
      <trkpt lat="46.16239" lon="6.8411">
        <ele>1334</ele>
        <time>2010-01-03T15:58:08Z</time>
      </trkpt>
      <trkpt lat="46.16236" lon="6.84116">
        <ele>1333</ele>
        <time>2010-01-03T15:58:10Z</time>
      </trkpt>
      <trkpt lat="46.16234" lon="6.84122">
        <ele>1333</ele>
        <time>2010-01-03T15:58:12Z</time>
      </trkpt>
      <trkpt lat="46.16232" lon="6.84129">
        <ele>1333</ele>
        <time>2010-01-03T15:58:14Z</time>
      </trkpt>
      <trkpt lat="46.16231" lon="6.84133">
        <ele>1333</ele>
        <time>2010-01-03T15:58:15Z</time>
      </trkpt>
      <trkpt lat="46.1623" lon="6.84139">
        <ele>1333</ele>
        <time>2010-01-03T15:58:17Z</time>
      </trkpt>
      <trkpt lat="46.1623" lon="6.84148">
        <ele>1335</ele>
        <time>2010-01-03T15:58:19Z</time>
      </trkpt>
      <trkpt lat="46.1623" lon="6.84152">
        <ele>1336</ele>
        <time>2010-01-03T15:58:20Z</time>
      </trkpt>
      <trkpt lat="46.16231" lon="6.84158">
        <ele>1337</ele>
        <time>2010-01-03T15:58:22Z</time>
      </trkpt>
      <trkpt lat="46.16231" lon="6.84163">
        <ele>1338</ele>
        <time>2010-01-03T15:58:23Z</time>
      </trkpt>
      <trkpt lat="46.16231" lon="6.84167">
        <ele>1338</ele>
        <time>2010-01-03T15:58:24Z</time>
      </trkpt>
      <trkpt lat="46.1623" lon="6.84172">
        <ele>1339</ele>
        <time>2010-01-03T15:58:26Z</time>
      </trkpt>
      <trkpt lat="46.16229" lon="6.84179">
        <ele>1338</ele>
        <time>2010-01-03T15:58:28Z</time>
      </trkpt>
      <trkpt lat="46.16228" lon="6.84187">
        <ele>1336</ele>
        <time>2010-01-03T15:58:30Z</time>
      </trkpt>
      <trkpt lat="46.16227" lon="6.8419">
        <ele>1336</ele>
        <time>2010-01-03T15:58:31Z</time>
      </trkpt>
      <trkpt lat="46.16226" lon="6.84194">
        <ele>1335</ele>
        <time>2010-01-03T15:58:32Z</time>
      </trkpt>
      <trkpt lat="46.16226" lon="6.84199">
        <ele>1335</ele>
        <time>2010-01-03T15:58:34Z</time>
      </trkpt>
      <trkpt lat="46.16226" lon="6.84206">
        <ele>1334</ele>
        <time>2010-01-03T15:58:35Z</time>
      </trkpt>
      <trkpt lat="46.16228" lon="6.8421">
        <ele>1335</ele>
        <time>2010-01-03T15:58:37Z</time>
      </trkpt>
      <trkpt lat="46.1623" lon="6.84213">
        <ele>1335</ele>
        <time>2010-01-03T15:58:38Z</time>
      </trkpt>
      <trkpt lat="46.16233" lon="6.8422">
        <ele>1336</ele>
        <time>2010-01-03T15:58:40Z</time>
      </trkpt>
      <trkpt lat="46.16234" lon="6.84222">
        <ele>1337</ele>
        <time>2010-01-03T15:58:41Z</time>
      </trkpt>
      <trkpt lat="46.16237" lon="6.84227">
        <ele>1338</ele>
        <time>2010-01-03T15:58:43Z</time>
      </trkpt>
      <trkpt lat="46.16238" lon="6.8423">
        <ele>1339</ele>
        <time>2010-01-03T15:58:44Z</time>
      </trkpt>
      <trkpt lat="46.16239" lon="6.84235">
        <ele>1341</ele>
        <time>2010-01-03T15:58:45Z</time>
      </trkpt>
      <trkpt lat="46.1624" lon="6.84236">
        <ele>1341</ele>
        <time>2010-01-03T15:58:46Z</time>
      </trkpt>
      <trkpt lat="46.16242" lon="6.84242">
        <ele>1344</ele>
        <time>2010-01-03T15:58:48Z</time>
      </trkpt>
      <trkpt lat="46.16243" lon="6.84245">
        <ele>1345</ele>
        <time>2010-01-03T15:58:48Z</time>
      </trkpt>
      <trkpt lat="46.16242" lon="6.84256">
        <ele>1344</ele>
        <time>2010-01-03T15:58:52Z</time>
      </trkpt>
      <trkpt lat="46.16236" lon="6.84264">
        <ele>1339</ele>
        <time>2010-01-03T15:58:55Z</time>
      </trkpt>
      <trkpt lat="46.16234" lon="6.84264">
        <ele>1338</ele>
        <time>2010-01-03T15:58:56Z</time>
      </trkpt>
      <trkpt lat="46.1623" lon="6.84267">
        <ele>1336</ele>
        <time>2010-01-03T15:58:57Z</time>
      </trkpt>
      <trkpt lat="46.16228" lon="6.84267">
        <ele>1336</ele>
        <time>2010-01-03T15:58:58Z</time>
      </trkpt>
      <trkpt lat="46.16225" lon="6.84268">
        <ele>1334</ele>
        <time>2010-01-03T15:58:59Z</time>
      </trkpt>
      <trkpt lat="46.16221" lon="6.8427">
        <ele>1333</ele>
        <time>2010-01-03T15:59:01Z</time>
      </trkpt>
      <trkpt lat="46.16219" lon="6.84271">
        <ele>1332</ele>
        <time>2010-01-03T15:59:02Z</time>
      </trkpt>
      <trkpt lat="46.16212" lon="6.84283">
        <ele>1330</ele>
        <time>2010-01-03T15:59:06Z</time>
      </trkpt>
      <trkpt lat="46.16211" lon="6.84347">
        <ele>1328</ele>
        <time>2010-01-03T15:59:24Z</time>
      </trkpt>
      <trkpt lat="46.16208" lon="6.84384">
        <ele>1327</ele>
        <time>2010-01-03T15:59:35Z</time>
      </trkpt>
      <trkpt lat="46.16208" lon="6.84386">
        <ele>1327</ele>
        <time>2010-01-03T15:59:35Z</time>
      </trkpt>
      <trkpt lat="46.1621" lon="6.84392">
        <ele>1327</ele>
        <time>2010-01-03T15:59:37Z</time>
      </trkpt>
      <trkpt lat="46.16211" lon="6.84403">
        <ele>1328</ele>
        <time>2010-01-03T15:59:40Z</time>
      </trkpt>
      <trkpt lat="46.16212" lon="6.84408">
        <ele>1328</ele>
        <time>2010-01-03T15:59:41Z</time>
      </trkpt>
      <trkpt lat="46.16211" lon="6.84413">
        <ele>1328</ele>
        <time>2010-01-03T15:59:43Z</time>
      </trkpt>
      <trkpt lat="46.16212" lon="6.84417">
        <ele>1328</ele>
        <time>2010-01-03T15:59:44Z</time>
      </trkpt>
      <trkpt lat="46.16212" lon="6.84426">
        <ele>1329</ele>
        <time>2010-01-03T15:59:46Z</time>
      </trkpt>
      <trkpt lat="46.16213" lon="6.84434">
        <ele>1329</ele>
        <time>2010-01-03T15:59:49Z</time>
      </trkpt>
      <trkpt lat="46.16212" lon="6.84442">
        <ele>1329</ele>
        <time>2010-01-03T15:59:51Z</time>
      </trkpt>
      <trkpt lat="46.16211" lon="6.84445">
        <ele>1329</ele>
        <time>2010-01-03T15:59:52Z</time>
      </trkpt>
      <trkpt lat="46.16211" lon="6.84455">
        <ele>1329</ele>
        <time>2010-01-03T15:59:54Z</time>
      </trkpt>
      <trkpt lat="46.1621" lon="6.84457">
        <ele>1329</ele>
        <time>2010-01-03T15:59:55Z</time>
      </trkpt>
      <trkpt lat="46.16209" lon="6.84467">
        <ele>1329</ele>
        <time>2010-01-03T15:59:58Z</time>
      </trkpt>
      <trkpt lat="46.16209" lon="6.84471">
        <ele>1328</ele>
        <time>2010-01-03T15:59:59Z</time>
      </trkpt>
      <trkpt lat="46.16208" lon="6.84478">
        <ele>1328</ele>
        <time>2010-01-03T16:00:01Z</time>
      </trkpt>
      <trkpt lat="46.16208" lon="6.84481">
        <ele>1328</ele>
        <time>2010-01-03T16:00:02Z</time>
      </trkpt>
      <trkpt lat="46.16208" lon="6.84519">
        <ele>1329</ele>
        <time>2010-01-03T16:00:12Z</time>
      </trkpt>
      <trkpt lat="46.16217" lon="6.8471">
        <ele>1321</ele>
        <time>2010-01-03T16:01:06Z</time>
      </trkpt>
      <trkpt lat="46.16245" lon="6.84891">
        <ele>1294</ele>
        <time>2010-01-03T16:01:57Z</time>
      </trkpt>
      <trkpt lat="46.16256" lon="6.8495">
        <ele>1310</ele>
        <time>2010-01-03T16:02:14Z</time>
      </trkpt>
      <trkpt lat="46.16257" lon="6.84955">
        <ele>1309</ele>
        <time>2010-01-03T16:02:15Z</time>
      </trkpt>
      <trkpt lat="46.16264" lon="6.84999">
        <ele>1294</ele>
        <time>2010-01-03T16:02:28Z</time>
      </trkpt>
      <trkpt lat="46.16298" lon="6.85071">
        <ele>1294</ele>
        <time>2010-01-03T16:02:52Z</time>
      </trkpt>
      <trkpt lat="46.16326" lon="6.85135">
        <ele>1275</ele>
        <time>2010-01-03T16:03:13Z</time>
      </trkpt>
      <trkpt lat="46.16348" lon="6.85192">
        <ele>1277</ele>
        <time>2010-01-03T16:03:31Z</time>
      </trkpt>
      <trkpt lat="46.1637" lon="6.85214">
        <ele>1278</ele>
        <time>2010-01-03T16:03:42Z</time>
      </trkpt>
      <trkpt lat="46.164" lon="6.8526">
        <ele>1266</ele>
        <time>2010-01-03T16:03:59Z</time>
      </trkpt>
      <trkpt lat="46.16426" lon="6.85303">
        <ele>1276</ele>
        <time>2010-01-03T16:04:15Z</time>
      </trkpt>
      <trkpt lat="46.16452" lon="6.85357">
        <ele>1259</ele>
        <time>2010-01-03T16:04:33Z</time>
      </trkpt>
      <trkpt lat="46.16488" lon="6.85418">
        <ele>1250</ele>
        <time>2010-01-03T16:04:56Z</time>
      </trkpt>
      <trkpt lat="46.16538" lon="6.85501">
        <ele>1234</ele>
        <time>2010-01-03T16:05:26Z</time>
      </trkpt>
      <trkpt lat="46.16585" lon="6.85546">
        <ele>1247</ele>
        <time>2010-01-03T16:05:49Z</time>
      </trkpt>
      <trkpt lat="46.16606" lon="6.85563">
        <ele>1246</ele>
        <time>2010-01-03T16:05:58Z</time>
      </trkpt>
      <trkpt lat="46.16604" lon="6.85596">
        <ele>1226</ele>
        <time>2010-01-03T16:06:08Z</time>
      </trkpt>
      <trkpt lat="46.16649" lon="6.85667">
        <ele>1225</ele>
        <time>2010-01-03T16:06:34Z</time>
      </trkpt>
      <trkpt lat="46.16664" lon="6.85714">
        <ele>1200</ele>
        <time>2010-01-03T16:06:49Z</time>
      </trkpt>
      <trkpt lat="46.16697" lon="6.8574">
        <ele>1222</ele>
        <time>2010-01-03T16:07:04Z</time>
      </trkpt>
      <trkpt lat="46.16755" lon="6.85823">
        <ele>1204</ele>
        <time>2010-01-03T16:07:36Z</time>
      </trkpt>
      <trkpt lat="46.16785" lon="6.85878">
        <ele>1187</ele>
        <time>2010-01-03T16:07:56Z</time>
      </trkpt>
      <trkpt lat="46.1683" lon="6.85914">
        <ele>1185</ele>
        <time>2010-01-03T16:08:17Z</time>
      </trkpt>
      <trkpt lat="46.16844" lon="6.85913">
        <ele>1193</ele>
        <time>2010-01-03T16:08:22Z</time>
      </trkpt>
      <trkpt lat="46.16844" lon="6.85977">
        <ele>1177</ele>
        <time>2010-01-03T16:08:40Z</time>
      </trkpt>
      <trkpt lat="46.16882" lon="6.86028">
        <ele>1163</ele>
        <time>2010-01-03T16:09:00Z</time>
      </trkpt>
      <trkpt lat="46.16946" lon="6.8607">
        <ele>1165</ele>
        <time>2010-01-03T16:09:29Z</time>
      </trkpt>
      <trkpt lat="46.16987" lon="6.86095">
        <ele>1151</ele>
        <time>2010-01-03T16:09:47Z</time>
      </trkpt>
      <trkpt lat="46.17021" lon="6.86111">
        <ele>1154</ele>
        <time>2010-01-03T16:10:01Z</time>
      </trkpt>
      <trkpt lat="46.17098" lon="6.86201">
        <ele>1137</ele>
        <time>2010-01-03T16:10:40Z</time>
      </trkpt>
      <trkpt lat="46.17149" lon="6.86283">
        <ele>1111</ele>
        <time>2010-01-03T16:11:11Z</time>
      </trkpt>
      <trkpt lat="46.1721" lon="6.86291">
        <ele>1116</ele>
        <time>2010-01-03T16:11:35Z</time>
      </trkpt>
      <trkpt lat="46.17249" lon="6.86279">
        <ele>1121</ele>
        <time>2010-01-03T16:11:51Z</time>
      </trkpt>
      <trkpt lat="46.17253" lon="6.86283">
        <ele>1126</ele>
        <time>2010-01-03T16:11:53Z</time>
      </trkpt>
      <trkpt lat="46.17298" lon="6.86338">
        <ele>1106</ele>
        <time>2010-01-03T16:12:17Z</time>
      </trkpt>
      <trkpt lat="46.17317" lon="6.86401">
        <ele>1100</ele>
        <time>2010-01-03T16:12:36Z</time>
      </trkpt>
      <trkpt lat="46.17356" lon="6.86425">
        <ele>1101</ele>
        <time>2010-01-03T16:12:53Z</time>
      </trkpt>
      <trkpt lat="46.17372" lon="6.86515">
        <ele>1086</ele>
        <time>2010-01-03T16:13:19Z</time>
      </trkpt>
      <trkpt lat="46.17396" lon="6.86584">
        <ele>1074</ele>
        <time>2010-01-03T16:13:40Z</time>
      </trkpt>
      <trkpt lat="46.17397" lon="6.866">
        <ele>1073</ele>
        <time>2010-01-03T16:13:44Z</time>
      </trkpt>
      <trkpt lat="46.17407" lon="6.86608">
        <ele>1073</ele>
        <time>2010-01-03T16:13:49Z</time>
      </trkpt>
      <trkpt lat="46.17426" lon="6.8662">
        <ele>1076</ele>
        <time>2010-01-03T16:13:57Z</time>
      </trkpt>
      <trkpt lat="46.17442" lon="6.86629">
        <ele>1076</ele>
        <time>2010-01-03T16:14:04Z</time>
      </trkpt>
      <trkpt lat="46.1746" lon="6.86636">
        <ele>1076</ele>
        <time>2010-01-03T16:14:12Z</time>
      </trkpt>
      <trkpt lat="46.17481" lon="6.86644">
        <ele>1075</ele>
        <time>2010-01-03T16:14:20Z</time>
      </trkpt>
      <trkpt lat="46.17503" lon="6.86651">
        <ele>1077</ele>
        <time>2010-01-03T16:14:30Z</time>
      </trkpt>
      <trkpt lat="46.17505" lon="6.86652">
        <ele>1077</ele>
        <time>2010-01-03T16:14:31Z</time>
      </trkpt>
      <trkpt lat="46.17519" lon="6.86659">
        <ele>1078</ele>
        <time>2010-01-03T16:14:36Z</time>
      </trkpt>
      <trkpt lat="46.17527" lon="6.86671">
        <ele>1068</ele>
        <time>2010-01-03T16:14:41Z</time>
      </trkpt>
      <trkpt lat="46.1752" lon="6.86679">
        <ele>1068</ele>
        <time>2010-01-03T16:14:45Z</time>
      </trkpt>
      <trkpt lat="46.17513" lon="6.86695">
        <ele>1067</ele>
        <time>2010-01-03T16:14:50Z</time>
      </trkpt>
      <trkpt lat="46.17483" lon="6.86726">
        <ele>1061</ele>
        <time>2010-01-03T16:15:05Z</time>
      </trkpt>
      <trkpt lat="46.17438" lon="6.86766">
        <ele>1055</ele>
        <time>2010-01-03T16:15:26Z</time>
      </trkpt>
      <trkpt lat="46.17434" lon="6.8678">
        <ele>1055</ele>
        <time>2010-01-03T16:15:30Z</time>
      </trkpt>
      <trkpt lat="46.17472" lon="6.86855">
        <ele>1047</ele>
        <time>2010-01-03T16:15:56Z</time>
      </trkpt>
      <trkpt lat="46.175" lon="6.86899">
        <ele>1045</ele>
        <time>2010-01-03T16:16:12Z</time>
      </trkpt>
      <trkpt lat="46.17523" lon="6.86932">
        <ele>1042</ele>
        <time>2010-01-03T16:16:25Z</time>
      </trkpt>
      <trkpt lat="46.17529" lon="6.8696">
        <ele>1041</ele>
        <time>2010-01-03T16:16:34Z</time>
      </trkpt>
      <trkpt lat="46.17515" lon="6.87021">
        <ele>1037</ele>
        <time>2010-01-03T16:16:51Z</time>
      </trkpt>
      <trkpt lat="46.17507" lon="6.87048">
        <ele>1036</ele>
        <time>2010-01-03T16:16:59Z</time>
      </trkpt>
      <trkpt lat="46.17507" lon="6.87105">
        <ele>1033</ele>
        <time>2010-01-03T16:17:15Z</time>
      </trkpt>
      <trkpt lat="46.17501" lon="6.87144">
        <ele>1032</ele>
        <time>2010-01-03T16:17:26Z</time>
      </trkpt>
      <trkpt lat="46.17481" lon="6.87111">
        <ele>1031</ele>
        <time>2010-01-03T16:17:39Z</time>
      </trkpt>
      <trkpt lat="46.17493" lon="6.8709">
        <ele>1033</ele>
        <time>2010-01-03T16:17:46Z</time>
      </trkpt>
      <trkpt lat="46.175" lon="6.87086">
        <ele>1034</ele>
        <time>2010-01-03T16:17:49Z</time>
      </trkpt>
      <trkpt lat="46.1749" lon="6.87065">
        <ele>1036</ele>
        <time>2010-01-03T16:17:56Z</time>
      </trkpt>
      <trkpt lat="46.17486" lon="6.8681">
        <ele>1053</ele>
        <time>2010-01-03T16:19:07Z</time>
      </trkpt>
      <trkpt lat="46.17481" lon="6.86446">
        <ele>1129</ele>
        <time>2010-01-03T16:20:48Z</time>
      </trkpt>
      <trkpt lat="46.17478" lon="6.86232">
        <ele>1202</ele>
        <time>2010-01-03T16:21:47Z</time>
      </trkpt>
      <trkpt lat="46.17478" lon="6.86123">
        <ele>1230</ele>
        <time>2010-01-03T16:22:17Z</time>
      </trkpt>
      <trkpt lat="46.17492" lon="6.86061">
        <ele>1259</ele>
        <time>2010-01-03T16:22:35Z</time>
      </trkpt>
      <trkpt lat="46.17494" lon="6.86037">
        <ele>1265</ele>
        <time>2010-01-03T16:22:42Z</time>
      </trkpt>
      <trkpt lat="46.17495" lon="6.86002">
        <ele>1283</ele>
        <time>2010-01-03T16:22:52Z</time>
      </trkpt>
      <trkpt lat="46.17496" lon="6.8598">
        <ele>1291</ele>
        <time>2010-01-03T16:22:58Z</time>
      </trkpt>
      <trkpt lat="46.17498" lon="6.85932">
        <ele>1306</ele>
        <time>2010-01-03T16:23:11Z</time>
      </trkpt>
      <trkpt lat="46.175" lon="6.85823">
        <ele>1347</ele>
        <time>2010-01-03T16:23:42Z</time>
      </trkpt>
      <trkpt lat="46.17512" lon="6.85483">
        <ele>1491</ele>
        <time>2010-01-03T16:25:16Z</time>
      </trkpt>
      <trkpt lat="46.17514" lon="6.8522">
        <ele>1559</ele>
        <time>2010-01-03T16:26:29Z</time>
      </trkpt>
      <trkpt lat="46.17509" lon="6.84825">
        <ele>1764</ele>
        <time>2010-01-03T16:28:18Z</time>
      </trkpt>
      <trkpt lat="46.17508" lon="6.84784">
        <ele>1788</ele>
        <time>2010-01-03T16:28:30Z</time>
      </trkpt>
      <trkpt lat="46.17508" lon="6.84695">
        <ele>1861</ele>
        <time>2010-01-03T16:28:54Z</time>
      </trkpt>
      <trkpt lat="46.17505" lon="6.84673">
        <ele>1884</ele>
        <time>2010-01-03T16:29:01Z</time>
      </trkpt>
      <trkpt lat="46.17506" lon="6.84658">
        <ele>1901</ele>
        <time>2010-01-03T16:29:05Z</time>
      </trkpt>
      <trkpt lat="46.17507" lon="6.84623">
        <ele>1910</ele>
        <time>2010-01-03T16:29:14Z</time>
      </trkpt>
      <trkpt lat="46.17509" lon="6.84617">
        <ele>1912</ele>
        <time>2010-01-03T16:29:16Z</time>
      </trkpt>
      <trkpt lat="46.17512" lon="6.84614">
        <ele>1913</ele>
        <time>2010-01-03T16:29:18Z</time>
      </trkpt>
      <trkpt lat="46.17514" lon="6.84612">
        <ele>1913</ele>
        <time>2010-01-03T16:29:19Z</time>
      </trkpt>
      <trkpt lat="46.17514" lon="6.84611">
        <ele>1914</ele>
        <time>2010-01-03T16:29:19Z</time>
      </trkpt>
      <trkpt lat="46.17514" lon="6.84605">
        <ele>1916</ele>
        <time>2010-01-03T16:29:21Z</time>
      </trkpt>
      <trkpt lat="46.17509" lon="6.84598">
        <ele>1919</ele>
        <time>2010-01-03T16:29:23Z</time>
      </trkpt>
      <trkpt lat="46.17502" lon="6.84581">
        <ele>1929</ele>
        <time>2010-01-03T16:29:29Z</time>
      </trkpt>
      <trkpt lat="46.17513" lon="6.84566">
        <ele>1929</ele>
        <time>2010-01-03T16:29:35Z</time>
      </trkpt>
      <trkpt lat="46.17515" lon="6.84533">
        <ele>1928</ele>
        <time>2010-01-03T16:29:44Z</time>
      </trkpt>
      <trkpt lat="46.17518" lon="6.84524">
        <ele>1928</ele>
        <time>2010-01-03T16:29:47Z</time>
      </trkpt>
      <trkpt lat="46.17518" lon="6.84524">
        <ele>1928</ele>
        <time>2010-01-03T16:29:47Z</time>
      </trkpt>
      <trkpt lat="46.17518" lon="6.84523">
        <ele>1927</ele>
        <time>2010-01-03T16:29:47Z</time>
      </trkpt>
      <trkpt lat="46.17522" lon="6.84511">
        <ele>1927</ele>
        <time>2010-01-03T16:29:51Z</time>
      </trkpt>
      <trkpt lat="46.17522" lon="6.84508">
        <ele>1927</ele>
        <time>2010-01-03T16:29:52Z</time>
      </trkpt>
      <trkpt lat="46.17523" lon="6.84507">
        <ele>1927</ele>
        <time>2010-01-03T16:29:52Z</time>
      </trkpt>
      <trkpt lat="46.17528" lon="6.84494">
        <ele>1921</ele>
        <time>2010-01-03T16:29:56Z</time>
      </trkpt>
      <trkpt lat="46.17529" lon="6.84492">
        <ele>1921</ele>
        <time>2010-01-03T16:29:57Z</time>
      </trkpt>
      <trkpt lat="46.17542" lon="6.84469">
        <ele>1919</ele>
        <time>2010-01-03T16:30:05Z</time>
      </trkpt>
      <trkpt lat="46.17542" lon="6.84469">
        <ele>1919</ele>
        <time>2010-01-03T16:30:05Z</time>
      </trkpt>
      <trkpt lat="46.17551" lon="6.84462">
        <ele>1919</ele>
        <time>2010-01-03T16:30:09Z</time>
      </trkpt>
      <trkpt lat="46.17559" lon="6.84451">
        <ele>1918</ele>
        <time>2010-01-03T16:30:14Z</time>
      </trkpt>
      <trkpt lat="46.17565" lon="6.84448">
        <ele>1918</ele>
        <time>2010-01-03T16:30:16Z</time>
      </trkpt>
      <trkpt lat="46.17568" lon="6.84448">
        <ele>1918</ele>
        <time>2010-01-03T16:30:17Z</time>
      </trkpt>
      <trkpt lat="46.17569" lon="6.84448">
        <ele>1918</ele>
        <time>2010-01-03T16:30:18Z</time>
      </trkpt>
      <trkpt lat="46.17572" lon="6.84441">
        <ele>1917</ele>
        <time>2010-01-03T16:30:20Z</time>
      </trkpt>
      <trkpt lat="46.17572" lon="6.84431">
        <ele>1916</ele>
        <time>2010-01-03T16:30:23Z</time>
      </trkpt>
      <trkpt lat="46.17573" lon="6.84428">
        <ele>1916</ele>
        <time>2010-01-03T16:30:24Z</time>
      </trkpt>
      <trkpt lat="46.17574" lon="6.84413">
        <ele>1911</ele>
        <time>2010-01-03T16:30:28Z</time>
      </trkpt>
      <trkpt lat="46.17574" lon="6.84413">
        <ele>1910</ele>
        <time>2010-01-03T16:30:28Z</time>
      </trkpt>
      <trkpt lat="46.17571" lon="6.84407">
        <ele>1909</ele>
        <time>2010-01-03T16:30:30Z</time>
      </trkpt>
      <trkpt lat="46.17571" lon="6.84404">
        <ele>1909</ele>
        <time>2010-01-03T16:30:31Z</time>
      </trkpt>
      <trkpt lat="46.17574" lon="6.8437">
        <ele>1904</ele>
        <time>2010-01-03T16:30:40Z</time>
      </trkpt>
      <trkpt lat="46.17575" lon="6.84347">
        <ele>1903</ele>
        <time>2010-01-03T16:30:47Z</time>
      </trkpt>
      <trkpt lat="46.1758" lon="6.84305">
        <ele>1899</ele>
        <time>2010-01-03T16:30:58Z</time>
      </trkpt>
      <trkpt lat="46.17572" lon="6.84284">
        <ele>1898</ele>
        <time>2010-01-03T16:31:05Z</time>
      </trkpt>
      <trkpt lat="46.1757" lon="6.84264">
        <ele>1899</ele>
        <time>2010-01-03T16:31:11Z</time>
      </trkpt>
      <trkpt lat="46.17565" lon="6.84244">
        <ele>1897</ele>
        <time>2010-01-03T16:31:16Z</time>
      </trkpt>
      <trkpt lat="46.17569" lon="6.84194">
        <ele>1895</ele>
        <time>2010-01-03T16:31:30Z</time>
      </trkpt>
      <trkpt lat="46.17577" lon="6.84162">
        <ele>1897</ele>
        <time>2010-01-03T16:31:40Z</time>
      </trkpt>
      <trkpt lat="46.17583" lon="6.84138">
        <ele>1891</ele>
        <time>2010-01-03T16:31:47Z</time>
      </trkpt>
      <trkpt lat="46.17588" lon="6.84109">
        <ele>1900</ele>
        <time>2010-01-03T16:31:55Z</time>
      </trkpt>
      <trkpt lat="46.17588" lon="6.84088">
        <ele>1897</ele>
        <time>2010-01-03T16:32:01Z</time>
      </trkpt>
      <trkpt lat="46.1761" lon="6.84003">
        <ele>1897</ele>
        <time>2010-01-03T16:32:26Z</time>
      </trkpt>
      <trkpt lat="46.17624" lon="6.83911">
        <ele>1882</ele>
        <time>2010-01-03T16:32:52Z</time>
      </trkpt>
      <trkpt lat="46.17634" lon="6.83854">
        <ele>1879</ele>
        <time>2010-01-03T16:33:08Z</time>
      </trkpt>
      <trkpt lat="46.17645" lon="6.8383">
        <ele>1872</ele>
        <time>2010-01-03T16:33:16Z</time>
      </trkpt>
      <trkpt lat="46.17671" lon="6.83777">
        <ele>1872</ele>
        <time>2010-01-03T16:33:34Z</time>
      </trkpt>
      <trkpt lat="46.17687" lon="6.83758">
        <ele>1870</ele>
        <time>2010-01-03T16:33:43Z</time>
      </trkpt>
      <trkpt lat="46.17702" lon="6.83752">
        <ele>1870</ele>
        <time>2010-01-03T16:33:49Z</time>
      </trkpt>
      <trkpt lat="46.1772" lon="6.8374">
        <ele>1858</ele>
        <time>2010-01-03T16:33:57Z</time>
      </trkpt>
      <trkpt lat="46.17739" lon="6.8374">
        <ele>1860</ele>
        <time>2010-01-03T16:34:04Z</time>
      </trkpt>
      <trkpt lat="46.17754" lon="6.83725">
        <ele>1856</ele>
        <time>2010-01-03T16:34:12Z</time>
      </trkpt>
      <trkpt lat="46.17765" lon="6.8371">
        <ele>1853</ele>
        <time>2010-01-03T16:34:18Z</time>
      </trkpt>
      <trkpt lat="46.17768" lon="6.83688">
        <ele>1851</ele>
        <time>2010-01-03T16:34:24Z</time>
      </trkpt>
      <trkpt lat="46.17768" lon="6.83686">
        <ele>1851</ele>
        <time>2010-01-03T16:34:25Z</time>
      </trkpt>
      <trkpt lat="46.17768" lon="6.83672">
        <ele>1850</ele>
        <time>2010-01-03T16:34:29Z</time>
      </trkpt>
      <trkpt lat="46.17754" lon="6.83653">
        <ele>1845</ele>
        <time>2010-01-03T16:34:36Z</time>
      </trkpt>
      <trkpt lat="46.17744" lon="6.83632">
        <ele>1842</ele>
        <time>2010-01-03T16:34:43Z</time>
      </trkpt>
      <trkpt lat="46.1774" lon="6.83609">
        <ele>1840</ele>
        <time>2010-01-03T16:34:50Z</time>
      </trkpt>
      <trkpt lat="46.1775" lon="6.83569">
        <ele>1833</ele>
        <time>2010-01-03T16:35:02Z</time>
      </trkpt>
      <trkpt lat="46.17759" lon="6.83538">
        <ele>1829</ele>
        <time>2010-01-03T16:35:11Z</time>
      </trkpt>
      <trkpt lat="46.17769" lon="6.83504">
        <ele>1828</ele>
        <time>2010-01-03T16:35:21Z</time>
      </trkpt>
      <trkpt lat="46.17772" lon="6.83484">
        <ele>1823</ele>
        <time>2010-01-03T16:35:27Z</time>
      </trkpt>
      <trkpt lat="46.17775" lon="6.83464">
        <ele>1821</ele>
        <time>2010-01-03T16:35:33Z</time>
      </trkpt>
      <trkpt lat="46.17778" lon="6.83437">
        <ele>1820</ele>
        <time>2010-01-03T16:35:40Z</time>
      </trkpt>
      <trkpt lat="46.17778" lon="6.83435">
        <ele>1820</ele>
        <time>2010-01-03T16:35:41Z</time>
      </trkpt>
      <trkpt lat="46.17772" lon="6.83412">
        <ele>1816</ele>
        <time>2010-01-03T16:35:47Z</time>
      </trkpt>
      <trkpt lat="46.17767" lon="6.83396">
        <ele>1816</ele>
        <time>2010-01-03T16:35:52Z</time>
      </trkpt>
      <trkpt lat="46.17757" lon="6.83371">
        <ele>1813</ele>
        <time>2010-01-03T16:36:01Z</time>
      </trkpt>
      <trkpt lat="46.17749" lon="6.83356">
        <ele>1809</ele>
        <time>2010-01-03T16:36:05Z</time>
      </trkpt>
      <trkpt lat="46.17755" lon="6.83347">
        <ele>1811</ele>
        <time>2010-01-03T16:36:09Z</time>
      </trkpt>
      <trkpt lat="46.17761" lon="6.83336">
        <ele>1811</ele>
        <time>2010-01-03T16:36:13Z</time>
      </trkpt>
      <trkpt lat="46.17769" lon="6.83316">
        <ele>1808</ele>
        <time>2010-01-03T16:36:19Z</time>
      </trkpt>
      <trkpt lat="46.17785" lon="6.83269">
        <ele>1807</ele>
        <time>2010-01-03T16:36:34Z</time>
      </trkpt>
      <trkpt lat="46.17805" lon="6.83222">
        <ele>1806</ele>
        <time>2010-01-03T16:36:49Z</time>
      </trkpt>
      <trkpt lat="46.17805" lon="6.83205">
        <ele>1806</ele>
        <time>2010-01-03T16:36:54Z</time>
      </trkpt>
      <trkpt lat="46.17821" lon="6.83135">
        <ele>1805</ele>
        <time>2010-01-03T16:37:14Z</time>
      </trkpt>
      <trkpt lat="46.17842" lon="6.83057">
        <ele>1805</ele>
        <time>2010-01-03T16:37:37Z</time>
      </trkpt>
      <trkpt lat="46.17846" lon="6.83046">
        <ele>1805</ele>
        <time>2010-01-03T16:37:41Z</time>
      </trkpt>
      <trkpt lat="46.17851" lon="6.83049">
        <ele>1804</ele>
        <time>2010-01-03T16:37:43Z</time>
      </trkpt>
      <trkpt lat="46.1786" lon="6.83049">
        <ele>1804</ele>
        <time>2010-01-03T16:37:47Z</time>
      </trkpt>
      <trkpt lat="46.1787" lon="6.83039">
        <ele>1803</ele>
        <time>2010-01-03T16:37:51Z</time>
      </trkpt>
      <trkpt lat="46.17883" lon="6.83015">
        <ele>1802</ele>
        <time>2010-01-03T16:38:00Z</time>
      </trkpt>
      <trkpt lat="46.17891" lon="6.82982">
        <ele>1804</ele>
        <time>2010-01-03T16:38:10Z</time>
      </trkpt>
      <trkpt lat="46.17896" lon="6.82958">
        <ele>1805</ele>
        <time>2010-01-03T16:38:16Z</time>
      </trkpt>
      <trkpt lat="46.17901" lon="6.8295">
        <ele>1805</ele>
        <time>2010-01-03T16:38:20Z</time>
      </trkpt>
      <trkpt lat="46.17907" lon="6.82949">
        <ele>1805</ele>
        <time>2010-01-03T16:38:22Z</time>
      </trkpt>
      <trkpt lat="46.17911" lon="6.82957">
        <ele>1805</ele>
        <time>2010-01-03T16:38:25Z</time>
      </trkpt>
      <trkpt lat="46.17915" lon="6.82976">
        <ele>1803</ele>
        <time>2010-01-03T16:38:30Z</time>
      </trkpt>
      <trkpt lat="46.17918" lon="6.82989">
        <ele>1793</ele>
        <time>2010-01-03T16:38:34Z</time>
      </trkpt>
      <trkpt lat="46.17925" lon="6.83">
        <ele>1794</ele>
        <time>2010-01-03T16:38:38Z</time>
      </trkpt>
      <trkpt lat="46.17928" lon="6.83025">
        <ele>1788</ele>
        <time>2010-01-03T16:38:45Z</time>
      </trkpt>
      <trkpt lat="46.17928" lon="6.83049">
        <ele>1787</ele>
        <time>2010-01-03T16:38:52Z</time>
      </trkpt>
      <trkpt lat="46.17928" lon="6.83068">
        <ele>1788</ele>
        <time>2010-01-03T16:38:57Z</time>
      </trkpt>
      <trkpt lat="46.17929" lon="6.83082">
        <ele>1790</ele>
        <time>2010-01-03T16:39:01Z</time>
      </trkpt>
      <trkpt lat="46.1793" lon="6.83094">
        <ele>1790</ele>
        <time>2010-01-03T16:39:04Z</time>
      </trkpt>
      <trkpt lat="46.17935" lon="6.83104">
        <ele>1788</ele>
        <time>2010-01-03T16:39:08Z</time>
      </trkpt>
      <trkpt lat="46.17939" lon="6.83104">
        <ele>1788</ele>
        <time>2010-01-03T16:39:09Z</time>
      </trkpt>
      <trkpt lat="46.1794" lon="6.83101">
        <ele>1788</ele>
        <time>2010-01-03T16:39:10Z</time>
      </trkpt>
      <trkpt lat="46.17942" lon="6.83086">
        <ele>1788</ele>
        <time>2010-01-03T16:39:14Z</time>
      </trkpt>
      <trkpt lat="46.17942" lon="6.83085">
        <ele>1788</ele>
        <time>2010-01-03T16:39:15Z</time>
      </trkpt>
      <trkpt lat="46.17942" lon="6.83084">
        <ele>1788</ele>
        <time>2010-01-03T16:39:15Z</time>
      </trkpt>
      <trkpt lat="46.17952" lon="6.83042">
        <ele>1784</ele>
        <time>2010-01-03T16:39:27Z</time>
      </trkpt>
      <trkpt lat="46.17952" lon="6.83041">
        <ele>1783</ele>
        <time>2010-01-03T16:39:27Z</time>
      </trkpt>
      <trkpt lat="46.17953" lon="6.83039">
        <ele>1783</ele>
        <time>2010-01-03T16:39:28Z</time>
      </trkpt>
      <trkpt lat="46.17962" lon="6.83006">
        <ele>1781</ele>
        <time>2010-01-03T16:39:38Z</time>
      </trkpt>
      <trkpt lat="46.17963" lon="6.83003">
        <ele>1781</ele>
        <time>2010-01-03T16:39:39Z</time>
      </trkpt>
      <trkpt lat="46.17967" lon="6.82971">
        <ele>1784</ele>
        <time>2010-01-03T16:39:48Z</time>
      </trkpt>
      <trkpt lat="46.17967" lon="6.8297">
        <ele>1784</ele>
        <time>2010-01-03T16:39:48Z</time>
      </trkpt>
      <trkpt lat="46.1797" lon="6.82948">
        <ele>1785</ele>
        <time>2010-01-03T16:39:54Z</time>
      </trkpt>
      <trkpt lat="46.17972" lon="6.82946">
        <ele>1785</ele>
        <time>2010-01-03T16:39:55Z</time>
      </trkpt>
      <trkpt lat="46.17988" lon="6.82931">
        <ele>1783</ele>
        <time>2010-01-03T16:40:03Z</time>
      </trkpt>
      <trkpt lat="46.17989" lon="6.8293">
        <ele>1783</ele>
        <time>2010-01-03T16:40:03Z</time>
      </trkpt>
      <trkpt lat="46.18017" lon="6.82929">
        <ele>1771</ele>
        <time>2010-01-03T16:40:15Z</time>
      </trkpt>
      <trkpt lat="46.18047" lon="6.82923">
        <ele>1767</ele>
        <time>2010-01-03T16:40:27Z</time>
      </trkpt>
      <trkpt lat="46.18065" lon="6.82906">
        <ele>1773</ele>
        <time>2010-01-03T16:40:35Z</time>
      </trkpt>
      <trkpt lat="46.18085" lon="6.82896">
        <ele>1764</ele>
        <time>2010-01-03T16:40:44Z</time>
      </trkpt>
      <trkpt lat="46.18101" lon="6.82898">
        <ele>1763</ele>
        <time>2010-01-03T16:40:50Z</time>
      </trkpt>
      <trkpt lat="46.1812" lon="6.82887">
        <ele>1763</ele>
        <time>2010-01-03T16:40:58Z</time>
      </trkpt>
      <trkpt lat="46.18133" lon="6.82881">
        <ele>1762</ele>
        <time>2010-01-03T16:41:04Z</time>
      </trkpt>
      <trkpt lat="46.18142" lon="6.82884">
        <ele>1761</ele>
        <time>2010-01-03T16:41:07Z</time>
      </trkpt>
      <trkpt lat="46.18143" lon="6.82904">
        <ele>1758</ele>
        <time>2010-01-03T16:41:13Z</time>
      </trkpt>
      <trkpt lat="46.18124" lon="6.82935">
        <ele>1750</ele>
        <time>2010-01-03T16:41:25Z</time>
      </trkpt>
      <trkpt lat="46.18115" lon="6.82951">
        <ele>1750</ele>
        <time>2010-01-03T16:41:30Z</time>
      </trkpt>
      <trkpt lat="46.18087" lon="6.82999">
        <ele>1749</ele>
        <time>2010-01-03T16:41:48Z</time>
      </trkpt>
      <trkpt lat="46.18077" lon="6.83031">
        <ele>1753</ele>
        <time>2010-01-03T16:41:57Z</time>
      </trkpt>
      <trkpt lat="46.18076" lon="6.83049">
        <ele>1752</ele>
        <time>2010-01-03T16:42:02Z</time>
      </trkpt>
      <trkpt lat="46.18085" lon="6.83064">
        <ele>1738</ele>
        <time>2010-01-03T16:42:08Z</time>
      </trkpt>
      <trkpt lat="46.18093" lon="6.83087">
        <ele>1737</ele>
        <time>2010-01-03T16:42:15Z</time>
      </trkpt>
      <trkpt lat="46.18098" lon="6.83103">
        <ele>1735</ele>
        <time>2010-01-03T16:42:20Z</time>
      </trkpt>
      <trkpt lat="46.18107" lon="6.83124">
        <ele>1733</ele>
        <time>2010-01-03T16:42:27Z</time>
      </trkpt>
      <trkpt lat="46.1812" lon="6.83139">
        <ele>1732</ele>
        <time>2010-01-03T16:42:33Z</time>
      </trkpt>
      <trkpt lat="46.18138" lon="6.83155">
        <ele>1728</ele>
        <time>2010-01-03T16:42:42Z</time>
      </trkpt>
      <trkpt lat="46.18147" lon="6.83171">
        <ele>1727</ele>
        <time>2010-01-03T16:42:48Z</time>
      </trkpt>
      <trkpt lat="46.18153" lon="6.83176">
        <ele>1726</ele>
        <time>2010-01-03T16:42:51Z</time>
      </trkpt>
      <trkpt lat="46.18161" lon="6.83188">
        <ele>1727</ele>
        <time>2010-01-03T16:42:55Z</time>
      </trkpt>
      <trkpt lat="46.18167" lon="6.83194">
        <ele>1716</ele>
        <time>2010-01-03T16:42:58Z</time>
      </trkpt>
      <trkpt lat="46.18176" lon="6.83195">
        <ele>1715</ele>
        <time>2010-01-03T16:43:02Z</time>
      </trkpt>
      <trkpt lat="46.18177" lon="6.83195">
        <ele>1715</ele>
        <time>2010-01-03T16:43:02Z</time>
      </trkpt>
      <trkpt lat="46.18186" lon="6.83196">
        <ele>1714</ele>
        <time>2010-01-03T16:43:06Z</time>
      </trkpt>
      <trkpt lat="46.18193" lon="6.83203">
        <ele>1714</ele>
        <time>2010-01-03T16:43:09Z</time>
      </trkpt>
      <trkpt lat="46.182" lon="6.83213">
        <ele>1713</ele>
        <time>2010-01-03T16:43:13Z</time>
      </trkpt>
      <trkpt lat="46.18208" lon="6.8322">
        <ele>1713</ele>
        <time>2010-01-03T16:43:17Z</time>
      </trkpt>
      <trkpt lat="46.18214" lon="6.83212">
        <ele>1712</ele>
        <time>2010-01-03T16:43:20Z</time>
      </trkpt>
      <trkpt lat="46.18214" lon="6.83202">
        <ele>1711</ele>
        <time>2010-01-03T16:43:23Z</time>
      </trkpt>
      <trkpt lat="46.18208" lon="6.83177">
        <ele>1712</ele>
        <time>2010-01-03T16:43:30Z</time>
      </trkpt>
      <trkpt lat="46.18205" lon="6.83169">
        <ele>1712</ele>
        <time>2010-01-03T16:43:33Z</time>
      </trkpt>
      <trkpt lat="46.18205" lon="6.83168">
        <ele>1712</ele>
        <time>2010-01-03T16:43:33Z</time>
      </trkpt>
      <trkpt lat="46.18206" lon="6.83157">
        <ele>1712</ele>
        <time>2010-01-03T16:43:36Z</time>
      </trkpt>
      <trkpt lat="46.18208" lon="6.83155">
        <ele>1711</ele>
        <time>2010-01-03T16:43:37Z</time>
      </trkpt>
      <trkpt lat="46.18242" lon="6.83131">
        <ele>1709</ele>
        <time>2010-01-03T16:43:52Z</time>
      </trkpt>
      <trkpt lat="46.18267" lon="6.83124">
        <ele>1705</ele>
        <time>2010-01-03T16:44:02Z</time>
      </trkpt>
      <trkpt lat="46.18261" lon="6.83161">
        <ele>1703</ele>
        <time>2010-01-03T16:44:13Z</time>
      </trkpt>
      <trkpt lat="46.18263" lon="6.83177">
        <ele>1700</ele>
        <time>2010-01-03T16:44:17Z</time>
      </trkpt>
      <trkpt lat="46.18267" lon="6.83196">
        <ele>1699</ele>
        <time>2010-01-03T16:44:23Z</time>
      </trkpt>
      <trkpt lat="46.18276" lon="6.83213">
        <ele>1699</ele>
        <time>2010-01-03T16:44:29Z</time>
      </trkpt>
      <trkpt lat="46.18283" lon="6.83225">
        <ele>1698</ele>
        <time>2010-01-03T16:44:33Z</time>
      </trkpt>
      <trkpt lat="46.18287" lon="6.8324">
        <ele>1698</ele>
        <time>2010-01-03T16:44:38Z</time>
      </trkpt>
      <trkpt lat="46.18294" lon="6.83258">
        <ele>1695</ele>
        <time>2010-01-03T16:44:43Z</time>
      </trkpt>
      <trkpt lat="46.18307" lon="6.83277">
        <ele>1693</ele>
        <time>2010-01-03T16:44:51Z</time>
      </trkpt>
      <trkpt lat="46.18312" lon="6.83292">
        <ele>1693</ele>
        <time>2010-01-03T16:44:55Z</time>
      </trkpt>
      <trkpt lat="46.18322" lon="6.83307">
        <ele>1691</ele>
        <time>2010-01-03T16:45:01Z</time>
      </trkpt>
      <trkpt lat="46.18334" lon="6.83324">
        <ele>1686</ele>
        <time>2010-01-03T16:45:08Z</time>
      </trkpt>
      <trkpt lat="46.18341" lon="6.83331">
        <ele>1686</ele>
        <time>2010-01-03T16:45:11Z</time>
      </trkpt>
      <trkpt lat="46.1834" lon="6.83348">
        <ele>1685</ele>
        <time>2010-01-03T16:45:16Z</time>
      </trkpt>
      <trkpt lat="46.18339" lon="6.83373">
        <ele>1684</ele>
        <time>2010-01-03T16:45:23Z</time>
      </trkpt>
      <trkpt lat="46.1834" lon="6.83392">
        <ele>1684</ele>
        <time>2010-01-03T16:45:28Z</time>
      </trkpt>
      <trkpt lat="46.18348" lon="6.83403">
        <ele>1684</ele>
        <time>2010-01-03T16:45:32Z</time>
      </trkpt>
      <trkpt lat="46.18357" lon="6.83417">
        <ele>1683</ele>
        <time>2010-01-03T16:45:38Z</time>
      </trkpt>
      <trkpt lat="46.18363" lon="6.83422">
        <ele>1683</ele>
        <time>2010-01-03T16:45:41Z</time>
      </trkpt>
      <trkpt lat="46.18369" lon="6.83426">
        <ele>1683</ele>
        <time>2010-01-03T16:45:43Z</time>
      </trkpt>
      <trkpt lat="46.18377" lon="6.83421">
        <ele>1683</ele>
        <time>2010-01-03T16:45:47Z</time>
      </trkpt>
      <trkpt lat="46.18383" lon="6.83418">
        <ele>1683</ele>
        <time>2010-01-03T16:45:49Z</time>
      </trkpt>
      <trkpt lat="46.18505" lon="6.83132">
        <ele>1727</ele>
        <time>2010-01-03T16:47:22Z</time>
      </trkpt>
      <trkpt lat="46.18619" lon="6.8287">
        <ele>1781</ele>
        <time>2010-01-03T16:48:48Z</time>
      </trkpt>
      <trkpt lat="46.18721" lon="6.82639">
        <ele>1844</ele>
        <time>2010-01-03T16:50:04Z</time>
      </trkpt>
      <trkpt lat="46.18819" lon="6.82427">
        <ele>1928</ele>
        <time>2010-01-03T16:51:14Z</time>
      </trkpt>
      <trkpt lat="46.19054" lon="6.81894">
        <ele>2128</ele>
        <time>2010-01-03T16:54:10Z</time>
      </trkpt>
      <trkpt lat="46.19195" lon="6.81587">
        <ele>2230</ele>
        <time>2010-01-03T16:55:52Z</time>
      </trkpt>
      <trkpt lat="46.19195" lon="6.81529">
        <ele>2237</ele>
        <time>2010-01-03T16:56:08Z</time>
      </trkpt>
      <trkpt lat="46.19157" lon="6.81476">
        <ele>2235</ele>
        <time>2010-01-03T16:56:29Z</time>
      </trkpt>
      <trkpt lat="46.19127" lon="6.81471">
        <ele>2230</ele>
        <time>2010-01-03T16:56:41Z</time>
      </trkpt>
      <trkpt lat="46.19093" lon="6.81477">
        <ele>2228</ele>
        <time>2010-01-03T16:56:55Z</time>
      </trkpt>
      <trkpt lat="46.19086" lon="6.81479">
        <ele>2229</ele>
        <time>2010-01-03T16:56:58Z</time>
      </trkpt>
      <trkpt lat="46.19067" lon="6.81498">
        <ele>2213</ele>
        <time>2010-01-03T16:57:07Z</time>
      </trkpt>
      <trkpt lat="46.19048" lon="6.81528">
        <ele>2217</ele>
        <time>2010-01-03T16:57:18Z</time>
      </trkpt>
      <trkpt lat="46.19037" lon="6.81554">
        <ele>2217</ele>
        <time>2010-01-03T16:57:27Z</time>
      </trkpt>
      <trkpt lat="46.19032" lon="6.81566">
        <ele>2216</ele>
        <time>2010-01-03T16:57:30Z</time>
      </trkpt>
      <trkpt lat="46.19029" lon="6.81572">
        <ele>2216</ele>
        <time>2010-01-03T16:57:33Z</time>
      </trkpt>
      <trkpt lat="46.18994" lon="6.8162">
        <ele>2199</ele>
        <time>2010-01-03T16:57:52Z</time>
      </trkpt>
      <trkpt lat="46.18994" lon="6.81621">
        <ele>2199</ele>
        <time>2010-01-03T16:57:52Z</time>
      </trkpt>
      <trkpt lat="46.18964" lon="6.81655">
        <ele>2196</ele>
        <time>2010-01-03T16:58:08Z</time>
      </trkpt>
      <trkpt lat="46.18932" lon="6.81678">
        <ele>2188</ele>
        <time>2010-01-03T16:58:22Z</time>
      </trkpt>
      <trkpt lat="46.18903" lon="6.81694">
        <ele>2174</ele>
        <time>2010-01-03T16:58:34Z</time>
      </trkpt>
      <trkpt lat="46.18887" lon="6.81698">
        <ele>2172</ele>
        <time>2010-01-03T16:58:41Z</time>
      </trkpt>
      <trkpt lat="46.18875" lon="6.81699">
        <ele>2171</ele>
        <time>2010-01-03T16:58:45Z</time>
      </trkpt>
      <trkpt lat="46.18875" lon="6.81699">
        <ele>2171</ele>
        <time>2010-01-03T16:58:46Z</time>
      </trkpt>
      <trkpt lat="46.18866" lon="6.81698">
        <ele>2170</ele>
        <time>2010-01-03T16:58:49Z</time>
      </trkpt>
      <trkpt lat="46.18856" lon="6.81701">
        <ele>2169</ele>
        <time>2010-01-03T16:58:53Z</time>
      </trkpt>
      <trkpt lat="46.18852" lon="6.8171">
        <ele>2169</ele>
        <time>2010-01-03T16:58:56Z</time>
      </trkpt>
      <trkpt lat="46.18853" lon="6.81715">
        <ele>2169</ele>
        <time>2010-01-03T16:58:58Z</time>
      </trkpt>
      <trkpt lat="46.18857" lon="6.81717">
        <ele>2169</ele>
        <time>2010-01-03T16:58:59Z</time>
      </trkpt>
      <trkpt lat="46.18866" lon="6.81716">
        <ele>2170</ele>
        <time>2010-01-03T16:59:03Z</time>
      </trkpt>
      <trkpt lat="46.18872" lon="6.81715">
        <ele>2170</ele>
        <time>2010-01-03T16:59:05Z</time>
      </trkpt>
      <trkpt lat="46.18882" lon="6.81712">
        <ele>2171</ele>
        <time>2010-01-03T16:59:09Z</time>
      </trkpt>
      <trkpt lat="46.18893" lon="6.81716">
        <ele>2171</ele>
        <time>2010-01-03T16:59:14Z</time>
      </trkpt>
      <trkpt lat="46.18903" lon="6.81721">
        <ele>2171</ele>
        <time>2010-01-03T16:59:18Z</time>
      </trkpt>
      <trkpt lat="46.18909" lon="6.81729">
        <ele>2170</ele>
        <time>2010-01-03T16:59:21Z</time>
      </trkpt>
      <trkpt lat="46.18914" lon="6.81735">
        <ele>2170</ele>
        <time>2010-01-03T16:59:24Z</time>
      </trkpt>
      <trkpt lat="46.18925" lon="6.81733">
        <ele>2179</ele>
        <time>2010-01-03T16:59:28Z</time>
      </trkpt>
      <trkpt lat="46.18935" lon="6.81733">
        <ele>2181</ele>
        <time>2010-01-03T16:59:33Z</time>
      </trkpt>
      <trkpt lat="46.18939" lon="6.81737">
        <ele>2181</ele>
        <time>2010-01-03T16:59:35Z</time>
      </trkpt>
      <trkpt lat="46.18945" lon="6.81746">
        <ele>2182</ele>
        <time>2010-01-03T16:59:38Z</time>
      </trkpt>
      <trkpt lat="46.18949" lon="6.81755">
        <ele>2161</ele>
        <time>2010-01-03T16:59:41Z</time>
      </trkpt>
      <trkpt lat="46.18953" lon="6.81765">
        <ele>2160</ele>
        <time>2010-01-03T16:59:44Z</time>
      </trkpt>
      <trkpt lat="46.1896" lon="6.8177">
        <ele>2160</ele>
        <time>2010-01-03T16:59:47Z</time>
      </trkpt>
      <trkpt lat="46.18968" lon="6.81767">
        <ele>2162</ele>
        <time>2010-01-03T16:59:50Z</time>
      </trkpt>
      <trkpt lat="46.18979" lon="6.81762">
        <ele>2167</ele>
        <time>2010-01-03T16:59:55Z</time>
      </trkpt>
      <trkpt lat="46.18989" lon="6.81764">
        <ele>2171</ele>
        <time>2010-01-03T16:59:59Z</time>
      </trkpt>
      <trkpt lat="46.18997" lon="6.81768">
        <ele>2170</ele>
        <time>2010-01-03T17:00:03Z</time>
      </trkpt>
      <trkpt lat="46.19002" lon="6.81775">
        <ele>2175</ele>
        <time>2010-01-03T17:00:05Z</time>
      </trkpt>
      <trkpt lat="46.19007" lon="6.8178">
        <ele>2173</ele>
        <time>2010-01-03T17:00:08Z</time>
      </trkpt>
      <trkpt lat="46.19011" lon="6.81792">
        <ele>2169</ele>
        <time>2010-01-03T17:00:12Z</time>
      </trkpt>
      <trkpt lat="46.19014" lon="6.81804">
        <ele>2165</ele>
        <time>2010-01-03T17:00:15Z</time>
      </trkpt>
      <trkpt lat="46.19018" lon="6.81813">
        <ele>2163</ele>
        <time>2010-01-03T17:00:18Z</time>
      </trkpt>
      <trkpt lat="46.19029" lon="6.81817">
        <ele>2163</ele>
        <time>2010-01-03T17:00:22Z</time>
      </trkpt>
      <trkpt lat="46.19037" lon="6.81807">
        <ele>2167</ele>
        <time>2010-01-03T17:00:26Z</time>
      </trkpt>
      <trkpt lat="46.19046" lon="6.81804">
        <ele>2168</ele>
        <time>2010-01-03T17:00:30Z</time>
      </trkpt>
      <trkpt lat="46.19056" lon="6.81812">
        <ele>2166</ele>
        <time>2010-01-03T17:00:35Z</time>
      </trkpt>
      <trkpt lat="46.19068" lon="6.81825">
        <ele>2163</ele>
        <time>2010-01-03T17:00:41Z</time>
      </trkpt>
      <trkpt lat="46.19073" lon="6.81835">
        <ele>2148</ele>
        <time>2010-01-03T17:00:44Z</time>
      </trkpt>
      <trkpt lat="46.19075" lon="6.81846">
        <ele>2145</ele>
        <time>2010-01-03T17:00:47Z</time>
      </trkpt>
      <trkpt lat="46.19079" lon="6.81857">
        <ele>2141</ele>
        <time>2010-01-03T17:00:51Z</time>
      </trkpt>
      <trkpt lat="46.19084" lon="6.81868">
        <ele>2139</ele>
        <time>2010-01-03T17:00:54Z</time>
      </trkpt>
      <trkpt lat="46.19092" lon="6.81881">
        <ele>2136</ele>
        <time>2010-01-03T17:00:59Z</time>
      </trkpt>
      <trkpt lat="46.19102" lon="6.81897">
        <ele>2132</ele>
        <time>2010-01-03T17:01:05Z</time>
      </trkpt>
      <trkpt lat="46.19113" lon="6.81909">
        <ele>2131</ele>
        <time>2010-01-03T17:01:11Z</time>
      </trkpt>
      <trkpt lat="46.19124" lon="6.8192">
        <ele>2117</ele>
        <time>2010-01-03T17:01:16Z</time>
      </trkpt>
      <trkpt lat="46.19135" lon="6.8193">
        <ele>2117</ele>
        <time>2010-01-03T17:01:21Z</time>
      </trkpt>
      <trkpt lat="46.19146" lon="6.81935">
        <ele>2117</ele>
        <time>2010-01-03T17:01:26Z</time>
      </trkpt>
      <trkpt lat="46.19151" lon="6.8194">
        <ele>2117</ele>
        <time>2010-01-03T17:01:28Z</time>
      </trkpt>
      <trkpt lat="46.19158" lon="6.81946">
        <ele>2117</ele>
        <time>2010-01-03T17:01:32Z</time>
      </trkpt>
      <trkpt lat="46.19164" lon="6.81966">
        <ele>2116</ele>
        <time>2010-01-03T17:01:38Z</time>
      </trkpt>
      <trkpt lat="46.19164" lon="6.8198">
        <ele>2115</ele>
        <time>2010-01-03T17:01:41Z</time>
      </trkpt>
      <trkpt lat="46.19163" lon="6.81988">
        <ele>2116</ele>
        <time>2010-01-03T17:01:44Z</time>
      </trkpt>
      <trkpt lat="46.19169" lon="6.81988">
        <ele>2110</ele>
        <time>2010-01-03T17:01:46Z</time>
      </trkpt>
      <trkpt lat="46.19179" lon="6.81977">
        <ele>2104</ele>
        <time>2010-01-03T17:01:51Z</time>
      </trkpt>
      <trkpt lat="46.19184" lon="6.81967">
        <ele>2102</ele>
        <time>2010-01-03T17:01:54Z</time>
      </trkpt>
      <trkpt lat="46.19192" lon="6.81955">
        <ele>2101</ele>
        <time>2010-01-03T17:01:59Z</time>
      </trkpt>
      <trkpt lat="46.19197" lon="6.81953">
        <ele>2099</ele>
        <time>2010-01-03T17:02:01Z</time>
      </trkpt>
      <trkpt lat="46.19194" lon="6.81969">
        <ele>2100</ele>
        <time>2010-01-03T17:02:05Z</time>
      </trkpt>
      <trkpt lat="46.19189" lon="6.81982">
        <ele>2102</ele>
        <time>2010-01-03T17:02:10Z</time>
      </trkpt>
      <trkpt lat="46.19181" lon="6.82009">
        <ele>2102</ele>
        <time>2010-01-03T17:02:18Z</time>
      </trkpt>
      <trkpt lat="46.19176" lon="6.82018">
        <ele>2100</ele>
        <time>2010-01-03T17:02:21Z</time>
      </trkpt>
      <trkpt lat="46.19172" lon="6.82024">
        <ele>2099</ele>
        <time>2010-01-03T17:02:23Z</time>
      </trkpt>
      <trkpt lat="46.19172" lon="6.82033">
        <ele>2096</ele>
        <time>2010-01-03T17:02:26Z</time>
      </trkpt>
      <trkpt lat="46.19178" lon="6.8207">
        <ele>2091</ele>
        <time>2010-01-03T17:02:36Z</time>
      </trkpt>
      <trkpt lat="46.1918" lon="6.82073">
        <ele>2091</ele>
        <time>2010-01-03T17:02:37Z</time>
      </trkpt>
      <trkpt lat="46.19181" lon="6.82074">
        <ele>2091</ele>
        <time>2010-01-03T17:02:38Z</time>
      </trkpt>
      <trkpt lat="46.19186" lon="6.82083">
        <ele>2090</ele>
        <time>2010-01-03T17:02:41Z</time>
      </trkpt>
      <trkpt lat="46.19187" lon="6.82092">
        <ele>2088</ele>
        <time>2010-01-03T17:02:43Z</time>
      </trkpt>
      <trkpt lat="46.19189" lon="6.82105">
        <ele>2086</ele>
        <time>2010-01-03T17:02:47Z</time>
      </trkpt>
      <trkpt lat="46.1919" lon="6.82115">
        <ele>2086</ele>
        <time>2010-01-03T17:02:50Z</time>
      </trkpt>
      <trkpt lat="46.19196" lon="6.82117">
        <ele>2085</ele>
        <time>2010-01-03T17:02:52Z</time>
      </trkpt>
      <trkpt lat="46.19201" lon="6.82118">
        <ele>2085</ele>
        <time>2010-01-03T17:02:55Z</time>
      </trkpt>
      <trkpt lat="46.19213" lon="6.82122">
        <ele>2084</ele>
        <time>2010-01-03T17:03:00Z</time>
      </trkpt>
      <trkpt lat="46.19219" lon="6.82126">
        <ele>2084</ele>
        <time>2010-01-03T17:03:02Z</time>
      </trkpt>
      <trkpt lat="46.19225" lon="6.82124">
        <ele>2084</ele>
        <time>2010-01-03T17:03:04Z</time>
      </trkpt>
      <trkpt lat="46.19228" lon="6.8212">
        <ele>2083</ele>
        <time>2010-01-03T17:03:06Z</time>
      </trkpt>
      <trkpt lat="46.19227" lon="6.8211">
        <ele>2082</ele>
        <time>2010-01-03T17:03:09Z</time>
      </trkpt>
      <trkpt lat="46.19225" lon="6.82091">
        <ele>2080</ele>
        <time>2010-01-03T17:03:14Z</time>
      </trkpt>
      <trkpt lat="46.19225" lon="6.82077">
        <ele>2080</ele>
        <time>2010-01-03T17:03:18Z</time>
      </trkpt>
      <trkpt lat="46.19225" lon="6.82076">
        <ele>2080</ele>
        <time>2010-01-03T17:03:19Z</time>
      </trkpt>
      <trkpt lat="46.19225" lon="6.82065">
        <ele>2081</ele>
        <time>2010-01-03T17:03:21Z</time>
      </trkpt>
      <trkpt lat="46.19227" lon="6.82057">
        <ele>2081</ele>
        <time>2010-01-03T17:03:24Z</time>
      </trkpt>
      <trkpt lat="46.19231" lon="6.82059">
        <ele>2080</ele>
        <time>2010-01-03T17:03:26Z</time>
      </trkpt>
      <trkpt lat="46.19236" lon="6.82068">
        <ele>2078</ele>
        <time>2010-01-03T17:03:29Z</time>
      </trkpt>
      <trkpt lat="46.19238" lon="6.82074">
        <ele>2076</ele>
        <time>2010-01-03T17:03:31Z</time>
      </trkpt>
      <trkpt lat="46.19239" lon="6.82074">
        <ele>2076</ele>
        <time>2010-01-03T17:03:31Z</time>
      </trkpt>
      <trkpt lat="46.1924" lon="6.82075">
        <ele>2075</ele>
        <time>2010-01-03T17:03:31Z</time>
      </trkpt>
      <trkpt lat="46.1924" lon="6.82076">
        <ele>2075</ele>
        <time>2010-01-03T17:03:32Z</time>
      </trkpt>
      <trkpt lat="46.19241" lon="6.82077">
        <ele>2074</ele>
        <time>2010-01-03T17:03:32Z</time>
      </trkpt>
      <trkpt lat="46.19242" lon="6.82078">
        <ele>2073</ele>
        <time>2010-01-03T17:03:33Z</time>
      </trkpt>
      <trkpt lat="46.19242" lon="6.82079">
        <ele>2073</ele>
        <time>2010-01-03T17:03:33Z</time>
      </trkpt>
      <trkpt lat="46.19243" lon="6.8208">
        <ele>2073</ele>
        <time>2010-01-03T17:03:33Z</time>
      </trkpt>
      <trkpt lat="46.19244" lon="6.82082">
        <ele>2072</ele>
        <time>2010-01-03T17:03:34Z</time>
      </trkpt>
      <trkpt lat="46.19245" lon="6.82083">
        <ele>2071</ele>
        <time>2010-01-03T17:03:34Z</time>
      </trkpt>
      <trkpt lat="46.19245" lon="6.82084">
        <ele>2071</ele>
        <time>2010-01-03T17:03:35Z</time>
      </trkpt>
      <trkpt lat="46.19246" lon="6.82085">
        <ele>2071</ele>
        <time>2010-01-03T17:03:35Z</time>
      </trkpt>
      <trkpt lat="46.19247" lon="6.82085">
        <ele>2070</ele>
        <time>2010-01-03T17:03:35Z</time>
      </trkpt>
      <trkpt lat="46.19247" lon="6.82085">
        <ele>2070</ele>
        <time>2010-01-03T17:03:36Z</time>
      </trkpt>
      <trkpt lat="46.1926" lon="6.821">
        <ele>2073</ele>
        <time>2010-01-03T17:03:42Z</time>
      </trkpt>
      <trkpt lat="46.19278" lon="6.82108">
        <ele>2075</ele>
        <time>2010-01-03T17:03:50Z</time>
      </trkpt>
      <trkpt lat="46.1929" lon="6.82106">
        <ele>2074</ele>
        <time>2010-01-03T17:03:55Z</time>
      </trkpt>
      <trkpt lat="46.19309" lon="6.82094">
        <ele>2070</ele>
        <time>2010-01-03T17:04:03Z</time>
      </trkpt>
      <trkpt lat="46.19329" lon="6.82093">
        <ele>2064</ele>
        <time>2010-01-03T17:04:11Z</time>
      </trkpt>
      <trkpt lat="46.19349" lon="6.82092">
        <ele>2063</ele>
        <time>2010-01-03T17:04:19Z</time>
      </trkpt>
      <trkpt lat="46.19373" lon="6.82079">
        <ele>2046</ele>
        <time>2010-01-03T17:04:29Z</time>
      </trkpt>
      <trkpt lat="46.19376" lon="6.82077">
        <ele>2046</ele>
        <time>2010-01-03T17:04:30Z</time>
      </trkpt>
      <trkpt lat="46.19376" lon="6.82076">
        <ele>2046</ele>
        <time>2010-01-03T17:04:31Z</time>
      </trkpt>
      <trkpt lat="46.19377" lon="6.82075">
        <ele>2046</ele>
        <time>2010-01-03T17:04:31Z</time>
      </trkpt>
      <trkpt lat="46.19378" lon="6.82075">
        <ele>2045</ele>
        <time>2010-01-03T17:04:31Z</time>
      </trkpt>
      <trkpt lat="46.19379" lon="6.82074">
        <ele>2045</ele>
        <time>2010-01-03T17:04:32Z</time>
      </trkpt>
      <trkpt lat="46.1938" lon="6.82074">
        <ele>2045</ele>
        <time>2010-01-03T17:04:32Z</time>
      </trkpt>
      <trkpt lat="46.1938" lon="6.82073">
        <ele>2045</ele>
        <time>2010-01-03T17:04:32Z</time>
      </trkpt>
      <trkpt lat="46.19381" lon="6.82073">
        <ele>2045</ele>
        <time>2010-01-03T17:04:33Z</time>
      </trkpt>
      <trkpt lat="46.19382" lon="6.82072">
        <ele>2045</ele>
        <time>2010-01-03T17:04:33Z</time>
      </trkpt>
      <trkpt lat="46.19383" lon="6.82071">
        <ele>2045</ele>
        <time>2010-01-03T17:04:34Z</time>
      </trkpt>
      <trkpt lat="46.19385" lon="6.8207">
        <ele>2045</ele>
        <time>2010-01-03T17:04:35Z</time>
      </trkpt>
      <trkpt lat="46.19387" lon="6.82069">
        <ele>2045</ele>
        <time>2010-01-03T17:04:36Z</time>
      </trkpt>
      <trkpt lat="46.19389" lon="6.82068">
        <ele>2044</ele>
        <time>2010-01-03T17:04:36Z</time>
      </trkpt>
      <trkpt lat="46.1939" lon="6.82068">
        <ele>2044</ele>
        <time>2010-01-03T17:04:37Z</time>
      </trkpt>
      <trkpt lat="46.19391" lon="6.82067">
        <ele>2044</ele>
        <time>2010-01-03T17:04:37Z</time>
      </trkpt>
      <trkpt lat="46.19393" lon="6.82067">
        <ele>2044</ele>
        <time>2010-01-03T17:04:38Z</time>
      </trkpt>
      <trkpt lat="46.19394" lon="6.82066">
        <ele>2044</ele>
        <time>2010-01-03T17:04:38Z</time>
      </trkpt>
      <trkpt lat="46.19394" lon="6.82066">
        <ele>2044</ele>
        <time>2010-01-03T17:04:38Z</time>
      </trkpt>
      <trkpt lat="46.19396" lon="6.82066">
        <ele>2044</ele>
        <time>2010-01-03T17:04:39Z</time>
      </trkpt>
      <trkpt lat="46.19398" lon="6.82065">
        <ele>2044</ele>
        <time>2010-01-03T17:04:40Z</time>
      </trkpt>
      <trkpt lat="46.19401" lon="6.82063">
        <ele>2044</ele>
        <time>2010-01-03T17:04:41Z</time>
      </trkpt>
      <trkpt lat="46.19401" lon="6.82063">
        <ele>2044</ele>
        <time>2010-01-03T17:04:41Z</time>
      </trkpt>
      <trkpt lat="46.19403" lon="6.82063">
        <ele>2044</ele>
        <time>2010-01-03T17:04:42Z</time>
      </trkpt>
      <trkpt lat="46.19404" lon="6.82062">
        <ele>2044</ele>
        <time>2010-01-03T17:04:43Z</time>
      </trkpt>
      <trkpt lat="46.19405" lon="6.82061">
        <ele>2044</ele>
        <time>2010-01-03T17:04:43Z</time>
      </trkpt>
      <trkpt lat="46.19406" lon="6.82061">
        <ele>2044</ele>
        <time>2010-01-03T17:04:44Z</time>
      </trkpt>
      <trkpt lat="46.19407" lon="6.82061">
        <ele>2044</ele>
        <time>2010-01-03T17:04:44Z</time>
      </trkpt>
      <trkpt lat="46.19409" lon="6.8206">
        <ele>2043</ele>
        <time>2010-01-03T17:04:45Z</time>
      </trkpt>
      <trkpt lat="46.19411" lon="6.82059">
        <ele>2043</ele>
        <time>2010-01-03T17:04:46Z</time>
      </trkpt>
      <trkpt lat="46.19413" lon="6.82058">
        <ele>2043</ele>
        <time>2010-01-03T17:04:46Z</time>
      </trkpt>
      <trkpt lat="46.19414" lon="6.82057">
        <ele>2043</ele>
        <time>2010-01-03T17:04:47Z</time>
      </trkpt>
      <trkpt lat="46.19415" lon="6.82057">
        <ele>2043</ele>
        <time>2010-01-03T17:04:47Z</time>
      </trkpt>
      <trkpt lat="46.19416" lon="6.82056">
        <ele>2043</ele>
        <time>2010-01-03T17:04:48Z</time>
      </trkpt>
      <trkpt lat="46.19417" lon="6.82056">
        <ele>2043</ele>
        <time>2010-01-03T17:04:48Z</time>
      </trkpt>
      <trkpt lat="46.19417" lon="6.82056">
        <ele>2037</ele>
        <time>2010-01-03T17:04:48Z</time>
      </trkpt>
      <trkpt lat="46.19419" lon="6.82055">
        <ele>2036</ele>
        <time>2010-01-03T17:04:49Z</time>
      </trkpt>
      <trkpt lat="46.1942" lon="6.82055">
        <ele>2036</ele>
        <time>2010-01-03T17:04:49Z</time>
      </trkpt>
      <trkpt lat="46.1942" lon="6.82055">
        <ele>2036</ele>
        <time>2010-01-03T17:04:50Z</time>
      </trkpt>
      <trkpt lat="46.19421" lon="6.82055">
        <ele>2036</ele>
        <time>2010-01-03T17:04:50Z</time>
      </trkpt>
      <trkpt lat="46.19423" lon="6.82055">
        <ele>2036</ele>
        <time>2010-01-03T17:04:51Z</time>
      </trkpt>
      <trkpt lat="46.19424" lon="6.82055">
        <ele>2036</ele>
        <time>2010-01-03T17:04:51Z</time>
      </trkpt>
      <trkpt lat="46.19426" lon="6.82056">
        <ele>2036</ele>
        <time>2010-01-03T17:04:52Z</time>
      </trkpt>
      <trkpt lat="46.19426" lon="6.82056">
        <ele>2036</ele>
        <time>2010-01-03T17:04:52Z</time>
      </trkpt>
      <trkpt lat="46.19428" lon="6.82056">
        <ele>2036</ele>
        <time>2010-01-03T17:04:53Z</time>
      </trkpt>
      <trkpt lat="46.1943" lon="6.82057">
        <ele>2036</ele>
        <time>2010-01-03T17:04:53Z</time>
      </trkpt>
      <trkpt lat="46.19431" lon="6.82057">
        <ele>2036</ele>
        <time>2010-01-03T17:04:54Z</time>
      </trkpt>
      <trkpt lat="46.19433" lon="6.82057">
        <ele>2036</ele>
        <time>2010-01-03T17:04:55Z</time>
      </trkpt>
      <trkpt lat="46.19434" lon="6.82057">
        <ele>2036</ele>
        <time>2010-01-03T17:04:55Z</time>
      </trkpt>
      <trkpt lat="46.19436" lon="6.82057">
        <ele>2036</ele>
        <time>2010-01-03T17:04:56Z</time>
      </trkpt>
      <trkpt lat="46.19438" lon="6.82058">
        <ele>2036</ele>
        <time>2010-01-03T17:04:56Z</time>
      </trkpt>
      <trkpt lat="46.19438" lon="6.82058">
        <ele>2036</ele>
        <time>2010-01-03T17:04:57Z</time>
      </trkpt>
      <trkpt lat="46.1944" lon="6.82058">
        <ele>2036</ele>
        <time>2010-01-03T17:04:57Z</time>
      </trkpt>
      <trkpt lat="46.19442" lon="6.82057">
        <ele>2035</ele>
        <time>2010-01-03T17:04:58Z</time>
      </trkpt>
      <trkpt lat="46.19443" lon="6.82058">
        <ele>2035</ele>
        <time>2010-01-03T17:04:59Z</time>
      </trkpt>
      <trkpt lat="46.19443" lon="6.82058">
        <ele>2035</ele>
        <time>2010-01-03T17:04:59Z</time>
      </trkpt>
      <trkpt lat="46.19451" lon="6.82055">
        <ele>2034</ele>
        <time>2010-01-03T17:05:02Z</time>
      </trkpt>
      <trkpt lat="46.19474" lon="6.82051">
        <ele>2032</ele>
        <time>2010-01-03T17:05:11Z</time>
      </trkpt>
      <trkpt lat="46.19489" lon="6.8204">
        <ele>2030</ele>
        <time>2010-01-03T17:05:18Z</time>
      </trkpt>
      <trkpt lat="46.19504" lon="6.82033">
        <ele>2027</ele>
        <time>2010-01-03T17:05:24Z</time>
      </trkpt>
      <trkpt lat="46.19544" lon="6.82008">
        <ele>2025</ele>
        <time>2010-01-03T17:05:42Z</time>
      </trkpt>
      <trkpt lat="46.19607" lon="6.81961">
        <ele>2012</ele>
        <time>2010-01-03T17:06:10Z</time>
      </trkpt>
      <trkpt lat="46.19639" lon="6.81918">
        <ele>2010</ele>
        <time>2010-01-03T17:06:27Z</time>
      </trkpt>
      <trkpt lat="46.19643" lon="6.81903">
        <ele>1998</ele>
        <time>2010-01-03T17:06:32Z</time>
      </trkpt>
      <trkpt lat="46.1965" lon="6.81883">
        <ele>1996</ele>
        <time>2010-01-03T17:06:38Z</time>
      </trkpt>
      <trkpt lat="46.19673" lon="6.81825">
        <ele>1998</ele>
        <time>2010-01-03T17:06:57Z</time>
      </trkpt>
      <trkpt lat="46.1969" lon="6.8179">
        <ele>2001</ele>
        <time>2010-01-03T17:07:08Z</time>
      </trkpt>
      <trkpt lat="46.19699" lon="6.81752">
        <ele>1998</ele>
        <time>2010-01-03T17:07:20Z</time>
      </trkpt>
      <trkpt lat="46.19699" lon="6.81748">
        <ele>1990</ele>
        <time>2010-01-03T17:07:21Z</time>
      </trkpt>
      <trkpt lat="46.19708" lon="6.81699">
        <ele>1989</ele>
        <time>2010-01-03T17:07:35Z</time>
      </trkpt>
      <trkpt lat="46.19708" lon="6.81697">
        <ele>1989</ele>
        <time>2010-01-03T17:07:35Z</time>
      </trkpt>
      <trkpt lat="46.19705" lon="6.81665">
        <ele>1982</ele>
        <time>2010-01-03T17:07:44Z</time>
      </trkpt>
      <trkpt lat="46.1971" lon="6.81606">
        <ele>1981</ele>
        <time>2010-01-03T17:08:01Z</time>
      </trkpt>
      <trkpt lat="46.19712" lon="6.81581">
        <ele>1978</ele>
        <time>2010-01-03T17:08:08Z</time>
      </trkpt>
      <trkpt lat="46.19716" lon="6.81557">
        <ele>1978</ele>
        <time>2010-01-03T17:08:14Z</time>
      </trkpt>
      <trkpt lat="46.19711" lon="6.81546">
        <ele>1978</ele>
        <time>2010-01-03T17:08:18Z</time>
      </trkpt>
      <trkpt lat="46.19702" lon="6.8154">
        <ele>1978</ele>
        <time>2010-01-03T17:08:22Z</time>
      </trkpt>
      <trkpt lat="46.19695" lon="6.81526">
        <ele>1978</ele>
        <time>2010-01-03T17:08:27Z</time>
      </trkpt>
      <trkpt lat="46.19695" lon="6.81509">
        <ele>1978</ele>
        <time>2010-01-03T17:08:31Z</time>
      </trkpt>
      <trkpt lat="46.19693" lon="6.81495">
        <ele>1979</ele>
        <time>2010-01-03T17:08:35Z</time>
      </trkpt>
      <trkpt lat="46.19691" lon="6.81486">
        <ele>1979</ele>
        <time>2010-01-03T17:08:38Z</time>
      </trkpt>
      <trkpt lat="46.19682" lon="6.81469">
        <ele>1979</ele>
        <time>2010-01-03T17:08:44Z</time>
      </trkpt>
      <trkpt lat="46.19679" lon="6.81463">
        <ele>1979</ele>
        <time>2010-01-03T17:08:46Z</time>
      </trkpt>
      <trkpt lat="46.19676" lon="6.81459">
        <ele>1979</ele>
        <time>2010-01-03T17:08:48Z</time>
      </trkpt>
      <trkpt lat="46.1968" lon="6.81442">
        <ele>1980</ele>
        <time>2010-01-03T17:08:53Z</time>
      </trkpt>
      <trkpt lat="46.19683" lon="6.8143">
        <ele>1980</ele>
        <time>2010-01-03T17:08:56Z</time>
      </trkpt>
      <trkpt lat="46.1968" lon="6.81401">
        <ele>1980</ele>
        <time>2010-01-03T17:09:04Z</time>
      </trkpt>
      <trkpt lat="46.19671" lon="6.81379">
        <ele>1980</ele>
        <time>2010-01-03T17:09:11Z</time>
      </trkpt>
      <trkpt lat="46.19662" lon="6.81351">
        <ele>1984</ele>
        <time>2010-01-03T17:09:20Z</time>
      </trkpt>
      <trkpt lat="46.19656" lon="6.81327">
        <ele>1985</ele>
        <time>2010-01-03T17:09:27Z</time>
      </trkpt>
      <trkpt lat="46.19654" lon="6.81314">
        <ele>1985</ele>
        <time>2010-01-03T17:09:31Z</time>
      </trkpt>
      <trkpt lat="46.19661" lon="6.81306">
        <ele>1985</ele>
        <time>2010-01-03T17:09:34Z</time>
      </trkpt>
      <trkpt lat="46.19668" lon="6.81301">
        <ele>1977</ele>
        <time>2010-01-03T17:09:38Z</time>
      </trkpt>
      <trkpt lat="46.19677" lon="6.8129">
        <ele>1976</ele>
        <time>2010-01-03T17:09:42Z</time>
      </trkpt>
      <trkpt lat="46.19691" lon="6.81294">
        <ele>1976</ele>
        <time>2010-01-03T17:09:48Z</time>
      </trkpt>
      <trkpt lat="46.19743" lon="6.81286">
        <ele>1974</ele>
        <time>2010-01-03T17:10:09Z</time>
      </trkpt>
      <trkpt lat="46.19753" lon="6.81283">
        <ele>1967</ele>
        <time>2010-01-03T17:10:13Z</time>
      </trkpt>
      <trkpt lat="46.19769" lon="6.81259">
        <ele>1967</ele>
        <time>2010-01-03T17:10:22Z</time>
      </trkpt>
      <trkpt lat="46.19783" lon="6.81241">
        <ele>1965</ele>
        <time>2010-01-03T17:10:30Z</time>
      </trkpt>
      <trkpt lat="46.19783" lon="6.8124">
        <ele>1965</ele>
        <time>2010-01-03T17:10:30Z</time>
      </trkpt>
      <trkpt lat="46.19784" lon="6.81237">
        <ele>1965</ele>
        <time>2010-01-03T17:10:31Z</time>
      </trkpt>
      <trkpt lat="46.19813" lon="6.81189">
        <ele>1964</ele>
        <time>2010-01-03T17:10:48Z</time>
      </trkpt>
      <trkpt lat="46.19818" lon="6.81176">
        <ele>1964</ele>
        <time>2010-01-03T17:10:52Z</time>
      </trkpt>
      <trkpt lat="46.1982" lon="6.81163">
        <ele>1965</ele>
        <time>2010-01-03T17:10:56Z</time>
      </trkpt>
      <trkpt lat="46.19808" lon="6.81147">
        <ele>1966</ele>
        <time>2010-01-03T17:11:03Z</time>
      </trkpt>
      <trkpt lat="46.19799" lon="6.81133">
        <ele>1967</ele>
        <time>2010-01-03T17:11:08Z</time>
      </trkpt>
      <trkpt lat="46.19798" lon="6.81131">
        <ele>1967</ele>
        <time>2010-01-03T17:11:09Z</time>
      </trkpt>
      <trkpt lat="46.19792" lon="6.81122">
        <ele>1967</ele>
        <time>2010-01-03T17:11:12Z</time>
      </trkpt>
      <trkpt lat="46.19789" lon="6.8111">
        <ele>1968</ele>
        <time>2010-01-03T17:11:16Z</time>
      </trkpt>
      <trkpt lat="46.19789" lon="6.81099">
        <ele>1968</ele>
        <time>2010-01-03T17:11:19Z</time>
      </trkpt>
      <trkpt lat="46.19782" lon="6.81088">
        <ele>1968</ele>
        <time>2010-01-03T17:11:23Z</time>
      </trkpt>
      <trkpt lat="46.19773" lon="6.81078">
        <ele>1969</ele>
        <time>2010-01-03T17:11:28Z</time>
      </trkpt>
      <trkpt lat="46.19774" lon="6.81059">
        <ele>1969</ele>
        <time>2010-01-03T17:11:33Z</time>
      </trkpt>
      <trkpt lat="46.19778" lon="6.81048">
        <ele>1969</ele>
        <time>2010-01-03T17:11:36Z</time>
      </trkpt>
      <trkpt lat="46.19781" lon="6.8103">
        <ele>1968</ele>
        <time>2010-01-03T17:11:41Z</time>
      </trkpt>
      <trkpt lat="46.19795" lon="6.81013">
        <ele>1968</ele>
        <time>2010-01-03T17:11:49Z</time>
      </trkpt>
      <trkpt lat="46.19803" lon="6.80997">
        <ele>1969</ele>
        <time>2010-01-03T17:11:54Z</time>
      </trkpt>
      <trkpt lat="46.19803" lon="6.80979">
        <ele>1970</ele>
        <time>2010-01-03T17:11:59Z</time>
      </trkpt>
      <trkpt lat="46.19802" lon="6.80977">
        <ele>1970</ele>
        <time>2010-01-03T17:12:00Z</time>
      </trkpt>
      <trkpt lat="46.19796" lon="6.80962">
        <ele>1971</ele>
        <time>2010-01-03T17:12:05Z</time>
      </trkpt>
      <trkpt lat="46.19792" lon="6.80944">
        <ele>1971</ele>
        <time>2010-01-03T17:12:10Z</time>
      </trkpt>
      <trkpt lat="46.19784" lon="6.8093">
        <ele>1972</ele>
        <time>2010-01-03T17:12:15Z</time>
      </trkpt>
      <trkpt lat="46.19779" lon="6.80916">
        <ele>1976</ele>
        <time>2010-01-03T17:12:19Z</time>
      </trkpt>
      <trkpt lat="46.19774" lon="6.80905">
        <ele>1976</ele>
        <time>2010-01-03T17:12:23Z</time>
      </trkpt>
      <trkpt lat="46.19778" lon="6.80898">
        <ele>1976</ele>
        <time>2010-01-03T17:12:25Z</time>
      </trkpt>
      <trkpt lat="46.19782" lon="6.80886">
        <ele>1976</ele>
        <time>2010-01-03T17:12:29Z</time>
      </trkpt>
      <trkpt lat="46.19784" lon="6.80878">
        <ele>1977</ele>
        <time>2010-01-03T17:12:31Z</time>
      </trkpt>
      <trkpt lat="46.19787" lon="6.80864">
        <ele>1977</ele>
        <time>2010-01-03T17:12:35Z</time>
      </trkpt>
      <trkpt lat="46.19784" lon="6.80857">
        <ele>1977</ele>
        <time>2010-01-03T17:12:38Z</time>
      </trkpt>
      <trkpt lat="46.19783" lon="6.80848">
        <ele>1978</ele>
        <time>2010-01-03T17:12:40Z</time>
      </trkpt>
      <trkpt lat="46.19777" lon="6.80843">
        <ele>1978</ele>
        <time>2010-01-03T17:12:43Z</time>
      </trkpt>
      <trkpt lat="46.19769" lon="6.8084">
        <ele>1978</ele>
        <time>2010-01-03T17:12:46Z</time>
      </trkpt>
      <trkpt lat="46.19762" lon="6.80835">
        <ele>1978</ele>
        <time>2010-01-03T17:12:49Z</time>
      </trkpt>
      <trkpt lat="46.19758" lon="6.80826">
        <ele>1981</ele>
        <time>2010-01-03T17:12:52Z</time>
      </trkpt>
      <trkpt lat="46.19758" lon="6.80825">
        <ele>1982</ele>
        <time>2010-01-03T17:12:52Z</time>
      </trkpt>
      <trkpt lat="46.19759" lon="6.8081">
        <ele>1984</ele>
        <time>2010-01-03T17:12:56Z</time>
      </trkpt>
      <trkpt lat="46.1976" lon="6.80798">
        <ele>1985</ele>
        <time>2010-01-03T17:13:00Z</time>
      </trkpt>
      <trkpt lat="46.19758" lon="6.80792">
        <ele>1986</ele>
        <time>2010-01-03T17:13:02Z</time>
      </trkpt>
      <trkpt lat="46.19756" lon="6.80786">
        <ele>1986</ele>
        <time>2010-01-03T17:13:04Z</time>
      </trkpt>
      <trkpt lat="46.19748" lon="6.80772">
        <ele>1988</ele>
        <time>2010-01-03T17:13:09Z</time>
      </trkpt>
      <trkpt lat="46.19745" lon="6.80765">
        <ele>1989</ele>
        <time>2010-01-03T17:13:11Z</time>
      </trkpt>
      <trkpt lat="46.19742" lon="6.80759">
        <ele>1989</ele>
        <time>2010-01-03T17:13:13Z</time>
      </trkpt>
      <trkpt lat="46.19738" lon="6.80743">
        <ele>1993</ele>
        <time>2010-01-03T17:13:18Z</time>
      </trkpt>
      <trkpt lat="46.19737" lon="6.80739">
        <ele>1993</ele>
        <time>2010-01-03T17:13:19Z</time>
      </trkpt>
      <trkpt lat="46.19735" lon="6.80735">
        <ele>1994</ele>
        <time>2010-01-03T17:13:20Z</time>
      </trkpt>
      <trkpt lat="46.19732" lon="6.80726">
        <ele>1995</ele>
        <time>2010-01-03T17:13:23Z</time>
      </trkpt>
      <trkpt lat="46.19727" lon="6.80719">
        <ele>1995</ele>
        <time>2010-01-03T17:13:26Z</time>
      </trkpt>
      <trkpt lat="46.19718" lon="6.80712">
        <ele>1996</ele>
        <time>2010-01-03T17:13:30Z</time>
      </trkpt>
      <trkpt lat="46.19712" lon="6.80706">
        <ele>1996</ele>
        <time>2010-01-03T17:13:33Z</time>
      </trkpt>
      <trkpt lat="46.19706" lon="6.80697">
        <ele>1996</ele>
        <time>2010-01-03T17:13:36Z</time>
      </trkpt>
      <trkpt lat="46.19702" lon="6.80692">
        <ele>1997</ele>
        <time>2010-01-03T17:13:38Z</time>
      </trkpt>
      <trkpt lat="46.19701" lon="6.80677">
        <ele>1997</ele>
        <time>2010-01-03T17:13:42Z</time>
      </trkpt>
      <trkpt lat="46.19702" lon="6.80662">
        <ele>2000</ele>
        <time>2010-01-03T17:13:46Z</time>
      </trkpt>
      <trkpt lat="46.19703" lon="6.8065">
        <ele>2000</ele>
        <time>2010-01-03T17:13:50Z</time>
      </trkpt>
      <trkpt lat="46.197" lon="6.80638">
        <ele>2000</ele>
        <time>2010-01-03T17:13:54Z</time>
      </trkpt>
      <trkpt lat="46.19697" lon="6.8063">
        <ele>2000</ele>
        <time>2010-01-03T17:13:56Z</time>
      </trkpt>
      <trkpt lat="46.19697" lon="6.80619">
        <ele>2000</ele>
        <time>2010-01-03T17:13:59Z</time>
      </trkpt>
      <trkpt lat="46.19696" lon="6.80616">
        <ele>2000</ele>
        <time>2010-01-03T17:14:00Z</time>
      </trkpt>
      <trkpt lat="46.19692" lon="6.80601">
        <ele>2000</ele>
        <time>2010-01-03T17:14:05Z</time>
      </trkpt>
      <trkpt lat="46.19693" lon="6.80579">
        <ele>1999</ele>
        <time>2010-01-03T17:14:11Z</time>
      </trkpt>
      <trkpt lat="46.1969" lon="6.80561">
        <ele>1999</ele>
        <time>2010-01-03T17:14:16Z</time>
      </trkpt>
      <trkpt lat="46.19692" lon="6.80541">
        <ele>1999</ele>
        <time>2010-01-03T17:14:21Z</time>
      </trkpt>
      <trkpt lat="46.19699" lon="6.8053">
        <ele>1999</ele>
        <time>2010-01-03T17:14:25Z</time>
      </trkpt>
      <trkpt lat="46.197" lon="6.80509">
        <ele>1999</ele>
        <time>2010-01-03T17:14:31Z</time>
      </trkpt>
      <trkpt lat="46.19702" lon="6.80493">
        <ele>1994</ele>
        <time>2010-01-03T17:14:36Z</time>
      </trkpt>
      <trkpt lat="46.19707" lon="6.80478">
        <ele>1994</ele>
        <time>2010-01-03T17:14:40Z</time>
      </trkpt>
      <trkpt lat="46.19718" lon="6.80464">
        <ele>1994</ele>
        <time>2010-01-03T17:14:46Z</time>
      </trkpt>
      <trkpt lat="46.19737" lon="6.80438">
        <ele>1994</ele>
        <time>2010-01-03T17:14:57Z</time>
      </trkpt>
      <trkpt lat="46.19754" lon="6.80415">
        <ele>1998</ele>
        <time>2010-01-03T17:15:06Z</time>
      </trkpt>
      <trkpt lat="46.1976" lon="6.80401">
        <ele>1998</ele>
        <time>2010-01-03T17:15:10Z</time>
      </trkpt>
      <trkpt lat="46.19771" lon="6.80374">
        <ele>1997</ele>
        <time>2010-01-03T17:15:19Z</time>
      </trkpt>
      <trkpt lat="46.19789" lon="6.80339">
        <ele>1997</ele>
        <time>2010-01-03T17:15:31Z</time>
      </trkpt>
      <trkpt lat="46.19801" lon="6.80314">
        <ele>1988</ele>
        <time>2010-01-03T17:15:40Z</time>
      </trkpt>
      <trkpt lat="46.19808" lon="6.80289">
        <ele>1986</ele>
        <time>2010-01-03T17:15:47Z</time>
      </trkpt>
      <trkpt lat="46.19809" lon="6.80273">
        <ele>1985</ele>
        <time>2010-01-03T17:15:52Z</time>
      </trkpt>
      <trkpt lat="46.19814" lon="6.8026">
        <ele>1985</ele>
        <time>2010-01-03T17:15:56Z</time>
      </trkpt>
      <trkpt lat="46.19819" lon="6.80249">
        <ele>1980</ele>
        <time>2010-01-03T17:15:59Z</time>
      </trkpt>
      <trkpt lat="46.19822" lon="6.80237">
        <ele>1979</ele>
        <time>2010-01-03T17:16:03Z</time>
      </trkpt>
      <trkpt lat="46.19824" lon="6.80218">
        <ele>1975</ele>
        <time>2010-01-03T17:16:08Z</time>
      </trkpt>
      <trkpt lat="46.19829" lon="6.80203">
        <ele>1974</ele>
        <time>2010-01-03T17:16:13Z</time>
      </trkpt>
      <trkpt lat="46.19829" lon="6.80186">
        <ele>1974</ele>
        <time>2010-01-03T17:16:17Z</time>
      </trkpt>
      <trkpt lat="46.19833" lon="6.80176">
        <ele>1975</ele>
        <time>2010-01-03T17:16:21Z</time>
      </trkpt>
      <trkpt lat="46.19834" lon="6.80162">
        <ele>1977</ele>
        <time>2010-01-03T17:16:25Z</time>
      </trkpt>
      <trkpt lat="46.19836" lon="6.80146">
        <ele>1978</ele>
        <time>2010-01-03T17:16:29Z</time>
      </trkpt>
      <trkpt lat="46.19844" lon="6.8012">
        <ele>1976</ele>
        <time>2010-01-03T17:16:37Z</time>
      </trkpt>
      <trkpt lat="46.1985" lon="6.80097">
        <ele>1974</ele>
        <time>2010-01-03T17:16:44Z</time>
      </trkpt>
      <trkpt lat="46.19857" lon="6.80081">
        <ele>1967</ele>
        <time>2010-01-03T17:16:49Z</time>
      </trkpt>
      <trkpt lat="46.19869" lon="6.80056">
        <ele>1967</ele>
        <time>2010-01-03T17:16:58Z</time>
      </trkpt>
      <trkpt lat="46.19881" lon="6.80042">
        <ele>1967</ele>
        <time>2010-01-03T17:17:04Z</time>
      </trkpt>
      <trkpt lat="46.1989" lon="6.80023">
        <ele>1966</ele>
        <time>2010-01-03T17:17:10Z</time>
      </trkpt>
      <trkpt lat="46.19901" lon="6.80005">
        <ele>1965</ele>
        <time>2010-01-03T17:17:17Z</time>
      </trkpt>
      <trkpt lat="46.1991" lon="6.79982">
        <ele>1958</ele>
        <time>2010-01-03T17:17:24Z</time>
      </trkpt>
      <trkpt lat="46.19919" lon="6.79955">
        <ele>1955</ele>
        <time>2010-01-03T17:17:32Z</time>
      </trkpt>
      <trkpt lat="46.19925" lon="6.79946">
        <ele>1954</ele>
        <time>2010-01-03T17:17:36Z</time>
      </trkpt>
      <trkpt lat="46.1993" lon="6.7994">
        <ele>1953</ele>
        <time>2010-01-03T17:17:38Z</time>
      </trkpt>
      <trkpt lat="46.1993" lon="6.79939">
        <ele>1953</ele>
        <time>2010-01-03T17:17:39Z</time>
      </trkpt>
      <trkpt lat="46.1994" lon="6.79933">
        <ele>1953</ele>
        <time>2010-01-03T17:17:43Z</time>
      </trkpt>
      <trkpt lat="46.19948" lon="6.79921">
        <ele>1952</ele>
        <time>2010-01-03T17:17:48Z</time>
      </trkpt>
      <trkpt lat="46.19958" lon="6.79915">
        <ele>1944</ele>
        <time>2010-01-03T17:17:52Z</time>
      </trkpt>
      <trkpt lat="46.19972" lon="6.79907">
        <ele>1944</ele>
        <time>2010-01-03T17:17:58Z</time>
      </trkpt>
      <trkpt lat="46.19983" lon="6.79899">
        <ele>1945</ele>
        <time>2010-01-03T17:18:03Z</time>
      </trkpt>
      <trkpt lat="46.20005" lon="6.79879">
        <ele>1947</ele>
        <time>2010-01-03T17:18:14Z</time>
      </trkpt>
      <trkpt lat="46.20017" lon="6.79863">
        <ele>1946</ele>
        <time>2010-01-03T17:18:20Z</time>
      </trkpt>
      <trkpt lat="46.20024" lon="6.79857">
        <ele>1946</ele>
        <time>2010-01-03T17:18:23Z</time>
      </trkpt>
      <trkpt lat="46.20028" lon="6.79853">
        <ele>1946</ele>
        <time>2010-01-03T17:18:25Z</time>
      </trkpt>
      <trkpt lat="46.20034" lon="6.79844">
        <ele>1946</ele>
        <time>2010-01-03T17:18:29Z</time>
      </trkpt>
      <trkpt lat="46.20034" lon="6.79841">
        <ele>1946</ele>
        <time>2010-01-03T17:18:29Z</time>
      </trkpt>
      <trkpt lat="46.20035" lon="6.79834">
        <ele>1945</ele>
        <time>2010-01-03T17:18:31Z</time>
      </trkpt>
      <trkpt lat="46.20038" lon="6.79823">
        <ele>1938</ele>
        <time>2010-01-03T17:18:35Z</time>
      </trkpt>
      <trkpt lat="46.2004" lon="6.79818">
        <ele>1938</ele>
        <time>2010-01-03T17:18:36Z</time>
      </trkpt>
      <trkpt lat="46.20044" lon="6.79809">
        <ele>1938</ele>
        <time>2010-01-03T17:18:39Z</time>
      </trkpt>
      <trkpt lat="46.20048" lon="6.798">
        <ele>1938</ele>
        <time>2010-01-03T17:18:42Z</time>
      </trkpt>
      <trkpt lat="46.2005" lon="6.79793">
        <ele>1937</ele>
        <time>2010-01-03T17:18:44Z</time>
      </trkpt>
      <trkpt lat="46.20051" lon="6.79789">
        <ele>1937</ele>
        <time>2010-01-03T17:18:46Z</time>
      </trkpt>
      <trkpt lat="46.20057" lon="6.79782">
        <ele>1937</ele>
        <time>2010-01-03T17:18:49Z</time>
      </trkpt>
      <trkpt lat="46.20059" lon="6.79777">
        <ele>1937</ele>
        <time>2010-01-03T17:18:50Z</time>
      </trkpt>
      <trkpt lat="46.2006" lon="6.79776">
        <ele>1937</ele>
        <time>2010-01-03T17:18:51Z</time>
      </trkpt>
      <trkpt lat="46.20061" lon="6.79775">
        <ele>1937</ele>
        <time>2010-01-03T17:18:51Z</time>
      </trkpt>
      <trkpt lat="46.20063" lon="6.79774">
        <ele>1937</ele>
        <time>2010-01-03T17:18:52Z</time>
      </trkpt>
      <trkpt lat="46.20063" lon="6.79773">
        <ele>1937</ele>
        <time>2010-01-03T17:18:52Z</time>
      </trkpt>
      <trkpt lat="46.20069" lon="6.79771">
        <ele>1937</ele>
        <time>2010-01-03T17:18:55Z</time>
      </trkpt>
      <trkpt lat="46.20083" lon="6.79769">
        <ele>1937</ele>
        <time>2010-01-03T17:19:00Z</time>
      </trkpt>
      <trkpt lat="46.20093" lon="6.79764">
        <ele>1945</ele>
        <time>2010-01-03T17:19:05Z</time>
      </trkpt>
      <trkpt lat="46.20101" lon="6.79755">
        <ele>1946</ele>
        <time>2010-01-03T17:19:08Z</time>
      </trkpt>
      <trkpt lat="46.20104" lon="6.7974">
        <ele>1935</ele>
        <time>2010-01-03T17:19:13Z</time>
      </trkpt>
      <trkpt lat="46.20104" lon="6.79728">
        <ele>1933</ele>
        <time>2010-01-03T17:19:16Z</time>
      </trkpt>
      <trkpt lat="46.20106" lon="6.79725">
        <ele>1933</ele>
        <time>2010-01-03T17:19:17Z</time>
      </trkpt>
      <trkpt lat="46.20108" lon="6.79723">
        <ele>1933</ele>
        <time>2010-01-03T17:19:19Z</time>
      </trkpt>
      <trkpt lat="46.20109" lon="6.79716">
        <ele>1932</ele>
        <time>2010-01-03T17:19:21Z</time>
      </trkpt>
      <trkpt lat="46.20102" lon="6.79712">
        <ele>1931</ele>
        <time>2010-01-03T17:19:23Z</time>
      </trkpt>
      <trkpt lat="46.20099" lon="6.79706">
        <ele>1930</ele>
        <time>2010-01-03T17:19:25Z</time>
      </trkpt>
      <trkpt lat="46.20091" lon="6.79699">
        <ele>1928</ele>
        <time>2010-01-03T17:19:29Z</time>
      </trkpt>
      <trkpt lat="46.20085" lon="6.79694">
        <ele>1926</ele>
        <time>2010-01-03T17:19:32Z</time>
      </trkpt>
      <trkpt lat="46.20083" lon="6.79687">
        <ele>1919</ele>
        <time>2010-01-03T17:19:34Z</time>
      </trkpt>
      <trkpt lat="46.20087" lon="6.79683">
        <ele>1922</ele>
        <time>2010-01-03T17:19:36Z</time>
      </trkpt>
      <trkpt lat="46.20091" lon="6.79684">
        <ele>1923</ele>
        <time>2010-01-03T17:19:38Z</time>
      </trkpt>
      <trkpt lat="46.20095" lon="6.79685">
        <ele>1924</ele>
        <time>2010-01-03T17:19:39Z</time>
      </trkpt>
      <trkpt lat="46.20096" lon="6.79686">
        <ele>1925</ele>
        <time>2010-01-03T17:19:40Z</time>
      </trkpt>
      <trkpt lat="46.20097" lon="6.79686">
        <ele>1925</ele>
        <time>2010-01-03T17:19:40Z</time>
      </trkpt>
      <trkpt lat="46.20098" lon="6.79686">
        <ele>1925</ele>
        <time>2010-01-03T17:19:41Z</time>
      </trkpt>
      <trkpt lat="46.20099" lon="6.79686">
        <ele>1925</ele>
        <time>2010-01-03T17:19:41Z</time>
      </trkpt>
      <trkpt lat="46.201" lon="6.79685">
        <ele>1925</ele>
        <time>2010-01-03T17:19:42Z</time>
      </trkpt>
      <trkpt lat="46.20101" lon="6.79685">
        <ele>1925</ele>
        <time>2010-01-03T17:19:42Z</time>
      </trkpt>
      <trkpt lat="46.20101" lon="6.79685">
        <ele>1925</ele>
        <time>2010-01-03T17:19:42Z</time>
      </trkpt>
      <trkpt lat="46.20103" lon="6.79683">
        <ele>1925</ele>
        <time>2010-01-03T17:19:43Z</time>
      </trkpt>
      <trkpt lat="46.20103" lon="6.79682">
        <ele>1925</ele>
        <time>2010-01-03T17:19:43Z</time>
      </trkpt>
      <trkpt lat="46.20103" lon="6.79681">
        <ele>1925</ele>
        <time>2010-01-03T17:19:43Z</time>
      </trkpt>
      <trkpt lat="46.20104" lon="6.7968">
        <ele>1925</ele>
        <time>2010-01-03T17:19:44Z</time>
      </trkpt>
      <trkpt lat="46.20105" lon="6.79679">
        <ele>1925</ele>
        <time>2010-01-03T17:19:44Z</time>
      </trkpt>
      <trkpt lat="46.20106" lon="6.79678">
        <ele>1925</ele>
        <time>2010-01-03T17:19:45Z</time>
      </trkpt>
      <trkpt lat="46.20106" lon="6.79677">
        <ele>1925</ele>
        <time>2010-01-03T17:19:45Z</time>
      </trkpt>
      <trkpt lat="46.20107" lon="6.79676">
        <ele>1925</ele>
        <time>2010-01-03T17:19:45Z</time>
      </trkpt>
      <trkpt lat="46.20107" lon="6.79676">
        <ele>1925</ele>
        <time>2010-01-03T17:19:46Z</time>
      </trkpt>
      <trkpt lat="46.20108" lon="6.79675">
        <ele>1925</ele>
        <time>2010-01-03T17:19:46Z</time>
      </trkpt>
      <trkpt lat="46.20109" lon="6.79674">
        <ele>1925</ele>
        <time>2010-01-03T17:19:46Z</time>
      </trkpt>
      <trkpt lat="46.20109" lon="6.79673">
        <ele>1925</ele>
        <time>2010-01-03T17:19:47Z</time>
      </trkpt>
      <trkpt lat="46.2011" lon="6.79671">
        <ele>1925</ele>
        <time>2010-01-03T17:19:47Z</time>
      </trkpt>
      <trkpt lat="46.2011" lon="6.7967">
        <ele>1925</ele>
        <time>2010-01-03T17:19:47Z</time>
      </trkpt>
      <trkpt lat="46.2011" lon="6.79669">
        <ele>1925</ele>
        <time>2010-01-03T17:19:48Z</time>
      </trkpt>
      <trkpt lat="46.2011" lon="6.79668">
        <ele>1925</ele>
        <time>2010-01-03T17:19:48Z</time>
      </trkpt>
      <trkpt lat="46.2011" lon="6.79667">
        <ele>1909</ele>
        <time>2010-01-03T17:19:48Z</time>
      </trkpt>
      <trkpt lat="46.20111" lon="6.79666">
        <ele>1909</ele>
        <time>2010-01-03T17:19:49Z</time>
      </trkpt>
      <trkpt lat="46.20111" lon="6.79664">
        <ele>1909</ele>
        <time>2010-01-03T17:19:49Z</time>
      </trkpt>
      <trkpt lat="46.20111" lon="6.79663">
        <ele>1909</ele>
        <time>2010-01-03T17:19:49Z</time>
      </trkpt>
      <trkpt lat="46.20111" lon="6.79662">
        <ele>1909</ele>
        <time>2010-01-03T17:19:50Z</time>
      </trkpt>
      <trkpt lat="46.20111" lon="6.79661">
        <ele>1909</ele>
        <time>2010-01-03T17:19:50Z</time>
      </trkpt>
      <trkpt lat="46.20111" lon="6.79659">
        <ele>1909</ele>
        <time>2010-01-03T17:19:51Z</time>
      </trkpt>
      <trkpt lat="46.20111" lon="6.79658">
        <ele>1909</ele>
        <time>2010-01-03T17:19:51Z</time>
      </trkpt>
      <trkpt lat="46.20111" lon="6.79657">
        <ele>1908</ele>
        <time>2010-01-03T17:19:51Z</time>
      </trkpt>
      <trkpt lat="46.20111" lon="6.79655">
        <ele>1908</ele>
        <time>2010-01-03T17:19:52Z</time>
      </trkpt>
      <trkpt lat="46.20111" lon="6.79655">
        <ele>1908</ele>
        <time>2010-01-03T17:19:52Z</time>
      </trkpt>
      <trkpt lat="46.20111" lon="6.79653">
        <ele>1908</ele>
        <time>2010-01-03T17:19:52Z</time>
      </trkpt>
      <trkpt lat="46.20111" lon="6.79651">
        <ele>1908</ele>
        <time>2010-01-03T17:19:53Z</time>
      </trkpt>
      <trkpt lat="46.20112" lon="6.7965">
        <ele>1908</ele>
        <time>2010-01-03T17:19:53Z</time>
      </trkpt>
      <trkpt lat="46.20112" lon="6.79649">
        <ele>1908</ele>
        <time>2010-01-03T17:19:54Z</time>
      </trkpt>
      <trkpt lat="46.20112" lon="6.79647">
        <ele>1907</ele>
        <time>2010-01-03T17:19:54Z</time>
      </trkpt>
      <trkpt lat="46.20112" lon="6.79646">
        <ele>1907</ele>
        <time>2010-01-03T17:19:54Z</time>
      </trkpt>
      <trkpt lat="46.20113" lon="6.79646">
        <ele>1907</ele>
        <time>2010-01-03T17:19:54Z</time>
      </trkpt>
      <trkpt lat="46.20114" lon="6.79644">
        <ele>1907</ele>
        <time>2010-01-03T17:19:55Z</time>
      </trkpt>
      <trkpt lat="46.20114" lon="6.79644">
        <ele>1907</ele>
        <time>2010-01-03T17:19:55Z</time>
      </trkpt>
      <trkpt lat="46.20115" lon="6.79642">
        <ele>1907</ele>
        <time>2010-01-03T17:19:56Z</time>
      </trkpt>
      <trkpt lat="46.20116" lon="6.79641">
        <ele>1907</ele>
        <time>2010-01-03T17:19:56Z</time>
      </trkpt>
      <trkpt lat="46.20116" lon="6.79641">
        <ele>1907</ele>
        <time>2010-01-03T17:19:56Z</time>
      </trkpt>
      <trkpt lat="46.20117" lon="6.7964">
        <ele>1907</ele>
        <time>2010-01-03T17:19:57Z</time>
      </trkpt>
      <trkpt lat="46.20118" lon="6.7964">
        <ele>1907</ele>
        <time>2010-01-03T17:19:57Z</time>
      </trkpt>
      <trkpt lat="46.20119" lon="6.79639">
        <ele>1907</ele>
        <time>2010-01-03T17:19:57Z</time>
      </trkpt>
      <trkpt lat="46.2012" lon="6.79638">
        <ele>1907</ele>
        <time>2010-01-03T17:19:58Z</time>
      </trkpt>
      <trkpt lat="46.20121" lon="6.79638">
        <ele>1907</ele>
        <time>2010-01-03T17:19:59Z</time>
      </trkpt>
      <trkpt lat="46.20122" lon="6.79637">
        <ele>1907</ele>
        <time>2010-01-03T17:19:59Z</time>
      </trkpt>
      <trkpt lat="46.20124" lon="6.79636">
        <ele>1907</ele>
        <time>2010-01-03T17:20:00Z</time>
      </trkpt>
      <trkpt lat="46.20124" lon="6.79635">
        <ele>1906</ele>
        <time>2010-01-03T17:20:00Z</time>
      </trkpt>
      <trkpt lat="46.20124" lon="6.79634">
        <ele>1906</ele>
        <time>2010-01-03T17:20:00Z</time>
      </trkpt>
      <trkpt lat="46.20124" lon="6.79633">
        <ele>1906</ele>
        <time>2010-01-03T17:20:01Z</time>
      </trkpt>
      <trkpt lat="46.20124" lon="6.79633">
        <ele>1906</ele>
        <time>2010-01-03T17:20:01Z</time>
      </trkpt>
      <trkpt lat="46.20127" lon="6.7963">
        <ele>1906</ele>
        <time>2010-01-03T17:20:02Z</time>
      </trkpt>
      <trkpt lat="46.2014" lon="6.79605">
        <ele>1904</ele>
        <time>2010-01-03T17:20:11Z</time>
      </trkpt>
      <trkpt lat="46.20142" lon="6.79585">
        <ele>1902</ele>
        <time>2010-01-03T17:20:16Z</time>
      </trkpt>
      <trkpt lat="46.20157" lon="6.79564">
        <ele>1891</ele>
        <time>2010-01-03T17:20:25Z</time>
      </trkpt>
      <trkpt lat="46.20165" lon="6.79537">
        <ele>1885</ele>
        <time>2010-01-03T17:20:33Z</time>
      </trkpt>
      <trkpt lat="46.20176" lon="6.79518">
        <ele>1897</ele>
        <time>2010-01-03T17:20:40Z</time>
      </trkpt>
      <trkpt lat="46.2019" lon="6.79501">
        <ele>1898</ele>
        <time>2010-01-03T17:20:47Z</time>
      </trkpt>
      <trkpt lat="46.20206" lon="6.79476">
        <ele>1884</ele>
        <time>2010-01-03T17:20:56Z</time>
      </trkpt>
      <trkpt lat="46.2022" lon="6.79462">
        <ele>1884</ele>
        <time>2010-01-03T17:21:03Z</time>
      </trkpt>
      <trkpt lat="46.20229" lon="6.7945">
        <ele>1883</ele>
        <time>2010-01-03T17:21:08Z</time>
      </trkpt>
      <trkpt lat="46.20242" lon="6.79437">
        <ele>1882</ele>
        <time>2010-01-03T17:21:15Z</time>
      </trkpt>
      <trkpt lat="46.2025" lon="6.79419">
        <ele>1882</ele>
        <time>2010-01-03T17:21:20Z</time>
      </trkpt>
      <trkpt lat="46.20264" lon="6.794">
        <ele>1880</ele>
        <time>2010-01-03T17:21:28Z</time>
      </trkpt>
      <trkpt lat="46.20281" lon="6.79379">
        <ele>1879</ele>
        <time>2010-01-03T17:21:37Z</time>
      </trkpt>
      <trkpt lat="46.20296" lon="6.79348">
        <ele>1876</ele>
        <time>2010-01-03T17:21:47Z</time>
      </trkpt>
      <trkpt lat="46.2031" lon="6.79325">
        <ele>1862</ele>
        <time>2010-01-03T17:21:56Z</time>
      </trkpt>
      <trkpt lat="46.20324" lon="6.79311">
        <ele>1862</ele>
        <time>2010-01-03T17:22:03Z</time>
      </trkpt>
      <trkpt lat="46.20334" lon="6.79285">
        <ele>1869</ele>
        <time>2010-01-03T17:22:11Z</time>
      </trkpt>
      <trkpt lat="46.20344" lon="6.79265">
        <ele>1864</ele>
        <time>2010-01-03T17:22:18Z</time>
      </trkpt>
      <trkpt lat="46.20353" lon="6.79261">
        <ele>1865</ele>
        <time>2010-01-03T17:22:22Z</time>
      </trkpt>
      <trkpt lat="46.2037" lon="6.79259">
        <ele>1868</ele>
        <time>2010-01-03T17:22:28Z</time>
      </trkpt>
      <trkpt lat="46.20391" lon="6.79254">
        <ele>1869</ele>
        <time>2010-01-03T17:22:37Z</time>
      </trkpt>
      <trkpt lat="46.20411" lon="6.79247">
        <ele>1861</ele>
        <time>2010-01-03T17:22:45Z</time>
      </trkpt>
      <trkpt lat="46.2043" lon="6.79231">
        <ele>1859</ele>
        <time>2010-01-03T17:22:54Z</time>
      </trkpt>
      <trkpt lat="46.20444" lon="6.79225">
        <ele>1857</ele>
        <time>2010-01-03T17:23:00Z</time>
      </trkpt>
      <trkpt lat="46.20457" lon="6.79222">
        <ele>1857</ele>
        <time>2010-01-03T17:23:05Z</time>
      </trkpt>
      <trkpt lat="46.20475" lon="6.79205">
        <ele>1855</ele>
        <time>2010-01-03T17:23:14Z</time>
      </trkpt>
      <trkpt lat="46.20496" lon="6.79196">
        <ele>1852</ele>
        <time>2010-01-03T17:23:22Z</time>
      </trkpt>
      <trkpt lat="46.2051" lon="6.79189">
        <ele>1853</ele>
        <time>2010-01-03T17:23:28Z</time>
      </trkpt>
      <trkpt lat="46.20522" lon="6.79181">
        <ele>1853</ele>
        <time>2010-01-03T17:23:34Z</time>
      </trkpt>
      <trkpt lat="46.2054" lon="6.79155">
        <ele>1841</ele>
        <time>2010-01-03T17:23:44Z</time>
      </trkpt>
      <trkpt lat="46.20556" lon="6.79139">
        <ele>1841</ele>
        <time>2010-01-03T17:23:52Z</time>
      </trkpt>
      <trkpt lat="46.20573" lon="6.7913">
        <ele>1841</ele>
        <time>2010-01-03T17:23:59Z</time>
      </trkpt>
      <trkpt lat="46.20586" lon="6.79114">
        <ele>1842</ele>
        <time>2010-01-03T17:24:06Z</time>
      </trkpt>
      <trkpt lat="46.20599" lon="6.79099">
        <ele>1841</ele>
        <time>2010-01-03T17:24:13Z</time>
      </trkpt>
      <trkpt lat="46.20608" lon="6.79081">
        <ele>1833</ele>
        <time>2010-01-03T17:24:19Z</time>
      </trkpt>
      <trkpt lat="46.20617" lon="6.79064">
        <ele>1832</ele>
        <time>2010-01-03T17:24:25Z</time>
      </trkpt>
      <trkpt lat="46.20636" lon="6.7904">
        <ele>1831</ele>
        <time>2010-01-03T17:24:34Z</time>
      </trkpt>
      <trkpt lat="46.20652" lon="6.79025">
        <ele>1830</ele>
        <time>2010-01-03T17:24:42Z</time>
      </trkpt>
      <trkpt lat="46.20662" lon="6.79019">
        <ele>1829</ele>
        <time>2010-01-03T17:24:47Z</time>
      </trkpt>
      <trkpt lat="46.20666" lon="6.79012">
        <ele>1828</ele>
        <time>2010-01-03T17:24:49Z</time>
      </trkpt>
      <trkpt lat="46.20669" lon="6.78996">
        <ele>1826</ele>
        <time>2010-01-03T17:24:54Z</time>
      </trkpt>
      <trkpt lat="46.20681" lon="6.78983">
        <ele>1825</ele>
        <time>2010-01-03T17:25:00Z</time>
      </trkpt>
      <trkpt lat="46.20688" lon="6.78977">
        <ele>1824</ele>
        <time>2010-01-03T17:25:03Z</time>
      </trkpt>
      <trkpt lat="46.20695" lon="6.78973">
        <ele>1824</ele>
        <time>2010-01-03T17:25:06Z</time>
      </trkpt>
      <trkpt lat="46.20698" lon="6.78963">
        <ele>1823</ele>
        <time>2010-01-03T17:25:09Z</time>
      </trkpt>
      <trkpt lat="46.20699" lon="6.7895">
        <ele>1822</ele>
        <time>2010-01-03T17:25:13Z</time>
      </trkpt>
      <trkpt lat="46.20703" lon="6.78928">
        <ele>1820</ele>
        <time>2010-01-03T17:25:19Z</time>
      </trkpt>
      <trkpt lat="46.20709" lon="6.78913">
        <ele>1812</ele>
        <time>2010-01-03T17:25:24Z</time>
      </trkpt>
      <trkpt lat="46.20715" lon="6.78896">
        <ele>1812</ele>
        <time>2010-01-03T17:25:29Z</time>
      </trkpt>
      <trkpt lat="46.20716" lon="6.78895">
        <ele>1812</ele>
        <time>2010-01-03T17:25:30Z</time>
      </trkpt>
      <trkpt lat="46.20724" lon="6.78874">
        <ele>1811</ele>
        <time>2010-01-03T17:25:36Z</time>
      </trkpt>
      <trkpt lat="46.20733" lon="6.78857">
        <ele>1810</ele>
        <time>2010-01-03T17:25:42Z</time>
      </trkpt>
      <trkpt lat="46.20741" lon="6.78848">
        <ele>1810</ele>
        <time>2010-01-03T17:25:46Z</time>
      </trkpt>
      <trkpt lat="46.20745" lon="6.78844">
        <ele>1809</ele>
        <time>2010-01-03T17:25:48Z</time>
      </trkpt>
      <trkpt lat="46.20743" lon="6.78837">
        <ele>1809</ele>
        <time>2010-01-03T17:25:50Z</time>
      </trkpt>
      <trkpt lat="46.20746" lon="6.78826">
        <ele>1806</ele>
        <time>2010-01-03T17:25:53Z</time>
      </trkpt>
      <trkpt lat="46.20749" lon="6.78818">
        <ele>1804</ele>
        <time>2010-01-03T17:25:56Z</time>
      </trkpt>
      <trkpt lat="46.20752" lon="6.78799">
        <ele>1805</ele>
        <time>2010-01-03T17:26:01Z</time>
      </trkpt>
      <trkpt lat="46.20752" lon="6.78791">
        <ele>1804</ele>
        <time>2010-01-03T17:26:04Z</time>
      </trkpt>
      <trkpt lat="46.20755" lon="6.7878">
        <ele>1803</ele>
        <time>2010-01-03T17:26:07Z</time>
      </trkpt>
      <trkpt lat="46.20767" lon="6.7877">
        <ele>1802</ele>
        <time>2010-01-03T17:26:13Z</time>
      </trkpt>
      <trkpt lat="46.20779" lon="6.78762">
        <ele>1802</ele>
        <time>2010-01-03T17:26:18Z</time>
      </trkpt>
      <trkpt lat="46.20787" lon="6.78756">
        <ele>1802</ele>
        <time>2010-01-03T17:26:22Z</time>
      </trkpt>
      <trkpt lat="46.20808" lon="6.78749">
        <ele>1788</ele>
        <time>2010-01-03T17:26:30Z</time>
      </trkpt>
      <trkpt lat="46.20845" lon="6.78729">
        <ele>1787</ele>
        <time>2010-01-03T17:26:46Z</time>
      </trkpt>
      <trkpt lat="46.20881" lon="6.7871">
        <ele>1783</ele>
        <time>2010-01-03T17:27:01Z</time>
      </trkpt>
      <trkpt lat="46.20896" lon="6.78697">
        <ele>1780</ele>
        <time>2010-01-03T17:27:09Z</time>
      </trkpt>
      <trkpt lat="46.20908" lon="6.78689">
        <ele>1778</ele>
        <time>2010-01-03T17:27:14Z</time>
      </trkpt>
      <trkpt lat="46.20915" lon="6.78685">
        <ele>1777</ele>
        <time>2010-01-03T17:27:17Z</time>
      </trkpt>
      <trkpt lat="46.20927" lon="6.78678">
        <ele>1780</ele>
        <time>2010-01-03T17:27:22Z</time>
      </trkpt>
      <trkpt lat="46.20937" lon="6.78683">
        <ele>1783</ele>
        <time>2010-01-03T17:27:26Z</time>
      </trkpt>
      <trkpt lat="46.2094" lon="6.78672">
        <ele>1782</ele>
        <time>2010-01-03T17:27:29Z</time>
      </trkpt>
      <trkpt lat="46.20943" lon="6.78645">
        <ele>1768</ele>
        <time>2010-01-03T17:27:37Z</time>
      </trkpt>
      <trkpt lat="46.20958" lon="6.78605">
        <ele>1764</ele>
        <time>2010-01-03T17:27:50Z</time>
      </trkpt>
      <trkpt lat="46.20976" lon="6.78587">
        <ele>1764</ele>
        <time>2010-01-03T17:27:58Z</time>
      </trkpt>
      <trkpt lat="46.21" lon="6.78577">
        <ele>1759</ele>
        <time>2010-01-03T17:28:08Z</time>
      </trkpt>
      <trkpt lat="46.2102" lon="6.7857">
        <ele>1763</ele>
        <time>2010-01-03T17:28:17Z</time>
      </trkpt>
      <trkpt lat="46.21051" lon="6.78511">
        <ele>1760</ele>
        <time>2010-01-03T17:28:37Z</time>
      </trkpt>
      <trkpt lat="46.21065" lon="6.78485">
        <ele>1747</ele>
        <time>2010-01-03T17:28:46Z</time>
      </trkpt>
      <trkpt lat="46.21074" lon="6.78453">
        <ele>1742</ele>
        <time>2010-01-03T17:28:56Z</time>
      </trkpt>
      <trkpt lat="46.21079" lon="6.78413">
        <ele>1741</ele>
        <time>2010-01-03T17:29:07Z</time>
      </trkpt>
      <trkpt lat="46.21086" lon="6.78387">
        <ele>1750</ele>
        <time>2010-01-03T17:29:15Z</time>
      </trkpt>
      <trkpt lat="46.21093" lon="6.78365">
        <ele>1747</ele>
        <time>2010-01-03T17:29:21Z</time>
      </trkpt>
      <trkpt lat="46.21096" lon="6.78346">
        <ele>1741</ele>
        <time>2010-01-03T17:29:27Z</time>
      </trkpt>
      <trkpt lat="46.21096" lon="6.78328">
        <ele>1729</ele>
        <time>2010-01-03T17:29:32Z</time>
      </trkpt>
      <trkpt lat="46.211" lon="6.78306">
        <ele>1730</ele>
        <time>2010-01-03T17:29:38Z</time>
      </trkpt>
      <trkpt lat="46.21119" lon="6.78251">
        <ele>1727</ele>
        <time>2010-01-03T17:29:55Z</time>
      </trkpt>
      <trkpt lat="46.2112" lon="6.78222">
        <ele>1714</ele>
        <time>2010-01-03T17:30:03Z</time>
      </trkpt>
      <trkpt lat="46.21121" lon="6.78216">
        <ele>1714</ele>
        <time>2010-01-03T17:30:05Z</time>
      </trkpt>
      <trkpt lat="46.21127" lon="6.78181">
        <ele>1712</ele>
        <time>2010-01-03T17:30:15Z</time>
      </trkpt>
      <trkpt lat="46.21134" lon="6.78148">
        <ele>1700</ele>
        <time>2010-01-03T17:30:24Z</time>
      </trkpt>
      <trkpt lat="46.21142" lon="6.78115">
        <ele>1697</ele>
        <time>2010-01-03T17:30:34Z</time>
      </trkpt>
      <trkpt lat="46.21145" lon="6.78085">
        <ele>1697</ele>
        <time>2010-01-03T17:30:43Z</time>
      </trkpt>
      <trkpt lat="46.21157" lon="6.7804">
        <ele>1679</ele>
        <time>2010-01-03T17:30:56Z</time>
      </trkpt>
      <trkpt lat="46.21167" lon="6.77993">
        <ele>1681</ele>
        <time>2010-01-03T17:31:10Z</time>
      </trkpt>
      <trkpt lat="46.21181" lon="6.77948">
        <ele>1676</ele>
        <time>2010-01-03T17:31:23Z</time>
      </trkpt>
      <trkpt lat="46.2119" lon="6.77907">
        <ele>1657</ele>
        <time>2010-01-03T17:31:35Z</time>
      </trkpt>
      <trkpt lat="46.21219" lon="6.77866">
        <ele>1656</ele>
        <time>2010-01-03T17:31:51Z</time>
      </trkpt>
      <trkpt lat="46.21248" lon="6.77816">
        <ele>1643</ele>
        <time>2010-01-03T17:32:10Z</time>
      </trkpt>
      <trkpt lat="46.21269" lon="6.77771">
        <ele>1649</ele>
        <time>2010-01-03T17:32:25Z</time>
      </trkpt>
      <trkpt lat="46.21273" lon="6.77754">
        <ele>1647</ele>
        <time>2010-01-03T17:32:30Z</time>
      </trkpt>
      <trkpt lat="46.21264" lon="6.77752">
        <ele>1642</ele>
        <time>2010-01-03T17:32:33Z</time>
      </trkpt>
      <trkpt lat="46.21248" lon="6.77752">
        <ele>1630</ele>
        <time>2010-01-03T17:32:40Z</time>
      </trkpt>
      <trkpt lat="46.21195" lon="6.77781">
        <ele>1627</ele>
        <time>2010-01-03T17:33:02Z</time>
      </trkpt>
      <trkpt lat="46.21121" lon="6.77828">
        <ele>1606</ele>
        <time>2010-01-03T17:33:35Z</time>
      </trkpt>
      <trkpt lat="46.21095" lon="6.77851">
        <ele>1613</ele>
        <time>2010-01-03T17:33:47Z</time>
      </trkpt>
      <trkpt lat="46.2107" lon="6.77863">
        <ele>1598</ele>
        <time>2010-01-03T17:33:57Z</time>
      </trkpt>
      <trkpt lat="46.21069" lon="6.77863">
        <ele>1598</ele>
        <time>2010-01-03T17:33:58Z</time>
      </trkpt>
      <trkpt lat="46.2105" lon="6.77872">
        <ele>1596</ele>
        <time>2010-01-03T17:34:06Z</time>
      </trkpt>
      <trkpt lat="46.21049" lon="6.77871">
        <ele>1596</ele>
        <time>2010-01-03T17:34:06Z</time>
      </trkpt>
      <trkpt lat="46.21047" lon="6.77873">
        <ele>1596</ele>
        <time>2010-01-03T17:34:07Z</time>
      </trkpt>
      <trkpt lat="46.2102" lon="6.77907">
        <ele>1592</ele>
        <time>2010-01-03T17:34:21Z</time>
      </trkpt>
      <trkpt lat="46.20941" lon="6.77998">
        <ele>1573</ele>
        <time>2010-01-03T17:35:02Z</time>
      </trkpt>
      <trkpt lat="46.20893" lon="6.78029">
        <ele>1562</ele>
        <time>2010-01-03T17:35:23Z</time>
      </trkpt>
      <trkpt lat="46.20835" lon="6.78053">
        <ele>1557</ele>
        <time>2010-01-03T17:35:47Z</time>
      </trkpt>
      <trkpt lat="46.20815" lon="6.78054">
        <ele>1544</ele>
        <time>2010-01-03T17:35:55Z</time>
      </trkpt>
      <trkpt lat="46.20785" lon="6.78052">
        <ele>1541</ele>
        <time>2010-01-03T17:36:07Z</time>
      </trkpt>
      <trkpt lat="46.20766" lon="6.78049">
        <ele>1539</ele>
        <time>2010-01-03T17:36:15Z</time>
      </trkpt>
      <trkpt lat="46.20747" lon="6.7805">
        <ele>1530</ele>
        <time>2010-01-03T17:36:22Z</time>
      </trkpt>
      <trkpt lat="46.20731" lon="6.78045">
        <ele>1529</ele>
        <time>2010-01-03T17:36:29Z</time>
      </trkpt>
      <trkpt lat="46.20728" lon="6.78011">
        <ele>1526</ele>
        <time>2010-01-03T17:36:38Z</time>
      </trkpt>
      <trkpt lat="46.20733" lon="6.77979">
        <ele>1519</ele>
        <time>2010-01-03T17:36:48Z</time>
      </trkpt>
      <trkpt lat="46.20742" lon="6.77935">
        <ele>1515</ele>
        <time>2010-01-03T17:37:00Z</time>
      </trkpt>
      <trkpt lat="46.20748" lon="6.77902">
        <ele>1511</ele>
        <time>2010-01-03T17:37:10Z</time>
      </trkpt>
      <trkpt lat="46.20746" lon="6.77887">
        <ele>1509</ele>
        <time>2010-01-03T17:37:14Z</time>
      </trkpt>
      <trkpt lat="46.20734" lon="6.77833">
        <ele>1504</ele>
        <time>2010-01-03T17:37:30Z</time>
      </trkpt>
      <trkpt lat="46.20714" lon="6.77791">
        <ele>1502</ele>
        <time>2010-01-03T17:37:44Z</time>
      </trkpt>
      <trkpt lat="46.20702" lon="6.77785">
        <ele>1502</ele>
        <time>2010-01-03T17:37:49Z</time>
      </trkpt>
      <trkpt lat="46.207" lon="6.77778">
        <ele>1502</ele>
        <time>2010-01-03T17:37:51Z</time>
      </trkpt>
      <trkpt lat="46.20698" lon="6.77764">
        <ele>1501</ele>
        <time>2010-01-03T17:37:55Z</time>
      </trkpt>
      <trkpt lat="46.207" lon="6.77745">
        <ele>1500</ele>
        <time>2010-01-03T17:38:00Z</time>
      </trkpt>
      <trkpt lat="46.20711" lon="6.7773">
        <ele>1500</ele>
        <time>2010-01-03T17:38:06Z</time>
      </trkpt>
      <trkpt lat="46.20717" lon="6.7772">
        <ele>1500</ele>
        <time>2010-01-03T17:38:10Z</time>
      </trkpt>
      <trkpt lat="46.20719" lon="6.77716">
        <ele>1500</ele>
        <time>2010-01-03T17:38:11Z</time>
      </trkpt>
      <trkpt lat="46.20722" lon="6.77713">
        <ele>1500</ele>
        <time>2010-01-03T17:38:13Z</time>
      </trkpt>
      <trkpt lat="46.20726" lon="6.7771">
        <ele>1500</ele>
        <time>2010-01-03T17:38:15Z</time>
      </trkpt>
      <trkpt lat="46.20734" lon="6.77705">
        <ele>1500</ele>
        <time>2010-01-03T17:38:18Z</time>
      </trkpt>
      <trkpt lat="46.20747" lon="6.77693">
        <ele>1500</ele>
        <time>2010-01-03T17:38:24Z</time>
      </trkpt>
      <trkpt lat="46.20761" lon="6.77679">
        <ele>1502</ele>
        <time>2010-01-03T17:38:31Z</time>
      </trkpt>
      <trkpt lat="46.20777" lon="6.77638">
        <ele>1502</ele>
        <time>2010-01-03T17:38:44Z</time>
      </trkpt>
      <trkpt lat="46.20798" lon="6.77616">
        <ele>1503</ele>
        <time>2010-01-03T17:38:54Z</time>
      </trkpt>
      <trkpt lat="46.20819" lon="6.776">
        <ele>1502</ele>
        <time>2010-01-03T17:39:04Z</time>
      </trkpt>
      <trkpt lat="46.20827" lon="6.77594">
        <ele>1501</ele>
        <time>2010-01-03T17:39:08Z</time>
      </trkpt>
      <trkpt lat="46.20843" lon="6.77591">
        <ele>1504</ele>
        <time>2010-01-03T17:39:14Z</time>
      </trkpt>
      <trkpt lat="46.20849" lon="6.77577">
        <ele>1503</ele>
        <time>2010-01-03T17:39:18Z</time>
      </trkpt>
      <trkpt lat="46.20855" lon="6.77566">
        <ele>1504</ele>
        <time>2010-01-03T17:39:22Z</time>
      </trkpt>
      <trkpt lat="46.20861" lon="6.77559">
        <ele>1505</ele>
        <time>2010-01-03T17:39:25Z</time>
      </trkpt>
      <trkpt lat="46.20868" lon="6.77553">
        <ele>1505</ele>
        <time>2010-01-03T17:39:28Z</time>
      </trkpt>
      <trkpt lat="46.20873" lon="6.77548">
        <ele>1505</ele>
        <time>2010-01-03T17:39:31Z</time>
      </trkpt>
      <trkpt lat="46.2088" lon="6.77546">
        <ele>1505</ele>
        <time>2010-01-03T17:39:34Z</time>
      </trkpt>
      <trkpt lat="46.20887" lon="6.77541">
        <ele>1505</ele>
        <time>2010-01-03T17:39:37Z</time>
      </trkpt>
      <trkpt lat="46.20894" lon="6.77534">
        <ele>1504</ele>
        <time>2010-01-03T17:39:40Z</time>
      </trkpt>
      <trkpt lat="46.20904" lon="6.77524">
        <ele>1503</ele>
        <time>2010-01-03T17:39:45Z</time>
      </trkpt>
      <trkpt lat="46.2091" lon="6.77509">
        <ele>1500</ele>
        <time>2010-01-03T17:39:50Z</time>
      </trkpt>
      <trkpt lat="46.20912" lon="6.77496">
        <ele>1498</ele>
        <time>2010-01-03T17:39:54Z</time>
      </trkpt>
      <trkpt lat="46.20913" lon="6.77485">
        <ele>1500</ele>
        <time>2010-01-03T17:39:57Z</time>
      </trkpt>
      <trkpt lat="46.20918" lon="6.77483">
        <ele>1494</ele>
        <time>2010-01-03T17:39:59Z</time>
      </trkpt>
      <trkpt lat="46.20925" lon="6.7748">
        <ele>1494</ele>
        <time>2010-01-03T17:40:02Z</time>
      </trkpt>
      <trkpt lat="46.20932" lon="6.77472">
        <ele>1493</ele>
        <time>2010-01-03T17:40:05Z</time>
      </trkpt>
      <trkpt lat="46.20938" lon="6.77463">
        <ele>1492</ele>
        <time>2010-01-03T17:40:09Z</time>
      </trkpt>
      <trkpt lat="46.20951" lon="6.77441">
        <ele>1490</ele>
        <time>2010-01-03T17:40:17Z</time>
      </trkpt>
      <trkpt lat="46.20961" lon="6.77435">
        <ele>1489</ele>
        <time>2010-01-03T17:40:21Z</time>
      </trkpt>
      <trkpt lat="46.20976" lon="6.77441">
        <ele>1488</ele>
        <time>2010-01-03T17:40:27Z</time>
      </trkpt>
      <trkpt lat="46.20989" lon="6.77442">
        <ele>1488</ele>
        <time>2010-01-03T17:40:32Z</time>
      </trkpt>
      <trkpt lat="46.20996" lon="6.77442">
        <ele>1487</ele>
        <time>2010-01-03T17:40:35Z</time>
      </trkpt>
      <trkpt lat="46.21004" lon="6.77441">
        <ele>1488</ele>
        <time>2010-01-03T17:40:38Z</time>
      </trkpt>
      <trkpt lat="46.21013" lon="6.77438">
        <ele>1488</ele>
        <time>2010-01-03T17:40:42Z</time>
      </trkpt>
      <trkpt lat="46.21023" lon="6.77437">
        <ele>1489</ele>
        <time>2010-01-03T17:40:46Z</time>
      </trkpt>
      <trkpt lat="46.21033" lon="6.77434">
        <ele>1490</ele>
        <time>2010-01-03T17:40:50Z</time>
      </trkpt>
      <trkpt lat="46.21042" lon="6.77432">
        <ele>1490</ele>
        <time>2010-01-03T17:40:54Z</time>
      </trkpt>
      <trkpt lat="46.21048" lon="6.77425">
        <ele>1489</ele>
        <time>2010-01-03T17:40:57Z</time>
      </trkpt>
      <trkpt lat="46.21059" lon="6.77419">
        <ele>1487</ele>
        <time>2010-01-03T17:41:02Z</time>
      </trkpt>
      <trkpt lat="46.2107" lon="6.77416">
        <ele>1477</ele>
        <time>2010-01-03T17:41:06Z</time>
      </trkpt>
      <trkpt lat="46.21078" lon="6.77411">
        <ele>1477</ele>
        <time>2010-01-03T17:41:10Z</time>
      </trkpt>
      <trkpt lat="46.21086" lon="6.77405">
        <ele>1480</ele>
        <time>2010-01-03T17:41:13Z</time>
      </trkpt>
      <trkpt lat="46.21092" lon="6.77396">
        <ele>1481</ele>
        <time>2010-01-03T17:41:17Z</time>
      </trkpt>
      <trkpt lat="46.21099" lon="6.77384">
        <ele>1481</ele>
        <time>2010-01-03T17:41:21Z</time>
      </trkpt>
      <trkpt lat="46.211" lon="6.77368">
        <ele>1479</ele>
        <time>2010-01-03T17:41:25Z</time>
      </trkpt>
      <trkpt lat="46.21093" lon="6.77355">
        <ele>1476</ele>
        <time>2010-01-03T17:41:30Z</time>
      </trkpt>
      <trkpt lat="46.2108" lon="6.77354">
        <ele>1471</ele>
        <time>2010-01-03T17:41:35Z</time>
      </trkpt>
      <trkpt lat="46.21062" lon="6.77355">
        <ele>1471</ele>
        <time>2010-01-03T17:41:42Z</time>
      </trkpt>
      <trkpt lat="46.21046" lon="6.77357">
        <ele>1471</ele>
        <time>2010-01-03T17:41:49Z</time>
      </trkpt>
      <trkpt lat="46.21035" lon="6.77356">
        <ele>1471</ele>
        <time>2010-01-03T17:41:53Z</time>
      </trkpt>
      <trkpt lat="46.21021" lon="6.77347">
        <ele>1470</ele>
        <time>2010-01-03T17:41:59Z</time>
      </trkpt>
      <trkpt lat="46.21007" lon="6.77332">
        <ele>1464</ele>
        <time>2010-01-03T17:42:06Z</time>
      </trkpt>
      <trkpt lat="46.21008" lon="6.77316">
        <ele>1462</ele>
        <time>2010-01-03T17:42:11Z</time>
      </trkpt>
      <trkpt lat="46.2102" lon="6.7731">
        <ele>1461</ele>
        <time>2010-01-03T17:42:16Z</time>
      </trkpt>
      <trkpt lat="46.21021" lon="6.77308">
        <ele>1461</ele>
        <time>2010-01-03T17:42:16Z</time>
      </trkpt>
      <trkpt lat="46.21033" lon="6.77302">
        <ele>1460</ele>
        <time>2010-01-03T17:42:21Z</time>
      </trkpt>
      <trkpt lat="46.21046" lon="6.77296">
        <ele>1460</ele>
        <time>2010-01-03T17:42:27Z</time>
      </trkpt>
      <trkpt lat="46.21063" lon="6.77295">
        <ele>1460</ele>
        <time>2010-01-03T17:42:34Z</time>
      </trkpt>
      <trkpt lat="46.21077" lon="6.77299">
        <ele>1461</ele>
        <time>2010-01-03T17:42:39Z</time>
      </trkpt>
      <trkpt lat="46.21089" lon="6.77301">
        <ele>1463</ele>
        <time>2010-01-03T17:42:44Z</time>
      </trkpt>
      <trkpt lat="46.21106" lon="6.7729">
        <ele>1462</ele>
        <time>2010-01-03T17:42:52Z</time>
      </trkpt>
      <trkpt lat="46.21122" lon="6.77269">
        <ele>1460</ele>
        <time>2010-01-03T17:43:00Z</time>
      </trkpt>
      <trkpt lat="46.2114" lon="6.77251">
        <ele>1458</ele>
        <time>2010-01-03T17:43:09Z</time>
      </trkpt>
      <trkpt lat="46.21157" lon="6.7723">
        <ele>1444</ele>
        <time>2010-01-03T17:43:18Z</time>
      </trkpt>
      <trkpt lat="46.2117" lon="6.77214">
        <ele>1444</ele>
        <time>2010-01-03T17:43:25Z</time>
      </trkpt>
      <trkpt lat="46.21185" lon="6.77202">
        <ele>1441</ele>
        <time>2010-01-03T17:43:31Z</time>
      </trkpt>
      <trkpt lat="46.21199" lon="6.77192">
        <ele>1441</ele>
        <time>2010-01-03T17:43:38Z</time>
      </trkpt>
      <trkpt lat="46.21215" lon="6.77182">
        <ele>1440</ele>
        <time>2010-01-03T17:43:45Z</time>
      </trkpt>
      <trkpt lat="46.21232" lon="6.77175">
        <ele>1439</ele>
        <time>2010-01-03T17:43:52Z</time>
      </trkpt>
      <trkpt lat="46.21253" lon="6.77165">
        <ele>1431</ele>
        <time>2010-01-03T17:44:01Z</time>
      </trkpt>
      <trkpt lat="46.21274" lon="6.77163">
        <ele>1424</ele>
        <time>2010-01-03T17:44:09Z</time>
      </trkpt>
      <trkpt lat="46.21291" lon="6.77161">
        <ele>1424</ele>
        <time>2010-01-03T17:44:16Z</time>
      </trkpt>
      <trkpt lat="46.21313" lon="6.77154">
        <ele>1426</ele>
        <time>2010-01-03T17:44:25Z</time>
      </trkpt>
      <trkpt lat="46.21327" lon="6.77151">
        <ele>1428</ele>
        <time>2010-01-03T17:44:31Z</time>
      </trkpt>
      <trkpt lat="46.21353" lon="6.77143">
        <ele>1430</ele>
        <time>2010-01-03T17:44:41Z</time>
      </trkpt>
      <trkpt lat="46.21372" lon="6.77125">
        <ele>1427</ele>
        <time>2010-01-03T17:44:50Z</time>
      </trkpt>
      <trkpt lat="46.21383" lon="6.77111">
        <ele>1424</ele>
        <time>2010-01-03T17:44:56Z</time>
      </trkpt>
      <trkpt lat="46.21418" lon="6.77088">
        <ele>1421</ele>
        <time>2010-01-03T17:45:12Z</time>
      </trkpt>
      <trkpt lat="46.21436" lon="6.77076">
        <ele>1418</ele>
        <time>2010-01-03T17:45:19Z</time>
      </trkpt>
      <trkpt lat="46.21448" lon="6.77066">
        <ele>1421</ele>
        <time>2010-01-03T17:45:25Z</time>
      </trkpt>
      <trkpt lat="46.21453" lon="6.77059">
        <ele>1422</ele>
        <time>2010-01-03T17:45:28Z</time>
      </trkpt>
      <trkpt lat="46.21453" lon="6.77059">
        <ele>1422</ele>
        <time>2010-01-03T17:45:28Z</time>
      </trkpt>
      <trkpt lat="46.21453" lon="6.77053">
        <ele>1421</ele>
        <time>2010-01-03T17:45:30Z</time>
      </trkpt>
      <trkpt lat="46.21454" lon="6.77044">
        <ele>1420</ele>
        <time>2010-01-03T17:45:32Z</time>
      </trkpt>
      <trkpt lat="46.21453" lon="6.77043">
        <ele>1420</ele>
        <time>2010-01-03T17:45:33Z</time>
      </trkpt>
      <trkpt lat="46.21455" lon="6.7705">
        <ele>1421</ele>
        <time>2010-01-03T17:45:35Z</time>
      </trkpt>
      <trkpt lat="46.21454" lon="6.77042">
        <ele>1420</ele>
        <time>2010-01-03T17:45:37Z</time>
      </trkpt>
      <trkpt lat="46.21442" lon="6.77042">
        <ele>1417</ele>
        <time>2010-01-03T17:45:42Z</time>
      </trkpt>
      <trkpt lat="46.21406" lon="6.77066">
        <ele>1402</ele>
        <time>2010-01-03T17:45:58Z</time>
      </trkpt>
      <trkpt lat="46.21375" lon="6.77072">
        <ele>1397</ele>
        <time>2010-01-03T17:46:10Z</time>
      </trkpt>
      <trkpt lat="46.21351" lon="6.77088">
        <ele>1412</ele>
        <time>2010-01-03T17:46:21Z</time>
      </trkpt>
      <trkpt lat="46.21337" lon="6.77102">
        <ele>1413</ele>
        <time>2010-01-03T17:46:28Z</time>
      </trkpt>
      <trkpt lat="46.2133" lon="6.77102">
        <ele>1408</ele>
        <time>2010-01-03T17:46:30Z</time>
      </trkpt>
      <trkpt lat="46.21332" lon="6.77086">
        <ele>1400</ele>
        <time>2010-01-03T17:46:35Z</time>
      </trkpt>
      <trkpt lat="46.21353" lon="6.77058">
        <ele>1394</ele>
        <time>2010-01-03T17:46:47Z</time>
      </trkpt>
      <trkpt lat="46.21377" lon="6.77042">
        <ele>1393</ele>
        <time>2010-01-03T17:46:57Z</time>
      </trkpt>
      <trkpt lat="46.21395" lon="6.77028">
        <ele>1393</ele>
        <time>2010-01-03T17:47:05Z</time>
      </trkpt>
      <trkpt lat="46.21407" lon="6.77008">
        <ele>1391</ele>
        <time>2010-01-03T17:47:12Z</time>
      </trkpt>
      <trkpt lat="46.21414" lon="6.7699">
        <ele>1384</ele>
        <time>2010-01-03T17:47:18Z</time>
      </trkpt>
      <trkpt lat="46.21418" lon="6.76969">
        <ele>1394</ele>
        <time>2010-01-03T17:47:24Z</time>
      </trkpt>
      <trkpt lat="46.21424" lon="6.76959">
        <ele>1394</ele>
        <time>2010-01-03T17:47:28Z</time>
      </trkpt>
      <trkpt lat="46.21434" lon="6.7694">
        <ele>1392</ele>
        <time>2010-01-03T17:47:35Z</time>
      </trkpt>
      <trkpt lat="46.21444" lon="6.76922">
        <ele>1393</ele>
        <time>2010-01-03T17:47:41Z</time>
      </trkpt>
      <trkpt lat="46.21451" lon="6.76908">
        <ele>1384</ele>
        <time>2010-01-03T17:47:46Z</time>
      </trkpt>
      <trkpt lat="46.2146" lon="6.76899">
        <ele>1386</ele>
        <time>2010-01-03T17:47:50Z</time>
      </trkpt>
      <trkpt lat="46.21463" lon="6.769">
        <ele>1388</ele>
        <time>2010-01-03T17:47:51Z</time>
      </trkpt>
      <trkpt lat="46.21472" lon="6.76888">
        <ele>1389</ele>
        <time>2010-01-03T17:47:56Z</time>
      </trkpt>
      <trkpt lat="46.21469" lon="6.76875">
        <ele>1385</ele>
        <time>2010-01-03T17:48:00Z</time>
      </trkpt>
      <trkpt lat="46.21457" lon="6.76877">
        <ele>1382</ele>
        <time>2010-01-03T17:48:05Z</time>
      </trkpt>
      <trkpt lat="46.21437" lon="6.76892">
        <ele>1379</ele>
        <time>2010-01-03T17:48:14Z</time>
      </trkpt>
      <trkpt lat="46.21404" lon="6.76917">
        <ele>1372</ele>
        <time>2010-01-03T17:48:29Z</time>
      </trkpt>
      <trkpt lat="46.21388" lon="6.76933">
        <ele>1372</ele>
        <time>2010-01-03T17:48:37Z</time>
      </trkpt>
      <trkpt lat="46.21387" lon="6.76933">
        <ele>1372</ele>
        <time>2010-01-03T17:48:37Z</time>
      </trkpt>
      <trkpt lat="46.2137" lon="6.76945">
        <ele>1372</ele>
        <time>2010-01-03T17:48:45Z</time>
      </trkpt>
      <trkpt lat="46.21366" lon="6.76939">
        <ele>1371</ele>
        <time>2010-01-03T17:48:47Z</time>
      </trkpt>
      <trkpt lat="46.21375" lon="6.7692">
        <ele>1370</ele>
        <time>2010-01-03T17:48:53Z</time>
      </trkpt>
      <trkpt lat="46.21389" lon="6.76899">
        <ele>1359</ele>
        <time>2010-01-03T17:49:01Z</time>
      </trkpt>
      <trkpt lat="46.214" lon="6.76876">
        <ele>1356</ele>
        <time>2010-01-03T17:49:09Z</time>
      </trkpt>
      <trkpt lat="46.21414" lon="6.76834">
        <ele>1349</ele>
        <time>2010-01-03T17:49:22Z</time>
      </trkpt>
      <trkpt lat="46.21434" lon="6.76791">
        <ele>1357</ele>
        <time>2010-01-03T17:49:36Z</time>
      </trkpt>
      <trkpt lat="46.21442" lon="6.7677">
        <ele>1356</ele>
        <time>2010-01-03T17:49:43Z</time>
      </trkpt>
      <trkpt lat="46.21462" lon="6.76752">
        <ele>1359</ele>
        <time>2010-01-03T17:49:53Z</time>
      </trkpt>
      <trkpt lat="46.21477" lon="6.76742">
        <ele>1355</ele>
        <time>2010-01-03T17:49:59Z</time>
      </trkpt>
      <trkpt lat="46.21494" lon="6.76729">
        <ele>1356</ele>
        <time>2010-01-03T17:50:07Z</time>
      </trkpt>
      <trkpt lat="46.21495" lon="6.76713">
        <ele>1353</ele>
        <time>2010-01-03T17:50:11Z</time>
      </trkpt>
      <trkpt lat="46.21495" lon="6.76712">
        <ele>1353</ele>
        <time>2010-01-03T17:50:12Z</time>
      </trkpt>
      <trkpt lat="46.21482" lon="6.76702">
        <ele>1352</ele>
        <time>2010-01-03T17:50:17Z</time>
      </trkpt>
      <trkpt lat="46.21459" lon="6.76684">
        <ele>1348</ele>
        <time>2010-01-03T17:50:28Z</time>
      </trkpt>
      <trkpt lat="46.21455" lon="6.76671">
        <ele>1347</ele>
        <time>2010-01-03T17:50:32Z</time>
      </trkpt>
      <trkpt lat="46.21458" lon="6.76654">
        <ele>1336</ele>
        <time>2010-01-03T17:50:37Z</time>
      </trkpt>
      <trkpt lat="46.21467" lon="6.76622">
        <ele>1333</ele>
        <time>2010-01-03T17:50:46Z</time>
      </trkpt>
      <trkpt lat="46.2148" lon="6.76593">
        <ele>1330</ele>
        <time>2010-01-03T17:50:56Z</time>
      </trkpt>
      <trkpt lat="46.21468" lon="6.76571">
        <ele>1312</ele>
        <time>2010-01-03T17:51:03Z</time>
      </trkpt>
      <trkpt lat="46.21466" lon="6.76557">
        <ele>1309</ele>
        <time>2010-01-03T17:51:08Z</time>
      </trkpt>
      <trkpt lat="46.21473" lon="6.76552">
        <ele>1310</ele>
        <time>2010-01-03T17:51:11Z</time>
      </trkpt>
      <trkpt lat="46.21487" lon="6.76566">
        <ele>1316</ele>
        <time>2010-01-03T17:51:18Z</time>
      </trkpt>
      <trkpt lat="46.21502" lon="6.76584">
        <ele>1333</ele>
        <time>2010-01-03T17:51:25Z</time>
      </trkpt>
      <trkpt lat="46.21512" lon="6.76589">
        <ele>1346</ele>
        <time>2010-01-03T17:51:30Z</time>
      </trkpt>
      <trkpt lat="46.21515" lon="6.76574">
        <ele>1339</ele>
        <time>2010-01-03T17:51:34Z</time>
      </trkpt>
      <trkpt lat="46.21508" lon="6.76558">
        <ele>1339</ele>
        <time>2010-01-03T17:51:39Z</time>
      </trkpt>
      <trkpt lat="46.21507" lon="6.76557">
        <ele>1339</ele>
        <time>2010-01-03T17:51:40Z</time>
      </trkpt>
      <trkpt lat="46.21499" lon="6.76544">
        <ele>1312</ele>
        <time>2010-01-03T17:51:44Z</time>
      </trkpt>
      <trkpt lat="46.2151" lon="6.76528">
        <ele>1335</ele>
        <time>2010-01-03T17:51:51Z</time>
      </trkpt>
      <trkpt lat="46.21528" lon="6.76517">
        <ele>1339</ele>
        <time>2010-01-03T17:51:59Z</time>
      </trkpt>
      <trkpt lat="46.21545" lon="6.76478">
        <ele>1326</ele>
        <time>2010-01-03T17:52:11Z</time>
      </trkpt>
      <trkpt lat="46.21565" lon="6.76429">
        <ele>1325</ele>
        <time>2010-01-03T17:52:27Z</time>
      </trkpt>
      <trkpt lat="46.21576" lon="6.76389">
        <ele>1305</ele>
        <time>2010-01-03T17:52:39Z</time>
      </trkpt>
      <trkpt lat="46.21583" lon="6.76357">
        <ele>1299</ele>
        <time>2010-01-03T17:52:48Z</time>
      </trkpt>
      <trkpt lat="46.21575" lon="6.76353">
        <ele>1298</ele>
        <time>2010-01-03T17:52:52Z</time>
      </trkpt>
      <trkpt lat="46.21564" lon="6.76373">
        <ele>1298</ele>
        <time>2010-01-03T17:52:59Z</time>
      </trkpt>
      <trkpt lat="46.21556" lon="6.76401">
        <ele>1302</ele>
        <time>2010-01-03T17:53:07Z</time>
      </trkpt>
      <trkpt lat="46.2153" lon="6.76435">
        <ele>1313</ele>
        <time>2010-01-03T17:53:21Z</time>
      </trkpt>
      <trkpt lat="46.21514" lon="6.76452">
        <ele>1312</ele>
        <time>2010-01-03T17:53:29Z</time>
      </trkpt>
      <trkpt lat="46.21482" lon="6.76466">
        <ele>1284</ele>
        <time>2010-01-03T17:53:43Z</time>
      </trkpt>
      <trkpt lat="46.2145" lon="6.76492">
        <ele>1280</ele>
        <time>2010-01-03T17:53:57Z</time>
      </trkpt>
      <trkpt lat="46.21414" lon="6.76524">
        <ele>1276</ele>
        <time>2010-01-03T17:54:14Z</time>
      </trkpt>
      <trkpt lat="46.2141" lon="6.7653">
        <ele>1277</ele>
        <time>2010-01-03T17:54:16Z</time>
      </trkpt>
      <trkpt lat="46.21387" lon="6.7656">
        <ele>1282</ele>
        <time>2010-01-03T17:54:29Z</time>
      </trkpt>
      <trkpt lat="46.21365" lon="6.76579">
        <ele>1278</ele>
        <time>2010-01-03T17:54:39Z</time>
      </trkpt>
      <trkpt lat="46.21349" lon="6.76585">
        <ele>1285</ele>
        <time>2010-01-03T17:54:46Z</time>
      </trkpt>
      <trkpt lat="46.21357" lon="6.76561">
        <ele>1275</ele>
        <time>2010-01-03T17:54:53Z</time>
      </trkpt>
      <trkpt lat="46.21405" lon="6.76505">
        <ele>1273</ele>
        <time>2010-01-03T17:55:18Z</time>
      </trkpt>
      <trkpt lat="46.21407" lon="6.76503">
        <ele>1273</ele>
        <time>2010-01-03T17:55:19Z</time>
      </trkpt>
      <trkpt lat="46.21456" lon="6.76423">
        <ele>1272</ele>
        <time>2010-01-03T17:55:49Z</time>
      </trkpt>
      <trkpt lat="46.21486" lon="6.76357">
        <ele>1257</ele>
        <time>2010-01-03T17:56:10Z</time>
      </trkpt>
      <trkpt lat="46.21511" lon="6.7632">
        <ele>1263</ele>
        <time>2010-01-03T17:56:25Z</time>
      </trkpt>
      <trkpt lat="46.21525" lon="6.76254">
        <ele>1260</ele>
        <time>2010-01-03T17:56:44Z</time>
      </trkpt>
      <trkpt lat="46.2153" lon="6.76205">
        <ele>1248</ele>
        <time>2010-01-03T17:56:58Z</time>
      </trkpt>
      <trkpt lat="46.21553" lon="6.76148">
        <ele>1241</ele>
        <time>2010-01-03T17:57:16Z</time>
      </trkpt>
      <trkpt lat="46.21562" lon="6.76106">
        <ele>1239</ele>
        <time>2010-01-03T17:57:28Z</time>
      </trkpt>
      <trkpt lat="46.21556" lon="6.7607">
        <ele>1232</ele>
        <time>2010-01-03T17:57:38Z</time>
      </trkpt>
      <trkpt lat="46.21574" lon="6.7603">
        <ele>1232</ele>
        <time>2010-01-03T17:57:51Z</time>
      </trkpt>
      <trkpt lat="46.21583" lon="6.75968">
        <ele>1226</ele>
        <time>2010-01-03T17:58:09Z</time>
      </trkpt>
      <trkpt lat="46.21573" lon="6.75907">
        <ele>1221</ele>
        <time>2010-01-03T17:58:26Z</time>
      </trkpt>
      <trkpt lat="46.21534" lon="6.75769">
        <ele>1210</ele>
        <time>2010-01-03T17:59:07Z</time>
      </trkpt>
      <trkpt lat="46.21522" lon="6.75737">
        <ele>1209</ele>
        <time>2010-01-03T17:59:18Z</time>
      </trkpt>
      <trkpt lat="46.21512" lon="6.75704">
        <ele>1210</ele>
        <time>2010-01-03T17:59:28Z</time>
      </trkpt>
      <trkpt lat="46.21512" lon="6.75703">
        <ele>1210</ele>
        <time>2010-01-03T17:59:28Z</time>
      </trkpt>
      <trkpt lat="46.21501" lon="6.75656">
        <ele>1208</ele>
        <time>2010-01-03T17:59:42Z</time>
      </trkpt>
      <trkpt lat="46.21497" lon="6.75626">
        <ele>1212</ele>
        <time>2010-01-03T17:59:50Z</time>
      </trkpt>
      <trkpt lat="46.2149" lon="6.75581">
        <ele>1208</ele>
        <time>2010-01-03T18:00:03Z</time>
      </trkpt>
      <trkpt lat="46.21493" lon="6.75532">
        <ele>1205</ele>
        <time>2010-01-03T18:00:17Z</time>
      </trkpt>
      <trkpt lat="46.21501" lon="6.75488">
        <ele>1206</ele>
        <time>2010-01-03T18:00:29Z</time>
      </trkpt>
      <trkpt lat="46.21518" lon="6.75437">
        <ele>1205</ele>
        <time>2010-01-03T18:00:45Z</time>
      </trkpt>
      <trkpt lat="46.21519" lon="6.75387">
        <ele>1202</ele>
        <time>2010-01-03T18:00:59Z</time>
      </trkpt>
      <trkpt lat="46.21526" lon="6.75331">
        <ele>1199</ele>
        <time>2010-01-03T18:01:14Z</time>
      </trkpt>
      <trkpt lat="46.21537" lon="6.75281">
        <ele>1204</ele>
        <time>2010-01-03T18:01:29Z</time>
      </trkpt>
      <trkpt lat="46.21508" lon="6.75122">
        <ele>1203</ele>
        <time>2010-01-03T18:02:14Z</time>
      </trkpt>
      <trkpt lat="46.21486" lon="6.75059">
        <ele>1184</ele>
        <time>2010-01-03T18:02:34Z</time>
      </trkpt>
      <trkpt lat="46.21463" lon="6.74996">
        <ele>1188</ele>
        <time>2010-01-03T18:02:54Z</time>
      </trkpt>
      <trkpt lat="46.21429" lon="6.7491">
        <ele>1185</ele>
        <time>2010-01-03T18:03:21Z</time>
      </trkpt>
      <trkpt lat="46.21399" lon="6.74845">
        <ele>1171</ele>
        <time>2010-01-03T18:03:43Z</time>
      </trkpt>
      <trkpt lat="46.21332" lon="6.74736">
        <ele>1151</ele>
        <time>2010-01-03T18:04:23Z</time>
      </trkpt>
      <trkpt lat="46.21279" lon="6.74618">
        <ele>1153</ele>
        <time>2010-01-03T18:05:02Z</time>
      </trkpt>
      <trkpt lat="46.21262" lon="6.74557">
        <ele>1155</ele>
        <time>2010-01-03T18:05:21Z</time>
      </trkpt>
      <trkpt lat="46.21259" lon="6.74508">
        <ele>1150</ele>
        <time>2010-01-03T18:05:34Z</time>
      </trkpt>
      <trkpt lat="46.21217" lon="6.7434">
        <ele>1129</ele>
        <time>2010-01-03T18:06:24Z</time>
      </trkpt>
      <trkpt lat="46.21193" lon="6.74243">
        <ele>1129</ele>
        <time>2010-01-03T18:06:52Z</time>
      </trkpt>
      <trkpt lat="46.21163" lon="6.74166">
        <ele>1119</ele>
        <time>2010-01-03T18:07:16Z</time>
      </trkpt>
      <trkpt lat="46.21152" lon="6.74069">
        <ele>1112</ele>
        <time>2010-01-03T18:07:44Z</time>
      </trkpt>
      <trkpt lat="46.21122" lon="6.73951">
        <ele>1106</ele>
        <time>2010-01-03T18:08:19Z</time>
      </trkpt>
      <trkpt lat="46.21111" lon="6.73814">
        <ele>1107</ele>
        <time>2010-01-03T18:08:57Z</time>
      </trkpt>
      <trkpt lat="46.21109" lon="6.73736">
        <ele>1108</ele>
        <time>2010-01-03T18:09:18Z</time>
      </trkpt>
      <trkpt lat="46.21098" lon="6.73588">
        <ele>1105</ele>
        <time>2010-01-03T18:10:00Z</time>
      </trkpt>
      <trkpt lat="46.21088" lon="6.73516">
        <ele>1107</ele>
        <time>2010-01-03T18:10:20Z</time>
      </trkpt>
      <trkpt lat="46.21081" lon="6.7348">
        <ele>1088</ele>
        <time>2010-01-03T18:10:30Z</time>
      </trkpt>
      <trkpt lat="46.21072" lon="6.7345">
        <ele>1087</ele>
        <time>2010-01-03T18:10:39Z</time>
      </trkpt>
      <trkpt lat="46.21051" lon="6.73556">
        <ele>1081</ele>
        <time>2010-01-03T18:11:10Z</time>
      </trkpt>
      <trkpt lat="46.21032" lon="6.7365">
        <ele>1079</ele>
        <time>2010-01-03T18:11:37Z</time>
      </trkpt>
      <trkpt lat="46.20991" lon="6.73691">
        <ele>1079</ele>
        <time>2010-01-03T18:11:57Z</time>
      </trkpt>
      <trkpt lat="46.20946" lon="6.73701">
        <ele>1083</ele>
        <time>2010-01-03T18:12:16Z</time>
      </trkpt>
      <trkpt lat="46.20891" lon="6.73669">
        <ele>1094</ele>
        <time>2010-01-03T18:12:39Z</time>
      </trkpt>
      <trkpt lat="46.20872" lon="6.736">
        <ele>1084</ele>
        <time>2010-01-03T18:13:00Z</time>
      </trkpt>
      <trkpt lat="46.20856" lon="6.7357">
        <ele>1080</ele>
        <time>2010-01-03T18:13:10Z</time>
      </trkpt>
      <trkpt lat="46.2082" lon="6.73543">
        <ele>1099</ele>
        <time>2010-01-03T18:13:26Z</time>
      </trkpt>
      <trkpt lat="46.20812" lon="6.73475">
        <ele>1094</ele>
        <time>2010-01-03T18:13:46Z</time>
      </trkpt>
      <trkpt lat="46.20804" lon="6.73424">
        <ele>1094</ele>
        <time>2010-01-03T18:14:00Z</time>
      </trkpt>
      <trkpt lat="46.20814" lon="6.73354">
        <ele>1084</ele>
        <time>2010-01-03T18:14:20Z</time>
      </trkpt>
      <trkpt lat="46.20789" lon="6.73229">
        <ele>1083</ele>
        <time>2010-01-03T18:14:56Z</time>
      </trkpt>
      <trkpt lat="46.20764" lon="6.73177">
        <ele>1088</ele>
        <time>2010-01-03T18:15:13Z</time>
      </trkpt>
      <trkpt lat="46.2075" lon="6.73106">
        <ele>1115</ele>
        <time>2010-01-03T18:15:34Z</time>
      </trkpt>
      <trkpt lat="46.20762" lon="6.73047">
        <ele>1089</ele>
        <time>2010-01-03T18:15:51Z</time>
      </trkpt>
      <trkpt lat="46.20759" lon="6.72957">
        <ele>1084</ele>
        <time>2010-01-03T18:16:16Z</time>
      </trkpt>
      <trkpt lat="46.2075" lon="6.72843">
        <ele>1095</ele>
        <time>2010-01-03T18:16:48Z</time>
      </trkpt>
      <trkpt lat="46.2075" lon="6.72712">
        <ele>1108</ele>
        <time>2010-01-03T18:17:24Z</time>
      </trkpt>
      <trkpt lat="46.20747" lon="6.72628">
        <ele>1105</ele>
        <time>2010-01-03T18:17:47Z</time>
      </trkpt>
      <trkpt lat="46.20745" lon="6.72563">
        <ele>1104</ele>
        <time>2010-01-03T18:18:05Z</time>
      </trkpt>
      <trkpt lat="46.20741" lon="6.72521">
        <ele>1108</ele>
        <time>2010-01-03T18:18:17Z</time>
      </trkpt>
      <trkpt lat="46.20748" lon="6.72455">
        <ele>1113</ele>
        <time>2010-01-03T18:18:36Z</time>
      </trkpt>
      <trkpt lat="46.20763" lon="6.72415">
        <ele>1092</ele>
        <time>2010-01-03T18:18:48Z</time>
      </trkpt>
      <trkpt lat="46.20763" lon="6.72356">
        <ele>1083</ele>
        <time>2010-01-03T18:19:04Z</time>
      </trkpt>
      <trkpt lat="46.20763" lon="6.72354">
        <ele>1083</ele>
        <time>2010-01-03T18:19:05Z</time>
      </trkpt>
      <trkpt lat="46.20748" lon="6.72207">
        <ele>1092</ele>
        <time>2010-01-03T18:19:46Z</time>
      </trkpt>
      <trkpt lat="46.20744" lon="6.7213">
        <ele>1093</ele>
        <time>2010-01-03T18:20:08Z</time>
      </trkpt>
      <trkpt lat="46.20745" lon="6.72083">
        <ele>1088</ele>
        <time>2010-01-03T18:20:20Z</time>
      </trkpt>
      <trkpt lat="46.20792" lon="6.72051">
        <ele>1082</ele>
        <time>2010-01-03T18:20:41Z</time>
      </trkpt>
      <trkpt lat="46.20823" lon="6.72037">
        <ele>1081</ele>
        <time>2010-01-03T18:20:54Z</time>
      </trkpt>
      <trkpt lat="46.20841" lon="6.72013">
        <ele>1081</ele>
        <time>2010-01-03T18:21:04Z</time>
      </trkpt>
      <trkpt lat="46.20869" lon="6.71968">
        <ele>1090</ele>
        <time>2010-01-03T18:21:21Z</time>
      </trkpt>
      <trkpt lat="46.20883" lon="6.71944">
        <ele>1092</ele>
        <time>2010-01-03T18:21:30Z</time>
      </trkpt>
      <trkpt lat="46.20881" lon="6.71908">
        <ele>1097</ele>
        <time>2010-01-03T18:21:40Z</time>
      </trkpt>
      <trkpt lat="46.20862" lon="6.71822">
        <ele>1094</ele>
        <time>2010-01-03T18:22:05Z</time>
      </trkpt>
      <trkpt lat="46.2085" lon="6.7177">
        <ele>1091</ele>
        <time>2010-01-03T18:22:20Z</time>
      </trkpt>
      <trkpt lat="46.20846" lon="6.71716">
        <ele>1091</ele>
        <time>2010-01-03T18:22:35Z</time>
      </trkpt>
      <trkpt lat="46.2082" lon="6.71624">
        <ele>1070</ele>
        <time>2010-01-03T18:23:03Z</time>
      </trkpt>
      <trkpt lat="46.20781" lon="6.71587">
        <ele>1065</ele>
        <time>2010-01-03T18:23:21Z</time>
      </trkpt>
      <trkpt lat="46.20742" lon="6.71583">
        <ele>1055</ele>
        <time>2010-01-03T18:23:36Z</time>
      </trkpt>
      <trkpt lat="46.20723" lon="6.71558">
        <ele>1054</ele>
        <time>2010-01-03T18:23:47Z</time>
      </trkpt>
      <trkpt lat="46.20711" lon="6.71512">
        <ele>1051</ele>
        <time>2010-01-03T18:24:01Z</time>
      </trkpt>
      <trkpt lat="46.20693" lon="6.7143">
        <ele>1035</ele>
        <time>2010-01-03T18:24:24Z</time>
      </trkpt>
      <trkpt lat="46.20684" lon="6.71355">
        <ele>1023</ele>
        <time>2010-01-03T18:24:45Z</time>
      </trkpt>
      <trkpt lat="46.20679" lon="6.71295">
        <ele>1015</ele>
        <time>2010-01-03T18:25:02Z</time>
      </trkpt>
      <trkpt lat="46.20681" lon="6.71238">
        <ele>1007</ele>
        <time>2010-01-03T18:25:18Z</time>
      </trkpt>
      <trkpt lat="46.20672" lon="6.71172">
        <ele>1000</ele>
        <time>2010-01-03T18:25:37Z</time>
      </trkpt>
      <trkpt lat="46.20659" lon="6.71101">
        <ele>996</ele>
        <time>2010-01-03T18:25:57Z</time>
      </trkpt>
      <trkpt lat="46.20639" lon="6.71097">
        <ele>996</ele>
        <time>2010-01-03T18:26:05Z</time>
      </trkpt>
      <trkpt lat="46.20609" lon="6.7109">
        <ele>996</ele>
        <time>2010-01-03T18:26:17Z</time>
      </trkpt>
      <trkpt lat="46.20583" lon="6.71059">
        <ele>997</ele>
        <time>2010-01-03T18:26:31Z</time>
      </trkpt>
      <trkpt lat="46.20551" lon="6.71005">
        <ele>997</ele>
        <time>2010-01-03T18:26:50Z</time>
      </trkpt>
      <trkpt lat="46.20527" lon="6.70942">
        <ele>994</ele>
        <time>2010-01-03T18:27:10Z</time>
      </trkpt>
      <trkpt lat="46.20498" lon="6.70871">
        <ele>996</ele>
        <time>2010-01-03T18:27:33Z</time>
      </trkpt>
      <trkpt lat="46.20476" lon="6.70835">
        <ele>995</ele>
        <time>2010-01-03T18:27:47Z</time>
      </trkpt>
      <trkpt lat="46.2045" lon="6.70787">
        <ele>990</ele>
        <time>2010-01-03T18:28:04Z</time>
      </trkpt>
      <trkpt lat="46.20433" lon="6.70733">
        <ele>984</ele>
        <time>2010-01-03T18:28:20Z</time>
      </trkpt>
      <trkpt lat="46.2042" lon="6.70691">
        <ele>980</ele>
        <time>2010-01-03T18:28:33Z</time>
      </trkpt>
      <trkpt lat="46.20402" lon="6.70611">
        <ele>985</ele>
        <time>2010-01-03T18:28:56Z</time>
      </trkpt>
      <trkpt lat="46.20395" lon="6.70561">
        <ele>976</ele>
        <time>2010-01-03T18:29:10Z</time>
      </trkpt>
      <trkpt lat="46.20389" lon="6.7052">
        <ele>974</ele>
        <time>2010-01-03T18:29:22Z</time>
      </trkpt>
      <trkpt lat="46.20367" lon="6.70459">
        <ele>969</ele>
        <time>2010-01-03T18:29:41Z</time>
      </trkpt>
      <trkpt lat="46.20349" lon="6.70417">
        <ele>967</ele>
        <time>2010-01-03T18:29:55Z</time>
      </trkpt>
      <trkpt lat="46.20338" lon="6.70364">
        <ele>961</ele>
        <time>2010-01-03T18:30:10Z</time>
      </trkpt>
      <trkpt lat="46.20319" lon="6.70291">
        <ele>957</ele>
        <time>2010-01-03T18:30:31Z</time>
      </trkpt>
      <trkpt lat="46.20317" lon="6.70245">
        <ele>949</ele>
        <time>2010-01-03T18:30:44Z</time>
      </trkpt>
      <trkpt lat="46.20327" lon="6.70208">
        <ele>950</ele>
        <time>2010-01-03T18:30:55Z</time>
      </trkpt>
      <trkpt lat="46.20322" lon="6.70169">
        <ele>947</ele>
        <time>2010-01-03T18:31:06Z</time>
      </trkpt>
      <trkpt lat="46.20307" lon="6.70137">
        <ele>950</ele>
        <time>2010-01-03T18:31:17Z</time>
      </trkpt>
      <trkpt lat="46.2028" lon="6.70096">
        <ele>951</ele>
        <time>2010-01-03T18:31:33Z</time>
      </trkpt>
      <trkpt lat="46.2027" lon="6.70052">
        <ele>952</ele>
        <time>2010-01-03T18:31:46Z</time>
      </trkpt>
      <trkpt lat="46.20264" lon="6.70017">
        <ele>950</ele>
        <time>2010-01-03T18:31:56Z</time>
      </trkpt>
      <trkpt lat="46.20254" lon="6.69973">
        <ele>951</ele>
        <time>2010-01-03T18:32:08Z</time>
      </trkpt>
      <trkpt lat="46.20234" lon="6.69906">
        <ele>945</ele>
        <time>2010-01-03T18:32:29Z</time>
      </trkpt>
      <trkpt lat="46.20221" lon="6.69845">
        <ele>944</ele>
        <time>2010-01-03T18:32:46Z</time>
      </trkpt>
      <trkpt lat="46.20217" lon="6.69814">
        <ele>940</ele>
        <time>2010-01-03T18:32:55Z</time>
      </trkpt>
      <trkpt lat="46.20229" lon="6.69777">
        <ele>939</ele>
        <time>2010-01-03T18:33:06Z</time>
      </trkpt>
      <trkpt lat="46.20229" lon="6.69774">
        <ele>939</ele>
        <time>2010-01-03T18:33:07Z</time>
      </trkpt>
      <trkpt lat="46.20213" lon="6.69731">
        <ele>937</ele>
        <time>2010-01-03T18:33:21Z</time>
      </trkpt>
      <trkpt lat="46.20195" lon="6.69671">
        <ele>936</ele>
        <time>2010-01-03T18:33:39Z</time>
      </trkpt>
      <trkpt lat="46.20181" lon="6.69607">
        <ele>936</ele>
        <time>2010-01-03T18:33:58Z</time>
      </trkpt>
      <trkpt lat="46.20165" lon="6.69543">
        <ele>931</ele>
        <time>2010-01-03T18:34:16Z</time>
      </trkpt>
      <trkpt lat="46.20161" lon="6.69472">
        <ele>925</ele>
        <time>2010-01-03T18:34:36Z</time>
      </trkpt>
      <trkpt lat="46.20153" lon="6.69432">
        <ele>926</ele>
        <time>2010-01-03T18:34:48Z</time>
      </trkpt>
      <trkpt lat="46.20129" lon="6.69397">
        <ele>925</ele>
        <time>2010-01-03T18:35:01Z</time>
      </trkpt>
      <trkpt lat="46.20098" lon="6.69369">
        <ele>923</ele>
        <time>2010-01-03T18:35:16Z</time>
      </trkpt>
      <trkpt lat="46.20077" lon="6.69328">
        <ele>920</ele>
        <time>2010-01-03T18:35:30Z</time>
      </trkpt>
      <trkpt lat="46.20063" lon="6.69284">
        <ele>921</ele>
        <time>2010-01-03T18:35:43Z</time>
      </trkpt>
      <trkpt lat="46.20039" lon="6.6919">
        <ele>917</ele>
        <time>2010-01-03T18:36:11Z</time>
      </trkpt>
      <trkpt lat="46.20034" lon="6.69104">
        <ele>911</ele>
        <time>2010-01-03T18:36:35Z</time>
      </trkpt>
      <trkpt lat="46.20025" lon="6.69054">
        <ele>908</ele>
        <time>2010-01-03T18:36:49Z</time>
      </trkpt>
      <trkpt lat="46.20011" lon="6.68979">
        <ele>904</ele>
        <time>2010-01-03T18:37:11Z</time>
      </trkpt>
      <trkpt lat="46.20002" lon="6.68939">
        <ele>902</ele>
        <time>2010-01-03T18:37:23Z</time>
      </trkpt>
      <trkpt lat="46.2002" lon="6.68898">
        <ele>900</ele>
        <time>2010-01-03T18:37:36Z</time>
      </trkpt>
      <trkpt lat="46.20016" lon="6.68875">
        <ele>900</ele>
        <time>2010-01-03T18:37:42Z</time>
      </trkpt>
      <trkpt lat="46.19995" lon="6.68872">
        <ele>896</ele>
        <time>2010-01-03T18:37:51Z</time>
      </trkpt>
      <trkpt lat="46.19968" lon="6.68897">
        <ele>896</ele>
        <time>2010-01-03T18:38:04Z</time>
      </trkpt>
      <trkpt lat="46.19935" lon="6.68913">
        <ele>897</ele>
        <time>2010-01-03T18:38:18Z</time>
      </trkpt>
      <trkpt lat="46.19912" lon="6.68902">
        <ele>897</ele>
        <time>2010-01-03T18:38:28Z</time>
      </trkpt>
      <trkpt lat="46.19903" lon="6.68858">
        <ele>897</ele>
        <time>2010-01-03T18:38:40Z</time>
      </trkpt>
      <trkpt lat="46.19887" lon="6.68833">
        <ele>896</ele>
        <time>2010-01-03T18:38:50Z</time>
      </trkpt>
      <trkpt lat="46.19856" lon="6.68822">
        <ele>897</ele>
        <time>2010-01-03T18:39:02Z</time>
      </trkpt>
      <trkpt lat="46.19832" lon="6.68817">
        <ele>898</ele>
        <time>2010-01-03T18:39:12Z</time>
      </trkpt>
      <trkpt lat="46.19822" lon="6.68795">
        <ele>899</ele>
        <time>2010-01-03T18:39:19Z</time>
      </trkpt>
      <trkpt lat="46.19807" lon="6.68802">
        <ele>900</ele>
        <time>2010-01-03T18:39:26Z</time>
      </trkpt>
      <trkpt lat="46.19782" lon="6.68829">
        <ele>900</ele>
        <time>2010-01-03T18:39:38Z</time>
      </trkpt>
      <trkpt lat="46.1969" lon="6.68913">
        <ele>903</ele>
        <time>2010-01-03T18:40:22Z</time>
      </trkpt>
      <trkpt lat="46.19658" lon="6.68945">
        <ele>905</ele>
        <time>2010-01-03T18:40:38Z</time>
      </trkpt>
      <trkpt lat="46.19623" lon="6.68973">
        <ele>906</ele>
        <time>2010-01-03T18:40:53Z</time>
      </trkpt>
      <trkpt lat="46.19597" lon="6.68999">
        <ele>905</ele>
        <time>2010-01-03T18:41:06Z</time>
      </trkpt>
      <trkpt lat="46.19552" lon="6.69032">
        <ele>914</ele>
        <time>2010-01-03T18:41:26Z</time>
      </trkpt>
      <trkpt lat="46.19532" lon="6.69045">
        <ele>915</ele>
        <time>2010-01-03T18:41:35Z</time>
      </trkpt>
      <trkpt lat="46.19507" lon="6.69049">
        <ele>916</ele>
        <time>2010-01-03T18:41:45Z</time>
      </trkpt>
      <trkpt lat="46.19489" lon="6.69058">
        <ele>925</ele>
        <time>2010-01-03T18:41:53Z</time>
      </trkpt>
      <trkpt lat="46.19478" lon="6.69069">
        <ele>925</ele>
        <time>2010-01-03T18:41:58Z</time>
      </trkpt>
      <trkpt lat="46.19481" lon="6.6911">
        <ele>917</ele>
        <time>2010-01-03T18:42:10Z</time>
      </trkpt>
      <trkpt lat="46.19482" lon="6.69159">
        <ele>915</ele>
        <time>2010-01-03T18:42:23Z</time>
      </trkpt>
      <trkpt lat="46.19452" lon="6.69194">
        <ele>914</ele>
        <time>2010-01-03T18:42:38Z</time>
      </trkpt>
      <trkpt lat="46.19418" lon="6.69226">
        <ele>914</ele>
        <time>2010-01-03T18:42:55Z</time>
      </trkpt>
      <trkpt lat="46.19397" lon="6.69236">
        <ele>921</ele>
        <time>2010-01-03T18:43:04Z</time>
      </trkpt>
      <trkpt lat="46.19374" lon="6.69253">
        <ele>920</ele>
        <time>2010-01-03T18:43:14Z</time>
      </trkpt>
      <trkpt lat="46.19373" lon="6.69254">
        <ele>920</ele>
        <time>2010-01-03T18:43:14Z</time>
      </trkpt>
      <trkpt lat="46.19357" lon="6.69297">
        <ele>920</ele>
        <time>2010-01-03T18:43:28Z</time>
      </trkpt>
      <trkpt lat="46.19351" lon="6.69327">
        <ele>920</ele>
        <time>2010-01-03T18:43:37Z</time>
      </trkpt>
      <trkpt lat="46.19353" lon="6.69352">
        <ele>917</ele>
        <time>2010-01-03T18:43:44Z</time>
      </trkpt>
      <trkpt lat="46.19346" lon="6.6939">
        <ele>916</ele>
        <time>2010-01-03T18:43:54Z</time>
      </trkpt>
      <trkpt lat="46.19337" lon="6.69418">
        <ele>915</ele>
        <time>2010-01-03T18:44:03Z</time>
      </trkpt>
      <trkpt lat="46.19314" lon="6.69452">
        <ele>917</ele>
        <time>2010-01-03T18:44:16Z</time>
      </trkpt>
      <trkpt lat="46.19287" lon="6.69482">
        <ele>917</ele>
        <time>2010-01-03T18:44:30Z</time>
      </trkpt>
      <trkpt lat="46.19255" lon="6.69505">
        <ele>918</ele>
        <time>2010-01-03T18:44:44Z</time>
      </trkpt>
      <trkpt lat="46.19218" lon="6.69526">
        <ele>921</ele>
        <time>2010-01-03T18:45:00Z</time>
      </trkpt>
      <trkpt lat="46.19202" lon="6.69529">
        <ele>921</ele>
        <time>2010-01-03T18:45:06Z</time>
      </trkpt>
      <trkpt lat="46.1919" lon="6.69534">
        <ele>922</ele>
        <time>2010-01-03T18:45:12Z</time>
      </trkpt>
      <trkpt lat="46.19175" lon="6.69539">
        <ele>922</ele>
        <time>2010-01-03T18:45:18Z</time>
      </trkpt>
      <trkpt lat="46.19159" lon="6.69543">
        <ele>927</ele>
        <time>2010-01-03T18:45:24Z</time>
      </trkpt>
      <trkpt lat="46.19143" lon="6.6955">
        <ele>927</ele>
        <time>2010-01-03T18:45:31Z</time>
      </trkpt>
      <trkpt lat="46.19133" lon="6.69562">
        <ele>927</ele>
        <time>2010-01-03T18:45:36Z</time>
      </trkpt>
      <trkpt lat="46.19118" lon="6.6959">
        <ele>925</ele>
        <time>2010-01-03T18:45:46Z</time>
      </trkpt>
      <trkpt lat="46.19102" lon="6.69613">
        <ele>926</ele>
        <time>2010-01-03T18:45:55Z</time>
      </trkpt>
      <trkpt lat="46.191" lon="6.69616">
        <ele>926</ele>
        <time>2010-01-03T18:45:56Z</time>
      </trkpt>
      <trkpt lat="46.19081" lon="6.69638">
        <ele>929</ele>
        <time>2010-01-03T18:46:06Z</time>
      </trkpt>
      <trkpt lat="46.19052" lon="6.69647">
        <ele>929</ele>
        <time>2010-01-03T18:46:18Z</time>
      </trkpt>
      <trkpt lat="46.1902" lon="6.69647">
        <ele>929</ele>
        <time>2010-01-03T18:46:30Z</time>
      </trkpt>
      <trkpt lat="46.18993" lon="6.69657">
        <ele>931</ele>
        <time>2010-01-03T18:46:41Z</time>
      </trkpt>
      <trkpt lat="46.1897" lon="6.69682">
        <ele>931</ele>
        <time>2010-01-03T18:46:53Z</time>
      </trkpt>
      <trkpt lat="46.18947" lon="6.69709">
        <ele>932</ele>
        <time>2010-01-03T18:47:05Z</time>
      </trkpt>
      <trkpt lat="46.18924" lon="6.69745">
        <ele>929</ele>
        <time>2010-01-03T18:47:19Z</time>
      </trkpt>
      <trkpt lat="46.18907" lon="6.6977">
        <ele>931</ele>
        <time>2010-01-03T18:47:28Z</time>
      </trkpt>
      <trkpt lat="46.18886" lon="6.69784">
        <ele>932</ele>
        <time>2010-01-03T18:47:38Z</time>
      </trkpt>
      <trkpt lat="46.18855" lon="6.69798">
        <ele>932</ele>
        <time>2010-01-03T18:47:50Z</time>
      </trkpt>
      <trkpt lat="46.18854" lon="6.69799">
        <ele>932</ele>
        <time>2010-01-03T18:47:51Z</time>
      </trkpt>
      <trkpt lat="46.18811" lon="6.69815">
        <ele>936</ele>
        <time>2010-01-03T18:48:09Z</time>
      </trkpt>
      <trkpt lat="46.18785" lon="6.69834">
        <ele>933</ele>
        <time>2010-01-03T18:48:20Z</time>
      </trkpt>
      <trkpt lat="46.18783" lon="6.69836">
        <ele>933</ele>
        <time>2010-01-03T18:48:21Z</time>
      </trkpt>
      <trkpt lat="46.18758" lon="6.69866">
        <ele>934</ele>
        <time>2010-01-03T18:48:35Z</time>
      </trkpt>
      <trkpt lat="46.18757" lon="6.69868">
        <ele>933</ele>
        <time>2010-01-03T18:48:35Z</time>
      </trkpt>
      <trkpt lat="46.18742" lon="6.69895">
        <ele>938</ele>
        <time>2010-01-03T18:48:45Z</time>
      </trkpt>
      <trkpt lat="46.18741" lon="6.69896">
        <ele>938</ele>
        <time>2010-01-03T18:48:45Z</time>
      </trkpt>
      <trkpt lat="46.18738" lon="6.69935">
        <ele>935</ele>
        <time>2010-01-03T18:48:56Z</time>
      </trkpt>
      <trkpt lat="46.18738" lon="6.69985">
        <ele>936</ele>
        <time>2010-01-03T18:49:10Z</time>
      </trkpt>
      <trkpt lat="46.18718" lon="6.70027">
        <ele>938</ele>
        <time>2010-01-03T18:49:24Z</time>
      </trkpt>
      <trkpt lat="46.18717" lon="6.70031">
        <ele>939</ele>
        <time>2010-01-03T18:49:25Z</time>
      </trkpt>
      <trkpt lat="46.18706" lon="6.70066">
        <ele>940</ele>
        <time>2010-01-03T18:49:36Z</time>
      </trkpt>
      <trkpt lat="46.18706" lon="6.70068">
        <ele>940</ele>
        <time>2010-01-03T18:49:37Z</time>
      </trkpt>
      <trkpt lat="46.18692" lon="6.70105">
        <ele>944</ele>
        <time>2010-01-03T18:49:48Z</time>
      </trkpt>
      <trkpt lat="46.18673" lon="6.70134">
        <ele>944</ele>
        <time>2010-01-03T18:49:59Z</time>
      </trkpt>
      <trkpt lat="46.18645" lon="6.70167">
        <ele>944</ele>
        <time>2010-01-03T18:50:14Z</time>
      </trkpt>
      <trkpt lat="46.18594" lon="6.70202">
        <ele>945</ele>
        <time>2010-01-03T18:50:36Z</time>
      </trkpt>
      <trkpt lat="46.18552" lon="6.70247">
        <ele>945</ele>
        <time>2010-01-03T18:50:57Z</time>
      </trkpt>
      <trkpt lat="46.18547" lon="6.70253">
        <ele>945</ele>
        <time>2010-01-03T18:51:00Z</time>
      </trkpt>
      <trkpt lat="46.18511" lon="6.70293">
        <ele>944</ele>
        <time>2010-01-03T18:51:18Z</time>
      </trkpt>
      <trkpt lat="46.18492" lon="6.7032">
        <ele>945</ele>
        <time>2010-01-03T18:51:29Z</time>
      </trkpt>
      <trkpt lat="46.18469" lon="6.70353">
        <ele>946</ele>
        <time>2010-01-03T18:51:42Z</time>
      </trkpt>
      <trkpt lat="46.18439" lon="6.70394">
        <ele>947</ele>
        <time>2010-01-03T18:51:58Z</time>
      </trkpt>
      <trkpt lat="46.18436" lon="6.70397">
        <ele>946</ele>
        <time>2010-01-03T18:52:00Z</time>
      </trkpt>
      <trkpt lat="46.18402" lon="6.70435">
        <ele>947</ele>
        <time>2010-01-03T18:52:17Z</time>
      </trkpt>
      <trkpt lat="46.1837" lon="6.70473">
        <ele>949</ele>
        <time>2010-01-03T18:52:34Z</time>
      </trkpt>
      <trkpt lat="46.18353" lon="6.70499">
        <ele>949</ele>
        <time>2010-01-03T18:52:43Z</time>
      </trkpt>
      <trkpt lat="46.1834" lon="6.70526">
        <ele>953</ele>
        <time>2010-01-03T18:52:52Z</time>
      </trkpt>
      <trkpt lat="46.18339" lon="6.70527">
        <ele>953</ele>
        <time>2010-01-03T18:52:53Z</time>
      </trkpt>
      <trkpt lat="46.18316" lon="6.70555">
        <ele>951</ele>
        <time>2010-01-03T18:53:05Z</time>
      </trkpt>
      <trkpt lat="46.18314" lon="6.70558">
        <ele>951</ele>
        <time>2010-01-03T18:53:06Z</time>
      </trkpt>
      <trkpt lat="46.18288" lon="6.70581">
        <ele>951</ele>
        <time>2010-01-03T18:53:18Z</time>
      </trkpt>
      <trkpt lat="46.18262" lon="6.70604">
        <ele>957</ele>
        <time>2010-01-03T18:53:31Z</time>
      </trkpt>
      <trkpt lat="46.18261" lon="6.70605">
        <ele>957</ele>
        <time>2010-01-03T18:53:31Z</time>
      </trkpt>
      <trkpt lat="46.18195" lon="6.70642">
        <ele>955</ele>
        <time>2010-01-03T18:53:59Z</time>
      </trkpt>
      <trkpt lat="46.18146" lon="6.70687">
        <ele>955</ele>
        <time>2010-01-03T18:54:23Z</time>
      </trkpt>
      <trkpt lat="46.18118" lon="6.70721">
        <ele>956</ele>
        <time>2010-01-03T18:54:37Z</time>
      </trkpt>
      <trkpt lat="46.18085" lon="6.70751">
        <ele>954</ele>
        <time>2010-01-03T18:54:53Z</time>
      </trkpt>
      <trkpt lat="46.18019" lon="6.70794">
        <ele>959</ele>
        <time>2010-01-03T18:55:22Z</time>
      </trkpt>
      <trkpt lat="46.17987" lon="6.70822">
        <ele>961</ele>
        <time>2010-01-03T18:55:37Z</time>
      </trkpt>
      <trkpt lat="46.1796" lon="6.7085">
        <ele>964</ele>
        <time>2010-01-03T18:55:50Z</time>
      </trkpt>
      <trkpt lat="46.17946" lon="6.70864">
        <ele>964</ele>
        <time>2010-01-03T18:55:57Z</time>
      </trkpt>
      <trkpt lat="46.1789" lon="6.70865">
        <ele>966</ele>
        <time>2010-01-03T18:56:20Z</time>
      </trkpt>
      <trkpt lat="46.17873" lon="6.70881">
        <ele>967</ele>
        <time>2010-01-03T18:56:28Z</time>
      </trkpt>
      <trkpt lat="46.17849" lon="6.70898">
        <ele>967</ele>
        <time>2010-01-03T18:56:38Z</time>
      </trkpt>
      <trkpt lat="46.17778" lon="6.70909">
        <ele>970</ele>
        <time>2010-01-03T18:57:07Z</time>
      </trkpt>
      <trkpt lat="46.17739" lon="6.70898">
        <ele>971</ele>
        <time>2010-01-03T18:57:23Z</time>
      </trkpt>
      <trkpt lat="46.17712" lon="6.70882">
        <ele>973</ele>
        <time>2010-01-03T18:57:35Z</time>
      </trkpt>
      <trkpt lat="46.1768" lon="6.70902">
        <ele>972</ele>
        <time>2010-01-03T18:57:49Z</time>
      </trkpt>
      <trkpt lat="46.17668" lon="6.70934">
        <ele>971</ele>
        <time>2010-01-03T18:57:59Z</time>
      </trkpt>
      <trkpt lat="46.17658" lon="6.70959">
        <ele>975</ele>
        <time>2010-01-03T18:58:07Z</time>
      </trkpt>
      <trkpt lat="46.17638" lon="6.70994">
        <ele>976</ele>
        <time>2010-01-03T18:58:19Z</time>
      </trkpt>
      <trkpt lat="46.17624" lon="6.71016">
        <ele>982</ele>
        <time>2010-01-03T18:58:27Z</time>
      </trkpt>
      <trkpt lat="46.1761" lon="6.71026">
        <ele>982</ele>
        <time>2010-01-03T18:58:34Z</time>
      </trkpt>
      <trkpt lat="46.17589" lon="6.71025">
        <ele>981</ele>
        <time>2010-01-03T18:58:42Z</time>
      </trkpt>
      <trkpt lat="46.17578" lon="6.71009">
        <ele>978</ele>
        <time>2010-01-03T18:58:48Z</time>
      </trkpt>
      <trkpt lat="46.1757" lon="6.70988">
        <ele>981</ele>
        <time>2010-01-03T18:58:55Z</time>
      </trkpt>
      <trkpt lat="46.17568" lon="6.70941">
        <ele>985</ele>
        <time>2010-01-03T18:59:08Z</time>
      </trkpt>
      <trkpt lat="46.17572" lon="6.70912">
        <ele>988</ele>
        <time>2010-01-03T18:59:16Z</time>
      </trkpt>
      <trkpt lat="46.17584" lon="6.70891">
        <ele>983</ele>
        <time>2010-01-03T18:59:24Z</time>
      </trkpt>
      <trkpt lat="46.17593" lon="6.70881">
        <ele>983</ele>
        <time>2010-01-03T18:59:28Z</time>
      </trkpt>
      <trkpt lat="46.17604" lon="6.70864">
        <ele>985</ele>
        <time>2010-01-03T18:59:35Z</time>
      </trkpt>
      <trkpt lat="46.17659" lon="6.70811">
        <ele>988</ele>
        <time>2010-01-03T19:00:01Z</time>
      </trkpt>
      <trkpt lat="46.17683" lon="6.70788">
        <ele>985</ele>
        <time>2010-01-03T19:00:13Z</time>
      </trkpt>
      <trkpt lat="46.17696" lon="6.70763">
        <ele>987</ele>
        <time>2010-01-03T19:00:21Z</time>
      </trkpt>
      <trkpt lat="46.17731" lon="6.70708">
        <ele>989</ele>
        <time>2010-01-03T19:00:42Z</time>
      </trkpt>
      <trkpt lat="46.17738" lon="6.70692">
        <ele>989</ele>
        <time>2010-01-03T19:00:47Z</time>
      </trkpt>
      <trkpt lat="46.17742" lon="6.70682">
        <ele>988</ele>
        <time>2010-01-03T19:00:51Z</time>
      </trkpt>
      <trkpt lat="46.17742" lon="6.70676">
        <ele>988</ele>
        <time>2010-01-03T19:00:52Z</time>
      </trkpt>
      <trkpt lat="46.17746" lon="6.70665">
        <ele>988</ele>
        <time>2010-01-03T19:00:56Z</time>
      </trkpt>
      <trkpt lat="46.17753" lon="6.70662">
        <ele>987</ele>
        <time>2010-01-03T19:00:59Z</time>
      </trkpt>
      <trkpt lat="46.17758" lon="6.70667">
        <ele>987</ele>
        <time>2010-01-03T19:01:01Z</time>
      </trkpt>
      <trkpt lat="46.17762" lon="6.70665">
        <ele>986</ele>
        <time>2010-01-03T19:01:03Z</time>
      </trkpt>
      <trkpt lat="46.17826" lon="6.7056">
        <ele>986</ele>
        <time>2010-01-03T19:01:42Z</time>
      </trkpt>
      <trkpt lat="46.17843" lon="6.70531">
        <ele>984</ele>
        <time>2010-01-03T19:01:52Z</time>
      </trkpt>
      <trkpt lat="46.17931" lon="6.70401">
        <ele>984</ele>
        <time>2010-01-03T19:02:43Z</time>
      </trkpt>
      <trkpt lat="46.17993" lon="6.70303">
        <ele>984</ele>
        <time>2010-01-03T19:03:19Z</time>
      </trkpt>
      <trkpt lat="46.18039" lon="6.7023">
        <ele>980</ele>
        <time>2010-01-03T19:03:47Z</time>
      </trkpt>
      <trkpt lat="46.18044" lon="6.70219">
        <ele>980</ele>
        <time>2010-01-03T19:03:50Z</time>
      </trkpt>
      <trkpt lat="46.18032" lon="6.70203">
        <ele>981</ele>
        <time>2010-01-03T19:03:57Z</time>
      </trkpt>
      <trkpt lat="46.18016" lon="6.70178">
        <ele>982</ele>
        <time>2010-01-03T19:04:06Z</time>
      </trkpt>
      <trkpt lat="46.18004" lon="6.70169">
        <ele>983</ele>
        <time>2010-01-03T19:04:12Z</time>
      </trkpt>
      <trkpt lat="46.18003" lon="6.70169">
        <ele>984</ele>
        <time>2010-01-03T19:04:12Z</time>
      </trkpt>
      <trkpt lat="46.17987" lon="6.70154">
        <ele>988</ele>
        <time>2010-01-03T19:04:20Z</time>
      </trkpt>
      <trkpt lat="46.17974" lon="6.70136">
        <ele>991</ele>
        <time>2010-01-03T19:04:27Z</time>
      </trkpt>
      <trkpt lat="46.17962" lon="6.70134">
        <ele>992</ele>
        <time>2010-01-03T19:04:32Z</time>
      </trkpt>
      <trkpt lat="46.17852" lon="6.70031">
        <ele>1033</ele>
        <time>2010-01-03T19:05:24Z</time>
      </trkpt>
      <trkpt lat="46.17805" lon="6.70021">
        <ele>1062</ele>
        <time>2010-01-03T19:05:43Z</time>
      </trkpt>
      <trkpt lat="46.17709" lon="6.69911">
        <ele>1130</ele>
        <time>2010-01-03T19:06:32Z</time>
      </trkpt>
      <trkpt lat="46.17648" lon="6.69888">
        <ele>1167</ele>
        <time>2010-01-03T19:06:57Z</time>
      </trkpt>
      <trkpt lat="46.17582" lon="6.69757">
        <ele>1220</ele>
        <time>2010-01-03T19:07:42Z</time>
      </trkpt>
      <trkpt lat="46.17539" lon="6.69753">
        <ele>1222</ele>
        <time>2010-01-03T19:08:00Z</time>
      </trkpt>
      <trkpt lat="46.17422" lon="6.69627">
        <ele>1274</ele>
        <time>2010-01-03T19:08:58Z</time>
      </trkpt>
      <trkpt lat="46.17325" lon="6.69539">
        <ele>1315</ele>
        <time>2010-01-03T19:09:44Z</time>
      </trkpt>
      <trkpt lat="46.17218" lon="6.69447">
        <ele>1358</ele>
        <time>2010-01-03T19:10:34Z</time>
      </trkpt>
      <trkpt lat="46.17088" lon="6.69343">
        <ele>1428</ele>
        <time>2010-01-03T19:11:33Z</time>
      </trkpt>
      <trkpt lat="46.16968" lon="6.69204">
        <ele>1496</ele>
        <time>2010-01-03T19:12:35Z</time>
      </trkpt>
      <trkpt lat="46.1697" lon="6.69193">
        <ele>1496</ele>
        <time>2010-01-03T19:12:38Z</time>
      </trkpt>
      <trkpt lat="46.17002" lon="6.69169">
        <ele>1493</ele>
        <time>2010-01-03T19:12:53Z</time>
      </trkpt>
      <trkpt lat="46.17048" lon="6.69125">
        <ele>1483</ele>
        <time>2010-01-03T19:13:15Z</time>
      </trkpt>
      <trkpt lat="46.17078" lon="6.69093">
        <ele>1481</ele>
        <time>2010-01-03T19:13:30Z</time>
      </trkpt>
      <trkpt lat="46.17097" lon="6.69087">
        <ele>1476</ele>
        <time>2010-01-03T19:13:38Z</time>
      </trkpt>
      <trkpt lat="46.17123" lon="6.6912">
        <ele>1472</ele>
        <time>2010-01-03T19:13:52Z</time>
      </trkpt>
      <trkpt lat="46.17133" lon="6.69136">
        <ele>1470</ele>
        <time>2010-01-03T19:13:57Z</time>
      </trkpt>
      <trkpt lat="46.17144" lon="6.69137">
        <ele>1469</ele>
        <time>2010-01-03T19:14:02Z</time>
      </trkpt>
      <trkpt lat="46.17156" lon="6.69133">
        <ele>1469</ele>
        <time>2010-01-03T19:14:07Z</time>
      </trkpt>
      <trkpt lat="46.17165" lon="6.69124">
        <ele>1470</ele>
        <time>2010-01-03T19:14:11Z</time>
      </trkpt>
      <trkpt lat="46.17211" lon="6.69091">
        <ele>1458</ele>
        <time>2010-01-03T19:14:32Z</time>
      </trkpt>
      <trkpt lat="46.17217" lon="6.6907">
        <ele>1457</ele>
        <time>2010-01-03T19:14:38Z</time>
      </trkpt>
      <trkpt lat="46.17211" lon="6.69">
        <ele>1449</ele>
        <time>2010-01-03T19:14:58Z</time>
      </trkpt>
      <trkpt lat="46.17213" lon="6.68982">
        <ele>1448</ele>
        <time>2010-01-03T19:15:02Z</time>
      </trkpt>
      <trkpt lat="46.17225" lon="6.68953">
        <ele>1446</ele>
        <time>2010-01-03T19:15:12Z</time>
      </trkpt>
      <trkpt lat="46.17226" lon="6.68932">
        <ele>1444</ele>
        <time>2010-01-03T19:15:18Z</time>
      </trkpt>
      <trkpt lat="46.17217" lon="6.68917">
        <ele>1445</ele>
        <time>2010-01-03T19:15:23Z</time>
      </trkpt>
      <trkpt lat="46.17187" lon="6.68875">
        <ele>1441</ele>
        <time>2010-01-03T19:15:40Z</time>
      </trkpt>
      <trkpt lat="46.17181" lon="6.6885">
        <ele>1441</ele>
        <time>2010-01-03T19:15:47Z</time>
      </trkpt>
      <trkpt lat="46.1718" lon="6.68824">
        <ele>1437</ele>
        <time>2010-01-03T19:15:55Z</time>
      </trkpt>
      <trkpt lat="46.17174" lon="6.68781">
        <ele>1431</ele>
        <time>2010-01-03T19:16:07Z</time>
      </trkpt>
      <trkpt lat="46.1716" lon="6.68768">
        <ele>1439</ele>
        <time>2010-01-03T19:16:13Z</time>
      </trkpt>
      <trkpt lat="46.17131" lon="6.68744">
        <ele>1433</ele>
        <time>2010-01-03T19:16:27Z</time>
      </trkpt>
      <trkpt lat="46.1709" lon="6.68726">
        <ele>1436</ele>
        <time>2010-01-03T19:16:44Z</time>
      </trkpt>
      <trkpt lat="46.17041" lon="6.68714">
        <ele>1446</ele>
        <time>2010-01-03T19:17:04Z</time>
      </trkpt>
      <trkpt lat="46.17012" lon="6.68714">
        <ele>1448</ele>
        <time>2010-01-03T19:17:15Z</time>
      </trkpt>
      <trkpt lat="46.16985" lon="6.68701">
        <ele>1453</ele>
        <time>2010-01-03T19:17:27Z</time>
      </trkpt>
      <trkpt lat="46.16976" lon="6.68679">
        <ele>1451</ele>
        <time>2010-01-03T19:17:34Z</time>
      </trkpt>
      <trkpt lat="46.16955" lon="6.68662">
        <ele>1444</ele>
        <time>2010-01-03T19:17:43Z</time>
      </trkpt>
      <trkpt lat="46.16926" lon="6.68647">
        <ele>1445</ele>
        <time>2010-01-03T19:17:56Z</time>
      </trkpt>
      <trkpt lat="46.1688" lon="6.68621">
        <ele>1444</ele>
        <time>2010-01-03T19:18:15Z</time>
      </trkpt>
      <trkpt lat="46.16846" lon="6.68582">
        <ele>1434</ele>
        <time>2010-01-03T19:18:33Z</time>
      </trkpt>
      <trkpt lat="46.16839" lon="6.68581">
        <ele>1435</ele>
        <time>2010-01-03T19:18:36Z</time>
      </trkpt>
      <trkpt lat="46.16832" lon="6.6858">
        <ele>1436</ele>
        <time>2010-01-03T19:18:38Z</time>
      </trkpt>
      <trkpt lat="46.16806" lon="6.6859">
        <ele>1444</ele>
        <time>2010-01-03T19:18:49Z</time>
      </trkpt>
      <trkpt lat="46.16787" lon="6.6859">
        <ele>1445</ele>
        <time>2010-01-03T19:18:57Z</time>
      </trkpt>
      <trkpt lat="46.1677" lon="6.68588">
        <ele>1445</ele>
        <time>2010-01-03T19:19:04Z</time>
      </trkpt>
      <trkpt lat="46.16768" lon="6.68588">
        <ele>1445</ele>
        <time>2010-01-03T19:19:04Z</time>
      </trkpt>
      <trkpt lat="46.16737" lon="6.68577">
        <ele>1438</ele>
        <time>2010-01-03T19:19:17Z</time>
      </trkpt>
      <trkpt lat="46.16737" lon="6.68576">
        <ele>1437</ele>
        <time>2010-01-03T19:19:17Z</time>
      </trkpt>
      <trkpt lat="46.16711" lon="6.68563">
        <ele>1434</ele>
        <time>2010-01-03T19:19:29Z</time>
      </trkpt>
      <trkpt lat="46.16679" lon="6.68553">
        <ele>1433</ele>
        <time>2010-01-03T19:19:42Z</time>
      </trkpt>
      <trkpt lat="46.16654" lon="6.68547">
        <ele>1428</ele>
        <time>2010-01-03T19:19:52Z</time>
      </trkpt>
      <trkpt lat="46.1662" lon="6.6855">
        <ele>1427</ele>
        <time>2010-01-03T19:20:05Z</time>
      </trkpt>
      <trkpt lat="46.16614" lon="6.6855">
        <ele>1427</ele>
        <time>2010-01-03T19:20:08Z</time>
      </trkpt>
      <trkpt lat="46.1661" lon="6.68551">
        <ele>1427</ele>
        <time>2010-01-03T19:20:09Z</time>
      </trkpt>
      <trkpt lat="46.16585" lon="6.6855">
        <ele>1426</ele>
        <time>2010-01-03T19:20:19Z</time>
      </trkpt>
      <trkpt lat="46.16581" lon="6.6855">
        <ele>1426</ele>
        <time>2010-01-03T19:20:21Z</time>
      </trkpt>
      <trkpt lat="46.16554" lon="6.68538">
        <ele>1425</ele>
        <time>2010-01-03T19:20:32Z</time>
      </trkpt>
      <trkpt lat="46.16538" lon="6.68531">
        <ele>1425</ele>
        <time>2010-01-03T19:20:39Z</time>
      </trkpt>
      <trkpt lat="46.16526" lon="6.68532">
        <ele>1425</ele>
        <time>2010-01-03T19:20:44Z</time>
      </trkpt>
      <trkpt lat="46.16515" lon="6.68531">
        <ele>1425</ele>
        <time>2010-01-03T19:20:48Z</time>
      </trkpt>
      <trkpt lat="46.16468" lon="6.68492">
        <ele>1414</ele>
        <time>2010-01-03T19:21:10Z</time>
      </trkpt>
      <trkpt lat="46.16438" lon="6.68466">
        <ele>1414</ele>
        <time>2010-01-03T19:21:24Z</time>
      </trkpt>
      <trkpt lat="46.16429" lon="6.68457">
        <ele>1413</ele>
        <time>2010-01-03T19:21:28Z</time>
      </trkpt>
      <trkpt lat="46.16423" lon="6.68448">
        <ele>1412</ele>
        <time>2010-01-03T19:21:32Z</time>
      </trkpt>
      <trkpt lat="46.16414" lon="6.6844">
        <ele>1415</ele>
        <time>2010-01-03T19:21:36Z</time>
      </trkpt>
      <trkpt lat="46.16413" lon="6.68439">
        <ele>1415</ele>
        <time>2010-01-03T19:21:37Z</time>
      </trkpt>
      <trkpt lat="46.1641" lon="6.68439">
        <ele>1415</ele>
        <time>2010-01-03T19:21:38Z</time>
      </trkpt>
      <trkpt lat="46.1635" lon="6.68407">
        <ele>1407</ele>
        <time>2010-01-03T19:22:03Z</time>
      </trkpt>
      <trkpt lat="46.16317" lon="6.68378">
        <ele>1402</ele>
        <time>2010-01-03T19:22:19Z</time>
      </trkpt>
      <trkpt lat="46.16267" lon="6.68385">
        <ele>1402</ele>
        <time>2010-01-03T19:22:39Z</time>
      </trkpt>
      <trkpt lat="46.16222" lon="6.684">
        <ele>1397</ele>
        <time>2010-01-03T19:22:57Z</time>
      </trkpt>
      <trkpt lat="46.1614" lon="6.68437">
        <ele>1400</ele>
        <time>2010-01-03T19:23:32Z</time>
      </trkpt>
      <trkpt lat="46.16094" lon="6.68467">
        <ele>1401</ele>
        <time>2010-01-03T19:23:52Z</time>
      </trkpt>
      <trkpt lat="46.16037" lon="6.68515">
        <ele>1404</ele>
        <time>2010-01-03T19:24:18Z</time>
      </trkpt>
      <trkpt lat="46.16012" lon="6.68501">
        <ele>1397</ele>
        <time>2010-01-03T19:24:29Z</time>
      </trkpt>
      <trkpt lat="46.15994" lon="6.68494">
        <ele>1386</ele>
        <time>2010-01-03T19:24:37Z</time>
      </trkpt>
      <trkpt lat="46.15961" lon="6.68497">
        <ele>1380</ele>
        <time>2010-01-03T19:24:50Z</time>
      </trkpt>
      <trkpt lat="46.15938" lon="6.68488">
        <ele>1379</ele>
        <time>2010-01-03T19:24:59Z</time>
      </trkpt>
      <trkpt lat="46.15913" lon="6.68461">
        <ele>1376</ele>
        <time>2010-01-03T19:25:12Z</time>
      </trkpt>
      <trkpt lat="46.15885" lon="6.68439">
        <ele>1374</ele>
        <time>2010-01-03T19:25:25Z</time>
      </trkpt>
      <trkpt lat="46.15842" lon="6.68427">
        <ele>1372</ele>
        <time>2010-01-03T19:25:42Z</time>
      </trkpt>
      <trkpt lat="46.1583" lon="6.68385">
        <ele>1365</ele>
        <time>2010-01-03T19:25:55Z</time>
      </trkpt>
      <trkpt lat="46.15816" lon="6.68337">
        <ele>1360</ele>
        <time>2010-01-03T19:26:09Z</time>
      </trkpt>
      <trkpt lat="46.15773" lon="6.68274">
        <ele>1345</ele>
        <time>2010-01-03T19:26:34Z</time>
      </trkpt>
      <trkpt lat="46.15616" lon="6.68099">
        <ele>1324</ele>
        <time>2010-01-03T19:27:53Z</time>
      </trkpt>
      <trkpt lat="46.15601" lon="6.6805">
        <ele>1316</ele>
        <time>2010-01-03T19:28:08Z</time>
      </trkpt>
      <trkpt lat="46.15592" lon="6.68003">
        <ele>1315</ele>
        <time>2010-01-03T19:28:21Z</time>
      </trkpt>
      <trkpt lat="46.15585" lon="6.67896">
        <ele>1298</ele>
        <time>2010-01-03T19:28:51Z</time>
      </trkpt>
      <trkpt lat="46.15562" lon="6.67827">
        <ele>1294</ele>
        <time>2010-01-03T19:29:12Z</time>
      </trkpt>
      <trkpt lat="46.15536" lon="6.6777">
        <ele>1292</ele>
        <time>2010-01-03T19:29:31Z</time>
      </trkpt>
      <trkpt lat="46.15504" lon="6.6774">
        <ele>1286</ele>
        <time>2010-01-03T19:29:47Z</time>
      </trkpt>
      <trkpt lat="46.15471" lon="6.67708">
        <ele>1285</ele>
        <time>2010-01-03T19:30:02Z</time>
      </trkpt>
      <trkpt lat="46.15454" lon="6.67686">
        <ele>1284</ele>
        <time>2010-01-03T19:30:12Z</time>
      </trkpt>
      <trkpt lat="46.15441" lon="6.67667">
        <ele>1275</ele>
        <time>2010-01-03T19:30:19Z</time>
      </trkpt>
      <trkpt lat="46.15414" lon="6.6765">
        <ele>1277</ele>
        <time>2010-01-03T19:30:31Z</time>
      </trkpt>
      <trkpt lat="46.15407" lon="6.67625">
        <ele>1275</ele>
        <time>2010-01-03T19:30:38Z</time>
      </trkpt>
      <trkpt lat="46.15416" lon="6.67603">
        <ele>1272</ele>
        <time>2010-01-03T19:30:45Z</time>
      </trkpt>
      <trkpt lat="46.15409" lon="6.67579">
        <ele>1266</ele>
        <time>2010-01-03T19:30:53Z</time>
      </trkpt>
      <trkpt lat="46.1538" lon="6.67545">
        <ele>1265</ele>
        <time>2010-01-03T19:31:08Z</time>
      </trkpt>
      <trkpt lat="46.15362" lon="6.67513">
        <ele>1265</ele>
        <time>2010-01-03T19:31:19Z</time>
      </trkpt>
      <trkpt lat="46.15361" lon="6.67483">
        <ele>1258</ele>
        <time>2010-01-03T19:31:27Z</time>
      </trkpt>
      <trkpt lat="46.15404" lon="6.67423">
        <ele>1250</ele>
        <time>2010-01-03T19:31:51Z</time>
      </trkpt>
      <trkpt lat="46.15413" lon="6.67395">
        <ele>1247</ele>
        <time>2010-01-03T19:32:00Z</time>
      </trkpt>
      <trkpt lat="46.15421" lon="6.67376">
        <ele>1243</ele>
        <time>2010-01-03T19:32:06Z</time>
      </trkpt>
      <trkpt lat="46.15446" lon="6.67358">
        <ele>1242</ele>
        <time>2010-01-03T19:32:17Z</time>
      </trkpt>
      <trkpt lat="46.15461" lon="6.67344">
        <ele>1242</ele>
        <time>2010-01-03T19:32:24Z</time>
      </trkpt>
      <trkpt lat="46.15525" lon="6.67187">
        <ele>1237</ele>
        <time>2010-01-03T19:33:15Z</time>
      </trkpt>
      <trkpt lat="46.1559" lon="6.67124">
        <ele>1223</ele>
        <time>2010-01-03T19:33:46Z</time>
      </trkpt>
      <trkpt lat="46.15616" lon="6.67099">
        <ele>1221</ele>
        <time>2010-01-03T19:33:58Z</time>
      </trkpt>
      <trkpt lat="46.15614" lon="6.6708">
        <ele>1214</ele>
        <time>2010-01-03T19:34:04Z</time>
      </trkpt>
      <trkpt lat="46.15613" lon="6.6707">
        <ele>1213</ele>
        <time>2010-01-03T19:34:07Z</time>
      </trkpt>
      <trkpt lat="46.15637" lon="6.67069">
        <ele>1211</ele>
        <time>2010-01-03T19:34:17Z</time>
      </trkpt>
      <trkpt lat="46.15631" lon="6.67058">
        <ele>1210</ele>
        <time>2010-01-03T19:34:20Z</time>
      </trkpt>
      <trkpt lat="46.15628" lon="6.67045">
        <ele>1209</ele>
        <time>2010-01-03T19:34:24Z</time>
      </trkpt>
      <trkpt lat="46.15635" lon="6.67042">
        <ele>1208</ele>
        <time>2010-01-03T19:34:27Z</time>
      </trkpt>
      <trkpt lat="46.15644" lon="6.67047">
        <ele>1208</ele>
        <time>2010-01-03T19:34:31Z</time>
      </trkpt>
      <trkpt lat="46.15649" lon="6.67037">
        <ele>1206</ele>
        <time>2010-01-03T19:34:34Z</time>
      </trkpt>
      <trkpt lat="46.15644" lon="6.67028">
        <ele>1206</ele>
        <time>2010-01-03T19:34:38Z</time>
      </trkpt>
      <trkpt lat="46.15634" lon="6.67018">
        <ele>1206</ele>
        <time>2010-01-03T19:34:42Z</time>
      </trkpt>
      <trkpt lat="46.15635" lon="6.67005">
        <ele>1204</ele>
        <time>2010-01-03T19:34:46Z</time>
      </trkpt>
      <trkpt lat="46.15636" lon="6.67002">
        <ele>1204</ele>
        <time>2010-01-03T19:34:47Z</time>
      </trkpt>
      <trkpt lat="46.15646" lon="6.67007">
        <ele>1202</ele>
        <time>2010-01-03T19:34:51Z</time>
      </trkpt>
      <trkpt lat="46.15649" lon="6.6701">
        <ele>1201</ele>
        <time>2010-01-03T19:34:53Z</time>
      </trkpt>
      <trkpt lat="46.15666" lon="6.67019">
        <ele>1201</ele>
        <time>2010-01-03T19:35:00Z</time>
      </trkpt>
      <trkpt lat="46.15673" lon="6.67019">
        <ele>1192</ele>
        <time>2010-01-03T19:35:03Z</time>
      </trkpt>
      <trkpt lat="46.15674" lon="6.67012">
        <ele>1191</ele>
        <time>2010-01-03T19:35:05Z</time>
      </trkpt>
      <trkpt lat="46.15666" lon="6.66999">
        <ele>1191</ele>
        <time>2010-01-03T19:35:09Z</time>
      </trkpt>
      <trkpt lat="46.1566" lon="6.66989">
        <ele>1191</ele>
        <time>2010-01-03T19:35:13Z</time>
      </trkpt>
      <trkpt lat="46.15661" lon="6.6698">
        <ele>1191</ele>
        <time>2010-01-03T19:35:16Z</time>
      </trkpt>
      <trkpt lat="46.1567" lon="6.6698">
        <ele>1184</ele>
        <time>2010-01-03T19:35:20Z</time>
      </trkpt>
      <trkpt lat="46.15675" lon="6.66979">
        <ele>1183</ele>
        <time>2010-01-03T19:35:22Z</time>
      </trkpt>
      <trkpt lat="46.15671" lon="6.66966">
        <ele>1181</ele>
        <time>2010-01-03T19:35:26Z</time>
      </trkpt>
      <trkpt lat="46.15669" lon="6.6695">
        <ele>1179</ele>
        <time>2010-01-03T19:35:30Z</time>
      </trkpt>
      <trkpt lat="46.15664" lon="6.66937">
        <ele>1185</ele>
        <time>2010-01-03T19:35:35Z</time>
      </trkpt>
      <trkpt lat="46.15658" lon="6.66917">
        <ele>1181</ele>
        <time>2010-01-03T19:35:40Z</time>
      </trkpt>
      <trkpt lat="46.15651" lon="6.66893">
        <ele>1178</ele>
        <time>2010-01-03T19:35:48Z</time>
      </trkpt>
      <trkpt lat="46.1565" lon="6.66873">
        <ele>1178</ele>
        <time>2010-01-03T19:35:53Z</time>
      </trkpt>
      <trkpt lat="46.15651" lon="6.66872">
        <ele>1178</ele>
        <time>2010-01-03T19:35:53Z</time>
      </trkpt>
      <trkpt lat="46.15645" lon="6.66851">
        <ele>1177</ele>
        <time>2010-01-03T19:36:00Z</time>
      </trkpt>
      <trkpt lat="46.15646" lon="6.66829">
        <ele>1174</ele>
        <time>2010-01-03T19:36:06Z</time>
      </trkpt>
      <trkpt lat="46.15646" lon="6.66825">
        <ele>1174</ele>
        <time>2010-01-03T19:36:07Z</time>
      </trkpt>
      <trkpt lat="46.15653" lon="6.66812">
        <ele>1173</ele>
        <time>2010-01-03T19:36:12Z</time>
      </trkpt>
      <trkpt lat="46.15654" lon="6.66812">
        <ele>1173</ele>
        <time>2010-01-03T19:36:12Z</time>
      </trkpt>
      <trkpt lat="46.15675" lon="6.6681">
        <ele>1169</ele>
        <time>2010-01-03T19:36:20Z</time>
      </trkpt>
      <trkpt lat="46.1569" lon="6.66816">
        <ele>1168</ele>
        <time>2010-01-03T19:36:26Z</time>
      </trkpt>
      <trkpt lat="46.15679" lon="6.66824">
        <ele>1169</ele>
        <time>2010-01-03T19:36:31Z</time>
      </trkpt>
      <trkpt lat="46.15679" lon="6.66826">
        <ele>1169</ele>
        <time>2010-01-03T19:36:32Z</time>
      </trkpt>
      <trkpt lat="46.15673" lon="6.66838">
        <ele>1171</ele>
        <time>2010-01-03T19:36:36Z</time>
      </trkpt>
      <trkpt lat="46.15668" lon="6.66851">
        <ele>1171</ele>
        <time>2010-01-03T19:36:40Z</time>
      </trkpt>
      <trkpt lat="46.15599" lon="6.66972">
        <ele>1196</ele>
        <time>2010-01-03T19:37:23Z</time>
      </trkpt>
      <trkpt lat="46.15537" lon="6.67123">
        <ele>1232</ele>
        <time>2010-01-03T19:38:12Z</time>
      </trkpt>
      <trkpt lat="46.15403" lon="6.67485">
        <ele>1255</ele>
        <time>2010-01-03T19:40:06Z</time>
      </trkpt>
      <trkpt lat="46.15184" lon="6.67911">
        <ele>1343</ele>
        <time>2010-01-03T19:42:33Z</time>
      </trkpt>
      <trkpt lat="46.15119" lon="6.68089">
        <ele>1400</ele>
        <time>2010-01-03T19:43:29Z</time>
      </trkpt>
      <trkpt lat="46.15003" lon="6.68379">
        <ele>1461</ele>
        <time>2010-01-03T19:45:02Z</time>
      </trkpt>
      <trkpt lat="46.1487" lon="6.68704">
        <ele>1509</ele>
        <time>2010-01-03T19:46:46Z</time>
      </trkpt>
      <trkpt lat="46.14627" lon="6.69145">
        <ele>1577</ele>
        <time>2010-01-03T19:49:22Z</time>
      </trkpt>
      <trkpt lat="46.14513" lon="6.69396">
        <ele>1610</ele>
        <time>2010-01-03T19:50:46Z</time>
      </trkpt>
      <trkpt lat="46.14528" lon="6.69438">
        <ele>1606</ele>
        <time>2010-01-03T19:50:59Z</time>
      </trkpt>
      <trkpt lat="46.14568" lon="6.69422">
        <ele>1605</ele>
        <time>2010-01-03T19:51:16Z</time>
      </trkpt>
      <trkpt lat="46.14593" lon="6.69389">
        <ele>1603</ele>
        <time>2010-01-03T19:51:29Z</time>
      </trkpt>
      <trkpt lat="46.14622" lon="6.69343">
        <ele>1602</ele>
        <time>2010-01-03T19:51:46Z</time>
      </trkpt>
      <trkpt lat="46.14654" lon="6.69318">
        <ele>1599</ele>
        <time>2010-01-03T19:52:01Z</time>
      </trkpt>
      <trkpt lat="46.14685" lon="6.69318">
        <ele>1596</ele>
        <time>2010-01-03T19:52:13Z</time>
      </trkpt>
      <trkpt lat="46.14721" lon="6.69315">
        <ele>1593</ele>
        <time>2010-01-03T19:52:28Z</time>
      </trkpt>
      <trkpt lat="46.14752" lon="6.69313">
        <ele>1587</ele>
        <time>2010-01-03T19:52:40Z</time>
      </trkpt>
      <trkpt lat="46.14786" lon="6.6931">
        <ele>1584</ele>
        <time>2010-01-03T19:52:54Z</time>
      </trkpt>
      <trkpt lat="46.14793" lon="6.69307">
        <ele>1583</ele>
        <time>2010-01-03T19:52:57Z</time>
      </trkpt>
      <trkpt lat="46.14828" lon="6.69296">
        <ele>1581</ele>
        <time>2010-01-03T19:53:11Z</time>
      </trkpt>
      <trkpt lat="46.14843" lon="6.69305">
        <ele>1573</ele>
        <time>2010-01-03T19:53:18Z</time>
      </trkpt>
      <trkpt lat="46.14868" lon="6.69324">
        <ele>1572</ele>
        <time>2010-01-03T19:53:29Z</time>
      </trkpt>
      <trkpt lat="46.1489" lon="6.6934">
        <ele>1567</ele>
        <time>2010-01-03T19:53:39Z</time>
      </trkpt>
      <trkpt lat="46.14922" lon="6.69376">
        <ele>1560</ele>
        <time>2010-01-03T19:53:55Z</time>
      </trkpt>
      <trkpt lat="46.14942" lon="6.69395">
        <ele>1559</ele>
        <time>2010-01-03T19:54:04Z</time>
      </trkpt>
      <trkpt lat="46.1498" lon="6.69423">
        <ele>1555</ele>
        <time>2010-01-03T19:54:21Z</time>
      </trkpt>
      <trkpt lat="46.15004" lon="6.69439">
        <ele>1553</ele>
        <time>2010-01-03T19:54:32Z</time>
      </trkpt>
      <trkpt lat="46.15026" lon="6.69452">
        <ele>1551</ele>
        <time>2010-01-03T19:54:42Z</time>
      </trkpt>
      <trkpt lat="46.15044" lon="6.69457">
        <ele>1550</ele>
        <time>2010-01-03T19:54:49Z</time>
      </trkpt>
      <trkpt lat="46.15073" lon="6.69459">
        <ele>1550</ele>
        <time>2010-01-03T19:55:01Z</time>
      </trkpt>
      <trkpt lat="46.15097" lon="6.69456">
        <ele>1546</ele>
        <time>2010-01-03T19:55:10Z</time>
      </trkpt>
      <trkpt lat="46.15113" lon="6.69444">
        <ele>1545</ele>
        <time>2010-01-03T19:55:18Z</time>
      </trkpt>
      <trkpt lat="46.15125" lon="6.69433">
        <ele>1545</ele>
        <time>2010-01-03T19:55:23Z</time>
      </trkpt>
      <trkpt lat="46.15134" lon="6.69417">
        <ele>1544</ele>
        <time>2010-01-03T19:55:29Z</time>
      </trkpt>
      <trkpt lat="46.15146" lon="6.69405">
        <ele>1540</ele>
        <time>2010-01-03T19:55:35Z</time>
      </trkpt>
      <trkpt lat="46.15162" lon="6.69395">
        <ele>1540</ele>
        <time>2010-01-03T19:55:42Z</time>
      </trkpt>
      <trkpt lat="46.15164" lon="6.69394">
        <ele>1540</ele>
        <time>2010-01-03T19:55:42Z</time>
      </trkpt>
      <trkpt lat="46.15183" lon="6.69382">
        <ele>1531</ele>
        <time>2010-01-03T19:55:51Z</time>
      </trkpt>
      <trkpt lat="46.15189" lon="6.6938">
        <ele>1530</ele>
        <time>2010-01-03T19:55:53Z</time>
      </trkpt>
      <trkpt lat="46.15205" lon="6.69377">
        <ele>1529</ele>
        <time>2010-01-03T19:56:00Z</time>
      </trkpt>
      <trkpt lat="46.15205" lon="6.69376">
        <ele>1529</ele>
        <time>2010-01-03T19:56:00Z</time>
      </trkpt>
      <trkpt lat="46.15218" lon="6.69378">
        <ele>1528</ele>
        <time>2010-01-03T19:56:05Z</time>
      </trkpt>
      <trkpt lat="46.1522" lon="6.69379">
        <ele>1528</ele>
        <time>2010-01-03T19:56:06Z</time>
      </trkpt>
      <trkpt lat="46.15233" lon="6.69388">
        <ele>1527</ele>
        <time>2010-01-03T19:56:12Z</time>
      </trkpt>
      <trkpt lat="46.15235" lon="6.69389">
        <ele>1527</ele>
        <time>2010-01-03T19:56:13Z</time>
      </trkpt>
      <trkpt lat="46.15248" lon="6.69401">
        <ele>1526</ele>
        <time>2010-01-03T19:56:19Z</time>
      </trkpt>
      <trkpt lat="46.15262" lon="6.6941">
        <ele>1523</ele>
        <time>2010-01-03T19:56:25Z</time>
      </trkpt>
      <trkpt lat="46.15281" lon="6.69415">
        <ele>1521</ele>
        <time>2010-01-03T19:56:33Z</time>
      </trkpt>
      <trkpt lat="46.15282" lon="6.69414">
        <ele>1521</ele>
        <time>2010-01-03T19:56:33Z</time>
      </trkpt>
      <trkpt lat="46.153" lon="6.69414">
        <ele>1520</ele>
        <time>2010-01-03T19:56:40Z</time>
      </trkpt>
      <trkpt lat="46.15361" lon="6.69431">
        <ele>1518</ele>
        <time>2010-01-03T19:57:05Z</time>
      </trkpt>
      <trkpt lat="46.15362" lon="6.6943">
        <ele>1518</ele>
        <time>2010-01-03T19:57:06Z</time>
      </trkpt>
      <trkpt lat="46.1541" lon="6.69434">
        <ele>1522</ele>
        <time>2010-01-03T19:57:25Z</time>
      </trkpt>
      <trkpt lat="46.15427" lon="6.69424">
        <ele>1525</ele>
        <time>2010-01-03T19:57:32Z</time>
      </trkpt>
      <trkpt lat="46.1543" lon="6.69424">
        <ele>1524</ele>
        <time>2010-01-03T19:57:33Z</time>
      </trkpt>
      <trkpt lat="46.15433" lon="6.69424">
        <ele>1524</ele>
        <time>2010-01-03T19:57:35Z</time>
      </trkpt>
      <trkpt lat="46.15459" lon="6.69417">
        <ele>1526</ele>
        <time>2010-01-03T19:57:45Z</time>
      </trkpt>
      <trkpt lat="46.15462" lon="6.69416">
        <ele>1526</ele>
        <time>2010-01-03T19:57:47Z</time>
      </trkpt>
      <trkpt lat="46.15475" lon="6.69417">
        <ele>1522</ele>
        <time>2010-01-03T19:57:52Z</time>
      </trkpt>
      <trkpt lat="46.15477" lon="6.69418">
        <ele>1522</ele>
        <time>2010-01-03T19:57:53Z</time>
      </trkpt>
      <trkpt lat="46.15525" lon="6.69414">
        <ele>1525</ele>
        <time>2010-01-03T19:58:12Z</time>
      </trkpt>
      <trkpt lat="46.15526" lon="6.6941">
        <ele>1525</ele>
        <time>2010-01-03T19:58:13Z</time>
      </trkpt>
      <trkpt lat="46.15558" lon="6.69391">
        <ele>1524</ele>
        <time>2010-01-03T19:58:27Z</time>
      </trkpt>
      <trkpt lat="46.15558" lon="6.69391">
        <ele>1524</ele>
        <time>2010-01-03T19:58:27Z</time>
      </trkpt>
      <trkpt lat="46.15562" lon="6.69389">
        <ele>1524</ele>
        <time>2010-01-03T19:58:28Z</time>
      </trkpt>
      <trkpt lat="46.15593" lon="6.6938">
        <ele>1521</ele>
        <time>2010-01-03T19:58:41Z</time>
      </trkpt>
      <trkpt lat="46.15596" lon="6.69377">
        <ele>1521</ele>
        <time>2010-01-03T19:58:42Z</time>
      </trkpt>
      <trkpt lat="46.15598" lon="6.69376">
        <ele>1521</ele>
        <time>2010-01-03T19:58:43Z</time>
      </trkpt>
      <trkpt lat="46.15598" lon="6.69375">
        <ele>1521</ele>
        <time>2010-01-03T19:58:44Z</time>
      </trkpt>
      <trkpt lat="46.156" lon="6.69371">
        <ele>1521</ele>
        <time>2010-01-03T19:58:45Z</time>
      </trkpt>
      <trkpt lat="46.1561" lon="6.69363">
        <ele>1522</ele>
        <time>2010-01-03T19:58:49Z</time>
      </trkpt>
      <trkpt lat="46.1561" lon="6.69361">
        <ele>1522</ele>
        <time>2010-01-03T19:58:50Z</time>
      </trkpt>
      <trkpt lat="46.15658" lon="6.69333">
        <ele>1526</ele>
        <time>2010-01-03T19:59:11Z</time>
      </trkpt>
      <trkpt lat="46.15694" lon="6.69326">
        <ele>1517</ele>
        <time>2010-01-03T19:59:25Z</time>
      </trkpt>
      <trkpt lat="46.15721" lon="6.69296">
        <ele>1512</ele>
        <time>2010-01-03T19:59:39Z</time>
      </trkpt>
      <trkpt lat="46.15766" lon="6.6928">
        <ele>1501</ele>
        <time>2010-01-03T19:59:58Z</time>
      </trkpt>
      <trkpt lat="46.15816" lon="6.69262">
        <ele>1499</ele>
        <time>2010-01-03T20:00:18Z</time>
      </trkpt>
      <trkpt lat="46.15892" lon="6.69273">
        <ele>1497</ele>
        <time>2010-01-03T20:00:49Z</time>
      </trkpt>
      <trkpt lat="46.15941" lon="6.69326">
        <ele>1500</ele>
        <time>2010-01-03T20:01:13Z</time>
      </trkpt>
      <trkpt lat="46.15961" lon="6.6935">
        <ele>1498</ele>
        <time>2010-01-03T20:01:24Z</time>
      </trkpt>
      <trkpt lat="46.16014" lon="6.69366">
        <ele>1511</ele>
        <time>2010-01-03T20:01:45Z</time>
      </trkpt>
      <trkpt lat="46.16063" lon="6.69408">
        <ele>1520</ele>
        <time>2010-01-03T20:02:08Z</time>
      </trkpt>
      <trkpt lat="46.16097" lon="6.69454">
        <ele>1530</ele>
        <time>2010-01-03T20:02:27Z</time>
      </trkpt>
      <trkpt lat="46.16206" lon="6.69488">
        <ele>1538</ele>
        <time>2010-01-03T20:03:11Z</time>
      </trkpt>
      <trkpt lat="46.16247" lon="6.69473">
        <ele>1538</ele>
        <time>2010-01-03T20:03:28Z</time>
      </trkpt>
      <trkpt lat="46.16305" lon="6.69362">
        <ele>1540</ele>
        <time>2010-01-03T20:04:07Z</time>
      </trkpt>
      <trkpt lat="46.1641" lon="6.69316">
        <ele>1532</ele>
        <time>2010-01-03T20:04:51Z</time>
      </trkpt>
      <trkpt lat="46.16427" lon="6.69314">
        <ele>1529</ele>
        <time>2010-01-03T20:04:58Z</time>
      </trkpt>
      <trkpt lat="46.16486" lon="6.69301">
        <ele>1527</ele>
        <time>2010-01-03T20:05:22Z</time>
      </trkpt>
      <trkpt lat="46.16556" lon="6.69284">
        <ele>1527</ele>
        <time>2010-01-03T20:05:50Z</time>
      </trkpt>
      <trkpt lat="46.16623" lon="6.69288">
        <ele>1524</ele>
        <time>2010-01-03T20:06:17Z</time>
      </trkpt>
      <trkpt lat="46.16631" lon="6.69288">
        <ele>1524</ele>
        <time>2010-01-03T20:06:20Z</time>
      </trkpt>
      <trkpt lat="46.16714" lon="6.69259">
        <ele>1521</ele>
        <time>2010-01-03T20:06:54Z</time>
      </trkpt>
      <trkpt lat="46.16769" lon="6.6924">
        <ele>1519</ele>
        <time>2010-01-03T20:07:17Z</time>
      </trkpt>
      <trkpt lat="46.16856" lon="6.69218">
        <ele>1509</ele>
        <time>2010-01-03T20:07:52Z</time>
      </trkpt>
      <trkpt lat="46.16881" lon="6.69216">
        <ele>1507</ele>
        <time>2010-01-03T20:08:02Z</time>
      </trkpt>
      <trkpt lat="46.16905" lon="6.69214">
        <ele>1506</ele>
        <time>2010-01-03T20:08:12Z</time>
      </trkpt>
      <trkpt lat="46.16975" lon="6.69214">
        <ele>1495</ele>
        <time>2010-01-03T20:08:40Z</time>
      </trkpt>
      <trkpt lat="46.16824" lon="6.69224">
        <ele>1515</ele>
        <time>2010-01-03T20:09:41Z</time>
      </trkpt>
      <trkpt lat="46.16725" lon="6.69271">
        <ele>1519</ele>
        <time>2010-01-03T20:10:22Z</time>
      </trkpt>
      <trkpt lat="46.16664" lon="6.6928">
        <ele>1525</ele>
        <time>2010-01-03T20:10:47Z</time>
      </trkpt>
      <trkpt lat="46.16617" lon="6.69301">
        <ele>1523</ele>
        <time>2010-01-03T20:11:07Z</time>
      </trkpt>
      <trkpt lat="46.16561" lon="6.69306">
        <ele>1525</ele>
        <time>2010-01-03T20:11:29Z</time>
      </trkpt>
      <trkpt lat="46.16512" lon="6.69307">
        <ele>1525</ele>
        <time>2010-01-03T20:11:49Z</time>
      </trkpt>
      <trkpt lat="46.16472" lon="6.69308">
        <ele>1527</ele>
        <time>2010-01-03T20:12:05Z</time>
      </trkpt>
      <trkpt lat="46.16418" lon="6.69324">
        <ele>1530</ele>
        <time>2010-01-03T20:12:27Z</time>
      </trkpt>
      <trkpt lat="46.16459" lon="6.69328">
        <ele>1528</ele>
        <time>2010-01-03T20:12:44Z</time>
      </trkpt>
      <trkpt lat="46.16513" lon="6.69334">
        <ele>1516</ele>
        <time>2010-01-03T20:13:05Z</time>
      </trkpt>
      <trkpt lat="46.16548" lon="6.69348">
        <ele>1510</ele>
        <time>2010-01-03T20:13:20Z</time>
      </trkpt>
      <trkpt lat="46.16614" lon="6.69354">
        <ele>1502</ele>
        <time>2010-01-03T20:13:46Z</time>
      </trkpt>
      <trkpt lat="46.16679" lon="6.69355">
        <ele>1494</ele>
        <time>2010-01-03T20:14:12Z</time>
      </trkpt>
      <trkpt lat="46.16743" lon="6.69358">
        <ele>1490</ele>
        <time>2010-01-03T20:14:38Z</time>
      </trkpt>
      <trkpt lat="46.16851" lon="6.69377">
        <ele>1474</ele>
        <time>2010-01-03T20:15:22Z</time>
      </trkpt>
      <trkpt lat="46.16911" lon="6.69391">
        <ele>1468</ele>
        <time>2010-01-03T20:15:46Z</time>
      </trkpt>
      <trkpt lat="46.16959" lon="6.69401">
        <ele>1459</ele>
        <time>2010-01-03T20:16:05Z</time>
      </trkpt>
      <trkpt lat="46.17" lon="6.69412">
        <ele>1444</ele>
        <time>2010-01-03T20:16:22Z</time>
      </trkpt>
      <trkpt lat="46.16983" lon="6.69418">
        <ele>1441</ele>
        <time>2010-01-03T20:16:29Z</time>
      </trkpt>
      <trkpt lat="46.16961" lon="6.6944">
        <ele>1439</ele>
        <time>2010-01-03T20:16:40Z</time>
      </trkpt>
      <trkpt lat="46.16938" lon="6.69449">
        <ele>1439</ele>
        <time>2010-01-03T20:16:49Z</time>
      </trkpt>
      <trkpt lat="46.16909" lon="6.6946">
        <ele>1438</ele>
        <time>2010-01-03T20:17:01Z</time>
      </trkpt>
      <trkpt lat="46.1684" lon="6.69476">
        <ele>1431</ele>
        <time>2010-01-03T20:17:29Z</time>
      </trkpt>
      <trkpt lat="46.16748" lon="6.69513">
        <ele>1418</ele>
        <time>2010-01-03T20:18:07Z</time>
      </trkpt>
      <trkpt lat="46.16666" lon="6.69555">
        <ele>1416</ele>
        <time>2010-01-03T20:18:42Z</time>
      </trkpt>
      <trkpt lat="46.16613" lon="6.69574">
        <ele>1415</ele>
        <time>2010-01-03T20:19:04Z</time>
      </trkpt>
      <trkpt lat="46.166" lon="6.69575">
        <ele>1413</ele>
        <time>2010-01-03T20:19:10Z</time>
      </trkpt>
      <trkpt lat="46.16594" lon="6.69576">
        <ele>1412</ele>
        <time>2010-01-03T20:19:12Z</time>
      </trkpt>
      <trkpt lat="46.16596" lon="6.69584">
        <ele>1399</ele>
        <time>2010-01-03T20:19:14Z</time>
      </trkpt>
      <trkpt lat="46.1661" lon="6.69596">
        <ele>1394</ele>
        <time>2010-01-03T20:19:21Z</time>
      </trkpt>
      <trkpt lat="46.16645" lon="6.69611">
        <ele>1391</ele>
        <time>2010-01-03T20:19:36Z</time>
      </trkpt>
      <trkpt lat="46.16671" lon="6.69626">
        <ele>1384</ele>
        <time>2010-01-03T20:19:47Z</time>
      </trkpt>
      <trkpt lat="46.16705" lon="6.69636">
        <ele>1381</ele>
        <time>2010-01-03T20:20:01Z</time>
      </trkpt>
      <trkpt lat="46.16721" lon="6.69636">
        <ele>1380</ele>
        <time>2010-01-03T20:20:07Z</time>
      </trkpt>
      <trkpt lat="46.16742" lon="6.69641">
        <ele>1377</ele>
        <time>2010-01-03T20:20:16Z</time>
      </trkpt>
      <trkpt lat="46.16749" lon="6.69644">
        <ele>1375</ele>
        <time>2010-01-03T20:20:18Z</time>
      </trkpt>
      <trkpt lat="46.16764" lon="6.6965">
        <ele>1369</ele>
        <time>2010-01-03T20:20:25Z</time>
      </trkpt>
      <trkpt lat="46.16782" lon="6.69648">
        <ele>1369</ele>
        <time>2010-01-03T20:20:32Z</time>
      </trkpt>
      <trkpt lat="46.16801" lon="6.69644">
        <ele>1367</ele>
        <time>2010-01-03T20:20:40Z</time>
      </trkpt>
      <trkpt lat="46.16814" lon="6.69649">
        <ele>1364</ele>
        <time>2010-01-03T20:20:45Z</time>
      </trkpt>
      <trkpt lat="46.16836" lon="6.69676">
        <ele>1346</ele>
        <time>2010-01-03T20:20:57Z</time>
      </trkpt>
      <trkpt lat="46.16841" lon="6.69679">
        <ele>1345</ele>
        <time>2010-01-03T20:20:59Z</time>
      </trkpt>
      <trkpt lat="46.16859" lon="6.69702">
        <ele>1341</ele>
        <time>2010-01-03T20:21:08Z</time>
      </trkpt>
      <trkpt lat="46.16867" lon="6.69715">
        <ele>1340</ele>
        <time>2010-01-03T20:21:13Z</time>
      </trkpt>
      <trkpt lat="46.16867" lon="6.69715">
        <ele>1340</ele>
        <time>2010-01-03T20:21:13Z</time>
      </trkpt>
      <trkpt lat="46.16895" lon="6.69728">
        <ele>1338</ele>
        <time>2010-01-03T20:21:25Z</time>
      </trkpt>
      <trkpt lat="46.16898" lon="6.69729">
        <ele>1338</ele>
        <time>2010-01-03T20:21:26Z</time>
      </trkpt>
      <trkpt lat="46.16972" lon="6.69766">
        <ele>1322</ele>
        <time>2010-01-03T20:21:58Z</time>
      </trkpt>
      <trkpt lat="46.17028" lon="6.6979">
        <ele>1314</ele>
        <time>2010-01-03T20:22:21Z</time>
      </trkpt>
      <trkpt lat="46.17059" lon="6.69798">
        <ele>1311</ele>
        <time>2010-01-03T20:22:34Z</time>
      </trkpt>
      <trkpt lat="46.1709" lon="6.69797">
        <ele>1303</ele>
        <time>2010-01-03T20:22:46Z</time>
      </trkpt>
      <trkpt lat="46.17117" lon="6.69786">
        <ele>1303</ele>
        <time>2010-01-03T20:22:57Z</time>
      </trkpt>
      <trkpt lat="46.17153" lon="6.69773">
        <ele>1301</ele>
        <time>2010-01-03T20:23:12Z</time>
      </trkpt>
      <trkpt lat="46.17184" lon="6.69745">
        <ele>1306</ele>
        <time>2010-01-03T20:23:27Z</time>
      </trkpt>
      <trkpt lat="46.17215" lon="6.69725">
        <ele>1307</ele>
        <time>2010-01-03T20:23:40Z</time>
      </trkpt>
      <trkpt lat="46.17223" lon="6.69723">
        <ele>1307</ele>
        <time>2010-01-03T20:23:43Z</time>
      </trkpt>
      <trkpt lat="46.17264" lon="6.69679">
        <ele>1305</ele>
        <time>2010-01-03T20:24:04Z</time>
      </trkpt>
      <trkpt lat="46.17289" lon="6.69644">
        <ele>1308</ele>
        <time>2010-01-03T20:24:18Z</time>
      </trkpt>
      <trkpt lat="46.17306" lon="6.69602">
        <ele>1308</ele>
        <time>2010-01-03T20:24:31Z</time>
      </trkpt>
      <trkpt lat="46.1732" lon="6.69569">
        <ele>1311</ele>
        <time>2010-01-03T20:24:42Z</time>
      </trkpt>
      <trkpt lat="46.17336" lon="6.69545">
        <ele>1302</ele>
        <time>2010-01-03T20:24:51Z</time>
      </trkpt>
      <trkpt lat="46.17356" lon="6.69521">
        <ele>1302</ele>
        <time>2010-01-03T20:25:02Z</time>
      </trkpt>
      <trkpt lat="46.17357" lon="6.6952">
        <ele>1302</ele>
        <time>2010-01-03T20:25:02Z</time>
      </trkpt>
      <trkpt lat="46.17379" lon="6.69497">
        <ele>1305</ele>
        <time>2010-01-03T20:25:13Z</time>
      </trkpt>
      <trkpt lat="46.17394" lon="6.69478">
        <ele>1304</ele>
        <time>2010-01-03T20:25:21Z</time>
      </trkpt>
      <trkpt lat="46.17408" lon="6.69459">
        <ele>1305</ele>
        <time>2010-01-03T20:25:29Z</time>
      </trkpt>
      <trkpt lat="46.17412" lon="6.69449">
        <ele>1305</ele>
        <time>2010-01-03T20:25:32Z</time>
      </trkpt>
      <trkpt lat="46.17418" lon="6.69431">
        <ele>1299</ele>
        <time>2010-01-03T20:25:37Z</time>
      </trkpt>
      <trkpt lat="46.1743" lon="6.6941">
        <ele>1305</ele>
        <time>2010-01-03T20:25:45Z</time>
      </trkpt>
      <trkpt lat="46.17443" lon="6.69385">
        <ele>1307</ele>
        <time>2010-01-03T20:25:54Z</time>
      </trkpt>
      <trkpt lat="46.17459" lon="6.69359">
        <ele>1309</ele>
        <time>2010-01-03T20:26:04Z</time>
      </trkpt>
      <trkpt lat="46.17506" lon="6.69364">
        <ele>1303</ele>
        <time>2010-01-03T20:26:23Z</time>
      </trkpt>
      <trkpt lat="46.17547" lon="6.69371">
        <ele>1298</ele>
        <time>2010-01-03T20:26:39Z</time>
      </trkpt>
      <trkpt lat="46.17576" lon="6.69366">
        <ele>1297</ele>
        <time>2010-01-03T20:26:51Z</time>
      </trkpt>
      <trkpt lat="46.17602" lon="6.69352">
        <ele>1289</ele>
        <time>2010-01-03T20:27:02Z</time>
      </trkpt>
      <trkpt lat="46.17649" lon="6.69292">
        <ele>1292</ele>
        <time>2010-01-03T20:27:27Z</time>
      </trkpt>
      <trkpt lat="46.1766" lon="6.69247">
        <ele>1292</ele>
        <time>2010-01-03T20:27:40Z</time>
      </trkpt>
      <trkpt lat="46.17682" lon="6.69223">
        <ele>1287</ele>
        <time>2010-01-03T20:27:51Z</time>
      </trkpt>
      <trkpt lat="46.17692" lon="6.69217">
        <ele>1287</ele>
        <time>2010-01-03T20:27:55Z</time>
      </trkpt>
      <trkpt lat="46.17725" lon="6.69188">
        <ele>1285</ele>
        <time>2010-01-03T20:28:11Z</time>
      </trkpt>
      <trkpt lat="46.17761" lon="6.69157">
        <ele>1279</ele>
        <time>2010-01-03T20:28:28Z</time>
      </trkpt>
      <trkpt lat="46.17768" lon="6.69128">
        <ele>1278</ele>
        <time>2010-01-03T20:28:36Z</time>
      </trkpt>
      <trkpt lat="46.17787" lon="6.69118">
        <ele>1276</ele>
        <time>2010-01-03T20:28:44Z</time>
      </trkpt>
      <trkpt lat="46.17815" lon="6.69097">
        <ele>1271</ele>
        <time>2010-01-03T20:28:57Z</time>
      </trkpt>
      <trkpt lat="46.1785" lon="6.69079">
        <ele>1259</ele>
        <time>2010-01-03T20:29:12Z</time>
      </trkpt>
      <trkpt lat="46.17893" lon="6.69067">
        <ele>1252</ele>
        <time>2010-01-03T20:29:29Z</time>
      </trkpt>
      <trkpt lat="46.17925" lon="6.69056">
        <ele>1240</ele>
        <time>2010-01-03T20:29:42Z</time>
      </trkpt>
      <trkpt lat="46.17951" lon="6.6905">
        <ele>1236</ele>
        <time>2010-01-03T20:29:53Z</time>
      </trkpt>
      <trkpt lat="46.1799" lon="6.69074">
        <ele>1230</ele>
        <time>2010-01-03T20:30:10Z</time>
      </trkpt>
      <trkpt lat="46.18018" lon="6.69075">
        <ele>1222</ele>
        <time>2010-01-03T20:30:21Z</time>
      </trkpt>
      <trkpt lat="46.18035" lon="6.69059">
        <ele>1220</ele>
        <time>2010-01-03T20:30:29Z</time>
      </trkpt>
      <trkpt lat="46.18076" lon="6.69028">
        <ele>1218</ele>
        <time>2010-01-03T20:30:48Z</time>
      </trkpt>
      <trkpt lat="46.18114" lon="6.68981">
        <ele>1210</ele>
        <time>2010-01-03T20:31:08Z</time>
      </trkpt>
      <trkpt lat="46.18117" lon="6.68969">
        <ele>1209</ele>
        <time>2010-01-03T20:31:11Z</time>
      </trkpt>
      <trkpt lat="46.18148" lon="6.6893">
        <ele>1205</ele>
        <time>2010-01-03T20:31:28Z</time>
      </trkpt>
      <trkpt lat="46.18194" lon="6.68892">
        <ele>1188</ele>
        <time>2010-01-03T20:31:49Z</time>
      </trkpt>
      <trkpt lat="46.18243" lon="6.68852">
        <ele>1180</ele>
        <time>2010-01-03T20:32:12Z</time>
      </trkpt>
      <trkpt lat="46.18328" lon="6.68857">
        <ele>1173</ele>
        <time>2010-01-03T20:32:45Z</time>
      </trkpt>
      <trkpt lat="46.18411" lon="6.68873">
        <ele>1162</ele>
        <time>2010-01-03T20:33:19Z</time>
      </trkpt>
      <trkpt lat="46.18476" lon="6.68926">
        <ele>1146</ele>
        <time>2010-01-03T20:33:49Z</time>
      </trkpt>
      <trkpt lat="46.18522" lon="6.68989">
        <ele>1131</ele>
        <time>2010-01-03T20:34:14Z</time>
      </trkpt>
      <trkpt lat="46.18547" lon="6.69062">
        <ele>1114</ele>
        <time>2010-01-03T20:34:37Z</time>
      </trkpt>
      <trkpt lat="46.18541" lon="6.69143">
        <ele>1101</ele>
        <time>2010-01-03T20:34:59Z</time>
      </trkpt>
      <trkpt lat="46.18459" lon="6.69268">
        <ele>1079</ele>
        <time>2010-01-03T20:35:47Z</time>
      </trkpt>
      <trkpt lat="46.18356" lon="6.69342">
        <ele>1075</ele>
        <time>2010-01-03T20:36:33Z</time>
      </trkpt>
      <trkpt lat="46.18297" lon="6.69436">
        <ele>1058</ele>
        <time>2010-01-03T20:37:08Z</time>
      </trkpt>
      <trkpt lat="46.18216" lon="6.69582">
        <ele>1045</ele>
        <time>2010-01-03T20:38:00Z</time>
      </trkpt>
      <trkpt lat="46.18168" lon="6.69636">
        <ele>1028</ele>
        <time>2010-01-03T20:38:25Z</time>
      </trkpt>
      <trkpt lat="46.18137" lon="6.69687">
        <ele>1034</ele>
        <time>2010-01-03T20:38:43Z</time>
      </trkpt>
      <trkpt lat="46.18125" lon="6.69753">
        <ele>1016</ele>
        <time>2010-01-03T20:39:02Z</time>
      </trkpt>
      <trkpt lat="46.18085" lon="6.69798">
        <ele>1015</ele>
        <time>2010-01-03T20:39:23Z</time>
      </trkpt>
      <trkpt lat="46.18085" lon="6.69873">
        <ele>998</ele>
        <time>2010-01-03T20:39:43Z</time>
      </trkpt>
      <trkpt lat="46.18099" lon="6.69947">
        <ele>988</ele>
        <time>2010-01-03T20:40:05Z</time>
      </trkpt>
      <trkpt lat="46.18209" lon="6.70091">
        <ele>975</ele>
        <time>2010-01-03T20:41:04Z</time>
      </trkpt>
      <trkpt lat="46.1832" lon="6.70255">
        <ele>971</ele>
        <time>2010-01-03T20:42:08Z</time>
      </trkpt>
      <trkpt lat="46.18361" lon="6.70376">
        <ele>955</ele>
        <time>2010-01-03T20:42:45Z</time>
      </trkpt>
      <trkpt lat="46.18394" lon="6.70423">
        <ele>947</ele>
        <time>2010-01-03T20:43:04Z</time>
      </trkpt>
      <trkpt lat="46.18421" lon="6.70506">
        <ele>956</ele>
        <time>2010-01-03T20:43:29Z</time>
      </trkpt>
      <trkpt lat="46.18436" lon="6.70509">
        <ele>962</ele>
        <time>2010-01-03T20:43:35Z</time>
      </trkpt>
      <trkpt lat="46.18466" lon="6.70545">
        <ele>970</ele>
        <time>2010-01-03T20:43:51Z</time>
      </trkpt>
      <trkpt lat="46.18473" lon="6.70572">
        <ele>974</ele>
        <time>2010-01-03T20:43:59Z</time>
      </trkpt>
      <trkpt lat="46.18535" lon="6.70729">
        <ele>1031</ele>
        <time>2010-01-03T20:44:49Z</time>
      </trkpt>
      <trkpt lat="46.18659" lon="6.70836">
        <ele>1122</ele>
        <time>2010-01-03T20:45:47Z</time>
      </trkpt>
      <trkpt lat="46.18706" lon="6.70973">
        <ele>1181</ele>
        <time>2010-01-03T20:46:29Z</time>
      </trkpt>
      <trkpt lat="46.18814" lon="6.71177">
        <ele>1283</ele>
        <time>2010-01-03T20:47:40Z</time>
      </trkpt>
      <trkpt lat="46.1888" lon="6.71327">
        <ele>1331</ele>
        <time>2010-01-03T20:48:29Z</time>
      </trkpt>
      <trkpt lat="46.18955" lon="6.71477">
        <ele>1378</ele>
        <time>2010-01-03T20:49:21Z</time>
      </trkpt>
      <trkpt lat="46.19057" lon="6.71655">
        <ele>1426</ele>
        <time>2010-01-03T20:50:25Z</time>
      </trkpt>
      <trkpt lat="46.1911" lon="6.71769">
        <ele>1458</ele>
        <time>2010-01-03T20:51:03Z</time>
      </trkpt>
      <trkpt lat="46.19117" lon="6.71791">
        <ele>1460</ele>
        <time>2010-01-03T20:51:10Z</time>
      </trkpt>
      <trkpt lat="46.19117" lon="6.71812">
        <ele>1461</ele>
        <time>2010-01-03T20:51:15Z</time>
      </trkpt>
      <trkpt lat="46.19113" lon="6.71821">
        <ele>1461</ele>
        <time>2010-01-03T20:51:18Z</time>
      </trkpt>
      <trkpt lat="46.19106" lon="6.71822">
        <ele>1461</ele>
        <time>2010-01-03T20:51:21Z</time>
      </trkpt>
      <trkpt lat="46.19093" lon="6.71801">
        <ele>1460</ele>
        <time>2010-01-03T20:51:29Z</time>
      </trkpt>
      <trkpt lat="46.19092" lon="6.718">
        <ele>1460</ele>
        <time>2010-01-03T20:51:29Z</time>
      </trkpt>
      <trkpt lat="46.19075" lon="6.718">
        <ele>1454</ele>
        <time>2010-01-03T20:51:36Z</time>
      </trkpt>
      <trkpt lat="46.19062" lon="6.71799">
        <ele>1454</ele>
        <time>2010-01-03T20:51:41Z</time>
      </trkpt>
      <trkpt lat="46.1906" lon="6.71798">
        <ele>1453</ele>
        <time>2010-01-03T20:51:42Z</time>
      </trkpt>
      <trkpt lat="46.19052" lon="6.71794">
        <ele>1453</ele>
        <time>2010-01-03T20:51:45Z</time>
      </trkpt>
      <trkpt lat="46.19051" lon="6.71794">
        <ele>1453</ele>
        <time>2010-01-03T20:51:46Z</time>
      </trkpt>
      <trkpt lat="46.19043" lon="6.71787">
        <ele>1452</ele>
        <time>2010-01-03T20:51:50Z</time>
      </trkpt>
      <trkpt lat="46.1904" lon="6.71785">
        <ele>1451</ele>
        <time>2010-01-03T20:51:51Z</time>
      </trkpt>
      <trkpt lat="46.19038" lon="6.71785">
        <ele>1451</ele>
        <time>2010-01-03T20:51:52Z</time>
      </trkpt>
      <trkpt lat="46.19028" lon="6.71784">
        <ele>1451</ele>
        <time>2010-01-03T20:51:56Z</time>
      </trkpt>
      <trkpt lat="46.19027" lon="6.71794">
        <ele>1451</ele>
        <time>2010-01-03T20:51:59Z</time>
      </trkpt>
      <trkpt lat="46.19074" lon="6.7191">
        <ele>1471</ele>
        <time>2010-01-03T20:52:36Z</time>
      </trkpt>
      <trkpt lat="46.19145" lon="6.72053">
        <ele>1506</ele>
        <time>2010-01-03T20:53:24Z</time>
      </trkpt>
      <trkpt lat="46.19632" lon="6.73213">
        <ele>1741</ele>
        <time>2010-01-03T20:59:41Z</time>
      </trkpt>
      <trkpt lat="46.19629" lon="6.73293">
        <ele>1742</ele>
        <time>2010-01-03T21:00:03Z</time>
      </trkpt>
      <trkpt lat="46.19621" lon="6.73314">
        <ele>1742</ele>
        <time>2010-01-03T21:00:09Z</time>
      </trkpt>
      <trkpt lat="46.19609" lon="6.7335">
        <ele>1740</ele>
        <time>2010-01-03T21:00:20Z</time>
      </trkpt>
      <trkpt lat="46.19603" lon="6.7341">
        <ele>1740</ele>
        <time>2010-01-03T21:00:37Z</time>
      </trkpt>
      <trkpt lat="46.19621" lon="6.7348">
        <ele>1738</ele>
        <time>2010-01-03T21:00:58Z</time>
      </trkpt>
      <trkpt lat="46.19627" lon="6.73532">
        <ele>1737</ele>
        <time>2010-01-03T21:01:12Z</time>
      </trkpt>
      <trkpt lat="46.19657" lon="6.73591">
        <ele>1740</ele>
        <time>2010-01-03T21:01:33Z</time>
      </trkpt>
      <trkpt lat="46.19678" lon="6.73624">
        <ele>1738</ele>
        <time>2010-01-03T21:01:45Z</time>
      </trkpt>
      <trkpt lat="46.19719" lon="6.73677">
        <ele>1740</ele>
        <time>2010-01-03T21:02:07Z</time>
      </trkpt>
      <trkpt lat="46.19801" lon="6.73799">
        <ele>1750</ele>
        <time>2010-01-03T21:02:54Z</time>
      </trkpt>
      <trkpt lat="46.19873" lon="6.73958">
        <ele>1755</ele>
        <time>2010-01-03T21:03:47Z</time>
      </trkpt>
      <trkpt lat="46.19908" lon="6.74006">
        <ele>1754</ele>
        <time>2010-01-03T21:04:06Z</time>
      </trkpt>
      <trkpt lat="46.19932" lon="6.74043">
        <ele>1752</ele>
        <time>2010-01-03T21:04:20Z</time>
      </trkpt>
      <trkpt lat="46.1999" lon="6.74108">
        <ele>1756</ele>
        <time>2010-01-03T21:04:50Z</time>
      </trkpt>
      <trkpt lat="46.20023" lon="6.74197">
        <ele>1755</ele>
        <time>2010-01-03T21:05:17Z</time>
      </trkpt>
      <trkpt lat="46.20043" lon="6.74249">
        <ele>1754</ele>
        <time>2010-01-03T21:05:34Z</time>
      </trkpt>
      <trkpt lat="46.20046" lon="6.74277">
        <ele>1755</ele>
        <time>2010-01-03T21:05:42Z</time>
      </trkpt>
      <trkpt lat="46.2004" lon="6.74307">
        <ele>1755</ele>
        <time>2010-01-03T21:05:51Z</time>
      </trkpt>
      <trkpt lat="46.20036" lon="6.74364">
        <ele>1751</ele>
        <time>2010-01-03T21:06:06Z</time>
      </trkpt>
      <trkpt lat="46.20043" lon="6.74393">
        <ele>1750</ele>
        <time>2010-01-03T21:06:15Z</time>
      </trkpt>
      <trkpt lat="46.2005" lon="6.74449">
        <ele>1745</ele>
        <time>2010-01-03T21:06:31Z</time>
      </trkpt>
      <trkpt lat="46.20055" lon="6.74492">
        <ele>1745</ele>
        <time>2010-01-03T21:06:43Z</time>
      </trkpt>
      <trkpt lat="46.20056" lon="6.74526">
        <ele>1740</ele>
        <time>2010-01-03T21:06:52Z</time>
      </trkpt>
      <trkpt lat="46.20059" lon="6.74553">
        <ele>1739</ele>
        <time>2010-01-03T21:07:00Z</time>
      </trkpt>
      <trkpt lat="46.2006" lon="6.74555">
        <ele>1739</ele>
        <time>2010-01-03T21:07:00Z</time>
      </trkpt>
      <trkpt lat="46.20071" lon="6.74578">
        <ele>1740</ele>
        <time>2010-01-03T21:07:08Z</time>
      </trkpt>
      <trkpt lat="46.20073" lon="6.74604">
        <ele>1738</ele>
        <time>2010-01-03T21:07:15Z</time>
      </trkpt>
      <trkpt lat="46.20073" lon="6.74616">
        <ele>1737</ele>
        <time>2010-01-03T21:07:19Z</time>
      </trkpt>
      <trkpt lat="46.20072" lon="6.74645">
        <ele>1738</ele>
        <time>2010-01-03T21:07:27Z</time>
      </trkpt>
      <trkpt lat="46.20072" lon="6.74646">
        <ele>1738</ele>
        <time>2010-01-03T21:07:27Z</time>
      </trkpt>
      <trkpt lat="46.20078" lon="6.74707">
        <ele>1736</ele>
        <time>2010-01-03T21:07:44Z</time>
      </trkpt>
      <trkpt lat="46.20083" lon="6.74747">
        <ele>1742</ele>
        <time>2010-01-03T21:07:55Z</time>
      </trkpt>
      <trkpt lat="46.20093" lon="6.74841">
        <ele>1740</ele>
        <time>2010-01-03T21:08:22Z</time>
      </trkpt>
      <trkpt lat="46.20093" lon="6.74885">
        <ele>1738</ele>
        <time>2010-01-03T21:08:34Z</time>
      </trkpt>
      <trkpt lat="46.20107" lon="6.74982">
        <ele>1743</ele>
        <time>2010-01-03T21:09:01Z</time>
      </trkpt>
      <trkpt lat="46.20125" lon="6.75107">
        <ele>1750</ele>
        <time>2010-01-03T21:09:37Z</time>
      </trkpt>
      <trkpt lat="46.20133" lon="6.75199">
        <ele>1752</ele>
        <time>2010-01-03T21:10:02Z</time>
      </trkpt>
      <trkpt lat="46.20131" lon="6.75297">
        <ele>1755</ele>
        <time>2010-01-03T21:10:30Z</time>
      </trkpt>
      <trkpt lat="46.20121" lon="6.75378">
        <ele>1758</ele>
        <time>2010-01-03T21:10:52Z</time>
      </trkpt>
      <trkpt lat="46.20113" lon="6.75437">
        <ele>1759</ele>
        <time>2010-01-03T21:11:09Z</time>
      </trkpt>
      <trkpt lat="46.20108" lon="6.75467">
        <ele>1760</ele>
        <time>2010-01-03T21:11:18Z</time>
      </trkpt>
      <trkpt lat="46.20105" lon="6.75577">
        <ele>1761</ele>
        <time>2010-01-03T21:11:48Z</time>
      </trkpt>
      <trkpt lat="46.201" lon="6.75671">
        <ele>1763</ele>
        <time>2010-01-03T21:12:14Z</time>
      </trkpt>
      <trkpt lat="46.20097" lon="6.75695">
        <ele>1765</ele>
        <time>2010-01-03T21:12:21Z</time>
      </trkpt>
      <trkpt lat="46.20097" lon="6.75696">
        <ele>1765</ele>
        <time>2010-01-03T21:12:21Z</time>
      </trkpt>
      <trkpt lat="46.20084" lon="6.75723">
        <ele>1765</ele>
        <time>2010-01-03T21:12:30Z</time>
      </trkpt>
      <trkpt lat="46.20072" lon="6.75754">
        <ele>1761</ele>
        <time>2010-01-03T21:12:40Z</time>
      </trkpt>
      <trkpt lat="46.20069" lon="6.75758">
        <ele>1760</ele>
        <time>2010-01-03T21:12:42Z</time>
      </trkpt>
      <trkpt lat="46.20062" lon="6.75768">
        <ele>1759</ele>
        <time>2010-01-03T21:12:46Z</time>
      </trkpt>
      <trkpt lat="46.20056" lon="6.75785">
        <ele>1758</ele>
        <time>2010-01-03T21:12:51Z</time>
      </trkpt>
      <trkpt lat="46.20054" lon="6.75792">
        <ele>1758</ele>
        <time>2010-01-03T21:12:53Z</time>
      </trkpt>
      <trkpt lat="46.20054" lon="6.75812">
        <ele>1759</ele>
        <time>2010-01-03T21:12:59Z</time>
      </trkpt>
      <trkpt lat="46.20053" lon="6.7583">
        <ele>1759</ele>
        <time>2010-01-03T21:13:04Z</time>
      </trkpt>
      <trkpt lat="46.20054" lon="6.75847">
        <ele>1758</ele>
        <time>2010-01-03T21:13:08Z</time>
      </trkpt>
      <trkpt lat="46.20051" lon="6.75865">
        <ele>1756</ele>
        <time>2010-01-03T21:13:14Z</time>
      </trkpt>
      <trkpt lat="46.20042" lon="6.75879">
        <ele>1756</ele>
        <time>2010-01-03T21:13:19Z</time>
      </trkpt>
      <trkpt lat="46.20032" lon="6.75895">
        <ele>1756</ele>
        <time>2010-01-03T21:13:25Z</time>
      </trkpt>
      <trkpt lat="46.20025" lon="6.75907">
        <ele>1756</ele>
        <time>2010-01-03T21:13:29Z</time>
      </trkpt>
      <trkpt lat="46.20016" lon="6.7592">
        <ele>1753</ele>
        <time>2010-01-03T21:13:34Z</time>
      </trkpt>
      <trkpt lat="46.2002" lon="6.75928">
        <ele>1752</ele>
        <time>2010-01-03T21:13:37Z</time>
      </trkpt>
      <trkpt lat="46.2002" lon="6.75928">
        <ele>1752</ele>
        <time>2010-01-03T21:13:37Z</time>
      </trkpt>
      <trkpt lat="46.20032" lon="6.75924">
        <ele>1750</ele>
        <time>2010-01-03T21:13:42Z</time>
      </trkpt>
      <trkpt lat="46.20038" lon="6.75921">
        <ele>1750</ele>
        <time>2010-01-03T21:13:45Z</time>
      </trkpt>
      <trkpt lat="46.20038" lon="6.75942">
        <ele>1749</ele>
        <time>2010-01-03T21:13:50Z</time>
      </trkpt>
      <trkpt lat="46.20032" lon="6.75959">
        <ele>1748</ele>
        <time>2010-01-03T21:13:56Z</time>
      </trkpt>
      <trkpt lat="46.2003" lon="6.7596">
        <ele>1748</ele>
        <time>2010-01-03T21:13:56Z</time>
      </trkpt>
      <trkpt lat="46.20023" lon="6.75968">
        <ele>1749</ele>
        <time>2010-01-03T21:14:00Z</time>
      </trkpt>
      <trkpt lat="46.20019" lon="6.75978">
        <ele>1749</ele>
        <time>2010-01-03T21:14:03Z</time>
      </trkpt>
      <trkpt lat="46.20016" lon="6.75992">
        <ele>1750</ele>
        <time>2010-01-03T21:14:07Z</time>
      </trkpt>
      <trkpt lat="46.20016" lon="6.75992">
        <ele>1750</ele>
        <time>2010-01-03T21:14:07Z</time>
      </trkpt>
      <trkpt lat="46.20018" lon="6.76002">
        <ele>1745</ele>
        <time>2010-01-03T21:14:10Z</time>
      </trkpt>
      <trkpt lat="46.20029" lon="6.76">
        <ele>1747</ele>
        <time>2010-01-03T21:14:15Z</time>
      </trkpt>
      <trkpt lat="46.20029" lon="6.76">
        <ele>1747</ele>
        <time>2010-01-03T21:14:15Z</time>
      </trkpt>
      <trkpt lat="46.20033" lon="6.75997">
        <ele>1747</ele>
        <time>2010-01-03T21:14:17Z</time>
      </trkpt>
      <trkpt lat="46.20037" lon="6.75993">
        <ele>1746</ele>
        <time>2010-01-03T21:14:19Z</time>
      </trkpt>
      <trkpt lat="46.20039" lon="6.75997">
        <ele>1745</ele>
        <time>2010-01-03T21:14:20Z</time>
      </trkpt>
      <trkpt lat="46.20039" lon="6.75997">
        <ele>1745</ele>
        <time>2010-01-03T21:14:20Z</time>
      </trkpt>
      <trkpt lat="46.2004" lon="6.76008">
        <ele>1739</ele>
        <time>2010-01-03T21:14:23Z</time>
      </trkpt>
      <trkpt lat="46.20037" lon="6.76018">
        <ele>1739</ele>
        <time>2010-01-03T21:14:26Z</time>
      </trkpt>
      <trkpt lat="46.20039" lon="6.76028">
        <ele>1738</ele>
        <time>2010-01-03T21:14:29Z</time>
      </trkpt>
      <trkpt lat="46.2004" lon="6.76028">
        <ele>1738</ele>
        <time>2010-01-03T21:14:29Z</time>
      </trkpt>
      <trkpt lat="46.2006" lon="6.76056">
        <ele>1733</ele>
        <time>2010-01-03T21:14:40Z</time>
      </trkpt>
      <trkpt lat="46.20064" lon="6.76069">
        <ele>1729</ele>
        <time>2010-01-03T21:14:45Z</time>
      </trkpt>
      <trkpt lat="46.20065" lon="6.7608">
        <ele>1727</ele>
        <time>2010-01-03T21:14:47Z</time>
      </trkpt>
      <trkpt lat="46.20061" lon="6.76091">
        <ele>1725</ele>
        <time>2010-01-03T21:14:51Z</time>
      </trkpt>
      <trkpt lat="46.20065" lon="6.76119">
        <ele>1725</ele>
        <time>2010-01-03T21:14:59Z</time>
      </trkpt>
      <trkpt lat="46.20064" lon="6.76132">
        <ele>1724</ele>
        <time>2010-01-03T21:15:03Z</time>
      </trkpt>
      <trkpt lat="46.20061" lon="6.76143">
        <ele>1723</ele>
        <time>2010-01-03T21:15:06Z</time>
      </trkpt>
      <trkpt lat="46.2006" lon="6.76146">
        <ele>1723</ele>
        <time>2010-01-03T21:15:07Z</time>
      </trkpt>
      <trkpt lat="46.2006" lon="6.76146">
        <ele>1723</ele>
        <time>2010-01-03T21:15:07Z</time>
      </trkpt>
      <trkpt lat="46.20054" lon="6.76156">
        <ele>1724</ele>
        <time>2010-01-03T21:15:10Z</time>
      </trkpt>
      <trkpt lat="46.20053" lon="6.76158">
        <ele>1724</ele>
        <time>2010-01-03T21:15:11Z</time>
      </trkpt>
      <trkpt lat="46.20048" lon="6.76168">
        <ele>1721</ele>
        <time>2010-01-03T21:15:15Z</time>
      </trkpt>
      <trkpt lat="46.20048" lon="6.7617">
        <ele>1721</ele>
        <time>2010-01-03T21:15:15Z</time>
      </trkpt>
      <trkpt lat="46.20048" lon="6.76171">
        <ele>1721</ele>
        <time>2010-01-03T21:15:15Z</time>
      </trkpt>
      <trkpt lat="46.20045" lon="6.76183">
        <ele>1722</ele>
        <time>2010-01-03T21:15:19Z</time>
      </trkpt>
      <trkpt lat="46.20044" lon="6.76185">
        <ele>1722</ele>
        <time>2010-01-03T21:15:20Z</time>
      </trkpt>
      <trkpt lat="46.2004" lon="6.762">
        <ele>1722</ele>
        <time>2010-01-03T21:15:24Z</time>
      </trkpt>
      <trkpt lat="46.2004" lon="6.76203">
        <ele>1722</ele>
        <time>2010-01-03T21:15:25Z</time>
      </trkpt>
      <trkpt lat="46.20038" lon="6.76221">
        <ele>1722</ele>
        <time>2010-01-03T21:15:30Z</time>
      </trkpt>
      <trkpt lat="46.20039" lon="6.76222">
        <ele>1721</ele>
        <time>2010-01-03T21:15:30Z</time>
      </trkpt>
      <trkpt lat="46.20043" lon="6.76235">
        <ele>1719</ele>
        <time>2010-01-03T21:15:34Z</time>
      </trkpt>
      <trkpt lat="46.20043" lon="6.76235">
        <ele>1719</ele>
        <time>2010-01-03T21:15:34Z</time>
      </trkpt>
      <trkpt lat="46.20047" lon="6.76283">
        <ele>1713</ele>
        <time>2010-01-03T21:15:48Z</time>
      </trkpt>
      <trkpt lat="46.20045" lon="6.7631">
        <ele>1712</ele>
        <time>2010-01-03T21:15:55Z</time>
      </trkpt>
      <trkpt lat="46.20048" lon="6.76337">
        <ele>1710</ele>
        <time>2010-01-03T21:16:03Z</time>
      </trkpt>
      <trkpt lat="46.20049" lon="6.76338">
        <ele>1709</ele>
        <time>2010-01-03T21:16:03Z</time>
      </trkpt>
      <trkpt lat="46.2005" lon="6.76362">
        <ele>1710</ele>
        <time>2010-01-03T21:16:10Z</time>
      </trkpt>
      <trkpt lat="46.20057" lon="6.76398">
        <ele>1707</ele>
        <time>2010-01-03T21:16:20Z</time>
      </trkpt>
      <trkpt lat="46.20065" lon="6.76419">
        <ele>1703</ele>
        <time>2010-01-03T21:16:27Z</time>
      </trkpt>
      <trkpt lat="46.20072" lon="6.76445">
        <ele>1705</ele>
        <time>2010-01-03T21:16:34Z</time>
      </trkpt>
      <trkpt lat="46.20073" lon="6.7646">
        <ele>1707</ele>
        <time>2010-01-03T21:16:39Z</time>
      </trkpt>
      <trkpt lat="46.20073" lon="6.76461">
        <ele>1707</ele>
        <time>2010-01-03T21:16:39Z</time>
      </trkpt>
      <trkpt lat="46.2007" lon="6.7648">
        <ele>1705</ele>
        <time>2010-01-03T21:16:44Z</time>
      </trkpt>
      <trkpt lat="46.20076" lon="6.76484">
        <ele>1703</ele>
        <time>2010-01-03T21:16:47Z</time>
      </trkpt>
      <trkpt lat="46.20077" lon="6.76483">
        <ele>1703</ele>
        <time>2010-01-03T21:16:48Z</time>
      </trkpt>
      <trkpt lat="46.20078" lon="6.76482">
        <ele>1703</ele>
        <time>2010-01-03T21:16:48Z</time>
      </trkpt>
      <trkpt lat="46.20085" lon="6.76483">
        <ele>1686</ele>
        <time>2010-01-03T21:16:51Z</time>
      </trkpt>
      <trkpt lat="46.20092" lon="6.76487">
        <ele>1686</ele>
        <time>2010-01-03T21:16:54Z</time>
      </trkpt>
      <trkpt lat="46.20095" lon="6.76494">
        <ele>1686</ele>
        <time>2010-01-03T21:16:56Z</time>
      </trkpt>
      <trkpt lat="46.20095" lon="6.76495">
        <ele>1687</ele>
        <time>2010-01-03T21:16:57Z</time>
      </trkpt>
      <trkpt lat="46.20086" lon="6.76508">
        <ele>1689</ele>
        <time>2010-01-03T21:17:02Z</time>
      </trkpt>
      <trkpt lat="46.20105" lon="6.76537">
        <ele>1683</ele>
        <time>2010-01-03T21:17:13Z</time>
      </trkpt>
      <trkpt lat="46.20121" lon="6.76568">
        <ele>1682</ele>
        <time>2010-01-03T21:17:24Z</time>
      </trkpt>
      <trkpt lat="46.20126" lon="6.76589">
        <ele>1678</ele>
        <time>2010-01-03T21:17:30Z</time>
      </trkpt>
      <trkpt lat="46.20118" lon="6.76636">
        <ele>1676</ele>
        <time>2010-01-03T21:17:44Z</time>
      </trkpt>
      <trkpt lat="46.20112" lon="6.7666">
        <ele>1676</ele>
        <time>2010-01-03T21:17:51Z</time>
      </trkpt>
      <trkpt lat="46.20112" lon="6.76685">
        <ele>1669</ele>
        <time>2010-01-03T21:17:57Z</time>
      </trkpt>
      <trkpt lat="46.20112" lon="6.76685">
        <ele>1669</ele>
        <time>2010-01-03T21:17:57Z</time>
      </trkpt>
      <trkpt lat="46.20108" lon="6.76699">
        <ele>1668</ele>
        <time>2010-01-03T21:18:02Z</time>
      </trkpt>
      <trkpt lat="46.20107" lon="6.767">
        <ele>1668</ele>
        <time>2010-01-03T21:18:02Z</time>
      </trkpt>
      <trkpt lat="46.20097" lon="6.76723">
        <ele>1668</ele>
        <time>2010-01-03T21:18:10Z</time>
      </trkpt>
      <trkpt lat="46.20098" lon="6.76745">
        <ele>1669</ele>
        <time>2010-01-03T21:18:16Z</time>
      </trkpt>
      <trkpt lat="46.20098" lon="6.76745">
        <ele>1669</ele>
        <time>2010-01-03T21:18:16Z</time>
      </trkpt>
      <trkpt lat="46.20097" lon="6.76764">
        <ele>1665</ele>
        <time>2010-01-03T21:18:21Z</time>
      </trkpt>
      <trkpt lat="46.20097" lon="6.76767">
        <ele>1665</ele>
        <time>2010-01-03T21:18:22Z</time>
      </trkpt>
      <trkpt lat="46.20097" lon="6.76767">
        <ele>1665</ele>
        <time>2010-01-03T21:18:22Z</time>
      </trkpt>
      <trkpt lat="46.20099" lon="6.76786">
        <ele>1663</ele>
        <time>2010-01-03T21:18:27Z</time>
      </trkpt>
      <trkpt lat="46.20099" lon="6.76787">
        <ele>1663</ele>
        <time>2010-01-03T21:18:27Z</time>
      </trkpt>
      <trkpt lat="46.20101" lon="6.76805">
        <ele>1662</ele>
        <time>2010-01-03T21:18:32Z</time>
      </trkpt>
      <trkpt lat="46.20101" lon="6.76815">
        <ele>1663</ele>
        <time>2010-01-03T21:18:35Z</time>
      </trkpt>
      <trkpt lat="46.20124" lon="6.76822">
        <ele>1660</ele>
        <time>2010-01-03T21:18:44Z</time>
      </trkpt>
      <trkpt lat="46.20134" lon="6.7683">
        <ele>1659</ele>
        <time>2010-01-03T21:18:49Z</time>
      </trkpt>
      <trkpt lat="46.20139" lon="6.76842">
        <ele>1662</ele>
        <time>2010-01-03T21:18:53Z</time>
      </trkpt>
      <trkpt lat="46.20142" lon="6.76855">
        <ele>1663</ele>
        <time>2010-01-03T21:18:57Z</time>
      </trkpt>
      <trkpt lat="46.20143" lon="6.76857">
        <ele>1663</ele>
        <time>2010-01-03T21:18:57Z</time>
      </trkpt>
      <trkpt lat="46.20149" lon="6.76865">
        <ele>1664</ele>
        <time>2010-01-03T21:19:01Z</time>
      </trkpt>
      <trkpt lat="46.20151" lon="6.76866">
        <ele>1664</ele>
        <time>2010-01-03T21:19:02Z</time>
      </trkpt>
      <trkpt lat="46.20189" lon="6.76873">
        <ele>1656</ele>
        <time>2010-01-03T21:19:17Z</time>
      </trkpt>
      <trkpt lat="46.20203" lon="6.76879">
        <ele>1656</ele>
        <time>2010-01-03T21:19:23Z</time>
      </trkpt>
      <trkpt lat="46.20203" lon="6.76879">
        <ele>1656</ele>
        <time>2010-01-03T21:19:23Z</time>
      </trkpt>
      <trkpt lat="46.20216" lon="6.76882">
        <ele>1655</ele>
        <time>2010-01-03T21:19:28Z</time>
      </trkpt>
      <trkpt lat="46.20217" lon="6.76882">
        <ele>1655</ele>
        <time>2010-01-03T21:19:29Z</time>
      </trkpt>
      <trkpt lat="46.20227" lon="6.76886">
        <ele>1656</ele>
        <time>2010-01-03T21:19:33Z</time>
      </trkpt>
      <trkpt lat="46.20232" lon="6.76887">
        <ele>1656</ele>
        <time>2010-01-03T21:19:35Z</time>
      </trkpt>
      <trkpt lat="46.20294" lon="6.76883">
        <ele>1651</ele>
        <time>2010-01-03T21:19:59Z</time>
      </trkpt>
      <trkpt lat="46.20312" lon="6.76883">
        <ele>1652</ele>
        <time>2010-01-03T21:20:07Z</time>
      </trkpt>
      <trkpt lat="46.2032" lon="6.7688">
        <ele>1651</ele>
        <time>2010-01-03T21:20:10Z</time>
      </trkpt>
      <trkpt lat="46.20321" lon="6.7688">
        <ele>1651</ele>
        <time>2010-01-03T21:20:11Z</time>
      </trkpt>
      <trkpt lat="46.20333" lon="6.76877">
        <ele>1651</ele>
        <time>2010-01-03T21:20:15Z</time>
      </trkpt>
      <trkpt lat="46.20333" lon="6.76876">
        <ele>1651</ele>
        <time>2010-01-03T21:20:15Z</time>
      </trkpt>
      <trkpt lat="46.20348" lon="6.76874">
        <ele>1650</ele>
        <time>2010-01-03T21:20:21Z</time>
      </trkpt>
      <trkpt lat="46.20349" lon="6.76873">
        <ele>1650</ele>
        <time>2010-01-03T21:20:22Z</time>
      </trkpt>
      <trkpt lat="46.2039" lon="6.76862">
        <ele>1648</ele>
        <time>2010-01-03T21:20:39Z</time>
      </trkpt>
      <trkpt lat="46.20413" lon="6.76851">
        <ele>1646</ele>
        <time>2010-01-03T21:20:48Z</time>
      </trkpt>
      <trkpt lat="46.20426" lon="6.7684">
        <ele>1643</ele>
        <time>2010-01-03T21:20:55Z</time>
      </trkpt>
      <trkpt lat="46.20439" lon="6.76834">
        <ele>1642</ele>
        <time>2010-01-03T21:21:00Z</time>
      </trkpt>
      <trkpt lat="46.20448" lon="6.76839">
        <ele>1642</ele>
        <time>2010-01-03T21:21:04Z</time>
      </trkpt>
      <trkpt lat="46.20449" lon="6.76839">
        <ele>1642</ele>
        <time>2010-01-03T21:21:04Z</time>
      </trkpt>
      <trkpt lat="46.20457" lon="6.76851">
        <ele>1642</ele>
        <time>2010-01-03T21:21:09Z</time>
      </trkpt>
      <trkpt lat="46.20477" lon="6.7686">
        <ele>1641</ele>
        <time>2010-01-03T21:21:17Z</time>
      </trkpt>
      <trkpt lat="46.20485" lon="6.76861">
        <ele>1641</ele>
        <time>2010-01-03T21:21:21Z</time>
      </trkpt>
      <trkpt lat="46.20497" lon="6.76879">
        <ele>1641</ele>
        <time>2010-01-03T21:21:27Z</time>
      </trkpt>
      <trkpt lat="46.20497" lon="6.76915">
        <ele>1638</ele>
        <time>2010-01-03T21:21:37Z</time>
      </trkpt>
      <trkpt lat="46.20499" lon="6.76934">
        <ele>1642</ele>
        <time>2010-01-03T21:21:43Z</time>
      </trkpt>
      <trkpt lat="46.20499" lon="6.76937">
        <ele>1642</ele>
        <time>2010-01-03T21:21:44Z</time>
      </trkpt>
      <trkpt lat="46.20499" lon="6.76941">
        <ele>1643</ele>
        <time>2010-01-03T21:21:45Z</time>
      </trkpt>
      <trkpt lat="46.20498" lon="6.76972">
        <ele>1643</ele>
        <time>2010-01-03T21:21:53Z</time>
      </trkpt>
      <trkpt lat="46.20496" lon="6.76987">
        <ele>1641</ele>
        <time>2010-01-03T21:21:58Z</time>
      </trkpt>
      <trkpt lat="46.20499" lon="6.77067">
        <ele>1638</ele>
        <time>2010-01-03T21:22:20Z</time>
      </trkpt>
      <trkpt lat="46.20499" lon="6.77094">
        <ele>1634</ele>
        <time>2010-01-03T21:22:27Z</time>
      </trkpt>
      <trkpt lat="46.20496" lon="6.77108">
        <ele>1637</ele>
        <time>2010-01-03T21:22:31Z</time>
      </trkpt>
      <trkpt lat="46.20494" lon="6.77132">
        <ele>1636</ele>
        <time>2010-01-03T21:22:38Z</time>
      </trkpt>
      <trkpt lat="46.20494" lon="6.77135">
        <ele>1636</ele>
        <time>2010-01-03T21:22:39Z</time>
      </trkpt>
      <trkpt lat="46.20492" lon="6.77154">
        <ele>1633</ele>
        <time>2010-01-03T21:22:44Z</time>
      </trkpt>
      <trkpt lat="46.20492" lon="6.77156">
        <ele>1632</ele>
        <time>2010-01-03T21:22:45Z</time>
      </trkpt>
      <trkpt lat="46.20491" lon="6.77172">
        <ele>1630</ele>
        <time>2010-01-03T21:22:49Z</time>
      </trkpt>
      <trkpt lat="46.20491" lon="6.77173">
        <ele>1630</ele>
        <time>2010-01-03T21:22:49Z</time>
      </trkpt>
      <trkpt lat="46.2049" lon="6.77185">
        <ele>1632</ele>
        <time>2010-01-03T21:22:53Z</time>
      </trkpt>
      <trkpt lat="46.20484" lon="6.77218">
        <ele>1633</ele>
        <time>2010-01-03T21:23:02Z</time>
      </trkpt>
      <trkpt lat="46.20487" lon="6.77235">
        <ele>1631</ele>
        <time>2010-01-03T21:23:07Z</time>
      </trkpt>
      <trkpt lat="46.20488" lon="6.77237">
        <ele>1630</ele>
        <time>2010-01-03T21:23:08Z</time>
      </trkpt>
      <trkpt lat="46.20487" lon="6.77257">
        <ele>1626</ele>
        <time>2010-01-03T21:23:13Z</time>
      </trkpt>
      <trkpt lat="46.20487" lon="6.77259">
        <ele>1626</ele>
        <time>2010-01-03T21:23:14Z</time>
      </trkpt>
      <trkpt lat="46.20465" lon="6.7732">
        <ele>1625</ele>
        <time>2010-01-03T21:23:33Z</time>
      </trkpt>
      <trkpt lat="46.20457" lon="6.77343">
        <ele>1614</ele>
        <time>2010-01-03T21:23:40Z</time>
      </trkpt>
      <trkpt lat="46.20449" lon="6.77357">
        <ele>1614</ele>
        <time>2010-01-03T21:23:45Z</time>
      </trkpt>
      <trkpt lat="46.20441" lon="6.77368">
        <ele>1614</ele>
        <time>2010-01-03T21:23:49Z</time>
      </trkpt>
      <trkpt lat="46.2044" lon="6.77371">
        <ele>1613</ele>
        <time>2010-01-03T21:23:50Z</time>
      </trkpt>
      <trkpt lat="46.20427" lon="6.77391">
        <ele>1612</ele>
        <time>2010-01-03T21:23:58Z</time>
      </trkpt>
      <trkpt lat="46.20426" lon="6.77392">
        <ele>1612</ele>
        <time>2010-01-03T21:23:58Z</time>
      </trkpt>
      <trkpt lat="46.20415" lon="6.77407">
        <ele>1619</ele>
        <time>2010-01-03T21:24:04Z</time>
      </trkpt>
      <trkpt lat="46.20414" lon="6.77409">
        <ele>1618</ele>
        <time>2010-01-03T21:24:05Z</time>
      </trkpt>
      <trkpt lat="46.204" lon="6.77427">
        <ele>1615</ele>
        <time>2010-01-03T21:24:13Z</time>
      </trkpt>
      <trkpt lat="46.20399" lon="6.77431">
        <ele>1615</ele>
        <time>2010-01-03T21:24:14Z</time>
      </trkpt>
      <trkpt lat="46.20386" lon="6.77448">
        <ele>1616</ele>
        <time>2010-01-03T21:24:21Z</time>
      </trkpt>
      <trkpt lat="46.20384" lon="6.77453">
        <ele>1616</ele>
        <time>2010-01-03T21:24:22Z</time>
      </trkpt>
      <trkpt lat="46.20371" lon="6.77472">
        <ele>1617</ele>
        <time>2010-01-03T21:24:30Z</time>
      </trkpt>
      <trkpt lat="46.20363" lon="6.77488">
        <ele>1618</ele>
        <time>2010-01-03T21:24:35Z</time>
      </trkpt>
      <trkpt lat="46.20361" lon="6.77492">
        <ele>1618</ele>
        <time>2010-01-03T21:24:37Z</time>
      </trkpt>
      <trkpt lat="46.2036" lon="6.77505">
        <ele>1612</ele>
        <time>2010-01-03T21:24:40Z</time>
      </trkpt>
      <trkpt lat="46.2036" lon="6.77505">
        <ele>1612</ele>
        <time>2010-01-03T21:24:40Z</time>
      </trkpt>
      <trkpt lat="46.2036" lon="6.77511">
        <ele>1611</ele>
        <time>2010-01-03T21:24:42Z</time>
      </trkpt>
      <trkpt lat="46.20362" lon="6.77523">
        <ele>1609</ele>
        <time>2010-01-03T21:24:45Z</time>
      </trkpt>
      <trkpt lat="46.20363" lon="6.77546">
        <ele>1607</ele>
        <time>2010-01-03T21:24:52Z</time>
      </trkpt>
      <trkpt lat="46.20357" lon="6.77573">
        <ele>1609</ele>
        <time>2010-01-03T21:25:00Z</time>
      </trkpt>
      <trkpt lat="46.20358" lon="6.77592">
        <ele>1607</ele>
        <time>2010-01-03T21:25:05Z</time>
      </trkpt>
      <trkpt lat="46.20362" lon="6.77605">
        <ele>1605</ele>
        <time>2010-01-03T21:25:09Z</time>
      </trkpt>
      <trkpt lat="46.20366" lon="6.77621">
        <ele>1603</ele>
        <time>2010-01-03T21:25:14Z</time>
      </trkpt>
      <trkpt lat="46.20367" lon="6.77622">
        <ele>1603</ele>
        <time>2010-01-03T21:25:14Z</time>
      </trkpt>
      <trkpt lat="46.20372" lon="6.77638">
        <ele>1602</ele>
        <time>2010-01-03T21:25:19Z</time>
      </trkpt>
      <trkpt lat="46.20391" lon="6.77667">
        <ele>1598</ele>
        <time>2010-01-03T21:25:30Z</time>
      </trkpt>
      <trkpt lat="46.20388" lon="6.77687">
        <ele>1597</ele>
        <time>2010-01-03T21:25:36Z</time>
      </trkpt>
      <trkpt lat="46.20379" lon="6.77698">
        <ele>1599</ele>
        <time>2010-01-03T21:25:40Z</time>
      </trkpt>
      <trkpt lat="46.20374" lon="6.77711">
        <ele>1599</ele>
        <time>2010-01-03T21:25:45Z</time>
      </trkpt>
      <trkpt lat="46.20372" lon="6.77714">
        <ele>1599</ele>
        <time>2010-01-03T21:25:45Z</time>
      </trkpt>
      <trkpt lat="46.20359" lon="6.77736">
        <ele>1601</ele>
        <time>2010-01-03T21:25:54Z</time>
      </trkpt>
      <trkpt lat="46.20351" lon="6.77748">
        <ele>1603</ele>
        <time>2010-01-03T21:25:58Z</time>
      </trkpt>
      <trkpt lat="46.20338" lon="6.77776">
        <ele>1601</ele>
        <time>2010-01-03T21:26:08Z</time>
      </trkpt>
      <trkpt lat="46.20333" lon="6.77801">
        <ele>1600</ele>
        <time>2010-01-03T21:26:15Z</time>
      </trkpt>
      <trkpt lat="46.20333" lon="6.77817">
        <ele>1602</ele>
        <time>2010-01-03T21:26:19Z</time>
      </trkpt>
      <trkpt lat="46.20333" lon="6.77818">
        <ele>1615</ele>
        <time>2010-01-03T21:26:20Z</time>
      </trkpt>
      <trkpt lat="46.20338" lon="6.77839">
        <ele>1605</ele>
        <time>2010-01-03T21:26:26Z</time>
      </trkpt>
      <trkpt lat="46.20338" lon="6.7784">
        <ele>1604</ele>
        <time>2010-01-03T21:26:26Z</time>
      </trkpt>
      <trkpt lat="46.20342" lon="6.77856">
        <ele>1601</ele>
        <time>2010-01-03T21:26:31Z</time>
      </trkpt>
      <trkpt lat="46.20342" lon="6.77857">
        <ele>1600</ele>
        <time>2010-01-03T21:26:31Z</time>
      </trkpt>
      <trkpt lat="46.20344" lon="6.77871">
        <ele>1599</ele>
        <time>2010-01-03T21:26:35Z</time>
      </trkpt>
      <trkpt lat="46.20345" lon="6.77874">
        <ele>1599</ele>
        <time>2010-01-03T21:26:36Z</time>
      </trkpt>
      <trkpt lat="46.20345" lon="6.77878">
        <ele>1599</ele>
        <time>2010-01-03T21:26:37Z</time>
      </trkpt>
      <trkpt lat="46.20346" lon="6.779">
        <ele>1601</ele>
        <time>2010-01-03T21:26:43Z</time>
      </trkpt>
      <trkpt lat="46.20346" lon="6.77904">
        <ele>1602</ele>
        <time>2010-01-03T21:26:44Z</time>
      </trkpt>
      <trkpt lat="46.20342" lon="6.77914">
        <ele>1604</ele>
        <time>2010-01-03T21:26:47Z</time>
      </trkpt>
      <trkpt lat="46.20341" lon="6.77917">
        <ele>1605</ele>
        <time>2010-01-03T21:26:48Z</time>
      </trkpt>
      <trkpt lat="46.2034" lon="6.77919">
        <ele>1605</ele>
        <time>2010-01-03T21:26:49Z</time>
      </trkpt>
      <trkpt lat="46.20333" lon="6.77928">
        <ele>1609</ele>
        <time>2010-01-03T21:26:52Z</time>
      </trkpt>
      <trkpt lat="46.20332" lon="6.77928">
        <ele>1609</ele>
        <time>2010-01-03T21:26:53Z</time>
      </trkpt>
      <trkpt lat="46.2033" lon="6.77929">
        <ele>1609</ele>
        <time>2010-01-03T21:26:54Z</time>
      </trkpt>
      <trkpt lat="46.20328" lon="6.7793">
        <ele>1609</ele>
        <time>2010-01-03T21:26:55Z</time>
      </trkpt>
      <trkpt lat="46.20324" lon="6.77932">
        <ele>1609</ele>
        <time>2010-01-03T21:26:56Z</time>
      </trkpt>
      <trkpt lat="46.20323" lon="6.77933">
        <ele>1609</ele>
        <time>2010-01-03T21:26:57Z</time>
      </trkpt>
      <trkpt lat="46.20321" lon="6.77936">
        <ele>1609</ele>
        <time>2010-01-03T21:26:58Z</time>
      </trkpt>
      <trkpt lat="46.20319" lon="6.7794">
        <ele>1609</ele>
        <time>2010-01-03T21:26:59Z</time>
      </trkpt>
      <trkpt lat="46.20318" lon="6.77941">
        <ele>1609</ele>
        <time>2010-01-03T21:27:00Z</time>
      </trkpt>
      <trkpt lat="46.20303" lon="6.77949">
        <ele>1610</ele>
        <time>2010-01-03T21:27:07Z</time>
      </trkpt>
      <trkpt lat="46.20298" lon="6.77958">
        <ele>1610</ele>
        <time>2010-01-03T21:27:10Z</time>
      </trkpt>
      <trkpt lat="46.20298" lon="6.7796">
        <ele>1610</ele>
        <time>2010-01-03T21:27:10Z</time>
      </trkpt>
      <trkpt lat="46.20294" lon="6.77974">
        <ele>1609</ele>
        <time>2010-01-03T21:27:14Z</time>
      </trkpt>
      <trkpt lat="46.20293" lon="6.77977">
        <ele>1609</ele>
        <time>2010-01-03T21:27:15Z</time>
      </trkpt>
      <trkpt lat="46.20288" lon="6.77995">
        <ele>1608</ele>
        <time>2010-01-03T21:27:20Z</time>
      </trkpt>
      <trkpt lat="46.20289" lon="6.78011">
        <ele>1601</ele>
        <time>2010-01-03T21:27:25Z</time>
      </trkpt>
      <trkpt lat="46.20285" lon="6.78036">
        <ele>1600</ele>
        <time>2010-01-03T21:27:32Z</time>
      </trkpt>
      <trkpt lat="46.20269" lon="6.78048">
        <ele>1600</ele>
        <time>2010-01-03T21:27:39Z</time>
      </trkpt>
      <trkpt lat="46.20264" lon="6.78055">
        <ele>1600</ele>
        <time>2010-01-03T21:27:42Z</time>
      </trkpt>
      <trkpt lat="46.20247" lon="6.78075">
        <ele>1604</ele>
        <time>2010-01-03T21:27:51Z</time>
      </trkpt>
      <trkpt lat="46.20236" lon="6.7809">
        <ele>1603</ele>
        <time>2010-01-03T21:27:57Z</time>
      </trkpt>
      <trkpt lat="46.20232" lon="6.781">
        <ele>1605</ele>
        <time>2010-01-03T21:28:00Z</time>
      </trkpt>
      <trkpt lat="46.20228" lon="6.78115">
        <ele>1606</ele>
        <time>2010-01-03T21:28:05Z</time>
      </trkpt>
      <trkpt lat="46.20227" lon="6.78124">
        <ele>1606</ele>
        <time>2010-01-03T21:28:07Z</time>
      </trkpt>
      <trkpt lat="46.20226" lon="6.78125">
        <ele>1606</ele>
        <time>2010-01-03T21:28:07Z</time>
      </trkpt>
      <trkpt lat="46.20219" lon="6.78148">
        <ele>1605</ele>
        <time>2010-01-03T21:28:14Z</time>
      </trkpt>
      <trkpt lat="46.20216" lon="6.78154">
        <ele>1605</ele>
        <time>2010-01-03T21:28:17Z</time>
      </trkpt>
      <trkpt lat="46.20205" lon="6.78184">
        <ele>1600</ele>
        <time>2010-01-03T21:28:26Z</time>
      </trkpt>
      <trkpt lat="46.20204" lon="6.78189">
        <ele>1600</ele>
        <time>2010-01-03T21:28:27Z</time>
      </trkpt>
      <trkpt lat="46.20203" lon="6.78191">
        <ele>1600</ele>
        <time>2010-01-03T21:28:28Z</time>
      </trkpt>
      <trkpt lat="46.20202" lon="6.78192">
        <ele>1600</ele>
        <time>2010-01-03T21:28:28Z</time>
      </trkpt>
      <trkpt lat="46.20145" lon="6.78273">
        <ele>1608</ele>
        <time>2010-01-03T21:29:01Z</time>
      </trkpt>
      <trkpt lat="46.20131" lon="6.7828">
        <ele>1610</ele>
        <time>2010-01-03T21:29:06Z</time>
      </trkpt>
      <trkpt lat="46.20121" lon="6.78291">
        <ele>1610</ele>
        <time>2010-01-03T21:29:11Z</time>
      </trkpt>
      <trkpt lat="46.20116" lon="6.78309">
        <ele>1609</ele>
        <time>2010-01-03T21:29:17Z</time>
      </trkpt>
      <trkpt lat="46.20112" lon="6.78319">
        <ele>1609</ele>
        <time>2010-01-03T21:29:20Z</time>
      </trkpt>
      <trkpt lat="46.20111" lon="6.78334">
        <ele>1598</ele>
        <time>2010-01-03T21:29:24Z</time>
      </trkpt>
      <trkpt lat="46.20108" lon="6.78341">
        <ele>1599</ele>
        <time>2010-01-03T21:29:26Z</time>
      </trkpt>
      <trkpt lat="46.20091" lon="6.78372">
        <ele>1597</ele>
        <time>2010-01-03T21:29:37Z</time>
      </trkpt>
      <trkpt lat="46.20082" lon="6.78396">
        <ele>1610</ele>
        <time>2010-01-03T21:29:45Z</time>
      </trkpt>
      <trkpt lat="46.20078" lon="6.78417">
        <ele>1601</ele>
        <time>2010-01-03T21:29:51Z</time>
      </trkpt>
      <trkpt lat="46.20068" lon="6.78441">
        <ele>1604</ele>
        <time>2010-01-03T21:29:58Z</time>
      </trkpt>
      <trkpt lat="46.20064" lon="6.78463">
        <ele>1603</ele>
        <time>2010-01-03T21:30:05Z</time>
      </trkpt>
      <trkpt lat="46.20056" lon="6.78478">
        <ele>1603</ele>
        <time>2010-01-03T21:30:10Z</time>
      </trkpt>
      <trkpt lat="46.20049" lon="6.78505">
        <ele>1595</ele>
        <time>2010-01-03T21:30:18Z</time>
      </trkpt>
      <trkpt lat="46.20044" lon="6.78513">
        <ele>1595</ele>
        <time>2010-01-03T21:30:21Z</time>
      </trkpt>
      <trkpt lat="46.2004" lon="6.78524">
        <ele>1595</ele>
        <time>2010-01-03T21:30:24Z</time>
      </trkpt>
      <trkpt lat="46.20038" lon="6.78536">
        <ele>1595</ele>
        <time>2010-01-03T21:30:28Z</time>
      </trkpt>
      <trkpt lat="46.20034" lon="6.78552">
        <ele>1594</ele>
        <time>2010-01-03T21:30:33Z</time>
      </trkpt>
      <trkpt lat="46.2003" lon="6.78561">
        <ele>1594</ele>
        <time>2010-01-03T21:30:36Z</time>
      </trkpt>
      <trkpt lat="46.20027" lon="6.7857">
        <ele>1593</ele>
        <time>2010-01-03T21:30:38Z</time>
      </trkpt>
      <trkpt lat="46.20024" lon="6.78578">
        <ele>1593</ele>
        <time>2010-01-03T21:30:41Z</time>
      </trkpt>
      <trkpt lat="46.2002" lon="6.78584">
        <ele>1590</ele>
        <time>2010-01-03T21:30:43Z</time>
      </trkpt>
      <trkpt lat="46.20017" lon="6.78588">
        <ele>1590</ele>
        <time>2010-01-03T21:30:45Z</time>
      </trkpt>
      <trkpt lat="46.20013" lon="6.78589">
        <ele>1591</ele>
        <time>2010-01-03T21:30:47Z</time>
      </trkpt>
      <trkpt lat="46.20005" lon="6.78591">
        <ele>1592</ele>
        <time>2010-01-03T21:30:50Z</time>
      </trkpt>
      <trkpt lat="46.19992" lon="6.78582">
        <ele>1598</ele>
        <time>2010-01-03T21:30:55Z</time>
      </trkpt>
      <trkpt lat="46.19984" lon="6.78579">
        <ele>1600</ele>
        <time>2010-01-03T21:30:59Z</time>
      </trkpt>
      <trkpt lat="46.19954" lon="6.78582">
        <ele>1603</ele>
        <time>2010-01-03T21:31:11Z</time>
      </trkpt>
      <trkpt lat="46.19943" lon="6.78582">
        <ele>1602</ele>
        <time>2010-01-03T21:31:15Z</time>
      </trkpt>
      <trkpt lat="46.19931" lon="6.78586">
        <ele>1596</ele>
        <time>2010-01-03T21:31:20Z</time>
      </trkpt>
      <trkpt lat="46.19921" lon="6.78586">
        <ele>1597</ele>
        <time>2010-01-03T21:31:24Z</time>
      </trkpt>
      <trkpt lat="46.19908" lon="6.78596">
        <ele>1598</ele>
        <time>2010-01-03T21:31:30Z</time>
      </trkpt>
      <trkpt lat="46.19905" lon="6.78609">
        <ele>1597</ele>
        <time>2010-01-03T21:31:34Z</time>
      </trkpt>
      <trkpt lat="46.19897" lon="6.78634">
        <ele>1595</ele>
        <time>2010-01-03T21:31:41Z</time>
      </trkpt>
      <trkpt lat="46.19894" lon="6.78651">
        <ele>1593</ele>
        <time>2010-01-03T21:31:46Z</time>
      </trkpt>
      <trkpt lat="46.19891" lon="6.78664">
        <ele>1592</ele>
        <time>2010-01-03T21:31:50Z</time>
      </trkpt>
      <trkpt lat="46.19887" lon="6.78673">
        <ele>1588</ele>
        <time>2010-01-03T21:31:53Z</time>
      </trkpt>
      <trkpt lat="46.19885" lon="6.78686">
        <ele>1588</ele>
        <time>2010-01-03T21:31:56Z</time>
      </trkpt>
      <trkpt lat="46.19876" lon="6.787">
        <ele>1589</ele>
        <time>2010-01-03T21:32:02Z</time>
      </trkpt>
      <trkpt lat="46.19876" lon="6.78702">
        <ele>1589</ele>
        <time>2010-01-03T21:32:02Z</time>
      </trkpt>
      <trkpt lat="46.19879" lon="6.78735">
        <ele>1588</ele>
        <time>2010-01-03T21:32:11Z</time>
      </trkpt>
      <trkpt lat="46.19882" lon="6.78755">
        <ele>1589</ele>
        <time>2010-01-03T21:32:17Z</time>
      </trkpt>
      <trkpt lat="46.19901" lon="6.7876">
        <ele>1588</ele>
        <time>2010-01-03T21:32:25Z</time>
      </trkpt>
      <trkpt lat="46.19919" lon="6.78761">
        <ele>1588</ele>
        <time>2010-01-03T21:32:32Z</time>
      </trkpt>
      <trkpt lat="46.1992" lon="6.78761">
        <ele>1588</ele>
        <time>2010-01-03T21:32:33Z</time>
      </trkpt>
      <trkpt lat="46.19937" lon="6.78765">
        <ele>1591</ele>
        <time>2010-01-03T21:32:40Z</time>
      </trkpt>
      <trkpt lat="46.19952" lon="6.78759">
        <ele>1592</ele>
        <time>2010-01-03T21:32:46Z</time>
      </trkpt>
      <trkpt lat="46.19963" lon="6.78756">
        <ele>1593</ele>
        <time>2010-01-03T21:32:50Z</time>
      </trkpt>
      <trkpt lat="46.19965" lon="6.78755">
        <ele>1593</ele>
        <time>2010-01-03T21:32:51Z</time>
      </trkpt>
      <trkpt lat="46.19986" lon="6.7875">
        <ele>1590</ele>
        <time>2010-01-03T21:33:00Z</time>
      </trkpt>
      <trkpt lat="46.19997" lon="6.78739">
        <ele>1591</ele>
        <time>2010-01-03T21:33:05Z</time>
      </trkpt>
      <trkpt lat="46.19999" lon="6.78736">
        <ele>1590</ele>
        <time>2010-01-03T21:33:06Z</time>
      </trkpt>
      <trkpt lat="46.20013" lon="6.78724">
        <ele>1591</ele>
        <time>2010-01-03T21:33:13Z</time>
      </trkpt>
      <trkpt lat="46.20015" lon="6.78723">
        <ele>1591</ele>
        <time>2010-01-03T21:33:13Z</time>
      </trkpt>
      <trkpt lat="46.20056" lon="6.7872">
        <ele>1591</ele>
        <time>2010-01-03T21:33:30Z</time>
      </trkpt>
      <trkpt lat="46.20076" lon="6.78723">
        <ele>1592</ele>
        <time>2010-01-03T21:33:38Z</time>
      </trkpt>
      <trkpt lat="46.20103" lon="6.78723">
        <ele>1592</ele>
        <time>2010-01-03T21:33:49Z</time>
      </trkpt>
      <trkpt lat="46.20107" lon="6.78727">
        <ele>1592</ele>
        <time>2010-01-03T21:33:51Z</time>
      </trkpt>
      <trkpt lat="46.2012" lon="6.78735">
        <ele>1591</ele>
        <time>2010-01-03T21:33:56Z</time>
      </trkpt>
      <trkpt lat="46.20134" lon="6.78739">
        <ele>1591</ele>
        <time>2010-01-03T21:34:02Z</time>
      </trkpt>
      <trkpt lat="46.20135" lon="6.78739">
        <ele>1591</ele>
        <time>2010-01-03T21:34:03Z</time>
      </trkpt>
      <trkpt lat="46.2015" lon="6.78733">
        <ele>1590</ele>
        <time>2010-01-03T21:34:09Z</time>
      </trkpt>
      <trkpt lat="46.20166" lon="6.78736">
        <ele>1591</ele>
        <time>2010-01-03T21:34:15Z</time>
      </trkpt>
      <trkpt lat="46.20177" lon="6.78735">
        <ele>1588</ele>
        <time>2010-01-03T21:34:20Z</time>
      </trkpt>
      <trkpt lat="46.20205" lon="6.78744">
        <ele>1586</ele>
        <time>2010-01-03T21:34:31Z</time>
      </trkpt>
      <trkpt lat="46.20228" lon="6.78742">
        <ele>1585</ele>
        <time>2010-01-03T21:34:40Z</time>
      </trkpt>
      <trkpt lat="46.20249" lon="6.78733">
        <ele>1585</ele>
        <time>2010-01-03T21:34:49Z</time>
      </trkpt>
      <trkpt lat="46.20265" lon="6.78715">
        <ele>1582</ele>
        <time>2010-01-03T21:34:57Z</time>
      </trkpt>
      <trkpt lat="46.20325" lon="6.78663">
        <ele>1575</ele>
        <time>2010-01-03T21:35:25Z</time>
      </trkpt>
      <trkpt lat="46.20356" lon="6.78636">
        <ele>1579</ele>
        <time>2010-01-03T21:35:40Z</time>
      </trkpt>
      <trkpt lat="46.20379" lon="6.78602">
        <ele>1579</ele>
        <time>2010-01-03T21:35:53Z</time>
      </trkpt>
      <trkpt lat="46.20396" lon="6.7857">
        <ele>1571</ele>
        <time>2010-01-03T21:36:04Z</time>
      </trkpt>
      <trkpt lat="46.2045" lon="6.7853">
        <ele>1579</ele>
        <time>2010-01-03T21:36:28Z</time>
      </trkpt>
      <trkpt lat="46.20466" lon="6.785">
        <ele>1578</ele>
        <time>2010-01-03T21:36:39Z</time>
      </trkpt>
      <trkpt lat="46.20486" lon="6.78477">
        <ele>1568</ele>
        <time>2010-01-03T21:36:49Z</time>
      </trkpt>
      <trkpt lat="46.20515" lon="6.78445">
        <ele>1575</ele>
        <time>2010-01-03T21:37:03Z</time>
      </trkpt>
      <trkpt lat="46.20535" lon="6.78407">
        <ele>1564</ele>
        <time>2010-01-03T21:37:17Z</time>
      </trkpt>
      <trkpt lat="46.20533" lon="6.78383">
        <ele>1563</ele>
        <time>2010-01-03T21:37:24Z</time>
      </trkpt>
      <trkpt lat="46.20534" lon="6.78367">
        <ele>1562</ele>
        <time>2010-01-03T21:37:28Z</time>
      </trkpt>
      <trkpt lat="46.20536" lon="6.78348">
        <ele>1561</ele>
        <time>2010-01-03T21:37:33Z</time>
      </trkpt>
      <trkpt lat="46.2054" lon="6.78329">
        <ele>1555</ele>
        <time>2010-01-03T21:37:39Z</time>
      </trkpt>
      <trkpt lat="46.20549" lon="6.78307">
        <ele>1555</ele>
        <time>2010-01-03T21:37:46Z</time>
      </trkpt>
      <trkpt lat="46.20551" lon="6.78304">
        <ele>1555</ele>
        <time>2010-01-03T21:37:47Z</time>
      </trkpt>
      <trkpt lat="46.20565" lon="6.78276">
        <ele>1553</ele>
        <time>2010-01-03T21:37:57Z</time>
      </trkpt>
      <trkpt lat="46.20568" lon="6.78271">
        <ele>1553</ele>
        <time>2010-01-03T21:37:58Z</time>
      </trkpt>
      <trkpt lat="46.206" lon="6.78219">
        <ele>1547</ele>
        <time>2010-01-03T21:38:18Z</time>
      </trkpt>
      <trkpt lat="46.20601" lon="6.78219">
        <ele>1547</ele>
        <time>2010-01-03T21:38:18Z</time>
      </trkpt>
      <trkpt lat="46.20652" lon="6.78133">
        <ele>1535</ele>
        <time>2010-01-03T21:38:49Z</time>
      </trkpt>
      <trkpt lat="46.20678" lon="6.78096">
        <ele>1533</ele>
        <time>2010-01-03T21:39:04Z</time>
      </trkpt>
      <trkpt lat="46.20703" lon="6.78049">
        <ele>1527</ele>
        <time>2010-01-03T21:39:20Z</time>
      </trkpt>
      <trkpt lat="46.2072" lon="6.78016">
        <ele>1526</ele>
        <time>2010-01-03T21:39:32Z</time>
      </trkpt>
      <trkpt lat="46.20731" lon="6.77989">
        <ele>1520</ele>
        <time>2010-01-03T21:39:40Z</time>
      </trkpt>
      <trkpt lat="46.20736" lon="6.77966">
        <ele>1518</ele>
        <time>2010-01-03T21:39:47Z</time>
      </trkpt>
      <trkpt lat="46.20746" lon="6.77937">
        <ele>1516</ele>
        <time>2010-01-03T21:39:56Z</time>
      </trkpt>
      <trkpt lat="46.20701" lon="6.77803">
        <ele>1502</ele>
        <time>2010-01-03T21:40:37Z</time>
      </trkpt>
      <trkpt lat="46.20754" lon="6.77942">
        <ele>1523</ele>
        <time>2010-01-03T21:41:21Z</time>
      </trkpt>
      <trkpt lat="46.20825" lon="6.78131">
        <ele>1558</ele>
        <time>2010-01-03T21:42:21Z</time>
      </trkpt>
      <trkpt lat="46.20891" lon="6.78305">
        <ele>1619</ele>
        <time>2010-01-03T21:43:16Z</time>
      </trkpt>
      <trkpt lat="46.20926" lon="6.78411">
        <ele>1675</ele>
        <time>2010-01-03T21:43:48Z</time>
      </trkpt>
      <trkpt lat="46.20951" lon="6.78431">
        <ele>1699</ele>
        <time>2010-01-03T21:44:00Z</time>
      </trkpt>
      <trkpt lat="46.21016" lon="6.78604">
        <ele>1778</ele>
        <time>2010-01-03T21:44:54Z</time>
      </trkpt>
      <trkpt lat="46.2104" lon="6.78683">
        <ele>1803</ele>
        <time>2010-01-03T21:45:18Z</time>
      </trkpt>
      <trkpt lat="46.21103" lon="6.78849">
        <ele>1855</ele>
        <time>2010-01-03T21:46:11Z</time>
      </trkpt>
      <trkpt lat="46.2117" lon="6.79029">
        <ele>1905</ele>
        <time>2010-01-03T21:47:07Z</time>
      </trkpt>
      <trkpt lat="46.21175" lon="6.7903">
        <ele>1905</ele>
        <time>2010-01-03T21:47:09Z</time>
      </trkpt>
      <trkpt lat="46.21181" lon="6.79038">
        <ele>1906</ele>
        <time>2010-01-03T21:47:13Z</time>
      </trkpt>
      <trkpt lat="46.21195" lon="6.79032">
        <ele>1905</ele>
        <time>2010-01-03T21:47:19Z</time>
      </trkpt>
      <trkpt lat="46.21213" lon="6.79024">
        <ele>1904</ele>
        <time>2010-01-03T21:47:26Z</time>
      </trkpt>
      <trkpt lat="46.2122" lon="6.79021">
        <ele>1904</ele>
        <time>2010-01-03T21:47:29Z</time>
      </trkpt>
      <trkpt lat="46.21255" lon="6.78992">
        <ele>1901</ele>
        <time>2010-01-03T21:47:45Z</time>
      </trkpt>
      <trkpt lat="46.21257" lon="6.7899">
        <ele>1900</ele>
        <time>2010-01-03T21:47:46Z</time>
      </trkpt>
      <trkpt lat="46.2126" lon="6.78979">
        <ele>1897</ele>
        <time>2010-01-03T21:47:50Z</time>
      </trkpt>
      <trkpt lat="46.21277" lon="6.78947">
        <ele>1894</ele>
        <time>2010-01-03T21:48:01Z</time>
      </trkpt>
      <trkpt lat="46.21293" lon="6.78917">
        <ele>1893</ele>
        <time>2010-01-03T21:48:11Z</time>
      </trkpt>
      <trkpt lat="46.21293" lon="6.78917">
        <ele>1895</ele>
        <time>2010-01-03T21:48:11Z</time>
      </trkpt>
      <trkpt lat="46.213" lon="6.78891">
        <ele>1895</ele>
        <time>2010-01-03T21:48:19Z</time>
      </trkpt>
      <trkpt lat="46.213" lon="6.78891">
        <ele>1895</ele>
        <time>2010-01-03T21:48:19Z</time>
      </trkpt>
      <trkpt lat="46.21316" lon="6.78859">
        <ele>1896</ele>
        <time>2010-01-03T21:48:30Z</time>
      </trkpt>
      <trkpt lat="46.21325" lon="6.78846">
        <ele>1898</ele>
        <time>2010-01-03T21:48:35Z</time>
      </trkpt>
      <trkpt lat="46.21326" lon="6.78845">
        <ele>1898</ele>
        <time>2010-01-03T21:48:35Z</time>
      </trkpt>
      <trkpt lat="46.21346" lon="6.78817">
        <ele>1894</ele>
        <time>2010-01-03T21:48:46Z</time>
      </trkpt>
      <trkpt lat="46.21368" lon="6.78782">
        <ele>1889</ele>
        <time>2010-01-03T21:48:59Z</time>
      </trkpt>
      <trkpt lat="46.21375" lon="6.78756">
        <ele>1889</ele>
        <time>2010-01-03T21:49:07Z</time>
      </trkpt>
      <trkpt lat="46.21386" lon="6.78735">
        <ele>1889</ele>
        <time>2010-01-03T21:49:14Z</time>
      </trkpt>
      <trkpt lat="46.21397" lon="6.78706">
        <ele>1889</ele>
        <time>2010-01-03T21:49:24Z</time>
      </trkpt>
      <trkpt lat="46.21413" lon="6.78682">
        <ele>1891</ele>
        <time>2010-01-03T21:49:33Z</time>
      </trkpt>
      <trkpt lat="46.21443" lon="6.78653">
        <ele>1884</ele>
        <time>2010-01-03T21:49:47Z</time>
      </trkpt>
      <trkpt lat="46.2146" lon="6.78629">
        <ele>1882</ele>
        <time>2010-01-03T21:49:57Z</time>
      </trkpt>
      <trkpt lat="46.21489" lon="6.78593">
        <ele>1884</ele>
        <time>2010-01-03T21:50:12Z</time>
      </trkpt>
      <trkpt lat="46.21508" lon="6.7858">
        <ele>1884</ele>
        <time>2010-01-03T21:50:20Z</time>
      </trkpt>
      <trkpt lat="46.21527" lon="6.78574">
        <ele>1880</ele>
        <time>2010-01-03T21:50:28Z</time>
      </trkpt>
      <trkpt lat="46.21549" lon="6.78553">
        <ele>1877</ele>
        <time>2010-01-03T21:50:39Z</time>
      </trkpt>
      <trkpt lat="46.21558" lon="6.78538">
        <ele>1878</ele>
        <time>2010-01-03T21:50:44Z</time>
      </trkpt>
      <trkpt lat="46.21567" lon="6.78524">
        <ele>1881</ele>
        <time>2010-01-03T21:50:50Z</time>
      </trkpt>
      <trkpt lat="46.21572" lon="6.78509">
        <ele>1883</ele>
        <time>2010-01-03T21:50:54Z</time>
      </trkpt>
      <trkpt lat="46.21577" lon="6.78494">
        <ele>1886</ele>
        <time>2010-01-03T21:50:59Z</time>
      </trkpt>
      <trkpt lat="46.21587" lon="6.7847">
        <ele>1883</ele>
        <time>2010-01-03T21:51:07Z</time>
      </trkpt>
      <trkpt lat="46.21596" lon="6.78455">
        <ele>1883</ele>
        <time>2010-01-03T21:51:12Z</time>
      </trkpt>
      <trkpt lat="46.21597" lon="6.78454">
        <ele>1883</ele>
        <time>2010-01-03T21:51:12Z</time>
      </trkpt>
      <trkpt lat="46.21604" lon="6.78444">
        <ele>1883</ele>
        <time>2010-01-03T21:51:16Z</time>
      </trkpt>
      <trkpt lat="46.21617" lon="6.78416">
        <ele>1891</ele>
        <time>2010-01-03T21:51:26Z</time>
      </trkpt>
      <trkpt lat="46.21618" lon="6.78415">
        <ele>1891</ele>
        <time>2010-01-03T21:51:26Z</time>
      </trkpt>
      <trkpt lat="46.21618" lon="6.78414">
        <ele>1891</ele>
        <time>2010-01-03T21:51:27Z</time>
      </trkpt>
      <trkpt lat="46.21621" lon="6.78401">
        <ele>1892</ele>
        <time>2010-01-03T21:51:31Z</time>
      </trkpt>
      <trkpt lat="46.21621" lon="6.78399">
        <ele>1892</ele>
        <time>2010-01-03T21:51:31Z</time>
      </trkpt>
      <trkpt lat="46.21629" lon="6.78365">
        <ele>1893</ele>
        <time>2010-01-03T21:51:41Z</time>
      </trkpt>
      <trkpt lat="46.21636" lon="6.78319">
        <ele>1896</ele>
        <time>2010-01-03T21:51:54Z</time>
      </trkpt>
      <trkpt lat="46.21637" lon="6.78254">
        <ele>1897</ele>
        <time>2010-01-03T21:52:12Z</time>
      </trkpt>
      <trkpt lat="46.21637" lon="6.78228">
        <ele>1894</ele>
        <time>2010-01-03T21:52:19Z</time>
      </trkpt>
      <trkpt lat="46.21638" lon="6.78202">
        <ele>1893</ele>
        <time>2010-01-03T21:52:26Z</time>
      </trkpt>
      <trkpt lat="46.21638" lon="6.78169">
        <ele>1894</ele>
        <time>2010-01-03T21:52:35Z</time>
      </trkpt>
      <trkpt lat="46.21638" lon="6.78147">
        <ele>1888</ele>
        <time>2010-01-03T21:52:42Z</time>
      </trkpt>
      <trkpt lat="46.21644" lon="6.78129">
        <ele>1887</ele>
        <time>2010-01-03T21:52:47Z</time>
      </trkpt>
      <trkpt lat="46.21658" lon="6.78084">
        <ele>1893</ele>
        <time>2010-01-03T21:53:01Z</time>
      </trkpt>
      <trkpt lat="46.21673" lon="6.78049">
        <ele>1896</ele>
        <time>2010-01-03T21:53:12Z</time>
      </trkpt>
      <trkpt lat="46.21695" lon="6.78013">
        <ele>1893</ele>
        <time>2010-01-03T21:53:25Z</time>
      </trkpt>
      <trkpt lat="46.21705" lon="6.78">
        <ele>1879</ele>
        <time>2010-01-03T21:53:31Z</time>
      </trkpt>
      <trkpt lat="46.21723" lon="6.77983">
        <ele>1883</ele>
        <time>2010-01-03T21:53:39Z</time>
      </trkpt>
      <trkpt lat="46.21756" lon="6.77948">
        <ele>1892</ele>
        <time>2010-01-03T21:53:56Z</time>
      </trkpt>
      <trkpt lat="46.21798" lon="6.77907">
        <ele>1875</ele>
        <time>2010-01-03T21:54:16Z</time>
      </trkpt>
      <trkpt lat="46.21829" lon="6.77878">
        <ele>1874</ele>
        <time>2010-01-03T21:54:31Z</time>
      </trkpt>
      <trkpt lat="46.21848" lon="6.77861">
        <ele>1875</ele>
        <time>2010-01-03T21:54:40Z</time>
      </trkpt>
      <trkpt lat="46.21863" lon="6.77841">
        <ele>1873</ele>
        <time>2010-01-03T21:54:48Z</time>
      </trkpt>
      <trkpt lat="46.21864" lon="6.77841">
        <ele>1873</ele>
        <time>2010-01-03T21:54:48Z</time>
      </trkpt>
      <trkpt lat="46.21879" lon="6.7783">
        <ele>1862</ele>
        <time>2010-01-03T21:54:55Z</time>
      </trkpt>
      <trkpt lat="46.21882" lon="6.77827">
        <ele>1862</ele>
        <time>2010-01-03T21:54:57Z</time>
      </trkpt>
      <trkpt lat="46.21889" lon="6.77824">
        <ele>1862</ele>
        <time>2010-01-03T21:54:59Z</time>
      </trkpt>
      <trkpt lat="46.21898" lon="6.77816">
        <ele>1862</ele>
        <time>2010-01-03T21:55:04Z</time>
      </trkpt>
      <trkpt lat="46.21912" lon="6.77799">
        <ele>1862</ele>
        <time>2010-01-03T21:55:11Z</time>
      </trkpt>
      <trkpt lat="46.21917" lon="6.77792">
        <ele>1853</ele>
        <time>2010-01-03T21:55:14Z</time>
      </trkpt>
      <trkpt lat="46.2192" lon="6.77796">
        <ele>1853</ele>
        <time>2010-01-03T21:55:15Z</time>
      </trkpt>
      <trkpt lat="46.21915" lon="6.77809">
        <ele>1862</ele>
        <time>2010-01-03T21:55:20Z</time>
      </trkpt>
      <trkpt lat="46.21915" lon="6.77819">
        <ele>1863</ele>
        <time>2010-01-03T21:55:22Z</time>
      </trkpt>
      <trkpt lat="46.21917" lon="6.77828">
        <ele>1861</ele>
        <time>2010-01-03T21:55:25Z</time>
      </trkpt>
      <trkpt lat="46.21918" lon="6.77836">
        <ele>1863</ele>
        <time>2010-01-03T21:55:27Z</time>
      </trkpt>
      <trkpt lat="46.21921" lon="6.77848">
        <ele>1859</ele>
        <time>2010-01-03T21:55:31Z</time>
      </trkpt>
      <trkpt lat="46.21923" lon="6.77857">
        <ele>1858</ele>
        <time>2010-01-03T21:55:33Z</time>
      </trkpt>
      <trkpt lat="46.21925" lon="6.77865">
        <ele>1857</ele>
        <time>2010-01-03T21:55:35Z</time>
      </trkpt>
      <trkpt lat="46.21927" lon="6.77876">
        <ele>1858</ele>
        <time>2010-01-03T21:55:39Z</time>
      </trkpt>
      <trkpt lat="46.21929" lon="6.77881">
        <ele>1858</ele>
        <time>2010-01-03T21:55:41Z</time>
      </trkpt>
      <trkpt lat="46.21932" lon="6.77887">
        <ele>1859</ele>
        <time>2010-01-03T21:55:42Z</time>
      </trkpt>
      <trkpt lat="46.21934" lon="6.77891">
        <ele>1859</ele>
        <time>2010-01-03T21:55:44Z</time>
      </trkpt>
      <trkpt lat="46.21938" lon="6.77894">
        <ele>1859</ele>
        <time>2010-01-03T21:55:46Z</time>
      </trkpt>
      <trkpt lat="46.21937" lon="6.77889">
        <ele>1858</ele>
        <time>2010-01-03T21:55:47Z</time>
      </trkpt>
      <trkpt lat="46.21937" lon="6.7788">
        <ele>1857</ele>
        <time>2010-01-03T21:55:49Z</time>
      </trkpt>
      <trkpt lat="46.21934" lon="6.7787">
        <ele>1856</ele>
        <time>2010-01-03T21:55:53Z</time>
      </trkpt>
      <trkpt lat="46.21936" lon="6.77865">
        <ele>1855</ele>
        <time>2010-01-03T21:55:54Z</time>
      </trkpt>
      <trkpt lat="46.21938" lon="6.77865">
        <ele>1855</ele>
        <time>2010-01-03T21:55:55Z</time>
      </trkpt>
      <trkpt lat="46.21946" lon="6.77881">
        <ele>1854</ele>
        <time>2010-01-03T21:56:00Z</time>
      </trkpt>
      <trkpt lat="46.21953" lon="6.7789">
        <ele>1853</ele>
        <time>2010-01-03T21:56:04Z</time>
      </trkpt>
      <trkpt lat="46.21964" lon="6.77907">
        <ele>1850</ele>
        <time>2010-01-03T21:56:10Z</time>
      </trkpt>
      <trkpt lat="46.21968" lon="6.77916">
        <ele>1849</ele>
        <time>2010-01-03T21:56:14Z</time>
      </trkpt>
      <trkpt lat="46.21972" lon="6.77926">
        <ele>1852</ele>
        <time>2010-01-03T21:56:17Z</time>
      </trkpt>
      <trkpt lat="46.21972" lon="6.77927">
        <ele>1852</ele>
        <time>2010-01-03T21:56:17Z</time>
      </trkpt>
      <trkpt lat="46.21978" lon="6.77946">
        <ele>1852</ele>
        <time>2010-01-03T21:56:23Z</time>
      </trkpt>
      <trkpt lat="46.21986" lon="6.77973">
        <ele>1851</ele>
        <time>2010-01-03T21:56:31Z</time>
      </trkpt>
      <trkpt lat="46.21988" lon="6.77979">
        <ele>1849</ele>
        <time>2010-01-03T21:56:33Z</time>
      </trkpt>
      <trkpt lat="46.21991" lon="6.77986">
        <ele>1846</ele>
        <time>2010-01-03T21:56:35Z</time>
      </trkpt>
      <trkpt lat="46.21994" lon="6.77984">
        <ele>1846</ele>
        <time>2010-01-03T21:56:36Z</time>
      </trkpt>
      <trkpt lat="46.21993" lon="6.77975">
        <ele>1849</ele>
        <time>2010-01-03T21:56:39Z</time>
      </trkpt>
      <trkpt lat="46.21992" lon="6.77962">
        <ele>1850</ele>
        <time>2010-01-03T21:56:43Z</time>
      </trkpt>
      <trkpt lat="46.21994" lon="6.77944">
        <ele>1848</ele>
        <time>2010-01-03T21:56:48Z</time>
      </trkpt>
      <trkpt lat="46.21991" lon="6.77929">
        <ele>1844</ele>
        <time>2010-01-03T21:56:52Z</time>
      </trkpt>
      <trkpt lat="46.21987" lon="6.77911">
        <ele>1841</ele>
        <time>2010-01-03T21:56:57Z</time>
      </trkpt>
      <trkpt lat="46.21981" lon="6.77892">
        <ele>1845</ele>
        <time>2010-01-03T21:57:03Z</time>
      </trkpt>
      <trkpt lat="46.2198" lon="6.7788">
        <ele>1845</ele>
        <time>2010-01-03T21:57:06Z</time>
      </trkpt>
      <trkpt lat="46.21982" lon="6.77873">
        <ele>1844</ele>
        <time>2010-01-03T21:57:09Z</time>
      </trkpt>
      <trkpt lat="46.21987" lon="6.77882">
        <ele>1844</ele>
        <time>2010-01-03T21:57:11Z</time>
      </trkpt>
      <trkpt lat="46.21993" lon="6.7789">
        <ele>1843</ele>
        <time>2010-01-03T21:57:15Z</time>
      </trkpt>
      <trkpt lat="46.21997" lon="6.77891">
        <ele>1842</ele>
        <time>2010-01-03T21:57:17Z</time>
      </trkpt>
      <trkpt lat="46.22" lon="6.77888">
        <ele>1842</ele>
        <time>2010-01-03T21:57:18Z</time>
      </trkpt>
      <trkpt lat="46.22002" lon="6.77883">
        <ele>1817</ele>
        <time>2010-01-03T21:57:19Z</time>
      </trkpt>
      <trkpt lat="46.21996" lon="6.77867">
        <ele>1841</ele>
        <time>2010-01-03T21:57:25Z</time>
      </trkpt>
      <trkpt lat="46.21995" lon="6.77865">
        <ele>1841</ele>
        <time>2010-01-03T21:57:25Z</time>
      </trkpt>
      <trkpt lat="46.21989" lon="6.77854">
        <ele>1839</ele>
        <time>2010-01-03T21:57:29Z</time>
      </trkpt>
      <trkpt lat="46.21988" lon="6.77842">
        <ele>1836</ele>
        <time>2010-01-03T21:57:32Z</time>
      </trkpt>
      <trkpt lat="46.21991" lon="6.7784">
        <ele>1833</ele>
        <time>2010-01-03T21:57:33Z</time>
      </trkpt>
      <trkpt lat="46.22" lon="6.77851">
        <ele>1836</ele>
        <time>2010-01-03T21:57:38Z</time>
      </trkpt>
      <trkpt lat="46.22006" lon="6.77856">
        <ele>1816</ele>
        <time>2010-01-03T21:57:41Z</time>
      </trkpt>
      <trkpt lat="46.22013" lon="6.77863">
        <ele>1814</ele>
        <time>2010-01-03T21:57:44Z</time>
      </trkpt>
      <trkpt lat="46.22017" lon="6.77862">
        <ele>1814</ele>
        <time>2010-01-03T21:57:46Z</time>
      </trkpt>
      <trkpt lat="46.22023" lon="6.77873">
        <ele>1813</ele>
        <time>2010-01-03T21:57:50Z</time>
      </trkpt>
      <trkpt lat="46.22029" lon="6.77895">
        <ele>1813</ele>
        <time>2010-01-03T21:57:56Z</time>
      </trkpt>
      <trkpt lat="46.22035" lon="6.7791">
        <ele>1812</ele>
        <time>2010-01-03T21:58:01Z</time>
      </trkpt>
      <trkpt lat="46.22054" lon="6.77932">
        <ele>1807</ele>
        <time>2010-01-03T21:58:11Z</time>
      </trkpt>
      <trkpt lat="46.22059" lon="6.77944">
        <ele>1806</ele>
        <time>2010-01-03T21:58:15Z</time>
      </trkpt>
      <trkpt lat="46.22061" lon="6.77954">
        <ele>1806</ele>
        <time>2010-01-03T21:58:17Z</time>
      </trkpt>
      <trkpt lat="46.22061" lon="6.77966">
        <ele>1805</ele>
        <time>2010-01-03T21:58:21Z</time>
      </trkpt>
      <trkpt lat="46.22057" lon="6.77977">
        <ele>1805</ele>
        <time>2010-01-03T21:58:24Z</time>
      </trkpt>
      <trkpt lat="46.2205" lon="6.77985">
        <ele>1807</ele>
        <time>2010-01-03T21:58:28Z</time>
      </trkpt>
      <trkpt lat="46.22042" lon="6.77994">
        <ele>1810</ele>
        <time>2010-01-03T21:58:32Z</time>
      </trkpt>
      <trkpt lat="46.22032" lon="6.77999">
        <ele>1814</ele>
        <time>2010-01-03T21:58:36Z</time>
      </trkpt>
      <trkpt lat="46.22026" lon="6.78017">
        <ele>1812</ele>
        <time>2010-01-03T21:58:42Z</time>
      </trkpt>
      <trkpt lat="46.22023" lon="6.78031">
        <ele>1811</ele>
        <time>2010-01-03T21:58:46Z</time>
      </trkpt>
      <trkpt lat="46.22019" lon="6.78044">
        <ele>1810</ele>
        <time>2010-01-03T21:58:50Z</time>
      </trkpt>
      <trkpt lat="46.22019" lon="6.7805">
        <ele>1810</ele>
        <time>2010-01-03T21:58:51Z</time>
      </trkpt>
      <trkpt lat="46.22018" lon="6.78059">
        <ele>1811</ele>
        <time>2010-01-03T21:58:54Z</time>
      </trkpt>
      <trkpt lat="46.22018" lon="6.78083">
        <ele>1813</ele>
        <time>2010-01-03T21:59:00Z</time>
      </trkpt>
      <trkpt lat="46.2202" lon="6.78096">
        <ele>1808</ele>
        <time>2010-01-03T21:59:04Z</time>
      </trkpt>
      <trkpt lat="46.22024" lon="6.78113">
        <ele>1804</ele>
        <time>2010-01-03T21:59:09Z</time>
      </trkpt>
      <trkpt lat="46.22037" lon="6.7816">
        <ele>1799</ele>
        <time>2010-01-03T21:59:23Z</time>
      </trkpt>
      <trkpt lat="46.2204" lon="6.78173">
        <ele>1796</ele>
        <time>2010-01-03T21:59:27Z</time>
      </trkpt>
      <trkpt lat="46.2204" lon="6.78182">
        <ele>1795</ele>
        <time>2010-01-03T21:59:29Z</time>
      </trkpt>
      <trkpt lat="46.2204" lon="6.78201">
        <ele>1795</ele>
        <time>2010-01-03T21:59:35Z</time>
      </trkpt>
      <trkpt lat="46.22033" lon="6.78255">
        <ele>1791</ele>
        <time>2010-01-03T21:59:50Z</time>
      </trkpt>
      <trkpt lat="46.22031" lon="6.78273">
        <ele>1790</ele>
        <time>2010-01-03T21:59:55Z</time>
      </trkpt>
      <trkpt lat="46.22027" lon="6.78292">
        <ele>1787</ele>
        <time>2010-01-03T22:00:01Z</time>
      </trkpt>
      <trkpt lat="46.22018" lon="6.78308">
        <ele>1787</ele>
        <time>2010-01-03T22:00:06Z</time>
      </trkpt>
      <trkpt lat="46.22006" lon="6.78321">
        <ele>1789</ele>
        <time>2010-01-03T22:00:12Z</time>
      </trkpt>
      <trkpt lat="46.21992" lon="6.78331">
        <ele>1800</ele>
        <time>2010-01-03T22:00:18Z</time>
      </trkpt>
      <trkpt lat="46.21982" lon="6.78333">
        <ele>1794</ele>
        <time>2010-01-03T22:00:23Z</time>
      </trkpt>
      <trkpt lat="46.2197" lon="6.78346">
        <ele>1795</ele>
        <time>2010-01-03T22:00:28Z</time>
      </trkpt>
      <trkpt lat="46.21964" lon="6.7836">
        <ele>1795</ele>
        <time>2010-01-03T22:00:33Z</time>
      </trkpt>
      <trkpt lat="46.21964" lon="6.78361">
        <ele>1795</ele>
        <time>2010-01-03T22:00:33Z</time>
      </trkpt>
      <trkpt lat="46.21958" lon="6.78374">
        <ele>1794</ele>
        <time>2010-01-03T22:00:38Z</time>
      </trkpt>
      <trkpt lat="46.2195" lon="6.78387">
        <ele>1793</ele>
        <time>2010-01-03T22:00:43Z</time>
      </trkpt>
      <trkpt lat="46.21949" lon="6.78395">
        <ele>1792</ele>
        <time>2010-01-03T22:00:45Z</time>
      </trkpt>
      <trkpt lat="46.21949" lon="6.78399">
        <ele>1792</ele>
        <time>2010-01-03T22:00:46Z</time>
      </trkpt>
      <trkpt lat="46.21951" lon="6.784">
        <ele>1791</ele>
        <time>2010-01-03T22:00:47Z</time>
      </trkpt>
      <trkpt lat="46.21956" lon="6.78397">
        <ele>1791</ele>
        <time>2010-01-03T22:00:49Z</time>
      </trkpt>
      <trkpt lat="46.21965" lon="6.78391">
        <ele>1790</ele>
        <time>2010-01-03T22:00:53Z</time>
      </trkpt>
      <trkpt lat="46.21977" lon="6.78386">
        <ele>1789</ele>
        <time>2010-01-03T22:00:58Z</time>
      </trkpt>
      <trkpt lat="46.21984" lon="6.78385">
        <ele>1787</ele>
        <time>2010-01-03T22:01:01Z</time>
      </trkpt>
      <trkpt lat="46.21989" lon="6.78379">
        <ele>1788</ele>
        <time>2010-01-03T22:01:03Z</time>
      </trkpt>
      <trkpt lat="46.21994" lon="6.78368">
        <ele>1790</ele>
        <time>2010-01-03T22:01:07Z</time>
      </trkpt>
      <trkpt lat="46.22004" lon="6.78366">
        <ele>1770</ele>
        <time>2010-01-03T22:01:11Z</time>
      </trkpt>
      <trkpt lat="46.2202" lon="6.78362">
        <ele>1769</ele>
        <time>2010-01-03T22:01:17Z</time>
      </trkpt>
      <trkpt lat="46.22028" lon="6.78362">
        <ele>1767</ele>
        <time>2010-01-03T22:01:21Z</time>
      </trkpt>
      <trkpt lat="46.22041" lon="6.78347">
        <ele>1765</ele>
        <time>2010-01-03T22:01:27Z</time>
      </trkpt>
      <trkpt lat="46.22046" lon="6.78329">
        <ele>1780</ele>
        <time>2010-01-03T22:01:33Z</time>
      </trkpt>
      <trkpt lat="46.22049" lon="6.78341">
        <ele>1764</ele>
        <time>2010-01-03T22:01:36Z</time>
      </trkpt>
      <trkpt lat="46.22051" lon="6.78353">
        <ele>1762</ele>
        <time>2010-01-03T22:01:40Z</time>
      </trkpt>
      <trkpt lat="46.22054" lon="6.78356">
        <ele>1761</ele>
        <time>2010-01-03T22:01:41Z</time>
      </trkpt>
      <trkpt lat="46.22056" lon="6.78351">
        <ele>1761</ele>
        <time>2010-01-03T22:01:43Z</time>
      </trkpt>
      <trkpt lat="46.22057" lon="6.78341">
        <ele>1762</ele>
        <time>2010-01-03T22:01:45Z</time>
      </trkpt>
      <trkpt lat="46.22062" lon="6.78326">
        <ele>1774</ele>
        <time>2010-01-03T22:01:50Z</time>
      </trkpt>
      <trkpt lat="46.22065" lon="6.78315">
        <ele>1775</ele>
        <time>2010-01-03T22:01:53Z</time>
      </trkpt>
      <trkpt lat="46.2207" lon="6.78316">
        <ele>1773</ele>
        <time>2010-01-03T22:01:55Z</time>
      </trkpt>
      <trkpt lat="46.22067" lon="6.78327">
        <ele>1771</ele>
        <time>2010-01-03T22:01:58Z</time>
      </trkpt>
      <trkpt lat="46.22067" lon="6.78351">
        <ele>1760</ele>
        <time>2010-01-03T22:02:05Z</time>
      </trkpt>
      <trkpt lat="46.22063" lon="6.78368">
        <ele>1758</ele>
        <time>2010-01-03T22:02:10Z</time>
      </trkpt>
      <trkpt lat="46.22055" lon="6.78385">
        <ele>1756</ele>
        <time>2010-01-03T22:02:16Z</time>
      </trkpt>
      <trkpt lat="46.22048" lon="6.78397">
        <ele>1756</ele>
        <time>2010-01-03T22:02:20Z</time>
      </trkpt>
      <trkpt lat="46.22039" lon="6.78413">
        <ele>1757</ele>
        <time>2010-01-03T22:02:26Z</time>
      </trkpt>
      <trkpt lat="46.2203" lon="6.78427">
        <ele>1741</ele>
        <time>2010-01-03T22:02:31Z</time>
      </trkpt>
      <trkpt lat="46.22023" lon="6.78443">
        <ele>1740</ele>
        <time>2010-01-03T22:02:36Z</time>
      </trkpt>
      <trkpt lat="46.22022" lon="6.78455">
        <ele>1737</ele>
        <time>2010-01-03T22:02:40Z</time>
      </trkpt>
      <trkpt lat="46.22016" lon="6.78481">
        <ele>1733</ele>
        <time>2010-01-03T22:02:47Z</time>
      </trkpt>
      <trkpt lat="46.22005" lon="6.78494">
        <ele>1733</ele>
        <time>2010-01-03T22:02:53Z</time>
      </trkpt>
      <trkpt lat="46.21997" lon="6.78504">
        <ele>1733</ele>
        <time>2010-01-03T22:02:57Z</time>
      </trkpt>
      <trkpt lat="46.21986" lon="6.78508">
        <ele>1733</ele>
        <time>2010-01-03T22:03:02Z</time>
      </trkpt>
      <trkpt lat="46.2198" lon="6.78508">
        <ele>1733</ele>
        <time>2010-01-03T22:03:04Z</time>
      </trkpt>
      <trkpt lat="46.21976" lon="6.78509">
        <ele>1733</ele>
        <time>2010-01-03T22:03:06Z</time>
      </trkpt>
      <trkpt lat="46.21968" lon="6.78514">
        <ele>1733</ele>
        <time>2010-01-03T22:03:09Z</time>
      </trkpt>
      <trkpt lat="46.21963" lon="6.78522">
        <ele>1733</ele>
        <time>2010-01-03T22:03:12Z</time>
      </trkpt>
      <trkpt lat="46.21959" lon="6.78526">
        <ele>1733</ele>
        <time>2010-01-03T22:03:14Z</time>
      </trkpt>
      <trkpt lat="46.21948" lon="6.78531">
        <ele>1734</ele>
        <time>2010-01-03T22:03:19Z</time>
      </trkpt>
      <trkpt lat="46.21939" lon="6.78538">
        <ele>1733</ele>
        <time>2010-01-03T22:03:23Z</time>
      </trkpt>
      <trkpt lat="46.21913" lon="6.78543">
        <ele>1751</ele>
        <time>2010-01-03T22:03:33Z</time>
      </trkpt>
      <trkpt lat="46.21898" lon="6.78548">
        <ele>1752</ele>
        <time>2010-01-03T22:03:39Z</time>
      </trkpt>
      <trkpt lat="46.21881" lon="6.78561">
        <ele>1753</ele>
        <time>2010-01-03T22:03:47Z</time>
      </trkpt>
      <trkpt lat="46.21877" lon="6.78572">
        <ele>1752</ele>
        <time>2010-01-03T22:03:50Z</time>
      </trkpt>
      <trkpt lat="46.21873" lon="6.78581">
        <ele>1752</ele>
        <time>2010-01-03T22:03:54Z</time>
      </trkpt>
      <trkpt lat="46.21868" lon="6.78595">
        <ele>1733</ele>
        <time>2010-01-03T22:03:58Z</time>
      </trkpt>
      <trkpt lat="46.21854" lon="6.78605">
        <ele>1735</ele>
        <time>2010-01-03T22:04:04Z</time>
      </trkpt>
      <trkpt lat="46.21844" lon="6.78612">
        <ele>1735</ele>
        <time>2010-01-03T22:04:09Z</time>
      </trkpt>
      <trkpt lat="46.21837" lon="6.7862">
        <ele>1733</ele>
        <time>2010-01-03T22:04:12Z</time>
      </trkpt>
      <trkpt lat="46.21834" lon="6.78628">
        <ele>1731</ele>
        <time>2010-01-03T22:04:15Z</time>
      </trkpt>
      <trkpt lat="46.21839" lon="6.78642">
        <ele>1728</ele>
        <time>2010-01-03T22:04:19Z</time>
      </trkpt>
      <trkpt lat="46.21838" lon="6.78652">
        <ele>1726</ele>
        <time>2010-01-03T22:04:22Z</time>
      </trkpt>
      <trkpt lat="46.2183" lon="6.78664">
        <ele>1731</ele>
        <time>2010-01-03T22:04:26Z</time>
      </trkpt>
      <trkpt lat="46.21824" lon="6.78676">
        <ele>1727</ele>
        <time>2010-01-03T22:04:30Z</time>
      </trkpt>
      <trkpt lat="46.21817" lon="6.78685">
        <ele>1728</ele>
        <time>2010-01-03T22:04:34Z</time>
      </trkpt>
      <trkpt lat="46.21811" lon="6.787">
        <ele>1727</ele>
        <time>2010-01-03T22:04:39Z</time>
      </trkpt>
      <trkpt lat="46.21809" lon="6.78713">
        <ele>1726</ele>
        <time>2010-01-03T22:04:42Z</time>
      </trkpt>
      <trkpt lat="46.21802" lon="6.78719">
        <ele>1726</ele>
        <time>2010-01-03T22:04:46Z</time>
      </trkpt>
      <trkpt lat="46.21792" lon="6.78726">
        <ele>1727</ele>
        <time>2010-01-03T22:04:50Z</time>
      </trkpt>
      <trkpt lat="46.21786" lon="6.78731">
        <ele>1727</ele>
        <time>2010-01-03T22:04:53Z</time>
      </trkpt>
      <trkpt lat="46.21782" lon="6.78743">
        <ele>1727</ele>
        <time>2010-01-03T22:04:57Z</time>
      </trkpt>
      <trkpt lat="46.21778" lon="6.78762">
        <ele>1715</ele>
        <time>2010-01-03T22:05:02Z</time>
      </trkpt>
      <trkpt lat="46.21773" lon="6.78777">
        <ele>1713</ele>
        <time>2010-01-03T22:05:07Z</time>
      </trkpt>
      <trkpt lat="46.21764" lon="6.78785">
        <ele>1714</ele>
        <time>2010-01-03T22:05:11Z</time>
      </trkpt>
      <trkpt lat="46.21757" lon="6.78788">
        <ele>1714</ele>
        <time>2010-01-03T22:05:14Z</time>
      </trkpt>
      <trkpt lat="46.21747" lon="6.78793">
        <ele>1732</ele>
        <time>2010-01-03T22:05:18Z</time>
      </trkpt>
      <trkpt lat="46.21743" lon="6.78804">
        <ele>1730</ele>
        <time>2010-01-03T22:05:21Z</time>
      </trkpt>
      <trkpt lat="46.21744" lon="6.7881">
        <ele>1728</ele>
        <time>2010-01-03T22:05:23Z</time>
      </trkpt>
      <trkpt lat="46.21743" lon="6.78819">
        <ele>1725</ele>
        <time>2010-01-03T22:05:26Z</time>
      </trkpt>
      <trkpt lat="46.21742" lon="6.78829">
        <ele>1720</ele>
        <time>2010-01-03T22:05:28Z</time>
      </trkpt>
      <trkpt lat="46.21742" lon="6.78841">
        <ele>1717</ele>
        <time>2010-01-03T22:05:32Z</time>
      </trkpt>
      <trkpt lat="46.21741" lon="6.78853">
        <ele>1718</ele>
        <time>2010-01-03T22:05:35Z</time>
      </trkpt>
      <trkpt lat="46.21738" lon="6.78865">
        <ele>1719</ele>
        <time>2010-01-03T22:05:39Z</time>
      </trkpt>
      <trkpt lat="46.2173" lon="6.78872">
        <ele>1720</ele>
        <time>2010-01-03T22:05:42Z</time>
      </trkpt>
      <trkpt lat="46.2173" lon="6.78873">
        <ele>1720</ele>
        <time>2010-01-03T22:05:43Z</time>
      </trkpt>
      <trkpt lat="46.21725" lon="6.78878">
        <ele>1720</ele>
        <time>2010-01-03T22:05:45Z</time>
      </trkpt>
      <trkpt lat="46.21722" lon="6.78886">
        <ele>1720</ele>
        <time>2010-01-03T22:05:47Z</time>
      </trkpt>
      <trkpt lat="46.21719" lon="6.78914">
        <ele>1718</ele>
        <time>2010-01-03T22:05:56Z</time>
      </trkpt>
      <trkpt lat="46.21729" lon="6.78928">
        <ele>1710</ele>
        <time>2010-01-03T22:06:01Z</time>
      </trkpt>
      <trkpt lat="46.21737" lon="6.78936">
        <ele>1709</ele>
        <time>2010-01-03T22:06:05Z</time>
      </trkpt>
      <trkpt lat="46.21746" lon="6.78949">
        <ele>1708</ele>
        <time>2010-01-03T22:06:10Z</time>
      </trkpt>
      <trkpt lat="46.21755" lon="6.78962">
        <ele>1692</ele>
        <time>2010-01-03T22:06:15Z</time>
      </trkpt>
      <trkpt lat="46.21762" lon="6.78964">
        <ele>1692</ele>
        <time>2010-01-03T22:06:18Z</time>
      </trkpt>
      <trkpt lat="46.21769" lon="6.78973">
        <ele>1691</ele>
        <time>2010-01-03T22:06:22Z</time>
      </trkpt>
      <trkpt lat="46.21775" lon="6.78986">
        <ele>1690</ele>
        <time>2010-01-03T22:06:26Z</time>
      </trkpt>
      <trkpt lat="46.21777" lon="6.78998">
        <ele>1690</ele>
        <time>2010-01-03T22:06:29Z</time>
      </trkpt>
      <trkpt lat="46.21772" lon="6.79007">
        <ele>1687</ele>
        <time>2010-01-03T22:06:33Z</time>
      </trkpt>
      <trkpt lat="46.21768" lon="6.79013">
        <ele>1687</ele>
        <time>2010-01-03T22:06:35Z</time>
      </trkpt>
      <trkpt lat="46.21768" lon="6.79013">
        <ele>1687</ele>
        <time>2010-01-03T22:06:35Z</time>
      </trkpt>
      <trkpt lat="46.21764" lon="6.79017">
        <ele>1687</ele>
        <time>2010-01-03T22:06:37Z</time>
      </trkpt>
      <trkpt lat="46.21764" lon="6.79018">
        <ele>1687</ele>
        <time>2010-01-03T22:06:37Z</time>
      </trkpt>
      <trkpt lat="46.21761" lon="6.79025">
        <ele>1686</ele>
        <time>2010-01-03T22:06:40Z</time>
      </trkpt>
      <trkpt lat="46.21761" lon="6.79035">
        <ele>1685</ele>
        <time>2010-01-03T22:06:42Z</time>
      </trkpt>
      <trkpt lat="46.21756" lon="6.79052">
        <ele>1684</ele>
        <time>2010-01-03T22:06:47Z</time>
      </trkpt>
      <trkpt lat="46.21747" lon="6.79075">
        <ele>1691</ele>
        <time>2010-01-03T22:06:55Z</time>
      </trkpt>
      <trkpt lat="46.21729" lon="6.79076">
        <ele>1695</ele>
        <time>2010-01-03T22:07:02Z</time>
      </trkpt>
      <trkpt lat="46.21724" lon="6.7908">
        <ele>1696</ele>
        <time>2010-01-03T22:07:04Z</time>
      </trkpt>
      <trkpt lat="46.21708" lon="6.79124">
        <ele>1685</ele>
        <time>2010-01-03T22:07:18Z</time>
      </trkpt>
      <trkpt lat="46.21705" lon="6.79145">
        <ele>1683</ele>
        <time>2010-01-03T22:07:24Z</time>
      </trkpt>
      <trkpt lat="46.21689" lon="6.79179">
        <ele>1671</ele>
        <time>2010-01-03T22:07:35Z</time>
      </trkpt>
      <trkpt lat="46.21679" lon="6.79213">
        <ele>1666</ele>
        <time>2010-01-03T22:07:46Z</time>
      </trkpt>
      <trkpt lat="46.21677" lon="6.79216">
        <ele>1666</ele>
        <time>2010-01-03T22:07:47Z</time>
      </trkpt>
      <trkpt lat="46.21662" lon="6.79247">
        <ele>1670</ele>
        <time>2010-01-03T22:07:57Z</time>
      </trkpt>
      <trkpt lat="46.21656" lon="6.79273">
        <ele>1670</ele>
        <time>2010-01-03T22:08:05Z</time>
      </trkpt>
      <trkpt lat="46.21658" lon="6.79312">
        <ele>1665</ele>
        <time>2010-01-03T22:08:16Z</time>
      </trkpt>
      <trkpt lat="46.2167" lon="6.79323">
        <ele>1652</ele>
        <time>2010-01-03T22:08:21Z</time>
      </trkpt>
      <trkpt lat="46.21683" lon="6.79331">
        <ele>1652</ele>
        <time>2010-01-03T22:08:27Z</time>
      </trkpt>
      <trkpt lat="46.21695" lon="6.79337">
        <ele>1649</ele>
        <time>2010-01-03T22:08:32Z</time>
      </trkpt>
      <trkpt lat="46.21703" lon="6.79338">
        <ele>1649</ele>
        <time>2010-01-03T22:08:35Z</time>
      </trkpt>
      <trkpt lat="46.21712" lon="6.79327">
        <ele>1650</ele>
        <time>2010-01-03T22:08:40Z</time>
      </trkpt>
      <trkpt lat="46.21727" lon="6.79309">
        <ele>1649</ele>
        <time>2010-01-03T22:08:48Z</time>
      </trkpt>
      <trkpt lat="46.21744" lon="6.79304">
        <ele>1649</ele>
        <time>2010-01-03T22:08:55Z</time>
      </trkpt>
      <trkpt lat="46.21759" lon="6.79301">
        <ele>1643</ele>
        <time>2010-01-03T22:09:01Z</time>
      </trkpt>
      <trkpt lat="46.21782" lon="6.793">
        <ele>1642</ele>
        <time>2010-01-03T22:09:10Z</time>
      </trkpt>
      <trkpt lat="46.21795" lon="6.79338">
        <ele>1639</ele>
        <time>2010-01-03T22:09:22Z</time>
      </trkpt>
      <trkpt lat="46.21818" lon="6.79389">
        <ele>1637</ele>
        <time>2010-01-03T22:09:39Z</time>
      </trkpt>
      <trkpt lat="46.21825" lon="6.79444">
        <ele>1639</ele>
        <time>2010-01-03T22:09:54Z</time>
      </trkpt>
      <trkpt lat="46.21836" lon="6.79522">
        <ele>1634</ele>
        <time>2010-01-03T22:10:16Z</time>
      </trkpt>
      <trkpt lat="46.21845" lon="6.79569">
        <ele>1641</ele>
        <time>2010-01-03T22:10:30Z</time>
      </trkpt>
      <trkpt lat="46.2188" lon="6.79604">
        <ele>1653</ele>
        <time>2010-01-03T22:10:47Z</time>
      </trkpt>
      <trkpt lat="46.21925" lon="6.79637">
        <ele>1649</ele>
        <time>2010-01-03T22:11:07Z</time>
      </trkpt>
      <trkpt lat="46.21964" lon="6.79661">
        <ele>1650</ele>
        <time>2010-01-03T22:11:24Z</time>
      </trkpt>
      <trkpt lat="46.21997" lon="6.79668">
        <ele>1661</ele>
        <time>2010-01-03T22:11:37Z</time>
      </trkpt>
      <trkpt lat="46.22047" lon="6.79668">
        <ele>1672</ele>
        <time>2010-01-03T22:11:57Z</time>
      </trkpt>
      <trkpt lat="46.22093" lon="6.79675">
        <ele>1673</ele>
        <time>2010-01-03T22:12:16Z</time>
      </trkpt>
      <trkpt lat="46.22174" lon="6.79678">
        <ele>1685</ele>
        <time>2010-01-03T22:12:48Z</time>
      </trkpt>
      <trkpt lat="46.22218" lon="6.79676">
        <ele>1688</ele>
        <time>2010-01-03T22:13:06Z</time>
      </trkpt>
      <trkpt lat="46.22256" lon="6.79695">
        <ele>1688</ele>
        <time>2010-01-03T22:13:22Z</time>
      </trkpt>
      <trkpt lat="46.22288" lon="6.79703">
        <ele>1690</ele>
        <time>2010-01-03T22:13:35Z</time>
      </trkpt>
      <trkpt lat="46.22314" lon="6.79704">
        <ele>1688</ele>
        <time>2010-01-03T22:13:45Z</time>
      </trkpt>
      <trkpt lat="46.22354" lon="6.79722">
        <ele>1687</ele>
        <time>2010-01-03T22:14:02Z</time>
      </trkpt>
      <trkpt lat="46.22406" lon="6.7973">
        <ele>1690</ele>
        <time>2010-01-03T22:14:23Z</time>
      </trkpt>
      <trkpt lat="46.22419" lon="6.79732">
        <ele>1692</ele>
        <time>2010-01-03T22:14:28Z</time>
      </trkpt>
      <trkpt lat="46.22441" lon="6.79754">
        <ele>1707</ele>
        <time>2010-01-03T22:14:39Z</time>
      </trkpt>
      <trkpt lat="46.22466" lon="6.79749">
        <ele>1693</ele>
        <time>2010-01-03T22:14:49Z</time>
      </trkpt>
      <trkpt lat="46.22487" lon="6.79737">
        <ele>1695</ele>
        <time>2010-01-03T22:14:58Z</time>
      </trkpt>
      <trkpt lat="46.2251" lon="6.79751">
        <ele>1702</ele>
        <time>2010-01-03T22:15:08Z</time>
      </trkpt>
      <trkpt lat="46.22521" lon="6.79785">
        <ele>1702</ele>
        <time>2010-01-03T22:15:18Z</time>
      </trkpt>
      <trkpt lat="46.22544" lon="6.79808">
        <ele>1700</ele>
        <time>2010-01-03T22:15:29Z</time>
      </trkpt>
      <trkpt lat="46.22585" lon="6.79844">
        <ele>1691</ele>
        <time>2010-01-03T22:15:49Z</time>
      </trkpt>
      <trkpt lat="46.2263" lon="6.79871">
        <ele>1690</ele>
        <time>2010-01-03T22:16:08Z</time>
      </trkpt>
      <trkpt lat="46.22652" lon="6.7989">
        <ele>1690</ele>
        <time>2010-01-03T22:16:18Z</time>
      </trkpt>
      <trkpt lat="46.22669" lon="6.79883">
        <ele>1678</ele>
        <time>2010-01-03T22:16:25Z</time>
      </trkpt>
      <trkpt lat="46.22671" lon="6.79866">
        <ele>1676</ele>
        <time>2010-01-03T22:16:30Z</time>
      </trkpt>
      <trkpt lat="46.22674" lon="6.79843">
        <ele>1675</ele>
        <time>2010-01-03T22:16:37Z</time>
      </trkpt>
      <trkpt lat="46.22693" lon="6.79888">
        <ele>1676</ele>
        <time>2010-01-03T22:16:51Z</time>
      </trkpt>
      <trkpt lat="46.22718" lon="6.79898">
        <ele>1673</ele>
        <time>2010-01-03T22:17:02Z</time>
      </trkpt>
      <trkpt lat="46.22748" lon="6.79892">
        <ele>1670</ele>
        <time>2010-01-03T22:17:14Z</time>
      </trkpt>
      <trkpt lat="46.22797" lon="6.79877">
        <ele>1658</ele>
        <time>2010-01-03T22:17:34Z</time>
      </trkpt>
      <trkpt lat="46.22844" lon="6.79869">
        <ele>1651</ele>
        <time>2010-01-03T22:17:53Z</time>
      </trkpt>
      <trkpt lat="46.22906" lon="6.79888">
        <ele>1651</ele>
        <time>2010-01-03T22:18:18Z</time>
      </trkpt>
      <trkpt lat="46.22925" lon="6.79878">
        <ele>1654</ele>
        <time>2010-01-03T22:18:26Z</time>
      </trkpt>
      <trkpt lat="46.22971" lon="6.7985">
        <ele>1655</ele>
        <time>2010-01-03T22:18:46Z</time>
      </trkpt>
      <trkpt lat="46.23022" lon="6.79811">
        <ele>1650</ele>
        <time>2010-01-03T22:19:09Z</time>
      </trkpt>
      <trkpt lat="46.23089" lon="6.79821">
        <ele>1651</ele>
        <time>2010-01-03T22:19:36Z</time>
      </trkpt>
      <trkpt lat="46.23151" lon="6.79864">
        <ele>1653</ele>
        <time>2010-01-03T22:20:03Z</time>
      </trkpt>
      <trkpt lat="46.23196" lon="6.79903">
        <ele>1647</ele>
        <time>2010-01-03T22:20:25Z</time>
      </trkpt>
      <trkpt lat="46.23242" lon="6.79955">
        <ele>1649</ele>
        <time>2010-01-03T22:20:48Z</time>
      </trkpt>
      <trkpt lat="46.23267" lon="6.80005">
        <ele>1647</ele>
        <time>2010-01-03T22:21:05Z</time>
      </trkpt>
      <trkpt lat="46.23267" lon="6.80022">
        <ele>1647</ele>
        <time>2010-01-03T22:21:10Z</time>
      </trkpt>
      <trkpt lat="46.23279" lon="6.80049">
        <ele>1647</ele>
        <time>2010-01-03T22:21:19Z</time>
      </trkpt>
      <trkpt lat="46.23302" lon="6.80047">
        <ele>1646</ele>
        <time>2010-01-03T22:21:28Z</time>
      </trkpt>
      <trkpt lat="46.23316" lon="6.80048">
        <ele>1645</ele>
        <time>2010-01-03T22:21:34Z</time>
      </trkpt>
      <trkpt lat="46.23341" lon="6.80049">
        <ele>1641</ele>
        <time>2010-01-03T22:21:44Z</time>
      </trkpt>
      <trkpt lat="46.23345" lon="6.80064">
        <ele>1643</ele>
        <time>2010-01-03T22:21:48Z</time>
      </trkpt>
      <trkpt lat="46.23378" lon="6.80071">
        <ele>1642</ele>
        <time>2010-01-03T22:22:02Z</time>
      </trkpt>
      <trkpt lat="46.23407" lon="6.80073">
        <ele>1644</ele>
        <time>2010-01-03T22:22:13Z</time>
      </trkpt>
      <trkpt lat="46.23445" lon="6.80079">
        <ele>1641</ele>
        <time>2010-01-03T22:22:28Z</time>
      </trkpt>
      <trkpt lat="46.23474" lon="6.80094">
        <ele>1654</ele>
        <time>2010-01-03T22:22:41Z</time>
      </trkpt>
      <trkpt lat="46.23503" lon="6.80078">
        <ele>1642</ele>
        <time>2010-01-03T22:22:53Z</time>
      </trkpt>
      <trkpt lat="46.23532" lon="6.8006">
        <ele>1629</ele>
        <time>2010-01-03T22:23:06Z</time>
      </trkpt>
      <trkpt lat="46.23569" lon="6.80059">
        <ele>1626</ele>
        <time>2010-01-03T22:23:21Z</time>
      </trkpt>
      <trkpt lat="46.23601" lon="6.8007">
        <ele>1611</ele>
        <time>2010-01-03T22:23:34Z</time>
      </trkpt>
      <trkpt lat="46.23624" lon="6.80089">
        <ele>1623</ele>
        <time>2010-01-03T22:23:44Z</time>
      </trkpt>
      <trkpt lat="46.23635" lon="6.80137">
        <ele>1627</ele>
        <time>2010-01-03T22:23:59Z</time>
      </trkpt>
      <trkpt lat="46.23655" lon="6.8021">
        <ele>1652</ele>
        <time>2010-01-03T22:24:20Z</time>
      </trkpt>
      <trkpt lat="46.23671" lon="6.80278">
        <ele>1634</ele>
        <time>2010-01-03T22:24:40Z</time>
      </trkpt>
      <trkpt lat="46.23671" lon="6.80315">
        <ele>1642</ele>
        <time>2010-01-03T22:24:50Z</time>
      </trkpt>
      <trkpt lat="46.23677" lon="6.80368">
        <ele>1634</ele>
        <time>2010-01-03T22:25:05Z</time>
      </trkpt>
      <trkpt lat="46.23689" lon="6.80437">
        <ele>1624</ele>
        <time>2010-01-03T22:25:25Z</time>
      </trkpt>
      <trkpt lat="46.23693" lon="6.80481">
        <ele>1619</ele>
        <time>2010-01-03T22:25:37Z</time>
      </trkpt>
      <trkpt lat="46.23739" lon="6.80617">
        <ele>1606</ele>
        <time>2010-01-03T22:26:19Z</time>
      </trkpt>
      <trkpt lat="46.23779" lon="6.80668">
        <ele>1587</ele>
        <time>2010-01-03T22:26:40Z</time>
      </trkpt>
      <trkpt lat="46.23823" lon="6.80707">
        <ele>1583</ele>
        <time>2010-01-03T22:27:01Z</time>
      </trkpt>
      <trkpt lat="46.23866" lon="6.80726">
        <ele>1570</ele>
        <time>2010-01-03T22:27:19Z</time>
      </trkpt>
      <trkpt lat="46.23909" lon="6.80756">
        <ele>1572</ele>
        <time>2010-01-03T22:27:39Z</time>
      </trkpt>
      <trkpt lat="46.23951" lon="6.8079">
        <ele>1565</ele>
        <time>2010-01-03T22:27:58Z</time>
      </trkpt>
      <trkpt lat="46.23993" lon="6.8085">
        <ele>1577</ele>
        <time>2010-01-03T22:28:21Z</time>
      </trkpt>
      <trkpt lat="46.24019" lon="6.80883">
        <ele>1573</ele>
        <time>2010-01-03T22:28:35Z</time>
      </trkpt>
      <trkpt lat="46.2402" lon="6.80922">
        <ele>1586</ele>
        <time>2010-01-03T22:28:46Z</time>
      </trkpt>
      <trkpt lat="46.24073" lon="6.80955">
        <ele>1584</ele>
        <time>2010-01-03T22:29:09Z</time>
      </trkpt>
      <trkpt lat="46.24173" lon="6.81034">
        <ele>1582</ele>
        <time>2010-01-03T22:29:54Z</time>
      </trkpt>
      <trkpt lat="46.24406" lon="6.81213">
        <ele>1577</ele>
        <time>2010-01-03T22:31:40Z</time>
      </trkpt>
      <trkpt lat="46.24442" lon="6.81236">
        <ele>1543</ele>
        <time>2010-01-03T22:31:56Z</time>
      </trkpt>
      <trkpt lat="46.24491" lon="6.8126">
        <ele>1532</ele>
        <time>2010-01-03T22:32:17Z</time>
      </trkpt>
      <trkpt lat="46.2452" lon="6.81298">
        <ele>1504</ele>
        <time>2010-01-03T22:32:32Z</time>
      </trkpt>
      <trkpt lat="46.24544" lon="6.81325">
        <ele>1498</ele>
        <time>2010-01-03T22:32:44Z</time>
      </trkpt>
      <trkpt lat="46.24563" lon="6.81373">
        <ele>1504</ele>
        <time>2010-01-03T22:33:00Z</time>
      </trkpt>
      <trkpt lat="46.24551" lon="6.81453">
        <ele>1505</ele>
        <time>2010-01-03T22:33:22Z</time>
      </trkpt>
      <trkpt lat="46.24496" lon="6.81527">
        <ele>1528</ele>
        <time>2010-01-03T22:33:52Z</time>
      </trkpt>
      <trkpt lat="46.24465" lon="6.81588">
        <ele>1504</ele>
        <time>2010-01-03T22:34:13Z</time>
      </trkpt>
      <trkpt lat="46.24452" lon="6.81624">
        <ele>1504</ele>
        <time>2010-01-03T22:34:25Z</time>
      </trkpt>
      <trkpt lat="46.24442" lon="6.81684">
        <ele>1494</ele>
        <time>2010-01-03T22:34:42Z</time>
      </trkpt>
      <trkpt lat="46.24536" lon="6.81761">
        <ele>1481</ele>
        <time>2010-01-03T22:35:25Z</time>
      </trkpt>
      <trkpt lat="46.24595" lon="6.81788">
        <ele>1467</ele>
        <time>2010-01-03T22:35:50Z</time>
      </trkpt>
      <trkpt lat="46.24674" lon="6.81847">
        <ele>1443</ele>
        <time>2010-01-03T22:36:25Z</time>
      </trkpt>
      <trkpt lat="46.24771" lon="6.8205">
        <ele>1400</ele>
        <time>2010-01-03T22:37:34Z</time>
      </trkpt>
      <trkpt lat="46.24769" lon="6.82228">
        <ele>1394</ele>
        <time>2010-01-03T22:38:23Z</time>
      </trkpt>
      <trkpt lat="46.24753" lon="6.8231">
        <ele>1386</ele>
        <time>2010-01-03T22:38:47Z</time>
      </trkpt>
      <trkpt lat="46.2468" lon="6.82473">
        <ele>1388</ele>
        <time>2010-01-03T22:39:40Z</time>
      </trkpt>
      <trkpt lat="46.24774" lon="6.82582">
        <ele>1383</ele>
        <time>2010-01-03T22:40:28Z</time>
      </trkpt>
      <trkpt lat="46.24894" lon="6.82598">
        <ele>1380</ele>
        <time>2010-01-03T22:41:17Z</time>
      </trkpt>
      <trkpt lat="46.24977" lon="6.82609">
        <ele>1360</ele>
        <time>2010-01-03T22:41:50Z</time>
      </trkpt>
      <trkpt lat="46.2505" lon="6.82693">
        <ele>1346</ele>
        <time>2010-01-03T22:42:27Z</time>
      </trkpt>
      <trkpt lat="46.2512" lon="6.82774">
        <ele>1326</ele>
        <time>2010-01-03T22:43:03Z</time>
      </trkpt>
      <trkpt lat="46.25153" lon="6.82858">
        <ele>1329</ele>
        <time>2010-01-03T22:43:30Z</time>
      </trkpt>
      <trkpt lat="46.25185" lon="6.82962">
        <ele>1299</ele>
        <time>2010-01-03T22:44:01Z</time>
      </trkpt>
      <trkpt lat="46.25222" lon="6.8312">
        <ele>1304</ele>
        <time>2010-01-03T22:44:48Z</time>
      </trkpt>
      <trkpt lat="46.25248" lon="6.83153">
        <ele>1297</ele>
        <time>2010-01-03T22:45:01Z</time>
      </trkpt>
    </trkseg>
  </trk>
</gpx>